﻿<?xml version="1.0" encoding="UTF-8"?>
<gpx version="v1.1.5" creator="iTravel Tech Inc. - http://www.itravel-tech.com" xmlns:xsi="http://www.w3.org/2001/XMLSchema-instance" xmlns="http://www.topografix.com/GPX/1/1" xsi:schemaLocation="http://www.topografix.com/GPX/1/1 http://www.topografix.com/GPX/1/1/gpx.xsd http://www.topografix.com/GPX/gpx_overlay/0/3 http://www.topografix.com/GPX/gpx_overlay/0/3/gpx_overlay.xsd http://www.topografix.com/GPX/gpx_modified/0/1 http://www.topografix.com/GPX/gpx_modified/0/1/gpx_modified.xsd">
<trk>
<name>Holux2010/06/20_10:29</name>
<trkseg>
<trkpt lat="55.900230" lon="26.528484">
<ele>159.673950</ele>
<time>2010-06-20T07:29:53Z</time>
<desc>lat.=55.900230, lon.=26.528484, Alt.=159.673950m. Speed=0.108000m/h.</desc>
<speed>0.030000</speed>
</trkpt>
<trkpt lat="55.900223" lon="26.528318">
<ele>179.830200</ele>
<time>2010-06-20T07:29:54Z</time>
<desc>lat.=55.900223, lon.=26.528318, Alt.=179.830200m. Speed=0.108000m/h.</desc>
<speed>0.030000</speed>
</trkpt>
<trkpt lat="55.900192" lon="26.528294">
<ele>171.525513</ele>
<time>2010-06-20T07:29:55Z</time>
<desc>lat.=55.900192, lon.=26.528294, Alt.=171.525513m. Speed=0.288000m/h.</desc>
<speed>0.080000</speed>
</trkpt>
<trkpt lat="55.900188" lon="26.528318">
<ele>161.838013</ele>
<time>2010-06-20T07:29:56Z</time>
<desc>lat.=55.900188, lon.=26.528318, Alt.=161.838013m. Speed=0.000000m/h.</desc>
<speed>0.000000</speed>
</trkpt>
<trkpt lat="55.900196" lon="26.528461">
<ele>147.763794</ele>
<time>2010-06-20T07:29:57Z</time>
<desc>lat.=55.900196, lon.=26.528461, Alt.=147.763794m. Speed=0.108000m/h.</desc>
<speed>0.030000</speed>
</trkpt>
<trkpt lat="55.900192" lon="26.528500">
<ele>131.548950</ele>
<time>2010-06-20T07:29:58Z</time>
<desc>lat.=55.900192, lon.=26.528500, Alt.=131.548950m. Speed=0.144000m/h.</desc>
<speed>0.040000</speed>
</trkpt>
<trkpt lat="55.900196" lon="26.528500">
<ele>130.509888</ele>
<time>2010-06-20T07:29:59Z</time>
<desc>lat.=55.900196, lon.=26.528500, Alt.=130.509888m. Speed=0.612000m/h.</desc>
<speed>0.170000</speed>
</trkpt>
<trkpt lat="55.900192" lon="26.528488">
<ele>133.517700</ele>
<time>2010-06-20T07:30:00Z</time>
<desc>lat.=55.900192, lon.=26.528488, Alt.=133.517700m. Speed=1.116000m/h.</desc>
<speed>0.310000</speed>
</trkpt>
<trkpt lat="55.900185" lon="26.528477">
<ele>136.252075</ele>
<time>2010-06-20T07:30:01Z</time>
<desc>lat.=55.900185, lon.=26.528477, Alt.=136.252075m. Speed=1.152000m/h.</desc>
<speed>0.320000</speed>
</trkpt>
<trkpt lat="55.900185" lon="26.528469">
<ele>136.810669</ele>
<time>2010-06-20T07:30:02Z</time>
<desc>lat.=55.900185, lon.=26.528469, Alt.=136.810669m. Speed=1.116000m/h.</desc>
<speed>0.310000</speed>
</trkpt>
<trkpt lat="55.900188" lon="26.528467">
<ele>135.873169</ele>
<time>2010-06-20T07:30:03Z</time>
<desc>lat.=55.900188, lon.=26.528467, Alt.=135.873169m. Speed=0.792000m/h.</desc>
<speed>0.220000</speed>
</trkpt>
<trkpt lat="55.900185" lon="26.528465">
<ele>135.869263</ele>
<time>2010-06-20T07:30:04Z</time>
<desc>lat.=55.900185, lon.=26.528465, Alt.=135.869263m. Speed=0.180000m/h.</desc>
<speed>0.050000</speed>
</trkpt>
<trkpt lat="55.900185" lon="26.528473">
<ele>133.861450</ele>
<time>2010-06-20T07:30:05Z</time>
<desc>lat.=55.900185, lon.=26.528473, Alt.=133.861450m. Speed=0.324000m/h.</desc>
<speed>0.090000</speed>
</trkpt>
<trkpt lat="55.900185" lon="26.528473">
<ele>133.853638</ele>
<time>2010-06-20T07:30:06Z</time>
<desc>lat.=55.900185, lon.=26.528473, Alt.=133.853638m. Speed=0.612000m/h.</desc>
<speed>0.170000</speed>
</trkpt>
<trkpt lat="55.900188" lon="26.528461">
<ele>131.213013</ele>
<time>2010-06-20T07:30:07Z</time>
<desc>lat.=55.900188, lon.=26.528461, Alt.=131.213013m. Speed=0.756000m/h.</desc>
<speed>0.210000</speed>
</trkpt>
<trkpt lat="55.900196" lon="26.528505">
<ele>130.959106</ele>
<time>2010-06-20T07:30:08Z</time>
<desc>lat.=55.900196, lon.=26.528505, Alt.=130.959106m. Speed=1.116000m/h.</desc>
<speed>0.310000</speed>
</trkpt>
<trkpt lat="55.900230" lon="26.528538">
<ele>125.586975</ele>
<time>2010-06-20T07:30:09Z</time>
<desc>lat.=55.900230, lon.=26.528538, Alt.=125.586975m. Speed=1.008000m/h.</desc>
<speed>0.280000</speed>
</trkpt>
<trkpt lat="55.900200" lon="26.528570">
<ele>124.210022</ele>
<time>2010-06-20T07:30:10Z</time>
<desc>lat.=55.900200, lon.=26.528570, Alt.=124.210022m. Speed=0.828000m/h.</desc>
<speed>0.230000</speed>
</trkpt>
<trkpt lat="55.900200" lon="26.528574">
<ele>123.831116</ele>
<time>2010-06-20T07:30:11Z</time>
<desc>lat.=55.900200, lon.=26.528574, Alt.=123.831116m. Speed=0.720000m/h.</desc>
<speed>0.200000</speed>
</trkpt>
<trkpt lat="55.900192" lon="26.528595">
<ele>120.756897</ele>
<time>2010-06-20T07:30:12Z</time>
<desc>lat.=55.900192, lon.=26.528595, Alt.=120.756897m. Speed=0.360000m/h.</desc>
<speed>0.100000</speed>
</trkpt>
<trkpt lat="55.900188" lon="26.528608">
<ele>119.223694</ele>
<time>2010-06-20T07:30:13Z</time>
<desc>lat.=55.900188, lon.=26.528608, Alt.=119.223694m. Speed=0.036000m/h.</desc>
<speed>0.010000</speed>
</trkpt>
<trkpt lat="55.900181" lon="26.528620">
<ele>118.772522</ele>
<time>2010-06-20T07:30:14Z</time>
<desc>lat.=55.900181, lon.=26.528620, Alt.=118.772522m. Speed=0.540000m/h.</desc>
<speed>0.150000</speed>
</trkpt>
<trkpt lat="55.900177" lon="26.528624">
<ele>118.588928</ele>
<time>2010-06-20T07:30:15Z</time>
<desc>lat.=55.900177, lon.=26.528624, Alt.=118.588928m. Speed=0.252000m/h.</desc>
<speed>0.070000</speed>
</trkpt>
<trkpt lat="55.900177" lon="26.528629">
<ele>118.553772</ele>
<time>2010-06-20T07:30:16Z</time>
<desc>lat.=55.900177, lon.=26.528629, Alt.=118.553772m. Speed=0.144000m/h.</desc>
<speed>0.040000</speed>
</trkpt>
<trkpt lat="55.900188" lon="26.528639">
<ele>116.499084</ele>
<time>2010-06-20T07:30:17Z</time>
<desc>lat.=55.900188, lon.=26.528639, Alt.=116.499084m. Speed=0.540000m/h.</desc>
<speed>0.150000</speed>
</trkpt>
<trkpt lat="55.900185" lon="26.528639">
<ele>116.188538</ele>
<time>2010-06-20T07:30:18Z</time>
<desc>lat.=55.900185, lon.=26.528639, Alt.=116.188538m. Speed=0.468000m/h.</desc>
<speed>0.130000</speed>
</trkpt>
<trkpt lat="55.900185" lon="26.528637">
<ele>115.993225</ele>
<time>2010-06-20T07:30:19Z</time>
<desc>lat.=55.900185, lon.=26.528637, Alt.=115.993225m. Speed=0.468000m/h.</desc>
<speed>0.130000</speed>
</trkpt>
<trkpt lat="55.900181" lon="26.528631">
<ele>115.799866</ele>
<time>2010-06-20T07:30:20Z</time>
<desc>lat.=55.900181, lon.=26.528631, Alt.=115.799866m. Speed=0.504000m/h.</desc>
<speed>0.140000</speed>
</trkpt>
<trkpt lat="55.900181" lon="26.528627">
<ele>115.514709</ele>
<time>2010-06-20T07:30:21Z</time>
<desc>lat.=55.900181, lon.=26.528627, Alt.=115.514709m. Speed=0.576000m/h.</desc>
<speed>0.160000</speed>
</trkpt>
<trkpt lat="55.900177" lon="26.528625">
<ele>115.208069</ele>
<time>2010-06-20T07:30:22Z</time>
<desc>lat.=55.900177, lon.=26.528625, Alt.=115.208069m. Speed=0.576000m/h.</desc>
<speed>0.160000</speed>
</trkpt>
<trkpt lat="55.900177" lon="26.528629">
<ele>114.899475</ele>
<time>2010-06-20T07:30:23Z</time>
<desc>lat.=55.900177, lon.=26.528629, Alt.=114.899475m. Speed=0.216000m/h.</desc>
<speed>0.060000</speed>
</trkpt>
<trkpt lat="55.900177" lon="26.528631">
<ele>114.514709</ele>
<time>2010-06-20T07:30:24Z</time>
<desc>lat.=55.900177, lon.=26.528631, Alt.=114.514709m. Speed=0.000000m/h.</desc>
<speed>0.000000</speed>
</trkpt>
<trkpt lat="55.900173" lon="26.528633">
<ele>114.174866</ele>
<time>2010-06-20T07:30:25Z</time>
<desc>lat.=55.900173, lon.=26.528633, Alt.=114.174866m. Speed=0.252000m/h.</desc>
<speed>0.070000</speed>
</trkpt>
<trkpt lat="55.900169" lon="26.528645">
<ele>113.752991</ele>
<time>2010-06-20T07:30:26Z</time>
<desc>lat.=55.900169, lon.=26.528645, Alt.=113.752991m. Speed=0.360000m/h.</desc>
<speed>0.100000</speed>
</trkpt>
<trkpt lat="55.900169" lon="26.528646">
<ele>113.751038</ele>
<time>2010-06-20T07:30:27Z</time>
<desc>lat.=55.900169, lon.=26.528646, Alt.=113.751038m. Speed=2.088000m/h.</desc>
<speed>0.580000</speed>
</trkpt>
<trkpt lat="55.900158" lon="26.528669">
<ele>113.219788</ele>
<time>2010-06-20T07:30:28Z</time>
<desc>lat.=55.900158, lon.=26.528669, Alt.=113.219788m. Speed=2.988000m/h.</desc>
<speed>0.830000</speed>
</trkpt>
<trkpt lat="55.900146" lon="26.528667">
<ele>113.038147</ele>
<time>2010-06-20T07:30:29Z</time>
<desc>lat.=55.900146, lon.=26.528667, Alt.=113.038147m. Speed=3.348000m/h.</desc>
<speed>0.930000</speed>
</trkpt>
<trkpt lat="55.900150" lon="26.528696">
<ele>111.895569</ele>
<time>2010-06-20T07:30:30Z</time>
<desc>lat.=55.900150, lon.=26.528696, Alt.=111.895569m. Speed=2.988000m/h.</desc>
<speed>0.830000</speed>
</trkpt>
<trkpt lat="55.900135" lon="26.528706">
<ele>111.721741</ele>
<time>2010-06-20T07:30:31Z</time>
<desc>lat.=55.900135, lon.=26.528706, Alt.=111.721741m. Speed=3.780000m/h.</desc>
<speed>1.050000</speed>
</trkpt>
<trkpt lat="55.900131" lon="26.528732">
<ele>112.040100</ele>
<time>2010-06-20T07:30:32Z</time>
<desc>lat.=55.900131, lon.=26.528732, Alt.=112.040100m. Speed=4.140000m/h.</desc>
<speed>1.150000</speed>
</trkpt>
<trkpt lat="55.900143" lon="26.528778">
<ele>112.983459</ele>
<time>2010-06-20T07:30:33Z</time>
<desc>lat.=55.900143, lon.=26.528778, Alt.=112.983459m. Speed=4.572000m/h.</desc>
<speed>1.270000</speed>
</trkpt>
<trkpt lat="55.900139" lon="26.528797">
<ele>112.780334</ele>
<time>2010-06-20T07:30:34Z</time>
<desc>lat.=55.900139, lon.=26.528797, Alt.=112.780334m. Speed=4.968000m/h.</desc>
<speed>1.380000</speed>
</trkpt>
<trkpt lat="55.900139" lon="26.528837">
<ele>113.831116</ele>
<time>2010-06-20T07:30:35Z</time>
<desc>lat.=55.900139, lon.=26.528837, Alt.=113.831116m. Speed=5.436000m/h.</desc>
<speed>1.510000</speed>
</trkpt>
<trkpt lat="55.900135" lon="26.528862">
<ele>113.827209</ele>
<time>2010-06-20T07:30:36Z</time>
<desc>lat.=55.900135, lon.=26.528862, Alt.=113.827209m. Speed=6.948000m/h.</desc>
<speed>1.930000</speed>
</trkpt>
<trkpt lat="55.900127" lon="26.528889">
<ele>114.319397</ele>
<time>2010-06-20T07:30:37Z</time>
<desc>lat.=55.900127, lon.=26.528889, Alt.=114.319397m. Speed=6.840000m/h.</desc>
<speed>1.900000</speed>
</trkpt>
<trkpt lat="55.900116" lon="26.528906">
<ele>114.561584</ele>
<time>2010-06-20T07:30:38Z</time>
<desc>lat.=55.900116, lon.=26.528906, Alt.=114.561584m. Speed=5.760000m/h.</desc>
<speed>1.600000</speed>
</trkpt>
<trkpt lat="55.900108" lon="26.528910">
<ele>114.213928</ele>
<time>2010-06-20T07:30:39Z</time>
<desc>lat.=55.900108, lon.=26.528910, Alt.=114.213928m. Speed=1.620000m/h.</desc>
<speed>0.450000</speed>
</trkpt>
<trkpt lat="55.900097" lon="26.528908">
<ele>114.686584</ele>
<time>2010-06-20T07:30:40Z</time>
<desc>lat.=55.900097, lon.=26.528908, Alt.=114.686584m. Speed=1.224000m/h.</desc>
<speed>0.340000</speed>
</trkpt>
<trkpt lat="55.900085" lon="26.528915">
<ele>113.975647</ele>
<time>2010-06-20T07:30:41Z</time>
<desc>lat.=55.900085, lon.=26.528915, Alt.=113.975647m. Speed=2.484000m/h.</desc>
<speed>0.690000</speed>
</trkpt>
<trkpt lat="55.900074" lon="26.528915">
<ele>113.610413</ele>
<time>2010-06-20T07:30:42Z</time>
<desc>lat.=55.900074, lon.=26.528915, Alt.=113.610413m. Speed=2.592000m/h.</desc>
<speed>0.720000</speed>
</trkpt>
<trkpt lat="55.900066" lon="26.528929">
<ele>113.622131</ele>
<time>2010-06-20T07:30:43Z</time>
<desc>lat.=55.900066, lon.=26.528929, Alt.=113.622131m. Speed=4.212000m/h.</desc>
<speed>1.170000</speed>
</trkpt>
<trkpt lat="55.900055" lon="26.528969">
<ele>113.674866</ele>
<time>2010-06-20T07:30:44Z</time>
<desc>lat.=55.900055, lon.=26.528969, Alt.=113.674866m. Speed=6.372000m/h.</desc>
<speed>1.770000</speed>
</trkpt>
<trkpt lat="55.900043" lon="26.528994">
<ele>113.600647</ele>
<time>2010-06-20T07:30:45Z</time>
<desc>lat.=55.900043, lon.=26.528994, Alt.=113.600647m. Speed=8.568000m/h.</desc>
<speed>2.380000</speed>
</trkpt>
<trkpt lat="55.900028" lon="26.529026">
<ele>113.803772</ele>
<time>2010-06-20T07:30:46Z</time>
<desc>lat.=55.900028, lon.=26.529026, Alt.=113.803772m. Speed=9.756000m/h.</desc>
<speed>2.710000</speed>
</trkpt>
<trkpt lat="55.900005" lon="26.529053">
<ele>114.198303</ele>
<time>2010-06-20T07:30:47Z</time>
<desc>lat.=55.900005, lon.=26.529053, Alt.=114.198303m. Speed=9.576000m/h.</desc>
<speed>2.660000</speed>
</trkpt>
<trkpt lat="55.899998" lon="26.529085">
<ele>114.137756</ele>
<time>2010-06-20T07:30:48Z</time>
<desc>lat.=55.899998, lon.=26.529085, Alt.=114.137756m. Speed=7.812000m/h.</desc>
<speed>2.170000</speed>
</trkpt>
<trkpt lat="55.899990" lon="26.529114">
<ele>113.907288</ele>
<time>2010-06-20T07:30:49Z</time>
<desc>lat.=55.899990, lon.=26.529114, Alt.=113.907288m. Speed=8.532000m/h.</desc>
<speed>2.370000</speed>
</trkpt>
<trkpt lat="55.899986" lon="26.529150">
<ele>114.376038</ele>
<time>2010-06-20T07:30:50Z</time>
<desc>lat.=55.899986, lon.=26.529150, Alt.=114.376038m. Speed=7.956000m/h.</desc>
<speed>2.210000</speed>
</trkpt>
<trkpt lat="55.899963" lon="26.529188">
<ele>114.245178</ele>
<time>2010-06-20T07:30:51Z</time>
<desc>lat.=55.899963, lon.=26.529188, Alt.=114.245178m. Speed=9.216000m/h.</desc>
<speed>2.560000</speed>
</trkpt>
<trkpt lat="55.899952" lon="26.529232">
<ele>114.377991</ele>
<time>2010-06-20T07:30:52Z</time>
<desc>lat.=55.899952, lon.=26.529232, Alt.=114.377991m. Speed=9.648000m/h.</desc>
<speed>2.680000</speed>
</trkpt>
<trkpt lat="55.899944" lon="26.529282">
<ele>114.270569</ele>
<time>2010-06-20T07:30:53Z</time>
<desc>lat.=55.899944, lon.=26.529282, Alt.=114.270569m. Speed=9.072000m/h.</desc>
<speed>2.520000</speed>
</trkpt>
<trkpt lat="55.899929" lon="26.529329">
<ele>113.456116</ele>
<time>2010-06-20T07:30:54Z</time>
<desc>lat.=55.899929, lon.=26.529329, Alt.=113.456116m. Speed=9.324000m/h.</desc>
<speed>2.590000</speed>
</trkpt>
<trkpt lat="55.899918" lon="26.529366">
<ele>113.469788</ele>
<time>2010-06-20T07:30:55Z</time>
<desc>lat.=55.899918, lon.=26.529366, Alt.=113.469788m. Speed=8.640000m/h.</desc>
<speed>2.400000</speed>
</trkpt>
<trkpt lat="55.899906" lon="26.529404">
<ele>113.292053</ele>
<time>2010-06-20T07:30:56Z</time>
<desc>lat.=55.899906, lon.=26.529404, Alt.=113.292053m. Speed=8.064000m/h.</desc>
<speed>2.240000</speed>
</trkpt>
<trkpt lat="55.899895" lon="26.529434">
<ele>113.403381</ele>
<time>2010-06-20T07:30:57Z</time>
<desc>lat.=55.899895, lon.=26.529434, Alt.=113.403381m. Speed=7.236000m/h.</desc>
<speed>2.010000</speed>
</trkpt>
<trkpt lat="55.899879" lon="26.529465">
<ele>113.860413</ele>
<time>2010-06-20T07:30:58Z</time>
<desc>lat.=55.899879, lon.=26.529465, Alt.=113.860413m. Speed=6.948000m/h.</desc>
<speed>1.930000</speed>
</trkpt>
<trkpt lat="55.899857" lon="26.529499">
<ele>114.544006</ele>
<time>2010-06-20T07:30:59Z</time>
<desc>lat.=55.899857, lon.=26.529499, Alt.=114.544006m. Speed=7.524000m/h.</desc>
<speed>2.090000</speed>
</trkpt>
<trkpt lat="55.899834" lon="26.529510">
<ele>114.981506</ele>
<time>2010-06-20T07:31:00Z</time>
<desc>lat.=55.899834, lon.=26.529510, Alt.=114.981506m. Speed=8.784000m/h.</desc>
<speed>2.440000</speed>
</trkpt>
<trkpt lat="55.899815" lon="26.529537">
<ele>115.401428</ele>
<time>2010-06-20T07:31:01Z</time>
<desc>lat.=55.899815, lon.=26.529537, Alt.=115.401428m. Speed=8.208000m/h.</desc>
<speed>2.280000</speed>
</trkpt>
<trkpt lat="55.899799" lon="26.529572">
<ele>115.450256</ele>
<time>2010-06-20T07:31:02Z</time>
<desc>lat.=55.899799, lon.=26.529572, Alt.=115.450256m. Speed=10.044000m/h.</desc>
<speed>2.790000</speed>
</trkpt>
<trkpt lat="55.899784" lon="26.529608">
<ele>115.555725</ele>
<time>2010-06-20T07:31:03Z</time>
<desc>lat.=55.899784, lon.=26.529608, Alt.=115.555725m. Speed=10.836000m/h.</desc>
<speed>3.010000</speed>
</trkpt>
<trkpt lat="55.899765" lon="26.529642">
<ele>115.610413</ele>
<time>2010-06-20T07:31:04Z</time>
<desc>lat.=55.899765, lon.=26.529642, Alt.=115.610413m. Speed=10.188000m/h.</desc>
<speed>2.830000</speed>
</trkpt>
<trkpt lat="55.899750" lon="26.529678">
<ele>115.688538</ele>
<time>2010-06-20T07:31:05Z</time>
<desc>lat.=55.899750, lon.=26.529678, Alt.=115.688538m. Speed=10.008000m/h.</desc>
<speed>2.780000</speed>
</trkpt>
<trkpt lat="55.899727" lon="26.529715">
<ele>115.956116</ele>
<time>2010-06-20T07:31:06Z</time>
<desc>lat.=55.899727, lon.=26.529715, Alt.=115.956116m. Speed=10.332000m/h.</desc>
<speed>2.870000</speed>
</trkpt>
<trkpt lat="55.899700" lon="26.529745">
<ele>116.319397</ele>
<time>2010-06-20T07:31:07Z</time>
<desc>lat.=55.899700, lon.=26.529745, Alt.=116.319397m. Speed=10.332000m/h.</desc>
<speed>2.870000</speed>
</trkpt>
<trkpt lat="55.899677" lon="26.529770">
<ele>116.127991</ele>
<time>2010-06-20T07:31:08Z</time>
<desc>lat.=55.899677, lon.=26.529770, Alt.=116.127991m. Speed=10.152000m/h.</desc>
<speed>2.820000</speed>
</trkpt>
<trkpt lat="55.899658" lon="26.529804">
<ele>114.961975</ele>
<time>2010-06-20T07:31:09Z</time>
<desc>lat.=55.899658, lon.=26.529804, Alt.=114.961975m. Speed=10.368000m/h.</desc>
<speed>2.880000</speed>
</trkpt>
<trkpt lat="55.899635" lon="26.529814">
<ele>115.241272</ele>
<time>2010-06-20T07:31:10Z</time>
<desc>lat.=55.899635, lon.=26.529814, Alt.=115.241272m. Speed=7.668000m/h.</desc>
<speed>2.130000</speed>
</trkpt>
<trkpt lat="55.899616" lon="26.529806">
<ele>116.104553</ele>
<time>2010-06-20T07:31:11Z</time>
<desc>lat.=55.899616, lon.=26.529806, Alt.=116.104553m. Speed=8.064000m/h.</desc>
<speed>2.240000</speed>
</trkpt>
<trkpt lat="55.899597" lon="26.529791">
<ele>116.840881</ele>
<time>2010-06-20T07:31:12Z</time>
<desc>lat.=55.899597, lon.=26.529791, Alt.=116.840881m. Speed=6.048000m/h.</desc>
<speed>1.680000</speed>
</trkpt>
<trkpt lat="55.899582" lon="26.529774">
<ele>117.266663</ele>
<time>2010-06-20T07:31:13Z</time>
<desc>lat.=55.899582, lon.=26.529774, Alt.=117.266663m. Speed=6.084000m/h.</desc>
<speed>1.690000</speed>
</trkpt>
<trkpt lat="55.899570" lon="26.529760">
<ele>117.159241</ele>
<time>2010-06-20T07:31:14Z</time>
<desc>lat.=55.899570, lon.=26.529760, Alt.=117.159241m. Speed=4.680000m/h.</desc>
<speed>1.300000</speed>
</trkpt>
<trkpt lat="55.899559" lon="26.529747">
<ele>117.835022</ele>
<time>2010-06-20T07:31:15Z</time>
<desc>lat.=55.899559, lon.=26.529747, Alt.=117.835022m. Speed=3.708000m/h.</desc>
<speed>1.030000</speed>
</trkpt>
<trkpt lat="55.899555" lon="26.529732">
<ele>118.542053</ele>
<time>2010-06-20T07:31:16Z</time>
<desc>lat.=55.899555, lon.=26.529732, Alt.=118.542053m. Speed=4.356000m/h.</desc>
<speed>1.210000</speed>
</trkpt>
<trkpt lat="55.899548" lon="26.529718">
<ele>118.444397</ele>
<time>2010-06-20T07:31:17Z</time>
<desc>lat.=55.899548, lon.=26.529718, Alt.=118.444397m. Speed=4.824000m/h.</desc>
<speed>1.340000</speed>
</trkpt>
<trkpt lat="55.899536" lon="26.529701">
<ele>118.567444</ele>
<time>2010-06-20T07:31:18Z</time>
<desc>lat.=55.899536, lon.=26.529701, Alt.=118.567444m. Speed=5.760000m/h.</desc>
<speed>1.600000</speed>
</trkpt>
<trkpt lat="55.899521" lon="26.529680">
<ele>119.260803</ele>
<time>2010-06-20T07:31:19Z</time>
<desc>lat.=55.899521, lon.=26.529680, Alt.=119.260803m. Speed=6.228000m/h.</desc>
<speed>1.730000</speed>
</trkpt>
<trkpt lat="55.899513" lon="26.529663">
<ele>119.846741</ele>
<time>2010-06-20T07:31:20Z</time>
<desc>lat.=55.899513, lon.=26.529663, Alt.=119.846741m. Speed=3.384000m/h.</desc>
<speed>0.940000</speed>
</trkpt>
<trkpt lat="55.899502" lon="26.529657">
<ele>119.348694</ele>
<time>2010-06-20T07:31:21Z</time>
<desc>lat.=55.899502, lon.=26.529657, Alt.=119.348694m. Speed=3.060000m/h.</desc>
<speed>0.850000</speed>
</trkpt>
<trkpt lat="55.899498" lon="26.529650">
<ele>119.551819</ele>
<time>2010-06-20T07:31:22Z</time>
<desc>lat.=55.899498, lon.=26.529650, Alt.=119.551819m. Speed=2.340000m/h.</desc>
<speed>0.650000</speed>
</trkpt>
<trkpt lat="55.899494" lon="26.529642">
<ele>120.104553</ele>
<time>2010-06-20T07:31:23Z</time>
<desc>lat.=55.899494, lon.=26.529642, Alt.=120.104553m. Speed=1.692000m/h.</desc>
<speed>0.470000</speed>
</trkpt>
<trkpt lat="55.899487" lon="26.529636">
<ele>120.352600</ele>
<time>2010-06-20T07:31:24Z</time>
<desc>lat.=55.899487, lon.=26.529636, Alt.=120.352600m. Speed=1.944000m/h.</desc>
<speed>0.540000</speed>
</trkpt>
<trkpt lat="55.899487" lon="26.529631">
<ele>120.596741</ele>
<time>2010-06-20T07:31:25Z</time>
<desc>lat.=55.899487, lon.=26.529631, Alt.=120.596741m. Speed=1.080000m/h.</desc>
<speed>0.300000</speed>
</trkpt>
<trkpt lat="55.899479" lon="26.529629">
<ele>120.815491</ele>
<time>2010-06-20T07:31:26Z</time>
<desc>lat.=55.899479, lon.=26.529629, Alt.=120.815491m. Speed=1.836000m/h.</desc>
<speed>0.510000</speed>
</trkpt>
<trkpt lat="55.899467" lon="26.529612">
<ele>121.038147</ele>
<time>2010-06-20T07:31:27Z</time>
<desc>lat.=55.899467, lon.=26.529612, Alt.=121.038147m. Speed=3.420000m/h.</desc>
<speed>0.950000</speed>
</trkpt>
<trkpt lat="55.899441" lon="26.529615">
<ele>120.965881</ele>
<time>2010-06-20T07:31:28Z</time>
<desc>lat.=55.899441, lon.=26.529615, Alt.=120.965881m. Speed=3.636000m/h.</desc>
<speed>1.010000</speed>
</trkpt>
<trkpt lat="55.899418" lon="26.529600">
<ele>120.901428</ele>
<time>2010-06-20T07:31:29Z</time>
<desc>lat.=55.899418, lon.=26.529600, Alt.=120.901428m. Speed=5.400000m/h.</desc>
<speed>1.500000</speed>
</trkpt>
<trkpt lat="55.899399" lon="26.529572">
<ele>121.030334</ele>
<time>2010-06-20T07:31:30Z</time>
<desc>lat.=55.899399, lon.=26.529572, Alt.=121.030334m. Speed=4.212000m/h.</desc>
<speed>1.170000</speed>
</trkpt>
<trkpt lat="55.899384" lon="26.529556">
<ele>121.338928</ele>
<time>2010-06-20T07:31:31Z</time>
<desc>lat.=55.899384, lon.=26.529556, Alt.=121.338928m. Speed=4.212000m/h.</desc>
<speed>1.170000</speed>
</trkpt>
<trkpt lat="55.899368" lon="26.529543">
<ele>121.540100</ele>
<time>2010-06-20T07:31:32Z</time>
<desc>lat.=55.899368, lon.=26.529543, Alt.=121.540100m. Speed=3.096000m/h.</desc>
<speed>0.860000</speed>
</trkpt>
<trkpt lat="55.899361" lon="26.529535">
<ele>121.700256</ele>
<time>2010-06-20T07:31:33Z</time>
<desc>lat.=55.899361, lon.=26.529535, Alt.=121.700256m. Speed=1.872000m/h.</desc>
<speed>0.520000</speed>
</trkpt>
<trkpt lat="55.899357" lon="26.529505">
<ele>121.561584</ele>
<time>2010-06-20T07:31:34Z</time>
<desc>lat.=55.899357, lon.=26.529505, Alt.=121.561584m. Speed=3.636000m/h.</desc>
<speed>1.010000</speed>
</trkpt>
<trkpt lat="55.899342" lon="26.529488">
<ele>121.805725</ele>
<time>2010-06-20T07:31:35Z</time>
<desc>lat.=55.899342, lon.=26.529488, Alt.=121.805725m. Speed=3.888000m/h.</desc>
<speed>1.080000</speed>
</trkpt>
<trkpt lat="55.899326" lon="26.529470">
<ele>121.960022</ele>
<time>2010-06-20T07:31:36Z</time>
<desc>lat.=55.899326, lon.=26.529470, Alt.=121.960022m. Speed=3.996000m/h.</desc>
<speed>1.110000</speed>
</trkpt>
<trkpt lat="55.899315" lon="26.529453">
<ele>122.252991</ele>
<time>2010-06-20T07:31:37Z</time>
<desc>lat.=55.899315, lon.=26.529453, Alt.=122.252991m. Speed=4.104000m/h.</desc>
<speed>1.140000</speed>
</trkpt>
<trkpt lat="55.899300" lon="26.529427">
<ele>122.487366</ele>
<time>2010-06-20T07:31:38Z</time>
<desc>lat.=55.899300, lon.=26.529427, Alt.=122.487366m. Speed=4.896000m/h.</desc>
<speed>1.360000</speed>
</trkpt>
<trkpt lat="55.899284" lon="26.529417">
<ele>122.776428</ele>
<time>2010-06-20T07:31:39Z</time>
<desc>lat.=55.899284, lon.=26.529417, Alt.=122.776428m. Speed=5.976000m/h.</desc>
<speed>1.660000</speed>
</trkpt>
<trkpt lat="55.899265" lon="26.529398">
<ele>123.083069</ele>
<time>2010-06-20T07:31:40Z</time>
<desc>lat.=55.899265, lon.=26.529398, Alt.=123.083069m. Speed=5.724000m/h.</desc>
<speed>1.590000</speed>
</trkpt>
<trkpt lat="55.899269" lon="26.529379">
<ele>123.231506</ele>
<time>2010-06-20T07:31:41Z</time>
<desc>lat.=55.899269, lon.=26.529379, Alt.=123.231506m. Speed=7.308000m/h.</desc>
<speed>2.030000</speed>
</trkpt>
<trkpt lat="55.899250" lon="26.529377">
<ele>123.600647</ele>
<time>2010-06-20T07:31:42Z</time>
<desc>lat.=55.899250, lon.=26.529377, Alt.=123.600647m. Speed=6.732000m/h.</desc>
<speed>1.870000</speed>
</trkpt>
<trkpt lat="55.899235" lon="26.529364">
<ele>123.831116</ele>
<time>2010-06-20T07:31:43Z</time>
<desc>lat.=55.899235, lon.=26.529364, Alt.=123.831116m. Speed=6.156000m/h.</desc>
<speed>1.710000</speed>
</trkpt>
<trkpt lat="55.899220" lon="26.529358">
<ele>124.141663</ele>
<time>2010-06-20T07:31:44Z</time>
<desc>lat.=55.899220, lon.=26.529358, Alt.=124.141663m. Speed=7.164000m/h.</desc>
<speed>1.990000</speed>
</trkpt>
<trkpt lat="55.899204" lon="26.529337">
<ele>124.262756</ele>
<time>2010-06-20T07:31:45Z</time>
<desc>lat.=55.899204, lon.=26.529337, Alt.=124.262756m. Speed=7.164000m/h.</desc>
<speed>1.990000</speed>
</trkpt>
<trkpt lat="55.899189" lon="26.529305">
<ele>124.450256</ele>
<time>2010-06-20T07:31:46Z</time>
<desc>lat.=55.899189, lon.=26.529305, Alt.=124.450256m. Speed=7.416000m/h.</desc>
<speed>2.060000</speed>
</trkpt>
<trkpt lat="55.899170" lon="26.529282">
<ele>124.598694</ele>
<time>2010-06-20T07:31:47Z</time>
<desc>lat.=55.899170, lon.=26.529282, Alt.=124.598694m. Speed=7.164000m/h.</desc>
<speed>1.990000</speed>
</trkpt>
<trkpt lat="55.899155" lon="26.529261">
<ele>124.850647</ele>
<time>2010-06-20T07:31:48Z</time>
<desc>lat.=55.899155, lon.=26.529261, Alt.=124.850647m. Speed=7.452000m/h.</desc>
<speed>2.070000</speed>
</trkpt>
<trkpt lat="55.899136" lon="26.529243">
<ele>125.194397</ele>
<time>2010-06-20T07:31:49Z</time>
<desc>lat.=55.899136, lon.=26.529243, Alt.=125.194397m. Speed=7.128000m/h.</desc>
<speed>1.980000</speed>
</trkpt>
<trkpt lat="55.899124" lon="26.529219">
<ele>125.551819</ele>
<time>2010-06-20T07:31:50Z</time>
<desc>lat.=55.899124, lon.=26.529219, Alt.=125.551819m. Speed=7.092000m/h.</desc>
<speed>1.970000</speed>
</trkpt>
<trkpt lat="55.899109" lon="26.529192">
<ele>125.768616</ele>
<time>2010-06-20T07:31:51Z</time>
<desc>lat.=55.899109, lon.=26.529192, Alt.=125.768616m. Speed=7.200000m/h.</desc>
<speed>2.000000</speed>
</trkpt>
<trkpt lat="55.899094" lon="26.529175">
<ele>126.049866</ele>
<time>2010-06-20T07:31:52Z</time>
<desc>lat.=55.899094, lon.=26.529175, Alt.=126.049866m. Speed=6.264000m/h.</desc>
<speed>1.740000</speed>
</trkpt>
<trkpt lat="55.899086" lon="26.529146">
<ele>126.252991</ele>
<time>2010-06-20T07:31:53Z</time>
<desc>lat.=55.899086, lon.=26.529146, Alt.=126.252991m. Speed=5.796000m/h.</desc>
<speed>1.610000</speed>
</trkpt>
<trkpt lat="55.899067" lon="26.529131">
<ele>126.534241</ele>
<time>2010-06-20T07:31:54Z</time>
<desc>lat.=55.899067, lon.=26.529131, Alt.=126.534241m. Speed=4.608000m/h.</desc>
<speed>1.280000</speed>
</trkpt>
<trkpt lat="55.899063" lon="26.529106">
<ele>126.563538</ele>
<time>2010-06-20T07:31:55Z</time>
<desc>lat.=55.899063, lon.=26.529106, Alt.=126.563538m. Speed=7.344000m/h.</desc>
<speed>2.040000</speed>
</trkpt>
<trkpt lat="55.899044" lon="26.529089">
<ele>126.745178</ele>
<time>2010-06-20T07:31:56Z</time>
<desc>lat.=55.899044, lon.=26.529089, Alt.=126.745178m. Speed=7.200000m/h.</desc>
<speed>2.000000</speed>
</trkpt>
<trkpt lat="55.899025" lon="26.529072">
<ele>126.997131</ele>
<time>2010-06-20T07:31:57Z</time>
<desc>lat.=55.899025, lon.=26.529072, Alt.=126.997131m. Speed=8.280000m/h.</desc>
<speed>2.300000</speed>
</trkpt>
<trkpt lat="55.899006" lon="26.529051">
<ele>127.194397</ele>
<time>2010-06-20T07:31:58Z</time>
<desc>lat.=55.899006, lon.=26.529051, Alt.=127.194397m. Speed=8.208000m/h.</desc>
<speed>2.280000</speed>
</trkpt>
<trkpt lat="55.898987" lon="26.529032">
<ele>127.372131</ele>
<time>2010-06-20T07:31:59Z</time>
<desc>lat.=55.898987, lon.=26.529032, Alt.=127.372131m. Speed=7.020000m/h.</desc>
<speed>1.950000</speed>
</trkpt>
<trkpt lat="55.898956" lon="26.529039">
<ele>127.520569</ele>
<time>2010-06-20T07:32:00Z</time>
<desc>lat.=55.898956, lon.=26.529039, Alt.=127.520569m. Speed=4.752000m/h.</desc>
<speed>1.320000</speed>
</trkpt>
<trkpt lat="55.898945" lon="26.529018">
<ele>127.692444</ele>
<time>2010-06-20T07:32:01Z</time>
<desc>lat.=55.898945, lon.=26.529018, Alt.=127.692444m. Speed=6.012000m/h.</desc>
<speed>1.670000</speed>
</trkpt>
<trkpt lat="55.898926" lon="26.528994">
<ele>127.751038</ele>
<time>2010-06-20T07:32:02Z</time>
<desc>lat.=55.898926, lon.=26.528994, Alt.=127.751038m. Speed=7.488000m/h.</desc>
<speed>2.080000</speed>
</trkpt>
<trkpt lat="55.898911" lon="26.528957">
<ele>127.766663</ele>
<time>2010-06-20T07:32:03Z</time>
<desc>lat.=55.898911, lon.=26.528957, Alt.=127.766663m. Speed=5.580000m/h.</desc>
<speed>1.550000</speed>
</trkpt>
<trkpt lat="55.898891" lon="26.528929">
<ele>127.247131</ele>
<time>2010-06-20T07:32:04Z</time>
<desc>lat.=55.898891, lon.=26.528929, Alt.=127.247131m. Speed=6.552000m/h.</desc>
<speed>1.820000</speed>
</trkpt>
<trkpt lat="55.898880" lon="26.528913">
<ele>127.391663</ele>
<time>2010-06-20T07:32:05Z</time>
<desc>lat.=55.898880, lon.=26.528913, Alt.=127.391663m. Speed=5.904000m/h.</desc>
<speed>1.640000</speed>
</trkpt>
<trkpt lat="55.898865" lon="26.528898">
<ele>127.411194</ele>
<time>2010-06-20T07:32:06Z</time>
<desc>lat.=55.898865, lon.=26.528898, Alt.=127.411194m. Speed=5.976000m/h.</desc>
<speed>1.660000</speed>
</trkpt>
<trkpt lat="55.898857" lon="26.528881">
<ele>127.385803</ele>
<time>2010-06-20T07:32:07Z</time>
<desc>lat.=55.898857, lon.=26.528881, Alt.=127.385803m. Speed=5.148000m/h.</desc>
<speed>1.430000</speed>
</trkpt>
<trkpt lat="55.898849" lon="26.528854">
<ele>127.391663</ele>
<time>2010-06-20T07:32:08Z</time>
<desc>lat.=55.898849, lon.=26.528854, Alt.=127.391663m. Speed=7.452000m/h.</desc>
<speed>2.070000</speed>
</trkpt>
<trkpt lat="55.898838" lon="26.528833">
<ele>127.506897</ele>
<time>2010-06-20T07:32:09Z</time>
<desc>lat.=55.898838, lon.=26.528833, Alt.=127.506897m. Speed=7.056000m/h.</desc>
<speed>1.960000</speed>
</trkpt>
<trkpt lat="55.898815" lon="26.528809">
<ele>127.518616</ele>
<time>2010-06-20T07:32:10Z</time>
<desc>lat.=55.898815, lon.=26.528809, Alt.=127.518616m. Speed=7.956000m/h.</desc>
<speed>2.210000</speed>
</trkpt>
<trkpt lat="55.898792" lon="26.528788">
<ele>127.452209</ele>
<time>2010-06-20T07:32:11Z</time>
<desc>lat.=55.898792, lon.=26.528788, Alt.=127.452209m. Speed=7.884000m/h.</desc>
<speed>2.190000</speed>
</trkpt>
<trkpt lat="55.898766" lon="26.528763">
<ele>127.438538</ele>
<time>2010-06-20T07:32:12Z</time>
<desc>lat.=55.898766, lon.=26.528763, Alt.=127.438538m. Speed=8.352000m/h.</desc>
<speed>2.320000</speed>
</trkpt>
<trkpt lat="55.898746" lon="26.528749">
<ele>127.526428</ele>
<time>2010-06-20T07:32:13Z</time>
<desc>lat.=55.898746, lon.=26.528749, Alt.=127.526428m. Speed=6.624000m/h.</desc>
<speed>1.840000</speed>
</trkpt>
<trkpt lat="55.898735" lon="26.528730">
<ele>127.674866</ele>
<time>2010-06-20T07:32:14Z</time>
<desc>lat.=55.898735, lon.=26.528730, Alt.=127.674866m. Speed=5.112000m/h.</desc>
<speed>1.420000</speed>
</trkpt>
<trkpt lat="55.898720" lon="26.528723">
<ele>127.678772</ele>
<time>2010-06-20T07:32:15Z</time>
<desc>lat.=55.898720, lon.=26.528723, Alt.=127.678772m. Speed=6.264000m/h.</desc>
<speed>1.740000</speed>
</trkpt>
<trkpt lat="55.898705" lon="26.528708">
<ele>127.752991</ele>
<time>2010-06-20T07:32:16Z</time>
<desc>lat.=55.898705, lon.=26.528708, Alt.=127.752991m. Speed=6.948000m/h.</desc>
<speed>1.930000</speed>
</trkpt>
<trkpt lat="55.898689" lon="26.528690">
<ele>127.805725</ele>
<time>2010-06-20T07:32:17Z</time>
<desc>lat.=55.898689, lon.=26.528690, Alt.=127.805725m. Speed=6.984000m/h.</desc>
<speed>1.940000</speed>
</trkpt>
<trkpt lat="55.898674" lon="26.528673">
<ele>127.879944</ele>
<time>2010-06-20T07:32:18Z</time>
<desc>lat.=55.898674, lon.=26.528673, Alt.=127.879944m. Speed=5.796000m/h.</desc>
<speed>1.610000</speed>
</trkpt>
<trkpt lat="55.898663" lon="26.528656">
<ele>128.033325</ele>
<time>2010-06-20T07:32:19Z</time>
<desc>lat.=55.898663, lon.=26.528656, Alt.=128.033325m. Speed=7.344000m/h.</desc>
<speed>2.040000</speed>
</trkpt>
<trkpt lat="55.898643" lon="26.528635">
<ele>128.158325</ele>
<time>2010-06-20T07:32:20Z</time>
<desc>lat.=55.898643, lon.=26.528635, Alt.=128.158325m. Speed=7.848000m/h.</desc>
<speed>2.180000</speed>
</trkpt>
<trkpt lat="55.898628" lon="26.528616">
<ele>128.213013</ele>
<time>2010-06-20T07:32:21Z</time>
<desc>lat.=55.898628, lon.=26.528616, Alt.=128.213013m. Speed=7.416000m/h.</desc>
<speed>2.060000</speed>
</trkpt>
<trkpt lat="55.898613" lon="26.528595">
<ele>128.291138</ele>
<time>2010-06-20T07:32:22Z</time>
<desc>lat.=55.898613, lon.=26.528595, Alt.=128.291138m. Speed=7.488000m/h.</desc>
<speed>2.080000</speed>
</trkpt>
<trkpt lat="55.898594" lon="26.528570">
<ele>128.431763</ele>
<time>2010-06-20T07:32:23Z</time>
<desc>lat.=55.898594, lon.=26.528570, Alt.=128.431763m. Speed=9.072000m/h.</desc>
<speed>2.520000</speed>
</trkpt>
<trkpt lat="55.898579" lon="26.528547">
<ele>128.584106</ele>
<time>2010-06-20T07:32:24Z</time>
<desc>lat.=55.898579, lon.=26.528547, Alt.=128.584106m. Speed=8.172000m/h.</desc>
<speed>2.270000</speed>
</trkpt>
<trkpt lat="55.898560" lon="26.528528">
<ele>128.724731</ele>
<time>2010-06-20T07:32:25Z</time>
<desc>lat.=55.898560, lon.=26.528528, Alt.=128.724731m. Speed=7.632000m/h.</desc>
<speed>2.120000</speed>
</trkpt>
<trkpt lat="55.898548" lon="26.528511">
<ele>128.892700</ele>
<time>2010-06-20T07:32:26Z</time>
<desc>lat.=55.898548, lon.=26.528511, Alt.=128.892700m. Speed=6.804000m/h.</desc>
<speed>1.890000</speed>
</trkpt>
<trkpt lat="55.898537" lon="26.528494">
<ele>129.037231</ele>
<time>2010-06-20T07:32:27Z</time>
<desc>lat.=55.898537, lon.=26.528494, Alt.=129.037231m. Speed=6.444000m/h.</desc>
<speed>1.790000</speed>
</trkpt>
<trkpt lat="55.898525" lon="26.528473">
<ele>129.240356</ele>
<time>2010-06-20T07:32:28Z</time>
<desc>lat.=55.898525, lon.=26.528473, Alt.=129.240356m. Speed=6.408000m/h.</desc>
<speed>1.780000</speed>
</trkpt>
<trkpt lat="55.898510" lon="26.528454">
<ele>129.396606</ele>
<time>2010-06-20T07:32:29Z</time>
<desc>lat.=55.898510, lon.=26.528454, Alt.=129.396606m. Speed=7.560000m/h.</desc>
<speed>2.100000</speed>
</trkpt>
<trkpt lat="55.898491" lon="26.528437">
<ele>129.505981</ele>
<time>2010-06-20T07:32:30Z</time>
<desc>lat.=55.898491, lon.=26.528437, Alt.=129.505981m. Speed=7.524000m/h.</desc>
<speed>2.090000</speed>
</trkpt>
<trkpt lat="55.898476" lon="26.528419">
<ele>129.650513</ele>
<time>2010-06-20T07:32:31Z</time>
<desc>lat.=55.898476, lon.=26.528419, Alt.=129.650513m. Speed=7.236000m/h.</desc>
<speed>2.010000</speed>
</trkpt>
<trkpt lat="55.898453" lon="26.528406">
<ele>129.783325</ele>
<time>2010-06-20T07:32:32Z</time>
<desc>lat.=55.898453, lon.=26.528406, Alt.=129.783325m. Speed=7.812000m/h.</desc>
<speed>2.170000</speed>
</trkpt>
<trkpt lat="55.898434" lon="26.528374">
<ele>129.904419</ele>
<time>2010-06-20T07:32:33Z</time>
<desc>lat.=55.898434, lon.=26.528374, Alt.=129.904419m. Speed=8.388000m/h.</desc>
<speed>2.330000</speed>
</trkpt>
<trkpt lat="55.898422" lon="26.528349">
<ele>129.974731</ele>
<time>2010-06-20T07:32:34Z</time>
<desc>lat.=55.898422, lon.=26.528349, Alt.=129.974731m. Speed=7.344000m/h.</desc>
<speed>2.040000</speed>
</trkpt>
<trkpt lat="55.898411" lon="26.528328">
<ele>129.986450</ele>
<time>2010-06-20T07:32:35Z</time>
<desc>lat.=55.898411, lon.=26.528328, Alt.=129.986450m. Speed=6.300000m/h.</desc>
<speed>1.750000</speed>
</trkpt>
<trkpt lat="55.898403" lon="26.528301">
<ele>129.974731</ele>
<time>2010-06-20T07:32:36Z</time>
<desc>lat.=55.898403, lon.=26.528301, Alt.=129.974731m. Speed=7.020000m/h.</desc>
<speed>1.950000</speed>
</trkpt>
<trkpt lat="55.898403" lon="26.528271">
<ele>129.818481</ele>
<time>2010-06-20T07:32:37Z</time>
<desc>lat.=55.898403, lon.=26.528271, Alt.=129.818481m. Speed=6.192000m/h.</desc>
<speed>1.720000</speed>
</trkpt>
<trkpt lat="55.898407" lon="26.528244">
<ele>129.681763</ele>
<time>2010-06-20T07:32:38Z</time>
<desc>lat.=55.898407, lon.=26.528244, Alt.=129.681763m. Speed=4.356000m/h.</desc>
<speed>1.210000</speed>
</trkpt>
<trkpt lat="55.898403" lon="26.528225">
<ele>129.556763</ele>
<time>2010-06-20T07:32:39Z</time>
<desc>lat.=55.898403, lon.=26.528225, Alt.=129.556763m. Speed=5.004000m/h.</desc>
<speed>1.390000</speed>
</trkpt>
<trkpt lat="55.898403" lon="26.528206">
<ele>129.279419</ele>
<time>2010-06-20T07:32:40Z</time>
<desc>lat.=55.898403, lon.=26.528206, Alt.=129.279419m. Speed=6.156000m/h.</desc>
<speed>1.710000</speed>
</trkpt>
<trkpt lat="55.898418" lon="26.528135">
<ele>132.998169</ele>
<time>2010-06-20T07:32:41Z</time>
<desc>lat.=55.898418, lon.=26.528135, Alt.=132.998169m. Speed=4.536000m/h.</desc>
<speed>1.260000</speed>
</trkpt>
<trkpt lat="55.898407" lon="26.528128">
<ele>132.478638</ele>
<time>2010-06-20T07:32:42Z</time>
<desc>lat.=55.898407, lon.=26.528128, Alt.=132.478638m. Speed=5.904000m/h.</desc>
<speed>1.640000</speed>
</trkpt>
<trkpt lat="55.898396" lon="26.528126">
<ele>132.443481</ele>
<time>2010-06-20T07:32:43Z</time>
<desc>lat.=55.898396, lon.=26.528126, Alt.=132.443481m. Speed=3.672000m/h.</desc>
<speed>1.020000</speed>
</trkpt>
<trkpt lat="55.898384" lon="26.528103">
<ele>132.748169</ele>
<time>2010-06-20T07:32:44Z</time>
<desc>lat.=55.898384, lon.=26.528103, Alt.=132.748169m. Speed=4.500000m/h.</desc>
<speed>1.250000</speed>
</trkpt>
<trkpt lat="55.898384" lon="26.528084">
<ele>132.435669</ele>
<time>2010-06-20T07:32:45Z</time>
<desc>lat.=55.898384, lon.=26.528084, Alt.=132.435669m. Speed=4.824000m/h.</desc>
<speed>1.340000</speed>
</trkpt>
<trkpt lat="55.898384" lon="26.528063">
<ele>131.642700</ele>
<time>2010-06-20T07:32:46Z</time>
<desc>lat.=55.898384, lon.=26.528063, Alt.=131.642700m. Speed=5.544000m/h.</desc>
<speed>1.540000</speed>
</trkpt>
<trkpt lat="55.898380" lon="26.528049">
<ele>130.361450</ele>
<time>2010-06-20T07:32:47Z</time>
<desc>lat.=55.898380, lon.=26.528049, Alt.=130.361450m. Speed=5.256000m/h.</desc>
<speed>1.460000</speed>
</trkpt>
<trkpt lat="55.898376" lon="26.528023">
<ele>129.982544</ele>
<time>2010-06-20T07:32:48Z</time>
<desc>lat.=55.898376, lon.=26.528023, Alt.=129.982544m. Speed=6.372000m/h.</desc>
<speed>1.770000</speed>
</trkpt>
<trkpt lat="55.898376" lon="26.527994">
<ele>129.869263</ele>
<time>2010-06-20T07:32:49Z</time>
<desc>lat.=55.898376, lon.=26.527994, Alt.=129.869263m. Speed=6.120000m/h.</desc>
<speed>1.700000</speed>
</trkpt>
<trkpt lat="55.898380" lon="26.527969">
<ele>129.783325</ele>
<time>2010-06-20T07:32:50Z</time>
<desc>lat.=55.898380, lon.=26.527969, Alt.=129.783325m. Speed=6.444000m/h.</desc>
<speed>1.790000</speed>
</trkpt>
<trkpt lat="55.898384" lon="26.527937">
<ele>129.580200</ele>
<time>2010-06-20T07:32:51Z</time>
<desc>lat.=55.898384, lon.=26.527937, Alt.=129.580200m. Speed=6.444000m/h.</desc>
<speed>1.790000</speed>
</trkpt>
<trkpt lat="55.898384" lon="26.527914">
<ele>129.123169</ele>
<time>2010-06-20T07:32:52Z</time>
<desc>lat.=55.898384, lon.=26.527914, Alt.=129.123169m. Speed=5.796000m/h.</desc>
<speed>1.610000</speed>
</trkpt>
<trkpt lat="55.898388" lon="26.527895">
<ele>129.295044</ele>
<time>2010-06-20T07:32:53Z</time>
<desc>lat.=55.898388, lon.=26.527895, Alt.=129.295044m. Speed=5.940000m/h.</desc>
<speed>1.650000</speed>
</trkpt>
<trkpt lat="55.898388" lon="26.527868">
<ele>128.127075</ele>
<time>2010-06-20T07:32:54Z</time>
<desc>lat.=55.898388, lon.=26.527868, Alt.=128.127075m. Speed=7.272000m/h.</desc>
<speed>2.020000</speed>
</trkpt>
<trkpt lat="55.898384" lon="26.527843">
<ele>127.110413</ele>
<time>2010-06-20T07:32:55Z</time>
<desc>lat.=55.898384, lon.=26.527843, Alt.=127.110413m. Speed=7.128000m/h.</desc>
<speed>1.980000</speed>
</trkpt>
<trkpt lat="55.898388" lon="26.527822">
<ele>126.661194</ele>
<time>2010-06-20T07:32:56Z</time>
<desc>lat.=55.898388, lon.=26.527822, Alt.=126.661194m. Speed=7.704000m/h.</desc>
<speed>2.140000</speed>
</trkpt>
<trkpt lat="55.898384" lon="26.527794">
<ele>125.626038</ele>
<time>2010-06-20T07:32:57Z</time>
<desc>lat.=55.898384, lon.=26.527794, Alt.=125.626038m. Speed=6.444000m/h.</desc>
<speed>1.790000</speed>
</trkpt>
<trkpt lat="55.898380" lon="26.527765">
<ele>124.780334</ele>
<time>2010-06-20T07:32:58Z</time>
<desc>lat.=55.898380, lon.=26.527765, Alt.=124.780334m. Speed=6.552000m/h.</desc>
<speed>1.820000</speed>
</trkpt>
<trkpt lat="55.898388" lon="26.527725">
<ele>124.672913</ele>
<time>2010-06-20T07:32:59Z</time>
<desc>lat.=55.898388, lon.=26.527725, Alt.=124.672913m. Speed=7.236000m/h.</desc>
<speed>2.010000</speed>
</trkpt>
<trkpt lat="55.898388" lon="26.527693">
<ele>124.303772</ele>
<time>2010-06-20T07:33:00Z</time>
<desc>lat.=55.898388, lon.=26.527693, Alt.=124.303772m. Speed=7.632000m/h.</desc>
<speed>2.120000</speed>
</trkpt>
<trkpt lat="55.898380" lon="26.527660">
<ele>124.262756</ele>
<time>2010-06-20T07:33:01Z</time>
<desc>lat.=55.898380, lon.=26.527660, Alt.=124.262756m. Speed=9.144000m/h.</desc>
<speed>2.540000</speed>
</trkpt>
<trkpt lat="55.898365" lon="26.527632">
<ele>124.081116</ele>
<time>2010-06-20T07:33:02Z</time>
<desc>lat.=55.898365, lon.=26.527632, Alt.=124.081116m. Speed=8.784000m/h.</desc>
<speed>2.440000</speed>
</trkpt>
<trkpt lat="55.898342" lon="26.527605">
<ele>123.643616</ele>
<time>2010-06-20T07:33:03Z</time>
<desc>lat.=55.898342, lon.=26.527605, Alt.=123.643616m. Speed=11.232000m/h.</desc>
<speed>3.120000</speed>
</trkpt>
<trkpt lat="55.898315" lon="26.527575">
<ele>123.288147</ele>
<time>2010-06-20T07:33:04Z</time>
<desc>lat.=55.898315, lon.=26.527575, Alt.=123.288147m. Speed=11.088000m/h.</desc>
<speed>3.080000</speed>
</trkpt>
<trkpt lat="55.898296" lon="26.527542">
<ele>123.032288</ele>
<time>2010-06-20T07:33:05Z</time>
<desc>lat.=55.898296, lon.=26.527542, Alt.=123.032288m. Speed=9.936000m/h.</desc>
<speed>2.760000</speed>
</trkpt>
<trkpt lat="55.898270" lon="26.527500">
<ele>122.651428</ele>
<time>2010-06-20T07:33:06Z</time>
<desc>lat.=55.898270, lon.=26.527500, Alt.=122.651428m. Speed=10.188000m/h.</desc>
<speed>2.830000</speed>
</trkpt>
<trkpt lat="55.898232" lon="26.527487">
<ele>122.807678</ele>
<time>2010-06-20T07:33:07Z</time>
<desc>lat.=55.898232, lon.=26.527487, Alt.=122.807678m. Speed=10.836000m/h.</desc>
<speed>3.010000</speed>
</trkpt>
<trkpt lat="55.898193" lon="26.527458">
<ele>120.813538</ele>
<time>2010-06-20T07:33:08Z</time>
<desc>lat.=55.898193, lon.=26.527458, Alt.=120.813538m. Speed=12.240000m/h.</desc>
<speed>3.400000</speed>
</trkpt>
<trkpt lat="55.898167" lon="26.527431">
<ele>119.588928</ele>
<time>2010-06-20T07:33:09Z</time>
<desc>lat.=55.898167, lon.=26.527431, Alt.=119.588928m. Speed=12.600000m/h.</desc>
<speed>3.500000</speed>
</trkpt>
<trkpt lat="55.898136" lon="26.527401">
<ele>119.026428</ele>
<time>2010-06-20T07:33:10Z</time>
<desc>lat.=55.898136, lon.=26.527401, Alt.=119.026428m. Speed=12.276000m/h.</desc>
<speed>3.410000</speed>
</trkpt>
<trkpt lat="55.898117" lon="26.527363">
<ele>119.079163</ele>
<time>2010-06-20T07:33:11Z</time>
<desc>lat.=55.898117, lon.=26.527363, Alt.=119.079163m. Speed=11.628000m/h.</desc>
<speed>3.230000</speed>
</trkpt>
<trkpt lat="55.898094" lon="26.527323">
<ele>118.663147</ele>
<time>2010-06-20T07:33:12Z</time>
<desc>lat.=55.898094, lon.=26.527323, Alt.=118.663147m. Speed=10.728000m/h.</desc>
<speed>2.980000</speed>
</trkpt>
<trkpt lat="55.898071" lon="26.527287">
<ele>118.217834</ele>
<time>2010-06-20T07:33:13Z</time>
<desc>lat.=55.898071, lon.=26.527287, Alt.=118.217834m. Speed=10.440000m/h.</desc>
<speed>2.900000</speed>
</trkpt>
<trkpt lat="55.898056" lon="26.527245">
<ele>117.292053</ele>
<time>2010-06-20T07:33:14Z</time>
<desc>lat.=55.898056, lon.=26.527245, Alt.=117.292053m. Speed=9.864000m/h.</desc>
<speed>2.740000</speed>
</trkpt>
<trkpt lat="55.898048" lon="26.527205">
<ele>116.456116</ele>
<time>2010-06-20T07:33:15Z</time>
<desc>lat.=55.898048, lon.=26.527205, Alt.=116.456116m. Speed=9.468000m/h.</desc>
<speed>2.630000</speed>
</trkpt>
<trkpt lat="55.898037" lon="26.527164">
<ele>116.633850</ele>
<time>2010-06-20T07:33:16Z</time>
<desc>lat.=55.898037, lon.=26.527164, Alt.=116.633850m. Speed=8.964000m/h.</desc>
<speed>2.490000</speed>
</trkpt>
<trkpt lat="55.898029" lon="26.527124">
<ele>116.194397</ele>
<time>2010-06-20T07:33:17Z</time>
<desc>lat.=55.898029, lon.=26.527124, Alt.=116.194397m. Speed=8.352000m/h.</desc>
<speed>2.320000</speed>
</trkpt>
<trkpt lat="55.898018" lon="26.527090">
<ele>116.053772</ele>
<time>2010-06-20T07:33:18Z</time>
<desc>lat.=55.898018, lon.=26.527090, Alt.=116.053772m. Speed=8.064000m/h.</desc>
<speed>2.240000</speed>
</trkpt>
<trkpt lat="55.898018" lon="26.527054">
<ele>115.725647</ele>
<time>2010-06-20T07:33:19Z</time>
<desc>lat.=55.898018, lon.=26.527054, Alt.=115.725647m. Speed=7.488000m/h.</desc>
<speed>2.080000</speed>
</trkpt>
<trkpt lat="55.898022" lon="26.527018">
<ele>115.176819</ele>
<time>2010-06-20T07:33:20Z</time>
<desc>lat.=55.898022, lon.=26.527018, Alt.=115.176819m. Speed=7.920000m/h.</desc>
<speed>2.200000</speed>
</trkpt>
<trkpt lat="55.898029" lon="26.526981">
<ele>114.729553</ele>
<time>2010-06-20T07:33:21Z</time>
<desc>lat.=55.898029, lon.=26.526981, Alt.=114.729553m. Speed=7.776000m/h.</desc>
<speed>2.160000</speed>
</trkpt>
<trkpt lat="55.898037" lon="26.526949">
<ele>114.506897</ele>
<time>2010-06-20T07:33:22Z</time>
<desc>lat.=55.898037, lon.=26.526949, Alt.=114.506897m. Speed=7.704000m/h.</desc>
<speed>2.140000</speed>
</trkpt>
<trkpt lat="55.898048" lon="26.526915">
<ele>114.047913</ele>
<time>2010-06-20T07:33:23Z</time>
<desc>lat.=55.898048, lon.=26.526915, Alt.=114.047913m. Speed=8.712000m/h.</desc>
<speed>2.420000</speed>
</trkpt>
<trkpt lat="55.898056" lon="26.526880">
<ele>113.694397</ele>
<time>2010-06-20T07:33:24Z</time>
<desc>lat.=55.898056, lon.=26.526880, Alt.=113.694397m. Speed=8.712000m/h.</desc>
<speed>2.420000</speed>
</trkpt>
<trkpt lat="55.898067" lon="26.526844">
<ele>113.387756</ele>
<time>2010-06-20T07:33:25Z</time>
<desc>lat.=55.898067, lon.=26.526844, Alt.=113.387756m. Speed=9.180000m/h.</desc>
<speed>2.550000</speed>
</trkpt>
<trkpt lat="55.898079" lon="26.526802">
<ele>113.329163</ele>
<time>2010-06-20T07:33:26Z</time>
<desc>lat.=55.898079, lon.=26.526802, Alt.=113.329163m. Speed=9.432000m/h.</desc>
<speed>2.620000</speed>
</trkpt>
<trkpt lat="55.898090" lon="26.526764">
<ele>113.325256</ele>
<time>2010-06-20T07:33:27Z</time>
<desc>lat.=55.898090, lon.=26.526764, Alt.=113.325256m. Speed=9.288000m/h.</desc>
<speed>2.580000</speed>
</trkpt>
<trkpt lat="55.898098" lon="26.526726">
<ele>113.075256</ele>
<time>2010-06-20T07:33:28Z</time>
<desc>lat.=55.898098, lon.=26.526726, Alt.=113.075256m. Speed=9.468000m/h.</desc>
<speed>2.630000</speed>
</trkpt>
<trkpt lat="55.898109" lon="26.526686">
<ele>112.743225</ele>
<time>2010-06-20T07:33:29Z</time>
<desc>lat.=55.898109, lon.=26.526686, Alt.=112.743225m. Speed=9.828000m/h.</desc>
<speed>2.730000</speed>
</trkpt>
<trkpt lat="55.898117" lon="26.526644">
<ele>112.794006</ele>
<time>2010-06-20T07:33:30Z</time>
<desc>lat.=55.898117, lon.=26.526644, Alt.=112.794006m. Speed=9.612000m/h.</desc>
<speed>2.670000</speed>
</trkpt>
<trkpt lat="55.898129" lon="26.526602">
<ele>112.626038</ele>
<time>2010-06-20T07:33:31Z</time>
<desc>lat.=55.898129, lon.=26.526602, Alt.=112.626038m. Speed=9.828000m/h.</desc>
<speed>2.730000</speed>
</trkpt>
<trkpt lat="55.898140" lon="26.526566">
<ele>112.356506</ele>
<time>2010-06-20T07:33:32Z</time>
<desc>lat.=55.898140, lon.=26.526566, Alt.=112.356506m. Speed=9.576000m/h.</desc>
<speed>2.660000</speed>
</trkpt>
<trkpt lat="55.898151" lon="26.526527">
<ele>112.149475</ele>
<time>2010-06-20T07:33:33Z</time>
<desc>lat.=55.898151, lon.=26.526527, Alt.=112.149475m. Speed=9.396000m/h.</desc>
<speed>2.610000</speed>
</trkpt>
<trkpt lat="55.898163" lon="26.526487">
<ele>111.436584</ele>
<time>2010-06-20T07:33:34Z</time>
<desc>lat.=55.898163, lon.=26.526487, Alt.=111.436584m. Speed=9.396000m/h.</desc>
<speed>2.610000</speed>
</trkpt>
<trkpt lat="55.898170" lon="26.526451">
<ele>110.663147</ele>
<time>2010-06-20T07:33:35Z</time>
<desc>lat.=55.898170, lon.=26.526451, Alt.=110.663147m. Speed=9.756000m/h.</desc>
<speed>2.710000</speed>
</trkpt>
<trkpt lat="55.898186" lon="26.526413">
<ele>110.840881</ele>
<time>2010-06-20T07:33:36Z</time>
<desc>lat.=55.898186, lon.=26.526413, Alt.=110.840881m. Speed=9.648000m/h.</desc>
<speed>2.680000</speed>
</trkpt>
<trkpt lat="55.898197" lon="26.526375">
<ele>110.698303</ele>
<time>2010-06-20T07:33:37Z</time>
<desc>lat.=55.898197, lon.=26.526375, Alt.=110.698303m. Speed=10.044000m/h.</desc>
<speed>2.790000</speed>
</trkpt>
<trkpt lat="55.898216" lon="26.526337">
<ele>110.167053</ele>
<time>2010-06-20T07:33:38Z</time>
<desc>lat.=55.898216, lon.=26.526337, Alt.=110.167053m. Speed=10.116000m/h.</desc>
<speed>2.810000</speed>
</trkpt>
<trkpt lat="55.898232" lon="26.526302">
<ele>110.059631</ele>
<time>2010-06-20T07:33:39Z</time>
<desc>lat.=55.898232, lon.=26.526302, Alt.=110.059631m. Speed=10.116000m/h.</desc>
<speed>2.810000</speed>
</trkpt>
<trkpt lat="55.898243" lon="26.526272">
<ele>109.825256</ele>
<time>2010-06-20T07:33:40Z</time>
<desc>lat.=55.898243, lon.=26.526272, Alt.=109.825256m. Speed=9.324000m/h.</desc>
<speed>2.590000</speed>
</trkpt>
<trkpt lat="55.898262" lon="26.526230">
<ele>110.409241</ele>
<time>2010-06-20T07:33:41Z</time>
<desc>lat.=55.898262, lon.=26.526230, Alt.=110.409241m. Speed=9.684000m/h.</desc>
<speed>2.690000</speed>
</trkpt>
<trkpt lat="55.898277" lon="26.526194">
<ele>110.637756</ele>
<time>2010-06-20T07:33:42Z</time>
<desc>lat.=55.898277, lon.=26.526194, Alt.=110.637756m. Speed=8.928000m/h.</desc>
<speed>2.480000</speed>
</trkpt>
<trkpt lat="55.898293" lon="26.526167">
<ele>110.133850</ele>
<time>2010-06-20T07:33:43Z</time>
<desc>lat.=55.898293, lon.=26.526167, Alt.=110.133850m. Speed=8.964000m/h.</desc>
<speed>2.490000</speed>
</trkpt>
<trkpt lat="55.898308" lon="26.526134">
<ele>110.245178</ele>
<time>2010-06-20T07:33:44Z</time>
<desc>lat.=55.898308, lon.=26.526134, Alt.=110.245178m. Speed=9.288000m/h.</desc>
<speed>2.580000</speed>
</trkpt>
<trkpt lat="55.898323" lon="26.526102">
<ele>110.485413</ele>
<time>2010-06-20T07:33:45Z</time>
<desc>lat.=55.898323, lon.=26.526102, Alt.=110.485413m. Speed=8.928000m/h.</desc>
<speed>2.480000</speed>
</trkpt>
<trkpt lat="55.898342" lon="26.526077">
<ele>110.460022</ele>
<time>2010-06-20T07:33:46Z</time>
<desc>lat.=55.898342, lon.=26.526077, Alt.=110.460022m. Speed=9.252000m/h.</desc>
<speed>2.570000</speed>
</trkpt>
<trkpt lat="55.898357" lon="26.526051">
<ele>110.590881</ele>
<time>2010-06-20T07:33:47Z</time>
<desc>lat.=55.898357, lon.=26.526051, Alt.=110.590881m. Speed=9.360000m/h.</desc>
<speed>2.600000</speed>
</trkpt>
<trkpt lat="55.898369" lon="26.526014">
<ele>110.190491</ele>
<time>2010-06-20T07:33:48Z</time>
<desc>lat.=55.898369, lon.=26.526014, Alt.=110.190491m. Speed=9.684000m/h.</desc>
<speed>2.690000</speed>
</trkpt>
<trkpt lat="55.898384" lon="26.525982">
<ele>109.917053</ele>
<time>2010-06-20T07:33:49Z</time>
<desc>lat.=55.898384, lon.=26.525982, Alt.=109.917053m. Speed=9.828000m/h.</desc>
<speed>2.730000</speed>
</trkpt>
<trkpt lat="55.898399" lon="26.525955">
<ele>109.354553</ele>
<time>2010-06-20T07:33:50Z</time>
<desc>lat.=55.898399, lon.=26.525955, Alt.=109.354553m. Speed=9.000000m/h.</desc>
<speed>2.500000</speed>
</trkpt>
<trkpt lat="55.898422" lon="26.525932">
<ele>109.264709</ele>
<time>2010-06-20T07:33:51Z</time>
<desc>lat.=55.898422, lon.=26.525932, Alt.=109.264709m. Speed=9.324000m/h.</desc>
<speed>2.590000</speed>
</trkpt>
<trkpt lat="55.898441" lon="26.525908">
<ele>109.120178</ele>
<time>2010-06-20T07:33:52Z</time>
<desc>lat.=55.898441, lon.=26.525908, Alt.=109.120178m. Speed=9.108000m/h.</desc>
<speed>2.530000</speed>
</trkpt>
<trkpt lat="55.898464" lon="26.525887">
<ele>108.733459</ele>
<time>2010-06-20T07:33:53Z</time>
<desc>lat.=55.898464, lon.=26.525887, Alt.=108.733459m. Speed=10.368000m/h.</desc>
<speed>2.880000</speed>
</trkpt>
<trkpt lat="55.898487" lon="26.525852">
<ele>108.481506</ele>
<time>2010-06-20T07:33:54Z</time>
<desc>lat.=55.898487, lon.=26.525852, Alt.=108.481506m. Speed=12.204000m/h.</desc>
<speed>3.390000</speed>
</trkpt>
<trkpt lat="55.898514" lon="26.525810">
<ele>107.784241</ele>
<time>2010-06-20T07:33:55Z</time>
<desc>lat.=55.898514, lon.=26.525810, Alt.=107.784241m. Speed=13.248000m/h.</desc>
<speed>3.680000</speed>
</trkpt>
<trkpt lat="55.898537" lon="26.525774">
<ele>107.848694</ele>
<time>2010-06-20T07:33:56Z</time>
<desc>lat.=55.898537, lon.=26.525774, Alt.=107.848694m. Speed=13.392000m/h.</desc>
<speed>3.720000</speed>
</trkpt>
<trkpt lat="55.898563" lon="26.525734">
<ele>107.592834</ele>
<time>2010-06-20T07:33:57Z</time>
<desc>lat.=55.898563, lon.=26.525734, Alt.=107.592834m. Speed=12.492000m/h.</desc>
<speed>3.470000</speed>
</trkpt>
<trkpt lat="55.898590" lon="26.525696">
<ele>107.485413</ele>
<time>2010-06-20T07:33:58Z</time>
<desc>lat.=55.898590, lon.=26.525696, Alt.=107.485413m. Speed=13.068000m/h.</desc>
<speed>3.630000</speed>
</trkpt>
<trkpt lat="55.898613" lon="26.525660">
<ele>107.245178</ele>
<time>2010-06-20T07:33:59Z</time>
<desc>lat.=55.898613, lon.=26.525660, Alt.=107.245178m. Speed=12.960000m/h.</desc>
<speed>3.600000</speed>
</trkpt>
<trkpt lat="55.898636" lon="26.525620">
<ele>107.245178</ele>
<time>2010-06-20T07:34:00Z</time>
<desc>lat.=55.898636, lon.=26.525620, Alt.=107.245178m. Speed=12.744000m/h.</desc>
<speed>3.540000</speed>
</trkpt>
<trkpt lat="55.898659" lon="26.525581">
<ele>107.301819</ele>
<time>2010-06-20T07:34:01Z</time>
<desc>lat.=55.898659, lon.=26.525581, Alt.=107.301819m. Speed=12.312000m/h.</desc>
<speed>3.420000</speed>
</trkpt>
<trkpt lat="55.898682" lon="26.525539">
<ele>106.879944</ele>
<time>2010-06-20T07:34:02Z</time>
<desc>lat.=55.898682, lon.=26.525539, Alt.=106.879944m. Speed=12.348000m/h.</desc>
<speed>3.430000</speed>
</trkpt>
<trkpt lat="55.898705" lon="26.525505">
<ele>106.657288</ele>
<time>2010-06-20T07:34:03Z</time>
<desc>lat.=55.898705, lon.=26.525505, Alt.=106.657288m. Speed=11.016000m/h.</desc>
<speed>3.060000</speed>
</trkpt>
<trkpt lat="55.898720" lon="26.525471">
<ele>106.176819</ele>
<time>2010-06-20T07:34:04Z</time>
<desc>lat.=55.898720, lon.=26.525471, Alt.=106.176819m. Speed=11.124000m/h.</desc>
<speed>3.090000</speed>
</trkpt>
<trkpt lat="55.898735" lon="26.525438">
<ele>105.803772</ele>
<time>2010-06-20T07:34:05Z</time>
<desc>lat.=55.898735, lon.=26.525438, Alt.=105.803772m. Speed=9.468000m/h.</desc>
<speed>2.630000</speed>
</trkpt>
<trkpt lat="55.898758" lon="26.525419">
<ele>105.395569</ele>
<time>2010-06-20T07:34:06Z</time>
<desc>lat.=55.898758, lon.=26.525419, Alt.=105.395569m. Speed=8.532000m/h.</desc>
<speed>2.370000</speed>
</trkpt>
<trkpt lat="55.898773" lon="26.525398">
<ele>105.303772</ele>
<time>2010-06-20T07:34:07Z</time>
<desc>lat.=55.898773, lon.=26.525398, Alt.=105.303772m. Speed=7.020000m/h.</desc>
<speed>1.950000</speed>
</trkpt>
<trkpt lat="55.898785" lon="26.525381">
<ele>104.942444</ele>
<time>2010-06-20T07:34:08Z</time>
<desc>lat.=55.898785, lon.=26.525381, Alt.=104.942444m. Speed=5.544000m/h.</desc>
<speed>1.540000</speed>
</trkpt>
<trkpt lat="55.898796" lon="26.525364">
<ele>104.876038</ele>
<time>2010-06-20T07:34:09Z</time>
<desc>lat.=55.898796, lon.=26.525364, Alt.=104.876038m. Speed=4.788000m/h.</desc>
<speed>1.330000</speed>
</trkpt>
<trkpt lat="55.898796" lon="26.525324">
<ele>105.440491</ele>
<time>2010-06-20T07:34:10Z</time>
<desc>lat.=55.898796, lon.=26.525324, Alt.=105.440491m. Speed=4.212000m/h.</desc>
<speed>1.170000</speed>
</trkpt>
<trkpt lat="55.898808" lon="26.525314">
<ele>106.204163</ele>
<time>2010-06-20T07:34:11Z</time>
<desc>lat.=55.898808, lon.=26.525314, Alt.=106.204163m. Speed=4.608000m/h.</desc>
<speed>1.280000</speed>
</trkpt>
<trkpt lat="55.898819" lon="26.525316">
<ele>105.610413</ele>
<time>2010-06-20T07:34:12Z</time>
<desc>lat.=55.898819, lon.=26.525316, Alt.=105.610413m. Speed=4.608000m/h.</desc>
<speed>1.280000</speed>
</trkpt>
<trkpt lat="55.898830" lon="26.525322">
<ele>105.948303</ele>
<time>2010-06-20T07:34:13Z</time>
<desc>lat.=55.898830, lon.=26.525322, Alt.=105.948303m. Speed=3.204000m/h.</desc>
<speed>0.890000</speed>
</trkpt>
<trkpt lat="55.898838" lon="26.525320">
<ele>106.053772</ele>
<time>2010-06-20T07:34:14Z</time>
<desc>lat.=55.898838, lon.=26.525320, Alt.=106.053772m. Speed=0.864000m/h.</desc>
<speed>0.240000</speed>
</trkpt>
<trkpt lat="55.898842" lon="26.525318">
<ele>106.331116</ele>
<time>2010-06-20T07:34:15Z</time>
<desc>lat.=55.898842, lon.=26.525318, Alt.=106.331116m. Speed=0.504000m/h.</desc>
<speed>0.140000</speed>
</trkpt>
<trkpt lat="55.898842" lon="26.525324">
<ele>106.608459</ele>
<time>2010-06-20T07:34:16Z</time>
<desc>lat.=55.898842, lon.=26.525324, Alt.=106.608459m. Speed=0.216000m/h.</desc>
<speed>0.060000</speed>
</trkpt>
<trkpt lat="55.898842" lon="26.525322">
<ele>106.626038</ele>
<time>2010-06-20T07:34:17Z</time>
<desc>lat.=55.898842, lon.=26.525322, Alt.=106.626038m. Speed=0.144000m/h.</desc>
<speed>0.040000</speed>
</trkpt>
<trkpt lat="55.898842" lon="26.525322">
<ele>106.637756</ele>
<time>2010-06-20T07:34:18Z</time>
<desc>lat.=55.898842, lon.=26.525322, Alt.=106.637756m. Speed=0.180000m/h.</desc>
<speed>0.050000</speed>
</trkpt>
<trkpt lat="55.898842" lon="26.525322">
<ele>106.649475</ele>
<time>2010-06-20T07:34:19Z</time>
<desc>lat.=55.898842, lon.=26.525322, Alt.=106.649475m. Speed=0.000000m/h.</desc>
<speed>0.000000</speed>
</trkpt>
<trkpt lat="55.898842" lon="26.525322">
<ele>106.669006</ele>
<time>2010-06-20T07:34:20Z</time>
<desc>lat.=55.898842, lon.=26.525322, Alt.=106.669006m. Speed=0.072000m/h.</desc>
<speed>0.020000</speed>
</trkpt>
<trkpt lat="55.898842" lon="26.525322">
<ele>106.655334</ele>
<time>2010-06-20T07:34:21Z</time>
<desc>lat.=55.898842, lon.=26.525322, Alt.=106.655334m. Speed=0.036000m/h.</desc>
<speed>0.010000</speed>
</trkpt>
<trkpt lat="55.898842" lon="26.525322">
<ele>106.663147</ele>
<time>2010-06-20T07:34:22Z</time>
<desc>lat.=55.898842, lon.=26.525322, Alt.=106.663147m. Speed=0.432000m/h.</desc>
<speed>0.120000</speed>
</trkpt>
<trkpt lat="55.898842" lon="26.525322">
<ele>106.708069</ele>
<time>2010-06-20T07:34:23Z</time>
<desc>lat.=55.898842, lon.=26.525322, Alt.=106.708069m. Speed=4.176000m/h.</desc>
<speed>1.160000</speed>
</trkpt>
<trkpt lat="55.898842" lon="26.525301">
<ele>106.760803</ele>
<time>2010-06-20T07:34:24Z</time>
<desc>lat.=55.898842, lon.=26.525301, Alt.=106.760803m. Speed=4.932000m/h.</desc>
<speed>1.370000</speed>
</trkpt>
<trkpt lat="55.898838" lon="26.525276">
<ele>106.624084</ele>
<time>2010-06-20T07:34:25Z</time>
<desc>lat.=55.898838, lon.=26.525276, Alt.=106.624084m. Speed=6.084000m/h.</desc>
<speed>1.690000</speed>
</trkpt>
<trkpt lat="55.898834" lon="26.525242">
<ele>106.643616</ele>
<time>2010-06-20T07:34:26Z</time>
<desc>lat.=55.898834, lon.=26.525242, Alt.=106.643616m. Speed=10.368000m/h.</desc>
<speed>2.880000</speed>
</trkpt>
<trkpt lat="55.898815" lon="26.525206">
<ele>106.735413</ele>
<time>2010-06-20T07:34:27Z</time>
<desc>lat.=55.898815, lon.=26.525206, Alt.=106.735413m. Speed=11.232000m/h.</desc>
<speed>3.120000</speed>
</trkpt>
<trkpt lat="55.898788" lon="26.525177">
<ele>106.360413</ele>
<time>2010-06-20T07:34:28Z</time>
<desc>lat.=55.898788, lon.=26.525177, Alt.=106.360413m. Speed=12.780000m/h.</desc>
<speed>3.550000</speed>
</trkpt>
<trkpt lat="55.898758" lon="26.525143">
<ele>106.338928</ele>
<time>2010-06-20T07:34:29Z</time>
<desc>lat.=55.898758, lon.=26.525143, Alt.=106.338928m. Speed=14.076000m/h.</desc>
<speed>3.910000</speed>
</trkpt>
<trkpt lat="55.898724" lon="26.525114">
<ele>106.088928</ele>
<time>2010-06-20T07:34:30Z</time>
<desc>lat.=55.898724, lon.=26.525114, Alt.=106.088928m. Speed=14.940000m/h.</desc>
<speed>4.150000</speed>
</trkpt>
<trkpt lat="55.898689" lon="26.525082">
<ele>106.172913</ele>
<time>2010-06-20T07:34:31Z</time>
<desc>lat.=55.898689, lon.=26.525082, Alt.=106.172913m. Speed=15.120000m/h.</desc>
<speed>4.200000</speed>
</trkpt>
<trkpt lat="55.898655" lon="26.525043">
<ele>106.227600</ele>
<time>2010-06-20T07:34:32Z</time>
<desc>lat.=55.898655, lon.=26.525043, Alt.=106.227600m. Speed=15.768000m/h.</desc>
<speed>4.380000</speed>
</trkpt>
<trkpt lat="55.898624" lon="26.524992">
<ele>106.335022</ele>
<time>2010-06-20T07:34:33Z</time>
<desc>lat.=55.898624, lon.=26.524992, Alt.=106.335022m. Speed=17.243999m/h.</desc>
<speed>4.790000</speed>
</trkpt>
<trkpt lat="55.898594" lon="26.524939">
<ele>106.415100</ele>
<time>2010-06-20T07:34:34Z</time>
<desc>lat.=55.898594, lon.=26.524939, Alt.=106.415100m. Speed=16.596001m/h.</desc>
<speed>4.610000</speed>
</trkpt>
<trkpt lat="55.898567" lon="26.524883">
<ele>106.553772</ele>
<time>2010-06-20T07:34:35Z</time>
<desc>lat.=55.898567, lon.=26.524883, Alt.=106.553772m. Speed=17.388000m/h.</desc>
<speed>4.830000</speed>
</trkpt>
<trkpt lat="55.898537" lon="26.524826">
<ele>106.762756</ele>
<time>2010-06-20T07:34:36Z</time>
<desc>lat.=55.898537, lon.=26.524826, Alt.=106.762756m. Speed=16.488001m/h.</desc>
<speed>4.580000</speed>
</trkpt>
<trkpt lat="55.898506" lon="26.524761">
<ele>106.971741</ele>
<time>2010-06-20T07:34:37Z</time>
<desc>lat.=55.898506, lon.=26.524761, Alt.=106.971741m. Speed=18.431999m/h.</desc>
<speed>5.120000</speed>
</trkpt>
<trkpt lat="55.898479" lon="26.524696">
<ele>107.020569</ele>
<time>2010-06-20T07:34:38Z</time>
<desc>lat.=55.898479, lon.=26.524696, Alt.=107.020569m. Speed=18.576000m/h.</desc>
<speed>5.160000</speed>
</trkpt>
<trkpt lat="55.898453" lon="26.524626">
<ele>107.169006</ele>
<time>2010-06-20T07:34:39Z</time>
<desc>lat.=55.898453, lon.=26.524626, Alt.=107.169006m. Speed=17.136000m/h.</desc>
<speed>4.760000</speed>
</trkpt>
<trkpt lat="55.898422" lon="26.524561">
<ele>107.151428</ele>
<time>2010-06-20T07:34:40Z</time>
<desc>lat.=55.898422, lon.=26.524561, Alt.=107.151428m. Speed=18.252001m/h.</desc>
<speed>5.070000</speed>
</trkpt>
<trkpt lat="55.898396" lon="26.524490">
<ele>107.461975</ele>
<time>2010-06-20T07:34:41Z</time>
<desc>lat.=55.898396, lon.=26.524490, Alt.=107.461975m. Speed=18.468000m/h.</desc>
<speed>5.130000</speed>
</trkpt>
<trkpt lat="55.898373" lon="26.524426">
<ele>107.512756</ele>
<time>2010-06-20T07:34:42Z</time>
<desc>lat.=55.898373, lon.=26.524426, Alt.=107.512756m. Speed=16.955999m/h.</desc>
<speed>4.710000</speed>
</trkpt>
<trkpt lat="55.898350" lon="26.524359">
<ele>107.606506</ele>
<time>2010-06-20T07:34:43Z</time>
<desc>lat.=55.898350, lon.=26.524359, Alt.=107.606506m. Speed=16.848000m/h.</desc>
<speed>4.680000</speed>
</trkpt>
<trkpt lat="55.898323" lon="26.524290">
<ele>107.448303</ele>
<time>2010-06-20T07:34:44Z</time>
<desc>lat.=55.898323, lon.=26.524290, Alt.=107.448303m. Speed=17.280001m/h.</desc>
<speed>4.800000</speed>
</trkpt>
<trkpt lat="55.898296" lon="26.524221">
<ele>107.618225</ele>
<time>2010-06-20T07:34:45Z</time>
<desc>lat.=55.898296, lon.=26.524221, Alt.=107.618225m. Speed=18.216000m/h.</desc>
<speed>5.060000</speed>
</trkpt>
<trkpt lat="55.898270" lon="26.524147">
<ele>107.897522</ele>
<time>2010-06-20T07:34:46Z</time>
<desc>lat.=55.898270, lon.=26.524147, Alt.=107.897522m. Speed=18.431999m/h.</desc>
<speed>5.120000</speed>
</trkpt>
<trkpt lat="55.898243" lon="26.524080">
<ele>107.961975</ele>
<time>2010-06-20T07:34:47Z</time>
<desc>lat.=55.898243, lon.=26.524080, Alt.=107.961975m. Speed=17.604000m/h.</desc>
<speed>4.890000</speed>
</trkpt>
<trkpt lat="55.898220" lon="26.524015">
<ele>107.950256</ele>
<time>2010-06-20T07:34:48Z</time>
<desc>lat.=55.898220, lon.=26.524015, Alt.=107.950256m. Speed=18.360001m/h.</desc>
<speed>5.100000</speed>
</trkpt>
<trkpt lat="55.898190" lon="26.523949">
<ele>107.950256</ele>
<time>2010-06-20T07:34:49Z</time>
<desc>lat.=55.898190, lon.=26.523949, Alt.=107.950256m. Speed=18.900000m/h.</desc>
<speed>5.250000</speed>
</trkpt>
<trkpt lat="55.898159" lon="26.523876">
<ele>107.868225</ele>
<time>2010-06-20T07:34:50Z</time>
<desc>lat.=55.898159, lon.=26.523876, Alt.=107.868225m. Speed=19.368000m/h.</desc>
<speed>5.380000</speed>
</trkpt>
<trkpt lat="55.898129" lon="26.523798">
<ele>108.118225</ele>
<time>2010-06-20T07:34:51Z</time>
<desc>lat.=55.898129, lon.=26.523798, Alt.=108.118225m. Speed=19.224001m/h.</desc>
<speed>5.340000</speed>
</trkpt>
<trkpt lat="55.898098" lon="26.523716">
<ele>107.969788</ele>
<time>2010-06-20T07:34:52Z</time>
<desc>lat.=55.898098, lon.=26.523716, Alt.=107.969788m. Speed=20.483999m/h.</desc>
<speed>5.690000</speed>
</trkpt>
<trkpt lat="55.898064" lon="26.523642">
<ele>107.762756</ele>
<time>2010-06-20T07:34:53Z</time>
<desc>lat.=55.898064, lon.=26.523642, Alt.=107.762756m. Speed=19.872000m/h.</desc>
<speed>5.520000</speed>
</trkpt>
<trkpt lat="55.898033" lon="26.523565">
<ele>107.588928</ele>
<time>2010-06-20T07:34:54Z</time>
<desc>lat.=55.898033, lon.=26.523565, Alt.=107.588928m. Speed=21.240000m/h.</desc>
<speed>5.900000</speed>
</trkpt>
<trkpt lat="55.897999" lon="26.523485">
<ele>107.340881</ele>
<time>2010-06-20T07:34:55Z</time>
<desc>lat.=55.897999, lon.=26.523485, Alt.=107.340881m. Speed=21.743999m/h.</desc>
<speed>6.040000</speed>
</trkpt>
<trkpt lat="55.897964" lon="26.523401">
<ele>106.981506</ele>
<time>2010-06-20T07:34:56Z</time>
<desc>lat.=55.897964, lon.=26.523401, Alt.=106.981506m. Speed=23.148001m/h.</desc>
<speed>6.430000</speed>
</trkpt>
<trkpt lat="55.897930" lon="26.523319">
<ele>106.700256</ele>
<time>2010-06-20T07:34:57Z</time>
<desc>lat.=55.897930, lon.=26.523319, Alt.=106.700256m. Speed=23.112000m/h.</desc>
<speed>6.420000</speed>
</trkpt>
<trkpt lat="55.897900" lon="26.523232">
<ele>106.417053</ele>
<time>2010-06-20T07:34:58Z</time>
<desc>lat.=55.897900, lon.=26.523232, Alt.=106.417053m. Speed=22.104000m/h.</desc>
<speed>6.140000</speed>
</trkpt>
<trkpt lat="55.897861" lon="26.523151">
<ele>105.967834</ele>
<time>2010-06-20T07:34:59Z</time>
<desc>lat.=55.897861, lon.=26.523151, Alt.=105.967834m. Speed=23.615999m/h.</desc>
<speed>6.560000</speed>
</trkpt>
<trkpt lat="55.897827" lon="26.523062">
<ele>105.639709</ele>
<time>2010-06-20T07:35:00Z</time>
<desc>lat.=55.897827, lon.=26.523062, Alt.=105.639709m. Speed=24.732000m/h.</desc>
<speed>6.870000</speed>
</trkpt>
<trkpt lat="55.897797" lon="26.522968">
<ele>105.534241</ele>
<time>2010-06-20T07:35:01Z</time>
<desc>lat.=55.897797, lon.=26.522968, Alt.=105.534241m. Speed=22.752001m/h.</desc>
<speed>6.320000</speed>
</trkpt>
<trkpt lat="55.897758" lon="26.522873">
<ele>105.110413</ele>
<time>2010-06-20T07:35:02Z</time>
<desc>lat.=55.897758, lon.=26.522873, Alt.=105.110413m. Speed=27.288000m/h.</desc>
<speed>7.580000</speed>
</trkpt>
<trkpt lat="55.897717" lon="26.522776">
<ele>104.760803</ele>
<time>2010-06-20T07:35:03Z</time>
<desc>lat.=55.897717, lon.=26.522776, Alt.=104.760803m. Speed=26.459999m/h.</desc>
<speed>7.350000</speed>
</trkpt>
<trkpt lat="55.897678" lon="26.522667">
<ele>104.694397</ele>
<time>2010-06-20T07:35:04Z</time>
<desc>lat.=55.897678, lon.=26.522667, Alt.=104.694397m. Speed=30.275999m/h.</desc>
<speed>8.410000</speed>
</trkpt>
<trkpt lat="55.897636" lon="26.522568">
<ele>104.413147</ele>
<time>2010-06-20T07:35:05Z</time>
<desc>lat.=55.897636, lon.=26.522568, Alt.=104.413147m. Speed=25.848000m/h.</desc>
<speed>7.180000</speed>
</trkpt>
<trkpt lat="55.897602" lon="26.522461">
<ele>104.575256</ele>
<time>2010-06-20T07:35:06Z</time>
<desc>lat.=55.897602, lon.=26.522461, Alt.=104.575256m. Speed=28.007999m/h.</desc>
<speed>7.780000</speed>
</trkpt>
<trkpt lat="55.897556" lon="26.522356">
<ele>104.186584</ele>
<time>2010-06-20T07:35:07Z</time>
<desc>lat.=55.897556, lon.=26.522356, Alt.=104.186584m. Speed=30.708000m/h.</desc>
<speed>8.530000</speed>
</trkpt>
<trkpt lat="55.897507" lon="26.522245">
<ele>103.696350</ele>
<time>2010-06-20T07:35:08Z</time>
<desc>lat.=55.897507, lon.=26.522245, Alt.=103.696350m. Speed=32.939999m/h.</desc>
<speed>9.150000</speed>
</trkpt>
<trkpt lat="55.897453" lon="26.522121">
<ele>103.520569</ele>
<time>2010-06-20T07:35:09Z</time>
<desc>lat.=55.897453, lon.=26.522121, Alt.=103.520569m. Speed=35.279999m/h.</desc>
<speed>9.800000</speed>
</trkpt>
<trkpt lat="55.897396" lon="26.521990">
<ele>103.170959</ele>
<time>2010-06-20T07:35:10Z</time>
<desc>lat.=55.897396, lon.=26.521990, Alt.=103.170959m. Speed=37.259998m/h.</desc>
<speed>10.350000</speed>
</trkpt>
<trkpt lat="55.897358" lon="26.521885">
<ele>102.551819</ele>
<time>2010-06-20T07:35:11Z</time>
<desc>lat.=55.897358, lon.=26.521885, Alt.=102.551819m. Speed=22.427999m/h.</desc>
<speed>6.230000</speed>
</trkpt>
<trkpt lat="55.897316" lon="26.521776">
<ele>103.042053</ele>
<time>2010-06-20T07:35:12Z</time>
<desc>lat.=55.897316, lon.=26.521776, Alt.=103.042053m. Speed=32.832001m/h.</desc>
<speed>9.120000</speed>
</trkpt>
<trkpt lat="55.897263" lon="26.521650">
<ele>103.110413</ele>
<time>2010-06-20T07:35:13Z</time>
<desc>lat.=55.897263, lon.=26.521650, Alt.=103.110413m. Speed=34.307999m/h.</desc>
<speed>9.530000</speed>
</trkpt>
<trkpt lat="55.897202" lon="26.521519">
<ele>103.026428</ele>
<time>2010-06-20T07:35:14Z</time>
<desc>lat.=55.897202, lon.=26.521519, Alt.=103.026428m. Speed=36.792000m/h.</desc>
<speed>10.220000</speed>
</trkpt>
<trkpt lat="55.897141" lon="26.521370">
<ele>102.461975</ele>
<time>2010-06-20T07:35:15Z</time>
<desc>lat.=55.897141, lon.=26.521370, Alt.=102.461975m. Speed=38.124001m/h.</desc>
<speed>10.590000</speed>
</trkpt>
<trkpt lat="55.897076" lon="26.521215">
<ele>103.965881</ele>
<time>2010-06-20T07:35:16Z</time>
<desc>lat.=55.897076, lon.=26.521215, Alt.=103.965881m. Speed=37.548000m/h.</desc>
<speed>10.430000</speed>
</trkpt>
<trkpt lat="55.897026" lon="26.521074">
<ele>103.477600</ele>
<time>2010-06-20T07:35:17Z</time>
<desc>lat.=55.897026, lon.=26.521074, Alt.=103.477600m. Speed=35.099998m/h.</desc>
<speed>9.750000</speed>
</trkpt>
<trkpt lat="55.896980" lon="26.520945">
<ele>103.397522</ele>
<time>2010-06-20T07:35:18Z</time>
<desc>lat.=55.896980, lon.=26.520945, Alt.=103.397522m. Speed=33.804001m/h.</desc>
<speed>9.390000</speed>
</trkpt>
<trkpt lat="55.896938" lon="26.520826">
<ele>103.479553</ele>
<time>2010-06-20T07:35:19Z</time>
<desc>lat.=55.896938, lon.=26.520826, Alt.=103.479553m. Speed=26.927999m/h.</desc>
<speed>7.480000</speed>
</trkpt>
<trkpt lat="55.896904" lon="26.520733">
<ele>103.626038</ele>
<time>2010-06-20T07:35:20Z</time>
<desc>lat.=55.896904, lon.=26.520733, Alt.=103.626038m. Speed=22.535999m/h.</desc>
<speed>6.260000</speed>
</trkpt>
<trkpt lat="55.896873" lon="26.520660">
<ele>104.053772</ele>
<time>2010-06-20T07:35:21Z</time>
<desc>lat.=55.896873, lon.=26.520660, Alt.=104.053772m. Speed=15.120000m/h.</desc>
<speed>4.200000</speed>
</trkpt>
<trkpt lat="55.896858" lon="26.520590">
<ele>103.622131</ele>
<time>2010-06-20T07:35:22Z</time>
<desc>lat.=55.896858, lon.=26.520590, Alt.=103.622131m. Speed=17.351999m/h.</desc>
<speed>4.820000</speed>
</trkpt>
<trkpt lat="55.896843" lon="26.520517">
<ele>103.686584</ele>
<time>2010-06-20T07:35:23Z</time>
<desc>lat.=55.896843, lon.=26.520517, Alt.=103.686584m. Speed=13.212000m/h.</desc>
<speed>3.670000</speed>
</trkpt>
<trkpt lat="55.896866" lon="26.520489">
<ele>103.731506</ele>
<time>2010-06-20T07:35:24Z</time>
<desc>lat.=55.896866, lon.=26.520489, Alt.=103.731506m. Speed=11.448000m/h.</desc>
<speed>3.180000</speed>
</trkpt>
<trkpt lat="55.896885" lon="26.520451">
<ele>103.540100</ele>
<time>2010-06-20T07:35:25Z</time>
<desc>lat.=55.896885, lon.=26.520451, Alt.=103.540100m. Speed=12.096000m/h.</desc>
<speed>3.360000</speed>
</trkpt>
<trkpt lat="55.896915" lon="26.520426">
<ele>103.299866</ele>
<time>2010-06-20T07:35:26Z</time>
<desc>lat.=55.896915, lon.=26.520426, Alt.=103.299866m. Speed=12.816000m/h.</desc>
<speed>3.560000</speed>
</trkpt>
<trkpt lat="55.896946" lon="26.520420">
<ele>104.633850</ele>
<time>2010-06-20T07:35:27Z</time>
<desc>lat.=55.896946, lon.=26.520420, Alt.=104.633850m. Speed=13.104000m/h.</desc>
<speed>3.640000</speed>
</trkpt>
<trkpt lat="55.896980" lon="26.520405">
<ele>104.885803</ele>
<time>2010-06-20T07:35:28Z</time>
<desc>lat.=55.896980, lon.=26.520405, Alt.=104.885803m. Speed=14.400000m/h.</desc>
<speed>4.000000</speed>
</trkpt>
<trkpt lat="55.897015" lon="26.520388">
<ele>104.475647</ele>
<time>2010-06-20T07:35:29Z</time>
<desc>lat.=55.897015, lon.=26.520388, Alt.=104.475647m. Speed=12.708000m/h.</desc>
<speed>3.530000</speed>
</trkpt>
<trkpt lat="55.897045" lon="26.520351">
<ele>104.309631</ele>
<time>2010-06-20T07:35:30Z</time>
<desc>lat.=55.897045, lon.=26.520351, Alt.=104.309631m. Speed=17.063999m/h.</desc>
<speed>4.740000</speed>
</trkpt>
<trkpt lat="55.897083" lon="26.520315">
<ele>104.432678</ele>
<time>2010-06-20T07:35:31Z</time>
<desc>lat.=55.897083, lon.=26.520315, Alt.=104.432678m. Speed=16.020000m/h.</desc>
<speed>4.450000</speed>
</trkpt>
<trkpt lat="55.897118" lon="26.520285">
<ele>104.842834</ele>
<time>2010-06-20T07:35:32Z</time>
<desc>lat.=55.897118, lon.=26.520285, Alt.=104.842834m. Speed=14.544000m/h.</desc>
<speed>4.040000</speed>
</trkpt>
<trkpt lat="55.897148" lon="26.520252">
<ele>104.129944</ele>
<time>2010-06-20T07:35:33Z</time>
<desc>lat.=55.897148, lon.=26.520252, Alt.=104.129944m. Speed=13.248000m/h.</desc>
<speed>3.680000</speed>
</trkpt>
<trkpt lat="55.897179" lon="26.520229">
<ele>104.124084</ele>
<time>2010-06-20T07:35:34Z</time>
<desc>lat.=55.897179, lon.=26.520229, Alt.=104.124084m. Speed=12.528000m/h.</desc>
<speed>3.480000</speed>
</trkpt>
<trkpt lat="55.897213" lon="26.520203">
<ele>103.454163</ele>
<time>2010-06-20T07:35:35Z</time>
<desc>lat.=55.897213, lon.=26.520203, Alt.=103.454163m. Speed=15.300000m/h.</desc>
<speed>4.250000</speed>
</trkpt>
<trkpt lat="55.897247" lon="26.520180">
<ele>103.262756</ele>
<time>2010-06-20T07:35:36Z</time>
<desc>lat.=55.897247, lon.=26.520180, Alt.=103.262756m. Speed=14.400000m/h.</desc>
<speed>4.000000</speed>
</trkpt>
<trkpt lat="55.897285" lon="26.520155">
<ele>103.180725</ele>
<time>2010-06-20T07:35:37Z</time>
<desc>lat.=55.897285, lon.=26.520155, Alt.=103.180725m. Speed=15.012000m/h.</desc>
<speed>4.170000</speed>
</trkpt>
<trkpt lat="55.897320" lon="26.520121">
<ele>102.928772</ele>
<time>2010-06-20T07:35:38Z</time>
<desc>lat.=55.897320, lon.=26.520121, Alt.=102.928772m. Speed=16.596001m/h.</desc>
<speed>4.610000</speed>
</trkpt>
<trkpt lat="55.897366" lon="26.520109">
<ele>102.159241</ele>
<time>2010-06-20T07:35:39Z</time>
<desc>lat.=55.897366, lon.=26.520109, Alt.=102.159241m. Speed=17.820000m/h.</desc>
<speed>4.950000</speed>
</trkpt>
<trkpt lat="55.897415" lon="26.520071">
<ele>101.999084</ele>
<time>2010-06-20T07:35:40Z</time>
<desc>lat.=55.897415, lon.=26.520071, Alt.=101.999084m. Speed=17.747999m/h.</desc>
<speed>4.930000</speed>
</trkpt>
<trkpt lat="55.897457" lon="26.520031">
<ele>101.602600</ele>
<time>2010-06-20T07:35:41Z</time>
<desc>lat.=55.897457, lon.=26.520031, Alt.=101.602600m. Speed=17.496000m/h.</desc>
<speed>4.860000</speed>
</trkpt>
<trkpt lat="55.897495" lon="26.519993">
<ele>101.409241</ele>
<time>2010-06-20T07:35:42Z</time>
<desc>lat.=55.897495, lon.=26.519993, Alt.=101.409241m. Speed=18.035999m/h.</desc>
<speed>5.010000</speed>
</trkpt>
<trkpt lat="55.897537" lon="26.519949">
<ele>101.268616</ele>
<time>2010-06-20T07:35:43Z</time>
<desc>lat.=55.897537, lon.=26.519949, Alt.=101.268616m. Speed=17.280001m/h.</desc>
<speed>4.800000</speed>
</trkpt>
<trkpt lat="55.897579" lon="26.519905">
<ele>101.454163</ele>
<time>2010-06-20T07:35:44Z</time>
<desc>lat.=55.897579, lon.=26.519905, Alt.=101.454163m. Speed=16.667999m/h.</desc>
<speed>4.630000</speed>
</trkpt>
<trkpt lat="55.897614" lon="26.519869">
<ele>101.295959</ele>
<time>2010-06-20T07:35:45Z</time>
<desc>lat.=55.897614, lon.=26.519869, Alt.=101.295959m. Speed=16.236000m/h.</desc>
<speed>4.510000</speed>
</trkpt>
<trkpt lat="55.897655" lon="26.519825">
<ele>100.211975</ele>
<time>2010-06-20T07:35:46Z</time>
<desc>lat.=55.897655, lon.=26.519825, Alt.=100.211975m. Speed=17.892000m/h.</desc>
<speed>4.970000</speed>
</trkpt>
<trkpt lat="55.897694" lon="26.519793">
<ele>99.670959</ele>
<time>2010-06-20T07:35:47Z</time>
<desc>lat.=55.897694, lon.=26.519793, Alt.=99.670959m. Speed=17.100000m/h.</desc>
<speed>4.750000</speed>
</trkpt>
<trkpt lat="55.897732" lon="26.519753">
<ele>99.321350</ele>
<time>2010-06-20T07:35:48Z</time>
<desc>lat.=55.897732, lon.=26.519753, Alt.=99.321350m. Speed=16.488001m/h.</desc>
<speed>4.580000</speed>
</trkpt>
<trkpt lat="55.897762" lon="26.519712">
<ele>99.167053</ele>
<time>2010-06-20T07:35:49Z</time>
<desc>lat.=55.897762, lon.=26.519712, Alt.=99.167053m. Speed=16.452000m/h.</desc>
<speed>4.570000</speed>
</trkpt>
<trkpt lat="55.897797" lon="26.519682">
<ele>98.553772</ele>
<time>2010-06-20T07:35:50Z</time>
<desc>lat.=55.897797, lon.=26.519682, Alt.=98.553772m. Speed=13.680000m/h.</desc>
<speed>3.800000</speed>
</trkpt>
<trkpt lat="55.897823" lon="26.519646">
<ele>98.520569</ele>
<time>2010-06-20T07:35:51Z</time>
<desc>lat.=55.897823, lon.=26.519646, Alt.=98.520569m. Speed=12.708000m/h.</desc>
<speed>3.530000</speed>
</trkpt>
<trkpt lat="55.897861" lon="26.519600">
<ele>97.481506</ele>
<time>2010-06-20T07:35:52Z</time>
<desc>lat.=55.897861, lon.=26.519600, Alt.=97.481506m. Speed=15.660000m/h.</desc>
<speed>4.350000</speed>
</trkpt>
<trkpt lat="55.897896" lon="26.519558">
<ele>97.553772</ele>
<time>2010-06-20T07:35:53Z</time>
<desc>lat.=55.897896, lon.=26.519558, Alt.=97.553772m. Speed=15.408000m/h.</desc>
<speed>4.280000</speed>
</trkpt>
<trkpt lat="55.897930" lon="26.519522">
<ele>97.786194</ele>
<time>2010-06-20T07:35:54Z</time>
<desc>lat.=55.897930, lon.=26.519522, Alt.=97.786194m. Speed=14.796000m/h.</desc>
<speed>4.110000</speed>
</trkpt>
<trkpt lat="55.897961" lon="26.519484">
<ele>98.172913</ele>
<time>2010-06-20T07:35:55Z</time>
<desc>lat.=55.897961, lon.=26.519484, Alt.=98.172913m. Speed=15.048000m/h.</desc>
<speed>4.180000</speed>
</trkpt>
<trkpt lat="55.897999" lon="26.519444">
<ele>97.827209</ele>
<time>2010-06-20T07:35:56Z</time>
<desc>lat.=55.897999, lon.=26.519444, Alt.=97.827209m. Speed=15.444000m/h.</desc>
<speed>4.290000</speed>
</trkpt>
<trkpt lat="55.898029" lon="26.519394">
<ele>98.383850</ele>
<time>2010-06-20T07:35:57Z</time>
<desc>lat.=55.898029, lon.=26.519394, Alt.=98.383850m. Speed=15.516000m/h.</desc>
<speed>4.310000</speed>
</trkpt>
<trkpt lat="55.898060" lon="26.519354">
<ele>98.325256</ele>
<time>2010-06-20T07:35:58Z</time>
<desc>lat.=55.898060, lon.=26.519354, Alt.=98.325256m. Speed=14.472000m/h.</desc>
<speed>4.020000</speed>
</trkpt>
<trkpt lat="55.898090" lon="26.519320">
<ele>97.485413</ele>
<time>2010-06-20T07:35:59Z</time>
<desc>lat.=55.898090, lon.=26.519320, Alt.=97.485413m. Speed=14.148000m/h.</desc>
<speed>3.930000</speed>
</trkpt>
<trkpt lat="55.898121" lon="26.519279">
<ele>97.784241</ele>
<time>2010-06-20T07:36:00Z</time>
<desc>lat.=55.898121, lon.=26.519279, Alt.=97.784241m. Speed=13.680000m/h.</desc>
<speed>3.800000</speed>
</trkpt>
<trkpt lat="55.898148" lon="26.519249">
<ele>97.620178</ele>
<time>2010-06-20T07:36:01Z</time>
<desc>lat.=55.898148, lon.=26.519249, Alt.=97.620178m. Speed=12.924000m/h.</desc>
<speed>3.590000</speed>
</trkpt>
<trkpt lat="55.898174" lon="26.519220">
<ele>97.842834</ele>
<time>2010-06-20T07:36:02Z</time>
<desc>lat.=55.898174, lon.=26.519220, Alt.=97.842834m. Speed=13.176000m/h.</desc>
<speed>3.660000</speed>
</trkpt>
<trkpt lat="55.898201" lon="26.519190">
<ele>98.270569</ele>
<time>2010-06-20T07:36:03Z</time>
<desc>lat.=55.898201, lon.=26.519190, Alt.=98.270569m. Speed=12.852000m/h.</desc>
<speed>3.570000</speed>
</trkpt>
<trkpt lat="55.898228" lon="26.519157">
<ele>98.475647</ele>
<time>2010-06-20T07:36:04Z</time>
<desc>lat.=55.898228, lon.=26.519157, Alt.=98.475647m. Speed=12.420000m/h.</desc>
<speed>3.450000</speed>
</trkpt>
<trkpt lat="55.898254" lon="26.519121">
<ele>98.342834</ele>
<time>2010-06-20T07:36:05Z</time>
<desc>lat.=55.898254, lon.=26.519121, Alt.=98.342834m. Speed=13.392000m/h.</desc>
<speed>3.720000</speed>
</trkpt>
<trkpt lat="55.898285" lon="26.519070">
<ele>99.126038</ele>
<time>2010-06-20T07:36:06Z</time>
<desc>lat.=55.898285, lon.=26.519070, Alt.=99.126038m. Speed=13.104000m/h.</desc>
<speed>3.640000</speed>
</trkpt>
<trkpt lat="55.898323" lon="26.519030">
<ele>100.370178</ele>
<time>2010-06-20T07:36:07Z</time>
<desc>lat.=55.898323, lon.=26.519030, Alt.=100.370178m. Speed=15.300000m/h.</desc>
<speed>4.250000</speed>
</trkpt>
<trkpt lat="55.898357" lon="26.518991">
<ele>100.985413</ele>
<time>2010-06-20T07:36:08Z</time>
<desc>lat.=55.898357, lon.=26.518991, Alt.=100.985413m. Speed=16.164000m/h.</desc>
<speed>4.490000</speed>
</trkpt>
<trkpt lat="55.898396" lon="26.518940">
<ele>102.336975</ele>
<time>2010-06-20T07:36:09Z</time>
<desc>lat.=55.898396, lon.=26.518940, Alt.=102.336975m. Speed=15.732000m/h.</desc>
<speed>4.370000</speed>
</trkpt>
<trkpt lat="55.898426" lon="26.518900">
<ele>102.694397</ele>
<time>2010-06-20T07:36:10Z</time>
<desc>lat.=55.898426, lon.=26.518900, Alt.=102.694397m. Speed=14.292000m/h.</desc>
<speed>3.970000</speed>
</trkpt>
<trkpt lat="55.898453" lon="26.518860">
<ele>102.715881</ele>
<time>2010-06-20T07:36:11Z</time>
<desc>lat.=55.898453, lon.=26.518860, Alt.=102.715881m. Speed=15.840000m/h.</desc>
<speed>4.400000</speed>
</trkpt>
<trkpt lat="55.898487" lon="26.518816">
<ele>102.737366</ele>
<time>2010-06-20T07:36:12Z</time>
<desc>lat.=55.898487, lon.=26.518816, Alt.=102.737366m. Speed=15.516000m/h.</desc>
<speed>4.310000</speed>
</trkpt>
<trkpt lat="55.898518" lon="26.518772">
<ele>102.764709</ele>
<time>2010-06-20T07:36:13Z</time>
<desc>lat.=55.898518, lon.=26.518772, Alt.=102.764709m. Speed=16.416000m/h.</desc>
<speed>4.560000</speed>
</trkpt>
<trkpt lat="55.898544" lon="26.518742">
<ele>102.762756</ele>
<time>2010-06-20T07:36:14Z</time>
<desc>lat.=55.898544, lon.=26.518742, Alt.=102.762756m. Speed=11.520000m/h.</desc>
<speed>3.200000</speed>
</trkpt>
<trkpt lat="55.898571" lon="26.518711">
<ele>103.034241</ele>
<time>2010-06-20T07:36:15Z</time>
<desc>lat.=55.898571, lon.=26.518711, Alt.=103.034241m. Speed=14.796000m/h.</desc>
<speed>4.110000</speed>
</trkpt>
<trkpt lat="55.898602" lon="26.518673">
<ele>103.219788</ele>
<time>2010-06-20T07:36:16Z</time>
<desc>lat.=55.898602, lon.=26.518673, Alt.=103.219788m. Speed=13.248000m/h.</desc>
<speed>3.680000</speed>
</trkpt>
<trkpt lat="55.898624" lon="26.518637">
<ele>103.065491</ele>
<time>2010-06-20T07:36:17Z</time>
<desc>lat.=55.898624, lon.=26.518637, Alt.=103.065491m. Speed=13.860000m/h.</desc>
<speed>3.850000</speed>
</trkpt>
<trkpt lat="55.898659" lon="26.518600">
<ele>102.956116</ele>
<time>2010-06-20T07:36:18Z</time>
<desc>lat.=55.898659, lon.=26.518600, Alt.=102.956116m. Speed=15.372000m/h.</desc>
<speed>4.270000</speed>
</trkpt>
<trkpt lat="55.898689" lon="26.518560">
<ele>103.325256</ele>
<time>2010-06-20T07:36:19Z</time>
<desc>lat.=55.898689, lon.=26.518560, Alt.=103.325256m. Speed=14.076000m/h.</desc>
<speed>3.910000</speed>
</trkpt>
<trkpt lat="55.898716" lon="26.518534">
<ele>103.491272</ele>
<time>2010-06-20T07:36:20Z</time>
<desc>lat.=55.898716, lon.=26.518534, Alt.=103.491272m. Speed=10.980000m/h.</desc>
<speed>3.050000</speed>
</trkpt>
<trkpt lat="55.898735" lon="26.518499">
<ele>103.559631</ele>
<time>2010-06-20T07:36:21Z</time>
<desc>lat.=55.898735, lon.=26.518499, Alt.=103.559631m. Speed=11.556000m/h.</desc>
<speed>3.210000</speed>
</trkpt>
<trkpt lat="55.898758" lon="26.518469">
<ele>103.530334</ele>
<time>2010-06-20T07:36:22Z</time>
<desc>lat.=55.898758, lon.=26.518469, Alt.=103.530334m. Speed=11.988000m/h.</desc>
<speed>3.330000</speed>
</trkpt>
<trkpt lat="55.898785" lon="26.518440">
<ele>103.624084</ele>
<time>2010-06-20T07:36:23Z</time>
<desc>lat.=55.898785, lon.=26.518440, Alt.=103.624084m. Speed=12.024000m/h.</desc>
<speed>3.340000</speed>
</trkpt>
<trkpt lat="55.898815" lon="26.518404">
<ele>103.260803</ele>
<time>2010-06-20T07:36:24Z</time>
<desc>lat.=55.898815, lon.=26.518404, Alt.=103.260803m. Speed=13.824000m/h.</desc>
<speed>3.840000</speed>
</trkpt>
<trkpt lat="55.898846" lon="26.518366">
<ele>103.016663</ele>
<time>2010-06-20T07:36:25Z</time>
<desc>lat.=55.898846, lon.=26.518366, Alt.=103.016663m. Speed=13.860000m/h.</desc>
<speed>3.850000</speed>
</trkpt>
<trkpt lat="55.898869" lon="26.518332">
<ele>103.167053</ele>
<time>2010-06-20T07:36:26Z</time>
<desc>lat.=55.898869, lon.=26.518332, Alt.=103.167053m. Speed=10.872000m/h.</desc>
<speed>3.020000</speed>
</trkpt>
<trkpt lat="55.898891" lon="26.518297">
<ele>102.926819</ele>
<time>2010-06-20T07:36:27Z</time>
<desc>lat.=55.898891, lon.=26.518297, Alt.=102.926819m. Speed=9.864000m/h.</desc>
<speed>2.740000</speed>
</trkpt>
<trkpt lat="55.898911" lon="26.518267">
<ele>103.165100</ele>
<time>2010-06-20T07:36:28Z</time>
<desc>lat.=55.898911, lon.=26.518267, Alt.=103.165100m. Speed=11.016000m/h.</desc>
<speed>3.060000</speed>
</trkpt>
<trkpt lat="55.898937" lon="26.518238">
<ele>103.239319</ele>
<time>2010-06-20T07:36:29Z</time>
<desc>lat.=55.898937, lon.=26.518238, Alt.=103.239319m. Speed=11.304000m/h.</desc>
<speed>3.140000</speed>
</trkpt>
<trkpt lat="55.898956" lon="26.518211">
<ele>103.282288</ele>
<time>2010-06-20T07:36:30Z</time>
<desc>lat.=55.898956, lon.=26.518211, Alt.=103.282288m. Speed=11.664000m/h.</desc>
<speed>3.240000</speed>
</trkpt>
<trkpt lat="55.898987" lon="26.518187">
<ele>103.278381</ele>
<time>2010-06-20T07:36:31Z</time>
<desc>lat.=55.898987, lon.=26.518187, Alt.=103.278381m. Speed=11.268000m/h.</desc>
<speed>3.130000</speed>
</trkpt>
<trkpt lat="55.899014" lon="26.518166">
<ele>103.094788</ele>
<time>2010-06-20T07:36:32Z</time>
<desc>lat.=55.899014, lon.=26.518166, Alt.=103.094788m. Speed=11.520000m/h.</desc>
<speed>3.200000</speed>
</trkpt>
<trkpt lat="55.899036" lon="26.518141">
<ele>102.887756</ele>
<time>2010-06-20T07:36:33Z</time>
<desc>lat.=55.899036, lon.=26.518141, Alt.=102.887756m. Speed=11.304000m/h.</desc>
<speed>3.140000</speed>
</trkpt>
<trkpt lat="55.899063" lon="26.518120">
<ele>102.696350</ele>
<time>2010-06-20T07:36:34Z</time>
<desc>lat.=55.899063, lon.=26.518120, Alt.=102.696350m. Speed=10.836000m/h.</desc>
<speed>3.010000</speed>
</trkpt>
<trkpt lat="55.899086" lon="26.518095">
<ele>102.299866</ele>
<time>2010-06-20T07:36:35Z</time>
<desc>lat.=55.899086, lon.=26.518095, Alt.=102.299866m. Speed=10.656000m/h.</desc>
<speed>2.960000</speed>
</trkpt>
<trkpt lat="55.899105" lon="26.518072">
<ele>102.042053</ele>
<time>2010-06-20T07:36:36Z</time>
<desc>lat.=55.899105, lon.=26.518072, Alt.=102.042053m. Speed=10.368000m/h.</desc>
<speed>2.880000</speed>
</trkpt>
<trkpt lat="55.899132" lon="26.518064">
<ele>100.977600</ele>
<time>2010-06-20T07:36:37Z</time>
<desc>lat.=55.899132, lon.=26.518064, Alt.=100.977600m. Speed=10.224000m/h.</desc>
<speed>2.840000</speed>
</trkpt>
<trkpt lat="55.899158" lon="26.518030">
<ele>100.463928</ele>
<time>2010-06-20T07:36:38Z</time>
<desc>lat.=55.899158, lon.=26.518030, Alt.=100.463928m. Speed=12.672000m/h.</desc>
<speed>3.520000</speed>
</trkpt>
<trkpt lat="55.899181" lon="26.517982">
<ele>100.782288</ele>
<time>2010-06-20T07:36:39Z</time>
<desc>lat.=55.899181, lon.=26.517982, Alt.=100.782288m. Speed=12.996000m/h.</desc>
<speed>3.610000</speed>
</trkpt>
<trkpt lat="55.899200" lon="26.517937">
<ele>101.155334</ele>
<time>2010-06-20T07:36:40Z</time>
<desc>lat.=55.899200, lon.=26.517937, Alt.=101.155334m. Speed=13.068000m/h.</desc>
<speed>3.630000</speed>
</trkpt>
<trkpt lat="55.899227" lon="26.517904">
<ele>101.335022</ele>
<time>2010-06-20T07:36:41Z</time>
<desc>lat.=55.899227, lon.=26.517904, Alt.=101.335022m. Speed=11.772000m/h.</desc>
<speed>3.270000</speed>
</trkpt>
<trkpt lat="55.899258" lon="26.517868">
<ele>101.286194</ele>
<time>2010-06-20T07:36:42Z</time>
<desc>lat.=55.899258, lon.=26.517868, Alt.=101.286194m. Speed=14.652000m/h.</desc>
<speed>4.070000</speed>
</trkpt>
<trkpt lat="55.899292" lon="26.517832">
<ele>101.715881</ele>
<time>2010-06-20T07:36:43Z</time>
<desc>lat.=55.899292, lon.=26.517832, Alt.=101.715881m. Speed=16.667999m/h.</desc>
<speed>4.630000</speed>
</trkpt>
<trkpt lat="55.899334" lon="26.517784">
<ele>101.872131</ele>
<time>2010-06-20T07:36:44Z</time>
<desc>lat.=55.899334, lon.=26.517784, Alt.=101.872131m. Speed=17.892000m/h.</desc>
<speed>4.970000</speed>
</trkpt>
<trkpt lat="55.899372" lon="26.517738">
<ele>102.057678</ele>
<time>2010-06-20T07:36:45Z</time>
<desc>lat.=55.899372, lon.=26.517738, Alt.=102.057678m. Speed=17.100000m/h.</desc>
<speed>4.750000</speed>
</trkpt>
<trkpt lat="55.899410" lon="26.517696">
<ele>102.116272</ele>
<time>2010-06-20T07:36:46Z</time>
<desc>lat.=55.899410, lon.=26.517696, Alt.=102.116272m. Speed=16.920000m/h.</desc>
<speed>4.700000</speed>
</trkpt>
<trkpt lat="55.899441" lon="26.517645">
<ele>101.872131</ele>
<time>2010-06-20T07:36:47Z</time>
<desc>lat.=55.899441, lon.=26.517645, Alt.=101.872131m. Speed=16.596001m/h.</desc>
<speed>4.610000</speed>
</trkpt>
<trkpt lat="55.899475" lon="26.517605">
<ele>101.889709</ele>
<time>2010-06-20T07:36:48Z</time>
<desc>lat.=55.899475, lon.=26.517605, Alt.=101.889709m. Speed=13.608000m/h.</desc>
<speed>3.780000</speed>
</trkpt>
<trkpt lat="55.899513" lon="26.517569">
<ele>101.887756</ele>
<time>2010-06-20T07:36:49Z</time>
<desc>lat.=55.899513, lon.=26.517569, Alt.=101.887756m. Speed=15.480000m/h.</desc>
<speed>4.300000</speed>
</trkpt>
<trkpt lat="55.899555" lon="26.517529">
<ele>101.252991</ele>
<time>2010-06-20T07:36:50Z</time>
<desc>lat.=55.899555, lon.=26.517529, Alt.=101.252991m. Speed=17.459999m/h.</desc>
<speed>4.850000</speed>
</trkpt>
<trkpt lat="55.899593" lon="26.517475">
<ele>102.030334</ele>
<time>2010-06-20T07:36:51Z</time>
<desc>lat.=55.899593, lon.=26.517475, Alt.=102.030334m. Speed=17.028000m/h.</desc>
<speed>4.730000</speed>
</trkpt>
<trkpt lat="55.899632" lon="26.517426">
<ele>102.792053</ele>
<time>2010-06-20T07:36:52Z</time>
<desc>lat.=55.899632, lon.=26.517426, Alt.=102.792053m. Speed=18.216000m/h.</desc>
<speed>5.060000</speed>
</trkpt>
<trkpt lat="55.899677" lon="26.517378">
<ele>103.602600</ele>
<time>2010-06-20T07:36:53Z</time>
<desc>lat.=55.899677, lon.=26.517378, Alt.=103.602600m. Speed=19.224001m/h.</desc>
<speed>5.340000</speed>
</trkpt>
<trkpt lat="55.899719" lon="26.517332">
<ele>104.172913</ele>
<time>2010-06-20T07:36:54Z</time>
<desc>lat.=55.899719, lon.=26.517332, Alt.=104.172913m. Speed=19.260000m/h.</desc>
<speed>5.350000</speed>
</trkpt>
<trkpt lat="55.899765" lon="26.517277">
<ele>104.403381</ele>
<time>2010-06-20T07:36:55Z</time>
<desc>lat.=55.899765, lon.=26.517277, Alt.=104.403381m. Speed=20.160000m/h.</desc>
<speed>5.600000</speed>
</trkpt>
<trkpt lat="55.899807" lon="26.517220">
<ele>104.801819</ele>
<time>2010-06-20T07:36:56Z</time>
<desc>lat.=55.899807, lon.=26.517220, Alt.=104.801819m. Speed=20.628000m/h.</desc>
<speed>5.730000</speed>
</trkpt>
<trkpt lat="55.899845" lon="26.517162">
<ele>105.413147</ele>
<time>2010-06-20T07:36:57Z</time>
<desc>lat.=55.899845, lon.=26.517162, Alt.=105.413147m. Speed=19.799999m/h.</desc>
<speed>5.500000</speed>
</trkpt>
<trkpt lat="55.899891" lon="26.517120">
<ele>105.577209</ele>
<time>2010-06-20T07:36:58Z</time>
<desc>lat.=55.899891, lon.=26.517120, Alt.=105.577209m. Speed=18.360001m/h.</desc>
<speed>5.100000</speed>
</trkpt>
<trkpt lat="55.899929" lon="26.517059">
<ele>105.885803</ele>
<time>2010-06-20T07:36:59Z</time>
<desc>lat.=55.899929, lon.=26.517059, Alt.=105.885803m. Speed=19.944000m/h.</desc>
<speed>5.540000</speed>
</trkpt>
<trkpt lat="55.899975" lon="26.517002">
<ele>106.493225</ele>
<time>2010-06-20T07:37:00Z</time>
<desc>lat.=55.899975, lon.=26.517002, Alt.=106.493225m. Speed=23.472000m/h.</desc>
<speed>6.520000</speed>
</trkpt>
<trkpt lat="55.900021" lon="26.516945">
<ele>106.573303</ele>
<time>2010-06-20T07:37:01Z</time>
<desc>lat.=55.900021, lon.=26.516945, Alt.=106.573303m. Speed=21.240000m/h.</desc>
<speed>5.900000</speed>
</trkpt>
<trkpt lat="55.900063" lon="26.516891">
<ele>106.639709</ele>
<time>2010-06-20T07:37:02Z</time>
<desc>lat.=55.900063, lon.=26.516891, Alt.=106.639709m. Speed=19.584000m/h.</desc>
<speed>5.440000</speed>
</trkpt>
<trkpt lat="55.900105" lon="26.516838">
<ele>106.702209</ele>
<time>2010-06-20T07:37:03Z</time>
<desc>lat.=55.900105, lon.=26.516838, Alt.=106.702209m. Speed=21.996000m/h.</desc>
<speed>6.110000</speed>
</trkpt>
<trkpt lat="55.900150" lon="26.516779">
<ele>106.682678</ele>
<time>2010-06-20T07:37:04Z</time>
<desc>lat.=55.900150, lon.=26.516779, Alt.=106.682678m. Speed=22.139999m/h.</desc>
<speed>6.150000</speed>
</trkpt>
<trkpt lat="55.900196" lon="26.516724">
<ele>106.694397</ele>
<time>2010-06-20T07:37:05Z</time>
<desc>lat.=55.900196, lon.=26.516724, Alt.=106.694397m. Speed=21.672001m/h.</desc>
<speed>6.020000</speed>
</trkpt>
<trkpt lat="55.900238" lon="26.516663">
<ele>106.827209</ele>
<time>2010-06-20T07:37:06Z</time>
<desc>lat.=55.900238, lon.=26.516663, Alt.=106.827209m. Speed=21.743999m/h.</desc>
<speed>6.040000</speed>
</trkpt>
<trkpt lat="55.900276" lon="26.516609">
<ele>106.915100</ele>
<time>2010-06-20T07:37:07Z</time>
<desc>lat.=55.900276, lon.=26.516609, Alt.=106.915100m. Speed=18.612000m/h.</desc>
<speed>5.170000</speed>
</trkpt>
<trkpt lat="55.900330" lon="26.516554">
<ele>106.581116</ele>
<time>2010-06-20T07:37:08Z</time>
<desc>lat.=55.900330, lon.=26.516554, Alt.=106.581116m. Speed=19.799999m/h.</desc>
<speed>5.500000</speed>
</trkpt>
<trkpt lat="55.900368" lon="26.516504">
<ele>106.608459</ele>
<time>2010-06-20T07:37:09Z</time>
<desc>lat.=55.900368, lon.=26.516504, Alt.=106.608459m. Speed=20.340000m/h.</desc>
<speed>5.650000</speed>
</trkpt>
<trkpt lat="55.900410" lon="26.516445">
<ele>106.735413</ele>
<time>2010-06-20T07:37:10Z</time>
<desc>lat.=55.900410, lon.=26.516445, Alt.=106.735413m. Speed=21.996000m/h.</desc>
<speed>6.110000</speed>
</trkpt>
<trkpt lat="55.900452" lon="26.516392">
<ele>106.368225</ele>
<time>2010-06-20T07:37:11Z</time>
<desc>lat.=55.900452, lon.=26.516392, Alt.=106.368225m. Speed=16.488001m/h.</desc>
<speed>4.580000</speed>
</trkpt>
<trkpt lat="55.900494" lon="26.516342">
<ele>106.557678</ele>
<time>2010-06-20T07:37:12Z</time>
<desc>lat.=55.900494, lon.=26.516342, Alt.=106.557678m. Speed=19.836000m/h.</desc>
<speed>5.510000</speed>
</trkpt>
<trkpt lat="55.900539" lon="26.516293">
<ele>106.768616</ele>
<time>2010-06-20T07:37:13Z</time>
<desc>lat.=55.900539, lon.=26.516293, Alt.=106.768616m. Speed=20.160000m/h.</desc>
<speed>5.600000</speed>
</trkpt>
<trkpt lat="55.900578" lon="26.516247">
<ele>106.971741</ele>
<time>2010-06-20T07:37:14Z</time>
<desc>lat.=55.900578, lon.=26.516247, Alt.=106.971741m. Speed=19.152000m/h.</desc>
<speed>5.320000</speed>
</trkpt>
<trkpt lat="55.900620" lon="26.516197">
<ele>107.073303</ele>
<time>2010-06-20T07:37:15Z</time>
<desc>lat.=55.900620, lon.=26.516197, Alt.=107.073303m. Speed=19.332001m/h.</desc>
<speed>5.370000</speed>
</trkpt>
<trkpt lat="55.900661" lon="26.516155">
<ele>107.163147</ele>
<time>2010-06-20T07:37:16Z</time>
<desc>lat.=55.900661, lon.=26.516155, Alt.=107.163147m. Speed=19.548000m/h.</desc>
<speed>5.430000</speed>
</trkpt>
<trkpt lat="55.900700" lon="26.516104">
<ele>107.069397</ele>
<time>2010-06-20T07:37:17Z</time>
<desc>lat.=55.900700, lon.=26.516104, Alt.=107.069397m. Speed=19.548000m/h.</desc>
<speed>5.430000</speed>
</trkpt>
<trkpt lat="55.900742" lon="26.516054">
<ele>107.282288</ele>
<time>2010-06-20T07:37:18Z</time>
<desc>lat.=55.900742, lon.=26.516054, Alt.=107.282288m. Speed=17.136000m/h.</desc>
<speed>4.760000</speed>
</trkpt>
<trkpt lat="55.900776" lon="26.516003">
<ele>107.579163</ele>
<time>2010-06-20T07:37:19Z</time>
<desc>lat.=55.900776, lon.=26.516003, Alt.=107.579163m. Speed=18.143999m/h.</desc>
<speed>5.040000</speed>
</trkpt>
<trkpt lat="55.900818" lon="26.515945">
<ele>107.893616</ele>
<time>2010-06-20T07:37:20Z</time>
<desc>lat.=55.900818, lon.=26.515945, Alt.=107.893616m. Speed=18.864000m/h.</desc>
<speed>5.240000</speed>
</trkpt>
<trkpt lat="55.900864" lon="26.515902">
<ele>107.889709</ele>
<time>2010-06-20T07:37:21Z</time>
<desc>lat.=55.900864, lon.=26.515902, Alt.=107.889709m. Speed=20.340000m/h.</desc>
<speed>5.650000</speed>
</trkpt>
<trkpt lat="55.900917" lon="26.515823">
<ele>103.997131</ele>
<time>2010-06-20T07:37:22Z</time>
<desc>lat.=55.900917, lon.=26.515823, Alt.=103.997131m. Speed=24.804001m/h.</desc>
<speed>6.890000</speed>
</trkpt>
<trkpt lat="55.900963" lon="26.515757">
<ele>104.004944</ele>
<time>2010-06-20T07:37:23Z</time>
<desc>lat.=55.900963, lon.=26.515757, Alt.=104.004944m. Speed=21.312000m/h.</desc>
<speed>5.920000</speed>
</trkpt>
<trkpt lat="55.901005" lon="26.515694">
<ele>104.317444</ele>
<time>2010-06-20T07:37:24Z</time>
<desc>lat.=55.901005, lon.=26.515694, Alt.=104.317444m. Speed=20.628000m/h.</desc>
<speed>5.730000</speed>
</trkpt>
<trkpt lat="55.901051" lon="26.515638">
<ele>104.389709</ele>
<time>2010-06-20T07:37:25Z</time>
<desc>lat.=55.901051, lon.=26.515638, Alt.=104.389709m. Speed=20.952000m/h.</desc>
<speed>5.820000</speed>
</trkpt>
<trkpt lat="55.901093" lon="26.515585">
<ele>104.243225</ele>
<time>2010-06-20T07:37:26Z</time>
<desc>lat.=55.901093, lon.=26.515585, Alt.=104.243225m. Speed=20.340000m/h.</desc>
<speed>5.650000</speed>
</trkpt>
<trkpt lat="55.901142" lon="26.515528">
<ele>103.879944</ele>
<time>2010-06-20T07:37:27Z</time>
<desc>lat.=55.901142, lon.=26.515528, Alt.=103.879944m. Speed=23.760000m/h.</desc>
<speed>6.600000</speed>
</trkpt>
<trkpt lat="55.901192" lon="26.515461">
<ele>103.862366</ele>
<time>2010-06-20T07:37:28Z</time>
<desc>lat.=55.901192, lon.=26.515461, Alt.=103.862366m. Speed=22.608000m/h.</desc>
<speed>6.280000</speed>
</trkpt>
<trkpt lat="55.901237" lon="26.515396">
<ele>103.872131</ele>
<time>2010-06-20T07:37:29Z</time>
<desc>lat.=55.901237, lon.=26.515396, Alt.=103.872131m. Speed=23.724001m/h.</desc>
<speed>6.590000</speed>
</trkpt>
<trkpt lat="55.901283" lon="26.515335">
<ele>103.801819</ele>
<time>2010-06-20T07:37:30Z</time>
<desc>lat.=55.901283, lon.=26.515335, Alt.=103.801819m. Speed=22.284000m/h.</desc>
<speed>6.190000</speed>
</trkpt>
<trkpt lat="55.901329" lon="26.515282">
<ele>103.678772</ele>
<time>2010-06-20T07:37:31Z</time>
<desc>lat.=55.901329, lon.=26.515282, Alt.=103.678772m. Speed=21.384001m/h.</desc>
<speed>5.940000</speed>
</trkpt>
<trkpt lat="55.901375" lon="26.515232">
<ele>103.731506</ele>
<time>2010-06-20T07:37:32Z</time>
<desc>lat.=55.901375, lon.=26.515232, Alt.=103.731506m. Speed=19.872000m/h.</desc>
<speed>5.520000</speed>
</trkpt>
<trkpt lat="55.901413" lon="26.515182">
<ele>103.534241</ele>
<time>2010-06-20T07:37:33Z</time>
<desc>lat.=55.901413, lon.=26.515182, Alt.=103.534241m. Speed=19.691999m/h.</desc>
<speed>5.470000</speed>
</trkpt>
<trkpt lat="55.901459" lon="26.515123">
<ele>103.407288</ele>
<time>2010-06-20T07:37:34Z</time>
<desc>lat.=55.901459, lon.=26.515123, Alt.=103.407288m. Speed=19.764000m/h.</desc>
<speed>5.490000</speed>
</trkpt>
<trkpt lat="55.901501" lon="26.515068">
<ele>103.315491</ele>
<time>2010-06-20T07:37:35Z</time>
<desc>lat.=55.901501, lon.=26.515068, Alt.=103.315491m. Speed=19.476000m/h.</desc>
<speed>5.410000</speed>
</trkpt>
<trkpt lat="55.901543" lon="26.515007">
<ele>103.196350</ele>
<time>2010-06-20T07:37:36Z</time>
<desc>lat.=55.901543, lon.=26.515007, Alt.=103.196350m. Speed=20.340000m/h.</desc>
<speed>5.650000</speed>
</trkpt>
<trkpt lat="55.901585" lon="26.514946">
<ele>103.333069</ele>
<time>2010-06-20T07:37:37Z</time>
<desc>lat.=55.901585, lon.=26.514946, Alt.=103.333069m. Speed=20.700001m/h.</desc>
<speed>5.750000</speed>
</trkpt>
<trkpt lat="55.901630" lon="26.514887">
<ele>103.504944</ele>
<time>2010-06-20T07:37:38Z</time>
<desc>lat.=55.901630, lon.=26.514887, Alt.=103.504944m. Speed=21.024000m/h.</desc>
<speed>5.840000</speed>
</trkpt>
<trkpt lat="55.901680" lon="26.514835">
<ele>103.465881</ele>
<time>2010-06-20T07:37:39Z</time>
<desc>lat.=55.901680, lon.=26.514835, Alt.=103.465881m. Speed=20.700001m/h.</desc>
<speed>5.750000</speed>
</trkpt>
<trkpt lat="55.901722" lon="26.514772">
<ele>103.608459</ele>
<time>2010-06-20T07:37:40Z</time>
<desc>lat.=55.901722, lon.=26.514772, Alt.=103.608459m. Speed=18.972000m/h.</desc>
<speed>5.270000</speed>
</trkpt>
<trkpt lat="55.901760" lon="26.514708">
<ele>103.739319</ele>
<time>2010-06-20T07:37:41Z</time>
<desc>lat.=55.901760, lon.=26.514708, Alt.=103.739319m. Speed=21.096001m/h.</desc>
<speed>5.860000</speed>
</trkpt>
<trkpt lat="55.901798" lon="26.514639">
<ele>103.856506</ele>
<time>2010-06-20T07:37:42Z</time>
<desc>lat.=55.901798, lon.=26.514639, Alt.=103.856506m. Speed=20.664000m/h.</desc>
<speed>5.740000</speed>
</trkpt>
<trkpt lat="55.901844" lon="26.514568">
<ele>104.051819</ele>
<time>2010-06-20T07:37:43Z</time>
<desc>lat.=55.901844, lon.=26.514568, Alt.=104.051819m. Speed=21.563999m/h.</desc>
<speed>5.990000</speed>
</trkpt>
<trkpt lat="55.901890" lon="26.514503">
<ele>104.280334</ele>
<time>2010-06-20T07:37:44Z</time>
<desc>lat.=55.901890, lon.=26.514503, Alt.=104.280334m. Speed=19.872000m/h.</desc>
<speed>5.520000</speed>
</trkpt>
<trkpt lat="55.901928" lon="26.514448">
<ele>104.137756</ele>
<time>2010-06-20T07:37:45Z</time>
<desc>lat.=55.901928, lon.=26.514448, Alt.=104.137756m. Speed=19.260000m/h.</desc>
<speed>5.350000</speed>
</trkpt>
<trkpt lat="55.901970" lon="26.514399">
<ele>104.249084</ele>
<time>2010-06-20T07:37:46Z</time>
<desc>lat.=55.901970, lon.=26.514399, Alt.=104.249084m. Speed=18.431999m/h.</desc>
<speed>5.120000</speed>
</trkpt>
<trkpt lat="55.902004" lon="26.514349">
<ele>104.385803</ele>
<time>2010-06-20T07:37:47Z</time>
<desc>lat.=55.902004, lon.=26.514349, Alt.=104.385803m. Speed=17.747999m/h.</desc>
<speed>4.930000</speed>
</trkpt>
<trkpt lat="55.902039" lon="26.514297">
<ele>104.690491</ele>
<time>2010-06-20T07:37:48Z</time>
<desc>lat.=55.902039, lon.=26.514297, Alt.=104.690491m. Speed=16.128000m/h.</desc>
<speed>4.480000</speed>
</trkpt>
<trkpt lat="55.902069" lon="26.514250">
<ele>104.836975</ele>
<time>2010-06-20T07:37:49Z</time>
<desc>lat.=55.902069, lon.=26.514250, Alt.=104.836975m. Speed=16.164000m/h.</desc>
<speed>4.490000</speed>
</trkpt>
<trkpt lat="55.902100" lon="26.514210">
<ele>104.915100</ele>
<time>2010-06-20T07:37:50Z</time>
<desc>lat.=55.902100, lon.=26.514210, Alt.=104.915100m. Speed=14.832000m/h.</desc>
<speed>4.120000</speed>
</trkpt>
<trkpt lat="55.902134" lon="26.514175">
<ele>104.879944</ele>
<time>2010-06-20T07:37:51Z</time>
<desc>lat.=55.902134, lon.=26.514175, Alt.=104.879944m. Speed=14.076000m/h.</desc>
<speed>3.910000</speed>
</trkpt>
<trkpt lat="55.902168" lon="26.514139">
<ele>105.055725</ele>
<time>2010-06-20T07:37:52Z</time>
<desc>lat.=55.902168, lon.=26.514139, Alt.=105.055725m. Speed=15.120000m/h.</desc>
<speed>4.200000</speed>
</trkpt>
<trkpt lat="55.902199" lon="26.514103">
<ele>105.333069</ele>
<time>2010-06-20T07:37:53Z</time>
<desc>lat.=55.902199, lon.=26.514103, Alt.=105.333069m. Speed=14.580000m/h.</desc>
<speed>4.050000</speed>
</trkpt>
<trkpt lat="55.902233" lon="26.514067">
<ele>105.290100</ele>
<time>2010-06-20T07:37:54Z</time>
<desc>lat.=55.902233, lon.=26.514067, Alt.=105.290100m. Speed=14.976000m/h.</desc>
<speed>4.160000</speed>
</trkpt>
<trkpt lat="55.902271" lon="26.514025">
<ele>105.432678</ele>
<time>2010-06-20T07:37:55Z</time>
<desc>lat.=55.902271, lon.=26.514025, Alt.=105.432678m. Speed=14.724000m/h.</desc>
<speed>4.090000</speed>
</trkpt>
<trkpt lat="55.902306" lon="26.514000">
<ele>105.458069</ele>
<time>2010-06-20T07:37:56Z</time>
<desc>lat.=55.902306, lon.=26.514000, Alt.=105.458069m. Speed=13.212000m/h.</desc>
<speed>3.670000</speed>
</trkpt>
<trkpt lat="55.902340" lon="26.513983">
<ele>105.586975</ele>
<time>2010-06-20T07:37:57Z</time>
<desc>lat.=55.902340, lon.=26.513983, Alt.=105.586975m. Speed=12.564000m/h.</desc>
<speed>3.490000</speed>
</trkpt>
<trkpt lat="55.902378" lon="26.513969">
<ele>105.540100</ele>
<time>2010-06-20T07:37:58Z</time>
<desc>lat.=55.902378, lon.=26.513969, Alt.=105.540100m. Speed=14.940000m/h.</desc>
<speed>4.150000</speed>
</trkpt>
<trkpt lat="55.902420" lon="26.513956">
<ele>105.907288</ele>
<time>2010-06-20T07:37:59Z</time>
<desc>lat.=55.902420, lon.=26.513956, Alt.=105.907288m. Speed=15.120000m/h.</desc>
<speed>4.200000</speed>
</trkpt>
<trkpt lat="55.902462" lon="26.513941">
<ele>106.143616</ele>
<time>2010-06-20T07:38:00Z</time>
<desc>lat.=55.902462, lon.=26.513941, Alt.=106.143616m. Speed=15.372000m/h.</desc>
<speed>4.270000</speed>
</trkpt>
<trkpt lat="55.902504" lon="26.513927">
<ele>106.305725</ele>
<time>2010-06-20T07:38:01Z</time>
<desc>lat.=55.902504, lon.=26.513927, Alt.=106.305725m. Speed=14.832000m/h.</desc>
<speed>4.120000</speed>
</trkpt>
<trkpt lat="55.902538" lon="26.513910">
<ele>106.696350</ele>
<time>2010-06-20T07:38:02Z</time>
<desc>lat.=55.902538, lon.=26.513910, Alt.=106.696350m. Speed=15.876000m/h.</desc>
<speed>4.410000</speed>
</trkpt>
<trkpt lat="55.902580" lon="26.513899">
<ele>106.637756</ele>
<time>2010-06-20T07:38:03Z</time>
<desc>lat.=55.902580, lon.=26.513899, Alt.=106.637756m. Speed=15.588000m/h.</desc>
<speed>4.330000</speed>
</trkpt>
<trkpt lat="55.902615" lon="26.513893">
<ele>107.129944</ele>
<time>2010-06-20T07:38:04Z</time>
<desc>lat.=55.902615, lon.=26.513893, Alt.=107.129944m. Speed=13.680000m/h.</desc>
<speed>3.800000</speed>
</trkpt>
<trkpt lat="55.902649" lon="26.513882">
<ele>106.963928</ele>
<time>2010-06-20T07:38:05Z</time>
<desc>lat.=55.902649, lon.=26.513882, Alt.=106.963928m. Speed=15.084000m/h.</desc>
<speed>4.190000</speed>
</trkpt>
<trkpt lat="55.902687" lon="26.513870">
<ele>106.993225</ele>
<time>2010-06-20T07:38:06Z</time>
<desc>lat.=55.902687, lon.=26.513870, Alt.=106.993225m. Speed=15.732000m/h.</desc>
<speed>4.370000</speed>
</trkpt>
<trkpt lat="55.902729" lon="26.513859">
<ele>107.085022</ele>
<time>2010-06-20T07:38:07Z</time>
<desc>lat.=55.902729, lon.=26.513859, Alt.=107.085022m. Speed=16.379999m/h.</desc>
<speed>4.550000</speed>
</trkpt>
<trkpt lat="55.902771" lon="26.513849">
<ele>106.852600</ele>
<time>2010-06-20T07:38:08Z</time>
<desc>lat.=55.902771, lon.=26.513849, Alt.=106.852600m. Speed=15.516000m/h.</desc>
<speed>4.310000</speed>
</trkpt>
<trkpt lat="55.902809" lon="26.513838">
<ele>106.555725</ele>
<time>2010-06-20T07:38:09Z</time>
<desc>lat.=55.902809, lon.=26.513838, Alt.=106.555725m. Speed=14.220000m/h.</desc>
<speed>3.950000</speed>
</trkpt>
<trkpt lat="55.902851" lon="26.513826">
<ele>106.702209</ele>
<time>2010-06-20T07:38:10Z</time>
<desc>lat.=55.902851, lon.=26.513826, Alt.=106.702209m. Speed=14.004000m/h.</desc>
<speed>3.890000</speed>
</trkpt>
<trkpt lat="55.902889" lon="26.513821">
<ele>106.737366</ele>
<time>2010-06-20T07:38:11Z</time>
<desc>lat.=55.902889, lon.=26.513821, Alt.=106.737366m. Speed=13.536000m/h.</desc>
<speed>3.760000</speed>
</trkpt>
<trkpt lat="55.902924" lon="26.513817">
<ele>107.674866</ele>
<time>2010-06-20T07:38:12Z</time>
<desc>lat.=55.902924, lon.=26.513817, Alt.=107.674866m. Speed=14.976000m/h.</desc>
<speed>4.160000</speed>
</trkpt>
<trkpt lat="55.902969" lon="26.513815">
<ele>107.167053</ele>
<time>2010-06-20T07:38:13Z</time>
<desc>lat.=55.902969, lon.=26.513815, Alt.=107.167053m. Speed=15.300000m/h.</desc>
<speed>4.250000</speed>
</trkpt>
<trkpt lat="55.903011" lon="26.513811">
<ele>107.149475</ele>
<time>2010-06-20T07:38:14Z</time>
<desc>lat.=55.903011, lon.=26.513811, Alt.=107.149475m. Speed=15.444000m/h.</desc>
<speed>4.290000</speed>
</trkpt>
<trkpt lat="55.903049" lon="26.513803">
<ele>107.469788</ele>
<time>2010-06-20T07:38:15Z</time>
<desc>lat.=55.903049, lon.=26.513803, Alt.=107.469788m. Speed=15.444000m/h.</desc>
<speed>4.290000</speed>
</trkpt>
<trkpt lat="55.903084" lon="26.513786">
<ele>107.874084</ele>
<time>2010-06-20T07:38:16Z</time>
<desc>lat.=55.903084, lon.=26.513786, Alt.=107.874084m. Speed=15.336000m/h.</desc>
<speed>4.260000</speed>
</trkpt>
<trkpt lat="55.903122" lon="26.513767">
<ele>108.663147</ele>
<time>2010-06-20T07:38:17Z</time>
<desc>lat.=55.903122, lon.=26.513767, Alt.=108.663147m. Speed=16.164000m/h.</desc>
<speed>4.490000</speed>
</trkpt>
<trkpt lat="55.903160" lon="26.513762">
<ele>108.729553</ele>
<time>2010-06-20T07:38:18Z</time>
<desc>lat.=55.903160, lon.=26.513762, Alt.=108.729553m. Speed=15.120000m/h.</desc>
<speed>4.200000</speed>
</trkpt>
<trkpt lat="55.903206" lon="26.513760">
<ele>107.752991</ele>
<time>2010-06-20T07:38:19Z</time>
<desc>lat.=55.903206, lon.=26.513760, Alt.=107.752991m. Speed=15.480000m/h.</desc>
<speed>4.300000</speed>
</trkpt>
<trkpt lat="55.903244" lon="26.513760">
<ele>107.309631</ele>
<time>2010-06-20T07:38:20Z</time>
<desc>lat.=55.903244, lon.=26.513760, Alt.=107.309631m. Speed=13.752000m/h.</desc>
<speed>3.820000</speed>
</trkpt>
<trkpt lat="55.903282" lon="26.513762">
<ele>107.252991</ele>
<time>2010-06-20T07:38:21Z</time>
<desc>lat.=55.903282, lon.=26.513762, Alt.=107.252991m. Speed=12.924000m/h.</desc>
<speed>3.590000</speed>
</trkpt>
<trkpt lat="55.903316" lon="26.513771">
<ele>106.682678</ele>
<time>2010-06-20T07:38:22Z</time>
<desc>lat.=55.903316, lon.=26.513771, Alt.=106.682678m. Speed=14.436000m/h.</desc>
<speed>4.010000</speed>
</trkpt>
<trkpt lat="55.903351" lon="26.513762">
<ele>106.602600</ele>
<time>2010-06-20T07:38:23Z</time>
<desc>lat.=55.903351, lon.=26.513762, Alt.=106.602600m. Speed=15.120000m/h.</desc>
<speed>4.200000</speed>
</trkpt>
<trkpt lat="55.903381" lon="26.513746">
<ele>106.948303</ele>
<time>2010-06-20T07:38:24Z</time>
<desc>lat.=55.903381, lon.=26.513746, Alt.=106.948303m. Speed=13.644000m/h.</desc>
<speed>3.790000</speed>
</trkpt>
<trkpt lat="55.903416" lon="26.513735">
<ele>106.835022</ele>
<time>2010-06-20T07:38:25Z</time>
<desc>lat.=55.903416, lon.=26.513735, Alt.=106.835022m. Speed=12.888000m/h.</desc>
<speed>3.580000</speed>
</trkpt>
<trkpt lat="55.903446" lon="26.513727">
<ele>106.540100</ele>
<time>2010-06-20T07:38:26Z</time>
<desc>lat.=55.903446, lon.=26.513727, Alt.=106.540100m. Speed=12.600000m/h.</desc>
<speed>3.500000</speed>
</trkpt>
<trkpt lat="55.903481" lon="26.513716">
<ele>106.540100</ele>
<time>2010-06-20T07:38:27Z</time>
<desc>lat.=55.903481, lon.=26.513716, Alt.=106.540100m. Speed=12.528000m/h.</desc>
<speed>3.480000</speed>
</trkpt>
<trkpt lat="55.903511" lon="26.513708">
<ele>106.297913</ele>
<time>2010-06-20T07:38:28Z</time>
<desc>lat.=55.903511, lon.=26.513708, Alt.=106.297913m. Speed=12.600000m/h.</desc>
<speed>3.500000</speed>
</trkpt>
<trkpt lat="55.903545" lon="26.513702">
<ele>105.807678</ele>
<time>2010-06-20T07:38:29Z</time>
<desc>lat.=55.903545, lon.=26.513702, Alt.=105.807678m. Speed=12.960000m/h.</desc>
<speed>3.600000</speed>
</trkpt>
<trkpt lat="55.903580" lon="26.513700">
<ele>105.085022</ele>
<time>2010-06-20T07:38:30Z</time>
<desc>lat.=55.903580, lon.=26.513700, Alt.=105.085022m. Speed=12.924000m/h.</desc>
<speed>3.590000</speed>
</trkpt>
<trkpt lat="55.903610" lon="26.513691">
<ele>104.944397</ele>
<time>2010-06-20T07:38:31Z</time>
<desc>lat.=55.903610, lon.=26.513691, Alt.=104.944397m. Speed=13.428000m/h.</desc>
<speed>3.730000</speed>
</trkpt>
<trkpt lat="55.903645" lon="26.513681">
<ele>104.766663</ele>
<time>2010-06-20T07:38:32Z</time>
<desc>lat.=55.903645, lon.=26.513681, Alt.=104.766663m. Speed=13.680000m/h.</desc>
<speed>3.800000</speed>
</trkpt>
<trkpt lat="55.903679" lon="26.513662">
<ele>105.598694</ele>
<time>2010-06-20T07:38:33Z</time>
<desc>lat.=55.903679, lon.=26.513662, Alt.=105.598694m. Speed=15.444000m/h.</desc>
<speed>4.290000</speed>
</trkpt>
<trkpt lat="55.903717" lon="26.513645">
<ele>105.627991</ele>
<time>2010-06-20T07:38:34Z</time>
<desc>lat.=55.903717, lon.=26.513645, Alt.=105.627991m. Speed=16.091999m/h.</desc>
<speed>4.470000</speed>
</trkpt>
<trkpt lat="55.903759" lon="26.513622">
<ele>105.610413</ele>
<time>2010-06-20T07:38:35Z</time>
<desc>lat.=55.903759, lon.=26.513622, Alt.=105.610413m. Speed=17.316000m/h.</desc>
<speed>4.810000</speed>
</trkpt>
<trkpt lat="55.903801" lon="26.513599">
<ele>105.516663</ele>
<time>2010-06-20T07:38:36Z</time>
<desc>lat.=55.903801, lon.=26.513599, Alt.=105.516663m. Speed=17.820000m/h.</desc>
<speed>4.950000</speed>
</trkpt>
<trkpt lat="55.903843" lon="26.513577">
<ele>105.081116</ele>
<time>2010-06-20T07:38:37Z</time>
<desc>lat.=55.903843, lon.=26.513577, Alt.=105.081116m. Speed=18.540001m/h.</desc>
<speed>5.150000</speed>
</trkpt>
<trkpt lat="55.903885" lon="26.513557">
<ele>104.674866</ele>
<time>2010-06-20T07:38:38Z</time>
<desc>lat.=55.903885, lon.=26.513557, Alt.=104.674866m. Speed=18.431999m/h.</desc>
<speed>5.120000</speed>
</trkpt>
<trkpt lat="55.903934" lon="26.513535">
<ele>104.249084</ele>
<time>2010-06-20T07:38:39Z</time>
<desc>lat.=55.903934, lon.=26.513535, Alt.=104.249084m. Speed=20.375999m/h.</desc>
<speed>5.660000</speed>
</trkpt>
<trkpt lat="55.903984" lon="26.513515">
<ele>103.883850</ele>
<time>2010-06-20T07:38:40Z</time>
<desc>lat.=55.903984, lon.=26.513515, Alt.=103.883850m. Speed=19.908001m/h.</desc>
<speed>5.530000</speed>
</trkpt>
<trkpt lat="55.904030" lon="26.513491">
<ele>104.405334</ele>
<time>2010-06-20T07:38:41Z</time>
<desc>lat.=55.904030, lon.=26.513491, Alt.=104.405334m. Speed=19.403999m/h.</desc>
<speed>5.390000</speed>
</trkpt>
<trkpt lat="55.904076" lon="26.513462">
<ele>104.307678</ele>
<time>2010-06-20T07:38:42Z</time>
<desc>lat.=55.904076, lon.=26.513462, Alt.=104.307678m. Speed=19.080000m/h.</desc>
<speed>5.300000</speed>
</trkpt>
<trkpt lat="55.904125" lon="26.513437">
<ele>104.450256</ele>
<time>2010-06-20T07:38:43Z</time>
<desc>lat.=55.904125, lon.=26.513437, Alt.=104.450256m. Speed=18.719999m/h.</desc>
<speed>5.200000</speed>
</trkpt>
<trkpt lat="55.904167" lon="26.513414">
<ele>105.096741</ele>
<time>2010-06-20T07:38:44Z</time>
<desc>lat.=55.904167, lon.=26.513414, Alt.=105.096741m. Speed=19.044001m/h.</desc>
<speed>5.290000</speed>
</trkpt>
<trkpt lat="55.904213" lon="26.513388">
<ele>107.034241</ele>
<time>2010-06-20T07:38:45Z</time>
<desc>lat.=55.904213, lon.=26.513388, Alt.=107.034241m. Speed=19.584000m/h.</desc>
<speed>5.440000</speed>
</trkpt>
<trkpt lat="55.904259" lon="26.513363">
<ele>107.856506</ele>
<time>2010-06-20T07:38:46Z</time>
<desc>lat.=55.904259, lon.=26.513363, Alt.=107.856506m. Speed=19.799999m/h.</desc>
<speed>5.500000</speed>
</trkpt>
<trkpt lat="55.904308" lon="26.513338">
<ele>108.169006</ele>
<time>2010-06-20T07:38:47Z</time>
<desc>lat.=55.904308, lon.=26.513338, Alt.=108.169006m. Speed=19.799999m/h.</desc>
<speed>5.500000</speed>
</trkpt>
<trkpt lat="55.904358" lon="26.513308">
<ele>108.641663</ele>
<time>2010-06-20T07:38:48Z</time>
<desc>lat.=55.904358, lon.=26.513308, Alt.=108.641663m. Speed=20.483999m/h.</desc>
<speed>5.690000</speed>
</trkpt>
<trkpt lat="55.904408" lon="26.513275">
<ele>108.928772</ele>
<time>2010-06-20T07:38:49Z</time>
<desc>lat.=55.904408, lon.=26.513275, Alt.=108.928772m. Speed=20.916000m/h.</desc>
<speed>5.810000</speed>
</trkpt>
<trkpt lat="55.904457" lon="26.513247">
<ele>109.290100</ele>
<time>2010-06-20T07:38:50Z</time>
<desc>lat.=55.904457, lon.=26.513247, Alt.=109.290100m. Speed=20.808001m/h.</desc>
<speed>5.780000</speed>
</trkpt>
<trkpt lat="55.904503" lon="26.513212">
<ele>109.725647</ele>
<time>2010-06-20T07:38:51Z</time>
<desc>lat.=55.904503, lon.=26.513212, Alt.=109.725647m. Speed=19.908001m/h.</desc>
<speed>5.530000</speed>
</trkpt>
<trkpt lat="55.904552" lon="26.513184">
<ele>109.838928</ele>
<time>2010-06-20T07:38:52Z</time>
<desc>lat.=55.904552, lon.=26.513184, Alt.=109.838928m. Speed=19.511999m/h.</desc>
<speed>5.420000</speed>
</trkpt>
<trkpt lat="55.904598" lon="26.513155">
<ele>110.198303</ele>
<time>2010-06-20T07:38:53Z</time>
<desc>lat.=55.904598, lon.=26.513155, Alt.=110.198303m. Speed=19.224001m/h.</desc>
<speed>5.340000</speed>
</trkpt>
<trkpt lat="55.904644" lon="26.513130">
<ele>109.690491</ele>
<time>2010-06-20T07:38:54Z</time>
<desc>lat.=55.904644, lon.=26.513130, Alt.=109.690491m. Speed=18.864000m/h.</desc>
<speed>5.240000</speed>
</trkpt>
<trkpt lat="55.904686" lon="26.513107">
<ele>109.092834</ele>
<time>2010-06-20T07:38:55Z</time>
<desc>lat.=55.904686, lon.=26.513107, Alt.=109.092834m. Speed=18.468000m/h.</desc>
<speed>5.130000</speed>
</trkpt>
<trkpt lat="55.904732" lon="26.513086">
<ele>109.102600</ele>
<time>2010-06-20T07:38:56Z</time>
<desc>lat.=55.904732, lon.=26.513086, Alt.=109.102600m. Speed=18.612000m/h.</desc>
<speed>5.170000</speed>
</trkpt>
<trkpt lat="55.904778" lon="26.513060">
<ele>109.104553</ele>
<time>2010-06-20T07:38:57Z</time>
<desc>lat.=55.904778, lon.=26.513060, Alt.=109.104553m. Speed=19.044001m/h.</desc>
<speed>5.290000</speed>
</trkpt>
<trkpt lat="55.904827" lon="26.513056">
<ele>107.071350</ele>
<time>2010-06-20T07:38:58Z</time>
<desc>lat.=55.904827, lon.=26.513056, Alt.=107.071350m. Speed=19.584000m/h.</desc>
<speed>5.440000</speed>
</trkpt>
<trkpt lat="55.904873" lon="26.513037">
<ele>106.971741</ele>
<time>2010-06-20T07:38:59Z</time>
<desc>lat.=55.904873, lon.=26.513037, Alt.=106.971741m. Speed=18.216000m/h.</desc>
<speed>5.060000</speed>
</trkpt>
<trkpt lat="55.904919" lon="26.513010">
<ele>107.133850</ele>
<time>2010-06-20T07:39:00Z</time>
<desc>lat.=55.904919, lon.=26.513010, Alt.=107.133850m. Speed=20.268000m/h.</desc>
<speed>5.630000</speed>
</trkpt>
<trkpt lat="55.904968" lon="26.512995">
<ele>106.444397</ele>
<time>2010-06-20T07:39:01Z</time>
<desc>lat.=55.904968, lon.=26.512995, Alt.=106.444397m. Speed=20.988001m/h.</desc>
<speed>5.830000</speed>
</trkpt>
<trkpt lat="55.905018" lon="26.512976">
<ele>105.684631</ele>
<time>2010-06-20T07:39:02Z</time>
<desc>lat.=55.905018, lon.=26.512976, Alt.=105.684631m. Speed=21.384001m/h.</desc>
<speed>5.940000</speed>
</trkpt>
<trkpt lat="55.905071" lon="26.512953">
<ele>105.629944</ele>
<time>2010-06-20T07:39:03Z</time>
<desc>lat.=55.905071, lon.=26.512953, Alt.=105.629944m. Speed=21.024000m/h.</desc>
<speed>5.840000</speed>
</trkpt>
<trkpt lat="55.905117" lon="26.512917">
<ele>106.411194</ele>
<time>2010-06-20T07:39:04Z</time>
<desc>lat.=55.905117, lon.=26.512917, Alt.=106.411194m. Speed=21.888000m/h.</desc>
<speed>6.080000</speed>
</trkpt>
<trkpt lat="55.905170" lon="26.512888">
<ele>106.356506</ele>
<time>2010-06-20T07:39:05Z</time>
<desc>lat.=55.905170, lon.=26.512888, Alt.=106.356506m. Speed=21.348000m/h.</desc>
<speed>5.930000</speed>
</trkpt>
<trkpt lat="55.905220" lon="26.512861">
<ele>106.489319</ele>
<time>2010-06-20T07:39:06Z</time>
<desc>lat.=55.905220, lon.=26.512861, Alt.=106.489319m. Speed=21.420000m/h.</desc>
<speed>5.950000</speed>
</trkpt>
<trkpt lat="55.905277" lon="26.512833">
<ele>106.358459</ele>
<time>2010-06-20T07:39:07Z</time>
<desc>lat.=55.905277, lon.=26.512833, Alt.=106.358459m. Speed=21.600000m/h.</desc>
<speed>6.000000</speed>
</trkpt>
<trkpt lat="55.905323" lon="26.512794">
<ele>107.542053</ele>
<time>2010-06-20T07:39:08Z</time>
<desc>lat.=55.905323, lon.=26.512794, Alt.=107.542053m. Speed=21.312000m/h.</desc>
<speed>5.920000</speed>
</trkpt>
<trkpt lat="55.905376" lon="26.512775">
<ele>107.649475</ele>
<time>2010-06-20T07:39:09Z</time>
<desc>lat.=55.905376, lon.=26.512775, Alt.=107.649475m. Speed=21.024000m/h.</desc>
<speed>5.840000</speed>
</trkpt>
<trkpt lat="55.905426" lon="26.512747">
<ele>107.336975</ele>
<time>2010-06-20T07:39:10Z</time>
<desc>lat.=55.905426, lon.=26.512747, Alt.=107.336975m. Speed=20.520000m/h.</desc>
<speed>5.700000</speed>
</trkpt>
<trkpt lat="55.905479" lon="26.512718">
<ele>107.290100</ele>
<time>2010-06-20T07:39:11Z</time>
<desc>lat.=55.905479, lon.=26.512718, Alt.=107.290100m. Speed=19.872000m/h.</desc>
<speed>5.520000</speed>
</trkpt>
<trkpt lat="55.905525" lon="26.512695">
<ele>107.391663</ele>
<time>2010-06-20T07:39:12Z</time>
<desc>lat.=55.905525, lon.=26.512695, Alt.=107.391663m. Speed=19.403999m/h.</desc>
<speed>5.390000</speed>
</trkpt>
<trkpt lat="55.905567" lon="26.512663">
<ele>107.094788</ele>
<time>2010-06-20T07:39:13Z</time>
<desc>lat.=55.905567, lon.=26.512663, Alt.=107.094788m. Speed=18.540001m/h.</desc>
<speed>5.150000</speed>
</trkpt>
<trkpt lat="55.905613" lon="26.512636">
<ele>106.792053</ele>
<time>2010-06-20T07:39:14Z</time>
<desc>lat.=55.905613, lon.=26.512636, Alt.=106.792053m. Speed=18.035999m/h.</desc>
<speed>5.010000</speed>
</trkpt>
<trkpt lat="55.905655" lon="26.512611">
<ele>109.135803</ele>
<time>2010-06-20T07:39:15Z</time>
<desc>lat.=55.905655, lon.=26.512611, Alt.=109.135803m. Speed=16.416000m/h.</desc>
<speed>4.560000</speed>
</trkpt>
<trkpt lat="55.905697" lon="26.512602">
<ele>109.715881</ele>
<time>2010-06-20T07:39:16Z</time>
<desc>lat.=55.905697, lon.=26.512602, Alt.=109.715881m. Speed=17.280001m/h.</desc>
<speed>4.800000</speed>
</trkpt>
<trkpt lat="55.905739" lon="26.512585">
<ele>110.383850</ele>
<time>2010-06-20T07:39:17Z</time>
<desc>lat.=55.905739, lon.=26.512585, Alt.=110.383850m. Speed=15.552000m/h.</desc>
<speed>4.320000</speed>
</trkpt>
<trkpt lat="55.905777" lon="26.512568">
<ele>111.088928</ele>
<time>2010-06-20T07:39:18Z</time>
<desc>lat.=55.905777, lon.=26.512568, Alt.=111.088928m. Speed=16.416000m/h.</desc>
<speed>4.560000</speed>
</trkpt>
<trkpt lat="55.905819" lon="26.512560">
<ele>111.419006</ele>
<time>2010-06-20T07:39:19Z</time>
<desc>lat.=55.905819, lon.=26.512560, Alt.=111.419006m. Speed=17.351999m/h.</desc>
<speed>4.820000</speed>
</trkpt>
<trkpt lat="55.905869" lon="26.512552">
<ele>109.954163</ele>
<time>2010-06-20T07:39:20Z</time>
<desc>lat.=55.905869, lon.=26.512552, Alt.=109.954163m. Speed=18.288000m/h.</desc>
<speed>5.080000</speed>
</trkpt>
<trkpt lat="55.905910" lon="26.512537">
<ele>109.795959</ele>
<time>2010-06-20T07:39:21Z</time>
<desc>lat.=55.905910, lon.=26.512537, Alt.=109.795959m. Speed=16.704000m/h.</desc>
<speed>4.640000</speed>
</trkpt>
<trkpt lat="55.905952" lon="26.512526">
<ele>109.352600</ele>
<time>2010-06-20T07:39:22Z</time>
<desc>lat.=55.905952, lon.=26.512526, Alt.=109.352600m. Speed=17.208000m/h.</desc>
<speed>4.780000</speed>
</trkpt>
<trkpt lat="55.905991" lon="26.512508">
<ele>109.385803</ele>
<time>2010-06-20T07:39:23Z</time>
<desc>lat.=55.905991, lon.=26.512508, Alt.=109.385803m. Speed=16.488001m/h.</desc>
<speed>4.580000</speed>
</trkpt>
<trkpt lat="55.906033" lon="26.512493">
<ele>109.311584</ele>
<time>2010-06-20T07:39:24Z</time>
<desc>lat.=55.906033, lon.=26.512493, Alt.=109.311584m. Speed=17.208000m/h.</desc>
<speed>4.780000</speed>
</trkpt>
<trkpt lat="55.906075" lon="26.512478">
<ele>110.237366</ele>
<time>2010-06-20T07:39:25Z</time>
<desc>lat.=55.906075, lon.=26.512478, Alt.=110.237366m. Speed=15.984000m/h.</desc>
<speed>4.440000</speed>
</trkpt>
<trkpt lat="55.906113" lon="26.512465">
<ele>110.165100</ele>
<time>2010-06-20T07:39:26Z</time>
<desc>lat.=55.906113, lon.=26.512465, Alt.=110.165100m. Speed=15.336000m/h.</desc>
<speed>4.260000</speed>
</trkpt>
<trkpt lat="55.906151" lon="26.512451">
<ele>109.741272</ele>
<time>2010-06-20T07:39:27Z</time>
<desc>lat.=55.906151, lon.=26.512451, Alt.=109.741272m. Speed=14.580000m/h.</desc>
<speed>4.050000</speed>
</trkpt>
<trkpt lat="55.906189" lon="26.512438">
<ele>109.004944</ele>
<time>2010-06-20T07:39:28Z</time>
<desc>lat.=55.906189, lon.=26.512438, Alt.=109.004944m. Speed=15.480000m/h.</desc>
<speed>4.300000</speed>
</trkpt>
<trkpt lat="55.906231" lon="26.512423">
<ele>108.106506</ele>
<time>2010-06-20T07:39:29Z</time>
<desc>lat.=55.906231, lon.=26.512423, Alt.=108.106506m. Speed=15.840000m/h.</desc>
<speed>4.400000</speed>
</trkpt>
<trkpt lat="55.906265" lon="26.512403">
<ele>107.690491</ele>
<time>2010-06-20T07:39:30Z</time>
<desc>lat.=55.906265, lon.=26.512403, Alt.=107.690491m. Speed=16.812000m/h.</desc>
<speed>4.670000</speed>
</trkpt>
<trkpt lat="55.906307" lon="26.512386">
<ele>107.524475</ele>
<time>2010-06-20T07:39:31Z</time>
<desc>lat.=55.906307, lon.=26.512386, Alt.=107.524475m. Speed=17.639999m/h.</desc>
<speed>4.900000</speed>
</trkpt>
<trkpt lat="55.906345" lon="26.512363">
<ele>107.266663</ele>
<time>2010-06-20T07:39:32Z</time>
<desc>lat.=55.906345, lon.=26.512363, Alt.=107.266663m. Speed=18.180000m/h.</desc>
<speed>5.050000</speed>
</trkpt>
<trkpt lat="55.906387" lon="26.512337">
<ele>107.237366</ele>
<time>2010-06-20T07:39:33Z</time>
<desc>lat.=55.906387, lon.=26.512337, Alt.=107.237366m. Speed=17.856001m/h.</desc>
<speed>4.960000</speed>
</trkpt>
<trkpt lat="55.906429" lon="26.512314">
<ele>107.504944</ele>
<time>2010-06-20T07:39:34Z</time>
<desc>lat.=55.906429, lon.=26.512314, Alt.=107.504944m. Speed=18.000000m/h.</desc>
<speed>5.000000</speed>
</trkpt>
<trkpt lat="55.906475" lon="26.512291">
<ele>106.723694</ele>
<time>2010-06-20T07:39:35Z</time>
<desc>lat.=55.906475, lon.=26.512291, Alt.=106.723694m. Speed=18.540001m/h.</desc>
<speed>5.150000</speed>
</trkpt>
<trkpt lat="55.906521" lon="26.512268">
<ele>106.579163</ele>
<time>2010-06-20T07:39:36Z</time>
<desc>lat.=55.906521, lon.=26.512268, Alt.=106.579163m. Speed=18.540001m/h.</desc>
<speed>5.150000</speed>
</trkpt>
<trkpt lat="55.906567" lon="26.512238">
<ele>106.770569</ele>
<time>2010-06-20T07:39:37Z</time>
<desc>lat.=55.906567, lon.=26.512238, Alt.=106.770569m. Speed=19.080000m/h.</desc>
<speed>5.300000</speed>
</trkpt>
<trkpt lat="55.906612" lon="26.512211">
<ele>106.569397</ele>
<time>2010-06-20T07:39:38Z</time>
<desc>lat.=55.906612, lon.=26.512211, Alt.=106.569397m. Speed=19.368000m/h.</desc>
<speed>5.380000</speed>
</trkpt>
<trkpt lat="55.906658" lon="26.512182">
<ele>106.157288</ele>
<time>2010-06-20T07:39:39Z</time>
<desc>lat.=55.906658, lon.=26.512182, Alt.=106.157288m. Speed=19.944000m/h.</desc>
<speed>5.540000</speed>
</trkpt>
<trkpt lat="55.906708" lon="26.512150">
<ele>105.920959</ele>
<time>2010-06-20T07:39:40Z</time>
<desc>lat.=55.906708, lon.=26.512150, Alt.=105.920959m. Speed=20.483999m/h.</desc>
<speed>5.690000</speed>
</trkpt>
<trkpt lat="55.906757" lon="26.512121">
<ele>105.655334</ele>
<time>2010-06-20T07:39:41Z</time>
<desc>lat.=55.906757, lon.=26.512121, Alt.=105.655334m. Speed=20.844000m/h.</desc>
<speed>5.790000</speed>
</trkpt>
<trkpt lat="55.906807" lon="26.512093">
<ele>105.256897</ele>
<time>2010-06-20T07:39:42Z</time>
<desc>lat.=55.906807, lon.=26.512093, Alt.=105.256897m. Speed=21.600000m/h.</desc>
<speed>6.000000</speed>
</trkpt>
<trkpt lat="55.906857" lon="26.512062">
<ele>104.794006</ele>
<time>2010-06-20T07:39:43Z</time>
<desc>lat.=55.906857, lon.=26.512062, Alt.=104.794006m. Speed=21.816000m/h.</desc>
<speed>6.060000</speed>
</trkpt>
<trkpt lat="55.906914" lon="26.512035">
<ele>104.501038</ele>
<time>2010-06-20T07:39:44Z</time>
<desc>lat.=55.906914, lon.=26.512035, Alt.=104.501038m. Speed=22.247999m/h.</desc>
<speed>6.180000</speed>
</trkpt>
<trkpt lat="55.906967" lon="26.512009">
<ele>104.221741</ele>
<time>2010-06-20T07:39:45Z</time>
<desc>lat.=55.906967, lon.=26.512009, Alt.=104.221741m. Speed=23.112000m/h.</desc>
<speed>6.420000</speed>
</trkpt>
<trkpt lat="55.907024" lon="26.511978">
<ele>104.651428</ele>
<time>2010-06-20T07:39:46Z</time>
<desc>lat.=55.907024, lon.=26.511978, Alt.=104.651428m. Speed=22.643999m/h.</desc>
<speed>6.290000</speed>
</trkpt>
<trkpt lat="55.907082" lon="26.511948">
<ele>104.612366</ele>
<time>2010-06-20T07:39:47Z</time>
<desc>lat.=55.907082, lon.=26.511948, Alt.=104.612366m. Speed=24.804001m/h.</desc>
<speed>6.890000</speed>
</trkpt>
<trkpt lat="55.907143" lon="26.511919">
<ele>103.991272</ele>
<time>2010-06-20T07:39:48Z</time>
<desc>lat.=55.907143, lon.=26.511919, Alt.=103.991272m. Speed=24.695999m/h.</desc>
<speed>6.860000</speed>
</trkpt>
<trkpt lat="55.907200" lon="26.511896">
<ele>103.477600</ele>
<time>2010-06-20T07:39:49Z</time>
<desc>lat.=55.907200, lon.=26.511896, Alt.=103.477600m. Speed=25.920000m/h.</desc>
<speed>7.200000</speed>
</trkpt>
<trkpt lat="55.907265" lon="26.511877">
<ele>103.219788</ele>
<time>2010-06-20T07:39:50Z</time>
<desc>lat.=55.907265, lon.=26.511877, Alt.=103.219788m. Speed=24.768000m/h.</desc>
<speed>6.880000</speed>
</trkpt>
<trkpt lat="55.907326" lon="26.511868">
<ele>103.479553</ele>
<time>2010-06-20T07:39:51Z</time>
<desc>lat.=55.907326, lon.=26.511868, Alt.=103.479553m. Speed=25.379999m/h.</desc>
<speed>7.050000</speed>
</trkpt>
<trkpt lat="55.907387" lon="26.511866">
<ele>103.090881</ele>
<time>2010-06-20T07:39:52Z</time>
<desc>lat.=55.907387, lon.=26.511866, Alt.=103.090881m. Speed=22.643999m/h.</desc>
<speed>6.290000</speed>
</trkpt>
<trkpt lat="55.907444" lon="26.511868">
<ele>101.794006</ele>
<time>2010-06-20T07:39:53Z</time>
<desc>lat.=55.907444, lon.=26.511868, Alt.=101.794006m. Speed=19.152000m/h.</desc>
<speed>5.320000</speed>
</trkpt>
<trkpt lat="55.907497" lon="26.511868">
<ele>101.567444</ele>
<time>2010-06-20T07:39:54Z</time>
<desc>lat.=55.907497, lon.=26.511868, Alt.=101.567444m. Speed=22.500000m/h.</desc>
<speed>6.250000</speed>
</trkpt>
<trkpt lat="55.907555" lon="26.511869">
<ele>101.274475</ele>
<time>2010-06-20T07:39:55Z</time>
<desc>lat.=55.907555, lon.=26.511869, Alt.=101.274475m. Speed=22.320000m/h.</desc>
<speed>6.200000</speed>
</trkpt>
<trkpt lat="55.907604" lon="26.511875">
<ele>100.602600</ele>
<time>2010-06-20T07:39:56Z</time>
<desc>lat.=55.907604, lon.=26.511875, Alt.=100.602600m. Speed=20.375999m/h.</desc>
<speed>5.660000</speed>
</trkpt>
<trkpt lat="55.907654" lon="26.511887">
<ele>101.938538</ele>
<time>2010-06-20T07:39:57Z</time>
<desc>lat.=55.907654, lon.=26.511887, Alt.=101.938538m. Speed=19.980000m/h.</desc>
<speed>5.550000</speed>
</trkpt>
<trkpt lat="55.907707" lon="26.511894">
<ele>101.542053</ele>
<time>2010-06-20T07:39:58Z</time>
<desc>lat.=55.907707, lon.=26.511894, Alt.=101.542053m. Speed=20.375999m/h.</desc>
<speed>5.660000</speed>
</trkpt>
<trkpt lat="55.907757" lon="26.511906">
<ele>100.879944</ele>
<time>2010-06-20T07:39:59Z</time>
<desc>lat.=55.907757, lon.=26.511906, Alt.=100.879944m. Speed=19.188000m/h.</desc>
<speed>5.330000</speed>
</trkpt>
<trkpt lat="55.907803" lon="26.511915">
<ele>99.956116</ele>
<time>2010-06-20T07:40:00Z</time>
<desc>lat.=55.907803, lon.=26.511915, Alt.=99.956116m. Speed=19.007999m/h.</desc>
<speed>5.280000</speed>
</trkpt>
<trkpt lat="55.907852" lon="26.511927">
<ele>99.190491</ele>
<time>2010-06-20T07:40:01Z</time>
<desc>lat.=55.907852, lon.=26.511927, Alt.=99.190491m. Speed=18.504000m/h.</desc>
<speed>5.140000</speed>
</trkpt>
<trkpt lat="55.907902" lon="26.511929">
<ele>98.510803</ele>
<time>2010-06-20T07:40:02Z</time>
<desc>lat.=55.907902, lon.=26.511929, Alt.=98.510803m. Speed=18.576000m/h.</desc>
<speed>5.160000</speed>
</trkpt>
<trkpt lat="55.907951" lon="26.511940">
<ele>97.085022</ele>
<time>2010-06-20T07:40:03Z</time>
<desc>lat.=55.907951, lon.=26.511940, Alt.=97.085022m. Speed=18.900000m/h.</desc>
<speed>5.250000</speed>
</trkpt>
<trkpt lat="55.908005" lon="26.511946">
<ele>97.194397</ele>
<time>2010-06-20T07:40:04Z</time>
<desc>lat.=55.908005, lon.=26.511946, Alt.=97.194397m. Speed=19.260000m/h.</desc>
<speed>5.350000</speed>
</trkpt>
<trkpt lat="55.908051" lon="26.511948">
<ele>96.323303</ele>
<time>2010-06-20T07:40:05Z</time>
<desc>lat.=55.908051, lon.=26.511948, Alt.=96.323303m. Speed=18.972000m/h.</desc>
<speed>5.270000</speed>
</trkpt>
<trkpt lat="55.908104" lon="26.511953">
<ele>95.801819</ele>
<time>2010-06-20T07:40:06Z</time>
<desc>lat.=55.908104, lon.=26.511953, Alt.=95.801819m. Speed=18.468000m/h.</desc>
<speed>5.130000</speed>
</trkpt>
<trkpt lat="55.908154" lon="26.511953">
<ele>95.809631</ele>
<time>2010-06-20T07:40:07Z</time>
<desc>lat.=55.908154, lon.=26.511953, Alt.=95.809631m. Speed=18.143999m/h.</desc>
<speed>5.040000</speed>
</trkpt>
<trkpt lat="55.908207" lon="26.511951">
<ele>96.143616</ele>
<time>2010-06-20T07:40:08Z</time>
<desc>lat.=55.908207, lon.=26.511951, Alt.=96.143616m. Speed=17.280001m/h.</desc>
<speed>4.800000</speed>
</trkpt>
<trkpt lat="55.908249" lon="26.511948">
<ele>95.774475</ele>
<time>2010-06-20T07:40:09Z</time>
<desc>lat.=55.908249, lon.=26.511948, Alt.=95.774475m. Speed=17.028000m/h.</desc>
<speed>4.730000</speed>
</trkpt>
<trkpt lat="55.908291" lon="26.511936">
<ele>95.710022</ele>
<time>2010-06-20T07:40:10Z</time>
<desc>lat.=55.908291, lon.=26.511936, Alt.=95.710022m. Speed=16.775999m/h.</desc>
<speed>4.660000</speed>
</trkpt>
<trkpt lat="55.908333" lon="26.511932">
<ele>95.860413</ele>
<time>2010-06-20T07:40:11Z</time>
<desc>lat.=55.908333, lon.=26.511932, Alt.=95.860413m. Speed=16.740000m/h.</desc>
<speed>4.650000</speed>
</trkpt>
<trkpt lat="55.908375" lon="26.511940">
<ele>96.085022</ele>
<time>2010-06-20T07:40:12Z</time>
<desc>lat.=55.908375, lon.=26.511940, Alt.=96.085022m. Speed=17.639999m/h.</desc>
<speed>4.900000</speed>
</trkpt>
<trkpt lat="55.908421" lon="26.511944">
<ele>95.831116</ele>
<time>2010-06-20T07:40:13Z</time>
<desc>lat.=55.908421, lon.=26.511944, Alt.=95.831116m. Speed=18.792000m/h.</desc>
<speed>5.220000</speed>
</trkpt>
<trkpt lat="55.908466" lon="26.511938">
<ele>95.508850</ele>
<time>2010-06-20T07:40:14Z</time>
<desc>lat.=55.908466, lon.=26.511938, Alt.=95.508850m. Speed=18.000000m/h.</desc>
<speed>5.000000</speed>
</trkpt>
<trkpt lat="55.908508" lon="26.511934">
<ele>95.932678</ele>
<time>2010-06-20T07:40:15Z</time>
<desc>lat.=55.908508, lon.=26.511934, Alt.=95.932678m. Speed=18.504000m/h.</desc>
<speed>5.140000</speed>
</trkpt>
<trkpt lat="55.908550" lon="26.511930">
<ele>95.450256</ele>
<time>2010-06-20T07:40:16Z</time>
<desc>lat.=55.908550, lon.=26.511930, Alt.=95.450256m. Speed=18.035999m/h.</desc>
<speed>5.010000</speed>
</trkpt>
<trkpt lat="55.908596" lon="26.511930">
<ele>95.493225</ele>
<time>2010-06-20T07:40:17Z</time>
<desc>lat.=55.908596, lon.=26.511930, Alt.=95.493225m. Speed=17.639999m/h.</desc>
<speed>4.900000</speed>
</trkpt>
<trkpt lat="55.908642" lon="26.511940">
<ele>95.501038</ele>
<time>2010-06-20T07:40:18Z</time>
<desc>lat.=55.908642, lon.=26.511940, Alt.=95.501038m. Speed=19.260000m/h.</desc>
<speed>5.350000</speed>
</trkpt>
<trkpt lat="55.908691" lon="26.511950">
<ele>95.366272</ele>
<time>2010-06-20T07:40:19Z</time>
<desc>lat.=55.908691, lon.=26.511950, Alt.=95.366272m. Speed=17.136000m/h.</desc>
<speed>4.760000</speed>
</trkpt>
<trkpt lat="55.908730" lon="26.511957">
<ele>95.268616</ele>
<time>2010-06-20T07:40:20Z</time>
<desc>lat.=55.908730, lon.=26.511957, Alt.=95.268616m. Speed=16.128000m/h.</desc>
<speed>4.480000</speed>
</trkpt>
<trkpt lat="55.908772" lon="26.511963">
<ele>94.973694</ele>
<time>2010-06-20T07:40:21Z</time>
<desc>lat.=55.908772, lon.=26.511963, Alt.=94.973694m. Speed=16.308001m/h.</desc>
<speed>4.530000</speed>
</trkpt>
<trkpt lat="55.908810" lon="26.511972">
<ele>95.059631</ele>
<time>2010-06-20T07:40:22Z</time>
<desc>lat.=55.908810, lon.=26.511972, Alt.=95.059631m. Speed=14.508000m/h.</desc>
<speed>4.030000</speed>
</trkpt>
<trkpt lat="55.908844" lon="26.511978">
<ele>95.086975</ele>
<time>2010-06-20T07:40:23Z</time>
<desc>lat.=55.908844, lon.=26.511978, Alt.=95.086975m. Speed=12.636000m/h.</desc>
<speed>3.510000</speed>
</trkpt>
<trkpt lat="55.908871" lon="26.511984">
<ele>95.122131</ele>
<time>2010-06-20T07:40:24Z</time>
<desc>lat.=55.908871, lon.=26.511984, Alt.=95.122131m. Speed=8.100000m/h.</desc>
<speed>2.250000</speed>
</trkpt>
<trkpt lat="55.908886" lon="26.511984">
<ele>95.227600</ele>
<time>2010-06-20T07:40:25Z</time>
<desc>lat.=55.908886, lon.=26.511984, Alt.=95.227600m. Speed=4.356000m/h.</desc>
<speed>1.210000</speed>
</trkpt>
<trkpt lat="55.908890" lon="26.511986">
<ele>94.887756</ele>
<time>2010-06-20T07:40:26Z</time>
<desc>lat.=55.908890, lon.=26.511986, Alt.=94.887756m. Speed=0.468000m/h.</desc>
<speed>0.130000</speed>
</trkpt>
<trkpt lat="55.908890" lon="26.511993">
<ele>94.850647</ele>
<time>2010-06-20T07:40:27Z</time>
<desc>lat.=55.908890, lon.=26.511993, Alt.=94.850647m. Speed=0.612000m/h.</desc>
<speed>0.170000</speed>
</trkpt>
<trkpt lat="55.908894" lon="26.511995">
<ele>94.227600</ele>
<time>2010-06-20T07:40:28Z</time>
<desc>lat.=55.908894, lon.=26.511995, Alt.=94.227600m. Speed=1.800000m/h.</desc>
<speed>0.500000</speed>
</trkpt>
<trkpt lat="55.908901" lon="26.511997">
<ele>93.950256</ele>
<time>2010-06-20T07:40:29Z</time>
<desc>lat.=55.908901, lon.=26.511997, Alt.=93.950256m. Speed=1.728000m/h.</desc>
<speed>0.480000</speed>
</trkpt>
<trkpt lat="55.908905" lon="26.511997">
<ele>93.987366</ele>
<time>2010-06-20T07:40:30Z</time>
<desc>lat.=55.908905, lon.=26.511997, Alt.=93.987366m. Speed=0.180000m/h.</desc>
<speed>0.050000</speed>
</trkpt>
<trkpt lat="55.908905" lon="26.511997">
<ele>93.930725</ele>
<time>2010-06-20T07:40:31Z</time>
<desc>lat.=55.908905, lon.=26.511997, Alt.=93.930725m. Speed=1.080000m/h.</desc>
<speed>0.300000</speed>
</trkpt>
<trkpt lat="55.908905" lon="26.511993">
<ele>93.907288</ele>
<time>2010-06-20T07:40:32Z</time>
<desc>lat.=55.908905, lon.=26.511993, Alt.=93.907288m. Speed=1.872000m/h.</desc>
<speed>0.520000</speed>
</trkpt>
<trkpt lat="55.908909" lon="26.511993">
<ele>93.868225</ele>
<time>2010-06-20T07:40:33Z</time>
<desc>lat.=55.908909, lon.=26.511993, Alt.=93.868225m. Speed=1.116000m/h.</desc>
<speed>0.310000</speed>
</trkpt>
<trkpt lat="55.908913" lon="26.511990">
<ele>93.842834</ele>
<time>2010-06-20T07:40:34Z</time>
<desc>lat.=55.908913, lon.=26.511990, Alt.=93.842834m. Speed=0.540000m/h.</desc>
<speed>0.150000</speed>
</trkpt>
<trkpt lat="55.908913" lon="26.511990">
<ele>93.829163</ele>
<time>2010-06-20T07:40:35Z</time>
<desc>lat.=55.908913, lon.=26.511990, Alt.=93.829163m. Speed=0.252000m/h.</desc>
<speed>0.070000</speed>
</trkpt>
<trkpt lat="55.908913" lon="26.511992">
<ele>93.774475</ele>
<time>2010-06-20T07:40:36Z</time>
<desc>lat.=55.908913, lon.=26.511992, Alt.=93.774475m. Speed=0.288000m/h.</desc>
<speed>0.080000</speed>
</trkpt>
<trkpt lat="55.908913" lon="26.511990">
<ele>93.756897</ele>
<time>2010-06-20T07:40:37Z</time>
<desc>lat.=55.908913, lon.=26.511990, Alt.=93.756897m. Speed=0.036000m/h.</desc>
<speed>0.010000</speed>
</trkpt>
<trkpt lat="55.908913" lon="26.511990">
<ele>93.782288</ele>
<time>2010-06-20T07:40:38Z</time>
<desc>lat.=55.908913, lon.=26.511990, Alt.=93.782288m. Speed=0.036000m/h.</desc>
<speed>0.010000</speed>
</trkpt>
<trkpt lat="55.908913" lon="26.511990">
<ele>93.774475</ele>
<time>2010-06-20T07:40:39Z</time>
<desc>lat.=55.908913, lon.=26.511990, Alt.=93.774475m. Speed=0.036000m/h.</desc>
<speed>0.010000</speed>
</trkpt>
<trkpt lat="55.908913" lon="26.511990">
<ele>93.776428</ele>
<time>2010-06-20T07:40:40Z</time>
<desc>lat.=55.908913, lon.=26.511990, Alt.=93.776428m. Speed=0.000000m/h.</desc>
<speed>0.000000</speed>
</trkpt>
<trkpt lat="55.908913" lon="26.511990">
<ele>93.772522</ele>
<time>2010-06-20T07:40:41Z</time>
<desc>lat.=55.908913, lon.=26.511990, Alt.=93.772522m. Speed=0.000000m/h.</desc>
<speed>0.000000</speed>
</trkpt>
<trkpt lat="55.908913" lon="26.511990">
<ele>93.768616</ele>
<time>2010-06-20T07:40:42Z</time>
<desc>lat.=55.908913, lon.=26.511990, Alt.=93.768616m. Speed=0.000000m/h.</desc>
<speed>0.000000</speed>
</trkpt>
<trkpt lat="55.908913" lon="26.511990">
<ele>93.778381</ele>
<time>2010-06-20T07:40:43Z</time>
<desc>lat.=55.908913, lon.=26.511990, Alt.=93.778381m. Speed=0.000000m/h.</desc>
<speed>0.000000</speed>
</trkpt>
<trkpt lat="55.908913" lon="26.511990">
<ele>93.778381</ele>
<time>2010-06-20T07:40:44Z</time>
<desc>lat.=55.908913, lon.=26.511990, Alt.=93.778381m. Speed=0.000000m/h.</desc>
<speed>0.000000</speed>
</trkpt>
<trkpt lat="55.908913" lon="26.511990">
<ele>93.794006</ele>
<time>2010-06-20T07:40:45Z</time>
<desc>lat.=55.908913, lon.=26.511990, Alt.=93.794006m. Speed=0.000000m/h.</desc>
<speed>0.000000</speed>
</trkpt>
<trkpt lat="55.908913" lon="26.511990">
<ele>93.792053</ele>
<time>2010-06-20T07:40:46Z</time>
<desc>lat.=55.908913, lon.=26.511990, Alt.=93.792053m. Speed=0.000000m/h.</desc>
<speed>0.000000</speed>
</trkpt>
<trkpt lat="55.908913" lon="26.511990">
<ele>93.794006</ele>
<time>2010-06-20T07:40:47Z</time>
<desc>lat.=55.908913, lon.=26.511990, Alt.=93.794006m. Speed=0.000000m/h.</desc>
<speed>0.000000</speed>
</trkpt>
<trkpt lat="55.908913" lon="26.511990">
<ele>93.794006</ele>
<time>2010-06-20T07:40:48Z</time>
<desc>lat.=55.908913, lon.=26.511990, Alt.=93.794006m. Speed=0.000000m/h.</desc>
<speed>0.000000</speed>
</trkpt>
<trkpt lat="55.908913" lon="26.511990">
<ele>93.792053</ele>
<time>2010-06-20T07:40:49Z</time>
<desc>lat.=55.908913, lon.=26.511990, Alt.=93.792053m. Speed=0.000000m/h.</desc>
<speed>0.000000</speed>
</trkpt>
<trkpt lat="55.908913" lon="26.511990">
<ele>93.790100</ele>
<time>2010-06-20T07:40:50Z</time>
<desc>lat.=55.908913, lon.=26.511990, Alt.=93.790100m. Speed=0.000000m/h.</desc>
<speed>0.000000</speed>
</trkpt>
<trkpt lat="55.908913" lon="26.511990">
<ele>93.790100</ele>
<time>2010-06-20T07:40:51Z</time>
<desc>lat.=55.908913, lon.=26.511990, Alt.=93.790100m. Speed=0.000000m/h.</desc>
<speed>0.000000</speed>
</trkpt>
<trkpt lat="55.908913" lon="26.511990">
<ele>93.790100</ele>
<time>2010-06-20T07:40:52Z</time>
<desc>lat.=55.908913, lon.=26.511990, Alt.=93.790100m. Speed=0.108000m/h.</desc>
<speed>0.030000</speed>
</trkpt>
<trkpt lat="55.908913" lon="26.511990">
<ele>93.805725</ele>
<time>2010-06-20T07:40:53Z</time>
<desc>lat.=55.908913, lon.=26.511990, Alt.=93.805725m. Speed=0.036000m/h.</desc>
<speed>0.010000</speed>
</trkpt>
<trkpt lat="55.908913" lon="26.511990">
<ele>93.811584</ele>
<time>2010-06-20T07:40:54Z</time>
<desc>lat.=55.908913, lon.=26.511990, Alt.=93.811584m. Speed=0.036000m/h.</desc>
<speed>0.010000</speed>
</trkpt>
<trkpt lat="55.908913" lon="26.511990">
<ele>93.815491</ele>
<time>2010-06-20T07:40:55Z</time>
<desc>lat.=55.908913, lon.=26.511990, Alt.=93.815491m. Speed=0.108000m/h.</desc>
<speed>0.030000</speed>
</trkpt>
<trkpt lat="55.908913" lon="26.511990">
<ele>93.821350</ele>
<time>2010-06-20T07:40:56Z</time>
<desc>lat.=55.908913, lon.=26.511990, Alt.=93.821350m. Speed=0.180000m/h.</desc>
<speed>0.050000</speed>
</trkpt>
<trkpt lat="55.908913" lon="26.511988">
<ele>93.833069</ele>
<time>2010-06-20T07:40:57Z</time>
<desc>lat.=55.908913, lon.=26.511988, Alt.=93.833069m. Speed=0.000000m/h.</desc>
<speed>0.000000</speed>
</trkpt>
<trkpt lat="55.908913" lon="26.511988">
<ele>93.840881</ele>
<time>2010-06-20T07:40:58Z</time>
<desc>lat.=55.908913, lon.=26.511988, Alt.=93.840881m. Speed=0.036000m/h.</desc>
<speed>0.010000</speed>
</trkpt>
<trkpt lat="55.908913" lon="26.511988">
<ele>93.846741</ele>
<time>2010-06-20T07:40:59Z</time>
<desc>lat.=55.908913, lon.=26.511988, Alt.=93.846741m. Speed=0.000000m/h.</desc>
<speed>0.000000</speed>
</trkpt>
<trkpt lat="55.908913" lon="26.511988">
<ele>93.856506</ele>
<time>2010-06-20T07:41:00Z</time>
<desc>lat.=55.908913, lon.=26.511988, Alt.=93.856506m. Speed=0.504000m/h.</desc>
<speed>0.140000</speed>
</trkpt>
<trkpt lat="55.908913" lon="26.511988">
<ele>93.860413</ele>
<time>2010-06-20T07:41:01Z</time>
<desc>lat.=55.908913, lon.=26.511988, Alt.=93.860413m. Speed=6.732000m/h.</desc>
<speed>1.870000</speed>
</trkpt>
<trkpt lat="55.908932" lon="26.511988">
<ele>93.977600</ele>
<time>2010-06-20T07:41:02Z</time>
<desc>lat.=55.908932, lon.=26.511988, Alt.=93.977600m. Speed=5.904000m/h.</desc>
<speed>1.640000</speed>
</trkpt>
<trkpt lat="55.908947" lon="26.511986">
<ele>94.221741</ele>
<time>2010-06-20T07:41:03Z</time>
<desc>lat.=55.908947, lon.=26.511986, Alt.=94.221741m. Speed=5.976000m/h.</desc>
<speed>1.660000</speed>
</trkpt>
<trkpt lat="55.908962" lon="26.511984">
<ele>94.372131</ele>
<time>2010-06-20T07:41:04Z</time>
<desc>lat.=55.908962, lon.=26.511984, Alt.=94.372131m. Speed=7.092000m/h.</desc>
<speed>1.970000</speed>
</trkpt>
<trkpt lat="55.908985" lon="26.511982">
<ele>94.460022</ele>
<time>2010-06-20T07:41:05Z</time>
<desc>lat.=55.908985, lon.=26.511982, Alt.=94.460022m. Speed=9.432000m/h.</desc>
<speed>2.620000</speed>
</trkpt>
<trkpt lat="55.909008" lon="26.511980">
<ele>94.719788</ele>
<time>2010-06-20T07:41:06Z</time>
<desc>lat.=55.909008, lon.=26.511980, Alt.=94.719788m. Speed=9.828000m/h.</desc>
<speed>2.730000</speed>
</trkpt>
<trkpt lat="55.909035" lon="26.511974">
<ele>95.583069</ele>
<time>2010-06-20T07:41:07Z</time>
<desc>lat.=55.909035, lon.=26.511974, Alt.=95.583069m. Speed=11.808000m/h.</desc>
<speed>3.280000</speed>
</trkpt>
<trkpt lat="55.909065" lon="26.511971">
<ele>95.413147</ele>
<time>2010-06-20T07:41:08Z</time>
<desc>lat.=55.909065, lon.=26.511971, Alt.=95.413147m. Speed=11.772000m/h.</desc>
<speed>3.270000</speed>
</trkpt>
<trkpt lat="55.909096" lon="26.511972">
<ele>95.254944</ele>
<time>2010-06-20T07:41:09Z</time>
<desc>lat.=55.909096, lon.=26.511972, Alt.=95.254944m. Speed=11.052000m/h.</desc>
<speed>3.070000</speed>
</trkpt>
<trkpt lat="55.909126" lon="26.511978">
<ele>95.217834</ele>
<time>2010-06-20T07:41:10Z</time>
<desc>lat.=55.909126, lon.=26.511978, Alt.=95.217834m. Speed=10.872000m/h.</desc>
<speed>3.020000</speed>
</trkpt>
<trkpt lat="55.909157" lon="26.511986">
<ele>95.381897</ele>
<time>2010-06-20T07:41:11Z</time>
<desc>lat.=55.909157, lon.=26.511986, Alt.=95.381897m. Speed=13.356000m/h.</desc>
<speed>3.710000</speed>
</trkpt>
<trkpt lat="55.909191" lon="26.512003">
<ele>94.670959</ele>
<time>2010-06-20T07:41:12Z</time>
<desc>lat.=55.909191, lon.=26.512003, Alt.=94.670959m. Speed=12.564000m/h.</desc>
<speed>3.490000</speed>
</trkpt>
<trkpt lat="55.909222" lon="26.512007">
<ele>94.856506</ele>
<time>2010-06-20T07:41:13Z</time>
<desc>lat.=55.909222, lon.=26.512007, Alt.=94.856506m. Speed=11.880000m/h.</desc>
<speed>3.300000</speed>
</trkpt>
<trkpt lat="55.909252" lon="26.512005">
<ele>95.018616</ele>
<time>2010-06-20T07:41:14Z</time>
<desc>lat.=55.909252, lon.=26.512005, Alt.=95.018616m. Speed=11.628000m/h.</desc>
<speed>3.230000</speed>
</trkpt>
<trkpt lat="55.909279" lon="26.512005">
<ele>95.167053</ele>
<time>2010-06-20T07:41:15Z</time>
<desc>lat.=55.909279, lon.=26.512005, Alt.=95.167053m. Speed=11.448000m/h.</desc>
<speed>3.180000</speed>
</trkpt>
<trkpt lat="55.909306" lon="26.512020">
<ele>95.032288</ele>
<time>2010-06-20T07:41:16Z</time>
<desc>lat.=55.909306, lon.=26.512020, Alt.=95.032288m. Speed=10.188000m/h.</desc>
<speed>2.830000</speed>
</trkpt>
<trkpt lat="55.909332" lon="26.512047">
<ele>94.971741</ele>
<time>2010-06-20T07:41:17Z</time>
<desc>lat.=55.909332, lon.=26.512047, Alt.=94.971741m. Speed=9.900000m/h.</desc>
<speed>2.750000</speed>
</trkpt>
<trkpt lat="55.909355" lon="26.512062">
<ele>95.081116</ele>
<time>2010-06-20T07:41:18Z</time>
<desc>lat.=55.909355, lon.=26.512062, Alt.=95.081116m. Speed=10.152000m/h.</desc>
<speed>2.820000</speed>
</trkpt>
<trkpt lat="55.909382" lon="26.512081">
<ele>95.108459</ele>
<time>2010-06-20T07:41:19Z</time>
<desc>lat.=55.909382, lon.=26.512081, Alt.=95.108459m. Speed=10.188000m/h.</desc>
<speed>2.830000</speed>
</trkpt>
<trkpt lat="55.909405" lon="26.512093">
<ele>95.245178</ele>
<time>2010-06-20T07:41:20Z</time>
<desc>lat.=55.909405, lon.=26.512093, Alt.=95.245178m. Speed=10.044000m/h.</desc>
<speed>2.790000</speed>
</trkpt>
<trkpt lat="55.909431" lon="26.512098">
<ele>95.422913</ele>
<time>2010-06-20T07:41:21Z</time>
<desc>lat.=55.909431, lon.=26.512098, Alt.=95.422913m. Speed=10.440000m/h.</desc>
<speed>2.900000</speed>
</trkpt>
<trkpt lat="55.909458" lon="26.512110">
<ele>95.512756</ele>
<time>2010-06-20T07:41:22Z</time>
<desc>lat.=55.909458, lon.=26.512110, Alt.=95.512756m. Speed=10.692000m/h.</desc>
<speed>2.970000</speed>
</trkpt>
<trkpt lat="55.909485" lon="26.512131">
<ele>95.567444</ele>
<time>2010-06-20T07:41:23Z</time>
<desc>lat.=55.909485, lon.=26.512131, Alt.=95.567444m. Speed=10.908000m/h.</desc>
<speed>3.030000</speed>
</trkpt>
<trkpt lat="55.909515" lon="26.512140">
<ele>94.961975</ele>
<time>2010-06-20T07:41:24Z</time>
<desc>lat.=55.909515, lon.=26.512140, Alt.=94.961975m. Speed=10.908000m/h.</desc>
<speed>3.030000</speed>
</trkpt>
<trkpt lat="55.909550" lon="26.512146">
<ele>94.842834</ele>
<time>2010-06-20T07:41:25Z</time>
<desc>lat.=55.909550, lon.=26.512146, Alt.=94.842834m. Speed=11.304000m/h.</desc>
<speed>3.140000</speed>
</trkpt>
<trkpt lat="55.909576" lon="26.512150">
<ele>94.649475</ele>
<time>2010-06-20T07:41:26Z</time>
<desc>lat.=55.909576, lon.=26.512150, Alt.=94.649475m. Speed=11.376000m/h.</desc>
<speed>3.160000</speed>
</trkpt>
<trkpt lat="55.909607" lon="26.512163">
<ele>94.237366</ele>
<time>2010-06-20T07:41:27Z</time>
<desc>lat.=55.909607, lon.=26.512163, Alt.=94.237366m. Speed=10.872000m/h.</desc>
<speed>3.020000</speed>
</trkpt>
<trkpt lat="55.909637" lon="26.512177">
<ele>94.169006</ele>
<time>2010-06-20T07:41:28Z</time>
<desc>lat.=55.909637, lon.=26.512177, Alt.=94.169006m. Speed=11.196000m/h.</desc>
<speed>3.110000</speed>
</trkpt>
<trkpt lat="55.909668" lon="26.512188">
<ele>93.545959</ele>
<time>2010-06-20T07:41:29Z</time>
<desc>lat.=55.909668, lon.=26.512188, Alt.=93.545959m. Speed=11.160000m/h.</desc>
<speed>3.100000</speed>
</trkpt>
<trkpt lat="55.909695" lon="26.512194">
<ele>93.469788</ele>
<time>2010-06-20T07:41:30Z</time>
<desc>lat.=55.909695, lon.=26.512194, Alt.=93.469788m. Speed=10.872000m/h.</desc>
<speed>3.020000</speed>
</trkpt>
<trkpt lat="55.909721" lon="26.512194">
<ele>93.655334</ele>
<time>2010-06-20T07:41:31Z</time>
<desc>lat.=55.909721, lon.=26.512194, Alt.=93.655334m. Speed=11.268000m/h.</desc>
<speed>3.130000</speed>
</trkpt>
<trkpt lat="55.909744" lon="26.512199">
<ele>93.651428</ele>
<time>2010-06-20T07:41:32Z</time>
<desc>lat.=55.909744, lon.=26.512199, Alt.=93.651428m. Speed=10.260000m/h.</desc>
<speed>2.850000</speed>
</trkpt>
<trkpt lat="55.909775" lon="26.512203">
<ele>93.751038</ele>
<time>2010-06-20T07:41:33Z</time>
<desc>lat.=55.909775, lon.=26.512203, Alt.=93.751038m. Speed=11.016000m/h.</desc>
<speed>3.060000</speed>
</trkpt>
<trkpt lat="55.909801" lon="26.512207">
<ele>93.764709</ele>
<time>2010-06-20T07:41:34Z</time>
<desc>lat.=55.909801, lon.=26.512207, Alt.=93.764709m. Speed=10.512000m/h.</desc>
<speed>2.920000</speed>
</trkpt>
<trkpt lat="55.909828" lon="26.512209">
<ele>93.635803</ele>
<time>2010-06-20T07:41:35Z</time>
<desc>lat.=55.909828, lon.=26.512209, Alt.=93.635803m. Speed=9.756000m/h.</desc>
<speed>2.710000</speed>
</trkpt>
<trkpt lat="55.909855" lon="26.512201">
<ele>93.836975</ele>
<time>2010-06-20T07:41:36Z</time>
<desc>lat.=55.909855, lon.=26.512201, Alt.=93.836975m. Speed=10.584000m/h.</desc>
<speed>2.940000</speed>
</trkpt>
<trkpt lat="55.909882" lon="26.512196">
<ele>93.559631</ele>
<time>2010-06-20T07:41:37Z</time>
<desc>lat.=55.909882, lon.=26.512196, Alt.=93.559631m. Speed=11.952000m/h.</desc>
<speed>3.320000</speed>
</trkpt>
<trkpt lat="55.909912" lon="26.512194">
<ele>93.198303</ele>
<time>2010-06-20T07:41:38Z</time>
<desc>lat.=55.909912, lon.=26.512194, Alt.=93.198303m. Speed=12.240000m/h.</desc>
<speed>3.400000</speed>
</trkpt>
<trkpt lat="55.909943" lon="26.512196">
<ele>93.104553</ele>
<time>2010-06-20T07:41:39Z</time>
<desc>lat.=55.909943, lon.=26.512196, Alt.=93.104553m. Speed=11.988000m/h.</desc>
<speed>3.330000</speed>
</trkpt>
<trkpt lat="55.909973" lon="26.512192">
<ele>93.092834</ele>
<time>2010-06-20T07:41:40Z</time>
<desc>lat.=55.909973, lon.=26.512192, Alt.=93.092834m. Speed=11.916000m/h.</desc>
<speed>3.310000</speed>
</trkpt>
<trkpt lat="55.910007" lon="26.512182">
<ele>93.028381</ele>
<time>2010-06-20T07:41:41Z</time>
<desc>lat.=55.910007, lon.=26.512182, Alt.=93.028381m. Speed=13.284000m/h.</desc>
<speed>3.690000</speed>
</trkpt>
<trkpt lat="55.910038" lon="26.512180">
<ele>93.079163</ele>
<time>2010-06-20T07:41:42Z</time>
<desc>lat.=55.910038, lon.=26.512180, Alt.=93.079163m. Speed=13.104000m/h.</desc>
<speed>3.640000</speed>
</trkpt>
<trkpt lat="55.910072" lon="26.512180">
<ele>93.096741</ele>
<time>2010-06-20T07:41:43Z</time>
<desc>lat.=55.910072, lon.=26.512180, Alt.=93.096741m. Speed=13.320000m/h.</desc>
<speed>3.700000</speed>
</trkpt>
<trkpt lat="55.910103" lon="26.512177">
<ele>93.180725</ele>
<time>2010-06-20T07:41:44Z</time>
<desc>lat.=55.910103, lon.=26.512177, Alt.=93.180725m. Speed=12.780000m/h.</desc>
<speed>3.550000</speed>
</trkpt>
<trkpt lat="55.910137" lon="26.512178">
<ele>93.252991</ele>
<time>2010-06-20T07:41:45Z</time>
<desc>lat.=55.910137, lon.=26.512178, Alt.=93.252991m. Speed=12.420000m/h.</desc>
<speed>3.450000</speed>
</trkpt>
<trkpt lat="55.910168" lon="26.512180">
<ele>93.227600</ele>
<time>2010-06-20T07:41:46Z</time>
<desc>lat.=55.910168, lon.=26.512180, Alt.=93.227600m. Speed=12.312000m/h.</desc>
<speed>3.420000</speed>
</trkpt>
<trkpt lat="55.910198" lon="26.512178">
<ele>93.393616</ele>
<time>2010-06-20T07:41:47Z</time>
<desc>lat.=55.910198, lon.=26.512178, Alt.=93.393616m. Speed=12.564000m/h.</desc>
<speed>3.490000</speed>
</trkpt>
<trkpt lat="55.910233" lon="26.512178">
<ele>93.561584</ele>
<time>2010-06-20T07:41:48Z</time>
<desc>lat.=55.910233, lon.=26.512178, Alt.=93.561584m. Speed=13.392000m/h.</desc>
<speed>3.720000</speed>
</trkpt>
<trkpt lat="55.910259" lon="26.512186">
<ele>93.190491</ele>
<time>2010-06-20T07:41:49Z</time>
<desc>lat.=55.910259, lon.=26.512186, Alt.=93.190491m. Speed=11.556000m/h.</desc>
<speed>3.210000</speed>
</trkpt>
<trkpt lat="55.910290" lon="26.512186">
<ele>93.010803</ele>
<time>2010-06-20T07:41:50Z</time>
<desc>lat.=55.910290, lon.=26.512186, Alt.=93.010803m. Speed=12.312000m/h.</desc>
<speed>3.420000</speed>
</trkpt>
<trkpt lat="55.910324" lon="26.512188">
<ele>92.829163</ele>
<time>2010-06-20T07:41:51Z</time>
<desc>lat.=55.910324, lon.=26.512188, Alt.=92.829163m. Speed=12.420000m/h.</desc>
<speed>3.450000</speed>
</trkpt>
<trkpt lat="55.910355" lon="26.512192">
<ele>92.762756</ele>
<time>2010-06-20T07:41:52Z</time>
<desc>lat.=55.910355, lon.=26.512192, Alt.=92.762756m. Speed=11.952000m/h.</desc>
<speed>3.320000</speed>
</trkpt>
<trkpt lat="55.910381" lon="26.512197">
<ele>92.715881</ele>
<time>2010-06-20T07:41:53Z</time>
<desc>lat.=55.910381, lon.=26.512197, Alt.=92.715881m. Speed=11.772000m/h.</desc>
<speed>3.270000</speed>
</trkpt>
<trkpt lat="55.910412" lon="26.512199">
<ele>92.520569</ele>
<time>2010-06-20T07:41:54Z</time>
<desc>lat.=55.910412, lon.=26.512199, Alt.=92.520569m. Speed=12.204000m/h.</desc>
<speed>3.390000</speed>
</trkpt>
<trkpt lat="55.910442" lon="26.512199">
<ele>92.518616</ele>
<time>2010-06-20T07:41:55Z</time>
<desc>lat.=55.910442, lon.=26.512199, Alt.=92.518616m. Speed=11.448000m/h.</desc>
<speed>3.180000</speed>
</trkpt>
<trkpt lat="55.910469" lon="26.512211">
<ele>93.208069</ele>
<time>2010-06-20T07:41:56Z</time>
<desc>lat.=55.910469, lon.=26.512211, Alt.=93.208069m. Speed=10.224000m/h.</desc>
<speed>2.840000</speed>
</trkpt>
<trkpt lat="55.910492" lon="26.512213">
<ele>93.362366</ele>
<time>2010-06-20T07:41:57Z</time>
<desc>lat.=55.910492, lon.=26.512213, Alt.=93.362366m. Speed=10.944000m/h.</desc>
<speed>3.040000</speed>
</trkpt>
<trkpt lat="55.910519" lon="26.512215">
<ele>93.778381</ele>
<time>2010-06-20T07:41:58Z</time>
<desc>lat.=55.910519, lon.=26.512215, Alt.=93.778381m. Speed=11.520000m/h.</desc>
<speed>3.200000</speed>
</trkpt>
<trkpt lat="55.910545" lon="26.512218">
<ele>93.710022</ele>
<time>2010-06-20T07:41:59Z</time>
<desc>lat.=55.910545, lon.=26.512218, Alt.=93.710022m. Speed=11.628000m/h.</desc>
<speed>3.230000</speed>
</trkpt>
<trkpt lat="55.910572" lon="26.512220">
<ele>93.499084</ele>
<time>2010-06-20T07:42:00Z</time>
<desc>lat.=55.910572, lon.=26.512220, Alt.=93.499084m. Speed=10.296000m/h.</desc>
<speed>2.860000</speed>
</trkpt>
<trkpt lat="55.910599" lon="26.512226">
<ele>93.610413</ele>
<time>2010-06-20T07:42:01Z</time>
<desc>lat.=55.910599, lon.=26.512226, Alt.=93.610413m. Speed=10.728000m/h.</desc>
<speed>2.980000</speed>
</trkpt>
<trkpt lat="55.910622" lon="26.512226">
<ele>93.524475</ele>
<time>2010-06-20T07:42:02Z</time>
<desc>lat.=55.910622, lon.=26.512226, Alt.=93.524475m. Speed=10.224000m/h.</desc>
<speed>2.840000</speed>
</trkpt>
<trkpt lat="55.910652" lon="26.512230">
<ele>93.303772</ele>
<time>2010-06-20T07:42:03Z</time>
<desc>lat.=55.910652, lon.=26.512230, Alt.=93.303772m. Speed=12.564000m/h.</desc>
<speed>3.490000</speed>
</trkpt>
<trkpt lat="55.910686" lon="26.512238">
<ele>93.073303</ele>
<time>2010-06-20T07:42:04Z</time>
<desc>lat.=55.910686, lon.=26.512238, Alt.=93.073303m. Speed=14.328000m/h.</desc>
<speed>3.980000</speed>
</trkpt>
<trkpt lat="55.910717" lon="26.512238">
<ele>92.975647</ele>
<time>2010-06-20T07:42:05Z</time>
<desc>lat.=55.910717, lon.=26.512238, Alt.=92.975647m. Speed=11.088000m/h.</desc>
<speed>3.080000</speed>
</trkpt>
<trkpt lat="55.910748" lon="26.512239">
<ele>92.926819</ele>
<time>2010-06-20T07:42:06Z</time>
<desc>lat.=55.910748, lon.=26.512239, Alt.=92.926819m. Speed=12.420000m/h.</desc>
<speed>3.450000</speed>
</trkpt>
<trkpt lat="55.910778" lon="26.512241">
<ele>92.831116</ele>
<time>2010-06-20T07:42:07Z</time>
<desc>lat.=55.910778, lon.=26.512241, Alt.=92.831116m. Speed=11.160000m/h.</desc>
<speed>3.100000</speed>
</trkpt>
<trkpt lat="55.910809" lon="26.512243">
<ele>92.465881</ele>
<time>2010-06-20T07:42:08Z</time>
<desc>lat.=55.910809, lon.=26.512243, Alt.=92.465881m. Speed=14.076000m/h.</desc>
<speed>3.910000</speed>
</trkpt>
<trkpt lat="55.910839" lon="26.512245">
<ele>92.260803</ele>
<time>2010-06-20T07:42:09Z</time>
<desc>lat.=55.910839, lon.=26.512245, Alt.=92.260803m. Speed=11.196000m/h.</desc>
<speed>3.110000</speed>
</trkpt>
<trkpt lat="55.910870" lon="26.512247">
<ele>92.165100</ele>
<time>2010-06-20T07:42:10Z</time>
<desc>lat.=55.910870, lon.=26.512247, Alt.=92.165100m. Speed=13.320000m/h.</desc>
<speed>3.700000</speed>
</trkpt>
<trkpt lat="55.910904" lon="26.512251">
<ele>91.864319</ele>
<time>2010-06-20T07:42:11Z</time>
<desc>lat.=55.910904, lon.=26.512251, Alt.=91.864319m. Speed=13.572000m/h.</desc>
<speed>3.770000</speed>
</trkpt>
<trkpt lat="55.910942" lon="26.512262">
<ele>91.924866</ele>
<time>2010-06-20T07:42:12Z</time>
<desc>lat.=55.910942, lon.=26.512262, Alt.=91.924866m. Speed=16.416000m/h.</desc>
<speed>4.560000</speed>
</trkpt>
<trkpt lat="55.910984" lon="26.512264">
<ele>91.536194</ele>
<time>2010-06-20T07:42:13Z</time>
<desc>lat.=55.910984, lon.=26.512264, Alt.=91.536194m. Speed=16.740000m/h.</desc>
<speed>4.650000</speed>
</trkpt>
<trkpt lat="55.911030" lon="26.512270">
<ele>91.297913</ele>
<time>2010-06-20T07:42:14Z</time>
<desc>lat.=55.911030, lon.=26.512270, Alt.=91.297913m. Speed=17.532000m/h.</desc>
<speed>4.870000</speed>
</trkpt>
<trkpt lat="55.911072" lon="26.512280">
<ele>91.213928</ele>
<time>2010-06-20T07:42:15Z</time>
<desc>lat.=55.911072, lon.=26.512280, Alt.=91.213928m. Speed=16.559999m/h.</desc>
<speed>4.600000</speed>
</trkpt>
<trkpt lat="55.911118" lon="26.512287">
<ele>91.335022</ele>
<time>2010-06-20T07:42:16Z</time>
<desc>lat.=55.911118, lon.=26.512287, Alt.=91.335022m. Speed=18.864000m/h.</desc>
<speed>5.240000</speed>
</trkpt>
<trkpt lat="55.911167" lon="26.512300">
<ele>91.608459</ele>
<time>2010-06-20T07:42:17Z</time>
<desc>lat.=55.911167, lon.=26.512300, Alt.=91.608459m. Speed=16.559999m/h.</desc>
<speed>4.600000</speed>
</trkpt>
<trkpt lat="55.911209" lon="26.512312">
<ele>91.702209</ele>
<time>2010-06-20T07:42:18Z</time>
<desc>lat.=55.911209, lon.=26.512312, Alt.=91.702209m. Speed=17.532000m/h.</desc>
<speed>4.870000</speed>
</trkpt>
<trkpt lat="55.911255" lon="26.512323">
<ele>91.571350</ele>
<time>2010-06-20T07:42:19Z</time>
<desc>lat.=55.911255, lon.=26.512323, Alt.=91.571350m. Speed=14.544000m/h.</desc>
<speed>4.040000</speed>
</trkpt>
<trkpt lat="55.911289" lon="26.512325">
<ele>91.938538</ele>
<time>2010-06-20T07:42:20Z</time>
<desc>lat.=55.911289, lon.=26.512325, Alt.=91.938538m. Speed=13.140000m/h.</desc>
<speed>3.650000</speed>
</trkpt>
<trkpt lat="55.911324" lon="26.512306">
<ele>92.768616</ele>
<time>2010-06-20T07:42:21Z</time>
<desc>lat.=55.911324, lon.=26.512306, Alt.=92.768616m. Speed=15.840000m/h.</desc>
<speed>4.400000</speed>
</trkpt>
<trkpt lat="55.911362" lon="26.512310">
<ele>93.381897</ele>
<time>2010-06-20T07:42:22Z</time>
<desc>lat.=55.911362, lon.=26.512310, Alt.=93.381897m. Speed=13.536000m/h.</desc>
<speed>3.760000</speed>
</trkpt>
<trkpt lat="55.911392" lon="26.512310">
<ele>93.815491</ele>
<time>2010-06-20T07:42:23Z</time>
<desc>lat.=55.911392, lon.=26.512310, Alt.=93.815491m. Speed=9.288000m/h.</desc>
<speed>2.580000</speed>
</trkpt>
<trkpt lat="55.911415" lon="26.512312">
<ele>93.872131</ele>
<time>2010-06-20T07:42:24Z</time>
<desc>lat.=55.911415, lon.=26.512312, Alt.=93.872131m. Speed=8.136000m/h.</desc>
<speed>2.260000</speed>
</trkpt>
<trkpt lat="55.911442" lon="26.512316">
<ele>94.069397</ele>
<time>2010-06-20T07:42:25Z</time>
<desc>lat.=55.911442, lon.=26.512316, Alt.=94.069397m. Speed=8.424000m/h.</desc>
<speed>2.340000</speed>
</trkpt>
<trkpt lat="55.911476" lon="26.512314">
<ele>94.303772</ele>
<time>2010-06-20T07:42:26Z</time>
<desc>lat.=55.911476, lon.=26.512314, Alt.=94.303772m. Speed=10.224000m/h.</desc>
<speed>2.840000</speed>
</trkpt>
<trkpt lat="55.911499" lon="26.512314">
<ele>94.376038</ele>
<time>2010-06-20T07:42:27Z</time>
<desc>lat.=55.911499, lon.=26.512314, Alt.=94.376038m. Speed=9.540000m/h.</desc>
<speed>2.650000</speed>
</trkpt>
<trkpt lat="55.911526" lon="26.512308">
<ele>94.586975</ele>
<time>2010-06-20T07:42:28Z</time>
<desc>lat.=55.911526, lon.=26.512308, Alt.=94.586975m. Speed=9.396000m/h.</desc>
<speed>2.610000</speed>
</trkpt>
<trkpt lat="55.911572" lon="26.512297">
<ele>95.114319</ele>
<time>2010-06-20T07:42:29Z</time>
<desc>lat.=55.911572, lon.=26.512297, Alt.=95.114319m. Speed=11.304000m/h.</desc>
<speed>3.140000</speed>
</trkpt>
<trkpt lat="55.911613" lon="26.512287">
<ele>96.182678</ele>
<time>2010-06-20T07:42:30Z</time>
<desc>lat.=55.911613, lon.=26.512287, Alt.=96.182678m. Speed=13.320000m/h.</desc>
<speed>3.700000</speed>
</trkpt>
<trkpt lat="55.911652" lon="26.512270">
<ele>97.014709</ele>
<time>2010-06-20T07:42:31Z</time>
<desc>lat.=55.911652, lon.=26.512270, Alt.=97.014709m. Speed=12.204000m/h.</desc>
<speed>3.390000</speed>
</trkpt>
<trkpt lat="55.911682" lon="26.512266">
<ele>97.805725</ele>
<time>2010-06-20T07:42:32Z</time>
<desc>lat.=55.911682, lon.=26.512266, Alt.=97.805725m. Speed=9.900000m/h.</desc>
<speed>2.750000</speed>
</trkpt>
<trkpt lat="55.911713" lon="26.512264">
<ele>97.102600</ele>
<time>2010-06-20T07:42:33Z</time>
<desc>lat.=55.911713, lon.=26.512264, Alt.=97.102600m. Speed=8.892000m/h.</desc>
<speed>2.470000</speed>
</trkpt>
<trkpt lat="55.911736" lon="26.512262">
<ele>97.194397</ele>
<time>2010-06-20T07:42:34Z</time>
<desc>lat.=55.911736, lon.=26.512262, Alt.=97.194397m. Speed=10.620000m/h.</desc>
<speed>2.950000</speed>
</trkpt>
<trkpt lat="55.911762" lon="26.512255">
<ele>97.622131</ele>
<time>2010-06-20T07:42:35Z</time>
<desc>lat.=55.911762, lon.=26.512255, Alt.=97.622131m. Speed=8.316000m/h.</desc>
<speed>2.310000</speed>
</trkpt>
<trkpt lat="55.911785" lon="26.512253">
<ele>98.237366</ele>
<time>2010-06-20T07:42:36Z</time>
<desc>lat.=55.911785, lon.=26.512253, Alt.=98.237366m. Speed=9.396000m/h.</desc>
<speed>2.610000</speed>
</trkpt>
<trkpt lat="55.911812" lon="26.512251">
<ele>98.450256</ele>
<time>2010-06-20T07:42:37Z</time>
<desc>lat.=55.911812, lon.=26.512251, Alt.=98.450256m. Speed=9.468000m/h.</desc>
<speed>2.630000</speed>
</trkpt>
<trkpt lat="55.911835" lon="26.512251">
<ele>98.797913</ele>
<time>2010-06-20T07:42:38Z</time>
<desc>lat.=55.911835, lon.=26.512251, Alt.=98.797913m. Speed=8.100000m/h.</desc>
<speed>2.250000</speed>
</trkpt>
<trkpt lat="55.911858" lon="26.512259">
<ele>98.852600</ele>
<time>2010-06-20T07:42:39Z</time>
<desc>lat.=55.911858, lon.=26.512259, Alt.=98.852600m. Speed=6.012000m/h.</desc>
<speed>1.670000</speed>
</trkpt>
<trkpt lat="55.911880" lon="26.512266">
<ele>98.581116</ele>
<time>2010-06-20T07:42:40Z</time>
<desc>lat.=55.911880, lon.=26.512266, Alt.=98.581116m. Speed=9.000000m/h.</desc>
<speed>2.500000</speed>
</trkpt>
<trkpt lat="55.911900" lon="26.512278">
<ele>99.079163</ele>
<time>2010-06-20T07:42:41Z</time>
<desc>lat.=55.911900, lon.=26.512278, Alt.=99.079163m. Speed=6.984000m/h.</desc>
<speed>1.940000</speed>
</trkpt>
<trkpt lat="55.911938" lon="26.512295">
<ele>99.493225</ele>
<time>2010-06-20T07:42:42Z</time>
<desc>lat.=55.911938, lon.=26.512295, Alt.=99.493225m. Speed=9.144000m/h.</desc>
<speed>2.540000</speed>
</trkpt>
<trkpt lat="55.911968" lon="26.512300">
<ele>100.135803</ele>
<time>2010-06-20T07:42:43Z</time>
<desc>lat.=55.911968, lon.=26.512300, Alt.=100.135803m. Speed=9.576000m/h.</desc>
<speed>2.660000</speed>
</trkpt>
<trkpt lat="55.911987" lon="26.512304">
<ele>100.678772</ele>
<time>2010-06-20T07:42:44Z</time>
<desc>lat.=55.911987, lon.=26.512304, Alt.=100.678772m. Speed=6.012000m/h.</desc>
<speed>1.670000</speed>
</trkpt>
<trkpt lat="55.912018" lon="26.512356">
<ele>97.491272</ele>
<time>2010-06-20T07:42:45Z</time>
<desc>lat.=55.912018, lon.=26.512356, Alt.=97.491272m. Speed=7.848000m/h.</desc>
<speed>2.180000</speed>
</trkpt>
<trkpt lat="55.912041" lon="26.512388">
<ele>96.135803</ele>
<time>2010-06-20T07:42:46Z</time>
<desc>lat.=55.912041, lon.=26.512388, Alt.=96.135803m. Speed=7.740000m/h.</desc>
<speed>2.150000</speed>
</trkpt>
<trkpt lat="55.912079" lon="26.512384">
<ele>94.210022</ele>
<time>2010-06-20T07:42:47Z</time>
<desc>lat.=55.912079, lon.=26.512384, Alt.=94.210022m. Speed=10.872000m/h.</desc>
<speed>3.020000</speed>
</trkpt>
<trkpt lat="55.912121" lon="26.512383">
<ele>91.741272</ele>
<time>2010-06-20T07:42:48Z</time>
<desc>lat.=55.912121, lon.=26.512383, Alt.=91.741272m. Speed=9.828000m/h.</desc>
<speed>2.730000</speed>
</trkpt>
<trkpt lat="55.912159" lon="26.512388">
<ele>90.446350</ele>
<time>2010-06-20T07:42:49Z</time>
<desc>lat.=55.912159, lon.=26.512388, Alt.=90.446350m. Speed=11.844000m/h.</desc>
<speed>3.290000</speed>
</trkpt>
<trkpt lat="55.912193" lon="26.512390">
<ele>90.704163</ele>
<time>2010-06-20T07:42:50Z</time>
<desc>lat.=55.912193, lon.=26.512390, Alt.=90.704163m. Speed=11.592000m/h.</desc>
<speed>3.220000</speed>
</trkpt>
<trkpt lat="55.912220" lon="26.512383">
<ele>88.311584</ele>
<time>2010-06-20T07:42:51Z</time>
<desc>lat.=55.912220, lon.=26.512383, Alt.=88.311584m. Speed=9.756000m/h.</desc>
<speed>2.710000</speed>
</trkpt>
<trkpt lat="55.912243" lon="26.512373">
<ele>88.432678</ele>
<time>2010-06-20T07:42:52Z</time>
<desc>lat.=55.912243, lon.=26.512373, Alt.=88.432678m. Speed=7.200000m/h.</desc>
<speed>2.000000</speed>
</trkpt>
<trkpt lat="55.912270" lon="26.512365">
<ele>89.100647</ele>
<time>2010-06-20T07:42:53Z</time>
<desc>lat.=55.912270, lon.=26.512365, Alt.=89.100647m. Speed=7.236000m/h.</desc>
<speed>2.010000</speed>
</trkpt>
<trkpt lat="55.912296" lon="26.512365">
<ele>88.719788</ele>
<time>2010-06-20T07:42:54Z</time>
<desc>lat.=55.912296, lon.=26.512365, Alt.=88.719788m. Speed=8.496000m/h.</desc>
<speed>2.360000</speed>
</trkpt>
<trkpt lat="55.912315" lon="26.512358">
<ele>88.987366</ele>
<time>2010-06-20T07:42:55Z</time>
<desc>lat.=55.912315, lon.=26.512358, Alt.=88.987366m. Speed=9.576000m/h.</desc>
<speed>2.660000</speed>
</trkpt>
<trkpt lat="55.912342" lon="26.512356">
<ele>89.188538</ele>
<time>2010-06-20T07:42:56Z</time>
<desc>lat.=55.912342, lon.=26.512356, Alt.=89.188538m. Speed=10.980000m/h.</desc>
<speed>3.050000</speed>
</trkpt>
<trkpt lat="55.912388" lon="26.512352">
<ele>89.891663</ele>
<time>2010-06-20T07:42:57Z</time>
<desc>lat.=55.912388, lon.=26.512352, Alt.=89.891663m. Speed=12.168000m/h.</desc>
<speed>3.380000</speed>
</trkpt>
<trkpt lat="55.912430" lon="26.512354">
<ele>90.284241</ele>
<time>2010-06-20T07:42:58Z</time>
<desc>lat.=55.912430, lon.=26.512354, Alt.=90.284241m. Speed=12.564000m/h.</desc>
<speed>3.490000</speed>
</trkpt>
<trkpt lat="55.912464" lon="26.512352">
<ele>90.170959</ele>
<time>2010-06-20T07:42:59Z</time>
<desc>lat.=55.912464, lon.=26.512352, Alt.=90.170959m. Speed=12.492000m/h.</desc>
<speed>3.470000</speed>
</trkpt>
<trkpt lat="55.912514" lon="26.512346">
<ele>91.159241</ele>
<time>2010-06-20T07:43:00Z</time>
<desc>lat.=55.912514, lon.=26.512346, Alt.=91.159241m. Speed=14.940000m/h.</desc>
<speed>4.150000</speed>
</trkpt>
<trkpt lat="55.912552" lon="26.512337">
<ele>91.778381</ele>
<time>2010-06-20T07:43:01Z</time>
<desc>lat.=55.912552, lon.=26.512337, Alt.=91.778381m. Speed=14.220000m/h.</desc>
<speed>3.950000</speed>
</trkpt>
<trkpt lat="55.912594" lon="26.512335">
<ele>92.309631</ele>
<time>2010-06-20T07:43:02Z</time>
<desc>lat.=55.912594, lon.=26.512335, Alt.=92.309631m. Speed=14.652000m/h.</desc>
<speed>4.070000</speed>
</trkpt>
<trkpt lat="55.912636" lon="26.512335">
<ele>92.653381</ele>
<time>2010-06-20T07:43:03Z</time>
<desc>lat.=55.912636, lon.=26.512335, Alt.=92.653381m. Speed=14.652000m/h.</desc>
<speed>4.070000</speed>
</trkpt>
<trkpt lat="55.912678" lon="26.512333">
<ele>92.313538</ele>
<time>2010-06-20T07:43:04Z</time>
<desc>lat.=55.912678, lon.=26.512333, Alt.=92.313538m. Speed=14.220000m/h.</desc>
<speed>3.950000</speed>
</trkpt>
<trkpt lat="55.912720" lon="26.512323">
<ele>92.483459</ele>
<time>2010-06-20T07:43:05Z</time>
<desc>lat.=55.912720, lon.=26.512323, Alt.=92.483459m. Speed=13.788000m/h.</desc>
<speed>3.830000</speed>
</trkpt>
<trkpt lat="55.912754" lon="26.512321">
<ele>92.327209</ele>
<time>2010-06-20T07:43:06Z</time>
<desc>lat.=55.912754, lon.=26.512321, Alt.=92.327209m. Speed=12.780000m/h.</desc>
<speed>3.550000</speed>
</trkpt>
<trkpt lat="55.912785" lon="26.512321">
<ele>92.409241</ele>
<time>2010-06-20T07:43:07Z</time>
<desc>lat.=55.912785, lon.=26.512321, Alt.=92.409241m. Speed=11.448000m/h.</desc>
<speed>3.180000</speed>
</trkpt>
<trkpt lat="55.912815" lon="26.512320">
<ele>92.799866</ele>
<time>2010-06-20T07:43:08Z</time>
<desc>lat.=55.912815, lon.=26.512320, Alt.=92.799866m. Speed=12.060000m/h.</desc>
<speed>3.350000</speed>
</trkpt>
<trkpt lat="55.912849" lon="26.512323">
<ele>92.920959</ele>
<time>2010-06-20T07:43:09Z</time>
<desc>lat.=55.912849, lon.=26.512323, Alt.=92.920959m. Speed=14.184000m/h.</desc>
<speed>3.940000</speed>
</trkpt>
<trkpt lat="55.912884" lon="26.512321">
<ele>92.692444</ele>
<time>2010-06-20T07:43:10Z</time>
<desc>lat.=55.912884, lon.=26.512321, Alt.=92.692444m. Speed=13.788000m/h.</desc>
<speed>3.830000</speed>
</trkpt>
<trkpt lat="55.912922" lon="26.512320">
<ele>92.795959</ele>
<time>2010-06-20T07:43:11Z</time>
<desc>lat.=55.912922, lon.=26.512320, Alt.=92.795959m. Speed=12.168000m/h.</desc>
<speed>3.380000</speed>
</trkpt>
<trkpt lat="55.912956" lon="26.512316">
<ele>93.157288</ele>
<time>2010-06-20T07:43:12Z</time>
<desc>lat.=55.912956, lon.=26.512316, Alt.=93.157288m. Speed=12.780000m/h.</desc>
<speed>3.550000</speed>
</trkpt>
<trkpt lat="55.912991" lon="26.512308">
<ele>93.852600</ele>
<time>2010-06-20T07:43:13Z</time>
<desc>lat.=55.912991, lon.=26.512308, Alt.=93.852600m. Speed=11.916000m/h.</desc>
<speed>3.310000</speed>
</trkpt>
<trkpt lat="55.913021" lon="26.512300">
<ele>94.338928</ele>
<time>2010-06-20T07:43:14Z</time>
<desc>lat.=55.913021, lon.=26.512300, Alt.=94.338928m. Speed=11.844000m/h.</desc>
<speed>3.290000</speed>
</trkpt>
<trkpt lat="55.913052" lon="26.512291">
<ele>94.838928</ele>
<time>2010-06-20T07:43:15Z</time>
<desc>lat.=55.913052, lon.=26.512291, Alt.=94.838928m. Speed=11.592000m/h.</desc>
<speed>3.220000</speed>
</trkpt>
<trkpt lat="55.913078" lon="26.512287">
<ele>95.012756</ele>
<time>2010-06-20T07:43:16Z</time>
<desc>lat.=55.913078, lon.=26.512287, Alt.=95.012756m. Speed=9.972000m/h.</desc>
<speed>2.770000</speed>
</trkpt>
<trkpt lat="55.913109" lon="26.512281">
<ele>95.399475</ele>
<time>2010-06-20T07:43:17Z</time>
<desc>lat.=55.913109, lon.=26.512281, Alt.=95.399475m. Speed=10.548000m/h.</desc>
<speed>2.930000</speed>
</trkpt>
<trkpt lat="55.913128" lon="26.512276">
<ele>95.635803</ele>
<time>2010-06-20T07:43:18Z</time>
<desc>lat.=55.913128, lon.=26.512276, Alt.=95.635803m. Speed=7.236000m/h.</desc>
<speed>2.010000</speed>
</trkpt>
<trkpt lat="55.913143" lon="26.512274">
<ele>95.860413</ele>
<time>2010-06-20T07:43:19Z</time>
<desc>lat.=55.913143, lon.=26.512274, Alt.=95.860413m. Speed=5.220000m/h.</desc>
<speed>1.450000</speed>
</trkpt>
<trkpt lat="55.913158" lon="26.512280">
<ele>96.342834</ele>
<time>2010-06-20T07:43:20Z</time>
<desc>lat.=55.913158, lon.=26.512280, Alt.=96.342834m. Speed=5.292000m/h.</desc>
<speed>1.470000</speed>
</trkpt>
<trkpt lat="55.913177" lon="26.512272">
<ele>96.811584</ele>
<time>2010-06-20T07:43:21Z</time>
<desc>lat.=55.913177, lon.=26.512272, Alt.=96.811584m. Speed=7.596000m/h.</desc>
<speed>2.110000</speed>
</trkpt>
<trkpt lat="55.913193" lon="26.512266">
<ele>97.307678</ele>
<time>2010-06-20T07:43:22Z</time>
<desc>lat.=55.913193, lon.=26.512266, Alt.=97.307678m. Speed=6.444000m/h.</desc>
<speed>1.790000</speed>
</trkpt>
<trkpt lat="55.913216" lon="26.512257">
<ele>97.710022</ele>
<time>2010-06-20T07:43:23Z</time>
<desc>lat.=55.913216, lon.=26.512257, Alt.=97.710022m. Speed=8.280000m/h.</desc>
<speed>2.300000</speed>
</trkpt>
<trkpt lat="55.913235" lon="26.512241">
<ele>98.102600</ele>
<time>2010-06-20T07:43:24Z</time>
<desc>lat.=55.913235, lon.=26.512241, Alt.=98.102600m. Speed=7.020000m/h.</desc>
<speed>1.950000</speed>
</trkpt>
<trkpt lat="55.913258" lon="26.512217">
<ele>98.686584</ele>
<time>2010-06-20T07:43:25Z</time>
<desc>lat.=55.913258, lon.=26.512217, Alt.=98.686584m. Speed=8.820000m/h.</desc>
<speed>2.450000</speed>
</trkpt>
<trkpt lat="55.913273" lon="26.512199">
<ele>99.129944</ele>
<time>2010-06-20T07:43:26Z</time>
<desc>lat.=55.913273, lon.=26.512199, Alt.=99.129944m. Speed=5.652000m/h.</desc>
<speed>1.570000</speed>
</trkpt>
<trkpt lat="55.913296" lon="26.512178">
<ele>99.649475</ele>
<time>2010-06-20T07:43:27Z</time>
<desc>lat.=55.913296, lon.=26.512178, Alt.=99.649475m. Speed=6.516000m/h.</desc>
<speed>1.810000</speed>
</trkpt>
<trkpt lat="55.913315" lon="26.512157">
<ele>100.157288</ele>
<time>2010-06-20T07:43:28Z</time>
<desc>lat.=55.913315, lon.=26.512157, Alt.=100.157288m. Speed=8.352000m/h.</desc>
<speed>2.320000</speed>
</trkpt>
<trkpt lat="55.913334" lon="26.512133">
<ele>100.727600</ele>
<time>2010-06-20T07:43:29Z</time>
<desc>lat.=55.913334, lon.=26.512133, Alt.=100.727600m. Speed=7.560000m/h.</desc>
<speed>2.100000</speed>
</trkpt>
<trkpt lat="55.913364" lon="26.512136">
<ele>101.141663</ele>
<time>2010-06-20T07:43:30Z</time>
<desc>lat.=55.913364, lon.=26.512136, Alt.=101.141663m. Speed=8.244000m/h.</desc>
<speed>2.290000</speed>
</trkpt>
<trkpt lat="55.913383" lon="26.512136">
<ele>101.575256</ele>
<time>2010-06-20T07:43:31Z</time>
<desc>lat.=55.913383, lon.=26.512136, Alt.=101.575256m. Speed=5.472000m/h.</desc>
<speed>1.520000</speed>
</trkpt>
<trkpt lat="55.913395" lon="26.512125">
<ele>102.112366</ele>
<time>2010-06-20T07:43:32Z</time>
<desc>lat.=55.913395, lon.=26.512125, Alt.=102.112366m. Speed=4.572000m/h.</desc>
<speed>1.270000</speed>
</trkpt>
<trkpt lat="55.913410" lon="26.512117">
<ele>102.491272</ele>
<time>2010-06-20T07:43:33Z</time>
<desc>lat.=55.913410, lon.=26.512117, Alt.=102.491272m. Speed=4.248000m/h.</desc>
<speed>1.180000</speed>
</trkpt>
<trkpt lat="55.913425" lon="26.512115">
<ele>103.008850</ele>
<time>2010-06-20T07:43:34Z</time>
<desc>lat.=55.913425, lon.=26.512115, Alt.=103.008850m. Speed=4.104000m/h.</desc>
<speed>1.140000</speed>
</trkpt>
<trkpt lat="55.913448" lon="26.512114">
<ele>103.454163</ele>
<time>2010-06-20T07:43:35Z</time>
<desc>lat.=55.913448, lon.=26.512114, Alt.=103.454163m. Speed=6.264000m/h.</desc>
<speed>1.740000</speed>
</trkpt>
<trkpt lat="55.913471" lon="26.512115">
<ele>103.776428</ele>
<time>2010-06-20T07:43:36Z</time>
<desc>lat.=55.913471, lon.=26.512115, Alt.=103.776428m. Speed=4.176000m/h.</desc>
<speed>1.160000</speed>
</trkpt>
<trkpt lat="55.913498" lon="26.512094">
<ele>104.405334</ele>
<time>2010-06-20T07:43:37Z</time>
<desc>lat.=55.913498, lon.=26.512094, Alt.=104.405334m. Speed=6.984000m/h.</desc>
<speed>1.940000</speed>
</trkpt>
<trkpt lat="55.913532" lon="26.512062">
<ele>105.104553</ele>
<time>2010-06-20T07:43:38Z</time>
<desc>lat.=55.913532, lon.=26.512062, Alt.=105.104553m. Speed=10.152000m/h.</desc>
<speed>2.820000</speed>
</trkpt>
<trkpt lat="55.913578" lon="26.512049">
<ele>105.817444</ele>
<time>2010-06-20T07:43:39Z</time>
<desc>lat.=55.913578, lon.=26.512049, Alt.=105.817444m. Speed=3.600000m/h.</desc>
<speed>1.000000</speed>
</trkpt>
<trkpt lat="55.913597" lon="26.512039">
<ele>106.422913</ele>
<time>2010-06-20T07:43:40Z</time>
<desc>lat.=55.913597, lon.=26.512039, Alt.=106.422913m. Speed=6.516000m/h.</desc>
<speed>1.810000</speed>
</trkpt>
<trkpt lat="55.913631" lon="26.512028">
<ele>106.971741</ele>
<time>2010-06-20T07:43:41Z</time>
<desc>lat.=55.913631, lon.=26.512028, Alt.=106.971741m. Speed=9.216000m/h.</desc>
<speed>2.560000</speed>
</trkpt>
<trkpt lat="55.913670" lon="26.511988">
<ele>107.647522</ele>
<time>2010-06-20T07:43:42Z</time>
<desc>lat.=55.913670, lon.=26.511988, Alt.=107.647522m. Speed=9.792000m/h.</desc>
<speed>2.720000</speed>
</trkpt>
<trkpt lat="55.913708" lon="26.511940">
<ele>108.204163</ele>
<time>2010-06-20T07:43:43Z</time>
<desc>lat.=55.913708, lon.=26.511940, Alt.=108.204163m. Speed=12.744000m/h.</desc>
<speed>3.540000</speed>
</trkpt>
<trkpt lat="55.913738" lon="26.511900">
<ele>108.833069</ele>
<time>2010-06-20T07:43:44Z</time>
<desc>lat.=55.913738, lon.=26.511900, Alt.=108.833069m. Speed=11.484000m/h.</desc>
<speed>3.190000</speed>
</trkpt>
<trkpt lat="55.913761" lon="26.511862">
<ele>109.483459</ele>
<time>2010-06-20T07:43:45Z</time>
<desc>lat.=55.913761, lon.=26.511862, Alt.=109.483459m. Speed=8.208000m/h.</desc>
<speed>2.280000</speed>
</trkpt>
<trkpt lat="55.913795" lon="26.511854">
<ele>110.083069</ele>
<time>2010-06-20T07:43:46Z</time>
<desc>lat.=55.913795, lon.=26.511854, Alt.=110.083069m. Speed=5.796000m/h.</desc>
<speed>1.610000</speed>
</trkpt>
<trkpt lat="55.913815" lon="26.511833">
<ele>110.731506</ele>
<time>2010-06-20T07:43:47Z</time>
<desc>lat.=55.913815, lon.=26.511833, Alt.=110.731506m. Speed=6.480000m/h.</desc>
<speed>1.800000</speed>
</trkpt>
<trkpt lat="55.913849" lon="26.511812">
<ele>111.491272</ele>
<time>2010-06-20T07:43:48Z</time>
<desc>lat.=55.913849, lon.=26.511812, Alt.=111.491272m. Speed=7.200000m/h.</desc>
<speed>2.000000</speed>
</trkpt>
<trkpt lat="55.913868" lon="26.511782">
<ele>112.057678</ele>
<time>2010-06-20T07:43:49Z</time>
<desc>lat.=55.913868, lon.=26.511782, Alt.=112.057678m. Speed=7.632000m/h.</desc>
<speed>2.120000</speed>
</trkpt>
<trkpt lat="55.913876" lon="26.511742">
<ele>112.596741</ele>
<time>2010-06-20T07:43:50Z</time>
<desc>lat.=55.913876, lon.=26.511742, Alt.=112.596741m. Speed=7.488000m/h.</desc>
<speed>2.080000</speed>
</trkpt>
<trkpt lat="55.913891" lon="26.511700">
<ele>113.057678</ele>
<time>2010-06-20T07:43:51Z</time>
<desc>lat.=55.913891, lon.=26.511700, Alt.=113.057678m. Speed=8.064000m/h.</desc>
<speed>2.240000</speed>
</trkpt>
<trkpt lat="55.913902" lon="26.511656">
<ele>113.710022</ele>
<time>2010-06-20T07:43:52Z</time>
<desc>lat.=55.913902, lon.=26.511656, Alt.=113.710022m. Speed=7.776000m/h.</desc>
<speed>2.160000</speed>
</trkpt>
<trkpt lat="55.913914" lon="26.511618">
<ele>114.434631</ele>
<time>2010-06-20T07:43:53Z</time>
<desc>lat.=55.913914, lon.=26.511618, Alt.=114.434631m. Speed=5.220000m/h.</desc>
<speed>1.450000</speed>
</trkpt>
<trkpt lat="55.913921" lon="26.511581">
<ele>115.088928</ele>
<time>2010-06-20T07:43:54Z</time>
<desc>lat.=55.913921, lon.=26.511581, Alt.=115.088928m. Speed=5.652000m/h.</desc>
<speed>1.570000</speed>
</trkpt>
<trkpt lat="55.913925" lon="26.511541">
<ele>115.663147</ele>
<time>2010-06-20T07:43:55Z</time>
<desc>lat.=55.913925, lon.=26.511541, Alt.=115.663147m. Speed=5.976000m/h.</desc>
<speed>1.660000</speed>
</trkpt>
<trkpt lat="55.913929" lon="26.511513">
<ele>116.290100</ele>
<time>2010-06-20T07:43:56Z</time>
<desc>lat.=55.913929, lon.=26.511513, Alt.=116.290100m. Speed=5.040000m/h.</desc>
<speed>1.400000</speed>
</trkpt>
<trkpt lat="55.913952" lon="26.511469">
<ele>116.911194</ele>
<time>2010-06-20T07:43:57Z</time>
<desc>lat.=55.913952, lon.=26.511469, Alt.=116.911194m. Speed=7.056000m/h.</desc>
<speed>1.960000</speed>
</trkpt>
<trkpt lat="55.913971" lon="26.511415">
<ele>117.614319</ele>
<time>2010-06-20T07:43:58Z</time>
<desc>lat.=55.913971, lon.=26.511415, Alt.=117.614319m. Speed=8.244000m/h.</desc>
<speed>2.290000</speed>
</trkpt>
<trkpt lat="55.913979" lon="26.511374">
<ele>118.321350</ele>
<time>2010-06-20T07:43:59Z</time>
<desc>lat.=55.913979, lon.=26.511374, Alt.=118.321350m. Speed=7.236000m/h.</desc>
<speed>2.010000</speed>
</trkpt>
<trkpt lat="55.914009" lon="26.511320">
<ele>118.971741</ele>
<time>2010-06-20T07:44:00Z</time>
<desc>lat.=55.914009, lon.=26.511320, Alt.=118.971741m. Speed=7.380000m/h.</desc>
<speed>2.050000</speed>
</trkpt>
<trkpt lat="55.914043" lon="26.511253">
<ele>119.770569</ele>
<time>2010-06-20T07:44:01Z</time>
<desc>lat.=55.914043, lon.=26.511253, Alt.=119.770569m. Speed=7.776000m/h.</desc>
<speed>2.160000</speed>
</trkpt>
<trkpt lat="55.914104" lon="26.511166">
<ele>120.299866</ele>
<time>2010-06-20T07:44:02Z</time>
<desc>lat.=55.914104, lon.=26.511166, Alt.=120.299866m. Speed=9.072000m/h.</desc>
<speed>2.520000</speed>
</trkpt>
<trkpt lat="55.914131" lon="26.511103">
<ele>120.965881</ele>
<time>2010-06-20T07:44:03Z</time>
<desc>lat.=55.914131, lon.=26.511103, Alt.=120.965881m. Speed=7.992000m/h.</desc>
<speed>2.220000</speed>
</trkpt>
<trkpt lat="55.914150" lon="26.511051">
<ele>121.612366</ele>
<time>2010-06-20T07:44:04Z</time>
<desc>lat.=55.914150, lon.=26.511051, Alt.=121.612366m. Speed=9.072000m/h.</desc>
<speed>2.520000</speed>
</trkpt>
<trkpt lat="55.914173" lon="26.510996">
<ele>122.243225</ele>
<time>2010-06-20T07:44:05Z</time>
<desc>lat.=55.914173, lon.=26.510996, Alt.=122.243225m. Speed=5.328000m/h.</desc>
<speed>1.480000</speed>
</trkpt>
<trkpt lat="55.914188" lon="26.510956">
<ele>122.694397</ele>
<time>2010-06-20T07:44:06Z</time>
<desc>lat.=55.914188, lon.=26.510956, Alt.=122.694397m. Speed=6.768000m/h.</desc>
<speed>1.880000</speed>
</trkpt>
<trkpt lat="55.914215" lon="26.510914">
<ele>123.333069</ele>
<time>2010-06-20T07:44:07Z</time>
<desc>lat.=55.914215, lon.=26.510914, Alt.=123.333069m. Speed=8.928000m/h.</desc>
<speed>2.480000</speed>
</trkpt>
<trkpt lat="55.914227" lon="26.510872">
<ele>123.881897</ele>
<time>2010-06-20T07:44:08Z</time>
<desc>lat.=55.914227, lon.=26.510872, Alt.=123.881897m. Speed=7.272000m/h.</desc>
<speed>2.020000</speed>
</trkpt>
<trkpt lat="55.914246" lon="26.510818">
<ele>124.844788</ele>
<time>2010-06-20T07:44:09Z</time>
<desc>lat.=55.914246, lon.=26.510818, Alt.=124.844788m. Speed=8.676000m/h.</desc>
<speed>2.410000</speed>
</trkpt>
<trkpt lat="55.914284" lon="26.510794">
<ele>125.139709</ele>
<time>2010-06-20T07:44:10Z</time>
<desc>lat.=55.914284, lon.=26.510794, Alt.=125.139709m. Speed=8.820000m/h.</desc>
<speed>2.450000</speed>
</trkpt>
<trkpt lat="55.914303" lon="26.510767">
<ele>125.672913</ele>
<time>2010-06-20T07:44:11Z</time>
<desc>lat.=55.914303, lon.=26.510767, Alt.=125.672913m. Speed=6.876000m/h.</desc>
<speed>1.910000</speed>
</trkpt>
<trkpt lat="55.914314" lon="26.510750">
<ele>126.294006</ele>
<time>2010-06-20T07:44:12Z</time>
<desc>lat.=55.914314, lon.=26.510750, Alt.=126.294006m. Speed=5.184000m/h.</desc>
<speed>1.440000</speed>
</trkpt>
<trkpt lat="55.914330" lon="26.510729">
<ele>126.971741</ele>
<time>2010-06-20T07:44:13Z</time>
<desc>lat.=55.914330, lon.=26.510729, Alt.=126.971741m. Speed=6.876000m/h.</desc>
<speed>1.910000</speed>
</trkpt>
<trkpt lat="55.914337" lon="26.510714">
<ele>127.745178</ele>
<time>2010-06-20T07:44:14Z</time>
<desc>lat.=55.914337, lon.=26.510714, Alt.=127.745178m. Speed=4.752000m/h.</desc>
<speed>1.320000</speed>
</trkpt>
<trkpt lat="55.914368" lon="26.510704">
<ele>128.263794</ele>
<time>2010-06-20T07:44:15Z</time>
<desc>lat.=55.914368, lon.=26.510704, Alt.=128.263794m. Speed=4.860000m/h.</desc>
<speed>1.350000</speed>
</trkpt>
<trkpt lat="55.914394" lon="26.510683">
<ele>128.427856</ele>
<time>2010-06-20T07:44:16Z</time>
<desc>lat.=55.914394, lon.=26.510683, Alt.=128.427856m. Speed=6.876000m/h.</desc>
<speed>1.910000</speed>
</trkpt>
<trkpt lat="55.914410" lon="26.510664">
<ele>128.994263</ele>
<time>2010-06-20T07:44:17Z</time>
<desc>lat.=55.914410, lon.=26.510664, Alt.=128.994263m. Speed=6.516000m/h.</desc>
<speed>1.810000</speed>
</trkpt>
<trkpt lat="55.914429" lon="26.510643">
<ele>129.060669</ele>
<time>2010-06-20T07:44:18Z</time>
<desc>lat.=55.914429, lon.=26.510643, Alt.=129.060669m. Speed=5.724000m/h.</desc>
<speed>1.590000</speed>
</trkpt>
<trkpt lat="55.914440" lon="26.510614">
<ele>128.580200</ele>
<time>2010-06-20T07:44:19Z</time>
<desc>lat.=55.914440, lon.=26.510614, Alt.=128.580200m. Speed=5.508000m/h.</desc>
<speed>1.530000</speed>
</trkpt>
<trkpt lat="55.914455" lon="26.510548">
<ele>127.852600</ele>
<time>2010-06-20T07:44:20Z</time>
<desc>lat.=55.914455, lon.=26.510548, Alt.=127.852600m. Speed=7.884000m/h.</desc>
<speed>2.190000</speed>
</trkpt>
<trkpt lat="55.914471" lon="26.510521">
<ele>127.973694</ele>
<time>2010-06-20T07:44:21Z</time>
<desc>lat.=55.914471, lon.=26.510521, Alt.=127.973694m. Speed=6.408000m/h.</desc>
<speed>1.780000</speed>
</trkpt>
<trkpt lat="55.914486" lon="26.510498">
<ele>128.271606</ele>
<time>2010-06-20T07:44:22Z</time>
<desc>lat.=55.914486, lon.=26.510498, Alt.=128.271606m. Speed=6.552000m/h.</desc>
<speed>1.820000</speed>
</trkpt>
<trkpt lat="55.914497" lon="26.510473">
<ele>128.599731</ele>
<time>2010-06-20T07:44:23Z</time>
<desc>lat.=55.914497, lon.=26.510473, Alt.=128.599731m. Speed=5.328000m/h.</desc>
<speed>1.480000</speed>
</trkpt>
<trkpt lat="55.914513" lon="26.510452">
<ele>129.037231</ele>
<time>2010-06-20T07:44:24Z</time>
<desc>lat.=55.914513, lon.=26.510452, Alt.=129.037231m. Speed=4.608000m/h.</desc>
<speed>1.280000</speed>
</trkpt>
<trkpt lat="55.914528" lon="26.510429">
<ele>129.552856</ele>
<time>2010-06-20T07:44:25Z</time>
<desc>lat.=55.914528, lon.=26.510429, Alt.=129.552856m. Speed=5.508000m/h.</desc>
<speed>1.530000</speed>
</trkpt>
<trkpt lat="55.914539" lon="26.510384">
<ele>129.435669</ele>
<time>2010-06-20T07:44:26Z</time>
<desc>lat.=55.914539, lon.=26.510384, Alt.=129.435669m. Speed=5.580000m/h.</desc>
<speed>1.550000</speed>
</trkpt>
<trkpt lat="55.914551" lon="26.510366">
<ele>129.966919</ele>
<time>2010-06-20T07:44:27Z</time>
<desc>lat.=55.914551, lon.=26.510366, Alt.=129.966919m. Speed=5.292000m/h.</desc>
<speed>1.470000</speed>
</trkpt>
<trkpt lat="55.914570" lon="26.510351">
<ele>130.275513</ele>
<time>2010-06-20T07:44:28Z</time>
<desc>lat.=55.914570, lon.=26.510351, Alt.=130.275513m. Speed=4.464000m/h.</desc>
<speed>1.240000</speed>
</trkpt>
<trkpt lat="55.914593" lon="26.510338">
<ele>130.255981</ele>
<time>2010-06-20T07:44:29Z</time>
<desc>lat.=55.914593, lon.=26.510338, Alt.=130.255981m. Speed=4.932000m/h.</desc>
<speed>1.370000</speed>
</trkpt>
<trkpt lat="55.914619" lon="26.510309">
<ele>130.853638</ele>
<time>2010-06-20T07:44:30Z</time>
<desc>lat.=55.914619, lon.=26.510309, Alt.=130.853638m. Speed=6.588000m/h.</desc>
<speed>1.830000</speed>
</trkpt>
<trkpt lat="55.914642" lon="26.510288">
<ele>131.252075</ele>
<time>2010-06-20T07:44:31Z</time>
<desc>lat.=55.914642, lon.=26.510288, Alt.=131.252075m. Speed=7.092000m/h.</desc>
<speed>1.970000</speed>
</trkpt>
<trkpt lat="55.914669" lon="26.510256">
<ele>131.818481</ele>
<time>2010-06-20T07:44:32Z</time>
<desc>lat.=55.914669, lon.=26.510256, Alt.=131.818481m. Speed=6.876000m/h.</desc>
<speed>1.910000</speed>
</trkpt>
<trkpt lat="55.914707" lon="26.510204">
<ele>132.302856</ele>
<time>2010-06-20T07:44:33Z</time>
<desc>lat.=55.914707, lon.=26.510204, Alt.=132.302856m. Speed=8.388000m/h.</desc>
<speed>2.330000</speed>
</trkpt>
<trkpt lat="55.914722" lon="26.510183">
<ele>132.673950</ele>
<time>2010-06-20T07:44:34Z</time>
<desc>lat.=55.914722, lon.=26.510183, Alt.=132.673950m. Speed=5.832000m/h.</desc>
<speed>1.620000</speed>
</trkpt>
<trkpt lat="55.914742" lon="26.510155">
<ele>133.213013</ele>
<time>2010-06-20T07:44:35Z</time>
<desc>lat.=55.914742, lon.=26.510155, Alt.=133.213013m. Speed=6.444000m/h.</desc>
<speed>1.790000</speed>
</trkpt>
<trkpt lat="55.914757" lon="26.510139">
<ele>133.584106</ele>
<time>2010-06-20T07:44:36Z</time>
<desc>lat.=55.914757, lon.=26.510139, Alt.=133.584106m. Speed=4.320000m/h.</desc>
<speed>1.200000</speed>
</trkpt>
<trkpt lat="55.914780" lon="26.510109">
<ele>133.728638</ele>
<time>2010-06-20T07:44:37Z</time>
<desc>lat.=55.914780, lon.=26.510109, Alt.=133.728638m. Speed=8.208000m/h.</desc>
<speed>2.280000</speed>
</trkpt>
<trkpt lat="55.914806" lon="26.510080">
<ele>132.818481</ele>
<time>2010-06-20T07:44:38Z</time>
<desc>lat.=55.914806, lon.=26.510080, Alt.=132.818481m. Speed=8.172000m/h.</desc>
<speed>2.270000</speed>
</trkpt>
<trkpt lat="55.914852" lon="26.510012">
<ele>133.029419</ele>
<time>2010-06-20T07:44:39Z</time>
<desc>lat.=55.914852, lon.=26.510012, Alt.=133.029419m. Speed=8.568000m/h.</desc>
<speed>2.380000</speed>
</trkpt>
<trkpt lat="55.914875" lon="26.509970">
<ele>133.564575</ele>
<time>2010-06-20T07:44:40Z</time>
<desc>lat.=55.914875, lon.=26.509970, Alt.=133.564575m. Speed=7.704000m/h.</desc>
<speed>2.140000</speed>
</trkpt>
<trkpt lat="55.914886" lon="26.509937">
<ele>133.818481</ele>
<time>2010-06-20T07:44:41Z</time>
<desc>lat.=55.914886, lon.=26.509937, Alt.=133.818481m. Speed=7.956000m/h.</desc>
<speed>2.210000</speed>
</trkpt>
<trkpt lat="55.914917" lon="26.509901">
<ele>134.181763</ele>
<time>2010-06-20T07:44:42Z</time>
<desc>lat.=55.914917, lon.=26.509901, Alt.=134.181763m. Speed=10.944000m/h.</desc>
<speed>3.040000</speed>
</trkpt>
<trkpt lat="55.914940" lon="26.509855">
<ele>133.912231</ele>
<time>2010-06-20T07:44:43Z</time>
<desc>lat.=55.914940, lon.=26.509855, Alt.=133.912231m. Speed=11.052000m/h.</desc>
<speed>3.070000</speed>
</trkpt>
<trkpt lat="55.914963" lon="26.509823">
<ele>134.072388</ele>
<time>2010-06-20T07:44:44Z</time>
<desc>lat.=55.914963, lon.=26.509823, Alt.=134.072388m. Speed=9.756000m/h.</desc>
<speed>2.710000</speed>
</trkpt>
<trkpt lat="55.914993" lon="26.509789">
<ele>133.720825</ele>
<time>2010-06-20T07:44:45Z</time>
<desc>lat.=55.914993, lon.=26.509789, Alt.=133.720825m. Speed=11.520000m/h.</desc>
<speed>3.200000</speed>
</trkpt>
<trkpt lat="55.915016" lon="26.509739">
<ele>132.966919</ele>
<time>2010-06-20T07:44:46Z</time>
<desc>lat.=55.915016, lon.=26.509739, Alt.=132.966919m. Speed=10.908000m/h.</desc>
<speed>3.030000</speed>
</trkpt>
<trkpt lat="55.915043" lon="26.509708">
<ele>132.103638</ele>
<time>2010-06-20T07:44:47Z</time>
<desc>lat.=55.915043, lon.=26.509708, Alt.=132.103638m. Speed=8.640000m/h.</desc>
<speed>2.400000</speed>
</trkpt>
<trkpt lat="55.915066" lon="26.509680">
<ele>132.060669</ele>
<time>2010-06-20T07:44:48Z</time>
<desc>lat.=55.915066, lon.=26.509680, Alt.=132.060669m. Speed=9.936000m/h.</desc>
<speed>2.760000</speed>
</trkpt>
<trkpt lat="55.915092" lon="26.509657">
<ele>131.666138</ele>
<time>2010-06-20T07:44:49Z</time>
<desc>lat.=55.915092, lon.=26.509657, Alt.=131.666138m. Speed=10.908000m/h.</desc>
<speed>3.030000</speed>
</trkpt>
<trkpt lat="55.915119" lon="26.509619">
<ele>131.580200</ele>
<time>2010-06-20T07:44:50Z</time>
<desc>lat.=55.915119, lon.=26.509619, Alt.=131.580200m. Speed=11.880000m/h.</desc>
<speed>3.300000</speed>
</trkpt>
<trkpt lat="55.915142" lon="26.509586">
<ele>131.537231</ele>
<time>2010-06-20T07:44:51Z</time>
<desc>lat.=55.915142, lon.=26.509586, Alt.=131.537231m. Speed=10.764000m/h.</desc>
<speed>2.990000</speed>
</trkpt>
<trkpt lat="55.915165" lon="26.509554">
<ele>131.658325</ele>
<time>2010-06-20T07:44:52Z</time>
<desc>lat.=55.915165, lon.=26.509554, Alt.=131.658325m. Speed=10.836000m/h.</desc>
<speed>3.010000</speed>
</trkpt>
<trkpt lat="55.915184" lon="26.509523">
<ele>131.556763</ele>
<time>2010-06-20T07:44:53Z</time>
<desc>lat.=55.915184, lon.=26.509523, Alt.=131.556763m. Speed=8.784000m/h.</desc>
<speed>2.440000</speed>
</trkpt>
<trkpt lat="55.915207" lon="26.509499">
<ele>131.568481</ele>
<time>2010-06-20T07:44:54Z</time>
<desc>lat.=55.915207, lon.=26.509499, Alt.=131.568481m. Speed=7.380000m/h.</desc>
<speed>2.050000</speed>
</trkpt>
<trkpt lat="55.915241" lon="26.509497">
<ele>131.431763</ele>
<time>2010-06-20T07:44:55Z</time>
<desc>lat.=55.915241, lon.=26.509497, Alt.=131.431763m. Speed=8.532000m/h.</desc>
<speed>2.370000</speed>
</trkpt>
<trkpt lat="55.915283" lon="26.509441">
<ele>132.033325</ele>
<time>2010-06-20T07:44:56Z</time>
<desc>lat.=55.915283, lon.=26.509441, Alt.=132.033325m. Speed=10.836000m/h.</desc>
<speed>3.010000</speed>
</trkpt>
<trkpt lat="55.915318" lon="26.509424">
<ele>131.810669</ele>
<time>2010-06-20T07:44:57Z</time>
<desc>lat.=55.915318, lon.=26.509424, Alt.=131.810669m. Speed=9.540000m/h.</desc>
<speed>2.650000</speed>
</trkpt>
<trkpt lat="55.915340" lon="26.509398">
<ele>131.818481</ele>
<time>2010-06-20T07:44:58Z</time>
<desc>lat.=55.915340, lon.=26.509398, Alt.=131.818481m. Speed=7.236000m/h.</desc>
<speed>2.010000</speed>
</trkpt>
<trkpt lat="55.915367" lon="26.509377">
<ele>131.693481</ele>
<time>2010-06-20T07:44:59Z</time>
<desc>lat.=55.915367, lon.=26.509377, Alt.=131.693481m. Speed=7.056000m/h.</desc>
<speed>1.960000</speed>
</trkpt>
<trkpt lat="55.915398" lon="26.509342">
<ele>131.412231</ele>
<time>2010-06-20T07:45:00Z</time>
<desc>lat.=55.915398, lon.=26.509342, Alt.=131.412231m. Speed=7.488000m/h.</desc>
<speed>2.080000</speed>
</trkpt>
<trkpt lat="55.915413" lon="26.509317">
<ele>131.423950</ele>
<time>2010-06-20T07:45:01Z</time>
<desc>lat.=55.915413, lon.=26.509317, Alt.=131.423950m. Speed=6.552000m/h.</desc>
<speed>1.820000</speed>
</trkpt>
<trkpt lat="55.915424" lon="26.509291">
<ele>131.099731</ele>
<time>2010-06-20T07:45:02Z</time>
<desc>lat.=55.915424, lon.=26.509291, Alt.=131.099731m. Speed=5.976000m/h.</desc>
<speed>1.660000</speed>
</trkpt>
<trkpt lat="55.915440" lon="26.509274">
<ele>130.666138</ele>
<time>2010-06-20T07:45:03Z</time>
<desc>lat.=55.915440, lon.=26.509274, Alt.=130.666138m. Speed=4.176000m/h.</desc>
<speed>1.160000</speed>
</trkpt>
<trkpt lat="55.915459" lon="26.509270">
<ele>130.490356</ele>
<time>2010-06-20T07:45:04Z</time>
<desc>lat.=55.915459, lon.=26.509270, Alt.=130.490356m. Speed=7.488000m/h.</desc>
<speed>2.080000</speed>
</trkpt>
<trkpt lat="55.915482" lon="26.509256">
<ele>130.771606</ele>
<time>2010-06-20T07:45:05Z</time>
<desc>lat.=55.915482, lon.=26.509256, Alt.=130.771606m. Speed=6.012000m/h.</desc>
<speed>1.670000</speed>
</trkpt>
<trkpt lat="55.915504" lon="26.509226">
<ele>131.080200</ele>
<time>2010-06-20T07:45:06Z</time>
<desc>lat.=55.915504, lon.=26.509226, Alt.=131.080200m. Speed=6.336000m/h.</desc>
<speed>1.760000</speed>
</trkpt>
<trkpt lat="55.915531" lon="26.509186">
<ele>130.947388</ele>
<time>2010-06-20T07:45:07Z</time>
<desc>lat.=55.915531, lon.=26.509186, Alt.=130.947388m. Speed=8.244000m/h.</desc>
<speed>2.290000</speed>
</trkpt>
<trkpt lat="55.915577" lon="26.509111">
<ele>130.974731</ele>
<time>2010-06-20T07:45:08Z</time>
<desc>lat.=55.915577, lon.=26.509111, Alt.=130.974731m. Speed=8.856000m/h.</desc>
<speed>2.460000</speed>
</trkpt>
<trkpt lat="55.915592" lon="26.509083">
<ele>131.158325</ele>
<time>2010-06-20T07:45:09Z</time>
<desc>lat.=55.915592, lon.=26.509083, Alt.=131.158325m. Speed=7.632000m/h.</desc>
<speed>2.120000</speed>
</trkpt>
<trkpt lat="55.915630" lon="26.509029">
<ele>131.392700</ele>
<time>2010-06-20T07:45:10Z</time>
<desc>lat.=55.915630, lon.=26.509029, Alt.=131.392700m. Speed=9.720000m/h.</desc>
<speed>2.700000</speed>
</trkpt>
<trkpt lat="55.915672" lon="26.508978">
<ele>131.513794</ele>
<time>2010-06-20T07:45:11Z</time>
<desc>lat.=55.915672, lon.=26.508978, Alt.=131.513794m. Speed=10.116000m/h.</desc>
<speed>2.810000</speed>
</trkpt>
<trkpt lat="55.915695" lon="26.508953">
<ele>131.744263</ele>
<time>2010-06-20T07:45:12Z</time>
<desc>lat.=55.915695, lon.=26.508953, Alt.=131.744263m. Speed=7.488000m/h.</desc>
<speed>2.080000</speed>
</trkpt>
<trkpt lat="55.915730" lon="26.508900">
<ele>132.048950</ele>
<time>2010-06-20T07:45:13Z</time>
<desc>lat.=55.915730, lon.=26.508900, Alt.=132.048950m. Speed=14.220000m/h.</desc>
<speed>3.950000</speed>
</trkpt>
<trkpt lat="55.915783" lon="26.508827">
<ele>132.439575</ele>
<time>2010-06-20T07:45:14Z</time>
<desc>lat.=55.915783, lon.=26.508827, Alt.=132.439575m. Speed=17.063999m/h.</desc>
<speed>4.740000</speed>
</trkpt>
<trkpt lat="55.915825" lon="26.508766">
<ele>132.556763</ele>
<time>2010-06-20T07:45:15Z</time>
<desc>lat.=55.915825, lon.=26.508766, Alt.=132.556763m. Speed=19.152000m/h.</desc>
<speed>5.320000</speed>
</trkpt>
<trkpt lat="55.915878" lon="26.508705">
<ele>131.755981</ele>
<time>2010-06-20T07:45:16Z</time>
<desc>lat.=55.915878, lon.=26.508705, Alt.=131.755981m. Speed=16.020000m/h.</desc>
<speed>4.450000</speed>
</trkpt>
<trkpt lat="55.915913" lon="26.508652">
<ele>131.943481</ele>
<time>2010-06-20T07:45:17Z</time>
<desc>lat.=55.915913, lon.=26.508652, Alt.=131.943481m. Speed=16.884001m/h.</desc>
<speed>4.690000</speed>
</trkpt>
<trkpt lat="55.915943" lon="26.508612">
<ele>132.302856</ele>
<time>2010-06-20T07:45:18Z</time>
<desc>lat.=55.915943, lon.=26.508612, Alt.=132.302856m. Speed=12.348000m/h.</desc>
<speed>3.430000</speed>
</trkpt>
<trkpt lat="55.915958" lon="26.508556">
<ele>130.755981</ele>
<time>2010-06-20T07:45:19Z</time>
<desc>lat.=55.915958, lon.=26.508556, Alt.=130.755981m. Speed=9.360000m/h.</desc>
<speed>2.600000</speed>
</trkpt>
<trkpt lat="55.915977" lon="26.508516">
<ele>130.259888</ele>
<time>2010-06-20T07:45:20Z</time>
<desc>lat.=55.915977, lon.=26.508516, Alt.=130.259888m. Speed=10.116000m/h.</desc>
<speed>2.810000</speed>
</trkpt>
<trkpt lat="55.916000" lon="26.508484">
<ele>128.892700</ele>
<time>2010-06-20T07:45:21Z</time>
<desc>lat.=55.916000, lon.=26.508484, Alt.=128.892700m. Speed=8.568000m/h.</desc>
<speed>2.380000</speed>
</trkpt>
<trkpt lat="55.916016" lon="26.508463">
<ele>128.677856</ele>
<time>2010-06-20T07:45:22Z</time>
<desc>lat.=55.916016, lon.=26.508463, Alt.=128.677856m. Speed=7.092000m/h.</desc>
<speed>1.970000</speed>
</trkpt>
<trkpt lat="55.916031" lon="26.508432">
<ele>126.624084</ele>
<time>2010-06-20T07:45:23Z</time>
<desc>lat.=55.916031, lon.=26.508432, Alt.=126.624084m. Speed=4.932000m/h.</desc>
<speed>1.370000</speed>
</trkpt>
<trkpt lat="55.916046" lon="26.508383">
<ele>126.729553</ele>
<time>2010-06-20T07:45:24Z</time>
<desc>lat.=55.916046, lon.=26.508383, Alt.=126.729553m. Speed=7.488000m/h.</desc>
<speed>2.080000</speed>
</trkpt>
<trkpt lat="55.916061" lon="26.508362">
<ele>126.670959</ele>
<time>2010-06-20T07:45:25Z</time>
<desc>lat.=55.916061, lon.=26.508362, Alt.=126.670959m. Speed=6.048000m/h.</desc>
<speed>1.680000</speed>
</trkpt>
<trkpt lat="55.916119" lon="26.508312">
<ele>125.815491</ele>
<time>2010-06-20T07:45:26Z</time>
<desc>lat.=55.916119, lon.=26.508312, Alt.=125.815491m. Speed=10.440000m/h.</desc>
<speed>2.900000</speed>
</trkpt>
<trkpt lat="55.916153" lon="26.508270">
<ele>125.762756</ele>
<time>2010-06-20T07:45:27Z</time>
<desc>lat.=55.916153, lon.=26.508270, Alt.=125.762756m. Speed=9.540000m/h.</desc>
<speed>2.650000</speed>
</trkpt>
<trkpt lat="55.916191" lon="26.508232">
<ele>126.059631</ele>
<time>2010-06-20T07:45:28Z</time>
<desc>lat.=55.916191, lon.=26.508232, Alt.=126.059631m. Speed=10.296000m/h.</desc>
<speed>2.860000</speed>
</trkpt>
<trkpt lat="55.916222" lon="26.508198">
<ele>125.922913</ele>
<time>2010-06-20T07:45:29Z</time>
<desc>lat.=55.916222, lon.=26.508198, Alt.=125.922913m. Speed=10.764000m/h.</desc>
<speed>2.990000</speed>
</trkpt>
<trkpt lat="55.916248" lon="26.508175">
<ele>125.555725</ele>
<time>2010-06-20T07:45:30Z</time>
<desc>lat.=55.916248, lon.=26.508175, Alt.=125.555725m. Speed=8.208000m/h.</desc>
<speed>2.280000</speed>
</trkpt>
<trkpt lat="55.916275" lon="26.508156">
<ele>124.942444</ele>
<time>2010-06-20T07:45:31Z</time>
<desc>lat.=55.916275, lon.=26.508156, Alt.=124.942444m. Speed=8.388000m/h.</desc>
<speed>2.330000</speed>
</trkpt>
<trkpt lat="55.916306" lon="26.508133">
<ele>124.536194</ele>
<time>2010-06-20T07:45:32Z</time>
<desc>lat.=55.916306, lon.=26.508133, Alt.=124.536194m. Speed=7.560000m/h.</desc>
<speed>2.100000</speed>
</trkpt>
<trkpt lat="55.916332" lon="26.508108">
<ele>124.665100</ele>
<time>2010-06-20T07:45:33Z</time>
<desc>lat.=55.916332, lon.=26.508108, Alt.=124.665100m. Speed=9.144000m/h.</desc>
<speed>2.540000</speed>
</trkpt>
<trkpt lat="55.916363" lon="26.508066">
<ele>124.294006</ele>
<time>2010-06-20T07:45:34Z</time>
<desc>lat.=55.916363, lon.=26.508066, Alt.=124.294006m. Speed=6.732000m/h.</desc>
<speed>1.870000</speed>
</trkpt>
<trkpt lat="55.916382" lon="26.508045">
<ele>124.169006</ele>
<time>2010-06-20T07:45:35Z</time>
<desc>lat.=55.916382, lon.=26.508045, Alt.=124.169006m. Speed=8.028000m/h.</desc>
<speed>2.230000</speed>
</trkpt>
<trkpt lat="55.916420" lon="26.508038">
<ele>121.581116</ele>
<time>2010-06-20T07:45:36Z</time>
<desc>lat.=55.916420, lon.=26.508038, Alt.=121.581116m. Speed=6.876000m/h.</desc>
<speed>1.910000</speed>
</trkpt>
<trkpt lat="55.916451" lon="26.508032">
<ele>119.899475</ele>
<time>2010-06-20T07:45:37Z</time>
<desc>lat.=55.916451, lon.=26.508032, Alt.=119.899475m. Speed=8.496000m/h.</desc>
<speed>2.360000</speed>
</trkpt>
<trkpt lat="55.916485" lon="26.508034">
<ele>118.448303</ele>
<time>2010-06-20T07:45:38Z</time>
<desc>lat.=55.916485, lon.=26.508034, Alt.=118.448303m. Speed=7.740000m/h.</desc>
<speed>2.150000</speed>
</trkpt>
<trkpt lat="55.916508" lon="26.508018">
<ele>117.297913</ele>
<time>2010-06-20T07:45:39Z</time>
<desc>lat.=55.916508, lon.=26.508018, Alt.=117.297913m. Speed=6.588000m/h.</desc>
<speed>1.830000</speed>
</trkpt>
<trkpt lat="55.916531" lon="26.507992">
<ele>117.479553</ele>
<time>2010-06-20T07:45:40Z</time>
<desc>lat.=55.916531, lon.=26.507992, Alt.=117.479553m. Speed=6.732000m/h.</desc>
<speed>1.870000</speed>
</trkpt>
<trkpt lat="55.916561" lon="26.507978">
<ele>116.631897</ele>
<time>2010-06-20T07:45:41Z</time>
<desc>lat.=55.916561, lon.=26.507978, Alt.=116.631897m. Speed=5.040000m/h.</desc>
<speed>1.400000</speed>
</trkpt>
<trkpt lat="55.916584" lon="26.507954">
<ele>114.864319</ele>
<time>2010-06-20T07:45:42Z</time>
<desc>lat.=55.916584, lon.=26.507954, Alt.=114.864319m. Speed=5.868000m/h.</desc>
<speed>1.630000</speed>
</trkpt>
<trkpt lat="55.916630" lon="26.507896">
<ele>114.743225</ele>
<time>2010-06-20T07:45:43Z</time>
<desc>lat.=55.916630, lon.=26.507896, Alt.=114.743225m. Speed=7.056000m/h.</desc>
<speed>1.960000</speed>
</trkpt>
<trkpt lat="55.916653" lon="26.507877">
<ele>114.637756</ele>
<time>2010-06-20T07:45:44Z</time>
<desc>lat.=55.916653, lon.=26.507877, Alt.=114.637756m. Speed=6.588000m/h.</desc>
<speed>1.830000</speed>
</trkpt>
<trkpt lat="55.916691" lon="26.507826">
<ele>114.467834</ele>
<time>2010-06-20T07:45:45Z</time>
<desc>lat.=55.916691, lon.=26.507826, Alt.=114.467834m. Speed=8.532000m/h.</desc>
<speed>2.370000</speed>
</trkpt>
<trkpt lat="55.916725" lon="26.507816">
<ele>114.202209</ele>
<time>2010-06-20T07:45:46Z</time>
<desc>lat.=55.916725, lon.=26.507816, Alt.=114.202209m. Speed=6.264000m/h.</desc>
<speed>1.740000</speed>
</trkpt>
<trkpt lat="55.916744" lon="26.507799">
<ele>114.051819</ele>
<time>2010-06-20T07:45:47Z</time>
<desc>lat.=55.916744, lon.=26.507799, Alt.=114.051819m. Speed=5.184000m/h.</desc>
<speed>1.440000</speed>
</trkpt>
<trkpt lat="55.916763" lon="26.507776">
<ele>113.512756</ele>
<time>2010-06-20T07:45:48Z</time>
<desc>lat.=55.916763, lon.=26.507776, Alt.=113.512756m. Speed=5.940000m/h.</desc>
<speed>1.650000</speed>
</trkpt>
<trkpt lat="55.916786" lon="26.507746">
<ele>113.295959</ele>
<time>2010-06-20T07:45:49Z</time>
<desc>lat.=55.916786, lon.=26.507746, Alt.=113.295959m. Speed=5.616000m/h.</desc>
<speed>1.560000</speed>
</trkpt>
<trkpt lat="55.916813" lon="26.507710">
<ele>112.887756</ele>
<time>2010-06-20T07:45:50Z</time>
<desc>lat.=55.916813, lon.=26.507710, Alt.=112.887756m. Speed=6.192000m/h.</desc>
<speed>1.720000</speed>
</trkpt>
<trkpt lat="55.916847" lon="26.507687">
<ele>112.071350</ele>
<time>2010-06-20T07:45:51Z</time>
<desc>lat.=55.916847, lon.=26.507687, Alt.=112.071350m. Speed=6.444000m/h.</desc>
<speed>1.790000</speed>
</trkpt>
<trkpt lat="55.916870" lon="26.507658">
<ele>111.657288</ele>
<time>2010-06-20T07:45:52Z</time>
<desc>lat.=55.916870, lon.=26.507658, Alt.=111.657288m. Speed=6.624000m/h.</desc>
<speed>1.840000</speed>
</trkpt>
<trkpt lat="55.916901" lon="26.507624">
<ele>110.204163</ele>
<time>2010-06-20T07:45:53Z</time>
<desc>lat.=55.916901, lon.=26.507624, Alt.=110.204163m. Speed=7.200000m/h.</desc>
<speed>2.000000</speed>
</trkpt>
<trkpt lat="55.916939" lon="26.507570">
<ele>109.862366</ele>
<time>2010-06-20T07:45:54Z</time>
<desc>lat.=55.916939, lon.=26.507570, Alt.=109.862366m. Speed=5.472000m/h.</desc>
<speed>1.520000</speed>
</trkpt>
<trkpt lat="55.916977" lon="26.507565">
<ele>110.729553</ele>
<time>2010-06-20T07:45:55Z</time>
<desc>lat.=55.916977, lon.=26.507565, Alt.=110.729553m. Speed=7.524000m/h.</desc>
<speed>2.090000</speed>
</trkpt>
<trkpt lat="55.917000" lon="26.507553">
<ele>110.883850</ele>
<time>2010-06-20T07:45:56Z</time>
<desc>lat.=55.917000, lon.=26.507553, Alt.=110.883850m. Speed=6.444000m/h.</desc>
<speed>1.790000</speed>
</trkpt>
<trkpt lat="55.917019" lon="26.507530">
<ele>111.172913</ele>
<time>2010-06-20T07:45:57Z</time>
<desc>lat.=55.917019, lon.=26.507530, Alt.=111.172913m. Speed=8.748000m/h.</desc>
<speed>2.430000</speed>
</trkpt>
<trkpt lat="55.917042" lon="26.507498">
<ele>111.629944</ele>
<time>2010-06-20T07:45:58Z</time>
<desc>lat.=55.917042, lon.=26.507498, Alt.=111.629944m. Speed=5.112000m/h.</desc>
<speed>1.420000</speed>
</trkpt>
<trkpt lat="55.917061" lon="26.507475">
<ele>111.340881</ele>
<time>2010-06-20T07:45:59Z</time>
<desc>lat.=55.917061, lon.=26.507475, Alt.=111.340881m. Speed=6.480000m/h.</desc>
<speed>1.800000</speed>
</trkpt>
<trkpt lat="55.917080" lon="26.507458">
<ele>111.491272</ele>
<time>2010-06-20T07:46:00Z</time>
<desc>lat.=55.917080, lon.=26.507458, Alt.=111.491272m. Speed=4.212000m/h.</desc>
<speed>1.170000</speed>
</trkpt>
<trkpt lat="55.917099" lon="26.507441">
<ele>111.887756</ele>
<time>2010-06-20T07:46:01Z</time>
<desc>lat.=55.917099, lon.=26.507441, Alt.=111.887756m. Speed=4.644000m/h.</desc>
<speed>1.290000</speed>
</trkpt>
<trkpt lat="55.917118" lon="26.507397">
<ele>111.446350</ele>
<time>2010-06-20T07:46:02Z</time>
<desc>lat.=55.917118, lon.=26.507397, Alt.=111.446350m. Speed=6.120000m/h.</desc>
<speed>1.700000</speed>
</trkpt>
<trkpt lat="55.917141" lon="26.507362">
<ele>111.565491</ele>
<time>2010-06-20T07:46:03Z</time>
<desc>lat.=55.917141, lon.=26.507362, Alt.=111.565491m. Speed=6.372000m/h.</desc>
<speed>1.770000</speed>
</trkpt>
<trkpt lat="55.917164" lon="26.507345">
<ele>111.647522</ele>
<time>2010-06-20T07:46:04Z</time>
<desc>lat.=55.917164, lon.=26.507345, Alt.=111.647522m. Speed=6.840000m/h.</desc>
<speed>1.900000</speed>
</trkpt>
<trkpt lat="55.917191" lon="26.507311">
<ele>111.549866</ele>
<time>2010-06-20T07:46:05Z</time>
<desc>lat.=55.917191, lon.=26.507311, Alt.=111.549866m. Speed=7.740000m/h.</desc>
<speed>2.150000</speed>
</trkpt>
<trkpt lat="55.917221" lon="26.507278">
<ele>111.317444</ele>
<time>2010-06-20T07:46:06Z</time>
<desc>lat.=55.917221, lon.=26.507278, Alt.=111.317444m. Speed=8.928000m/h.</desc>
<speed>2.480000</speed>
</trkpt>
<trkpt lat="55.917248" lon="26.507248">
<ele>111.338928</ele>
<time>2010-06-20T07:46:07Z</time>
<desc>lat.=55.917248, lon.=26.507248, Alt.=111.338928m. Speed=7.632000m/h.</desc>
<speed>2.120000</speed>
</trkpt>
<trkpt lat="55.917290" lon="26.507195">
<ele>111.573303</ele>
<time>2010-06-20T07:46:08Z</time>
<desc>lat.=55.917290, lon.=26.507195, Alt.=111.573303m. Speed=9.324000m/h.</desc>
<speed>2.590000</speed>
</trkpt>
<trkpt lat="55.917316" lon="26.507168">
<ele>111.340881</ele>
<time>2010-06-20T07:46:09Z</time>
<desc>lat.=55.917316, lon.=26.507168, Alt.=111.340881m. Speed=9.936000m/h.</desc>
<speed>2.760000</speed>
</trkpt>
<trkpt lat="55.917358" lon="26.507130">
<ele>111.368225</ele>
<time>2010-06-20T07:46:10Z</time>
<desc>lat.=55.917358, lon.=26.507130, Alt.=111.368225m. Speed=13.248000m/h.</desc>
<speed>3.680000</speed>
</trkpt>
<trkpt lat="55.917385" lon="26.507101">
<ele>111.391663</ele>
<time>2010-06-20T07:46:11Z</time>
<desc>lat.=55.917385, lon.=26.507101, Alt.=111.391663m. Speed=14.328000m/h.</desc>
<speed>3.980000</speed>
</trkpt>
<trkpt lat="55.917439" lon="26.507050">
<ele>111.567444</ele>
<time>2010-06-20T07:46:12Z</time>
<desc>lat.=55.917439, lon.=26.507050, Alt.=111.567444m. Speed=13.608000m/h.</desc>
<speed>3.780000</speed>
</trkpt>
<trkpt lat="55.917480" lon="26.507015">
<ele>111.690491</ele>
<time>2010-06-20T07:46:13Z</time>
<desc>lat.=55.917480, lon.=26.507015, Alt.=111.690491m. Speed=12.312000m/h.</desc>
<speed>3.420000</speed>
</trkpt>
<trkpt lat="55.917534" lon="26.506975">
<ele>112.702209</ele>
<time>2010-06-20T07:46:14Z</time>
<desc>lat.=55.917534, lon.=26.506975, Alt.=112.702209m. Speed=9.324000m/h.</desc>
<speed>2.590000</speed>
</trkpt>
<trkpt lat="55.917580" lon="26.506927">
<ele>113.260803</ele>
<time>2010-06-20T07:46:15Z</time>
<desc>lat.=55.917580, lon.=26.506927, Alt.=113.260803m. Speed=9.504000m/h.</desc>
<speed>2.640000</speed>
</trkpt>
<trkpt lat="55.917610" lon="26.506893">
<ele>111.999084</ele>
<time>2010-06-20T07:46:16Z</time>
<desc>lat.=55.917610, lon.=26.506893, Alt.=111.999084m. Speed=6.732000m/h.</desc>
<speed>1.870000</speed>
</trkpt>
<trkpt lat="55.917637" lon="26.506842">
<ele>107.670959</ele>
<time>2010-06-20T07:46:17Z</time>
<desc>lat.=55.917637, lon.=26.506842, Alt.=107.670959m. Speed=5.472000m/h.</desc>
<speed>1.520000</speed>
</trkpt>
<trkpt lat="55.917656" lon="26.506836">
<ele>107.522522</ele>
<time>2010-06-20T07:46:18Z</time>
<desc>lat.=55.917656, lon.=26.506836, Alt.=107.522522m. Speed=5.148000m/h.</desc>
<speed>1.430000</speed>
</trkpt>
<trkpt lat="55.917694" lon="26.506800">
<ele>108.180725</ele>
<time>2010-06-20T07:46:19Z</time>
<desc>lat.=55.917694, lon.=26.506800, Alt.=108.180725m. Speed=8.820000m/h.</desc>
<speed>2.450000</speed>
</trkpt>
<trkpt lat="55.917736" lon="26.506756">
<ele>108.948303</ele>
<time>2010-06-20T07:46:20Z</time>
<desc>lat.=55.917736, lon.=26.506756, Alt.=108.948303m. Speed=9.684000m/h.</desc>
<speed>2.690000</speed>
</trkpt>
<trkpt lat="55.917767" lon="26.506742">
<ele>108.780334</ele>
<time>2010-06-20T07:46:21Z</time>
<desc>lat.=55.917767, lon.=26.506742, Alt.=108.780334m. Speed=7.452000m/h.</desc>
<speed>2.070000</speed>
</trkpt>
<trkpt lat="55.917793" lon="26.506725">
<ele>109.198303</ele>
<time>2010-06-20T07:46:22Z</time>
<desc>lat.=55.917793, lon.=26.506725, Alt.=109.198303m. Speed=8.496000m/h.</desc>
<speed>2.360000</speed>
</trkpt>
<trkpt lat="55.917843" lon="26.506678">
<ele>110.905334</ele>
<time>2010-06-20T07:46:23Z</time>
<desc>lat.=55.917843, lon.=26.506678, Alt.=110.905334m. Speed=12.888000m/h.</desc>
<speed>3.580000</speed>
</trkpt>
<trkpt lat="55.917870" lon="26.506647">
<ele>111.182678</ele>
<time>2010-06-20T07:46:24Z</time>
<desc>lat.=55.917870, lon.=26.506647, Alt.=111.182678m. Speed=11.412000m/h.</desc>
<speed>3.170000</speed>
</trkpt>
<trkpt lat="55.917915" lon="26.506603">
<ele>111.409241</ele>
<time>2010-06-20T07:46:25Z</time>
<desc>lat.=55.917915, lon.=26.506603, Alt.=111.409241m. Speed=11.124000m/h.</desc>
<speed>3.090000</speed>
</trkpt>
<trkpt lat="55.917953" lon="26.506550">
<ele>111.960022</ele>
<time>2010-06-20T07:46:26Z</time>
<desc>lat.=55.917953, lon.=26.506550, Alt.=111.960022m. Speed=11.628000m/h.</desc>
<speed>3.230000</speed>
</trkpt>
<trkpt lat="55.917973" lon="26.506525">
<ele>112.549866</ele>
<time>2010-06-20T07:46:27Z</time>
<desc>lat.=55.917973, lon.=26.506525, Alt.=112.549866m. Speed=7.236000m/h.</desc>
<speed>2.010000</speed>
</trkpt>
<trkpt lat="55.917999" lon="26.506516">
<ele>113.141663</ele>
<time>2010-06-20T07:46:28Z</time>
<desc>lat.=55.917999, lon.=26.506516, Alt.=113.141663m. Speed=6.480000m/h.</desc>
<speed>1.800000</speed>
</trkpt>
<trkpt lat="55.918022" lon="26.506483">
<ele>113.235413</ele>
<time>2010-06-20T07:46:29Z</time>
<desc>lat.=55.918022, lon.=26.506483, Alt.=113.235413m. Speed=6.156000m/h.</desc>
<speed>1.710000</speed>
</trkpt>
<trkpt lat="55.918041" lon="26.506474">
<ele>113.315491</ele>
<time>2010-06-20T07:46:30Z</time>
<desc>lat.=55.918041, lon.=26.506474, Alt.=113.315491m. Speed=5.292000m/h.</desc>
<speed>1.470000</speed>
</trkpt>
<trkpt lat="55.918060" lon="26.506458">
<ele>113.461975</ele>
<time>2010-06-20T07:46:31Z</time>
<desc>lat.=55.918060, lon.=26.506458, Alt.=113.461975m. Speed=6.660000m/h.</desc>
<speed>1.850000</speed>
</trkpt>
<trkpt lat="55.918087" lon="26.506432">
<ele>112.344788</ele>
<time>2010-06-20T07:46:32Z</time>
<desc>lat.=55.918087, lon.=26.506432, Alt.=112.344788m. Speed=6.804000m/h.</desc>
<speed>1.890000</speed>
</trkpt>
<trkpt lat="55.918121" lon="26.506411">
<ele>112.372131</ele>
<time>2010-06-20T07:46:33Z</time>
<desc>lat.=55.918121, lon.=26.506411, Alt.=112.372131m. Speed=7.488000m/h.</desc>
<speed>2.080000</speed>
</trkpt>
<trkpt lat="55.918148" lon="26.506388">
<ele>112.727600</ele>
<time>2010-06-20T07:46:34Z</time>
<desc>lat.=55.918148, lon.=26.506388, Alt.=112.727600m. Speed=7.920000m/h.</desc>
<speed>2.200000</speed>
</trkpt>
<trkpt lat="55.918182" lon="26.506371">
<ele>113.338928</ele>
<time>2010-06-20T07:46:35Z</time>
<desc>lat.=55.918182, lon.=26.506371, Alt.=113.338928m. Speed=6.804000m/h.</desc>
<speed>1.890000</speed>
</trkpt>
<trkpt lat="55.918205" lon="26.506372">
<ele>113.190491</ele>
<time>2010-06-20T07:46:36Z</time>
<desc>lat.=55.918205, lon.=26.506372, Alt.=113.190491m. Speed=5.796000m/h.</desc>
<speed>1.610000</speed>
</trkpt>
<trkpt lat="55.918240" lon="26.506353">
<ele>113.772522</ele>
<time>2010-06-20T07:46:37Z</time>
<desc>lat.=55.918240, lon.=26.506353, Alt.=113.772522m. Speed=6.588000m/h.</desc>
<speed>1.830000</speed>
</trkpt>
<trkpt lat="55.918278" lon="26.506330">
<ele>114.094788</ele>
<time>2010-06-20T07:46:38Z</time>
<desc>lat.=55.918278, lon.=26.506330, Alt.=114.094788m. Speed=7.668000m/h.</desc>
<speed>2.130000</speed>
</trkpt>
<trkpt lat="55.918308" lon="26.506319">
<ele>114.385803</ele>
<time>2010-06-20T07:46:39Z</time>
<desc>lat.=55.918308, lon.=26.506319, Alt.=114.385803m. Speed=8.136000m/h.</desc>
<speed>2.260000</speed>
</trkpt>
<trkpt lat="55.918335" lon="26.506310">
<ele>114.917053</ele>
<time>2010-06-20T07:46:40Z</time>
<desc>lat.=55.918335, lon.=26.506310, Alt.=114.917053m. Speed=8.172000m/h.</desc>
<speed>2.270000</speed>
</trkpt>
<trkpt lat="55.918373" lon="26.506273">
<ele>115.506897</ele>
<time>2010-06-20T07:46:41Z</time>
<desc>lat.=55.918373, lon.=26.506273, Alt.=115.506897m. Speed=7.308000m/h.</desc>
<speed>2.030000</speed>
</trkpt>
<trkpt lat="55.918407" lon="26.506273">
<ele>115.417053</ele>
<time>2010-06-20T07:46:42Z</time>
<desc>lat.=55.918407, lon.=26.506273, Alt.=115.417053m. Speed=6.300000m/h.</desc>
<speed>1.750000</speed>
</trkpt>
<trkpt lat="55.918453" lon="26.506279">
<ele>116.426819</ele>
<time>2010-06-20T07:46:43Z</time>
<desc>lat.=55.918453, lon.=26.506279, Alt.=116.426819m. Speed=7.884000m/h.</desc>
<speed>2.190000</speed>
</trkpt>
<trkpt lat="55.918488" lon="26.506279">
<ele>116.311584</ele>
<time>2010-06-20T07:46:44Z</time>
<desc>lat.=55.918488, lon.=26.506279, Alt.=116.311584m. Speed=6.012000m/h.</desc>
<speed>1.670000</speed>
</trkpt>
<trkpt lat="55.918503" lon="26.506268">
<ele>115.891663</ele>
<time>2010-06-20T07:46:45Z</time>
<desc>lat.=55.918503, lon.=26.506268, Alt.=115.891663m. Speed=4.932000m/h.</desc>
<speed>1.370000</speed>
</trkpt>
<trkpt lat="55.918518" lon="26.506262">
<ele>115.743225</ele>
<time>2010-06-20T07:46:46Z</time>
<desc>lat.=55.918518, lon.=26.506262, Alt.=115.743225m. Speed=4.212000m/h.</desc>
<speed>1.170000</speed>
</trkpt>
<trkpt lat="55.918552" lon="26.506254">
<ele>116.284241</ele>
<time>2010-06-20T07:46:47Z</time>
<desc>lat.=55.918552, lon.=26.506254, Alt.=116.284241m. Speed=8.676000m/h.</desc>
<speed>2.410000</speed>
</trkpt>
<trkpt lat="55.918583" lon="26.506247">
<ele>116.569397</ele>
<time>2010-06-20T07:46:48Z</time>
<desc>lat.=55.918583, lon.=26.506247, Alt.=116.569397m. Speed=6.588000m/h.</desc>
<speed>1.830000</speed>
</trkpt>
<trkpt lat="55.918606" lon="26.506243">
<ele>116.487366</ele>
<time>2010-06-20T07:46:49Z</time>
<desc>lat.=55.918606, lon.=26.506243, Alt.=116.487366m. Speed=4.860000m/h.</desc>
<speed>1.350000</speed>
</trkpt>
<trkpt lat="55.918629" lon="26.506241">
<ele>116.780334</ele>
<time>2010-06-20T07:46:50Z</time>
<desc>lat.=55.918629, lon.=26.506241, Alt.=116.780334m. Speed=5.976000m/h.</desc>
<speed>1.660000</speed>
</trkpt>
<trkpt lat="55.918659" lon="26.506220">
<ele>117.338928</ele>
<time>2010-06-20T07:46:51Z</time>
<desc>lat.=55.918659, lon.=26.506220, Alt.=117.338928m. Speed=6.588000m/h.</desc>
<speed>1.830000</speed>
</trkpt>
<trkpt lat="55.918690" lon="26.506208">
<ele>117.860413</ele>
<time>2010-06-20T07:46:52Z</time>
<desc>lat.=55.918690, lon.=26.506208, Alt.=117.860413m. Speed=6.300000m/h.</desc>
<speed>1.750000</speed>
</trkpt>
<trkpt lat="55.918720" lon="26.506201">
<ele>118.518616</ele>
<time>2010-06-20T07:46:53Z</time>
<desc>lat.=55.918720, lon.=26.506201, Alt.=118.518616m. Speed=6.948000m/h.</desc>
<speed>1.930000</speed>
</trkpt>
<trkpt lat="55.918739" lon="26.506191">
<ele>119.805725</ele>
<time>2010-06-20T07:46:54Z</time>
<desc>lat.=55.918739, lon.=26.506191, Alt.=119.805725m. Speed=5.688000m/h.</desc>
<speed>1.580000</speed>
</trkpt>
<trkpt lat="55.918758" lon="26.506189">
<ele>120.235413</ele>
<time>2010-06-20T07:46:55Z</time>
<desc>lat.=55.918758, lon.=26.506189, Alt.=120.235413m. Speed=6.840000m/h.</desc>
<speed>1.900000</speed>
</trkpt>
<trkpt lat="55.918781" lon="26.506193">
<ele>120.116272</ele>
<time>2010-06-20T07:46:56Z</time>
<desc>lat.=55.918781, lon.=26.506193, Alt.=120.116272m. Speed=6.768000m/h.</desc>
<speed>1.880000</speed>
</trkpt>
<trkpt lat="55.918804" lon="26.506199">
<ele>119.651428</ele>
<time>2010-06-20T07:46:57Z</time>
<desc>lat.=55.918804, lon.=26.506199, Alt.=119.651428m. Speed=7.092000m/h.</desc>
<speed>1.970000</speed>
</trkpt>
<trkpt lat="55.918850" lon="26.506218">
<ele>114.063538</ele>
<time>2010-06-20T07:46:58Z</time>
<desc>lat.=55.918850, lon.=26.506218, Alt.=114.063538m. Speed=8.604000m/h.</desc>
<speed>2.390000</speed>
</trkpt>
<trkpt lat="55.918888" lon="26.506231">
<ele>112.823303</ele>
<time>2010-06-20T07:46:59Z</time>
<desc>lat.=55.918888, lon.=26.506231, Alt.=112.823303m. Speed=7.164000m/h.</desc>
<speed>1.990000</speed>
</trkpt>
<trkpt lat="55.918915" lon="26.506235">
<ele>112.612366</ele>
<time>2010-06-20T07:47:00Z</time>
<desc>lat.=55.918915, lon.=26.506235, Alt.=112.612366m. Speed=5.796000m/h.</desc>
<speed>1.610000</speed>
</trkpt>
<trkpt lat="55.918938" lon="26.506226">
<ele>112.522522</ele>
<time>2010-06-20T07:47:01Z</time>
<desc>lat.=55.918938, lon.=26.506226, Alt.=112.522522m. Speed=3.780000m/h.</desc>
<speed>1.050000</speed>
</trkpt>
<trkpt lat="55.918953" lon="26.506224">
<ele>112.372131</ele>
<time>2010-06-20T07:47:02Z</time>
<desc>lat.=55.918953, lon.=26.506224, Alt.=112.372131m. Speed=5.328000m/h.</desc>
<speed>1.480000</speed>
</trkpt>
<trkpt lat="55.918987" lon="26.506229">
<ele>113.754944</ele>
<time>2010-06-20T07:47:03Z</time>
<desc>lat.=55.918987, lon.=26.506229, Alt.=113.754944m. Speed=6.156000m/h.</desc>
<speed>1.710000</speed>
</trkpt>
<trkpt lat="55.919022" lon="26.506224">
<ele>112.383850</ele>
<time>2010-06-20T07:47:04Z</time>
<desc>lat.=55.919022, lon.=26.506224, Alt.=112.383850m. Speed=6.804000m/h.</desc>
<speed>1.890000</speed>
</trkpt>
<trkpt lat="55.919064" lon="26.506220">
<ele>111.706116</ele>
<time>2010-06-20T07:47:05Z</time>
<desc>lat.=55.919064, lon.=26.506220, Alt.=111.706116m. Speed=7.524000m/h.</desc>
<speed>2.090000</speed>
</trkpt>
<trkpt lat="55.919113" lon="26.506241">
<ele>108.856506</ele>
<time>2010-06-20T07:47:06Z</time>
<desc>lat.=55.919113, lon.=26.506241, Alt.=108.856506m. Speed=6.876000m/h.</desc>
<speed>1.910000</speed>
</trkpt>
<trkpt lat="55.919151" lon="26.506250">
<ele>107.920959</ele>
<time>2010-06-20T07:47:07Z</time>
<desc>lat.=55.919151, lon.=26.506250, Alt.=107.920959m. Speed=6.696000m/h.</desc>
<speed>1.860000</speed>
</trkpt>
<trkpt lat="55.919182" lon="26.506250">
<ele>107.807678</ele>
<time>2010-06-20T07:47:08Z</time>
<desc>lat.=55.919182, lon.=26.506250, Alt.=107.807678m. Speed=6.516000m/h.</desc>
<speed>1.810000</speed>
</trkpt>
<trkpt lat="55.919209" lon="26.506245">
<ele>107.725647</ele>
<time>2010-06-20T07:47:09Z</time>
<desc>lat.=55.919209, lon.=26.506245, Alt.=107.725647m. Speed=7.344000m/h.</desc>
<speed>2.040000</speed>
</trkpt>
<trkpt lat="55.919243" lon="26.506250">
<ele>106.975647</ele>
<time>2010-06-20T07:47:10Z</time>
<desc>lat.=55.919243, lon.=26.506250, Alt.=106.975647m. Speed=6.336000m/h.</desc>
<speed>1.760000</speed>
</trkpt>
<trkpt lat="55.919270" lon="26.506252">
<ele>106.924866</ele>
<time>2010-06-20T07:47:11Z</time>
<desc>lat.=55.919270, lon.=26.506252, Alt.=106.924866m. Speed=8.676000m/h.</desc>
<speed>2.410000</speed>
</trkpt>
<trkpt lat="55.919296" lon="26.506254">
<ele>107.251038</ele>
<time>2010-06-20T07:47:12Z</time>
<desc>lat.=55.919296, lon.=26.506254, Alt.=107.251038m. Speed=7.920000m/h.</desc>
<speed>2.200000</speed>
</trkpt>
<trkpt lat="55.919323" lon="26.506256">
<ele>106.967834</ele>
<time>2010-06-20T07:47:13Z</time>
<desc>lat.=55.919323, lon.=26.506256, Alt.=106.967834m. Speed=7.956000m/h.</desc>
<speed>2.210000</speed>
</trkpt>
<trkpt lat="55.919346" lon="26.506262">
<ele>106.555725</ele>
<time>2010-06-20T07:47:14Z</time>
<desc>lat.=55.919346, lon.=26.506262, Alt.=106.555725m. Speed=7.020000m/h.</desc>
<speed>1.950000</speed>
</trkpt>
<trkpt lat="55.919373" lon="26.506264">
<ele>107.057678</ele>
<time>2010-06-20T07:47:15Z</time>
<desc>lat.=55.919373, lon.=26.506264, Alt.=107.057678m. Speed=8.316000m/h.</desc>
<speed>2.310000</speed>
</trkpt>
<trkpt lat="55.919403" lon="26.506264">
<ele>106.674866</ele>
<time>2010-06-20T07:47:16Z</time>
<desc>lat.=55.919403, lon.=26.506264, Alt.=106.674866m. Speed=9.108000m/h.</desc>
<speed>2.530000</speed>
</trkpt>
<trkpt lat="55.919472" lon="26.506271">
<ele>109.258850</ele>
<time>2010-06-20T07:47:17Z</time>
<desc>lat.=55.919472, lon.=26.506271, Alt.=109.258850m. Speed=7.416000m/h.</desc>
<speed>2.060000</speed>
</trkpt>
<trkpt lat="55.919525" lon="26.506273">
<ele>110.010803</ele>
<time>2010-06-20T07:47:18Z</time>
<desc>lat.=55.919525, lon.=26.506273, Alt.=110.010803m. Speed=10.224000m/h.</desc>
<speed>2.840000</speed>
</trkpt>
<trkpt lat="55.919582" lon="26.506273">
<ele>111.741272</ele>
<time>2010-06-20T07:47:19Z</time>
<desc>lat.=55.919582, lon.=26.506273, Alt.=111.741272m. Speed=12.168000m/h.</desc>
<speed>3.380000</speed>
</trkpt>
<trkpt lat="55.919624" lon="26.506262">
<ele>111.667053</ele>
<time>2010-06-20T07:47:20Z</time>
<desc>lat.=55.919624, lon.=26.506262, Alt.=111.667053m. Speed=12.384000m/h.</desc>
<speed>3.440000</speed>
</trkpt>
<trkpt lat="55.919670" lon="26.506264">
<ele>111.917053</ele>
<time>2010-06-20T07:47:21Z</time>
<desc>lat.=55.919670, lon.=26.506264, Alt.=111.917053m. Speed=12.456000m/h.</desc>
<speed>3.460000</speed>
</trkpt>
<trkpt lat="55.919704" lon="26.506264">
<ele>111.251038</ele>
<time>2010-06-20T07:47:22Z</time>
<desc>lat.=55.919704, lon.=26.506264, Alt.=111.251038m. Speed=11.448000m/h.</desc>
<speed>3.180000</speed>
</trkpt>
<trkpt lat="55.919743" lon="26.506264">
<ele>110.784241</ele>
<time>2010-06-20T07:47:23Z</time>
<desc>lat.=55.919743, lon.=26.506264, Alt.=110.784241m. Speed=11.880000m/h.</desc>
<speed>3.300000</speed>
</trkpt>
<trkpt lat="55.919781" lon="26.506268">
<ele>110.360413</ele>
<time>2010-06-20T07:47:24Z</time>
<desc>lat.=55.919781, lon.=26.506268, Alt.=110.360413m. Speed=10.152000m/h.</desc>
<speed>2.820000</speed>
</trkpt>
<trkpt lat="55.919807" lon="26.506266">
<ele>109.844788</ele>
<time>2010-06-20T07:47:25Z</time>
<desc>lat.=55.919807, lon.=26.506266, Alt.=109.844788m. Speed=8.460000m/h.</desc>
<speed>2.350000</speed>
</trkpt>
<trkpt lat="55.919861" lon="26.506256">
<ele>111.323303</ele>
<time>2010-06-20T07:47:26Z</time>
<desc>lat.=55.919861, lon.=26.506256, Alt.=111.323303m. Speed=10.908000m/h.</desc>
<speed>3.030000</speed>
</trkpt>
<trkpt lat="55.919918" lon="26.506243">
<ele>113.311584</ele>
<time>2010-06-20T07:47:27Z</time>
<desc>lat.=55.919918, lon.=26.506243, Alt.=113.311584m. Speed=10.296000m/h.</desc>
<speed>2.860000</speed>
</trkpt>
<trkpt lat="55.919945" lon="26.506214">
<ele>113.413147</ele>
<time>2010-06-20T07:47:28Z</time>
<desc>lat.=55.919945, lon.=26.506214, Alt.=113.413147m. Speed=9.864000m/h.</desc>
<speed>2.740000</speed>
</trkpt>
<trkpt lat="55.919983" lon="26.506187">
<ele>114.219788</ele>
<time>2010-06-20T07:47:29Z</time>
<desc>lat.=55.919983, lon.=26.506187, Alt.=114.219788m. Speed=11.304000m/h.</desc>
<speed>3.140000</speed>
</trkpt>
<trkpt lat="55.920013" lon="26.506168">
<ele>114.727600</ele>
<time>2010-06-20T07:47:30Z</time>
<desc>lat.=55.920013, lon.=26.506168, Alt.=114.727600m. Speed=9.360000m/h.</desc>
<speed>2.600000</speed>
</trkpt>
<trkpt lat="55.920063" lon="26.506161">
<ele>115.616272</ele>
<time>2010-06-20T07:47:31Z</time>
<desc>lat.=55.920063, lon.=26.506161, Alt.=115.616272m. Speed=9.072000m/h.</desc>
<speed>2.520000</speed>
</trkpt>
<trkpt lat="55.920097" lon="26.506176">
<ele>111.604553</ele>
<time>2010-06-20T07:47:32Z</time>
<desc>lat.=55.920097, lon.=26.506176, Alt.=111.604553m. Speed=10.476000m/h.</desc>
<speed>2.910000</speed>
</trkpt>
<trkpt lat="55.920128" lon="26.506176">
<ele>109.616272</ele>
<time>2010-06-20T07:47:33Z</time>
<desc>lat.=55.920128, lon.=26.506176, Alt.=109.616272m. Speed=9.360000m/h.</desc>
<speed>2.600000</speed>
</trkpt>
<trkpt lat="55.920151" lon="26.506174">
<ele>108.489319</ele>
<time>2010-06-20T07:47:34Z</time>
<desc>lat.=55.920151, lon.=26.506174, Alt.=108.489319m. Speed=8.460000m/h.</desc>
<speed>2.350000</speed>
</trkpt>
<trkpt lat="55.920174" lon="26.506186">
<ele>108.590881</ele>
<time>2010-06-20T07:47:35Z</time>
<desc>lat.=55.920174, lon.=26.506186, Alt.=108.590881m. Speed=12.528000m/h.</desc>
<speed>3.480000</speed>
</trkpt>
<trkpt lat="55.920204" lon="26.506168">
<ele>108.692444</ele>
<time>2010-06-20T07:47:36Z</time>
<desc>lat.=55.920204, lon.=26.506168, Alt.=108.692444m. Speed=9.504000m/h.</desc>
<speed>2.640000</speed>
</trkpt>
<trkpt lat="55.920238" lon="26.506155">
<ele>108.473694</ele>
<time>2010-06-20T07:47:37Z</time>
<desc>lat.=55.920238, lon.=26.506155, Alt.=108.473694m. Speed=9.252000m/h.</desc>
<speed>2.570000</speed>
</trkpt>
<trkpt lat="55.920273" lon="26.506144">
<ele>108.499084</ele>
<time>2010-06-20T07:47:38Z</time>
<desc>lat.=55.920273, lon.=26.506144, Alt.=108.499084m. Speed=10.656000m/h.</desc>
<speed>2.960000</speed>
</trkpt>
<trkpt lat="55.920311" lon="26.506130">
<ele>107.239319</ele>
<time>2010-06-20T07:47:39Z</time>
<desc>lat.=55.920311, lon.=26.506130, Alt.=107.239319m. Speed=10.656000m/h.</desc>
<speed>2.960000</speed>
</trkpt>
<trkpt lat="55.920349" lon="26.506121">
<ele>106.811584</ele>
<time>2010-06-20T07:47:40Z</time>
<desc>lat.=55.920349, lon.=26.506121, Alt.=106.811584m. Speed=12.276000m/h.</desc>
<speed>3.410000</speed>
</trkpt>
<trkpt lat="55.920387" lon="26.506107">
<ele>106.864319</ele>
<time>2010-06-20T07:47:41Z</time>
<desc>lat.=55.920387, lon.=26.506107, Alt.=106.864319m. Speed=12.672000m/h.</desc>
<speed>3.520000</speed>
</trkpt>
<trkpt lat="55.920433" lon="26.506094">
<ele>106.088928</ele>
<time>2010-06-20T07:47:42Z</time>
<desc>lat.=55.920433, lon.=26.506094, Alt.=106.088928m. Speed=12.960000m/h.</desc>
<speed>3.600000</speed>
</trkpt>
<trkpt lat="55.920471" lon="26.506081">
<ele>106.348694</ele>
<time>2010-06-20T07:47:43Z</time>
<desc>lat.=55.920471, lon.=26.506081, Alt.=106.348694m. Speed=14.292000m/h.</desc>
<speed>3.970000</speed>
</trkpt>
<trkpt lat="55.920517" lon="26.506052">
<ele>107.774475</ele>
<time>2010-06-20T07:47:44Z</time>
<desc>lat.=55.920517, lon.=26.506052, Alt.=107.774475m. Speed=13.176000m/h.</desc>
<speed>3.660000</speed>
</trkpt>
<trkpt lat="55.920563" lon="26.506035">
<ele>107.797913</ele>
<time>2010-06-20T07:47:45Z</time>
<desc>lat.=55.920563, lon.=26.506035, Alt.=107.797913m. Speed=14.328000m/h.</desc>
<speed>3.980000</speed>
</trkpt>
<trkpt lat="55.920601" lon="26.506008">
<ele>107.903381</ele>
<time>2010-06-20T07:47:46Z</time>
<desc>lat.=55.920601, lon.=26.506008, Alt.=107.903381m. Speed=12.780000m/h.</desc>
<speed>3.550000</speed>
</trkpt>
<trkpt lat="55.920635" lon="26.505989">
<ele>108.219788</ele>
<time>2010-06-20T07:47:47Z</time>
<desc>lat.=55.920635, lon.=26.505989, Alt.=108.219788m. Speed=13.032000m/h.</desc>
<speed>3.620000</speed>
</trkpt>
<trkpt lat="55.920677" lon="26.505964">
<ele>106.887756</ele>
<time>2010-06-20T07:47:48Z</time>
<desc>lat.=55.920677, lon.=26.505964, Alt.=106.887756m. Speed=13.104000m/h.</desc>
<speed>3.640000</speed>
</trkpt>
<trkpt lat="55.920715" lon="26.505945">
<ele>105.391663</ele>
<time>2010-06-20T07:47:49Z</time>
<desc>lat.=55.920715, lon.=26.505945, Alt.=105.391663m. Speed=11.988000m/h.</desc>
<speed>3.330000</speed>
</trkpt>
<trkpt lat="55.920757" lon="26.505938">
<ele>103.887756</ele>
<time>2010-06-20T07:47:50Z</time>
<desc>lat.=55.920757, lon.=26.505938, Alt.=103.887756m. Speed=15.876000m/h.</desc>
<speed>4.410000</speed>
</trkpt>
<trkpt lat="55.920795" lon="26.505934">
<ele>103.596741</ele>
<time>2010-06-20T07:47:51Z</time>
<desc>lat.=55.920795, lon.=26.505934, Alt.=103.596741m. Speed=11.628000m/h.</desc>
<speed>3.230000</speed>
</trkpt>
<trkpt lat="55.920830" lon="26.505920">
<ele>103.385803</ele>
<time>2010-06-20T07:47:52Z</time>
<desc>lat.=55.920830, lon.=26.505920, Alt.=103.385803m. Speed=11.556000m/h.</desc>
<speed>3.210000</speed>
</trkpt>
<trkpt lat="55.920864" lon="26.505928">
<ele>101.127991</ele>
<time>2010-06-20T07:47:53Z</time>
<desc>lat.=55.920864, lon.=26.505928, Alt.=101.127991m. Speed=10.080000m/h.</desc>
<speed>2.800000</speed>
</trkpt>
<trkpt lat="55.920891" lon="26.505911">
<ele>101.180725</ele>
<time>2010-06-20T07:47:54Z</time>
<desc>lat.=55.920891, lon.=26.505911, Alt.=101.180725m. Speed=6.876000m/h.</desc>
<speed>1.910000</speed>
</trkpt>
<trkpt lat="55.920906" lon="26.505903">
<ele>101.026428</ele>
<time>2010-06-20T07:47:55Z</time>
<desc>lat.=55.920906, lon.=26.505903, Alt.=101.026428m. Speed=11.916000m/h.</desc>
<speed>3.310000</speed>
</trkpt>
<trkpt lat="55.920948" lon="26.505882">
<ele>100.526428</ele>
<time>2010-06-20T07:47:56Z</time>
<desc>lat.=55.920948, lon.=26.505882, Alt.=100.526428m. Speed=11.376000m/h.</desc>
<speed>3.160000</speed>
</trkpt>
<trkpt lat="55.920979" lon="26.505875">
<ele>100.319397</ele>
<time>2010-06-20T07:47:57Z</time>
<desc>lat.=55.920979, lon.=26.505875, Alt.=100.319397m. Speed=13.716000m/h.</desc>
<speed>3.810000</speed>
</trkpt>
<trkpt lat="55.921024" lon="26.505888">
<ele>100.985413</ele>
<time>2010-06-20T07:47:58Z</time>
<desc>lat.=55.921024, lon.=26.505888, Alt.=100.985413m. Speed=11.124000m/h.</desc>
<speed>3.090000</speed>
</trkpt>
<trkpt lat="55.921055" lon="26.505898">
<ele>100.835022</ele>
<time>2010-06-20T07:47:59Z</time>
<desc>lat.=55.921055, lon.=26.505898, Alt.=100.835022m. Speed=10.080000m/h.</desc>
<speed>2.800000</speed>
</trkpt>
<trkpt lat="55.921078" lon="26.505905">
<ele>100.751038</ele>
<time>2010-06-20T07:48:00Z</time>
<desc>lat.=55.921078, lon.=26.505905, Alt.=100.751038m. Speed=8.280000m/h.</desc>
<speed>2.300000</speed>
</trkpt>
<trkpt lat="55.921108" lon="26.505917">
<ele>101.028381</ele>
<time>2010-06-20T07:48:01Z</time>
<desc>lat.=55.921108, lon.=26.505917, Alt.=101.028381m. Speed=7.704000m/h.</desc>
<speed>2.140000</speed>
</trkpt>
<trkpt lat="55.921143" lon="26.505924">
<ele>101.831116</ele>
<time>2010-06-20T07:48:02Z</time>
<desc>lat.=55.921143, lon.=26.505924, Alt.=101.831116m. Speed=7.128000m/h.</desc>
<speed>1.980000</speed>
</trkpt>
<trkpt lat="55.921173" lon="26.505915">
<ele>101.036194</ele>
<time>2010-06-20T07:48:03Z</time>
<desc>lat.=55.921173, lon.=26.505915, Alt.=101.036194m. Speed=8.280000m/h.</desc>
<speed>2.300000</speed>
</trkpt>
<trkpt lat="55.921207" lon="26.505888">
<ele>100.905334</ele>
<time>2010-06-20T07:48:04Z</time>
<desc>lat.=55.921207, lon.=26.505888, Alt.=100.905334m. Speed=7.092000m/h.</desc>
<speed>1.970000</speed>
</trkpt>
<trkpt lat="55.921238" lon="26.505884">
<ele>100.678772</ele>
<time>2010-06-20T07:48:05Z</time>
<desc>lat.=55.921238, lon.=26.505884, Alt.=100.678772m. Speed=7.236000m/h.</desc>
<speed>2.010000</speed>
</trkpt>
<trkpt lat="55.921257" lon="26.505878">
<ele>100.555725</ele>
<time>2010-06-20T07:48:06Z</time>
<desc>lat.=55.921257, lon.=26.505878, Alt.=100.555725m. Speed=5.472000m/h.</desc>
<speed>1.520000</speed>
</trkpt>
<trkpt lat="55.921291" lon="26.505867">
<ele>100.305725</ele>
<time>2010-06-20T07:48:07Z</time>
<desc>lat.=55.921291, lon.=26.505867, Alt.=100.305725m. Speed=8.064000m/h.</desc>
<speed>2.240000</speed>
</trkpt>
<trkpt lat="55.921326" lon="26.505823">
<ele>100.641663</ele>
<time>2010-06-20T07:48:08Z</time>
<desc>lat.=55.921326, lon.=26.505823, Alt.=100.641663m. Speed=5.112000m/h.</desc>
<speed>1.420000</speed>
</trkpt>
<trkpt lat="55.921349" lon="26.505817">
<ele>99.995178</ele>
<time>2010-06-20T07:48:09Z</time>
<desc>lat.=55.921349, lon.=26.505817, Alt.=99.995178m. Speed=5.544000m/h.</desc>
<speed>1.540000</speed>
</trkpt>
<trkpt lat="55.921375" lon="26.505812">
<ele>99.251038</ele>
<time>2010-06-20T07:48:10Z</time>
<desc>lat.=55.921375, lon.=26.505812, Alt.=99.251038m. Speed=6.804000m/h.</desc>
<speed>1.890000</speed>
</trkpt>
<trkpt lat="55.921394" lon="26.505808">
<ele>98.876038</ele>
<time>2010-06-20T07:48:11Z</time>
<desc>lat.=55.921394, lon.=26.505808, Alt.=98.876038m. Speed=6.516000m/h.</desc>
<speed>1.810000</speed>
</trkpt>
<trkpt lat="55.921436" lon="26.505819">
<ele>98.137756</ele>
<time>2010-06-20T07:48:12Z</time>
<desc>lat.=55.921436, lon.=26.505819, Alt.=98.137756m. Speed=7.992000m/h.</desc>
<speed>2.220000</speed>
</trkpt>
<trkpt lat="55.921474" lon="26.505825">
<ele>96.762756</ele>
<time>2010-06-20T07:48:13Z</time>
<desc>lat.=55.921474, lon.=26.505825, Alt.=96.762756m. Speed=9.072000m/h.</desc>
<speed>2.520000</speed>
</trkpt>
<trkpt lat="55.921513" lon="26.505823">
<ele>96.213928</ele>
<time>2010-06-20T07:48:14Z</time>
<desc>lat.=55.921513, lon.=26.505823, Alt.=96.213928m. Speed=8.856000m/h.</desc>
<speed>2.460000</speed>
</trkpt>
<trkpt lat="55.921543" lon="26.505808">
<ele>96.602600</ele>
<time>2010-06-20T07:48:15Z</time>
<desc>lat.=55.921543, lon.=26.505808, Alt.=96.602600m. Speed=7.740000m/h.</desc>
<speed>2.150000</speed>
</trkpt>
<trkpt lat="55.921570" lon="26.505798">
<ele>96.877991</ele>
<time>2010-06-20T07:48:16Z</time>
<desc>lat.=55.921570, lon.=26.505798, Alt.=96.877991m. Speed=5.868000m/h.</desc>
<speed>1.630000</speed>
</trkpt>
<trkpt lat="55.921600" lon="26.505793">
<ele>97.336975</ele>
<time>2010-06-20T07:48:17Z</time>
<desc>lat.=55.921600, lon.=26.505793, Alt.=97.336975m. Speed=8.172000m/h.</desc>
<speed>2.270000</speed>
</trkpt>
<trkpt lat="55.921635" lon="26.505783">
<ele>96.993225</ele>
<time>2010-06-20T07:48:18Z</time>
<desc>lat.=55.921635, lon.=26.505783, Alt.=96.993225m. Speed=7.956000m/h.</desc>
<speed>2.210000</speed>
</trkpt>
<trkpt lat="55.921677" lon="26.505781">
<ele>99.088928</ele>
<time>2010-06-20T07:48:19Z</time>
<desc>lat.=55.921677, lon.=26.505781, Alt.=99.088928m. Speed=11.088000m/h.</desc>
<speed>3.080000</speed>
</trkpt>
<trkpt lat="55.921726" lon="26.505793">
<ele>98.928772</ele>
<time>2010-06-20T07:48:20Z</time>
<desc>lat.=55.921726, lon.=26.505793, Alt.=98.928772m. Speed=13.104000m/h.</desc>
<speed>3.640000</speed>
</trkpt>
<trkpt lat="55.921772" lon="26.505804">
<ele>99.626038</ele>
<time>2010-06-20T07:48:21Z</time>
<desc>lat.=55.921772, lon.=26.505804, Alt.=99.626038m. Speed=10.728000m/h.</desc>
<speed>2.980000</speed>
</trkpt>
<trkpt lat="55.921799" lon="26.505817">
<ele>99.196350</ele>
<time>2010-06-20T07:48:22Z</time>
<desc>lat.=55.921799, lon.=26.505817, Alt.=99.196350m. Speed=14.364000m/h.</desc>
<speed>3.990000</speed>
</trkpt>
<trkpt lat="55.921837" lon="26.505804">
<ele>100.524475</ele>
<time>2010-06-20T07:48:23Z</time>
<desc>lat.=55.921837, lon.=26.505804, Alt.=100.524475m. Speed=8.892000m/h.</desc>
<speed>2.470000</speed>
</trkpt>
<trkpt lat="55.921867" lon="26.505791">
<ele>100.856506</ele>
<time>2010-06-20T07:48:24Z</time>
<desc>lat.=55.921867, lon.=26.505791, Alt.=100.856506m. Speed=10.908000m/h.</desc>
<speed>3.030000</speed>
</trkpt>
<trkpt lat="55.921932" lon="26.505804">
<ele>98.475647</ele>
<time>2010-06-20T07:48:25Z</time>
<desc>lat.=55.921932, lon.=26.505804, Alt.=98.475647m. Speed=17.459999m/h.</desc>
<speed>4.850000</speed>
</trkpt>
<trkpt lat="55.921982" lon="26.505804">
<ele>97.782288</ele>
<time>2010-06-20T07:48:26Z</time>
<desc>lat.=55.921982, lon.=26.505804, Alt.=97.782288m. Speed=17.892000m/h.</desc>
<speed>4.970000</speed>
</trkpt>
<trkpt lat="55.922024" lon="26.505800">
<ele>97.567444</ele>
<time>2010-06-20T07:48:27Z</time>
<desc>lat.=55.922024, lon.=26.505800, Alt.=97.567444m. Speed=14.040000m/h.</desc>
<speed>3.900000</speed>
</trkpt>
<trkpt lat="55.922062" lon="26.505800">
<ele>97.329163</ele>
<time>2010-06-20T07:48:28Z</time>
<desc>lat.=55.922062, lon.=26.505800, Alt.=97.329163m. Speed=15.444000m/h.</desc>
<speed>4.290000</speed>
</trkpt>
<trkpt lat="55.922100" lon="26.505796">
<ele>97.358459</ele>
<time>2010-06-20T07:48:29Z</time>
<desc>lat.=55.922100, lon.=26.505796, Alt.=97.358459m. Speed=12.096000m/h.</desc>
<speed>3.360000</speed>
</trkpt>
<trkpt lat="55.922138" lon="26.505804">
<ele>97.561584</ele>
<time>2010-06-20T07:48:30Z</time>
<desc>lat.=55.922138, lon.=26.505804, Alt.=97.561584m. Speed=7.848000m/h.</desc>
<speed>2.180000</speed>
</trkpt>
<trkpt lat="55.922184" lon="26.505798">
<ele>98.090881</ele>
<time>2010-06-20T07:48:31Z</time>
<desc>lat.=55.922184, lon.=26.505798, Alt.=98.090881m. Speed=11.160000m/h.</desc>
<speed>3.100000</speed>
</trkpt>
<trkpt lat="55.922222" lon="26.505806">
<ele>99.301819</ele>
<time>2010-06-20T07:48:32Z</time>
<desc>lat.=55.922222, lon.=26.505806, Alt.=99.301819m. Speed=8.388000m/h.</desc>
<speed>2.330000</speed>
</trkpt>
<trkpt lat="55.922268" lon="26.505821">
<ele>98.928772</ele>
<time>2010-06-20T07:48:33Z</time>
<desc>lat.=55.922268, lon.=26.505821, Alt.=98.928772m. Speed=11.772000m/h.</desc>
<speed>3.270000</speed>
</trkpt>
<trkpt lat="55.922306" lon="26.505829">
<ele>98.719788</ele>
<time>2010-06-20T07:48:34Z</time>
<desc>lat.=55.922306, lon.=26.505829, Alt.=98.719788m. Speed=7.668000m/h.</desc>
<speed>2.130000</speed>
</trkpt>
<trkpt lat="55.922344" lon="26.505831">
<ele>99.100647</ele>
<time>2010-06-20T07:48:35Z</time>
<desc>lat.=55.922344, lon.=26.505831, Alt.=99.100647m. Speed=9.972000m/h.</desc>
<speed>2.770000</speed>
</trkpt>
<trkpt lat="55.922382" lon="26.505846">
<ele>100.094788</ele>
<time>2010-06-20T07:48:36Z</time>
<desc>lat.=55.922382, lon.=26.505846, Alt.=100.094788m. Speed=9.288000m/h.</desc>
<speed>2.580000</speed>
</trkpt>
<trkpt lat="55.922413" lon="26.505850">
<ele>100.778381</ele>
<time>2010-06-20T07:48:37Z</time>
<desc>lat.=55.922413, lon.=26.505850, Alt.=100.778381m. Speed=9.108000m/h.</desc>
<speed>2.530000</speed>
</trkpt>
<trkpt lat="55.922443" lon="26.505838">
<ele>100.850647</ele>
<time>2010-06-20T07:48:38Z</time>
<desc>lat.=55.922443, lon.=26.505838, Alt.=100.850647m. Speed=6.516000m/h.</desc>
<speed>1.810000</speed>
</trkpt>
<trkpt lat="55.922466" lon="26.505842">
<ele>101.317444</ele>
<time>2010-06-20T07:48:39Z</time>
<desc>lat.=55.922466, lon.=26.505842, Alt.=101.317444m. Speed=7.668000m/h.</desc>
<speed>2.130000</speed>
</trkpt>
<trkpt lat="55.922497" lon="26.505823">
<ele>101.249084</ele>
<time>2010-06-20T07:48:40Z</time>
<desc>lat.=55.922497, lon.=26.505823, Alt.=101.249084m. Speed=7.272000m/h.</desc>
<speed>2.020000</speed>
</trkpt>
<trkpt lat="55.922539" lon="26.505819">
<ele>100.547913</ele>
<time>2010-06-20T07:48:41Z</time>
<desc>lat.=55.922539, lon.=26.505819, Alt.=100.547913m. Speed=9.360000m/h.</desc>
<speed>2.600000</speed>
</trkpt>
<trkpt lat="55.922577" lon="26.505816">
<ele>99.430725</ele>
<time>2010-06-20T07:48:42Z</time>
<desc>lat.=55.922577, lon.=26.505816, Alt.=99.430725m. Speed=9.432000m/h.</desc>
<speed>2.620000</speed>
</trkpt>
<trkpt lat="55.922607" lon="26.505817">
<ele>98.385803</ele>
<time>2010-06-20T07:48:43Z</time>
<desc>lat.=55.922607, lon.=26.505817, Alt.=98.385803m. Speed=7.452000m/h.</desc>
<speed>2.070000</speed>
</trkpt>
<trkpt lat="55.922634" lon="26.505812">
<ele>98.196350</ele>
<time>2010-06-20T07:48:44Z</time>
<desc>lat.=55.922634, lon.=26.505812, Alt.=98.196350m. Speed=8.820000m/h.</desc>
<speed>2.450000</speed>
</trkpt>
<trkpt lat="55.922657" lon="26.505819">
<ele>97.952209</ele>
<time>2010-06-20T07:48:45Z</time>
<desc>lat.=55.922657, lon.=26.505819, Alt.=97.952209m. Speed=7.056000m/h.</desc>
<speed>1.960000</speed>
</trkpt>
<trkpt lat="55.922676" lon="26.505825">
<ele>97.952209</ele>
<time>2010-06-20T07:48:46Z</time>
<desc>lat.=55.922676, lon.=26.505825, Alt.=97.952209m. Speed=5.508000m/h.</desc>
<speed>1.530000</speed>
</trkpt>
<trkpt lat="55.922691" lon="26.505833">
<ele>97.719788</ele>
<time>2010-06-20T07:48:47Z</time>
<desc>lat.=55.922691, lon.=26.505833, Alt.=97.719788m. Speed=4.248000m/h.</desc>
<speed>1.180000</speed>
</trkpt>
<trkpt lat="55.922714" lon="26.505835">
<ele>97.438538</ele>
<time>2010-06-20T07:48:48Z</time>
<desc>lat.=55.922714, lon.=26.505835, Alt.=97.438538m. Speed=5.220000m/h.</desc>
<speed>1.450000</speed>
</trkpt>
<trkpt lat="55.922733" lon="26.505844">
<ele>97.299866</ele>
<time>2010-06-20T07:48:49Z</time>
<desc>lat.=55.922733, lon.=26.505844, Alt.=97.299866m. Speed=5.904000m/h.</desc>
<speed>1.640000</speed>
</trkpt>
<trkpt lat="55.922752" lon="26.505854">
<ele>97.264709</ele>
<time>2010-06-20T07:48:50Z</time>
<desc>lat.=55.922752, lon.=26.505854, Alt.=97.264709m. Speed=5.868000m/h.</desc>
<speed>1.630000</speed>
</trkpt>
<trkpt lat="55.922771" lon="26.505865">
<ele>97.192444</ele>
<time>2010-06-20T07:48:51Z</time>
<desc>lat.=55.922771, lon.=26.505865, Alt.=97.192444m. Speed=7.596000m/h.</desc>
<speed>2.110000</speed>
</trkpt>
<trkpt lat="55.922802" lon="26.505867">
<ele>97.196350</ele>
<time>2010-06-20T07:48:52Z</time>
<desc>lat.=55.922802, lon.=26.505867, Alt.=97.196350m. Speed=7.812000m/h.</desc>
<speed>2.170000</speed>
</trkpt>
<trkpt lat="55.922829" lon="26.505857">
<ele>96.696350</ele>
<time>2010-06-20T07:48:53Z</time>
<desc>lat.=55.922829, lon.=26.505857, Alt.=96.696350m. Speed=7.560000m/h.</desc>
<speed>2.100000</speed>
</trkpt>
<trkpt lat="55.922848" lon="26.505857">
<ele>96.577209</ele>
<time>2010-06-20T07:48:54Z</time>
<desc>lat.=55.922848, lon.=26.505857, Alt.=96.577209m. Speed=6.948000m/h.</desc>
<speed>1.930000</speed>
</trkpt>
<trkpt lat="55.922874" lon="26.505856">
<ele>96.436584</ele>
<time>2010-06-20T07:48:55Z</time>
<desc>lat.=55.922874, lon.=26.505856, Alt.=96.436584m. Speed=6.984000m/h.</desc>
<speed>1.940000</speed>
</trkpt>
<trkpt lat="55.922897" lon="26.505850">
<ele>96.467834</ele>
<time>2010-06-20T07:48:56Z</time>
<desc>lat.=55.922897, lon.=26.505850, Alt.=96.467834m. Speed=6.264000m/h.</desc>
<speed>1.740000</speed>
</trkpt>
<trkpt lat="55.922928" lon="26.505846">
<ele>96.641663</ele>
<time>2010-06-20T07:48:57Z</time>
<desc>lat.=55.922928, lon.=26.505846, Alt.=96.641663m. Speed=8.280000m/h.</desc>
<speed>2.300000</speed>
</trkpt>
<trkpt lat="55.922958" lon="26.505844">
<ele>96.411194</ele>
<time>2010-06-20T07:48:58Z</time>
<desc>lat.=55.922958, lon.=26.505844, Alt.=96.411194m. Speed=8.928000m/h.</desc>
<speed>2.480000</speed>
</trkpt>
<trkpt lat="55.922997" lon="26.505835">
<ele>95.907288</ele>
<time>2010-06-20T07:48:59Z</time>
<desc>lat.=55.922997, lon.=26.505835, Alt.=95.907288m. Speed=8.532000m/h.</desc>
<speed>2.370000</speed>
</trkpt>
<trkpt lat="55.923019" lon="26.505829">
<ele>96.010803</ele>
<time>2010-06-20T07:49:00Z</time>
<desc>lat.=55.923019, lon.=26.505829, Alt.=96.010803m. Speed=7.056000m/h.</desc>
<speed>1.960000</speed>
</trkpt>
<trkpt lat="55.923054" lon="26.505821">
<ele>96.042053</ele>
<time>2010-06-20T07:49:01Z</time>
<desc>lat.=55.923054, lon.=26.505821, Alt.=96.042053m. Speed=7.092000m/h.</desc>
<speed>1.970000</speed>
</trkpt>
<trkpt lat="55.923080" lon="26.505817">
<ele>95.950256</ele>
<time>2010-06-20T07:49:02Z</time>
<desc>lat.=55.923080, lon.=26.505817, Alt.=95.950256m. Speed=6.552000m/h.</desc>
<speed>1.820000</speed>
</trkpt>
<trkpt lat="55.923111" lon="26.505831">
<ele>95.833069</ele>
<time>2010-06-20T07:49:03Z</time>
<desc>lat.=55.923111, lon.=26.505831, Alt.=95.833069m. Speed=7.452000m/h.</desc>
<speed>2.070000</speed>
</trkpt>
<trkpt lat="55.923176" lon="26.505909">
<ele>94.674866</ele>
<time>2010-06-20T07:49:04Z</time>
<desc>lat.=55.923176, lon.=26.505909, Alt.=94.674866m. Speed=10.080000m/h.</desc>
<speed>2.800000</speed>
</trkpt>
<trkpt lat="55.923210" lon="26.505917">
<ele>94.653381</ele>
<time>2010-06-20T07:49:05Z</time>
<desc>lat.=55.923210, lon.=26.505917, Alt.=94.653381m. Speed=9.864000m/h.</desc>
<speed>2.740000</speed>
</trkpt>
<trkpt lat="55.923264" lon="26.505939">
<ele>94.044006</ele>
<time>2010-06-20T07:49:06Z</time>
<desc>lat.=55.923264, lon.=26.505939, Alt.=94.044006m. Speed=10.584000m/h.</desc>
<speed>2.940000</speed>
</trkpt>
<trkpt lat="55.923317" lon="26.505939">
<ele>94.379944</ele>
<time>2010-06-20T07:49:07Z</time>
<desc>lat.=55.923317, lon.=26.505939, Alt.=94.379944m. Speed=10.044000m/h.</desc>
<speed>2.790000</speed>
</trkpt>
<trkpt lat="55.923340" lon="26.505941">
<ele>94.245178</ele>
<time>2010-06-20T07:49:08Z</time>
<desc>lat.=55.923340, lon.=26.505941, Alt.=94.245178m. Speed=11.232000m/h.</desc>
<speed>3.120000</speed>
</trkpt>
<trkpt lat="55.923386" lon="26.505945">
<ele>94.327209</ele>
<time>2010-06-20T07:49:09Z</time>
<desc>lat.=55.923386, lon.=26.505945, Alt.=94.327209m. Speed=9.180000m/h.</desc>
<speed>2.550000</speed>
</trkpt>
<trkpt lat="55.923420" lon="26.505959">
<ele>93.794006</ele>
<time>2010-06-20T07:49:10Z</time>
<desc>lat.=55.923420, lon.=26.505959, Alt.=93.794006m. Speed=11.520000m/h.</desc>
<speed>3.200000</speed>
</trkpt>
<trkpt lat="55.923458" lon="26.505957">
<ele>93.979553</ele>
<time>2010-06-20T07:49:11Z</time>
<desc>lat.=55.923458, lon.=26.505957, Alt.=93.979553m. Speed=7.956000m/h.</desc>
<speed>2.210000</speed>
</trkpt>
<trkpt lat="55.923485" lon="26.505955">
<ele>93.801819</ele>
<time>2010-06-20T07:49:12Z</time>
<desc>lat.=55.923485, lon.=26.505955, Alt.=93.801819m. Speed=6.912000m/h.</desc>
<speed>1.920000</speed>
</trkpt>
<trkpt lat="55.923512" lon="26.505953">
<ele>93.721741</ele>
<time>2010-06-20T07:49:13Z</time>
<desc>lat.=55.923512, lon.=26.505953, Alt.=93.721741m. Speed=5.940000m/h.</desc>
<speed>1.650000</speed>
</trkpt>
<trkpt lat="55.923542" lon="26.505936">
<ele>95.127991</ele>
<time>2010-06-20T07:49:14Z</time>
<desc>lat.=55.923542, lon.=26.505936, Alt.=95.127991m. Speed=5.040000m/h.</desc>
<speed>1.400000</speed>
</trkpt>
<trkpt lat="55.923573" lon="26.505907">
<ele>95.866272</ele>
<time>2010-06-20T07:49:15Z</time>
<desc>lat.=55.923573, lon.=26.505907, Alt.=95.866272m. Speed=5.580000m/h.</desc>
<speed>1.550000</speed>
</trkpt>
<trkpt lat="55.923607" lon="26.505905">
<ele>96.188538</ele>
<time>2010-06-20T07:49:16Z</time>
<desc>lat.=55.923607, lon.=26.505905, Alt.=96.188538m. Speed=9.000000m/h.</desc>
<speed>2.500000</speed>
</trkpt>
<trkpt lat="55.923653" lon="26.505890">
<ele>97.098694</ele>
<time>2010-06-20T07:49:17Z</time>
<desc>lat.=55.923653, lon.=26.505890, Alt.=97.098694m. Speed=11.088000m/h.</desc>
<speed>3.080000</speed>
</trkpt>
<trkpt lat="55.923698" lon="26.505896">
<ele>98.444397</ele>
<time>2010-06-20T07:49:18Z</time>
<desc>lat.=55.923698, lon.=26.505896, Alt.=98.444397m. Speed=9.144000m/h.</desc>
<speed>2.540000</speed>
</trkpt>
<trkpt lat="55.923740" lon="26.505898">
<ele>100.075256</ele>
<time>2010-06-20T07:49:19Z</time>
<desc>lat.=55.923740, lon.=26.505898, Alt.=100.075256m. Speed=7.956000m/h.</desc>
<speed>2.210000</speed>
</trkpt>
<trkpt lat="55.923782" lon="26.505899">
<ele>101.795959</ele>
<time>2010-06-20T07:49:20Z</time>
<desc>lat.=55.923782, lon.=26.505899, Alt.=101.795959m. Speed=7.452000m/h.</desc>
<speed>2.070000</speed>
</trkpt>
<trkpt lat="55.923813" lon="26.505903">
<ele>102.262756</ele>
<time>2010-06-20T07:49:21Z</time>
<desc>lat.=55.923813, lon.=26.505903, Alt.=102.262756m. Speed=7.524000m/h.</desc>
<speed>2.090000</speed>
</trkpt>
<trkpt lat="55.923843" lon="26.505911">
<ele>101.948303</ele>
<time>2010-06-20T07:49:22Z</time>
<desc>lat.=55.923843, lon.=26.505911, Alt.=101.948303m. Speed=7.920000m/h.</desc>
<speed>2.200000</speed>
</trkpt>
<trkpt lat="55.923923" lon="26.505941">
<ele>104.336975</ele>
<time>2010-06-20T07:49:23Z</time>
<desc>lat.=55.923923, lon.=26.505941, Alt.=104.336975m. Speed=8.964000m/h.</desc>
<speed>2.490000</speed>
</trkpt>
<trkpt lat="55.923958" lon="26.505951">
<ele>105.188538</ele>
<time>2010-06-20T07:49:24Z</time>
<desc>lat.=55.923958, lon.=26.505951, Alt.=105.188538m. Speed=7.704000m/h.</desc>
<speed>2.140000</speed>
</trkpt>
<trkpt lat="55.923977" lon="26.505957">
<ele>105.100647</ele>
<time>2010-06-20T07:49:25Z</time>
<desc>lat.=55.923977, lon.=26.505957, Alt.=105.100647m. Speed=7.596000m/h.</desc>
<speed>2.110000</speed>
</trkpt>
<trkpt lat="55.924015" lon="26.505964">
<ele>105.460022</ele>
<time>2010-06-20T07:49:26Z</time>
<desc>lat.=55.924015, lon.=26.505964, Alt.=105.460022m. Speed=8.676000m/h.</desc>
<speed>2.410000</speed>
</trkpt>
<trkpt lat="55.924065" lon="26.505983">
<ele>106.061584</ele>
<time>2010-06-20T07:49:27Z</time>
<desc>lat.=55.924065, lon.=26.505983, Alt.=106.061584m. Speed=8.820000m/h.</desc>
<speed>2.450000</speed>
</trkpt>
<trkpt lat="55.924103" lon="26.505999">
<ele>107.487366</ele>
<time>2010-06-20T07:49:28Z</time>
<desc>lat.=55.924103, lon.=26.505999, Alt.=107.487366m. Speed=8.604000m/h.</desc>
<speed>2.390000</speed>
</trkpt>
<trkpt lat="55.924152" lon="26.506012">
<ele>108.715881</ele>
<time>2010-06-20T07:49:29Z</time>
<desc>lat.=55.924152, lon.=26.506012, Alt.=108.715881m. Speed=14.652000m/h.</desc>
<speed>4.070000</speed>
</trkpt>
<trkpt lat="55.924202" lon="26.506025">
<ele>109.110413</ele>
<time>2010-06-20T07:49:30Z</time>
<desc>lat.=55.924202, lon.=26.506025, Alt.=109.110413m. Speed=14.976000m/h.</desc>
<speed>4.160000</speed>
</trkpt>
<trkpt lat="55.924255" lon="26.506041">
<ele>109.950256</ele>
<time>2010-06-20T07:49:31Z</time>
<desc>lat.=55.924255, lon.=26.506041, Alt.=109.950256m. Speed=14.616000m/h.</desc>
<speed>4.060000</speed>
</trkpt>
<trkpt lat="55.924301" lon="26.506052">
<ele>110.278381</ele>
<time>2010-06-20T07:49:32Z</time>
<desc>lat.=55.924301, lon.=26.506052, Alt.=110.278381m. Speed=14.184000m/h.</desc>
<speed>3.940000</speed>
</trkpt>
<trkpt lat="55.924339" lon="26.506062">
<ele>111.065491</ele>
<time>2010-06-20T07:49:33Z</time>
<desc>lat.=55.924339, lon.=26.506062, Alt.=111.065491m. Speed=10.728000m/h.</desc>
<speed>2.980000</speed>
</trkpt>
<trkpt lat="55.924366" lon="26.506063">
<ele>111.545959</ele>
<time>2010-06-20T07:49:34Z</time>
<desc>lat.=55.924366, lon.=26.506063, Alt.=111.545959m. Speed=8.604000m/h.</desc>
<speed>2.390000</speed>
</trkpt>
<trkpt lat="55.924397" lon="26.506062">
<ele>112.301819</ele>
<time>2010-06-20T07:49:35Z</time>
<desc>lat.=55.924397, lon.=26.506062, Alt.=112.301819m. Speed=10.368000m/h.</desc>
<speed>2.880000</speed>
</trkpt>
<trkpt lat="55.924431" lon="26.506083">
<ele>113.774475</ele>
<time>2010-06-20T07:49:36Z</time>
<desc>lat.=55.924431, lon.=26.506083, Alt.=113.774475m. Speed=10.620000m/h.</desc>
<speed>2.950000</speed>
</trkpt>
<trkpt lat="55.924458" lon="26.506096">
<ele>114.430725</ele>
<time>2010-06-20T07:49:37Z</time>
<desc>lat.=55.924458, lon.=26.506096, Alt.=114.430725m. Speed=14.112000m/h.</desc>
<speed>3.920000</speed>
</trkpt>
<trkpt lat="55.924496" lon="26.506124">
<ele>114.362366</ele>
<time>2010-06-20T07:49:38Z</time>
<desc>lat.=55.924496, lon.=26.506124, Alt.=114.362366m. Speed=12.420000m/h.</desc>
<speed>3.450000</speed>
</trkpt>
<trkpt lat="55.924530" lon="26.506149">
<ele>115.196350</ele>
<time>2010-06-20T07:49:39Z</time>
<desc>lat.=55.924530, lon.=26.506149, Alt.=115.196350m. Speed=11.808000m/h.</desc>
<speed>3.280000</speed>
</trkpt>
<trkpt lat="55.924553" lon="26.506168">
<ele>115.715881</ele>
<time>2010-06-20T07:49:40Z</time>
<desc>lat.=55.924553, lon.=26.506168, Alt.=115.715881m. Speed=8.856000m/h.</desc>
<speed>2.460000</speed>
</trkpt>
<trkpt lat="55.924576" lon="26.506187">
<ele>115.856506</ele>
<time>2010-06-20T07:49:41Z</time>
<desc>lat.=55.924576, lon.=26.506187, Alt.=115.856506m. Speed=6.984000m/h.</desc>
<speed>1.940000</speed>
</trkpt>
<trkpt lat="55.924599" lon="26.506205">
<ele>116.245178</ele>
<time>2010-06-20T07:49:42Z</time>
<desc>lat.=55.924599, lon.=26.506205, Alt.=116.245178m. Speed=7.164000m/h.</desc>
<speed>1.990000</speed>
</trkpt>
<trkpt lat="55.924622" lon="26.506235">
<ele>116.881897</ele>
<time>2010-06-20T07:49:43Z</time>
<desc>lat.=55.924622, lon.=26.506235, Alt.=116.881897m. Speed=7.920000m/h.</desc>
<speed>2.200000</speed>
</trkpt>
<trkpt lat="55.924644" lon="26.506260">
<ele>117.249084</ele>
<time>2010-06-20T07:49:44Z</time>
<desc>lat.=55.924644, lon.=26.506260, Alt.=117.249084m. Speed=7.596000m/h.</desc>
<speed>2.110000</speed>
</trkpt>
<trkpt lat="55.924667" lon="26.506287">
<ele>117.286194</ele>
<time>2010-06-20T07:49:45Z</time>
<desc>lat.=55.924667, lon.=26.506287, Alt.=117.286194m. Speed=7.200000m/h.</desc>
<speed>2.000000</speed>
</trkpt>
<trkpt lat="55.924706" lon="26.506311">
<ele>116.198303</ele>
<time>2010-06-20T07:49:46Z</time>
<desc>lat.=55.924706, lon.=26.506311, Alt.=116.198303m. Speed=10.044000m/h.</desc>
<speed>2.790000</speed>
</trkpt>
<trkpt lat="55.924759" lon="26.506351">
<ele>114.282288</ele>
<time>2010-06-20T07:49:47Z</time>
<desc>lat.=55.924759, lon.=26.506351, Alt.=114.282288m. Speed=13.104000m/h.</desc>
<speed>3.640000</speed>
</trkpt>
<trkpt lat="55.924789" lon="26.506386">
<ele>114.178772</ele>
<time>2010-06-20T07:49:48Z</time>
<desc>lat.=55.924789, lon.=26.506386, Alt.=114.178772m. Speed=11.232000m/h.</desc>
<speed>3.120000</speed>
</trkpt>
<trkpt lat="55.924816" lon="26.506430">
<ele>114.227600</ele>
<time>2010-06-20T07:49:49Z</time>
<desc>lat.=55.924816, lon.=26.506430, Alt.=114.227600m. Speed=11.952000m/h.</desc>
<speed>3.320000</speed>
</trkpt>
<trkpt lat="55.924843" lon="26.506464">
<ele>113.835022</ele>
<time>2010-06-20T07:49:50Z</time>
<desc>lat.=55.924843, lon.=26.506464, Alt.=113.835022m. Speed=9.540000m/h.</desc>
<speed>2.650000</speed>
</trkpt>
<trkpt lat="55.924866" lon="26.506496">
<ele>113.557678</ele>
<time>2010-06-20T07:49:51Z</time>
<desc>lat.=55.924866, lon.=26.506496, Alt.=113.557678m. Speed=6.588000m/h.</desc>
<speed>1.830000</speed>
</trkpt>
<trkpt lat="55.924885" lon="26.506529">
<ele>113.807678</ele>
<time>2010-06-20T07:49:52Z</time>
<desc>lat.=55.924885, lon.=26.506529, Alt.=113.807678m. Speed=6.696000m/h.</desc>
<speed>1.860000</speed>
</trkpt>
<trkpt lat="55.924904" lon="26.506561">
<ele>114.157288</ele>
<time>2010-06-20T07:49:53Z</time>
<desc>lat.=55.924904, lon.=26.506561, Alt.=114.157288m. Speed=5.328000m/h.</desc>
<speed>1.480000</speed>
</trkpt>
<trkpt lat="55.924927" lon="26.506601">
<ele>114.196350</ele>
<time>2010-06-20T07:49:54Z</time>
<desc>lat.=55.924927, lon.=26.506601, Alt.=114.196350m. Speed=6.516000m/h.</desc>
<speed>1.810000</speed>
</trkpt>
<trkpt lat="55.924953" lon="26.506645">
<ele>114.149475</ele>
<time>2010-06-20T07:49:55Z</time>
<desc>lat.=55.924953, lon.=26.506645, Alt.=114.149475m. Speed=6.264000m/h.</desc>
<speed>1.740000</speed>
</trkpt>
<trkpt lat="55.924980" lon="26.506680">
<ele>114.249084</ele>
<time>2010-06-20T07:49:56Z</time>
<desc>lat.=55.924980, lon.=26.506680, Alt.=114.249084m. Speed=7.164000m/h.</desc>
<speed>1.990000</speed>
</trkpt>
<trkpt lat="55.924995" lon="26.506718">
<ele>114.446350</ele>
<time>2010-06-20T07:49:57Z</time>
<desc>lat.=55.924995, lon.=26.506718, Alt.=114.446350m. Speed=7.992000m/h.</desc>
<speed>2.220000</speed>
</trkpt>
<trkpt lat="55.925014" lon="26.506760">
<ele>114.532288</ele>
<time>2010-06-20T07:49:58Z</time>
<desc>lat.=55.925014, lon.=26.506760, Alt.=114.532288m. Speed=8.316000m/h.</desc>
<speed>2.310000</speed>
</trkpt>
<trkpt lat="55.925037" lon="26.506817">
<ele>114.575256</ele>
<time>2010-06-20T07:49:59Z</time>
<desc>lat.=55.925037, lon.=26.506817, Alt.=114.575256m. Speed=9.864000m/h.</desc>
<speed>2.740000</speed>
</trkpt>
<trkpt lat="55.925056" lon="26.506866">
<ele>114.840881</ele>
<time>2010-06-20T07:50:00Z</time>
<desc>lat.=55.925056, lon.=26.506866, Alt.=114.840881m. Speed=11.304000m/h.</desc>
<speed>3.140000</speed>
</trkpt>
<trkpt lat="55.925072" lon="26.506907">
<ele>115.206116</ele>
<time>2010-06-20T07:50:01Z</time>
<desc>lat.=55.925072, lon.=26.506907, Alt.=115.206116m. Speed=11.988000m/h.</desc>
<speed>3.330000</speed>
</trkpt>
<trkpt lat="55.925121" lon="26.506998">
<ele>114.149475</ele>
<time>2010-06-20T07:50:02Z</time>
<desc>lat.=55.925121, lon.=26.506998, Alt.=114.149475m. Speed=10.584000m/h.</desc>
<speed>2.940000</speed>
</trkpt>
<trkpt lat="55.925144" lon="26.507038">
<ele>114.383850</ele>
<time>2010-06-20T07:50:03Z</time>
<desc>lat.=55.925144, lon.=26.507038, Alt.=114.383850m. Speed=8.028000m/h.</desc>
<speed>2.230000</speed>
</trkpt>
<trkpt lat="55.925179" lon="26.507082">
<ele>114.135803</ele>
<time>2010-06-20T07:50:04Z</time>
<desc>lat.=55.925179, lon.=26.507082, Alt.=114.135803m. Speed=8.856000m/h.</desc>
<speed>2.460000</speed>
</trkpt>
<trkpt lat="55.925205" lon="26.507130">
<ele>113.862366</ele>
<time>2010-06-20T07:50:05Z</time>
<desc>lat.=55.925205, lon.=26.507130, Alt.=113.862366m. Speed=10.152000m/h.</desc>
<speed>2.820000</speed>
</trkpt>
<trkpt lat="55.925224" lon="26.507166">
<ele>114.040100</ele>
<time>2010-06-20T07:50:06Z</time>
<desc>lat.=55.925224, lon.=26.507166, Alt.=114.040100m. Speed=9.900000m/h.</desc>
<speed>2.750000</speed>
</trkpt>
<trkpt lat="55.925247" lon="26.507212">
<ele>114.661194</ele>
<time>2010-06-20T07:50:07Z</time>
<desc>lat.=55.925247, lon.=26.507212, Alt.=114.661194m. Speed=7.668000m/h.</desc>
<speed>2.130000</speed>
</trkpt>
<trkpt lat="55.925259" lon="26.507244">
<ele>115.059631</ele>
<time>2010-06-20T07:50:08Z</time>
<desc>lat.=55.925259, lon.=26.507244, Alt.=115.059631m. Speed=6.516000m/h.</desc>
<speed>1.810000</speed>
</trkpt>
<trkpt lat="55.925282" lon="26.507296">
<ele>115.315491</ele>
<time>2010-06-20T07:50:09Z</time>
<desc>lat.=55.925282, lon.=26.507296, Alt.=115.315491m. Speed=9.180000m/h.</desc>
<speed>2.550000</speed>
</trkpt>
<trkpt lat="55.925293" lon="26.507357">
<ele>115.647522</ele>
<time>2010-06-20T07:50:10Z</time>
<desc>lat.=55.925293, lon.=26.507357, Alt.=115.647522m. Speed=8.712000m/h.</desc>
<speed>2.420000</speed>
</trkpt>
<trkpt lat="55.925293" lon="26.507431">
<ele>115.573303</ele>
<time>2010-06-20T07:50:11Z</time>
<desc>lat.=55.925293, lon.=26.507431, Alt.=115.573303m. Speed=10.404000m/h.</desc>
<speed>2.890000</speed>
</trkpt>
<trkpt lat="55.925304" lon="26.507481">
<ele>115.940491</ele>
<time>2010-06-20T07:50:12Z</time>
<desc>lat.=55.925304, lon.=26.507481, Alt.=115.940491m. Speed=7.308000m/h.</desc>
<speed>2.030000</speed>
</trkpt>
<trkpt lat="55.925308" lon="26.507540">
<ele>115.917053</ele>
<time>2010-06-20T07:50:13Z</time>
<desc>lat.=55.925308, lon.=26.507540, Alt.=115.917053m. Speed=7.632000m/h.</desc>
<speed>2.120000</speed>
</trkpt>
<trkpt lat="55.925335" lon="26.507580">
<ele>116.153381</ele>
<time>2010-06-20T07:50:14Z</time>
<desc>lat.=55.925335, lon.=26.507580, Alt.=116.153381m. Speed=9.252000m/h.</desc>
<speed>2.570000</speed>
</trkpt>
<trkpt lat="55.925354" lon="26.507605">
<ele>116.571350</ele>
<time>2010-06-20T07:50:15Z</time>
<desc>lat.=55.925354, lon.=26.507605, Alt.=116.571350m. Speed=5.400000m/h.</desc>
<speed>1.500000</speed>
</trkpt>
<trkpt lat="55.925365" lon="26.507624">
<ele>117.012756</ele>
<time>2010-06-20T07:50:16Z</time>
<desc>lat.=55.925365, lon.=26.507624, Alt.=117.012756m. Speed=4.572000m/h.</desc>
<speed>1.270000</speed>
</trkpt>
<trkpt lat="55.925377" lon="26.507664">
<ele>117.567444</ele>
<time>2010-06-20T07:50:17Z</time>
<desc>lat.=55.925377, lon.=26.507664, Alt.=117.567444m. Speed=5.580000m/h.</desc>
<speed>1.550000</speed>
</trkpt>
<trkpt lat="55.925392" lon="26.507690">
<ele>118.208069</ele>
<time>2010-06-20T07:50:18Z</time>
<desc>lat.=55.925392, lon.=26.507690, Alt.=118.208069m. Speed=5.256000m/h.</desc>
<speed>1.460000</speed>
</trkpt>
<trkpt lat="55.925400" lon="26.507715">
<ele>118.475647</ele>
<time>2010-06-20T07:50:19Z</time>
<desc>lat.=55.925400, lon.=26.507715, Alt.=118.475647m. Speed=4.500000m/h.</desc>
<speed>1.250000</speed>
</trkpt>
<trkpt lat="55.925415" lon="26.507759">
<ele>119.100647</ele>
<time>2010-06-20T07:50:20Z</time>
<desc>lat.=55.925415, lon.=26.507759, Alt.=119.100647m. Speed=6.372000m/h.</desc>
<speed>1.770000</speed>
</trkpt>
<trkpt lat="55.925430" lon="26.507786">
<ele>119.754944</ele>
<time>2010-06-20T07:50:21Z</time>
<desc>lat.=55.925430, lon.=26.507786, Alt.=119.754944m. Speed=4.464000m/h.</desc>
<speed>1.240000</speed>
</trkpt>
<trkpt lat="55.925442" lon="26.507814">
<ele>120.454163</ele>
<time>2010-06-20T07:50:22Z</time>
<desc>lat.=55.925442, lon.=26.507814, Alt.=120.454163m. Speed=4.428000m/h.</desc>
<speed>1.230000</speed>
</trkpt>
<trkpt lat="55.925461" lon="26.507841">
<ele>121.172913</ele>
<time>2010-06-20T07:50:23Z</time>
<desc>lat.=55.925461, lon.=26.507841, Alt.=121.172913m. Speed=4.464000m/h.</desc>
<speed>1.240000</speed>
</trkpt>
<trkpt lat="55.925472" lon="26.507872">
<ele>121.288147</ele>
<time>2010-06-20T07:50:24Z</time>
<desc>lat.=55.925472, lon.=26.507872, Alt.=121.288147m. Speed=5.436000m/h.</desc>
<speed>1.510000</speed>
</trkpt>
<trkpt lat="55.925491" lon="26.507896">
<ele>121.926819</ele>
<time>2010-06-20T07:50:25Z</time>
<desc>lat.=55.925491, lon.=26.507896, Alt.=121.926819m. Speed=4.824000m/h.</desc>
<speed>1.340000</speed>
</trkpt>
<trkpt lat="55.925507" lon="26.507919">
<ele>122.520569</ele>
<time>2010-06-20T07:50:26Z</time>
<desc>lat.=55.925507, lon.=26.507919, Alt.=122.520569m. Speed=4.320000m/h.</desc>
<speed>1.200000</speed>
</trkpt>
<trkpt lat="55.925526" lon="26.507944">
<ele>123.042053</ele>
<time>2010-06-20T07:50:27Z</time>
<desc>lat.=55.925526, lon.=26.507944, Alt.=123.042053m. Speed=4.536000m/h.</desc>
<speed>1.260000</speed>
</trkpt>
<trkpt lat="55.925545" lon="26.507969">
<ele>123.604553</ele>
<time>2010-06-20T07:50:28Z</time>
<desc>lat.=55.925545, lon.=26.507969, Alt.=123.604553m. Speed=3.924000m/h.</desc>
<speed>1.090000</speed>
</trkpt>
<trkpt lat="55.925568" lon="26.507992">
<ele>123.999084</ele>
<time>2010-06-20T07:50:29Z</time>
<desc>lat.=55.925568, lon.=26.507992, Alt.=123.999084m. Speed=4.824000m/h.</desc>
<speed>1.340000</speed>
</trkpt>
<trkpt lat="55.925591" lon="26.508022">
<ele>124.348694</ele>
<time>2010-06-20T07:50:30Z</time>
<desc>lat.=55.925591, lon.=26.508022, Alt.=124.348694m. Speed=3.780000m/h.</desc>
<speed>1.050000</speed>
</trkpt>
<trkpt lat="55.925610" lon="26.508047">
<ele>124.948303</ele>
<time>2010-06-20T07:50:31Z</time>
<desc>lat.=55.925610, lon.=26.508047, Alt.=124.948303m. Speed=5.112000m/h.</desc>
<speed>1.420000</speed>
</trkpt>
<trkpt lat="55.925644" lon="26.508066">
<ele>124.223694</ele>
<time>2010-06-20T07:50:32Z</time>
<desc>lat.=55.925644, lon.=26.508066, Alt.=124.223694m. Speed=4.464000m/h.</desc>
<speed>1.240000</speed>
</trkpt>
<trkpt lat="55.925701" lon="26.508125">
<ele>123.252991</ele>
<time>2010-06-20T07:50:33Z</time>
<desc>lat.=55.925701, lon.=26.508125, Alt.=123.252991m. Speed=5.364000m/h.</desc>
<speed>1.490000</speed>
</trkpt>
<trkpt lat="55.925755" lon="26.508179">
<ele>122.854553</ele>
<time>2010-06-20T07:50:34Z</time>
<desc>lat.=55.925755, lon.=26.508179, Alt.=122.854553m. Speed=6.804000m/h.</desc>
<speed>1.890000</speed>
</trkpt>
<trkpt lat="55.925781" lon="26.508202">
<ele>123.295959</ele>
<time>2010-06-20T07:50:35Z</time>
<desc>lat.=55.925781, lon.=26.508202, Alt.=123.295959m. Speed=7.344000m/h.</desc>
<speed>2.040000</speed>
</trkpt>
<trkpt lat="55.925812" lon="26.508234">
<ele>123.497131</ele>
<time>2010-06-20T07:50:36Z</time>
<desc>lat.=55.925812, lon.=26.508234, Alt.=123.497131m. Speed=7.488000m/h.</desc>
<speed>2.080000</speed>
</trkpt>
<trkpt lat="55.925854" lon="26.508266">
<ele>123.282288</ele>
<time>2010-06-20T07:50:37Z</time>
<desc>lat.=55.925854, lon.=26.508266, Alt.=123.282288m. Speed=6.984000m/h.</desc>
<speed>1.940000</speed>
</trkpt>
<trkpt lat="55.925884" lon="26.508280">
<ele>123.983459</ele>
<time>2010-06-20T07:50:38Z</time>
<desc>lat.=55.925884, lon.=26.508280, Alt.=123.983459m. Speed=4.536000m/h.</desc>
<speed>1.260000</speed>
</trkpt>
<trkpt lat="55.925907" lon="26.508286">
<ele>124.344788</ele>
<time>2010-06-20T07:50:39Z</time>
<desc>lat.=55.925907, lon.=26.508286, Alt.=124.344788m. Speed=4.428000m/h.</desc>
<speed>1.230000</speed>
</trkpt>
<trkpt lat="55.925926" lon="26.508293">
<ele>124.526428</ele>
<time>2010-06-20T07:50:40Z</time>
<desc>lat.=55.925926, lon.=26.508293, Alt.=124.526428m. Speed=3.780000m/h.</desc>
<speed>1.050000</speed>
</trkpt>
<trkpt lat="55.925949" lon="26.508307">
<ele>124.690491</ele>
<time>2010-06-20T07:50:41Z</time>
<desc>lat.=55.925949, lon.=26.508307, Alt.=124.690491m. Speed=5.796000m/h.</desc>
<speed>1.610000</speed>
</trkpt>
<trkpt lat="55.925980" lon="26.508312">
<ele>124.971741</ele>
<time>2010-06-20T07:50:42Z</time>
<desc>lat.=55.925980, lon.=26.508312, Alt.=124.971741m. Speed=4.356000m/h.</desc>
<speed>1.210000</speed>
</trkpt>
<trkpt lat="55.925999" lon="26.508326">
<ele>125.528381</ele>
<time>2010-06-20T07:50:43Z</time>
<desc>lat.=55.925999, lon.=26.508326, Alt.=125.528381m. Speed=4.068000m/h.</desc>
<speed>1.130000</speed>
</trkpt>
<trkpt lat="55.926018" lon="26.508333">
<ele>126.034241</ele>
<time>2010-06-20T07:50:44Z</time>
<desc>lat.=55.926018, lon.=26.508333, Alt.=126.034241m. Speed=3.672000m/h.</desc>
<speed>1.020000</speed>
</trkpt>
<trkpt lat="55.926052" lon="26.508335">
<ele>126.588928</ele>
<time>2010-06-20T07:50:45Z</time>
<desc>lat.=55.926052, lon.=26.508335, Alt.=126.588928m. Speed=6.192000m/h.</desc>
<speed>1.720000</speed>
</trkpt>
<trkpt lat="55.926079" lon="26.508343">
<ele>127.178772</ele>
<time>2010-06-20T07:50:46Z</time>
<desc>lat.=55.926079, lon.=26.508343, Alt.=127.178772m. Speed=4.680000m/h.</desc>
<speed>1.300000</speed>
</trkpt>
<trkpt lat="55.926113" lon="26.508343">
<ele>125.317444</ele>
<time>2010-06-20T07:50:47Z</time>
<desc>lat.=55.926113, lon.=26.508343, Alt.=125.317444m. Speed=5.292000m/h.</desc>
<speed>1.470000</speed>
</trkpt>
<trkpt lat="55.926144" lon="26.508358">
<ele>125.624084</ele>
<time>2010-06-20T07:50:48Z</time>
<desc>lat.=55.926144, lon.=26.508358, Alt.=125.624084m. Speed=6.804000m/h.</desc>
<speed>1.890000</speed>
</trkpt>
<trkpt lat="55.926167" lon="26.508366">
<ele>125.995178</ele>
<time>2010-06-20T07:50:49Z</time>
<desc>lat.=55.926167, lon.=26.508366, Alt.=125.995178m. Speed=4.536000m/h.</desc>
<speed>1.260000</speed>
</trkpt>
<trkpt lat="55.926208" lon="26.508410">
<ele>125.838928</ele>
<time>2010-06-20T07:50:50Z</time>
<desc>lat.=55.926208, lon.=26.508410, Alt.=125.838928m. Speed=7.632000m/h.</desc>
<speed>2.120000</speed>
</trkpt>
<trkpt lat="55.926243" lon="26.508448">
<ele>125.852600</ele>
<time>2010-06-20T07:50:51Z</time>
<desc>lat.=55.926243, lon.=26.508448, Alt.=125.852600m. Speed=7.236000m/h.</desc>
<speed>2.010000</speed>
</trkpt>
<trkpt lat="55.926292" lon="26.508463">
<ele>121.172913</ele>
<time>2010-06-20T07:50:52Z</time>
<desc>lat.=55.926292, lon.=26.508463, Alt.=121.172913m. Speed=6.696000m/h.</desc>
<speed>1.860000</speed>
</trkpt>
<trkpt lat="55.926315" lon="26.508497">
<ele>120.475647</ele>
<time>2010-06-20T07:50:53Z</time>
<desc>lat.=55.926315, lon.=26.508497, Alt.=120.475647m. Speed=7.128000m/h.</desc>
<speed>1.980000</speed>
</trkpt>
<trkpt lat="55.926342" lon="26.508505">
<ele>120.247131</ele>
<time>2010-06-20T07:50:54Z</time>
<desc>lat.=55.926342, lon.=26.508505, Alt.=120.247131m. Speed=3.096000m/h.</desc>
<speed>0.860000</speed>
</trkpt>
<trkpt lat="55.926361" lon="26.508505">
<ele>120.311584</ele>
<time>2010-06-20T07:50:55Z</time>
<desc>lat.=55.926361, lon.=26.508505, Alt.=120.311584m. Speed=6.012000m/h.</desc>
<speed>1.670000</speed>
</trkpt>
<trkpt lat="55.926392" lon="26.508524">
<ele>120.768616</ele>
<time>2010-06-20T07:50:56Z</time>
<desc>lat.=55.926392, lon.=26.508524, Alt.=120.768616m. Speed=5.868000m/h.</desc>
<speed>1.630000</speed>
</trkpt>
<trkpt lat="55.926414" lon="26.508535">
<ele>121.067444</ele>
<time>2010-06-20T07:50:57Z</time>
<desc>lat.=55.926414, lon.=26.508535, Alt.=121.067444m. Speed=5.004000m/h.</desc>
<speed>1.390000</speed>
</trkpt>
<trkpt lat="55.926434" lon="26.508535">
<ele>121.842834</ele>
<time>2010-06-20T07:50:58Z</time>
<desc>lat.=55.926434, lon.=26.508535, Alt.=121.842834m. Speed=2.268000m/h.</desc>
<speed>0.630000</speed>
</trkpt>
<trkpt lat="55.926453" lon="26.508537">
<ele>122.333069</ele>
<time>2010-06-20T07:50:59Z</time>
<desc>lat.=55.926453, lon.=26.508537, Alt.=122.333069m. Speed=4.392000m/h.</desc>
<speed>1.220000</speed>
</trkpt>
<trkpt lat="55.926472" lon="26.508564">
<ele>121.596741</ele>
<time>2010-06-20T07:51:00Z</time>
<desc>lat.=55.926472, lon.=26.508564, Alt.=121.596741m. Speed=7.344000m/h.</desc>
<speed>2.040000</speed>
</trkpt>
<trkpt lat="55.926495" lon="26.508581">
<ele>121.989319</ele>
<time>2010-06-20T07:51:01Z</time>
<desc>lat.=55.926495, lon.=26.508581, Alt.=121.989319m. Speed=5.580000m/h.</desc>
<speed>1.550000</speed>
</trkpt>
<trkpt lat="55.926517" lon="26.508593">
<ele>122.225647</ele>
<time>2010-06-20T07:51:02Z</time>
<desc>lat.=55.926517, lon.=26.508593, Alt.=122.225647m. Speed=5.508000m/h.</desc>
<speed>1.530000</speed>
</trkpt>
<trkpt lat="55.926529" lon="26.508602">
<ele>122.450256</ele>
<time>2010-06-20T07:51:03Z</time>
<desc>lat.=55.926529, lon.=26.508602, Alt.=122.450256m. Speed=10.800000m/h.</desc>
<speed>3.000000</speed>
</trkpt>
<trkpt lat="55.926563" lon="26.508617">
<ele>122.813538</ele>
<time>2010-06-20T07:51:04Z</time>
<desc>lat.=55.926563, lon.=26.508617, Alt.=122.813538m. Speed=6.948000m/h.</desc>
<speed>1.930000</speed>
</trkpt>
<trkpt lat="55.926586" lon="26.508633">
<ele>122.868225</ele>
<time>2010-06-20T07:51:05Z</time>
<desc>lat.=55.926586, lon.=26.508633, Alt.=122.868225m. Speed=6.660000m/h.</desc>
<speed>1.850000</speed>
</trkpt>
<trkpt lat="55.926609" lon="26.508644">
<ele>123.096741</ele>
<time>2010-06-20T07:51:06Z</time>
<desc>lat.=55.926609, lon.=26.508644, Alt.=123.096741m. Speed=5.868000m/h.</desc>
<speed>1.630000</speed>
</trkpt>
<trkpt lat="55.926636" lon="26.508686">
<ele>122.325256</ele>
<time>2010-06-20T07:51:07Z</time>
<desc>lat.=55.926636, lon.=26.508686, Alt.=122.325256m. Speed=5.472000m/h.</desc>
<speed>1.520000</speed>
</trkpt>
<trkpt lat="55.926674" lon="26.508724">
<ele>121.481506</ele>
<time>2010-06-20T07:51:08Z</time>
<desc>lat.=55.926674, lon.=26.508724, Alt.=121.481506m. Speed=7.236000m/h.</desc>
<speed>2.010000</speed>
</trkpt>
<trkpt lat="55.926708" lon="26.508726">
<ele>120.278381</ele>
<time>2010-06-20T07:51:09Z</time>
<desc>lat.=55.926708, lon.=26.508726, Alt.=120.278381m. Speed=8.532000m/h.</desc>
<speed>2.370000</speed>
</trkpt>
<trkpt lat="55.926750" lon="26.508749">
<ele>119.407288</ele>
<time>2010-06-20T07:51:10Z</time>
<desc>lat.=55.926750, lon.=26.508749, Alt.=119.407288m. Speed=10.476000m/h.</desc>
<speed>2.910000</speed>
</trkpt>
<trkpt lat="55.926781" lon="26.508768">
<ele>119.044006</ele>
<time>2010-06-20T07:51:11Z</time>
<desc>lat.=55.926781, lon.=26.508768, Alt.=119.044006m. Speed=8.676000m/h.</desc>
<speed>2.410000</speed>
</trkpt>
<trkpt lat="55.926811" lon="26.508774">
<ele>118.801819</ele>
<time>2010-06-20T07:51:12Z</time>
<desc>lat.=55.926811, lon.=26.508774, Alt.=118.801819m. Speed=8.424000m/h.</desc>
<speed>2.340000</speed>
</trkpt>
<trkpt lat="55.926834" lon="26.508780">
<ele>118.227600</ele>
<time>2010-06-20T07:51:13Z</time>
<desc>lat.=55.926834, lon.=26.508780, Alt.=118.227600m. Speed=8.100000m/h.</desc>
<speed>2.250000</speed>
</trkpt>
<trkpt lat="55.926861" lon="26.508793">
<ele>117.563538</ele>
<time>2010-06-20T07:51:14Z</time>
<desc>lat.=55.926861, lon.=26.508793, Alt.=117.563538m. Speed=9.648000m/h.</desc>
<speed>2.680000</speed>
</trkpt>
<trkpt lat="55.926884" lon="26.508806">
<ele>117.129944</ele>
<time>2010-06-20T07:51:15Z</time>
<desc>lat.=55.926884, lon.=26.508806, Alt.=117.129944m. Speed=8.424000m/h.</desc>
<speed>2.340000</speed>
</trkpt>
<trkpt lat="55.926907" lon="26.508818">
<ele>116.670959</ele>
<time>2010-06-20T07:51:16Z</time>
<desc>lat.=55.926907, lon.=26.508818, Alt.=116.670959m. Speed=8.244000m/h.</desc>
<speed>2.290000</speed>
</trkpt>
<trkpt lat="55.926937" lon="26.508833">
<ele>116.301819</ele>
<time>2010-06-20T07:51:17Z</time>
<desc>lat.=55.926937, lon.=26.508833, Alt.=116.301819m. Speed=10.584000m/h.</desc>
<speed>2.940000</speed>
</trkpt>
<trkpt lat="55.926968" lon="26.508856">
<ele>116.137756</ele>
<time>2010-06-20T07:51:18Z</time>
<desc>lat.=55.926968, lon.=26.508856, Alt.=116.137756m. Speed=11.484000m/h.</desc>
<speed>3.190000</speed>
</trkpt>
<trkpt lat="55.927006" lon="26.508892">
<ele>115.817444</ele>
<time>2010-06-20T07:51:19Z</time>
<desc>lat.=55.927006, lon.=26.508892, Alt.=115.817444m. Speed=9.792000m/h.</desc>
<speed>2.720000</speed>
</trkpt>
<trkpt lat="55.927029" lon="26.508917">
<ele>115.778381</ele>
<time>2010-06-20T07:51:20Z</time>
<desc>lat.=55.927029, lon.=26.508917, Alt.=115.778381m. Speed=6.660000m/h.</desc>
<speed>1.850000</speed>
</trkpt>
<trkpt lat="55.927059" lon="26.508934">
<ele>115.780334</ele>
<time>2010-06-20T07:51:21Z</time>
<desc>lat.=55.927059, lon.=26.508934, Alt.=115.780334m. Speed=6.156000m/h.</desc>
<speed>1.710000</speed>
</trkpt>
<trkpt lat="55.927090" lon="26.508944">
<ele>115.629944</ele>
<time>2010-06-20T07:51:22Z</time>
<desc>lat.=55.927090, lon.=26.508944, Alt.=115.629944m. Speed=6.264000m/h.</desc>
<speed>1.740000</speed>
</trkpt>
<trkpt lat="55.927120" lon="26.508970">
<ele>115.428772</ele>
<time>2010-06-20T07:51:23Z</time>
<desc>lat.=55.927120, lon.=26.508970, Alt.=115.428772m. Speed=8.424000m/h.</desc>
<speed>2.340000</speed>
</trkpt>
<trkpt lat="55.927158" lon="26.508987">
<ele>115.532288</ele>
<time>2010-06-20T07:51:24Z</time>
<desc>lat.=55.927158, lon.=26.508987, Alt.=115.532288m. Speed=8.424000m/h.</desc>
<speed>2.340000</speed>
</trkpt>
<trkpt lat="55.927193" lon="26.509005">
<ele>115.356506</ele>
<time>2010-06-20T07:51:25Z</time>
<desc>lat.=55.927193, lon.=26.509005, Alt.=115.356506m. Speed=7.272000m/h.</desc>
<speed>2.020000</speed>
</trkpt>
<trkpt lat="55.927223" lon="26.509026">
<ele>115.376038</ele>
<time>2010-06-20T07:51:26Z</time>
<desc>lat.=55.927223, lon.=26.509026, Alt.=115.376038m. Speed=6.912000m/h.</desc>
<speed>1.920000</speed>
</trkpt>
<trkpt lat="55.927261" lon="26.509068">
<ele>115.331116</ele>
<time>2010-06-20T07:51:27Z</time>
<desc>lat.=55.927261, lon.=26.509068, Alt.=115.331116m. Speed=7.884000m/h.</desc>
<speed>2.190000</speed>
</trkpt>
<trkpt lat="55.927299" lon="26.509108">
<ele>115.067444</ele>
<time>2010-06-20T07:51:28Z</time>
<desc>lat.=55.927299, lon.=26.509108, Alt.=115.067444m. Speed=9.288000m/h.</desc>
<speed>2.580000</speed>
</trkpt>
<trkpt lat="55.927338" lon="26.509155">
<ele>115.030334</ele>
<time>2010-06-20T07:51:29Z</time>
<desc>lat.=55.927338, lon.=26.509155, Alt.=115.030334m. Speed=8.892000m/h.</desc>
<speed>2.470000</speed>
</trkpt>
<trkpt lat="55.927372" lon="26.509174">
<ele>115.137756</ele>
<time>2010-06-20T07:51:30Z</time>
<desc>lat.=55.927372, lon.=26.509174, Alt.=115.137756m. Speed=6.624000m/h.</desc>
<speed>1.840000</speed>
</trkpt>
<trkpt lat="55.927402" lon="26.509184">
<ele>115.118225</ele>
<time>2010-06-20T07:51:31Z</time>
<desc>lat.=55.927402, lon.=26.509184, Alt.=115.118225m. Speed=4.536000m/h.</desc>
<speed>1.260000</speed>
</trkpt>
<trkpt lat="55.927425" lon="26.509199">
<ele>115.073303</ele>
<time>2010-06-20T07:51:32Z</time>
<desc>lat.=55.927425, lon.=26.509199, Alt.=115.073303m. Speed=6.084000m/h.</desc>
<speed>1.690000</speed>
</trkpt>
<trkpt lat="55.927471" lon="26.509230">
<ele>115.112366</ele>
<time>2010-06-20T07:51:33Z</time>
<desc>lat.=55.927471, lon.=26.509230, Alt.=115.112366m. Speed=7.020000m/h.</desc>
<speed>1.950000</speed>
</trkpt>
<trkpt lat="55.927498" lon="26.509243">
<ele>115.336975</ele>
<time>2010-06-20T07:51:34Z</time>
<desc>lat.=55.927498, lon.=26.509243, Alt.=115.336975m. Speed=6.012000m/h.</desc>
<speed>1.670000</speed>
</trkpt>
<trkpt lat="55.927528" lon="26.509254">
<ele>115.674866</ele>
<time>2010-06-20T07:51:35Z</time>
<desc>lat.=55.927528, lon.=26.509254, Alt.=115.674866m. Speed=6.048000m/h.</desc>
<speed>1.680000</speed>
</trkpt>
<trkpt lat="55.927551" lon="26.509266">
<ele>115.745178</ele>
<time>2010-06-20T07:51:36Z</time>
<desc>lat.=55.927551, lon.=26.509266, Alt.=115.745178m. Speed=5.328000m/h.</desc>
<speed>1.480000</speed>
</trkpt>
<trkpt lat="55.927570" lon="26.509295">
<ele>114.887756</ele>
<time>2010-06-20T07:51:37Z</time>
<desc>lat.=55.927570, lon.=26.509295, Alt.=114.887756m. Speed=5.724000m/h.</desc>
<speed>1.590000</speed>
</trkpt>
<trkpt lat="55.927612" lon="26.509310">
<ele>115.405334</ele>
<time>2010-06-20T07:51:38Z</time>
<desc>lat.=55.927612, lon.=26.509310, Alt.=115.405334m. Speed=7.020000m/h.</desc>
<speed>1.950000</speed>
</trkpt>
<trkpt lat="55.927654" lon="26.509315">
<ele>114.352600</ele>
<time>2010-06-20T07:51:39Z</time>
<desc>lat.=55.927654, lon.=26.509315, Alt.=114.352600m. Speed=6.840000m/h.</desc>
<speed>1.900000</speed>
</trkpt>
<trkpt lat="55.927681" lon="26.509338">
<ele>114.157288</ele>
<time>2010-06-20T07:51:40Z</time>
<desc>lat.=55.927681, lon.=26.509338, Alt.=114.157288m. Speed=6.192000m/h.</desc>
<speed>1.720000</speed>
</trkpt>
<trkpt lat="55.927704" lon="26.509378">
<ele>114.200256</ele>
<time>2010-06-20T07:51:41Z</time>
<desc>lat.=55.927704, lon.=26.509378, Alt.=114.200256m. Speed=4.320000m/h.</desc>
<speed>1.200000</speed>
</trkpt>
<trkpt lat="55.927719" lon="26.509399">
<ele>114.180725</ele>
<time>2010-06-20T07:51:42Z</time>
<desc>lat.=55.927719, lon.=26.509399, Alt.=114.180725m. Speed=4.572000m/h.</desc>
<speed>1.270000</speed>
</trkpt>
<trkpt lat="55.927746" lon="26.509417">
<ele>114.264709</ele>
<time>2010-06-20T07:51:43Z</time>
<desc>lat.=55.927746, lon.=26.509417, Alt.=114.264709m. Speed=5.580000m/h.</desc>
<speed>1.550000</speed>
</trkpt>
<trkpt lat="55.927773" lon="26.509438">
<ele>114.231506</ele>
<time>2010-06-20T07:51:44Z</time>
<desc>lat.=55.927773, lon.=26.509438, Alt.=114.231506m. Speed=6.876000m/h.</desc>
<speed>1.910000</speed>
</trkpt>
<trkpt lat="55.927795" lon="26.509447">
<ele>114.170959</ele>
<time>2010-06-20T07:51:45Z</time>
<desc>lat.=55.927795, lon.=26.509447, Alt.=114.170959m. Speed=5.436000m/h.</desc>
<speed>1.510000</speed>
</trkpt>
<trkpt lat="55.927826" lon="26.509466">
<ele>114.338928</ele>
<time>2010-06-20T07:51:46Z</time>
<desc>lat.=55.927826, lon.=26.509466, Alt.=114.338928m. Speed=6.912000m/h.</desc>
<speed>1.920000</speed>
</trkpt>
<trkpt lat="55.927856" lon="26.509499">
<ele>114.229553</ele>
<time>2010-06-20T07:51:47Z</time>
<desc>lat.=55.927856, lon.=26.509499, Alt.=114.229553m. Speed=6.876000m/h.</desc>
<speed>1.910000</speed>
</trkpt>
<trkpt lat="55.927883" lon="26.509525">
<ele>114.159241</ele>
<time>2010-06-20T07:51:48Z</time>
<desc>lat.=55.927883, lon.=26.509525, Alt.=114.159241m. Speed=7.812000m/h.</desc>
<speed>2.170000</speed>
</trkpt>
<trkpt lat="55.927921" lon="26.509562">
<ele>113.137756</ele>
<time>2010-06-20T07:51:49Z</time>
<desc>lat.=55.927921, lon.=26.509562, Alt.=113.137756m. Speed=6.696000m/h.</desc>
<speed>1.860000</speed>
</trkpt>
<trkpt lat="55.927948" lon="26.509590">
<ele>113.176819</ele>
<time>2010-06-20T07:51:50Z</time>
<desc>lat.=55.927948, lon.=26.509590, Alt.=113.176819m. Speed=6.048000m/h.</desc>
<speed>1.680000</speed>
</trkpt>
<trkpt lat="55.927967" lon="26.509617">
<ele>113.040100</ele>
<time>2010-06-20T07:51:51Z</time>
<desc>lat.=55.927967, lon.=26.509617, Alt.=113.040100m. Speed=7.740000m/h.</desc>
<speed>2.150000</speed>
</trkpt>
<trkpt lat="55.927994" lon="26.509634">
<ele>112.819397</ele>
<time>2010-06-20T07:51:52Z</time>
<desc>lat.=55.927994, lon.=26.509634, Alt.=112.819397m. Speed=4.680000m/h.</desc>
<speed>1.300000</speed>
</trkpt>
<trkpt lat="55.928009" lon="26.509657">
<ele>112.887756</ele>
<time>2010-06-20T07:51:53Z</time>
<desc>lat.=55.928009, lon.=26.509657, Alt.=112.887756m. Speed=4.572000m/h.</desc>
<speed>1.270000</speed>
</trkpt>
<trkpt lat="55.928024" lon="26.509676">
<ele>112.991272</ele>
<time>2010-06-20T07:51:54Z</time>
<desc>lat.=55.928024, lon.=26.509676, Alt.=112.991272m. Speed=4.464000m/h.</desc>
<speed>1.240000</speed>
</trkpt>
<trkpt lat="55.928036" lon="26.509699">
<ele>113.301819</ele>
<time>2010-06-20T07:51:55Z</time>
<desc>lat.=55.928036, lon.=26.509699, Alt.=113.301819m. Speed=2.880000m/h.</desc>
<speed>0.800000</speed>
</trkpt>
<trkpt lat="55.928051" lon="26.509718">
<ele>113.713928</ele>
<time>2010-06-20T07:51:56Z</time>
<desc>lat.=55.928051, lon.=26.509718, Alt.=113.713928m. Speed=4.932000m/h.</desc>
<speed>1.370000</speed>
</trkpt>
<trkpt lat="55.928078" lon="26.509779">
<ele>114.479553</ele>
<time>2010-06-20T07:51:57Z</time>
<desc>lat.=55.928078, lon.=26.509779, Alt.=114.479553m. Speed=7.956000m/h.</desc>
<speed>2.210000</speed>
</trkpt>
<trkpt lat="55.928097" lon="26.509800">
<ele>114.442444</ele>
<time>2010-06-20T07:51:58Z</time>
<desc>lat.=55.928097, lon.=26.509800, Alt.=114.442444m. Speed=6.156000m/h.</desc>
<speed>1.710000</speed>
</trkpt>
<trkpt lat="55.928120" lon="26.509819">
<ele>114.518616</ele>
<time>2010-06-20T07:51:59Z</time>
<desc>lat.=55.928120, lon.=26.509819, Alt.=114.518616m. Speed=5.112000m/h.</desc>
<speed>1.420000</speed>
</trkpt>
<trkpt lat="55.928135" lon="26.509836">
<ele>114.682678</ele>
<time>2010-06-20T07:52:00Z</time>
<desc>lat.=55.928135, lon.=26.509836, Alt.=114.682678m. Speed=5.148000m/h.</desc>
<speed>1.430000</speed>
</trkpt>
<trkpt lat="55.928150" lon="26.509855">
<ele>114.704163</ele>
<time>2010-06-20T07:52:01Z</time>
<desc>lat.=55.928150, lon.=26.509855, Alt.=114.704163m. Speed=4.968000m/h.</desc>
<speed>1.380000</speed>
</trkpt>
<trkpt lat="55.928173" lon="26.509880">
<ele>114.891663</ele>
<time>2010-06-20T07:52:02Z</time>
<desc>lat.=55.928173, lon.=26.509880, Alt.=114.891663m. Speed=5.436000m/h.</desc>
<speed>1.510000</speed>
</trkpt>
<trkpt lat="55.928196" lon="26.509909">
<ele>115.147522</ele>
<time>2010-06-20T07:52:03Z</time>
<desc>lat.=55.928196, lon.=26.509909, Alt.=115.147522m. Speed=5.400000m/h.</desc>
<speed>1.500000</speed>
</trkpt>
<trkpt lat="55.928211" lon="26.509928">
<ele>115.362366</ele>
<time>2010-06-20T07:52:04Z</time>
<desc>lat.=55.928211, lon.=26.509928, Alt.=115.362366m. Speed=4.752000m/h.</desc>
<speed>1.320000</speed>
</trkpt>
<trkpt lat="55.928238" lon="26.509951">
<ele>115.756897</ele>
<time>2010-06-20T07:52:05Z</time>
<desc>lat.=55.928238, lon.=26.509951, Alt.=115.756897m. Speed=4.104000m/h.</desc>
<speed>1.140000</speed>
</trkpt>
<trkpt lat="55.928276" lon="26.510004">
<ele>116.946350</ele>
<time>2010-06-20T07:52:06Z</time>
<desc>lat.=55.928276, lon.=26.510004, Alt.=116.946350m. Speed=7.812000m/h.</desc>
<speed>2.170000</speed>
</trkpt>
<trkpt lat="55.928322" lon="26.510027">
<ele>117.934631</ele>
<time>2010-06-20T07:52:07Z</time>
<desc>lat.=55.928322, lon.=26.510027, Alt.=117.934631m. Speed=7.308000m/h.</desc>
<speed>2.030000</speed>
</trkpt>
<trkpt lat="55.928345" lon="26.510048">
<ele>118.036194</ele>
<time>2010-06-20T07:52:08Z</time>
<desc>lat.=55.928345, lon.=26.510048, Alt.=118.036194m. Speed=4.680000m/h.</desc>
<speed>1.300000</speed>
</trkpt>
<trkpt lat="55.928371" lon="26.510078">
<ele>118.278381</ele>
<time>2010-06-20T07:52:09Z</time>
<desc>lat.=55.928371, lon.=26.510078, Alt.=118.278381m. Speed=6.120000m/h.</desc>
<speed>1.700000</speed>
</trkpt>
<trkpt lat="55.928398" lon="26.510096">
<ele>118.452209</ele>
<time>2010-06-20T07:52:10Z</time>
<desc>lat.=55.928398, lon.=26.510096, Alt.=118.452209m. Speed=7.488000m/h.</desc>
<speed>2.080000</speed>
</trkpt>
<trkpt lat="55.928425" lon="26.510120">
<ele>118.676819</ele>
<time>2010-06-20T07:52:11Z</time>
<desc>lat.=55.928425, lon.=26.510120, Alt.=118.676819m. Speed=7.200000m/h.</desc>
<speed>2.000000</speed>
</trkpt>
<trkpt lat="55.928444" lon="26.510153">
<ele>118.727600</ele>
<time>2010-06-20T07:52:12Z</time>
<desc>lat.=55.928444, lon.=26.510153, Alt.=118.727600m. Speed=6.840000m/h.</desc>
<speed>1.900000</speed>
</trkpt>
<trkpt lat="55.928467" lon="26.510174">
<ele>117.954163</ele>
<time>2010-06-20T07:52:13Z</time>
<desc>lat.=55.928467, lon.=26.510174, Alt.=117.954163m. Speed=6.516000m/h.</desc>
<speed>1.810000</speed>
</trkpt>
<trkpt lat="55.928493" lon="26.510202">
<ele>118.081116</ele>
<time>2010-06-20T07:52:14Z</time>
<desc>lat.=55.928493, lon.=26.510202, Alt.=118.081116m. Speed=5.256000m/h.</desc>
<speed>1.460000</speed>
</trkpt>
<trkpt lat="55.928555" lon="26.510260">
<ele>116.831116</ele>
<time>2010-06-20T07:52:15Z</time>
<desc>lat.=55.928555, lon.=26.510260, Alt.=116.831116m. Speed=7.632000m/h.</desc>
<speed>2.120000</speed>
</trkpt>
<trkpt lat="55.928577" lon="26.510286">
<ele>116.684631</ele>
<time>2010-06-20T07:52:16Z</time>
<desc>lat.=55.928577, lon.=26.510286, Alt.=116.684631m. Speed=7.416000m/h.</desc>
<speed>2.060000</speed>
</trkpt>
<trkpt lat="55.928608" lon="26.510328">
<ele>116.899475</ele>
<time>2010-06-20T07:52:17Z</time>
<desc>lat.=55.928608, lon.=26.510328, Alt.=116.899475m. Speed=5.976000m/h.</desc>
<speed>1.660000</speed>
</trkpt>
<trkpt lat="55.928635" lon="26.510351">
<ele>117.260803</ele>
<time>2010-06-20T07:52:18Z</time>
<desc>lat.=55.928635, lon.=26.510351, Alt.=117.260803m. Speed=4.752000m/h.</desc>
<speed>1.320000</speed>
</trkpt>
<trkpt lat="55.928654" lon="26.510368">
<ele>117.590881</ele>
<time>2010-06-20T07:52:19Z</time>
<desc>lat.=55.928654, lon.=26.510368, Alt.=117.590881m. Speed=4.464000m/h.</desc>
<speed>1.240000</speed>
</trkpt>
<trkpt lat="55.928661" lon="26.510401">
<ele>117.747131</ele>
<time>2010-06-20T07:52:20Z</time>
<desc>lat.=55.928661, lon.=26.510401, Alt.=117.747131m. Speed=4.356000m/h.</desc>
<speed>1.210000</speed>
</trkpt>
<trkpt lat="55.928680" lon="26.510418">
<ele>118.122131</ele>
<time>2010-06-20T07:52:21Z</time>
<desc>lat.=55.928680, lon.=26.510418, Alt.=118.122131m. Speed=6.444000m/h.</desc>
<speed>1.790000</speed>
</trkpt>
<trkpt lat="55.928703" lon="26.510441">
<ele>118.569397</ele>
<time>2010-06-20T07:52:22Z</time>
<desc>lat.=55.928703, lon.=26.510441, Alt.=118.569397m. Speed=6.264000m/h.</desc>
<speed>1.740000</speed>
</trkpt>
<trkpt lat="55.928722" lon="26.510462">
<ele>118.805725</ele>
<time>2010-06-20T07:52:23Z</time>
<desc>lat.=55.928722, lon.=26.510462, Alt.=118.805725m. Speed=5.652000m/h.</desc>
<speed>1.570000</speed>
</trkpt>
<trkpt lat="55.928749" lon="26.510489">
<ele>119.018616</ele>
<time>2010-06-20T07:52:24Z</time>
<desc>lat.=55.928749, lon.=26.510489, Alt.=119.018616m. Speed=6.588000m/h.</desc>
<speed>1.830000</speed>
</trkpt>
<trkpt lat="55.928814" lon="26.510561">
<ele>117.583069</ele>
<time>2010-06-20T07:52:25Z</time>
<desc>lat.=55.928814, lon.=26.510561, Alt.=117.583069m. Speed=7.848000m/h.</desc>
<speed>2.180000</speed>
</trkpt>
<trkpt lat="55.928844" lon="26.510597">
<ele>117.756897</ele>
<time>2010-06-20T07:52:26Z</time>
<desc>lat.=55.928844, lon.=26.510597, Alt.=117.756897m. Speed=9.468000m/h.</desc>
<speed>2.630000</speed>
</trkpt>
<trkpt lat="55.928871" lon="26.510628">
<ele>117.831116</ele>
<time>2010-06-20T07:52:27Z</time>
<desc>lat.=55.928871, lon.=26.510628, Alt.=117.831116m. Speed=5.688000m/h.</desc>
<speed>1.580000</speed>
</trkpt>
<trkpt lat="55.928909" lon="26.510679">
<ele>117.336975</ele>
<time>2010-06-20T07:52:28Z</time>
<desc>lat.=55.928909, lon.=26.510679, Alt.=117.336975m. Speed=7.884000m/h.</desc>
<speed>2.190000</speed>
</trkpt>
<trkpt lat="55.928947" lon="26.510714">
<ele>117.122131</ele>
<time>2010-06-20T07:52:29Z</time>
<desc>lat.=55.928947, lon.=26.510714, Alt.=117.122131m. Speed=5.724000m/h.</desc>
<speed>1.590000</speed>
</trkpt>
<trkpt lat="55.929005" lon="26.510735">
<ele>116.583069</ele>
<time>2010-06-20T07:52:30Z</time>
<desc>lat.=55.929005, lon.=26.510735, Alt.=116.583069m. Speed=10.116000m/h.</desc>
<speed>2.810000</speed>
</trkpt>
<trkpt lat="55.929050" lon="26.510775">
<ele>116.454163</ele>
<time>2010-06-20T07:52:31Z</time>
<desc>lat.=55.929050, lon.=26.510775, Alt.=116.454163m. Speed=11.196000m/h.</desc>
<speed>3.110000</speed>
</trkpt>
<trkpt lat="55.929085" lon="26.510799">
<ele>116.565491</ele>
<time>2010-06-20T07:52:32Z</time>
<desc>lat.=55.929085, lon.=26.510799, Alt.=116.565491m. Speed=10.116000m/h.</desc>
<speed>2.810000</speed>
</trkpt>
<trkpt lat="55.929123" lon="26.510822">
<ele>117.497131</ele>
<time>2010-06-20T07:52:33Z</time>
<desc>lat.=55.929123, lon.=26.510822, Alt.=117.497131m. Speed=9.468000m/h.</desc>
<speed>2.630000</speed>
</trkpt>
<trkpt lat="55.929157" lon="26.510839">
<ele>118.030334</ele>
<time>2010-06-20T07:52:34Z</time>
<desc>lat.=55.929157, lon.=26.510839, Alt.=118.030334m. Speed=8.460000m/h.</desc>
<speed>2.350000</speed>
</trkpt>
<trkpt lat="55.929184" lon="26.510860">
<ele>118.415100</ele>
<time>2010-06-20T07:52:35Z</time>
<desc>lat.=55.929184, lon.=26.510860, Alt.=118.415100m. Speed=8.316000m/h.</desc>
<speed>2.310000</speed>
</trkpt>
<trkpt lat="55.929214" lon="26.510880">
<ele>119.436584</ele>
<time>2010-06-20T07:52:36Z</time>
<desc>lat.=55.929214, lon.=26.510880, Alt.=119.436584m. Speed=9.108000m/h.</desc>
<speed>2.530000</speed>
</trkpt>
<trkpt lat="55.929245" lon="26.510902">
<ele>119.469788</ele>
<time>2010-06-20T07:52:37Z</time>
<desc>lat.=55.929245, lon.=26.510902, Alt.=119.469788m. Speed=7.380000m/h.</desc>
<speed>2.050000</speed>
</trkpt>
<trkpt lat="55.929279" lon="26.510923">
<ele>119.313538</ele>
<time>2010-06-20T07:52:38Z</time>
<desc>lat.=55.929279, lon.=26.510923, Alt.=119.313538m. Speed=9.612000m/h.</desc>
<speed>2.670000</speed>
</trkpt>
<trkpt lat="55.929314" lon="26.510942">
<ele>119.069397</ele>
<time>2010-06-20T07:52:39Z</time>
<desc>lat.=55.929314, lon.=26.510942, Alt.=119.069397m. Speed=10.404000m/h.</desc>
<speed>2.890000</speed>
</trkpt>
<trkpt lat="55.929344" lon="26.510941">
<ele>119.210022</ele>
<time>2010-06-20T07:52:40Z</time>
<desc>lat.=55.929344, lon.=26.510941, Alt.=119.210022m. Speed=9.684000m/h.</desc>
<speed>2.690000</speed>
</trkpt>
<trkpt lat="55.929371" lon="26.510948">
<ele>119.213928</ele>
<time>2010-06-20T07:52:41Z</time>
<desc>lat.=55.929371, lon.=26.510948, Alt.=119.213928m. Speed=6.660000m/h.</desc>
<speed>1.850000</speed>
</trkpt>
<trkpt lat="55.929386" lon="26.510960">
<ele>119.323303</ele>
<time>2010-06-20T07:52:42Z</time>
<desc>lat.=55.929386, lon.=26.510960, Alt.=119.323303m. Speed=4.896000m/h.</desc>
<speed>1.360000</speed>
</trkpt>
<trkpt lat="55.929405" lon="26.510979">
<ele>119.678772</ele>
<time>2010-06-20T07:52:43Z</time>
<desc>lat.=55.929405, lon.=26.510979, Alt.=119.678772m. Speed=5.868000m/h.</desc>
<speed>1.630000</speed>
</trkpt>
<trkpt lat="55.929424" lon="26.510998">
<ele>119.551819</ele>
<time>2010-06-20T07:52:44Z</time>
<desc>lat.=55.929424, lon.=26.510998, Alt.=119.551819m. Speed=5.688000m/h.</desc>
<speed>1.580000</speed>
</trkpt>
<trkpt lat="55.929443" lon="26.511013">
<ele>119.510803</ele>
<time>2010-06-20T07:52:45Z</time>
<desc>lat.=55.929443, lon.=26.511013, Alt.=119.510803m. Speed=6.012000m/h.</desc>
<speed>1.670000</speed>
</trkpt>
<trkpt lat="55.929462" lon="26.511024">
<ele>119.514709</ele>
<time>2010-06-20T07:52:46Z</time>
<desc>lat.=55.929462, lon.=26.511024, Alt.=119.514709m. Speed=6.984000m/h.</desc>
<speed>1.940000</speed>
</trkpt>
<trkpt lat="55.929485" lon="26.511032">
<ele>120.018616</ele>
<time>2010-06-20T07:52:47Z</time>
<desc>lat.=55.929485, lon.=26.511032, Alt.=120.018616m. Speed=5.148000m/h.</desc>
<speed>1.430000</speed>
</trkpt>
<trkpt lat="55.929512" lon="26.511049">
<ele>120.188538</ele>
<time>2010-06-20T07:52:48Z</time>
<desc>lat.=55.929512, lon.=26.511049, Alt.=120.188538m. Speed=6.336000m/h.</desc>
<speed>1.760000</speed>
</trkpt>
<trkpt lat="55.929550" lon="26.511061">
<ele>121.559631</ele>
<time>2010-06-20T07:52:49Z</time>
<desc>lat.=55.929550, lon.=26.511061, Alt.=121.559631m. Speed=7.128000m/h.</desc>
<speed>1.980000</speed>
</trkpt>
<trkpt lat="55.929573" lon="26.511072">
<ele>121.887756</ele>
<time>2010-06-20T07:52:50Z</time>
<desc>lat.=55.929573, lon.=26.511072, Alt.=121.887756m. Speed=7.020000m/h.</desc>
<speed>1.950000</speed>
</trkpt>
<trkpt lat="55.929596" lon="26.511093">
<ele>121.920959</ele>
<time>2010-06-20T07:52:51Z</time>
<desc>lat.=55.929596, lon.=26.511093, Alt.=121.920959m. Speed=7.632000m/h.</desc>
<speed>2.120000</speed>
</trkpt>
<trkpt lat="55.929623" lon="26.511105">
<ele>122.169006</ele>
<time>2010-06-20T07:52:52Z</time>
<desc>lat.=55.929623, lon.=26.511105, Alt.=122.169006m. Speed=8.352000m/h.</desc>
<speed>2.320000</speed>
</trkpt>
<trkpt lat="55.929649" lon="26.511112">
<ele>122.368225</ele>
<time>2010-06-20T07:52:53Z</time>
<desc>lat.=55.929649, lon.=26.511112, Alt.=122.368225m. Speed=6.624000m/h.</desc>
<speed>1.840000</speed>
</trkpt>
<trkpt lat="55.929676" lon="26.511120">
<ele>122.422913</ele>
<time>2010-06-20T07:52:54Z</time>
<desc>lat.=55.929676, lon.=26.511120, Alt.=122.422913m. Speed=6.696000m/h.</desc>
<speed>1.860000</speed>
</trkpt>
<trkpt lat="55.929695" lon="26.511127">
<ele>122.501038</ele>
<time>2010-06-20T07:52:55Z</time>
<desc>lat.=55.929695, lon.=26.511127, Alt.=122.501038m. Speed=6.156000m/h.</desc>
<speed>1.710000</speed>
</trkpt>
<trkpt lat="55.929726" lon="26.511145">
<ele>122.602600</ele>
<time>2010-06-20T07:52:56Z</time>
<desc>lat.=55.929726, lon.=26.511145, Alt.=122.602600m. Speed=8.208000m/h.</desc>
<speed>2.280000</speed>
</trkpt>
<trkpt lat="55.929756" lon="26.511164">
<ele>122.733459</ele>
<time>2010-06-20T07:52:57Z</time>
<desc>lat.=55.929756, lon.=26.511164, Alt.=122.733459m. Speed=6.588000m/h.</desc>
<speed>1.830000</speed>
</trkpt>
<trkpt lat="55.929775" lon="26.511177">
<ele>122.874084</ele>
<time>2010-06-20T07:52:58Z</time>
<desc>lat.=55.929775, lon.=26.511177, Alt.=122.874084m. Speed=5.436000m/h.</desc>
<speed>1.510000</speed>
</trkpt>
<trkpt lat="55.929798" lon="26.511185">
<ele>123.014709</ele>
<time>2010-06-20T07:52:59Z</time>
<desc>lat.=55.929798, lon.=26.511185, Alt.=123.014709m. Speed=6.408000m/h.</desc>
<speed>1.780000</speed>
</trkpt>
<trkpt lat="55.929836" lon="26.511198">
<ele>122.829163</ele>
<time>2010-06-20T07:53:00Z</time>
<desc>lat.=55.929836, lon.=26.511198, Alt.=122.829163m. Speed=5.040000m/h.</desc>
<speed>1.400000</speed>
</trkpt>
<trkpt lat="55.929863" lon="26.511217">
<ele>122.202209</ele>
<time>2010-06-20T07:53:01Z</time>
<desc>lat.=55.929863, lon.=26.511217, Alt.=122.202209m. Speed=4.572000m/h.</desc>
<speed>1.270000</speed>
</trkpt>
<trkpt lat="55.929890" lon="26.511223">
<ele>122.446350</ele>
<time>2010-06-20T07:53:02Z</time>
<desc>lat.=55.929890, lon.=26.511223, Alt.=122.446350m. Speed=4.968000m/h.</desc>
<speed>1.380000</speed>
</trkpt>
<trkpt lat="55.929913" lon="26.511227">
<ele>121.653381</ele>
<time>2010-06-20T07:53:03Z</time>
<desc>lat.=55.929913, lon.=26.511227, Alt.=121.653381m. Speed=6.048000m/h.</desc>
<speed>1.680000</speed>
</trkpt>
<trkpt lat="55.929947" lon="26.511251">
<ele>121.872131</ele>
<time>2010-06-20T07:53:04Z</time>
<desc>lat.=55.929947, lon.=26.511251, Alt.=121.872131m. Speed=6.804000m/h.</desc>
<speed>1.890000</speed>
</trkpt>
<trkpt lat="55.929981" lon="26.511276">
<ele>122.577209</ele>
<time>2010-06-20T07:53:05Z</time>
<desc>lat.=55.929981, lon.=26.511276, Alt.=122.577209m. Speed=6.948000m/h.</desc>
<speed>1.930000</speed>
</trkpt>
<trkpt lat="55.930004" lon="26.511297">
<ele>122.911194</ele>
<time>2010-06-20T07:53:06Z</time>
<desc>lat.=55.930004, lon.=26.511297, Alt.=122.911194m. Speed=8.712000m/h.</desc>
<speed>2.420000</speed>
</trkpt>
<trkpt lat="55.930038" lon="26.511311">
<ele>123.219788</ele>
<time>2010-06-20T07:53:07Z</time>
<desc>lat.=55.930038, lon.=26.511311, Alt.=123.219788m. Speed=8.424000m/h.</desc>
<speed>2.340000</speed>
</trkpt>
<trkpt lat="55.930058" lon="26.511326">
<ele>123.512756</ele>
<time>2010-06-20T07:53:08Z</time>
<desc>lat.=55.930058, lon.=26.511326, Alt.=123.512756m. Speed=11.448000m/h.</desc>
<speed>3.180000</speed>
</trkpt>
<trkpt lat="55.930099" lon="26.511353">
<ele>124.044006</ele>
<time>2010-06-20T07:53:09Z</time>
<desc>lat.=55.930099, lon.=26.511353, Alt.=124.044006m. Speed=11.808000m/h.</desc>
<speed>3.280000</speed>
</trkpt>
<trkpt lat="55.930138" lon="26.511377">
<ele>124.626038</ele>
<time>2010-06-20T07:53:10Z</time>
<desc>lat.=55.930138, lon.=26.511377, Alt.=124.626038m. Speed=12.888000m/h.</desc>
<speed>3.580000</speed>
</trkpt>
<trkpt lat="55.930168" lon="26.511408">
<ele>124.794006</ele>
<time>2010-06-20T07:53:11Z</time>
<desc>lat.=55.930168, lon.=26.511408, Alt.=124.794006m. Speed=6.048000m/h.</desc>
<speed>1.680000</speed>
</trkpt>
<trkpt lat="55.930199" lon="26.511429">
<ele>125.797913</ele>
<time>2010-06-20T07:53:12Z</time>
<desc>lat.=55.930199, lon.=26.511429, Alt.=125.797913m. Speed=10.224000m/h.</desc>
<speed>2.840000</speed>
</trkpt>
<trkpt lat="55.930252" lon="26.511482">
<ele>125.001038</ele>
<time>2010-06-20T07:53:13Z</time>
<desc>lat.=55.930252, lon.=26.511482, Alt.=125.001038m. Speed=8.748000m/h.</desc>
<speed>2.430000</speed>
</trkpt>
<trkpt lat="55.930302" lon="26.511515">
<ele>123.836975</ele>
<time>2010-06-20T07:53:14Z</time>
<desc>lat.=55.930302, lon.=26.511515, Alt.=123.836975m. Speed=9.936000m/h.</desc>
<speed>2.760000</speed>
</trkpt>
<trkpt lat="55.930332" lon="26.511539">
<ele>124.286194</ele>
<time>2010-06-20T07:53:15Z</time>
<desc>lat.=55.930332, lon.=26.511539, Alt.=124.286194m. Speed=7.236000m/h.</desc>
<speed>2.010000</speed>
</trkpt>
<trkpt lat="55.930355" lon="26.511566">
<ele>124.018616</ele>
<time>2010-06-20T07:53:16Z</time>
<desc>lat.=55.930355, lon.=26.511566, Alt.=124.018616m. Speed=5.040000m/h.</desc>
<speed>1.400000</speed>
</trkpt>
<trkpt lat="55.930397" lon="26.511604">
<ele>123.040100</ele>
<time>2010-06-20T07:53:17Z</time>
<desc>lat.=55.930397, lon.=26.511604, Alt.=123.040100m. Speed=6.336000m/h.</desc>
<speed>1.760000</speed>
</trkpt>
<trkpt lat="55.930428" lon="26.511623">
<ele>122.692444</ele>
<time>2010-06-20T07:53:18Z</time>
<desc>lat.=55.930428, lon.=26.511623, Alt.=122.692444m. Speed=5.724000m/h.</desc>
<speed>1.590000</speed>
</trkpt>
<trkpt lat="55.930443" lon="26.511644">
<ele>122.794006</ele>
<time>2010-06-20T07:53:19Z</time>
<desc>lat.=55.930443, lon.=26.511644, Alt.=122.794006m. Speed=5.472000m/h.</desc>
<speed>1.520000</speed>
</trkpt>
<trkpt lat="55.930462" lon="26.511662">
<ele>122.961975</ele>
<time>2010-06-20T07:53:20Z</time>
<desc>lat.=55.930462, lon.=26.511662, Alt.=122.961975m. Speed=6.732000m/h.</desc>
<speed>1.870000</speed>
</trkpt>
<trkpt lat="55.930477" lon="26.511677">
<ele>123.307678</ele>
<time>2010-06-20T07:53:21Z</time>
<desc>lat.=55.930477, lon.=26.511677, Alt.=123.307678m. Speed=10.836000m/h.</desc>
<speed>3.010000</speed>
</trkpt>
<trkpt lat="55.930527" lon="26.511711">
<ele>122.747131</ele>
<time>2010-06-20T07:53:22Z</time>
<desc>lat.=55.930527, lon.=26.511711, Alt.=122.747131m. Speed=7.344000m/h.</desc>
<speed>2.040000</speed>
</trkpt>
<trkpt lat="55.930546" lon="26.511728">
<ele>123.133850</ele>
<time>2010-06-20T07:53:23Z</time>
<desc>lat.=55.930546, lon.=26.511728, Alt.=123.133850m. Speed=6.732000m/h.</desc>
<speed>1.870000</speed>
</trkpt>
<trkpt lat="55.930573" lon="26.511753">
<ele>123.145569</ele>
<time>2010-06-20T07:53:24Z</time>
<desc>lat.=55.930573, lon.=26.511753, Alt.=123.145569m. Speed=4.932000m/h.</desc>
<speed>1.370000</speed>
</trkpt>
<trkpt lat="55.930607" lon="26.511787">
<ele>121.965881</ele>
<time>2010-06-20T07:53:25Z</time>
<desc>lat.=55.930607, lon.=26.511787, Alt.=121.965881m. Speed=9.252000m/h.</desc>
<speed>2.570000</speed>
</trkpt>
<trkpt lat="55.930645" lon="26.511816">
<ele>121.329163</ele>
<time>2010-06-20T07:53:26Z</time>
<desc>lat.=55.930645, lon.=26.511816, Alt.=121.329163m. Speed=9.684000m/h.</desc>
<speed>2.690000</speed>
</trkpt>
<trkpt lat="55.930664" lon="26.511833">
<ele>121.108459</ele>
<time>2010-06-20T07:53:27Z</time>
<desc>lat.=55.930664, lon.=26.511833, Alt.=121.108459m. Speed=7.380000m/h.</desc>
<speed>2.050000</speed>
</trkpt>
<trkpt lat="55.930683" lon="26.511862">
<ele>120.903381</ele>
<time>2010-06-20T07:53:28Z</time>
<desc>lat.=55.930683, lon.=26.511862, Alt.=120.903381m. Speed=7.128000m/h.</desc>
<speed>1.980000</speed>
</trkpt>
<trkpt lat="55.930695" lon="26.511875">
<ele>120.452209</ele>
<time>2010-06-20T07:53:29Z</time>
<desc>lat.=55.930695, lon.=26.511875, Alt.=120.452209m. Speed=5.904000m/h.</desc>
<speed>1.640000</speed>
</trkpt>
<trkpt lat="55.930706" lon="26.511896">
<ele>120.585022</ele>
<time>2010-06-20T07:53:30Z</time>
<desc>lat.=55.930706, lon.=26.511896, Alt.=120.585022m. Speed=4.824000m/h.</desc>
<speed>1.340000</speed>
</trkpt>
<trkpt lat="55.930717" lon="26.511909">
<ele>120.377991</ele>
<time>2010-06-20T07:53:31Z</time>
<desc>lat.=55.930717, lon.=26.511909, Alt.=120.377991m. Speed=5.256000m/h.</desc>
<speed>1.460000</speed>
</trkpt>
<trkpt lat="55.930740" lon="26.511930">
<ele>121.299866</ele>
<time>2010-06-20T07:53:32Z</time>
<desc>lat.=55.930740, lon.=26.511930, Alt.=121.299866m. Speed=4.068000m/h.</desc>
<speed>1.130000</speed>
</trkpt>
<trkpt lat="55.930756" lon="26.511944">
<ele>121.024475</ele>
<time>2010-06-20T07:53:33Z</time>
<desc>lat.=55.930756, lon.=26.511944, Alt.=121.024475m. Speed=5.904000m/h.</desc>
<speed>1.640000</speed>
</trkpt>
<trkpt lat="55.930763" lon="26.511969">
<ele>121.333069</ele>
<time>2010-06-20T07:53:34Z</time>
<desc>lat.=55.930763, lon.=26.511969, Alt.=121.333069m. Speed=4.356000m/h.</desc>
<speed>1.210000</speed>
</trkpt>
<trkpt lat="55.930782" lon="26.511978">
<ele>121.210022</ele>
<time>2010-06-20T07:53:35Z</time>
<desc>lat.=55.930782, lon.=26.511978, Alt.=121.210022m. Speed=7.488000m/h.</desc>
<speed>2.080000</speed>
</trkpt>
<trkpt lat="55.930798" lon="26.511993">
<ele>121.586975</ele>
<time>2010-06-20T07:53:36Z</time>
<desc>lat.=55.930798, lon.=26.511993, Alt.=121.586975m. Speed=4.752000m/h.</desc>
<speed>1.320000</speed>
</trkpt>
<trkpt lat="55.930817" lon="26.512011">
<ele>122.221741</ele>
<time>2010-06-20T07:53:37Z</time>
<desc>lat.=55.930817, lon.=26.512011, Alt.=122.221741m. Speed=5.400000m/h.</desc>
<speed>1.500000</speed>
</trkpt>
<trkpt lat="55.930840" lon="26.512026">
<ele>122.532288</ele>
<time>2010-06-20T07:53:38Z</time>
<desc>lat.=55.930840, lon.=26.512026, Alt.=122.532288m. Speed=5.724000m/h.</desc>
<speed>1.590000</speed>
</trkpt>
<trkpt lat="55.930862" lon="26.512045">
<ele>122.876038</ele>
<time>2010-06-20T07:53:39Z</time>
<desc>lat.=55.930862, lon.=26.512045, Alt.=122.876038m. Speed=4.932000m/h.</desc>
<speed>1.370000</speed>
</trkpt>
<trkpt lat="55.930882" lon="26.512064">
<ele>123.749084</ele>
<time>2010-06-20T07:53:40Z</time>
<desc>lat.=55.930882, lon.=26.512064, Alt.=123.749084m. Speed=2.988000m/h.</desc>
<speed>0.830000</speed>
</trkpt>
<trkpt lat="55.930901" lon="26.512075">
<ele>124.178772</ele>
<time>2010-06-20T07:53:41Z</time>
<desc>lat.=55.930901, lon.=26.512075, Alt.=124.178772m. Speed=6.840000m/h.</desc>
<speed>1.900000</speed>
</trkpt>
<trkpt lat="55.930931" lon="26.512098">
<ele>124.665100</ele>
<time>2010-06-20T07:53:42Z</time>
<desc>lat.=55.930931, lon.=26.512098, Alt.=124.665100m. Speed=7.488000m/h.</desc>
<speed>2.080000</speed>
</trkpt>
<trkpt lat="55.930954" lon="26.512110">
<ele>125.051819</ele>
<time>2010-06-20T07:53:43Z</time>
<desc>lat.=55.930954, lon.=26.512110, Alt.=125.051819m. Speed=5.616000m/h.</desc>
<speed>1.560000</speed>
</trkpt>
<trkpt lat="55.930973" lon="26.512135">
<ele>125.483459</ele>
<time>2010-06-20T07:53:44Z</time>
<desc>lat.=55.930973, lon.=26.512135, Alt.=125.483459m. Speed=5.940000m/h.</desc>
<speed>1.650000</speed>
</trkpt>
<trkpt lat="55.930996" lon="26.512152">
<ele>125.768616</ele>
<time>2010-06-20T07:53:45Z</time>
<desc>lat.=55.930996, lon.=26.512152, Alt.=125.768616m. Speed=6.696000m/h.</desc>
<speed>1.860000</speed>
</trkpt>
<trkpt lat="55.931015" lon="26.512171">
<ele>125.827209</ele>
<time>2010-06-20T07:53:46Z</time>
<desc>lat.=55.931015, lon.=26.512171, Alt.=125.827209m. Speed=6.696000m/h.</desc>
<speed>1.860000</speed>
</trkpt>
<trkpt lat="55.931026" lon="26.512184">
<ele>125.977600</ele>
<time>2010-06-20T07:53:47Z</time>
<desc>lat.=55.931026, lon.=26.512184, Alt.=125.977600m. Speed=11.628000m/h.</desc>
<speed>3.230000</speed>
</trkpt>
<trkpt lat="55.931061" lon="26.512213">
<ele>126.393616</ele>
<time>2010-06-20T07:53:48Z</time>
<desc>lat.=55.931061, lon.=26.512213, Alt.=126.393616m. Speed=9.144000m/h.</desc>
<speed>2.540000</speed>
</trkpt>
<trkpt lat="55.931114" lon="26.512274">
<ele>125.456116</ele>
<time>2010-06-20T07:53:49Z</time>
<desc>lat.=55.931114, lon.=26.512274, Alt.=125.456116m. Speed=8.640000m/h.</desc>
<speed>2.400000</speed>
</trkpt>
<trkpt lat="55.931156" lon="26.512308">
<ele>124.669006</ele>
<time>2010-06-20T07:53:50Z</time>
<desc>lat.=55.931156, lon.=26.512308, Alt.=124.669006m. Speed=9.936000m/h.</desc>
<speed>2.760000</speed>
</trkpt>
<trkpt lat="55.931183" lon="26.512323">
<ele>124.786194</ele>
<time>2010-06-20T07:53:51Z</time>
<desc>lat.=55.931183, lon.=26.512323, Alt.=124.786194m. Speed=7.920000m/h.</desc>
<speed>2.200000</speed>
</trkpt>
<trkpt lat="55.931213" lon="26.512339">
<ele>125.202209</ele>
<time>2010-06-20T07:53:52Z</time>
<desc>lat.=55.931213, lon.=26.512339, Alt.=125.202209m. Speed=6.732000m/h.</desc>
<speed>1.870000</speed>
</trkpt>
<trkpt lat="55.931248" lon="26.512363">
<ele>125.133850</ele>
<time>2010-06-20T07:53:53Z</time>
<desc>lat.=55.931248, lon.=26.512363, Alt.=125.133850m. Speed=8.676000m/h.</desc>
<speed>2.410000</speed>
</trkpt>
<trkpt lat="55.931274" lon="26.512392">
<ele>125.719788</ele>
<time>2010-06-20T07:53:54Z</time>
<desc>lat.=55.931274, lon.=26.512392, Alt.=125.719788m. Speed=7.560000m/h.</desc>
<speed>2.100000</speed>
</trkpt>
<trkpt lat="55.931301" lon="26.512417">
<ele>126.002991</ele>
<time>2010-06-20T07:53:55Z</time>
<desc>lat.=55.931301, lon.=26.512417, Alt.=126.002991m. Speed=7.740000m/h.</desc>
<speed>2.150000</speed>
</trkpt>
<trkpt lat="55.931332" lon="26.512461">
<ele>125.450256</ele>
<time>2010-06-20T07:53:56Z</time>
<desc>lat.=55.931332, lon.=26.512461, Alt.=125.450256m. Speed=7.020000m/h.</desc>
<speed>1.950000</speed>
</trkpt>
<trkpt lat="55.931355" lon="26.512484">
<ele>125.721741</ele>
<time>2010-06-20T07:53:57Z</time>
<desc>lat.=55.931355, lon.=26.512484, Alt.=125.721741m. Speed=6.480000m/h.</desc>
<speed>1.800000</speed>
</trkpt>
<trkpt lat="55.931374" lon="26.512508">
<ele>125.950256</ele>
<time>2010-06-20T07:53:58Z</time>
<desc>lat.=55.931374, lon.=26.512508, Alt.=125.950256m. Speed=6.912000m/h.</desc>
<speed>1.920000</speed>
</trkpt>
<trkpt lat="55.931400" lon="26.512518">
<ele>125.895569</ele>
<time>2010-06-20T07:53:59Z</time>
<desc>lat.=55.931400, lon.=26.512518, Alt.=125.895569m. Speed=7.452000m/h.</desc>
<speed>2.070000</speed>
</trkpt>
<trkpt lat="55.931431" lon="26.512547">
<ele>125.647522</ele>
<time>2010-06-20T07:54:00Z</time>
<desc>lat.=55.931431, lon.=26.512547, Alt.=125.647522m. Speed=6.552000m/h.</desc>
<speed>1.820000</speed>
</trkpt>
<trkpt lat="55.931458" lon="26.512568">
<ele>126.018616</ele>
<time>2010-06-20T07:54:01Z</time>
<desc>lat.=55.931458, lon.=26.512568, Alt.=126.018616m. Speed=7.596000m/h.</desc>
<speed>2.110000</speed>
</trkpt>
<trkpt lat="55.931473" lon="26.512590">
<ele>125.932678</ele>
<time>2010-06-20T07:54:02Z</time>
<desc>lat.=55.931473, lon.=26.512590, Alt.=125.932678m. Speed=7.488000m/h.</desc>
<speed>2.080000</speed>
</trkpt>
<trkpt lat="55.931511" lon="26.512625">
<ele>124.835022</ele>
<time>2010-06-20T07:54:03Z</time>
<desc>lat.=55.931511, lon.=26.512625, Alt.=124.835022m. Speed=6.228000m/h.</desc>
<speed>1.730000</speed>
</trkpt>
<trkpt lat="55.931538" lon="26.512663">
<ele>123.391663</ele>
<time>2010-06-20T07:54:04Z</time>
<desc>lat.=55.931538, lon.=26.512663, Alt.=123.391663m. Speed=7.236000m/h.</desc>
<speed>2.010000</speed>
</trkpt>
<trkpt lat="55.931576" lon="26.512695">
<ele>121.346741</ele>
<time>2010-06-20T07:54:05Z</time>
<desc>lat.=55.931576, lon.=26.512695, Alt.=121.346741m. Speed=9.144000m/h.</desc>
<speed>2.540000</speed>
</trkpt>
<trkpt lat="55.931602" lon="26.512728">
<ele>120.794006</ele>
<time>2010-06-20T07:54:06Z</time>
<desc>lat.=55.931602, lon.=26.512728, Alt.=120.794006m. Speed=7.560000m/h.</desc>
<speed>2.100000</speed>
</trkpt>
<trkpt lat="55.931637" lon="26.512753">
<ele>119.862366</ele>
<time>2010-06-20T07:54:07Z</time>
<desc>lat.=55.931637, lon.=26.512753, Alt.=119.862366m. Speed=10.944000m/h.</desc>
<speed>3.040000</speed>
</trkpt>
<trkpt lat="55.931664" lon="26.512774">
<ele>119.264709</ele>
<time>2010-06-20T07:54:08Z</time>
<desc>lat.=55.931664, lon.=26.512774, Alt.=119.264709m. Speed=9.000000m/h.</desc>
<speed>2.500000</speed>
</trkpt>
<trkpt lat="55.931683" lon="26.512800">
<ele>119.385803</ele>
<time>2010-06-20T07:54:09Z</time>
<desc>lat.=55.931683, lon.=26.512800, Alt.=119.385803m. Speed=6.840000m/h.</desc>
<speed>1.900000</speed>
</trkpt>
<trkpt lat="55.931702" lon="26.512825">
<ele>119.653381</ele>
<time>2010-06-20T07:54:10Z</time>
<desc>lat.=55.931702, lon.=26.512825, Alt.=119.653381m. Speed=7.272000m/h.</desc>
<speed>2.020000</speed>
</trkpt>
<trkpt lat="55.931721" lon="26.512844">
<ele>119.795959</ele>
<time>2010-06-20T07:54:11Z</time>
<desc>lat.=55.931721, lon.=26.512844, Alt.=119.795959m. Speed=6.336000m/h.</desc>
<speed>1.760000</speed>
</trkpt>
<trkpt lat="55.931740" lon="26.512861">
<ele>120.127991</ele>
<time>2010-06-20T07:54:12Z</time>
<desc>lat.=55.931740, lon.=26.512861, Alt.=120.127991m. Speed=8.532000m/h.</desc>
<speed>2.370000</speed>
</trkpt>
<trkpt lat="55.931759" lon="26.512882">
<ele>120.180725</ele>
<time>2010-06-20T07:54:13Z</time>
<desc>lat.=55.931759, lon.=26.512882, Alt.=120.180725m. Speed=6.588000m/h.</desc>
<speed>1.830000</speed>
</trkpt>
<trkpt lat="55.931789" lon="26.512907">
<ele>121.184631</ele>
<time>2010-06-20T07:54:14Z</time>
<desc>lat.=55.931789, lon.=26.512907, Alt.=121.184631m. Speed=7.776000m/h.</desc>
<speed>2.160000</speed>
</trkpt>
<trkpt lat="55.931808" lon="26.512926">
<ele>121.151428</ele>
<time>2010-06-20T07:54:15Z</time>
<desc>lat.=55.931808, lon.=26.512926, Alt.=121.151428m. Speed=8.172000m/h.</desc>
<speed>2.270000</speed>
</trkpt>
<trkpt lat="55.931828" lon="26.512943">
<ele>121.346741</ele>
<time>2010-06-20T07:54:16Z</time>
<desc>lat.=55.931828, lon.=26.512943, Alt.=121.346741m. Speed=6.552000m/h.</desc>
<speed>1.820000</speed>
</trkpt>
<trkpt lat="55.931854" lon="26.512964">
<ele>121.198303</ele>
<time>2010-06-20T07:54:17Z</time>
<desc>lat.=55.931854, lon.=26.512964, Alt.=121.198303m. Speed=7.920000m/h.</desc>
<speed>2.200000</speed>
</trkpt>
<trkpt lat="55.931892" lon="26.513002">
<ele>120.891663</ele>
<time>2010-06-20T07:54:18Z</time>
<desc>lat.=55.931892, lon.=26.513002, Alt.=120.891663m. Speed=9.288000m/h.</desc>
<speed>2.580000</speed>
</trkpt>
<trkpt lat="55.931938" lon="26.513029">
<ele>121.651428</ele>
<time>2010-06-20T07:54:19Z</time>
<desc>lat.=55.931938, lon.=26.513029, Alt.=121.651428m. Speed=7.812000m/h.</desc>
<speed>2.170000</speed>
</trkpt>
<trkpt lat="55.931965" lon="26.513042">
<ele>121.817444</ele>
<time>2010-06-20T07:54:20Z</time>
<desc>lat.=55.931965, lon.=26.513042, Alt.=121.817444m. Speed=5.040000m/h.</desc>
<speed>1.400000</speed>
</trkpt>
<trkpt lat="55.932003" lon="26.513065">
<ele>122.217834</ele>
<time>2010-06-20T07:54:21Z</time>
<desc>lat.=55.932003, lon.=26.513065, Alt.=122.217834m. Speed=6.264000m/h.</desc>
<speed>1.740000</speed>
</trkpt>
<trkpt lat="55.932034" lon="26.513084">
<ele>121.221741</ele>
<time>2010-06-20T07:54:22Z</time>
<desc>lat.=55.932034, lon.=26.513084, Alt.=121.221741m. Speed=10.224000m/h.</desc>
<speed>2.840000</speed>
</trkpt>
<trkpt lat="55.932060" lon="26.513094">
<ele>121.311584</ele>
<time>2010-06-20T07:54:23Z</time>
<desc>lat.=55.932060, lon.=26.513094, Alt.=121.311584m. Speed=8.352000m/h.</desc>
<speed>2.320000</speed>
</trkpt>
<trkpt lat="55.932083" lon="26.513107">
<ele>120.055725</ele>
<time>2010-06-20T07:54:24Z</time>
<desc>lat.=55.932083, lon.=26.513107, Alt.=120.055725m. Speed=8.064000m/h.</desc>
<speed>2.240000</speed>
</trkpt>
<trkpt lat="55.932102" lon="26.513117">
<ele>119.581116</ele>
<time>2010-06-20T07:54:25Z</time>
<desc>lat.=55.932102, lon.=26.513117, Alt.=119.581116m. Speed=7.344000m/h.</desc>
<speed>2.040000</speed>
</trkpt>
<trkpt lat="55.932121" lon="26.513121">
<ele>119.815491</ele>
<time>2010-06-20T07:54:26Z</time>
<desc>lat.=55.932121, lon.=26.513121, Alt.=119.815491m. Speed=7.776000m/h.</desc>
<speed>2.160000</speed>
</trkpt>
<trkpt lat="55.932140" lon="26.513123">
<ele>119.229553</ele>
<time>2010-06-20T07:54:27Z</time>
<desc>lat.=55.932140, lon.=26.513123, Alt.=119.229553m. Speed=6.228000m/h.</desc>
<speed>1.730000</speed>
</trkpt>
<trkpt lat="55.932167" lon="26.513119">
<ele>119.815491</ele>
<time>2010-06-20T07:54:28Z</time>
<desc>lat.=55.932167, lon.=26.513119, Alt.=119.815491m. Speed=5.904000m/h.</desc>
<speed>1.640000</speed>
</trkpt>
<trkpt lat="55.932182" lon="26.513121">
<ele>119.758850</ele>
<time>2010-06-20T07:54:29Z</time>
<desc>lat.=55.932182, lon.=26.513121, Alt.=119.758850m. Speed=4.284000m/h.</desc>
<speed>1.190000</speed>
</trkpt>
<trkpt lat="55.932205" lon="26.513115">
<ele>120.467834</ele>
<time>2010-06-20T07:54:30Z</time>
<desc>lat.=55.932205, lon.=26.513115, Alt.=120.467834m. Speed=6.156000m/h.</desc>
<speed>1.710000</speed>
</trkpt>
<trkpt lat="55.932217" lon="26.513103">
<ele>119.928772</ele>
<time>2010-06-20T07:54:31Z</time>
<desc>lat.=55.932217, lon.=26.513103, Alt.=119.928772m. Speed=3.600000m/h.</desc>
<speed>1.000000</speed>
</trkpt>
<trkpt lat="55.932232" lon="26.513088">
<ele>119.938538</ele>
<time>2010-06-20T07:54:32Z</time>
<desc>lat.=55.932232, lon.=26.513088, Alt.=119.938538m. Speed=4.824000m/h.</desc>
<speed>1.340000</speed>
</trkpt>
<trkpt lat="55.932247" lon="26.513081">
<ele>119.868225</ele>
<time>2010-06-20T07:54:33Z</time>
<desc>lat.=55.932247, lon.=26.513081, Alt.=119.868225m. Speed=6.264000m/h.</desc>
<speed>1.740000</speed>
</trkpt>
<trkpt lat="55.932266" lon="26.513071">
<ele>119.643616</ele>
<time>2010-06-20T07:54:34Z</time>
<desc>lat.=55.932266, lon.=26.513071, Alt.=119.643616m. Speed=6.372000m/h.</desc>
<speed>1.770000</speed>
</trkpt>
<trkpt lat="55.932308" lon="26.513073">
<ele>120.108459</ele>
<time>2010-06-20T07:54:35Z</time>
<desc>lat.=55.932308, lon.=26.513073, Alt.=120.108459m. Speed=8.532000m/h.</desc>
<speed>2.370000</speed>
</trkpt>
<trkpt lat="55.932346" lon="26.513081">
<ele>120.436584</ele>
<time>2010-06-20T07:54:36Z</time>
<desc>lat.=55.932346, lon.=26.513081, Alt.=120.436584m. Speed=7.776000m/h.</desc>
<speed>2.160000</speed>
</trkpt>
<trkpt lat="55.932384" lon="26.513079">
<ele>118.752991</ele>
<time>2010-06-20T07:54:37Z</time>
<desc>lat.=55.932384, lon.=26.513079, Alt.=118.752991m. Speed=9.612000m/h.</desc>
<speed>2.670000</speed>
</trkpt>
<trkpt lat="55.932411" lon="26.513083">
<ele>118.989319</ele>
<time>2010-06-20T07:54:38Z</time>
<desc>lat.=55.932411, lon.=26.513083, Alt.=118.989319m. Speed=6.660000m/h.</desc>
<speed>1.850000</speed>
</trkpt>
<trkpt lat="55.932434" lon="26.513088">
<ele>118.499084</ele>
<time>2010-06-20T07:54:39Z</time>
<desc>lat.=55.932434, lon.=26.513088, Alt.=118.499084m. Speed=6.660000m/h.</desc>
<speed>1.850000</speed>
</trkpt>
<trkpt lat="55.932453" lon="26.513084">
<ele>117.579163</ele>
<time>2010-06-20T07:54:40Z</time>
<desc>lat.=55.932453, lon.=26.513084, Alt.=117.579163m. Speed=7.092000m/h.</desc>
<speed>1.970000</speed>
</trkpt>
<trkpt lat="55.932480" lon="26.513084">
<ele>116.585022</ele>
<time>2010-06-20T07:54:41Z</time>
<desc>lat.=55.932480, lon.=26.513084, Alt.=116.585022m. Speed=8.640000m/h.</desc>
<speed>2.400000</speed>
</trkpt>
<trkpt lat="55.932510" lon="26.513098">
<ele>115.741272</ele>
<time>2010-06-20T07:54:42Z</time>
<desc>lat.=55.932510, lon.=26.513098, Alt.=115.741272m. Speed=7.380000m/h.</desc>
<speed>2.050000</speed>
</trkpt>
<trkpt lat="55.932549" lon="26.513132">
<ele>113.575256</ele>
<time>2010-06-20T07:54:43Z</time>
<desc>lat.=55.932549, lon.=26.513132, Alt.=113.575256m. Speed=9.216000m/h.</desc>
<speed>2.560000</speed>
</trkpt>
<trkpt lat="55.932571" lon="26.513144">
<ele>113.032288</ele>
<time>2010-06-20T07:54:44Z</time>
<desc>lat.=55.932571, lon.=26.513144, Alt.=113.032288m. Speed=6.408000m/h.</desc>
<speed>1.780000</speed>
</trkpt>
<trkpt lat="55.932602" lon="26.513140">
<ele>112.112366</ele>
<time>2010-06-20T07:54:45Z</time>
<desc>lat.=55.932602, lon.=26.513140, Alt.=112.112366m. Speed=8.892000m/h.</desc>
<speed>2.470000</speed>
</trkpt>
<trkpt lat="55.932621" lon="26.513151">
<ele>110.165100</ele>
<time>2010-06-20T07:54:46Z</time>
<desc>lat.=55.932621, lon.=26.513151, Alt.=110.165100m. Speed=5.652000m/h.</desc>
<speed>1.570000</speed>
</trkpt>
<trkpt lat="55.932644" lon="26.513151">
<ele>110.329163</ele>
<time>2010-06-20T07:54:47Z</time>
<desc>lat.=55.932644, lon.=26.513151, Alt.=110.329163m. Speed=6.156000m/h.</desc>
<speed>1.710000</speed>
</trkpt>
<trkpt lat="55.932671" lon="26.513151">
<ele>111.069397</ele>
<time>2010-06-20T07:54:48Z</time>
<desc>lat.=55.932671, lon.=26.513151, Alt.=111.069397m. Speed=6.768000m/h.</desc>
<speed>1.880000</speed>
</trkpt>
<trkpt lat="55.932690" lon="26.513149">
<ele>111.405334</ele>
<time>2010-06-20T07:54:49Z</time>
<desc>lat.=55.932690, lon.=26.513149, Alt.=111.405334m. Speed=5.796000m/h.</desc>
<speed>1.610000</speed>
</trkpt>
<trkpt lat="55.932713" lon="26.513161">
<ele>111.776428</ele>
<time>2010-06-20T07:54:50Z</time>
<desc>lat.=55.932713, lon.=26.513161, Alt.=111.776428m. Speed=6.372000m/h.</desc>
<speed>1.770000</speed>
</trkpt>
<trkpt lat="55.932732" lon="26.513166">
<ele>112.012756</ele>
<time>2010-06-20T07:54:51Z</time>
<desc>lat.=55.932732, lon.=26.513166, Alt.=112.012756m. Speed=6.012000m/h.</desc>
<speed>1.670000</speed>
</trkpt>
<trkpt lat="55.932755" lon="26.513176">
<ele>112.194397</ele>
<time>2010-06-20T07:54:52Z</time>
<desc>lat.=55.932755, lon.=26.513176, Alt.=112.194397m. Speed=5.004000m/h.</desc>
<speed>1.390000</speed>
</trkpt>
<trkpt lat="55.932774" lon="26.513203">
<ele>112.590881</ele>
<time>2010-06-20T07:54:53Z</time>
<desc>lat.=55.932774, lon.=26.513203, Alt.=112.590881m. Speed=4.068000m/h.</desc>
<speed>1.130000</speed>
</trkpt>
<trkpt lat="55.932796" lon="26.513201">
<ele>113.169006</ele>
<time>2010-06-20T07:54:54Z</time>
<desc>lat.=55.932796, lon.=26.513201, Alt.=113.169006m. Speed=6.048000m/h.</desc>
<speed>1.680000</speed>
</trkpt>
<trkpt lat="55.932823" lon="26.513191">
<ele>113.922913</ele>
<time>2010-06-20T07:54:55Z</time>
<desc>lat.=55.932823, lon.=26.513191, Alt.=113.922913m. Speed=8.208000m/h.</desc>
<speed>2.280000</speed>
</trkpt>
<trkpt lat="55.932850" lon="26.513187">
<ele>115.254944</ele>
<time>2010-06-20T07:54:56Z</time>
<desc>lat.=55.932850, lon.=26.513187, Alt.=115.254944m. Speed=5.472000m/h.</desc>
<speed>1.520000</speed>
</trkpt>
<trkpt lat="55.932877" lon="26.513186">
<ele>115.952209</ele>
<time>2010-06-20T07:54:57Z</time>
<desc>lat.=55.932877, lon.=26.513186, Alt.=115.952209m. Speed=8.820000m/h.</desc>
<speed>2.450000</speed>
</trkpt>
<trkpt lat="55.932907" lon="26.513187">
<ele>116.706116</ele>
<time>2010-06-20T07:54:58Z</time>
<desc>lat.=55.932907, lon.=26.513187, Alt.=116.706116m. Speed=9.000000m/h.</desc>
<speed>2.500000</speed>
</trkpt>
<trkpt lat="55.932934" lon="26.513197">
<ele>116.969788</ele>
<time>2010-06-20T07:54:59Z</time>
<desc>lat.=55.932934, lon.=26.513197, Alt.=116.969788m. Speed=7.416000m/h.</desc>
<speed>2.060000</speed>
</trkpt>
<trkpt lat="55.932980" lon="26.513220">
<ele>116.032288</ele>
<time>2010-06-20T07:55:00Z</time>
<desc>lat.=55.932980, lon.=26.513220, Alt.=116.032288m. Speed=9.216000m/h.</desc>
<speed>2.560000</speed>
</trkpt>
<trkpt lat="55.933006" lon="26.513218">
<ele>116.110413</ele>
<time>2010-06-20T07:55:01Z</time>
<desc>lat.=55.933006, lon.=26.513218, Alt.=116.110413m. Speed=10.116000m/h.</desc>
<speed>2.810000</speed>
</trkpt>
<trkpt lat="55.933060" lon="26.513220">
<ele>117.682678</ele>
<time>2010-06-20T07:55:02Z</time>
<desc>lat.=55.933060, lon.=26.513220, Alt.=117.682678m. Speed=9.504000m/h.</desc>
<speed>2.640000</speed>
</trkpt>
<trkpt lat="55.933121" lon="26.513241">
<ele>118.442444</ele>
<time>2010-06-20T07:55:03Z</time>
<desc>lat.=55.933121, lon.=26.513241, Alt.=118.442444m. Speed=8.424000m/h.</desc>
<speed>2.340000</speed>
</trkpt>
<trkpt lat="55.933147" lon="26.513248">
<ele>118.862366</ele>
<time>2010-06-20T07:55:04Z</time>
<desc>lat.=55.933147, lon.=26.513248, Alt.=118.862366m. Speed=7.992000m/h.</desc>
<speed>2.220000</speed>
</trkpt>
<trkpt lat="55.933186" lon="26.513247">
<ele>117.801819</ele>
<time>2010-06-20T07:55:05Z</time>
<desc>lat.=55.933186, lon.=26.513247, Alt.=117.801819m. Speed=7.956000m/h.</desc>
<speed>2.210000</speed>
</trkpt>
<trkpt lat="55.933208" lon="26.513250">
<ele>117.549866</ele>
<time>2010-06-20T07:55:06Z</time>
<desc>lat.=55.933208, lon.=26.513250, Alt.=117.549866m. Speed=6.228000m/h.</desc>
<speed>1.730000</speed>
</trkpt>
<trkpt lat="55.933228" lon="26.513248">
<ele>117.534241</ele>
<time>2010-06-20T07:55:07Z</time>
<desc>lat.=55.933228, lon.=26.513248, Alt.=117.534241m. Speed=5.940000m/h.</desc>
<speed>1.650000</speed>
</trkpt>
<trkpt lat="55.933250" lon="26.513241">
<ele>116.063538</ele>
<time>2010-06-20T07:55:08Z</time>
<desc>lat.=55.933250, lon.=26.513241, Alt.=116.063538m. Speed=6.408000m/h.</desc>
<speed>1.780000</speed>
</trkpt>
<trkpt lat="55.933327" lon="26.513235">
<ele>116.335022</ele>
<time>2010-06-20T07:55:09Z</time>
<desc>lat.=55.933327, lon.=26.513235, Alt.=116.335022m. Speed=9.792000m/h.</desc>
<speed>2.720000</speed>
</trkpt>
<trkpt lat="55.933369" lon="26.513237">
<ele>115.883850</ele>
<time>2010-06-20T07:55:10Z</time>
<desc>lat.=55.933369, lon.=26.513237, Alt.=115.883850m. Speed=9.792000m/h.</desc>
<speed>2.720000</speed>
</trkpt>
<trkpt lat="55.933395" lon="26.513229">
<ele>114.374084</ele>
<time>2010-06-20T07:55:11Z</time>
<desc>lat.=55.933395, lon.=26.513229, Alt.=114.374084m. Speed=8.172000m/h.</desc>
<speed>2.270000</speed>
</trkpt>
<trkpt lat="55.933418" lon="26.513222">
<ele>113.223694</ele>
<time>2010-06-20T07:55:12Z</time>
<desc>lat.=55.933418, lon.=26.513222, Alt.=113.223694m. Speed=2.916000m/h.</desc>
<speed>0.810000</speed>
</trkpt>
<trkpt lat="55.933437" lon="26.513241">
<ele>113.686584</ele>
<time>2010-06-20T07:55:13Z</time>
<desc>lat.=55.933437, lon.=26.513241, Alt.=113.686584m. Speed=5.580000m/h.</desc>
<speed>1.550000</speed>
</trkpt>
<trkpt lat="55.933456" lon="26.513254">
<ele>113.706116</ele>
<time>2010-06-20T07:55:14Z</time>
<desc>lat.=55.933456, lon.=26.513254, Alt.=113.706116m. Speed=6.372000m/h.</desc>
<speed>1.770000</speed>
</trkpt>
<trkpt lat="55.933479" lon="26.513250">
<ele>113.264709</ele>
<time>2010-06-20T07:55:15Z</time>
<desc>lat.=55.933479, lon.=26.513250, Alt.=113.264709m. Speed=6.264000m/h.</desc>
<speed>1.740000</speed>
</trkpt>
<trkpt lat="55.933510" lon="26.513264">
<ele>114.303772</ele>
<time>2010-06-20T07:55:16Z</time>
<desc>lat.=55.933510, lon.=26.513264, Alt.=114.303772m. Speed=6.264000m/h.</desc>
<speed>1.740000</speed>
</trkpt>
<trkpt lat="55.933529" lon="26.513266">
<ele>114.682678</ele>
<time>2010-06-20T07:55:17Z</time>
<desc>lat.=55.933529, lon.=26.513266, Alt.=114.682678m. Speed=5.832000m/h.</desc>
<speed>1.620000</speed>
</trkpt>
<trkpt lat="55.933548" lon="26.513264">
<ele>115.094788</ele>
<time>2010-06-20T07:55:18Z</time>
<desc>lat.=55.933548, lon.=26.513264, Alt.=115.094788m. Speed=6.372000m/h.</desc>
<speed>1.770000</speed>
</trkpt>
<trkpt lat="55.933571" lon="26.513275">
<ele>113.909241</ele>
<time>2010-06-20T07:55:19Z</time>
<desc>lat.=55.933571, lon.=26.513275, Alt.=113.909241m. Speed=7.776000m/h.</desc>
<speed>2.160000</speed>
</trkpt>
<trkpt lat="55.933594" lon="26.513281">
<ele>113.674866</ele>
<time>2010-06-20T07:55:20Z</time>
<desc>lat.=55.933594, lon.=26.513281, Alt.=113.674866m. Speed=6.480000m/h.</desc>
<speed>1.800000</speed>
</trkpt>
<trkpt lat="55.933620" lon="26.513273">
<ele>113.811584</ele>
<time>2010-06-20T07:55:21Z</time>
<desc>lat.=55.933620, lon.=26.513273, Alt.=113.811584m. Speed=8.244000m/h.</desc>
<speed>2.290000</speed>
</trkpt>
<trkpt lat="55.933651" lon="26.513285">
<ele>113.106506</ele>
<time>2010-06-20T07:55:22Z</time>
<desc>lat.=55.933651, lon.=26.513285, Alt.=113.106506m. Speed=9.000000m/h.</desc>
<speed>2.500000</speed>
</trkpt>
<trkpt lat="55.933681" lon="26.513285">
<ele>112.889709</ele>
<time>2010-06-20T07:55:23Z</time>
<desc>lat.=55.933681, lon.=26.513285, Alt.=112.889709m. Speed=8.460000m/h.</desc>
<speed>2.350000</speed>
</trkpt>
<trkpt lat="55.933716" lon="26.513287">
<ele>111.436584</ele>
<time>2010-06-20T07:55:24Z</time>
<desc>lat.=55.933716, lon.=26.513287, Alt.=111.436584m. Speed=8.280000m/h.</desc>
<speed>2.300000</speed>
</trkpt>
<trkpt lat="55.933746" lon="26.513300">
<ele>110.573303</ele>
<time>2010-06-20T07:55:25Z</time>
<desc>lat.=55.933746, lon.=26.513300, Alt.=110.573303m. Speed=9.360000m/h.</desc>
<speed>2.600000</speed>
</trkpt>
<trkpt lat="55.933777" lon="26.513308">
<ele>111.100647</ele>
<time>2010-06-20T07:55:26Z</time>
<desc>lat.=55.933777, lon.=26.513308, Alt.=111.100647m. Speed=8.604000m/h.</desc>
<speed>2.390000</speed>
</trkpt>
<trkpt lat="55.933807" lon="26.513311">
<ele>110.376038</ele>
<time>2010-06-20T07:55:27Z</time>
<desc>lat.=55.933807, lon.=26.513311, Alt.=110.376038m. Speed=8.172000m/h.</desc>
<speed>2.270000</speed>
</trkpt>
<trkpt lat="55.933834" lon="26.513317">
<ele>109.715881</ele>
<time>2010-06-20T07:55:28Z</time>
<desc>lat.=55.933834, lon.=26.513317, Alt.=109.715881m. Speed=8.748000m/h.</desc>
<speed>2.430000</speed>
</trkpt>
<trkpt lat="55.933861" lon="26.513315">
<ele>107.938538</ele>
<time>2010-06-20T07:55:29Z</time>
<desc>lat.=55.933861, lon.=26.513315, Alt.=107.938538m. Speed=7.128000m/h.</desc>
<speed>1.980000</speed>
</trkpt>
<trkpt lat="55.933884" lon="26.513315">
<ele>107.237366</ele>
<time>2010-06-20T07:55:30Z</time>
<desc>lat.=55.933884, lon.=26.513315, Alt.=107.237366m. Speed=7.128000m/h.</desc>
<speed>1.980000</speed>
</trkpt>
<trkpt lat="55.933914" lon="26.513325">
<ele>108.450256</ele>
<time>2010-06-20T07:55:31Z</time>
<desc>lat.=55.933914, lon.=26.513325, Alt.=108.450256m. Speed=11.556000m/h.</desc>
<speed>3.210000</speed>
</trkpt>
<trkpt lat="55.933949" lon="26.513330">
<ele>106.973694</ele>
<time>2010-06-20T07:55:32Z</time>
<desc>lat.=55.933949, lon.=26.513330, Alt.=106.973694m. Speed=5.004000m/h.</desc>
<speed>1.390000</speed>
</trkpt>
<trkpt lat="55.933968" lon="26.513330">
<ele>106.383850</ele>
<time>2010-06-20T07:55:33Z</time>
<desc>lat.=55.933968, lon.=26.513330, Alt.=106.383850m. Speed=5.724000m/h.</desc>
<speed>1.590000</speed>
</trkpt>
<trkpt lat="55.933990" lon="26.513355">
<ele>105.538147</ele>
<time>2010-06-20T07:55:34Z</time>
<desc>lat.=55.933990, lon.=26.513355, Alt.=105.538147m. Speed=8.964000m/h.</desc>
<speed>2.490000</speed>
</trkpt>
<trkpt lat="55.934021" lon="26.513388">
<ele>104.440491</ele>
<time>2010-06-20T07:55:35Z</time>
<desc>lat.=55.934021, lon.=26.513388, Alt.=104.440491m. Speed=9.036000m/h.</desc>
<speed>2.510000</speed>
</trkpt>
<trkpt lat="55.934052" lon="26.513399">
<ele>103.487366</ele>
<time>2010-06-20T07:55:36Z</time>
<desc>lat.=55.934052, lon.=26.513399, Alt.=103.487366m. Speed=9.756000m/h.</desc>
<speed>2.710000</speed>
</trkpt>
<trkpt lat="55.934090" lon="26.513411">
<ele>102.200256</ele>
<time>2010-06-20T07:55:37Z</time>
<desc>lat.=55.934090, lon.=26.513411, Alt.=102.200256m. Speed=9.576000m/h.</desc>
<speed>2.660000</speed>
</trkpt>
<trkpt lat="55.934128" lon="26.513420">
<ele>101.442444</ele>
<time>2010-06-20T07:55:38Z</time>
<desc>lat.=55.934128, lon.=26.513420, Alt.=101.442444m. Speed=8.424000m/h.</desc>
<speed>2.340000</speed>
</trkpt>
<trkpt lat="55.934158" lon="26.513432">
<ele>100.764709</ele>
<time>2010-06-20T07:55:39Z</time>
<desc>lat.=55.934158, lon.=26.513432, Alt.=100.764709m. Speed=8.424000m/h.</desc>
<speed>2.340000</speed>
</trkpt>
<trkpt lat="55.934193" lon="26.513437">
<ele>99.192444</ele>
<time>2010-06-20T07:55:40Z</time>
<desc>lat.=55.934193, lon.=26.513437, Alt.=99.192444m. Speed=8.244000m/h.</desc>
<speed>2.290000</speed>
</trkpt>
<trkpt lat="55.934216" lon="26.513447">
<ele>98.854553</ele>
<time>2010-06-20T07:55:41Z</time>
<desc>lat.=55.934216, lon.=26.513447, Alt.=98.854553m. Speed=8.676000m/h.</desc>
<speed>2.410000</speed>
</trkpt>
<trkpt lat="55.934250" lon="26.513453">
<ele>98.581116</ele>
<time>2010-06-20T07:55:42Z</time>
<desc>lat.=55.934250, lon.=26.513453, Alt.=98.581116m. Speed=9.216000m/h.</desc>
<speed>2.560000</speed>
</trkpt>
<trkpt lat="55.934277" lon="26.513474">
<ele>97.452209</ele>
<time>2010-06-20T07:55:43Z</time>
<desc>lat.=55.934277, lon.=26.513474, Alt.=97.452209m. Speed=9.612000m/h.</desc>
<speed>2.670000</speed>
</trkpt>
<trkpt lat="55.934311" lon="26.513494">
<ele>97.487366</ele>
<time>2010-06-20T07:55:44Z</time>
<desc>lat.=55.934311, lon.=26.513494, Alt.=97.487366m. Speed=9.900000m/h.</desc>
<speed>2.750000</speed>
</trkpt>
<trkpt lat="55.934334" lon="26.513508">
<ele>97.401428</ele>
<time>2010-06-20T07:55:45Z</time>
<desc>lat.=55.934334, lon.=26.513508, Alt.=97.401428m. Speed=5.436000m/h.</desc>
<speed>1.510000</speed>
</trkpt>
<trkpt lat="55.934364" lon="26.513523">
<ele>96.899475</ele>
<time>2010-06-20T07:55:46Z</time>
<desc>lat.=55.934364, lon.=26.513523, Alt.=96.899475m. Speed=9.576000m/h.</desc>
<speed>2.660000</speed>
</trkpt>
<trkpt lat="55.934391" lon="26.513546">
<ele>96.538147</ele>
<time>2010-06-20T07:55:47Z</time>
<desc>lat.=55.934391, lon.=26.513546, Alt.=96.538147m. Speed=9.288000m/h.</desc>
<speed>2.580000</speed>
</trkpt>
<trkpt lat="55.934422" lon="26.513557">
<ele>96.877991</ele>
<time>2010-06-20T07:55:48Z</time>
<desc>lat.=55.934422, lon.=26.513557, Alt.=96.877991m. Speed=6.084000m/h.</desc>
<speed>1.690000</speed>
</trkpt>
<trkpt lat="55.934444" lon="26.513567">
<ele>97.473694</ele>
<time>2010-06-20T07:55:49Z</time>
<desc>lat.=55.934444, lon.=26.513567, Alt.=97.473694m. Speed=5.508000m/h.</desc>
<speed>1.530000</speed>
</trkpt>
<trkpt lat="55.934471" lon="26.513590">
<ele>97.362366</ele>
<time>2010-06-20T07:55:50Z</time>
<desc>lat.=55.934471, lon.=26.513590, Alt.=97.362366m. Speed=6.516000m/h.</desc>
<speed>1.810000</speed>
</trkpt>
<trkpt lat="55.934509" lon="26.513613">
<ele>97.377991</ele>
<time>2010-06-20T07:55:51Z</time>
<desc>lat.=55.934509, lon.=26.513613, Alt.=97.377991m. Speed=9.720000m/h.</desc>
<speed>2.700000</speed>
</trkpt>
<trkpt lat="55.934544" lon="26.513638">
<ele>97.483459</ele>
<time>2010-06-20T07:55:52Z</time>
<desc>lat.=55.934544, lon.=26.513638, Alt.=97.483459m. Speed=8.100000m/h.</desc>
<speed>2.250000</speed>
</trkpt>
<trkpt lat="55.934574" lon="26.513647">
<ele>97.665100</ele>
<time>2010-06-20T07:55:53Z</time>
<desc>lat.=55.934574, lon.=26.513647, Alt.=97.665100m. Speed=6.480000m/h.</desc>
<speed>1.800000</speed>
</trkpt>
<trkpt lat="55.934601" lon="26.513662">
<ele>98.688538</ele>
<time>2010-06-20T07:55:54Z</time>
<desc>lat.=55.934601, lon.=26.513662, Alt.=98.688538m. Speed=6.696000m/h.</desc>
<speed>1.860000</speed>
</trkpt>
<trkpt lat="55.934628" lon="26.513687">
<ele>99.081116</ele>
<time>2010-06-20T07:55:55Z</time>
<desc>lat.=55.934628, lon.=26.513687, Alt.=99.081116m. Speed=9.216000m/h.</desc>
<speed>2.560000</speed>
</trkpt>
<trkpt lat="55.934669" lon="26.513720">
<ele>99.297913</ele>
<time>2010-06-20T07:55:56Z</time>
<desc>lat.=55.934669, lon.=26.513720, Alt.=99.297913m. Speed=11.772000m/h.</desc>
<speed>3.270000</speed>
</trkpt>
<trkpt lat="55.934696" lon="26.513744">
<ele>99.719788</ele>
<time>2010-06-20T07:55:57Z</time>
<desc>lat.=55.934696, lon.=26.513744, Alt.=99.719788m. Speed=10.836000m/h.</desc>
<speed>3.010000</speed>
</trkpt>
<trkpt lat="55.934719" lon="26.513762">
<ele>99.922913</ele>
<time>2010-06-20T07:55:58Z</time>
<desc>lat.=55.934719, lon.=26.513762, Alt.=99.922913m. Speed=4.896000m/h.</desc>
<speed>1.360000</speed>
</trkpt>
<trkpt lat="55.934742" lon="26.513779">
<ele>100.284241</ele>
<time>2010-06-20T07:55:59Z</time>
<desc>lat.=55.934742, lon.=26.513779, Alt.=100.284241m. Speed=5.184000m/h.</desc>
<speed>1.440000</speed>
</trkpt>
<trkpt lat="55.934750" lon="26.513794">
<ele>99.889709</ele>
<time>2010-06-20T07:56:00Z</time>
<desc>lat.=55.934750, lon.=26.513794, Alt.=99.889709m. Speed=5.256000m/h.</desc>
<speed>1.460000</speed>
</trkpt>
<trkpt lat="55.934772" lon="26.513807">
<ele>100.645569</ele>
<time>2010-06-20T07:56:01Z</time>
<desc>lat.=55.934772, lon.=26.513807, Alt.=100.645569m. Speed=7.560000m/h.</desc>
<speed>2.100000</speed>
</trkpt>
<trkpt lat="55.934799" lon="26.513836">
<ele>101.139709</ele>
<time>2010-06-20T07:56:02Z</time>
<desc>lat.=55.934799, lon.=26.513836, Alt.=101.139709m. Speed=7.452000m/h.</desc>
<speed>2.070000</speed>
</trkpt>
<trkpt lat="55.934830" lon="26.513859">
<ele>101.407288</ele>
<time>2010-06-20T07:56:03Z</time>
<desc>lat.=55.934830, lon.=26.513859, Alt.=101.407288m. Speed=8.712000m/h.</desc>
<speed>2.420000</speed>
</trkpt>
<trkpt lat="55.934845" lon="26.513884">
<ele>101.389709</ele>
<time>2010-06-20T07:56:04Z</time>
<desc>lat.=55.934845, lon.=26.513884, Alt.=101.389709m. Speed=12.708000m/h.</desc>
<speed>3.530000</speed>
</trkpt>
<trkpt lat="55.934883" lon="26.513914">
<ele>101.905334</ele>
<time>2010-06-20T07:56:05Z</time>
<desc>lat.=55.934883, lon.=26.513914, Alt.=101.905334m. Speed=11.484000m/h.</desc>
<speed>3.190000</speed>
</trkpt>
<trkpt lat="55.934906" lon="26.513943">
<ele>101.868225</ele>
<time>2010-06-20T07:56:06Z</time>
<desc>lat.=55.934906, lon.=26.513943, Alt.=101.868225m. Speed=11.088000m/h.</desc>
<speed>3.080000</speed>
</trkpt>
<trkpt lat="55.934940" lon="26.513969">
<ele>102.383850</ele>
<time>2010-06-20T07:56:07Z</time>
<desc>lat.=55.934940, lon.=26.513969, Alt.=102.383850m. Speed=8.028000m/h.</desc>
<speed>2.230000</speed>
</trkpt>
<trkpt lat="55.934975" lon="26.513988">
<ele>102.075256</ele>
<time>2010-06-20T07:56:08Z</time>
<desc>lat.=55.934975, lon.=26.513988, Alt.=102.075256m. Speed=9.324000m/h.</desc>
<speed>2.590000</speed>
</trkpt>
<trkpt lat="55.935013" lon="26.514015">
<ele>101.706116</ele>
<time>2010-06-20T07:56:09Z</time>
<desc>lat.=55.935013, lon.=26.514015, Alt.=101.706116m. Speed=9.936000m/h.</desc>
<speed>2.760000</speed>
</trkpt>
<trkpt lat="55.935059" lon="26.514038">
<ele>101.553772</ele>
<time>2010-06-20T07:56:10Z</time>
<desc>lat.=55.935059, lon.=26.514038, Alt.=101.553772m. Speed=12.168000m/h.</desc>
<speed>3.380000</speed>
</trkpt>
<trkpt lat="55.935093" lon="26.514063">
<ele>101.749084</ele>
<time>2010-06-20T07:56:11Z</time>
<desc>lat.=55.935093, lon.=26.514063, Alt.=101.749084m. Speed=7.812000m/h.</desc>
<speed>2.170000</speed>
</trkpt>
<trkpt lat="55.935120" lon="26.514076">
<ele>101.627991</ele>
<time>2010-06-20T07:56:12Z</time>
<desc>lat.=55.935120, lon.=26.514076, Alt.=101.627991m. Speed=5.220000m/h.</desc>
<speed>1.450000</speed>
</trkpt>
<trkpt lat="55.935135" lon="26.514093">
<ele>101.415100</ele>
<time>2010-06-20T07:56:13Z</time>
<desc>lat.=55.935135, lon.=26.514093, Alt.=101.415100m. Speed=4.752000m/h.</desc>
<speed>1.320000</speed>
</trkpt>
<trkpt lat="55.935158" lon="26.514107">
<ele>101.069397</ele>
<time>2010-06-20T07:56:14Z</time>
<desc>lat.=55.935158, lon.=26.514107, Alt.=101.069397m. Speed=4.608000m/h.</desc>
<speed>1.280000</speed>
</trkpt>
<trkpt lat="55.935192" lon="26.514126">
<ele>100.797913</ele>
<time>2010-06-20T07:56:15Z</time>
<desc>lat.=55.935192, lon.=26.514126, Alt.=100.797913m. Speed=7.164000m/h.</desc>
<speed>1.990000</speed>
</trkpt>
<trkpt lat="55.935215" lon="26.514151">
<ele>100.825256</ele>
<time>2010-06-20T07:56:16Z</time>
<desc>lat.=55.935215, lon.=26.514151, Alt.=100.825256m. Speed=6.264000m/h.</desc>
<speed>1.740000</speed>
</trkpt>
<trkpt lat="55.935246" lon="26.514168">
<ele>100.432678</ele>
<time>2010-06-20T07:56:17Z</time>
<desc>lat.=55.935246, lon.=26.514168, Alt.=100.432678m. Speed=5.580000m/h.</desc>
<speed>1.550000</speed>
</trkpt>
<trkpt lat="55.935268" lon="26.514193">
<ele>100.399475</ele>
<time>2010-06-20T07:56:18Z</time>
<desc>lat.=55.935268, lon.=26.514193, Alt.=100.399475m. Speed=6.768000m/h.</desc>
<speed>1.880000</speed>
</trkpt>
<trkpt lat="55.935310" lon="26.514212">
<ele>99.692444</ele>
<time>2010-06-20T07:56:19Z</time>
<desc>lat.=55.935310, lon.=26.514212, Alt.=99.692444m. Speed=7.920000m/h.</desc>
<speed>2.200000</speed>
</trkpt>
<trkpt lat="55.935349" lon="26.514246">
<ele>98.936584</ele>
<time>2010-06-20T07:56:20Z</time>
<desc>lat.=55.935349, lon.=26.514246, Alt.=98.936584m. Speed=7.560000m/h.</desc>
<speed>2.100000</speed>
</trkpt>
<trkpt lat="55.935375" lon="26.514284">
<ele>98.338928</ele>
<time>2010-06-20T07:56:21Z</time>
<desc>lat.=55.935375, lon.=26.514284, Alt.=98.338928m. Speed=7.704000m/h.</desc>
<speed>2.140000</speed>
</trkpt>
<trkpt lat="55.935406" lon="26.514315">
<ele>97.987366</ele>
<time>2010-06-20T07:56:22Z</time>
<desc>lat.=55.935406, lon.=26.514315, Alt.=97.987366m. Speed=7.488000m/h.</desc>
<speed>2.080000</speed>
</trkpt>
<trkpt lat="55.935436" lon="26.514341">
<ele>97.776428</ele>
<time>2010-06-20T07:56:23Z</time>
<desc>lat.=55.935436, lon.=26.514341, Alt.=97.776428m. Speed=6.588000m/h.</desc>
<speed>1.830000</speed>
</trkpt>
<trkpt lat="55.935474" lon="26.514376">
<ele>96.917053</ele>
<time>2010-06-20T07:56:24Z</time>
<desc>lat.=55.935474, lon.=26.514376, Alt.=96.917053m. Speed=9.396000m/h.</desc>
<speed>2.610000</speed>
</trkpt>
<trkpt lat="55.935513" lon="26.514410">
<ele>96.297913</ele>
<time>2010-06-20T07:56:25Z</time>
<desc>lat.=55.935513, lon.=26.514410, Alt.=96.297913m. Speed=10.332000m/h.</desc>
<speed>2.870000</speed>
</trkpt>
<trkpt lat="55.935547" lon="26.514465">
<ele>96.348694</ele>
<time>2010-06-20T07:56:26Z</time>
<desc>lat.=55.935547, lon.=26.514465, Alt.=96.348694m. Speed=8.820000m/h.</desc>
<speed>2.450000</speed>
</trkpt>
<trkpt lat="55.935558" lon="26.514505">
<ele>96.215881</ele>
<time>2010-06-20T07:56:27Z</time>
<desc>lat.=55.935558, lon.=26.514505, Alt.=96.215881m. Speed=6.084000m/h.</desc>
<speed>1.690000</speed>
</trkpt>
<trkpt lat="55.935577" lon="26.514540">
<ele>95.762756</ele>
<time>2010-06-20T07:56:28Z</time>
<desc>lat.=55.935577, lon.=26.514540, Alt.=95.762756m. Speed=7.704000m/h.</desc>
<speed>2.140000</speed>
</trkpt>
<trkpt lat="55.935589" lon="26.514570">
<ele>95.086975</ele>
<time>2010-06-20T07:56:29Z</time>
<desc>lat.=55.935589, lon.=26.514570, Alt.=95.086975m. Speed=6.948000m/h.</desc>
<speed>1.930000</speed>
</trkpt>
<trkpt lat="55.935627" lon="26.514624">
<ele>94.159241</ele>
<time>2010-06-20T07:56:30Z</time>
<desc>lat.=55.935627, lon.=26.514624, Alt.=94.159241m. Speed=7.992000m/h.</desc>
<speed>2.220000</speed>
</trkpt>
<trkpt lat="55.935650" lon="26.514658">
<ele>93.520569</ele>
<time>2010-06-20T07:56:31Z</time>
<desc>lat.=55.935650, lon.=26.514658, Alt.=93.520569m. Speed=7.164000m/h.</desc>
<speed>1.990000</speed>
</trkpt>
<trkpt lat="55.935665" lon="26.514688">
<ele>92.899475</ele>
<time>2010-06-20T07:56:32Z</time>
<desc>lat.=55.935665, lon.=26.514688, Alt.=92.899475m. Speed=6.948000m/h.</desc>
<speed>1.930000</speed>
</trkpt>
<trkpt lat="55.935684" lon="26.514725">
<ele>92.479553</ele>
<time>2010-06-20T07:56:33Z</time>
<desc>lat.=55.935684, lon.=26.514725, Alt.=92.479553m. Speed=9.792000m/h.</desc>
<speed>2.720000</speed>
</trkpt>
<trkpt lat="55.935715" lon="26.514769">
<ele>93.086975</ele>
<time>2010-06-20T07:56:34Z</time>
<desc>lat.=55.935715, lon.=26.514769, Alt.=93.086975m. Speed=8.028000m/h.</desc>
<speed>2.230000</speed>
</trkpt>
<trkpt lat="55.935730" lon="26.514801">
<ele>93.016663</ele>
<time>2010-06-20T07:56:35Z</time>
<desc>lat.=55.935730, lon.=26.514801, Alt.=93.016663m. Speed=6.876000m/h.</desc>
<speed>1.910000</speed>
</trkpt>
<trkpt lat="55.935753" lon="26.514839">
<ele>92.465881</ele>
<time>2010-06-20T07:56:36Z</time>
<desc>lat.=55.935753, lon.=26.514839, Alt.=92.465881m. Speed=7.488000m/h.</desc>
<speed>2.080000</speed>
</trkpt>
<trkpt lat="55.935768" lon="26.514872">
<ele>92.108459</ele>
<time>2010-06-20T07:56:37Z</time>
<desc>lat.=55.935768, lon.=26.514872, Alt.=92.108459m. Speed=7.884000m/h.</desc>
<speed>2.190000</speed>
</trkpt>
<trkpt lat="55.935795" lon="26.514910">
<ele>91.848694</ele>
<time>2010-06-20T07:56:38Z</time>
<desc>lat.=55.935795, lon.=26.514910, Alt.=91.848694m. Speed=8.712000m/h.</desc>
<speed>2.420000</speed>
</trkpt>
<trkpt lat="55.935860" lon="26.514975">
<ele>91.381897</ele>
<time>2010-06-20T07:56:39Z</time>
<desc>lat.=55.935860, lon.=26.514975, Alt.=91.381897m. Speed=10.656000m/h.</desc>
<speed>2.960000</speed>
</trkpt>
<trkpt lat="55.935879" lon="26.515009">
<ele>90.958069</ele>
<time>2010-06-20T07:56:40Z</time>
<desc>lat.=55.935879, lon.=26.515009, Alt.=90.958069m. Speed=11.448000m/h.</desc>
<speed>3.180000</speed>
</trkpt>
<trkpt lat="55.935944" lon="26.515059">
<ele>90.430725</ele>
<time>2010-06-20T07:56:41Z</time>
<desc>lat.=55.935944, lon.=26.515059, Alt.=90.430725m. Speed=10.728000m/h.</desc>
<speed>2.980000</speed>
</trkpt>
<trkpt lat="55.935993" lon="26.515102">
<ele>90.715881</ele>
<time>2010-06-20T07:56:42Z</time>
<desc>lat.=55.935993, lon.=26.515102, Alt.=90.715881m. Speed=10.116000m/h.</desc>
<speed>2.810000</speed>
</trkpt>
<trkpt lat="55.936016" lon="26.515125">
<ele>90.485413</ele>
<time>2010-06-20T07:56:43Z</time>
<desc>lat.=55.936016, lon.=26.515125, Alt.=90.485413m. Speed=11.232000m/h.</desc>
<speed>3.120000</speed>
</trkpt>
<trkpt lat="55.936050" lon="26.515179">
<ele>90.233459</ele>
<time>2010-06-20T07:56:44Z</time>
<desc>lat.=55.936050, lon.=26.515179, Alt.=90.233459m. Speed=9.756000m/h.</desc>
<speed>2.710000</speed>
</trkpt>
<trkpt lat="55.936073" lon="26.515213">
<ele>92.010803</ele>
<time>2010-06-20T07:56:45Z</time>
<desc>lat.=55.936073, lon.=26.515213, Alt.=92.010803m. Speed=8.244000m/h.</desc>
<speed>2.290000</speed>
</trkpt>
<trkpt lat="55.936100" lon="26.515247">
<ele>92.508850</ele>
<time>2010-06-20T07:56:46Z</time>
<desc>lat.=55.936100, lon.=26.515247, Alt.=92.508850m. Speed=7.704000m/h.</desc>
<speed>2.140000</speed>
</trkpt>
<trkpt lat="55.936131" lon="26.515282">
<ele>92.696350</ele>
<time>2010-06-20T07:56:47Z</time>
<desc>lat.=55.936131, lon.=26.515282, Alt.=92.696350m. Speed=9.648000m/h.</desc>
<speed>2.680000</speed>
</trkpt>
<trkpt lat="55.936150" lon="26.515327">
<ele>93.028381</ele>
<time>2010-06-20T07:56:48Z</time>
<desc>lat.=55.936150, lon.=26.515327, Alt.=93.028381m. Speed=9.288000m/h.</desc>
<speed>2.580000</speed>
</trkpt>
<trkpt lat="55.936176" lon="26.515377">
<ele>93.198303</ele>
<time>2010-06-20T07:56:49Z</time>
<desc>lat.=55.936176, lon.=26.515377, Alt.=93.198303m. Speed=10.188000m/h.</desc>
<speed>2.830000</speed>
</trkpt>
<trkpt lat="55.936203" lon="26.515427">
<ele>93.512756</ele>
<time>2010-06-20T07:56:50Z</time>
<desc>lat.=55.936203, lon.=26.515427, Alt.=93.512756m. Speed=9.144000m/h.</desc>
<speed>2.540000</speed>
</trkpt>
<trkpt lat="55.936226" lon="26.515472">
<ele>93.602600</ele>
<time>2010-06-20T07:56:51Z</time>
<desc>lat.=55.936226, lon.=26.515472, Alt.=93.602600m. Speed=8.496000m/h.</desc>
<speed>2.360000</speed>
</trkpt>
<trkpt lat="55.936245" lon="26.515507">
<ele>93.627991</ele>
<time>2010-06-20T07:56:52Z</time>
<desc>lat.=55.936245, lon.=26.515507, Alt.=93.627991m. Speed=9.468000m/h.</desc>
<speed>2.630000</speed>
</trkpt>
<trkpt lat="55.936260" lon="26.515539">
<ele>93.413147</ele>
<time>2010-06-20T07:56:53Z</time>
<desc>lat.=55.936260, lon.=26.515539, Alt.=93.413147m. Speed=7.092000m/h.</desc>
<speed>1.970000</speed>
</trkpt>
<trkpt lat="55.936291" lon="26.515583">
<ele>94.788147</ele>
<time>2010-06-20T07:56:54Z</time>
<desc>lat.=55.936291, lon.=26.515583, Alt.=94.788147m. Speed=9.900000m/h.</desc>
<speed>2.750000</speed>
</trkpt>
<trkpt lat="55.936321" lon="26.515627">
<ele>95.358459</ele>
<time>2010-06-20T07:56:55Z</time>
<desc>lat.=55.936321, lon.=26.515627, Alt.=95.358459m. Speed=10.368000m/h.</desc>
<speed>2.880000</speed>
</trkpt>
<trkpt lat="55.936348" lon="26.515669">
<ele>95.340881</ele>
<time>2010-06-20T07:56:56Z</time>
<desc>lat.=55.936348, lon.=26.515669, Alt.=95.340881m. Speed=8.424000m/h.</desc>
<speed>2.340000</speed>
</trkpt>
<trkpt lat="55.936367" lon="26.515709">
<ele>94.315491</ele>
<time>2010-06-20T07:56:57Z</time>
<desc>lat.=55.936367, lon.=26.515709, Alt.=94.315491m. Speed=9.036000m/h.</desc>
<speed>2.510000</speed>
</trkpt>
<trkpt lat="55.936394" lon="26.515770">
<ele>94.723694</ele>
<time>2010-06-20T07:56:58Z</time>
<desc>lat.=55.936394, lon.=26.515770, Alt.=94.723694m. Speed=11.232000m/h.</desc>
<speed>3.120000</speed>
</trkpt>
<trkpt lat="55.936424" lon="26.515812">
<ele>95.731506</ele>
<time>2010-06-20T07:56:59Z</time>
<desc>lat.=55.936424, lon.=26.515812, Alt.=95.731506m. Speed=8.964000m/h.</desc>
<speed>2.490000</speed>
</trkpt>
<trkpt lat="55.936451" lon="26.515852">
<ele>96.122131</ele>
<time>2010-06-20T07:57:00Z</time>
<desc>lat.=55.936451, lon.=26.515852, Alt.=96.122131m. Speed=11.592000m/h.</desc>
<speed>3.220000</speed>
</trkpt>
<trkpt lat="55.936478" lon="26.515890">
<ele>95.926819</ele>
<time>2010-06-20T07:57:01Z</time>
<desc>lat.=55.936478, lon.=26.515890, Alt.=95.926819m. Speed=12.276000m/h.</desc>
<speed>3.410000</speed>
</trkpt>
<trkpt lat="55.936512" lon="26.515924">
<ele>96.143616</ele>
<time>2010-06-20T07:57:02Z</time>
<desc>lat.=55.936512, lon.=26.515924, Alt.=96.143616m. Speed=9.900000m/h.</desc>
<speed>2.750000</speed>
</trkpt>
<trkpt lat="55.936554" lon="26.515957">
<ele>97.004944</ele>
<time>2010-06-20T07:57:03Z</time>
<desc>lat.=55.936554, lon.=26.515957, Alt.=97.004944m. Speed=13.896000m/h.</desc>
<speed>3.860000</speed>
</trkpt>
<trkpt lat="55.936584" lon="26.515985">
<ele>97.264709</ele>
<time>2010-06-20T07:57:04Z</time>
<desc>lat.=55.936584, lon.=26.515985, Alt.=97.264709m. Speed=12.564000m/h.</desc>
<speed>3.490000</speed>
</trkpt>
<trkpt lat="55.936615" lon="26.516020">
<ele>97.477600</ele>
<time>2010-06-20T07:57:05Z</time>
<desc>lat.=55.936615, lon.=26.516020, Alt.=97.477600m. Speed=12.456000m/h.</desc>
<speed>3.460000</speed>
</trkpt>
<trkpt lat="55.936642" lon="26.516054">
<ele>97.901428</ele>
<time>2010-06-20T07:57:06Z</time>
<desc>lat.=55.936642, lon.=26.516054, Alt.=97.901428m. Speed=11.736000m/h.</desc>
<speed>3.260000</speed>
</trkpt>
<trkpt lat="55.936676" lon="26.516085">
<ele>97.997131</ele>
<time>2010-06-20T07:57:07Z</time>
<desc>lat.=55.936676, lon.=26.516085, Alt.=97.997131m. Speed=11.160000m/h.</desc>
<speed>3.100000</speed>
</trkpt>
<trkpt lat="55.936707" lon="26.516113">
<ele>97.184631</ele>
<time>2010-06-20T07:57:08Z</time>
<desc>lat.=55.936707, lon.=26.516113, Alt.=97.184631m. Speed=11.052000m/h.</desc>
<speed>3.070000</speed>
</trkpt>
<trkpt lat="55.936733" lon="26.516132">
<ele>96.969788</ele>
<time>2010-06-20T07:57:09Z</time>
<desc>lat.=55.936733, lon.=26.516132, Alt.=96.969788m. Speed=8.892000m/h.</desc>
<speed>2.470000</speed>
</trkpt>
<trkpt lat="55.936764" lon="26.516157">
<ele>98.456116</ele>
<time>2010-06-20T07:57:10Z</time>
<desc>lat.=55.936764, lon.=26.516157, Alt.=98.456116m. Speed=7.344000m/h.</desc>
<speed>2.040000</speed>
</trkpt>
<trkpt lat="55.936790" lon="26.516171">
<ele>100.204163</ele>
<time>2010-06-20T07:57:11Z</time>
<desc>lat.=55.936790, lon.=26.516171, Alt.=100.204163m. Speed=1.872000m/h.</desc>
<speed>0.520000</speed>
</trkpt>
<trkpt lat="55.936806" lon="26.516165">
<ele>100.506897</ele>
<time>2010-06-20T07:57:12Z</time>
<desc>lat.=55.936806, lon.=26.516165, Alt.=100.506897m. Speed=0.072000m/h.</desc>
<speed>0.020000</speed>
</trkpt>
<trkpt lat="55.936817" lon="26.516161">
<ele>101.075256</ele>
<time>2010-06-20T07:57:13Z</time>
<desc>lat.=55.936817, lon.=26.516161, Alt.=101.075256m. Speed=1.080000m/h.</desc>
<speed>0.300000</speed>
</trkpt>
<trkpt lat="55.936821" lon="26.516155">
<ele>101.956116</ele>
<time>2010-06-20T07:57:14Z</time>
<desc>lat.=55.936821, lon.=26.516155, Alt.=101.956116m. Speed=0.288000m/h.</desc>
<speed>0.080000</speed>
</trkpt>
<trkpt lat="55.936821" lon="26.516153">
<ele>102.010803</ele>
<time>2010-06-20T07:57:15Z</time>
<desc>lat.=55.936821, lon.=26.516153, Alt.=102.010803m. Speed=0.540000m/h.</desc>
<speed>0.150000</speed>
</trkpt>
<trkpt lat="55.936825" lon="26.516151">
<ele>102.149475</ele>
<time>2010-06-20T07:57:16Z</time>
<desc>lat.=55.936825, lon.=26.516151, Alt.=102.149475m. Speed=0.396000m/h.</desc>
<speed>0.110000</speed>
</trkpt>
<trkpt lat="55.936825" lon="26.516151">
<ele>102.274475</ele>
<time>2010-06-20T07:57:17Z</time>
<desc>lat.=55.936825, lon.=26.516151, Alt.=102.274475m. Speed=0.180000m/h.</desc>
<speed>0.050000</speed>
</trkpt>
<trkpt lat="55.936825" lon="26.516151">
<ele>102.376038</ele>
<time>2010-06-20T07:57:18Z</time>
<desc>lat.=55.936825, lon.=26.516151, Alt.=102.376038m. Speed=0.000000m/h.</desc>
<speed>0.000000</speed>
</trkpt>
<trkpt lat="55.936825" lon="26.516151">
<ele>102.411194</ele>
<time>2010-06-20T07:57:19Z</time>
<desc>lat.=55.936825, lon.=26.516151, Alt.=102.411194m. Speed=0.144000m/h.</desc>
<speed>0.040000</speed>
</trkpt>
<trkpt lat="55.936825" lon="26.516151">
<ele>102.440491</ele>
<time>2010-06-20T07:57:20Z</time>
<desc>lat.=55.936825, lon.=26.516151, Alt.=102.440491m. Speed=0.216000m/h.</desc>
<speed>0.060000</speed>
</trkpt>
<trkpt lat="55.936829" lon="26.516151">
<ele>102.483459</ele>
<time>2010-06-20T07:57:21Z</time>
<desc>lat.=55.936829, lon.=26.516151, Alt.=102.483459m. Speed=0.108000m/h.</desc>
<speed>0.030000</speed>
</trkpt>
<trkpt lat="55.936829" lon="26.516151">
<ele>102.489319</ele>
<time>2010-06-20T07:57:22Z</time>
<desc>lat.=55.936829, lon.=26.516151, Alt.=102.489319m. Speed=0.360000m/h.</desc>
<speed>0.100000</speed>
</trkpt>
<trkpt lat="55.936829" lon="26.516151">
<ele>102.526428</ele>
<time>2010-06-20T07:57:23Z</time>
<desc>lat.=55.936829, lon.=26.516151, Alt.=102.526428m. Speed=0.396000m/h.</desc>
<speed>0.110000</speed>
</trkpt>
<trkpt lat="55.936829" lon="26.516153">
<ele>102.551819</ele>
<time>2010-06-20T07:57:24Z</time>
<desc>lat.=55.936829, lon.=26.516153, Alt.=102.551819m. Speed=0.252000m/h.</desc>
<speed>0.070000</speed>
</trkpt>
<trkpt lat="55.936829" lon="26.516153">
<ele>102.551819</ele>
<time>2010-06-20T07:57:25Z</time>
<desc>lat.=55.936829, lon.=26.516153, Alt.=102.551819m. Speed=0.072000m/h.</desc>
<speed>0.020000</speed>
</trkpt>
<trkpt lat="55.936829" lon="26.516153">
<ele>102.565491</ele>
<time>2010-06-20T07:57:26Z</time>
<desc>lat.=55.936829, lon.=26.516153, Alt.=102.565491m. Speed=0.360000m/h.</desc>
<speed>0.100000</speed>
</trkpt>
<trkpt lat="55.936832" lon="26.516153">
<ele>102.577209</ele>
<time>2010-06-20T07:57:27Z</time>
<desc>lat.=55.936832, lon.=26.516153, Alt.=102.577209m. Speed=0.108000m/h.</desc>
<speed>0.030000</speed>
</trkpt>
<trkpt lat="55.936832" lon="26.516153">
<ele>102.592834</ele>
<time>2010-06-20T07:57:28Z</time>
<desc>lat.=55.936832, lon.=26.516153, Alt.=102.592834m. Speed=0.072000m/h.</desc>
<speed>0.020000</speed>
</trkpt>
<trkpt lat="55.936832" lon="26.516151">
<ele>102.616272</ele>
<time>2010-06-20T07:57:29Z</time>
<desc>lat.=55.936832, lon.=26.516151, Alt.=102.616272m. Speed=0.108000m/h.</desc>
<speed>0.030000</speed>
</trkpt>
<trkpt lat="55.936832" lon="26.516151">
<ele>102.557678</ele>
<time>2010-06-20T07:57:30Z</time>
<desc>lat.=55.936832, lon.=26.516151, Alt.=102.557678m. Speed=0.360000m/h.</desc>
<speed>0.100000</speed>
</trkpt>
<trkpt lat="55.936832" lon="26.516151">
<ele>102.534241</ele>
<time>2010-06-20T07:57:31Z</time>
<desc>lat.=55.936832, lon.=26.516151, Alt.=102.534241m. Speed=0.036000m/h.</desc>
<speed>0.010000</speed>
</trkpt>
<trkpt lat="55.936832" lon="26.516151">
<ele>102.508850</ele>
<time>2010-06-20T07:57:32Z</time>
<desc>lat.=55.936832, lon.=26.516151, Alt.=102.508850m. Speed=0.072000m/h.</desc>
<speed>0.020000</speed>
</trkpt>
<trkpt lat="55.936832" lon="26.516150">
<ele>102.483459</ele>
<time>2010-06-20T07:57:33Z</time>
<desc>lat.=55.936832, lon.=26.516150, Alt.=102.483459m. Speed=0.144000m/h.</desc>
<speed>0.040000</speed>
</trkpt>
<trkpt lat="55.936832" lon="26.516151">
<ele>102.473694</ele>
<time>2010-06-20T07:57:34Z</time>
<desc>lat.=55.936832, lon.=26.516151, Alt.=102.473694m. Speed=0.036000m/h.</desc>
<speed>0.010000</speed>
</trkpt>
<trkpt lat="55.936832" lon="26.516151">
<ele>102.469788</ele>
<time>2010-06-20T07:57:35Z</time>
<desc>lat.=55.936832, lon.=26.516151, Alt.=102.469788m. Speed=0.324000m/h.</desc>
<speed>0.090000</speed>
</trkpt>
<trkpt lat="55.936832" lon="26.516153">
<ele>102.465881</ele>
<time>2010-06-20T07:57:36Z</time>
<desc>lat.=55.936832, lon.=26.516153, Alt.=102.465881m. Speed=1.080000m/h.</desc>
<speed>0.300000</speed>
</trkpt>
<trkpt lat="55.936836" lon="26.516153">
<ele>102.456116</ele>
<time>2010-06-20T07:57:37Z</time>
<desc>lat.=55.936836, lon.=26.516153, Alt.=102.456116m. Speed=2.268000m/h.</desc>
<speed>0.630000</speed>
</trkpt>
<trkpt lat="55.936840" lon="26.516155">
<ele>102.444397</ele>
<time>2010-06-20T07:57:38Z</time>
<desc>lat.=55.936840, lon.=26.516155, Alt.=102.444397m. Speed=3.960000m/h.</desc>
<speed>1.100000</speed>
</trkpt>
<trkpt lat="55.936859" lon="26.516167">
<ele>102.919006</ele>
<time>2010-06-20T07:57:39Z</time>
<desc>lat.=55.936859, lon.=26.516167, Alt.=102.919006m. Speed=5.760000m/h.</desc>
<speed>1.600000</speed>
</trkpt>
<trkpt lat="55.936882" lon="26.516184">
<ele>103.338928</ele>
<time>2010-06-20T07:57:40Z</time>
<desc>lat.=55.936882, lon.=26.516184, Alt.=103.338928m. Speed=5.220000m/h.</desc>
<speed>1.450000</speed>
</trkpt>
<trkpt lat="55.936893" lon="26.516190">
<ele>103.131897</ele>
<time>2010-06-20T07:57:41Z</time>
<desc>lat.=55.936893, lon.=26.516190, Alt.=103.131897m. Speed=5.976000m/h.</desc>
<speed>1.660000</speed>
</trkpt>
<trkpt lat="55.936913" lon="26.516201">
<ele>102.872131</ele>
<time>2010-06-20T07:57:42Z</time>
<desc>lat.=55.936913, lon.=26.516201, Alt.=102.872131m. Speed=7.200000m/h.</desc>
<speed>2.000000</speed>
</trkpt>
<trkpt lat="55.936932" lon="26.516211">
<ele>102.870178</ele>
<time>2010-06-20T07:57:43Z</time>
<desc>lat.=55.936932, lon.=26.516211, Alt.=102.870178m. Speed=8.604000m/h.</desc>
<speed>2.390000</speed>
</trkpt>
<trkpt lat="55.936951" lon="26.516228">
<ele>102.844788</ele>
<time>2010-06-20T07:57:44Z</time>
<desc>lat.=55.936951, lon.=26.516228, Alt.=102.844788m. Speed=9.396000m/h.</desc>
<speed>2.610000</speed>
</trkpt>
<trkpt lat="55.936974" lon="26.516249">
<ele>102.866272</ele>
<time>2010-06-20T07:57:45Z</time>
<desc>lat.=55.936974, lon.=26.516249, Alt.=102.866272m. Speed=7.920000m/h.</desc>
<speed>2.200000</speed>
</trkpt>
<trkpt lat="55.936989" lon="26.516262">
<ele>103.075256</ele>
<time>2010-06-20T07:57:46Z</time>
<desc>lat.=55.936989, lon.=26.516262, Alt.=103.075256m. Speed=7.452000m/h.</desc>
<speed>2.070000</speed>
</trkpt>
<trkpt lat="55.937008" lon="26.516275">
<ele>103.006897</ele>
<time>2010-06-20T07:57:47Z</time>
<desc>lat.=55.937008, lon.=26.516275, Alt.=103.006897m. Speed=5.976000m/h.</desc>
<speed>1.660000</speed>
</trkpt>
<trkpt lat="55.937027" lon="26.516287">
<ele>103.366272</ele>
<time>2010-06-20T07:57:48Z</time>
<desc>lat.=55.937027, lon.=26.516287, Alt.=103.366272m. Speed=5.004000m/h.</desc>
<speed>1.390000</speed>
</trkpt>
<trkpt lat="55.937046" lon="26.516302">
<ele>103.147522</ele>
<time>2010-06-20T07:57:49Z</time>
<desc>lat.=55.937046, lon.=26.516302, Alt.=103.147522m. Speed=5.400000m/h.</desc>
<speed>1.500000</speed>
</trkpt>
<trkpt lat="55.937061" lon="26.516319">
<ele>102.993225</ele>
<time>2010-06-20T07:57:50Z</time>
<desc>lat.=55.937061, lon.=26.516319, Alt.=102.993225m. Speed=6.588000m/h.</desc>
<speed>1.830000</speed>
</trkpt>
<trkpt lat="55.937077" lon="26.516344">
<ele>102.942444</ele>
<time>2010-06-20T07:57:51Z</time>
<desc>lat.=55.937077, lon.=26.516344, Alt.=102.942444m. Speed=7.272000m/h.</desc>
<speed>2.020000</speed>
</trkpt>
<trkpt lat="55.937096" lon="26.516357">
<ele>102.792053</ele>
<time>2010-06-20T07:57:52Z</time>
<desc>lat.=55.937096, lon.=26.516357, Alt.=102.792053m. Speed=7.992000m/h.</desc>
<speed>2.220000</speed>
</trkpt>
<trkpt lat="55.937111" lon="26.516371">
<ele>103.010803</ele>
<time>2010-06-20T07:57:53Z</time>
<desc>lat.=55.937111, lon.=26.516371, Alt.=103.010803m. Speed=5.868000m/h.</desc>
<speed>1.630000</speed>
</trkpt>
<trkpt lat="55.937126" lon="26.516394">
<ele>103.030334</ele>
<time>2010-06-20T07:57:54Z</time>
<desc>lat.=55.937126, lon.=26.516394, Alt.=103.030334m. Speed=7.740000m/h.</desc>
<speed>2.150000</speed>
</trkpt>
<trkpt lat="55.937145" lon="26.516415">
<ele>102.889709</ele>
<time>2010-06-20T07:57:55Z</time>
<desc>lat.=55.937145, lon.=26.516415, Alt.=102.889709m. Speed=8.964000m/h.</desc>
<speed>2.490000</speed>
</trkpt>
<trkpt lat="55.937168" lon="26.516449">
<ele>103.530334</ele>
<time>2010-06-20T07:57:56Z</time>
<desc>lat.=55.937168, lon.=26.516449, Alt.=103.530334m. Speed=6.696000m/h.</desc>
<speed>1.860000</speed>
</trkpt>
<trkpt lat="55.937180" lon="26.516470">
<ele>103.463928</ele>
<time>2010-06-20T07:57:57Z</time>
<desc>lat.=55.937180, lon.=26.516470, Alt.=103.463928m. Speed=6.336000m/h.</desc>
<speed>1.760000</speed>
</trkpt>
<trkpt lat="55.937195" lon="26.516485">
<ele>103.604553</ele>
<time>2010-06-20T07:57:58Z</time>
<desc>lat.=55.937195, lon.=26.516485, Alt.=103.604553m. Speed=7.812000m/h.</desc>
<speed>2.170000</speed>
</trkpt>
<trkpt lat="55.937210" lon="26.516506">
<ele>103.348694</ele>
<time>2010-06-20T07:57:59Z</time>
<desc>lat.=55.937210, lon.=26.516506, Alt.=103.348694m. Speed=5.976000m/h.</desc>
<speed>1.660000</speed>
</trkpt>
<trkpt lat="55.937225" lon="26.516527">
<ele>103.461975</ele>
<time>2010-06-20T07:58:00Z</time>
<desc>lat.=55.937225, lon.=26.516527, Alt.=103.461975m. Speed=6.372000m/h.</desc>
<speed>1.770000</speed>
</trkpt>
<trkpt lat="55.937244" lon="26.516544">
<ele>103.305725</ele>
<time>2010-06-20T07:58:01Z</time>
<desc>lat.=55.937244, lon.=26.516544, Alt.=103.305725m. Speed=8.352000m/h.</desc>
<speed>2.320000</speed>
</trkpt>
<trkpt lat="55.937263" lon="26.516575">
<ele>103.274475</ele>
<time>2010-06-20T07:58:02Z</time>
<desc>lat.=55.937263, lon.=26.516575, Alt.=103.274475m. Speed=7.308000m/h.</desc>
<speed>2.030000</speed>
</trkpt>
<trkpt lat="55.937279" lon="26.516594">
<ele>103.077209</ele>
<time>2010-06-20T07:58:03Z</time>
<desc>lat.=55.937279, lon.=26.516594, Alt.=103.077209m. Speed=7.596000m/h.</desc>
<speed>2.110000</speed>
</trkpt>
<trkpt lat="55.937298" lon="26.516615">
<ele>102.670959</ele>
<time>2010-06-20T07:58:04Z</time>
<desc>lat.=55.937298, lon.=26.516615, Alt.=102.670959m. Speed=8.244000m/h.</desc>
<speed>2.290000</speed>
</trkpt>
<trkpt lat="55.937317" lon="26.516645">
<ele>102.879944</ele>
<time>2010-06-20T07:58:05Z</time>
<desc>lat.=55.937317, lon.=26.516645, Alt.=102.879944m. Speed=5.220000m/h.</desc>
<speed>1.450000</speed>
</trkpt>
<trkpt lat="55.937332" lon="26.516655">
<ele>102.713928</ele>
<time>2010-06-20T07:58:06Z</time>
<desc>lat.=55.937332, lon.=26.516655, Alt.=102.713928m. Speed=5.508000m/h.</desc>
<speed>1.530000</speed>
</trkpt>
<trkpt lat="55.937344" lon="26.516661">
<ele>102.680725</ele>
<time>2010-06-20T07:58:07Z</time>
<desc>lat.=55.937344, lon.=26.516661, Alt.=102.680725m. Speed=5.076000m/h.</desc>
<speed>1.410000</speed>
</trkpt>
<trkpt lat="55.937355" lon="26.516670">
<ele>102.544006</ele>
<time>2010-06-20T07:58:08Z</time>
<desc>lat.=55.937355, lon.=26.516670, Alt.=102.544006m. Speed=5.364000m/h.</desc>
<speed>1.490000</speed>
</trkpt>
<trkpt lat="55.937366" lon="26.516668">
<ele>102.358459</ele>
<time>2010-06-20T07:58:09Z</time>
<desc>lat.=55.937366, lon.=26.516668, Alt.=102.358459m. Speed=3.996000m/h.</desc>
<speed>1.110000</speed>
</trkpt>
<trkpt lat="55.937382" lon="26.516672">
<ele>102.376038</ele>
<time>2010-06-20T07:58:10Z</time>
<desc>lat.=55.937382, lon.=26.516672, Alt.=102.376038m. Speed=5.436000m/h.</desc>
<speed>1.510000</speed>
</trkpt>
<trkpt lat="55.937397" lon="26.516676">
<ele>102.284241</ele>
<time>2010-06-20T07:58:11Z</time>
<desc>lat.=55.937397, lon.=26.516676, Alt.=102.284241m. Speed=5.328000m/h.</desc>
<speed>1.480000</speed>
</trkpt>
<trkpt lat="55.937416" lon="26.516678">
<ele>102.210022</ele>
<time>2010-06-20T07:58:12Z</time>
<desc>lat.=55.937416, lon.=26.516678, Alt.=102.210022m. Speed=4.284000m/h.</desc>
<speed>1.190000</speed>
</trkpt>
<trkpt lat="55.937424" lon="26.516687">
<ele>102.071350</ele>
<time>2010-06-20T07:58:13Z</time>
<desc>lat.=55.937424, lon.=26.516687, Alt.=102.071350m. Speed=4.572000m/h.</desc>
<speed>1.270000</speed>
</trkpt>
<trkpt lat="55.937435" lon="26.516708">
<ele>101.610413</ele>
<time>2010-06-20T07:58:14Z</time>
<desc>lat.=55.937435, lon.=26.516708, Alt.=101.610413m. Speed=4.140000m/h.</desc>
<speed>1.150000</speed>
</trkpt>
<trkpt lat="55.937450" lon="26.516724">
<ele>101.612366</ele>
<time>2010-06-20T07:58:15Z</time>
<desc>lat.=55.937450, lon.=26.516724, Alt.=101.612366m. Speed=5.688000m/h.</desc>
<speed>1.580000</speed>
</trkpt>
<trkpt lat="55.937469" lon="26.516743">
<ele>101.649475</ele>
<time>2010-06-20T07:58:16Z</time>
<desc>lat.=55.937469, lon.=26.516743, Alt.=101.649475m. Speed=7.380000m/h.</desc>
<speed>2.050000</speed>
</trkpt>
<trkpt lat="55.937489" lon="26.516752">
<ele>101.600647</ele>
<time>2010-06-20T07:58:17Z</time>
<desc>lat.=55.937489, lon.=26.516752, Alt.=101.600647m. Speed=7.632000m/h.</desc>
<speed>2.120000</speed>
</trkpt>
<trkpt lat="55.937519" lon="26.516762">
<ele>101.040100</ele>
<time>2010-06-20T07:58:18Z</time>
<desc>lat.=55.937519, lon.=26.516762, Alt.=101.040100m. Speed=7.236000m/h.</desc>
<speed>2.010000</speed>
</trkpt>
<trkpt lat="55.937550" lon="26.516771">
<ele>100.741272</ele>
<time>2010-06-20T07:58:19Z</time>
<desc>lat.=55.937550, lon.=26.516771, Alt.=100.741272m. Speed=7.164000m/h.</desc>
<speed>1.990000</speed>
</trkpt>
<trkpt lat="55.937569" lon="26.516783">
<ele>100.795959</ele>
<time>2010-06-20T07:58:20Z</time>
<desc>lat.=55.937569, lon.=26.516783, Alt.=100.795959m. Speed=5.436000m/h.</desc>
<speed>1.510000</speed>
</trkpt>
<trkpt lat="55.937595" lon="26.516827">
<ele>100.627991</ele>
<time>2010-06-20T07:58:21Z</time>
<desc>lat.=55.937595, lon.=26.516827, Alt.=100.627991m. Speed=8.424000m/h.</desc>
<speed>2.340000</speed>
</trkpt>
<trkpt lat="55.937622" lon="26.516869">
<ele>100.446350</ele>
<time>2010-06-20T07:58:22Z</time>
<desc>lat.=55.937622, lon.=26.516869, Alt.=100.446350m. Speed=8.280000m/h.</desc>
<speed>2.300000</speed>
</trkpt>
<trkpt lat="55.937649" lon="26.516886">
<ele>100.641663</ele>
<time>2010-06-20T07:58:23Z</time>
<desc>lat.=55.937649, lon.=26.516886, Alt.=100.641663m. Speed=6.156000m/h.</desc>
<speed>1.710000</speed>
</trkpt>
<trkpt lat="55.937675" lon="26.516895">
<ele>101.247131</ele>
<time>2010-06-20T07:58:24Z</time>
<desc>lat.=55.937675, lon.=26.516895, Alt.=101.247131m. Speed=3.852000m/h.</desc>
<speed>1.070000</speed>
</trkpt>
<trkpt lat="55.937702" lon="26.516905">
<ele>101.961975</ele>
<time>2010-06-20T07:58:25Z</time>
<desc>lat.=55.937702, lon.=26.516905, Alt.=101.961975m. Speed=5.436000m/h.</desc>
<speed>1.510000</speed>
</trkpt>
<trkpt lat="55.937717" lon="26.516916">
<ele>102.235413</ele>
<time>2010-06-20T07:58:26Z</time>
<desc>lat.=55.937717, lon.=26.516916, Alt.=102.235413m. Speed=5.436000m/h.</desc>
<speed>1.510000</speed>
</trkpt>
<trkpt lat="55.937737" lon="26.516922">
<ele>102.944397</ele>
<time>2010-06-20T07:58:27Z</time>
<desc>lat.=55.937737, lon.=26.516922, Alt.=102.944397m. Speed=4.176000m/h.</desc>
<speed>1.160000</speed>
</trkpt>
<trkpt lat="55.937756" lon="26.516933">
<ele>103.077209</ele>
<time>2010-06-20T07:58:28Z</time>
<desc>lat.=55.937756, lon.=26.516933, Alt.=103.077209m. Speed=6.444000m/h.</desc>
<speed>1.790000</speed>
</trkpt>
<trkpt lat="55.937775" lon="26.516947">
<ele>103.198303</ele>
<time>2010-06-20T07:58:29Z</time>
<desc>lat.=55.937775, lon.=26.516947, Alt.=103.198303m. Speed=5.436000m/h.</desc>
<speed>1.510000</speed>
</trkpt>
<trkpt lat="55.937798" lon="26.516964">
<ele>103.639709</ele>
<time>2010-06-20T07:58:30Z</time>
<desc>lat.=55.937798, lon.=26.516964, Alt.=103.639709m. Speed=5.904000m/h.</desc>
<speed>1.640000</speed>
</trkpt>
<trkpt lat="55.937820" lon="26.516973">
<ele>103.854553</ele>
<time>2010-06-20T07:58:31Z</time>
<desc>lat.=55.937820, lon.=26.516973, Alt.=103.854553m. Speed=6.336000m/h.</desc>
<speed>1.760000</speed>
</trkpt>
<trkpt lat="55.937851" lon="26.516973">
<ele>103.635803</ele>
<time>2010-06-20T07:58:32Z</time>
<desc>lat.=55.937851, lon.=26.516973, Alt.=103.635803m. Speed=6.696000m/h.</desc>
<speed>1.860000</speed>
</trkpt>
<trkpt lat="55.937881" lon="26.516983">
<ele>103.612366</ele>
<time>2010-06-20T07:58:33Z</time>
<desc>lat.=55.937881, lon.=26.516983, Alt.=103.612366m. Speed=5.580000m/h.</desc>
<speed>1.550000</speed>
</trkpt>
<trkpt lat="55.937901" lon="26.516994">
<ele>103.842834</ele>
<time>2010-06-20T07:58:34Z</time>
<desc>lat.=55.937901, lon.=26.516994, Alt.=103.842834m. Speed=3.636000m/h.</desc>
<speed>1.010000</speed>
</trkpt>
<trkpt lat="55.937916" lon="26.517006">
<ele>104.344788</ele>
<time>2010-06-20T07:58:35Z</time>
<desc>lat.=55.937916, lon.=26.517006, Alt.=104.344788m. Speed=4.464000m/h.</desc>
<speed>1.240000</speed>
</trkpt>
<trkpt lat="55.937931" lon="26.517054">
<ele>104.784241</ele>
<time>2010-06-20T07:58:36Z</time>
<desc>lat.=55.937931, lon.=26.517054, Alt.=104.784241m. Speed=4.968000m/h.</desc>
<speed>1.380000</speed>
</trkpt>
<trkpt lat="55.937946" lon="26.517065">
<ele>105.317444</ele>
<time>2010-06-20T07:58:37Z</time>
<desc>lat.=55.937946, lon.=26.517065, Alt.=105.317444m. Speed=3.924000m/h.</desc>
<speed>1.090000</speed>
</trkpt>
<trkpt lat="55.937977" lon="26.517088">
<ele>105.704163</ele>
<time>2010-06-20T07:58:38Z</time>
<desc>lat.=55.937977, lon.=26.517088, Alt.=105.704163m. Speed=5.832000m/h.</desc>
<speed>1.620000</speed>
</trkpt>
<trkpt lat="55.937996" lon="26.517096">
<ele>105.868225</ele>
<time>2010-06-20T07:58:39Z</time>
<desc>lat.=55.937996, lon.=26.517096, Alt.=105.868225m. Speed=3.384000m/h.</desc>
<speed>0.940000</speed>
</trkpt>
<trkpt lat="55.938015" lon="26.517107">
<ele>106.208069</ele>
<time>2010-06-20T07:58:40Z</time>
<desc>lat.=55.938015, lon.=26.517107, Alt.=106.208069m. Speed=2.304000m/h.</desc>
<speed>0.640000</speed>
</trkpt>
<trkpt lat="55.938038" lon="26.517111">
<ele>105.592834</ele>
<time>2010-06-20T07:58:41Z</time>
<desc>lat.=55.938038, lon.=26.517111, Alt.=105.592834m. Speed=3.276000m/h.</desc>
<speed>0.910000</speed>
</trkpt>
<trkpt lat="55.938057" lon="26.517117">
<ele>105.721741</ele>
<time>2010-06-20T07:58:42Z</time>
<desc>lat.=55.938057, lon.=26.517117, Alt.=105.721741m. Speed=3.456000m/h.</desc>
<speed>0.960000</speed>
</trkpt>
<trkpt lat="55.938084" lon="26.517120">
<ele>106.206116</ele>
<time>2010-06-20T07:58:43Z</time>
<desc>lat.=55.938084, lon.=26.517120, Alt.=106.206116m. Speed=3.708000m/h.</desc>
<speed>1.030000</speed>
</trkpt>
<trkpt lat="55.938107" lon="26.517130">
<ele>106.256897</ele>
<time>2010-06-20T07:58:44Z</time>
<desc>lat.=55.938107, lon.=26.517130, Alt.=106.256897m. Speed=3.420000m/h.</desc>
<speed>0.950000</speed>
</trkpt>
<trkpt lat="55.938129" lon="26.517139">
<ele>106.627991</ele>
<time>2010-06-20T07:58:45Z</time>
<desc>lat.=55.938129, lon.=26.517139, Alt.=106.627991m. Speed=3.708000m/h.</desc>
<speed>1.030000</speed>
</trkpt>
<trkpt lat="55.938156" lon="26.517200">
<ele>107.264709</ele>
<time>2010-06-20T07:58:46Z</time>
<desc>lat.=55.938156, lon.=26.517200, Alt.=107.264709m. Speed=4.896000m/h.</desc>
<speed>1.360000</speed>
</trkpt>
<trkpt lat="55.938175" lon="26.517223">
<ele>108.096741</ele>
<time>2010-06-20T07:58:47Z</time>
<desc>lat.=55.938175, lon.=26.517223, Alt.=108.096741m. Speed=4.644000m/h.</desc>
<speed>1.290000</speed>
</trkpt>
<trkpt lat="55.938206" lon="26.517244">
<ele>108.885803</ele>
<time>2010-06-20T07:58:48Z</time>
<desc>lat.=55.938206, lon.=26.517244, Alt.=108.885803m. Speed=5.724000m/h.</desc>
<speed>1.590000</speed>
</trkpt>
<trkpt lat="55.938229" lon="26.517260">
<ele>109.426819</ele>
<time>2010-06-20T07:58:49Z</time>
<desc>lat.=55.938229, lon.=26.517260, Alt.=109.426819m. Speed=6.444000m/h.</desc>
<speed>1.790000</speed>
</trkpt>
<trkpt lat="55.938251" lon="26.517277">
<ele>109.854553</ele>
<time>2010-06-20T07:58:50Z</time>
<desc>lat.=55.938251, lon.=26.517277, Alt.=109.854553m. Speed=5.904000m/h.</desc>
<speed>1.640000</speed>
</trkpt>
<trkpt lat="55.938282" lon="26.517313">
<ele>110.165100</ele>
<time>2010-06-20T07:58:51Z</time>
<desc>lat.=55.938282, lon.=26.517313, Alt.=110.165100m. Speed=6.768000m/h.</desc>
<speed>1.880000</speed>
</trkpt>
<trkpt lat="55.938320" lon="26.517359">
<ele>110.530334</ele>
<time>2010-06-20T07:58:52Z</time>
<desc>lat.=55.938320, lon.=26.517359, Alt.=110.530334m. Speed=7.812000m/h.</desc>
<speed>2.170000</speed>
</trkpt>
<trkpt lat="55.938343" lon="26.517397">
<ele>109.792053</ele>
<time>2010-06-20T07:58:53Z</time>
<desc>lat.=55.938343, lon.=26.517397, Alt.=109.792053m. Speed=4.068000m/h.</desc>
<speed>1.130000</speed>
</trkpt>
<trkpt lat="55.938362" lon="26.517416">
<ele>109.917053</ele>
<time>2010-06-20T07:58:54Z</time>
<desc>lat.=55.938362, lon.=26.517416, Alt.=109.917053m. Speed=4.464000m/h.</desc>
<speed>1.240000</speed>
</trkpt>
<trkpt lat="55.938377" lon="26.517431">
<ele>109.932678</ele>
<time>2010-06-20T07:58:55Z</time>
<desc>lat.=55.938377, lon.=26.517431, Alt.=109.932678m. Speed=5.112000m/h.</desc>
<speed>1.420000</speed>
</trkpt>
<trkpt lat="55.938389" lon="26.517467">
<ele>110.088928</ele>
<time>2010-06-20T07:58:56Z</time>
<desc>lat.=55.938389, lon.=26.517467, Alt.=110.088928m. Speed=5.760000m/h.</desc>
<speed>1.600000</speed>
</trkpt>
<trkpt lat="55.938408" lon="26.517494">
<ele>110.059631</ele>
<time>2010-06-20T07:58:57Z</time>
<desc>lat.=55.938408, lon.=26.517494, Alt.=110.059631m. Speed=3.852000m/h.</desc>
<speed>1.070000</speed>
</trkpt>
<trkpt lat="55.938446" lon="26.517536">
<ele>109.735413</ele>
<time>2010-06-20T07:58:58Z</time>
<desc>lat.=55.938446, lon.=26.517536, Alt.=109.735413m. Speed=7.524000m/h.</desc>
<speed>2.090000</speed>
</trkpt>
<trkpt lat="55.938465" lon="26.517551">
<ele>109.702209</ele>
<time>2010-06-20T07:58:59Z</time>
<desc>lat.=55.938465, lon.=26.517551, Alt.=109.702209m. Speed=5.904000m/h.</desc>
<speed>1.640000</speed>
</trkpt>
<trkpt lat="55.938484" lon="26.517576">
<ele>109.934631</ele>
<time>2010-06-20T07:59:00Z</time>
<desc>lat.=55.938484, lon.=26.517576, Alt.=109.934631m. Speed=6.480000m/h.</desc>
<speed>1.800000</speed>
</trkpt>
<trkpt lat="55.938522" lon="26.517605">
<ele>110.506897</ele>
<time>2010-06-20T07:59:01Z</time>
<desc>lat.=55.938522, lon.=26.517605, Alt.=110.506897m. Speed=6.732000m/h.</desc>
<speed>1.870000</speed>
</trkpt>
<trkpt lat="55.938545" lon="26.517616">
<ele>110.788147</ele>
<time>2010-06-20T07:59:02Z</time>
<desc>lat.=55.938545, lon.=26.517616, Alt.=110.788147m. Speed=5.688000m/h.</desc>
<speed>1.580000</speed>
</trkpt>
<trkpt lat="55.938580" lon="26.517628">
<ele>111.036194</ele>
<time>2010-06-20T07:59:03Z</time>
<desc>lat.=55.938580, lon.=26.517628, Alt.=111.036194m. Speed=8.928000m/h.</desc>
<speed>2.480000</speed>
</trkpt>
<trkpt lat="55.938614" lon="26.517639">
<ele>111.272522</ele>
<time>2010-06-20T07:59:04Z</time>
<desc>lat.=55.938614, lon.=26.517639, Alt.=111.272522m. Speed=6.948000m/h.</desc>
<speed>1.930000</speed>
</trkpt>
<trkpt lat="55.938641" lon="26.517651">
<ele>111.428772</ele>
<time>2010-06-20T07:59:05Z</time>
<desc>lat.=55.938641, lon.=26.517651, Alt.=111.428772m. Speed=6.732000m/h.</desc>
<speed>1.870000</speed>
</trkpt>
<trkpt lat="55.938671" lon="26.517675">
<ele>111.001038</ele>
<time>2010-06-20T07:59:06Z</time>
<desc>lat.=55.938671, lon.=26.517675, Alt.=111.001038m. Speed=7.092000m/h.</desc>
<speed>1.970000</speed>
</trkpt>
<trkpt lat="55.938694" lon="26.517704">
<ele>110.870178</ele>
<time>2010-06-20T07:59:07Z</time>
<desc>lat.=55.938694, lon.=26.517704, Alt.=110.870178m. Speed=10.584000m/h.</desc>
<speed>2.940000</speed>
</trkpt>
<trkpt lat="55.938744" lon="26.517744">
<ele>110.233459</ele>
<time>2010-06-20T07:59:08Z</time>
<desc>lat.=55.938744, lon.=26.517744, Alt.=110.233459m. Speed=10.224000m/h.</desc>
<speed>2.840000</speed>
</trkpt>
<trkpt lat="55.938778" lon="26.517771">
<ele>110.389709</ele>
<time>2010-06-20T07:59:09Z</time>
<desc>lat.=55.938778, lon.=26.517771, Alt.=110.389709m. Speed=10.620000m/h.</desc>
<speed>2.950000</speed>
</trkpt>
<trkpt lat="55.938820" lon="26.517794">
<ele>110.391663</ele>
<time>2010-06-20T07:59:10Z</time>
<desc>lat.=55.938820, lon.=26.517794, Alt.=110.391663m. Speed=10.188000m/h.</desc>
<speed>2.830000</speed>
</trkpt>
<trkpt lat="55.938850" lon="26.517813">
<ele>110.616272</ele>
<time>2010-06-20T07:59:11Z</time>
<desc>lat.=55.938850, lon.=26.517813, Alt.=110.616272m. Speed=9.576000m/h.</desc>
<speed>2.660000</speed>
</trkpt>
<trkpt lat="55.938877" lon="26.517832">
<ele>110.831116</ele>
<time>2010-06-20T07:59:12Z</time>
<desc>lat.=55.938877, lon.=26.517832, Alt.=110.831116m. Speed=8.424000m/h.</desc>
<speed>2.340000</speed>
</trkpt>
<trkpt lat="55.938908" lon="26.517834">
<ele>110.415100</ele>
<time>2010-06-20T07:59:13Z</time>
<desc>lat.=55.938908, lon.=26.517834, Alt.=110.415100m. Speed=9.324000m/h.</desc>
<speed>2.590000</speed>
</trkpt>
<trkpt lat="55.938934" lon="26.517857">
<ele>110.553772</ele>
<time>2010-06-20T07:59:14Z</time>
<desc>lat.=55.938934, lon.=26.517857, Alt.=110.553772m. Speed=5.940000m/h.</desc>
<speed>1.650000</speed>
</trkpt>
<trkpt lat="55.938957" lon="26.517889">
<ele>110.114319</ele>
<time>2010-06-20T07:59:15Z</time>
<desc>lat.=55.938957, lon.=26.517889, Alt.=110.114319m. Speed=8.748000m/h.</desc>
<speed>2.430000</speed>
</trkpt>
<trkpt lat="55.938995" lon="26.517916">
<ele>109.899475</ele>
<time>2010-06-20T07:59:16Z</time>
<desc>lat.=55.938995, lon.=26.517916, Alt.=109.899475m. Speed=7.092000m/h.</desc>
<speed>1.970000</speed>
</trkpt>
<trkpt lat="55.939026" lon="26.517941">
<ele>110.213928</ele>
<time>2010-06-20T07:59:17Z</time>
<desc>lat.=55.939026, lon.=26.517941, Alt.=110.213928m. Speed=8.460000m/h.</desc>
<speed>2.350000</speed>
</trkpt>
<trkpt lat="55.939049" lon="26.517969">
<ele>110.518616</ele>
<time>2010-06-20T07:59:18Z</time>
<desc>lat.=55.939049, lon.=26.517969, Alt.=110.518616m. Speed=7.272000m/h.</desc>
<speed>2.020000</speed>
</trkpt>
<trkpt lat="55.939075" lon="26.517994">
<ele>110.825256</ele>
<time>2010-06-20T07:59:19Z</time>
<desc>lat.=55.939075, lon.=26.517994, Alt.=110.825256m. Speed=6.264000m/h.</desc>
<speed>1.740000</speed>
</trkpt>
<trkpt lat="55.939106" lon="26.518011">
<ele>111.391663</ele>
<time>2010-06-20T07:59:20Z</time>
<desc>lat.=55.939106, lon.=26.518011, Alt.=111.391663m. Speed=6.876000m/h.</desc>
<speed>1.910000</speed>
</trkpt>
<trkpt lat="55.939133" lon="26.518024">
<ele>111.495178</ele>
<time>2010-06-20T07:59:21Z</time>
<desc>lat.=55.939133, lon.=26.518024, Alt.=111.495178m. Speed=6.156000m/h.</desc>
<speed>1.710000</speed>
</trkpt>
<trkpt lat="55.939148" lon="26.518040">
<ele>111.794006</ele>
<time>2010-06-20T07:59:22Z</time>
<desc>lat.=55.939148, lon.=26.518040, Alt.=111.794006m. Speed=5.076000m/h.</desc>
<speed>1.410000</speed>
</trkpt>
<trkpt lat="55.939171" lon="26.518057">
<ele>112.127991</ele>
<time>2010-06-20T07:59:23Z</time>
<desc>lat.=55.939171, lon.=26.518057, Alt.=112.127991m. Speed=3.888000m/h.</desc>
<speed>1.080000</speed>
</trkpt>
<trkpt lat="55.939182" lon="26.518087">
<ele>112.768616</ele>
<time>2010-06-20T07:59:24Z</time>
<desc>lat.=55.939182, lon.=26.518087, Alt.=112.768616m. Speed=5.328000m/h.</desc>
<speed>1.480000</speed>
</trkpt>
<trkpt lat="55.939217" lon="26.518139">
<ele>111.846741</ele>
<time>2010-06-20T07:59:25Z</time>
<desc>lat.=55.939217, lon.=26.518139, Alt.=111.846741m. Speed=7.200000m/h.</desc>
<speed>2.000000</speed>
</trkpt>
<trkpt lat="55.939243" lon="26.518164">
<ele>112.292053</ele>
<time>2010-06-20T07:59:26Z</time>
<desc>lat.=55.939243, lon.=26.518164, Alt.=112.292053m. Speed=6.948000m/h.</desc>
<speed>1.930000</speed>
</trkpt>
<trkpt lat="55.939270" lon="26.518221">
<ele>112.616272</ele>
<time>2010-06-20T07:59:27Z</time>
<desc>lat.=55.939270, lon.=26.518221, Alt.=112.616272m. Speed=6.696000m/h.</desc>
<speed>1.860000</speed>
</trkpt>
<trkpt lat="55.939304" lon="26.518251">
<ele>113.227600</ele>
<time>2010-06-20T07:59:28Z</time>
<desc>lat.=55.939304, lon.=26.518251, Alt.=113.227600m. Speed=7.884000m/h.</desc>
<speed>2.190000</speed>
</trkpt>
<trkpt lat="55.939342" lon="26.518274">
<ele>113.559631</ele>
<time>2010-06-20T07:59:29Z</time>
<desc>lat.=55.939342, lon.=26.518274, Alt.=113.559631m. Speed=7.200000m/h.</desc>
<speed>2.000000</speed>
</trkpt>
<trkpt lat="55.939362" lon="26.518297">
<ele>113.883850</ele>
<time>2010-06-20T07:59:30Z</time>
<desc>lat.=55.939362, lon.=26.518297, Alt.=113.883850m. Speed=5.724000m/h.</desc>
<speed>1.590000</speed>
</trkpt>
<trkpt lat="55.939377" lon="26.518324">
<ele>114.172913</ele>
<time>2010-06-20T07:59:31Z</time>
<desc>lat.=55.939377, lon.=26.518324, Alt.=114.172913m. Speed=4.392000m/h.</desc>
<speed>1.220000</speed>
</trkpt>
<trkpt lat="55.939404" lon="26.518345">
<ele>114.696350</ele>
<time>2010-06-20T07:59:32Z</time>
<desc>lat.=55.939404, lon.=26.518345, Alt.=114.696350m. Speed=5.724000m/h.</desc>
<speed>1.590000</speed>
</trkpt>
<trkpt lat="55.939419" lon="26.518356">
<ele>115.053772</ele>
<time>2010-06-20T07:59:33Z</time>
<desc>lat.=55.939419, lon.=26.518356, Alt.=115.053772m. Speed=3.456000m/h.</desc>
<speed>0.960000</speed>
</trkpt>
<trkpt lat="55.939438" lon="26.518381">
<ele>115.229553</ele>
<time>2010-06-20T07:59:34Z</time>
<desc>lat.=55.939438, lon.=26.518381, Alt.=115.229553m. Speed=5.472000m/h.</desc>
<speed>1.520000</speed>
</trkpt>
<trkpt lat="55.939461" lon="26.518417">
<ele>113.260803</ele>
<time>2010-06-20T07:59:35Z</time>
<desc>lat.=55.939461, lon.=26.518417, Alt.=113.260803m. Speed=5.364000m/h.</desc>
<speed>1.490000</speed>
</trkpt>
<trkpt lat="55.939480" lon="26.518446">
<ele>113.452209</ele>
<time>2010-06-20T07:59:36Z</time>
<desc>lat.=55.939480, lon.=26.518446, Alt.=113.452209m. Speed=4.536000m/h.</desc>
<speed>1.260000</speed>
</trkpt>
<trkpt lat="55.939510" lon="26.518488">
<ele>113.565491</ele>
<time>2010-06-20T07:59:37Z</time>
<desc>lat.=55.939510, lon.=26.518488, Alt.=113.565491m. Speed=7.020000m/h.</desc>
<speed>1.950000</speed>
</trkpt>
<trkpt lat="55.939537" lon="26.518526">
<ele>113.536194</ele>
<time>2010-06-20T07:59:38Z</time>
<desc>lat.=55.939537, lon.=26.518526, Alt.=113.536194m. Speed=5.976000m/h.</desc>
<speed>1.660000</speed>
</trkpt>
<trkpt lat="55.939564" lon="26.518560">
<ele>114.182678</ele>
<time>2010-06-20T07:59:39Z</time>
<desc>lat.=55.939564, lon.=26.518560, Alt.=114.182678m. Speed=4.104000m/h.</desc>
<speed>1.140000</speed>
</trkpt>
<trkpt lat="55.939617" lon="26.518618">
<ele>113.989319</ele>
<time>2010-06-20T07:59:40Z</time>
<desc>lat.=55.939617, lon.=26.518618, Alt.=113.989319m. Speed=6.876000m/h.</desc>
<speed>1.910000</speed>
</trkpt>
<trkpt lat="55.939636" lon="26.518642">
<ele>114.217834</ele>
<time>2010-06-20T07:59:41Z</time>
<desc>lat.=55.939636, lon.=26.518642, Alt.=114.217834m. Speed=5.436000m/h.</desc>
<speed>1.510000</speed>
</trkpt>
<trkpt lat="55.939659" lon="26.518669">
<ele>113.510803</ele>
<time>2010-06-20T07:59:42Z</time>
<desc>lat.=55.939659, lon.=26.518669, Alt.=113.510803m. Speed=7.128000m/h.</desc>
<speed>1.980000</speed>
</trkpt>
<trkpt lat="55.939678" lon="26.518698">
<ele>113.432678</ele>
<time>2010-06-20T07:59:43Z</time>
<desc>lat.=55.939678, lon.=26.518698, Alt.=113.432678m. Speed=6.192000m/h.</desc>
<speed>1.720000</speed>
</trkpt>
<trkpt lat="55.939690" lon="26.518730">
<ele>113.708069</ele>
<time>2010-06-20T07:59:44Z</time>
<desc>lat.=55.939690, lon.=26.518730, Alt.=113.708069m. Speed=5.472000m/h.</desc>
<speed>1.520000</speed>
</trkpt>
<trkpt lat="55.939716" lon="26.518745">
<ele>113.366272</ele>
<time>2010-06-20T07:59:45Z</time>
<desc>lat.=55.939716, lon.=26.518745, Alt.=113.366272m. Speed=3.996000m/h.</desc>
<speed>1.110000</speed>
</trkpt>
<trkpt lat="55.939735" lon="26.518776">
<ele>113.292053</ele>
<time>2010-06-20T07:59:46Z</time>
<desc>lat.=55.939735, lon.=26.518776, Alt.=113.292053m. Speed=5.112000m/h.</desc>
<speed>1.420000</speed>
</trkpt>
<trkpt lat="55.939751" lon="26.518793">
<ele>113.381897</ele>
<time>2010-06-20T07:59:47Z</time>
<desc>lat.=55.939751, lon.=26.518793, Alt.=113.381897m. Speed=4.464000m/h.</desc>
<speed>1.240000</speed>
</trkpt>
<trkpt lat="55.939766" lon="26.518824">
<ele>113.711975</ele>
<time>2010-06-20T07:59:48Z</time>
<desc>lat.=55.939766, lon.=26.518824, Alt.=113.711975m. Speed=5.436000m/h.</desc>
<speed>1.510000</speed>
</trkpt>
<trkpt lat="55.939789" lon="26.518862">
<ele>114.329163</ele>
<time>2010-06-20T07:59:49Z</time>
<desc>lat.=55.939789, lon.=26.518862, Alt.=114.329163m. Speed=5.256000m/h.</desc>
<speed>1.460000</speed>
</trkpt>
<trkpt lat="55.939819" lon="26.518900">
<ele>116.399475</ele>
<time>2010-06-20T07:59:50Z</time>
<desc>lat.=55.939819, lon.=26.518900, Alt.=116.399475m. Speed=6.408000m/h.</desc>
<speed>1.780000</speed>
</trkpt>
<trkpt lat="55.939846" lon="26.518921">
<ele>117.528381</ele>
<time>2010-06-20T07:59:51Z</time>
<desc>lat.=55.939846, lon.=26.518921, Alt.=117.528381m. Speed=5.076000m/h.</desc>
<speed>1.410000</speed>
</trkpt>
<trkpt lat="55.939861" lon="26.518938">
<ele>118.170959</ele>
<time>2010-06-20T07:59:52Z</time>
<desc>lat.=55.939861, lon.=26.518938, Alt.=118.170959m. Speed=4.032000m/h.</desc>
<speed>1.120000</speed>
</trkpt>
<trkpt lat="55.939873" lon="26.518957">
<ele>118.772522</ele>
<time>2010-06-20T07:59:53Z</time>
<desc>lat.=55.939873, lon.=26.518957, Alt.=118.772522m. Speed=3.960000m/h.</desc>
<speed>1.100000</speed>
</trkpt>
<trkpt lat="55.939888" lon="26.518970">
<ele>119.155334</ele>
<time>2010-06-20T07:59:54Z</time>
<desc>lat.=55.939888, lon.=26.518970, Alt.=119.155334m. Speed=1.872000m/h.</desc>
<speed>0.520000</speed>
</trkpt>
<trkpt lat="55.939899" lon="26.518988">
<ele>119.491272</ele>
<time>2010-06-20T07:59:55Z</time>
<desc>lat.=55.939899, lon.=26.518988, Alt.=119.491272m. Speed=2.952000m/h.</desc>
<speed>0.820000</speed>
</trkpt>
<trkpt lat="55.939915" lon="26.519032">
<ele>120.045959</ele>
<time>2010-06-20T07:59:56Z</time>
<desc>lat.=55.939915, lon.=26.519032, Alt.=120.045959m. Speed=6.228000m/h.</desc>
<speed>1.730000</speed>
</trkpt>
<trkpt lat="55.939968" lon="26.519060">
<ele>122.471741</ele>
<time>2010-06-20T07:59:57Z</time>
<desc>lat.=55.939968, lon.=26.519060, Alt.=122.471741m. Speed=6.372000m/h.</desc>
<speed>1.770000</speed>
</trkpt>
<trkpt lat="55.939995" lon="26.519077">
<ele>123.348694</ele>
<time>2010-06-20T07:59:58Z</time>
<desc>lat.=55.939995, lon.=26.519077, Alt.=123.348694m. Speed=7.056000m/h.</desc>
<speed>1.960000</speed>
</trkpt>
<trkpt lat="55.940014" lon="26.519089">
<ele>123.967834</ele>
<time>2010-06-20T07:59:59Z</time>
<desc>lat.=55.940014, lon.=26.519089, Alt.=123.967834m. Speed=5.004000m/h.</desc>
<speed>1.390000</speed>
</trkpt>
<trkpt lat="55.940029" lon="26.519135">
<ele>123.977600</ele>
<time>2010-06-20T08:00:00Z</time>
<desc>lat.=55.940029, lon.=26.519135, Alt.=123.977600m. Speed=6.408000m/h.</desc>
<speed>1.780000</speed>
</trkpt>
<trkpt lat="55.940052" lon="26.519171">
<ele>123.805725</ele>
<time>2010-06-20T08:00:01Z</time>
<desc>lat.=55.940052, lon.=26.519171, Alt.=123.805725m. Speed=6.300000m/h.</desc>
<speed>1.750000</speed>
</trkpt>
<trkpt lat="55.940075" lon="26.519211">
<ele>123.407288</ele>
<time>2010-06-20T08:00:02Z</time>
<desc>lat.=55.940075, lon.=26.519211, Alt.=123.407288m. Speed=5.184000m/h.</desc>
<speed>1.440000</speed>
</trkpt>
<trkpt lat="55.940090" lon="26.519253">
<ele>123.370178</ele>
<time>2010-06-20T08:00:03Z</time>
<desc>lat.=55.940090, lon.=26.519253, Alt.=123.370178m. Speed=6.696000m/h.</desc>
<speed>1.860000</speed>
</trkpt>
<trkpt lat="55.940109" lon="26.519293">
<ele>123.030334</ele>
<time>2010-06-20T08:00:04Z</time>
<desc>lat.=55.940109, lon.=26.519293, Alt.=123.030334m. Speed=6.372000m/h.</desc>
<speed>1.770000</speed>
</trkpt>
<trkpt lat="55.940121" lon="26.519323">
<ele>123.124084</ele>
<time>2010-06-20T08:00:05Z</time>
<desc>lat.=55.940121, lon.=26.519323, Alt.=123.124084m. Speed=6.120000m/h.</desc>
<speed>1.700000</speed>
</trkpt>
<trkpt lat="55.940140" lon="26.519352">
<ele>123.299866</ele>
<time>2010-06-20T08:00:06Z</time>
<desc>lat.=55.940140, lon.=26.519352, Alt.=123.299866m. Speed=4.896000m/h.</desc>
<speed>1.360000</speed>
</trkpt>
<trkpt lat="55.940151" lon="26.519373">
<ele>123.657288</ele>
<time>2010-06-20T08:00:07Z</time>
<desc>lat.=55.940151, lon.=26.519373, Alt.=123.657288m. Speed=3.924000m/h.</desc>
<speed>1.090000</speed>
</trkpt>
<trkpt lat="55.940174" lon="26.519423">
<ele>123.600647</ele>
<time>2010-06-20T08:00:08Z</time>
<desc>lat.=55.940174, lon.=26.519423, Alt.=123.600647m. Speed=7.632000m/h.</desc>
<speed>2.120000</speed>
</trkpt>
<trkpt lat="55.940193" lon="26.519476">
<ele>124.092834</ele>
<time>2010-06-20T08:00:09Z</time>
<desc>lat.=55.940193, lon.=26.519476, Alt.=124.092834m. Speed=6.840000m/h.</desc>
<speed>1.900000</speed>
</trkpt>
<trkpt lat="55.940205" lon="26.519516">
<ele>124.303772</ele>
<time>2010-06-20T08:00:10Z</time>
<desc>lat.=55.940205, lon.=26.519516, Alt.=124.303772m. Speed=6.228000m/h.</desc>
<speed>1.730000</speed>
</trkpt>
<trkpt lat="55.940216" lon="26.519543">
<ele>124.881897</ele>
<time>2010-06-20T08:00:11Z</time>
<desc>lat.=55.940216, lon.=26.519543, Alt.=124.881897m. Speed=3.456000m/h.</desc>
<speed>0.960000</speed>
</trkpt>
<trkpt lat="55.940228" lon="26.519575">
<ele>125.100647</ele>
<time>2010-06-20T08:00:12Z</time>
<desc>lat.=55.940228, lon.=26.519575, Alt.=125.100647m. Speed=4.464000m/h.</desc>
<speed>1.240000</speed>
</trkpt>
<trkpt lat="55.940243" lon="26.519606">
<ele>125.081116</ele>
<time>2010-06-20T08:00:13Z</time>
<desc>lat.=55.940243, lon.=26.519606, Alt.=125.081116m. Speed=4.176000m/h.</desc>
<speed>1.160000</speed>
</trkpt>
<trkpt lat="55.940262" lon="26.519650">
<ele>124.403381</ele>
<time>2010-06-20T08:00:14Z</time>
<desc>lat.=55.940262, lon.=26.519650, Alt.=124.403381m. Speed=4.536000m/h.</desc>
<speed>1.260000</speed>
</trkpt>
<trkpt lat="55.940292" lon="26.519684">
<ele>124.077209</ele>
<time>2010-06-20T08:00:15Z</time>
<desc>lat.=55.940292, lon.=26.519684, Alt.=124.077209m. Speed=5.940000m/h.</desc>
<speed>1.650000</speed>
</trkpt>
<trkpt lat="55.940315" lon="26.519722">
<ele>124.311584</ele>
<time>2010-06-20T08:00:16Z</time>
<desc>lat.=55.940315, lon.=26.519722, Alt.=124.311584m. Speed=5.652000m/h.</desc>
<speed>1.570000</speed>
</trkpt>
<trkpt lat="55.940334" lon="26.519760">
<ele>124.049866</ele>
<time>2010-06-20T08:00:17Z</time>
<desc>lat.=55.940334, lon.=26.519760, Alt.=124.049866m. Speed=5.544000m/h.</desc>
<speed>1.540000</speed>
</trkpt>
<trkpt lat="55.940353" lon="26.519787">
<ele>124.036194</ele>
<time>2010-06-20T08:00:18Z</time>
<desc>lat.=55.940353, lon.=26.519787, Alt.=124.036194m. Speed=4.752000m/h.</desc>
<speed>1.320000</speed>
</trkpt>
<trkpt lat="55.940384" lon="26.519812">
<ele>123.891663</ele>
<time>2010-06-20T08:00:19Z</time>
<desc>lat.=55.940384, lon.=26.519812, Alt.=123.891663m. Speed=5.616000m/h.</desc>
<speed>1.560000</speed>
</trkpt>
<trkpt lat="55.940422" lon="26.519825">
<ele>123.424866</ele>
<time>2010-06-20T08:00:20Z</time>
<desc>lat.=55.940422, lon.=26.519825, Alt.=123.424866m. Speed=7.236000m/h.</desc>
<speed>2.010000</speed>
</trkpt>
<trkpt lat="55.940449" lon="26.519850">
<ele>123.233459</ele>
<time>2010-06-20T08:00:21Z</time>
<desc>lat.=55.940449, lon.=26.519850, Alt.=123.233459m. Speed=6.696000m/h.</desc>
<speed>1.860000</speed>
</trkpt>
<trkpt lat="55.940479" lon="26.519882">
<ele>123.292053</ele>
<time>2010-06-20T08:00:22Z</time>
<desc>lat.=55.940479, lon.=26.519882, Alt.=123.292053m. Speed=7.020000m/h.</desc>
<speed>1.950000</speed>
</trkpt>
<trkpt lat="55.940506" lon="26.519911">
<ele>123.249084</ele>
<time>2010-06-20T08:00:23Z</time>
<desc>lat.=55.940506, lon.=26.519911, Alt.=123.249084m. Speed=7.524000m/h.</desc>
<speed>2.090000</speed>
</trkpt>
<trkpt lat="55.940525" lon="26.519934">
<ele>123.202209</ele>
<time>2010-06-20T08:00:24Z</time>
<desc>lat.=55.940525, lon.=26.519934, Alt.=123.202209m. Speed=6.372000m/h.</desc>
<speed>1.770000</speed>
</trkpt>
<trkpt lat="55.940559" lon="26.519968">
<ele>122.911194</ele>
<time>2010-06-20T08:00:25Z</time>
<desc>lat.=55.940559, lon.=26.519968, Alt.=122.911194m. Speed=8.064000m/h.</desc>
<speed>2.240000</speed>
</trkpt>
<trkpt lat="55.940590" lon="26.520004">
<ele>122.901428</ele>
<time>2010-06-20T08:00:26Z</time>
<desc>lat.=55.940590, lon.=26.520004, Alt.=122.901428m. Speed=7.308000m/h.</desc>
<speed>2.030000</speed>
</trkpt>
<trkpt lat="55.940609" lon="26.520021">
<ele>122.858459</ele>
<time>2010-06-20T08:00:27Z</time>
<desc>lat.=55.940609, lon.=26.520021, Alt.=122.858459m. Speed=4.464000m/h.</desc>
<speed>1.240000</speed>
</trkpt>
<trkpt lat="55.940628" lon="26.520041">
<ele>122.567444</ele>
<time>2010-06-20T08:00:28Z</time>
<desc>lat.=55.940628, lon.=26.520041, Alt.=122.567444m. Speed=3.816000m/h.</desc>
<speed>1.060000</speed>
</trkpt>
<trkpt lat="55.940647" lon="26.520063">
<ele>122.139709</ele>
<time>2010-06-20T08:00:29Z</time>
<desc>lat.=55.940647, lon.=26.520063, Alt.=122.139709m. Speed=4.212000m/h.</desc>
<speed>1.170000</speed>
</trkpt>
<trkpt lat="55.940674" lon="26.520145">
<ele>119.456116</ele>
<time>2010-06-20T08:00:30Z</time>
<desc>lat.=55.940674, lon.=26.520145, Alt.=119.456116m. Speed=4.968000m/h.</desc>
<speed>1.380000</speed>
</trkpt>
<trkpt lat="55.940685" lon="26.520168">
<ele>119.434631</ele>
<time>2010-06-20T08:00:31Z</time>
<desc>lat.=55.940685, lon.=26.520168, Alt.=119.434631m. Speed=4.392000m/h.</desc>
<speed>1.220000</speed>
</trkpt>
<trkpt lat="55.940708" lon="26.520195">
<ele>119.184631</ele>
<time>2010-06-20T08:00:32Z</time>
<desc>lat.=55.940708, lon.=26.520195, Alt.=119.184631m. Speed=6.048000m/h.</desc>
<speed>1.680000</speed>
</trkpt>
<trkpt lat="55.940727" lon="26.520222">
<ele>118.942444</ele>
<time>2010-06-20T08:00:33Z</time>
<desc>lat.=55.940727, lon.=26.520222, Alt.=118.942444m. Speed=5.976000m/h.</desc>
<speed>1.660000</speed>
</trkpt>
<trkpt lat="55.940750" lon="26.520233">
<ele>119.022522</ele>
<time>2010-06-20T08:00:34Z</time>
<desc>lat.=55.940750, lon.=26.520233, Alt.=119.022522m. Speed=4.392000m/h.</desc>
<speed>1.220000</speed>
</trkpt>
<trkpt lat="55.940773" lon="26.520250">
<ele>119.252991</ele>
<time>2010-06-20T08:00:35Z</time>
<desc>lat.=55.940773, lon.=26.520250, Alt.=119.252991m. Speed=4.608000m/h.</desc>
<speed>1.280000</speed>
</trkpt>
<trkpt lat="55.940796" lon="26.520262">
<ele>119.231506</ele>
<time>2010-06-20T08:00:36Z</time>
<desc>lat.=55.940796, lon.=26.520262, Alt.=119.231506m. Speed=5.400000m/h.</desc>
<speed>1.500000</speed>
</trkpt>
<trkpt lat="55.940815" lon="26.520283">
<ele>116.725647</ele>
<time>2010-06-20T08:00:37Z</time>
<desc>lat.=55.940815, lon.=26.520283, Alt.=116.725647m. Speed=4.824000m/h.</desc>
<speed>1.340000</speed>
</trkpt>
<trkpt lat="55.940842" lon="26.520304">
<ele>116.629944</ele>
<time>2010-06-20T08:00:38Z</time>
<desc>lat.=55.940842, lon.=26.520304, Alt.=116.629944m. Speed=6.228000m/h.</desc>
<speed>1.730000</speed>
</trkpt>
<trkpt lat="55.940865" lon="26.520311">
<ele>116.786194</ele>
<time>2010-06-20T08:00:39Z</time>
<desc>lat.=55.940865, lon.=26.520311, Alt.=116.786194m. Speed=4.536000m/h.</desc>
<speed>1.260000</speed>
</trkpt>
<trkpt lat="55.940884" lon="26.520330">
<ele>115.971741</ele>
<time>2010-06-20T08:00:40Z</time>
<desc>lat.=55.940884, lon.=26.520330, Alt.=115.971741m. Speed=7.128000m/h.</desc>
<speed>1.980000</speed>
</trkpt>
<trkpt lat="55.940918" lon="26.520353">
<ele>115.471741</ele>
<time>2010-06-20T08:00:41Z</time>
<desc>lat.=55.940918, lon.=26.520353, Alt.=115.471741m. Speed=5.832000m/h.</desc>
<speed>1.620000</speed>
</trkpt>
<trkpt lat="55.940945" lon="26.520382">
<ele>115.639709</ele>
<time>2010-06-20T08:00:42Z</time>
<desc>lat.=55.940945, lon.=26.520382, Alt.=115.639709m. Speed=6.552000m/h.</desc>
<speed>1.820000</speed>
</trkpt>
<trkpt lat="55.940971" lon="26.520407">
<ele>115.766663</ele>
<time>2010-06-20T08:00:43Z</time>
<desc>lat.=55.940971, lon.=26.520407, Alt.=115.766663m. Speed=7.344000m/h.</desc>
<speed>2.040000</speed>
</trkpt>
<trkpt lat="55.941002" lon="26.520443">
<ele>114.835022</ele>
<time>2010-06-20T08:00:44Z</time>
<desc>lat.=55.941002, lon.=26.520443, Alt.=114.835022m. Speed=6.876000m/h.</desc>
<speed>1.910000</speed>
</trkpt>
<trkpt lat="55.941021" lon="26.520462">
<ele>114.680725</ele>
<time>2010-06-20T08:00:45Z</time>
<desc>lat.=55.941021, lon.=26.520462, Alt.=114.680725m. Speed=4.968000m/h.</desc>
<speed>1.380000</speed>
</trkpt>
<trkpt lat="55.941032" lon="26.520475">
<ele>114.186584</ele>
<time>2010-06-20T08:00:46Z</time>
<desc>lat.=55.941032, lon.=26.520475, Alt.=114.186584m. Speed=3.672000m/h.</desc>
<speed>1.020000</speed>
</trkpt>
<trkpt lat="55.941051" lon="26.520485">
<ele>114.059631</ele>
<time>2010-06-20T08:00:47Z</time>
<desc>lat.=55.941051, lon.=26.520485, Alt.=114.059631m. Speed=6.264000m/h.</desc>
<speed>1.740000</speed>
</trkpt>
<trkpt lat="55.941074" lon="26.520521">
<ele>113.870178</ele>
<time>2010-06-20T08:00:48Z</time>
<desc>lat.=55.941074, lon.=26.520521, Alt.=113.870178m. Speed=6.408000m/h.</desc>
<speed>1.780000</speed>
</trkpt>
<trkpt lat="55.941113" lon="26.520576">
<ele>112.096741</ele>
<time>2010-06-20T08:00:49Z</time>
<desc>lat.=55.941113, lon.=26.520576, Alt.=112.096741m. Speed=5.832000m/h.</desc>
<speed>1.620000</speed>
</trkpt>
<trkpt lat="55.941151" lon="26.520596">
<ele>111.264709</ele>
<time>2010-06-20T08:00:50Z</time>
<desc>lat.=55.941151, lon.=26.520596, Alt.=111.264709m. Speed=8.172000m/h.</desc>
<speed>2.270000</speed>
</trkpt>
<trkpt lat="55.941181" lon="26.520618">
<ele>110.569397</ele>
<time>2010-06-20T08:00:51Z</time>
<desc>lat.=55.941181, lon.=26.520618, Alt.=110.569397m. Speed=8.928000m/h.</desc>
<speed>2.480000</speed>
</trkpt>
<trkpt lat="55.941204" lon="26.520643">
<ele>109.815491</ele>
<time>2010-06-20T08:00:52Z</time>
<desc>lat.=55.941204, lon.=26.520643, Alt.=109.815491m. Speed=7.632000m/h.</desc>
<speed>2.120000</speed>
</trkpt>
<trkpt lat="55.941227" lon="26.520657">
<ele>109.663147</ele>
<time>2010-06-20T08:00:53Z</time>
<desc>lat.=55.941227, lon.=26.520657, Alt.=109.663147m. Speed=6.300000m/h.</desc>
<speed>1.750000</speed>
</trkpt>
<trkpt lat="55.941261" lon="26.520672">
<ele>109.481506</ele>
<time>2010-06-20T08:00:54Z</time>
<desc>lat.=55.941261, lon.=26.520672, Alt.=109.481506m. Speed=5.688000m/h.</desc>
<speed>1.580000</speed>
</trkpt>
<trkpt lat="55.941292" lon="26.520689">
<ele>109.274475</ele>
<time>2010-06-20T08:00:55Z</time>
<desc>lat.=55.941292, lon.=26.520689, Alt.=109.274475m. Speed=6.768000m/h.</desc>
<speed>1.880000</speed>
</trkpt>
<trkpt lat="55.941319" lon="26.520695">
<ele>109.420959</ele>
<time>2010-06-20T08:00:56Z</time>
<desc>lat.=55.941319, lon.=26.520695, Alt.=109.420959m. Speed=6.804000m/h.</desc>
<speed>1.890000</speed>
</trkpt>
<trkpt lat="55.941349" lon="26.520712">
<ele>109.336975</ele>
<time>2010-06-20T08:00:57Z</time>
<desc>lat.=55.941349, lon.=26.520712, Alt.=109.336975m. Speed=8.064000m/h.</desc>
<speed>2.240000</speed>
</trkpt>
<trkpt lat="55.941376" lon="26.520727">
<ele>109.266663</ele>
<time>2010-06-20T08:00:58Z</time>
<desc>lat.=55.941376, lon.=26.520727, Alt.=109.266663m. Speed=6.516000m/h.</desc>
<speed>1.810000</speed>
</trkpt>
<trkpt lat="55.941402" lon="26.520746">
<ele>109.538147</ele>
<time>2010-06-20T08:00:59Z</time>
<desc>lat.=55.941402, lon.=26.520746, Alt.=109.538147m. Speed=6.768000m/h.</desc>
<speed>1.880000</speed>
</trkpt>
<trkpt lat="55.941425" lon="26.520761">
<ele>109.415100</ele>
<time>2010-06-20T08:01:00Z</time>
<desc>lat.=55.941425, lon.=26.520761, Alt.=109.415100m. Speed=8.424000m/h.</desc>
<speed>2.340000</speed>
</trkpt>
<trkpt lat="55.941448" lon="26.520779">
<ele>109.299866</ele>
<time>2010-06-20T08:01:01Z</time>
<desc>lat.=55.941448, lon.=26.520779, Alt.=109.299866m. Speed=5.616000m/h.</desc>
<speed>1.560000</speed>
</trkpt>
<trkpt lat="55.941475" lon="26.520771">
<ele>109.544006</ele>
<time>2010-06-20T08:01:02Z</time>
<desc>lat.=55.941475, lon.=26.520771, Alt.=109.544006m. Speed=9.864000m/h.</desc>
<speed>2.740000</speed>
</trkpt>
<trkpt lat="55.941559" lon="26.520811">
<ele>110.352600</ele>
<time>2010-06-20T08:01:03Z</time>
<desc>lat.=55.941559, lon.=26.520811, Alt.=110.352600m. Speed=7.560000m/h.</desc>
<speed>2.100000</speed>
</trkpt>
<trkpt lat="55.941650" lon="26.520847">
<ele>108.770569</ele>
<time>2010-06-20T08:01:04Z</time>
<desc>lat.=55.941650, lon.=26.520847, Alt.=108.770569m. Speed=7.416000m/h.</desc>
<speed>2.060000</speed>
</trkpt>
<trkpt lat="55.941681" lon="26.520857">
<ele>108.422913</ele>
<time>2010-06-20T08:01:05Z</time>
<desc>lat.=55.941681, lon.=26.520857, Alt.=108.422913m. Speed=6.732000m/h.</desc>
<speed>1.870000</speed>
</trkpt>
<trkpt lat="55.941704" lon="26.520859">
<ele>107.881897</ele>
<time>2010-06-20T08:01:06Z</time>
<desc>lat.=55.941704, lon.=26.520859, Alt.=107.881897m. Speed=6.300000m/h.</desc>
<speed>1.750000</speed>
</trkpt>
<trkpt lat="55.941734" lon="26.520857">
<ele>107.139709</ele>
<time>2010-06-20T08:01:07Z</time>
<desc>lat.=55.941734, lon.=26.520857, Alt.=107.139709m. Speed=6.264000m/h.</desc>
<speed>1.740000</speed>
</trkpt>
<trkpt lat="55.941765" lon="26.520864">
<ele>106.956116</ele>
<time>2010-06-20T08:01:08Z</time>
<desc>lat.=55.941765, lon.=26.520864, Alt.=106.956116m. Speed=7.380000m/h.</desc>
<speed>2.050000</speed>
</trkpt>
<trkpt lat="55.941818" lon="26.520866">
<ele>105.137756</ele>
<time>2010-06-20T08:01:09Z</time>
<desc>lat.=55.941818, lon.=26.520866, Alt.=105.137756m. Speed=8.820000m/h.</desc>
<speed>2.450000</speed>
</trkpt>
<trkpt lat="55.941860" lon="26.520864">
<ele>103.877991</ele>
<time>2010-06-20T08:01:10Z</time>
<desc>lat.=55.941860, lon.=26.520864, Alt.=103.877991m. Speed=9.396000m/h.</desc>
<speed>2.610000</speed>
</trkpt>
<trkpt lat="55.941902" lon="26.520868">
<ele>102.698303</ele>
<time>2010-06-20T08:01:11Z</time>
<desc>lat.=55.941902, lon.=26.520868, Alt.=102.698303m. Speed=10.224000m/h.</desc>
<speed>2.840000</speed>
</trkpt>
<trkpt lat="55.941940" lon="26.520874">
<ele>100.698303</ele>
<time>2010-06-20T08:01:12Z</time>
<desc>lat.=55.941940, lon.=26.520874, Alt.=100.698303m. Speed=9.540000m/h.</desc>
<speed>2.650000</speed>
</trkpt>
<trkpt lat="55.941978" lon="26.520880">
<ele>99.553772</ele>
<time>2010-06-20T08:01:13Z</time>
<desc>lat.=55.941978, lon.=26.520880, Alt.=99.553772m. Speed=9.216000m/h.</desc>
<speed>2.560000</speed>
</trkpt>
<trkpt lat="55.942009" lon="26.520895">
<ele>98.817444</ele>
<time>2010-06-20T08:01:14Z</time>
<desc>lat.=55.942009, lon.=26.520895, Alt.=98.817444m. Speed=6.552000m/h.</desc>
<speed>1.820000</speed>
</trkpt>
<trkpt lat="55.942032" lon="26.520914">
<ele>97.684631</ele>
<time>2010-06-20T08:01:15Z</time>
<desc>lat.=55.942032, lon.=26.520914, Alt.=97.684631m. Speed=5.364000m/h.</desc>
<speed>1.490000</speed>
</trkpt>
<trkpt lat="55.942062" lon="26.520927">
<ele>98.526428</ele>
<time>2010-06-20T08:01:16Z</time>
<desc>lat.=55.942062, lon.=26.520927, Alt.=98.526428m. Speed=3.996000m/h.</desc>
<speed>1.110000</speed>
</trkpt>
<trkpt lat="55.942081" lon="26.520943">
<ele>99.272522</ele>
<time>2010-06-20T08:01:17Z</time>
<desc>lat.=55.942081, lon.=26.520943, Alt.=99.272522m. Speed=3.384000m/h.</desc>
<speed>0.940000</speed>
</trkpt>
<trkpt lat="55.942093" lon="26.520956">
<ele>99.506897</ele>
<time>2010-06-20T08:01:18Z</time>
<desc>lat.=55.942093, lon.=26.520956, Alt.=99.506897m. Speed=2.520000m/h.</desc>
<speed>0.700000</speed>
</trkpt>
<trkpt lat="55.942097" lon="26.520967">
<ele>99.245178</ele>
<time>2010-06-20T08:01:19Z</time>
<desc>lat.=55.942097, lon.=26.520967, Alt.=99.245178m. Speed=1.800000m/h.</desc>
<speed>0.500000</speed>
</trkpt>
<trkpt lat="55.942104" lon="26.520977">
<ele>99.319397</ele>
<time>2010-06-20T08:01:20Z</time>
<desc>lat.=55.942104, lon.=26.520977, Alt.=99.319397m. Speed=1.836000m/h.</desc>
<speed>0.510000</speed>
</trkpt>
<trkpt lat="55.942116" lon="26.520987">
<ele>99.336975</ele>
<time>2010-06-20T08:01:21Z</time>
<desc>lat.=55.942116, lon.=26.520987, Alt.=99.336975m. Speed=1.116000m/h.</desc>
<speed>0.310000</speed>
</trkpt>
<trkpt lat="55.942123" lon="26.520990">
<ele>99.049866</ele>
<time>2010-06-20T08:01:22Z</time>
<desc>lat.=55.942123, lon.=26.520990, Alt.=99.049866m. Speed=0.792000m/h.</desc>
<speed>0.220000</speed>
</trkpt>
<trkpt lat="55.942131" lon="26.520994">
<ele>99.469788</ele>
<time>2010-06-20T08:01:23Z</time>
<desc>lat.=55.942131, lon.=26.520994, Alt.=99.469788m. Speed=0.828000m/h.</desc>
<speed>0.230000</speed>
</trkpt>
<trkpt lat="55.942135" lon="26.521000">
<ele>99.674866</ele>
<time>2010-06-20T08:01:24Z</time>
<desc>lat.=55.942135, lon.=26.521000, Alt.=99.674866m. Speed=0.864000m/h.</desc>
<speed>0.240000</speed>
</trkpt>
<trkpt lat="55.942142" lon="26.521021">
<ele>99.155334</ele>
<time>2010-06-20T08:01:25Z</time>
<desc>lat.=55.942142, lon.=26.521021, Alt.=99.155334m. Speed=0.792000m/h.</desc>
<speed>0.220000</speed>
</trkpt>
<trkpt lat="55.942142" lon="26.521023">
<ele>99.012756</ele>
<time>2010-06-20T08:01:26Z</time>
<desc>lat.=55.942142, lon.=26.521023, Alt.=99.012756m. Speed=0.648000m/h.</desc>
<speed>0.180000</speed>
</trkpt>
<trkpt lat="55.942146" lon="26.521025">
<ele>98.907288</ele>
<time>2010-06-20T08:01:27Z</time>
<desc>lat.=55.942146, lon.=26.521025, Alt.=98.907288m. Speed=0.828000m/h.</desc>
<speed>0.230000</speed>
</trkpt>
<trkpt lat="55.942146" lon="26.521027">
<ele>98.836975</ele>
<time>2010-06-20T08:01:28Z</time>
<desc>lat.=55.942146, lon.=26.521027, Alt.=98.836975m. Speed=0.684000m/h.</desc>
<speed>0.190000</speed>
</trkpt>
<trkpt lat="55.942150" lon="26.521029">
<ele>98.786194</ele>
<time>2010-06-20T08:01:29Z</time>
<desc>lat.=55.942150, lon.=26.521029, Alt.=98.786194m. Speed=0.108000m/h.</desc>
<speed>0.030000</speed>
</trkpt>
<trkpt lat="55.942150" lon="26.521029">
<ele>98.735413</ele>
<time>2010-06-20T08:01:30Z</time>
<desc>lat.=55.942150, lon.=26.521029, Alt.=98.735413m. Speed=0.180000m/h.</desc>
<speed>0.050000</speed>
</trkpt>
<trkpt lat="55.942150" lon="26.521029">
<ele>98.727600</ele>
<time>2010-06-20T08:01:31Z</time>
<desc>lat.=55.942150, lon.=26.521029, Alt.=98.727600m. Speed=0.396000m/h.</desc>
<speed>0.110000</speed>
</trkpt>
<trkpt lat="55.942146" lon="26.521029">
<ele>98.729553</ele>
<time>2010-06-20T08:01:32Z</time>
<desc>lat.=55.942146, lon.=26.521029, Alt.=98.729553m. Speed=0.432000m/h.</desc>
<speed>0.120000</speed>
</trkpt>
<trkpt lat="55.942146" lon="26.521027">
<ele>98.743225</ele>
<time>2010-06-20T08:01:33Z</time>
<desc>lat.=55.942146, lon.=26.521027, Alt.=98.743225m. Speed=0.288000m/h.</desc>
<speed>0.080000</speed>
</trkpt>
<trkpt lat="55.942146" lon="26.521027">
<ele>98.743225</ele>
<time>2010-06-20T08:01:34Z</time>
<desc>lat.=55.942146, lon.=26.521027, Alt.=98.743225m. Speed=0.504000m/h.</desc>
<speed>0.140000</speed>
</trkpt>
<trkpt lat="55.942150" lon="26.521027">
<ele>98.752991</ele>
<time>2010-06-20T08:01:35Z</time>
<desc>lat.=55.942150, lon.=26.521027, Alt.=98.752991m. Speed=0.396000m/h.</desc>
<speed>0.110000</speed>
</trkpt>
<trkpt lat="55.942150" lon="26.521029">
<ele>98.762756</ele>
<time>2010-06-20T08:01:36Z</time>
<desc>lat.=55.942150, lon.=26.521029, Alt.=98.762756m. Speed=0.432000m/h.</desc>
<speed>0.120000</speed>
</trkpt>
<trkpt lat="55.942150" lon="26.521029">
<ele>98.774475</ele>
<time>2010-06-20T08:01:37Z</time>
<desc>lat.=55.942150, lon.=26.521029, Alt.=98.774475m. Speed=0.432000m/h.</desc>
<speed>0.120000</speed>
</trkpt>
<trkpt lat="55.942154" lon="26.521029">
<ele>98.784241</ele>
<time>2010-06-20T08:01:38Z</time>
<desc>lat.=55.942154, lon.=26.521029, Alt.=98.784241m. Speed=0.108000m/h.</desc>
<speed>0.030000</speed>
</trkpt>
<trkpt lat="55.942154" lon="26.521030">
<ele>98.795959</ele>
<time>2010-06-20T08:01:39Z</time>
<desc>lat.=55.942154, lon.=26.521030, Alt.=98.795959m. Speed=0.108000m/h.</desc>
<speed>0.030000</speed>
</trkpt>
<trkpt lat="55.942154" lon="26.521029">
<ele>98.805725</ele>
<time>2010-06-20T08:01:40Z</time>
<desc>lat.=55.942154, lon.=26.521029, Alt.=98.805725m. Speed=0.396000m/h.</desc>
<speed>0.110000</speed>
</trkpt>
<trkpt lat="55.942154" lon="26.521030">
<ele>98.821350</ele>
<time>2010-06-20T08:01:41Z</time>
<desc>lat.=55.942154, lon.=26.521030, Alt.=98.821350m. Speed=0.576000m/h.</desc>
<speed>0.160000</speed>
</trkpt>
<trkpt lat="55.942154" lon="26.521034">
<ele>98.827209</ele>
<time>2010-06-20T08:01:42Z</time>
<desc>lat.=55.942154, lon.=26.521034, Alt.=98.827209m. Speed=0.684000m/h.</desc>
<speed>0.190000</speed>
</trkpt>
<trkpt lat="55.942154" lon="26.521036">
<ele>98.844788</ele>
<time>2010-06-20T08:01:43Z</time>
<desc>lat.=55.942154, lon.=26.521036, Alt.=98.844788m. Speed=0.648000m/h.</desc>
<speed>0.180000</speed>
</trkpt>
<trkpt lat="55.942158" lon="26.521038">
<ele>98.852600</ele>
<time>2010-06-20T08:01:44Z</time>
<desc>lat.=55.942158, lon.=26.521038, Alt.=98.852600m. Speed=1.080000m/h.</desc>
<speed>0.300000</speed>
</trkpt>
<trkpt lat="55.942184" lon="26.521048">
<ele>99.383850</ele>
<time>2010-06-20T08:01:45Z</time>
<desc>lat.=55.942184, lon.=26.521048, Alt.=99.383850m. Speed=1.476000m/h.</desc>
<speed>0.410000</speed>
</trkpt>
<trkpt lat="55.942188" lon="26.521051">
<ele>99.446350</ele>
<time>2010-06-20T08:01:46Z</time>
<desc>lat.=55.942188, lon.=26.521051, Alt.=99.446350m. Speed=1.116000m/h.</desc>
<speed>0.310000</speed>
</trkpt>
<trkpt lat="55.942196" lon="26.521055">
<ele>99.420959</ele>
<time>2010-06-20T08:01:47Z</time>
<desc>lat.=55.942196, lon.=26.521055, Alt.=99.420959m. Speed=0.756000m/h.</desc>
<speed>0.210000</speed>
</trkpt>
<trkpt lat="55.942204" lon="26.521048">
<ele>99.262756</ele>
<time>2010-06-20T08:01:48Z</time>
<desc>lat.=55.942204, lon.=26.521048, Alt.=99.262756m. Speed=0.648000m/h.</desc>
<speed>0.180000</speed>
</trkpt>
<trkpt lat="55.942219" lon="26.521049">
<ele>99.508850</ele>
<time>2010-06-20T08:01:49Z</time>
<desc>lat.=55.942219, lon.=26.521049, Alt.=99.508850m. Speed=0.828000m/h.</desc>
<speed>0.230000</speed>
</trkpt>
<trkpt lat="55.942230" lon="26.521051">
<ele>99.473694</ele>
<time>2010-06-20T08:01:50Z</time>
<desc>lat.=55.942230, lon.=26.521051, Alt.=99.473694m. Speed=1.332000m/h.</desc>
<speed>0.370000</speed>
</trkpt>
<trkpt lat="55.942238" lon="26.521053">
<ele>99.182678</ele>
<time>2010-06-20T08:01:51Z</time>
<desc>lat.=55.942238, lon.=26.521053, Alt.=99.182678m. Speed=1.080000m/h.</desc>
<speed>0.300000</speed>
</trkpt>
<trkpt lat="55.942238" lon="26.521051">
<ele>99.305725</ele>
<time>2010-06-20T08:01:52Z</time>
<desc>lat.=55.942238, lon.=26.521051, Alt.=99.305725m. Speed=1.332000m/h.</desc>
<speed>0.370000</speed>
</trkpt>
<trkpt lat="55.942242" lon="26.521053">
<ele>99.473694</ele>
<time>2010-06-20T08:01:53Z</time>
<desc>lat.=55.942242, lon.=26.521053, Alt.=99.473694m. Speed=1.224000m/h.</desc>
<speed>0.340000</speed>
</trkpt>
<trkpt lat="55.942238" lon="26.521053">
<ele>99.526428</ele>
<time>2010-06-20T08:01:54Z</time>
<desc>lat.=55.942238, lon.=26.521053, Alt.=99.526428m. Speed=1.044000m/h.</desc>
<speed>0.290000</speed>
</trkpt>
<trkpt lat="55.942249" lon="26.521048">
<ele>98.932678</ele>
<time>2010-06-20T08:01:55Z</time>
<desc>lat.=55.942249, lon.=26.521048, Alt.=98.932678m. Speed=2.412000m/h.</desc>
<speed>0.670000</speed>
</trkpt>
<trkpt lat="55.942253" lon="26.521049">
<ele>98.876038</ele>
<time>2010-06-20T08:01:56Z</time>
<desc>lat.=55.942253, lon.=26.521049, Alt.=98.876038m. Speed=2.088000m/h.</desc>
<speed>0.580000</speed>
</trkpt>
<trkpt lat="55.942261" lon="26.521049">
<ele>98.858459</ele>
<time>2010-06-20T08:01:57Z</time>
<desc>lat.=55.942261, lon.=26.521049, Alt.=98.858459m. Speed=1.944000m/h.</desc>
<speed>0.540000</speed>
</trkpt>
<trkpt lat="55.942265" lon="26.521048">
<ele>98.807678</ele>
<time>2010-06-20T08:01:58Z</time>
<desc>lat.=55.942265, lon.=26.521048, Alt.=98.807678m. Speed=1.944000m/h.</desc>
<speed>0.540000</speed>
</trkpt>
<trkpt lat="55.942265" lon="26.521046">
<ele>98.754944</ele>
<time>2010-06-20T08:01:59Z</time>
<desc>lat.=55.942265, lon.=26.521046, Alt.=98.754944m. Speed=1.584000m/h.</desc>
<speed>0.440000</speed>
</trkpt>
<trkpt lat="55.942261" lon="26.521048">
<ele>98.651428</ele>
<time>2010-06-20T08:02:00Z</time>
<desc>lat.=55.942261, lon.=26.521048, Alt.=98.651428m. Speed=0.936000m/h.</desc>
<speed>0.260000</speed>
</trkpt>
<trkpt lat="55.942268" lon="26.521055">
<ele>98.590881</ele>
<time>2010-06-20T08:02:01Z</time>
<desc>lat.=55.942268, lon.=26.521055, Alt.=98.590881m. Speed=1.368000m/h.</desc>
<speed>0.380000</speed>
</trkpt>
<trkpt lat="55.942276" lon="26.521059">
<ele>98.577209</ele>
<time>2010-06-20T08:02:02Z</time>
<desc>lat.=55.942276, lon.=26.521059, Alt.=98.577209m. Speed=1.584000m/h.</desc>
<speed>0.440000</speed>
</trkpt>
<trkpt lat="55.942287" lon="26.521065">
<ele>98.667053</ele>
<time>2010-06-20T08:02:03Z</time>
<desc>lat.=55.942287, lon.=26.521065, Alt.=98.667053m. Speed=1.800000m/h.</desc>
<speed>0.500000</speed>
</trkpt>
<trkpt lat="55.942291" lon="26.521074">
<ele>98.758850</ele>
<time>2010-06-20T08:02:04Z</time>
<desc>lat.=55.942291, lon.=26.521074, Alt.=98.758850m. Speed=2.160000m/h.</desc>
<speed>0.600000</speed>
</trkpt>
<trkpt lat="55.942299" lon="26.521078">
<ele>98.741272</ele>
<time>2010-06-20T08:02:05Z</time>
<desc>lat.=55.942299, lon.=26.521078, Alt.=98.741272m. Speed=2.304000m/h.</desc>
<speed>0.640000</speed>
</trkpt>
<trkpt lat="55.942322" lon="26.521074">
<ele>99.885803</ele>
<time>2010-06-20T08:02:06Z</time>
<desc>lat.=55.942322, lon.=26.521074, Alt.=99.885803m. Speed=2.412000m/h.</desc>
<speed>0.670000</speed>
</trkpt>
<trkpt lat="55.942333" lon="26.521078">
<ele>100.850647</ele>
<time>2010-06-20T08:02:07Z</time>
<desc>lat.=55.942333, lon.=26.521078, Alt.=100.850647m. Speed=2.808000m/h.</desc>
<speed>0.780000</speed>
</trkpt>
<trkpt lat="55.942368" lon="26.521097">
<ele>101.083069</ele>
<time>2010-06-20T08:02:08Z</time>
<desc>lat.=55.942368, lon.=26.521097, Alt.=101.083069m. Speed=3.096000m/h.</desc>
<speed>0.860000</speed>
</trkpt>
<trkpt lat="55.942394" lon="26.521120">
<ele>101.210022</ele>
<time>2010-06-20T08:02:09Z</time>
<desc>lat.=55.942394, lon.=26.521120, Alt.=101.210022m. Speed=4.320000m/h.</desc>
<speed>1.200000</speed>
</trkpt>
<trkpt lat="55.942413" lon="26.521137">
<ele>101.419006</ele>
<time>2010-06-20T08:02:10Z</time>
<desc>lat.=55.942413, lon.=26.521137, Alt.=101.419006m. Speed=4.392000m/h.</desc>
<speed>1.220000</speed>
</trkpt>
<trkpt lat="55.942432" lon="26.521152">
<ele>101.891663</ele>
<time>2010-06-20T08:02:11Z</time>
<desc>lat.=55.942432, lon.=26.521152, Alt.=101.891663m. Speed=4.284000m/h.</desc>
<speed>1.190000</speed>
</trkpt>
<trkpt lat="55.942451" lon="26.521162">
<ele>102.088928</ele>
<time>2010-06-20T08:02:12Z</time>
<desc>lat.=55.942451, lon.=26.521162, Alt.=102.088928m. Speed=4.320000m/h.</desc>
<speed>1.200000</speed>
</trkpt>
<trkpt lat="55.942463" lon="26.521172">
<ele>102.233459</ele>
<time>2010-06-20T08:02:13Z</time>
<desc>lat.=55.942463, lon.=26.521172, Alt.=102.233459m. Speed=4.032000m/h.</desc>
<speed>1.120000</speed>
</trkpt>
<trkpt lat="55.942474" lon="26.521179">
<ele>102.374084</ele>
<time>2010-06-20T08:02:14Z</time>
<desc>lat.=55.942474, lon.=26.521179, Alt.=102.374084m. Speed=3.816000m/h.</desc>
<speed>1.060000</speed>
</trkpt>
<trkpt lat="55.942482" lon="26.521187">
<ele>102.290100</ele>
<time>2010-06-20T08:02:15Z</time>
<desc>lat.=55.942482, lon.=26.521187, Alt.=102.290100m. Speed=3.564000m/h.</desc>
<speed>0.990000</speed>
</trkpt>
<trkpt lat="55.942493" lon="26.521200">
<ele>102.313538</ele>
<time>2010-06-20T08:02:16Z</time>
<desc>lat.=55.942493, lon.=26.521200, Alt.=102.313538m. Speed=3.924000m/h.</desc>
<speed>1.090000</speed>
</trkpt>
<trkpt lat="55.942535" lon="26.521223">
<ele>102.460022</ele>
<time>2010-06-20T08:02:17Z</time>
<desc>lat.=55.942535, lon.=26.521223, Alt.=102.460022m. Speed=5.652000m/h.</desc>
<speed>1.570000</speed>
</trkpt>
<trkpt lat="55.942551" lon="26.521238">
<ele>102.696350</ele>
<time>2010-06-20T08:02:18Z</time>
<desc>lat.=55.942551, lon.=26.521238, Alt.=102.696350m. Speed=4.752000m/h.</desc>
<speed>1.320000</speed>
</trkpt>
<trkpt lat="55.942574" lon="26.521259">
<ele>102.901428</ele>
<time>2010-06-20T08:02:19Z</time>
<desc>lat.=55.942574, lon.=26.521259, Alt.=102.901428m. Speed=4.896000m/h.</desc>
<speed>1.360000</speed>
</trkpt>
<trkpt lat="55.942619" lon="26.521301">
<ele>102.879944</ele>
<time>2010-06-20T08:02:20Z</time>
<desc>lat.=55.942619, lon.=26.521301, Alt.=102.879944m. Speed=7.236000m/h.</desc>
<speed>2.010000</speed>
</trkpt>
<trkpt lat="55.942631" lon="26.521338">
<ele>103.262756</ele>
<time>2010-06-20T08:02:21Z</time>
<desc>lat.=55.942631, lon.=26.521338, Alt.=103.262756m. Speed=6.660000m/h.</desc>
<speed>1.850000</speed>
</trkpt>
<trkpt lat="55.942650" lon="26.521360">
<ele>103.569397</ele>
<time>2010-06-20T08:02:22Z</time>
<desc>lat.=55.942650, lon.=26.521360, Alt.=103.569397m. Speed=4.392000m/h.</desc>
<speed>1.220000</speed>
</trkpt>
<trkpt lat="55.942665" lon="26.521376">
<ele>103.565491</ele>
<time>2010-06-20T08:02:23Z</time>
<desc>lat.=55.942665, lon.=26.521376, Alt.=103.565491m. Speed=6.336000m/h.</desc>
<speed>1.760000</speed>
</trkpt>
<trkpt lat="55.942684" lon="26.521397">
<ele>103.797913</ele>
<time>2010-06-20T08:02:24Z</time>
<desc>lat.=55.942684, lon.=26.521397, Alt.=103.797913m. Speed=5.364000m/h.</desc>
<speed>1.490000</speed>
</trkpt>
<trkpt lat="55.942699" lon="26.521421">
<ele>104.012756</ele>
<time>2010-06-20T08:02:25Z</time>
<desc>lat.=55.942699, lon.=26.521421, Alt.=104.012756m. Speed=5.796000m/h.</desc>
<speed>1.610000</speed>
</trkpt>
<trkpt lat="55.942715" lon="26.521446">
<ele>103.950256</ele>
<time>2010-06-20T08:02:26Z</time>
<desc>lat.=55.942715, lon.=26.521446, Alt.=103.950256m. Speed=6.804000m/h.</desc>
<speed>1.890000</speed>
</trkpt>
<trkpt lat="55.942741" lon="26.521473">
<ele>104.452209</ele>
<time>2010-06-20T08:02:27Z</time>
<desc>lat.=55.942741, lon.=26.521473, Alt.=104.452209m. Speed=6.048000m/h.</desc>
<speed>1.680000</speed>
</trkpt>
<trkpt lat="55.942757" lon="26.521492">
<ele>104.450256</ele>
<time>2010-06-20T08:02:28Z</time>
<desc>lat.=55.942757, lon.=26.521492, Alt.=104.450256m. Speed=5.760000m/h.</desc>
<speed>1.600000</speed>
</trkpt>
<trkpt lat="55.942768" lon="26.521517">
<ele>104.669006</ele>
<time>2010-06-20T08:02:29Z</time>
<desc>lat.=55.942768, lon.=26.521517, Alt.=104.669006m. Speed=5.040000m/h.</desc>
<speed>1.400000</speed>
</trkpt>
<trkpt lat="55.942780" lon="26.521534">
<ele>104.815491</ele>
<time>2010-06-20T08:02:30Z</time>
<desc>lat.=55.942780, lon.=26.521534, Alt.=104.815491m. Speed=4.680000m/h.</desc>
<speed>1.300000</speed>
</trkpt>
<trkpt lat="55.942787" lon="26.521557">
<ele>105.044006</ele>
<time>2010-06-20T08:02:31Z</time>
<desc>lat.=55.942787, lon.=26.521557, Alt.=105.044006m. Speed=4.680000m/h.</desc>
<speed>1.300000</speed>
</trkpt>
<trkpt lat="55.942822" lon="26.521591">
<ele>104.944397</ele>
<time>2010-06-20T08:02:32Z</time>
<desc>lat.=55.942822, lon.=26.521591, Alt.=104.944397m. Speed=6.696000m/h.</desc>
<speed>1.860000</speed>
</trkpt>
<trkpt lat="55.942841" lon="26.521626">
<ele>105.139709</ele>
<time>2010-06-20T08:02:33Z</time>
<desc>lat.=55.942841, lon.=26.521626, Alt.=105.139709m. Speed=6.120000m/h.</desc>
<speed>1.700000</speed>
</trkpt>
<trkpt lat="55.942863" lon="26.521654">
<ele>105.346741</ele>
<time>2010-06-20T08:02:34Z</time>
<desc>lat.=55.942863, lon.=26.521654, Alt.=105.346741m. Speed=5.868000m/h.</desc>
<speed>1.630000</speed>
</trkpt>
<trkpt lat="55.942875" lon="26.521673">
<ele>105.452209</ele>
<time>2010-06-20T08:02:35Z</time>
<desc>lat.=55.942875, lon.=26.521673, Alt.=105.452209m. Speed=5.040000m/h.</desc>
<speed>1.400000</speed>
</trkpt>
<trkpt lat="55.942894" lon="26.521688">
<ele>105.627991</ele>
<time>2010-06-20T08:02:36Z</time>
<desc>lat.=55.942894, lon.=26.521688, Alt.=105.627991m. Speed=6.120000m/h.</desc>
<speed>1.700000</speed>
</trkpt>
<trkpt lat="55.942909" lon="26.521704">
<ele>105.627991</ele>
<time>2010-06-20T08:02:37Z</time>
<desc>lat.=55.942909, lon.=26.521704, Alt.=105.627991m. Speed=4.356000m/h.</desc>
<speed>1.210000</speed>
</trkpt>
<trkpt lat="55.942924" lon="26.521725">
<ele>105.622131</ele>
<time>2010-06-20T08:02:38Z</time>
<desc>lat.=55.942924, lon.=26.521725, Alt.=105.622131m. Speed=6.912000m/h.</desc>
<speed>1.920000</speed>
</trkpt>
<trkpt lat="55.942940" lon="26.521740">
<ele>105.780334</ele>
<time>2010-06-20T08:02:39Z</time>
<desc>lat.=55.942940, lon.=26.521740, Alt.=105.780334m. Speed=5.940000m/h.</desc>
<speed>1.650000</speed>
</trkpt>
<trkpt lat="55.942951" lon="26.521759">
<ele>105.917053</ele>
<time>2010-06-20T08:02:40Z</time>
<desc>lat.=55.942951, lon.=26.521759, Alt.=105.917053m. Speed=5.112000m/h.</desc>
<speed>1.420000</speed>
</trkpt>
<trkpt lat="55.942974" lon="26.521776">
<ele>106.122131</ele>
<time>2010-06-20T08:02:41Z</time>
<desc>lat.=55.942974, lon.=26.521776, Alt.=106.122131m. Speed=5.724000m/h.</desc>
<speed>1.590000</speed>
</trkpt>
<trkpt lat="55.942986" lon="26.521801">
<ele>106.456116</ele>
<time>2010-06-20T08:02:42Z</time>
<desc>lat.=55.942986, lon.=26.521801, Alt.=106.456116m. Speed=5.580000m/h.</desc>
<speed>1.550000</speed>
</trkpt>
<trkpt lat="55.942993" lon="26.521826">
<ele>107.686584</ele>
<time>2010-06-20T08:02:43Z</time>
<desc>lat.=55.942993, lon.=26.521826, Alt.=107.686584m. Speed=5.364000m/h.</desc>
<speed>1.490000</speed>
</trkpt>
<trkpt lat="55.943012" lon="26.521858">
<ele>107.733459</ele>
<time>2010-06-20T08:02:44Z</time>
<desc>lat.=55.943012, lon.=26.521858, Alt.=107.733459m. Speed=8.352000m/h.</desc>
<speed>2.320000</speed>
</trkpt>
<trkpt lat="55.943031" lon="26.521883">
<ele>107.936584</ele>
<time>2010-06-20T08:02:45Z</time>
<desc>lat.=55.943031, lon.=26.521883, Alt.=107.936584m. Speed=6.804000m/h.</desc>
<speed>1.890000</speed>
</trkpt>
<trkpt lat="55.943058" lon="26.521914">
<ele>107.885803</ele>
<time>2010-06-20T08:02:46Z</time>
<desc>lat.=55.943058, lon.=26.521914, Alt.=107.885803m. Speed=6.876000m/h.</desc>
<speed>1.910000</speed>
</trkpt>
<trkpt lat="55.943069" lon="26.521938">
<ele>107.752991</ele>
<time>2010-06-20T08:02:47Z</time>
<desc>lat.=55.943069, lon.=26.521938, Alt.=107.752991m. Speed=5.436000m/h.</desc>
<speed>1.510000</speed>
</trkpt>
<trkpt lat="55.943089" lon="26.521957">
<ele>108.262756</ele>
<time>2010-06-20T08:02:48Z</time>
<desc>lat.=55.943089, lon.=26.521957, Alt.=108.262756m. Speed=5.832000m/h.</desc>
<speed>1.620000</speed>
</trkpt>
<trkpt lat="55.943111" lon="26.521969">
<ele>108.512756</ele>
<time>2010-06-20T08:02:49Z</time>
<desc>lat.=55.943111, lon.=26.521969, Alt.=108.512756m. Speed=6.732000m/h.</desc>
<speed>1.870000</speed>
</trkpt>
<trkpt lat="55.943130" lon="26.521992">
<ele>108.950256</ele>
<time>2010-06-20T08:02:50Z</time>
<desc>lat.=55.943130, lon.=26.521992, Alt.=108.950256m. Speed=5.544000m/h.</desc>
<speed>1.540000</speed>
</trkpt>
<trkpt lat="55.943138" lon="26.522030">
<ele>106.729553</ele>
<time>2010-06-20T08:02:51Z</time>
<desc>lat.=55.943138, lon.=26.522030, Alt.=106.729553m. Speed=4.068000m/h.</desc>
<speed>1.130000</speed>
</trkpt>
<trkpt lat="55.943153" lon="26.522049">
<ele>107.045959</ele>
<time>2010-06-20T08:02:52Z</time>
<desc>lat.=55.943153, lon.=26.522049, Alt.=107.045959m. Speed=5.616000m/h.</desc>
<speed>1.560000</speed>
</trkpt>
<trkpt lat="55.943176" lon="26.522089">
<ele>107.788147</ele>
<time>2010-06-20T08:02:53Z</time>
<desc>lat.=55.943176, lon.=26.522089, Alt.=107.788147m. Speed=6.804000m/h.</desc>
<speed>1.890000</speed>
</trkpt>
<trkpt lat="55.943192" lon="26.522116">
<ele>108.174866</ele>
<time>2010-06-20T08:02:54Z</time>
<desc>lat.=55.943192, lon.=26.522116, Alt.=108.174866m. Speed=6.912000m/h.</desc>
<speed>1.920000</speed>
</trkpt>
<trkpt lat="55.943207" lon="26.522139">
<ele>108.331116</ele>
<time>2010-06-20T08:02:55Z</time>
<desc>lat.=55.943207, lon.=26.522139, Alt.=108.331116m. Speed=5.508000m/h.</desc>
<speed>1.530000</speed>
</trkpt>
<trkpt lat="55.943230" lon="26.522173">
<ele>108.745178</ele>
<time>2010-06-20T08:02:56Z</time>
<desc>lat.=55.943230, lon.=26.522173, Alt.=108.745178m. Speed=6.624000m/h.</desc>
<speed>1.840000</speed>
</trkpt>
<trkpt lat="55.943241" lon="26.522192">
<ele>108.778381</ele>
<time>2010-06-20T08:02:57Z</time>
<desc>lat.=55.943241, lon.=26.522192, Alt.=108.778381m. Speed=4.464000m/h.</desc>
<speed>1.240000</speed>
</trkpt>
<trkpt lat="55.943260" lon="26.522213">
<ele>109.126038</ele>
<time>2010-06-20T08:02:58Z</time>
<desc>lat.=55.943260, lon.=26.522213, Alt.=109.126038m. Speed=5.472000m/h.</desc>
<speed>1.520000</speed>
</trkpt>
<trkpt lat="55.943302" lon="26.522255">
<ele>109.135803</ele>
<time>2010-06-20T08:02:59Z</time>
<desc>lat.=55.943302, lon.=26.522255, Alt.=109.135803m. Speed=6.984000m/h.</desc>
<speed>1.940000</speed>
</trkpt>
<trkpt lat="55.943329" lon="26.522287">
<ele>109.526428</ele>
<time>2010-06-20T08:03:00Z</time>
<desc>lat.=55.943329, lon.=26.522287, Alt.=109.526428m. Speed=7.020000m/h.</desc>
<speed>1.950000</speed>
</trkpt>
<trkpt lat="55.943344" lon="26.522316">
<ele>109.639709</ele>
<time>2010-06-20T08:03:01Z</time>
<desc>lat.=55.943344, lon.=26.522316, Alt.=109.639709m. Speed=7.380000m/h.</desc>
<speed>2.050000</speed>
</trkpt>
<trkpt lat="55.943352" lon="26.522352">
<ele>109.094788</ele>
<time>2010-06-20T08:03:02Z</time>
<desc>lat.=55.943352, lon.=26.522352, Alt.=109.094788m. Speed=5.004000m/h.</desc>
<speed>1.390000</speed>
</trkpt>
<trkpt lat="55.943375" lon="26.522390">
<ele>109.407288</ele>
<time>2010-06-20T08:03:03Z</time>
<desc>lat.=55.943375, lon.=26.522390, Alt.=109.407288m. Speed=8.172000m/h.</desc>
<speed>2.270000</speed>
</trkpt>
<trkpt lat="55.943390" lon="26.522415">
<ele>109.555725</ele>
<time>2010-06-20T08:03:04Z</time>
<desc>lat.=55.943390, lon.=26.522415, Alt.=109.555725m. Speed=8.208000m/h.</desc>
<speed>2.280000</speed>
</trkpt>
<trkpt lat="55.943413" lon="26.522448">
<ele>109.772522</ele>
<time>2010-06-20T08:03:05Z</time>
<desc>lat.=55.943413, lon.=26.522448, Alt.=109.772522m. Speed=7.092000m/h.</desc>
<speed>1.970000</speed>
</trkpt>
<trkpt lat="55.943424" lon="26.522484">
<ele>110.049866</ele>
<time>2010-06-20T08:03:06Z</time>
<desc>lat.=55.943424, lon.=26.522484, Alt.=110.049866m. Speed=7.668000m/h.</desc>
<speed>2.130000</speed>
</trkpt>
<trkpt lat="55.943439" lon="26.522516">
<ele>110.194397</ele>
<time>2010-06-20T08:03:07Z</time>
<desc>lat.=55.943439, lon.=26.522516, Alt.=110.194397m. Speed=7.992000m/h.</desc>
<speed>2.220000</speed>
</trkpt>
<trkpt lat="55.943462" lon="26.522543">
<ele>110.557678</ele>
<time>2010-06-20T08:03:08Z</time>
<desc>lat.=55.943462, lon.=26.522543, Alt.=110.557678m. Speed=8.244000m/h.</desc>
<speed>2.290000</speed>
</trkpt>
<trkpt lat="55.943485" lon="26.522577">
<ele>111.006897</ele>
<time>2010-06-20T08:03:09Z</time>
<desc>lat.=55.943485, lon.=26.522577, Alt.=111.006897m. Speed=7.272000m/h.</desc>
<speed>2.020000</speed>
</trkpt>
<trkpt lat="55.943501" lon="26.522604">
<ele>111.311584</ele>
<time>2010-06-20T08:03:10Z</time>
<desc>lat.=55.943501, lon.=26.522604, Alt.=111.311584m. Speed=7.056000m/h.</desc>
<speed>1.960000</speed>
</trkpt>
<trkpt lat="55.943531" lon="26.522627">
<ele>112.487366</ele>
<time>2010-06-20T08:03:11Z</time>
<desc>lat.=55.943531, lon.=26.522627, Alt.=112.487366m. Speed=7.632000m/h.</desc>
<speed>2.120000</speed>
</trkpt>
<trkpt lat="55.943554" lon="26.522654">
<ele>113.051819</ele>
<time>2010-06-20T08:03:12Z</time>
<desc>lat.=55.943554, lon.=26.522654, Alt.=113.051819m. Speed=7.776000m/h.</desc>
<speed>2.160000</speed>
</trkpt>
<trkpt lat="55.943573" lon="26.522682">
<ele>113.196350</ele>
<time>2010-06-20T08:03:13Z</time>
<desc>lat.=55.943573, lon.=26.522682, Alt.=113.196350m. Speed=7.020000m/h.</desc>
<speed>1.950000</speed>
</trkpt>
<trkpt lat="55.943573" lon="26.522717">
<ele>113.344788</ele>
<time>2010-06-20T08:03:14Z</time>
<desc>lat.=55.943573, lon.=26.522717, Alt.=113.344788m. Speed=5.148000m/h.</desc>
<speed>1.430000</speed>
</trkpt>
<trkpt lat="55.943588" lon="26.522738">
<ele>113.424866</ele>
<time>2010-06-20T08:03:15Z</time>
<desc>lat.=55.943588, lon.=26.522738, Alt.=113.424866m. Speed=5.400000m/h.</desc>
<speed>1.500000</speed>
</trkpt>
<trkpt lat="55.943600" lon="26.522762">
<ele>113.626038</ele>
<time>2010-06-20T08:03:16Z</time>
<desc>lat.=55.943600, lon.=26.522762, Alt.=113.626038m. Speed=6.228000m/h.</desc>
<speed>1.730000</speed>
</trkpt>
<trkpt lat="55.943615" lon="26.522783">
<ele>113.897522</ele>
<time>2010-06-20T08:03:17Z</time>
<desc>lat.=55.943615, lon.=26.522783, Alt.=113.897522m. Speed=6.300000m/h.</desc>
<speed>1.750000</speed>
</trkpt>
<trkpt lat="55.943630" lon="26.522800">
<ele>114.198303</ele>
<time>2010-06-20T08:03:18Z</time>
<desc>lat.=55.943630, lon.=26.522800, Alt.=114.198303m. Speed=4.896000m/h.</desc>
<speed>1.360000</speed>
</trkpt>
<trkpt lat="55.943642" lon="26.522821">
<ele>114.456116</ele>
<time>2010-06-20T08:03:19Z</time>
<desc>lat.=55.943642, lon.=26.522821, Alt.=114.456116m. Speed=5.832000m/h.</desc>
<speed>1.620000</speed>
</trkpt>
<trkpt lat="55.943645" lon="26.522865">
<ele>114.635803</ele>
<time>2010-06-20T08:03:20Z</time>
<desc>lat.=55.943645, lon.=26.522865, Alt.=114.635803m. Speed=6.732000m/h.</desc>
<speed>1.870000</speed>
</trkpt>
<trkpt lat="55.943661" lon="26.522886">
<ele>114.594788</ele>
<time>2010-06-20T08:03:21Z</time>
<desc>lat.=55.943661, lon.=26.522886, Alt.=114.594788m. Speed=5.364000m/h.</desc>
<speed>1.490000</speed>
</trkpt>
<trkpt lat="55.943672" lon="26.522915">
<ele>114.811584</ele>
<time>2010-06-20T08:03:22Z</time>
<desc>lat.=55.943672, lon.=26.522915, Alt.=114.811584m. Speed=6.300000m/h.</desc>
<speed>1.750000</speed>
</trkpt>
<trkpt lat="55.943684" lon="26.522936">
<ele>115.210022</ele>
<time>2010-06-20T08:03:23Z</time>
<desc>lat.=55.943684, lon.=26.522936, Alt.=115.210022m. Speed=5.292000m/h.</desc>
<speed>1.470000</speed>
</trkpt>
<trkpt lat="55.943699" lon="26.522964">
<ele>115.592834</ele>
<time>2010-06-20T08:03:24Z</time>
<desc>lat.=55.943699, lon.=26.522964, Alt.=115.592834m. Speed=6.156000m/h.</desc>
<speed>1.710000</speed>
</trkpt>
<trkpt lat="55.943710" lon="26.522989">
<ele>116.018616</ele>
<time>2010-06-20T08:03:25Z</time>
<desc>lat.=55.943710, lon.=26.522989, Alt.=116.018616m. Speed=4.932000m/h.</desc>
<speed>1.370000</speed>
</trkpt>
<trkpt lat="55.943729" lon="26.523027">
<ele>116.633850</ele>
<time>2010-06-20T08:03:26Z</time>
<desc>lat.=55.943729, lon.=26.523027, Alt.=116.633850m. Speed=5.220000m/h.</desc>
<speed>1.450000</speed>
</trkpt>
<trkpt lat="55.943752" lon="26.523064">
<ele>117.012756</ele>
<time>2010-06-20T08:03:27Z</time>
<desc>lat.=55.943752, lon.=26.523064, Alt.=117.012756m. Speed=6.876000m/h.</desc>
<speed>1.910000</speed>
</trkpt>
<trkpt lat="55.943787" lon="26.523117">
<ele>117.069397</ele>
<time>2010-06-20T08:03:28Z</time>
<desc>lat.=55.943787, lon.=26.523117, Alt.=117.069397m. Speed=7.128000m/h.</desc>
<speed>1.980000</speed>
</trkpt>
<trkpt lat="55.943821" lon="26.523165">
<ele>117.182678</ele>
<time>2010-06-20T08:03:29Z</time>
<desc>lat.=55.943821, lon.=26.523165, Alt.=117.182678m. Speed=9.252000m/h.</desc>
<speed>2.570000</speed>
</trkpt>
<trkpt lat="55.943848" lon="26.523199">
<ele>118.778381</ele>
<time>2010-06-20T08:03:30Z</time>
<desc>lat.=55.943848, lon.=26.523199, Alt.=118.778381m. Speed=7.560000m/h.</desc>
<speed>2.100000</speed>
</trkpt>
<trkpt lat="55.943878" lon="26.523239">
<ele>118.444397</ele>
<time>2010-06-20T08:03:31Z</time>
<desc>lat.=55.943878, lon.=26.523239, Alt.=118.444397m. Speed=8.928000m/h.</desc>
<speed>2.480000</speed>
</trkpt>
<trkpt lat="55.943897" lon="26.523283">
<ele>118.635803</ele>
<time>2010-06-20T08:03:32Z</time>
<desc>lat.=55.943897, lon.=26.523283, Alt.=118.635803m. Speed=8.244000m/h.</desc>
<speed>2.290000</speed>
</trkpt>
<trkpt lat="55.943913" lon="26.523314">
<ele>118.710022</ele>
<time>2010-06-20T08:03:33Z</time>
<desc>lat.=55.943913, lon.=26.523314, Alt.=118.710022m. Speed=8.460000m/h.</desc>
<speed>2.350000</speed>
</trkpt>
<trkpt lat="55.943932" lon="26.523350">
<ele>119.032288</ele>
<time>2010-06-20T08:03:34Z</time>
<desc>lat.=55.943932, lon.=26.523350, Alt.=119.032288m. Speed=8.136000m/h.</desc>
<speed>2.260000</speed>
</trkpt>
<trkpt lat="55.943943" lon="26.523396">
<ele>119.227600</ele>
<time>2010-06-20T08:03:35Z</time>
<desc>lat.=55.943943, lon.=26.523396, Alt.=119.227600m. Speed=7.992000m/h.</desc>
<speed>2.220000</speed>
</trkpt>
<trkpt lat="55.943966" lon="26.523455">
<ele>118.825256</ele>
<time>2010-06-20T08:03:36Z</time>
<desc>lat.=55.943966, lon.=26.523455, Alt.=118.825256m. Speed=9.036000m/h.</desc>
<speed>2.510000</speed>
</trkpt>
<trkpt lat="55.943985" lon="26.523512">
<ele>118.797913</ele>
<time>2010-06-20T08:03:37Z</time>
<desc>lat.=55.943985, lon.=26.523512, Alt.=118.797913m. Speed=10.224000m/h.</desc>
<speed>2.840000</speed>
</trkpt>
<trkpt lat="55.944008" lon="26.523556">
<ele>118.993225</ele>
<time>2010-06-20T08:03:38Z</time>
<desc>lat.=55.944008, lon.=26.523556, Alt.=118.993225m. Speed=10.836000m/h.</desc>
<speed>3.010000</speed>
</trkpt>
<trkpt lat="55.944031" lon="26.523598">
<ele>119.358459</ele>
<time>2010-06-20T08:03:39Z</time>
<desc>lat.=55.944031, lon.=26.523598, Alt.=119.358459m. Speed=10.476000m/h.</desc>
<speed>2.910000</speed>
</trkpt>
<trkpt lat="55.944042" lon="26.523647">
<ele>119.758850</ele>
<time>2010-06-20T08:03:40Z</time>
<desc>lat.=55.944042, lon.=26.523647, Alt.=119.758850m. Speed=9.684000m/h.</desc>
<speed>2.690000</speed>
</trkpt>
<trkpt lat="55.944065" lon="26.523689">
<ele>120.254944</ele>
<time>2010-06-20T08:03:41Z</time>
<desc>lat.=55.944065, lon.=26.523689, Alt.=120.254944m. Speed=9.396000m/h.</desc>
<speed>2.610000</speed>
</trkpt>
<trkpt lat="55.944077" lon="26.523735">
<ele>120.473694</ele>
<time>2010-06-20T08:03:42Z</time>
<desc>lat.=55.944077, lon.=26.523735, Alt.=120.473694m. Speed=7.308000m/h.</desc>
<speed>2.030000</speed>
</trkpt>
<trkpt lat="55.944096" lon="26.523764">
<ele>120.915100</ele>
<time>2010-06-20T08:03:43Z</time>
<desc>lat.=55.944096, lon.=26.523764, Alt.=120.915100m. Speed=6.912000m/h.</desc>
<speed>1.920000</speed>
</trkpt>
<trkpt lat="55.944115" lon="26.523796">
<ele>121.026428</ele>
<time>2010-06-20T08:03:44Z</time>
<desc>lat.=55.944115, lon.=26.523796, Alt.=121.026428m. Speed=6.732000m/h.</desc>
<speed>1.870000</speed>
</trkpt>
<trkpt lat="55.944157" lon="26.523853">
<ele>121.819397</ele>
<time>2010-06-20T08:03:45Z</time>
<desc>lat.=55.944157, lon.=26.523853, Alt.=121.819397m. Speed=9.828000m/h.</desc>
<speed>2.730000</speed>
</trkpt>
<trkpt lat="55.944183" lon="26.523890">
<ele>121.368225</ele>
<time>2010-06-20T08:03:46Z</time>
<desc>lat.=55.944183, lon.=26.523890, Alt.=121.368225m. Speed=9.216000m/h.</desc>
<speed>2.560000</speed>
</trkpt>
<trkpt lat="55.944206" lon="26.523964">
<ele>119.202209</ele>
<time>2010-06-20T08:03:47Z</time>
<desc>lat.=55.944206, lon.=26.523964, Alt.=119.202209m. Speed=10.476000m/h.</desc>
<speed>2.910000</speed>
</trkpt>
<trkpt lat="55.944221" lon="26.524004">
<ele>119.028381</ele>
<time>2010-06-20T08:03:48Z</time>
<desc>lat.=55.944221, lon.=26.524004, Alt.=119.028381m. Speed=9.288000m/h.</desc>
<speed>2.580000</speed>
</trkpt>
<trkpt lat="55.944237" lon="26.524042">
<ele>118.950256</ele>
<time>2010-06-20T08:03:49Z</time>
<desc>lat.=55.944237, lon.=26.524042, Alt.=118.950256m. Speed=9.324000m/h.</desc>
<speed>2.590000</speed>
</trkpt>
<trkpt lat="55.944252" lon="26.524080">
<ele>118.860413</ele>
<time>2010-06-20T08:03:50Z</time>
<desc>lat.=55.944252, lon.=26.524080, Alt.=118.860413m. Speed=9.792000m/h.</desc>
<speed>2.720000</speed>
</trkpt>
<trkpt lat="55.944267" lon="26.524113">
<ele>118.772522</ele>
<time>2010-06-20T08:03:51Z</time>
<desc>lat.=55.944267, lon.=26.524113, Alt.=118.772522m. Speed=7.956000m/h.</desc>
<speed>2.210000</speed>
</trkpt>
<trkpt lat="55.944283" lon="26.524143">
<ele>118.891663</ele>
<time>2010-06-20T08:03:52Z</time>
<desc>lat.=55.944283, lon.=26.524143, Alt.=118.891663m. Speed=7.596000m/h.</desc>
<speed>2.110000</speed>
</trkpt>
<trkpt lat="55.944294" lon="26.524174">
<ele>118.965881</ele>
<time>2010-06-20T08:03:53Z</time>
<desc>lat.=55.944294, lon.=26.524174, Alt.=118.965881m. Speed=6.552000m/h.</desc>
<speed>1.820000</speed>
</trkpt>
<trkpt lat="55.944309" lon="26.524200">
<ele>119.135803</ele>
<time>2010-06-20T08:03:54Z</time>
<desc>lat.=55.944309, lon.=26.524200, Alt.=119.135803m. Speed=6.336000m/h.</desc>
<speed>1.760000</speed>
</trkpt>
<trkpt lat="55.944332" lon="26.524223">
<ele>119.499084</ele>
<time>2010-06-20T08:03:55Z</time>
<desc>lat.=55.944332, lon.=26.524223, Alt.=119.499084m. Speed=5.256000m/h.</desc>
<speed>1.460000</speed>
</trkpt>
<trkpt lat="55.944363" lon="26.524229">
<ele>119.639709</ele>
<time>2010-06-20T08:03:56Z</time>
<desc>lat.=55.944363, lon.=26.524229, Alt.=119.639709m. Speed=5.256000m/h.</desc>
<speed>1.460000</speed>
</trkpt>
<trkpt lat="55.944378" lon="26.524250">
<ele>119.602600</ele>
<time>2010-06-20T08:03:57Z</time>
<desc>lat.=55.944378, lon.=26.524250, Alt.=119.602600m. Speed=5.796000m/h.</desc>
<speed>1.610000</speed>
</trkpt>
<trkpt lat="55.944397" lon="26.524273">
<ele>119.586975</ele>
<time>2010-06-20T08:03:58Z</time>
<desc>lat.=55.944397, lon.=26.524273, Alt.=119.586975m. Speed=6.192000m/h.</desc>
<speed>1.720000</speed>
</trkpt>
<trkpt lat="55.944412" lon="26.524294">
<ele>119.669006</ele>
<time>2010-06-20T08:03:59Z</time>
<desc>lat.=55.944412, lon.=26.524294, Alt.=119.669006m. Speed=5.364000m/h.</desc>
<speed>1.490000</speed>
</trkpt>
<trkpt lat="55.944427" lon="26.524334">
<ele>119.831116</ele>
<time>2010-06-20T08:04:00Z</time>
<desc>lat.=55.944427, lon.=26.524334, Alt.=119.831116m. Speed=6.732000m/h.</desc>
<speed>1.870000</speed>
</trkpt>
<trkpt lat="55.944450" lon="26.524364">
<ele>120.030334</ele>
<time>2010-06-20T08:04:01Z</time>
<desc>lat.=55.944450, lon.=26.524364, Alt.=120.030334m. Speed=6.912000m/h.</desc>
<speed>1.920000</speed>
</trkpt>
<trkpt lat="55.944473" lon="26.524389">
<ele>120.225647</ele>
<time>2010-06-20T08:04:02Z</time>
<desc>lat.=55.944473, lon.=26.524389, Alt.=120.225647m. Speed=7.560000m/h.</desc>
<speed>2.100000</speed>
</trkpt>
<trkpt lat="55.944496" lon="26.524429">
<ele>120.442444</ele>
<time>2010-06-20T08:04:03Z</time>
<desc>lat.=55.944496, lon.=26.524429, Alt.=120.442444m. Speed=8.856000m/h.</desc>
<speed>2.460000</speed>
</trkpt>
<trkpt lat="55.944515" lon="26.524460">
<ele>120.618225</ele>
<time>2010-06-20T08:04:04Z</time>
<desc>lat.=55.944515, lon.=26.524460, Alt.=120.618225m. Speed=5.508000m/h.</desc>
<speed>1.530000</speed>
</trkpt>
<trkpt lat="55.944542" lon="26.524492">
<ele>120.831116</ele>
<time>2010-06-20T08:04:05Z</time>
<desc>lat.=55.944542, lon.=26.524492, Alt.=120.831116m. Speed=7.416000m/h.</desc>
<speed>2.060000</speed>
</trkpt>
<trkpt lat="55.944565" lon="26.524523">
<ele>120.969788</ele>
<time>2010-06-20T08:04:06Z</time>
<desc>lat.=55.944565, lon.=26.524523, Alt.=120.969788m. Speed=6.840000m/h.</desc>
<speed>1.900000</speed>
</trkpt>
<trkpt lat="55.944592" lon="26.524549">
<ele>121.079163</ele>
<time>2010-06-20T08:04:07Z</time>
<desc>lat.=55.944592, lon.=26.524549, Alt.=121.079163m. Speed=6.228000m/h.</desc>
<speed>1.730000</speed>
</trkpt>
<trkpt lat="55.944611" lon="26.524572">
<ele>121.159241</ele>
<time>2010-06-20T08:04:08Z</time>
<desc>lat.=55.944611, lon.=26.524572, Alt.=121.159241m. Speed=6.300000m/h.</desc>
<speed>1.750000</speed>
</trkpt>
<trkpt lat="55.944633" lon="26.524605">
<ele>121.211975</ele>
<time>2010-06-20T08:04:09Z</time>
<desc>lat.=55.944633, lon.=26.524605, Alt.=121.211975m. Speed=8.208000m/h.</desc>
<speed>2.280000</speed>
</trkpt>
<trkpt lat="55.944660" lon="26.524651">
<ele>121.440491</ele>
<time>2010-06-20T08:04:10Z</time>
<desc>lat.=55.944660, lon.=26.524651, Alt.=121.440491m. Speed=8.460000m/h.</desc>
<speed>2.350000</speed>
</trkpt>
<trkpt lat="55.944683" lon="26.524681">
<ele>121.696350</ele>
<time>2010-06-20T08:04:11Z</time>
<desc>lat.=55.944683, lon.=26.524681, Alt.=121.696350m. Speed=5.868000m/h.</desc>
<speed>1.630000</speed>
</trkpt>
<trkpt lat="55.944706" lon="26.524706">
<ele>121.920959</ele>
<time>2010-06-20T08:04:12Z</time>
<desc>lat.=55.944706, lon.=26.524706, Alt.=121.920959m. Speed=6.624000m/h.</desc>
<speed>1.840000</speed>
</trkpt>
<trkpt lat="55.944725" lon="26.524729">
<ele>122.106506</ele>
<time>2010-06-20T08:04:13Z</time>
<desc>lat.=55.944725, lon.=26.524729, Alt.=122.106506m. Speed=5.580000m/h.</desc>
<speed>1.550000</speed>
</trkpt>
<trkpt lat="55.944756" lon="26.524752">
<ele>122.186584</ele>
<time>2010-06-20T08:04:14Z</time>
<desc>lat.=55.944756, lon.=26.524752, Alt.=122.186584m. Speed=6.300000m/h.</desc>
<speed>1.750000</speed>
</trkpt>
<trkpt lat="55.944778" lon="26.524776">
<ele>122.444397</ele>
<time>2010-06-20T08:04:15Z</time>
<desc>lat.=55.944778, lon.=26.524776, Alt.=122.444397m. Speed=6.444000m/h.</desc>
<speed>1.790000</speed>
</trkpt>
<trkpt lat="55.944809" lon="26.524797">
<ele>122.653381</ele>
<time>2010-06-20T08:04:16Z</time>
<desc>lat.=55.944809, lon.=26.524797, Alt.=122.653381m. Speed=8.568000m/h.</desc>
<speed>2.380000</speed>
</trkpt>
<trkpt lat="55.944836" lon="26.524830">
<ele>123.034241</ele>
<time>2010-06-20T08:04:17Z</time>
<desc>lat.=55.944836, lon.=26.524830, Alt.=123.034241m. Speed=7.308000m/h.</desc>
<speed>2.030000</speed>
</trkpt>
<trkpt lat="55.944874" lon="26.524874">
<ele>123.272522</ele>
<time>2010-06-20T08:04:18Z</time>
<desc>lat.=55.944874, lon.=26.524874, Alt.=123.272522m. Speed=8.424000m/h.</desc>
<speed>2.340000</speed>
</trkpt>
<trkpt lat="55.944920" lon="26.524929">
<ele>123.305725</ele>
<time>2010-06-20T08:04:19Z</time>
<desc>lat.=55.944920, lon.=26.524929, Alt.=123.305725m. Speed=8.928000m/h.</desc>
<speed>2.480000</speed>
</trkpt>
<trkpt lat="55.944946" lon="26.524963">
<ele>123.510803</ele>
<time>2010-06-20T08:04:20Z</time>
<desc>lat.=55.944946, lon.=26.524963, Alt.=123.510803m. Speed=7.380000m/h.</desc>
<speed>2.050000</speed>
</trkpt>
<trkpt lat="55.944996" lon="26.525015">
<ele>123.274475</ele>
<time>2010-06-20T08:04:21Z</time>
<desc>lat.=55.944996, lon.=26.525015, Alt.=123.274475m. Speed=7.920000m/h.</desc>
<speed>2.200000</speed>
</trkpt>
<trkpt lat="55.945030" lon="26.525032">
<ele>123.422913</ele>
<time>2010-06-20T08:04:22Z</time>
<desc>lat.=55.945030, lon.=26.525032, Alt.=123.422913m. Speed=6.336000m/h.</desc>
<speed>1.760000</speed>
</trkpt>
<trkpt lat="55.945057" lon="26.525055">
<ele>123.627991</ele>
<time>2010-06-20T08:04:23Z</time>
<desc>lat.=55.945057, lon.=26.525055, Alt.=123.627991m. Speed=7.812000m/h.</desc>
<speed>2.170000</speed>
</trkpt>
<trkpt lat="55.945084" lon="26.525087">
<ele>123.737366</ele>
<time>2010-06-20T08:04:24Z</time>
<desc>lat.=55.945084, lon.=26.525087, Alt.=123.737366m. Speed=7.704000m/h.</desc>
<speed>2.140000</speed>
</trkpt>
<trkpt lat="55.945126" lon="26.525112">
<ele>123.502991</ele>
<time>2010-06-20T08:04:25Z</time>
<desc>lat.=55.945126, lon.=26.525112, Alt.=123.502991m. Speed=8.568000m/h.</desc>
<speed>2.380000</speed>
</trkpt>
<trkpt lat="55.945160" lon="26.525131">
<ele>123.772522</ele>
<time>2010-06-20T08:04:26Z</time>
<desc>lat.=55.945160, lon.=26.525131, Alt.=123.772522m. Speed=10.116000m/h.</desc>
<speed>2.810000</speed>
</trkpt>
<trkpt lat="55.945187" lon="26.525154">
<ele>123.852600</ele>
<time>2010-06-20T08:04:27Z</time>
<desc>lat.=55.945187, lon.=26.525154, Alt.=123.852600m. Speed=10.908000m/h.</desc>
<speed>3.030000</speed>
</trkpt>
<trkpt lat="55.945217" lon="26.525173">
<ele>123.899475</ele>
<time>2010-06-20T08:04:28Z</time>
<desc>lat.=55.945217, lon.=26.525173, Alt.=123.899475m. Speed=8.028000m/h.</desc>
<speed>2.230000</speed>
</trkpt>
<trkpt lat="55.945244" lon="26.525190">
<ele>123.999084</ele>
<time>2010-06-20T08:04:29Z</time>
<desc>lat.=55.945244, lon.=26.525190, Alt.=123.999084m. Speed=7.776000m/h.</desc>
<speed>2.160000</speed>
</trkpt>
<trkpt lat="55.945278" lon="26.525206">
<ele>124.202209</ele>
<time>2010-06-20T08:04:30Z</time>
<desc>lat.=55.945278, lon.=26.525206, Alt.=124.202209m. Speed=8.388000m/h.</desc>
<speed>2.330000</speed>
</trkpt>
<trkpt lat="55.945305" lon="26.525242">
<ele>124.424866</ele>
<time>2010-06-20T08:04:31Z</time>
<desc>lat.=55.945305, lon.=26.525242, Alt.=124.424866m. Speed=9.036000m/h.</desc>
<speed>2.510000</speed>
</trkpt>
<trkpt lat="55.945335" lon="26.525274">
<ele>124.786194</ele>
<time>2010-06-20T08:04:32Z</time>
<desc>lat.=55.945335, lon.=26.525274, Alt.=124.786194m. Speed=7.524000m/h.</desc>
<speed>2.090000</speed>
</trkpt>
<trkpt lat="55.945366" lon="26.525314">
<ele>124.358459</ele>
<time>2010-06-20T08:04:33Z</time>
<desc>lat.=55.945366, lon.=26.525314, Alt.=124.358459m. Speed=8.316000m/h.</desc>
<speed>2.310000</speed>
</trkpt>
<trkpt lat="55.945393" lon="26.525349">
<ele>124.547913</ele>
<time>2010-06-20T08:04:34Z</time>
<desc>lat.=55.945393, lon.=26.525349, Alt.=124.547913m. Speed=8.028000m/h.</desc>
<speed>2.230000</speed>
</trkpt>
<trkpt lat="55.945415" lon="26.525381">
<ele>125.002991</ele>
<time>2010-06-20T08:04:35Z</time>
<desc>lat.=55.945415, lon.=26.525381, Alt.=125.002991m. Speed=6.588000m/h.</desc>
<speed>1.830000</speed>
</trkpt>
<trkpt lat="55.945438" lon="26.525429">
<ele>125.491272</ele>
<time>2010-06-20T08:04:36Z</time>
<desc>lat.=55.945438, lon.=26.525429, Alt.=125.491272m. Speed=6.624000m/h.</desc>
<speed>1.840000</speed>
</trkpt>
<trkpt lat="55.945457" lon="26.525459">
<ele>125.784241</ele>
<time>2010-06-20T08:04:37Z</time>
<desc>lat.=55.945457, lon.=26.525459, Alt.=125.784241m. Speed=6.156000m/h.</desc>
<speed>1.710000</speed>
</trkpt>
<trkpt lat="55.945492" lon="26.525494">
<ele>126.258850</ele>
<time>2010-06-20T08:04:38Z</time>
<desc>lat.=55.945492, lon.=26.525494, Alt.=126.258850m. Speed=9.216000m/h.</desc>
<speed>2.560000</speed>
</trkpt>
<trkpt lat="55.945511" lon="26.525518">
<ele>126.659241</ele>
<time>2010-06-20T08:04:39Z</time>
<desc>lat.=55.945511, lon.=26.525518, Alt.=126.659241m. Speed=12.852000m/h.</desc>
<speed>3.570000</speed>
</trkpt>
<trkpt lat="55.945545" lon="26.525549">
<ele>126.911194</ele>
<time>2010-06-20T08:04:40Z</time>
<desc>lat.=55.945545, lon.=26.525549, Alt.=126.911194m. Speed=9.540000m/h.</desc>
<speed>2.650000</speed>
</trkpt>
<trkpt lat="55.945572" lon="26.525568">
<ele>127.303772</ele>
<time>2010-06-20T08:04:41Z</time>
<desc>lat.=55.945572, lon.=26.525568, Alt.=127.303772m. Speed=8.532000m/h.</desc>
<speed>2.370000</speed>
</trkpt>
<trkpt lat="55.945602" lon="26.525589">
<ele>127.815491</ele>
<time>2010-06-20T08:04:42Z</time>
<desc>lat.=55.945602, lon.=26.525589, Alt.=127.815491m. Speed=7.452000m/h.</desc>
<speed>2.070000</speed>
</trkpt>
<trkpt lat="55.945629" lon="26.525621">
<ele>126.889709</ele>
<time>2010-06-20T08:04:43Z</time>
<desc>lat.=55.945629, lon.=26.525621, Alt.=126.889709m. Speed=9.360000m/h.</desc>
<speed>2.600000</speed>
</trkpt>
<trkpt lat="55.945656" lon="26.525654">
<ele>125.917053</ele>
<time>2010-06-20T08:04:44Z</time>
<desc>lat.=55.945656, lon.=26.525654, Alt.=125.917053m. Speed=8.820000m/h.</desc>
<speed>2.450000</speed>
</trkpt>
<trkpt lat="55.945683" lon="26.525679">
<ele>126.254944</ele>
<time>2010-06-20T08:04:45Z</time>
<desc>lat.=55.945683, lon.=26.525679, Alt.=126.254944m. Speed=8.640000m/h.</desc>
<speed>2.400000</speed>
</trkpt>
<trkpt lat="55.945721" lon="26.525703">
<ele>125.710022</ele>
<time>2010-06-20T08:04:46Z</time>
<desc>lat.=55.945721, lon.=26.525703, Alt.=125.710022m. Speed=8.640000m/h.</desc>
<speed>2.400000</speed>
</trkpt>
<trkpt lat="55.945747" lon="26.525732">
<ele>125.612366</ele>
<time>2010-06-20T08:04:47Z</time>
<desc>lat.=55.945747, lon.=26.525732, Alt.=125.612366m. Speed=8.460000m/h.</desc>
<speed>2.350000</speed>
</trkpt>
<trkpt lat="55.945782" lon="26.525757">
<ele>125.573303</ele>
<time>2010-06-20T08:04:48Z</time>
<desc>lat.=55.945782, lon.=26.525757, Alt.=125.573303m. Speed=9.144000m/h.</desc>
<speed>2.540000</speed>
</trkpt>
<trkpt lat="55.945805" lon="26.525782">
<ele>125.747131</ele>
<time>2010-06-20T08:04:49Z</time>
<desc>lat.=55.945805, lon.=26.525782, Alt.=125.747131m. Speed=7.632000m/h.</desc>
<speed>2.120000</speed>
</trkpt>
<trkpt lat="55.945827" lon="26.525806">
<ele>125.522522</ele>
<time>2010-06-20T08:04:50Z</time>
<desc>lat.=55.945827, lon.=26.525806, Alt.=125.522522m. Speed=7.380000m/h.</desc>
<speed>2.050000</speed>
</trkpt>
<trkpt lat="55.945866" lon="26.525839">
<ele>125.129944</ele>
<time>2010-06-20T08:04:51Z</time>
<desc>lat.=55.945866, lon.=26.525839, Alt.=125.129944m. Speed=10.044000m/h.</desc>
<speed>2.790000</speed>
</trkpt>
<trkpt lat="55.945900" lon="26.525879">
<ele>124.901428</ele>
<time>2010-06-20T08:04:52Z</time>
<desc>lat.=55.945900, lon.=26.525879, Alt.=124.901428m. Speed=9.540000m/h.</desc>
<speed>2.650000</speed>
</trkpt>
<trkpt lat="55.945927" lon="26.525906">
<ele>124.936584</ele>
<time>2010-06-20T08:04:53Z</time>
<desc>lat.=55.945927, lon.=26.525906, Alt.=124.936584m. Speed=7.776000m/h.</desc>
<speed>2.160000</speed>
</trkpt>
<trkpt lat="55.945950" lon="26.525936">
<ele>124.989319</ele>
<time>2010-06-20T08:04:54Z</time>
<desc>lat.=55.945950, lon.=26.525936, Alt.=124.989319m. Speed=7.992000m/h.</desc>
<speed>2.220000</speed>
</trkpt>
<trkpt lat="55.945995" lon="26.525972">
<ele>125.131897</ele>
<time>2010-06-20T08:04:55Z</time>
<desc>lat.=55.945995, lon.=26.525972, Alt.=125.131897m. Speed=11.592000m/h.</desc>
<speed>3.220000</speed>
</trkpt>
<trkpt lat="55.946018" lon="26.526001">
<ele>125.198303</ele>
<time>2010-06-20T08:04:56Z</time>
<desc>lat.=55.946018, lon.=26.526001, Alt.=125.198303m. Speed=11.376000m/h.</desc>
<speed>3.160000</speed>
</trkpt>
<trkpt lat="55.946060" lon="26.526045">
<ele>125.305725</ele>
<time>2010-06-20T08:04:57Z</time>
<desc>lat.=55.946060, lon.=26.526045, Alt.=125.305725m. Speed=12.816000m/h.</desc>
<speed>3.560000</speed>
</trkpt>
<trkpt lat="55.946087" lon="26.526094">
<ele>125.672913</ele>
<time>2010-06-20T08:04:58Z</time>
<desc>lat.=55.946087, lon.=26.526094, Alt.=125.672913m. Speed=12.096000m/h.</desc>
<speed>3.360000</speed>
</trkpt>
<trkpt lat="55.946125" lon="26.526131">
<ele>126.057678</ele>
<time>2010-06-20T08:04:59Z</time>
<desc>lat.=55.946125, lon.=26.526131, Alt.=126.057678m. Speed=11.664000m/h.</desc>
<speed>3.240000</speed>
</trkpt>
<trkpt lat="55.946175" lon="26.526175">
<ele>126.926819</ele>
<time>2010-06-20T08:05:00Z</time>
<desc>lat.=55.946175, lon.=26.526175, Alt.=126.926819m. Speed=14.652000m/h.</desc>
<speed>4.070000</speed>
</trkpt>
<trkpt lat="55.946228" lon="26.526203">
<ele>126.891663</ele>
<time>2010-06-20T08:05:01Z</time>
<desc>lat.=55.946228, lon.=26.526203, Alt.=126.891663m. Speed=12.888000m/h.</desc>
<speed>3.580000</speed>
</trkpt>
<trkpt lat="55.946266" lon="26.526251">
<ele>126.786194</ele>
<time>2010-06-20T08:05:02Z</time>
<desc>lat.=55.946266, lon.=26.526251, Alt.=126.786194m. Speed=12.420000m/h.</desc>
<speed>3.450000</speed>
</trkpt>
<trkpt lat="55.946316" lon="26.526314">
<ele>126.739319</ele>
<time>2010-06-20T08:05:03Z</time>
<desc>lat.=55.946316, lon.=26.526314, Alt.=126.739319m. Speed=13.392000m/h.</desc>
<speed>3.720000</speed>
</trkpt>
<trkpt lat="55.946358" lon="26.526361">
<ele>126.973694</ele>
<time>2010-06-20T08:05:04Z</time>
<desc>lat.=55.946358, lon.=26.526361, Alt.=126.973694m. Speed=13.680000m/h.</desc>
<speed>3.800000</speed>
</trkpt>
<trkpt lat="55.946392" lon="26.526396">
<ele>127.053772</ele>
<time>2010-06-20T08:05:05Z</time>
<desc>lat.=55.946392, lon.=26.526396, Alt.=127.053772m. Speed=13.608000m/h.</desc>
<speed>3.780000</speed>
</trkpt>
<trkpt lat="55.946426" lon="26.526442">
<ele>127.202209</ele>
<time>2010-06-20T08:05:06Z</time>
<desc>lat.=55.946426, lon.=26.526442, Alt.=127.202209m. Speed=12.600000m/h.</desc>
<speed>3.500000</speed>
</trkpt>
<trkpt lat="55.946457" lon="26.526487">
<ele>127.063538</ele>
<time>2010-06-20T08:05:07Z</time>
<desc>lat.=55.946457, lon.=26.526487, Alt.=127.063538m. Speed=13.320000m/h.</desc>
<speed>3.700000</speed>
</trkpt>
<trkpt lat="55.946480" lon="26.526535">
<ele>125.958069</ele>
<time>2010-06-20T08:05:08Z</time>
<desc>lat.=55.946480, lon.=26.526535, Alt.=125.958069m. Speed=11.196000m/h.</desc>
<speed>3.110000</speed>
</trkpt>
<trkpt lat="55.946507" lon="26.526577">
<ele>126.044006</ele>
<time>2010-06-20T08:05:09Z</time>
<desc>lat.=55.946507, lon.=26.526577, Alt.=126.044006m. Speed=11.016000m/h.</desc>
<speed>3.060000</speed>
</trkpt>
<trkpt lat="55.946541" lon="26.526615">
<ele>126.081116</ele>
<time>2010-06-20T08:05:10Z</time>
<desc>lat.=55.946541, lon.=26.526615, Alt.=126.081116m. Speed=10.764000m/h.</desc>
<speed>2.990000</speed>
</trkpt>
<trkpt lat="55.946579" lon="26.526646">
<ele>126.106506</ele>
<time>2010-06-20T08:05:11Z</time>
<desc>lat.=55.946579, lon.=26.526646, Alt.=126.106506m. Speed=12.060000m/h.</desc>
<speed>3.350000</speed>
</trkpt>
<trkpt lat="55.946606" lon="26.526669">
<ele>126.340881</ele>
<time>2010-06-20T08:05:12Z</time>
<desc>lat.=55.946606, lon.=26.526669, Alt.=126.340881m. Speed=12.672000m/h.</desc>
<speed>3.520000</speed>
</trkpt>
<trkpt lat="55.946659" lon="26.526703">
<ele>126.004944</ele>
<time>2010-06-20T08:05:13Z</time>
<desc>lat.=55.946659, lon.=26.526703, Alt.=126.004944m. Speed=12.636000m/h.</desc>
<speed>3.510000</speed>
</trkpt>
<trkpt lat="55.946690" lon="26.526737">
<ele>126.081116</ele>
<time>2010-06-20T08:05:14Z</time>
<desc>lat.=55.946690, lon.=26.526737, Alt.=126.081116m. Speed=10.872000m/h.</desc>
<speed>3.020000</speed>
</trkpt>
<trkpt lat="55.946720" lon="26.526777">
<ele>126.155334</ele>
<time>2010-06-20T08:05:15Z</time>
<desc>lat.=55.946720, lon.=26.526777, Alt.=126.155334m. Speed=10.548000m/h.</desc>
<speed>2.930000</speed>
</trkpt>
<trkpt lat="55.946743" lon="26.526829">
<ele>126.034241</ele>
<time>2010-06-20T08:05:16Z</time>
<desc>lat.=55.946743, lon.=26.526829, Alt.=126.034241m. Speed=9.180000m/h.</desc>
<speed>2.550000</speed>
</trkpt>
<trkpt lat="55.946770" lon="26.526869">
<ele>126.229553</ele>
<time>2010-06-20T08:05:17Z</time>
<desc>lat.=55.946770, lon.=26.526869, Alt.=126.229553m. Speed=8.388000m/h.</desc>
<speed>2.330000</speed>
</trkpt>
<trkpt lat="55.946789" lon="26.526968">
<ele>126.126038</ele>
<time>2010-06-20T08:05:18Z</time>
<desc>lat.=55.946789, lon.=26.526968, Alt.=126.126038m. Speed=10.692000m/h.</desc>
<speed>2.970000</speed>
</trkpt>
<trkpt lat="55.946819" lon="26.527016">
<ele>126.118225</ele>
<time>2010-06-20T08:05:19Z</time>
<desc>lat.=55.946819, lon.=26.527016, Alt.=126.118225m. Speed=8.028000m/h.</desc>
<speed>2.230000</speed>
</trkpt>
<trkpt lat="55.946846" lon="26.527050">
<ele>126.424866</ele>
<time>2010-06-20T08:05:20Z</time>
<desc>lat.=55.946846, lon.=26.527050, Alt.=126.424866m. Speed=6.660000m/h.</desc>
<speed>1.850000</speed>
</trkpt>
<trkpt lat="55.946877" lon="26.527081">
<ele>126.305725</ele>
<time>2010-06-20T08:05:21Z</time>
<desc>lat.=55.946877, lon.=26.527081, Alt.=126.305725m. Speed=8.244000m/h.</desc>
<speed>2.290000</speed>
</trkpt>
<trkpt lat="55.946911" lon="26.527149">
<ele>123.690491</ele>
<time>2010-06-20T08:05:22Z</time>
<desc>lat.=55.946911, lon.=26.527149, Alt.=123.690491m. Speed=10.764000m/h.</desc>
<speed>2.990000</speed>
</trkpt>
<trkpt lat="55.946938" lon="26.527185">
<ele>123.897522</ele>
<time>2010-06-20T08:05:23Z</time>
<desc>lat.=55.946938, lon.=26.527185, Alt.=123.897522m. Speed=8.316000m/h.</desc>
<speed>2.310000</speed>
</trkpt>
<trkpt lat="55.946968" lon="26.527229">
<ele>124.256897</ele>
<time>2010-06-20T08:05:24Z</time>
<desc>lat.=55.946968, lon.=26.527229, Alt.=124.256897m. Speed=9.648000m/h.</desc>
<speed>2.680000</speed>
</trkpt>
<trkpt lat="55.946995" lon="26.527262">
<ele>124.504944</ele>
<time>2010-06-20T08:05:25Z</time>
<desc>lat.=55.946995, lon.=26.527262, Alt.=124.504944m. Speed=7.776000m/h.</desc>
<speed>2.160000</speed>
</trkpt>
<trkpt lat="55.947037" lon="26.527288">
<ele>123.739319</ele>
<time>2010-06-20T08:05:26Z</time>
<desc>lat.=55.947037, lon.=26.527288, Alt.=123.739319m. Speed=8.172000m/h.</desc>
<speed>2.270000</speed>
</trkpt>
<trkpt lat="55.947090" lon="26.527319">
<ele>123.629944</ele>
<time>2010-06-20T08:05:27Z</time>
<desc>lat.=55.947090, lon.=26.527319, Alt.=123.629944m. Speed=9.576000m/h.</desc>
<speed>2.660000</speed>
</trkpt>
<trkpt lat="55.947128" lon="26.527367">
<ele>123.815491</ele>
<time>2010-06-20T08:05:28Z</time>
<desc>lat.=55.947128, lon.=26.527367, Alt.=123.815491m. Speed=9.144000m/h.</desc>
<speed>2.540000</speed>
</trkpt>
<trkpt lat="55.947163" lon="26.527407">
<ele>123.307678</ele>
<time>2010-06-20T08:05:29Z</time>
<desc>lat.=55.947163, lon.=26.527407, Alt.=123.307678m. Speed=9.288000m/h.</desc>
<speed>2.580000</speed>
</trkpt>
<trkpt lat="55.947197" lon="26.527447">
<ele>123.389709</ele>
<time>2010-06-20T08:05:30Z</time>
<desc>lat.=55.947197, lon.=26.527447, Alt.=123.389709m. Speed=9.756000m/h.</desc>
<speed>2.710000</speed>
</trkpt>
<trkpt lat="55.947243" lon="26.527473">
<ele>123.499084</ele>
<time>2010-06-20T08:05:31Z</time>
<desc>lat.=55.947243, lon.=26.527473, Alt.=123.499084m. Speed=10.836000m/h.</desc>
<speed>3.010000</speed>
</trkpt>
<trkpt lat="55.947289" lon="26.527498">
<ele>122.544006</ele>
<time>2010-06-20T08:05:32Z</time>
<desc>lat.=55.947289, lon.=26.527498, Alt.=122.544006m. Speed=9.540000m/h.</desc>
<speed>2.650000</speed>
</trkpt>
<trkpt lat="55.947327" lon="26.527552">
<ele>122.534241</ele>
<time>2010-06-20T08:05:33Z</time>
<desc>lat.=55.947327, lon.=26.527552, Alt.=122.534241m. Speed=8.820000m/h.</desc>
<speed>2.450000</speed>
</trkpt>
<trkpt lat="55.947372" lon="26.527582">
<ele>121.776428</ele>
<time>2010-06-20T08:05:34Z</time>
<desc>lat.=55.947372, lon.=26.527582, Alt.=121.776428m. Speed=10.836000m/h.</desc>
<speed>3.010000</speed>
</trkpt>
<trkpt lat="55.947414" lon="26.527611">
<ele>121.542053</ele>
<time>2010-06-20T08:05:35Z</time>
<desc>lat.=55.947414, lon.=26.527611, Alt.=121.542053m. Speed=10.980000m/h.</desc>
<speed>3.050000</speed>
</trkpt>
<trkpt lat="55.947441" lon="26.527632">
<ele>121.563538</ele>
<time>2010-06-20T08:05:36Z</time>
<desc>lat.=55.947441, lon.=26.527632, Alt.=121.563538m. Speed=7.884000m/h.</desc>
<speed>2.190000</speed>
</trkpt>
<trkpt lat="55.947472" lon="26.527637">
<ele>121.438538</ele>
<time>2010-06-20T08:05:37Z</time>
<desc>lat.=55.947472, lon.=26.527637, Alt.=121.438538m. Speed=7.092000m/h.</desc>
<speed>1.970000</speed>
</trkpt>
<trkpt lat="55.947498" lon="26.527651">
<ele>121.467834</ele>
<time>2010-06-20T08:05:38Z</time>
<desc>lat.=55.947498, lon.=26.527651, Alt.=121.467834m. Speed=7.020000m/h.</desc>
<speed>1.950000</speed>
</trkpt>
<trkpt lat="55.947540" lon="26.527664">
<ele>121.112366</ele>
<time>2010-06-20T08:05:39Z</time>
<desc>lat.=55.947540, lon.=26.527664, Alt.=121.112366m. Speed=8.568000m/h.</desc>
<speed>2.380000</speed>
</trkpt>
<trkpt lat="55.947578" lon="26.527678">
<ele>120.969788</ele>
<time>2010-06-20T08:05:40Z</time>
<desc>lat.=55.947578, lon.=26.527678, Alt.=120.969788m. Speed=7.020000m/h.</desc>
<speed>1.950000</speed>
</trkpt>
<trkpt lat="55.947613" lon="26.527700">
<ele>121.147522</ele>
<time>2010-06-20T08:05:41Z</time>
<desc>lat.=55.947613, lon.=26.527700, Alt.=121.147522m. Speed=8.352000m/h.</desc>
<speed>2.320000</speed>
</trkpt>
<trkpt lat="55.947643" lon="26.527729">
<ele>121.151428</ele>
<time>2010-06-20T08:05:42Z</time>
<desc>lat.=55.947643, lon.=26.527729, Alt.=121.151428m. Speed=7.452000m/h.</desc>
<speed>2.070000</speed>
</trkpt>
<trkpt lat="55.947689" lon="26.527796">
<ele>119.461975</ele>
<time>2010-06-20T08:05:43Z</time>
<desc>lat.=55.947689, lon.=26.527796, Alt.=119.461975m. Speed=8.388000m/h.</desc>
<speed>2.330000</speed>
</trkpt>
<trkpt lat="55.947723" lon="26.527840">
<ele>117.751038</ele>
<time>2010-06-20T08:05:44Z</time>
<desc>lat.=55.947723, lon.=26.527840, Alt.=117.751038m. Speed=7.308000m/h.</desc>
<speed>2.030000</speed>
</trkpt>
<trkpt lat="55.947739" lon="26.527864">
<ele>117.752991</ele>
<time>2010-06-20T08:05:45Z</time>
<desc>lat.=55.947739, lon.=26.527864, Alt.=117.752991m. Speed=5.184000m/h.</desc>
<speed>1.440000</speed>
</trkpt>
<trkpt lat="55.947762" lon="26.527891">
<ele>117.963928</ele>
<time>2010-06-20T08:05:46Z</time>
<desc>lat.=55.947762, lon.=26.527891, Alt.=117.963928m. Speed=5.472000m/h.</desc>
<speed>1.520000</speed>
</trkpt>
<trkpt lat="55.947777" lon="26.527922">
<ele>117.698303</ele>
<time>2010-06-20T08:05:47Z</time>
<desc>lat.=55.947777, lon.=26.527922, Alt.=117.698303m. Speed=6.480000m/h.</desc>
<speed>1.800000</speed>
</trkpt>
<trkpt lat="55.947807" lon="26.527939">
<ele>117.497131</ele>
<time>2010-06-20T08:05:48Z</time>
<desc>lat.=55.947807, lon.=26.527939, Alt.=117.497131m. Speed=7.272000m/h.</desc>
<speed>2.020000</speed>
</trkpt>
<trkpt lat="55.947842" lon="26.527964">
<ele>117.395569</ele>
<time>2010-06-20T08:05:49Z</time>
<desc>lat.=55.947842, lon.=26.527964, Alt.=117.395569m. Speed=8.784000m/h.</desc>
<speed>2.440000</speed>
</trkpt>
<trkpt lat="55.947880" lon="26.528040">
<ele>117.383850</ele>
<time>2010-06-20T08:05:50Z</time>
<desc>lat.=55.947880, lon.=26.528040, Alt.=117.383850m. Speed=9.144000m/h.</desc>
<speed>2.540000</speed>
</trkpt>
<trkpt lat="55.947922" lon="26.528088">
<ele>117.534241</ele>
<time>2010-06-20T08:05:51Z</time>
<desc>lat.=55.947922, lon.=26.528088, Alt.=117.534241m. Speed=7.596000m/h.</desc>
<speed>2.110000</speed>
</trkpt>
<trkpt lat="55.947941" lon="26.528124">
<ele>117.374084</ele>
<time>2010-06-20T08:05:52Z</time>
<desc>lat.=55.947941, lon.=26.528124, Alt.=117.374084m. Speed=8.208000m/h.</desc>
<speed>2.280000</speed>
</trkpt>
<trkpt lat="55.947964" lon="26.528158">
<ele>117.708069</ele>
<time>2010-06-20T08:05:53Z</time>
<desc>lat.=55.947964, lon.=26.528158, Alt.=117.708069m. Speed=6.372000m/h.</desc>
<speed>1.770000</speed>
</trkpt>
<trkpt lat="55.947975" lon="26.528177">
<ele>117.717834</ele>
<time>2010-06-20T08:05:54Z</time>
<desc>lat.=55.947975, lon.=26.528177, Alt.=117.717834m. Speed=4.248000m/h.</desc>
<speed>1.180000</speed>
</trkpt>
<trkpt lat="55.947990" lon="26.528206">
<ele>117.883850</ele>
<time>2010-06-20T08:05:55Z</time>
<desc>lat.=55.947990, lon.=26.528206, Alt.=117.883850m. Speed=6.660000m/h.</desc>
<speed>1.850000</speed>
</trkpt>
<trkpt lat="55.948017" lon="26.528229">
<ele>118.364319</ele>
<time>2010-06-20T08:05:56Z</time>
<desc>lat.=55.948017, lon.=26.528229, Alt.=118.364319m. Speed=7.092000m/h.</desc>
<speed>1.970000</speed>
</trkpt>
<trkpt lat="55.948048" lon="26.528269">
<ele>118.534241</ele>
<time>2010-06-20T08:05:57Z</time>
<desc>lat.=55.948048, lon.=26.528269, Alt.=118.534241m. Speed=5.256000m/h.</desc>
<speed>1.460000</speed>
</trkpt>
<trkpt lat="55.948074" lon="26.528309">
<ele>118.235413</ele>
<time>2010-06-20T08:05:58Z</time>
<desc>lat.=55.948074, lon.=26.528309, Alt.=118.235413m. Speed=4.788000m/h.</desc>
<speed>1.330000</speed>
</trkpt>
<trkpt lat="55.948093" lon="26.528330">
<ele>117.985413</ele>
<time>2010-06-20T08:05:59Z</time>
<desc>lat.=55.948093, lon.=26.528330, Alt.=117.985413m. Speed=6.156000m/h.</desc>
<speed>1.710000</speed>
</trkpt>
<trkpt lat="55.948109" lon="26.528347">
<ele>118.026428</ele>
<time>2010-06-20T08:06:00Z</time>
<desc>lat.=55.948109, lon.=26.528347, Alt.=118.026428m. Speed=5.868000m/h.</desc>
<speed>1.630000</speed>
</trkpt>
<trkpt lat="55.948135" lon="26.528364">
<ele>117.872131</ele>
<time>2010-06-20T08:06:01Z</time>
<desc>lat.=55.948135, lon.=26.528364, Alt.=117.872131m. Speed=6.768000m/h.</desc>
<speed>1.880000</speed>
</trkpt>
<trkpt lat="55.948158" lon="26.528381">
<ele>117.684631</ele>
<time>2010-06-20T08:06:02Z</time>
<desc>lat.=55.948158, lon.=26.528381, Alt.=117.684631m. Speed=6.012000m/h.</desc>
<speed>1.670000</speed>
</trkpt>
<trkpt lat="55.948189" lon="26.528402">
<ele>117.483459</ele>
<time>2010-06-20T08:06:03Z</time>
<desc>lat.=55.948189, lon.=26.528402, Alt.=117.483459m. Speed=5.940000m/h.</desc>
<speed>1.650000</speed>
</trkpt>
<trkpt lat="55.948208" lon="26.528418">
<ele>117.391663</ele>
<time>2010-06-20T08:06:04Z</time>
<desc>lat.=55.948208, lon.=26.528418, Alt.=117.391663m. Speed=6.336000m/h.</desc>
<speed>1.760000</speed>
</trkpt>
<trkpt lat="55.948246" lon="26.528454">
<ele>117.085022</ele>
<time>2010-06-20T08:06:05Z</time>
<desc>lat.=55.948246, lon.=26.528454, Alt.=117.085022m. Speed=8.136000m/h.</desc>
<speed>2.260000</speed>
</trkpt>
<trkpt lat="55.948288" lon="26.528475">
<ele>117.194397</ele>
<time>2010-06-20T08:06:06Z</time>
<desc>lat.=55.948288, lon.=26.528475, Alt.=117.194397m. Speed=8.136000m/h.</desc>
<speed>2.260000</speed>
</trkpt>
<trkpt lat="55.948315" lon="26.528528">
<ele>117.626038</ele>
<time>2010-06-20T08:06:07Z</time>
<desc>lat.=55.948315, lon.=26.528528, Alt.=117.626038m. Speed=6.948000m/h.</desc>
<speed>1.930000</speed>
</trkpt>
<trkpt lat="55.948341" lon="26.528576">
<ele>118.006897</ele>
<time>2010-06-20T08:06:08Z</time>
<desc>lat.=55.948341, lon.=26.528576, Alt.=118.006897m. Speed=6.480000m/h.</desc>
<speed>1.800000</speed>
</trkpt>
<trkpt lat="55.948364" lon="26.528612">
<ele>118.225647</ele>
<time>2010-06-20T08:06:09Z</time>
<desc>lat.=55.948364, lon.=26.528612, Alt.=118.225647m. Speed=8.172000m/h.</desc>
<speed>2.270000</speed>
</trkpt>
<trkpt lat="55.948395" lon="26.528641">
<ele>118.737366</ele>
<time>2010-06-20T08:06:10Z</time>
<desc>lat.=55.948395, lon.=26.528641, Alt.=118.737366m. Speed=7.200000m/h.</desc>
<speed>2.000000</speed>
</trkpt>
<trkpt lat="55.948414" lon="26.528687">
<ele>118.420959</ele>
<time>2010-06-20T08:06:11Z</time>
<desc>lat.=55.948414, lon.=26.528687, Alt.=118.420959m. Speed=8.280000m/h.</desc>
<speed>2.300000</speed>
</trkpt>
<trkpt lat="55.948444" lon="26.528727">
<ele>119.002991</ele>
<time>2010-06-20T08:06:12Z</time>
<desc>lat.=55.948444, lon.=26.528727, Alt.=119.002991m. Speed=8.352000m/h.</desc>
<speed>2.320000</speed>
</trkpt>
<trkpt lat="55.948475" lon="26.528769">
<ele>119.145569</ele>
<time>2010-06-20T08:06:13Z</time>
<desc>lat.=55.948475, lon.=26.528769, Alt.=119.145569m. Speed=8.424000m/h.</desc>
<speed>2.340000</speed>
</trkpt>
<trkpt lat="55.948494" lon="26.528803">
<ele>119.295959</ele>
<time>2010-06-20T08:06:14Z</time>
<desc>lat.=55.948494, lon.=26.528803, Alt.=119.295959m. Speed=7.452000m/h.</desc>
<speed>2.070000</speed>
</trkpt>
<trkpt lat="55.948517" lon="26.528843">
<ele>119.549866</ele>
<time>2010-06-20T08:06:15Z</time>
<desc>lat.=55.948517, lon.=26.528843, Alt.=119.549866m. Speed=7.236000m/h.</desc>
<speed>2.010000</speed>
</trkpt>
<trkpt lat="55.948544" lon="26.528885">
<ele>119.600647</ele>
<time>2010-06-20T08:06:16Z</time>
<desc>lat.=55.948544, lon.=26.528885, Alt.=119.600647m. Speed=9.324000m/h.</desc>
<speed>2.590000</speed>
</trkpt>
<trkpt lat="55.948582" lon="26.528946">
<ele>118.295959</ele>
<time>2010-06-20T08:06:17Z</time>
<desc>lat.=55.948582, lon.=26.528946, Alt.=118.295959m. Speed=10.332000m/h.</desc>
<speed>2.870000</speed>
</trkpt>
<trkpt lat="55.948601" lon="26.528990">
<ele>118.133850</ele>
<time>2010-06-20T08:06:18Z</time>
<desc>lat.=55.948601, lon.=26.528990, Alt.=118.133850m. Speed=9.720000m/h.</desc>
<speed>2.700000</speed>
</trkpt>
<trkpt lat="55.948643" lon="26.529051">
<ele>118.192444</ele>
<time>2010-06-20T08:06:19Z</time>
<desc>lat.=55.948643, lon.=26.529051, Alt.=118.192444m. Speed=10.368000m/h.</desc>
<speed>2.880000</speed>
</trkpt>
<trkpt lat="55.948669" lon="26.529108">
<ele>118.356506</ele>
<time>2010-06-20T08:06:20Z</time>
<desc>lat.=55.948669, lon.=26.529108, Alt.=118.356506m. Speed=10.260000m/h.</desc>
<speed>2.850000</speed>
</trkpt>
<trkpt lat="55.948685" lon="26.529148">
<ele>118.120178</ele>
<time>2010-06-20T08:06:21Z</time>
<desc>lat.=55.948685, lon.=26.529148, Alt.=118.120178m. Speed=7.128000m/h.</desc>
<speed>1.980000</speed>
</trkpt>
<trkpt lat="55.948704" lon="26.529188">
<ele>118.127991</ele>
<time>2010-06-20T08:06:22Z</time>
<desc>lat.=55.948704, lon.=26.529188, Alt.=118.127991m. Speed=10.224000m/h.</desc>
<speed>2.840000</speed>
</trkpt>
<trkpt lat="55.948715" lon="26.529226">
<ele>117.987366</ele>
<time>2010-06-20T08:06:23Z</time>
<desc>lat.=55.948715, lon.=26.529226, Alt.=117.987366m. Speed=7.056000m/h.</desc>
<speed>1.960000</speed>
</trkpt>
<trkpt lat="55.948738" lon="26.529272">
<ele>117.321350</ele>
<time>2010-06-20T08:06:24Z</time>
<desc>lat.=55.948738, lon.=26.529272, Alt.=117.321350m. Speed=8.604000m/h.</desc>
<speed>2.390000</speed>
</trkpt>
<trkpt lat="55.948761" lon="26.529318">
<ele>117.977600</ele>
<time>2010-06-20T08:06:25Z</time>
<desc>lat.=55.948761, lon.=26.529318, Alt.=117.977600m. Speed=8.928000m/h.</desc>
<speed>2.480000</speed>
</trkpt>
<trkpt lat="55.948784" lon="26.529358">
<ele>117.756897</ele>
<time>2010-06-20T08:06:26Z</time>
<desc>lat.=55.948784, lon.=26.529358, Alt.=117.756897m. Speed=7.128000m/h.</desc>
<speed>1.980000</speed>
</trkpt>
<trkpt lat="55.948788" lon="26.529394">
<ele>117.749084</ele>
<time>2010-06-20T08:06:27Z</time>
<desc>lat.=55.948788, lon.=26.529394, Alt.=117.749084m. Speed=2.880000m/h.</desc>
<speed>0.800000</speed>
</trkpt>
<trkpt lat="55.948792" lon="26.529419">
<ele>117.948303</ele>
<time>2010-06-20T08:06:28Z</time>
<desc>lat.=55.948792, lon.=26.529419, Alt.=117.948303m. Speed=3.168000m/h.</desc>
<speed>0.880000</speed>
</trkpt>
<trkpt lat="55.948799" lon="26.529451">
<ele>118.335022</ele>
<time>2010-06-20T08:06:29Z</time>
<desc>lat.=55.948799, lon.=26.529451, Alt.=118.335022m. Speed=6.192000m/h.</desc>
<speed>1.720000</speed>
</trkpt>
<trkpt lat="55.948795" lon="26.529484">
<ele>118.518616</ele>
<time>2010-06-20T08:06:30Z</time>
<desc>lat.=55.948795, lon.=26.529484, Alt.=118.518616m. Speed=3.852000m/h.</desc>
<speed>1.070000</speed>
</trkpt>
<trkpt lat="55.948803" lon="26.529505">
<ele>118.530334</ele>
<time>2010-06-20T08:06:31Z</time>
<desc>lat.=55.948803, lon.=26.529505, Alt.=118.530334m. Speed=4.356000m/h.</desc>
<speed>1.210000</speed>
</trkpt>
<trkpt lat="55.948807" lon="26.529531">
<ele>118.313538</ele>
<time>2010-06-20T08:06:32Z</time>
<desc>lat.=55.948807, lon.=26.529531, Alt.=118.313538m. Speed=7.128000m/h.</desc>
<speed>1.980000</speed>
</trkpt>
<trkpt lat="55.948818" lon="26.529568">
<ele>116.924866</ele>
<time>2010-06-20T08:06:33Z</time>
<desc>lat.=55.948818, lon.=26.529568, Alt.=116.924866m. Speed=6.408000m/h.</desc>
<speed>1.780000</speed>
</trkpt>
<trkpt lat="55.948845" lon="26.529625">
<ele>116.526428</ele>
<time>2010-06-20T08:06:34Z</time>
<desc>lat.=55.948845, lon.=26.529625, Alt.=116.526428m. Speed=5.832000m/h.</desc>
<speed>1.620000</speed>
</trkpt>
<trkpt lat="55.948875" lon="26.529676">
<ele>115.624084</ele>
<time>2010-06-20T08:06:35Z</time>
<desc>lat.=55.948875, lon.=26.529676, Alt.=115.624084m. Speed=7.452000m/h.</desc>
<speed>2.070000</speed>
</trkpt>
<trkpt lat="55.948898" lon="26.529726">
<ele>115.235413</ele>
<time>2010-06-20T08:06:36Z</time>
<desc>lat.=55.948898, lon.=26.529726, Alt.=115.235413m. Speed=8.100000m/h.</desc>
<speed>2.250000</speed>
</trkpt>
<trkpt lat="55.948929" lon="26.529774">
<ele>114.752991</ele>
<time>2010-06-20T08:06:37Z</time>
<desc>lat.=55.948929, lon.=26.529774, Alt.=114.752991m. Speed=10.836000m/h.</desc>
<speed>3.010000</speed>
</trkpt>
<trkpt lat="55.948956" lon="26.529825">
<ele>114.387756</ele>
<time>2010-06-20T08:06:38Z</time>
<desc>lat.=55.948956, lon.=26.529825, Alt.=114.387756m. Speed=8.856000m/h.</desc>
<speed>2.460000</speed>
</trkpt>
<trkpt lat="55.948971" lon="26.529858">
<ele>113.641663</ele>
<time>2010-06-20T08:06:39Z</time>
<desc>lat.=55.948971, lon.=26.529858, Alt.=113.641663m. Speed=6.696000m/h.</desc>
<speed>1.860000</speed>
</trkpt>
<trkpt lat="55.948990" lon="26.529905">
<ele>113.288147</ele>
<time>2010-06-20T08:06:40Z</time>
<desc>lat.=55.948990, lon.=26.529905, Alt.=113.288147m. Speed=8.100000m/h.</desc>
<speed>2.250000</speed>
</trkpt>
<trkpt lat="55.949001" lon="26.529938">
<ele>113.415100</ele>
<time>2010-06-20T08:06:41Z</time>
<desc>lat.=55.949001, lon.=26.529938, Alt.=113.415100m. Speed=6.624000m/h.</desc>
<speed>1.840000</speed>
</trkpt>
<trkpt lat="55.949009" lon="26.529964">
<ele>112.518616</ele>
<time>2010-06-20T08:06:42Z</time>
<desc>lat.=55.949009, lon.=26.529964, Alt.=112.518616m. Speed=5.508000m/h.</desc>
<speed>1.530000</speed>
</trkpt>
<trkpt lat="55.949032" lon="26.529999">
<ele>111.635803</ele>
<time>2010-06-20T08:06:43Z</time>
<desc>lat.=55.949032, lon.=26.529999, Alt.=111.635803m. Speed=6.732000m/h.</desc>
<speed>1.870000</speed>
</trkpt>
<trkpt lat="55.949062" lon="26.530045">
<ele>111.184631</ele>
<time>2010-06-20T08:06:44Z</time>
<desc>lat.=55.949062, lon.=26.530045, Alt.=111.184631m. Speed=8.820000m/h.</desc>
<speed>2.450000</speed>
</trkpt>
<trkpt lat="55.949089" lon="26.530087">
<ele>110.774475</ele>
<time>2010-06-20T08:06:45Z</time>
<desc>lat.=55.949089, lon.=26.530087, Alt.=110.774475m. Speed=9.324000m/h.</desc>
<speed>2.590000</speed>
</trkpt>
<trkpt lat="55.949104" lon="26.530130">
<ele>109.821350</ele>
<time>2010-06-20T08:06:46Z</time>
<desc>lat.=55.949104, lon.=26.530130, Alt.=109.821350m. Speed=7.812000m/h.</desc>
<speed>2.170000</speed>
</trkpt>
<trkpt lat="55.949131" lon="26.530174">
<ele>109.075256</ele>
<time>2010-06-20T08:06:47Z</time>
<desc>lat.=55.949131, lon.=26.530174, Alt.=109.075256m. Speed=7.524000m/h.</desc>
<speed>2.090000</speed>
</trkpt>
<trkpt lat="55.949146" lon="26.530210">
<ele>108.504944</ele>
<time>2010-06-20T08:06:48Z</time>
<desc>lat.=55.949146, lon.=26.530210, Alt.=108.504944m. Speed=7.416000m/h.</desc>
<speed>2.060000</speed>
</trkpt>
<trkpt lat="55.949169" lon="26.530247">
<ele>107.881897</ele>
<time>2010-06-20T08:06:49Z</time>
<desc>lat.=55.949169, lon.=26.530247, Alt.=107.881897m. Speed=8.352000m/h.</desc>
<speed>2.320000</speed>
</trkpt>
<trkpt lat="55.949207" lon="26.530275">
<ele>107.581116</ele>
<time>2010-06-20T08:06:50Z</time>
<desc>lat.=55.949207, lon.=26.530275, Alt.=107.581116m. Speed=9.504000m/h.</desc>
<speed>2.640000</speed>
</trkpt>
<trkpt lat="55.949238" lon="26.530302">
<ele>107.932678</ele>
<time>2010-06-20T08:06:51Z</time>
<desc>lat.=55.949238, lon.=26.530302, Alt.=107.932678m. Speed=9.900000m/h.</desc>
<speed>2.750000</speed>
</trkpt>
<trkpt lat="55.949253" lon="26.530348">
<ele>107.508850</ele>
<time>2010-06-20T08:06:52Z</time>
<desc>lat.=55.949253, lon.=26.530348, Alt.=107.508850m. Speed=8.640000m/h.</desc>
<speed>2.400000</speed>
</trkpt>
<trkpt lat="55.949265" lon="26.530390">
<ele>106.868225</ele>
<time>2010-06-20T08:06:53Z</time>
<desc>lat.=55.949265, lon.=26.530390, Alt.=106.868225m. Speed=8.784000m/h.</desc>
<speed>2.440000</speed>
</trkpt>
<trkpt lat="55.949272" lon="26.530453">
<ele>106.188538</ele>
<time>2010-06-20T08:06:54Z</time>
<desc>lat.=55.949272, lon.=26.530453, Alt.=106.188538m. Speed=8.064000m/h.</desc>
<speed>2.240000</speed>
</trkpt>
<trkpt lat="55.949287" lon="26.530489">
<ele>105.307678</ele>
<time>2010-06-20T08:06:55Z</time>
<desc>lat.=55.949287, lon.=26.530489, Alt.=105.307678m. Speed=6.948000m/h.</desc>
<speed>1.930000</speed>
</trkpt>
<trkpt lat="55.949295" lon="26.530516">
<ele>104.051819</ele>
<time>2010-06-20T08:06:56Z</time>
<desc>lat.=55.949295, lon.=26.530516, Alt.=104.051819m. Speed=6.552000m/h.</desc>
<speed>1.820000</speed>
</trkpt>
<trkpt lat="55.949310" lon="26.530544">
<ele>103.213928</ele>
<time>2010-06-20T08:06:57Z</time>
<desc>lat.=55.949310, lon.=26.530544, Alt.=103.213928m. Speed=6.696000m/h.</desc>
<speed>1.860000</speed>
</trkpt>
<trkpt lat="55.949326" lon="26.530573">
<ele>102.157288</ele>
<time>2010-06-20T08:06:58Z</time>
<desc>lat.=55.949326, lon.=26.530573, Alt.=102.157288m. Speed=7.308000m/h.</desc>
<speed>2.030000</speed>
</trkpt>
<trkpt lat="55.949333" lon="26.530603">
<ele>101.631897</ele>
<time>2010-06-20T08:06:59Z</time>
<desc>lat.=55.949333, lon.=26.530603, Alt.=101.631897m. Speed=7.344000m/h.</desc>
<speed>2.040000</speed>
</trkpt>
<trkpt lat="55.949337" lon="26.530632">
<ele>100.795959</ele>
<time>2010-06-20T08:07:00Z</time>
<desc>lat.=55.949337, lon.=26.530632, Alt.=100.795959m. Speed=4.932000m/h.</desc>
<speed>1.370000</speed>
</trkpt>
<trkpt lat="55.949341" lon="26.530664">
<ele>97.983459</ele>
<time>2010-06-20T08:07:01Z</time>
<desc>lat.=55.949341, lon.=26.530664, Alt.=97.983459m. Speed=6.372000m/h.</desc>
<speed>1.770000</speed>
</trkpt>
<trkpt lat="55.949345" lon="26.530695">
<ele>97.467834</ele>
<time>2010-06-20T08:07:02Z</time>
<desc>lat.=55.949345, lon.=26.530695, Alt.=97.467834m. Speed=6.192000m/h.</desc>
<speed>1.720000</speed>
</trkpt>
<trkpt lat="55.949356" lon="26.530716">
<ele>97.067444</ele>
<time>2010-06-20T08:07:03Z</time>
<desc>lat.=55.949356, lon.=26.530716, Alt.=97.067444m. Speed=6.516000m/h.</desc>
<speed>1.810000</speed>
</trkpt>
<trkpt lat="55.949375" lon="26.530743">
<ele>96.524475</ele>
<time>2010-06-20T08:07:04Z</time>
<desc>lat.=55.949375, lon.=26.530743, Alt.=96.524475m. Speed=7.416000m/h.</desc>
<speed>2.060000</speed>
</trkpt>
<trkpt lat="55.949390" lon="26.530777">
<ele>95.840881</ele>
<time>2010-06-20T08:07:05Z</time>
<desc>lat.=55.949390, lon.=26.530777, Alt.=95.840881m. Speed=10.224000m/h.</desc>
<speed>2.840000</speed>
</trkpt>
<trkpt lat="55.949413" lon="26.530804">
<ele>95.170959</ele>
<time>2010-06-20T08:07:06Z</time>
<desc>lat.=55.949413, lon.=26.530804, Alt.=95.170959m. Speed=8.532000m/h.</desc>
<speed>2.370000</speed>
</trkpt>
<trkpt lat="55.949432" lon="26.530825">
<ele>94.215881</ele>
<time>2010-06-20T08:07:07Z</time>
<desc>lat.=55.949432, lon.=26.530825, Alt.=94.215881m. Speed=7.056000m/h.</desc>
<speed>1.960000</speed>
</trkpt>
<trkpt lat="55.949409" lon="26.530931">
<ele>95.690491</ele>
<time>2010-06-20T08:07:08Z</time>
<desc>lat.=55.949409, lon.=26.530931, Alt.=95.690491m. Speed=4.968000m/h.</desc>
<speed>1.380000</speed>
</trkpt>
<trkpt lat="55.949421" lon="26.530960">
<ele>94.688538</ele>
<time>2010-06-20T08:07:09Z</time>
<desc>lat.=55.949421, lon.=26.530960, Alt.=94.688538m. Speed=5.652000m/h.</desc>
<speed>1.570000</speed>
</trkpt>
<trkpt lat="55.949429" lon="26.530977">
<ele>94.034241</ele>
<time>2010-06-20T08:07:10Z</time>
<desc>lat.=55.949429, lon.=26.530977, Alt.=94.034241m. Speed=4.896000m/h.</desc>
<speed>1.360000</speed>
</trkpt>
<trkpt lat="55.949448" lon="26.530993">
<ele>93.526428</ele>
<time>2010-06-20T08:07:11Z</time>
<desc>lat.=55.949448, lon.=26.530993, Alt.=93.526428m. Speed=6.516000m/h.</desc>
<speed>1.810000</speed>
</trkpt>
<trkpt lat="55.949455" lon="26.531029">
<ele>93.780334</ele>
<time>2010-06-20T08:07:12Z</time>
<desc>lat.=55.949455, lon.=26.531029, Alt.=93.780334m. Speed=6.552000m/h.</desc>
<speed>1.820000</speed>
</trkpt>
<trkpt lat="55.949467" lon="26.531094">
<ele>93.549866</ele>
<time>2010-06-20T08:07:13Z</time>
<desc>lat.=55.949467, lon.=26.531094, Alt.=93.549866m. Speed=5.940000m/h.</desc>
<speed>1.650000</speed>
</trkpt>
<trkpt lat="55.949482" lon="26.531134">
<ele>93.667053</ele>
<time>2010-06-20T08:07:14Z</time>
<desc>lat.=55.949482, lon.=26.531134, Alt.=93.667053m. Speed=4.428000m/h.</desc>
<speed>1.230000</speed>
</trkpt>
<trkpt lat="55.949490" lon="26.531166">
<ele>93.258850</ele>
<time>2010-06-20T08:07:15Z</time>
<desc>lat.=55.949490, lon.=26.531166, Alt.=93.258850m. Speed=3.708000m/h.</desc>
<speed>1.030000</speed>
</trkpt>
<trkpt lat="55.949512" lon="26.531210">
<ele>92.542053</ele>
<time>2010-06-20T08:07:16Z</time>
<desc>lat.=55.949512, lon.=26.531210, Alt.=92.542053m. Speed=6.480000m/h.</desc>
<speed>1.800000</speed>
</trkpt>
<trkpt lat="55.949535" lon="26.531231">
<ele>92.299866</ele>
<time>2010-06-20T08:07:17Z</time>
<desc>lat.=55.949535, lon.=26.531231, Alt.=92.299866m. Speed=5.868000m/h.</desc>
<speed>1.630000</speed>
</trkpt>
<trkpt lat="55.949577" lon="26.531286">
<ele>90.735413</ele>
<time>2010-06-20T08:07:18Z</time>
<desc>lat.=55.949577, lon.=26.531286, Alt.=90.735413m. Speed=8.424000m/h.</desc>
<speed>2.340000</speed>
</trkpt>
<trkpt lat="55.949623" lon="26.531355">
<ele>89.430725</ele>
<time>2010-06-20T08:07:19Z</time>
<desc>lat.=55.949623, lon.=26.531355, Alt.=89.430725m. Speed=8.460000m/h.</desc>
<speed>2.350000</speed>
</trkpt>
<trkpt lat="55.949657" lon="26.531410">
<ele>88.397522</ele>
<time>2010-06-20T08:07:20Z</time>
<desc>lat.=55.949657, lon.=26.531410, Alt.=88.397522m. Speed=8.136000m/h.</desc>
<speed>2.260000</speed>
</trkpt>
<trkpt lat="55.949692" lon="26.531439">
<ele>87.770569</ele>
<time>2010-06-20T08:07:21Z</time>
<desc>lat.=55.949692, lon.=26.531439, Alt.=87.770569m. Speed=8.388000m/h.</desc>
<speed>2.330000</speed>
</trkpt>
<trkpt lat="55.949722" lon="26.531458">
<ele>87.571350</ele>
<time>2010-06-20T08:07:22Z</time>
<desc>lat.=55.949722, lon.=26.531458, Alt.=87.571350m. Speed=5.220000m/h.</desc>
<speed>1.450000</speed>
</trkpt>
<trkpt lat="55.949738" lon="26.531471">
<ele>86.752991</ele>
<time>2010-06-20T08:07:23Z</time>
<desc>lat.=55.949738, lon.=26.531471, Alt.=86.752991m. Speed=5.976000m/h.</desc>
<speed>1.660000</speed>
</trkpt>
<trkpt lat="55.949760" lon="26.531477">
<ele>87.055725</ele>
<time>2010-06-20T08:07:24Z</time>
<desc>lat.=55.949760, lon.=26.531477, Alt.=87.055725m. Speed=6.588000m/h.</desc>
<speed>1.830000</speed>
</trkpt>
<trkpt lat="55.949795" lon="26.531492">
<ele>86.975647</ele>
<time>2010-06-20T08:07:25Z</time>
<desc>lat.=55.949795, lon.=26.531492, Alt.=86.975647m. Speed=5.400000m/h.</desc>
<speed>1.500000</speed>
</trkpt>
<trkpt lat="55.949821" lon="26.531492">
<ele>88.206116</ele>
<time>2010-06-20T08:07:26Z</time>
<desc>lat.=55.949821, lon.=26.531492, Alt.=88.206116m. Speed=7.380000m/h.</desc>
<speed>2.050000</speed>
</trkpt>
<trkpt lat="55.949841" lon="26.531504">
<ele>87.596741</ele>
<time>2010-06-20T08:07:27Z</time>
<desc>lat.=55.949841, lon.=26.531504, Alt.=87.596741m. Speed=6.768000m/h.</desc>
<speed>1.880000</speed>
</trkpt>
<trkpt lat="55.949879" lon="26.531527">
<ele>87.481506</ele>
<time>2010-06-20T08:07:28Z</time>
<desc>lat.=55.949879, lon.=26.531527, Alt.=87.481506m. Speed=5.904000m/h.</desc>
<speed>1.640000</speed>
</trkpt>
<trkpt lat="55.949902" lon="26.531534">
<ele>86.604553</ele>
<time>2010-06-20T08:07:29Z</time>
<desc>lat.=55.949902, lon.=26.531534, Alt.=86.604553m. Speed=3.528000m/h.</desc>
<speed>0.980000</speed>
</trkpt>
<trkpt lat="55.949921" lon="26.531544">
<ele>86.598694</ele>
<time>2010-06-20T08:07:30Z</time>
<desc>lat.=55.949921, lon.=26.531544, Alt.=86.598694m. Speed=4.320000m/h.</desc>
<speed>1.200000</speed>
</trkpt>
<trkpt lat="55.949947" lon="26.531553">
<ele>86.788147</ele>
<time>2010-06-20T08:07:31Z</time>
<desc>lat.=55.949947, lon.=26.531553, Alt.=86.788147m. Speed=6.192000m/h.</desc>
<speed>1.720000</speed>
</trkpt>
<trkpt lat="55.949989" lon="26.531574">
<ele>88.297913</ele>
<time>2010-06-20T08:07:32Z</time>
<desc>lat.=55.949989, lon.=26.531574, Alt.=88.297913m. Speed=5.328000m/h.</desc>
<speed>1.480000</speed>
</trkpt>
<trkpt lat="55.950012" lon="26.531580">
<ele>88.335022</ele>
<time>2010-06-20T08:07:33Z</time>
<desc>lat.=55.950012, lon.=26.531580, Alt.=88.335022m. Speed=6.120000m/h.</desc>
<speed>1.700000</speed>
</trkpt>
<trkpt lat="55.950047" lon="26.531580">
<ele>87.112366</ele>
<time>2010-06-20T08:07:34Z</time>
<desc>lat.=55.950047, lon.=26.531580, Alt.=87.112366m. Speed=6.876000m/h.</desc>
<speed>1.910000</speed>
</trkpt>
<trkpt lat="55.950073" lon="26.531588">
<ele>86.887756</ele>
<time>2010-06-20T08:07:35Z</time>
<desc>lat.=55.950073, lon.=26.531588, Alt.=86.887756m. Speed=7.092000m/h.</desc>
<speed>1.970000</speed>
</trkpt>
<trkpt lat="55.950104" lon="26.531591">
<ele>85.249084</ele>
<time>2010-06-20T08:07:36Z</time>
<desc>lat.=55.950104, lon.=26.531591, Alt.=85.249084m. Speed=5.868000m/h.</desc>
<speed>1.630000</speed>
</trkpt>
<trkpt lat="55.950134" lon="26.531597">
<ele>84.159241</ele>
<time>2010-06-20T08:07:37Z</time>
<desc>lat.=55.950134, lon.=26.531597, Alt.=84.159241m. Speed=8.748000m/h.</desc>
<speed>2.430000</speed>
</trkpt>
<trkpt lat="55.950161" lon="26.531601">
<ele>83.946350</ele>
<time>2010-06-20T08:07:38Z</time>
<desc>lat.=55.950161, lon.=26.531601, Alt.=83.946350m. Speed=8.784000m/h.</desc>
<speed>2.440000</speed>
</trkpt>
<trkpt lat="55.950222" lon="26.531624">
<ele>83.965881</ele>
<time>2010-06-20T08:07:39Z</time>
<desc>lat.=55.950222, lon.=26.531624, Alt.=83.965881m. Speed=8.712000m/h.</desc>
<speed>2.420000</speed>
</trkpt>
<trkpt lat="55.950260" lon="26.531635">
<ele>84.321350</ele>
<time>2010-06-20T08:07:40Z</time>
<desc>lat.=55.950260, lon.=26.531635, Alt.=84.321350m. Speed=9.180000m/h.</desc>
<speed>2.550000</speed>
</trkpt>
<trkpt lat="55.950321" lon="26.531677">
<ele>86.081116</ele>
<time>2010-06-20T08:07:41Z</time>
<desc>lat.=55.950321, lon.=26.531677, Alt.=86.081116m. Speed=7.524000m/h.</desc>
<speed>2.090000</speed>
</trkpt>
<trkpt lat="55.950367" lon="26.531700">
<ele>86.323303</ele>
<time>2010-06-20T08:07:42Z</time>
<desc>lat.=55.950367, lon.=26.531700, Alt.=86.323303m. Speed=7.200000m/h.</desc>
<speed>2.000000</speed>
</trkpt>
<trkpt lat="55.950417" lon="26.531715">
<ele>88.594788</ele>
<time>2010-06-20T08:07:43Z</time>
<desc>lat.=55.950417, lon.=26.531715, Alt.=88.594788m. Speed=7.092000m/h.</desc>
<speed>1.970000</speed>
</trkpt>
<trkpt lat="55.950451" lon="26.531731">
<ele>88.592834</ele>
<time>2010-06-20T08:07:44Z</time>
<desc>lat.=55.950451, lon.=26.531731, Alt.=88.592834m. Speed=8.028000m/h.</desc>
<speed>2.230000</speed>
</trkpt>
<trkpt lat="55.950489" lon="26.531757">
<ele>87.819397</ele>
<time>2010-06-20T08:07:45Z</time>
<desc>lat.=55.950489, lon.=26.531757, Alt.=87.819397m. Speed=7.560000m/h.</desc>
<speed>2.100000</speed>
</trkpt>
<trkpt lat="55.950531" lon="26.531767">
<ele>88.948303</ele>
<time>2010-06-20T08:07:46Z</time>
<desc>lat.=55.950531, lon.=26.531767, Alt.=88.948303m. Speed=6.696000m/h.</desc>
<speed>1.860000</speed>
</trkpt>
<trkpt lat="55.950554" lon="26.531775">
<ele>88.208069</ele>
<time>2010-06-20T08:07:47Z</time>
<desc>lat.=55.950554, lon.=26.531775, Alt.=88.208069m. Speed=10.224000m/h.</desc>
<speed>2.840000</speed>
</trkpt>
<trkpt lat="55.950577" lon="26.531788">
<ele>87.514709</ele>
<time>2010-06-20T08:07:48Z</time>
<desc>lat.=55.950577, lon.=26.531788, Alt.=87.514709m. Speed=9.432000m/h.</desc>
<speed>2.620000</speed>
</trkpt>
<trkpt lat="55.950600" lon="26.531796">
<ele>87.198303</ele>
<time>2010-06-20T08:07:49Z</time>
<desc>lat.=55.950600, lon.=26.531796, Alt.=87.198303m. Speed=7.416000m/h.</desc>
<speed>2.060000</speed>
</trkpt>
<trkpt lat="55.950626" lon="26.531809">
<ele>86.631897</ele>
<time>2010-06-20T08:07:50Z</time>
<desc>lat.=55.950626, lon.=26.531809, Alt.=86.631897m. Speed=5.904000m/h.</desc>
<speed>1.640000</speed>
</trkpt>
<trkpt lat="55.950645" lon="26.531830">
<ele>87.532288</ele>
<time>2010-06-20T08:07:51Z</time>
<desc>lat.=55.950645, lon.=26.531830, Alt.=87.532288m. Speed=3.060000m/h.</desc>
<speed>0.850000</speed>
</trkpt>
<trkpt lat="55.950665" lon="26.531830">
<ele>87.842834</ele>
<time>2010-06-20T08:07:52Z</time>
<desc>lat.=55.950665, lon.=26.531830, Alt.=87.842834m. Speed=2.880000m/h.</desc>
<speed>0.800000</speed>
</trkpt>
<trkpt lat="55.950687" lon="26.531830">
<ele>87.792053</ele>
<time>2010-06-20T08:07:53Z</time>
<desc>lat.=55.950687, lon.=26.531830, Alt.=87.792053m. Speed=5.580000m/h.</desc>
<speed>1.550000</speed>
</trkpt>
<trkpt lat="55.950714" lon="26.531836">
<ele>87.407288</ele>
<time>2010-06-20T08:07:54Z</time>
<desc>lat.=55.950714, lon.=26.531836, Alt.=87.407288m. Speed=4.572000m/h.</desc>
<speed>1.270000</speed>
</trkpt>
<trkpt lat="55.950733" lon="26.531845">
<ele>86.704163</ele>
<time>2010-06-20T08:07:55Z</time>
<desc>lat.=55.950733, lon.=26.531845, Alt.=86.704163m. Speed=6.300000m/h.</desc>
<speed>1.750000</speed>
</trkpt>
<trkpt lat="55.950756" lon="26.531860">
<ele>86.153381</ele>
<time>2010-06-20T08:07:56Z</time>
<desc>lat.=55.950756, lon.=26.531860, Alt.=86.153381m. Speed=8.496000m/h.</desc>
<speed>2.360000</speed>
</trkpt>
<trkpt lat="55.950787" lon="26.531876">
<ele>86.073303</ele>
<time>2010-06-20T08:07:57Z</time>
<desc>lat.=55.950787, lon.=26.531876, Alt.=86.073303m. Speed=8.172000m/h.</desc>
<speed>2.270000</speed>
</trkpt>
<trkpt lat="55.950813" lon="26.531898">
<ele>85.592834</ele>
<time>2010-06-20T08:07:58Z</time>
<desc>lat.=55.950813, lon.=26.531898, Alt.=85.592834m. Speed=6.264000m/h.</desc>
<speed>1.740000</speed>
</trkpt>
<trkpt lat="55.950840" lon="26.531902">
<ele>85.772522</ele>
<time>2010-06-20T08:07:59Z</time>
<desc>lat.=55.950840, lon.=26.531902, Alt.=85.772522m. Speed=6.840000m/h.</desc>
<speed>1.900000</speed>
</trkpt>
<trkpt lat="55.950867" lon="26.531910">
<ele>84.364319</ele>
<time>2010-06-20T08:08:00Z</time>
<desc>lat.=55.950867, lon.=26.531910, Alt.=84.364319m. Speed=2.988000m/h.</desc>
<speed>0.830000</speed>
</trkpt>
<trkpt lat="55.950882" lon="26.531927">
<ele>84.145569</ele>
<time>2010-06-20T08:08:01Z</time>
<desc>lat.=55.950882, lon.=26.531927, Alt.=84.145569m. Speed=3.492000m/h.</desc>
<speed>0.970000</speed>
</trkpt>
<trkpt lat="55.950901" lon="26.531939">
<ele>84.172913</ele>
<time>2010-06-20T08:08:02Z</time>
<desc>lat.=55.950901, lon.=26.531939, Alt.=84.172913m. Speed=5.256000m/h.</desc>
<speed>1.460000</speed>
</trkpt>
<trkpt lat="55.950916" lon="26.531956">
<ele>84.512756</ele>
<time>2010-06-20T08:08:03Z</time>
<desc>lat.=55.950916, lon.=26.531956, Alt.=84.512756m. Speed=3.636000m/h.</desc>
<speed>1.010000</speed>
</trkpt>
<trkpt lat="55.950935" lon="26.531986">
<ele>85.178772</ele>
<time>2010-06-20T08:08:04Z</time>
<desc>lat.=55.950935, lon.=26.531986, Alt.=85.178772m. Speed=3.348000m/h.</desc>
<speed>0.930000</speed>
</trkpt>
<trkpt lat="55.950951" lon="26.532001">
<ele>85.210022</ele>
<time>2010-06-20T08:08:05Z</time>
<desc>lat.=55.950951, lon.=26.532001, Alt.=85.210022m. Speed=5.508000m/h.</desc>
<speed>1.530000</speed>
</trkpt>
<trkpt lat="55.950981" lon="26.532024">
<ele>84.870178</ele>
<time>2010-06-20T08:08:06Z</time>
<desc>lat.=55.950981, lon.=26.532024, Alt.=84.870178m. Speed=8.928000m/h.</desc>
<speed>2.480000</speed>
</trkpt>
<trkpt lat="55.951019" lon="26.532061">
<ele>84.204163</ele>
<time>2010-06-20T08:08:07Z</time>
<desc>lat.=55.951019, lon.=26.532061, Alt.=84.204163m. Speed=8.568000m/h.</desc>
<speed>2.380000</speed>
</trkpt>
<trkpt lat="55.951061" lon="26.532089">
<ele>82.780334</ele>
<time>2010-06-20T08:08:08Z</time>
<desc>lat.=55.951061, lon.=26.532089, Alt.=82.780334m. Speed=7.704000m/h.</desc>
<speed>2.140000</speed>
</trkpt>
<trkpt lat="55.951092" lon="26.532122">
<ele>82.442444</ele>
<time>2010-06-20T08:08:09Z</time>
<desc>lat.=55.951092, lon.=26.532122, Alt.=82.442444m. Speed=9.396000m/h.</desc>
<speed>2.610000</speed>
</trkpt>
<trkpt lat="55.951118" lon="26.532152">
<ele>81.911194</ele>
<time>2010-06-20T08:08:10Z</time>
<desc>lat.=55.951118, lon.=26.532152, Alt.=81.911194m. Speed=10.728000m/h.</desc>
<speed>2.980000</speed>
</trkpt>
<trkpt lat="55.951145" lon="26.532200">
<ele>81.838928</ele>
<time>2010-06-20T08:08:11Z</time>
<desc>lat.=55.951145, lon.=26.532200, Alt.=81.838928m. Speed=10.224000m/h.</desc>
<speed>2.840000</speed>
</trkpt>
<trkpt lat="55.951172" lon="26.532236">
<ele>81.637756</ele>
<time>2010-06-20T08:08:12Z</time>
<desc>lat.=55.951172, lon.=26.532236, Alt.=81.637756m. Speed=10.620000m/h.</desc>
<speed>2.950000</speed>
</trkpt>
<trkpt lat="55.951210" lon="26.532276">
<ele>81.290100</ele>
<time>2010-06-20T08:08:13Z</time>
<desc>lat.=55.951210, lon.=26.532276, Alt.=81.290100m. Speed=12.672000m/h.</desc>
<speed>3.520000</speed>
</trkpt>
<trkpt lat="55.951244" lon="26.532328">
<ele>81.401428</ele>
<time>2010-06-20T08:08:14Z</time>
<desc>lat.=55.951244, lon.=26.532328, Alt.=81.401428m. Speed=13.068000m/h.</desc>
<speed>3.630000</speed>
</trkpt>
<trkpt lat="55.951271" lon="26.532370">
<ele>81.284241</ele>
<time>2010-06-20T08:08:15Z</time>
<desc>lat.=55.951271, lon.=26.532370, Alt.=81.284241m. Speed=12.528000m/h.</desc>
<speed>3.480000</speed>
</trkpt>
<trkpt lat="55.951313" lon="26.532419">
<ele>81.399475</ele>
<time>2010-06-20T08:08:16Z</time>
<desc>lat.=55.951313, lon.=26.532419, Alt.=81.399475m. Speed=13.860000m/h.</desc>
<speed>3.850000</speed>
</trkpt>
<trkpt lat="55.951351" lon="26.532465">
<ele>80.524475</ele>
<time>2010-06-20T08:08:17Z</time>
<desc>lat.=55.951351, lon.=26.532465, Alt.=80.524475m. Speed=12.852000m/h.</desc>
<speed>3.570000</speed>
</trkpt>
<trkpt lat="55.951382" lon="26.532501">
<ele>80.249084</ele>
<time>2010-06-20T08:08:18Z</time>
<desc>lat.=55.951382, lon.=26.532501, Alt.=80.249084m. Speed=8.604000m/h.</desc>
<speed>2.390000</speed>
</trkpt>
<trkpt lat="55.951405" lon="26.532536">
<ele>80.200256</ele>
<time>2010-06-20T08:08:19Z</time>
<desc>lat.=55.951405, lon.=26.532536, Alt.=80.200256m. Speed=11.880000m/h.</desc>
<speed>3.300000</speed>
</trkpt>
<trkpt lat="55.951431" lon="26.532585">
<ele>80.004944</ele>
<time>2010-06-20T08:08:20Z</time>
<desc>lat.=55.951431, lon.=26.532585, Alt.=80.004944m. Speed=13.176000m/h.</desc>
<speed>3.660000</speed>
</trkpt>
<trkpt lat="55.951454" lon="26.532629">
<ele>79.573303</ele>
<time>2010-06-20T08:08:21Z</time>
<desc>lat.=55.951454, lon.=26.532629, Alt.=79.573303m. Speed=12.456000m/h.</desc>
<speed>3.460000</speed>
</trkpt>
<trkpt lat="55.951481" lon="26.532667">
<ele>79.376038</ele>
<time>2010-06-20T08:08:22Z</time>
<desc>lat.=55.951481, lon.=26.532667, Alt.=79.376038m. Speed=11.520000m/h.</desc>
<speed>3.200000</speed>
</trkpt>
<trkpt lat="55.951500" lon="26.532703">
<ele>79.315491</ele>
<time>2010-06-20T08:08:23Z</time>
<desc>lat.=55.951500, lon.=26.532703, Alt.=79.315491m. Speed=8.568000m/h.</desc>
<speed>2.380000</speed>
</trkpt>
<trkpt lat="55.951519" lon="26.532743">
<ele>79.307678</ele>
<time>2010-06-20T08:08:24Z</time>
<desc>lat.=55.951519, lon.=26.532743, Alt.=79.307678m. Speed=9.864000m/h.</desc>
<speed>2.740000</speed>
</trkpt>
<trkpt lat="55.951542" lon="26.532785">
<ele>79.198303</ele>
<time>2010-06-20T08:08:25Z</time>
<desc>lat.=55.951542, lon.=26.532785, Alt.=79.198303m. Speed=9.216000m/h.</desc>
<speed>2.560000</speed>
</trkpt>
<trkpt lat="55.951561" lon="26.532820">
<ele>78.983459</ele>
<time>2010-06-20T08:08:26Z</time>
<desc>lat.=55.951561, lon.=26.532820, Alt.=78.983459m. Speed=10.116000m/h.</desc>
<speed>2.810000</speed>
</trkpt>
<trkpt lat="55.951591" lon="26.532856">
<ele>78.852600</ele>
<time>2010-06-20T08:08:27Z</time>
<desc>lat.=55.951591, lon.=26.532856, Alt.=78.852600m. Speed=9.828000m/h.</desc>
<speed>2.730000</speed>
</trkpt>
<trkpt lat="55.951618" lon="26.532887">
<ele>78.377991</ele>
<time>2010-06-20T08:08:28Z</time>
<desc>lat.=55.951618, lon.=26.532887, Alt.=78.377991m. Speed=9.972000m/h.</desc>
<speed>2.770000</speed>
</trkpt>
<trkpt lat="55.951641" lon="26.532921">
<ele>77.909241</ele>
<time>2010-06-20T08:08:29Z</time>
<desc>lat.=55.951641, lon.=26.532921, Alt.=77.909241m. Speed=10.476000m/h.</desc>
<speed>2.910000</speed>
</trkpt>
<trkpt lat="55.951656" lon="26.532963">
<ele>78.067444</ele>
<time>2010-06-20T08:08:30Z</time>
<desc>lat.=55.951656, lon.=26.532963, Alt.=78.067444m. Speed=9.936000m/h.</desc>
<speed>2.760000</speed>
</trkpt>
<trkpt lat="55.951675" lon="26.533001">
<ele>78.040100</ele>
<time>2010-06-20T08:08:31Z</time>
<desc>lat.=55.951675, lon.=26.533001, Alt.=78.040100m. Speed=11.268000m/h.</desc>
<speed>3.130000</speed>
</trkpt>
<trkpt lat="55.951683" lon="26.533039">
<ele>78.639709</ele>
<time>2010-06-20T08:08:32Z</time>
<desc>lat.=55.951683, lon.=26.533039, Alt.=78.639709m. Speed=7.668000m/h.</desc>
<speed>2.130000</speed>
</trkpt>
<trkpt lat="55.951691" lon="26.533072">
<ele>78.889709</ele>
<time>2010-06-20T08:08:33Z</time>
<desc>lat.=55.951691, lon.=26.533072, Alt.=78.889709m. Speed=7.956000m/h.</desc>
<speed>2.210000</speed>
</trkpt>
<trkpt lat="55.951706" lon="26.533106">
<ele>78.684631</ele>
<time>2010-06-20T08:08:34Z</time>
<desc>lat.=55.951706, lon.=26.533106, Alt.=78.684631m. Speed=9.072000m/h.</desc>
<speed>2.520000</speed>
</trkpt>
<trkpt lat="55.951717" lon="26.533134">
<ele>80.838928</ele>
<time>2010-06-20T08:08:35Z</time>
<desc>lat.=55.951717, lon.=26.533134, Alt.=80.838928m. Speed=7.308000m/h.</desc>
<speed>2.030000</speed>
</trkpt>
<trkpt lat="55.951725" lon="26.533169">
<ele>82.461975</ele>
<time>2010-06-20T08:08:36Z</time>
<desc>lat.=55.951725, lon.=26.533169, Alt.=82.461975m. Speed=8.568000m/h.</desc>
<speed>2.380000</speed>
</trkpt>
<trkpt lat="55.951740" lon="26.533211">
<ele>82.790100</ele>
<time>2010-06-20T08:08:37Z</time>
<desc>lat.=55.951740, lon.=26.533211, Alt.=82.790100m. Speed=10.836000m/h.</desc>
<speed>3.010000</speed>
</trkpt>
<trkpt lat="55.951756" lon="26.533253">
<ele>82.215881</ele>
<time>2010-06-20T08:08:38Z</time>
<desc>lat.=55.951756, lon.=26.533253, Alt.=82.215881m. Speed=8.748000m/h.</desc>
<speed>2.430000</speed>
</trkpt>
<trkpt lat="55.951752" lon="26.533297">
<ele>83.096741</ele>
<time>2010-06-20T08:08:39Z</time>
<desc>lat.=55.951752, lon.=26.533297, Alt.=83.096741m. Speed=8.208000m/h.</desc>
<speed>2.280000</speed>
</trkpt>
<trkpt lat="55.951771" lon="26.533339">
<ele>82.133850</ele>
<time>2010-06-20T08:08:40Z</time>
<desc>lat.=55.951771, lon.=26.533339, Alt.=82.133850m. Speed=9.972000m/h.</desc>
<speed>2.770000</speed>
</trkpt>
<trkpt lat="55.951790" lon="26.533363">
<ele>83.856506</ele>
<time>2010-06-20T08:08:41Z</time>
<desc>lat.=55.951790, lon.=26.533363, Alt.=83.856506m. Speed=4.644000m/h.</desc>
<speed>1.290000</speed>
</trkpt>
<trkpt lat="55.951809" lon="26.533401">
<ele>84.479553</ele>
<time>2010-06-20T08:08:42Z</time>
<desc>lat.=55.951809, lon.=26.533401, Alt.=84.479553m. Speed=8.964000m/h.</desc>
<speed>2.490000</speed>
</trkpt>
<trkpt lat="55.951824" lon="26.533438">
<ele>84.713928</ele>
<time>2010-06-20T08:08:43Z</time>
<desc>lat.=55.951824, lon.=26.533438, Alt.=84.713928m. Speed=9.180000m/h.</desc>
<speed>2.550000</speed>
</trkpt>
<trkpt lat="55.951824" lon="26.533484">
<ele>84.954163</ele>
<time>2010-06-20T08:08:44Z</time>
<desc>lat.=55.951824, lon.=26.533484, Alt.=84.954163m. Speed=9.864000m/h.</desc>
<speed>2.740000</speed>
</trkpt>
<trkpt lat="55.951843" lon="26.533525">
<ele>85.731506</ele>
<time>2010-06-20T08:08:45Z</time>
<desc>lat.=55.951843, lon.=26.533525, Alt.=85.731506m. Speed=10.332000m/h.</desc>
<speed>2.870000</speed>
</trkpt>
<trkpt lat="55.951851" lon="26.533573">
<ele>86.598694</ele>
<time>2010-06-20T08:08:46Z</time>
<desc>lat.=55.951851, lon.=26.533573, Alt.=86.598694m. Speed=9.720000m/h.</desc>
<speed>2.700000</speed>
</trkpt>
<trkpt lat="55.951866" lon="26.533613">
<ele>86.544006</ele>
<time>2010-06-20T08:08:47Z</time>
<desc>lat.=55.951866, lon.=26.533613, Alt.=86.544006m. Speed=9.648000m/h.</desc>
<speed>2.680000</speed>
</trkpt>
<trkpt lat="55.951885" lon="26.533646">
<ele>87.329163</ele>
<time>2010-06-20T08:08:48Z</time>
<desc>lat.=55.951885, lon.=26.533646, Alt.=87.329163m. Speed=10.584000m/h.</desc>
<speed>2.940000</speed>
</trkpt>
<trkpt lat="55.951897" lon="26.533693">
<ele>86.946350</ele>
<time>2010-06-20T08:08:49Z</time>
<desc>lat.=55.951897, lon.=26.533693, Alt.=86.946350m. Speed=10.008000m/h.</desc>
<speed>2.780000</speed>
</trkpt>
<trkpt lat="55.951897" lon="26.533747">
<ele>86.469788</ele>
<time>2010-06-20T08:08:50Z</time>
<desc>lat.=55.951897, lon.=26.533747, Alt.=86.469788m. Speed=9.756000m/h.</desc>
<speed>2.710000</speed>
</trkpt>
<trkpt lat="55.951912" lon="26.533792">
<ele>86.083069</ele>
<time>2010-06-20T08:08:51Z</time>
<desc>lat.=55.951912, lon.=26.533792, Alt.=86.083069m. Speed=9.792000m/h.</desc>
<speed>2.720000</speed>
</trkpt>
<trkpt lat="55.951931" lon="26.533838">
<ele>85.889709</ele>
<time>2010-06-20T08:08:52Z</time>
<desc>lat.=55.951931, lon.=26.533838, Alt.=85.889709m. Speed=10.224000m/h.</desc>
<speed>2.840000</speed>
</trkpt>
<trkpt lat="55.951954" lon="26.533886">
<ele>86.510803</ele>
<time>2010-06-20T08:08:53Z</time>
<desc>lat.=55.951954, lon.=26.533886, Alt.=86.510803m. Speed=7.200000m/h.</desc>
<speed>2.000000</speed>
</trkpt>
<trkpt lat="55.951962" lon="26.533922">
<ele>85.706116</ele>
<time>2010-06-20T08:08:54Z</time>
<desc>lat.=55.951962, lon.=26.533922, Alt.=85.706116m. Speed=7.380000m/h.</desc>
<speed>2.050000</speed>
</trkpt>
<trkpt lat="55.951969" lon="26.533966">
<ele>84.815491</ele>
<time>2010-06-20T08:08:55Z</time>
<desc>lat.=55.951969, lon.=26.533966, Alt.=84.815491m. Speed=9.576000m/h.</desc>
<speed>2.660000</speed>
</trkpt>
<trkpt lat="55.951965" lon="26.534021">
<ele>83.561584</ele>
<time>2010-06-20T08:08:56Z</time>
<desc>lat.=55.951965, lon.=26.534021, Alt.=83.561584m. Speed=7.272000m/h.</desc>
<speed>2.020000</speed>
</trkpt>
<trkpt lat="55.951977" lon="26.534050">
<ele>83.247131</ele>
<time>2010-06-20T08:08:57Z</time>
<desc>lat.=55.951977, lon.=26.534050, Alt.=83.247131m. Speed=7.380000m/h.</desc>
<speed>2.050000</speed>
</trkpt>
<trkpt lat="55.951988" lon="26.534077">
<ele>83.524475</ele>
<time>2010-06-20T08:08:58Z</time>
<desc>lat.=55.951988, lon.=26.534077, Alt.=83.524475m. Speed=6.552000m/h.</desc>
<speed>1.820000</speed>
</trkpt>
<trkpt lat="55.952003" lon="26.534103">
<ele>84.176819</ele>
<time>2010-06-20T08:08:59Z</time>
<desc>lat.=55.952003, lon.=26.534103, Alt.=84.176819m. Speed=7.704000m/h.</desc>
<speed>2.140000</speed>
</trkpt>
<trkpt lat="55.952007" lon="26.534143">
<ele>83.499084</ele>
<time>2010-06-20T08:09:00Z</time>
<desc>lat.=55.952007, lon.=26.534143, Alt.=83.499084m. Speed=8.748000m/h.</desc>
<speed>2.430000</speed>
</trkpt>
<trkpt lat="55.952019" lon="26.534170">
<ele>83.044006</ele>
<time>2010-06-20T08:09:01Z</time>
<desc>lat.=55.952019, lon.=26.534170, Alt.=83.044006m. Speed=6.768000m/h.</desc>
<speed>1.880000</speed>
</trkpt>
<trkpt lat="55.952034" lon="26.534197">
<ele>83.030334</ele>
<time>2010-06-20T08:09:02Z</time>
<desc>lat.=55.952034, lon.=26.534197, Alt.=83.030334m. Speed=8.064000m/h.</desc>
<speed>2.240000</speed>
</trkpt>
<trkpt lat="55.952045" lon="26.534239">
<ele>82.731506</ele>
<time>2010-06-20T08:09:03Z</time>
<desc>lat.=55.952045, lon.=26.534239, Alt.=82.731506m. Speed=7.704000m/h.</desc>
<speed>2.140000</speed>
</trkpt>
<trkpt lat="55.952057" lon="26.534271">
<ele>82.590881</ele>
<time>2010-06-20T08:09:04Z</time>
<desc>lat.=55.952057, lon.=26.534271, Alt.=82.590881m. Speed=6.912000m/h.</desc>
<speed>1.920000</speed>
</trkpt>
<trkpt lat="55.952065" lon="26.534311">
<ele>81.913147</ele>
<time>2010-06-20T08:09:05Z</time>
<desc>lat.=55.952065, lon.=26.534311, Alt.=81.913147m. Speed=8.856000m/h.</desc>
<speed>2.460000</speed>
</trkpt>
<trkpt lat="55.952068" lon="26.534346">
<ele>81.571350</ele>
<time>2010-06-20T08:09:06Z</time>
<desc>lat.=55.952068, lon.=26.534346, Alt.=81.571350m. Speed=7.056000m/h.</desc>
<speed>1.960000</speed>
</trkpt>
<trkpt lat="55.952076" lon="26.534372">
<ele>81.182678</ele>
<time>2010-06-20T08:09:07Z</time>
<desc>lat.=55.952076, lon.=26.534372, Alt.=81.182678m. Speed=6.984000m/h.</desc>
<speed>1.940000</speed>
</trkpt>
<trkpt lat="55.952080" lon="26.534412">
<ele>80.565491</ele>
<time>2010-06-20T08:09:08Z</time>
<desc>lat.=55.952080, lon.=26.534412, Alt.=80.565491m. Speed=7.020000m/h.</desc>
<speed>1.950000</speed>
</trkpt>
<trkpt lat="55.952061" lon="26.534487">
<ele>80.217834</ele>
<time>2010-06-20T08:09:09Z</time>
<desc>lat.=55.952061, lon.=26.534487, Alt.=80.217834m. Speed=6.912000m/h.</desc>
<speed>1.920000</speed>
</trkpt>
<trkpt lat="55.952068" lon="26.534517">
<ele>79.848694</ele>
<time>2010-06-20T08:09:10Z</time>
<desc>lat.=55.952068, lon.=26.534517, Alt.=79.848694m. Speed=7.416000m/h.</desc>
<speed>2.060000</speed>
</trkpt>
<trkpt lat="55.952080" lon="26.534548">
<ele>80.059631</ele>
<time>2010-06-20T08:09:11Z</time>
<desc>lat.=55.952080, lon.=26.534548, Alt.=80.059631m. Speed=7.596000m/h.</desc>
<speed>2.110000</speed>
</trkpt>
<trkpt lat="55.952076" lon="26.534597">
<ele>80.723694</ele>
<time>2010-06-20T08:09:12Z</time>
<desc>lat.=55.952076, lon.=26.534597, Alt.=80.723694m. Speed=7.704000m/h.</desc>
<speed>2.140000</speed>
</trkpt>
<trkpt lat="55.952068" lon="26.534651">
<ele>81.022522</ele>
<time>2010-06-20T08:09:13Z</time>
<desc>lat.=55.952068, lon.=26.534651, Alt.=81.022522m. Speed=6.876000m/h.</desc>
<speed>1.910000</speed>
</trkpt>
<trkpt lat="55.952091" lon="26.534689">
<ele>80.764709</ele>
<time>2010-06-20T08:09:14Z</time>
<desc>lat.=55.952091, lon.=26.534689, Alt.=80.764709m. Speed=7.596000m/h.</desc>
<speed>2.110000</speed>
</trkpt>
<trkpt lat="55.952137" lon="26.534773">
<ele>81.620178</ele>
<time>2010-06-20T08:09:15Z</time>
<desc>lat.=55.952137, lon.=26.534773, Alt.=81.620178m. Speed=8.748000m/h.</desc>
<speed>2.430000</speed>
</trkpt>
<trkpt lat="55.952168" lon="26.534819">
<ele>81.192444</ele>
<time>2010-06-20T08:09:16Z</time>
<desc>lat.=55.952168, lon.=26.534819, Alt.=81.192444m. Speed=7.848000m/h.</desc>
<speed>2.180000</speed>
</trkpt>
<trkpt lat="55.952171" lon="26.534853">
<ele>81.006897</ele>
<time>2010-06-20T08:09:17Z</time>
<desc>lat.=55.952171, lon.=26.534853, Alt.=81.006897m. Speed=7.056000m/h.</desc>
<speed>1.960000</speed>
</trkpt>
<trkpt lat="55.952198" lon="26.534925">
<ele>81.297913</ele>
<time>2010-06-20T08:09:18Z</time>
<desc>lat.=55.952198, lon.=26.534925, Alt.=81.297913m. Speed=6.012000m/h.</desc>
<speed>1.670000</speed>
</trkpt>
<trkpt lat="55.952221" lon="26.534973">
<ele>81.442444</ele>
<time>2010-06-20T08:09:19Z</time>
<desc>lat.=55.952221, lon.=26.534973, Alt.=81.442444m. Speed=6.588000m/h.</desc>
<speed>1.830000</speed>
</trkpt>
<trkpt lat="55.952324" lon="26.535116">
<ele>81.852600</ele>
<time>2010-06-20T08:09:20Z</time>
<desc>lat.=55.952324, lon.=26.535116, Alt.=81.852600m. Speed=5.688000m/h.</desc>
<speed>1.580000</speed>
</trkpt>
<trkpt lat="55.952377" lon="26.535143">
<ele>82.210022</ele>
<time>2010-06-20T08:09:21Z</time>
<desc>lat.=55.952377, lon.=26.535143, Alt.=82.210022m. Speed=6.588000m/h.</desc>
<speed>1.830000</speed>
</trkpt>
<trkpt lat="55.952381" lon="26.535152">
<ele>82.813538</ele>
<time>2010-06-20T08:09:22Z</time>
<desc>lat.=55.952381, lon.=26.535152, Alt.=82.813538m. Speed=6.156000m/h.</desc>
<speed>1.710000</speed>
</trkpt>
<trkpt lat="55.952374" lon="26.535202">
<ele>82.749084</ele>
<time>2010-06-20T08:09:23Z</time>
<desc>lat.=55.952374, lon.=26.535202, Alt.=82.749084m. Speed=8.460000m/h.</desc>
<speed>2.350000</speed>
</trkpt>
<trkpt lat="55.952271" lon="26.535295">
<ele>84.678772</ele>
<time>2010-06-20T08:09:24Z</time>
<desc>lat.=55.952271, lon.=26.535295, Alt.=84.678772m. Speed=7.488000m/h.</desc>
<speed>2.080000</speed>
</trkpt>
<trkpt lat="55.952251" lon="26.535337">
<ele>84.713928</ele>
<time>2010-06-20T08:09:25Z</time>
<desc>lat.=55.952251, lon.=26.535337, Alt.=84.713928m. Speed=7.992000m/h.</desc>
<speed>2.220000</speed>
</trkpt>
<trkpt lat="55.952244" lon="26.535387">
<ele>84.213928</ele>
<time>2010-06-20T08:09:26Z</time>
<desc>lat.=55.952244, lon.=26.535387, Alt.=84.213928m. Speed=10.404000m/h.</desc>
<speed>2.890000</speed>
</trkpt>
<trkpt lat="55.952229" lon="26.535440">
<ele>83.794006</ele>
<time>2010-06-20T08:09:27Z</time>
<desc>lat.=55.952229, lon.=26.535440, Alt.=83.794006m. Speed=8.820000m/h.</desc>
<speed>2.450000</speed>
</trkpt>
<trkpt lat="55.952221" lon="26.535488">
<ele>83.667053</ele>
<time>2010-06-20T08:09:28Z</time>
<desc>lat.=55.952221, lon.=26.535488, Alt.=83.667053m. Speed=8.892000m/h.</desc>
<speed>2.470000</speed>
</trkpt>
<trkpt lat="55.952225" lon="26.535532">
<ele>82.858459</ele>
<time>2010-06-20T08:09:29Z</time>
<desc>lat.=55.952225, lon.=26.535532, Alt.=82.858459m. Speed=9.936000m/h.</desc>
<speed>2.760000</speed>
</trkpt>
<trkpt lat="55.952225" lon="26.535583">
<ele>82.133850</ele>
<time>2010-06-20T08:09:30Z</time>
<desc>lat.=55.952225, lon.=26.535583, Alt.=82.133850m. Speed=9.180000m/h.</desc>
<speed>2.550000</speed>
</trkpt>
<trkpt lat="55.952229" lon="26.535622">
<ele>81.510803</ele>
<time>2010-06-20T08:09:31Z</time>
<desc>lat.=55.952229, lon.=26.535622, Alt.=81.510803m. Speed=9.036000m/h.</desc>
<speed>2.510000</speed>
</trkpt>
<trkpt lat="55.952225" lon="26.535664">
<ele>81.063538</ele>
<time>2010-06-20T08:09:32Z</time>
<desc>lat.=55.952225, lon.=26.535664, Alt.=81.063538m. Speed=10.332000m/h.</desc>
<speed>2.870000</speed>
</trkpt>
<trkpt lat="55.952221" lon="26.535715">
<ele>81.163147</ele>
<time>2010-06-20T08:09:33Z</time>
<desc>lat.=55.952221, lon.=26.535715, Alt.=81.163147m. Speed=10.872000m/h.</desc>
<speed>3.020000</speed>
</trkpt>
<trkpt lat="55.952236" lon="26.535757">
<ele>80.883850</ele>
<time>2010-06-20T08:09:34Z</time>
<desc>lat.=55.952236, lon.=26.535757, Alt.=80.883850m. Speed=11.664000m/h.</desc>
<speed>3.240000</speed>
</trkpt>
<trkpt lat="55.952251" lon="26.535799">
<ele>80.577209</ele>
<time>2010-06-20T08:09:35Z</time>
<desc>lat.=55.952251, lon.=26.535799, Alt.=80.577209m. Speed=11.160000m/h.</desc>
<speed>3.100000</speed>
</trkpt>
<trkpt lat="55.952236" lon="26.535870">
<ele>79.807678</ele>
<time>2010-06-20T08:09:36Z</time>
<desc>lat.=55.952236, lon.=26.535870, Alt.=79.807678m. Speed=11.232000m/h.</desc>
<speed>3.120000</speed>
</trkpt>
<trkpt lat="55.952225" lon="26.535948">
<ele>79.120178</ele>
<time>2010-06-20T08:09:37Z</time>
<desc>lat.=55.952225, lon.=26.535948, Alt.=79.120178m. Speed=11.484000m/h.</desc>
<speed>3.190000</speed>
</trkpt>
<trkpt lat="55.952248" lon="26.535978">
<ele>78.729553</ele>
<time>2010-06-20T08:09:38Z</time>
<desc>lat.=55.952248, lon.=26.535978, Alt.=78.729553m. Speed=11.412000m/h.</desc>
<speed>3.170000</speed>
</trkpt>
<trkpt lat="55.952274" lon="26.536083">
<ele>77.225647</ele>
<time>2010-06-20T08:09:39Z</time>
<desc>lat.=55.952274, lon.=26.536083, Alt.=77.225647m. Speed=10.584000m/h.</desc>
<speed>2.940000</speed>
</trkpt>
<trkpt lat="55.952637" lon="26.536350">
<ele>78.229553</ele>
<time>2010-06-20T08:09:40Z</time>
<desc>lat.=55.952637, lon.=26.536350, Alt.=78.229553m. Speed=7.812000m/h.</desc>
<speed>2.170000</speed>
</trkpt>
<trkpt lat="55.952648" lon="26.536406">
<ele>77.655334</ele>
<time>2010-06-20T08:09:41Z</time>
<desc>lat.=55.952648, lon.=26.536406, Alt.=77.655334m. Speed=8.640000m/h.</desc>
<speed>2.400000</speed>
</trkpt>
<trkpt lat="55.952656" lon="26.536427">
<ele>77.042053</ele>
<time>2010-06-20T08:09:42Z</time>
<desc>lat.=55.952656, lon.=26.536427, Alt.=77.042053m. Speed=7.200000m/h.</desc>
<speed>2.000000</speed>
</trkpt>
<trkpt lat="55.952667" lon="26.536440">
<ele>76.749084</ele>
<time>2010-06-20T08:09:43Z</time>
<desc>lat.=55.952667, lon.=26.536440, Alt.=76.749084m. Speed=7.452000m/h.</desc>
<speed>2.070000</speed>
</trkpt>
<trkpt lat="55.952682" lon="26.536463">
<ele>76.422913</ele>
<time>2010-06-20T08:09:44Z</time>
<desc>lat.=55.952682, lon.=26.536463, Alt.=76.422913m. Speed=10.044000m/h.</desc>
<speed>2.790000</speed>
</trkpt>
<trkpt lat="55.952717" lon="26.536507">
<ele>75.542053</ele>
<time>2010-06-20T08:09:45Z</time>
<desc>lat.=55.952717, lon.=26.536507, Alt.=75.542053m. Speed=7.416000m/h.</desc>
<speed>2.060000</speed>
</trkpt>
<trkpt lat="55.952820" lon="26.536615">
<ele>73.936584</ele>
<time>2010-06-20T08:09:46Z</time>
<desc>lat.=55.952820, lon.=26.536615, Alt.=73.936584m. Speed=7.164000m/h.</desc>
<speed>1.990000</speed>
</trkpt>
<trkpt lat="55.952854" lon="26.536638">
<ele>73.026428</ele>
<time>2010-06-20T08:09:47Z</time>
<desc>lat.=55.952854, lon.=26.536638, Alt.=73.026428m. Speed=7.560000m/h.</desc>
<speed>2.100000</speed>
</trkpt>
<trkpt lat="55.952919" lon="26.536739">
<ele>72.049866</ele>
<time>2010-06-20T08:09:48Z</time>
<desc>lat.=55.952919, lon.=26.536739, Alt.=72.049866m. Speed=6.336000m/h.</desc>
<speed>1.760000</speed>
</trkpt>
<trkpt lat="55.952950" lon="26.536753">
<ele>72.409241</ele>
<time>2010-06-20T08:09:49Z</time>
<desc>lat.=55.952950, lon.=26.536753, Alt.=72.409241m. Speed=4.644000m/h.</desc>
<speed>1.290000</speed>
</trkpt>
<trkpt lat="55.952965" lon="26.536760">
<ele>71.942444</ele>
<time>2010-06-20T08:09:50Z</time>
<desc>lat.=55.952965, lon.=26.536760, Alt.=71.942444m. Speed=3.816000m/h.</desc>
<speed>1.060000</speed>
</trkpt>
<trkpt lat="55.952991" lon="26.536779">
<ele>71.661194</ele>
<time>2010-06-20T08:09:51Z</time>
<desc>lat.=55.952991, lon.=26.536779, Alt.=71.661194m. Speed=7.092000m/h.</desc>
<speed>1.970000</speed>
</trkpt>
<trkpt lat="55.953014" lon="26.536808">
<ele>70.903381</ele>
<time>2010-06-20T08:09:52Z</time>
<desc>lat.=55.953014, lon.=26.536808, Alt.=70.903381m. Speed=5.436000m/h.</desc>
<speed>1.510000</speed>
</trkpt>
<trkpt lat="55.953033" lon="26.536837">
<ele>70.112366</ele>
<time>2010-06-20T08:09:53Z</time>
<desc>lat.=55.953033, lon.=26.536837, Alt.=70.112366m. Speed=5.076000m/h.</desc>
<speed>1.410000</speed>
</trkpt>
<trkpt lat="55.953079" lon="26.536917">
<ele>68.325256</ele>
<time>2010-06-20T08:09:54Z</time>
<desc>lat.=55.953079, lon.=26.536917, Alt.=68.325256m. Speed=5.040000m/h.</desc>
<speed>1.400000</speed>
</trkpt>
<trkpt lat="55.953129" lon="26.536982">
<ele>66.858459</ele>
<time>2010-06-20T08:09:55Z</time>
<desc>lat.=55.953129, lon.=26.536982, Alt.=66.858459m. Speed=5.328000m/h.</desc>
<speed>1.480000</speed>
</trkpt>
<trkpt lat="55.953171" lon="26.537006">
<ele>66.458069</ele>
<time>2010-06-20T08:09:56Z</time>
<desc>lat.=55.953171, lon.=26.537006, Alt.=66.458069m. Speed=2.052000m/h.</desc>
<speed>0.570000</speed>
</trkpt>
<trkpt lat="55.953190" lon="26.537012">
<ele>66.024475</ele>
<time>2010-06-20T08:09:57Z</time>
<desc>lat.=55.953190, lon.=26.537012, Alt.=66.024475m. Speed=3.492000m/h.</desc>
<speed>0.970000</speed>
</trkpt>
<trkpt lat="55.953209" lon="26.537018">
<ele>65.573303</ele>
<time>2010-06-20T08:09:58Z</time>
<desc>lat.=55.953209, lon.=26.537018, Alt.=65.573303m. Speed=3.960000m/h.</desc>
<speed>1.100000</speed>
</trkpt>
<trkpt lat="55.953281" lon="26.537048">
<ele>65.858459</ele>
<time>2010-06-20T08:09:59Z</time>
<desc>lat.=55.953281, lon.=26.537048, Alt.=65.858459m. Speed=5.292000m/h.</desc>
<speed>1.470000</speed>
</trkpt>
<trkpt lat="55.953323" lon="26.537071">
<ele>65.282288</ele>
<time>2010-06-20T08:10:00Z</time>
<desc>lat.=55.953323, lon.=26.537071, Alt.=65.282288m. Speed=3.996000m/h.</desc>
<speed>1.110000</speed>
</trkpt>
<trkpt lat="55.953346" lon="26.537088">
<ele>64.842834</ele>
<time>2010-06-20T08:10:01Z</time>
<desc>lat.=55.953346, lon.=26.537088, Alt.=64.842834m. Speed=6.120000m/h.</desc>
<speed>1.700000</speed>
</trkpt>
<trkpt lat="55.953381" lon="26.537109">
<ele>64.891663</ele>
<time>2010-06-20T08:10:02Z</time>
<desc>lat.=55.953381, lon.=26.537109, Alt.=64.891663m. Speed=7.380000m/h.</desc>
<speed>2.050000</speed>
</trkpt>
<trkpt lat="55.953476" lon="26.537193">
<ele>64.971741</ele>
<time>2010-06-20T08:10:03Z</time>
<desc>lat.=55.953476, lon.=26.537193, Alt.=64.971741m. Speed=6.012000m/h.</desc>
<speed>1.670000</speed>
</trkpt>
<trkpt lat="55.953499" lon="26.537224">
<ele>65.131897</ele>
<time>2010-06-20T08:10:04Z</time>
<desc>lat.=55.953499, lon.=26.537224, Alt.=65.131897m. Speed=7.884000m/h.</desc>
<speed>2.190000</speed>
</trkpt>
<trkpt lat="55.953533" lon="26.537258">
<ele>64.557678</ele>
<time>2010-06-20T08:10:05Z</time>
<desc>lat.=55.953533, lon.=26.537258, Alt.=64.557678m. Speed=6.876000m/h.</desc>
<speed>1.910000</speed>
</trkpt>
<trkpt lat="55.953564" lon="26.537285">
<ele>64.241272</ele>
<time>2010-06-20T08:10:06Z</time>
<desc>lat.=55.953564, lon.=26.537285, Alt.=64.241272m. Speed=10.692000m/h.</desc>
<speed>2.970000</speed>
</trkpt>
<trkpt lat="55.953594" lon="26.537310">
<ele>64.711975</ele>
<time>2010-06-20T08:10:07Z</time>
<desc>lat.=55.953594, lon.=26.537310, Alt.=64.711975m. Speed=7.056000m/h.</desc>
<speed>1.960000</speed>
</trkpt>
<trkpt lat="55.953640" lon="26.537340">
<ele>64.926819</ele>
<time>2010-06-20T08:10:08Z</time>
<desc>lat.=55.953640, lon.=26.537340, Alt.=64.926819m. Speed=6.804000m/h.</desc>
<speed>1.890000</speed>
</trkpt>
<trkpt lat="55.953659" lon="26.537363">
<ele>64.596741</ele>
<time>2010-06-20T08:10:09Z</time>
<desc>lat.=55.953659, lon.=26.537363, Alt.=64.596741m. Speed=4.464000m/h.</desc>
<speed>1.240000</speed>
</trkpt>
<trkpt lat="55.953682" lon="26.537386">
<ele>64.469788</ele>
<time>2010-06-20T08:10:10Z</time>
<desc>lat.=55.953682, lon.=26.537386, Alt.=64.469788m. Speed=6.516000m/h.</desc>
<speed>1.810000</speed>
</trkpt>
<trkpt lat="55.953716" lon="26.537413">
<ele>64.221741</ele>
<time>2010-06-20T08:10:11Z</time>
<desc>lat.=55.953716, lon.=26.537413, Alt.=64.221741m. Speed=7.236000m/h.</desc>
<speed>2.010000</speed>
</trkpt>
<trkpt lat="55.953754" lon="26.537453">
<ele>64.807678</ele>
<time>2010-06-20T08:10:12Z</time>
<desc>lat.=55.953754, lon.=26.537453, Alt.=64.807678m. Speed=8.748000m/h.</desc>
<speed>2.430000</speed>
</trkpt>
<trkpt lat="55.953781" lon="26.537479">
<ele>64.407288</ele>
<time>2010-06-20T08:10:13Z</time>
<desc>lat.=55.953781, lon.=26.537479, Alt.=64.407288m. Speed=7.236000m/h.</desc>
<speed>2.010000</speed>
</trkpt>
<trkpt lat="55.953804" lon="26.537506">
<ele>64.141663</ele>
<time>2010-06-20T08:10:14Z</time>
<desc>lat.=55.953804, lon.=26.537506, Alt.=64.141663m. Speed=7.740000m/h.</desc>
<speed>2.150000</speed>
</trkpt>
<trkpt lat="55.953827" lon="26.537533">
<ele>64.036194</ele>
<time>2010-06-20T08:10:15Z</time>
<desc>lat.=55.953827, lon.=26.537533, Alt.=64.036194m. Speed=8.496000m/h.</desc>
<speed>2.360000</speed>
</trkpt>
<trkpt lat="55.953861" lon="26.537567">
<ele>64.237366</ele>
<time>2010-06-20T08:10:16Z</time>
<desc>lat.=55.953861, lon.=26.537567, Alt.=64.237366m. Speed=8.208000m/h.</desc>
<speed>2.280000</speed>
</trkpt>
<trkpt lat="55.953884" lon="26.537590">
<ele>66.460022</ele>
<time>2010-06-20T08:10:17Z</time>
<desc>lat.=55.953884, lon.=26.537590, Alt.=66.460022m. Speed=6.660000m/h.</desc>
<speed>1.850000</speed>
</trkpt>
<trkpt lat="55.953907" lon="26.537615">
<ele>66.891663</ele>
<time>2010-06-20T08:10:18Z</time>
<desc>lat.=55.953907, lon.=26.537615, Alt.=66.891663m. Speed=7.416000m/h.</desc>
<speed>2.060000</speed>
</trkpt>
<trkpt lat="55.953957" lon="26.537672">
<ele>66.352600</ele>
<time>2010-06-20T08:10:19Z</time>
<desc>lat.=55.953957, lon.=26.537672, Alt.=66.352600m. Speed=6.012000m/h.</desc>
<speed>1.670000</speed>
</trkpt>
<trkpt lat="55.953987" lon="26.537708">
<ele>67.251038</ele>
<time>2010-06-20T08:10:20Z</time>
<desc>lat.=55.953987, lon.=26.537708, Alt.=67.251038m. Speed=4.572000m/h.</desc>
<speed>1.270000</speed>
</trkpt>
<trkpt lat="55.953999" lon="26.537731">
<ele>67.321350</ele>
<time>2010-06-20T08:10:21Z</time>
<desc>lat.=55.953999, lon.=26.537731, Alt.=67.321350m. Speed=3.816000m/h.</desc>
<speed>1.060000</speed>
</trkpt>
<trkpt lat="55.954010" lon="26.537750">
<ele>67.592834</ele>
<time>2010-06-20T08:10:22Z</time>
<desc>lat.=55.954010, lon.=26.537750, Alt.=67.592834m. Speed=2.448000m/h.</desc>
<speed>0.680000</speed>
</trkpt>
<trkpt lat="55.954018" lon="26.537766">
<ele>67.782288</ele>
<time>2010-06-20T08:10:23Z</time>
<desc>lat.=55.954018, lon.=26.537766, Alt.=67.782288m. Speed=2.124000m/h.</desc>
<speed>0.590000</speed>
</trkpt>
<trkpt lat="55.954018" lon="26.537769">
<ele>68.165100</ele>
<time>2010-06-20T08:10:24Z</time>
<desc>lat.=55.954018, lon.=26.537769, Alt.=68.165100m. Speed=1.620000m/h.</desc>
<speed>0.450000</speed>
</trkpt>
<trkpt lat="55.954029" lon="26.537771">
<ele>68.151428</ele>
<time>2010-06-20T08:10:25Z</time>
<desc>lat.=55.954029, lon.=26.537771, Alt.=68.151428m. Speed=0.936000m/h.</desc>
<speed>0.260000</speed>
</trkpt>
<trkpt lat="55.954029" lon="26.537773">
<ele>68.067444</ele>
<time>2010-06-20T08:10:26Z</time>
<desc>lat.=55.954029, lon.=26.537773, Alt.=68.067444m. Speed=0.360000m/h.</desc>
<speed>0.100000</speed>
</trkpt>
<trkpt lat="55.954029" lon="26.537775">
<ele>67.989319</ele>
<time>2010-06-20T08:10:27Z</time>
<desc>lat.=55.954029, lon.=26.537775, Alt.=67.989319m. Speed=0.432000m/h.</desc>
<speed>0.120000</speed>
</trkpt>
<trkpt lat="55.954029" lon="26.537777">
<ele>67.944397</ele>
<time>2010-06-20T08:10:28Z</time>
<desc>lat.=55.954029, lon.=26.537777, Alt.=67.944397m. Speed=0.504000m/h.</desc>
<speed>0.140000</speed>
</trkpt>
<trkpt lat="55.954033" lon="26.537777">
<ele>67.922913</ele>
<time>2010-06-20T08:10:29Z</time>
<desc>lat.=55.954033, lon.=26.537777, Alt.=67.922913m. Speed=0.072000m/h.</desc>
<speed>0.020000</speed>
</trkpt>
<trkpt lat="55.954033" lon="26.537777">
<ele>67.926819</ele>
<time>2010-06-20T08:10:30Z</time>
<desc>lat.=55.954033, lon.=26.537777, Alt.=67.926819m. Speed=0.144000m/h.</desc>
<speed>0.040000</speed>
</trkpt>
<trkpt lat="55.954029" lon="26.537777">
<ele>67.901428</ele>
<time>2010-06-20T08:10:31Z</time>
<desc>lat.=55.954029, lon.=26.537777, Alt.=67.901428m. Speed=0.540000m/h.</desc>
<speed>0.150000</speed>
</trkpt>
<trkpt lat="55.954029" lon="26.537775">
<ele>67.961975</ele>
<time>2010-06-20T08:10:32Z</time>
<desc>lat.=55.954029, lon.=26.537775, Alt.=67.961975m. Speed=0.396000m/h.</desc>
<speed>0.110000</speed>
</trkpt>
<trkpt lat="55.954029" lon="26.537773">
<ele>67.975647</ele>
<time>2010-06-20T08:10:33Z</time>
<desc>lat.=55.954029, lon.=26.537773, Alt.=67.975647m. Speed=0.144000m/h.</desc>
<speed>0.040000</speed>
</trkpt>
<trkpt lat="55.954029" lon="26.537773">
<ele>67.981506</ele>
<time>2010-06-20T08:10:34Z</time>
<desc>lat.=55.954029, lon.=26.537773, Alt.=67.981506m. Speed=0.036000m/h.</desc>
<speed>0.010000</speed>
</trkpt>
<trkpt lat="55.954029" lon="26.537773">
<ele>67.997131</ele>
<time>2010-06-20T08:10:35Z</time>
<desc>lat.=55.954029, lon.=26.537773, Alt.=67.997131m. Speed=0.144000m/h.</desc>
<speed>0.040000</speed>
</trkpt>
<trkpt lat="55.954029" lon="26.537773">
<ele>67.999084</ele>
<time>2010-06-20T08:10:36Z</time>
<desc>lat.=55.954029, lon.=26.537773, Alt.=67.999084m. Speed=0.180000m/h.</desc>
<speed>0.050000</speed>
</trkpt>
<trkpt lat="55.954033" lon="26.537775">
<ele>68.024475</ele>
<time>2010-06-20T08:10:37Z</time>
<desc>lat.=55.954033, lon.=26.537775, Alt.=68.024475m. Speed=0.288000m/h.</desc>
<speed>0.080000</speed>
</trkpt>
<trkpt lat="55.954033" lon="26.537777">
<ele>68.032288</ele>
<time>2010-06-20T08:10:38Z</time>
<desc>lat.=55.954033, lon.=26.537777, Alt.=68.032288m. Speed=0.072000m/h.</desc>
<speed>0.020000</speed>
</trkpt>
<trkpt lat="55.954033" lon="26.537777">
<ele>68.049866</ele>
<time>2010-06-20T08:10:39Z</time>
<desc>lat.=55.954033, lon.=26.537777, Alt.=68.049866m. Speed=0.252000m/h.</desc>
<speed>0.070000</speed>
</trkpt>
<trkpt lat="55.954033" lon="26.537777">
<ele>68.059631</ele>
<time>2010-06-20T08:10:40Z</time>
<desc>lat.=55.954033, lon.=26.537777, Alt.=68.059631m. Speed=0.216000m/h.</desc>
<speed>0.060000</speed>
</trkpt>
<trkpt lat="55.954033" lon="26.537779">
<ele>68.065491</ele>
<time>2010-06-20T08:10:41Z</time>
<desc>lat.=55.954033, lon.=26.537779, Alt.=68.065491m. Speed=0.216000m/h.</desc>
<speed>0.060000</speed>
</trkpt>
<trkpt lat="55.954033" lon="26.537781">
<ele>68.227600</ele>
<time>2010-06-20T08:10:42Z</time>
<desc>lat.=55.954033, lon.=26.537781, Alt.=68.227600m. Speed=0.216000m/h.</desc>
<speed>0.060000</speed>
</trkpt>
<trkpt lat="55.954033" lon="26.537785">
<ele>68.223694</ele>
<time>2010-06-20T08:10:43Z</time>
<desc>lat.=55.954033, lon.=26.537785, Alt.=68.223694m. Speed=0.468000m/h.</desc>
<speed>0.130000</speed>
</trkpt>
<trkpt lat="55.954033" lon="26.537788">
<ele>68.278381</ele>
<time>2010-06-20T08:10:44Z</time>
<desc>lat.=55.954033, lon.=26.537788, Alt.=68.278381m. Speed=0.216000m/h.</desc>
<speed>0.060000</speed>
</trkpt>
<trkpt lat="55.954033" lon="26.537790">
<ele>68.379944</ele>
<time>2010-06-20T08:10:45Z</time>
<desc>lat.=55.954033, lon.=26.537790, Alt.=68.379944m. Speed=0.432000m/h.</desc>
<speed>0.120000</speed>
</trkpt>
<trkpt lat="55.954033" lon="26.537790">
<ele>68.420959</ele>
<time>2010-06-20T08:10:46Z</time>
<desc>lat.=55.954033, lon.=26.537790, Alt.=68.420959m. Speed=0.432000m/h.</desc>
<speed>0.120000</speed>
</trkpt>
<trkpt lat="55.954033" lon="26.537792">
<ele>68.460022</ele>
<time>2010-06-20T08:10:47Z</time>
<desc>lat.=55.954033, lon.=26.537792, Alt.=68.460022m. Speed=0.468000m/h.</desc>
<speed>0.130000</speed>
</trkpt>
<trkpt lat="55.954033" lon="26.537794">
<ele>68.465881</ele>
<time>2010-06-20T08:10:48Z</time>
<desc>lat.=55.954033, lon.=26.537794, Alt.=68.465881m. Speed=0.072000m/h.</desc>
<speed>0.020000</speed>
</trkpt>
<trkpt lat="55.954033" lon="26.537796">
<ele>68.512756</ele>
<time>2010-06-20T08:10:49Z</time>
<desc>lat.=55.954033, lon.=26.537796, Alt.=68.512756m. Speed=0.324000m/h.</desc>
<speed>0.090000</speed>
</trkpt>
<trkpt lat="55.954033" lon="26.537796">
<ele>68.557678</ele>
<time>2010-06-20T08:10:50Z</time>
<desc>lat.=55.954033, lon.=26.537796, Alt.=68.557678m. Speed=0.144000m/h.</desc>
<speed>0.040000</speed>
</trkpt>
<trkpt lat="55.954033" lon="26.537798">
<ele>68.565491</ele>
<time>2010-06-20T08:10:51Z</time>
<desc>lat.=55.954033, lon.=26.537798, Alt.=68.565491m. Speed=0.108000m/h.</desc>
<speed>0.030000</speed>
</trkpt>
<trkpt lat="55.954037" lon="26.537798">
<ele>68.579163</ele>
<time>2010-06-20T08:10:52Z</time>
<desc>lat.=55.954037, lon.=26.537798, Alt.=68.579163m. Speed=0.072000m/h.</desc>
<speed>0.020000</speed>
</trkpt>
<trkpt lat="55.954037" lon="26.537800">
<ele>68.608459</ele>
<time>2010-06-20T08:10:53Z</time>
<desc>lat.=55.954037, lon.=26.537800, Alt.=68.608459m. Speed=0.144000m/h.</desc>
<speed>0.040000</speed>
</trkpt>
<trkpt lat="55.954037" lon="26.537800">
<ele>68.624084</ele>
<time>2010-06-20T08:10:54Z</time>
<desc>lat.=55.954037, lon.=26.537800, Alt.=68.624084m. Speed=0.144000m/h.</desc>
<speed>0.040000</speed>
</trkpt>
<trkpt lat="55.954037" lon="26.537800">
<ele>68.670959</ele>
<time>2010-06-20T08:10:55Z</time>
<desc>lat.=55.954037, lon.=26.537800, Alt.=68.670959m. Speed=0.072000m/h.</desc>
<speed>0.020000</speed>
</trkpt>
<trkpt lat="55.954037" lon="26.537800">
<ele>68.688538</ele>
<time>2010-06-20T08:10:56Z</time>
<desc>lat.=55.954037, lon.=26.537800, Alt.=68.688538m. Speed=0.144000m/h.</desc>
<speed>0.040000</speed>
</trkpt>
<trkpt lat="55.954037" lon="26.537800">
<ele>68.700256</ele>
<time>2010-06-20T08:10:57Z</time>
<desc>lat.=55.954037, lon.=26.537800, Alt.=68.700256m. Speed=0.216000m/h.</desc>
<speed>0.060000</speed>
</trkpt>
<trkpt lat="55.954037" lon="26.537798">
<ele>68.704163</ele>
<time>2010-06-20T08:10:58Z</time>
<desc>lat.=55.954037, lon.=26.537798, Alt.=68.704163m. Speed=0.072000m/h.</desc>
<speed>0.020000</speed>
</trkpt>
<trkpt lat="55.954037" lon="26.537800">
<ele>68.790100</ele>
<time>2010-06-20T08:10:59Z</time>
<desc>lat.=55.954037, lon.=26.537800, Alt.=68.790100m. Speed=0.216000m/h.</desc>
<speed>0.060000</speed>
</trkpt>
<trkpt lat="55.954037" lon="26.537802">
<ele>68.877991</ele>
<time>2010-06-20T08:11:00Z</time>
<desc>lat.=55.954037, lon.=26.537802, Alt.=68.877991m. Speed=0.468000m/h.</desc>
<speed>0.130000</speed>
</trkpt>
<trkpt lat="55.954037" lon="26.537798">
<ele>68.879944</ele>
<time>2010-06-20T08:11:01Z</time>
<desc>lat.=55.954037, lon.=26.537798, Alt.=68.879944m. Speed=0.288000m/h.</desc>
<speed>0.080000</speed>
</trkpt>
<trkpt lat="55.954041" lon="26.537798">
<ele>68.936584</ele>
<time>2010-06-20T08:11:02Z</time>
<desc>lat.=55.954041, lon.=26.537798, Alt.=68.936584m. Speed=0.576000m/h.</desc>
<speed>0.160000</speed>
</trkpt>
<trkpt lat="55.954041" lon="26.537796">
<ele>69.004944</ele>
<time>2010-06-20T08:11:03Z</time>
<desc>lat.=55.954041, lon.=26.537796, Alt.=69.004944m. Speed=0.468000m/h.</desc>
<speed>0.130000</speed>
</trkpt>
<trkpt lat="55.954041" lon="26.537794">
<ele>69.053772</ele>
<time>2010-06-20T08:11:04Z</time>
<desc>lat.=55.954041, lon.=26.537794, Alt.=69.053772m. Speed=0.396000m/h.</desc>
<speed>0.110000</speed>
</trkpt>
<trkpt lat="55.954044" lon="26.537794">
<ele>69.088928</ele>
<time>2010-06-20T08:11:05Z</time>
<desc>lat.=55.954044, lon.=26.537794, Alt.=69.088928m. Speed=0.360000m/h.</desc>
<speed>0.100000</speed>
</trkpt>
<trkpt lat="55.954044" lon="26.537792">
<ele>69.106506</ele>
<time>2010-06-20T08:11:06Z</time>
<desc>lat.=55.954044, lon.=26.537792, Alt.=69.106506m. Speed=0.072000m/h.</desc>
<speed>0.020000</speed>
</trkpt>
<trkpt lat="55.954044" lon="26.537792">
<ele>69.112366</ele>
<time>2010-06-20T08:11:07Z</time>
<desc>lat.=55.954044, lon.=26.537792, Alt.=69.112366m. Speed=0.432000m/h.</desc>
<speed>0.120000</speed>
</trkpt>
<trkpt lat="55.954044" lon="26.537790">
<ele>69.141663</ele>
<time>2010-06-20T08:11:08Z</time>
<desc>lat.=55.954044, lon.=26.537790, Alt.=69.141663m. Speed=0.540000m/h.</desc>
<speed>0.150000</speed>
</trkpt>
<trkpt lat="55.954044" lon="26.537786">
<ele>69.141663</ele>
<time>2010-06-20T08:11:09Z</time>
<desc>lat.=55.954044, lon.=26.537786, Alt.=69.141663m. Speed=0.324000m/h.</desc>
<speed>0.090000</speed>
</trkpt>
<trkpt lat="55.954048" lon="26.537786">
<ele>69.147522</ele>
<time>2010-06-20T08:11:10Z</time>
<desc>lat.=55.954048, lon.=26.537786, Alt.=69.147522m. Speed=0.252000m/h.</desc>
<speed>0.070000</speed>
</trkpt>
<trkpt lat="55.954048" lon="26.537785">
<ele>69.139709</ele>
<time>2010-06-20T08:11:11Z</time>
<desc>lat.=55.954048, lon.=26.537785, Alt.=69.139709m. Speed=0.252000m/h.</desc>
<speed>0.070000</speed>
</trkpt>
<trkpt lat="55.954048" lon="26.537783">
<ele>69.155334</ele>
<time>2010-06-20T08:11:12Z</time>
<desc>lat.=55.954048, lon.=26.537783, Alt.=69.155334m. Speed=0.324000m/h.</desc>
<speed>0.090000</speed>
</trkpt>
<trkpt lat="55.954048" lon="26.537781">
<ele>69.176819</ele>
<time>2010-06-20T08:11:13Z</time>
<desc>lat.=55.954048, lon.=26.537781, Alt.=69.176819m. Speed=0.180000m/h.</desc>
<speed>0.050000</speed>
</trkpt>
<trkpt lat="55.954048" lon="26.537781">
<ele>69.190491</ele>
<time>2010-06-20T08:11:14Z</time>
<desc>lat.=55.954048, lon.=26.537781, Alt.=69.190491m. Speed=0.108000m/h.</desc>
<speed>0.030000</speed>
</trkpt>
<trkpt lat="55.954048" lon="26.537781">
<ele>69.196350</ele>
<time>2010-06-20T08:11:15Z</time>
<desc>lat.=55.954048, lon.=26.537781, Alt.=69.196350m. Speed=0.288000m/h.</desc>
<speed>0.080000</speed>
</trkpt>
<trkpt lat="55.954048" lon="26.537781">
<ele>69.211975</ele>
<time>2010-06-20T08:11:16Z</time>
<desc>lat.=55.954048, lon.=26.537781, Alt.=69.211975m. Speed=0.540000m/h.</desc>
<speed>0.150000</speed>
</trkpt>
<trkpt lat="55.954048" lon="26.537781">
<ele>69.211975</ele>
<time>2010-06-20T08:11:17Z</time>
<desc>lat.=55.954048, lon.=26.537781, Alt.=69.211975m. Speed=0.360000m/h.</desc>
<speed>0.100000</speed>
</trkpt>
<trkpt lat="55.954048" lon="26.537783">
<ele>69.213928</ele>
<time>2010-06-20T08:11:18Z</time>
<desc>lat.=55.954048, lon.=26.537783, Alt.=69.213928m. Speed=0.180000m/h.</desc>
<speed>0.050000</speed>
</trkpt>
<trkpt lat="55.954048" lon="26.537783">
<ele>69.211975</ele>
<time>2010-06-20T08:11:19Z</time>
<desc>lat.=55.954048, lon.=26.537783, Alt.=69.211975m. Speed=0.432000m/h.</desc>
<speed>0.120000</speed>
</trkpt>
<trkpt lat="55.954044" lon="26.537783">
<ele>69.211975</ele>
<time>2010-06-20T08:11:20Z</time>
<desc>lat.=55.954044, lon.=26.537783, Alt.=69.211975m. Speed=0.324000m/h.</desc>
<speed>0.090000</speed>
</trkpt>
<trkpt lat="55.954044" lon="26.537783">
<ele>69.213928</ele>
<time>2010-06-20T08:11:21Z</time>
<desc>lat.=55.954044, lon.=26.537783, Alt.=69.213928m. Speed=0.396000m/h.</desc>
<speed>0.110000</speed>
</trkpt>
<trkpt lat="55.954044" lon="26.537783">
<ele>69.208069</ele>
<time>2010-06-20T08:11:22Z</time>
<desc>lat.=55.954044, lon.=26.537783, Alt.=69.208069m. Speed=0.180000m/h.</desc>
<speed>0.050000</speed>
</trkpt>
<trkpt lat="55.954044" lon="26.537783">
<ele>69.210022</ele>
<time>2010-06-20T08:11:23Z</time>
<desc>lat.=55.954044, lon.=26.537783, Alt.=69.210022m. Speed=0.144000m/h.</desc>
<speed>0.040000</speed>
</trkpt>
<trkpt lat="55.954044" lon="26.537781">
<ele>69.223694</ele>
<time>2010-06-20T08:11:24Z</time>
<desc>lat.=55.954044, lon.=26.537781, Alt.=69.223694m. Speed=0.180000m/h.</desc>
<speed>0.050000</speed>
</trkpt>
<trkpt lat="55.954044" lon="26.537781">
<ele>69.211975</ele>
<time>2010-06-20T08:11:25Z</time>
<desc>lat.=55.954044, lon.=26.537781, Alt.=69.211975m. Speed=0.360000m/h.</desc>
<speed>0.100000</speed>
</trkpt>
<trkpt lat="55.954044" lon="26.537781">
<ele>69.221741</ele>
<time>2010-06-20T08:11:26Z</time>
<desc>lat.=55.954044, lon.=26.537781, Alt.=69.221741m. Speed=0.360000m/h.</desc>
<speed>0.100000</speed>
</trkpt>
<trkpt lat="55.954048" lon="26.537781">
<ele>69.272522</ele>
<time>2010-06-20T08:11:27Z</time>
<desc>lat.=55.954048, lon.=26.537781, Alt.=69.272522m. Speed=0.360000m/h.</desc>
<speed>0.100000</speed>
</trkpt>
<trkpt lat="55.954048" lon="26.537783">
<ele>69.249084</ele>
<time>2010-06-20T08:11:28Z</time>
<desc>lat.=55.954048, lon.=26.537783, Alt.=69.249084m. Speed=0.900000m/h.</desc>
<speed>0.250000</speed>
</trkpt>
<trkpt lat="55.954052" lon="26.537786">
<ele>69.270569</ele>
<time>2010-06-20T08:11:29Z</time>
<desc>lat.=55.954052, lon.=26.537786, Alt.=69.270569m. Speed=0.612000m/h.</desc>
<speed>0.170000</speed>
</trkpt>
<trkpt lat="55.954052" lon="26.537790">
<ele>69.338928</ele>
<time>2010-06-20T08:11:30Z</time>
<desc>lat.=55.954052, lon.=26.537790, Alt.=69.338928m. Speed=0.720000m/h.</desc>
<speed>0.200000</speed>
</trkpt>
<trkpt lat="55.954056" lon="26.537792">
<ele>69.407288</ele>
<time>2010-06-20T08:11:31Z</time>
<desc>lat.=55.954056, lon.=26.537792, Alt.=69.407288m. Speed=0.540000m/h.</desc>
<speed>0.150000</speed>
</trkpt>
<trkpt lat="55.954056" lon="26.537790">
<ele>69.444397</ele>
<time>2010-06-20T08:11:32Z</time>
<desc>lat.=55.954056, lon.=26.537790, Alt.=69.444397m. Speed=0.540000m/h.</desc>
<speed>0.150000</speed>
</trkpt>
<trkpt lat="55.954056" lon="26.537788">
<ele>69.510803</ele>
<time>2010-06-20T08:11:33Z</time>
<desc>lat.=55.954056, lon.=26.537788, Alt.=69.510803m. Speed=0.000000m/h.</desc>
<speed>0.000000</speed>
</trkpt>
<trkpt lat="55.954056" lon="26.537788">
<ele>69.501038</ele>
<time>2010-06-20T08:11:34Z</time>
<desc>lat.=55.954056, lon.=26.537788, Alt.=69.501038m. Speed=0.144000m/h.</desc>
<speed>0.040000</speed>
</trkpt>
<trkpt lat="55.954056" lon="26.537788">
<ele>69.499084</ele>
<time>2010-06-20T08:11:35Z</time>
<desc>lat.=55.954056, lon.=26.537788, Alt.=69.499084m. Speed=0.288000m/h.</desc>
<speed>0.080000</speed>
</trkpt>
<trkpt lat="55.954056" lon="26.537790">
<ele>69.499084</ele>
<time>2010-06-20T08:11:36Z</time>
<desc>lat.=55.954056, lon.=26.537790, Alt.=69.499084m. Speed=0.108000m/h.</desc>
<speed>0.030000</speed>
</trkpt>
<trkpt lat="55.954056" lon="26.537790">
<ele>69.479553</ele>
<time>2010-06-20T08:11:37Z</time>
<desc>lat.=55.954056, lon.=26.537790, Alt.=69.479553m. Speed=0.000000m/h.</desc>
<speed>0.000000</speed>
</trkpt>
<trkpt lat="55.954056" lon="26.537790">
<ele>69.465881</ele>
<time>2010-06-20T08:11:38Z</time>
<desc>lat.=55.954056, lon.=26.537790, Alt.=69.465881m. Speed=0.108000m/h.</desc>
<speed>0.030000</speed>
</trkpt>
<trkpt lat="55.954056" lon="26.537790">
<ele>69.438538</ele>
<time>2010-06-20T08:11:39Z</time>
<desc>lat.=55.954056, lon.=26.537790, Alt.=69.438538m. Speed=0.036000m/h.</desc>
<speed>0.010000</speed>
</trkpt>
<trkpt lat="55.954056" lon="26.537790">
<ele>69.461975</ele>
<time>2010-06-20T08:11:40Z</time>
<desc>lat.=55.954056, lon.=26.537790, Alt.=69.461975m. Speed=0.144000m/h.</desc>
<speed>0.040000</speed>
</trkpt>
<trkpt lat="55.954060" lon="26.537790">
<ele>69.456116</ele>
<time>2010-06-20T08:11:41Z</time>
<desc>lat.=55.954060, lon.=26.537790, Alt.=69.456116m. Speed=0.252000m/h.</desc>
<speed>0.070000</speed>
</trkpt>
<trkpt lat="55.954060" lon="26.537788">
<ele>69.469788</ele>
<time>2010-06-20T08:11:42Z</time>
<desc>lat.=55.954060, lon.=26.537788, Alt.=69.469788m. Speed=0.504000m/h.</desc>
<speed>0.140000</speed>
</trkpt>
<trkpt lat="55.954060" lon="26.537788">
<ele>69.467834</ele>
<time>2010-06-20T08:11:43Z</time>
<desc>lat.=55.954060, lon.=26.537788, Alt.=69.467834m. Speed=0.216000m/h.</desc>
<speed>0.060000</speed>
</trkpt>
<trkpt lat="55.954063" lon="26.537788">
<ele>69.502991</ele>
<time>2010-06-20T08:11:44Z</time>
<desc>lat.=55.954063, lon.=26.537788, Alt.=69.502991m. Speed=0.468000m/h.</desc>
<speed>0.130000</speed>
</trkpt>
<trkpt lat="55.954063" lon="26.537786">
<ele>69.526428</ele>
<time>2010-06-20T08:11:45Z</time>
<desc>lat.=55.954063, lon.=26.537786, Alt.=69.526428m. Speed=0.324000m/h.</desc>
<speed>0.090000</speed>
</trkpt>
<trkpt lat="55.954067" lon="26.537786">
<ele>69.540100</ele>
<time>2010-06-20T08:11:46Z</time>
<desc>lat.=55.954067, lon.=26.537786, Alt.=69.540100m. Speed=0.108000m/h.</desc>
<speed>0.030000</speed>
</trkpt>
<trkpt lat="55.954067" lon="26.537788">
<ele>69.545959</ele>
<time>2010-06-20T08:11:47Z</time>
<desc>lat.=55.954067, lon.=26.537788, Alt.=69.545959m. Speed=0.252000m/h.</desc>
<speed>0.070000</speed>
</trkpt>
<trkpt lat="55.954067" lon="26.537786">
<ele>69.551819</ele>
<time>2010-06-20T08:11:48Z</time>
<desc>lat.=55.954067, lon.=26.537786, Alt.=69.551819m. Speed=0.036000m/h.</desc>
<speed>0.010000</speed>
</trkpt>
<trkpt lat="55.954067" lon="26.537786">
<ele>69.588928</ele>
<time>2010-06-20T08:11:49Z</time>
<desc>lat.=55.954067, lon.=26.537786, Alt.=69.588928m. Speed=0.360000m/h.</desc>
<speed>0.100000</speed>
</trkpt>
<trkpt lat="55.954071" lon="26.537788">
<ele>69.641663</ele>
<time>2010-06-20T08:11:50Z</time>
<desc>lat.=55.954071, lon.=26.537788, Alt.=69.641663m. Speed=0.180000m/h.</desc>
<speed>0.050000</speed>
</trkpt>
<trkpt lat="55.954071" lon="26.537788">
<ele>69.678772</ele>
<time>2010-06-20T08:11:51Z</time>
<desc>lat.=55.954071, lon.=26.537788, Alt.=69.678772m. Speed=0.396000m/h.</desc>
<speed>0.110000</speed>
</trkpt>
<trkpt lat="55.954071" lon="26.537790">
<ele>69.723694</ele>
<time>2010-06-20T08:11:52Z</time>
<desc>lat.=55.954071, lon.=26.537790, Alt.=69.723694m. Speed=0.612000m/h.</desc>
<speed>0.170000</speed>
</trkpt>
<trkpt lat="55.954075" lon="26.537790">
<ele>69.766663</ele>
<time>2010-06-20T08:11:53Z</time>
<desc>lat.=55.954075, lon.=26.537790, Alt.=69.766663m. Speed=0.792000m/h.</desc>
<speed>0.220000</speed>
</trkpt>
<trkpt lat="55.954079" lon="26.537788">
<ele>69.852600</ele>
<time>2010-06-20T08:11:54Z</time>
<desc>lat.=55.954079, lon.=26.537788, Alt.=69.852600m. Speed=0.612000m/h.</desc>
<speed>0.170000</speed>
</trkpt>
<trkpt lat="55.954079" lon="26.537786">
<ele>69.934631</ele>
<time>2010-06-20T08:11:55Z</time>
<desc>lat.=55.954079, lon.=26.537786, Alt.=69.934631m. Speed=0.036000m/h.</desc>
<speed>0.010000</speed>
</trkpt>
<trkpt lat="55.954082" lon="26.537786">
<ele>70.030334</ele>
<time>2010-06-20T08:11:56Z</time>
<desc>lat.=55.954082, lon.=26.537786, Alt.=70.030334m. Speed=0.036000m/h.</desc>
<speed>0.010000</speed>
</trkpt>
<trkpt lat="55.954082" lon="26.537786">
<ele>70.047913</ele>
<time>2010-06-20T08:11:57Z</time>
<desc>lat.=55.954082, lon.=26.537786, Alt.=70.047913m. Speed=0.036000m/h.</desc>
<speed>0.010000</speed>
</trkpt>
<trkpt lat="55.954082" lon="26.537788">
<ele>70.122131</ele>
<time>2010-06-20T08:11:58Z</time>
<desc>lat.=55.954082, lon.=26.537788, Alt.=70.122131m. Speed=0.288000m/h.</desc>
<speed>0.080000</speed>
</trkpt>
<trkpt lat="55.954082" lon="26.537790">
<ele>70.200256</ele>
<time>2010-06-20T08:11:59Z</time>
<desc>lat.=55.954082, lon.=26.537790, Alt.=70.200256m. Speed=0.468000m/h.</desc>
<speed>0.130000</speed>
</trkpt>
<trkpt lat="55.954082" lon="26.537790">
<ele>70.211975</ele>
<time>2010-06-20T08:12:00Z</time>
<desc>lat.=55.954082, lon.=26.537790, Alt.=70.211975m. Speed=0.072000m/h.</desc>
<speed>0.020000</speed>
</trkpt>
<trkpt lat="55.954082" lon="26.537792">
<ele>70.299866</ele>
<time>2010-06-20T08:12:01Z</time>
<desc>lat.=55.954082, lon.=26.537792, Alt.=70.299866m. Speed=0.180000m/h.</desc>
<speed>0.050000</speed>
</trkpt>
<trkpt lat="55.954082" lon="26.537790">
<ele>70.301819</ele>
<time>2010-06-20T08:12:02Z</time>
<desc>lat.=55.954082, lon.=26.537790, Alt.=70.301819m. Speed=0.216000m/h.</desc>
<speed>0.060000</speed>
</trkpt>
<trkpt lat="55.954086" lon="26.537792">
<ele>70.344788</ele>
<time>2010-06-20T08:12:03Z</time>
<desc>lat.=55.954086, lon.=26.537792, Alt.=70.344788m. Speed=0.180000m/h.</desc>
<speed>0.050000</speed>
</trkpt>
<trkpt lat="55.954086" lon="26.537790">
<ele>70.467834</ele>
<time>2010-06-20T08:12:04Z</time>
<desc>lat.=55.954086, lon.=26.537790, Alt.=70.467834m. Speed=0.576000m/h.</desc>
<speed>0.160000</speed>
</trkpt>
<trkpt lat="55.954090" lon="26.537788">
<ele>70.577209</ele>
<time>2010-06-20T08:12:05Z</time>
<desc>lat.=55.954090, lon.=26.537788, Alt.=70.577209m. Speed=0.612000m/h.</desc>
<speed>0.170000</speed>
</trkpt>
<trkpt lat="55.954090" lon="26.537790">
<ele>70.602600</ele>
<time>2010-06-20T08:12:06Z</time>
<desc>lat.=55.954090, lon.=26.537790, Alt.=70.602600m. Speed=0.324000m/h.</desc>
<speed>0.090000</speed>
</trkpt>
<trkpt lat="55.954090" lon="26.537792">
<ele>70.614319</ele>
<time>2010-06-20T08:12:07Z</time>
<desc>lat.=55.954090, lon.=26.537792, Alt.=70.614319m. Speed=0.180000m/h.</desc>
<speed>0.050000</speed>
</trkpt>
<trkpt lat="55.954094" lon="26.537792">
<ele>70.618225</ele>
<time>2010-06-20T08:12:08Z</time>
<desc>lat.=55.954094, lon.=26.537792, Alt.=70.618225m. Speed=0.324000m/h.</desc>
<speed>0.090000</speed>
</trkpt>
<trkpt lat="55.954094" lon="26.537792">
<ele>70.653381</ele>
<time>2010-06-20T08:12:09Z</time>
<desc>lat.=55.954094, lon.=26.537792, Alt.=70.653381m. Speed=0.072000m/h.</desc>
<speed>0.020000</speed>
</trkpt>
<trkpt lat="55.954094" lon="26.537794">
<ele>70.682678</ele>
<time>2010-06-20T08:12:10Z</time>
<desc>lat.=55.954094, lon.=26.537794, Alt.=70.682678m. Speed=0.216000m/h.</desc>
<speed>0.060000</speed>
</trkpt>
<trkpt lat="55.954094" lon="26.537794">
<ele>70.749084</ele>
<time>2010-06-20T08:12:11Z</time>
<desc>lat.=55.954094, lon.=26.537794, Alt.=70.749084m. Speed=0.216000m/h.</desc>
<speed>0.060000</speed>
</trkpt>
<trkpt lat="55.954094" lon="26.537796">
<ele>70.745178</ele>
<time>2010-06-20T08:12:12Z</time>
<desc>lat.=55.954094, lon.=26.537796, Alt.=70.745178m. Speed=0.396000m/h.</desc>
<speed>0.110000</speed>
</trkpt>
<trkpt lat="55.954098" lon="26.537798">
<ele>70.715881</ele>
<time>2010-06-20T08:12:13Z</time>
<desc>lat.=55.954098, lon.=26.537798, Alt.=70.715881m. Speed=0.612000m/h.</desc>
<speed>0.170000</speed>
</trkpt>
<trkpt lat="55.954098" lon="26.537800">
<ele>70.710022</ele>
<time>2010-06-20T08:12:14Z</time>
<desc>lat.=55.954098, lon.=26.537800, Alt.=70.710022m. Speed=0.180000m/h.</desc>
<speed>0.050000</speed>
</trkpt>
<trkpt lat="55.954098" lon="26.537802">
<ele>70.739319</ele>
<time>2010-06-20T08:12:15Z</time>
<desc>lat.=55.954098, lon.=26.537802, Alt.=70.739319m. Speed=0.036000m/h.</desc>
<speed>0.010000</speed>
</trkpt>
<trkpt lat="55.954102" lon="26.537802">
<ele>70.752991</ele>
<time>2010-06-20T08:12:16Z</time>
<desc>lat.=55.954102, lon.=26.537802, Alt.=70.752991m. Speed=0.036000m/h.</desc>
<speed>0.010000</speed>
</trkpt>
<trkpt lat="55.954102" lon="26.537804">
<ele>70.776428</ele>
<time>2010-06-20T08:12:17Z</time>
<desc>lat.=55.954102, lon.=26.537804, Alt.=70.776428m. Speed=0.108000m/h.</desc>
<speed>0.030000</speed>
</trkpt>
<trkpt lat="55.954102" lon="26.537804">
<ele>70.815491</ele>
<time>2010-06-20T08:12:18Z</time>
<desc>lat.=55.954102, lon.=26.537804, Alt.=70.815491m. Speed=0.036000m/h.</desc>
<speed>0.010000</speed>
</trkpt>
<trkpt lat="55.954102" lon="26.537804">
<ele>70.844788</ele>
<time>2010-06-20T08:12:19Z</time>
<desc>lat.=55.954102, lon.=26.537804, Alt.=70.844788m. Speed=0.468000m/h.</desc>
<speed>0.130000</speed>
</trkpt>
<trkpt lat="55.954102" lon="26.537804">
<ele>70.852600</ele>
<time>2010-06-20T08:12:20Z</time>
<desc>lat.=55.954102, lon.=26.537804, Alt.=70.852600m. Speed=0.252000m/h.</desc>
<speed>0.070000</speed>
</trkpt>
<trkpt lat="55.954105" lon="26.537806">
<ele>70.887756</ele>
<time>2010-06-20T08:12:21Z</time>
<desc>lat.=55.954105, lon.=26.537806, Alt.=70.887756m. Speed=0.324000m/h.</desc>
<speed>0.090000</speed>
</trkpt>
<trkpt lat="55.954105" lon="26.537806">
<ele>70.958069</ele>
<time>2010-06-20T08:12:22Z</time>
<desc>lat.=55.954105, lon.=26.537806, Alt.=70.958069m. Speed=0.324000m/h.</desc>
<speed>0.090000</speed>
</trkpt>
<trkpt lat="55.954105" lon="26.537807">
<ele>70.995178</ele>
<time>2010-06-20T08:12:23Z</time>
<desc>lat.=55.954105, lon.=26.537807, Alt.=70.995178m. Speed=0.504000m/h.</desc>
<speed>0.140000</speed>
</trkpt>
<trkpt lat="55.954109" lon="26.537809">
<ele>71.094788</ele>
<time>2010-06-20T08:12:24Z</time>
<desc>lat.=55.954109, lon.=26.537809, Alt.=71.094788m. Speed=0.540000m/h.</desc>
<speed>0.150000</speed>
</trkpt>
<trkpt lat="55.954109" lon="26.537811">
<ele>71.219788</ele>
<time>2010-06-20T08:12:25Z</time>
<desc>lat.=55.954109, lon.=26.537811, Alt.=71.219788m. Speed=0.540000m/h.</desc>
<speed>0.150000</speed>
</trkpt>
<trkpt lat="55.954113" lon="26.537815">
<ele>71.247131</ele>
<time>2010-06-20T08:12:26Z</time>
<desc>lat.=55.954113, lon.=26.537815, Alt.=71.247131m. Speed=0.324000m/h.</desc>
<speed>0.090000</speed>
</trkpt>
<trkpt lat="55.954113" lon="26.537817">
<ele>71.295959</ele>
<time>2010-06-20T08:12:27Z</time>
<desc>lat.=55.954113, lon.=26.537817, Alt.=71.295959m. Speed=0.180000m/h.</desc>
<speed>0.050000</speed>
</trkpt>
<trkpt lat="55.954113" lon="26.537817">
<ele>71.381897</ele>
<time>2010-06-20T08:12:28Z</time>
<desc>lat.=55.954113, lon.=26.537817, Alt.=71.381897m. Speed=0.360000m/h.</desc>
<speed>0.100000</speed>
</trkpt>
<trkpt lat="55.954113" lon="26.537817">
<ele>71.395569</ele>
<time>2010-06-20T08:12:29Z</time>
<desc>lat.=55.954113, lon.=26.537817, Alt.=71.395569m. Speed=0.072000m/h.</desc>
<speed>0.020000</speed>
</trkpt>
<trkpt lat="55.954113" lon="26.537815">
<ele>71.417053</ele>
<time>2010-06-20T08:12:30Z</time>
<desc>lat.=55.954113, lon.=26.537815, Alt.=71.417053m. Speed=0.180000m/h.</desc>
<speed>0.050000</speed>
</trkpt>
<trkpt lat="55.954113" lon="26.537815">
<ele>71.426819</ele>
<time>2010-06-20T08:12:31Z</time>
<desc>lat.=55.954113, lon.=26.537815, Alt.=71.426819m. Speed=0.072000m/h.</desc>
<speed>0.020000</speed>
</trkpt>
<trkpt lat="55.954113" lon="26.537815">
<ele>71.426819</ele>
<time>2010-06-20T08:12:32Z</time>
<desc>lat.=55.954113, lon.=26.537815, Alt.=71.426819m. Speed=0.288000m/h.</desc>
<speed>0.080000</speed>
</trkpt>
<trkpt lat="55.954117" lon="26.537815">
<ele>71.446350</ele>
<time>2010-06-20T08:12:33Z</time>
<desc>lat.=55.954117, lon.=26.537815, Alt.=71.446350m. Speed=0.108000m/h.</desc>
<speed>0.030000</speed>
</trkpt>
<trkpt lat="55.954117" lon="26.537815">
<ele>71.444397</ele>
<time>2010-06-20T08:12:34Z</time>
<desc>lat.=55.954117, lon.=26.537815, Alt.=71.444397m. Speed=0.072000m/h.</desc>
<speed>0.020000</speed>
</trkpt>
<trkpt lat="55.954117" lon="26.537815">
<ele>71.446350</ele>
<time>2010-06-20T08:12:35Z</time>
<desc>lat.=55.954117, lon.=26.537815, Alt.=71.446350m. Speed=0.216000m/h.</desc>
<speed>0.060000</speed>
</trkpt>
<trkpt lat="55.954117" lon="26.537815">
<ele>71.446350</ele>
<time>2010-06-20T08:12:36Z</time>
<desc>lat.=55.954117, lon.=26.537815, Alt.=71.446350m. Speed=0.108000m/h.</desc>
<speed>0.030000</speed>
</trkpt>
<trkpt lat="55.954117" lon="26.537815">
<ele>71.436584</ele>
<time>2010-06-20T08:12:37Z</time>
<desc>lat.=55.954117, lon.=26.537815, Alt.=71.436584m. Speed=0.144000m/h.</desc>
<speed>0.040000</speed>
</trkpt>
<trkpt lat="55.954121" lon="26.537815">
<ele>71.491272</ele>
<time>2010-06-20T08:12:38Z</time>
<desc>lat.=55.954121, lon.=26.537815, Alt.=71.491272m. Speed=0.144000m/h.</desc>
<speed>0.040000</speed>
</trkpt>
<trkpt lat="55.954121" lon="26.537815">
<ele>71.573303</ele>
<time>2010-06-20T08:12:39Z</time>
<desc>lat.=55.954121, lon.=26.537815, Alt.=71.573303m. Speed=0.000000m/h.</desc>
<speed>0.000000</speed>
</trkpt>
<trkpt lat="55.954121" lon="26.537815">
<ele>71.645569</ele>
<time>2010-06-20T08:12:40Z</time>
<desc>lat.=55.954121, lon.=26.537815, Alt.=71.645569m. Speed=0.108000m/h.</desc>
<speed>0.030000</speed>
</trkpt>
<trkpt lat="55.954124" lon="26.537817">
<ele>71.735413</ele>
<time>2010-06-20T08:12:41Z</time>
<desc>lat.=55.954124, lon.=26.537817, Alt.=71.735413m. Speed=0.072000m/h.</desc>
<speed>0.020000</speed>
</trkpt>
<trkpt lat="55.954124" lon="26.537815">
<ele>71.795959</ele>
<time>2010-06-20T08:12:42Z</time>
<desc>lat.=55.954124, lon.=26.537815, Alt.=71.795959m. Speed=0.144000m/h.</desc>
<speed>0.040000</speed>
</trkpt>
<trkpt lat="55.954124" lon="26.537815">
<ele>71.856506</ele>
<time>2010-06-20T08:12:43Z</time>
<desc>lat.=55.954124, lon.=26.537815, Alt.=71.856506m. Speed=0.072000m/h.</desc>
<speed>0.020000</speed>
</trkpt>
<trkpt lat="55.954124" lon="26.537815">
<ele>71.938538</ele>
<time>2010-06-20T08:12:44Z</time>
<desc>lat.=55.954124, lon.=26.537815, Alt.=71.938538m. Speed=0.144000m/h.</desc>
<speed>0.040000</speed>
</trkpt>
<trkpt lat="55.954124" lon="26.537815">
<ele>71.989319</ele>
<time>2010-06-20T08:12:45Z</time>
<desc>lat.=55.954124, lon.=26.537815, Alt.=71.989319m. Speed=0.072000m/h.</desc>
<speed>0.020000</speed>
</trkpt>
<trkpt lat="55.954124" lon="26.537815">
<ele>72.040100</ele>
<time>2010-06-20T08:12:46Z</time>
<desc>lat.=55.954124, lon.=26.537815, Alt.=72.040100m. Speed=0.576000m/h.</desc>
<speed>0.160000</speed>
</trkpt>
<trkpt lat="55.954124" lon="26.537815">
<ele>72.100647</ele>
<time>2010-06-20T08:12:47Z</time>
<desc>lat.=55.954124, lon.=26.537815, Alt.=72.100647m. Speed=0.180000m/h.</desc>
<speed>0.050000</speed>
</trkpt>
<trkpt lat="55.954124" lon="26.537813">
<ele>72.135803</ele>
<time>2010-06-20T08:12:48Z</time>
<desc>lat.=55.954124, lon.=26.537813, Alt.=72.135803m. Speed=0.072000m/h.</desc>
<speed>0.020000</speed>
</trkpt>
<trkpt lat="55.954124" lon="26.537815">
<ele>72.135803</ele>
<time>2010-06-20T08:12:49Z</time>
<desc>lat.=55.954124, lon.=26.537815, Alt.=72.135803m. Speed=0.252000m/h.</desc>
<speed>0.070000</speed>
</trkpt>
<trkpt lat="55.954124" lon="26.537815">
<ele>72.131897</ele>
<time>2010-06-20T08:12:50Z</time>
<desc>lat.=55.954124, lon.=26.537815, Alt.=72.131897m. Speed=0.036000m/h.</desc>
<speed>0.010000</speed>
</trkpt>
<trkpt lat="55.954124" lon="26.537815">
<ele>72.182678</ele>
<time>2010-06-20T08:12:51Z</time>
<desc>lat.=55.954124, lon.=26.537815, Alt.=72.182678m. Speed=0.036000m/h.</desc>
<speed>0.010000</speed>
</trkpt>
<trkpt lat="55.954124" lon="26.537815">
<ele>72.192444</ele>
<time>2010-06-20T08:12:52Z</time>
<desc>lat.=55.954124, lon.=26.537815, Alt.=72.192444m. Speed=0.000000m/h.</desc>
<speed>0.000000</speed>
</trkpt>
<trkpt lat="55.954124" lon="26.537815">
<ele>72.192444</ele>
<time>2010-06-20T08:12:53Z</time>
<desc>lat.=55.954124, lon.=26.537815, Alt.=72.192444m. Speed=0.072000m/h.</desc>
<speed>0.020000</speed>
</trkpt>
<trkpt lat="55.954124" lon="26.537815">
<ele>72.208069</ele>
<time>2010-06-20T08:12:54Z</time>
<desc>lat.=55.954124, lon.=26.537815, Alt.=72.208069m. Speed=0.000000m/h.</desc>
<speed>0.000000</speed>
</trkpt>
<trkpt lat="55.954124" lon="26.537815">
<ele>72.211975</ele>
<time>2010-06-20T08:12:55Z</time>
<desc>lat.=55.954124, lon.=26.537815, Alt.=72.211975m. Speed=0.000000m/h.</desc>
<speed>0.000000</speed>
</trkpt>
<trkpt lat="55.954124" lon="26.537815">
<ele>72.282288</ele>
<time>2010-06-20T08:12:56Z</time>
<desc>lat.=55.954124, lon.=26.537815, Alt.=72.282288m. Speed=0.000000m/h.</desc>
<speed>0.000000</speed>
</trkpt>
<trkpt lat="55.954124" lon="26.537815">
<ele>72.323303</ele>
<time>2010-06-20T08:12:57Z</time>
<desc>lat.=55.954124, lon.=26.537815, Alt.=72.323303m. Speed=0.000000m/h.</desc>
<speed>0.000000</speed>
</trkpt>
<trkpt lat="55.954124" lon="26.537815">
<ele>72.348694</ele>
<time>2010-06-20T08:12:58Z</time>
<desc>lat.=55.954124, lon.=26.537815, Alt.=72.348694m. Speed=0.036000m/h.</desc>
<speed>0.010000</speed>
</trkpt>
<trkpt lat="55.954124" lon="26.537815">
<ele>72.358459</ele>
<time>2010-06-20T08:12:59Z</time>
<desc>lat.=55.954124, lon.=26.537815, Alt.=72.358459m. Speed=0.036000m/h.</desc>
<speed>0.010000</speed>
</trkpt>
<trkpt lat="55.954128" lon="26.537815">
<ele>72.440491</ele>
<time>2010-06-20T08:13:00Z</time>
<desc>lat.=55.954128, lon.=26.537815, Alt.=72.440491m. Speed=0.072000m/h.</desc>
<speed>0.020000</speed>
</trkpt>
<trkpt lat="55.954128" lon="26.537817">
<ele>72.530334</ele>
<time>2010-06-20T08:13:01Z</time>
<desc>lat.=55.954128, lon.=26.537817, Alt.=72.530334m. Speed=0.072000m/h.</desc>
<speed>0.020000</speed>
</trkpt>
<trkpt lat="55.954128" lon="26.537817">
<ele>72.571350</ele>
<time>2010-06-20T08:13:02Z</time>
<desc>lat.=55.954128, lon.=26.537817, Alt.=72.571350m. Speed=0.036000m/h.</desc>
<speed>0.010000</speed>
</trkpt>
<trkpt lat="55.954128" lon="26.537817">
<ele>72.592834</ele>
<time>2010-06-20T08:13:03Z</time>
<desc>lat.=55.954128, lon.=26.537817, Alt.=72.592834m. Speed=0.072000m/h.</desc>
<speed>0.020000</speed>
</trkpt>
<trkpt lat="55.954128" lon="26.537817">
<ele>72.614319</ele>
<time>2010-06-20T08:13:04Z</time>
<desc>lat.=55.954128, lon.=26.537817, Alt.=72.614319m. Speed=0.036000m/h.</desc>
<speed>0.010000</speed>
</trkpt>
<trkpt lat="55.954128" lon="26.537817">
<ele>72.629944</ele>
<time>2010-06-20T08:13:05Z</time>
<desc>lat.=55.954128, lon.=26.537817, Alt.=72.629944m. Speed=0.036000m/h.</desc>
<speed>0.010000</speed>
</trkpt>
<trkpt lat="55.954128" lon="26.537817">
<ele>72.653381</ele>
<time>2010-06-20T08:13:06Z</time>
<desc>lat.=55.954128, lon.=26.537817, Alt.=72.653381m. Speed=0.072000m/h.</desc>
<speed>0.020000</speed>
</trkpt>
<trkpt lat="55.954128" lon="26.537819">
<ele>72.674866</ele>
<time>2010-06-20T08:13:07Z</time>
<desc>lat.=55.954128, lon.=26.537819, Alt.=72.674866m. Speed=0.036000m/h.</desc>
<speed>0.010000</speed>
</trkpt>
<trkpt lat="55.954128" lon="26.537819">
<ele>72.694397</ele>
<time>2010-06-20T08:13:08Z</time>
<desc>lat.=55.954128, lon.=26.537819, Alt.=72.694397m. Speed=0.036000m/h.</desc>
<speed>0.010000</speed>
</trkpt>
<trkpt lat="55.954128" lon="26.537821">
<ele>72.715881</ele>
<time>2010-06-20T08:13:09Z</time>
<desc>lat.=55.954128, lon.=26.537821, Alt.=72.715881m. Speed=0.072000m/h.</desc>
<speed>0.020000</speed>
</trkpt>
<trkpt lat="55.954128" lon="26.537821">
<ele>72.743225</ele>
<time>2010-06-20T08:13:10Z</time>
<desc>lat.=55.954128, lon.=26.537821, Alt.=72.743225m. Speed=0.072000m/h.</desc>
<speed>0.020000</speed>
</trkpt>
<trkpt lat="55.954128" lon="26.537823">
<ele>72.782288</ele>
<time>2010-06-20T08:13:11Z</time>
<desc>lat.=55.954128, lon.=26.537823, Alt.=72.782288m. Speed=0.000000m/h.</desc>
<speed>0.000000</speed>
</trkpt>
<trkpt lat="55.954128" lon="26.537823">
<ele>72.842834</ele>
<time>2010-06-20T08:13:12Z</time>
<desc>lat.=55.954128, lon.=26.537823, Alt.=72.842834m. Speed=0.072000m/h.</desc>
<speed>0.020000</speed>
</trkpt>
<trkpt lat="55.954128" lon="26.537825">
<ele>72.930725</ele>
<time>2010-06-20T08:13:13Z</time>
<desc>lat.=55.954128, lon.=26.537825, Alt.=72.930725m. Speed=0.180000m/h.</desc>
<speed>0.050000</speed>
</trkpt>
<trkpt lat="55.954128" lon="26.537825">
<ele>72.969788</ele>
<time>2010-06-20T08:13:14Z</time>
<desc>lat.=55.954128, lon.=26.537825, Alt.=72.969788m. Speed=0.180000m/h.</desc>
<speed>0.050000</speed>
</trkpt>
<trkpt lat="55.954128" lon="26.537825">
<ele>73.030334</ele>
<time>2010-06-20T08:13:15Z</time>
<desc>lat.=55.954128, lon.=26.537825, Alt.=73.030334m. Speed=0.180000m/h.</desc>
<speed>0.050000</speed>
</trkpt>
<trkpt lat="55.954128" lon="26.537825">
<ele>73.055725</ele>
<time>2010-06-20T08:13:16Z</time>
<desc>lat.=55.954128, lon.=26.537825, Alt.=73.055725m. Speed=0.216000m/h.</desc>
<speed>0.060000</speed>
</trkpt>
<trkpt lat="55.954128" lon="26.537825">
<ele>73.086975</ele>
<time>2010-06-20T08:13:17Z</time>
<desc>lat.=55.954128, lon.=26.537825, Alt.=73.086975m. Speed=0.180000m/h.</desc>
<speed>0.050000</speed>
</trkpt>
<trkpt lat="55.954128" lon="26.537825">
<ele>73.126038</ele>
<time>2010-06-20T08:13:18Z</time>
<desc>lat.=55.954128, lon.=26.537825, Alt.=73.126038m. Speed=0.180000m/h.</desc>
<speed>0.050000</speed>
</trkpt>
<trkpt lat="55.954128" lon="26.537825">
<ele>73.174866</ele>
<time>2010-06-20T08:13:19Z</time>
<desc>lat.=55.954128, lon.=26.537825, Alt.=73.174866m. Speed=0.180000m/h.</desc>
<speed>0.050000</speed>
</trkpt>
<trkpt lat="55.954128" lon="26.537825">
<ele>73.206116</ele>
<time>2010-06-20T08:13:20Z</time>
<desc>lat.=55.954128, lon.=26.537825, Alt.=73.206116m. Speed=0.180000m/h.</desc>
<speed>0.050000</speed>
</trkpt>
<trkpt lat="55.954132" lon="26.537823">
<ele>73.241272</ele>
<time>2010-06-20T08:13:21Z</time>
<desc>lat.=55.954132, lon.=26.537823, Alt.=73.241272m. Speed=0.180000m/h.</desc>
<speed>0.050000</speed>
</trkpt>
<trkpt lat="55.954132" lon="26.537823">
<ele>73.301819</ele>
<time>2010-06-20T08:13:22Z</time>
<desc>lat.=55.954132, lon.=26.537823, Alt.=73.301819m. Speed=0.180000m/h.</desc>
<speed>0.050000</speed>
</trkpt>
<trkpt lat="55.954132" lon="26.537823">
<ele>73.376038</ele>
<time>2010-06-20T08:13:23Z</time>
<desc>lat.=55.954132, lon.=26.537823, Alt.=73.376038m. Speed=0.216000m/h.</desc>
<speed>0.060000</speed>
</trkpt>
<trkpt lat="55.954136" lon="26.537823">
<ele>73.461975</ele>
<time>2010-06-20T08:13:24Z</time>
<desc>lat.=55.954136, lon.=26.537823, Alt.=73.461975m. Speed=0.108000m/h.</desc>
<speed>0.030000</speed>
</trkpt>
<trkpt lat="55.954136" lon="26.537823">
<ele>73.499084</ele>
<time>2010-06-20T08:13:25Z</time>
<desc>lat.=55.954136, lon.=26.537823, Alt.=73.499084m. Speed=0.108000m/h.</desc>
<speed>0.030000</speed>
</trkpt>
<trkpt lat="55.954136" lon="26.537823">
<ele>73.547913</ele>
<time>2010-06-20T08:13:26Z</time>
<desc>lat.=55.954136, lon.=26.537823, Alt.=73.547913m. Speed=0.000000m/h.</desc>
<speed>0.000000</speed>
</trkpt>
<trkpt lat="55.954136" lon="26.537823">
<ele>73.581116</ele>
<time>2010-06-20T08:13:27Z</time>
<desc>lat.=55.954136, lon.=26.537823, Alt.=73.581116m. Speed=0.072000m/h.</desc>
<speed>0.020000</speed>
</trkpt>
<trkpt lat="55.954136" lon="26.537823">
<ele>73.665100</ele>
<time>2010-06-20T08:13:28Z</time>
<desc>lat.=55.954136, lon.=26.537823, Alt.=73.665100m. Speed=0.000000m/h.</desc>
<speed>0.000000</speed>
</trkpt>
<trkpt lat="55.954136" lon="26.537823">
<ele>73.696350</ele>
<time>2010-06-20T08:13:29Z</time>
<desc>lat.=55.954136, lon.=26.537823, Alt.=73.696350m. Speed=0.000000m/h.</desc>
<speed>0.000000</speed>
</trkpt>
<trkpt lat="55.954136" lon="26.537823">
<ele>73.721741</ele>
<time>2010-06-20T08:13:30Z</time>
<desc>lat.=55.954136, lon.=26.537823, Alt.=73.721741m. Speed=0.000000m/h.</desc>
<speed>0.000000</speed>
</trkpt>
<trkpt lat="55.954136" lon="26.537823">
<ele>73.758850</ele>
<time>2010-06-20T08:13:31Z</time>
<desc>lat.=55.954136, lon.=26.537823, Alt.=73.758850m. Speed=0.000000m/h.</desc>
<speed>0.000000</speed>
</trkpt>
<trkpt lat="55.954140" lon="26.537823">
<ele>73.778381</ele>
<time>2010-06-20T08:13:32Z</time>
<desc>lat.=55.954140, lon.=26.537823, Alt.=73.778381m. Speed=0.000000m/h.</desc>
<speed>0.000000</speed>
</trkpt>
<trkpt lat="55.954140" lon="26.537823">
<ele>73.801819</ele>
<time>2010-06-20T08:13:33Z</time>
<desc>lat.=55.954140, lon.=26.537823, Alt.=73.801819m. Speed=0.036000m/h.</desc>
<speed>0.010000</speed>
</trkpt>
<trkpt lat="55.954140" lon="26.537823">
<ele>73.827209</ele>
<time>2010-06-20T08:13:34Z</time>
<desc>lat.=55.954140, lon.=26.537823, Alt.=73.827209m. Speed=0.000000m/h.</desc>
<speed>0.000000</speed>
</trkpt>
<trkpt lat="55.954140" lon="26.537823">
<ele>73.870178</ele>
<time>2010-06-20T08:13:35Z</time>
<desc>lat.=55.954140, lon.=26.537823, Alt.=73.870178m. Speed=0.036000m/h.</desc>
<speed>0.010000</speed>
</trkpt>
<trkpt lat="55.954140" lon="26.537823">
<ele>73.889709</ele>
<time>2010-06-20T08:13:36Z</time>
<desc>lat.=55.954140, lon.=26.537823, Alt.=73.889709m. Speed=0.108000m/h.</desc>
<speed>0.030000</speed>
</trkpt>
<trkpt lat="55.954140" lon="26.537823">
<ele>73.909241</ele>
<time>2010-06-20T08:13:37Z</time>
<desc>lat.=55.954140, lon.=26.537823, Alt.=73.909241m. Speed=0.108000m/h.</desc>
<speed>0.030000</speed>
</trkpt>
<trkpt lat="55.954140" lon="26.537823">
<ele>73.942444</ele>
<time>2010-06-20T08:13:38Z</time>
<desc>lat.=55.954140, lon.=26.537823, Alt.=73.942444m. Speed=0.108000m/h.</desc>
<speed>0.030000</speed>
</trkpt>
<trkpt lat="55.954140" lon="26.537823">
<ele>73.979553</ele>
<time>2010-06-20T08:13:39Z</time>
<desc>lat.=55.954140, lon.=26.537823, Alt.=73.979553m. Speed=0.000000m/h.</desc>
<speed>0.000000</speed>
</trkpt>
<trkpt lat="55.954140" lon="26.537823">
<ele>74.024475</ele>
<time>2010-06-20T08:13:40Z</time>
<desc>lat.=55.954140, lon.=26.537823, Alt.=74.024475m. Speed=0.036000m/h.</desc>
<speed>0.010000</speed>
</trkpt>
<trkpt lat="55.954140" lon="26.537825">
<ele>74.241272</ele>
<time>2010-06-20T08:13:41Z</time>
<desc>lat.=55.954140, lon.=26.537825, Alt.=74.241272m. Speed=0.180000m/h.</desc>
<speed>0.050000</speed>
</trkpt>
<trkpt lat="55.954140" lon="26.537827">
<ele>74.313538</ele>
<time>2010-06-20T08:13:42Z</time>
<desc>lat.=55.954140, lon.=26.537827, Alt.=74.313538m. Speed=0.144000m/h.</desc>
<speed>0.040000</speed>
</trkpt>
<trkpt lat="55.954144" lon="26.537827">
<ele>74.379944</ele>
<time>2010-06-20T08:13:43Z</time>
<desc>lat.=55.954144, lon.=26.537827, Alt.=74.379944m. Speed=0.144000m/h.</desc>
<speed>0.040000</speed>
</trkpt>
<trkpt lat="55.954144" lon="26.537828">
<ele>74.448303</ele>
<time>2010-06-20T08:13:44Z</time>
<desc>lat.=55.954144, lon.=26.537828, Alt.=74.448303m. Speed=0.216000m/h.</desc>
<speed>0.060000</speed>
</trkpt>
<trkpt lat="55.954144" lon="26.537828">
<ele>74.516663</ele>
<time>2010-06-20T08:13:45Z</time>
<desc>lat.=55.954144, lon.=26.537828, Alt.=74.516663m. Speed=0.252000m/h.</desc>
<speed>0.070000</speed>
</trkpt>
<trkpt lat="55.954144" lon="26.537828">
<ele>74.600647</ele>
<time>2010-06-20T08:13:46Z</time>
<desc>lat.=55.954144, lon.=26.537828, Alt.=74.600647m. Speed=0.396000m/h.</desc>
<speed>0.110000</speed>
</trkpt>
<trkpt lat="55.954147" lon="26.537828">
<ele>74.676819</ele>
<time>2010-06-20T08:13:47Z</time>
<desc>lat.=55.954147, lon.=26.537828, Alt.=74.676819m. Speed=0.684000m/h.</desc>
<speed>0.190000</speed>
</trkpt>
<trkpt lat="55.954147" lon="26.537828">
<ele>74.754944</ele>
<time>2010-06-20T08:13:48Z</time>
<desc>lat.=55.954147, lon.=26.537828, Alt.=74.754944m. Speed=0.720000m/h.</desc>
<speed>0.200000</speed>
</trkpt>
<trkpt lat="55.954151" lon="26.537830">
<ele>74.838928</ele>
<time>2010-06-20T08:13:49Z</time>
<desc>lat.=55.954151, lon.=26.537830, Alt.=74.838928m. Speed=0.756000m/h.</desc>
<speed>0.210000</speed>
</trkpt>
<trkpt lat="55.954151" lon="26.537832">
<ele>74.926819</ele>
<time>2010-06-20T08:13:50Z</time>
<desc>lat.=55.954151, lon.=26.537832, Alt.=74.926819m. Speed=0.936000m/h.</desc>
<speed>0.260000</speed>
</trkpt>
<trkpt lat="55.954155" lon="26.537836">
<ele>75.001038</ele>
<time>2010-06-20T08:13:51Z</time>
<desc>lat.=55.954155, lon.=26.537836, Alt.=75.001038m. Speed=1.080000m/h.</desc>
<speed>0.300000</speed>
</trkpt>
<trkpt lat="55.954182" lon="26.537844">
<ele>75.544006</ele>
<time>2010-06-20T08:13:52Z</time>
<desc>lat.=55.954182, lon.=26.537844, Alt.=75.544006m. Speed=1.188000m/h.</desc>
<speed>0.330000</speed>
</trkpt>
<trkpt lat="55.954189" lon="26.537868">
<ele>74.536194</ele>
<time>2010-06-20T08:13:53Z</time>
<desc>lat.=55.954189, lon.=26.537868, Alt.=74.536194m. Speed=1.944000m/h.</desc>
<speed>0.540000</speed>
</trkpt>
<trkpt lat="55.954197" lon="26.537880">
<ele>74.592834</ele>
<time>2010-06-20T08:13:54Z</time>
<desc>lat.=55.954197, lon.=26.537880, Alt.=74.592834m. Speed=3.096000m/h.</desc>
<speed>0.860000</speed>
</trkpt>
<trkpt lat="55.954216" lon="26.537910">
<ele>74.711975</ele>
<time>2010-06-20T08:13:55Z</time>
<desc>lat.=55.954216, lon.=26.537910, Alt.=74.711975m. Speed=3.636000m/h.</desc>
<speed>1.010000</speed>
</trkpt>
<trkpt lat="55.954231" lon="26.537926">
<ele>74.637756</ele>
<time>2010-06-20T08:13:56Z</time>
<desc>lat.=55.954231, lon.=26.537926, Alt.=74.637756m. Speed=3.780000m/h.</desc>
<speed>1.050000</speed>
</trkpt>
<trkpt lat="55.954308" lon="26.537941">
<ele>75.227600</ele>
<time>2010-06-20T08:13:57Z</time>
<desc>lat.=55.954308, lon.=26.537941, Alt.=75.227600m. Speed=4.104000m/h.</desc>
<speed>1.140000</speed>
</trkpt>
<trkpt lat="55.954319" lon="26.538000">
<ele>75.024475</ele>
<time>2010-06-20T08:13:58Z</time>
<desc>lat.=55.954319, lon.=26.538000, Alt.=75.024475m. Speed=3.816000m/h.</desc>
<speed>1.060000</speed>
</trkpt>
<trkpt lat="55.954353" lon="26.538036">
<ele>76.135803</ele>
<time>2010-06-20T08:13:59Z</time>
<desc>lat.=55.954353, lon.=26.538036, Alt.=76.135803m. Speed=5.220000m/h.</desc>
<speed>1.450000</speed>
</trkpt>
<trkpt lat="55.954365" lon="26.538052">
<ele>76.180725</ele>
<time>2010-06-20T08:14:00Z</time>
<desc>lat.=55.954365, lon.=26.538052, Alt.=76.180725m. Speed=5.076000m/h.</desc>
<speed>1.410000</speed>
</trkpt>
<trkpt lat="55.954422" lon="26.538176">
<ele>78.821350</ele>
<time>2010-06-20T08:14:01Z</time>
<desc>lat.=55.954422, lon.=26.538176, Alt.=78.821350m. Speed=6.264000m/h.</desc>
<speed>1.740000</speed>
</trkpt>
<trkpt lat="55.954517" lon="26.538252">
<ele>85.508850</ele>
<time>2010-06-20T08:14:02Z</time>
<desc>lat.=55.954517, lon.=26.538252, Alt.=85.508850m. Speed=6.768000m/h.</desc>
<speed>1.880000</speed>
</trkpt>
<trkpt lat="55.954594" lon="26.538298">
<ele>86.356506</ele>
<time>2010-06-20T08:14:03Z</time>
<desc>lat.=55.954594, lon.=26.538298, Alt.=86.356506m. Speed=9.648000m/h.</desc>
<speed>2.680000</speed>
</trkpt>
<trkpt lat="55.954643" lon="26.538330">
<ele>86.450256</ele>
<time>2010-06-20T08:14:04Z</time>
<desc>lat.=55.954643, lon.=26.538330, Alt.=86.450256m. Speed=7.920000m/h.</desc>
<speed>2.200000</speed>
</trkpt>
<trkpt lat="55.954700" lon="26.538363">
<ele>87.909241</ele>
<time>2010-06-20T08:14:05Z</time>
<desc>lat.=55.954700, lon.=26.538363, Alt.=87.909241m. Speed=9.288000m/h.</desc>
<speed>2.580000</speed>
</trkpt>
<trkpt lat="55.954746" lon="26.538403">
<ele>87.030334</ele>
<time>2010-06-20T08:14:06Z</time>
<desc>lat.=55.954746, lon.=26.538403, Alt.=87.030334m. Speed=9.720000m/h.</desc>
<speed>2.700000</speed>
</trkpt>
<trkpt lat="55.954796" lon="26.538433">
<ele>86.417053</ele>
<time>2010-06-20T08:14:07Z</time>
<desc>lat.=55.954796, lon.=26.538433, Alt.=86.417053m. Speed=9.828000m/h.</desc>
<speed>2.730000</speed>
</trkpt>
<trkpt lat="55.954823" lon="26.538465">
<ele>86.665100</ele>
<time>2010-06-20T08:14:08Z</time>
<desc>lat.=55.954823, lon.=26.538465, Alt.=86.665100m. Speed=10.152000m/h.</desc>
<speed>2.820000</speed>
</trkpt>
<trkpt lat="55.954918" lon="26.538534">
<ele>87.053772</ele>
<time>2010-06-20T08:14:09Z</time>
<desc>lat.=55.954918, lon.=26.538534, Alt.=87.053772m. Speed=10.332000m/h.</desc>
<speed>2.870000</speed>
</trkpt>
<trkpt lat="55.954998" lon="26.538599">
<ele>88.208069</ele>
<time>2010-06-20T08:14:10Z</time>
<desc>lat.=55.954998, lon.=26.538599, Alt.=88.208069m. Speed=10.440000m/h.</desc>
<speed>2.900000</speed>
</trkpt>
<trkpt lat="55.955048" lon="26.538645">
<ele>88.659241</ele>
<time>2010-06-20T08:14:11Z</time>
<desc>lat.=55.955048, lon.=26.538645, Alt.=88.659241m. Speed=10.152000m/h.</desc>
<speed>2.820000</speed>
</trkpt>
<trkpt lat="55.955086" lon="26.538679">
<ele>89.389709</ele>
<time>2010-06-20T08:14:12Z</time>
<desc>lat.=55.955086, lon.=26.538679, Alt.=89.389709m. Speed=10.656000m/h.</desc>
<speed>2.960000</speed>
</trkpt>
<trkpt lat="55.955109" lon="26.538713">
<ele>92.083069</ele>
<time>2010-06-20T08:14:13Z</time>
<desc>lat.=55.955109, lon.=26.538713, Alt.=92.083069m. Speed=9.936000m/h.</desc>
<speed>2.760000</speed>
</trkpt>
<trkpt lat="55.955135" lon="26.538736">
<ele>91.985413</ele>
<time>2010-06-20T08:14:14Z</time>
<desc>lat.=55.955135, lon.=26.538736, Alt.=91.985413m. Speed=11.052000m/h.</desc>
<speed>3.070000</speed>
</trkpt>
<trkpt lat="55.955166" lon="26.538759">
<ele>92.071350</ele>
<time>2010-06-20T08:14:15Z</time>
<desc>lat.=55.955166, lon.=26.538759, Alt.=92.071350m. Speed=11.052000m/h.</desc>
<speed>3.070000</speed>
</trkpt>
<trkpt lat="55.955185" lon="26.538784">
<ele>91.639709</ele>
<time>2010-06-20T08:14:16Z</time>
<desc>lat.=55.955185, lon.=26.538784, Alt.=91.639709m. Speed=9.576000m/h.</desc>
<speed>2.660000</speed>
</trkpt>
<trkpt lat="55.955208" lon="26.538816">
<ele>91.169006</ele>
<time>2010-06-20T08:14:17Z</time>
<desc>lat.=55.955208, lon.=26.538816, Alt.=91.169006m. Speed=10.656000m/h.</desc>
<speed>2.960000</speed>
</trkpt>
<trkpt lat="55.955238" lon="26.538841">
<ele>90.840881</ele>
<time>2010-06-20T08:14:18Z</time>
<desc>lat.=55.955238, lon.=26.538841, Alt.=90.840881m. Speed=11.268000m/h.</desc>
<speed>3.130000</speed>
</trkpt>
<trkpt lat="55.955273" lon="26.538862">
<ele>90.948303</ele>
<time>2010-06-20T08:14:19Z</time>
<desc>lat.=55.955273, lon.=26.538862, Alt.=90.948303m. Speed=11.340000m/h.</desc>
<speed>3.150000</speed>
</trkpt>
<trkpt lat="55.955299" lon="26.538893">
<ele>91.038147</ele>
<time>2010-06-20T08:14:20Z</time>
<desc>lat.=55.955299, lon.=26.538893, Alt.=91.038147m. Speed=10.692000m/h.</desc>
<speed>2.970000</speed>
</trkpt>
<trkpt lat="55.955315" lon="26.538916">
<ele>90.854553</ele>
<time>2010-06-20T08:14:21Z</time>
<desc>lat.=55.955315, lon.=26.538916, Alt.=90.854553m. Speed=5.580000m/h.</desc>
<speed>1.550000</speed>
</trkpt>
<trkpt lat="55.955334" lon="26.538937">
<ele>90.333069</ele>
<time>2010-06-20T08:14:22Z</time>
<desc>lat.=55.955334, lon.=26.538937, Alt.=90.333069m. Speed=10.440000m/h.</desc>
<speed>2.900000</speed>
</trkpt>
<trkpt lat="55.955353" lon="26.538960">
<ele>90.026428</ele>
<time>2010-06-20T08:14:23Z</time>
<desc>lat.=55.955353, lon.=26.538960, Alt.=90.026428m. Speed=9.144000m/h.</desc>
<speed>2.540000</speed>
</trkpt>
<trkpt lat="55.955379" lon="26.538986">
<ele>90.608459</ele>
<time>2010-06-20T08:14:24Z</time>
<desc>lat.=55.955379, lon.=26.538986, Alt.=90.608459m. Speed=10.908000m/h.</desc>
<speed>3.030000</speed>
</trkpt>
<trkpt lat="55.955410" lon="26.539011">
<ele>90.840881</ele>
<time>2010-06-20T08:14:25Z</time>
<desc>lat.=55.955410, lon.=26.539011, Alt.=90.840881m. Speed=10.764000m/h.</desc>
<speed>2.990000</speed>
</trkpt>
<trkpt lat="55.955429" lon="26.539030">
<ele>90.637756</ele>
<time>2010-06-20T08:14:26Z</time>
<desc>lat.=55.955429, lon.=26.539030, Alt.=90.637756m. Speed=9.324000m/h.</desc>
<speed>2.590000</speed>
</trkpt>
<trkpt lat="55.955452" lon="26.539053">
<ele>90.487366</ele>
<time>2010-06-20T08:14:27Z</time>
<desc>lat.=55.955452, lon.=26.539053, Alt.=90.487366m. Speed=9.972000m/h.</desc>
<speed>2.770000</speed>
</trkpt>
<trkpt lat="55.955467" lon="26.539072">
<ele>89.885803</ele>
<time>2010-06-20T08:14:28Z</time>
<desc>lat.=55.955467, lon.=26.539072, Alt.=89.885803m. Speed=7.452000m/h.</desc>
<speed>2.070000</speed>
</trkpt>
<trkpt lat="55.955498" lon="26.539097">
<ele>91.850647</ele>
<time>2010-06-20T08:14:29Z</time>
<desc>lat.=55.955498, lon.=26.539097, Alt.=91.850647m. Speed=10.260000m/h.</desc>
<speed>2.850000</speed>
</trkpt>
<trkpt lat="55.955517" lon="26.539124">
<ele>92.917053</ele>
<time>2010-06-20T08:14:30Z</time>
<desc>lat.=55.955517, lon.=26.539124, Alt.=92.917053m. Speed=9.936000m/h.</desc>
<speed>2.760000</speed>
</trkpt>
<trkpt lat="55.955536" lon="26.539156">
<ele>93.610413</ele>
<time>2010-06-20T08:14:31Z</time>
<desc>lat.=55.955536, lon.=26.539156, Alt.=93.610413m. Speed=10.404000m/h.</desc>
<speed>2.890000</speed>
</trkpt>
<trkpt lat="55.955559" lon="26.539190">
<ele>92.766663</ele>
<time>2010-06-20T08:14:32Z</time>
<desc>lat.=55.955559, lon.=26.539190, Alt.=92.766663m. Speed=9.108000m/h.</desc>
<speed>2.530000</speed>
</trkpt>
<trkpt lat="55.955582" lon="26.539217">
<ele>92.835022</ele>
<time>2010-06-20T08:14:33Z</time>
<desc>lat.=55.955582, lon.=26.539217, Alt.=92.835022m. Speed=10.188000m/h.</desc>
<speed>2.830000</speed>
</trkpt>
<trkpt lat="55.955601" lon="26.539242">
<ele>93.167053</ele>
<time>2010-06-20T08:14:34Z</time>
<desc>lat.=55.955601, lon.=26.539242, Alt.=93.167053m. Speed=8.604000m/h.</desc>
<speed>2.390000</speed>
</trkpt>
<trkpt lat="55.955616" lon="26.539268">
<ele>93.489319</ele>
<time>2010-06-20T08:14:35Z</time>
<desc>lat.=55.955616, lon.=26.539268, Alt.=93.489319m. Speed=8.928000m/h.</desc>
<speed>2.480000</speed>
</trkpt>
<trkpt lat="55.955639" lon="26.539288">
<ele>93.879944</ele>
<time>2010-06-20T08:14:36Z</time>
<desc>lat.=55.955639, lon.=26.539288, Alt.=93.879944m. Speed=8.100000m/h.</desc>
<speed>2.250000</speed>
</trkpt>
<trkpt lat="55.955658" lon="26.539316">
<ele>95.106506</ele>
<time>2010-06-20T08:14:37Z</time>
<desc>lat.=55.955658, lon.=26.539316, Alt.=95.106506m. Speed=6.444000m/h.</desc>
<speed>1.790000</speed>
</trkpt>
<trkpt lat="55.955673" lon="26.539343">
<ele>95.085022</ele>
<time>2010-06-20T08:14:38Z</time>
<desc>lat.=55.955673, lon.=26.539343, Alt.=95.085022m. Speed=8.172000m/h.</desc>
<speed>2.270000</speed>
</trkpt>
<trkpt lat="55.955692" lon="26.539373">
<ele>94.960022</ele>
<time>2010-06-20T08:14:39Z</time>
<desc>lat.=55.955692, lon.=26.539373, Alt.=94.960022m. Speed=8.352000m/h.</desc>
<speed>2.320000</speed>
</trkpt>
<trkpt lat="55.955704" lon="26.539398">
<ele>94.295959</ele>
<time>2010-06-20T08:14:40Z</time>
<desc>lat.=55.955704, lon.=26.539398, Alt.=94.295959m. Speed=6.984000m/h.</desc>
<speed>1.940000</speed>
</trkpt>
<trkpt lat="55.955719" lon="26.539413">
<ele>95.362366</ele>
<time>2010-06-20T08:14:41Z</time>
<desc>lat.=55.955719, lon.=26.539413, Alt.=95.362366m. Speed=6.804000m/h.</desc>
<speed>1.890000</speed>
</trkpt>
<trkpt lat="55.955750" lon="26.539438">
<ele>97.145569</ele>
<time>2010-06-20T08:14:42Z</time>
<desc>lat.=55.955750, lon.=26.539438, Alt.=97.145569m. Speed=7.236000m/h.</desc>
<speed>2.010000</speed>
</trkpt>
<trkpt lat="55.955772" lon="26.539463">
<ele>97.899475</ele>
<time>2010-06-20T08:14:43Z</time>
<desc>lat.=55.955772, lon.=26.539463, Alt.=97.899475m. Speed=8.964000m/h.</desc>
<speed>2.490000</speed>
</trkpt>
<trkpt lat="55.955788" lon="26.539488">
<ele>98.551819</ele>
<time>2010-06-20T08:14:44Z</time>
<desc>lat.=55.955788, lon.=26.539488, Alt.=98.551819m. Speed=7.632000m/h.</desc>
<speed>2.120000</speed>
</trkpt>
<trkpt lat="55.955803" lon="26.539516">
<ele>98.508850</ele>
<time>2010-06-20T08:14:45Z</time>
<desc>lat.=55.955803, lon.=26.539516, Alt.=98.508850m. Speed=8.136000m/h.</desc>
<speed>2.260000</speed>
</trkpt>
<trkpt lat="55.955818" lon="26.539539">
<ele>98.131897</ele>
<time>2010-06-20T08:14:46Z</time>
<desc>lat.=55.955818, lon.=26.539539, Alt.=98.131897m. Speed=5.508000m/h.</desc>
<speed>1.530000</speed>
</trkpt>
<trkpt lat="55.955830" lon="26.539555">
<ele>97.653381</ele>
<time>2010-06-20T08:14:47Z</time>
<desc>lat.=55.955830, lon.=26.539555, Alt.=97.653381m. Speed=5.328000m/h.</desc>
<speed>1.480000</speed>
</trkpt>
<trkpt lat="55.955853" lon="26.539570">
<ele>97.305725</ele>
<time>2010-06-20T08:14:48Z</time>
<desc>lat.=55.955853, lon.=26.539570, Alt.=97.305725m. Speed=8.028000m/h.</desc>
<speed>2.230000</speed>
</trkpt>
<trkpt lat="55.955879" lon="26.539591">
<ele>97.313538</ele>
<time>2010-06-20T08:14:49Z</time>
<desc>lat.=55.955879, lon.=26.539591, Alt.=97.313538m. Speed=6.372000m/h.</desc>
<speed>1.770000</speed>
</trkpt>
<trkpt lat="55.955898" lon="26.539606">
<ele>97.104553</ele>
<time>2010-06-20T08:14:50Z</time>
<desc>lat.=55.955898, lon.=26.539606, Alt.=97.104553m. Speed=9.216000m/h.</desc>
<speed>2.560000</speed>
</trkpt>
<trkpt lat="55.955914" lon="26.539637">
<ele>96.155334</ele>
<time>2010-06-20T08:14:51Z</time>
<desc>lat.=55.955914, lon.=26.539637, Alt.=96.155334m. Speed=9.144000m/h.</desc>
<speed>2.540000</speed>
</trkpt>
<trkpt lat="55.955929" lon="26.539671">
<ele>96.354553</ele>
<time>2010-06-20T08:14:52Z</time>
<desc>lat.=55.955929, lon.=26.539671, Alt.=96.354553m. Speed=8.892000m/h.</desc>
<speed>2.470000</speed>
</trkpt>
<trkpt lat="55.955952" lon="26.539705">
<ele>96.401428</ele>
<time>2010-06-20T08:14:53Z</time>
<desc>lat.=55.955952, lon.=26.539705, Alt.=96.401428m. Speed=8.460000m/h.</desc>
<speed>2.350000</speed>
</trkpt>
<trkpt lat="55.955971" lon="26.539732">
<ele>96.301819</ele>
<time>2010-06-20T08:14:54Z</time>
<desc>lat.=55.955971, lon.=26.539732, Alt.=96.301819m. Speed=8.460000m/h.</desc>
<speed>2.350000</speed>
</trkpt>
<trkpt lat="55.955986" lon="26.539749">
<ele>96.180725</ele>
<time>2010-06-20T08:14:55Z</time>
<desc>lat.=55.955986, lon.=26.539749, Alt.=96.180725m. Speed=7.956000m/h.</desc>
<speed>2.210000</speed>
</trkpt>
<trkpt lat="55.956005" lon="26.539762">
<ele>95.698303</ele>
<time>2010-06-20T08:14:56Z</time>
<desc>lat.=55.956005, lon.=26.539762, Alt.=95.698303m. Speed=6.480000m/h.</desc>
<speed>1.800000</speed>
</trkpt>
<trkpt lat="55.956017" lon="26.539780">
<ele>95.729553</ele>
<time>2010-06-20T08:14:57Z</time>
<desc>lat.=55.956017, lon.=26.539780, Alt.=95.729553m. Speed=6.372000m/h.</desc>
<speed>1.770000</speed>
</trkpt>
<trkpt lat="55.956055" lon="26.539803">
<ele>98.680725</ele>
<time>2010-06-20T08:14:58Z</time>
<desc>lat.=55.956055, lon.=26.539803, Alt.=98.680725m. Speed=11.592000m/h.</desc>
<speed>3.220000</speed>
</trkpt>
<trkpt lat="55.956070" lon="26.539825">
<ele>99.227600</ele>
<time>2010-06-20T08:14:59Z</time>
<desc>lat.=55.956070, lon.=26.539825, Alt.=99.227600m. Speed=7.236000m/h.</desc>
<speed>2.010000</speed>
</trkpt>
<trkpt lat="55.956085" lon="26.539841">
<ele>99.401428</ele>
<time>2010-06-20T08:15:00Z</time>
<desc>lat.=55.956085, lon.=26.539841, Alt.=99.401428m. Speed=6.912000m/h.</desc>
<speed>1.920000</speed>
</trkpt>
<trkpt lat="55.956100" lon="26.539860">
<ele>99.594788</ele>
<time>2010-06-20T08:15:01Z</time>
<desc>lat.=55.956100, lon.=26.539860, Alt.=99.594788m. Speed=5.436000m/h.</desc>
<speed>1.510000</speed>
</trkpt>
<trkpt lat="55.956112" lon="26.539883">
<ele>99.319397</ele>
<time>2010-06-20T08:15:02Z</time>
<desc>lat.=55.956112, lon.=26.539883, Alt.=99.319397m. Speed=7.488000m/h.</desc>
<speed>2.080000</speed>
</trkpt>
<trkpt lat="55.956131" lon="26.539904">
<ele>99.583069</ele>
<time>2010-06-20T08:15:03Z</time>
<desc>lat.=55.956131, lon.=26.539904, Alt.=99.583069m. Speed=6.264000m/h.</desc>
<speed>1.740000</speed>
</trkpt>
<trkpt lat="55.956150" lon="26.539919">
<ele>99.251038</ele>
<time>2010-06-20T08:15:04Z</time>
<desc>lat.=55.956150, lon.=26.539919, Alt.=99.251038m. Speed=8.028000m/h.</desc>
<speed>2.230000</speed>
</trkpt>
<trkpt lat="55.956177" lon="26.539940">
<ele>99.973694</ele>
<time>2010-06-20T08:15:05Z</time>
<desc>lat.=55.956177, lon.=26.539940, Alt.=99.973694m. Speed=8.316000m/h.</desc>
<speed>2.310000</speed>
</trkpt>
<trkpt lat="55.956196" lon="26.539961">
<ele>99.747131</ele>
<time>2010-06-20T08:15:06Z</time>
<desc>lat.=55.956196, lon.=26.539961, Alt.=99.747131m. Speed=7.308000m/h.</desc>
<speed>2.030000</speed>
</trkpt>
<trkpt lat="55.956215" lon="26.539980">
<ele>99.360413</ele>
<time>2010-06-20T08:15:07Z</time>
<desc>lat.=55.956215, lon.=26.539980, Alt.=99.360413m. Speed=7.812000m/h.</desc>
<speed>2.170000</speed>
</trkpt>
<trkpt lat="55.956234" lon="26.540003">
<ele>99.381897</ele>
<time>2010-06-20T08:15:08Z</time>
<desc>lat.=55.956234, lon.=26.540003, Alt.=99.381897m. Speed=8.352000m/h.</desc>
<speed>2.320000</speed>
</trkpt>
<trkpt lat="55.956253" lon="26.540024">
<ele>99.237366</ele>
<time>2010-06-20T08:15:09Z</time>
<desc>lat.=55.956253, lon.=26.540024, Alt.=99.237366m. Speed=9.288000m/h.</desc>
<speed>2.580000</speed>
</trkpt>
<trkpt lat="55.956276" lon="26.540045">
<ele>99.606506</ele>
<time>2010-06-20T08:15:10Z</time>
<desc>lat.=55.956276, lon.=26.540045, Alt.=99.606506m. Speed=7.848000m/h.</desc>
<speed>2.180000</speed>
</trkpt>
<trkpt lat="55.956287" lon="26.540062">
<ele>99.252991</ele>
<time>2010-06-20T08:15:11Z</time>
<desc>lat.=55.956287, lon.=26.540062, Alt.=99.252991m. Speed=7.200000m/h.</desc>
<speed>2.000000</speed>
</trkpt>
<trkpt lat="55.956310" lon="26.540083">
<ele>99.545959</ele>
<time>2010-06-20T08:15:12Z</time>
<desc>lat.=55.956310, lon.=26.540083, Alt.=99.545959m. Speed=8.640000m/h.</desc>
<speed>2.400000</speed>
</trkpt>
<trkpt lat="55.956333" lon="26.540106">
<ele>100.200256</ele>
<time>2010-06-20T08:15:13Z</time>
<desc>lat.=55.956333, lon.=26.540106, Alt.=100.200256m. Speed=7.812000m/h.</desc>
<speed>2.170000</speed>
</trkpt>
<trkpt lat="55.956352" lon="26.540125">
<ele>99.471741</ele>
<time>2010-06-20T08:15:14Z</time>
<desc>lat.=55.956352, lon.=26.540125, Alt.=99.471741m. Speed=9.216000m/h.</desc>
<speed>2.560000</speed>
</trkpt>
<trkpt lat="55.956375" lon="26.540142">
<ele>99.438538</ele>
<time>2010-06-20T08:15:15Z</time>
<desc>lat.=55.956375, lon.=26.540142, Alt.=99.438538m. Speed=8.496000m/h.</desc>
<speed>2.360000</speed>
</trkpt>
<trkpt lat="55.956390" lon="26.540165">
<ele>99.956116</ele>
<time>2010-06-20T08:15:16Z</time>
<desc>lat.=55.956390, lon.=26.540165, Alt.=99.956116m. Speed=7.092000m/h.</desc>
<speed>1.970000</speed>
</trkpt>
<trkpt lat="55.956409" lon="26.540199">
<ele>100.864319</ele>
<time>2010-06-20T08:15:17Z</time>
<desc>lat.=55.956409, lon.=26.540199, Alt.=100.864319m. Speed=8.532000m/h.</desc>
<speed>2.370000</speed>
</trkpt>
<trkpt lat="55.956432" lon="26.540224">
<ele>102.219788</ele>
<time>2010-06-20T08:15:18Z</time>
<desc>lat.=55.956432, lon.=26.540224, Alt.=102.219788m. Speed=11.376000m/h.</desc>
<speed>3.160000</speed>
</trkpt>
<trkpt lat="55.956455" lon="26.540243">
<ele>102.514709</ele>
<time>2010-06-20T08:15:19Z</time>
<desc>lat.=55.956455, lon.=26.540243, Alt.=102.514709m. Speed=8.136000m/h.</desc>
<speed>2.260000</speed>
</trkpt>
<trkpt lat="55.956467" lon="26.540257">
<ele>102.204163</ele>
<time>2010-06-20T08:15:20Z</time>
<desc>lat.=55.956467, lon.=26.540257, Alt.=102.204163m. Speed=5.868000m/h.</desc>
<speed>1.630000</speed>
</trkpt>
<trkpt lat="55.956478" lon="26.540276">
<ele>102.344788</ele>
<time>2010-06-20T08:15:21Z</time>
<desc>lat.=55.956478, lon.=26.540276, Alt.=102.344788m. Speed=6.588000m/h.</desc>
<speed>1.830000</speed>
</trkpt>
<trkpt lat="55.956497" lon="26.540302">
<ele>102.221741</ele>
<time>2010-06-20T08:15:22Z</time>
<desc>lat.=55.956497, lon.=26.540302, Alt.=102.221741m. Speed=8.532000m/h.</desc>
<speed>2.370000</speed>
</trkpt>
<trkpt lat="55.956512" lon="26.540327">
<ele>101.930725</ele>
<time>2010-06-20T08:15:23Z</time>
<desc>lat.=55.956512, lon.=26.540327, Alt.=101.930725m. Speed=8.496000m/h.</desc>
<speed>2.360000</speed>
</trkpt>
<trkpt lat="55.956539" lon="26.540350">
<ele>102.323303</ele>
<time>2010-06-20T08:15:24Z</time>
<desc>lat.=55.956539, lon.=26.540350, Alt.=102.323303m. Speed=8.748000m/h.</desc>
<speed>2.430000</speed>
</trkpt>
<trkpt lat="55.956566" lon="26.540375">
<ele>102.936584</ele>
<time>2010-06-20T08:15:25Z</time>
<desc>lat.=55.956566, lon.=26.540375, Alt.=102.936584m. Speed=8.964000m/h.</desc>
<speed>2.490000</speed>
</trkpt>
<trkpt lat="55.956581" lon="26.540396">
<ele>103.280334</ele>
<time>2010-06-20T08:15:26Z</time>
<desc>lat.=55.956581, lon.=26.540396, Alt.=103.280334m. Speed=7.884000m/h.</desc>
<speed>2.190000</speed>
</trkpt>
<trkpt lat="55.956600" lon="26.540413">
<ele>103.344788</ele>
<time>2010-06-20T08:15:27Z</time>
<desc>lat.=55.956600, lon.=26.540413, Alt.=103.344788m. Speed=6.804000m/h.</desc>
<speed>1.890000</speed>
</trkpt>
<trkpt lat="55.956619" lon="26.540436">
<ele>103.333069</ele>
<time>2010-06-20T08:15:28Z</time>
<desc>lat.=55.956619, lon.=26.540436, Alt.=103.333069m. Speed=7.704000m/h.</desc>
<speed>2.140000</speed>
</trkpt>
<trkpt lat="55.956646" lon="26.540453">
<ele>103.745178</ele>
<time>2010-06-20T08:15:29Z</time>
<desc>lat.=55.956646, lon.=26.540453, Alt.=103.745178m. Speed=8.388000m/h.</desc>
<speed>2.330000</speed>
</trkpt>
<trkpt lat="55.956665" lon="26.540478">
<ele>103.674866</ele>
<time>2010-06-20T08:15:30Z</time>
<desc>lat.=55.956665, lon.=26.540478, Alt.=103.674866m. Speed=8.352000m/h.</desc>
<speed>2.320000</speed>
</trkpt>
<trkpt lat="55.956684" lon="26.540501">
<ele>104.010803</ele>
<time>2010-06-20T08:15:31Z</time>
<desc>lat.=55.956684, lon.=26.540501, Alt.=104.010803m. Speed=9.360000m/h.</desc>
<speed>2.600000</speed>
</trkpt>
<trkpt lat="55.956703" lon="26.540524">
<ele>104.876038</ele>
<time>2010-06-20T08:15:32Z</time>
<desc>lat.=55.956703, lon.=26.540524, Alt.=104.876038m. Speed=4.896000m/h.</desc>
<speed>1.360000</speed>
</trkpt>
<trkpt lat="55.956715" lon="26.540543">
<ele>105.526428</ele>
<time>2010-06-20T08:15:33Z</time>
<desc>lat.=55.956715, lon.=26.540543, Alt.=105.526428m. Speed=5.076000m/h.</desc>
<speed>1.410000</speed>
</trkpt>
<trkpt lat="55.956730" lon="26.540564">
<ele>106.280334</ele>
<time>2010-06-20T08:15:34Z</time>
<desc>lat.=55.956730, lon.=26.540564, Alt.=106.280334m. Speed=6.984000m/h.</desc>
<speed>1.940000</speed>
</trkpt>
<trkpt lat="55.956749" lon="26.540596">
<ele>105.924866</ele>
<time>2010-06-20T08:15:35Z</time>
<desc>lat.=55.956749, lon.=26.540596, Alt.=105.924866m. Speed=7.884000m/h.</desc>
<speed>2.190000</speed>
</trkpt>
<trkpt lat="55.956768" lon="26.540621">
<ele>105.575256</ele>
<time>2010-06-20T08:15:36Z</time>
<desc>lat.=55.956768, lon.=26.540621, Alt.=105.575256m. Speed=5.688000m/h.</desc>
<speed>1.580000</speed>
</trkpt>
<trkpt lat="55.956783" lon="26.540638">
<ele>105.794006</ele>
<time>2010-06-20T08:15:37Z</time>
<desc>lat.=55.956783, lon.=26.540638, Alt.=105.794006m. Speed=7.272000m/h.</desc>
<speed>2.020000</speed>
</trkpt>
<trkpt lat="55.956799" lon="26.540661">
<ele>105.626038</ele>
<time>2010-06-20T08:15:38Z</time>
<desc>lat.=55.956799, lon.=26.540661, Alt.=105.626038m. Speed=7.812000m/h.</desc>
<speed>2.170000</speed>
</trkpt>
<trkpt lat="55.956818" lon="26.540678">
<ele>105.432678</ele>
<time>2010-06-20T08:15:39Z</time>
<desc>lat.=55.956818, lon.=26.540678, Alt.=105.432678m. Speed=8.892000m/h.</desc>
<speed>2.470000</speed>
</trkpt>
<trkpt lat="55.956841" lon="26.540703">
<ele>106.295959</ele>
<time>2010-06-20T08:15:40Z</time>
<desc>lat.=55.956841, lon.=26.540703, Alt.=106.295959m. Speed=8.496000m/h.</desc>
<speed>2.360000</speed>
</trkpt>
<trkpt lat="55.956860" lon="26.540730">
<ele>106.907288</ele>
<time>2010-06-20T08:15:41Z</time>
<desc>lat.=55.956860, lon.=26.540730, Alt.=106.907288m. Speed=8.388000m/h.</desc>
<speed>2.330000</speed>
</trkpt>
<trkpt lat="55.956875" lon="26.540756">
<ele>106.803772</ele>
<time>2010-06-20T08:15:42Z</time>
<desc>lat.=55.956875, lon.=26.540756, Alt.=106.803772m. Speed=8.172000m/h.</desc>
<speed>2.270000</speed>
</trkpt>
<trkpt lat="55.956886" lon="26.540787">
<ele>106.323303</ele>
<time>2010-06-20T08:15:43Z</time>
<desc>lat.=55.956886, lon.=26.540787, Alt.=106.323303m. Speed=7.956000m/h.</desc>
<speed>2.210000</speed>
</trkpt>
<trkpt lat="55.956898" lon="26.540815">
<ele>105.665100</ele>
<time>2010-06-20T08:15:44Z</time>
<desc>lat.=55.956898, lon.=26.540815, Alt.=105.665100m. Speed=7.488000m/h.</desc>
<speed>2.080000</speed>
</trkpt>
<trkpt lat="55.956913" lon="26.540833">
<ele>105.780334</ele>
<time>2010-06-20T08:15:45Z</time>
<desc>lat.=55.956913, lon.=26.540833, Alt.=105.780334m. Speed=8.460000m/h.</desc>
<speed>2.350000</speed>
</trkpt>
<trkpt lat="55.956924" lon="26.540859">
<ele>104.069397</ele>
<time>2010-06-20T08:15:46Z</time>
<desc>lat.=55.956924, lon.=26.540859, Alt.=104.069397m. Speed=7.452000m/h.</desc>
<speed>2.070000</speed>
</trkpt>
<trkpt lat="55.956936" lon="26.540880">
<ele>103.807678</ele>
<time>2010-06-20T08:15:47Z</time>
<desc>lat.=55.956936, lon.=26.540880, Alt.=103.807678m. Speed=7.236000m/h.</desc>
<speed>2.010000</speed>
</trkpt>
<trkpt lat="55.956947" lon="26.540905">
<ele>103.194397</ele>
<time>2010-06-20T08:15:48Z</time>
<desc>lat.=55.956947, lon.=26.540905, Alt.=103.194397m. Speed=8.784000m/h.</desc>
<speed>2.440000</speed>
</trkpt>
<trkpt lat="55.956982" lon="26.540932">
<ele>106.147522</ele>
<time>2010-06-20T08:15:49Z</time>
<desc>lat.=55.956982, lon.=26.540932, Alt.=106.147522m. Speed=10.116000m/h.</desc>
<speed>2.810000</speed>
</trkpt>
<trkpt lat="55.957005" lon="26.540962">
<ele>106.165100</ele>
<time>2010-06-20T08:15:50Z</time>
<desc>lat.=55.957005, lon.=26.540962, Alt.=106.165100m. Speed=11.484000m/h.</desc>
<speed>3.190000</speed>
</trkpt>
<trkpt lat="55.957027" lon="26.540976">
<ele>106.766663</ele>
<time>2010-06-20T08:15:51Z</time>
<desc>lat.=55.957027, lon.=26.540976, Alt.=106.766663m. Speed=6.372000m/h.</desc>
<speed>1.770000</speed>
</trkpt>
<trkpt lat="55.957043" lon="26.540983">
<ele>107.387756</ele>
<time>2010-06-20T08:15:52Z</time>
<desc>lat.=55.957043, lon.=26.540983, Alt.=107.387756m. Speed=2.556000m/h.</desc>
<speed>0.710000</speed>
</trkpt>
<trkpt lat="55.957054" lon="26.540985">
<ele>107.731506</ele>
<time>2010-06-20T08:15:53Z</time>
<desc>lat.=55.957054, lon.=26.540985, Alt.=107.731506m. Speed=2.196000m/h.</desc>
<speed>0.610000</speed>
</trkpt>
<trkpt lat="55.957058" lon="26.540985">
<ele>108.016663</ele>
<time>2010-06-20T08:15:54Z</time>
<desc>lat.=55.957058, lon.=26.540985, Alt.=108.016663m. Speed=1.332000m/h.</desc>
<speed>0.370000</speed>
</trkpt>
<trkpt lat="55.957062" lon="26.540985">
<ele>108.350647</ele>
<time>2010-06-20T08:15:55Z</time>
<desc>lat.=55.957062, lon.=26.540985, Alt.=108.350647m. Speed=0.864000m/h.</desc>
<speed>0.240000</speed>
</trkpt>
<trkpt lat="55.957062" lon="26.540989">
<ele>108.815491</ele>
<time>2010-06-20T08:15:56Z</time>
<desc>lat.=55.957062, lon.=26.540989, Alt.=108.815491m. Speed=0.504000m/h.</desc>
<speed>0.140000</speed>
</trkpt>
<trkpt lat="55.957058" lon="26.540991">
<ele>109.112366</ele>
<time>2010-06-20T08:15:57Z</time>
<desc>lat.=55.957058, lon.=26.540991, Alt.=109.112366m. Speed=0.504000m/h.</desc>
<speed>0.140000</speed>
</trkpt>
<trkpt lat="55.957058" lon="26.540989">
<ele>109.733459</ele>
<time>2010-06-20T08:15:58Z</time>
<desc>lat.=55.957058, lon.=26.540989, Alt.=109.733459m. Speed=0.468000m/h.</desc>
<speed>0.130000</speed>
</trkpt>
<trkpt lat="55.957058" lon="26.540989">
<ele>110.006897</ele>
<time>2010-06-20T08:15:59Z</time>
<desc>lat.=55.957058, lon.=26.540989, Alt.=110.006897m. Speed=0.396000m/h.</desc>
<speed>0.110000</speed>
</trkpt>
<trkpt lat="55.957058" lon="26.540989">
<ele>110.272522</ele>
<time>2010-06-20T08:16:00Z</time>
<desc>lat.=55.957058, lon.=26.540989, Alt.=110.272522m. Speed=0.504000m/h.</desc>
<speed>0.140000</speed>
</trkpt>
<trkpt lat="55.957058" lon="26.540987">
<ele>110.534241</ele>
<time>2010-06-20T08:16:01Z</time>
<desc>lat.=55.957058, lon.=26.540987, Alt.=110.534241m. Speed=0.252000m/h.</desc>
<speed>0.070000</speed>
</trkpt>
<trkpt lat="55.957062" lon="26.540987">
<ele>110.797913</ele>
<time>2010-06-20T08:16:02Z</time>
<desc>lat.=55.957062, lon.=26.540987, Alt.=110.797913m. Speed=0.180000m/h.</desc>
<speed>0.050000</speed>
</trkpt>
<trkpt lat="55.957062" lon="26.540987">
<ele>111.049866</ele>
<time>2010-06-20T08:16:03Z</time>
<desc>lat.=55.957062, lon.=26.540987, Alt.=111.049866m. Speed=0.756000m/h.</desc>
<speed>0.210000</speed>
</trkpt>
<trkpt lat="55.957062" lon="26.540989">
<ele>111.268616</ele>
<time>2010-06-20T08:16:04Z</time>
<desc>lat.=55.957062, lon.=26.540989, Alt.=111.268616m. Speed=0.900000m/h.</desc>
<speed>0.250000</speed>
</trkpt>
<trkpt lat="55.957066" lon="26.540989">
<ele>111.461975</ele>
<time>2010-06-20T08:16:05Z</time>
<desc>lat.=55.957066, lon.=26.540989, Alt.=111.461975m. Speed=0.288000m/h.</desc>
<speed>0.080000</speed>
</trkpt>
<trkpt lat="55.957066" lon="26.540989">
<ele>111.508850</ele>
<time>2010-06-20T08:16:06Z</time>
<desc>lat.=55.957066, lon.=26.540989, Alt.=111.508850m. Speed=0.180000m/h.</desc>
<speed>0.050000</speed>
</trkpt>
<trkpt lat="55.957066" lon="26.540991">
<ele>111.544006</ele>
<time>2010-06-20T08:16:07Z</time>
<desc>lat.=55.957066, lon.=26.540991, Alt.=111.544006m. Speed=0.108000m/h.</desc>
<speed>0.030000</speed>
</trkpt>
<trkpt lat="55.957066" lon="26.540991">
<ele>111.551819</ele>
<time>2010-06-20T08:16:08Z</time>
<desc>lat.=55.957066, lon.=26.540991, Alt.=111.551819m. Speed=0.108000m/h.</desc>
<speed>0.030000</speed>
</trkpt>
<trkpt lat="55.957066" lon="26.540991">
<ele>111.557678</ele>
<time>2010-06-20T08:16:09Z</time>
<desc>lat.=55.957066, lon.=26.540991, Alt.=111.557678m. Speed=0.144000m/h.</desc>
<speed>0.040000</speed>
</trkpt>
<trkpt lat="55.957069" lon="26.540991">
<ele>111.585022</ele>
<time>2010-06-20T08:16:10Z</time>
<desc>lat.=55.957069, lon.=26.540991, Alt.=111.585022m. Speed=0.072000m/h.</desc>
<speed>0.020000</speed>
</trkpt>
<trkpt lat="55.957069" lon="26.540991">
<ele>111.561584</ele>
<time>2010-06-20T08:16:11Z</time>
<desc>lat.=55.957069, lon.=26.540991, Alt.=111.561584m. Speed=0.108000m/h.</desc>
<speed>0.030000</speed>
</trkpt>
<trkpt lat="55.957066" lon="26.540991">
<ele>111.557678</ele>
<time>2010-06-20T08:16:12Z</time>
<desc>lat.=55.957066, lon.=26.540991, Alt.=111.557678m. Speed=0.108000m/h.</desc>
<speed>0.030000</speed>
</trkpt>
<trkpt lat="55.957069" lon="26.540991">
<ele>111.530334</ele>
<time>2010-06-20T08:16:13Z</time>
<desc>lat.=55.957069, lon.=26.540991, Alt.=111.530334m. Speed=0.036000m/h.</desc>
<speed>0.010000</speed>
</trkpt>
<trkpt lat="55.957069" lon="26.540991">
<ele>111.516663</ele>
<time>2010-06-20T08:16:14Z</time>
<desc>lat.=55.957069, lon.=26.540991, Alt.=111.516663m. Speed=0.144000m/h.</desc>
<speed>0.040000</speed>
</trkpt>
<trkpt lat="55.957069" lon="26.540991">
<ele>111.512756</ele>
<time>2010-06-20T08:16:15Z</time>
<desc>lat.=55.957069, lon.=26.540991, Alt.=111.512756m. Speed=1.008000m/h.</desc>
<speed>0.280000</speed>
</trkpt>
<trkpt lat="55.957069" lon="26.540995">
<ele>111.516663</ele>
<time>2010-06-20T08:16:16Z</time>
<desc>lat.=55.957069, lon.=26.540995, Alt.=111.516663m. Speed=1.800000m/h.</desc>
<speed>0.500000</speed>
</trkpt>
<trkpt lat="55.957085" lon="26.541010">
<ele>112.079163</ele>
<time>2010-06-20T08:16:17Z</time>
<desc>lat.=55.957085, lon.=26.541010, Alt.=112.079163m. Speed=4.428000m/h.</desc>
<speed>1.230000</speed>
</trkpt>
<trkpt lat="55.957104" lon="26.541023">
<ele>112.672913</ele>
<time>2010-06-20T08:16:18Z</time>
<desc>lat.=55.957104, lon.=26.541023, Alt.=112.672913m. Speed=4.536000m/h.</desc>
<speed>1.260000</speed>
</trkpt>
<trkpt lat="55.957115" lon="26.541031">
<ele>113.311584</ele>
<time>2010-06-20T08:16:19Z</time>
<desc>lat.=55.957115, lon.=26.541031, Alt.=113.311584m. Speed=4.392000m/h.</desc>
<speed>1.220000</speed>
</trkpt>
<trkpt lat="55.957127" lon="26.541050">
<ele>113.807678</ele>
<time>2010-06-20T08:16:20Z</time>
<desc>lat.=55.957127, lon.=26.541050, Alt.=113.807678m. Speed=6.084000m/h.</desc>
<speed>1.690000</speed>
</trkpt>
<trkpt lat="55.957142" lon="26.541065">
<ele>113.874084</ele>
<time>2010-06-20T08:16:21Z</time>
<desc>lat.=55.957142, lon.=26.541065, Alt.=113.874084m. Speed=6.912000m/h.</desc>
<speed>1.920000</speed>
</trkpt>
<trkpt lat="55.957161" lon="26.541082">
<ele>113.883850</ele>
<time>2010-06-20T08:16:22Z</time>
<desc>lat.=55.957161, lon.=26.541082, Alt.=113.883850m. Speed=6.156000m/h.</desc>
<speed>1.710000</speed>
</trkpt>
<trkpt lat="55.957169" lon="26.541103">
<ele>113.536194</ele>
<time>2010-06-20T08:16:23Z</time>
<desc>lat.=55.957169, lon.=26.541103, Alt.=113.536194m. Speed=6.336000m/h.</desc>
<speed>1.760000</speed>
</trkpt>
<trkpt lat="55.957188" lon="26.541126">
<ele>114.292053</ele>
<time>2010-06-20T08:16:24Z</time>
<desc>lat.=55.957188, lon.=26.541126, Alt.=114.292053m. Speed=7.236000m/h.</desc>
<speed>2.010000</speed>
</trkpt>
<trkpt lat="55.957211" lon="26.541153">
<ele>114.551819</ele>
<time>2010-06-20T08:16:25Z</time>
<desc>lat.=55.957211, lon.=26.541153, Alt.=114.551819m. Speed=7.884000m/h.</desc>
<speed>2.190000</speed>
</trkpt>
<trkpt lat="55.957226" lon="26.541162">
<ele>114.243225</ele>
<time>2010-06-20T08:16:26Z</time>
<desc>lat.=55.957226, lon.=26.541162, Alt.=114.243225m. Speed=7.200000m/h.</desc>
<speed>2.000000</speed>
</trkpt>
<trkpt lat="55.957241" lon="26.541178">
<ele>114.288147</ele>
<time>2010-06-20T08:16:27Z</time>
<desc>lat.=55.957241, lon.=26.541178, Alt.=114.288147m. Speed=5.076000m/h.</desc>
<speed>1.410000</speed>
</trkpt>
<trkpt lat="55.957253" lon="26.541197">
<ele>114.313538</ele>
<time>2010-06-20T08:16:28Z</time>
<desc>lat.=55.957253, lon.=26.541197, Alt.=114.313538m. Speed=6.264000m/h.</desc>
<speed>1.740000</speed>
</trkpt>
<trkpt lat="55.957272" lon="26.541222">
<ele>114.344788</ele>
<time>2010-06-20T08:16:29Z</time>
<desc>lat.=55.957272, lon.=26.541222, Alt.=114.344788m. Speed=8.604000m/h.</desc>
<speed>2.390000</speed>
</trkpt>
<trkpt lat="55.957287" lon="26.541241">
<ele>114.299866</ele>
<time>2010-06-20T08:16:30Z</time>
<desc>lat.=55.957287, lon.=26.541241, Alt.=114.299866m. Speed=7.164000m/h.</desc>
<speed>1.990000</speed>
</trkpt>
<trkpt lat="55.957298" lon="26.541262">
<ele>113.981506</ele>
<time>2010-06-20T08:16:31Z</time>
<desc>lat.=55.957298, lon.=26.541262, Alt.=113.981506m. Speed=5.868000m/h.</desc>
<speed>1.630000</speed>
</trkpt>
<trkpt lat="55.957314" lon="26.541277">
<ele>113.727600</ele>
<time>2010-06-20T08:16:32Z</time>
<desc>lat.=55.957314, lon.=26.541277, Alt.=113.727600m. Speed=6.228000m/h.</desc>
<speed>1.730000</speed>
</trkpt>
<trkpt lat="55.957325" lon="26.541283">
<ele>113.438538</ele>
<time>2010-06-20T08:16:33Z</time>
<desc>lat.=55.957325, lon.=26.541283, Alt.=113.438538m. Speed=7.452000m/h.</desc>
<speed>2.070000</speed>
</trkpt>
<trkpt lat="55.957340" lon="26.541290">
<ele>113.258850</ele>
<time>2010-06-20T08:16:34Z</time>
<desc>lat.=55.957340, lon.=26.541290, Alt.=113.258850m. Speed=5.148000m/h.</desc>
<speed>1.430000</speed>
</trkpt>
<trkpt lat="55.957352" lon="26.541306">
<ele>113.137756</ele>
<time>2010-06-20T08:16:35Z</time>
<desc>lat.=55.957352, lon.=26.541306, Alt.=113.137756m. Speed=4.788000m/h.</desc>
<speed>1.330000</speed>
</trkpt>
<trkpt lat="55.957363" lon="26.541327">
<ele>112.370178</ele>
<time>2010-06-20T08:16:36Z</time>
<desc>lat.=55.957363, lon.=26.541327, Alt.=112.370178m. Speed=5.940000m/h.</desc>
<speed>1.650000</speed>
</trkpt>
<trkpt lat="55.957386" lon="26.541346">
<ele>111.657288</ele>
<time>2010-06-20T08:16:37Z</time>
<desc>lat.=55.957386, lon.=26.541346, Alt.=111.657288m. Speed=6.588000m/h.</desc>
<speed>1.830000</speed>
</trkpt>
<trkpt lat="55.957401" lon="26.541357">
<ele>111.221741</ele>
<time>2010-06-20T08:16:38Z</time>
<desc>lat.=55.957401, lon.=26.541357, Alt.=111.221741m. Speed=6.120000m/h.</desc>
<speed>1.700000</speed>
</trkpt>
<trkpt lat="55.957420" lon="26.541374">
<ele>111.444397</ele>
<time>2010-06-20T08:16:39Z</time>
<desc>lat.=55.957420, lon.=26.541374, Alt.=111.444397m. Speed=7.380000m/h.</desc>
<speed>2.050000</speed>
</trkpt>
<trkpt lat="55.957428" lon="26.541380">
<ele>110.325256</ele>
<time>2010-06-20T08:16:40Z</time>
<desc>lat.=55.957428, lon.=26.541380, Alt.=110.325256m. Speed=3.384000m/h.</desc>
<speed>0.940000</speed>
</trkpt>
<trkpt lat="55.957443" lon="26.541397">
<ele>110.180725</ele>
<time>2010-06-20T08:16:41Z</time>
<desc>lat.=55.957443, lon.=26.541397, Alt.=110.180725m. Speed=5.364000m/h.</desc>
<speed>1.490000</speed>
</trkpt>
<trkpt lat="55.957455" lon="26.541410">
<ele>109.854553</ele>
<time>2010-06-20T08:16:42Z</time>
<desc>lat.=55.957455, lon.=26.541410, Alt.=109.854553m. Speed=4.968000m/h.</desc>
<speed>1.380000</speed>
</trkpt>
<trkpt lat="55.957493" lon="26.541433">
<ele>109.889709</ele>
<time>2010-06-20T08:16:43Z</time>
<desc>lat.=55.957493, lon.=26.541433, Alt.=109.889709m. Speed=8.640000m/h.</desc>
<speed>2.400000</speed>
</trkpt>
<trkpt lat="55.957508" lon="26.541447">
<ele>109.153381</ele>
<time>2010-06-20T08:16:44Z</time>
<desc>lat.=55.957508, lon.=26.541447, Alt.=109.153381m. Speed=5.580000m/h.</desc>
<speed>1.550000</speed>
</trkpt>
<trkpt lat="55.957531" lon="26.541466">
<ele>108.930725</ele>
<time>2010-06-20T08:16:45Z</time>
<desc>lat.=55.957531, lon.=26.541466, Alt.=108.930725m. Speed=7.272000m/h.</desc>
<speed>2.020000</speed>
</trkpt>
<trkpt lat="55.957550" lon="26.541477">
<ele>109.635803</ele>
<time>2010-06-20T08:16:46Z</time>
<desc>lat.=55.957550, lon.=26.541477, Alt.=109.635803m. Speed=6.480000m/h.</desc>
<speed>1.800000</speed>
</trkpt>
<trkpt lat="55.957577" lon="26.541492">
<ele>110.260803</ele>
<time>2010-06-20T08:16:47Z</time>
<desc>lat.=55.957577, lon.=26.541492, Alt.=110.260803m. Speed=7.596000m/h.</desc>
<speed>2.110000</speed>
</trkpt>
<trkpt lat="55.957600" lon="26.541510">
<ele>109.881897</ele>
<time>2010-06-20T08:16:48Z</time>
<desc>lat.=55.957600, lon.=26.541510, Alt.=109.881897m. Speed=8.100000m/h.</desc>
<speed>2.250000</speed>
</trkpt>
<trkpt lat="55.957626" lon="26.541531">
<ele>109.358459</ele>
<time>2010-06-20T08:16:49Z</time>
<desc>lat.=55.957626, lon.=26.541531, Alt.=109.358459m. Speed=8.892000m/h.</desc>
<speed>2.470000</speed>
</trkpt>
<trkpt lat="55.957653" lon="26.541544">
<ele>108.711975</ele>
<time>2010-06-20T08:16:50Z</time>
<desc>lat.=55.957653, lon.=26.541544, Alt.=108.711975m. Speed=7.920000m/h.</desc>
<speed>2.200000</speed>
</trkpt>
<trkpt lat="55.957676" lon="26.541563">
<ele>108.536194</ele>
<time>2010-06-20T08:16:51Z</time>
<desc>lat.=55.957676, lon.=26.541563, Alt.=108.536194m. Speed=8.424000m/h.</desc>
<speed>2.340000</speed>
</trkpt>
<trkpt lat="55.957703" lon="26.541580">
<ele>108.335022</ele>
<time>2010-06-20T08:16:52Z</time>
<desc>lat.=55.957703, lon.=26.541580, Alt.=108.335022m. Speed=8.388000m/h.</desc>
<speed>2.330000</speed>
</trkpt>
<trkpt lat="55.957722" lon="26.541594">
<ele>108.520569</ele>
<time>2010-06-20T08:16:53Z</time>
<desc>lat.=55.957722, lon.=26.541594, Alt.=108.520569m. Speed=6.084000m/h.</desc>
<speed>1.690000</speed>
</trkpt>
<trkpt lat="55.957745" lon="26.541599">
<ele>109.352600</ele>
<time>2010-06-20T08:16:54Z</time>
<desc>lat.=55.957745, lon.=26.541599, Alt.=109.352600m. Speed=8.712000m/h.</desc>
<speed>2.420000</speed>
</trkpt>
<trkpt lat="55.957767" lon="26.541618">
<ele>109.426819</ele>
<time>2010-06-20T08:16:55Z</time>
<desc>lat.=55.957767, lon.=26.541618, Alt.=109.426819m. Speed=9.864000m/h.</desc>
<speed>2.740000</speed>
</trkpt>
<trkpt lat="55.957794" lon="26.541636">
<ele>109.178772</ele>
<time>2010-06-20T08:16:56Z</time>
<desc>lat.=55.957794, lon.=26.541636, Alt.=109.178772m. Speed=8.820000m/h.</desc>
<speed>2.450000</speed>
</trkpt>
<trkpt lat="55.957817" lon="26.541647">
<ele>109.215881</ele>
<time>2010-06-20T08:16:57Z</time>
<desc>lat.=55.957817, lon.=26.541647, Alt.=109.215881m. Speed=8.460000m/h.</desc>
<speed>2.350000</speed>
</trkpt>
<trkpt lat="55.957840" lon="26.541649">
<ele>109.432678</ele>
<time>2010-06-20T08:16:58Z</time>
<desc>lat.=55.957840, lon.=26.541649, Alt.=109.432678m. Speed=9.360000m/h.</desc>
<speed>2.600000</speed>
</trkpt>
<trkpt lat="55.957867" lon="26.541656">
<ele>109.452209</ele>
<time>2010-06-20T08:16:59Z</time>
<desc>lat.=55.957867, lon.=26.541656, Alt.=109.452209m. Speed=8.748000m/h.</desc>
<speed>2.430000</speed>
</trkpt>
<trkpt lat="55.957890" lon="26.541662">
<ele>109.983459</ele>
<time>2010-06-20T08:17:00Z</time>
<desc>lat.=55.957890, lon.=26.541662, Alt.=109.983459m. Speed=8.964000m/h.</desc>
<speed>2.490000</speed>
</trkpt>
<trkpt lat="55.957909" lon="26.541664">
<ele>109.782288</ele>
<time>2010-06-20T08:17:01Z</time>
<desc>lat.=55.957909, lon.=26.541664, Alt.=109.782288m. Speed=7.308000m/h.</desc>
<speed>2.030000</speed>
</trkpt>
<trkpt lat="55.957932" lon="26.541670">
<ele>109.458069</ele>
<time>2010-06-20T08:17:02Z</time>
<desc>lat.=55.957932, lon.=26.541670, Alt.=109.458069m. Speed=8.496000m/h.</desc>
<speed>2.360000</speed>
</trkpt>
<trkpt lat="55.957962" lon="26.541677">
<ele>108.825256</ele>
<time>2010-06-20T08:17:03Z</time>
<desc>lat.=55.957962, lon.=26.541677, Alt.=108.825256m. Speed=8.820000m/h.</desc>
<speed>2.450000</speed>
</trkpt>
<trkpt lat="55.957977" lon="26.541687">
<ele>108.444397</ele>
<time>2010-06-20T08:17:04Z</time>
<desc>lat.=55.957977, lon.=26.541687, Alt.=108.444397m. Speed=5.868000m/h.</desc>
<speed>1.630000</speed>
</trkpt>
<trkpt lat="55.957996" lon="26.541695">
<ele>108.247131</ele>
<time>2010-06-20T08:17:05Z</time>
<desc>lat.=55.957996, lon.=26.541695, Alt.=108.247131m. Speed=6.804000m/h.</desc>
<speed>1.890000</speed>
</trkpt>
<trkpt lat="55.958019" lon="26.541702">
<ele>107.645569</ele>
<time>2010-06-20T08:17:06Z</time>
<desc>lat.=55.958019, lon.=26.541702, Alt.=107.645569m. Speed=9.036000m/h.</desc>
<speed>2.510000</speed>
</trkpt>
<trkpt lat="55.958054" lon="26.541702">
<ele>108.325256</ele>
<time>2010-06-20T08:17:07Z</time>
<desc>lat.=55.958054, lon.=26.541702, Alt.=108.325256m. Speed=11.052000m/h.</desc>
<speed>3.070000</speed>
</trkpt>
<trkpt lat="55.958076" lon="26.541708">
<ele>108.635803</ele>
<time>2010-06-20T08:17:08Z</time>
<desc>lat.=55.958076, lon.=26.541708, Alt.=108.635803m. Speed=6.732000m/h.</desc>
<speed>1.870000</speed>
</trkpt>
<trkpt lat="55.958088" lon="26.541719">
<ele>107.967834</ele>
<time>2010-06-20T08:17:09Z</time>
<desc>lat.=55.958088, lon.=26.541719, Alt.=107.967834m. Speed=6.588000m/h.</desc>
<speed>1.830000</speed>
</trkpt>
<trkpt lat="55.958099" lon="26.541727">
<ele>108.104553</ele>
<time>2010-06-20T08:17:10Z</time>
<desc>lat.=55.958099, lon.=26.541727, Alt.=108.104553m. Speed=5.796000m/h.</desc>
<speed>1.610000</speed>
</trkpt>
<trkpt lat="55.958115" lon="26.541735">
<ele>107.946350</ele>
<time>2010-06-20T08:17:11Z</time>
<desc>lat.=55.958115, lon.=26.541735, Alt.=107.946350m. Speed=7.164000m/h.</desc>
<speed>1.990000</speed>
</trkpt>
<trkpt lat="55.958138" lon="26.541744">
<ele>108.096741</ele>
<time>2010-06-20T08:17:12Z</time>
<desc>lat.=55.958138, lon.=26.541744, Alt.=108.096741m. Speed=9.576000m/h.</desc>
<speed>2.660000</speed>
</trkpt>
<trkpt lat="55.958160" lon="26.541754">
<ele>107.819397</ele>
<time>2010-06-20T08:17:13Z</time>
<desc>lat.=55.958160, lon.=26.541754, Alt.=107.819397m. Speed=8.568000m/h.</desc>
<speed>2.380000</speed>
</trkpt>
<trkpt lat="55.958187" lon="26.541763">
<ele>106.829163</ele>
<time>2010-06-20T08:17:14Z</time>
<desc>lat.=55.958187, lon.=26.541763, Alt.=106.829163m. Speed=9.432000m/h.</desc>
<speed>2.620000</speed>
</trkpt>
<trkpt lat="55.958214" lon="26.541775">
<ele>106.778381</ele>
<time>2010-06-20T08:17:15Z</time>
<desc>lat.=55.958214, lon.=26.541775, Alt.=106.778381m. Speed=8.064000m/h.</desc>
<speed>2.240000</speed>
</trkpt>
<trkpt lat="55.958241" lon="26.541780">
<ele>106.075256</ele>
<time>2010-06-20T08:17:16Z</time>
<desc>lat.=55.958241, lon.=26.541780, Alt.=106.075256m. Speed=7.668000m/h.</desc>
<speed>2.130000</speed>
</trkpt>
<trkpt lat="55.958260" lon="26.541786">
<ele>105.485413</ele>
<time>2010-06-20T08:17:17Z</time>
<desc>lat.=55.958260, lon.=26.541786, Alt.=105.485413m. Speed=9.180000m/h.</desc>
<speed>2.550000</speed>
</trkpt>
<trkpt lat="55.958290" lon="26.541792">
<ele>104.811584</ele>
<time>2010-06-20T08:17:18Z</time>
<desc>lat.=55.958290, lon.=26.541792, Alt.=104.811584m. Speed=7.128000m/h.</desc>
<speed>1.980000</speed>
</trkpt>
<trkpt lat="55.958309" lon="26.541801">
<ele>104.411194</ele>
<time>2010-06-20T08:17:19Z</time>
<desc>lat.=55.958309, lon.=26.541801, Alt.=104.411194m. Speed=7.236000m/h.</desc>
<speed>2.010000</speed>
</trkpt>
<trkpt lat="55.958332" lon="26.541813">
<ele>102.965881</ele>
<time>2010-06-20T08:17:20Z</time>
<desc>lat.=55.958332, lon.=26.541813, Alt.=102.965881m. Speed=10.368000m/h.</desc>
<speed>2.880000</speed>
</trkpt>
<trkpt lat="55.958359" lon="26.541821">
<ele>102.620178</ele>
<time>2010-06-20T08:17:21Z</time>
<desc>lat.=55.958359, lon.=26.541821, Alt.=102.620178m. Speed=8.244000m/h.</desc>
<speed>2.290000</speed>
</trkpt>
<trkpt lat="55.958374" lon="26.541811">
<ele>102.854553</ele>
<time>2010-06-20T08:17:22Z</time>
<desc>lat.=55.958374, lon.=26.541811, Alt.=102.854553m. Speed=6.948000m/h.</desc>
<speed>1.930000</speed>
</trkpt>
<trkpt lat="55.958401" lon="26.541805">
<ele>103.631897</ele>
<time>2010-06-20T08:17:23Z</time>
<desc>lat.=55.958401, lon.=26.541805, Alt.=103.631897m. Speed=5.760000m/h.</desc>
<speed>1.600000</speed>
</trkpt>
<trkpt lat="55.958435" lon="26.541805">
<ele>105.389709</ele>
<time>2010-06-20T08:17:24Z</time>
<desc>lat.=55.958435, lon.=26.541805, Alt.=105.389709m. Speed=9.504000m/h.</desc>
<speed>2.640000</speed>
</trkpt>
<trkpt lat="55.958466" lon="26.541809">
<ele>105.454163</ele>
<time>2010-06-20T08:17:25Z</time>
<desc>lat.=55.958466, lon.=26.541809, Alt.=105.454163m. Speed=9.000000m/h.</desc>
<speed>2.500000</speed>
</trkpt>
<trkpt lat="55.958496" lon="26.541822">
<ele>105.295959</ele>
<time>2010-06-20T08:17:26Z</time>
<desc>lat.=55.958496, lon.=26.541822, Alt.=105.295959m. Speed=9.936000m/h.</desc>
<speed>2.760000</speed>
</trkpt>
<trkpt lat="55.958515" lon="26.541811">
<ele>103.708069</ele>
<time>2010-06-20T08:17:27Z</time>
<desc>lat.=55.958515, lon.=26.541811, Alt.=103.708069m. Speed=3.708000m/h.</desc>
<speed>1.030000</speed>
</trkpt>
<trkpt lat="55.958549" lon="26.541819">
<ele>103.340881</ele>
<time>2010-06-20T08:17:28Z</time>
<desc>lat.=55.958549, lon.=26.541819, Alt.=103.340881m. Speed=12.276000m/h.</desc>
<speed>3.410000</speed>
</trkpt>
<trkpt lat="55.958576" lon="26.541824">
<ele>102.489319</ele>
<time>2010-06-20T08:17:29Z</time>
<desc>lat.=55.958576, lon.=26.541824, Alt.=102.489319m. Speed=7.344000m/h.</desc>
<speed>2.040000</speed>
</trkpt>
<trkpt lat="55.958599" lon="26.541824">
<ele>101.586975</ele>
<time>2010-06-20T08:17:30Z</time>
<desc>lat.=55.958599, lon.=26.541824, Alt.=101.586975m. Speed=6.444000m/h.</desc>
<speed>1.790000</speed>
</trkpt>
<trkpt lat="55.958618" lon="26.541834">
<ele>101.086975</ele>
<time>2010-06-20T08:17:31Z</time>
<desc>lat.=55.958618, lon.=26.541834, Alt.=101.086975m. Speed=7.020000m/h.</desc>
<speed>1.950000</speed>
</trkpt>
<trkpt lat="55.958637" lon="26.541840">
<ele>100.932678</ele>
<time>2010-06-20T08:17:32Z</time>
<desc>lat.=55.958637, lon.=26.541840, Alt.=100.932678m. Speed=6.264000m/h.</desc>
<speed>1.740000</speed>
</trkpt>
<trkpt lat="55.958664" lon="26.541847">
<ele>101.022522</ele>
<time>2010-06-20T08:17:33Z</time>
<desc>lat.=55.958664, lon.=26.541847, Alt.=101.022522m. Speed=9.648000m/h.</desc>
<speed>2.680000</speed>
</trkpt>
<trkpt lat="55.958687" lon="26.541859">
<ele>100.456116</ele>
<time>2010-06-20T08:17:34Z</time>
<desc>lat.=55.958687, lon.=26.541859, Alt.=100.456116m. Speed=9.072000m/h.</desc>
<speed>2.520000</speed>
</trkpt>
<trkpt lat="55.958714" lon="26.541866">
<ele>100.204163</ele>
<time>2010-06-20T08:17:35Z</time>
<desc>lat.=55.958714, lon.=26.541866, Alt.=100.204163m. Speed=8.640000m/h.</desc>
<speed>2.400000</speed>
</trkpt>
<trkpt lat="55.958748" lon="26.541878">
<ele>101.399475</ele>
<time>2010-06-20T08:17:36Z</time>
<desc>lat.=55.958748, lon.=26.541878, Alt.=101.399475m. Speed=13.032000m/h.</desc>
<speed>3.620000</speed>
</trkpt>
<trkpt lat="55.958786" lon="26.541893">
<ele>101.915100</ele>
<time>2010-06-20T08:17:37Z</time>
<desc>lat.=55.958786, lon.=26.541893, Alt.=101.915100m. Speed=9.288000m/h.</desc>
<speed>2.580000</speed>
</trkpt>
<trkpt lat="55.958832" lon="26.541904">
<ele>102.354553</ele>
<time>2010-06-20T08:17:38Z</time>
<desc>lat.=55.958832, lon.=26.541904, Alt.=102.354553m. Speed=11.520000m/h.</desc>
<speed>3.200000</speed>
</trkpt>
<trkpt lat="55.958870" lon="26.541914">
<ele>102.299866</ele>
<time>2010-06-20T08:17:39Z</time>
<desc>lat.=55.958870, lon.=26.541914, Alt.=102.299866m. Speed=11.952000m/h.</desc>
<speed>3.320000</speed>
</trkpt>
<trkpt lat="55.958900" lon="26.541924">
<ele>102.290100</ele>
<time>2010-06-20T08:17:40Z</time>
<desc>lat.=55.958900, lon.=26.541924, Alt.=102.290100m. Speed=7.956000m/h.</desc>
<speed>2.210000</speed>
</trkpt>
<trkpt lat="55.958923" lon="26.541929">
<ele>102.471741</ele>
<time>2010-06-20T08:17:41Z</time>
<desc>lat.=55.958923, lon.=26.541929, Alt.=102.471741m. Speed=9.756000m/h.</desc>
<speed>2.710000</speed>
</trkpt>
<trkpt lat="55.958958" lon="26.541939">
<ele>102.452209</ele>
<time>2010-06-20T08:17:42Z</time>
<desc>lat.=55.958958, lon.=26.541939, Alt.=102.452209m. Speed=13.068000m/h.</desc>
<speed>3.630000</speed>
</trkpt>
<trkpt lat="55.958988" lon="26.541948">
<ele>102.571350</ele>
<time>2010-06-20T08:17:43Z</time>
<desc>lat.=55.958988, lon.=26.541948, Alt.=102.571350m. Speed=10.224000m/h.</desc>
<speed>2.840000</speed>
</trkpt>
<trkpt lat="55.959015" lon="26.541958">
<ele>102.399475</ele>
<time>2010-06-20T08:17:44Z</time>
<desc>lat.=55.959015, lon.=26.541958, Alt.=102.399475m. Speed=8.784000m/h.</desc>
<speed>2.440000</speed>
</trkpt>
<trkpt lat="55.959053" lon="26.541979">
<ele>100.569397</ele>
<time>2010-06-20T08:17:45Z</time>
<desc>lat.=55.959053, lon.=26.541979, Alt.=100.569397m. Speed=9.648000m/h.</desc>
<speed>2.680000</speed>
</trkpt>
<trkpt lat="55.959091" lon="26.542000">
<ele>99.405334</ele>
<time>2010-06-20T08:17:46Z</time>
<desc>lat.=55.959091, lon.=26.542000, Alt.=99.405334m. Speed=8.856000m/h.</desc>
<speed>2.460000</speed>
</trkpt>
<trkpt lat="55.959126" lon="26.542021">
<ele>98.797913</ele>
<time>2010-06-20T08:17:47Z</time>
<desc>lat.=55.959126, lon.=26.542021, Alt.=98.797913m. Speed=11.772000m/h.</desc>
<speed>3.270000</speed>
</trkpt>
<trkpt lat="55.959160" lon="26.542034">
<ele>99.036194</ele>
<time>2010-06-20T08:17:48Z</time>
<desc>lat.=55.959160, lon.=26.542034, Alt.=99.036194m. Speed=10.368000m/h.</desc>
<speed>2.880000</speed>
</trkpt>
<trkpt lat="55.959194" lon="26.542049">
<ele>99.057678</ele>
<time>2010-06-20T08:17:49Z</time>
<desc>lat.=55.959194, lon.=26.542049, Alt.=99.057678m. Speed=9.180000m/h.</desc>
<speed>2.550000</speed>
</trkpt>
<trkpt lat="55.959225" lon="26.542065">
<ele>98.657288</ele>
<time>2010-06-20T08:17:50Z</time>
<desc>lat.=55.959225, lon.=26.542065, Alt.=98.657288m. Speed=9.648000m/h.</desc>
<speed>2.680000</speed>
</trkpt>
<trkpt lat="55.959267" lon="26.542084">
<ele>98.881897</ele>
<time>2010-06-20T08:17:51Z</time>
<desc>lat.=55.959267, lon.=26.542084, Alt.=98.881897m. Speed=10.476000m/h.</desc>
<speed>2.910000</speed>
</trkpt>
<trkpt lat="55.959305" lon="26.542101">
<ele>98.762756</ele>
<time>2010-06-20T08:17:52Z</time>
<desc>lat.=55.959305, lon.=26.542101, Alt.=98.762756m. Speed=12.672000m/h.</desc>
<speed>3.520000</speed>
</trkpt>
<trkpt lat="55.959343" lon="26.542103">
<ele>97.835022</ele>
<time>2010-06-20T08:17:53Z</time>
<desc>lat.=55.959343, lon.=26.542103, Alt.=97.835022m. Speed=11.268000m/h.</desc>
<speed>3.130000</speed>
</trkpt>
<trkpt lat="55.959381" lon="26.542124">
<ele>96.262756</ele>
<time>2010-06-20T08:17:54Z</time>
<desc>lat.=55.959381, lon.=26.542124, Alt.=96.262756m. Speed=13.320000m/h.</desc>
<speed>3.700000</speed>
</trkpt>
<trkpt lat="55.959415" lon="26.542141">
<ele>95.411194</ele>
<time>2010-06-20T08:17:55Z</time>
<desc>lat.=55.959415, lon.=26.542141, Alt.=95.411194m. Speed=11.844000m/h.</desc>
<speed>3.290000</speed>
</trkpt>
<trkpt lat="55.959446" lon="26.542162">
<ele>95.225647</ele>
<time>2010-06-20T08:17:56Z</time>
<desc>lat.=55.959446, lon.=26.542162, Alt.=95.225647m. Speed=11.340000m/h.</desc>
<speed>3.150000</speed>
</trkpt>
<trkpt lat="55.959476" lon="26.542181">
<ele>95.012756</ele>
<time>2010-06-20T08:17:57Z</time>
<desc>lat.=55.959476, lon.=26.542181, Alt.=95.012756m. Speed=11.628000m/h.</desc>
<speed>3.230000</speed>
</trkpt>
<trkpt lat="55.959511" lon="26.542204">
<ele>94.512756</ele>
<time>2010-06-20T08:17:58Z</time>
<desc>lat.=55.959511, lon.=26.542204, Alt.=94.512756m. Speed=13.248000m/h.</desc>
<speed>3.680000</speed>
</trkpt>
<trkpt lat="55.959545" lon="26.542227">
<ele>94.616272</ele>
<time>2010-06-20T08:17:59Z</time>
<desc>lat.=55.959545, lon.=26.542227, Alt.=94.616272m. Speed=12.204000m/h.</desc>
<speed>3.390000</speed>
</trkpt>
<trkpt lat="55.959576" lon="26.542250">
<ele>94.344788</ele>
<time>2010-06-20T08:18:00Z</time>
<desc>lat.=55.959576, lon.=26.542250, Alt.=94.344788m. Speed=11.088000m/h.</desc>
<speed>3.080000</speed>
</trkpt>
<trkpt lat="55.959614" lon="26.542280">
<ele>96.133850</ele>
<time>2010-06-20T08:18:01Z</time>
<desc>lat.=55.959614, lon.=26.542280, Alt.=96.133850m. Speed=15.876000m/h.</desc>
<speed>4.410000</speed>
</trkpt>
<trkpt lat="55.959652" lon="26.542307">
<ele>95.520569</ele>
<time>2010-06-20T08:18:02Z</time>
<desc>lat.=55.959652, lon.=26.542307, Alt.=95.520569m. Speed=11.772000m/h.</desc>
<speed>3.270000</speed>
</trkpt>
<trkpt lat="55.959686" lon="26.542330">
<ele>94.995178</ele>
<time>2010-06-20T08:18:03Z</time>
<desc>lat.=55.959686, lon.=26.542330, Alt.=94.995178m. Speed=15.732000m/h.</desc>
<speed>4.370000</speed>
</trkpt>
<trkpt lat="55.959721" lon="26.542355">
<ele>94.960022</ele>
<time>2010-06-20T08:18:04Z</time>
<desc>lat.=55.959721, lon.=26.542355, Alt.=94.960022m. Speed=15.732000m/h.</desc>
<speed>4.370000</speed>
</trkpt>
<trkpt lat="55.959755" lon="26.542379">
<ele>94.512756</ele>
<time>2010-06-20T08:18:05Z</time>
<desc>lat.=55.959755, lon.=26.542379, Alt.=94.512756m. Speed=15.048000m/h.</desc>
<speed>4.180000</speed>
</trkpt>
<trkpt lat="55.959789" lon="26.542404">
<ele>94.182678</ele>
<time>2010-06-20T08:18:06Z</time>
<desc>lat.=55.959789, lon.=26.542404, Alt.=94.182678m. Speed=15.300000m/h.</desc>
<speed>4.250000</speed>
</trkpt>
<trkpt lat="55.959827" lon="26.542427">
<ele>94.239319</ele>
<time>2010-06-20T08:18:07Z</time>
<desc>lat.=55.959827, lon.=26.542427, Alt.=94.239319m. Speed=16.056000m/h.</desc>
<speed>4.460000</speed>
</trkpt>
<trkpt lat="55.959862" lon="26.542448">
<ele>94.229553</ele>
<time>2010-06-20T08:18:08Z</time>
<desc>lat.=55.959862, lon.=26.542448, Alt.=94.229553m. Speed=14.472000m/h.</desc>
<speed>4.020000</speed>
</trkpt>
<trkpt lat="55.959900" lon="26.542473">
<ele>93.655334</ele>
<time>2010-06-20T08:18:09Z</time>
<desc>lat.=55.959900, lon.=26.542473, Alt.=93.655334m. Speed=13.068000m/h.</desc>
<speed>3.630000</speed>
</trkpt>
<trkpt lat="55.959934" lon="26.542496">
<ele>93.497131</ele>
<time>2010-06-20T08:18:10Z</time>
<desc>lat.=55.959934, lon.=26.542496, Alt.=93.497131m. Speed=13.536000m/h.</desc>
<speed>3.760000</speed>
</trkpt>
<trkpt lat="55.959972" lon="26.542522">
<ele>93.502991</ele>
<time>2010-06-20T08:18:11Z</time>
<desc>lat.=55.959972, lon.=26.542522, Alt.=93.502991m. Speed=14.148000m/h.</desc>
<speed>3.930000</speed>
</trkpt>
<trkpt lat="55.959999" lon="26.542547">
<ele>93.819397</ele>
<time>2010-06-20T08:18:12Z</time>
<desc>lat.=55.959999, lon.=26.542547, Alt.=93.819397m. Speed=14.256000m/h.</desc>
<speed>3.960000</speed>
</trkpt>
<trkpt lat="55.960026" lon="26.542578">
<ele>94.704163</ele>
<time>2010-06-20T08:18:13Z</time>
<desc>lat.=55.960026, lon.=26.542578, Alt.=94.704163m. Speed=11.808000m/h.</desc>
<speed>3.280000</speed>
</trkpt>
<trkpt lat="55.960052" lon="26.542603">
<ele>94.745178</ele>
<time>2010-06-20T08:18:14Z</time>
<desc>lat.=55.960052, lon.=26.542603, Alt.=94.745178m. Speed=12.132000m/h.</desc>
<speed>3.370000</speed>
</trkpt>
<trkpt lat="55.960075" lon="26.542627">
<ele>94.594788</ele>
<time>2010-06-20T08:18:15Z</time>
<desc>lat.=55.960075, lon.=26.542627, Alt.=94.594788m. Speed=12.600000m/h.</desc>
<speed>3.500000</speed>
</trkpt>
<trkpt lat="55.960125" lon="26.542652">
<ele>96.067444</ele>
<time>2010-06-20T08:18:16Z</time>
<desc>lat.=55.960125, lon.=26.542652, Alt.=96.067444m. Speed=12.636000m/h.</desc>
<speed>3.510000</speed>
</trkpt>
<trkpt lat="55.960152" lon="26.542679">
<ele>95.733459</ele>
<time>2010-06-20T08:18:17Z</time>
<desc>lat.=55.960152, lon.=26.542679, Alt.=95.733459m. Speed=11.556000m/h.</desc>
<speed>3.210000</speed>
</trkpt>
<trkpt lat="55.960175" lon="26.542696">
<ele>95.102600</ele>
<time>2010-06-20T08:18:18Z</time>
<desc>lat.=55.960175, lon.=26.542696, Alt.=95.102600m. Speed=12.024000m/h.</desc>
<speed>3.340000</speed>
</trkpt>
<trkpt lat="55.960205" lon="26.542715">
<ele>94.559631</ele>
<time>2010-06-20T08:18:19Z</time>
<desc>lat.=55.960205, lon.=26.542715, Alt.=94.559631m. Speed=12.456000m/h.</desc>
<speed>3.460000</speed>
</trkpt>
<trkpt lat="55.960236" lon="26.542742">
<ele>94.479553</ele>
<time>2010-06-20T08:18:20Z</time>
<desc>lat.=55.960236, lon.=26.542742, Alt.=94.479553m. Speed=12.672000m/h.</desc>
<speed>3.520000</speed>
</trkpt>
<trkpt lat="55.960274" lon="26.542778">
<ele>94.495178</ele>
<time>2010-06-20T08:18:21Z</time>
<desc>lat.=55.960274, lon.=26.542778, Alt.=94.495178m. Speed=13.248000m/h.</desc>
<speed>3.680000</speed>
</trkpt>
<trkpt lat="55.960312" lon="26.542809">
<ele>94.737366</ele>
<time>2010-06-20T08:18:22Z</time>
<desc>lat.=55.960312, lon.=26.542809, Alt.=94.737366m. Speed=13.824000m/h.</desc>
<speed>3.840000</speed>
</trkpt>
<trkpt lat="55.960346" lon="26.542833">
<ele>94.596741</ele>
<time>2010-06-20T08:18:23Z</time>
<desc>lat.=55.960346, lon.=26.542833, Alt.=94.596741m. Speed=12.672000m/h.</desc>
<speed>3.520000</speed>
</trkpt>
<trkpt lat="55.960381" lon="26.542856">
<ele>95.235413</ele>
<time>2010-06-20T08:18:24Z</time>
<desc>lat.=55.960381, lon.=26.542856, Alt.=95.235413m. Speed=15.048000m/h.</desc>
<speed>4.180000</speed>
</trkpt>
<trkpt lat="55.960419" lon="26.542879">
<ele>95.010803</ele>
<time>2010-06-20T08:18:25Z</time>
<desc>lat.=55.960419, lon.=26.542879, Alt.=95.010803m. Speed=14.436000m/h.</desc>
<speed>4.010000</speed>
</trkpt>
<trkpt lat="55.960453" lon="26.542908">
<ele>94.831116</ele>
<time>2010-06-20T08:18:26Z</time>
<desc>lat.=55.960453, lon.=26.542908, Alt.=94.831116m. Speed=13.356000m/h.</desc>
<speed>3.710000</speed>
</trkpt>
<trkpt lat="55.960484" lon="26.542940">
<ele>95.434631</ele>
<time>2010-06-20T08:18:27Z</time>
<desc>lat.=55.960484, lon.=26.542940, Alt.=95.434631m. Speed=13.860000m/h.</desc>
<speed>3.850000</speed>
</trkpt>
<trkpt lat="55.960506" lon="26.542973">
<ele>95.924866</ele>
<time>2010-06-20T08:18:28Z</time>
<desc>lat.=55.960506, lon.=26.542973, Alt.=95.924866m. Speed=11.808000m/h.</desc>
<speed>3.280000</speed>
</trkpt>
<trkpt lat="55.960537" lon="26.542999">
<ele>95.811584</ele>
<time>2010-06-20T08:18:29Z</time>
<desc>lat.=55.960537, lon.=26.542999, Alt.=95.811584m. Speed=11.016000m/h.</desc>
<speed>3.060000</speed>
</trkpt>
<trkpt lat="55.960567" lon="26.543026">
<ele>95.604553</ele>
<time>2010-06-20T08:18:30Z</time>
<desc>lat.=55.960567, lon.=26.543026, Alt.=95.604553m. Speed=11.916000m/h.</desc>
<speed>3.310000</speed>
</trkpt>
<trkpt lat="55.960606" lon="26.543053">
<ele>96.727600</ele>
<time>2010-06-20T08:18:31Z</time>
<desc>lat.=55.960606, lon.=26.543053, Alt.=96.727600m. Speed=11.988000m/h.</desc>
<speed>3.330000</speed>
</trkpt>
<trkpt lat="55.960629" lon="26.543076">
<ele>97.397522</ele>
<time>2010-06-20T08:18:32Z</time>
<desc>lat.=55.960629, lon.=26.543076, Alt.=97.397522m. Speed=11.700000m/h.</desc>
<speed>3.250000</speed>
</trkpt>
<trkpt lat="55.960648" lon="26.543098">
<ele>97.374084</ele>
<time>2010-06-20T08:18:33Z</time>
<desc>lat.=55.960648, lon.=26.543098, Alt.=97.374084m. Speed=8.316000m/h.</desc>
<speed>2.310000</speed>
</trkpt>
<trkpt lat="55.960667" lon="26.543119">
<ele>97.430725</ele>
<time>2010-06-20T08:18:34Z</time>
<desc>lat.=55.960667, lon.=26.543119, Alt.=97.430725m. Speed=10.620000m/h.</desc>
<speed>2.950000</speed>
</trkpt>
<trkpt lat="55.960690" lon="26.543140">
<ele>96.618225</ele>
<time>2010-06-20T08:18:35Z</time>
<desc>lat.=55.960690, lon.=26.543140, Alt.=96.618225m. Speed=8.352000m/h.</desc>
<speed>2.320000</speed>
</trkpt>
<trkpt lat="55.960709" lon="26.543159">
<ele>96.557678</ele>
<time>2010-06-20T08:18:36Z</time>
<desc>lat.=55.960709, lon.=26.543159, Alt.=96.557678m. Speed=10.116000m/h.</desc>
<speed>2.810000</speed>
</trkpt>
<trkpt lat="55.960732" lon="26.543180">
<ele>96.004944</ele>
<time>2010-06-20T08:18:37Z</time>
<desc>lat.=55.960732, lon.=26.543180, Alt.=96.004944m. Speed=9.432000m/h.</desc>
<speed>2.620000</speed>
</trkpt>
<trkpt lat="55.960770" lon="26.543192">
<ele>100.635803</ele>
<time>2010-06-20T08:18:38Z</time>
<desc>lat.=55.960770, lon.=26.543192, Alt.=100.635803m. Speed=14.112000m/h.</desc>
<speed>3.920000</speed>
</trkpt>
<trkpt lat="55.960823" lon="26.543224">
<ele>102.465881</ele>
<time>2010-06-20T08:18:39Z</time>
<desc>lat.=55.960823, lon.=26.543224, Alt.=102.465881m. Speed=12.240000m/h.</desc>
<speed>3.400000</speed>
</trkpt>
<trkpt lat="55.960857" lon="26.543257">
<ele>102.612366</ele>
<time>2010-06-20T08:18:40Z</time>
<desc>lat.=55.960857, lon.=26.543257, Alt.=102.612366m. Speed=12.780000m/h.</desc>
<speed>3.550000</speed>
</trkpt>
<trkpt lat="55.960896" lon="26.543282">
<ele>102.604553</ele>
<time>2010-06-20T08:18:41Z</time>
<desc>lat.=55.960896, lon.=26.543282, Alt.=102.604553m. Speed=13.068000m/h.</desc>
<speed>3.630000</speed>
</trkpt>
<trkpt lat="55.960930" lon="26.543303">
<ele>103.108459</ele>
<time>2010-06-20T08:18:42Z</time>
<desc>lat.=55.960930, lon.=26.543303, Alt.=103.108459m. Speed=10.836000m/h.</desc>
<speed>3.010000</speed>
</trkpt>
<trkpt lat="55.960957" lon="26.543320">
<ele>103.665100</ele>
<time>2010-06-20T08:18:43Z</time>
<desc>lat.=55.960957, lon.=26.543320, Alt.=103.665100m. Speed=9.288000m/h.</desc>
<speed>2.580000</speed>
</trkpt>
<trkpt lat="55.960979" lon="26.543346">
<ele>104.446350</ele>
<time>2010-06-20T08:18:44Z</time>
<desc>lat.=55.960979, lon.=26.543346, Alt.=104.446350m. Speed=9.792000m/h.</desc>
<speed>2.720000</speed>
</trkpt>
<trkpt lat="55.960995" lon="26.543367">
<ele>105.153381</ele>
<time>2010-06-20T08:18:45Z</time>
<desc>lat.=55.960995, lon.=26.543367, Alt.=105.153381m. Speed=5.652000m/h.</desc>
<speed>1.570000</speed>
</trkpt>
<trkpt lat="55.961021" lon="26.543377">
<ele>105.325256</ele>
<time>2010-06-20T08:18:46Z</time>
<desc>lat.=55.961021, lon.=26.543377, Alt.=105.325256m. Speed=9.144000m/h.</desc>
<speed>2.540000</speed>
</trkpt>
<trkpt lat="55.961044" lon="26.543394">
<ele>104.124084</ele>
<time>2010-06-20T08:18:47Z</time>
<desc>lat.=55.961044, lon.=26.543394, Alt.=104.124084m. Speed=7.992000m/h.</desc>
<speed>2.220000</speed>
</trkpt>
<trkpt lat="55.961067" lon="26.543409">
<ele>103.768616</ele>
<time>2010-06-20T08:18:48Z</time>
<desc>lat.=55.961067, lon.=26.543409, Alt.=103.768616m. Speed=9.720000m/h.</desc>
<speed>2.700000</speed>
</trkpt>
<trkpt lat="55.961094" lon="26.543430">
<ele>103.182678</ele>
<time>2010-06-20T08:18:49Z</time>
<desc>lat.=55.961094, lon.=26.543430, Alt.=103.182678m. Speed=8.712000m/h.</desc>
<speed>2.420000</speed>
</trkpt>
<trkpt lat="55.961109" lon="26.543451">
<ele>103.868225</ele>
<time>2010-06-20T08:18:50Z</time>
<desc>lat.=55.961109, lon.=26.543451, Alt.=103.868225m. Speed=5.616000m/h.</desc>
<speed>1.560000</speed>
</trkpt>
<trkpt lat="55.961121" lon="26.543467">
<ele>104.081116</ele>
<time>2010-06-20T08:18:51Z</time>
<desc>lat.=55.961121, lon.=26.543467, Alt.=104.081116m. Speed=5.724000m/h.</desc>
<speed>1.590000</speed>
</trkpt>
<trkpt lat="55.961163" lon="26.543495">
<ele>105.036194</ele>
<time>2010-06-20T08:18:52Z</time>
<desc>lat.=55.961163, lon.=26.543495, Alt.=105.036194m. Speed=11.880000m/h.</desc>
<speed>3.300000</speed>
</trkpt>
<trkpt lat="55.961201" lon="26.543518">
<ele>105.575256</ele>
<time>2010-06-20T08:18:53Z</time>
<desc>lat.=55.961201, lon.=26.543518, Alt.=105.575256m. Speed=10.440000m/h.</desc>
<speed>2.900000</speed>
</trkpt>
<trkpt lat="55.961220" lon="26.543535">
<ele>105.045959</ele>
<time>2010-06-20T08:18:54Z</time>
<desc>lat.=55.961220, lon.=26.543535, Alt.=105.045959m. Speed=7.308000m/h.</desc>
<speed>2.030000</speed>
</trkpt>
<trkpt lat="55.961235" lon="26.543543">
<ele>106.917053</ele>
<time>2010-06-20T08:18:55Z</time>
<desc>lat.=55.961235, lon.=26.543543, Alt.=106.917053m. Speed=5.544000m/h.</desc>
<speed>1.540000</speed>
</trkpt>
<trkpt lat="55.961250" lon="26.543550">
<ele>107.303772</ele>
<time>2010-06-20T08:18:56Z</time>
<desc>lat.=55.961250, lon.=26.543550, Alt.=107.303772m. Speed=6.228000m/h.</desc>
<speed>1.730000</speed>
</trkpt>
<trkpt lat="55.961269" lon="26.543556">
<ele>107.592834</ele>
<time>2010-06-20T08:18:57Z</time>
<desc>lat.=55.961269, lon.=26.543556, Alt.=107.592834m. Speed=5.904000m/h.</desc>
<speed>1.640000</speed>
</trkpt>
<trkpt lat="55.961296" lon="26.543566">
<ele>107.352600</ele>
<time>2010-06-20T08:18:58Z</time>
<desc>lat.=55.961296, lon.=26.543566, Alt.=107.352600m. Speed=6.480000m/h.</desc>
<speed>1.800000</speed>
</trkpt>
<trkpt lat="55.961323" lon="26.543571">
<ele>107.389709</ele>
<time>2010-06-20T08:18:59Z</time>
<desc>lat.=55.961323, lon.=26.543571, Alt.=107.389709m. Speed=8.352000m/h.</desc>
<speed>2.320000</speed>
</trkpt>
<trkpt lat="55.961361" lon="26.543585">
<ele>107.454163</ele>
<time>2010-06-20T08:19:00Z</time>
<desc>lat.=55.961361, lon.=26.543585, Alt.=107.454163m. Speed=10.116000m/h.</desc>
<speed>2.810000</speed>
</trkpt>
<trkpt lat="55.961391" lon="26.543600">
<ele>107.376038</ele>
<time>2010-06-20T08:19:01Z</time>
<desc>lat.=55.961391, lon.=26.543600, Alt.=107.376038m. Speed=11.016000m/h.</desc>
<speed>3.060000</speed>
</trkpt>
<trkpt lat="55.961414" lon="26.543617">
<ele>107.180725</ele>
<time>2010-06-20T08:19:02Z</time>
<desc>lat.=55.961414, lon.=26.543617, Alt.=107.180725m. Speed=7.776000m/h.</desc>
<speed>2.160000</speed>
</trkpt>
<trkpt lat="55.961437" lon="26.543640">
<ele>107.190491</ele>
<time>2010-06-20T08:19:03Z</time>
<desc>lat.=55.961437, lon.=26.543640, Alt.=107.190491m. Speed=10.008000m/h.</desc>
<speed>2.780000</speed>
</trkpt>
<trkpt lat="55.961456" lon="26.543657">
<ele>107.393616</ele>
<time>2010-06-20T08:19:04Z</time>
<desc>lat.=55.961456, lon.=26.543657, Alt.=107.393616m. Speed=5.184000m/h.</desc>
<speed>1.440000</speed>
</trkpt>
<trkpt lat="55.961475" lon="26.543667">
<ele>107.303772</ele>
<time>2010-06-20T08:19:05Z</time>
<desc>lat.=55.961475, lon.=26.543667, Alt.=107.303772m. Speed=8.172000m/h.</desc>
<speed>2.270000</speed>
</trkpt>
<trkpt lat="55.961498" lon="26.543671">
<ele>107.147522</ele>
<time>2010-06-20T08:19:06Z</time>
<desc>lat.=55.961498, lon.=26.543671, Alt.=107.147522m. Speed=6.984000m/h.</desc>
<speed>1.940000</speed>
</trkpt>
<trkpt lat="55.961517" lon="26.543674">
<ele>106.688538</ele>
<time>2010-06-20T08:19:07Z</time>
<desc>lat.=55.961517, lon.=26.543674, Alt.=106.688538m. Speed=7.272000m/h.</desc>
<speed>2.020000</speed>
</trkpt>
<trkpt lat="55.961540" lon="26.543680">
<ele>106.350647</ele>
<time>2010-06-20T08:19:08Z</time>
<desc>lat.=55.961540, lon.=26.543680, Alt.=106.350647m. Speed=6.948000m/h.</desc>
<speed>1.930000</speed>
</trkpt>
<trkpt lat="55.961548" lon="26.543686">
<ele>106.184631</ele>
<time>2010-06-20T08:19:09Z</time>
<desc>lat.=55.961548, lon.=26.543686, Alt.=106.184631m. Speed=5.436000m/h.</desc>
<speed>1.510000</speed>
</trkpt>
<trkpt lat="55.961563" lon="26.543690">
<ele>106.583069</ele>
<time>2010-06-20T08:19:10Z</time>
<desc>lat.=55.961563, lon.=26.543690, Alt.=106.583069m. Speed=3.852000m/h.</desc>
<speed>1.070000</speed>
</trkpt>
<trkpt lat="55.961578" lon="26.543695">
<ele>106.440491</ele>
<time>2010-06-20T08:19:11Z</time>
<desc>lat.=55.961578, lon.=26.543695, Alt.=106.440491m. Speed=4.176000m/h.</desc>
<speed>1.160000</speed>
</trkpt>
<trkpt lat="55.961601" lon="26.543697">
<ele>106.569397</ele>
<time>2010-06-20T08:19:12Z</time>
<desc>lat.=55.961601, lon.=26.543697, Alt.=106.569397m. Speed=6.912000m/h.</desc>
<speed>1.920000</speed>
</trkpt>
<trkpt lat="55.961617" lon="26.543697">
<ele>105.948303</ele>
<time>2010-06-20T08:19:13Z</time>
<desc>lat.=55.961617, lon.=26.543697, Alt.=105.948303m. Speed=0.612000m/h.</desc>
<speed>0.170000</speed>
</trkpt>
<trkpt lat="55.961632" lon="26.543690">
<ele>105.893616</ele>
<time>2010-06-20T08:19:14Z</time>
<desc>lat.=55.961632, lon.=26.543690, Alt.=105.893616m. Speed=5.688000m/h.</desc>
<speed>1.580000</speed>
</trkpt>
<trkpt lat="55.961658" lon="26.543684">
<ele>105.852600</ele>
<time>2010-06-20T08:19:15Z</time>
<desc>lat.=55.961658, lon.=26.543684, Alt.=105.852600m. Speed=5.148000m/h.</desc>
<speed>1.430000</speed>
</trkpt>
<trkpt lat="55.961693" lon="26.543682">
<ele>105.458069</ele>
<time>2010-06-20T08:19:16Z</time>
<desc>lat.=55.961693, lon.=26.543682, Alt.=105.458069m. Speed=6.984000m/h.</desc>
<speed>1.940000</speed>
</trkpt>
<trkpt lat="55.961723" lon="26.543684">
<ele>105.174866</ele>
<time>2010-06-20T08:19:17Z</time>
<desc>lat.=55.961723, lon.=26.543684, Alt.=105.174866m. Speed=8.316000m/h.</desc>
<speed>2.310000</speed>
</trkpt>
<trkpt lat="55.961746" lon="26.543686">
<ele>104.385803</ele>
<time>2010-06-20T08:19:18Z</time>
<desc>lat.=55.961746, lon.=26.543686, Alt.=104.385803m. Speed=6.444000m/h.</desc>
<speed>1.790000</speed>
</trkpt>
<trkpt lat="55.961781" lon="26.543692">
<ele>104.460022</ele>
<time>2010-06-20T08:19:19Z</time>
<desc>lat.=55.961781, lon.=26.543692, Alt.=104.460022m. Speed=6.228000m/h.</desc>
<speed>1.730000</speed>
</trkpt>
<trkpt lat="55.961819" lon="26.543695">
<ele>105.694397</ele>
<time>2010-06-20T08:19:20Z</time>
<desc>lat.=55.961819, lon.=26.543695, Alt.=105.694397m. Speed=7.812000m/h.</desc>
<speed>2.170000</speed>
</trkpt>
<trkpt lat="55.961861" lon="26.543690">
<ele>106.143616</ele>
<time>2010-06-20T08:19:21Z</time>
<desc>lat.=55.961861, lon.=26.543690, Alt.=106.143616m. Speed=8.028000m/h.</desc>
<speed>2.230000</speed>
</trkpt>
<trkpt lat="55.961899" lon="26.543682">
<ele>106.266663</ele>
<time>2010-06-20T08:19:22Z</time>
<desc>lat.=55.961899, lon.=26.543682, Alt.=106.266663m. Speed=7.632000m/h.</desc>
<speed>2.120000</speed>
</trkpt>
<trkpt lat="55.961933" lon="26.543676">
<ele>105.754944</ele>
<time>2010-06-20T08:19:23Z</time>
<desc>lat.=55.961933, lon.=26.543676, Alt.=105.754944m. Speed=6.876000m/h.</desc>
<speed>1.910000</speed>
</trkpt>
<trkpt lat="55.961971" lon="26.543673">
<ele>104.506897</ele>
<time>2010-06-20T08:19:24Z</time>
<desc>lat.=55.961971, lon.=26.543673, Alt.=104.506897m. Speed=9.684000m/h.</desc>
<speed>2.690000</speed>
</trkpt>
<trkpt lat="55.962013" lon="26.543673">
<ele>104.233459</ele>
<time>2010-06-20T08:19:25Z</time>
<desc>lat.=55.962013, lon.=26.543673, Alt.=104.233459m. Speed=7.920000m/h.</desc>
<speed>2.200000</speed>
</trkpt>
<trkpt lat="55.962040" lon="26.543673">
<ele>104.520569</ele>
<time>2010-06-20T08:19:26Z</time>
<desc>lat.=55.962040, lon.=26.543673, Alt.=104.520569m. Speed=6.660000m/h.</desc>
<speed>1.850000</speed>
</trkpt>
<trkpt lat="55.962063" lon="26.543667">
<ele>104.639709</ele>
<time>2010-06-20T08:19:27Z</time>
<desc>lat.=55.962063, lon.=26.543667, Alt.=104.639709m. Speed=7.380000m/h.</desc>
<speed>2.050000</speed>
</trkpt>
<trkpt lat="55.962093" lon="26.543667">
<ele>106.637756</ele>
<time>2010-06-20T08:19:28Z</time>
<desc>lat.=55.962093, lon.=26.543667, Alt.=106.637756m. Speed=6.120000m/h.</desc>
<speed>1.700000</speed>
</trkpt>
<trkpt lat="55.962112" lon="26.543673">
<ele>106.307678</ele>
<time>2010-06-20T08:19:29Z</time>
<desc>lat.=55.962112, lon.=26.543673, Alt.=106.307678m. Speed=7.740000m/h.</desc>
<speed>2.150000</speed>
</trkpt>
<trkpt lat="55.962143" lon="26.543655">
<ele>106.335022</ele>
<time>2010-06-20T08:19:30Z</time>
<desc>lat.=55.962143, lon.=26.543655, Alt.=106.335022m. Speed=8.748000m/h.</desc>
<speed>2.430000</speed>
</trkpt>
<trkpt lat="55.962170" lon="26.543642">
<ele>106.395569</ele>
<time>2010-06-20T08:19:31Z</time>
<desc>lat.=55.962170, lon.=26.543642, Alt.=106.395569m. Speed=9.432000m/h.</desc>
<speed>2.620000</speed>
</trkpt>
<trkpt lat="55.962196" lon="26.543623">
<ele>106.354553</ele>
<time>2010-06-20T08:19:32Z</time>
<desc>lat.=55.962196, lon.=26.543623, Alt.=106.354553m. Speed=8.784000m/h.</desc>
<speed>2.440000</speed>
</trkpt>
<trkpt lat="55.962227" lon="26.543604">
<ele>105.579163</ele>
<time>2010-06-20T08:19:33Z</time>
<desc>lat.=55.962227, lon.=26.543604, Alt.=105.579163m. Speed=9.684000m/h.</desc>
<speed>2.690000</speed>
</trkpt>
<trkpt lat="55.962257" lon="26.543585">
<ele>106.178772</ele>
<time>2010-06-20T08:19:34Z</time>
<desc>lat.=55.962257, lon.=26.543585, Alt.=106.178772m. Speed=10.080000m/h.</desc>
<speed>2.800000</speed>
</trkpt>
<trkpt lat="55.962280" lon="26.543573">
<ele>106.124084</ele>
<time>2010-06-20T08:19:35Z</time>
<desc>lat.=55.962280, lon.=26.543573, Alt.=106.124084m. Speed=10.080000m/h.</desc>
<speed>2.800000</speed>
</trkpt>
<trkpt lat="55.962307" lon="26.543552">
<ele>106.323303</ele>
<time>2010-06-20T08:19:36Z</time>
<desc>lat.=55.962307, lon.=26.543552, Alt.=106.323303m. Speed=6.588000m/h.</desc>
<speed>1.830000</speed>
</trkpt>
<trkpt lat="55.962334" lon="26.543530">
<ele>105.844788</ele>
<time>2010-06-20T08:19:37Z</time>
<desc>lat.=55.962334, lon.=26.543530, Alt.=105.844788m. Speed=8.640000m/h.</desc>
<speed>2.400000</speed>
</trkpt>
<trkpt lat="55.962353" lon="26.543512">
<ele>105.348694</ele>
<time>2010-06-20T08:19:38Z</time>
<desc>lat.=55.962353, lon.=26.543512, Alt.=105.348694m. Speed=7.308000m/h.</desc>
<speed>2.030000</speed>
</trkpt>
<trkpt lat="55.962383" lon="26.543484">
<ele>105.471741</ele>
<time>2010-06-20T08:19:39Z</time>
<desc>lat.=55.962383, lon.=26.543484, Alt.=105.471741m. Speed=7.632000m/h.</desc>
<speed>2.120000</speed>
</trkpt>
<trkpt lat="55.962414" lon="26.543470">
<ele>105.776428</ele>
<time>2010-06-20T08:19:40Z</time>
<desc>lat.=55.962414, lon.=26.543470, Alt.=105.776428m. Speed=9.216000m/h.</desc>
<speed>2.560000</speed>
</trkpt>
<trkpt lat="55.962448" lon="26.543447">
<ele>106.094788</ele>
<time>2010-06-20T08:19:41Z</time>
<desc>lat.=55.962448, lon.=26.543447, Alt.=106.094788m. Speed=10.188000m/h.</desc>
<speed>2.830000</speed>
</trkpt>
<trkpt lat="55.962479" lon="26.543415">
<ele>105.643616</ele>
<time>2010-06-20T08:19:42Z</time>
<desc>lat.=55.962479, lon.=26.543415, Alt.=105.643616m. Speed=9.684000m/h.</desc>
<speed>2.690000</speed>
</trkpt>
<trkpt lat="55.962509" lon="26.543373">
<ele>105.465881</ele>
<time>2010-06-20T08:19:43Z</time>
<desc>lat.=55.962509, lon.=26.543373, Alt.=105.465881m. Speed=10.728000m/h.</desc>
<speed>2.980000</speed>
</trkpt>
<trkpt lat="55.962536" lon="26.543346">
<ele>105.348694</ele>
<time>2010-06-20T08:19:44Z</time>
<desc>lat.=55.962536, lon.=26.543346, Alt.=105.348694m. Speed=9.216000m/h.</desc>
<speed>2.560000</speed>
</trkpt>
<trkpt lat="55.962566" lon="26.543322">
<ele>105.346741</ele>
<time>2010-06-20T08:19:45Z</time>
<desc>lat.=55.962566, lon.=26.543322, Alt.=105.346741m. Speed=9.324000m/h.</desc>
<speed>2.590000</speed>
</trkpt>
<trkpt lat="55.962585" lon="26.543297">
<ele>105.161194</ele>
<time>2010-06-20T08:19:46Z</time>
<desc>lat.=55.962585, lon.=26.543297, Alt.=105.161194m. Speed=8.604000m/h.</desc>
<speed>2.390000</speed>
</trkpt>
<trkpt lat="55.962616" lon="26.543276">
<ele>105.454163</ele>
<time>2010-06-20T08:19:47Z</time>
<desc>lat.=55.962616, lon.=26.543276, Alt.=105.454163m. Speed=9.828000m/h.</desc>
<speed>2.730000</speed>
</trkpt>
<trkpt lat="55.962646" lon="26.543243">
<ele>105.598694</ele>
<time>2010-06-20T08:19:48Z</time>
<desc>lat.=55.962646, lon.=26.543243, Alt.=105.598694m. Speed=10.656000m/h.</desc>
<speed>2.960000</speed>
</trkpt>
<trkpt lat="55.962666" lon="26.543219">
<ele>104.932678</ele>
<time>2010-06-20T08:19:49Z</time>
<desc>lat.=55.962666, lon.=26.543219, Alt.=104.932678m. Speed=3.600000m/h.</desc>
<speed>1.000000</speed>
</trkpt>
<trkpt lat="55.962692" lon="26.543200">
<ele>104.741272</ele>
<time>2010-06-20T08:19:50Z</time>
<desc>lat.=55.962692, lon.=26.543200, Alt.=104.741272m. Speed=8.460000m/h.</desc>
<speed>2.350000</speed>
</trkpt>
<trkpt lat="55.962723" lon="26.543196">
<ele>104.419006</ele>
<time>2010-06-20T08:19:51Z</time>
<desc>lat.=55.962723, lon.=26.543196, Alt.=104.419006m. Speed=6.804000m/h.</desc>
<speed>1.890000</speed>
</trkpt>
<trkpt lat="55.962746" lon="26.543186">
<ele>104.147522</ele>
<time>2010-06-20T08:19:52Z</time>
<desc>lat.=55.962746, lon.=26.543186, Alt.=104.147522m. Speed=7.524000m/h.</desc>
<speed>2.090000</speed>
</trkpt>
<trkpt lat="55.962772" lon="26.543177">
<ele>104.374084</ele>
<time>2010-06-20T08:19:53Z</time>
<desc>lat.=55.962772, lon.=26.543177, Alt.=104.374084m. Speed=4.608000m/h.</desc>
<speed>1.280000</speed>
</trkpt>
<trkpt lat="55.962791" lon="26.543159">
<ele>104.344788</ele>
<time>2010-06-20T08:19:54Z</time>
<desc>lat.=55.962791, lon.=26.543159, Alt.=104.344788m. Speed=7.344000m/h.</desc>
<speed>2.040000</speed>
</trkpt>
<trkpt lat="55.962811" lon="26.543137">
<ele>103.598694</ele>
<time>2010-06-20T08:19:55Z</time>
<desc>lat.=55.962811, lon.=26.543137, Alt.=103.598694m. Speed=7.812000m/h.</desc>
<speed>2.170000</speed>
</trkpt>
<trkpt lat="55.962833" lon="26.543097">
<ele>102.866272</ele>
<time>2010-06-20T08:19:56Z</time>
<desc>lat.=55.962833, lon.=26.543097, Alt.=102.866272m. Speed=9.036000m/h.</desc>
<speed>2.510000</speed>
</trkpt>
<trkpt lat="55.962860" lon="26.543062">
<ele>102.063538</ele>
<time>2010-06-20T08:19:57Z</time>
<desc>lat.=55.962860, lon.=26.543062, Alt.=102.063538m. Speed=10.836000m/h.</desc>
<speed>3.010000</speed>
</trkpt>
<trkpt lat="55.962879" lon="26.543034">
<ele>103.176819</ele>
<time>2010-06-20T08:19:58Z</time>
<desc>lat.=55.962879, lon.=26.543034, Alt.=103.176819m. Speed=9.108000m/h.</desc>
<speed>2.530000</speed>
</trkpt>
<trkpt lat="55.962902" lon="26.543009">
<ele>102.108459</ele>
<time>2010-06-20T08:19:59Z</time>
<desc>lat.=55.962902, lon.=26.543009, Alt.=102.108459m. Speed=9.504000m/h.</desc>
<speed>2.640000</speed>
</trkpt>
<trkpt lat="55.962921" lon="26.542986">
<ele>102.333069</ele>
<time>2010-06-20T08:20:00Z</time>
<desc>lat.=55.962921, lon.=26.542986, Alt.=102.333069m. Speed=8.820000m/h.</desc>
<speed>2.450000</speed>
</trkpt>
<trkpt lat="55.962933" lon="26.542955">
<ele>102.042053</ele>
<time>2010-06-20T08:20:01Z</time>
<desc>lat.=55.962933, lon.=26.542955, Alt.=102.042053m. Speed=7.776000m/h.</desc>
<speed>2.160000</speed>
</trkpt>
<trkpt lat="55.962948" lon="26.542938">
<ele>100.926819</ele>
<time>2010-06-20T08:20:02Z</time>
<desc>lat.=55.962948, lon.=26.542938, Alt.=100.926819m. Speed=7.488000m/h.</desc>
<speed>2.080000</speed>
</trkpt>
<trkpt lat="55.962971" lon="26.542917">
<ele>100.624084</ele>
<time>2010-06-20T08:20:03Z</time>
<desc>lat.=55.962971, lon.=26.542917, Alt.=100.624084m. Speed=7.704000m/h.</desc>
<speed>2.140000</speed>
</trkpt>
<trkpt lat="55.963001" lon="26.542894">
<ele>101.102600</ele>
<time>2010-06-20T08:20:04Z</time>
<desc>lat.=55.963001, lon.=26.542894, Alt.=101.102600m. Speed=10.152000m/h.</desc>
<speed>2.820000</speed>
</trkpt>
<trkpt lat="55.963024" lon="26.542873">
<ele>101.040100</ele>
<time>2010-06-20T08:20:05Z</time>
<desc>lat.=55.963024, lon.=26.542873, Alt.=101.040100m. Speed=9.828000m/h.</desc>
<speed>2.730000</speed>
</trkpt>
<trkpt lat="55.963043" lon="26.542850">
<ele>100.567444</ele>
<time>2010-06-20T08:20:06Z</time>
<desc>lat.=55.963043, lon.=26.542850, Alt.=100.567444m. Speed=8.640000m/h.</desc>
<speed>2.400000</speed>
</trkpt>
<trkpt lat="55.963062" lon="26.542826">
<ele>100.637756</ele>
<time>2010-06-20T08:20:07Z</time>
<desc>lat.=55.963062, lon.=26.542826, Alt.=100.637756m. Speed=9.576000m/h.</desc>
<speed>2.660000</speed>
</trkpt>
<trkpt lat="55.963089" lon="26.542805">
<ele>101.184631</ele>
<time>2010-06-20T08:20:08Z</time>
<desc>lat.=55.963089, lon.=26.542805, Alt.=101.184631m. Speed=8.928000m/h.</desc>
<speed>2.480000</speed>
</trkpt>
<trkpt lat="55.963100" lon="26.542791">
<ele>101.174866</ele>
<time>2010-06-20T08:20:09Z</time>
<desc>lat.=55.963100, lon.=26.542791, Alt.=101.174866m. Speed=4.860000m/h.</desc>
<speed>1.350000</speed>
</trkpt>
<trkpt lat="55.963120" lon="26.542772">
<ele>101.266663</ele>
<time>2010-06-20T08:20:10Z</time>
<desc>lat.=55.963120, lon.=26.542772, Alt.=101.266663m. Speed=5.364000m/h.</desc>
<speed>1.490000</speed>
</trkpt>
<trkpt lat="55.963146" lon="26.542749">
<ele>101.504944</ele>
<time>2010-06-20T08:20:11Z</time>
<desc>lat.=55.963146, lon.=26.542749, Alt.=101.504944m. Speed=8.280000m/h.</desc>
<speed>2.300000</speed>
</trkpt>
<trkpt lat="55.963165" lon="26.542730">
<ele>100.743225</ele>
<time>2010-06-20T08:20:12Z</time>
<desc>lat.=55.963165, lon.=26.542730, Alt.=100.743225m. Speed=8.748000m/h.</desc>
<speed>2.430000</speed>
</trkpt>
<trkpt lat="55.963184" lon="26.542707">
<ele>100.461975</ele>
<time>2010-06-20T08:20:13Z</time>
<desc>lat.=55.963184, lon.=26.542707, Alt.=100.461975m. Speed=9.684000m/h.</desc>
<speed>2.690000</speed>
</trkpt>
<trkpt lat="55.963211" lon="26.542679">
<ele>101.044006</ele>
<time>2010-06-20T08:20:14Z</time>
<desc>lat.=55.963211, lon.=26.542679, Alt.=101.044006m. Speed=11.232000m/h.</desc>
<speed>3.120000</speed>
</trkpt>
<trkpt lat="55.963242" lon="26.542662">
<ele>100.208069</ele>
<time>2010-06-20T08:20:15Z</time>
<desc>lat.=55.963242, lon.=26.542662, Alt.=100.208069m. Speed=10.116000m/h.</desc>
<speed>2.810000</speed>
</trkpt>
<trkpt lat="55.963272" lon="26.542641">
<ele>100.995178</ele>
<time>2010-06-20T08:20:16Z</time>
<desc>lat.=55.963272, lon.=26.542641, Alt.=100.995178m. Speed=11.952000m/h.</desc>
<speed>3.320000</speed>
</trkpt>
<trkpt lat="55.963299" lon="26.542620">
<ele>100.915100</ele>
<time>2010-06-20T08:20:17Z</time>
<desc>lat.=55.963299, lon.=26.542620, Alt.=100.915100m. Speed=11.556000m/h.</desc>
<speed>3.210000</speed>
</trkpt>
<trkpt lat="55.963337" lon="26.542591">
<ele>102.784241</ele>
<time>2010-06-20T08:20:18Z</time>
<desc>lat.=55.963337, lon.=26.542591, Alt.=102.784241m. Speed=11.268000m/h.</desc>
<speed>3.130000</speed>
</trkpt>
<trkpt lat="55.963371" lon="26.542566">
<ele>104.311584</ele>
<time>2010-06-20T08:20:19Z</time>
<desc>lat.=55.963371, lon.=26.542566, Alt.=104.311584m. Speed=12.060000m/h.</desc>
<speed>3.350000</speed>
</trkpt>
<trkpt lat="55.963406" lon="26.542536">
<ele>105.811584</ele>
<time>2010-06-20T08:20:20Z</time>
<desc>lat.=55.963406, lon.=26.542536, Alt.=105.811584m. Speed=13.608000m/h.</desc>
<speed>3.780000</speed>
</trkpt>
<trkpt lat="55.963436" lon="26.542511">
<ele>106.049866</ele>
<time>2010-06-20T08:20:21Z</time>
<desc>lat.=55.963436, lon.=26.542511, Alt.=106.049866m. Speed=10.944000m/h.</desc>
<speed>3.040000</speed>
</trkpt>
<trkpt lat="55.963470" lon="26.542477">
<ele>107.405334</ele>
<time>2010-06-20T08:20:22Z</time>
<desc>lat.=55.963470, lon.=26.542477, Alt.=107.405334m. Speed=15.300000m/h.</desc>
<speed>4.250000</speed>
</trkpt>
<trkpt lat="55.963505" lon="26.542452">
<ele>107.415100</ele>
<time>2010-06-20T08:20:23Z</time>
<desc>lat.=55.963505, lon.=26.542452, Alt.=107.415100m. Speed=10.260000m/h.</desc>
<speed>2.850000</speed>
</trkpt>
<trkpt lat="55.963528" lon="26.542435">
<ele>107.167053</ele>
<time>2010-06-20T08:20:24Z</time>
<desc>lat.=55.963528, lon.=26.542435, Alt.=107.167053m. Speed=10.044000m/h.</desc>
<speed>2.790000</speed>
</trkpt>
<trkpt lat="55.963558" lon="26.542406">
<ele>107.178772</ele>
<time>2010-06-20T08:20:25Z</time>
<desc>lat.=55.963558, lon.=26.542406, Alt.=107.178772m. Speed=11.268000m/h.</desc>
<speed>3.130000</speed>
</trkpt>
<trkpt lat="55.963593" lon="26.542383">
<ele>106.922913</ele>
<time>2010-06-20T08:20:26Z</time>
<desc>lat.=55.963593, lon.=26.542383, Alt.=106.922913m. Speed=12.780000m/h.</desc>
<speed>3.550000</speed>
</trkpt>
<trkpt lat="55.963631" lon="26.542356">
<ele>106.788147</ele>
<time>2010-06-20T08:20:27Z</time>
<desc>lat.=55.963631, lon.=26.542356, Alt.=106.788147m. Speed=12.312000m/h.</desc>
<speed>3.420000</speed>
</trkpt>
<trkpt lat="55.963661" lon="26.542332">
<ele>107.106506</ele>
<time>2010-06-20T08:20:28Z</time>
<desc>lat.=55.963661, lon.=26.542332, Alt.=107.106506m. Speed=12.240000m/h.</desc>
<speed>3.400000</speed>
</trkpt>
<trkpt lat="55.963692" lon="26.542318">
<ele>106.618225</ele>
<time>2010-06-20T08:20:29Z</time>
<desc>lat.=55.963692, lon.=26.542318, Alt.=106.618225m. Speed=9.792000m/h.</desc>
<speed>2.720000</speed>
</trkpt>
<trkpt lat="55.963722" lon="26.542305">
<ele>105.911194</ele>
<time>2010-06-20T08:20:30Z</time>
<desc>lat.=55.963722, lon.=26.542305, Alt.=105.911194m. Speed=10.980000m/h.</desc>
<speed>3.050000</speed>
</trkpt>
<trkpt lat="55.963745" lon="26.542303">
<ele>105.415100</ele>
<time>2010-06-20T08:20:31Z</time>
<desc>lat.=55.963745, lon.=26.542303, Alt.=105.415100m. Speed=8.856000m/h.</desc>
<speed>2.460000</speed>
</trkpt>
<trkpt lat="55.963776" lon="26.542295">
<ele>105.588928</ele>
<time>2010-06-20T08:20:32Z</time>
<desc>lat.=55.963776, lon.=26.542295, Alt.=105.588928m. Speed=10.476000m/h.</desc>
<speed>2.910000</speed>
</trkpt>
<trkpt lat="55.963802" lon="26.542278">
<ele>106.155334</ele>
<time>2010-06-20T08:20:33Z</time>
<desc>lat.=55.963802, lon.=26.542278, Alt.=106.155334m. Speed=9.324000m/h.</desc>
<speed>2.590000</speed>
</trkpt>
<trkpt lat="55.963829" lon="26.542263">
<ele>106.411194</ele>
<time>2010-06-20T08:20:34Z</time>
<desc>lat.=55.963829, lon.=26.542263, Alt.=106.411194m. Speed=8.640000m/h.</desc>
<speed>2.400000</speed>
</trkpt>
<trkpt lat="55.963860" lon="26.542244">
<ele>107.381897</ele>
<time>2010-06-20T08:20:35Z</time>
<desc>lat.=55.963860, lon.=26.542244, Alt.=107.381897m. Speed=10.944000m/h.</desc>
<speed>3.040000</speed>
</trkpt>
<trkpt lat="55.963905" lon="26.542233">
<ele>107.155334</ele>
<time>2010-06-20T08:20:36Z</time>
<desc>lat.=55.963905, lon.=26.542233, Alt.=107.155334m. Speed=13.536000m/h.</desc>
<speed>3.760000</speed>
</trkpt>
<trkpt lat="55.963943" lon="26.542213">
<ele>109.268616</ele>
<time>2010-06-20T08:20:37Z</time>
<desc>lat.=55.963943, lon.=26.542213, Alt.=109.268616m. Speed=13.572000m/h.</desc>
<speed>3.770000</speed>
</trkpt>
<trkpt lat="55.963989" lon="26.542204">
<ele>109.575256</ele>
<time>2010-06-20T08:20:38Z</time>
<desc>lat.=55.963989, lon.=26.542204, Alt.=109.575256m. Speed=12.780000m/h.</desc>
<speed>3.550000</speed>
</trkpt>
<trkpt lat="55.964016" lon="26.542204">
<ele>109.770569</ele>
<time>2010-06-20T08:20:39Z</time>
<desc>lat.=55.964016, lon.=26.542204, Alt.=109.770569m. Speed=9.144000m/h.</desc>
<speed>2.540000</speed>
</trkpt>
<trkpt lat="55.964046" lon="26.542200">
<ele>109.469788</ele>
<time>2010-06-20T08:20:40Z</time>
<desc>lat.=55.964046, lon.=26.542200, Alt.=109.469788m. Speed=10.188000m/h.</desc>
<speed>2.830000</speed>
</trkpt>
<trkpt lat="55.964069" lon="26.542183">
<ele>109.926819</ele>
<time>2010-06-20T08:20:41Z</time>
<desc>lat.=55.964069, lon.=26.542183, Alt.=109.926819m. Speed=6.876000m/h.</desc>
<speed>1.910000</speed>
</trkpt>
<trkpt lat="55.964088" lon="26.542164">
<ele>110.221741</ele>
<time>2010-06-20T08:20:42Z</time>
<desc>lat.=55.964088, lon.=26.542164, Alt.=110.221741m. Speed=8.424000m/h.</desc>
<speed>2.340000</speed>
</trkpt>
<trkpt lat="55.964123" lon="26.542141">
<ele>108.446350</ele>
<time>2010-06-20T08:20:43Z</time>
<desc>lat.=55.964123, lon.=26.542141, Alt.=108.446350m. Speed=11.628000m/h.</desc>
<speed>3.230000</speed>
</trkpt>
<trkpt lat="55.964169" lon="26.542128">
<ele>108.491272</ele>
<time>2010-06-20T08:20:44Z</time>
<desc>lat.=55.964169, lon.=26.542128, Alt.=108.491272m. Speed=13.824000m/h.</desc>
<speed>3.840000</speed>
</trkpt>
<trkpt lat="55.964211" lon="26.542110">
<ele>108.092834</ele>
<time>2010-06-20T08:20:45Z</time>
<desc>lat.=55.964211, lon.=26.542110, Alt.=108.092834m. Speed=10.872000m/h.</desc>
<speed>3.020000</speed>
</trkpt>
<trkpt lat="55.964245" lon="26.542095">
<ele>107.848694</ele>
<time>2010-06-20T08:20:46Z</time>
<desc>lat.=55.964245, lon.=26.542095, Alt.=107.848694m. Speed=11.052000m/h.</desc>
<speed>3.070000</speed>
</trkpt>
<trkpt lat="55.964275" lon="26.542084">
<ele>107.735413</ele>
<time>2010-06-20T08:20:47Z</time>
<desc>lat.=55.964275, lon.=26.542084, Alt.=107.735413m. Speed=10.260000m/h.</desc>
<speed>2.850000</speed>
</trkpt>
<trkpt lat="55.964306" lon="26.542065">
<ele>108.801819</ele>
<time>2010-06-20T08:20:48Z</time>
<desc>lat.=55.964306, lon.=26.542065, Alt.=108.801819m. Speed=9.504000m/h.</desc>
<speed>2.640000</speed>
</trkpt>
<trkpt lat="55.964325" lon="26.542068">
<ele>108.292053</ele>
<time>2010-06-20T08:20:49Z</time>
<desc>lat.=55.964325, lon.=26.542068, Alt.=108.292053m. Speed=9.612000m/h.</desc>
<speed>2.670000</speed>
</trkpt>
<trkpt lat="55.964348" lon="26.542059">
<ele>108.303772</ele>
<time>2010-06-20T08:20:50Z</time>
<desc>lat.=55.964348, lon.=26.542059, Alt.=108.303772m. Speed=10.080000m/h.</desc>
<speed>2.800000</speed>
</trkpt>
<trkpt lat="55.964375" lon="26.542038">
<ele>108.528381</ele>
<time>2010-06-20T08:20:51Z</time>
<desc>lat.=55.964375, lon.=26.542038, Alt.=108.528381m. Speed=9.000000m/h.</desc>
<speed>2.500000</speed>
</trkpt>
<trkpt lat="55.964401" lon="26.542007">
<ele>109.249084</ele>
<time>2010-06-20T08:20:52Z</time>
<desc>lat.=55.964401, lon.=26.542007, Alt.=109.249084m. Speed=9.972000m/h.</desc>
<speed>2.770000</speed>
</trkpt>
<trkpt lat="55.964428" lon="26.541994">
<ele>108.903381</ele>
<time>2010-06-20T08:20:53Z</time>
<desc>lat.=55.964428, lon.=26.541994, Alt.=108.903381m. Speed=11.448000m/h.</desc>
<speed>3.180000</speed>
</trkpt>
<trkpt lat="55.964466" lon="26.541985">
<ele>108.469788</ele>
<time>2010-06-20T08:20:54Z</time>
<desc>lat.=55.964466, lon.=26.541985, Alt.=108.469788m. Speed=10.296000m/h.</desc>
<speed>2.860000</speed>
</trkpt>
<trkpt lat="55.964489" lon="26.541979">
<ele>108.008850</ele>
<time>2010-06-20T08:20:55Z</time>
<desc>lat.=55.964489, lon.=26.541979, Alt.=108.008850m. Speed=7.740000m/h.</desc>
<speed>2.150000</speed>
</trkpt>
<trkpt lat="55.964508" lon="26.541985">
<ele>107.407288</ele>
<time>2010-06-20T08:20:56Z</time>
<desc>lat.=55.964508, lon.=26.541985, Alt.=107.407288m. Speed=9.072000m/h.</desc>
<speed>2.520000</speed>
</trkpt>
<trkpt lat="55.964535" lon="26.541988">
<ele>106.329163</ele>
<time>2010-06-20T08:20:57Z</time>
<desc>lat.=55.964535, lon.=26.541988, Alt.=106.329163m. Speed=9.864000m/h.</desc>
<speed>2.740000</speed>
</trkpt>
<trkpt lat="55.964573" lon="26.541986">
<ele>105.387756</ele>
<time>2010-06-20T08:20:58Z</time>
<desc>lat.=55.964573, lon.=26.541986, Alt.=105.387756m. Speed=10.404000m/h.</desc>
<speed>2.890000</speed>
</trkpt>
<trkpt lat="55.964596" lon="26.541992">
<ele>104.891663</ele>
<time>2010-06-20T08:20:59Z</time>
<desc>lat.=55.964596, lon.=26.541992, Alt.=104.891663m. Speed=7.380000m/h.</desc>
<speed>2.050000</speed>
</trkpt>
<trkpt lat="55.964630" lon="26.541981">
<ele>104.165100</ele>
<time>2010-06-20T08:21:00Z</time>
<desc>lat.=55.964630, lon.=26.541981, Alt.=104.165100m. Speed=9.756000m/h.</desc>
<speed>2.710000</speed>
</trkpt>
<trkpt lat="55.964661" lon="26.541971">
<ele>103.989319</ele>
<time>2010-06-20T08:21:01Z</time>
<desc>lat.=55.964661, lon.=26.541971, Alt.=103.989319m. Speed=10.080000m/h.</desc>
<speed>2.800000</speed>
</trkpt>
<trkpt lat="55.964691" lon="26.541958">
<ele>104.493225</ele>
<time>2010-06-20T08:21:02Z</time>
<desc>lat.=55.964691, lon.=26.541958, Alt.=104.493225m. Speed=10.404000m/h.</desc>
<speed>2.890000</speed>
</trkpt>
<trkpt lat="55.964718" lon="26.541954">
<ele>104.309631</ele>
<time>2010-06-20T08:21:03Z</time>
<desc>lat.=55.964718, lon.=26.541954, Alt.=104.309631m. Speed=11.520000m/h.</desc>
<speed>3.200000</speed>
</trkpt>
<trkpt lat="55.964756" lon="26.541950">
<ele>102.647522</ele>
<time>2010-06-20T08:21:04Z</time>
<desc>lat.=55.964756, lon.=26.541950, Alt.=102.647522m. Speed=11.160000m/h.</desc>
<speed>3.100000</speed>
</trkpt>
<trkpt lat="55.964802" lon="26.541969">
<ele>101.913147</ele>
<time>2010-06-20T08:21:05Z</time>
<desc>lat.=55.964802, lon.=26.541969, Alt.=101.913147m. Speed=10.332000m/h.</desc>
<speed>2.870000</speed>
</trkpt>
<trkpt lat="55.964832" lon="26.541960">
<ele>101.981506</ele>
<time>2010-06-20T08:21:06Z</time>
<desc>lat.=55.964832, lon.=26.541960, Alt.=101.981506m. Speed=7.092000m/h.</desc>
<speed>1.970000</speed>
</trkpt>
<trkpt lat="55.964855" lon="26.541973">
<ele>100.876038</ele>
<time>2010-06-20T08:21:07Z</time>
<desc>lat.=55.964855, lon.=26.541973, Alt.=100.876038m. Speed=7.956000m/h.</desc>
<speed>2.210000</speed>
</trkpt>
<trkpt lat="55.964882" lon="26.541977">
<ele>100.034241</ele>
<time>2010-06-20T08:21:08Z</time>
<desc>lat.=55.964882, lon.=26.541977, Alt.=100.034241m. Speed=5.436000m/h.</desc>
<speed>1.510000</speed>
</trkpt>
<trkpt lat="55.964893" lon="26.541977">
<ele>99.909241</ele>
<time>2010-06-20T08:21:09Z</time>
<desc>lat.=55.964893, lon.=26.541977, Alt.=99.909241m. Speed=5.868000m/h.</desc>
<speed>1.630000</speed>
</trkpt>
<trkpt lat="55.964920" lon="26.541965">
<ele>99.807678</ele>
<time>2010-06-20T08:21:10Z</time>
<desc>lat.=55.964920, lon.=26.541965, Alt.=99.807678m. Speed=6.624000m/h.</desc>
<speed>1.840000</speed>
</trkpt>
<trkpt lat="55.964954" lon="26.541950">
<ele>98.542053</ele>
<time>2010-06-20T08:21:11Z</time>
<desc>lat.=55.964954, lon.=26.541950, Alt.=98.542053m. Speed=7.632000m/h.</desc>
<speed>2.120000</speed>
</trkpt>
<trkpt lat="55.964977" lon="26.541941">
<ele>98.323303</ele>
<time>2010-06-20T08:21:12Z</time>
<desc>lat.=55.964977, lon.=26.541941, Alt.=98.323303m. Speed=6.660000m/h.</desc>
<speed>1.850000</speed>
</trkpt>
<trkpt lat="55.965027" lon="26.541943">
<ele>100.799866</ele>
<time>2010-06-20T08:21:13Z</time>
<desc>lat.=55.965027, lon.=26.541943, Alt.=100.799866m. Speed=9.144000m/h.</desc>
<speed>2.540000</speed>
</trkpt>
<trkpt lat="55.965050" lon="26.541931">
<ele>101.307678</ele>
<time>2010-06-20T08:21:14Z</time>
<desc>lat.=55.965050, lon.=26.541931, Alt.=101.307678m. Speed=8.604000m/h.</desc>
<speed>2.390000</speed>
</trkpt>
<trkpt lat="55.965069" lon="26.541910">
<ele>100.610413</ele>
<time>2010-06-20T08:21:15Z</time>
<desc>lat.=55.965069, lon.=26.541910, Alt.=100.610413m. Speed=6.120000m/h.</desc>
<speed>1.700000</speed>
</trkpt>
<trkpt lat="55.965088" lon="26.541903">
<ele>100.577209</ele>
<time>2010-06-20T08:21:16Z</time>
<desc>lat.=55.965088, lon.=26.541903, Alt.=100.577209m. Speed=7.344000m/h.</desc>
<speed>2.040000</speed>
</trkpt>
<trkpt lat="55.965111" lon="26.541895">
<ele>100.715881</ele>
<time>2010-06-20T08:21:17Z</time>
<desc>lat.=55.965111, lon.=26.541895, Alt.=100.715881m. Speed=8.928000m/h.</desc>
<speed>2.480000</speed>
</trkpt>
<trkpt lat="55.965118" lon="26.541914">
<ele>101.368225</ele>
<time>2010-06-20T08:21:18Z</time>
<desc>lat.=55.965118, lon.=26.541914, Alt.=101.368225m. Speed=4.896000m/h.</desc>
<speed>1.360000</speed>
</trkpt>
<trkpt lat="55.965137" lon="26.541916">
<ele>101.108459</ele>
<time>2010-06-20T08:21:19Z</time>
<desc>lat.=55.965137, lon.=26.541916, Alt.=101.108459m. Speed=5.220000m/h.</desc>
<speed>1.450000</speed>
</trkpt>
<trkpt lat="55.965191" lon="26.541916">
<ele>101.786194</ele>
<time>2010-06-20T08:21:20Z</time>
<desc>lat.=55.965191, lon.=26.541916, Alt.=101.786194m. Speed=10.872000m/h.</desc>
<speed>3.020000</speed>
</trkpt>
<trkpt lat="55.965214" lon="26.541912">
<ele>102.149475</ele>
<time>2010-06-20T08:21:21Z</time>
<desc>lat.=55.965214, lon.=26.541912, Alt.=102.149475m. Speed=8.748000m/h.</desc>
<speed>2.430000</speed>
</trkpt>
<trkpt lat="55.965252" lon="26.541912">
<ele>102.461975</ele>
<time>2010-06-20T08:21:22Z</time>
<desc>lat.=55.965252, lon.=26.541912, Alt.=102.461975m. Speed=8.424000m/h.</desc>
<speed>2.340000</speed>
</trkpt>
<trkpt lat="55.965294" lon="26.541904">
<ele>102.684631</ele>
<time>2010-06-20T08:21:23Z</time>
<desc>lat.=55.965294, lon.=26.541904, Alt.=102.684631m. Speed=8.532000m/h.</desc>
<speed>2.370000</speed>
</trkpt>
<trkpt lat="55.965313" lon="26.541897">
<ele>102.989319</ele>
<time>2010-06-20T08:21:24Z</time>
<desc>lat.=55.965313, lon.=26.541897, Alt.=102.989319m. Speed=6.516000m/h.</desc>
<speed>1.810000</speed>
</trkpt>
<trkpt lat="55.965340" lon="26.541889">
<ele>103.012756</ele>
<time>2010-06-20T08:21:25Z</time>
<desc>lat.=55.965340, lon.=26.541889, Alt.=103.012756m. Speed=10.404000m/h.</desc>
<speed>2.890000</speed>
</trkpt>
<trkpt lat="55.965370" lon="26.541882">
<ele>103.161194</ele>
<time>2010-06-20T08:21:26Z</time>
<desc>lat.=55.965370, lon.=26.541882, Alt.=103.161194m. Speed=9.432000m/h.</desc>
<speed>2.620000</speed>
</trkpt>
<trkpt lat="55.965401" lon="26.541876">
<ele>102.637756</ele>
<time>2010-06-20T08:21:27Z</time>
<desc>lat.=55.965401, lon.=26.541876, Alt.=102.637756m. Speed=8.028000m/h.</desc>
<speed>2.230000</speed>
</trkpt>
<trkpt lat="55.965431" lon="26.541861">
<ele>101.540100</ele>
<time>2010-06-20T08:21:28Z</time>
<desc>lat.=55.965431, lon.=26.541861, Alt.=101.540100m. Speed=8.280000m/h.</desc>
<speed>2.300000</speed>
</trkpt>
<trkpt lat="55.965458" lon="26.541843">
<ele>100.292053</ele>
<time>2010-06-20T08:21:29Z</time>
<desc>lat.=55.965458, lon.=26.541843, Alt.=100.292053m. Speed=8.532000m/h.</desc>
<speed>2.370000</speed>
</trkpt>
<trkpt lat="55.965496" lon="26.541832">
<ele>98.815491</ele>
<time>2010-06-20T08:21:30Z</time>
<desc>lat.=55.965496, lon.=26.541832, Alt.=98.815491m. Speed=10.944000m/h.</desc>
<speed>3.040000</speed>
</trkpt>
<trkpt lat="55.965534" lon="26.541822">
<ele>98.315491</ele>
<time>2010-06-20T08:21:31Z</time>
<desc>lat.=55.965534, lon.=26.541822, Alt.=98.315491m. Speed=11.052000m/h.</desc>
<speed>3.070000</speed>
</trkpt>
<trkpt lat="55.965569" lon="26.541822">
<ele>96.530334</ele>
<time>2010-06-20T08:21:32Z</time>
<desc>lat.=55.965569, lon.=26.541822, Alt.=96.530334m. Speed=9.180000m/h.</desc>
<speed>2.550000</speed>
</trkpt>
<trkpt lat="55.965588" lon="26.541817">
<ele>97.743225</ele>
<time>2010-06-20T08:21:33Z</time>
<desc>lat.=55.965588, lon.=26.541817, Alt.=97.743225m. Speed=5.652000m/h.</desc>
<speed>1.570000</speed>
</trkpt>
<trkpt lat="55.965630" lon="26.541800">
<ele>98.731506</ele>
<time>2010-06-20T08:21:34Z</time>
<desc>lat.=55.965630, lon.=26.541800, Alt.=98.731506m. Speed=9.468000m/h.</desc>
<speed>2.630000</speed>
</trkpt>
<trkpt lat="55.965672" lon="26.541784">
<ele>98.602600</ele>
<time>2010-06-20T08:21:35Z</time>
<desc>lat.=55.965672, lon.=26.541784, Alt.=98.602600m. Speed=10.908000m/h.</desc>
<speed>3.030000</speed>
</trkpt>
<trkpt lat="55.965698" lon="26.541771">
<ele>98.795959</ele>
<time>2010-06-20T08:21:36Z</time>
<desc>lat.=55.965698, lon.=26.541771, Alt.=98.795959m. Speed=9.972000m/h.</desc>
<speed>2.770000</speed>
</trkpt>
<trkpt lat="55.965721" lon="26.541756">
<ele>99.014709</ele>
<time>2010-06-20T08:21:37Z</time>
<desc>lat.=55.965721, lon.=26.541756, Alt.=99.014709m. Speed=9.036000m/h.</desc>
<speed>2.510000</speed>
</trkpt>
<trkpt lat="55.965748" lon="26.541746">
<ele>99.344788</ele>
<time>2010-06-20T08:21:38Z</time>
<desc>lat.=55.965748, lon.=26.541746, Alt.=99.344788m. Speed=8.784000m/h.</desc>
<speed>2.440000</speed>
</trkpt>
<trkpt lat="55.965786" lon="26.541727">
<ele>99.733459</ele>
<time>2010-06-20T08:21:39Z</time>
<desc>lat.=55.965786, lon.=26.541727, Alt.=99.733459m. Speed=12.348000m/h.</desc>
<speed>3.430000</speed>
</trkpt>
<trkpt lat="55.965820" lon="26.541714">
<ele>99.606506</ele>
<time>2010-06-20T08:21:40Z</time>
<desc>lat.=55.965820, lon.=26.541714, Alt.=99.606506m. Speed=11.016000m/h.</desc>
<speed>3.060000</speed>
</trkpt>
<trkpt lat="55.965851" lon="26.541708">
<ele>99.313538</ele>
<time>2010-06-20T08:21:41Z</time>
<desc>lat.=55.965851, lon.=26.541708, Alt.=99.313538m. Speed=9.828000m/h.</desc>
<speed>2.730000</speed>
</trkpt>
<trkpt lat="55.965870" lon="26.541697">
<ele>99.522522</ele>
<time>2010-06-20T08:21:42Z</time>
<desc>lat.=55.965870, lon.=26.541697, Alt.=99.522522m. Speed=8.460000m/h.</desc>
<speed>2.350000</speed>
</trkpt>
<trkpt lat="55.965893" lon="26.541685">
<ele>99.329163</ele>
<time>2010-06-20T08:21:43Z</time>
<desc>lat.=55.965893, lon.=26.541685, Alt.=99.329163m. Speed=9.396000m/h.</desc>
<speed>2.610000</speed>
</trkpt>
<trkpt lat="55.965916" lon="26.541693">
<ele>98.624084</ele>
<time>2010-06-20T08:21:44Z</time>
<desc>lat.=55.965916, lon.=26.541693, Alt.=98.624084m. Speed=8.280000m/h.</desc>
<speed>2.300000</speed>
</trkpt>
<trkpt lat="55.965942" lon="26.541697">
<ele>98.204163</ele>
<time>2010-06-20T08:21:45Z</time>
<desc>lat.=55.965942, lon.=26.541697, Alt.=98.204163m. Speed=6.948000m/h.</desc>
<speed>1.930000</speed>
</trkpt>
<trkpt lat="55.965961" lon="26.541679">
<ele>99.067444</ele>
<time>2010-06-20T08:21:46Z</time>
<desc>lat.=55.965961, lon.=26.541679, Alt.=99.067444m. Speed=7.632000m/h.</desc>
<speed>2.120000</speed>
</trkpt>
<trkpt lat="55.965992" lon="26.541658">
<ele>98.979553</ele>
<time>2010-06-20T08:21:47Z</time>
<desc>lat.=55.965992, lon.=26.541658, Alt.=98.979553m. Speed=9.252000m/h.</desc>
<speed>2.570000</speed>
</trkpt>
<trkpt lat="55.966034" lon="26.541643">
<ele>99.344788</ele>
<time>2010-06-20T08:21:48Z</time>
<desc>lat.=55.966034, lon.=26.541643, Alt.=99.344788m. Speed=10.332000m/h.</desc>
<speed>2.870000</speed>
</trkpt>
<trkpt lat="55.966080" lon="26.541643">
<ele>99.141663</ele>
<time>2010-06-20T08:21:49Z</time>
<desc>lat.=55.966080, lon.=26.541643, Alt.=99.141663m. Speed=11.340000m/h.</desc>
<speed>3.150000</speed>
</trkpt>
<trkpt lat="55.966110" lon="26.541641">
<ele>99.899475</ele>
<time>2010-06-20T08:21:50Z</time>
<desc>lat.=55.966110, lon.=26.541641, Alt.=99.899475m. Speed=9.324000m/h.</desc>
<speed>2.590000</speed>
</trkpt>
<trkpt lat="55.966133" lon="26.541630">
<ele>99.620178</ele>
<time>2010-06-20T08:21:51Z</time>
<desc>lat.=55.966133, lon.=26.541630, Alt.=99.620178m. Speed=9.828000m/h.</desc>
<speed>2.730000</speed>
</trkpt>
<trkpt lat="55.966167" lon="26.541628">
<ele>99.987366</ele>
<time>2010-06-20T08:21:52Z</time>
<desc>lat.=55.966167, lon.=26.541628, Alt.=99.987366m. Speed=9.432000m/h.</desc>
<speed>2.620000</speed>
</trkpt>
<trkpt lat="55.966187" lon="26.541620">
<ele>100.645569</ele>
<time>2010-06-20T08:21:53Z</time>
<desc>lat.=55.966187, lon.=26.541620, Alt.=100.645569m. Speed=6.768000m/h.</desc>
<speed>1.880000</speed>
</trkpt>
<trkpt lat="55.966217" lon="26.541615">
<ele>101.920959</ele>
<time>2010-06-20T08:21:54Z</time>
<desc>lat.=55.966217, lon.=26.541615, Alt.=101.920959m. Speed=11.556000m/h.</desc>
<speed>3.210000</speed>
</trkpt>
<trkpt lat="55.966236" lon="26.541618">
<ele>102.440491</ele>
<time>2010-06-20T08:21:55Z</time>
<desc>lat.=55.966236, lon.=26.541618, Alt.=102.440491m. Speed=8.712000m/h.</desc>
<speed>2.420000</speed>
</trkpt>
<trkpt lat="55.966255" lon="26.541613">
<ele>102.403381</ele>
<time>2010-06-20T08:21:56Z</time>
<desc>lat.=55.966255, lon.=26.541613, Alt.=102.403381m. Speed=9.144000m/h.</desc>
<speed>2.540000</speed>
</trkpt>
<trkpt lat="55.966270" lon="26.541607">
<ele>101.327209</ele>
<time>2010-06-20T08:21:57Z</time>
<desc>lat.=55.966270, lon.=26.541607, Alt.=101.327209m. Speed=7.632000m/h.</desc>
<speed>2.120000</speed>
</trkpt>
<trkpt lat="55.966293" lon="26.541597">
<ele>102.094788</ele>
<time>2010-06-20T08:21:58Z</time>
<desc>lat.=55.966293, lon.=26.541597, Alt.=102.094788m. Speed=9.000000m/h.</desc>
<speed>2.500000</speed>
</trkpt>
<trkpt lat="55.966320" lon="26.541594">
<ele>101.942444</ele>
<time>2010-06-20T08:21:59Z</time>
<desc>lat.=55.966320, lon.=26.541594, Alt.=101.942444m. Speed=8.064000m/h.</desc>
<speed>2.240000</speed>
</trkpt>
<trkpt lat="55.966343" lon="26.541594">
<ele>102.100647</ele>
<time>2010-06-20T08:22:00Z</time>
<desc>lat.=55.966343, lon.=26.541594, Alt.=102.100647m. Speed=9.324000m/h.</desc>
<speed>2.590000</speed>
</trkpt>
<trkpt lat="55.966366" lon="26.541594">
<ele>102.442444</ele>
<time>2010-06-20T08:22:01Z</time>
<desc>lat.=55.966366, lon.=26.541594, Alt.=102.442444m. Speed=7.920000m/h.</desc>
<speed>2.200000</speed>
</trkpt>
<trkpt lat="55.966393" lon="26.541595">
<ele>102.391663</ele>
<time>2010-06-20T08:22:02Z</time>
<desc>lat.=55.966393, lon.=26.541595, Alt.=102.391663m. Speed=9.360000m/h.</desc>
<speed>2.600000</speed>
</trkpt>
<trkpt lat="55.966427" lon="26.541594">
<ele>102.635803</ele>
<time>2010-06-20T08:22:03Z</time>
<desc>lat.=55.966427, lon.=26.541594, Alt.=102.635803m. Speed=9.468000m/h.</desc>
<speed>2.630000</speed>
</trkpt>
<trkpt lat="55.966454" lon="26.541590">
<ele>102.452209</ele>
<time>2010-06-20T08:22:04Z</time>
<desc>lat.=55.966454, lon.=26.541590, Alt.=102.452209m. Speed=8.064000m/h.</desc>
<speed>2.240000</speed>
</trkpt>
<trkpt lat="55.966476" lon="26.541586">
<ele>101.458069</ele>
<time>2010-06-20T08:22:05Z</time>
<desc>lat.=55.966476, lon.=26.541586, Alt.=101.458069m. Speed=8.640000m/h.</desc>
<speed>2.400000</speed>
</trkpt>
<trkpt lat="55.966515" lon="26.541595">
<ele>100.555725</ele>
<time>2010-06-20T08:22:06Z</time>
<desc>lat.=55.966515, lon.=26.541595, Alt.=100.555725m. Speed=10.296000m/h.</desc>
<speed>2.860000</speed>
</trkpt>
<trkpt lat="55.966541" lon="26.541595">
<ele>100.010803</ele>
<time>2010-06-20T08:22:07Z</time>
<desc>lat.=55.966541, lon.=26.541595, Alt.=100.010803m. Speed=7.920000m/h.</desc>
<speed>2.200000</speed>
</trkpt>
<trkpt lat="55.966568" lon="26.541599">
<ele>99.844788</ele>
<time>2010-06-20T08:22:08Z</time>
<desc>lat.=55.966568, lon.=26.541599, Alt.=99.844788m. Speed=10.008000m/h.</desc>
<speed>2.780000</speed>
</trkpt>
<trkpt lat="55.966595" lon="26.541601">
<ele>99.790100</ele>
<time>2010-06-20T08:22:09Z</time>
<desc>lat.=55.966595, lon.=26.541601, Alt.=99.790100m. Speed=8.424000m/h.</desc>
<speed>2.340000</speed>
</trkpt>
<trkpt lat="55.966625" lon="26.541603">
<ele>100.122131</ele>
<time>2010-06-20T08:22:10Z</time>
<desc>lat.=55.966625, lon.=26.541603, Alt.=100.122131m. Speed=9.468000m/h.</desc>
<speed>2.630000</speed>
</trkpt>
<trkpt lat="55.966656" lon="26.541603">
<ele>99.741272</ele>
<time>2010-06-20T08:22:11Z</time>
<desc>lat.=55.966656, lon.=26.541603, Alt.=99.741272m. Speed=9.144000m/h.</desc>
<speed>2.540000</speed>
</trkpt>
<trkpt lat="55.966690" lon="26.541609">
<ele>100.370178</ele>
<time>2010-06-20T08:22:12Z</time>
<desc>lat.=55.966690, lon.=26.541609, Alt.=100.370178m. Speed=9.684000m/h.</desc>
<speed>2.690000</speed>
</trkpt>
<trkpt lat="55.966721" lon="26.541613">
<ele>99.817444</ele>
<time>2010-06-20T08:22:13Z</time>
<desc>lat.=55.966721, lon.=26.541613, Alt.=99.817444m. Speed=10.872000m/h.</desc>
<speed>3.020000</speed>
</trkpt>
<trkpt lat="55.966751" lon="26.541615">
<ele>99.657288</ele>
<time>2010-06-20T08:22:14Z</time>
<desc>lat.=55.966751, lon.=26.541615, Alt.=99.657288m. Speed=8.028000m/h.</desc>
<speed>2.230000</speed>
</trkpt>
<trkpt lat="55.966778" lon="26.541611">
<ele>99.116272</ele>
<time>2010-06-20T08:22:15Z</time>
<desc>lat.=55.966778, lon.=26.541611, Alt.=99.116272m. Speed=7.740000m/h.</desc>
<speed>2.150000</speed>
</trkpt>
<trkpt lat="55.966808" lon="26.541609">
<ele>98.952209</ele>
<time>2010-06-20T08:22:16Z</time>
<desc>lat.=55.966808, lon.=26.541609, Alt.=98.952209m. Speed=9.432000m/h.</desc>
<speed>2.620000</speed>
</trkpt>
<trkpt lat="55.966835" lon="26.541615">
<ele>98.751038</ele>
<time>2010-06-20T08:22:17Z</time>
<desc>lat.=55.966835, lon.=26.541615, Alt.=98.751038m. Speed=8.532000m/h.</desc>
<speed>2.370000</speed>
</trkpt>
<trkpt lat="55.966850" lon="26.541618">
<ele>98.456116</ele>
<time>2010-06-20T08:22:18Z</time>
<desc>lat.=55.966850, lon.=26.541618, Alt.=98.456116m. Speed=5.364000m/h.</desc>
<speed>1.490000</speed>
</trkpt>
<trkpt lat="55.966885" lon="26.541618">
<ele>100.594788</ele>
<time>2010-06-20T08:22:19Z</time>
<desc>lat.=55.966885, lon.=26.541618, Alt.=100.594788m. Speed=9.864000m/h.</desc>
<speed>2.740000</speed>
</trkpt>
<trkpt lat="55.966927" lon="26.541626">
<ele>100.672913</ele>
<time>2010-06-20T08:22:20Z</time>
<desc>lat.=55.966927, lon.=26.541626, Alt.=100.672913m. Speed=10.044000m/h.</desc>
<speed>2.790000</speed>
</trkpt>
<trkpt lat="55.966965" lon="26.541630">
<ele>101.725647</ele>
<time>2010-06-20T08:22:21Z</time>
<desc>lat.=55.966965, lon.=26.541630, Alt.=101.725647m. Speed=10.044000m/h.</desc>
<speed>2.790000</speed>
</trkpt>
<trkpt lat="55.966988" lon="26.541630">
<ele>101.874084</ele>
<time>2010-06-20T08:22:22Z</time>
<desc>lat.=55.966988, lon.=26.541630, Alt.=101.874084m. Speed=7.884000m/h.</desc>
<speed>2.190000</speed>
</trkpt>
<trkpt lat="55.967014" lon="26.541628">
<ele>101.272522</ele>
<time>2010-06-20T08:22:23Z</time>
<desc>lat.=55.967014, lon.=26.541628, Alt.=101.272522m. Speed=7.308000m/h.</desc>
<speed>2.030000</speed>
</trkpt>
<trkpt lat="55.967049" lon="26.541632">
<ele>102.571350</ele>
<time>2010-06-20T08:22:24Z</time>
<desc>lat.=55.967049, lon.=26.541632, Alt.=102.571350m. Speed=3.708000m/h.</desc>
<speed>1.030000</speed>
</trkpt>
<trkpt lat="55.967060" lon="26.541618">
<ele>102.917053</ele>
<time>2010-06-20T08:22:25Z</time>
<desc>lat.=55.967060, lon.=26.541618, Alt.=102.917053m. Speed=2.592000m/h.</desc>
<speed>0.720000</speed>
</trkpt>
<trkpt lat="55.967083" lon="26.541615">
<ele>102.840881</ele>
<time>2010-06-20T08:22:26Z</time>
<desc>lat.=55.967083, lon.=26.541615, Alt.=102.840881m. Speed=8.964000m/h.</desc>
<speed>2.490000</speed>
</trkpt>
<trkpt lat="55.967113" lon="26.541616">
<ele>103.196350</ele>
<time>2010-06-20T08:22:27Z</time>
<desc>lat.=55.967113, lon.=26.541616, Alt.=103.196350m. Speed=9.180000m/h.</desc>
<speed>2.550000</speed>
</trkpt>
<trkpt lat="55.967152" lon="26.541632">
<ele>103.297913</ele>
<time>2010-06-20T08:22:28Z</time>
<desc>lat.=55.967152, lon.=26.541632, Alt.=103.297913m. Speed=9.468000m/h.</desc>
<speed>2.630000</speed>
</trkpt>
<trkpt lat="55.967175" lon="26.541641">
<ele>103.393616</ele>
<time>2010-06-20T08:22:29Z</time>
<desc>lat.=55.967175, lon.=26.541641, Alt.=103.393616m. Speed=5.652000m/h.</desc>
<speed>1.570000</speed>
</trkpt>
<trkpt lat="55.967194" lon="26.541645">
<ele>102.821350</ele>
<time>2010-06-20T08:22:30Z</time>
<desc>lat.=55.967194, lon.=26.541645, Alt.=102.821350m. Speed=6.552000m/h.</desc>
<speed>1.820000</speed>
</trkpt>
<trkpt lat="55.967216" lon="26.541645">
<ele>103.030334</ele>
<time>2010-06-20T08:22:31Z</time>
<desc>lat.=55.967216, lon.=26.541645, Alt.=103.030334m. Speed=8.136000m/h.</desc>
<speed>2.260000</speed>
</trkpt>
<trkpt lat="55.967247" lon="26.541651">
<ele>104.024475</ele>
<time>2010-06-20T08:22:32Z</time>
<desc>lat.=55.967247, lon.=26.541651, Alt.=104.024475m. Speed=8.712000m/h.</desc>
<speed>2.420000</speed>
</trkpt>
<trkpt lat="55.967278" lon="26.541664">
<ele>104.729553</ele>
<time>2010-06-20T08:22:33Z</time>
<desc>lat.=55.967278, lon.=26.541664, Alt.=104.729553m. Speed=8.280000m/h.</desc>
<speed>2.300000</speed>
</trkpt>
<trkpt lat="55.967300" lon="26.541664">
<ele>104.717834</ele>
<time>2010-06-20T08:22:34Z</time>
<desc>lat.=55.967300, lon.=26.541664, Alt.=104.717834m. Speed=5.976000m/h.</desc>
<speed>1.660000</speed>
</trkpt>
<trkpt lat="55.967319" lon="26.541664">
<ele>104.637756</ele>
<time>2010-06-20T08:22:35Z</time>
<desc>lat.=55.967319, lon.=26.541664, Alt.=104.637756m. Speed=5.976000m/h.</desc>
<speed>1.660000</speed>
</trkpt>
<trkpt lat="55.967342" lon="26.541664">
<ele>104.420959</ele>
<time>2010-06-20T08:22:36Z</time>
<desc>lat.=55.967342, lon.=26.541664, Alt.=104.420959m. Speed=8.100000m/h.</desc>
<speed>2.250000</speed>
</trkpt>
<trkpt lat="55.967377" lon="26.541668">
<ele>105.077209</ele>
<time>2010-06-20T08:22:37Z</time>
<desc>lat.=55.967377, lon.=26.541668, Alt.=105.077209m. Speed=7.668000m/h.</desc>
<speed>2.130000</speed>
</trkpt>
<trkpt lat="55.967407" lon="26.541693">
<ele>104.131897</ele>
<time>2010-06-20T08:22:38Z</time>
<desc>lat.=55.967407, lon.=26.541693, Alt.=104.131897m. Speed=5.904000m/h.</desc>
<speed>1.640000</speed>
</trkpt>
<trkpt lat="55.967430" lon="26.541710">
<ele>103.454163</ele>
<time>2010-06-20T08:22:39Z</time>
<desc>lat.=55.967430, lon.=26.541710, Alt.=103.454163m. Speed=6.768000m/h.</desc>
<speed>1.880000</speed>
</trkpt>
<trkpt lat="55.967457" lon="26.541714">
<ele>103.094788</ele>
<time>2010-06-20T08:22:40Z</time>
<desc>lat.=55.967457, lon.=26.541714, Alt.=103.094788m. Speed=10.512000m/h.</desc>
<speed>2.920000</speed>
</trkpt>
<trkpt lat="55.967487" lon="26.541727">
<ele>102.747131</ele>
<time>2010-06-20T08:22:41Z</time>
<desc>lat.=55.967487, lon.=26.541727, Alt.=102.747131m. Speed=9.396000m/h.</desc>
<speed>2.610000</speed>
</trkpt>
<trkpt lat="55.967506" lon="26.541727">
<ele>101.182678</ele>
<time>2010-06-20T08:22:42Z</time>
<desc>lat.=55.967506, lon.=26.541727, Alt.=101.182678m. Speed=7.056000m/h.</desc>
<speed>1.960000</speed>
</trkpt>
<trkpt lat="55.967537" lon="26.541737">
<ele>100.616272</ele>
<time>2010-06-20T08:22:43Z</time>
<desc>lat.=55.967537, lon.=26.541737, Alt.=100.616272m. Speed=8.604000m/h.</desc>
<speed>2.390000</speed>
</trkpt>
<trkpt lat="55.967564" lon="26.541750">
<ele>100.020569</ele>
<time>2010-06-20T08:22:44Z</time>
<desc>lat.=55.967564, lon.=26.541750, Alt.=100.020569m. Speed=7.920000m/h.</desc>
<speed>2.200000</speed>
</trkpt>
<trkpt lat="55.967590" lon="26.541758">
<ele>99.911194</ele>
<time>2010-06-20T08:22:45Z</time>
<desc>lat.=55.967590, lon.=26.541758, Alt.=99.911194m. Speed=6.084000m/h.</desc>
<speed>1.690000</speed>
</trkpt>
<trkpt lat="55.967621" lon="26.541769">
<ele>100.133850</ele>
<time>2010-06-20T08:22:46Z</time>
<desc>lat.=55.967621, lon.=26.541769, Alt.=100.133850m. Speed=8.640000m/h.</desc>
<speed>2.400000</speed>
</trkpt>
<trkpt lat="55.967644" lon="26.541775">
<ele>100.024475</ele>
<time>2010-06-20T08:22:47Z</time>
<desc>lat.=55.967644, lon.=26.541775, Alt.=100.024475m. Speed=7.020000m/h.</desc>
<speed>1.950000</speed>
</trkpt>
<trkpt lat="55.967667" lon="26.541794">
<ele>99.295959</ele>
<time>2010-06-20T08:22:48Z</time>
<desc>lat.=55.967667, lon.=26.541794, Alt.=99.295959m. Speed=10.224000m/h.</desc>
<speed>2.840000</speed>
</trkpt>
<trkpt lat="55.967697" lon="26.541811">
<ele>99.432678</ele>
<time>2010-06-20T08:22:49Z</time>
<desc>lat.=55.967697, lon.=26.541811, Alt.=99.432678m. Speed=8.784000m/h.</desc>
<speed>2.440000</speed>
</trkpt>
<trkpt lat="55.967724" lon="26.541838">
<ele>98.692444</ele>
<time>2010-06-20T08:22:50Z</time>
<desc>lat.=55.967724, lon.=26.541838, Alt.=98.692444m. Speed=9.756000m/h.</desc>
<speed>2.710000</speed>
</trkpt>
<trkpt lat="55.967751" lon="26.541851">
<ele>98.157288</ele>
<time>2010-06-20T08:22:51Z</time>
<desc>lat.=55.967751, lon.=26.541851, Alt.=98.157288m. Speed=9.036000m/h.</desc>
<speed>2.510000</speed>
</trkpt>
<trkpt lat="55.967773" lon="26.541864">
<ele>98.038147</ele>
<time>2010-06-20T08:22:52Z</time>
<desc>lat.=55.967773, lon.=26.541864, Alt.=98.038147m. Speed=7.236000m/h.</desc>
<speed>2.010000</speed>
</trkpt>
<trkpt lat="55.967793" lon="26.541876">
<ele>97.667053</ele>
<time>2010-06-20T08:22:53Z</time>
<desc>lat.=55.967793, lon.=26.541876, Alt.=97.667053m. Speed=6.588000m/h.</desc>
<speed>1.830000</speed>
</trkpt>
<trkpt lat="55.967812" lon="26.541883">
<ele>97.221741</ele>
<time>2010-06-20T08:22:54Z</time>
<desc>lat.=55.967812, lon.=26.541883, Alt.=97.221741m. Speed=8.784000m/h.</desc>
<speed>2.440000</speed>
</trkpt>
<trkpt lat="55.967838" lon="26.541891">
<ele>96.833069</ele>
<time>2010-06-20T08:22:55Z</time>
<desc>lat.=55.967838, lon.=26.541891, Alt.=96.833069m. Speed=8.496000m/h.</desc>
<speed>2.360000</speed>
</trkpt>
<trkpt lat="55.967865" lon="26.541904">
<ele>95.655334</ele>
<time>2010-06-20T08:22:56Z</time>
<desc>lat.=55.967865, lon.=26.541904, Alt.=95.655334m. Speed=5.976000m/h.</desc>
<speed>1.660000</speed>
</trkpt>
<trkpt lat="55.967884" lon="26.541914">
<ele>95.006897</ele>
<time>2010-06-20T08:22:57Z</time>
<desc>lat.=55.967884, lon.=26.541914, Alt.=95.006897m. Speed=7.812000m/h.</desc>
<speed>2.170000</speed>
</trkpt>
<trkpt lat="55.967907" lon="26.541937">
<ele>94.044006</ele>
<time>2010-06-20T08:22:58Z</time>
<desc>lat.=55.967907, lon.=26.541937, Alt.=94.044006m. Speed=7.992000m/h.</desc>
<speed>2.220000</speed>
</trkpt>
<trkpt lat="55.967930" lon="26.541948">
<ele>93.688538</ele>
<time>2010-06-20T08:22:59Z</time>
<desc>lat.=55.967930, lon.=26.541948, Alt.=93.688538m. Speed=6.300000m/h.</desc>
<speed>1.750000</speed>
</trkpt>
<trkpt lat="55.967968" lon="26.541952">
<ele>95.131897</ele>
<time>2010-06-20T08:23:00Z</time>
<desc>lat.=55.967968, lon.=26.541952, Alt.=95.131897m. Speed=8.136000m/h.</desc>
<speed>2.260000</speed>
</trkpt>
<trkpt lat="55.967995" lon="26.541973">
<ele>95.364319</ele>
<time>2010-06-20T08:23:01Z</time>
<desc>lat.=55.967995, lon.=26.541973, Alt.=95.364319m. Speed=10.872000m/h.</desc>
<speed>3.020000</speed>
</trkpt>
<trkpt lat="55.968025" lon="26.541990">
<ele>94.940491</ele>
<time>2010-06-20T08:23:02Z</time>
<desc>lat.=55.968025, lon.=26.541990, Alt.=94.940491m. Speed=6.408000m/h.</desc>
<speed>1.780000</speed>
</trkpt>
<trkpt lat="55.968052" lon="26.542015">
<ele>95.118225</ele>
<time>2010-06-20T08:23:03Z</time>
<desc>lat.=55.968052, lon.=26.542015, Alt.=95.118225m. Speed=11.664000m/h.</desc>
<speed>3.240000</speed>
</trkpt>
<trkpt lat="55.968082" lon="26.542028">
<ele>94.581116</ele>
<time>2010-06-20T08:23:04Z</time>
<desc>lat.=55.968082, lon.=26.542028, Alt.=94.581116m. Speed=7.380000m/h.</desc>
<speed>2.050000</speed>
</trkpt>
<trkpt lat="55.968109" lon="26.542042">
<ele>94.299866</ele>
<time>2010-06-20T08:23:05Z</time>
<desc>lat.=55.968109, lon.=26.542042, Alt.=94.299866m. Speed=11.088000m/h.</desc>
<speed>3.080000</speed>
</trkpt>
<trkpt lat="55.968136" lon="26.542057">
<ele>93.786194</ele>
<time>2010-06-20T08:23:06Z</time>
<desc>lat.=55.968136, lon.=26.542057, Alt.=93.786194m. Speed=11.520000m/h.</desc>
<speed>3.200000</speed>
</trkpt>
<trkpt lat="55.968163" lon="26.542080">
<ele>93.266663</ele>
<time>2010-06-20T08:23:07Z</time>
<desc>lat.=55.968163, lon.=26.542080, Alt.=93.266663m. Speed=9.720000m/h.</desc>
<speed>2.700000</speed>
</trkpt>
<trkpt lat="55.968182" lon="26.542101">
<ele>93.059631</ele>
<time>2010-06-20T08:23:08Z</time>
<desc>lat.=55.968182, lon.=26.542101, Alt.=93.059631m. Speed=6.228000m/h.</desc>
<speed>1.730000</speed>
</trkpt>
<trkpt lat="55.968193" lon="26.542118">
<ele>93.053772</ele>
<time>2010-06-20T08:23:09Z</time>
<desc>lat.=55.968193, lon.=26.542118, Alt.=93.053772m. Speed=4.572000m/h.</desc>
<speed>1.270000</speed>
</trkpt>
<trkpt lat="55.968216" lon="26.542135">
<ele>92.801819</ele>
<time>2010-06-20T08:23:10Z</time>
<desc>lat.=55.968216, lon.=26.542135, Alt.=92.801819m. Speed=8.604000m/h.</desc>
<speed>2.390000</speed>
</trkpt>
<trkpt lat="55.968243" lon="26.542143">
<ele>92.188538</ele>
<time>2010-06-20T08:23:11Z</time>
<desc>lat.=55.968243, lon.=26.542143, Alt.=92.188538m. Speed=9.468000m/h.</desc>
<speed>2.630000</speed>
</trkpt>
<trkpt lat="55.968269" lon="26.542156">
<ele>91.917053</ele>
<time>2010-06-20T08:23:12Z</time>
<desc>lat.=55.968269, lon.=26.542156, Alt.=91.917053m. Speed=7.452000m/h.</desc>
<speed>2.070000</speed>
</trkpt>
<trkpt lat="55.968296" lon="26.542175">
<ele>91.737366</ele>
<time>2010-06-20T08:23:13Z</time>
<desc>lat.=55.968296, lon.=26.542175, Alt.=91.737366m. Speed=7.308000m/h.</desc>
<speed>2.030000</speed>
</trkpt>
<trkpt lat="55.968330" lon="26.542213">
<ele>91.239319</ele>
<time>2010-06-20T08:23:14Z</time>
<desc>lat.=55.968330, lon.=26.542213, Alt.=91.239319m. Speed=9.216000m/h.</desc>
<speed>2.560000</speed>
</trkpt>
<trkpt lat="55.968361" lon="26.542246">
<ele>90.967834</ele>
<time>2010-06-20T08:23:15Z</time>
<desc>lat.=55.968361, lon.=26.542246, Alt.=90.967834m. Speed=10.656000m/h.</desc>
<speed>2.960000</speed>
</trkpt>
<trkpt lat="55.968395" lon="26.542263">
<ele>90.835022</ele>
<time>2010-06-20T08:23:16Z</time>
<desc>lat.=55.968395, lon.=26.542263, Alt.=90.835022m. Speed=11.376000m/h.</desc>
<speed>3.160000</speed>
</trkpt>
<trkpt lat="55.968426" lon="26.542288">
<ele>90.323303</ele>
<time>2010-06-20T08:23:17Z</time>
<desc>lat.=55.968426, lon.=26.542288, Alt.=90.323303m. Speed=12.780000m/h.</desc>
<speed>3.550000</speed>
</trkpt>
<trkpt lat="55.968468" lon="26.542307">
<ele>90.331116</ele>
<time>2010-06-20T08:23:18Z</time>
<desc>lat.=55.968468, lon.=26.542307, Alt.=90.331116m. Speed=15.984000m/h.</desc>
<speed>4.440000</speed>
</trkpt>
<trkpt lat="55.968517" lon="26.542330">
<ele>90.338928</ele>
<time>2010-06-20T08:23:19Z</time>
<desc>lat.=55.968517, lon.=26.542330, Alt.=90.338928m. Speed=14.472000m/h.</desc>
<speed>4.020000</speed>
</trkpt>
<trkpt lat="55.968555" lon="26.542358">
<ele>90.344788</ele>
<time>2010-06-20T08:23:20Z</time>
<desc>lat.=55.968555, lon.=26.542358, Alt.=90.344788m. Speed=13.320000m/h.</desc>
<speed>3.700000</speed>
</trkpt>
<trkpt lat="55.968601" lon="26.542404">
<ele>91.069397</ele>
<time>2010-06-20T08:23:21Z</time>
<desc>lat.=55.968601, lon.=26.542404, Alt.=91.069397m. Speed=12.240000m/h.</desc>
<speed>3.400000</speed>
</trkpt>
<trkpt lat="55.968647" lon="26.542448">
<ele>91.141663</ele>
<time>2010-06-20T08:23:22Z</time>
<desc>lat.=55.968647, lon.=26.542448, Alt.=91.141663m. Speed=14.760000m/h.</desc>
<speed>4.100000</speed>
</trkpt>
<trkpt lat="55.968681" lon="26.542482">
<ele>90.698303</ele>
<time>2010-06-20T08:23:23Z</time>
<desc>lat.=55.968681, lon.=26.542482, Alt.=90.698303m. Speed=15.084000m/h.</desc>
<speed>4.190000</speed>
</trkpt>
<trkpt lat="55.968716" lon="26.542509">
<ele>90.116272</ele>
<time>2010-06-20T08:23:24Z</time>
<desc>lat.=55.968716, lon.=26.542509, Alt.=90.116272m. Speed=14.184000m/h.</desc>
<speed>3.940000</speed>
</trkpt>
<trkpt lat="55.968750" lon="26.542538">
<ele>89.647522</ele>
<time>2010-06-20T08:23:25Z</time>
<desc>lat.=55.968750, lon.=26.542538, Alt.=89.647522m. Speed=14.292000m/h.</desc>
<speed>3.970000</speed>
</trkpt>
<trkpt lat="55.968773" lon="26.542580">
<ele>89.557678</ele>
<time>2010-06-20T08:23:26Z</time>
<desc>lat.=55.968773, lon.=26.542580, Alt.=89.557678m. Speed=13.176000m/h.</desc>
<speed>3.660000</speed>
</trkpt>
<trkpt lat="55.968803" lon="26.542610">
<ele>89.069397</ele>
<time>2010-06-20T08:23:27Z</time>
<desc>lat.=55.968803, lon.=26.542610, Alt.=89.069397m. Speed=12.492000m/h.</desc>
<speed>3.470000</speed>
</trkpt>
<trkpt lat="55.968834" lon="26.542645">
<ele>88.544006</ele>
<time>2010-06-20T08:23:28Z</time>
<desc>lat.=55.968834, lon.=26.542645, Alt.=88.544006m. Speed=12.852000m/h.</desc>
<speed>3.570000</speed>
</trkpt>
<trkpt lat="55.968868" lon="26.542685">
<ele>88.223694</ele>
<time>2010-06-20T08:23:29Z</time>
<desc>lat.=55.968868, lon.=26.542685, Alt.=88.223694m. Speed=12.384000m/h.</desc>
<speed>3.440000</speed>
</trkpt>
<trkpt lat="55.968895" lon="26.542727">
<ele>87.745178</ele>
<time>2010-06-20T08:23:30Z</time>
<desc>lat.=55.968895, lon.=26.542727, Alt.=87.745178m. Speed=12.384000m/h.</desc>
<speed>3.440000</speed>
</trkpt>
<trkpt lat="55.968929" lon="26.542761">
<ele>87.081116</ele>
<time>2010-06-20T08:23:31Z</time>
<desc>lat.=55.968929, lon.=26.542761, Alt.=87.081116m. Speed=12.600000m/h.</desc>
<speed>3.500000</speed>
</trkpt>
<trkpt lat="55.968971" lon="26.542789">
<ele>86.721741</ele>
<time>2010-06-20T08:23:32Z</time>
<desc>lat.=55.968971, lon.=26.542789, Alt.=86.721741m. Speed=13.500000m/h.</desc>
<speed>3.750000</speed>
</trkpt>
<trkpt lat="55.969002" lon="26.542822">
<ele>86.294006</ele>
<time>2010-06-20T08:23:33Z</time>
<desc>lat.=55.969002, lon.=26.542822, Alt.=86.294006m. Speed=13.284000m/h.</desc>
<speed>3.690000</speed>
</trkpt>
<trkpt lat="55.969040" lon="26.542860">
<ele>85.893616</ele>
<time>2010-06-20T08:23:34Z</time>
<desc>lat.=55.969040, lon.=26.542860, Alt.=85.893616m. Speed=13.140000m/h.</desc>
<speed>3.650000</speed>
</trkpt>
<trkpt lat="55.969070" lon="26.542894">
<ele>85.368225</ele>
<time>2010-06-20T08:23:35Z</time>
<desc>lat.=55.969070, lon.=26.542894, Alt.=85.368225m. Speed=12.528000m/h.</desc>
<speed>3.480000</speed>
</trkpt>
<trkpt lat="55.969101" lon="26.542929">
<ele>85.086975</ele>
<time>2010-06-20T08:23:36Z</time>
<desc>lat.=55.969101, lon.=26.542929, Alt.=85.086975m. Speed=12.240000m/h.</desc>
<speed>3.400000</speed>
</trkpt>
<trkpt lat="55.969131" lon="26.542959">
<ele>84.417053</ele>
<time>2010-06-20T08:23:37Z</time>
<desc>lat.=55.969131, lon.=26.542959, Alt.=84.417053m. Speed=12.276000m/h.</desc>
<speed>3.410000</speed>
</trkpt>
<trkpt lat="55.969170" lon="26.542982">
<ele>84.844788</ele>
<time>2010-06-20T08:23:38Z</time>
<desc>lat.=55.969170, lon.=26.542982, Alt.=84.844788m. Speed=11.592000m/h.</desc>
<speed>3.220000</speed>
</trkpt>
<trkpt lat="55.969189" lon="26.543020">
<ele>84.227600</ele>
<time>2010-06-20T08:23:39Z</time>
<desc>lat.=55.969189, lon.=26.543020, Alt.=84.227600m. Speed=10.296000m/h.</desc>
<speed>2.860000</speed>
</trkpt>
<trkpt lat="55.969212" lon="26.543064">
<ele>83.801819</ele>
<time>2010-06-20T08:23:40Z</time>
<desc>lat.=55.969212, lon.=26.543064, Alt.=83.801819m. Speed=11.628000m/h.</desc>
<speed>3.230000</speed>
</trkpt>
<trkpt lat="55.969242" lon="26.543108">
<ele>84.083069</ele>
<time>2010-06-20T08:23:41Z</time>
<desc>lat.=55.969242, lon.=26.543108, Alt.=84.083069m. Speed=11.124000m/h.</desc>
<speed>3.090000</speed>
</trkpt>
<trkpt lat="55.969269" lon="26.543139">
<ele>84.034241</ele>
<time>2010-06-20T08:23:42Z</time>
<desc>lat.=55.969269, lon.=26.543139, Alt.=84.034241m. Speed=11.736000m/h.</desc>
<speed>3.260000</speed>
</trkpt>
<trkpt lat="55.969303" lon="26.543169">
<ele>84.211975</ele>
<time>2010-06-20T08:23:43Z</time>
<desc>lat.=55.969303, lon.=26.543169, Alt.=84.211975m. Speed=12.024000m/h.</desc>
<speed>3.340000</speed>
</trkpt>
<trkpt lat="55.969334" lon="26.543207">
<ele>84.354553</ele>
<time>2010-06-20T08:23:44Z</time>
<desc>lat.=55.969334, lon.=26.543207, Alt.=84.354553m. Speed=11.916000m/h.</desc>
<speed>3.310000</speed>
</trkpt>
<trkpt lat="55.969357" lon="26.543240">
<ele>84.184631</ele>
<time>2010-06-20T08:23:45Z</time>
<desc>lat.=55.969357, lon.=26.543240, Alt.=84.184631m. Speed=11.232000m/h.</desc>
<speed>3.120000</speed>
</trkpt>
<trkpt lat="55.969387" lon="26.543274">
<ele>84.186584</ele>
<time>2010-06-20T08:23:46Z</time>
<desc>lat.=55.969387, lon.=26.543274, Alt.=84.186584m. Speed=11.808000m/h.</desc>
<speed>3.280000</speed>
</trkpt>
<trkpt lat="55.969421" lon="26.543295">
<ele>84.551819</ele>
<time>2010-06-20T08:23:47Z</time>
<desc>lat.=55.969421, lon.=26.543295, Alt.=84.551819m. Speed=11.628000m/h.</desc>
<speed>3.230000</speed>
</trkpt>
<trkpt lat="55.969448" lon="26.543325">
<ele>84.251038</ele>
<time>2010-06-20T08:23:48Z</time>
<desc>lat.=55.969448, lon.=26.543325, Alt.=84.251038m. Speed=10.980000m/h.</desc>
<speed>3.050000</speed>
</trkpt>
<trkpt lat="55.969475" lon="26.543364">
<ele>83.569397</ele>
<time>2010-06-20T08:23:49Z</time>
<desc>lat.=55.969475, lon.=26.543364, Alt.=83.569397m. Speed=11.304000m/h.</desc>
<speed>3.140000</speed>
</trkpt>
<trkpt lat="55.969501" lon="26.543394">
<ele>82.940491</ele>
<time>2010-06-20T08:23:50Z</time>
<desc>lat.=55.969501, lon.=26.543394, Alt.=82.940491m. Speed=12.132000m/h.</desc>
<speed>3.370000</speed>
</trkpt>
<trkpt lat="55.969543" lon="26.543434">
<ele>82.713928</ele>
<time>2010-06-20T08:23:51Z</time>
<desc>lat.=55.969543, lon.=26.543434, Alt.=82.713928m. Speed=12.276000m/h.</desc>
<speed>3.410000</speed>
</trkpt>
<trkpt lat="55.969574" lon="26.543465">
<ele>82.127991</ele>
<time>2010-06-20T08:23:52Z</time>
<desc>lat.=55.969574, lon.=26.543465, Alt.=82.127991m. Speed=12.024000m/h.</desc>
<speed>3.340000</speed>
</trkpt>
<trkpt lat="55.969624" lon="26.543486">
<ele>81.938538</ele>
<time>2010-06-20T08:23:53Z</time>
<desc>lat.=55.969624, lon.=26.543486, Alt.=81.938538m. Speed=12.132000m/h.</desc>
<speed>3.370000</speed>
</trkpt>
<trkpt lat="55.969650" lon="26.543518">
<ele>82.665100</ele>
<time>2010-06-20T08:23:54Z</time>
<desc>lat.=55.969650, lon.=26.543518, Alt.=82.665100m. Speed=12.240000m/h.</desc>
<speed>3.400000</speed>
</trkpt>
<trkpt lat="55.969685" lon="26.543549">
<ele>83.184631</ele>
<time>2010-06-20T08:23:55Z</time>
<desc>lat.=55.969685, lon.=26.543549, Alt.=83.184631m. Speed=11.340000m/h.</desc>
<speed>3.150000</speed>
</trkpt>
<trkpt lat="55.969711" lon="26.543579">
<ele>83.477600</ele>
<time>2010-06-20T08:23:56Z</time>
<desc>lat.=55.969711, lon.=26.543579, Alt.=83.477600m. Speed=10.188000m/h.</desc>
<speed>2.830000</speed>
</trkpt>
<trkpt lat="55.969738" lon="26.543613">
<ele>84.092834</ele>
<time>2010-06-20T08:23:57Z</time>
<desc>lat.=55.969738, lon.=26.543613, Alt.=84.092834m. Speed=14.148000m/h.</desc>
<speed>3.930000</speed>
</trkpt>
<trkpt lat="55.969765" lon="26.543634">
<ele>83.887756</ele>
<time>2010-06-20T08:23:58Z</time>
<desc>lat.=55.969765, lon.=26.543634, Alt.=83.887756m. Speed=12.204000m/h.</desc>
<speed>3.390000</speed>
</trkpt>
<trkpt lat="55.969795" lon="26.543659">
<ele>85.532288</ele>
<time>2010-06-20T08:23:59Z</time>
<desc>lat.=55.969795, lon.=26.543659, Alt.=85.532288m. Speed=12.924000m/h.</desc>
<speed>3.590000</speed>
</trkpt>
<trkpt lat="55.969830" lon="26.543682">
<ele>85.526428</ele>
<time>2010-06-20T08:24:00Z</time>
<desc>lat.=55.969830, lon.=26.543682, Alt.=85.526428m. Speed=12.348000m/h.</desc>
<speed>3.430000</speed>
</trkpt>
<trkpt lat="55.969864" lon="26.543699">
<ele>86.196350</ele>
<time>2010-06-20T08:24:01Z</time>
<desc>lat.=55.969864, lon.=26.543699, Alt.=86.196350m. Speed=13.284000m/h.</desc>
<speed>3.690000</speed>
</trkpt>
<trkpt lat="55.969894" lon="26.543703">
<ele>86.344788</ele>
<time>2010-06-20T08:24:02Z</time>
<desc>lat.=55.969894, lon.=26.543703, Alt.=86.344788m. Speed=11.196000m/h.</desc>
<speed>3.110000</speed>
</trkpt>
<trkpt lat="55.969933" lon="26.543724">
<ele>87.850647</ele>
<time>2010-06-20T08:24:03Z</time>
<desc>lat.=55.969933, lon.=26.543724, Alt.=87.850647m. Speed=10.728000m/h.</desc>
<speed>2.980000</speed>
</trkpt>
<trkpt lat="55.969963" lon="26.543743">
<ele>87.665100</ele>
<time>2010-06-20T08:24:04Z</time>
<desc>lat.=55.969963, lon.=26.543743, Alt.=87.665100m. Speed=8.424000m/h.</desc>
<speed>2.340000</speed>
</trkpt>
<trkpt lat="55.969990" lon="26.543753">
<ele>87.112366</ele>
<time>2010-06-20T08:24:05Z</time>
<desc>lat.=55.969990, lon.=26.543753, Alt.=87.112366m. Speed=10.044000m/h.</desc>
<speed>2.790000</speed>
</trkpt>
<trkpt lat="55.970020" lon="26.543772">
<ele>87.245178</ele>
<time>2010-06-20T08:24:06Z</time>
<desc>lat.=55.970020, lon.=26.543772, Alt.=87.245178m. Speed=10.800000m/h.</desc>
<speed>3.000000</speed>
</trkpt>
<trkpt lat="55.970055" lon="26.543781">
<ele>86.903381</ele>
<time>2010-06-20T08:24:07Z</time>
<desc>lat.=55.970055, lon.=26.543781, Alt.=86.903381m. Speed=10.584000m/h.</desc>
<speed>2.940000</speed>
</trkpt>
<trkpt lat="55.970085" lon="26.543798">
<ele>86.213928</ele>
<time>2010-06-20T08:24:08Z</time>
<desc>lat.=55.970085, lon.=26.543798, Alt.=86.213928m. Speed=12.816000m/h.</desc>
<speed>3.560000</speed>
</trkpt>
<trkpt lat="55.970108" lon="26.543812">
<ele>85.366272</ele>
<time>2010-06-20T08:24:09Z</time>
<desc>lat.=55.970108, lon.=26.543812, Alt.=85.366272m. Speed=8.460000m/h.</desc>
<speed>2.350000</speed>
</trkpt>
<trkpt lat="55.970139" lon="26.543818">
<ele>85.219788</ele>
<time>2010-06-20T08:24:10Z</time>
<desc>lat.=55.970139, lon.=26.543818, Alt.=85.219788m. Speed=8.172000m/h.</desc>
<speed>2.270000</speed>
</trkpt>
<trkpt lat="55.970158" lon="26.543839">
<ele>84.307678</ele>
<time>2010-06-20T08:24:11Z</time>
<desc>lat.=55.970158, lon.=26.543839, Alt.=84.307678m. Speed=7.308000m/h.</desc>
<speed>2.030000</speed>
</trkpt>
<trkpt lat="55.970184" lon="26.543850">
<ele>84.377991</ele>
<time>2010-06-20T08:24:12Z</time>
<desc>lat.=55.970184, lon.=26.543850, Alt.=84.377991m. Speed=10.152000m/h.</desc>
<speed>2.820000</speed>
</trkpt>
<trkpt lat="55.970226" lon="26.543858">
<ele>84.090881</ele>
<time>2010-06-20T08:24:13Z</time>
<desc>lat.=55.970226, lon.=26.543858, Alt.=84.090881m. Speed=11.412000m/h.</desc>
<speed>3.170000</speed>
</trkpt>
<trkpt lat="55.970245" lon="26.543863">
<ele>83.338928</ele>
<time>2010-06-20T08:24:14Z</time>
<desc>lat.=55.970245, lon.=26.543863, Alt.=83.338928m. Speed=9.000000m/h.</desc>
<speed>2.500000</speed>
</trkpt>
<trkpt lat="55.970276" lon="26.543869">
<ele>84.297913</ele>
<time>2010-06-20T08:24:15Z</time>
<desc>lat.=55.970276, lon.=26.543869, Alt.=84.297913m. Speed=7.308000m/h.</desc>
<speed>2.030000</speed>
</trkpt>
<trkpt lat="55.970310" lon="26.543871">
<ele>84.627991</ele>
<time>2010-06-20T08:24:16Z</time>
<desc>lat.=55.970310, lon.=26.543871, Alt.=84.627991m. Speed=9.432000m/h.</desc>
<speed>2.620000</speed>
</trkpt>
<trkpt lat="55.970337" lon="26.543888">
<ele>83.391663</ele>
<time>2010-06-20T08:24:17Z</time>
<desc>lat.=55.970337, lon.=26.543888, Alt.=83.391663m. Speed=8.424000m/h.</desc>
<speed>2.340000</speed>
</trkpt>
<trkpt lat="55.970371" lon="26.543909">
<ele>83.563538</ele>
<time>2010-06-20T08:24:18Z</time>
<desc>lat.=55.970371, lon.=26.543909, Alt.=83.563538m. Speed=9.180000m/h.</desc>
<speed>2.550000</speed>
</trkpt>
<trkpt lat="55.970390" lon="26.543922">
<ele>83.116272</ele>
<time>2010-06-20T08:24:19Z</time>
<desc>lat.=55.970390, lon.=26.543922, Alt.=83.116272m. Speed=6.912000m/h.</desc>
<speed>1.920000</speed>
</trkpt>
<trkpt lat="55.970417" lon="26.543926">
<ele>81.850647</ele>
<time>2010-06-20T08:24:20Z</time>
<desc>lat.=55.970417, lon.=26.543926, Alt.=81.850647m. Speed=9.180000m/h.</desc>
<speed>2.550000</speed>
</trkpt>
<trkpt lat="55.970451" lon="26.543945">
<ele>81.997131</ele>
<time>2010-06-20T08:24:21Z</time>
<desc>lat.=55.970451, lon.=26.543945, Alt.=81.997131m. Speed=8.424000m/h.</desc>
<speed>2.340000</speed>
</trkpt>
<trkpt lat="55.970493" lon="26.543947">
<ele>83.805725</ele>
<time>2010-06-20T08:24:22Z</time>
<desc>lat.=55.970493, lon.=26.543947, Alt.=83.805725m. Speed=6.804000m/h.</desc>
<speed>1.890000</speed>
</trkpt>
<trkpt lat="55.970512" lon="26.543959">
<ele>83.518616</ele>
<time>2010-06-20T08:24:23Z</time>
<desc>lat.=55.970512, lon.=26.543959, Alt.=83.518616m. Speed=9.612000m/h.</desc>
<speed>2.670000</speed>
</trkpt>
<trkpt lat="55.970547" lon="26.543980">
<ele>83.702209</ele>
<time>2010-06-20T08:24:24Z</time>
<desc>lat.=55.970547, lon.=26.543980, Alt.=83.702209m. Speed=7.776000m/h.</desc>
<speed>2.160000</speed>
</trkpt>
<trkpt lat="55.970570" lon="26.543991">
<ele>83.592834</ele>
<time>2010-06-20T08:24:25Z</time>
<desc>lat.=55.970570, lon.=26.543991, Alt.=83.592834m. Speed=7.380000m/h.</desc>
<speed>2.050000</speed>
</trkpt>
<trkpt lat="55.970592" lon="26.544004">
<ele>83.471741</ele>
<time>2010-06-20T08:24:26Z</time>
<desc>lat.=55.970592, lon.=26.544004, Alt.=83.471741m. Speed=7.884000m/h.</desc>
<speed>2.190000</speed>
</trkpt>
<trkpt lat="55.970627" lon="26.544003">
<ele>81.889709</ele>
<time>2010-06-20T08:24:27Z</time>
<desc>lat.=55.970627, lon.=26.544003, Alt.=81.889709m. Speed=8.460000m/h.</desc>
<speed>2.350000</speed>
</trkpt>
<trkpt lat="55.970650" lon="26.544020">
<ele>82.538147</ele>
<time>2010-06-20T08:24:28Z</time>
<desc>lat.=55.970650, lon.=26.544020, Alt.=82.538147m. Speed=6.084000m/h.</desc>
<speed>1.690000</speed>
</trkpt>
<trkpt lat="55.970676" lon="26.544029">
<ele>83.055725</ele>
<time>2010-06-20T08:24:29Z</time>
<desc>lat.=55.970676, lon.=26.544029, Alt.=83.055725m. Speed=7.920000m/h.</desc>
<speed>2.200000</speed>
</trkpt>
<trkpt lat="55.970711" lon="26.544029">
<ele>84.387756</ele>
<time>2010-06-20T08:24:30Z</time>
<desc>lat.=55.970711, lon.=26.544029, Alt.=84.387756m. Speed=8.028000m/h.</desc>
<speed>2.230000</speed>
</trkpt>
<trkpt lat="55.970737" lon="26.544039">
<ele>84.530334</ele>
<time>2010-06-20T08:24:31Z</time>
<desc>lat.=55.970737, lon.=26.544039, Alt.=84.530334m. Speed=8.820000m/h.</desc>
<speed>2.450000</speed>
</trkpt>
<trkpt lat="55.970776" lon="26.544056">
<ele>84.389709</ele>
<time>2010-06-20T08:24:32Z</time>
<desc>lat.=55.970776, lon.=26.544056, Alt.=84.389709m. Speed=11.484000m/h.</desc>
<speed>3.190000</speed>
</trkpt>
<trkpt lat="55.970810" lon="26.544079">
<ele>86.092834</ele>
<time>2010-06-20T08:24:33Z</time>
<desc>lat.=55.970810, lon.=26.544079, Alt.=86.092834m. Speed=10.116000m/h.</desc>
<speed>2.810000</speed>
</trkpt>
<trkpt lat="55.970840" lon="26.544102">
<ele>85.758850</ele>
<time>2010-06-20T08:24:34Z</time>
<desc>lat.=55.970840, lon.=26.544102, Alt.=85.758850m. Speed=9.720000m/h.</desc>
<speed>2.700000</speed>
</trkpt>
<trkpt lat="55.970856" lon="26.544130">
<ele>85.268616</ele>
<time>2010-06-20T08:24:35Z</time>
<desc>lat.=55.970856, lon.=26.544130, Alt.=85.268616m. Speed=10.404000m/h.</desc>
<speed>2.890000</speed>
</trkpt>
<trkpt lat="55.970886" lon="26.544155">
<ele>85.766663</ele>
<time>2010-06-20T08:24:36Z</time>
<desc>lat.=55.970886, lon.=26.544155, Alt.=85.766663m. Speed=7.848000m/h.</desc>
<speed>2.180000</speed>
</trkpt>
<trkpt lat="55.970909" lon="26.544167">
<ele>86.374084</ele>
<time>2010-06-20T08:24:37Z</time>
<desc>lat.=55.970909, lon.=26.544167, Alt.=86.374084m. Speed=6.372000m/h.</desc>
<speed>1.770000</speed>
</trkpt>
<trkpt lat="55.970928" lon="26.544188">
<ele>87.352600</ele>
<time>2010-06-20T08:24:38Z</time>
<desc>lat.=55.970928, lon.=26.544188, Alt.=87.352600m. Speed=5.580000m/h.</desc>
<speed>1.550000</speed>
</trkpt>
<trkpt lat="55.970959" lon="26.544201">
<ele>89.243225</ele>
<time>2010-06-20T08:24:39Z</time>
<desc>lat.=55.970959, lon.=26.544201, Alt.=89.243225m. Speed=7.596000m/h.</desc>
<speed>2.110000</speed>
</trkpt>
<trkpt lat="55.970985" lon="26.544201">
<ele>88.848694</ele>
<time>2010-06-20T08:24:40Z</time>
<desc>lat.=55.970985, lon.=26.544201, Alt.=88.848694m. Speed=7.668000m/h.</desc>
<speed>2.130000</speed>
</trkpt>
<trkpt lat="55.971008" lon="26.544207">
<ele>88.614319</ele>
<time>2010-06-20T08:24:41Z</time>
<desc>lat.=55.971008, lon.=26.544207, Alt.=88.614319m. Speed=6.660000m/h.</desc>
<speed>1.850000</speed>
</trkpt>
<trkpt lat="55.971031" lon="26.544216">
<ele>88.692444</ele>
<time>2010-06-20T08:24:42Z</time>
<desc>lat.=55.971031, lon.=26.544216, Alt.=88.692444m. Speed=6.696000m/h.</desc>
<speed>1.860000</speed>
</trkpt>
<trkpt lat="55.971054" lon="26.544226">
<ele>89.055725</ele>
<time>2010-06-20T08:24:43Z</time>
<desc>lat.=55.971054, lon.=26.544226, Alt.=89.055725m. Speed=6.768000m/h.</desc>
<speed>1.880000</speed>
</trkpt>
<trkpt lat="55.971077" lon="26.544233">
<ele>88.934631</ele>
<time>2010-06-20T08:24:44Z</time>
<desc>lat.=55.971077, lon.=26.544233, Alt.=88.934631m. Speed=5.616000m/h.</desc>
<speed>1.560000</speed>
</trkpt>
<trkpt lat="55.971115" lon="26.544235">
<ele>90.706116</ele>
<time>2010-06-20T08:24:45Z</time>
<desc>lat.=55.971115, lon.=26.544235, Alt.=90.706116m. Speed=8.640000m/h.</desc>
<speed>2.400000</speed>
</trkpt>
<trkpt lat="55.971149" lon="26.544249">
<ele>90.512756</ele>
<time>2010-06-20T08:24:46Z</time>
<desc>lat.=55.971149, lon.=26.544249, Alt.=90.512756m. Speed=6.696000m/h.</desc>
<speed>1.860000</speed>
</trkpt>
<trkpt lat="55.971176" lon="26.544258">
<ele>90.272522</ele>
<time>2010-06-20T08:24:47Z</time>
<desc>lat.=55.971176, lon.=26.544258, Alt.=90.272522m. Speed=6.768000m/h.</desc>
<speed>1.880000</speed>
</trkpt>
<trkpt lat="55.971203" lon="26.544266">
<ele>90.637756</ele>
<time>2010-06-20T08:24:48Z</time>
<desc>lat.=55.971203, lon.=26.544266, Alt.=90.637756m. Speed=7.956000m/h.</desc>
<speed>2.210000</speed>
</trkpt>
<trkpt lat="55.971230" lon="26.544273">
<ele>90.434631</ele>
<time>2010-06-20T08:24:49Z</time>
<desc>lat.=55.971230, lon.=26.544273, Alt.=90.434631m. Speed=8.172000m/h.</desc>
<speed>2.270000</speed>
</trkpt>
<trkpt lat="55.971264" lon="26.544285">
<ele>91.081116</ele>
<time>2010-06-20T08:24:50Z</time>
<desc>lat.=55.971264, lon.=26.544285, Alt.=91.081116m. Speed=8.712000m/h.</desc>
<speed>2.420000</speed>
</trkpt>
<trkpt lat="55.971283" lon="26.544300">
<ele>91.377991</ele>
<time>2010-06-20T08:24:51Z</time>
<desc>lat.=55.971283, lon.=26.544300, Alt.=91.377991m. Speed=6.948000m/h.</desc>
<speed>1.930000</speed>
</trkpt>
<trkpt lat="55.971306" lon="26.544317">
<ele>91.948303</ele>
<time>2010-06-20T08:24:52Z</time>
<desc>lat.=55.971306, lon.=26.544317, Alt.=91.948303m. Speed=6.696000m/h.</desc>
<speed>1.860000</speed>
</trkpt>
<trkpt lat="55.971329" lon="26.544334">
<ele>92.764709</ele>
<time>2010-06-20T08:24:53Z</time>
<desc>lat.=55.971329, lon.=26.544334, Alt.=92.764709m. Speed=8.280000m/h.</desc>
<speed>2.300000</speed>
</trkpt>
<trkpt lat="55.971355" lon="26.544346">
<ele>92.844788</ele>
<time>2010-06-20T08:24:54Z</time>
<desc>lat.=55.971355, lon.=26.544346, Alt.=92.844788m. Speed=7.236000m/h.</desc>
<speed>2.010000</speed>
</trkpt>
<trkpt lat="55.971378" lon="26.544352">
<ele>93.008850</ele>
<time>2010-06-20T08:24:55Z</time>
<desc>lat.=55.971378, lon.=26.544352, Alt.=93.008850m. Speed=6.408000m/h.</desc>
<speed>1.780000</speed>
</trkpt>
<trkpt lat="55.971405" lon="26.544371">
<ele>92.620178</ele>
<time>2010-06-20T08:24:56Z</time>
<desc>lat.=55.971405, lon.=26.544371, Alt.=92.620178m. Speed=9.288000m/h.</desc>
<speed>2.580000</speed>
</trkpt>
<trkpt lat="55.971432" lon="26.544390">
<ele>93.012756</ele>
<time>2010-06-20T08:24:57Z</time>
<desc>lat.=55.971432, lon.=26.544390, Alt.=93.012756m. Speed=8.640000m/h.</desc>
<speed>2.400000</speed>
</trkpt>
<trkpt lat="55.971462" lon="26.544399">
<ele>93.155334</ele>
<time>2010-06-20T08:24:58Z</time>
<desc>lat.=55.971462, lon.=26.544399, Alt.=93.155334m. Speed=8.784000m/h.</desc>
<speed>2.440000</speed>
</trkpt>
<trkpt lat="55.971493" lon="26.544420">
<ele>94.059631</ele>
<time>2010-06-20T08:24:59Z</time>
<desc>lat.=55.971493, lon.=26.544420, Alt.=94.059631m. Speed=7.092000m/h.</desc>
<speed>1.970000</speed>
</trkpt>
<trkpt lat="55.971527" lon="26.544434">
<ele>94.579163</ele>
<time>2010-06-20T08:25:00Z</time>
<desc>lat.=55.971527, lon.=26.544434, Alt.=94.579163m. Speed=7.992000m/h.</desc>
<speed>2.220000</speed>
</trkpt>
<trkpt lat="55.971561" lon="26.544458">
<ele>94.190491</ele>
<time>2010-06-20T08:25:01Z</time>
<desc>lat.=55.971561, lon.=26.544458, Alt.=94.190491m. Speed=8.604000m/h.</desc>
<speed>2.390000</speed>
</trkpt>
<trkpt lat="55.971596" lon="26.544476">
<ele>93.825256</ele>
<time>2010-06-20T08:25:02Z</time>
<desc>lat.=55.971596, lon.=26.544476, Alt.=93.825256m. Speed=8.604000m/h.</desc>
<speed>2.390000</speed>
</trkpt>
<trkpt lat="55.971630" lon="26.544481">
<ele>93.891663</ele>
<time>2010-06-20T08:25:03Z</time>
<desc>lat.=55.971630, lon.=26.544481, Alt.=93.891663m. Speed=8.424000m/h.</desc>
<speed>2.340000</speed>
</trkpt>
<trkpt lat="55.971657" lon="26.544487">
<ele>93.471741</ele>
<time>2010-06-20T08:25:04Z</time>
<desc>lat.=55.971657, lon.=26.544487, Alt.=93.471741m. Speed=6.624000m/h.</desc>
<speed>1.840000</speed>
</trkpt>
<trkpt lat="55.971680" lon="26.544502">
<ele>93.676819</ele>
<time>2010-06-20T08:25:05Z</time>
<desc>lat.=55.971680, lon.=26.544502, Alt.=93.676819m. Speed=6.840000m/h.</desc>
<speed>1.900000</speed>
</trkpt>
<trkpt lat="55.971710" lon="26.544525">
<ele>92.713928</ele>
<time>2010-06-20T08:25:06Z</time>
<desc>lat.=55.971710, lon.=26.544525, Alt.=92.713928m. Speed=7.920000m/h.</desc>
<speed>2.200000</speed>
</trkpt>
<trkpt lat="55.971737" lon="26.544552">
<ele>91.518616</ele>
<time>2010-06-20T08:25:07Z</time>
<desc>lat.=55.971737, lon.=26.544552, Alt.=91.518616m. Speed=7.848000m/h.</desc>
<speed>2.180000</speed>
</trkpt>
<trkpt lat="55.971767" lon="26.544569">
<ele>91.387756</ele>
<time>2010-06-20T08:25:08Z</time>
<desc>lat.=55.971767, lon.=26.544569, Alt.=91.387756m. Speed=7.308000m/h.</desc>
<speed>2.030000</speed>
</trkpt>
<trkpt lat="55.971790" lon="26.544584">
<ele>91.295959</ele>
<time>2010-06-20T08:25:09Z</time>
<desc>lat.=55.971790, lon.=26.544584, Alt.=91.295959m. Speed=7.524000m/h.</desc>
<speed>2.090000</speed>
</trkpt>
<trkpt lat="55.971821" lon="26.544601">
<ele>90.727600</ele>
<time>2010-06-20T08:25:10Z</time>
<desc>lat.=55.971821, lon.=26.544601, Alt.=90.727600m. Speed=8.640000m/h.</desc>
<speed>2.400000</speed>
</trkpt>
<trkpt lat="55.971859" lon="26.544626">
<ele>91.352600</ele>
<time>2010-06-20T08:25:11Z</time>
<desc>lat.=55.971859, lon.=26.544626, Alt.=91.352600m. Speed=9.756000m/h.</desc>
<speed>2.710000</speed>
</trkpt>
<trkpt lat="55.971886" lon="26.544645">
<ele>90.911194</ele>
<time>2010-06-20T08:25:12Z</time>
<desc>lat.=55.971886, lon.=26.544645, Alt.=90.911194m. Speed=9.432000m/h.</desc>
<speed>2.620000</speed>
</trkpt>
<trkpt lat="55.971916" lon="26.544664">
<ele>90.274475</ele>
<time>2010-06-20T08:25:13Z</time>
<desc>lat.=55.971916, lon.=26.544664, Alt.=90.274475m. Speed=10.548000m/h.</desc>
<speed>2.930000</speed>
</trkpt>
<trkpt lat="55.971943" lon="26.544685">
<ele>89.936584</ele>
<time>2010-06-20T08:25:14Z</time>
<desc>lat.=55.971943, lon.=26.544685, Alt.=89.936584m. Speed=9.684000m/h.</desc>
<speed>2.690000</speed>
</trkpt>
<trkpt lat="55.971970" lon="26.544706">
<ele>90.387756</ele>
<time>2010-06-20T08:25:15Z</time>
<desc>lat.=55.971970, lon.=26.544706, Alt.=90.387756m. Speed=8.784000m/h.</desc>
<speed>2.440000</speed>
</trkpt>
<trkpt lat="55.971996" lon="26.544729">
<ele>91.430725</ele>
<time>2010-06-20T08:25:16Z</time>
<desc>lat.=55.971996, lon.=26.544729, Alt.=91.430725m. Speed=9.864000m/h.</desc>
<speed>2.740000</speed>
</trkpt>
<trkpt lat="55.972027" lon="26.544756">
<ele>91.430725</ele>
<time>2010-06-20T08:25:17Z</time>
<desc>lat.=55.972027, lon.=26.544756, Alt.=91.430725m. Speed=11.304000m/h.</desc>
<speed>3.140000</speed>
</trkpt>
<trkpt lat="55.972061" lon="26.544777">
<ele>92.440491</ele>
<time>2010-06-20T08:25:18Z</time>
<desc>lat.=55.972061, lon.=26.544777, Alt.=92.440491m. Speed=9.936000m/h.</desc>
<speed>2.760000</speed>
</trkpt>
<trkpt lat="55.972088" lon="26.544807">
<ele>93.053772</ele>
<time>2010-06-20T08:25:19Z</time>
<desc>lat.=55.972088, lon.=26.544807, Alt.=93.053772m. Speed=10.944000m/h.</desc>
<speed>3.040000</speed>
</trkpt>
<trkpt lat="55.972122" lon="26.544834">
<ele>93.915100</ele>
<time>2010-06-20T08:25:20Z</time>
<desc>lat.=55.972122, lon.=26.544834, Alt.=93.915100m. Speed=11.448000m/h.</desc>
<speed>3.180000</speed>
</trkpt>
<trkpt lat="55.972153" lon="26.544861">
<ele>93.737366</ele>
<time>2010-06-20T08:25:21Z</time>
<desc>lat.=55.972153, lon.=26.544861, Alt.=93.737366m. Speed=11.232000m/h.</desc>
<speed>3.120000</speed>
</trkpt>
<trkpt lat="55.972191" lon="26.544899">
<ele>96.116272</ele>
<time>2010-06-20T08:25:22Z</time>
<desc>lat.=55.972191, lon.=26.544899, Alt.=96.116272m. Speed=13.032000m/h.</desc>
<speed>3.620000</speed>
</trkpt>
<trkpt lat="55.972225" lon="26.544924">
<ele>96.122131</ele>
<time>2010-06-20T08:25:23Z</time>
<desc>lat.=55.972225, lon.=26.544924, Alt.=96.122131m. Speed=13.536000m/h.</desc>
<speed>3.760000</speed>
</trkpt>
<trkpt lat="55.972260" lon="26.544954">
<ele>95.928772</ele>
<time>2010-06-20T08:25:24Z</time>
<desc>lat.=55.972260, lon.=26.544954, Alt.=95.928772m. Speed=12.924000m/h.</desc>
<speed>3.590000</speed>
</trkpt>
<trkpt lat="55.972290" lon="26.544983">
<ele>95.956116</ele>
<time>2010-06-20T08:25:25Z</time>
<desc>lat.=55.972290, lon.=26.544983, Alt.=95.956116m. Speed=13.248000m/h.</desc>
<speed>3.680000</speed>
</trkpt>
<trkpt lat="55.972324" lon="26.545013">
<ele>95.686584</ele>
<time>2010-06-20T08:25:26Z</time>
<desc>lat.=55.972324, lon.=26.545013, Alt.=95.686584m. Speed=13.428000m/h.</desc>
<speed>3.730000</speed>
</trkpt>
<trkpt lat="55.972359" lon="26.545040">
<ele>95.430725</ele>
<time>2010-06-20T08:25:27Z</time>
<desc>lat.=55.972359, lon.=26.545040, Alt.=95.430725m. Speed=13.752000m/h.</desc>
<speed>3.820000</speed>
</trkpt>
<trkpt lat="55.972389" lon="26.545074">
<ele>95.094788</ele>
<time>2010-06-20T08:25:28Z</time>
<desc>lat.=55.972389, lon.=26.545074, Alt.=95.094788m. Speed=13.536000m/h.</desc>
<speed>3.760000</speed>
</trkpt>
<trkpt lat="55.972424" lon="26.545107">
<ele>94.829163</ele>
<time>2010-06-20T08:25:29Z</time>
<desc>lat.=55.972424, lon.=26.545107, Alt.=94.829163m. Speed=12.924000m/h.</desc>
<speed>3.590000</speed>
</trkpt>
<trkpt lat="55.972454" lon="26.545139">
<ele>95.120178</ele>
<time>2010-06-20T08:25:30Z</time>
<desc>lat.=55.972454, lon.=26.545139, Alt.=95.120178m. Speed=12.852000m/h.</desc>
<speed>3.570000</speed>
</trkpt>
<trkpt lat="55.972477" lon="26.545179">
<ele>94.866272</ele>
<time>2010-06-20T08:25:31Z</time>
<desc>lat.=55.972477, lon.=26.545179, Alt.=94.866272m. Speed=11.988000m/h.</desc>
<speed>3.330000</speed>
</trkpt>
<trkpt lat="55.972504" lon="26.545208">
<ele>94.835022</ele>
<time>2010-06-20T08:25:32Z</time>
<desc>lat.=55.972504, lon.=26.545208, Alt.=94.835022m. Speed=11.952000m/h.</desc>
<speed>3.320000</speed>
</trkpt>
<trkpt lat="55.972530" lon="26.545242">
<ele>94.192444</ele>
<time>2010-06-20T08:25:33Z</time>
<desc>lat.=55.972530, lon.=26.545242, Alt.=94.192444m. Speed=12.024000m/h.</desc>
<speed>3.340000</speed>
</trkpt>
<trkpt lat="55.972549" lon="26.545275">
<ele>93.182678</ele>
<time>2010-06-20T08:25:34Z</time>
<desc>lat.=55.972549, lon.=26.545275, Alt.=93.182678m. Speed=11.880000m/h.</desc>
<speed>3.300000</speed>
</trkpt>
<trkpt lat="55.972576" lon="26.545307">
<ele>92.934631</ele>
<time>2010-06-20T08:25:35Z</time>
<desc>lat.=55.972576, lon.=26.545307, Alt.=92.934631m. Speed=12.132000m/h.</desc>
<speed>3.370000</speed>
</trkpt>
<trkpt lat="55.972603" lon="26.545340">
<ele>92.981506</ele>
<time>2010-06-20T08:25:36Z</time>
<desc>lat.=55.972603, lon.=26.545340, Alt.=92.981506m. Speed=12.600000m/h.</desc>
<speed>3.500000</speed>
</trkpt>
<trkpt lat="55.972630" lon="26.545378">
<ele>92.624084</ele>
<time>2010-06-20T08:25:37Z</time>
<desc>lat.=55.972630, lon.=26.545378, Alt.=92.624084m. Speed=13.176000m/h.</desc>
<speed>3.660000</speed>
</trkpt>
<trkpt lat="55.972652" lon="26.545414">
<ele>92.120178</ele>
<time>2010-06-20T08:25:38Z</time>
<desc>lat.=55.972652, lon.=26.545414, Alt.=92.120178m. Speed=12.348000m/h.</desc>
<speed>3.430000</speed>
</trkpt>
<trkpt lat="55.972679" lon="26.545450">
<ele>91.858459</ele>
<time>2010-06-20T08:25:39Z</time>
<desc>lat.=55.972679, lon.=26.545450, Alt.=91.858459m. Speed=12.096000m/h.</desc>
<speed>3.360000</speed>
</trkpt>
<trkpt lat="55.972702" lon="26.545486">
<ele>91.477600</ele>
<time>2010-06-20T08:25:40Z</time>
<desc>lat.=55.972702, lon.=26.545486, Alt.=91.477600m. Speed=12.060000m/h.</desc>
<speed>3.350000</speed>
</trkpt>
<trkpt lat="55.972725" lon="26.545523">
<ele>91.229553</ele>
<time>2010-06-20T08:25:41Z</time>
<desc>lat.=55.972725, lon.=26.545523, Alt.=91.229553m. Speed=11.700000m/h.</desc>
<speed>3.250000</speed>
</trkpt>
<trkpt lat="55.972755" lon="26.545563">
<ele>91.752991</ele>
<time>2010-06-20T08:25:42Z</time>
<desc>lat.=55.972755, lon.=26.545563, Alt.=91.752991m. Speed=12.312000m/h.</desc>
<speed>3.420000</speed>
</trkpt>
<trkpt lat="55.972786" lon="26.545603">
<ele>92.258850</ele>
<time>2010-06-20T08:25:43Z</time>
<desc>lat.=55.972786, lon.=26.545603, Alt.=92.258850m. Speed=12.132000m/h.</desc>
<speed>3.370000</speed>
</trkpt>
<trkpt lat="55.972813" lon="26.545633">
<ele>92.553772</ele>
<time>2010-06-20T08:25:44Z</time>
<desc>lat.=55.972813, lon.=26.545633, Alt.=92.553772m. Speed=11.124000m/h.</desc>
<speed>3.090000</speed>
</trkpt>
<trkpt lat="55.972832" lon="26.545671">
<ele>92.239319</ele>
<time>2010-06-20T08:25:45Z</time>
<desc>lat.=55.972832, lon.=26.545671, Alt.=92.239319m. Speed=10.692000m/h.</desc>
<speed>2.970000</speed>
</trkpt>
<trkpt lat="55.972847" lon="26.545704">
<ele>91.823303</ele>
<time>2010-06-20T08:25:46Z</time>
<desc>lat.=55.972847, lon.=26.545704, Alt.=91.823303m. Speed=9.936000m/h.</desc>
<speed>2.760000</speed>
</trkpt>
<trkpt lat="55.972881" lon="26.545727">
<ele>91.364319</ele>
<time>2010-06-20T08:25:47Z</time>
<desc>lat.=55.972881, lon.=26.545727, Alt.=91.364319m. Speed=10.296000m/h.</desc>
<speed>2.860000</speed>
</trkpt>
<trkpt lat="55.972908" lon="26.545757">
<ele>91.876038</ele>
<time>2010-06-20T08:25:48Z</time>
<desc>lat.=55.972908, lon.=26.545757, Alt.=91.876038m. Speed=10.836000m/h.</desc>
<speed>3.010000</speed>
</trkpt>
<trkpt lat="55.972931" lon="26.545792">
<ele>91.653381</ele>
<time>2010-06-20T08:25:49Z</time>
<desc>lat.=55.972931, lon.=26.545792, Alt.=91.653381m. Speed=10.512000m/h.</desc>
<speed>2.920000</speed>
</trkpt>
<trkpt lat="55.972950" lon="26.545822">
<ele>91.430725</ele>
<time>2010-06-20T08:25:50Z</time>
<desc>lat.=55.972950, lon.=26.545822, Alt.=91.430725m. Speed=10.800000m/h.</desc>
<speed>3.000000</speed>
</trkpt>
<trkpt lat="55.972977" lon="26.545862">
<ele>90.963928</ele>
<time>2010-06-20T08:25:51Z</time>
<desc>lat.=55.972977, lon.=26.545862, Alt.=90.963928m. Speed=11.952000m/h.</desc>
<speed>3.320000</speed>
</trkpt>
<trkpt lat="55.973000" lon="26.545897">
<ele>90.876038</ele>
<time>2010-06-20T08:25:52Z</time>
<desc>lat.=55.973000, lon.=26.545897, Alt.=90.876038m. Speed=11.700000m/h.</desc>
<speed>3.250000</speed>
</trkpt>
<trkpt lat="55.973022" lon="26.545940">
<ele>90.374084</ele>
<time>2010-06-20T08:25:53Z</time>
<desc>lat.=55.973022, lon.=26.545940, Alt.=90.374084m. Speed=11.916000m/h.</desc>
<speed>3.310000</speed>
</trkpt>
<trkpt lat="55.973045" lon="26.545975">
<ele>90.141663</ele>
<time>2010-06-20T08:25:54Z</time>
<desc>lat.=55.973045, lon.=26.545975, Alt.=90.141663m. Speed=11.160000m/h.</desc>
<speed>3.100000</speed>
</trkpt>
<trkpt lat="55.973072" lon="26.546011">
<ele>89.387756</ele>
<time>2010-06-20T08:25:55Z</time>
<desc>lat.=55.973072, lon.=26.546011, Alt.=89.387756m. Speed=11.988000m/h.</desc>
<speed>3.330000</speed>
</trkpt>
<trkpt lat="55.973095" lon="26.546049">
<ele>89.819397</ele>
<time>2010-06-20T08:25:56Z</time>
<desc>lat.=55.973095, lon.=26.546049, Alt.=89.819397m. Speed=12.312000m/h.</desc>
<speed>3.420000</speed>
</trkpt>
<trkpt lat="55.973118" lon="26.546083">
<ele>90.053772</ele>
<time>2010-06-20T08:25:57Z</time>
<desc>lat.=55.973118, lon.=26.546083, Alt.=90.053772m. Speed=11.664000m/h.</desc>
<speed>3.240000</speed>
</trkpt>
<trkpt lat="55.973141" lon="26.546116">
<ele>90.483459</ele>
<time>2010-06-20T08:25:58Z</time>
<desc>lat.=55.973141, lon.=26.546116, Alt.=90.483459m. Speed=11.880000m/h.</desc>
<speed>3.300000</speed>
</trkpt>
<trkpt lat="55.973160" lon="26.546156">
<ele>88.282288</ele>
<time>2010-06-20T08:25:59Z</time>
<desc>lat.=55.973160, lon.=26.546156, Alt.=88.282288m. Speed=12.024000m/h.</desc>
<speed>3.340000</speed>
</trkpt>
<trkpt lat="55.973183" lon="26.546192">
<ele>87.887756</ele>
<time>2010-06-20T08:26:00Z</time>
<desc>lat.=55.973183, lon.=26.546192, Alt.=87.887756m. Speed=12.240000m/h.</desc>
<speed>3.400000</speed>
</trkpt>
<trkpt lat="55.973206" lon="26.546227">
<ele>88.495178</ele>
<time>2010-06-20T08:26:01Z</time>
<desc>lat.=55.973206, lon.=26.546227, Alt.=88.495178m. Speed=11.952000m/h.</desc>
<speed>3.320000</speed>
</trkpt>
<trkpt lat="55.973232" lon="26.546263">
<ele>89.358459</ele>
<time>2010-06-20T08:26:02Z</time>
<desc>lat.=55.973232, lon.=26.546263, Alt.=89.358459m. Speed=12.528000m/h.</desc>
<speed>3.480000</speed>
</trkpt>
<trkpt lat="55.973259" lon="26.546299">
<ele>89.237366</ele>
<time>2010-06-20T08:26:03Z</time>
<desc>lat.=55.973259, lon.=26.546299, Alt.=89.237366m. Speed=12.492000m/h.</desc>
<speed>3.470000</speed>
</trkpt>
<trkpt lat="55.973286" lon="26.546329">
<ele>89.057678</ele>
<time>2010-06-20T08:26:04Z</time>
<desc>lat.=55.973286, lon.=26.546329, Alt.=89.057678m. Speed=12.348000m/h.</desc>
<speed>3.430000</speed>
</trkpt>
<trkpt lat="55.973309" lon="26.546370">
<ele>88.815491</ele>
<time>2010-06-20T08:26:05Z</time>
<desc>lat.=55.973309, lon.=26.546370, Alt.=88.815491m. Speed=12.168000m/h.</desc>
<speed>3.380000</speed>
</trkpt>
<trkpt lat="55.973331" lon="26.546413">
<ele>87.366272</ele>
<time>2010-06-20T08:26:06Z</time>
<desc>lat.=55.973331, lon.=26.546413, Alt.=87.366272m. Speed=12.276000m/h.</desc>
<speed>3.410000</speed>
</trkpt>
<trkpt lat="55.973343" lon="26.546471">
<ele>88.251038</ele>
<time>2010-06-20T08:26:07Z</time>
<desc>lat.=55.973343, lon.=26.546471, Alt.=88.251038m. Speed=12.240000m/h.</desc>
<speed>3.400000</speed>
</trkpt>
<trkpt lat="55.973362" lon="26.546513">
<ele>87.891663</ele>
<time>2010-06-20T08:26:08Z</time>
<desc>lat.=55.973362, lon.=26.546513, Alt.=87.891663m. Speed=12.024000m/h.</desc>
<speed>3.340000</speed>
</trkpt>
<trkpt lat="55.973381" lon="26.546555">
<ele>87.600647</ele>
<time>2010-06-20T08:26:09Z</time>
<desc>lat.=55.973381, lon.=26.546555, Alt.=87.600647m. Speed=12.420000m/h.</desc>
<speed>3.450000</speed>
</trkpt>
<trkpt lat="55.973400" lon="26.546602">
<ele>88.331116</ele>
<time>2010-06-20T08:26:10Z</time>
<desc>lat.=55.973400, lon.=26.546602, Alt.=88.331116m. Speed=12.168000m/h.</desc>
<speed>3.380000</speed>
</trkpt>
<trkpt lat="55.973423" lon="26.546644">
<ele>89.385803</ele>
<time>2010-06-20T08:26:11Z</time>
<desc>lat.=55.973423, lon.=26.546644, Alt.=89.385803m. Speed=13.176000m/h.</desc>
<speed>3.660000</speed>
</trkpt>
<trkpt lat="55.973446" lon="26.546686">
<ele>89.567444</ele>
<time>2010-06-20T08:26:12Z</time>
<desc>lat.=55.973446, lon.=26.546686, Alt.=89.567444m. Speed=13.284000m/h.</desc>
<speed>3.690000</speed>
</trkpt>
<trkpt lat="55.973465" lon="26.546736">
<ele>89.495178</ele>
<time>2010-06-20T08:26:13Z</time>
<desc>lat.=55.973465, lon.=26.546736, Alt.=89.495178m. Speed=12.816000m/h.</desc>
<speed>3.560000</speed>
</trkpt>
<trkpt lat="55.973484" lon="26.546789">
<ele>87.719788</ele>
<time>2010-06-20T08:26:14Z</time>
<desc>lat.=55.973484, lon.=26.546789, Alt.=87.719788m. Speed=13.428000m/h.</desc>
<speed>3.730000</speed>
</trkpt>
<trkpt lat="55.973507" lon="26.546833">
<ele>87.614319</ele>
<time>2010-06-20T08:26:15Z</time>
<desc>lat.=55.973507, lon.=26.546833, Alt.=87.614319m. Speed=13.464000m/h.</desc>
<speed>3.740000</speed>
</trkpt>
<trkpt lat="55.973541" lon="26.546877">
<ele>88.504944</ele>
<time>2010-06-20T08:26:16Z</time>
<desc>lat.=55.973541, lon.=26.546877, Alt.=88.504944m. Speed=13.680000m/h.</desc>
<speed>3.800000</speed>
</trkpt>
<trkpt lat="55.973564" lon="26.546923">
<ele>88.649475</ele>
<time>2010-06-20T08:26:17Z</time>
<desc>lat.=55.973564, lon.=26.546923, Alt.=88.649475m. Speed=13.716000m/h.</desc>
<speed>3.810000</speed>
</trkpt>
<trkpt lat="55.973583" lon="26.546980">
<ele>89.899475</ele>
<time>2010-06-20T08:26:18Z</time>
<desc>lat.=55.973583, lon.=26.546980, Alt.=89.899475m. Speed=14.040000m/h.</desc>
<speed>3.900000</speed>
</trkpt>
<trkpt lat="55.973598" lon="26.547039">
<ele>89.889709</ele>
<time>2010-06-20T08:26:19Z</time>
<desc>lat.=55.973598, lon.=26.547039, Alt.=89.889709m. Speed=13.464000m/h.</desc>
<speed>3.740000</speed>
</trkpt>
<trkpt lat="55.973621" lon="26.547091">
<ele>89.776428</ele>
<time>2010-06-20T08:26:20Z</time>
<desc>lat.=55.973621, lon.=26.547091, Alt.=89.776428m. Speed=12.924000m/h.</desc>
<speed>3.590000</speed>
</trkpt>
<trkpt lat="55.973644" lon="26.547136">
<ele>90.348694</ele>
<time>2010-06-20T08:26:21Z</time>
<desc>lat.=55.973644, lon.=26.547136, Alt.=90.348694m. Speed=13.500000m/h.</desc>
<speed>3.750000</speed>
</trkpt>
<trkpt lat="55.973660" lon="26.547195">
<ele>91.903381</ele>
<time>2010-06-20T08:26:22Z</time>
<desc>lat.=55.973660, lon.=26.547195, Alt.=91.903381m. Speed=13.932000m/h.</desc>
<speed>3.870000</speed>
</trkpt>
<trkpt lat="55.973686" lon="26.547245">
<ele>91.719788</ele>
<time>2010-06-20T08:26:23Z</time>
<desc>lat.=55.973686, lon.=26.547245, Alt.=91.719788m. Speed=14.580000m/h.</desc>
<speed>4.050000</speed>
</trkpt>
<trkpt lat="55.973713" lon="26.547293">
<ele>91.987366</ele>
<time>2010-06-20T08:26:24Z</time>
<desc>lat.=55.973713, lon.=26.547293, Alt.=91.987366m. Speed=14.220000m/h.</desc>
<speed>3.950000</speed>
</trkpt>
<trkpt lat="55.973728" lon="26.547352">
<ele>93.190491</ele>
<time>2010-06-20T08:26:25Z</time>
<desc>lat.=55.973728, lon.=26.547352, Alt.=93.190491m. Speed=13.608000m/h.</desc>
<speed>3.780000</speed>
</trkpt>
<trkpt lat="55.973755" lon="26.547400">
<ele>93.682678</ele>
<time>2010-06-20T08:26:26Z</time>
<desc>lat.=55.973755, lon.=26.547400, Alt.=93.682678m. Speed=13.644000m/h.</desc>
<speed>3.790000</speed>
</trkpt>
<trkpt lat="55.973782" lon="26.547449">
<ele>95.264709</ele>
<time>2010-06-20T08:26:27Z</time>
<desc>lat.=55.973782, lon.=26.547449, Alt.=95.264709m. Speed=14.292000m/h.</desc>
<speed>3.970000</speed>
</trkpt>
<trkpt lat="55.973804" lon="26.547489">
<ele>95.827209</ele>
<time>2010-06-20T08:26:28Z</time>
<desc>lat.=55.973804, lon.=26.547489, Alt.=95.827209m. Speed=13.608000m/h.</desc>
<speed>3.780000</speed>
</trkpt>
<trkpt lat="55.973831" lon="26.547529">
<ele>96.678772</ele>
<time>2010-06-20T08:26:29Z</time>
<desc>lat.=55.973831, lon.=26.547529, Alt.=96.678772m. Speed=13.140000m/h.</desc>
<speed>3.650000</speed>
</trkpt>
<trkpt lat="55.973854" lon="26.547571">
<ele>95.774475</ele>
<time>2010-06-20T08:26:30Z</time>
<desc>lat.=55.973854, lon.=26.547571, Alt.=95.774475m. Speed=13.068000m/h.</desc>
<speed>3.630000</speed>
</trkpt>
<trkpt lat="55.973877" lon="26.547615">
<ele>95.778381</ele>
<time>2010-06-20T08:26:31Z</time>
<desc>lat.=55.973877, lon.=26.547615, Alt.=95.778381m. Speed=13.176000m/h.</desc>
<speed>3.660000</speed>
</trkpt>
<trkpt lat="55.973904" lon="26.547649">
<ele>95.809631</ele>
<time>2010-06-20T08:26:32Z</time>
<desc>lat.=55.973904, lon.=26.547649, Alt.=95.809631m. Speed=12.816000m/h.</desc>
<speed>3.560000</speed>
</trkpt>
<trkpt lat="55.973930" lon="26.547693">
<ele>95.045959</ele>
<time>2010-06-20T08:26:33Z</time>
<desc>lat.=55.973930, lon.=26.547693, Alt.=95.045959m. Speed=14.076000m/h.</desc>
<speed>3.910000</speed>
</trkpt>
<trkpt lat="55.973949" lon="26.547739">
<ele>94.846741</ele>
<time>2010-06-20T08:26:34Z</time>
<desc>lat.=55.973949, lon.=26.547739, Alt.=94.846741m. Speed=12.960000m/h.</desc>
<speed>3.600000</speed>
</trkpt>
<trkpt lat="55.973980" lon="26.547775">
<ele>94.643616</ele>
<time>2010-06-20T08:26:35Z</time>
<desc>lat.=55.973980, lon.=26.547775, Alt.=94.643616m. Speed=13.320000m/h.</desc>
<speed>3.700000</speed>
</trkpt>
<trkpt lat="55.974007" lon="26.547817">
<ele>95.684631</ele>
<time>2010-06-20T08:26:36Z</time>
<desc>lat.=55.974007, lon.=26.547817, Alt.=95.684631m. Speed=13.896000m/h.</desc>
<speed>3.860000</speed>
</trkpt>
<trkpt lat="55.974033" lon="26.547867">
<ele>95.751038</ele>
<time>2010-06-20T08:26:37Z</time>
<desc>lat.=55.974033, lon.=26.547867, Alt.=95.751038m. Speed=14.544000m/h.</desc>
<speed>4.040000</speed>
</trkpt>
<trkpt lat="55.974056" lon="26.547911">
<ele>95.565491</ele>
<time>2010-06-20T08:26:38Z</time>
<desc>lat.=55.974056, lon.=26.547911, Alt.=95.565491m. Speed=13.860000m/h.</desc>
<speed>3.850000</speed>
</trkpt>
<trkpt lat="55.974087" lon="26.547941">
<ele>95.518616</ele>
<time>2010-06-20T08:26:39Z</time>
<desc>lat.=55.974087, lon.=26.547941, Alt.=95.518616m. Speed=14.220000m/h.</desc>
<speed>3.950000</speed>
</trkpt>
<trkpt lat="55.974125" lon="26.547970">
<ele>95.743225</ele>
<time>2010-06-20T08:26:40Z</time>
<desc>lat.=55.974125, lon.=26.547970, Alt.=95.743225m. Speed=15.372000m/h.</desc>
<speed>4.270000</speed>
</trkpt>
<trkpt lat="55.974159" lon="26.548002">
<ele>96.098694</ele>
<time>2010-06-20T08:26:41Z</time>
<desc>lat.=55.974159, lon.=26.548002, Alt.=96.098694m. Speed=16.416000m/h.</desc>
<speed>4.560000</speed>
</trkpt>
<trkpt lat="55.974197" lon="26.548040">
<ele>95.864319</ele>
<time>2010-06-20T08:26:42Z</time>
<desc>lat.=55.974197, lon.=26.548040, Alt.=95.864319m. Speed=17.100000m/h.</desc>
<speed>4.750000</speed>
</trkpt>
<trkpt lat="55.974232" lon="26.548086">
<ele>95.874084</ele>
<time>2010-06-20T08:26:43Z</time>
<desc>lat.=55.974232, lon.=26.548086, Alt.=95.874084m. Speed=17.243999m/h.</desc>
<speed>4.790000</speed>
</trkpt>
<trkpt lat="55.974262" lon="26.548138">
<ele>95.598694</ele>
<time>2010-06-20T08:26:44Z</time>
<desc>lat.=55.974262, lon.=26.548138, Alt.=95.598694m. Speed=17.424000m/h.</desc>
<speed>4.840000</speed>
</trkpt>
<trkpt lat="55.974293" lon="26.548189">
<ele>94.411194</ele>
<time>2010-06-20T08:26:45Z</time>
<desc>lat.=55.974293, lon.=26.548189, Alt.=94.411194m. Speed=17.136000m/h.</desc>
<speed>4.760000</speed>
</trkpt>
<trkpt lat="55.974331" lon="26.548233">
<ele>91.915100</ele>
<time>2010-06-20T08:26:46Z</time>
<desc>lat.=55.974331, lon.=26.548233, Alt.=91.915100m. Speed=18.072001m/h.</desc>
<speed>5.020000</speed>
</trkpt>
<trkpt lat="55.974365" lon="26.548286">
<ele>91.342834</ele>
<time>2010-06-20T08:26:47Z</time>
<desc>lat.=55.974365, lon.=26.548286, Alt.=91.342834m. Speed=17.568001m/h.</desc>
<speed>4.880000</speed>
</trkpt>
<trkpt lat="55.974407" lon="26.548332">
<ele>91.530334</ele>
<time>2010-06-20T08:26:48Z</time>
<desc>lat.=55.974407, lon.=26.548332, Alt.=91.530334m. Speed=17.856001m/h.</desc>
<speed>4.960000</speed>
</trkpt>
<trkpt lat="55.974442" lon="26.548386">
<ele>91.786194</ele>
<time>2010-06-20T08:26:49Z</time>
<desc>lat.=55.974442, lon.=26.548386, Alt.=91.786194m. Speed=17.856001m/h.</desc>
<speed>4.960000</speed>
</trkpt>
<trkpt lat="55.974480" lon="26.548433">
<ele>92.151428</ele>
<time>2010-06-20T08:26:50Z</time>
<desc>lat.=55.974480, lon.=26.548433, Alt.=92.151428m. Speed=17.747999m/h.</desc>
<speed>4.930000</speed>
</trkpt>
<trkpt lat="55.974518" lon="26.548483">
<ele>92.176819</ele>
<time>2010-06-20T08:26:51Z</time>
<desc>lat.=55.974518, lon.=26.548483, Alt.=92.176819m. Speed=17.820000m/h.</desc>
<speed>4.950000</speed>
</trkpt>
<trkpt lat="55.974556" lon="26.548529">
<ele>92.411194</ele>
<time>2010-06-20T08:26:52Z</time>
<desc>lat.=55.974556, lon.=26.548529, Alt.=92.411194m. Speed=17.136000m/h.</desc>
<speed>4.760000</speed>
</trkpt>
<trkpt lat="55.974590" lon="26.548574">
<ele>92.792053</ele>
<time>2010-06-20T08:26:53Z</time>
<desc>lat.=55.974590, lon.=26.548574, Alt.=92.792053m. Speed=16.920000m/h.</desc>
<speed>4.700000</speed>
</trkpt>
<trkpt lat="55.974632" lon="26.548601">
<ele>93.034241</ele>
<time>2010-06-20T08:26:54Z</time>
<desc>lat.=55.974632, lon.=26.548601, Alt.=93.034241m. Speed=21.096001m/h.</desc>
<speed>5.860000</speed>
</trkpt>
<trkpt lat="55.974674" lon="26.548634">
<ele>93.325256</ele>
<time>2010-06-20T08:26:55Z</time>
<desc>lat.=55.974674, lon.=26.548634, Alt.=93.325256m. Speed=16.488001m/h.</desc>
<speed>4.580000</speed>
</trkpt>
<trkpt lat="55.974712" lon="26.548677">
<ele>93.284241</ele>
<time>2010-06-20T08:26:56Z</time>
<desc>lat.=55.974712, lon.=26.548677, Alt.=93.284241m. Speed=17.063999m/h.</desc>
<speed>4.740000</speed>
</trkpt>
<trkpt lat="55.974751" lon="26.548719">
<ele>93.585022</ele>
<time>2010-06-20T08:26:57Z</time>
<desc>lat.=55.974751, lon.=26.548719, Alt.=93.585022m. Speed=17.172001m/h.</desc>
<speed>4.770000</speed>
</trkpt>
<trkpt lat="55.974789" lon="26.548756">
<ele>93.700256</ele>
<time>2010-06-20T08:26:58Z</time>
<desc>lat.=55.974789, lon.=26.548756, Alt.=93.700256m. Speed=16.596001m/h.</desc>
<speed>4.610000</speed>
</trkpt>
<trkpt lat="55.974823" lon="26.548800">
<ele>93.487366</ele>
<time>2010-06-20T08:26:59Z</time>
<desc>lat.=55.974823, lon.=26.548800, Alt.=93.487366m. Speed=16.488001m/h.</desc>
<speed>4.580000</speed>
</trkpt>
<trkpt lat="55.974861" lon="26.548836">
<ele>93.430725</ele>
<time>2010-06-20T08:27:00Z</time>
<desc>lat.=55.974861, lon.=26.548836, Alt.=93.430725m. Speed=17.820000m/h.</desc>
<speed>4.950000</speed>
</trkpt>
<trkpt lat="55.974892" lon="26.548878">
<ele>93.237366</ele>
<time>2010-06-20T08:27:01Z</time>
<desc>lat.=55.974892, lon.=26.548878, Alt.=93.237366m. Speed=15.552000m/h.</desc>
<speed>4.320000</speed>
</trkpt>
<trkpt lat="55.974926" lon="26.548912">
<ele>93.364319</ele>
<time>2010-06-20T08:27:02Z</time>
<desc>lat.=55.974926, lon.=26.548912, Alt.=93.364319m. Speed=15.012000m/h.</desc>
<speed>4.170000</speed>
</trkpt>
<trkpt lat="55.974960" lon="26.548944">
<ele>93.686584</ele>
<time>2010-06-20T08:27:03Z</time>
<desc>lat.=55.974960, lon.=26.548944, Alt.=93.686584m. Speed=14.508000m/h.</desc>
<speed>4.030000</speed>
</trkpt>
<trkpt lat="55.974998" lon="26.548965">
<ele>93.760803</ele>
<time>2010-06-20T08:27:04Z</time>
<desc>lat.=55.974998, lon.=26.548965, Alt.=93.760803m. Speed=14.256000m/h.</desc>
<speed>3.960000</speed>
</trkpt>
<trkpt lat="55.975025" lon="26.548988">
<ele>91.752991</ele>
<time>2010-06-20T08:27:05Z</time>
<desc>lat.=55.975025, lon.=26.548988, Alt.=91.752991m. Speed=12.960000m/h.</desc>
<speed>3.600000</speed>
</trkpt>
<trkpt lat="55.975056" lon="26.548998">
<ele>92.481506</ele>
<time>2010-06-20T08:27:06Z</time>
<desc>lat.=55.975056, lon.=26.548998, Alt.=92.481506m. Speed=11.952000m/h.</desc>
<speed>3.320000</speed>
</trkpt>
<trkpt lat="55.975082" lon="26.549000">
<ele>92.379944</ele>
<time>2010-06-20T08:27:07Z</time>
<desc>lat.=55.975082, lon.=26.549000, Alt.=92.379944m. Speed=13.500000m/h.</desc>
<speed>3.750000</speed>
</trkpt>
<trkpt lat="55.975109" lon="26.549002">
<ele>91.411194</ele>
<time>2010-06-20T08:27:08Z</time>
<desc>lat.=55.975109, lon.=26.549002, Alt.=91.411194m. Speed=11.664000m/h.</desc>
<speed>3.240000</speed>
</trkpt>
<trkpt lat="55.975136" lon="26.548998">
<ele>91.651428</ele>
<time>2010-06-20T08:27:09Z</time>
<desc>lat.=55.975136, lon.=26.548998, Alt.=91.651428m. Speed=10.800000m/h.</desc>
<speed>3.000000</speed>
</trkpt>
<trkpt lat="55.975155" lon="26.548996">
<ele>91.717834</ele>
<time>2010-06-20T08:27:10Z</time>
<desc>lat.=55.975155, lon.=26.548996, Alt.=91.717834m. Speed=9.396000m/h.</desc>
<speed>2.610000</speed>
</trkpt>
<trkpt lat="55.975174" lon="26.548988">
<ele>91.426819</ele>
<time>2010-06-20T08:27:11Z</time>
<desc>lat.=55.975174, lon.=26.548988, Alt.=91.426819m. Speed=7.380000m/h.</desc>
<speed>2.050000</speed>
</trkpt>
<trkpt lat="55.975197" lon="26.548988">
<ele>91.083069</ele>
<time>2010-06-20T08:27:12Z</time>
<desc>lat.=55.975197, lon.=26.548988, Alt.=91.083069m. Speed=8.352000m/h.</desc>
<speed>2.320000</speed>
</trkpt>
<trkpt lat="55.975216" lon="26.549002">
<ele>91.309631</ele>
<time>2010-06-20T08:27:13Z</time>
<desc>lat.=55.975216, lon.=26.549002, Alt.=91.309631m. Speed=9.612000m/h.</desc>
<speed>2.670000</speed>
</trkpt>
<trkpt lat="55.975235" lon="26.549009">
<ele>91.420959</ele>
<time>2010-06-20T08:27:14Z</time>
<desc>lat.=55.975235, lon.=26.549009, Alt.=91.420959m. Speed=9.972000m/h.</desc>
<speed>2.770000</speed>
</trkpt>
<trkpt lat="55.975262" lon="26.549011">
<ele>91.377991</ele>
<time>2010-06-20T08:27:15Z</time>
<desc>lat.=55.975262, lon.=26.549011, Alt.=91.377991m. Speed=10.692000m/h.</desc>
<speed>2.970000</speed>
</trkpt>
<trkpt lat="55.975288" lon="26.549013">
<ele>91.239319</ele>
<time>2010-06-20T08:27:16Z</time>
<desc>lat.=55.975288, lon.=26.549013, Alt.=91.239319m. Speed=9.216000m/h.</desc>
<speed>2.560000</speed>
</trkpt>
<trkpt lat="55.975311" lon="26.549007">
<ele>91.624084</ele>
<time>2010-06-20T08:27:17Z</time>
<desc>lat.=55.975311, lon.=26.549007, Alt.=91.624084m. Speed=8.280000m/h.</desc>
<speed>2.300000</speed>
</trkpt>
<trkpt lat="55.975330" lon="26.549000">
<ele>91.571350</ele>
<time>2010-06-20T08:27:18Z</time>
<desc>lat.=55.975330, lon.=26.549000, Alt.=91.571350m. Speed=4.932000m/h.</desc>
<speed>1.370000</speed>
</trkpt>
<trkpt lat="55.975338" lon="26.548998">
<ele>91.563538</ele>
<time>2010-06-20T08:27:19Z</time>
<desc>lat.=55.975338, lon.=26.548998, Alt.=91.563538m. Speed=3.528000m/h.</desc>
<speed>0.980000</speed>
</trkpt>
<trkpt lat="55.975346" lon="26.548998">
<ele>90.961975</ele>
<time>2010-06-20T08:27:20Z</time>
<desc>lat.=55.975346, lon.=26.548998, Alt.=90.961975m. Speed=1.404000m/h.</desc>
<speed>0.390000</speed>
</trkpt>
<trkpt lat="55.975349" lon="26.549006">
<ele>91.024475</ele>
<time>2010-06-20T08:27:21Z</time>
<desc>lat.=55.975349, lon.=26.549006, Alt.=91.024475m. Speed=1.224000m/h.</desc>
<speed>0.340000</speed>
</trkpt>
<trkpt lat="55.975349" lon="26.549009">
<ele>90.139709</ele>
<time>2010-06-20T08:27:22Z</time>
<desc>lat.=55.975349, lon.=26.549009, Alt.=90.139709m. Speed=1.044000m/h.</desc>
<speed>0.290000</speed>
</trkpt>
<trkpt lat="55.975349" lon="26.549007">
<ele>89.926819</ele>
<time>2010-06-20T08:27:23Z</time>
<desc>lat.=55.975349, lon.=26.549007, Alt.=89.926819m. Speed=0.828000m/h.</desc>
<speed>0.230000</speed>
</trkpt>
<trkpt lat="55.975353" lon="26.549007">
<ele>89.780334</ele>
<time>2010-06-20T08:27:24Z</time>
<desc>lat.=55.975353, lon.=26.549007, Alt.=89.780334m. Speed=0.360000m/h.</desc>
<speed>0.100000</speed>
</trkpt>
<trkpt lat="55.975353" lon="26.549007">
<ele>89.649475</ele>
<time>2010-06-20T08:27:25Z</time>
<desc>lat.=55.975353, lon.=26.549007, Alt.=89.649475m. Speed=0.288000m/h.</desc>
<speed>0.080000</speed>
</trkpt>
<trkpt lat="55.975353" lon="26.549007">
<ele>89.506897</ele>
<time>2010-06-20T08:27:26Z</time>
<desc>lat.=55.975353, lon.=26.549007, Alt.=89.506897m. Speed=0.360000m/h.</desc>
<speed>0.100000</speed>
</trkpt>
<trkpt lat="55.975357" lon="26.549007">
<ele>89.413147</ele>
<time>2010-06-20T08:27:27Z</time>
<desc>lat.=55.975357, lon.=26.549007, Alt.=89.413147m. Speed=0.396000m/h.</desc>
<speed>0.110000</speed>
</trkpt>
<trkpt lat="55.975357" lon="26.549007">
<ele>89.329163</ele>
<time>2010-06-20T08:27:28Z</time>
<desc>lat.=55.975357, lon.=26.549007, Alt.=89.329163m. Speed=0.216000m/h.</desc>
<speed>0.060000</speed>
</trkpt>
<trkpt lat="55.975357" lon="26.549009">
<ele>89.264709</ele>
<time>2010-06-20T08:27:29Z</time>
<desc>lat.=55.975357, lon.=26.549009, Alt.=89.264709m. Speed=0.540000m/h.</desc>
<speed>0.150000</speed>
</trkpt>
<trkpt lat="55.975357" lon="26.549011">
<ele>89.202209</ele>
<time>2010-06-20T08:27:30Z</time>
<desc>lat.=55.975357, lon.=26.549011, Alt.=89.202209m. Speed=0.108000m/h.</desc>
<speed>0.030000</speed>
</trkpt>
<trkpt lat="55.975357" lon="26.549011">
<ele>89.151428</ele>
<time>2010-06-20T08:27:31Z</time>
<desc>lat.=55.975357, lon.=26.549011, Alt.=89.151428m. Speed=0.072000m/h.</desc>
<speed>0.020000</speed>
</trkpt>
<trkpt lat="55.975357" lon="26.549011">
<ele>89.112366</ele>
<time>2010-06-20T08:27:32Z</time>
<desc>lat.=55.975357, lon.=26.549011, Alt.=89.112366m. Speed=0.180000m/h.</desc>
<speed>0.050000</speed>
</trkpt>
<trkpt lat="55.975357" lon="26.549011">
<ele>89.086975</ele>
<time>2010-06-20T08:27:33Z</time>
<desc>lat.=55.975357, lon.=26.549011, Alt.=89.086975m. Speed=0.108000m/h.</desc>
<speed>0.030000</speed>
</trkpt>
<trkpt lat="55.975357" lon="26.549011">
<ele>89.063538</ele>
<time>2010-06-20T08:27:34Z</time>
<desc>lat.=55.975357, lon.=26.549011, Alt.=89.063538m. Speed=0.396000m/h.</desc>
<speed>0.110000</speed>
</trkpt>
<trkpt lat="55.975357" lon="26.549009">
<ele>89.040100</ele>
<time>2010-06-20T08:27:35Z</time>
<desc>lat.=55.975357, lon.=26.549009, Alt.=89.040100m. Speed=0.504000m/h.</desc>
<speed>0.140000</speed>
</trkpt>
<trkpt lat="55.975361" lon="26.549009">
<ele>89.032288</ele>
<time>2010-06-20T08:27:36Z</time>
<desc>lat.=55.975361, lon.=26.549009, Alt.=89.032288m. Speed=0.000000m/h.</desc>
<speed>0.000000</speed>
</trkpt>
<trkpt lat="55.975361" lon="26.549009">
<ele>89.020569</ele>
<time>2010-06-20T08:27:37Z</time>
<desc>lat.=55.975361, lon.=26.549009, Alt.=89.020569m. Speed=0.108000m/h.</desc>
<speed>0.030000</speed>
</trkpt>
<trkpt lat="55.975361" lon="26.549009">
<ele>89.006897</ele>
<time>2010-06-20T08:27:38Z</time>
<desc>lat.=55.975361, lon.=26.549009, Alt.=89.006897m. Speed=0.324000m/h.</desc>
<speed>0.090000</speed>
</trkpt>
<trkpt lat="55.975361" lon="26.549011">
<ele>88.985413</ele>
<time>2010-06-20T08:27:39Z</time>
<desc>lat.=55.975361, lon.=26.549011, Alt.=88.985413m. Speed=0.252000m/h.</desc>
<speed>0.070000</speed>
</trkpt>
<trkpt lat="55.975361" lon="26.549011">
<ele>88.958069</ele>
<time>2010-06-20T08:27:40Z</time>
<desc>lat.=55.975361, lon.=26.549011, Alt.=88.958069m. Speed=0.108000m/h.</desc>
<speed>0.030000</speed>
</trkpt>
<trkpt lat="55.975361" lon="26.549011">
<ele>88.936584</ele>
<time>2010-06-20T08:27:41Z</time>
<desc>lat.=55.975361, lon.=26.549011, Alt.=88.936584m. Speed=0.360000m/h.</desc>
<speed>0.100000</speed>
</trkpt>
<trkpt lat="55.975361" lon="26.549013">
<ele>88.901428</ele>
<time>2010-06-20T08:27:42Z</time>
<desc>lat.=55.975361, lon.=26.549013, Alt.=88.901428m. Speed=0.432000m/h.</desc>
<speed>0.120000</speed>
</trkpt>
<trkpt lat="55.975357" lon="26.549015">
<ele>88.862366</ele>
<time>2010-06-20T08:27:43Z</time>
<desc>lat.=55.975357, lon.=26.549015, Alt.=88.862366m. Speed=0.144000m/h.</desc>
<speed>0.040000</speed>
</trkpt>
<trkpt lat="55.975361" lon="26.549015">
<ele>88.829163</ele>
<time>2010-06-20T08:27:44Z</time>
<desc>lat.=55.975361, lon.=26.549015, Alt.=88.829163m. Speed=0.144000m/h.</desc>
<speed>0.040000</speed>
</trkpt>
<trkpt lat="55.975357" lon="26.549015">
<ele>88.790100</ele>
<time>2010-06-20T08:27:45Z</time>
<desc>lat.=55.975357, lon.=26.549015, Alt.=88.790100m. Speed=0.360000m/h.</desc>
<speed>0.100000</speed>
</trkpt>
<trkpt lat="55.975357" lon="26.549017">
<ele>88.749084</ele>
<time>2010-06-20T08:27:46Z</time>
<desc>lat.=55.975357, lon.=26.549017, Alt.=88.749084m. Speed=0.180000m/h.</desc>
<speed>0.050000</speed>
</trkpt>
<trkpt lat="55.975361" lon="26.549017">
<ele>88.696350</ele>
<time>2010-06-20T08:27:47Z</time>
<desc>lat.=55.975361, lon.=26.549017, Alt.=88.696350m. Speed=0.180000m/h.</desc>
<speed>0.050000</speed>
</trkpt>
<trkpt lat="55.975361" lon="26.549017">
<ele>88.645569</ele>
<time>2010-06-20T08:27:48Z</time>
<desc>lat.=55.975361, lon.=26.549017, Alt.=88.645569m. Speed=0.252000m/h.</desc>
<speed>0.070000</speed>
</trkpt>
<trkpt lat="55.975361" lon="26.549017">
<ele>88.598694</ele>
<time>2010-06-20T08:27:49Z</time>
<desc>lat.=55.975361, lon.=26.549017, Alt.=88.598694m. Speed=0.252000m/h.</desc>
<speed>0.070000</speed>
</trkpt>
<trkpt lat="55.975361" lon="26.549017">
<ele>88.549866</ele>
<time>2010-06-20T08:27:50Z</time>
<desc>lat.=55.975361, lon.=26.549017, Alt.=88.549866m. Speed=0.144000m/h.</desc>
<speed>0.040000</speed>
</trkpt>
<trkpt lat="55.975361" lon="26.549017">
<ele>88.512756</ele>
<time>2010-06-20T08:27:51Z</time>
<desc>lat.=55.975361, lon.=26.549017, Alt.=88.512756m. Speed=0.072000m/h.</desc>
<speed>0.020000</speed>
</trkpt>
<trkpt lat="55.975361" lon="26.549017">
<ele>88.471741</ele>
<time>2010-06-20T08:27:52Z</time>
<desc>lat.=55.975361, lon.=26.549017, Alt.=88.471741m. Speed=0.252000m/h.</desc>
<speed>0.070000</speed>
</trkpt>
<trkpt lat="55.975361" lon="26.549017">
<ele>88.440491</ele>
<time>2010-06-20T08:27:53Z</time>
<desc>lat.=55.975361, lon.=26.549017, Alt.=88.440491m. Speed=0.108000m/h.</desc>
<speed>0.030000</speed>
</trkpt>
<trkpt lat="55.975361" lon="26.549019">
<ele>88.399475</ele>
<time>2010-06-20T08:27:54Z</time>
<desc>lat.=55.975361, lon.=26.549019, Alt.=88.399475m. Speed=0.144000m/h.</desc>
<speed>0.040000</speed>
</trkpt>
<trkpt lat="55.975361" lon="26.549019">
<ele>88.383850</ele>
<time>2010-06-20T08:27:55Z</time>
<desc>lat.=55.975361, lon.=26.549019, Alt.=88.383850m. Speed=0.360000m/h.</desc>
<speed>0.100000</speed>
</trkpt>
<trkpt lat="55.975361" lon="26.549019">
<ele>88.360413</ele>
<time>2010-06-20T08:27:56Z</time>
<desc>lat.=55.975361, lon.=26.549019, Alt.=88.360413m. Speed=0.144000m/h.</desc>
<speed>0.040000</speed>
</trkpt>
<trkpt lat="55.975361" lon="26.549019">
<ele>88.358459</ele>
<time>2010-06-20T08:27:57Z</time>
<desc>lat.=55.975361, lon.=26.549019, Alt.=88.358459m. Speed=0.036000m/h.</desc>
<speed>0.010000</speed>
</trkpt>
<trkpt lat="55.975361" lon="26.549019">
<ele>88.354553</ele>
<time>2010-06-20T08:27:58Z</time>
<desc>lat.=55.975361, lon.=26.549019, Alt.=88.354553m. Speed=0.180000m/h.</desc>
<speed>0.050000</speed>
</trkpt>
<trkpt lat="55.975361" lon="26.549019">
<ele>88.352600</ele>
<time>2010-06-20T08:27:59Z</time>
<desc>lat.=55.975361, lon.=26.549019, Alt.=88.352600m. Speed=0.180000m/h.</desc>
<speed>0.050000</speed>
</trkpt>
<trkpt lat="55.975361" lon="26.549019">
<ele>88.354553</ele>
<time>2010-06-20T08:28:00Z</time>
<desc>lat.=55.975361, lon.=26.549019, Alt.=88.354553m. Speed=0.216000m/h.</desc>
<speed>0.060000</speed>
</trkpt>
<trkpt lat="55.975361" lon="26.549019">
<ele>88.352600</ele>
<time>2010-06-20T08:28:01Z</time>
<desc>lat.=55.975361, lon.=26.549019, Alt.=88.352600m. Speed=0.324000m/h.</desc>
<speed>0.090000</speed>
</trkpt>
<trkpt lat="55.975361" lon="26.549019">
<ele>88.348694</ele>
<time>2010-06-20T08:28:02Z</time>
<desc>lat.=55.975361, lon.=26.549019, Alt.=88.348694m. Speed=0.216000m/h.</desc>
<speed>0.060000</speed>
</trkpt>
<trkpt lat="55.975361" lon="26.549019">
<ele>88.352600</ele>
<time>2010-06-20T08:28:03Z</time>
<desc>lat.=55.975361, lon.=26.549019, Alt.=88.352600m. Speed=0.036000m/h.</desc>
<speed>0.010000</speed>
</trkpt>
<trkpt lat="55.975361" lon="26.549019">
<ele>88.350647</ele>
<time>2010-06-20T08:28:04Z</time>
<desc>lat.=55.975361, lon.=26.549019, Alt.=88.350647m. Speed=0.144000m/h.</desc>
<speed>0.040000</speed>
</trkpt>
<trkpt lat="55.975365" lon="26.549019">
<ele>88.352600</ele>
<time>2010-06-20T08:28:05Z</time>
<desc>lat.=55.975365, lon.=26.549019, Alt.=88.352600m. Speed=0.144000m/h.</desc>
<speed>0.040000</speed>
</trkpt>
<trkpt lat="55.975365" lon="26.549019">
<ele>88.352600</ele>
<time>2010-06-20T08:28:06Z</time>
<desc>lat.=55.975365, lon.=26.549019, Alt.=88.352600m. Speed=0.108000m/h.</desc>
<speed>0.030000</speed>
</trkpt>
<trkpt lat="55.975365" lon="26.549019">
<ele>88.358459</ele>
<time>2010-06-20T08:28:07Z</time>
<desc>lat.=55.975365, lon.=26.549019, Alt.=88.358459m. Speed=0.180000m/h.</desc>
<speed>0.050000</speed>
</trkpt>
<trkpt lat="55.975365" lon="26.549019">
<ele>88.364319</ele>
<time>2010-06-20T08:28:08Z</time>
<desc>lat.=55.975365, lon.=26.549019, Alt.=88.364319m. Speed=0.108000m/h.</desc>
<speed>0.030000</speed>
</trkpt>
<trkpt lat="55.975365" lon="26.549017">
<ele>88.370178</ele>
<time>2010-06-20T08:28:09Z</time>
<desc>lat.=55.975365, lon.=26.549017, Alt.=88.370178m. Speed=0.036000m/h.</desc>
<speed>0.010000</speed>
</trkpt>
<trkpt lat="55.975365" lon="26.549017">
<ele>88.374084</ele>
<time>2010-06-20T08:28:10Z</time>
<desc>lat.=55.975365, lon.=26.549017, Alt.=88.374084m. Speed=0.036000m/h.</desc>
<speed>0.010000</speed>
</trkpt>
<trkpt lat="55.975365" lon="26.549017">
<ele>88.374084</ele>
<time>2010-06-20T08:28:11Z</time>
<desc>lat.=55.975365, lon.=26.549017, Alt.=88.374084m. Speed=0.000000m/h.</desc>
<speed>0.000000</speed>
</trkpt>
<trkpt lat="55.975365" lon="26.549017">
<ele>88.372131</ele>
<time>2010-06-20T08:28:12Z</time>
<desc>lat.=55.975365, lon.=26.549017, Alt.=88.372131m. Speed=0.036000m/h.</desc>
<speed>0.010000</speed>
</trkpt>
<trkpt lat="55.975365" lon="26.549017">
<ele>88.374084</ele>
<time>2010-06-20T08:28:13Z</time>
<desc>lat.=55.975365, lon.=26.549017, Alt.=88.374084m. Speed=0.036000m/h.</desc>
<speed>0.010000</speed>
</trkpt>
<trkpt lat="55.975365" lon="26.549017">
<ele>88.374084</ele>
<time>2010-06-20T08:28:14Z</time>
<desc>lat.=55.975365, lon.=26.549017, Alt.=88.374084m. Speed=0.000000m/h.</desc>
<speed>0.000000</speed>
</trkpt>
<trkpt lat="55.975365" lon="26.549017">
<ele>88.374084</ele>
<time>2010-06-20T08:28:15Z</time>
<desc>lat.=55.975365, lon.=26.549017, Alt.=88.374084m. Speed=0.000000m/h.</desc>
<speed>0.000000</speed>
</trkpt>
<trkpt lat="55.975365" lon="26.549017">
<ele>88.370178</ele>
<time>2010-06-20T08:28:16Z</time>
<desc>lat.=55.975365, lon.=26.549017, Alt.=88.370178m. Speed=0.072000m/h.</desc>
<speed>0.020000</speed>
</trkpt>
<trkpt lat="55.975365" lon="26.549017">
<ele>88.364319</ele>
<time>2010-06-20T08:28:17Z</time>
<desc>lat.=55.975365, lon.=26.549017, Alt.=88.364319m. Speed=0.036000m/h.</desc>
<speed>0.010000</speed>
</trkpt>
<trkpt lat="55.975365" lon="26.549017">
<ele>88.356506</ele>
<time>2010-06-20T08:28:18Z</time>
<desc>lat.=55.975365, lon.=26.549017, Alt.=88.356506m. Speed=0.072000m/h.</desc>
<speed>0.020000</speed>
</trkpt>
<trkpt lat="55.975365" lon="26.549017">
<ele>88.352600</ele>
<time>2010-06-20T08:28:19Z</time>
<desc>lat.=55.975365, lon.=26.549017, Alt.=88.352600m. Speed=0.036000m/h.</desc>
<speed>0.010000</speed>
</trkpt>
<trkpt lat="55.975365" lon="26.549017">
<ele>88.356506</ele>
<time>2010-06-20T08:28:20Z</time>
<desc>lat.=55.975365, lon.=26.549017, Alt.=88.356506m. Speed=0.000000m/h.</desc>
<speed>0.000000</speed>
</trkpt>
<trkpt lat="55.975365" lon="26.549017">
<ele>88.360413</ele>
<time>2010-06-20T08:28:21Z</time>
<desc>lat.=55.975365, lon.=26.549017, Alt.=88.360413m. Speed=0.000000m/h.</desc>
<speed>0.000000</speed>
</trkpt>
<trkpt lat="55.975365" lon="26.549017">
<ele>88.368225</ele>
<time>2010-06-20T08:28:22Z</time>
<desc>lat.=55.975365, lon.=26.549017, Alt.=88.368225m. Speed=0.072000m/h.</desc>
<speed>0.020000</speed>
</trkpt>
<trkpt lat="55.975365" lon="26.549017">
<ele>88.370178</ele>
<time>2010-06-20T08:28:23Z</time>
<desc>lat.=55.975365, lon.=26.549017, Alt.=88.370178m. Speed=0.036000m/h.</desc>
<speed>0.010000</speed>
</trkpt>
<trkpt lat="55.975365" lon="26.549017">
<ele>88.372131</ele>
<time>2010-06-20T08:28:24Z</time>
<desc>lat.=55.975365, lon.=26.549017, Alt.=88.372131m. Speed=0.324000m/h.</desc>
<speed>0.090000</speed>
</trkpt>
<trkpt lat="55.975365" lon="26.549017">
<ele>88.376038</ele>
<time>2010-06-20T08:28:25Z</time>
<desc>lat.=55.975365, lon.=26.549017, Alt.=88.376038m. Speed=0.108000m/h.</desc>
<speed>0.030000</speed>
</trkpt>
<trkpt lat="55.975365" lon="26.549017">
<ele>88.374084</ele>
<time>2010-06-20T08:28:26Z</time>
<desc>lat.=55.975365, lon.=26.549017, Alt.=88.374084m. Speed=0.000000m/h.</desc>
<speed>0.000000</speed>
</trkpt>
<trkpt lat="55.975365" lon="26.549017">
<ele>88.376038</ele>
<time>2010-06-20T08:28:27Z</time>
<desc>lat.=55.975365, lon.=26.549017, Alt.=88.376038m. Speed=0.000000m/h.</desc>
<speed>0.000000</speed>
</trkpt>
<trkpt lat="55.975365" lon="26.549017">
<ele>88.379944</ele>
<time>2010-06-20T08:28:28Z</time>
<desc>lat.=55.975365, lon.=26.549017, Alt.=88.379944m. Speed=0.000000m/h.</desc>
<speed>0.000000</speed>
</trkpt>
<trkpt lat="55.975365" lon="26.549017">
<ele>88.381897</ele>
<time>2010-06-20T08:28:29Z</time>
<desc>lat.=55.975365, lon.=26.549017, Alt.=88.381897m. Speed=0.072000m/h.</desc>
<speed>0.020000</speed>
</trkpt>
<trkpt lat="55.975365" lon="26.549017">
<ele>88.376038</ele>
<time>2010-06-20T08:28:30Z</time>
<desc>lat.=55.975365, lon.=26.549017, Alt.=88.376038m. Speed=0.072000m/h.</desc>
<speed>0.020000</speed>
</trkpt>
<trkpt lat="55.975365" lon="26.549017">
<ele>88.368225</ele>
<time>2010-06-20T08:28:31Z</time>
<desc>lat.=55.975365, lon.=26.549017, Alt.=88.368225m. Speed=0.108000m/h.</desc>
<speed>0.030000</speed>
</trkpt>
<trkpt lat="55.975365" lon="26.549017">
<ele>88.360413</ele>
<time>2010-06-20T08:28:32Z</time>
<desc>lat.=55.975365, lon.=26.549017, Alt.=88.360413m. Speed=0.180000m/h.</desc>
<speed>0.050000</speed>
</trkpt>
<trkpt lat="55.975365" lon="26.549017">
<ele>88.352600</ele>
<time>2010-06-20T08:28:33Z</time>
<desc>lat.=55.975365, lon.=26.549017, Alt.=88.352600m. Speed=0.216000m/h.</desc>
<speed>0.060000</speed>
</trkpt>
<trkpt lat="55.975365" lon="26.549017">
<ele>88.346741</ele>
<time>2010-06-20T08:28:34Z</time>
<desc>lat.=55.975365, lon.=26.549017, Alt.=88.346741m. Speed=0.684000m/h.</desc>
<speed>0.190000</speed>
</trkpt>
<trkpt lat="55.975368" lon="26.549015">
<ele>88.321350</ele>
<time>2010-06-20T08:28:35Z</time>
<desc>lat.=55.975368, lon.=26.549015, Alt.=88.321350m. Speed=1.080000m/h.</desc>
<speed>0.300000</speed>
</trkpt>
<trkpt lat="55.975368" lon="26.549013">
<ele>88.280334</ele>
<time>2010-06-20T08:28:36Z</time>
<desc>lat.=55.975368, lon.=26.549013, Alt.=88.280334m. Speed=1.368000m/h.</desc>
<speed>0.380000</speed>
</trkpt>
<trkpt lat="55.975372" lon="26.549011">
<ele>88.217834</ele>
<time>2010-06-20T08:28:37Z</time>
<desc>lat.=55.975372, lon.=26.549011, Alt.=88.217834m. Speed=4.680000m/h.</desc>
<speed>1.300000</speed>
</trkpt>
<trkpt lat="55.975388" lon="26.549025">
<ele>87.792053</ele>
<time>2010-06-20T08:28:38Z</time>
<desc>lat.=55.975388, lon.=26.549025, Alt.=87.792053m. Speed=4.032000m/h.</desc>
<speed>1.120000</speed>
</trkpt>
<trkpt lat="55.975399" lon="26.549036">
<ele>87.649475</ele>
<time>2010-06-20T08:28:39Z</time>
<desc>lat.=55.975399, lon.=26.549036, Alt.=87.649475m. Speed=4.212000m/h.</desc>
<speed>1.170000</speed>
</trkpt>
<trkpt lat="55.975418" lon="26.549042">
<ele>87.637756</ele>
<time>2010-06-20T08:28:40Z</time>
<desc>lat.=55.975418, lon.=26.549042, Alt.=87.637756m. Speed=3.924000m/h.</desc>
<speed>1.090000</speed>
</trkpt>
<trkpt lat="55.975437" lon="26.549061">
<ele>87.381897</ele>
<time>2010-06-20T08:28:41Z</time>
<desc>lat.=55.975437, lon.=26.549061, Alt.=87.381897m. Speed=2.700000m/h.</desc>
<speed>0.750000</speed>
</trkpt>
<trkpt lat="55.975449" lon="26.549068">
<ele>86.342834</ele>
<time>2010-06-20T08:28:42Z</time>
<desc>lat.=55.975449, lon.=26.549068, Alt.=86.342834m. Speed=1.260000m/h.</desc>
<speed>0.350000</speed>
</trkpt>
<trkpt lat="55.975456" lon="26.549070">
<ele>86.133850</ele>
<time>2010-06-20T08:28:43Z</time>
<desc>lat.=55.975456, lon.=26.549070, Alt.=86.133850m. Speed=0.900000m/h.</desc>
<speed>0.250000</speed>
</trkpt>
<trkpt lat="55.975464" lon="26.549074">
<ele>86.163147</ele>
<time>2010-06-20T08:28:44Z</time>
<desc>lat.=55.975464, lon.=26.549074, Alt.=86.163147m. Speed=1.332000m/h.</desc>
<speed>0.370000</speed>
</trkpt>
<trkpt lat="55.975456" lon="26.549099">
<ele>86.889709</ele>
<time>2010-06-20T08:28:45Z</time>
<desc>lat.=55.975456, lon.=26.549099, Alt.=86.889709m. Speed=1.224000m/h.</desc>
<speed>0.340000</speed>
</trkpt>
<trkpt lat="55.975475" lon="26.549122">
<ele>86.508850</ele>
<time>2010-06-20T08:28:46Z</time>
<desc>lat.=55.975475, lon.=26.549122, Alt.=86.508850m. Speed=3.240000m/h.</desc>
<speed>0.900000</speed>
</trkpt>
<trkpt lat="55.975487" lon="26.549139">
<ele>86.309631</ele>
<time>2010-06-20T08:28:47Z</time>
<desc>lat.=55.975487, lon.=26.549139, Alt.=86.309631m. Speed=3.240000m/h.</desc>
<speed>0.900000</speed>
</trkpt>
<trkpt lat="55.975502" lon="26.549150">
<ele>86.745178</ele>
<time>2010-06-20T08:28:48Z</time>
<desc>lat.=55.975502, lon.=26.549150, Alt.=86.745178m. Speed=2.988000m/h.</desc>
<speed>0.830000</speed>
</trkpt>
<trkpt lat="55.975517" lon="26.549164">
<ele>86.663147</ele>
<time>2010-06-20T08:28:49Z</time>
<desc>lat.=55.975517, lon.=26.549164, Alt.=86.663147m. Speed=2.880000m/h.</desc>
<speed>0.800000</speed>
</trkpt>
<trkpt lat="55.975533" lon="26.549177">
<ele>86.751038</ele>
<time>2010-06-20T08:28:50Z</time>
<desc>lat.=55.975533, lon.=26.549177, Alt.=86.751038m. Speed=3.708000m/h.</desc>
<speed>1.030000</speed>
</trkpt>
<trkpt lat="55.975548" lon="26.549191">
<ele>86.752991</ele>
<time>2010-06-20T08:28:51Z</time>
<desc>lat.=55.975548, lon.=26.549191, Alt.=86.752991m. Speed=5.076000m/h.</desc>
<speed>1.410000</speed>
</trkpt>
<trkpt lat="55.975567" lon="26.549202">
<ele>86.553772</ele>
<time>2010-06-20T08:28:52Z</time>
<desc>lat.=55.975567, lon.=26.549202, Alt.=86.553772m. Speed=6.552000m/h.</desc>
<speed>1.820000</speed>
</trkpt>
<trkpt lat="55.975590" lon="26.549212">
<ele>86.518616</ele>
<time>2010-06-20T08:28:53Z</time>
<desc>lat.=55.975590, lon.=26.549212, Alt.=86.518616m. Speed=5.940000m/h.</desc>
<speed>1.650000</speed>
</trkpt>
<trkpt lat="55.975616" lon="26.549234">
<ele>86.407288</ele>
<time>2010-06-20T08:28:54Z</time>
<desc>lat.=55.975616, lon.=26.549234, Alt.=86.407288m. Speed=6.120000m/h.</desc>
<speed>1.700000</speed>
</trkpt>
<trkpt lat="55.975636" lon="26.549252">
<ele>86.444397</ele>
<time>2010-06-20T08:28:55Z</time>
<desc>lat.=55.975636, lon.=26.549252, Alt.=86.444397m. Speed=6.336000m/h.</desc>
<speed>1.760000</speed>
</trkpt>
<trkpt lat="55.975655" lon="26.549269">
<ele>86.522522</ele>
<time>2010-06-20T08:28:56Z</time>
<desc>lat.=55.975655, lon.=26.549269, Alt.=86.522522m. Speed=6.768000m/h.</desc>
<speed>1.880000</speed>
</trkpt>
<trkpt lat="55.975674" lon="26.549282">
<ele>86.674866</ele>
<time>2010-06-20T08:28:57Z</time>
<desc>lat.=55.975674, lon.=26.549282, Alt.=86.674866m. Speed=6.264000m/h.</desc>
<speed>1.740000</speed>
</trkpt>
<trkpt lat="55.975685" lon="26.549299">
<ele>87.290100</ele>
<time>2010-06-20T08:28:58Z</time>
<desc>lat.=55.975685, lon.=26.549299, Alt.=87.290100m. Speed=6.012000m/h.</desc>
<speed>1.670000</speed>
</trkpt>
<trkpt lat="55.975708" lon="26.549309">
<ele>87.526428</ele>
<time>2010-06-20T08:28:59Z</time>
<desc>lat.=55.975708, lon.=26.549309, Alt.=87.526428m. Speed=4.860000m/h.</desc>
<speed>1.350000</speed>
</trkpt>
<trkpt lat="55.975731" lon="26.549320">
<ele>87.663147</ele>
<time>2010-06-20T08:29:00Z</time>
<desc>lat.=55.975731, lon.=26.549320, Alt.=87.663147m. Speed=6.516000m/h.</desc>
<speed>1.810000</speed>
</trkpt>
<trkpt lat="55.975754" lon="26.549337">
<ele>87.866272</ele>
<time>2010-06-20T08:29:01Z</time>
<desc>lat.=55.975754, lon.=26.549337, Alt.=87.866272m. Speed=6.408000m/h.</desc>
<speed>1.780000</speed>
</trkpt>
<trkpt lat="55.975780" lon="26.549362">
<ele>88.157288</ele>
<time>2010-06-20T08:29:02Z</time>
<desc>lat.=55.975780, lon.=26.549362, Alt.=88.157288m. Speed=7.740000m/h.</desc>
<speed>2.150000</speed>
</trkpt>
<trkpt lat="55.975792" lon="26.549395">
<ele>88.112366</ele>
<time>2010-06-20T08:29:03Z</time>
<desc>lat.=55.975792, lon.=26.549395, Alt.=88.112366m. Speed=3.744000m/h.</desc>
<speed>1.040000</speed>
</trkpt>
<trkpt lat="55.975800" lon="26.549419">
<ele>87.934631</ele>
<time>2010-06-20T08:29:04Z</time>
<desc>lat.=55.975800, lon.=26.549419, Alt.=87.934631m. Speed=3.600000m/h.</desc>
<speed>1.000000</speed>
</trkpt>
<trkpt lat="55.975807" lon="26.549435">
<ele>88.303772</ele>
<time>2010-06-20T08:29:05Z</time>
<desc>lat.=55.975807, lon.=26.549435, Alt.=88.303772m. Speed=5.184000m/h.</desc>
<speed>1.440000</speed>
</trkpt>
<trkpt lat="55.975819" lon="26.549440">
<ele>88.487366</ele>
<time>2010-06-20T08:29:06Z</time>
<desc>lat.=55.975819, lon.=26.549440, Alt.=88.487366m. Speed=5.040000m/h.</desc>
<speed>1.400000</speed>
</trkpt>
<trkpt lat="55.975826" lon="26.549469">
<ele>88.801819</ele>
<time>2010-06-20T08:29:07Z</time>
<desc>lat.=55.975826, lon.=26.549469, Alt.=88.801819m. Speed=7.488000m/h.</desc>
<speed>2.080000</speed>
</trkpt>
<trkpt lat="55.975842" lon="26.549496">
<ele>89.200256</ele>
<time>2010-06-20T08:29:08Z</time>
<desc>lat.=55.975842, lon.=26.549496, Alt.=89.200256m. Speed=4.788000m/h.</desc>
<speed>1.330000</speed>
</trkpt>
<trkpt lat="55.975853" lon="26.549519">
<ele>89.674866</ele>
<time>2010-06-20T08:29:09Z</time>
<desc>lat.=55.975853, lon.=26.549519, Alt.=89.674866m. Speed=4.824000m/h.</desc>
<speed>1.340000</speed>
</trkpt>
<trkpt lat="55.975868" lon="26.549530">
<ele>89.788147</ele>
<time>2010-06-20T08:29:10Z</time>
<desc>lat.=55.975868, lon.=26.549530, Alt.=89.788147m. Speed=4.068000m/h.</desc>
<speed>1.130000</speed>
</trkpt>
<trkpt lat="55.975880" lon="26.549538">
<ele>89.772522</ele>
<time>2010-06-20T08:29:11Z</time>
<desc>lat.=55.975880, lon.=26.549538, Alt.=89.772522m. Speed=4.500000m/h.</desc>
<speed>1.250000</speed>
</trkpt>
<trkpt lat="55.975887" lon="26.549562">
<ele>89.790100</ele>
<time>2010-06-20T08:29:12Z</time>
<desc>lat.=55.975887, lon.=26.549562, Alt.=89.790100m. Speed=4.932000m/h.</desc>
<speed>1.370000</speed>
</trkpt>
<trkpt lat="55.975906" lon="26.549583">
<ele>89.995178</ele>
<time>2010-06-20T08:29:13Z</time>
<desc>lat.=55.975906, lon.=26.549583, Alt.=89.995178m. Speed=4.464000m/h.</desc>
<speed>1.240000</speed>
</trkpt>
<trkpt lat="55.975922" lon="26.549593">
<ele>90.131897</ele>
<time>2010-06-20T08:29:14Z</time>
<desc>lat.=55.975922, lon.=26.549593, Alt.=90.131897m. Speed=4.572000m/h.</desc>
<speed>1.270000</speed>
</trkpt>
<trkpt lat="55.975952" lon="26.549618">
<ele>90.776428</ele>
<time>2010-06-20T08:29:15Z</time>
<desc>lat.=55.975952, lon.=26.549618, Alt.=90.776428m. Speed=5.796000m/h.</desc>
<speed>1.610000</speed>
</trkpt>
<trkpt lat="55.975964" lon="26.549644">
<ele>90.770569</ele>
<time>2010-06-20T08:29:16Z</time>
<desc>lat.=55.975964, lon.=26.549644, Alt.=90.770569m. Speed=3.528000m/h.</desc>
<speed>0.980000</speed>
</trkpt>
<trkpt lat="55.975983" lon="26.549664">
<ele>90.821350</ele>
<time>2010-06-20T08:29:17Z</time>
<desc>lat.=55.975983, lon.=26.549664, Alt.=90.821350m. Speed=7.020000m/h.</desc>
<speed>1.950000</speed>
</trkpt>
<trkpt lat="55.976009" lon="26.549690">
<ele>90.157288</ele>
<time>2010-06-20T08:29:18Z</time>
<desc>lat.=55.976009, lon.=26.549690, Alt.=90.157288m. Speed=5.292000m/h.</desc>
<speed>1.470000</speed>
</trkpt>
<trkpt lat="55.976055" lon="26.549719">
<ele>90.145569</ele>
<time>2010-06-20T08:29:19Z</time>
<desc>lat.=55.976055, lon.=26.549719, Alt.=90.145569m. Speed=7.920000m/h.</desc>
<speed>2.200000</speed>
</trkpt>
<trkpt lat="55.976082" lon="26.549734">
<ele>90.063538</ele>
<time>2010-06-20T08:29:20Z</time>
<desc>lat.=55.976082, lon.=26.549734, Alt.=90.063538m. Speed=7.236000m/h.</desc>
<speed>2.010000</speed>
</trkpt>
<trkpt lat="55.976112" lon="26.549753">
<ele>89.776428</ele>
<time>2010-06-20T08:29:21Z</time>
<desc>lat.=55.976112, lon.=26.549753, Alt.=89.776428m. Speed=8.208000m/h.</desc>
<speed>2.280000</speed>
</trkpt>
<trkpt lat="55.976143" lon="26.549772">
<ele>89.534241</ele>
<time>2010-06-20T08:29:22Z</time>
<desc>lat.=55.976143, lon.=26.549772, Alt.=89.534241m. Speed=7.596000m/h.</desc>
<speed>2.110000</speed>
</trkpt>
<trkpt lat="55.976177" lon="26.549784">
<ele>89.370178</ele>
<time>2010-06-20T08:29:23Z</time>
<desc>lat.=55.976177, lon.=26.549784, Alt.=89.370178m. Speed=8.352000m/h.</desc>
<speed>2.320000</speed>
</trkpt>
<trkpt lat="55.976204" lon="26.549793">
<ele>88.686584</ele>
<time>2010-06-20T08:29:24Z</time>
<desc>lat.=55.976204, lon.=26.549793, Alt.=88.686584m. Speed=7.812000m/h.</desc>
<speed>2.170000</speed>
</trkpt>
<trkpt lat="55.976234" lon="26.549807">
<ele>89.665100</ele>
<time>2010-06-20T08:29:25Z</time>
<desc>lat.=55.976234, lon.=26.549807, Alt.=89.665100m. Speed=9.468000m/h.</desc>
<speed>2.630000</speed>
</trkpt>
<trkpt lat="55.976265" lon="26.549814">
<ele>90.102600</ele>
<time>2010-06-20T08:29:26Z</time>
<desc>lat.=55.976265, lon.=26.549814, Alt.=90.102600m. Speed=9.180000m/h.</desc>
<speed>2.550000</speed>
</trkpt>
<trkpt lat="55.976288" lon="26.549826">
<ele>90.317444</ele>
<time>2010-06-20T08:29:27Z</time>
<desc>lat.=55.976288, lon.=26.549826, Alt.=90.317444m. Speed=9.900000m/h.</desc>
<speed>2.750000</speed>
</trkpt>
<trkpt lat="55.976318" lon="26.549833">
<ele>90.118225</ele>
<time>2010-06-20T08:29:28Z</time>
<desc>lat.=55.976318, lon.=26.549833, Alt.=90.118225m. Speed=9.540000m/h.</desc>
<speed>2.650000</speed>
</trkpt>
<trkpt lat="55.976341" lon="26.549845">
<ele>89.874084</ele>
<time>2010-06-20T08:29:29Z</time>
<desc>lat.=55.976341, lon.=26.549845, Alt.=89.874084m. Speed=8.316000m/h.</desc>
<speed>2.310000</speed>
</trkpt>
<trkpt lat="55.976368" lon="26.549854">
<ele>89.827209</ele>
<time>2010-06-20T08:29:30Z</time>
<desc>lat.=55.976368, lon.=26.549854, Alt.=89.827209m. Speed=7.740000m/h.</desc>
<speed>2.150000</speed>
</trkpt>
<trkpt lat="55.976387" lon="26.549868">
<ele>89.758850</ele>
<time>2010-06-20T08:29:31Z</time>
<desc>lat.=55.976387, lon.=26.549868, Alt.=89.758850m. Speed=6.120000m/h.</desc>
<speed>1.700000</speed>
</trkpt>
<trkpt lat="55.976406" lon="26.549887">
<ele>89.419006</ele>
<time>2010-06-20T08:29:32Z</time>
<desc>lat.=55.976406, lon.=26.549887, Alt.=89.419006m. Speed=7.488000m/h.</desc>
<speed>2.080000</speed>
</trkpt>
<trkpt lat="55.976425" lon="26.549917">
<ele>89.336975</ele>
<time>2010-06-20T08:29:33Z</time>
<desc>lat.=55.976425, lon.=26.549917, Alt.=89.336975m. Speed=7.992000m/h.</desc>
<speed>2.220000</speed>
</trkpt>
<trkpt lat="55.976452" lon="26.549946">
<ele>87.645569</ele>
<time>2010-06-20T08:29:34Z</time>
<desc>lat.=55.976452, lon.=26.549946, Alt.=87.645569m. Speed=8.820000m/h.</desc>
<speed>2.450000</speed>
</trkpt>
<trkpt lat="55.976475" lon="26.549961">
<ele>86.760803</ele>
<time>2010-06-20T08:29:35Z</time>
<desc>lat.=55.976475, lon.=26.549961, Alt.=86.760803m. Speed=10.116000m/h.</desc>
<speed>2.810000</speed>
</trkpt>
<trkpt lat="55.976498" lon="26.549980">
<ele>86.774475</ele>
<time>2010-06-20T08:29:36Z</time>
<desc>lat.=55.976498, lon.=26.549980, Alt.=86.774475m. Speed=8.820000m/h.</desc>
<speed>2.450000</speed>
</trkpt>
<trkpt lat="55.976521" lon="26.549995">
<ele>86.553772</ele>
<time>2010-06-20T08:29:37Z</time>
<desc>lat.=55.976521, lon.=26.549995, Alt.=86.553772m. Speed=7.308000m/h.</desc>
<speed>2.030000</speed>
</trkpt>
<trkpt lat="55.976536" lon="26.550005">
<ele>86.477600</ele>
<time>2010-06-20T08:29:38Z</time>
<desc>lat.=55.976536, lon.=26.550005, Alt.=86.477600m. Speed=6.732000m/h.</desc>
<speed>1.870000</speed>
</trkpt>
<trkpt lat="55.976551" lon="26.550018">
<ele>86.913147</ele>
<time>2010-06-20T08:29:39Z</time>
<desc>lat.=55.976551, lon.=26.550018, Alt.=86.913147m. Speed=6.444000m/h.</desc>
<speed>1.790000</speed>
</trkpt>
<trkpt lat="55.976566" lon="26.550037">
<ele>88.174866</ele>
<time>2010-06-20T08:29:40Z</time>
<desc>lat.=55.976566, lon.=26.550037, Alt.=88.174866m. Speed=6.696000m/h.</desc>
<speed>1.860000</speed>
</trkpt>
<trkpt lat="55.976585" lon="26.550051">
<ele>88.440491</ele>
<time>2010-06-20T08:29:41Z</time>
<desc>lat.=55.976585, lon.=26.550051, Alt.=88.440491m. Speed=6.840000m/h.</desc>
<speed>1.900000</speed>
</trkpt>
<trkpt lat="55.976616" lon="26.550070">
<ele>89.077209</ele>
<time>2010-06-20T08:29:42Z</time>
<desc>lat.=55.976616, lon.=26.550070, Alt.=89.077209m. Speed=9.684000m/h.</desc>
<speed>2.690000</speed>
</trkpt>
<trkpt lat="55.976639" lon="26.550081">
<ele>89.149475</ele>
<time>2010-06-20T08:29:43Z</time>
<desc>lat.=55.976639, lon.=26.550081, Alt.=89.149475m. Speed=8.064000m/h.</desc>
<speed>2.240000</speed>
</trkpt>
<trkpt lat="55.976665" lon="26.550098">
<ele>89.149475</ele>
<time>2010-06-20T08:29:44Z</time>
<desc>lat.=55.976665, lon.=26.550098, Alt.=89.149475m. Speed=6.984000m/h.</desc>
<speed>1.940000</speed>
</trkpt>
<trkpt lat="55.976692" lon="26.550114">
<ele>88.991272</ele>
<time>2010-06-20T08:29:45Z</time>
<desc>lat.=55.976692, lon.=26.550114, Alt.=88.991272m. Speed=7.272000m/h.</desc>
<speed>2.020000</speed>
</trkpt>
<trkpt lat="55.976715" lon="26.550121">
<ele>88.743225</ele>
<time>2010-06-20T08:29:46Z</time>
<desc>lat.=55.976715, lon.=26.550121, Alt.=88.743225m. Speed=6.516000m/h.</desc>
<speed>1.810000</speed>
</trkpt>
<trkpt lat="55.976738" lon="26.550131">
<ele>88.616272</ele>
<time>2010-06-20T08:29:47Z</time>
<desc>lat.=55.976738, lon.=26.550131, Alt.=88.616272m. Speed=7.956000m/h.</desc>
<speed>2.210000</speed>
</trkpt>
<trkpt lat="55.976761" lon="26.550137">
<ele>88.487366</ele>
<time>2010-06-20T08:29:48Z</time>
<desc>lat.=55.976761, lon.=26.550137, Alt.=88.487366m. Speed=7.524000m/h.</desc>
<speed>2.090000</speed>
</trkpt>
<trkpt lat="55.976784" lon="26.550137">
<ele>88.829163</ele>
<time>2010-06-20T08:29:49Z</time>
<desc>lat.=55.976784, lon.=26.550137, Alt.=88.829163m. Speed=6.192000m/h.</desc>
<speed>1.720000</speed>
</trkpt>
<trkpt lat="55.976803" lon="26.550140">
<ele>87.624084</ele>
<time>2010-06-20T08:29:50Z</time>
<desc>lat.=55.976803, lon.=26.550140, Alt.=87.624084m. Speed=6.084000m/h.</desc>
<speed>1.690000</speed>
</trkpt>
<trkpt lat="55.976822" lon="26.550137">
<ele>87.235413</ele>
<time>2010-06-20T08:29:51Z</time>
<desc>lat.=55.976822, lon.=26.550137, Alt.=87.235413m. Speed=6.768000m/h.</desc>
<speed>1.880000</speed>
</trkpt>
<trkpt lat="55.976845" lon="26.550131">
<ele>88.194397</ele>
<time>2010-06-20T08:29:52Z</time>
<desc>lat.=55.976845, lon.=26.550131, Alt.=88.194397m. Speed=6.048000m/h.</desc>
<speed>1.680000</speed>
</trkpt>
<trkpt lat="55.976871" lon="26.550138">
<ele>88.434631</ele>
<time>2010-06-20T08:29:53Z</time>
<desc>lat.=55.976871, lon.=26.550138, Alt.=88.434631m. Speed=6.696000m/h.</desc>
<speed>1.860000</speed>
</trkpt>
<trkpt lat="55.976894" lon="26.550127">
<ele>87.670959</ele>
<time>2010-06-20T08:29:54Z</time>
<desc>lat.=55.976894, lon.=26.550127, Alt.=87.670959m. Speed=8.640000m/h.</desc>
<speed>2.400000</speed>
</trkpt>
<trkpt lat="55.976921" lon="26.550104">
<ele>87.266663</ele>
<time>2010-06-20T08:29:55Z</time>
<desc>lat.=55.976921, lon.=26.550104, Alt.=87.266663m. Speed=9.684000m/h.</desc>
<speed>2.690000</speed>
</trkpt>
<trkpt lat="55.976944" lon="26.550095">
<ele>86.327209</ele>
<time>2010-06-20T08:29:56Z</time>
<desc>lat.=55.976944, lon.=26.550095, Alt.=86.327209m. Speed=9.216000m/h.</desc>
<speed>2.560000</speed>
</trkpt>
<trkpt lat="55.976967" lon="26.550089">
<ele>85.274475</ele>
<time>2010-06-20T08:29:57Z</time>
<desc>lat.=55.976967, lon.=26.550089, Alt.=85.274475m. Speed=8.784000m/h.</desc>
<speed>2.440000</speed>
</trkpt>
<trkpt lat="55.976986" lon="26.550085">
<ele>85.161194</ele>
<time>2010-06-20T08:29:58Z</time>
<desc>lat.=55.976986, lon.=26.550085, Alt.=85.161194m. Speed=8.460000m/h.</desc>
<speed>2.350000</speed>
</trkpt>
<trkpt lat="55.977005" lon="26.550070">
<ele>84.532288</ele>
<time>2010-06-20T08:29:59Z</time>
<desc>lat.=55.977005, lon.=26.550070, Alt.=84.532288m. Speed=8.532000m/h.</desc>
<speed>2.370000</speed>
</trkpt>
<trkpt lat="55.977028" lon="26.550055">
<ele>84.407288</ele>
<time>2010-06-20T08:30:00Z</time>
<desc>lat.=55.977028, lon.=26.550055, Alt.=84.407288m. Speed=9.648000m/h.</desc>
<speed>2.680000</speed>
</trkpt>
<trkpt lat="55.977047" lon="26.550043">
<ele>83.952209</ele>
<time>2010-06-20T08:30:01Z</time>
<desc>lat.=55.977047, lon.=26.550043, Alt.=83.952209m. Speed=8.892000m/h.</desc>
<speed>2.470000</speed>
</trkpt>
<trkpt lat="55.977070" lon="26.550022">
<ele>84.008850</ele>
<time>2010-06-20T08:30:02Z</time>
<desc>lat.=55.977070, lon.=26.550022, Alt.=84.008850m. Speed=9.828000m/h.</desc>
<speed>2.730000</speed>
</trkpt>
<trkpt lat="55.977100" lon="26.550011">
<ele>83.653381</ele>
<time>2010-06-20T08:30:03Z</time>
<desc>lat.=55.977100, lon.=26.550011, Alt.=83.653381m. Speed=10.152000m/h.</desc>
<speed>2.820000</speed>
</trkpt>
<trkpt lat="55.977116" lon="26.549997">
<ele>83.079163</ele>
<time>2010-06-20T08:30:04Z</time>
<desc>lat.=55.977116, lon.=26.549997, Alt.=83.079163m. Speed=5.040000m/h.</desc>
<speed>1.400000</speed>
</trkpt>
<trkpt lat="55.977123" lon="26.549995">
<ele>82.481506</ele>
<time>2010-06-20T08:30:05Z</time>
<desc>lat.=55.977123, lon.=26.549995, Alt.=82.481506m. Speed=2.592000m/h.</desc>
<speed>0.720000</speed>
</trkpt>
<trkpt lat="55.977131" lon="26.549994">
<ele>81.954163</ele>
<time>2010-06-20T08:30:06Z</time>
<desc>lat.=55.977131, lon.=26.549994, Alt.=81.954163m. Speed=3.852000m/h.</desc>
<speed>1.070000</speed>
</trkpt>
<trkpt lat="55.977150" lon="26.549986">
<ele>81.415100</ele>
<time>2010-06-20T08:30:07Z</time>
<desc>lat.=55.977150, lon.=26.549986, Alt.=81.415100m. Speed=6.336000m/h.</desc>
<speed>1.760000</speed>
</trkpt>
<trkpt lat="55.977184" lon="26.549982">
<ele>80.057678</ele>
<time>2010-06-20T08:30:08Z</time>
<desc>lat.=55.977184, lon.=26.549982, Alt.=80.057678m. Speed=8.964000m/h.</desc>
<speed>2.490000</speed>
</trkpt>
<trkpt lat="55.977215" lon="26.549961">
<ele>79.417053</ele>
<time>2010-06-20T08:30:09Z</time>
<desc>lat.=55.977215, lon.=26.549961, Alt.=79.417053m. Speed=10.836000m/h.</desc>
<speed>3.010000</speed>
</trkpt>
<trkpt lat="55.977253" lon="26.549940">
<ele>78.985413</ele>
<time>2010-06-20T08:30:10Z</time>
<desc>lat.=55.977253, lon.=26.549940, Alt.=78.985413m. Speed=11.196000m/h.</desc>
<speed>3.110000</speed>
</trkpt>
<trkpt lat="55.977299" lon="26.549923">
<ele>79.958069</ele>
<time>2010-06-20T08:30:11Z</time>
<desc>lat.=55.977299, lon.=26.549923, Alt.=79.958069m. Speed=10.512000m/h.</desc>
<speed>2.920000</speed>
</trkpt>
<trkpt lat="55.977333" lon="26.549919">
<ele>82.413147</ele>
<time>2010-06-20T08:30:12Z</time>
<desc>lat.=55.977333, lon.=26.549919, Alt.=82.413147m. Speed=10.404000m/h.</desc>
<speed>2.890000</speed>
</trkpt>
<trkpt lat="55.977383" lon="26.549917">
<ele>81.825256</ele>
<time>2010-06-20T08:30:13Z</time>
<desc>lat.=55.977383, lon.=26.549917, Alt.=81.825256m. Speed=13.644000m/h.</desc>
<speed>3.790000</speed>
</trkpt>
<trkpt lat="55.977417" lon="26.549915">
<ele>81.641663</ele>
<time>2010-06-20T08:30:14Z</time>
<desc>lat.=55.977417, lon.=26.549915, Alt.=81.641663m. Speed=12.816000m/h.</desc>
<speed>3.560000</speed>
</trkpt>
<trkpt lat="55.977459" lon="26.549917">
<ele>83.710022</ele>
<time>2010-06-20T08:30:15Z</time>
<desc>lat.=55.977459, lon.=26.549917, Alt.=83.710022m. Speed=14.868000m/h.</desc>
<speed>4.130000</speed>
</trkpt>
<trkpt lat="55.977497" lon="26.549927">
<ele>84.419006</ele>
<time>2010-06-20T08:30:16Z</time>
<desc>lat.=55.977497, lon.=26.549927, Alt.=84.419006m. Speed=14.868000m/h.</desc>
<speed>4.130000</speed>
</trkpt>
<trkpt lat="55.977543" lon="26.549948">
<ele>84.729553</ele>
<time>2010-06-20T08:30:17Z</time>
<desc>lat.=55.977543, lon.=26.549948, Alt.=84.729553m. Speed=16.488001m/h.</desc>
<speed>4.580000</speed>
</trkpt>
<trkpt lat="55.977589" lon="26.549959">
<ele>85.053772</ele>
<time>2010-06-20T08:30:18Z</time>
<desc>lat.=55.977589, lon.=26.549959, Alt.=85.053772m. Speed=21.959999m/h.</desc>
<speed>6.100000</speed>
</trkpt>
<trkpt lat="55.977631" lon="26.549973">
<ele>85.165100</ele>
<time>2010-06-20T08:30:19Z</time>
<desc>lat.=55.977631, lon.=26.549973, Alt.=85.165100m. Speed=14.148000m/h.</desc>
<speed>3.930000</speed>
</trkpt>
<trkpt lat="55.977665" lon="26.549984">
<ele>85.108459</ele>
<time>2010-06-20T08:30:20Z</time>
<desc>lat.=55.977665, lon.=26.549984, Alt.=85.108459m. Speed=11.844000m/h.</desc>
<speed>3.290000</speed>
</trkpt>
<trkpt lat="55.977699" lon="26.549994">
<ele>85.159241</ele>
<time>2010-06-20T08:30:21Z</time>
<desc>lat.=55.977699, lon.=26.549994, Alt.=85.159241m. Speed=11.844000m/h.</desc>
<speed>3.290000</speed>
</trkpt>
<trkpt lat="55.977722" lon="26.550001">
<ele>84.772522</ele>
<time>2010-06-20T08:30:22Z</time>
<desc>lat.=55.977722, lon.=26.550001, Alt.=84.772522m. Speed=11.700000m/h.</desc>
<speed>3.250000</speed>
</trkpt>
<trkpt lat="55.977753" lon="26.550011">
<ele>84.129944</ele>
<time>2010-06-20T08:30:23Z</time>
<desc>lat.=55.977753, lon.=26.550011, Alt.=84.129944m. Speed=12.024000m/h.</desc>
<speed>3.340000</speed>
</trkpt>
<trkpt lat="55.977779" lon="26.550018">
<ele>84.264709</ele>
<time>2010-06-20T08:30:24Z</time>
<desc>lat.=55.977779, lon.=26.550018, Alt.=84.264709m. Speed=8.388000m/h.</desc>
<speed>2.330000</speed>
</trkpt>
<trkpt lat="55.977802" lon="26.550028">
<ele>84.110413</ele>
<time>2010-06-20T08:30:25Z</time>
<desc>lat.=55.977802, lon.=26.550028, Alt.=84.110413m. Speed=8.892000m/h.</desc>
<speed>2.470000</speed>
</trkpt>
<trkpt lat="55.977825" lon="26.550037">
<ele>84.303772</ele>
<time>2010-06-20T08:30:26Z</time>
<desc>lat.=55.977825, lon.=26.550037, Alt.=84.303772m. Speed=10.152000m/h.</desc>
<speed>2.820000</speed>
</trkpt>
<trkpt lat="55.977848" lon="26.550035">
<ele>85.305725</ele>
<time>2010-06-20T08:30:27Z</time>
<desc>lat.=55.977848, lon.=26.550035, Alt.=85.305725m. Speed=10.692000m/h.</desc>
<speed>2.970000</speed>
</trkpt>
<trkpt lat="55.977882" lon="26.550047">
<ele>86.065491</ele>
<time>2010-06-20T08:30:28Z</time>
<desc>lat.=55.977882, lon.=26.550047, Alt.=86.065491m. Speed=8.316000m/h.</desc>
<speed>2.310000</speed>
</trkpt>
<trkpt lat="55.977905" lon="26.550055">
<ele>86.870178</ele>
<time>2010-06-20T08:30:29Z</time>
<desc>lat.=55.977905, lon.=26.550055, Alt.=86.870178m. Speed=9.648000m/h.</desc>
<speed>2.680000</speed>
</trkpt>
<trkpt lat="55.977928" lon="26.550055">
<ele>87.239319</ele>
<time>2010-06-20T08:30:30Z</time>
<desc>lat.=55.977928, lon.=26.550055, Alt.=87.239319m. Speed=10.224000m/h.</desc>
<speed>2.840000</speed>
</trkpt>
<trkpt lat="55.977955" lon="26.550051">
<ele>87.323303</ele>
<time>2010-06-20T08:30:31Z</time>
<desc>lat.=55.977955, lon.=26.550051, Alt.=87.323303m. Speed=7.452000m/h.</desc>
<speed>2.070000</speed>
</trkpt>
<trkpt lat="55.977974" lon="26.550056">
<ele>87.110413</ele>
<time>2010-06-20T08:30:32Z</time>
<desc>lat.=55.977974, lon.=26.550056, Alt.=87.110413m. Speed=7.308000m/h.</desc>
<speed>2.030000</speed>
</trkpt>
<trkpt lat="55.977993" lon="26.550068">
<ele>87.481506</ele>
<time>2010-06-20T08:30:33Z</time>
<desc>lat.=55.977993, lon.=26.550068, Alt.=87.481506m. Speed=4.392000m/h.</desc>
<speed>1.220000</speed>
</trkpt>
<trkpt lat="55.978016" lon="26.550085">
<ele>87.577209</ele>
<time>2010-06-20T08:30:34Z</time>
<desc>lat.=55.978016, lon.=26.550085, Alt.=87.577209m. Speed=8.352000m/h.</desc>
<speed>2.320000</speed>
</trkpt>
<trkpt lat="55.978035" lon="26.550098">
<ele>87.794006</ele>
<time>2010-06-20T08:30:35Z</time>
<desc>lat.=55.978035, lon.=26.550098, Alt.=87.794006m. Speed=5.724000m/h.</desc>
<speed>1.590000</speed>
</trkpt>
<trkpt lat="55.978058" lon="26.550106">
<ele>88.301819</ele>
<time>2010-06-20T08:30:36Z</time>
<desc>lat.=55.978058, lon.=26.550106, Alt.=88.301819m. Speed=7.200000m/h.</desc>
<speed>2.000000</speed>
</trkpt>
<trkpt lat="55.978085" lon="26.550097">
<ele>88.352600</ele>
<time>2010-06-20T08:30:37Z</time>
<desc>lat.=55.978085, lon.=26.550097, Alt.=88.352600m. Speed=6.912000m/h.</desc>
<speed>1.920000</speed>
</trkpt>
<trkpt lat="55.978111" lon="26.550091">
<ele>88.438538</ele>
<time>2010-06-20T08:30:38Z</time>
<desc>lat.=55.978111, lon.=26.550091, Alt.=88.438538m. Speed=8.460000m/h.</desc>
<speed>2.350000</speed>
</trkpt>
<trkpt lat="55.978138" lon="26.550089">
<ele>88.284241</ele>
<time>2010-06-20T08:30:39Z</time>
<desc>lat.=55.978138, lon.=26.550089, Alt.=88.284241m. Speed=7.128000m/h.</desc>
<speed>1.980000</speed>
</trkpt>
<trkpt lat="55.978168" lon="26.550097">
<ele>88.735413</ele>
<time>2010-06-20T08:30:40Z</time>
<desc>lat.=55.978168, lon.=26.550097, Alt.=88.735413m. Speed=10.980000m/h.</desc>
<speed>3.050000</speed>
</trkpt>
<trkpt lat="55.978199" lon="26.550095">
<ele>88.034241</ele>
<time>2010-06-20T08:30:41Z</time>
<desc>lat.=55.978199, lon.=26.550095, Alt.=88.034241m. Speed=9.648000m/h.</desc>
<speed>2.680000</speed>
</trkpt>
<trkpt lat="55.978230" lon="26.550095">
<ele>88.069397</ele>
<time>2010-06-20T08:30:42Z</time>
<desc>lat.=55.978230, lon.=26.550095, Alt.=88.069397m. Speed=8.964000m/h.</desc>
<speed>2.490000</speed>
</trkpt>
<trkpt lat="55.978256" lon="26.550093">
<ele>88.266663</ele>
<time>2010-06-20T08:30:43Z</time>
<desc>lat.=55.978256, lon.=26.550093, Alt.=88.266663m. Speed=8.280000m/h.</desc>
<speed>2.300000</speed>
</trkpt>
<trkpt lat="55.978287" lon="26.550085">
<ele>88.786194</ele>
<time>2010-06-20T08:30:44Z</time>
<desc>lat.=55.978287, lon.=26.550085, Alt.=88.786194m. Speed=10.404000m/h.</desc>
<speed>2.890000</speed>
</trkpt>
<trkpt lat="55.978313" lon="26.550077">
<ele>88.557678</ele>
<time>2010-06-20T08:30:45Z</time>
<desc>lat.=55.978313, lon.=26.550077, Alt.=88.557678m. Speed=9.360000m/h.</desc>
<speed>2.600000</speed>
</trkpt>
<trkpt lat="55.978333" lon="26.550068">
<ele>88.647522</ele>
<time>2010-06-20T08:30:46Z</time>
<desc>lat.=55.978333, lon.=26.550068, Alt.=88.647522m. Speed=7.380000m/h.</desc>
<speed>2.050000</speed>
</trkpt>
<trkpt lat="55.978359" lon="26.550060">
<ele>89.157288</ele>
<time>2010-06-20T08:30:47Z</time>
<desc>lat.=55.978359, lon.=26.550060, Alt.=89.157288m. Speed=11.484000m/h.</desc>
<speed>3.190000</speed>
</trkpt>
<trkpt lat="55.978378" lon="26.550035">
<ele>89.520569</ele>
<time>2010-06-20T08:30:48Z</time>
<desc>lat.=55.978378, lon.=26.550035, Alt.=89.520569m. Speed=8.964000m/h.</desc>
<speed>2.490000</speed>
</trkpt>
<trkpt lat="55.978401" lon="26.550011">
<ele>89.419006</ele>
<time>2010-06-20T08:30:49Z</time>
<desc>lat.=55.978401, lon.=26.550011, Alt.=89.419006m. Speed=9.180000m/h.</desc>
<speed>2.550000</speed>
</trkpt>
<trkpt lat="55.978428" lon="26.549992">
<ele>88.635803</ele>
<time>2010-06-20T08:30:50Z</time>
<desc>lat.=55.978428, lon.=26.549992, Alt.=88.635803m. Speed=9.612000m/h.</desc>
<speed>2.670000</speed>
</trkpt>
<trkpt lat="55.978458" lon="26.549971">
<ele>88.055725</ele>
<time>2010-06-20T08:30:51Z</time>
<desc>lat.=55.978458, lon.=26.549971, Alt.=88.055725m. Speed=10.116000m/h.</desc>
<speed>2.810000</speed>
</trkpt>
<trkpt lat="55.978489" lon="26.549940">
<ele>88.393616</ele>
<time>2010-06-20T08:30:52Z</time>
<desc>lat.=55.978489, lon.=26.549940, Alt.=88.393616m. Speed=10.728000m/h.</desc>
<speed>2.980000</speed>
</trkpt>
<trkpt lat="55.978516" lon="26.549919">
<ele>89.020569</ele>
<time>2010-06-20T08:30:53Z</time>
<desc>lat.=55.978516, lon.=26.549919, Alt.=89.020569m. Speed=11.628000m/h.</desc>
<speed>3.230000</speed>
</trkpt>
<trkpt lat="55.978546" lon="26.549892">
<ele>89.225647</ele>
<time>2010-06-20T08:30:54Z</time>
<desc>lat.=55.978546, lon.=26.549892, Alt.=89.225647m. Speed=11.088000m/h.</desc>
<speed>3.080000</speed>
</trkpt>
<trkpt lat="55.978573" lon="26.549883">
<ele>87.569397</ele>
<time>2010-06-20T08:30:55Z</time>
<desc>lat.=55.978573, lon.=26.549883, Alt.=87.569397m. Speed=12.240000m/h.</desc>
<speed>3.400000</speed>
</trkpt>
<trkpt lat="55.978603" lon="26.549877">
<ele>87.151428</ele>
<time>2010-06-20T08:30:56Z</time>
<desc>lat.=55.978603, lon.=26.549877, Alt.=87.151428m. Speed=12.672000m/h.</desc>
<speed>3.520000</speed>
</trkpt>
<trkpt lat="55.978642" lon="26.549881">
<ele>86.774475</ele>
<time>2010-06-20T08:30:57Z</time>
<desc>lat.=55.978642, lon.=26.549881, Alt.=86.774475m. Speed=15.804000m/h.</desc>
<speed>4.390000</speed>
</trkpt>
<trkpt lat="55.978680" lon="26.549891">
<ele>85.788147</ele>
<time>2010-06-20T08:30:58Z</time>
<desc>lat.=55.978680, lon.=26.549891, Alt.=85.788147m. Speed=15.840000m/h.</desc>
<speed>4.400000</speed>
</trkpt>
<trkpt lat="55.978722" lon="26.549917">
<ele>84.040100</ele>
<time>2010-06-20T08:30:59Z</time>
<desc>lat.=55.978722, lon.=26.549917, Alt.=84.040100m. Speed=12.600000m/h.</desc>
<speed>3.500000</speed>
</trkpt>
<trkpt lat="55.978748" lon="26.549942">
<ele>83.544006</ele>
<time>2010-06-20T08:31:00Z</time>
<desc>lat.=55.978748, lon.=26.549942, Alt.=83.544006m. Speed=11.808000m/h.</desc>
<speed>3.280000</speed>
</trkpt>
<trkpt lat="55.978783" lon="26.549974">
<ele>83.042053</ele>
<time>2010-06-20T08:31:01Z</time>
<desc>lat.=55.978783, lon.=26.549974, Alt.=83.042053m. Speed=12.420000m/h.</desc>
<speed>3.450000</speed>
</trkpt>
<trkpt lat="55.978817" lon="26.550005">
<ele>82.499084</ele>
<time>2010-06-20T08:31:02Z</time>
<desc>lat.=55.978817, lon.=26.550005, Alt.=82.499084m. Speed=12.564000m/h.</desc>
<speed>3.490000</speed>
</trkpt>
<trkpt lat="55.978851" lon="26.550039">
<ele>82.629944</ele>
<time>2010-06-20T08:31:03Z</time>
<desc>lat.=55.978851, lon.=26.550039, Alt.=82.629944m. Speed=12.420000m/h.</desc>
<speed>3.450000</speed>
</trkpt>
<trkpt lat="55.978882" lon="26.550072">
<ele>82.585022</ele>
<time>2010-06-20T08:31:04Z</time>
<desc>lat.=55.978882, lon.=26.550072, Alt.=82.585022m. Speed=12.924000m/h.</desc>
<speed>3.590000</speed>
</trkpt>
<trkpt lat="55.978916" lon="26.550098">
<ele>82.315491</ele>
<time>2010-06-20T08:31:05Z</time>
<desc>lat.=55.978916, lon.=26.550098, Alt.=82.315491m. Speed=12.564000m/h.</desc>
<speed>3.490000</speed>
</trkpt>
<trkpt lat="55.978947" lon="26.550127">
<ele>82.940491</ele>
<time>2010-06-20T08:31:06Z</time>
<desc>lat.=55.978947, lon.=26.550127, Alt.=82.940491m. Speed=12.780000m/h.</desc>
<speed>3.550000</speed>
</trkpt>
<trkpt lat="55.978977" lon="26.550148">
<ele>83.071350</ele>
<time>2010-06-20T08:31:07Z</time>
<desc>lat.=55.978977, lon.=26.550148, Alt.=83.071350m. Speed=12.960000m/h.</desc>
<speed>3.600000</speed>
</trkpt>
<trkpt lat="55.979008" lon="26.550175">
<ele>82.981506</ele>
<time>2010-06-20T08:31:08Z</time>
<desc>lat.=55.979008, lon.=26.550175, Alt.=82.981506m. Speed=12.960000m/h.</desc>
<speed>3.600000</speed>
</trkpt>
<trkpt lat="55.979038" lon="26.550198">
<ele>82.860413</ele>
<time>2010-06-20T08:31:09Z</time>
<desc>lat.=55.979038, lon.=26.550198, Alt.=82.860413m. Speed=12.708000m/h.</desc>
<speed>3.530000</speed>
</trkpt>
<trkpt lat="55.979061" lon="26.550220">
<ele>82.352600</ele>
<time>2010-06-20T08:31:10Z</time>
<desc>lat.=55.979061, lon.=26.550220, Alt.=82.352600m. Speed=12.132000m/h.</desc>
<speed>3.370000</speed>
</trkpt>
<trkpt lat="55.979088" lon="26.550243">
<ele>82.143616</ele>
<time>2010-06-20T08:31:11Z</time>
<desc>lat.=55.979088, lon.=26.550243, Alt.=82.143616m. Speed=11.700000m/h.</desc>
<speed>3.250000</speed>
</trkpt>
<trkpt lat="55.979122" lon="26.550262">
<ele>82.594788</ele>
<time>2010-06-20T08:31:12Z</time>
<desc>lat.=55.979122, lon.=26.550262, Alt.=82.594788m. Speed=11.628000m/h.</desc>
<speed>3.230000</speed>
</trkpt>
<trkpt lat="55.979145" lon="26.550282">
<ele>82.270569</ele>
<time>2010-06-20T08:31:13Z</time>
<desc>lat.=55.979145, lon.=26.550282, Alt.=82.270569m. Speed=8.928000m/h.</desc>
<speed>2.480000</speed>
</trkpt>
<trkpt lat="55.979168" lon="26.550301">
<ele>83.114319</ele>
<time>2010-06-20T08:31:14Z</time>
<desc>lat.=55.979168, lon.=26.550301, Alt.=83.114319m. Speed=7.524000m/h.</desc>
<speed>2.090000</speed>
</trkpt>
<trkpt lat="55.979179" lon="26.550314">
<ele>83.377991</ele>
<time>2010-06-20T08:31:15Z</time>
<desc>lat.=55.979179, lon.=26.550314, Alt.=83.377991m. Speed=3.384000m/h.</desc>
<speed>0.940000</speed>
</trkpt>
<trkpt lat="55.979179" lon="26.550314">
<ele>83.620178</ele>
<time>2010-06-20T08:31:16Z</time>
<desc>lat.=55.979179, lon.=26.550314, Alt.=83.620178m. Speed=0.612000m/h.</desc>
<speed>0.170000</speed>
</trkpt>
<trkpt lat="55.979179" lon="26.550312">
<ele>84.026428</ele>
<time>2010-06-20T08:31:17Z</time>
<desc>lat.=55.979179, lon.=26.550312, Alt.=84.026428m. Speed=0.036000m/h.</desc>
<speed>0.010000</speed>
</trkpt>
<trkpt lat="55.979183" lon="26.550312">
<ele>84.471741</ele>
<time>2010-06-20T08:31:18Z</time>
<desc>lat.=55.979183, lon.=26.550312, Alt.=84.471741m. Speed=0.072000m/h.</desc>
<speed>0.020000</speed>
</trkpt>
<trkpt lat="55.979183" lon="26.550312">
<ele>84.544006</ele>
<time>2010-06-20T08:31:19Z</time>
<desc>lat.=55.979183, lon.=26.550312, Alt.=84.544006m. Speed=0.036000m/h.</desc>
<speed>0.010000</speed>
</trkpt>
<trkpt lat="55.979183" lon="26.550312">
<ele>84.602600</ele>
<time>2010-06-20T08:31:20Z</time>
<desc>lat.=55.979183, lon.=26.550312, Alt.=84.602600m. Speed=0.000000m/h.</desc>
<speed>0.000000</speed>
</trkpt>
<trkpt lat="55.979183" lon="26.550312">
<ele>84.610413</ele>
<time>2010-06-20T08:31:21Z</time>
<desc>lat.=55.979183, lon.=26.550312, Alt.=84.610413m. Speed=0.036000m/h.</desc>
<speed>0.010000</speed>
</trkpt>
<trkpt lat="55.979183" lon="26.550312">
<ele>84.612366</ele>
<time>2010-06-20T08:31:22Z</time>
<desc>lat.=55.979183, lon.=26.550312, Alt.=84.612366m. Speed=0.000000m/h.</desc>
<speed>0.000000</speed>
</trkpt>
<trkpt lat="55.979179" lon="26.550312">
<ele>84.602600</ele>
<time>2010-06-20T08:31:23Z</time>
<desc>lat.=55.979179, lon.=26.550312, Alt.=84.602600m. Speed=0.000000m/h.</desc>
<speed>0.000000</speed>
</trkpt>
<trkpt lat="55.979179" lon="26.550310">
<ele>84.600647</ele>
<time>2010-06-20T08:31:24Z</time>
<desc>lat.=55.979179, lon.=26.550310, Alt.=84.600647m. Speed=0.144000m/h.</desc>
<speed>0.040000</speed>
</trkpt>
<trkpt lat="55.979179" lon="26.550312">
<ele>84.588928</ele>
<time>2010-06-20T08:31:25Z</time>
<desc>lat.=55.979179, lon.=26.550312, Alt.=84.588928m. Speed=1.260000m/h.</desc>
<speed>0.350000</speed>
</trkpt>
<trkpt lat="55.979183" lon="26.550318">
<ele>84.534241</ele>
<time>2010-06-20T08:31:26Z</time>
<desc>lat.=55.979183, lon.=26.550318, Alt.=84.534241m. Speed=2.700000m/h.</desc>
<speed>0.750000</speed>
</trkpt>
<trkpt lat="55.979187" lon="26.550323">
<ele>84.522522</ele>
<time>2010-06-20T08:31:27Z</time>
<desc>lat.=55.979187, lon.=26.550323, Alt.=84.522522m. Speed=4.212000m/h.</desc>
<speed>1.170000</speed>
</trkpt>
<trkpt lat="55.979202" lon="26.550341">
<ele>84.555725</ele>
<time>2010-06-20T08:31:28Z</time>
<desc>lat.=55.979202, lon.=26.550341, Alt.=84.555725m. Speed=4.068000m/h.</desc>
<speed>1.130000</speed>
</trkpt>
<trkpt lat="55.979210" lon="26.550352">
<ele>84.510803</ele>
<time>2010-06-20T08:31:29Z</time>
<desc>lat.=55.979210, lon.=26.550352, Alt.=84.510803m. Speed=6.588000m/h.</desc>
<speed>1.830000</speed>
</trkpt>
<trkpt lat="55.979225" lon="26.550365">
<ele>84.426819</ele>
<time>2010-06-20T08:31:30Z</time>
<desc>lat.=55.979225, lon.=26.550365, Alt.=84.426819m. Speed=7.272000m/h.</desc>
<speed>2.020000</speed>
</trkpt>
<trkpt lat="55.979244" lon="26.550385">
<ele>84.434631</ele>
<time>2010-06-20T08:31:31Z</time>
<desc>lat.=55.979244, lon.=26.550385, Alt.=84.434631m. Speed=7.200000m/h.</desc>
<speed>2.000000</speed>
</trkpt>
<trkpt lat="55.979267" lon="26.550406">
<ele>85.852600</ele>
<time>2010-06-20T08:31:32Z</time>
<desc>lat.=55.979267, lon.=26.550406, Alt.=85.852600m. Speed=8.064000m/h.</desc>
<speed>2.240000</speed>
</trkpt>
<trkpt lat="55.979282" lon="26.550425">
<ele>84.868225</ele>
<time>2010-06-20T08:31:33Z</time>
<desc>lat.=55.979282, lon.=26.550425, Alt.=84.868225m. Speed=7.848000m/h.</desc>
<speed>2.180000</speed>
</trkpt>
<trkpt lat="55.979298" lon="26.550447">
<ele>85.178772</ele>
<time>2010-06-20T08:31:34Z</time>
<desc>lat.=55.979298, lon.=26.550447, Alt.=85.178772m. Speed=8.028000m/h.</desc>
<speed>2.230000</speed>
</trkpt>
<trkpt lat="55.979317" lon="26.550474">
<ele>85.467834</ele>
<time>2010-06-20T08:31:35Z</time>
<desc>lat.=55.979317, lon.=26.550474, Alt.=85.467834m. Speed=8.424000m/h.</desc>
<speed>2.340000</speed>
</trkpt>
<trkpt lat="55.979332" lon="26.550497">
<ele>85.559631</ele>
<time>2010-06-20T08:31:36Z</time>
<desc>lat.=55.979332, lon.=26.550497, Alt.=85.559631m. Speed=8.352000m/h.</desc>
<speed>2.320000</speed>
</trkpt>
<trkpt lat="55.979347" lon="26.550522">
<ele>85.795959</ele>
<time>2010-06-20T08:31:37Z</time>
<desc>lat.=55.979347, lon.=26.550522, Alt.=85.795959m. Speed=8.496000m/h.</desc>
<speed>2.360000</speed>
</trkpt>
<trkpt lat="55.979359" lon="26.550543">
<ele>86.061584</ele>
<time>2010-06-20T08:31:38Z</time>
<desc>lat.=55.979359, lon.=26.550543, Alt.=86.061584m. Speed=4.752000m/h.</desc>
<speed>1.320000</speed>
</trkpt>
<trkpt lat="55.979370" lon="26.550570">
<ele>86.018616</ele>
<time>2010-06-20T08:31:39Z</time>
<desc>lat.=55.979370, lon.=26.550570, Alt.=86.018616m. Speed=7.704000m/h.</desc>
<speed>2.140000</speed>
</trkpt>
<trkpt lat="55.979385" lon="26.550602">
<ele>85.942444</ele>
<time>2010-06-20T08:31:40Z</time>
<desc>lat.=55.979385, lon.=26.550602, Alt.=85.942444m. Speed=6.552000m/h.</desc>
<speed>1.820000</speed>
</trkpt>
<trkpt lat="55.979393" lon="26.550632">
<ele>85.688538</ele>
<time>2010-06-20T08:31:41Z</time>
<desc>lat.=55.979393, lon.=26.550632, Alt.=85.688538m. Speed=7.164000m/h.</desc>
<speed>1.990000</speed>
</trkpt>
<trkpt lat="55.979401" lon="26.550659">
<ele>85.585022</ele>
<time>2010-06-20T08:31:42Z</time>
<desc>lat.=55.979401, lon.=26.550659, Alt.=85.585022m. Speed=6.120000m/h.</desc>
<speed>1.700000</speed>
</trkpt>
<trkpt lat="55.979412" lon="26.550682">
<ele>85.495178</ele>
<time>2010-06-20T08:31:43Z</time>
<desc>lat.=55.979412, lon.=26.550682, Alt.=85.495178m. Speed=6.480000m/h.</desc>
<speed>1.800000</speed>
</trkpt>
<trkpt lat="55.979420" lon="26.550707">
<ele>85.401428</ele>
<time>2010-06-20T08:31:44Z</time>
<desc>lat.=55.979420, lon.=26.550707, Alt.=85.401428m. Speed=6.876000m/h.</desc>
<speed>1.910000</speed>
</trkpt>
<trkpt lat="55.979431" lon="26.550739">
<ele>85.274475</ele>
<time>2010-06-20T08:31:45Z</time>
<desc>lat.=55.979431, lon.=26.550739, Alt.=85.274475m. Speed=8.244000m/h.</desc>
<speed>2.290000</speed>
</trkpt>
<trkpt lat="55.979443" lon="26.550774">
<ele>85.163147</ele>
<time>2010-06-20T08:31:46Z</time>
<desc>lat.=55.979443, lon.=26.550774, Alt.=85.163147m. Speed=8.784000m/h.</desc>
<speed>2.440000</speed>
</trkpt>
<trkpt lat="55.979450" lon="26.550812">
<ele>85.020569</ele>
<time>2010-06-20T08:31:47Z</time>
<desc>lat.=55.979450, lon.=26.550812, Alt.=85.020569m. Speed=8.856000m/h.</desc>
<speed>2.460000</speed>
</trkpt>
<trkpt lat="55.979465" lon="26.550846">
<ele>84.965881</ele>
<time>2010-06-20T08:31:48Z</time>
<desc>lat.=55.979465, lon.=26.550846, Alt.=84.965881m. Speed=9.144000m/h.</desc>
<speed>2.540000</speed>
</trkpt>
<trkpt lat="55.979481" lon="26.550886">
<ele>84.891663</ele>
<time>2010-06-20T08:31:49Z</time>
<desc>lat.=55.979481, lon.=26.550886, Alt.=84.891663m. Speed=10.008000m/h.</desc>
<speed>2.780000</speed>
</trkpt>
<trkpt lat="55.979488" lon="26.550922">
<ele>84.805725</ele>
<time>2010-06-20T08:31:50Z</time>
<desc>lat.=55.979488, lon.=26.550922, Alt.=84.805725m. Speed=10.296000m/h.</desc>
<speed>2.860000</speed>
</trkpt>
<trkpt lat="55.979504" lon="26.550959">
<ele>84.727600</ele>
<time>2010-06-20T08:31:51Z</time>
<desc>lat.=55.979504, lon.=26.550959, Alt.=84.727600m. Speed=9.648000m/h.</desc>
<speed>2.680000</speed>
</trkpt>
<trkpt lat="55.979519" lon="26.550999">
<ele>84.616272</ele>
<time>2010-06-20T08:31:52Z</time>
<desc>lat.=55.979519, lon.=26.550999, Alt.=84.616272m. Speed=9.900000m/h.</desc>
<speed>2.750000</speed>
</trkpt>
<trkpt lat="55.979523" lon="26.551044">
<ele>84.481506</ele>
<time>2010-06-20T08:31:53Z</time>
<desc>lat.=55.979523, lon.=26.551044, Alt.=84.481506m. Speed=9.324000m/h.</desc>
<speed>2.590000</speed>
</trkpt>
<trkpt lat="55.979530" lon="26.551079">
<ele>84.409241</ele>
<time>2010-06-20T08:31:54Z</time>
<desc>lat.=55.979530, lon.=26.551079, Alt.=84.409241m. Speed=8.172000m/h.</desc>
<speed>2.270000</speed>
</trkpt>
<trkpt lat="55.979534" lon="26.551123">
<ele>84.233459</ele>
<time>2010-06-20T08:31:55Z</time>
<desc>lat.=55.979534, lon.=26.551123, Alt.=84.233459m. Speed=8.712000m/h.</desc>
<speed>2.420000</speed>
</trkpt>
<trkpt lat="55.979538" lon="26.551172">
<ele>84.053772</ele>
<time>2010-06-20T08:31:56Z</time>
<desc>lat.=55.979538, lon.=26.551172, Alt.=84.053772m. Speed=9.828000m/h.</desc>
<speed>2.730000</speed>
</trkpt>
<trkpt lat="55.979542" lon="26.551208">
<ele>83.893616</ele>
<time>2010-06-20T08:31:57Z</time>
<desc>lat.=55.979542, lon.=26.551208, Alt.=83.893616m. Speed=7.596000m/h.</desc>
<speed>2.110000</speed>
</trkpt>
<trkpt lat="55.979546" lon="26.551247">
<ele>83.747131</ele>
<time>2010-06-20T08:31:58Z</time>
<desc>lat.=55.979546, lon.=26.551247, Alt.=83.747131m. Speed=8.100000m/h.</desc>
<speed>2.250000</speed>
</trkpt>
<trkpt lat="55.979553" lon="26.551281">
<ele>83.579163</ele>
<time>2010-06-20T08:31:59Z</time>
<desc>lat.=55.979553, lon.=26.551281, Alt.=83.579163m. Speed=8.892000m/h.</desc>
<speed>2.470000</speed>
</trkpt>
<trkpt lat="55.979568" lon="26.551338">
<ele>83.315491</ele>
<time>2010-06-20T08:32:00Z</time>
<desc>lat.=55.979568, lon.=26.551338, Alt.=83.315491m. Speed=8.280000m/h.</desc>
<speed>2.300000</speed>
</trkpt>
<trkpt lat="55.979610" lon="26.551386">
<ele>83.893616</ele>
<time>2010-06-20T08:32:01Z</time>
<desc>lat.=55.979610, lon.=26.551386, Alt.=83.893616m. Speed=8.964000m/h.</desc>
<speed>2.490000</speed>
</trkpt>
<trkpt lat="55.979614" lon="26.551422">
<ele>83.723694</ele>
<time>2010-06-20T08:32:02Z</time>
<desc>lat.=55.979614, lon.=26.551422, Alt.=83.723694m. Speed=8.928000m/h.</desc>
<speed>2.480000</speed>
</trkpt>
<trkpt lat="55.979614" lon="26.551462">
<ele>83.532288</ele>
<time>2010-06-20T08:32:03Z</time>
<desc>lat.=55.979614, lon.=26.551462, Alt.=83.532288m. Speed=9.468000m/h.</desc>
<speed>2.630000</speed>
</trkpt>
<trkpt lat="55.979603" lon="26.551508">
<ele>83.295959</ele>
<time>2010-06-20T08:32:04Z</time>
<desc>lat.=55.979603, lon.=26.551508, Alt.=83.295959m. Speed=9.612000m/h.</desc>
<speed>2.670000</speed>
</trkpt>
<trkpt lat="55.979610" lon="26.551544">
<ele>82.961975</ele>
<time>2010-06-20T08:32:05Z</time>
<desc>lat.=55.979610, lon.=26.551544, Alt.=82.961975m. Speed=8.748000m/h.</desc>
<speed>2.430000</speed>
</trkpt>
<trkpt lat="55.979618" lon="26.551575">
<ele>82.672913</ele>
<time>2010-06-20T08:32:06Z</time>
<desc>lat.=55.979618, lon.=26.551575, Alt.=82.672913m. Speed=7.992000m/h.</desc>
<speed>2.220000</speed>
</trkpt>
<trkpt lat="55.979622" lon="26.551609">
<ele>82.454163</ele>
<time>2010-06-20T08:32:07Z</time>
<desc>lat.=55.979622, lon.=26.551609, Alt.=82.454163m. Speed=6.300000m/h.</desc>
<speed>1.750000</speed>
</trkpt>
<trkpt lat="55.979622" lon="26.551634">
<ele>82.161194</ele>
<time>2010-06-20T08:32:08Z</time>
<desc>lat.=55.979622, lon.=26.551634, Alt.=82.161194m. Speed=4.608000m/h.</desc>
<speed>1.280000</speed>
</trkpt>
<trkpt lat="55.979618" lon="26.551651">
<ele>81.879944</ele>
<time>2010-06-20T08:32:09Z</time>
<desc>lat.=55.979618, lon.=26.551651, Alt.=81.879944m. Speed=3.672000m/h.</desc>
<speed>1.020000</speed>
</trkpt>
<trkpt lat="55.979618" lon="26.551666">
<ele>81.555725</ele>
<time>2010-06-20T08:32:10Z</time>
<desc>lat.=55.979618, lon.=26.551666, Alt.=81.555725m. Speed=2.700000m/h.</desc>
<speed>0.750000</speed>
</trkpt>
<trkpt lat="55.979618" lon="26.551678">
<ele>81.268616</ele>
<time>2010-06-20T08:32:11Z</time>
<desc>lat.=55.979618, lon.=26.551678, Alt.=81.268616m. Speed=1.800000m/h.</desc>
<speed>0.500000</speed>
</trkpt>
<trkpt lat="55.979610" lon="26.551695">
<ele>80.977600</ele>
<time>2010-06-20T08:32:12Z</time>
<desc>lat.=55.979610, lon.=26.551695, Alt.=80.977600m. Speed=3.204000m/h.</desc>
<speed>0.890000</speed>
</trkpt>
<trkpt lat="55.979607" lon="26.551712">
<ele>80.620178</ele>
<time>2010-06-20T08:32:13Z</time>
<desc>lat.=55.979607, lon.=26.551712, Alt.=80.620178m. Speed=3.168000m/h.</desc>
<speed>0.880000</speed>
</trkpt>
<trkpt lat="55.979599" lon="26.551731">
<ele>80.247131</ele>
<time>2010-06-20T08:32:14Z</time>
<desc>lat.=55.979599, lon.=26.551731, Alt.=80.247131m. Speed=2.772000m/h.</desc>
<speed>0.770000</speed>
</trkpt>
<trkpt lat="55.979599" lon="26.551744">
<ele>79.836975</ele>
<time>2010-06-20T08:32:15Z</time>
<desc>lat.=55.979599, lon.=26.551744, Alt.=79.836975m. Speed=3.168000m/h.</desc>
<speed>0.880000</speed>
</trkpt>
<trkpt lat="55.979588" lon="26.551779">
<ele>79.360413</ele>
<time>2010-06-20T08:32:16Z</time>
<desc>lat.=55.979588, lon.=26.551779, Alt.=79.360413m. Speed=4.356000m/h.</desc>
<speed>1.210000</speed>
</trkpt>
<trkpt lat="55.979595" lon="26.551804">
<ele>79.301819</ele>
<time>2010-06-20T08:32:17Z</time>
<desc>lat.=55.979595, lon.=26.551804, Alt.=79.301819m. Speed=5.076000m/h.</desc>
<speed>1.410000</speed>
</trkpt>
<trkpt lat="55.979603" lon="26.551838">
<ele>79.016663</ele>
<time>2010-06-20T08:32:18Z</time>
<desc>lat.=55.979603, lon.=26.551838, Alt.=79.016663m. Speed=7.200000m/h.</desc>
<speed>2.000000</speed>
</trkpt>
<trkpt lat="55.979603" lon="26.551874">
<ele>78.532288</ele>
<time>2010-06-20T08:32:19Z</time>
<desc>lat.=55.979603, lon.=26.551874, Alt.=78.532288m. Speed=6.804000m/h.</desc>
<speed>1.890000</speed>
</trkpt>
<trkpt lat="55.979622" lon="26.551908">
<ele>78.440491</ele>
<time>2010-06-20T08:32:20Z</time>
<desc>lat.=55.979622, lon.=26.551908, Alt.=78.440491m. Speed=6.120000m/h.</desc>
<speed>1.700000</speed>
</trkpt>
<trkpt lat="55.979618" lon="26.551939">
<ele>77.887756</ele>
<time>2010-06-20T08:32:21Z</time>
<desc>lat.=55.979618, lon.=26.551939, Alt.=77.887756m. Speed=6.372000m/h.</desc>
<speed>1.770000</speed>
</trkpt>
<trkpt lat="55.979633" lon="26.551954">
<ele>77.776428</ele>
<time>2010-06-20T08:32:22Z</time>
<desc>lat.=55.979633, lon.=26.551954, Alt.=77.776428m. Speed=7.056000m/h.</desc>
<speed>1.960000</speed>
</trkpt>
<trkpt lat="55.979645" lon="26.551975">
<ele>77.309631</ele>
<time>2010-06-20T08:32:23Z</time>
<desc>lat.=55.979645, lon.=26.551975, Alt.=77.309631m. Speed=5.616000m/h.</desc>
<speed>1.560000</speed>
</trkpt>
<trkpt lat="55.979645" lon="26.552000">
<ele>76.708069</ele>
<time>2010-06-20T08:32:24Z</time>
<desc>lat.=55.979645, lon.=26.552000, Alt.=76.708069m. Speed=5.436000m/h.</desc>
<speed>1.510000</speed>
</trkpt>
<trkpt lat="55.979649" lon="26.552015">
<ele>76.151428</ele>
<time>2010-06-20T08:32:25Z</time>
<desc>lat.=55.979649, lon.=26.552015, Alt.=76.151428m. Speed=3.024000m/h.</desc>
<speed>0.840000</speed>
</trkpt>
<trkpt lat="55.979652" lon="26.552021">
<ele>75.579163</ele>
<time>2010-06-20T08:32:26Z</time>
<desc>lat.=55.979652, lon.=26.552021, Alt.=75.579163m. Speed=2.412000m/h.</desc>
<speed>0.670000</speed>
</trkpt>
<trkpt lat="55.979652" lon="26.552031">
<ele>75.004944</ele>
<time>2010-06-20T08:32:27Z</time>
<desc>lat.=55.979652, lon.=26.552031, Alt.=75.004944m. Speed=2.556000m/h.</desc>
<speed>0.710000</speed>
</trkpt>
<trkpt lat="55.979637" lon="26.552071">
<ele>74.374084</ele>
<time>2010-06-20T08:32:28Z</time>
<desc>lat.=55.979637, lon.=26.552071, Alt.=74.374084m. Speed=5.652000m/h.</desc>
<speed>1.570000</speed>
</trkpt>
<trkpt lat="55.979630" lon="26.552097">
<ele>73.749084</ele>
<time>2010-06-20T08:32:29Z</time>
<desc>lat.=55.979630, lon.=26.552097, Alt.=73.749084m. Speed=6.048000m/h.</desc>
<speed>1.680000</speed>
</trkpt>
<trkpt lat="55.979630" lon="26.552118">
<ele>73.745178</ele>
<time>2010-06-20T08:32:30Z</time>
<desc>lat.=55.979630, lon.=26.552118, Alt.=73.745178m. Speed=6.120000m/h.</desc>
<speed>1.700000</speed>
</trkpt>
<trkpt lat="55.979630" lon="26.552139">
<ele>73.280334</ele>
<time>2010-06-20T08:32:31Z</time>
<desc>lat.=55.979630, lon.=26.552139, Alt.=73.280334m. Speed=5.904000m/h.</desc>
<speed>1.640000</speed>
</trkpt>
<trkpt lat="55.979633" lon="26.552164">
<ele>72.571350</ele>
<time>2010-06-20T08:32:32Z</time>
<desc>lat.=55.979633, lon.=26.552164, Alt.=72.571350m. Speed=5.544000m/h.</desc>
<speed>1.540000</speed>
</trkpt>
<trkpt lat="55.979649" lon="26.552195">
<ele>72.143616</ele>
<time>2010-06-20T08:32:33Z</time>
<desc>lat.=55.979649, lon.=26.552195, Alt.=72.143616m. Speed=7.416000m/h.</desc>
<speed>2.060000</speed>
</trkpt>
<trkpt lat="55.979664" lon="26.552217">
<ele>72.137756</ele>
<time>2010-06-20T08:32:34Z</time>
<desc>lat.=55.979664, lon.=26.552217, Alt.=72.137756m. Speed=6.804000m/h.</desc>
<speed>1.890000</speed>
</trkpt>
<trkpt lat="55.979671" lon="26.552242">
<ele>71.551819</ele>
<time>2010-06-20T08:32:35Z</time>
<desc>lat.=55.979671, lon.=26.552242, Alt.=71.551819m. Speed=6.552000m/h.</desc>
<speed>1.820000</speed>
</trkpt>
<trkpt lat="55.979671" lon="26.552271">
<ele>70.778381</ele>
<time>2010-06-20T08:32:36Z</time>
<desc>lat.=55.979671, lon.=26.552271, Alt.=70.778381m. Speed=7.236000m/h.</desc>
<speed>2.010000</speed>
</trkpt>
<trkpt lat="55.979679" lon="26.552305">
<ele>70.194397</ele>
<time>2010-06-20T08:32:37Z</time>
<desc>lat.=55.979679, lon.=26.552305, Alt.=70.194397m. Speed=6.156000m/h.</desc>
<speed>1.710000</speed>
</trkpt>
<trkpt lat="55.979679" lon="26.552320">
<ele>69.567444</ele>
<time>2010-06-20T08:32:38Z</time>
<desc>lat.=55.979679, lon.=26.552320, Alt.=69.567444m. Speed=1.368000m/h.</desc>
<speed>0.380000</speed>
</trkpt>
<trkpt lat="55.979675" lon="26.552334">
<ele>69.053772</ele>
<time>2010-06-20T08:32:39Z</time>
<desc>lat.=55.979675, lon.=26.552334, Alt.=69.053772m. Speed=1.404000m/h.</desc>
<speed>0.390000</speed>
</trkpt>
<trkpt lat="55.979668" lon="26.552334">
<ele>70.210022</ele>
<time>2010-06-20T08:32:40Z</time>
<desc>lat.=55.979668, lon.=26.552334, Alt.=70.210022m. Speed=0.900000m/h.</desc>
<speed>0.250000</speed>
</trkpt>
<trkpt lat="55.979664" lon="26.552334">
<ele>70.967834</ele>
<time>2010-06-20T08:32:41Z</time>
<desc>lat.=55.979664, lon.=26.552334, Alt.=70.967834m. Speed=0.576000m/h.</desc>
<speed>0.160000</speed>
</trkpt>
<trkpt lat="55.979668" lon="26.552336">
<ele>71.266663</ele>
<time>2010-06-20T08:32:42Z</time>
<desc>lat.=55.979668, lon.=26.552336, Alt.=71.266663m. Speed=0.360000m/h.</desc>
<speed>0.100000</speed>
</trkpt>
<trkpt lat="55.979671" lon="26.552340">
<ele>71.491272</ele>
<time>2010-06-20T08:32:43Z</time>
<desc>lat.=55.979671, lon.=26.552340, Alt.=71.491272m. Speed=0.612000m/h.</desc>
<speed>0.170000</speed>
</trkpt>
<trkpt lat="55.979671" lon="26.552343">
<ele>71.268616</ele>
<time>2010-06-20T08:32:44Z</time>
<desc>lat.=55.979671, lon.=26.552343, Alt.=71.268616m. Speed=1.188000m/h.</desc>
<speed>0.330000</speed>
</trkpt>
<trkpt lat="55.979675" lon="26.552357">
<ele>71.294006</ele>
<time>2010-06-20T08:32:45Z</time>
<desc>lat.=55.979675, lon.=26.552357, Alt.=71.294006m. Speed=2.124000m/h.</desc>
<speed>0.590000</speed>
</trkpt>
<trkpt lat="55.979683" lon="26.552374">
<ele>71.491272</ele>
<time>2010-06-20T08:32:46Z</time>
<desc>lat.=55.979683, lon.=26.552374, Alt.=71.491272m. Speed=2.808000m/h.</desc>
<speed>0.780000</speed>
</trkpt>
<trkpt lat="55.979687" lon="26.552389">
<ele>71.555725</ele>
<time>2010-06-20T08:32:47Z</time>
<desc>lat.=55.979687, lon.=26.552389, Alt.=71.555725m. Speed=3.276000m/h.</desc>
<speed>0.910000</speed>
</trkpt>
<trkpt lat="55.979687" lon="26.552404">
<ele>71.667053</ele>
<time>2010-06-20T08:32:48Z</time>
<desc>lat.=55.979687, lon.=26.552404, Alt.=71.667053m. Speed=3.060000m/h.</desc>
<speed>0.850000</speed>
</trkpt>
<trkpt lat="55.979694" lon="26.552439">
<ele>71.725647</ele>
<time>2010-06-20T08:32:49Z</time>
<desc>lat.=55.979694, lon.=26.552439, Alt.=71.725647m. Speed=4.320000m/h.</desc>
<speed>1.200000</speed>
</trkpt>
<trkpt lat="55.979698" lon="26.552465">
<ele>71.774475</ele>
<time>2010-06-20T08:32:50Z</time>
<desc>lat.=55.979698, lon.=26.552465, Alt.=71.774475m. Speed=4.932000m/h.</desc>
<speed>1.370000</speed>
</trkpt>
<trkpt lat="55.979698" lon="26.552507">
<ele>71.864319</ele>
<time>2010-06-20T08:32:51Z</time>
<desc>lat.=55.979698, lon.=26.552507, Alt.=71.864319m. Speed=6.264000m/h.</desc>
<speed>1.740000</speed>
</trkpt>
<trkpt lat="55.979717" lon="26.552546">
<ele>72.965881</ele>
<time>2010-06-20T08:32:52Z</time>
<desc>lat.=55.979717, lon.=26.552546, Alt.=72.965881m. Speed=7.524000m/h.</desc>
<speed>2.090000</speed>
</trkpt>
<trkpt lat="55.979725" lon="26.552563">
<ele>73.301819</ele>
<time>2010-06-20T08:32:53Z</time>
<desc>lat.=55.979725, lon.=26.552563, Alt.=73.301819m. Speed=8.280000m/h.</desc>
<speed>2.300000</speed>
</trkpt>
<trkpt lat="55.979744" lon="26.552601">
<ele>73.885803</ele>
<time>2010-06-20T08:32:54Z</time>
<desc>lat.=55.979744, lon.=26.552601, Alt.=73.885803m. Speed=8.064000m/h.</desc>
<speed>2.240000</speed>
</trkpt>
<trkpt lat="55.979752" lon="26.552635">
<ele>73.835022</ele>
<time>2010-06-20T08:32:55Z</time>
<desc>lat.=55.979752, lon.=26.552635, Alt.=73.835022m. Speed=7.812000m/h.</desc>
<speed>2.170000</speed>
</trkpt>
<trkpt lat="55.979736" lon="26.552691">
<ele>75.934631</ele>
<time>2010-06-20T08:32:56Z</time>
<desc>lat.=55.979736, lon.=26.552691, Alt.=75.934631m. Speed=5.256000m/h.</desc>
<speed>1.460000</speed>
</trkpt>
<trkpt lat="55.979740" lon="26.552713">
<ele>76.018616</ele>
<time>2010-06-20T08:32:57Z</time>
<desc>lat.=55.979740, lon.=26.552713, Alt.=76.018616m. Speed=5.652000m/h.</desc>
<speed>1.570000</speed>
</trkpt>
<trkpt lat="55.979740" lon="26.552736">
<ele>76.215881</ele>
<time>2010-06-20T08:32:58Z</time>
<desc>lat.=55.979740, lon.=26.552736, Alt.=76.215881m. Speed=4.500000m/h.</desc>
<speed>1.250000</speed>
</trkpt>
<trkpt lat="55.979740" lon="26.552752">
<ele>76.139709</ele>
<time>2010-06-20T08:32:59Z</time>
<desc>lat.=55.979740, lon.=26.552752, Alt.=76.139709m. Speed=4.176000m/h.</desc>
<speed>1.160000</speed>
</trkpt>
<trkpt lat="55.979740" lon="26.552792">
<ele>75.667053</ele>
<time>2010-06-20T08:33:00Z</time>
<desc>lat.=55.979740, lon.=26.552792, Alt.=75.667053m. Speed=5.796000m/h.</desc>
<speed>1.610000</speed>
</trkpt>
<trkpt lat="55.979740" lon="26.552818">
<ele>75.524475</ele>
<time>2010-06-20T08:33:01Z</time>
<desc>lat.=55.979740, lon.=26.552818, Alt.=75.524475m. Speed=6.732000m/h.</desc>
<speed>1.870000</speed>
</trkpt>
<trkpt lat="55.979740" lon="26.552849">
<ele>75.563538</ele>
<time>2010-06-20T08:33:02Z</time>
<desc>lat.=55.979740, lon.=26.552849, Alt.=75.563538m. Speed=6.660000m/h.</desc>
<speed>1.850000</speed>
</trkpt>
<trkpt lat="55.979755" lon="26.552870">
<ele>76.114319</ele>
<time>2010-06-20T08:33:03Z</time>
<desc>lat.=55.979755, lon.=26.552870, Alt.=76.114319m. Speed=5.976000m/h.</desc>
<speed>1.660000</speed>
</trkpt>
<trkpt lat="55.979767" lon="26.552887">
<ele>76.471741</ele>
<time>2010-06-20T08:33:04Z</time>
<desc>lat.=55.979767, lon.=26.552887, Alt.=76.471741m. Speed=5.724000m/h.</desc>
<speed>1.590000</speed>
</trkpt>
<trkpt lat="55.979767" lon="26.552908">
<ele>76.618225</ele>
<time>2010-06-20T08:33:05Z</time>
<desc>lat.=55.979767, lon.=26.552908, Alt.=76.618225m. Speed=3.636000m/h.</desc>
<speed>1.010000</speed>
</trkpt>
<trkpt lat="55.979774" lon="26.552931">
<ele>77.600647</ele>
<time>2010-06-20T08:33:06Z</time>
<desc>lat.=55.979774, lon.=26.552931, Alt.=77.600647m. Speed=5.112000m/h.</desc>
<speed>1.420000</speed>
</trkpt>
<trkpt lat="55.979774" lon="26.552950">
<ele>77.538147</ele>
<time>2010-06-20T08:33:07Z</time>
<desc>lat.=55.979774, lon.=26.552950, Alt.=77.538147m. Speed=6.048000m/h.</desc>
<speed>1.680000</speed>
</trkpt>
<trkpt lat="55.979782" lon="26.552975">
<ele>77.241272</ele>
<time>2010-06-20T08:33:08Z</time>
<desc>lat.=55.979782, lon.=26.552975, Alt.=77.241272m. Speed=6.768000m/h.</desc>
<speed>1.880000</speed>
</trkpt>
<trkpt lat="55.979786" lon="26.552994">
<ele>77.153381</ele>
<time>2010-06-20T08:33:09Z</time>
<desc>lat.=55.979786, lon.=26.552994, Alt.=77.153381m. Speed=5.328000m/h.</desc>
<speed>1.480000</speed>
</trkpt>
<trkpt lat="55.979786" lon="26.553007">
<ele>77.018616</ele>
<time>2010-06-20T08:33:10Z</time>
<desc>lat.=55.979786, lon.=26.553007, Alt.=77.018616m. Speed=5.328000m/h.</desc>
<speed>1.480000</speed>
</trkpt>
<trkpt lat="55.979778" lon="26.553028">
<ele>77.126038</ele>
<time>2010-06-20T08:33:11Z</time>
<desc>lat.=55.979778, lon.=26.553028, Alt.=77.126038m. Speed=5.184000m/h.</desc>
<speed>1.440000</speed>
</trkpt>
<trkpt lat="55.979778" lon="26.553055">
<ele>76.876038</ele>
<time>2010-06-20T08:33:12Z</time>
<desc>lat.=55.979778, lon.=26.553055, Alt.=76.876038m. Speed=5.940000m/h.</desc>
<speed>1.650000</speed>
</trkpt>
<trkpt lat="55.979782" lon="26.553083">
<ele>76.544006</ele>
<time>2010-06-20T08:33:13Z</time>
<desc>lat.=55.979782, lon.=26.553083, Alt.=76.544006m. Speed=6.264000m/h.</desc>
<speed>1.740000</speed>
</trkpt>
<trkpt lat="55.979778" lon="26.553112">
<ele>76.454163</ele>
<time>2010-06-20T08:33:14Z</time>
<desc>lat.=55.979778, lon.=26.553112, Alt.=76.454163m. Speed=7.596000m/h.</desc>
<speed>2.110000</speed>
</trkpt>
<trkpt lat="55.979778" lon="26.553141">
<ele>76.176819</ele>
<time>2010-06-20T08:33:15Z</time>
<desc>lat.=55.979778, lon.=26.553141, Alt.=76.176819m. Speed=6.552000m/h.</desc>
<speed>1.820000</speed>
</trkpt>
<trkpt lat="55.979782" lon="26.553169">
<ele>75.872131</ele>
<time>2010-06-20T08:33:16Z</time>
<desc>lat.=55.979782, lon.=26.553169, Alt.=75.872131m. Speed=7.596000m/h.</desc>
<speed>2.110000</speed>
</trkpt>
<trkpt lat="55.979790" lon="26.553202">
<ele>75.438538</ele>
<time>2010-06-20T08:33:17Z</time>
<desc>lat.=55.979790, lon.=26.553202, Alt.=75.438538m. Speed=7.848000m/h.</desc>
<speed>2.180000</speed>
</trkpt>
<trkpt lat="55.979801" lon="26.553246">
<ele>74.997131</ele>
<time>2010-06-20T08:33:18Z</time>
<desc>lat.=55.979801, lon.=26.553246, Alt.=74.997131m. Speed=9.180000m/h.</desc>
<speed>2.550000</speed>
</trkpt>
<trkpt lat="55.979805" lon="26.553282">
<ele>74.602600</ele>
<time>2010-06-20T08:33:19Z</time>
<desc>lat.=55.979805, lon.=26.553282, Alt.=74.602600m. Speed=8.568000m/h.</desc>
<speed>2.380000</speed>
</trkpt>
<trkpt lat="55.979805" lon="26.553307">
<ele>74.344788</ele>
<time>2010-06-20T08:33:20Z</time>
<desc>lat.=55.979805, lon.=26.553307, Alt.=74.344788m. Speed=7.704000m/h.</desc>
<speed>2.140000</speed>
</trkpt>
<trkpt lat="55.979809" lon="26.553343">
<ele>73.833069</ele>
<time>2010-06-20T08:33:21Z</time>
<desc>lat.=55.979809, lon.=26.553343, Alt.=73.833069m. Speed=6.480000m/h.</desc>
<speed>1.800000</speed>
</trkpt>
<trkpt lat="55.979809" lon="26.553364">
<ele>73.471741</ele>
<time>2010-06-20T08:33:22Z</time>
<desc>lat.=55.979809, lon.=26.553364, Alt.=73.471741m. Speed=5.508000m/h.</desc>
<speed>1.530000</speed>
</trkpt>
<trkpt lat="55.979820" lon="26.553391">
<ele>72.975647</ele>
<time>2010-06-20T08:33:23Z</time>
<desc>lat.=55.979820, lon.=26.553391, Alt.=72.975647m. Speed=4.500000m/h.</desc>
<speed>1.250000</speed>
</trkpt>
<trkpt lat="55.979828" lon="26.553411">
<ele>72.354553</ele>
<time>2010-06-20T08:33:24Z</time>
<desc>lat.=55.979828, lon.=26.553411, Alt.=72.354553m. Speed=5.832000m/h.</desc>
<speed>1.620000</speed>
</trkpt>
<trkpt lat="55.979839" lon="26.553442">
<ele>71.795959</ele>
<time>2010-06-20T08:33:25Z</time>
<desc>lat.=55.979839, lon.=26.553442, Alt.=71.795959m. Speed=7.272000m/h.</desc>
<speed>2.020000</speed>
</trkpt>
<trkpt lat="55.979855" lon="26.553465">
<ele>71.272522</ele>
<time>2010-06-20T08:33:26Z</time>
<desc>lat.=55.979855, lon.=26.553465, Alt.=71.272522m. Speed=6.552000m/h.</desc>
<speed>1.820000</speed>
</trkpt>
<trkpt lat="55.979866" lon="26.553484">
<ele>71.178772</ele>
<time>2010-06-20T08:33:27Z</time>
<desc>lat.=55.979866, lon.=26.553484, Alt.=71.178772m. Speed=5.076000m/h.</desc>
<speed>1.410000</speed>
</trkpt>
<trkpt lat="55.979870" lon="26.553492">
<ele>71.614319</ele>
<time>2010-06-20T08:33:28Z</time>
<desc>lat.=55.979870, lon.=26.553492, Alt.=71.614319m. Speed=3.348000m/h.</desc>
<speed>0.930000</speed>
</trkpt>
<trkpt lat="55.979900" lon="26.553516">
<ele>72.219788</ele>
<time>2010-06-20T08:33:29Z</time>
<desc>lat.=55.979900, lon.=26.553516, Alt.=72.219788m. Speed=7.920000m/h.</desc>
<speed>2.200000</speed>
</trkpt>
<trkpt lat="55.979916" lon="26.553537">
<ele>71.948303</ele>
<time>2010-06-20T08:33:30Z</time>
<desc>lat.=55.979916, lon.=26.553537, Alt.=71.948303m. Speed=7.452000m/h.</desc>
<speed>2.070000</speed>
</trkpt>
<trkpt lat="55.979935" lon="26.553560">
<ele>71.545959</ele>
<time>2010-06-20T08:33:31Z</time>
<desc>lat.=55.979935, lon.=26.553560, Alt.=71.545959m. Speed=8.100000m/h.</desc>
<speed>2.250000</speed>
</trkpt>
<trkpt lat="55.979961" lon="26.553585">
<ele>71.659241</ele>
<time>2010-06-20T08:33:32Z</time>
<desc>lat.=55.979961, lon.=26.553585, Alt.=71.659241m. Speed=8.496000m/h.</desc>
<speed>2.360000</speed>
</trkpt>
<trkpt lat="55.979984" lon="26.553606">
<ele>71.254944</ele>
<time>2010-06-20T08:33:33Z</time>
<desc>lat.=55.979984, lon.=26.553606, Alt.=71.254944m. Speed=8.316000m/h.</desc>
<speed>2.310000</speed>
</trkpt>
<trkpt lat="55.980015" lon="26.553631">
<ele>73.073303</ele>
<time>2010-06-20T08:33:34Z</time>
<desc>lat.=55.980015, lon.=26.553631, Alt.=73.073303m. Speed=9.864000m/h.</desc>
<speed>2.740000</speed>
</trkpt>
<trkpt lat="55.980038" lon="26.553648">
<ele>73.184631</ele>
<time>2010-06-20T08:33:35Z</time>
<desc>lat.=55.980038, lon.=26.553648, Alt.=73.184631m. Speed=8.784000m/h.</desc>
<speed>2.440000</speed>
</trkpt>
<trkpt lat="55.980072" lon="26.553667">
<ele>75.126038</ele>
<time>2010-06-20T08:33:36Z</time>
<desc>lat.=55.980072, lon.=26.553667, Alt.=75.126038m. Speed=12.780000m/h.</desc>
<speed>3.550000</speed>
</trkpt>
<trkpt lat="55.980095" lon="26.553688">
<ele>76.520569</ele>
<time>2010-06-20T08:33:37Z</time>
<desc>lat.=55.980095, lon.=26.553688, Alt.=76.520569m. Speed=9.324000m/h.</desc>
<speed>2.590000</speed>
</trkpt>
<trkpt lat="55.980122" lon="26.553701">
<ele>76.979553</ele>
<time>2010-06-20T08:33:38Z</time>
<desc>lat.=55.980122, lon.=26.553701, Alt.=76.979553m. Speed=9.720000m/h.</desc>
<speed>2.700000</speed>
</trkpt>
<trkpt lat="55.980141" lon="26.553724">
<ele>77.217834</ele>
<time>2010-06-20T08:33:39Z</time>
<desc>lat.=55.980141, lon.=26.553724, Alt.=77.217834m. Speed=10.440000m/h.</desc>
<speed>2.900000</speed>
</trkpt>
<trkpt lat="55.980175" lon="26.553747">
<ele>77.692444</ele>
<time>2010-06-20T08:33:40Z</time>
<desc>lat.=55.980175, lon.=26.553747, Alt.=77.692444m. Speed=10.404000m/h.</desc>
<speed>2.890000</speed>
</trkpt>
<trkpt lat="55.980194" lon="26.553768">
<ele>77.778381</ele>
<time>2010-06-20T08:33:41Z</time>
<desc>lat.=55.980194, lon.=26.553768, Alt.=77.778381m. Speed=9.864000m/h.</desc>
<speed>2.740000</speed>
</trkpt>
<trkpt lat="55.980213" lon="26.553797">
<ele>77.872131</ele>
<time>2010-06-20T08:33:42Z</time>
<desc>lat.=55.980213, lon.=26.553797, Alt.=77.872131m. Speed=9.792000m/h.</desc>
<speed>2.720000</speed>
</trkpt>
<trkpt lat="55.980236" lon="26.553818">
<ele>78.008850</ele>
<time>2010-06-20T08:33:43Z</time>
<desc>lat.=55.980236, lon.=26.553818, Alt.=78.008850m. Speed=10.476000m/h.</desc>
<speed>2.910000</speed>
</trkpt>
<trkpt lat="55.980255" lon="26.553837">
<ele>79.311584</ele>
<time>2010-06-20T08:33:44Z</time>
<desc>lat.=55.980255, lon.=26.553837, Alt.=79.311584m. Speed=10.296000m/h.</desc>
<speed>2.860000</speed>
</trkpt>
<trkpt lat="55.980278" lon="26.553862">
<ele>80.702209</ele>
<time>2010-06-20T08:33:45Z</time>
<desc>lat.=55.980278, lon.=26.553862, Alt.=80.702209m. Speed=10.152000m/h.</desc>
<speed>2.820000</speed>
</trkpt>
<trkpt lat="55.980301" lon="26.553885">
<ele>81.426819</ele>
<time>2010-06-20T08:33:46Z</time>
<desc>lat.=55.980301, lon.=26.553885, Alt.=81.426819m. Speed=9.252000m/h.</desc>
<speed>2.570000</speed>
</trkpt>
<trkpt lat="55.980324" lon="26.553902">
<ele>81.557678</ele>
<time>2010-06-20T08:33:47Z</time>
<desc>lat.=55.980324, lon.=26.553902, Alt.=81.557678m. Speed=8.820000m/h.</desc>
<speed>2.450000</speed>
</trkpt>
<trkpt lat="55.980335" lon="26.553919">
<ele>81.860413</ele>
<time>2010-06-20T08:33:48Z</time>
<desc>lat.=55.980335, lon.=26.553919, Alt.=81.860413m. Speed=8.460000m/h.</desc>
<speed>2.350000</speed>
</trkpt>
<trkpt lat="55.980358" lon="26.553940">
<ele>82.879944</ele>
<time>2010-06-20T08:33:49Z</time>
<desc>lat.=55.980358, lon.=26.553940, Alt.=82.879944m. Speed=9.180000m/h.</desc>
<speed>2.550000</speed>
</trkpt>
<trkpt lat="55.980381" lon="26.553959">
<ele>83.729553</ele>
<time>2010-06-20T08:33:50Z</time>
<desc>lat.=55.980381, lon.=26.553959, Alt.=83.729553m. Speed=8.676000m/h.</desc>
<speed>2.410000</speed>
</trkpt>
<trkpt lat="55.980404" lon="26.553970">
<ele>84.557678</ele>
<time>2010-06-20T08:33:51Z</time>
<desc>lat.=55.980404, lon.=26.553970, Alt.=84.557678m. Speed=9.612000m/h.</desc>
<speed>2.670000</speed>
</trkpt>
<trkpt lat="55.980423" lon="26.553980">
<ele>85.083069</ele>
<time>2010-06-20T08:33:52Z</time>
<desc>lat.=55.980423, lon.=26.553980, Alt.=85.083069m. Speed=10.548000m/h.</desc>
<speed>2.930000</speed>
</trkpt>
<trkpt lat="55.980457" lon="26.553993">
<ele>86.319397</ele>
<time>2010-06-20T08:33:53Z</time>
<desc>lat.=55.980457, lon.=26.553993, Alt.=86.319397m. Speed=10.296000m/h.</desc>
<speed>2.860000</speed>
</trkpt>
<trkpt lat="55.980484" lon="26.554003">
<ele>86.971741</ele>
<time>2010-06-20T08:33:54Z</time>
<desc>lat.=55.980484, lon.=26.554003, Alt.=86.971741m. Speed=9.828000m/h.</desc>
<speed>2.730000</speed>
</trkpt>
<trkpt lat="55.980518" lon="26.554022">
<ele>87.985413</ele>
<time>2010-06-20T08:33:55Z</time>
<desc>lat.=55.980518, lon.=26.554022, Alt.=87.985413m. Speed=11.808000m/h.</desc>
<speed>3.280000</speed>
</trkpt>
<trkpt lat="55.980553" lon="26.554035">
<ele>88.133850</ele>
<time>2010-06-20T08:33:56Z</time>
<desc>lat.=55.980553, lon.=26.554035, Alt.=88.133850m. Speed=10.548000m/h.</desc>
<speed>2.930000</speed>
</trkpt>
<trkpt lat="55.980576" lon="26.554045">
<ele>88.190491</ele>
<time>2010-06-20T08:33:57Z</time>
<desc>lat.=55.980576, lon.=26.554045, Alt.=88.190491m. Speed=8.784000m/h.</desc>
<speed>2.440000</speed>
</trkpt>
<trkpt lat="55.980595" lon="26.554054">
<ele>88.167053</ele>
<time>2010-06-20T08:33:58Z</time>
<desc>lat.=55.980595, lon.=26.554054, Alt.=88.167053m. Speed=8.028000m/h.</desc>
<speed>2.230000</speed>
</trkpt>
<trkpt lat="55.980614" lon="26.554062">
<ele>88.188538</ele>
<time>2010-06-20T08:33:59Z</time>
<desc>lat.=55.980614, lon.=26.554062, Alt.=88.188538m. Speed=8.604000m/h.</desc>
<speed>2.390000</speed>
</trkpt>
<trkpt lat="55.980640" lon="26.554075">
<ele>88.280334</ele>
<time>2010-06-20T08:34:00Z</time>
<desc>lat.=55.980640, lon.=26.554075, Alt.=88.280334m. Speed=9.216000m/h.</desc>
<speed>2.560000</speed>
</trkpt>
<trkpt lat="55.980656" lon="26.554089">
<ele>88.370178</ele>
<time>2010-06-20T08:34:01Z</time>
<desc>lat.=55.980656, lon.=26.554089, Alt.=88.370178m. Speed=7.020000m/h.</desc>
<speed>1.950000</speed>
</trkpt>
<trkpt lat="55.980679" lon="26.554100">
<ele>88.877991</ele>
<time>2010-06-20T08:34:02Z</time>
<desc>lat.=55.980679, lon.=26.554100, Alt.=88.877991m. Speed=8.172000m/h.</desc>
<speed>2.270000</speed>
</trkpt>
<trkpt lat="55.980705" lon="26.554111">
<ele>89.270569</ele>
<time>2010-06-20T08:34:03Z</time>
<desc>lat.=55.980705, lon.=26.554111, Alt.=89.270569m. Speed=8.748000m/h.</desc>
<speed>2.430000</speed>
</trkpt>
<trkpt lat="55.980721" lon="26.554119">
<ele>89.508850</ele>
<time>2010-06-20T08:34:04Z</time>
<desc>lat.=55.980721, lon.=26.554119, Alt.=89.508850m. Speed=7.632000m/h.</desc>
<speed>2.120000</speed>
</trkpt>
<trkpt lat="55.980743" lon="26.554134">
<ele>90.067444</ele>
<time>2010-06-20T08:34:05Z</time>
<desc>lat.=55.980743, lon.=26.554134, Alt.=90.067444m. Speed=8.604000m/h.</desc>
<speed>2.390000</speed>
</trkpt>
<trkpt lat="55.980770" lon="26.554148">
<ele>90.444397</ele>
<time>2010-06-20T08:34:06Z</time>
<desc>lat.=55.980770, lon.=26.554148, Alt.=90.444397m. Speed=8.388000m/h.</desc>
<speed>2.330000</speed>
</trkpt>
<trkpt lat="55.980778" lon="26.554163">
<ele>91.350647</ele>
<time>2010-06-20T08:34:07Z</time>
<desc>lat.=55.980778, lon.=26.554163, Alt.=91.350647m. Speed=10.404000m/h.</desc>
<speed>2.890000</speed>
</trkpt>
<trkpt lat="55.980801" lon="26.554182">
<ele>91.303772</ele>
<time>2010-06-20T08:34:08Z</time>
<desc>lat.=55.980801, lon.=26.554182, Alt.=91.303772m. Speed=10.296000m/h.</desc>
<speed>2.860000</speed>
</trkpt>
<trkpt lat="55.980820" lon="26.554205">
<ele>91.946350</ele>
<time>2010-06-20T08:34:09Z</time>
<desc>lat.=55.980820, lon.=26.554205, Alt.=91.946350m. Speed=9.612000m/h.</desc>
<speed>2.670000</speed>
</trkpt>
<trkpt lat="55.980843" lon="26.554226">
<ele>91.954163</ele>
<time>2010-06-20T08:34:10Z</time>
<desc>lat.=55.980843, lon.=26.554226, Alt.=91.954163m. Speed=9.324000m/h.</desc>
<speed>2.590000</speed>
</trkpt>
<trkpt lat="55.980854" lon="26.554245">
<ele>92.458069</ele>
<time>2010-06-20T08:34:11Z</time>
<desc>lat.=55.980854, lon.=26.554245, Alt.=92.458069m. Speed=10.296000m/h.</desc>
<speed>2.860000</speed>
</trkpt>
<trkpt lat="55.980881" lon="26.554268">
<ele>92.213928</ele>
<time>2010-06-20T08:34:12Z</time>
<desc>lat.=55.980881, lon.=26.554268, Alt.=92.213928m. Speed=10.764000m/h.</desc>
<speed>2.990000</speed>
</trkpt>
<trkpt lat="55.980904" lon="26.554291">
<ele>93.133850</ele>
<time>2010-06-20T08:34:13Z</time>
<desc>lat.=55.980904, lon.=26.554291, Alt.=93.133850m. Speed=10.404000m/h.</desc>
<speed>2.890000</speed>
</trkpt>
<trkpt lat="55.980927" lon="26.554308">
<ele>93.850647</ele>
<time>2010-06-20T08:34:14Z</time>
<desc>lat.=55.980927, lon.=26.554308, Alt.=93.850647m. Speed=9.360000m/h.</desc>
<speed>2.600000</speed>
</trkpt>
<trkpt lat="55.980942" lon="26.554327">
<ele>94.864319</ele>
<time>2010-06-20T08:34:15Z</time>
<desc>lat.=55.980942, lon.=26.554327, Alt.=94.864319m. Speed=9.432000m/h.</desc>
<speed>2.620000</speed>
</trkpt>
<trkpt lat="55.980968" lon="26.554342">
<ele>95.215881</ele>
<time>2010-06-20T08:34:16Z</time>
<desc>lat.=55.980968, lon.=26.554342, Alt.=95.215881m. Speed=9.900000m/h.</desc>
<speed>2.750000</speed>
</trkpt>
<trkpt lat="55.980991" lon="26.554361">
<ele>95.645569</ele>
<time>2010-06-20T08:34:17Z</time>
<desc>lat.=55.980991, lon.=26.554361, Alt.=95.645569m. Speed=9.900000m/h.</desc>
<speed>2.750000</speed>
</trkpt>
<trkpt lat="55.981014" lon="26.554380">
<ele>96.749084</ele>
<time>2010-06-20T08:34:18Z</time>
<desc>lat.=55.981014, lon.=26.554380, Alt.=96.749084m. Speed=9.108000m/h.</desc>
<speed>2.530000</speed>
</trkpt>
<trkpt lat="55.981033" lon="26.554403">
<ele>96.981506</ele>
<time>2010-06-20T08:34:19Z</time>
<desc>lat.=55.981033, lon.=26.554403, Alt.=96.981506m. Speed=9.252000m/h.</desc>
<speed>2.570000</speed>
</trkpt>
<trkpt lat="55.981056" lon="26.554424">
<ele>96.950256</ele>
<time>2010-06-20T08:34:20Z</time>
<desc>lat.=55.981056, lon.=26.554424, Alt.=96.950256m. Speed=10.188000m/h.</desc>
<speed>2.830000</speed>
</trkpt>
<trkpt lat="55.981083" lon="26.554440">
<ele>97.116272</ele>
<time>2010-06-20T08:34:21Z</time>
<desc>lat.=55.981083, lon.=26.554440, Alt.=97.116272m. Speed=9.540000m/h.</desc>
<speed>2.650000</speed>
</trkpt>
<trkpt lat="55.981106" lon="26.554459">
<ele>97.268616</ele>
<time>2010-06-20T08:34:22Z</time>
<desc>lat.=55.981106, lon.=26.554459, Alt.=97.268616m. Speed=9.252000m/h.</desc>
<speed>2.570000</speed>
</trkpt>
<trkpt lat="55.981125" lon="26.554478">
<ele>97.413147</ele>
<time>2010-06-20T08:34:23Z</time>
<desc>lat.=55.981125, lon.=26.554478, Alt.=97.413147m. Speed=8.856000m/h.</desc>
<speed>2.460000</speed>
</trkpt>
<trkpt lat="55.981144" lon="26.554493">
<ele>97.524475</ele>
<time>2010-06-20T08:34:24Z</time>
<desc>lat.=55.981144, lon.=26.554493, Alt.=97.524475m. Speed=9.000000m/h.</desc>
<speed>2.500000</speed>
</trkpt>
<trkpt lat="55.981163" lon="26.554512">
<ele>97.733459</ele>
<time>2010-06-20T08:34:25Z</time>
<desc>lat.=55.981163, lon.=26.554512, Alt.=97.733459m. Speed=9.324000m/h.</desc>
<speed>2.590000</speed>
</trkpt>
<trkpt lat="55.981178" lon="26.554529">
<ele>97.608459</ele>
<time>2010-06-20T08:34:26Z</time>
<desc>lat.=55.981178, lon.=26.554529, Alt.=97.608459m. Speed=8.676000m/h.</desc>
<speed>2.410000</speed>
</trkpt>
<trkpt lat="55.981197" lon="26.554546">
<ele>98.536194</ele>
<time>2010-06-20T08:34:27Z</time>
<desc>lat.=55.981197, lon.=26.554546, Alt.=98.536194m. Speed=7.848000m/h.</desc>
<speed>2.180000</speed>
</trkpt>
<trkpt lat="55.981216" lon="26.554565">
<ele>98.413147</ele>
<time>2010-06-20T08:34:28Z</time>
<desc>lat.=55.981216, lon.=26.554565, Alt.=98.413147m. Speed=9.000000m/h.</desc>
<speed>2.500000</speed>
</trkpt>
<trkpt lat="55.981239" lon="26.554581">
<ele>98.530334</ele>
<time>2010-06-20T08:34:29Z</time>
<desc>lat.=55.981239, lon.=26.554581, Alt.=98.530334m. Speed=8.064000m/h.</desc>
<speed>2.240000</speed>
</trkpt>
<trkpt lat="55.981258" lon="26.554600">
<ele>98.331116</ele>
<time>2010-06-20T08:34:30Z</time>
<desc>lat.=55.981258, lon.=26.554600, Alt.=98.331116m. Speed=8.676000m/h.</desc>
<speed>2.410000</speed>
</trkpt>
<trkpt lat="55.981277" lon="26.554617">
<ele>98.213928</ele>
<time>2010-06-20T08:34:31Z</time>
<desc>lat.=55.981277, lon.=26.554617, Alt.=98.213928m. Speed=9.612000m/h.</desc>
<speed>2.670000</speed>
</trkpt>
<trkpt lat="55.981300" lon="26.554632">
<ele>98.629944</ele>
<time>2010-06-20T08:34:32Z</time>
<desc>lat.=55.981300, lon.=26.554632, Alt.=98.629944m. Speed=8.028000m/h.</desc>
<speed>2.230000</speed>
</trkpt>
<trkpt lat="55.981316" lon="26.554642">
<ele>99.034241</ele>
<time>2010-06-20T08:34:33Z</time>
<desc>lat.=55.981316, lon.=26.554642, Alt.=99.034241m. Speed=6.876000m/h.</desc>
<speed>1.910000</speed>
</trkpt>
<trkpt lat="55.981323" lon="26.554657">
<ele>99.161194</ele>
<time>2010-06-20T08:34:34Z</time>
<desc>lat.=55.981323, lon.=26.554657, Alt.=99.161194m. Speed=7.812000m/h.</desc>
<speed>2.170000</speed>
</trkpt>
<trkpt lat="55.981339" lon="26.554672">
<ele>99.272522</ele>
<time>2010-06-20T08:34:35Z</time>
<desc>lat.=55.981339, lon.=26.554672, Alt.=99.272522m. Speed=7.884000m/h.</desc>
<speed>2.190000</speed>
</trkpt>
<trkpt lat="55.981354" lon="26.554684">
<ele>99.614319</ele>
<time>2010-06-20T08:34:36Z</time>
<desc>lat.=55.981354, lon.=26.554684, Alt.=99.614319m. Speed=6.696000m/h.</desc>
<speed>1.860000</speed>
</trkpt>
<trkpt lat="55.981369" lon="26.554697">
<ele>99.846741</ele>
<time>2010-06-20T08:34:37Z</time>
<desc>lat.=55.981369, lon.=26.554697, Alt.=99.846741m. Speed=6.300000m/h.</desc>
<speed>1.750000</speed>
</trkpt>
<trkpt lat="55.981384" lon="26.554710">
<ele>100.194397</ele>
<time>2010-06-20T08:34:38Z</time>
<desc>lat.=55.981384, lon.=26.554710, Alt.=100.194397m. Speed=7.380000m/h.</desc>
<speed>2.050000</speed>
</trkpt>
<trkpt lat="55.981396" lon="26.554722">
<ele>100.241272</ele>
<time>2010-06-20T08:34:39Z</time>
<desc>lat.=55.981396, lon.=26.554722, Alt.=100.241272m. Speed=8.136000m/h.</desc>
<speed>2.260000</speed>
</trkpt>
<trkpt lat="55.981411" lon="26.554735">
<ele>100.620178</ele>
<time>2010-06-20T08:34:40Z</time>
<desc>lat.=55.981411, lon.=26.554735, Alt.=100.620178m. Speed=7.812000m/h.</desc>
<speed>2.170000</speed>
</trkpt>
<trkpt lat="55.981426" lon="26.554749">
<ele>100.604553</ele>
<time>2010-06-20T08:34:41Z</time>
<desc>lat.=55.981426, lon.=26.554749, Alt.=100.604553m. Speed=7.992000m/h.</desc>
<speed>2.220000</speed>
</trkpt>
<trkpt lat="55.981445" lon="26.554766">
<ele>101.772522</ele>
<time>2010-06-20T08:34:42Z</time>
<desc>lat.=55.981445, lon.=26.554766, Alt.=101.772522m. Speed=8.280000m/h.</desc>
<speed>2.300000</speed>
</trkpt>
<trkpt lat="55.981461" lon="26.554781">
<ele>101.903381</ele>
<time>2010-06-20T08:34:43Z</time>
<desc>lat.=55.981461, lon.=26.554781, Alt.=101.903381m. Speed=7.380000m/h.</desc>
<speed>2.050000</speed>
</trkpt>
<trkpt lat="55.981483" lon="26.554798">
<ele>101.973694</ele>
<time>2010-06-20T08:34:44Z</time>
<desc>lat.=55.981483, lon.=26.554798, Alt.=101.973694m. Speed=8.280000m/h.</desc>
<speed>2.300000</speed>
</trkpt>
<trkpt lat="55.981503" lon="26.554806">
<ele>101.790100</ele>
<time>2010-06-20T08:34:45Z</time>
<desc>lat.=55.981503, lon.=26.554806, Alt.=101.790100m. Speed=7.848000m/h.</desc>
<speed>2.180000</speed>
</trkpt>
<trkpt lat="55.981522" lon="26.554819">
<ele>100.751038</ele>
<time>2010-06-20T08:34:46Z</time>
<desc>lat.=55.981522, lon.=26.554819, Alt.=100.751038m. Speed=8.748000m/h.</desc>
<speed>2.430000</speed>
</trkpt>
<trkpt lat="55.981544" lon="26.554838">
<ele>100.581116</ele>
<time>2010-06-20T08:34:47Z</time>
<desc>lat.=55.981544, lon.=26.554838, Alt.=100.581116m. Speed=9.648000m/h.</desc>
<speed>2.680000</speed>
</trkpt>
<trkpt lat="55.981571" lon="26.554859">
<ele>100.920959</ele>
<time>2010-06-20T08:34:48Z</time>
<desc>lat.=55.981571, lon.=26.554859, Alt.=100.920959m. Speed=10.008000m/h.</desc>
<speed>2.780000</speed>
</trkpt>
<trkpt lat="55.981594" lon="26.554873">
<ele>100.719788</ele>
<time>2010-06-20T08:34:49Z</time>
<desc>lat.=55.981594, lon.=26.554873, Alt.=100.719788m. Speed=9.180000m/h.</desc>
<speed>2.550000</speed>
</trkpt>
<trkpt lat="55.981606" lon="26.554888">
<ele>101.131897</ele>
<time>2010-06-20T08:34:50Z</time>
<desc>lat.=55.981606, lon.=26.554888, Alt.=101.131897m. Speed=9.144000m/h.</desc>
<speed>2.540000</speed>
</trkpt>
<trkpt lat="55.981617" lon="26.554905">
<ele>101.438538</ele>
<time>2010-06-20T08:34:51Z</time>
<desc>lat.=55.981617, lon.=26.554905, Alt.=101.438538m. Speed=8.676000m/h.</desc>
<speed>2.410000</speed>
</trkpt>
<trkpt lat="55.981636" lon="26.554924">
<ele>101.135803</ele>
<time>2010-06-20T08:34:52Z</time>
<desc>lat.=55.981636, lon.=26.554924, Alt.=101.135803m. Speed=10.548000m/h.</desc>
<speed>2.930000</speed>
</trkpt>
<trkpt lat="55.981659" lon="26.554941">
<ele>101.106506</ele>
<time>2010-06-20T08:34:53Z</time>
<desc>lat.=55.981659, lon.=26.554941, Alt.=101.106506m. Speed=10.116000m/h.</desc>
<speed>2.810000</speed>
</trkpt>
<trkpt lat="55.981678" lon="26.554956">
<ele>101.303772</ele>
<time>2010-06-20T08:34:54Z</time>
<desc>lat.=55.981678, lon.=26.554956, Alt.=101.303772m. Speed=8.928000m/h.</desc>
<speed>2.480000</speed>
</trkpt>
<trkpt lat="55.981701" lon="26.554977">
<ele>102.192444</ele>
<time>2010-06-20T08:34:55Z</time>
<desc>lat.=55.981701, lon.=26.554977, Alt.=102.192444m. Speed=9.072000m/h.</desc>
<speed>2.520000</speed>
</trkpt>
<trkpt lat="55.981724" lon="26.554996">
<ele>101.819397</ele>
<time>2010-06-20T08:34:56Z</time>
<desc>lat.=55.981724, lon.=26.554996, Alt.=101.819397m. Speed=9.396000m/h.</desc>
<speed>2.610000</speed>
</trkpt>
<trkpt lat="55.981747" lon="26.555017">
<ele>101.596741</ele>
<time>2010-06-20T08:34:57Z</time>
<desc>lat.=55.981747, lon.=26.555017, Alt.=101.596741m. Speed=11.016000m/h.</desc>
<speed>3.060000</speed>
</trkpt>
<trkpt lat="55.981773" lon="26.555040">
<ele>101.329163</ele>
<time>2010-06-20T08:34:58Z</time>
<desc>lat.=55.981773, lon.=26.555040, Alt.=101.329163m. Speed=10.584000m/h.</desc>
<speed>2.940000</speed>
</trkpt>
<trkpt lat="55.981796" lon="26.555061">
<ele>101.256897</ele>
<time>2010-06-20T08:34:59Z</time>
<desc>lat.=55.981796, lon.=26.555061, Alt.=101.256897m. Speed=9.252000m/h.</desc>
<speed>2.570000</speed>
</trkpt>
<trkpt lat="55.981819" lon="26.555075">
<ele>101.153381</ele>
<time>2010-06-20T08:35:00Z</time>
<desc>lat.=55.981819, lon.=26.555075, Alt.=101.153381m. Speed=8.820000m/h.</desc>
<speed>2.450000</speed>
</trkpt>
<trkpt lat="55.981838" lon="26.555088">
<ele>100.883850</ele>
<time>2010-06-20T08:35:01Z</time>
<desc>lat.=55.981838, lon.=26.555088, Alt.=100.883850m. Speed=9.756000m/h.</desc>
<speed>2.710000</speed>
</trkpt>
<trkpt lat="55.981861" lon="26.555107">
<ele>100.700256</ele>
<time>2010-06-20T08:35:02Z</time>
<desc>lat.=55.981861, lon.=26.555107, Alt.=100.700256m. Speed=8.496000m/h.</desc>
<speed>2.360000</speed>
</trkpt>
<trkpt lat="55.981880" lon="26.555124">
<ele>100.629944</ele>
<time>2010-06-20T08:35:03Z</time>
<desc>lat.=55.981880, lon.=26.555124, Alt.=100.629944m. Speed=8.676000m/h.</desc>
<speed>2.410000</speed>
</trkpt>
<trkpt lat="55.981895" lon="26.555140">
<ele>101.139709</ele>
<time>2010-06-20T08:35:04Z</time>
<desc>lat.=55.981895, lon.=26.555140, Alt.=101.139709m. Speed=8.316000m/h.</desc>
<speed>2.310000</speed>
</trkpt>
<trkpt lat="55.981911" lon="26.555164">
<ele>101.083069</ele>
<time>2010-06-20T08:35:05Z</time>
<desc>lat.=55.981911, lon.=26.555164, Alt.=101.083069m. Speed=8.208000m/h.</desc>
<speed>2.280000</speed>
</trkpt>
<trkpt lat="55.981926" lon="26.555178">
<ele>99.963928</ele>
<time>2010-06-20T08:35:06Z</time>
<desc>lat.=55.981926, lon.=26.555178, Alt.=99.963928m. Speed=8.244000m/h.</desc>
<speed>2.290000</speed>
</trkpt>
<trkpt lat="55.981937" lon="26.555195">
<ele>100.379944</ele>
<time>2010-06-20T08:35:07Z</time>
<desc>lat.=55.981937, lon.=26.555195, Alt.=100.379944m. Speed=8.712000m/h.</desc>
<speed>2.420000</speed>
</trkpt>
<trkpt lat="55.981956" lon="26.555218">
<ele>100.663147</ele>
<time>2010-06-20T08:35:08Z</time>
<desc>lat.=55.981956, lon.=26.555218, Alt.=100.663147m. Speed=9.036000m/h.</desc>
<speed>2.510000</speed>
</trkpt>
<trkpt lat="55.981979" lon="26.555243">
<ele>100.981506</ele>
<time>2010-06-20T08:35:09Z</time>
<desc>lat.=55.981979, lon.=26.555243, Alt.=100.981506m. Speed=9.216000m/h.</desc>
<speed>2.560000</speed>
</trkpt>
<trkpt lat="55.981998" lon="26.555264">
<ele>101.096741</ele>
<time>2010-06-20T08:35:10Z</time>
<desc>lat.=55.981998, lon.=26.555264, Alt.=101.096741m. Speed=9.252000m/h.</desc>
<speed>2.570000</speed>
</trkpt>
<trkpt lat="55.982014" lon="26.555288">
<ele>101.090881</ele>
<time>2010-06-20T08:35:11Z</time>
<desc>lat.=55.982014, lon.=26.555288, Alt.=101.090881m. Speed=9.108000m/h.</desc>
<speed>2.530000</speed>
</trkpt>
<trkpt lat="55.982037" lon="26.555305">
<ele>100.987366</ele>
<time>2010-06-20T08:35:12Z</time>
<desc>lat.=55.982037, lon.=26.555305, Alt.=100.987366m. Speed=8.640000m/h.</desc>
<speed>2.400000</speed>
</trkpt>
<trkpt lat="55.982059" lon="26.555326">
<ele>100.317444</ele>
<time>2010-06-20T08:35:13Z</time>
<desc>lat.=55.982059, lon.=26.555326, Alt.=100.317444m. Speed=8.388000m/h.</desc>
<speed>2.330000</speed>
</trkpt>
<trkpt lat="55.982075" lon="26.555346">
<ele>99.909241</ele>
<time>2010-06-20T08:35:14Z</time>
<desc>lat.=55.982075, lon.=26.555346, Alt.=99.909241m. Speed=8.460000m/h.</desc>
<speed>2.350000</speed>
</trkpt>
<trkpt lat="55.982094" lon="26.555370">
<ele>99.557678</ele>
<time>2010-06-20T08:35:15Z</time>
<desc>lat.=55.982094, lon.=26.555370, Alt.=99.557678m. Speed=8.460000m/h.</desc>
<speed>2.350000</speed>
</trkpt>
<trkpt lat="55.982113" lon="26.555393">
<ele>99.479553</ele>
<time>2010-06-20T08:35:16Z</time>
<desc>lat.=55.982113, lon.=26.555393, Alt.=99.479553m. Speed=8.748000m/h.</desc>
<speed>2.430000</speed>
</trkpt>
<trkpt lat="55.982132" lon="26.555414">
<ele>99.776428</ele>
<time>2010-06-20T08:35:17Z</time>
<desc>lat.=55.982132, lon.=26.555414, Alt.=99.776428m. Speed=9.144000m/h.</desc>
<speed>2.540000</speed>
</trkpt>
<trkpt lat="55.982147" lon="26.555435">
<ele>100.045959</ele>
<time>2010-06-20T08:35:18Z</time>
<desc>lat.=55.982147, lon.=26.555435, Alt.=100.045959m. Speed=9.396000m/h.</desc>
<speed>2.610000</speed>
</trkpt>
<trkpt lat="55.982170" lon="26.555458">
<ele>100.473694</ele>
<time>2010-06-20T08:35:19Z</time>
<desc>lat.=55.982170, lon.=26.555458, Alt.=100.473694m. Speed=9.864000m/h.</desc>
<speed>2.740000</speed>
</trkpt>
<trkpt lat="55.982193" lon="26.555485">
<ele>100.770569</ele>
<time>2010-06-20T08:35:20Z</time>
<desc>lat.=55.982193, lon.=26.555485, Alt.=100.770569m. Speed=10.476000m/h.</desc>
<speed>2.910000</speed>
</trkpt>
<trkpt lat="55.982212" lon="26.555511">
<ele>100.708069</ele>
<time>2010-06-20T08:35:21Z</time>
<desc>lat.=55.982212, lon.=26.555511, Alt.=100.708069m. Speed=10.836000m/h.</desc>
<speed>3.010000</speed>
</trkpt>
<trkpt lat="55.982235" lon="26.555538">
<ele>100.336975</ele>
<time>2010-06-20T08:35:22Z</time>
<desc>lat.=55.982235, lon.=26.555538, Alt.=100.336975m. Speed=9.324000m/h.</desc>
<speed>2.590000</speed>
</trkpt>
<trkpt lat="55.982254" lon="26.555561">
<ele>100.901428</ele>
<time>2010-06-20T08:35:23Z</time>
<desc>lat.=55.982254, lon.=26.555561, Alt.=100.901428m. Speed=9.000000m/h.</desc>
<speed>2.500000</speed>
</trkpt>
<trkpt lat="55.982273" lon="26.555590">
<ele>100.831116</ele>
<time>2010-06-20T08:35:24Z</time>
<desc>lat.=55.982273, lon.=26.555590, Alt.=100.831116m. Speed=9.972000m/h.</desc>
<speed>2.770000</speed>
</trkpt>
<trkpt lat="55.982296" lon="26.555614">
<ele>100.536194</ele>
<time>2010-06-20T08:35:25Z</time>
<desc>lat.=55.982296, lon.=26.555614, Alt.=100.536194m. Speed=10.116000m/h.</desc>
<speed>2.810000</speed>
</trkpt>
<trkpt lat="55.982315" lon="26.555641">
<ele>100.393616</ele>
<time>2010-06-20T08:35:26Z</time>
<desc>lat.=55.982315, lon.=26.555641, Alt.=100.393616m. Speed=10.188000m/h.</desc>
<speed>2.830000</speed>
</trkpt>
<trkpt lat="55.982334" lon="26.555668">
<ele>100.192444</ele>
<time>2010-06-20T08:35:27Z</time>
<desc>lat.=55.982334, lon.=26.555668, Alt.=100.192444m. Speed=10.404000m/h.</desc>
<speed>2.890000</speed>
</trkpt>
<trkpt lat="55.982357" lon="26.555691">
<ele>100.100647</ele>
<time>2010-06-20T08:35:28Z</time>
<desc>lat.=55.982357, lon.=26.555691, Alt.=100.100647m. Speed=8.712000m/h.</desc>
<speed>2.420000</speed>
</trkpt>
<trkpt lat="55.982376" lon="26.555719">
<ele>99.073303</ele>
<time>2010-06-20T08:35:29Z</time>
<desc>lat.=55.982376, lon.=26.555719, Alt.=99.073303m. Speed=9.792000m/h.</desc>
<speed>2.720000</speed>
</trkpt>
<trkpt lat="55.982399" lon="26.555744">
<ele>99.237366</ele>
<time>2010-06-20T08:35:30Z</time>
<desc>lat.=55.982399, lon.=26.555744, Alt.=99.237366m. Speed=9.540000m/h.</desc>
<speed>2.650000</speed>
</trkpt>
<trkpt lat="55.982418" lon="26.555765">
<ele>99.036194</ele>
<time>2010-06-20T08:35:31Z</time>
<desc>lat.=55.982418, lon.=26.555765, Alt.=99.036194m. Speed=8.964000m/h.</desc>
<speed>2.490000</speed>
</trkpt>
<trkpt lat="55.982441" lon="26.555790">
<ele>98.575256</ele>
<time>2010-06-20T08:35:32Z</time>
<desc>lat.=55.982441, lon.=26.555790, Alt.=98.575256m. Speed=8.892000m/h.</desc>
<speed>2.470000</speed>
</trkpt>
<trkpt lat="55.982460" lon="26.555809">
<ele>98.956116</ele>
<time>2010-06-20T08:35:33Z</time>
<desc>lat.=55.982460, lon.=26.555809, Alt.=98.956116m. Speed=8.784000m/h.</desc>
<speed>2.440000</speed>
</trkpt>
<trkpt lat="55.982483" lon="26.555832">
<ele>98.528381</ele>
<time>2010-06-20T08:35:34Z</time>
<desc>lat.=55.982483, lon.=26.555832, Alt.=98.528381m. Speed=9.828000m/h.</desc>
<speed>2.730000</speed>
</trkpt>
<trkpt lat="55.982506" lon="26.555855">
<ele>98.286194</ele>
<time>2010-06-20T08:35:35Z</time>
<desc>lat.=55.982506, lon.=26.555855, Alt.=98.286194m. Speed=9.216000m/h.</desc>
<speed>2.560000</speed>
</trkpt>
<trkpt lat="55.982529" lon="26.555874">
<ele>98.042053</ele>
<time>2010-06-20T08:35:36Z</time>
<desc>lat.=55.982529, lon.=26.555874, Alt.=98.042053m. Speed=8.136000m/h.</desc>
<speed>2.260000</speed>
</trkpt>
<trkpt lat="55.982548" lon="26.555893">
<ele>98.042053</ele>
<time>2010-06-20T08:35:37Z</time>
<desc>lat.=55.982548, lon.=26.555893, Alt.=98.042053m. Speed=8.460000m/h.</desc>
<speed>2.350000</speed>
</trkpt>
<trkpt lat="55.982563" lon="26.555906">
<ele>98.172913</ele>
<time>2010-06-20T08:35:38Z</time>
<desc>lat.=55.982563, lon.=26.555906, Alt.=98.172913m. Speed=8.640000m/h.</desc>
<speed>2.400000</speed>
</trkpt>
<trkpt lat="55.982582" lon="26.555925">
<ele>98.524475</ele>
<time>2010-06-20T08:35:39Z</time>
<desc>lat.=55.982582, lon.=26.555925, Alt.=98.524475m. Speed=8.532000m/h.</desc>
<speed>2.370000</speed>
</trkpt>
<trkpt lat="55.982605" lon="26.555946">
<ele>98.776428</ele>
<time>2010-06-20T08:35:40Z</time>
<desc>lat.=55.982605, lon.=26.555946, Alt.=98.776428m. Speed=8.604000m/h.</desc>
<speed>2.390000</speed>
</trkpt>
<trkpt lat="55.982624" lon="26.555964">
<ele>98.866272</ele>
<time>2010-06-20T08:35:41Z</time>
<desc>lat.=55.982624, lon.=26.555964, Alt.=98.866272m. Speed=8.136000m/h.</desc>
<speed>2.260000</speed>
</trkpt>
<trkpt lat="55.982643" lon="26.555984">
<ele>99.096741</ele>
<time>2010-06-20T08:35:42Z</time>
<desc>lat.=55.982643, lon.=26.555984, Alt.=99.096741m. Speed=9.684000m/h.</desc>
<speed>2.690000</speed>
</trkpt>
<trkpt lat="55.982674" lon="26.556002">
<ele>99.422913</ele>
<time>2010-06-20T08:35:43Z</time>
<desc>lat.=55.982674, lon.=26.556002, Alt.=99.422913m. Speed=9.396000m/h.</desc>
<speed>2.610000</speed>
</trkpt>
<trkpt lat="55.982693" lon="26.556025">
<ele>99.016663</ele>
<time>2010-06-20T08:35:44Z</time>
<desc>lat.=55.982693, lon.=26.556025, Alt.=99.016663m. Speed=8.244000m/h.</desc>
<speed>2.290000</speed>
</trkpt>
<trkpt lat="55.982719" lon="26.556046">
<ele>98.557678</ele>
<time>2010-06-20T08:35:45Z</time>
<desc>lat.=55.982719, lon.=26.556046, Alt.=98.557678m. Speed=8.460000m/h.</desc>
<speed>2.350000</speed>
</trkpt>
<trkpt lat="55.982738" lon="26.556059">
<ele>98.422913</ele>
<time>2010-06-20T08:35:46Z</time>
<desc>lat.=55.982738, lon.=26.556059, Alt.=98.422913m. Speed=9.720000m/h.</desc>
<speed>2.700000</speed>
</trkpt>
<trkpt lat="55.982761" lon="26.556074">
<ele>98.590881</ele>
<time>2010-06-20T08:35:47Z</time>
<desc>lat.=55.982761, lon.=26.556074, Alt.=98.590881m. Speed=9.972000m/h.</desc>
<speed>2.770000</speed>
</trkpt>
<trkpt lat="55.982777" lon="26.556087">
<ele>98.586975</ele>
<time>2010-06-20T08:35:48Z</time>
<desc>lat.=55.982777, lon.=26.556087, Alt.=98.586975m. Speed=8.208000m/h.</desc>
<speed>2.280000</speed>
</trkpt>
<trkpt lat="55.982792" lon="26.556101">
<ele>98.536194</ele>
<time>2010-06-20T08:35:49Z</time>
<desc>lat.=55.982792, lon.=26.556101, Alt.=98.536194m. Speed=7.236000m/h.</desc>
<speed>2.010000</speed>
</trkpt>
<trkpt lat="55.982815" lon="26.556110">
<ele>98.626038</ele>
<time>2010-06-20T08:35:50Z</time>
<desc>lat.=55.982815, lon.=26.556110, Alt.=98.626038m. Speed=7.884000m/h.</desc>
<speed>2.190000</speed>
</trkpt>
<trkpt lat="55.982838" lon="26.556120">
<ele>98.629944</ele>
<time>2010-06-20T08:35:51Z</time>
<desc>lat.=55.982838, lon.=26.556120, Alt.=98.629944m. Speed=8.316000m/h.</desc>
<speed>2.310000</speed>
</trkpt>
<trkpt lat="55.982853" lon="26.556131">
<ele>97.446350</ele>
<time>2010-06-20T08:35:52Z</time>
<desc>lat.=55.982853, lon.=26.556131, Alt.=97.446350m. Speed=6.516000m/h.</desc>
<speed>1.810000</speed>
</trkpt>
<trkpt lat="55.982853" lon="26.556143">
<ele>97.944397</ele>
<time>2010-06-20T08:35:53Z</time>
<desc>lat.=55.982853, lon.=26.556143, Alt.=97.944397m. Speed=5.328000m/h.</desc>
<speed>1.480000</speed>
</trkpt>
<trkpt lat="55.982868" lon="26.556154">
<ele>97.448303</ele>
<time>2010-06-20T08:35:54Z</time>
<desc>lat.=55.982868, lon.=26.556154, Alt.=97.448303m. Speed=6.084000m/h.</desc>
<speed>1.690000</speed>
</trkpt>
<trkpt lat="55.982883" lon="26.556168">
<ele>97.815491</ele>
<time>2010-06-20T08:35:55Z</time>
<desc>lat.=55.982883, lon.=26.556168, Alt.=97.815491m. Speed=7.524000m/h.</desc>
<speed>2.090000</speed>
</trkpt>
<trkpt lat="55.982899" lon="26.556181">
<ele>97.821350</ele>
<time>2010-06-20T08:35:56Z</time>
<desc>lat.=55.982899, lon.=26.556181, Alt.=97.821350m. Speed=8.028000m/h.</desc>
<speed>2.230000</speed>
</trkpt>
<trkpt lat="55.982922" lon="26.556196">
<ele>97.635803</ele>
<time>2010-06-20T08:35:57Z</time>
<desc>lat.=55.982922, lon.=26.556196, Alt.=97.635803m. Speed=7.128000m/h.</desc>
<speed>1.980000</speed>
</trkpt>
<trkpt lat="55.982944" lon="26.556206">
<ele>97.614319</ele>
<time>2010-06-20T08:35:58Z</time>
<desc>lat.=55.982944, lon.=26.556206, Alt.=97.614319m. Speed=8.712000m/h.</desc>
<speed>2.420000</speed>
</trkpt>
<trkpt lat="55.982964" lon="26.556217">
<ele>97.670959</ele>
<time>2010-06-20T08:35:59Z</time>
<desc>lat.=55.982964, lon.=26.556217, Alt.=97.670959m. Speed=8.316000m/h.</desc>
<speed>2.310000</speed>
</trkpt>
<trkpt lat="55.982990" lon="26.556232">
<ele>97.567444</ele>
<time>2010-06-20T08:36:00Z</time>
<desc>lat.=55.982990, lon.=26.556232, Alt.=97.567444m. Speed=9.792000m/h.</desc>
<speed>2.720000</speed>
</trkpt>
<trkpt lat="55.983009" lon="26.556242">
<ele>97.268616</ele>
<time>2010-06-20T08:36:01Z</time>
<desc>lat.=55.983009, lon.=26.556242, Alt.=97.268616m. Speed=7.884000m/h.</desc>
<speed>2.190000</speed>
</trkpt>
<trkpt lat="55.983032" lon="26.556252">
<ele>97.223694</ele>
<time>2010-06-20T08:36:02Z</time>
<desc>lat.=55.983032, lon.=26.556252, Alt.=97.223694m. Speed=7.812000m/h.</desc>
<speed>2.170000</speed>
</trkpt>
<trkpt lat="55.983044" lon="26.556261">
<ele>96.993225</ele>
<time>2010-06-20T08:36:03Z</time>
<desc>lat.=55.983044, lon.=26.556261, Alt.=96.993225m. Speed=8.316000m/h.</desc>
<speed>2.310000</speed>
</trkpt>
<trkpt lat="55.983055" lon="26.556263">
<ele>96.983459</ele>
<time>2010-06-20T08:36:04Z</time>
<desc>lat.=55.983055, lon.=26.556263, Alt.=96.983459m. Speed=5.976000m/h.</desc>
<speed>1.660000</speed>
</trkpt>
<trkpt lat="55.983047" lon="26.556269">
<ele>97.497131</ele>
<time>2010-06-20T08:36:05Z</time>
<desc>lat.=55.983047, lon.=26.556269, Alt.=97.497131m. Speed=3.204000m/h.</desc>
<speed>0.890000</speed>
</trkpt>
<trkpt lat="55.983044" lon="26.556274">
<ele>97.635803</ele>
<time>2010-06-20T08:36:06Z</time>
<desc>lat.=55.983044, lon.=26.556274, Alt.=97.635803m. Speed=1.980000m/h.</desc>
<speed>0.550000</speed>
</trkpt>
<trkpt lat="55.983055" lon="26.556278">
<ele>97.458069</ele>
<time>2010-06-20T08:36:07Z</time>
<desc>lat.=55.983055, lon.=26.556278, Alt.=97.458069m. Speed=3.132000m/h.</desc>
<speed>0.870000</speed>
</trkpt>
<trkpt lat="55.983070" lon="26.556284">
<ele>97.217834</ele>
<time>2010-06-20T08:36:08Z</time>
<desc>lat.=55.983070, lon.=26.556284, Alt.=97.217834m. Speed=4.248000m/h.</desc>
<speed>1.180000</speed>
</trkpt>
<trkpt lat="55.983086" lon="26.556290">
<ele>96.963928</ele>
<time>2010-06-20T08:36:09Z</time>
<desc>lat.=55.983086, lon.=26.556290, Alt.=96.963928m. Speed=4.356000m/h.</desc>
<speed>1.210000</speed>
</trkpt>
<trkpt lat="55.983097" lon="26.556293">
<ele>96.846741</ele>
<time>2010-06-20T08:36:10Z</time>
<desc>lat.=55.983097, lon.=26.556293, Alt.=96.846741m. Speed=4.824000m/h.</desc>
<speed>1.340000</speed>
</trkpt>
<trkpt lat="55.983105" lon="26.556301">
<ele>96.774475</ele>
<time>2010-06-20T08:36:11Z</time>
<desc>lat.=55.983105, lon.=26.556301, Alt.=96.774475m. Speed=3.672000m/h.</desc>
<speed>1.020000</speed>
</trkpt>
<trkpt lat="55.983112" lon="26.556303">
<ele>97.278381</ele>
<time>2010-06-20T08:36:12Z</time>
<desc>lat.=55.983112, lon.=26.556303, Alt.=97.278381m. Speed=3.348000m/h.</desc>
<speed>0.930000</speed>
</trkpt>
<trkpt lat="55.983128" lon="26.556303">
<ele>97.231506</ele>
<time>2010-06-20T08:36:13Z</time>
<desc>lat.=55.983128, lon.=26.556303, Alt.=97.231506m. Speed=2.988000m/h.</desc>
<speed>0.830000</speed>
</trkpt>
<trkpt lat="55.983135" lon="26.556313">
<ele>97.077209</ele>
<time>2010-06-20T08:36:14Z</time>
<desc>lat.=55.983135, lon.=26.556313, Alt.=97.077209m. Speed=4.176000m/h.</desc>
<speed>1.160000</speed>
</trkpt>
<trkpt lat="55.983147" lon="26.556324">
<ele>97.153381</ele>
<time>2010-06-20T08:36:15Z</time>
<desc>lat.=55.983147, lon.=26.556324, Alt.=97.153381m. Speed=5.220000m/h.</desc>
<speed>1.450000</speed>
</trkpt>
<trkpt lat="55.983162" lon="26.556339">
<ele>97.122131</ele>
<time>2010-06-20T08:36:16Z</time>
<desc>lat.=55.983162, lon.=26.556339, Alt.=97.122131m. Speed=6.516000m/h.</desc>
<speed>1.810000</speed>
</trkpt>
<trkpt lat="55.983173" lon="26.556349">
<ele>97.153381</ele>
<time>2010-06-20T08:36:17Z</time>
<desc>lat.=55.983173, lon.=26.556349, Alt.=97.153381m. Speed=7.056000m/h.</desc>
<speed>1.960000</speed>
</trkpt>
<trkpt lat="55.983181" lon="26.556374">
<ele>97.092834</ele>
<time>2010-06-20T08:36:18Z</time>
<desc>lat.=55.983181, lon.=26.556374, Alt.=97.092834m. Speed=5.400000m/h.</desc>
<speed>1.500000</speed>
</trkpt>
<trkpt lat="55.983189" lon="26.556396">
<ele>96.977600</ele>
<time>2010-06-20T08:36:19Z</time>
<desc>lat.=55.983189, lon.=26.556396, Alt.=96.977600m. Speed=8.280000m/h.</desc>
<speed>2.300000</speed>
</trkpt>
<trkpt lat="55.983204" lon="26.556402">
<ele>96.516663</ele>
<time>2010-06-20T08:36:20Z</time>
<desc>lat.=55.983204, lon.=26.556402, Alt.=96.516663m. Speed=8.208000m/h.</desc>
<speed>2.280000</speed>
</trkpt>
<trkpt lat="55.983219" lon="26.556417">
<ele>95.879944</ele>
<time>2010-06-20T08:36:21Z</time>
<desc>lat.=55.983219, lon.=26.556417, Alt.=95.879944m. Speed=9.396000m/h.</desc>
<speed>2.610000</speed>
</trkpt>
<trkpt lat="55.983238" lon="26.556425">
<ele>95.672913</ele>
<time>2010-06-20T08:36:22Z</time>
<desc>lat.=55.983238, lon.=26.556425, Alt.=95.672913m. Speed=10.692000m/h.</desc>
<speed>2.970000</speed>
</trkpt>
<trkpt lat="55.983265" lon="26.556444">
<ele>95.717834</ele>
<time>2010-06-20T08:36:23Z</time>
<desc>lat.=55.983265, lon.=26.556444, Alt.=95.717834m. Speed=11.844000m/h.</desc>
<speed>3.290000</speed>
</trkpt>
<trkpt lat="55.983292" lon="26.556461">
<ele>95.670959</ele>
<time>2010-06-20T08:36:24Z</time>
<desc>lat.=55.983292, lon.=26.556461, Alt.=95.670959m. Speed=13.392000m/h.</desc>
<speed>3.720000</speed>
</trkpt>
<trkpt lat="55.983326" lon="26.556496">
<ele>96.327209</ele>
<time>2010-06-20T08:36:25Z</time>
<desc>lat.=55.983326, lon.=26.556496, Alt.=96.327209m. Speed=15.696000m/h.</desc>
<speed>4.360000</speed>
</trkpt>
<trkpt lat="55.983360" lon="26.556526">
<ele>96.495178</ele>
<time>2010-06-20T08:36:26Z</time>
<desc>lat.=55.983360, lon.=26.556526, Alt.=96.495178m. Speed=12.600000m/h.</desc>
<speed>3.500000</speed>
</trkpt>
<trkpt lat="55.983391" lon="26.556557">
<ele>96.366272</ele>
<time>2010-06-20T08:36:27Z</time>
<desc>lat.=55.983391, lon.=26.556557, Alt.=96.366272m. Speed=12.024000m/h.</desc>
<speed>3.340000</speed>
</trkpt>
<trkpt lat="55.983418" lon="26.556587">
<ele>96.055725</ele>
<time>2010-06-20T08:36:28Z</time>
<desc>lat.=55.983418, lon.=26.556587, Alt.=96.055725m. Speed=12.852000m/h.</desc>
<speed>3.570000</speed>
</trkpt>
<trkpt lat="55.983444" lon="26.556616">
<ele>96.237366</ele>
<time>2010-06-20T08:36:29Z</time>
<desc>lat.=55.983444, lon.=26.556616, Alt.=96.237366m. Speed=12.168000m/h.</desc>
<speed>3.380000</speed>
</trkpt>
<trkpt lat="55.983475" lon="26.556629">
<ele>96.196350</ele>
<time>2010-06-20T08:36:30Z</time>
<desc>lat.=55.983475, lon.=26.556629, Alt.=96.196350m. Speed=11.592000m/h.</desc>
<speed>3.220000</speed>
</trkpt>
<trkpt lat="55.983505" lon="26.556646">
<ele>95.823303</ele>
<time>2010-06-20T08:36:31Z</time>
<desc>lat.=55.983505, lon.=26.556646, Alt.=95.823303m. Speed=11.808000m/h.</desc>
<speed>3.280000</speed>
</trkpt>
<trkpt lat="55.983536" lon="26.556673">
<ele>95.661194</ele>
<time>2010-06-20T08:36:32Z</time>
<desc>lat.=55.983536, lon.=26.556673, Alt.=95.661194m. Speed=12.024000m/h.</desc>
<speed>3.340000</speed>
</trkpt>
<trkpt lat="55.983578" lon="26.556698">
<ele>95.553772</ele>
<time>2010-06-20T08:36:33Z</time>
<desc>lat.=55.983578, lon.=26.556698, Alt.=95.553772m. Speed=13.140000m/h.</desc>
<speed>3.650000</speed>
</trkpt>
<trkpt lat="55.983612" lon="26.556719">
<ele>95.528381</ele>
<time>2010-06-20T08:36:34Z</time>
<desc>lat.=55.983612, lon.=26.556719, Alt.=95.528381m. Speed=14.544000m/h.</desc>
<speed>4.040000</speed>
</trkpt>
<trkpt lat="55.983643" lon="26.556744">
<ele>95.469788</ele>
<time>2010-06-20T08:36:35Z</time>
<desc>lat.=55.983643, lon.=26.556744, Alt.=95.469788m. Speed=16.379999m/h.</desc>
<speed>4.550000</speed>
</trkpt>
<trkpt lat="55.983685" lon="26.556770">
<ele>95.323303</ele>
<time>2010-06-20T08:36:36Z</time>
<desc>lat.=55.983685, lon.=26.556770, Alt.=95.323303m. Speed=16.775999m/h.</desc>
<speed>4.660000</speed>
</trkpt>
<trkpt lat="55.983723" lon="26.556805">
<ele>95.186584</ele>
<time>2010-06-20T08:36:37Z</time>
<desc>lat.=55.983723, lon.=26.556805, Alt.=95.186584m. Speed=16.164000m/h.</desc>
<speed>4.490000</speed>
</trkpt>
<trkpt lat="55.983757" lon="26.556837">
<ele>95.233459</ele>
<time>2010-06-20T08:36:38Z</time>
<desc>lat.=55.983757, lon.=26.556837, Alt.=95.233459m. Speed=14.544000m/h.</desc>
<speed>4.040000</speed>
</trkpt>
<trkpt lat="55.983788" lon="26.556864">
<ele>95.014709</ele>
<time>2010-06-20T08:36:39Z</time>
<desc>lat.=55.983788, lon.=26.556864, Alt.=95.014709m. Speed=13.140000m/h.</desc>
<speed>3.650000</speed>
</trkpt>
<trkpt lat="55.983818" lon="26.556889">
<ele>94.868225</ele>
<time>2010-06-20T08:36:40Z</time>
<desc>lat.=55.983818, lon.=26.556889, Alt.=94.868225m. Speed=13.320000m/h.</desc>
<speed>3.700000</speed>
</trkpt>
<trkpt lat="55.983845" lon="26.556915">
<ele>95.014709</ele>
<time>2010-06-20T08:36:41Z</time>
<desc>lat.=55.983845, lon.=26.556915, Alt.=95.014709m. Speed=10.764000m/h.</desc>
<speed>2.990000</speed>
</trkpt>
<trkpt lat="55.983864" lon="26.556934">
<ele>95.391663</ele>
<time>2010-06-20T08:36:42Z</time>
<desc>lat.=55.983864, lon.=26.556934, Alt.=95.391663m. Speed=8.100000m/h.</desc>
<speed>2.250000</speed>
</trkpt>
<trkpt lat="55.983879" lon="26.556963">
<ele>95.313538</ele>
<time>2010-06-20T08:36:43Z</time>
<desc>lat.=55.983879, lon.=26.556963, Alt.=95.313538m. Speed=6.876000m/h.</desc>
<speed>1.910000</speed>
</trkpt>
<trkpt lat="55.983894" lon="26.556984">
<ele>95.268616</ele>
<time>2010-06-20T08:36:44Z</time>
<desc>lat.=55.983894, lon.=26.556984, Alt.=95.268616m. Speed=6.840000m/h.</desc>
<speed>1.900000</speed>
</trkpt>
<trkpt lat="55.983917" lon="26.557003">
<ele>95.276428</ele>
<time>2010-06-20T08:36:45Z</time>
<desc>lat.=55.983917, lon.=26.557003, Alt.=95.276428m. Speed=9.288000m/h.</desc>
<speed>2.580000</speed>
</trkpt>
<trkpt lat="55.983944" lon="26.557026">
<ele>95.383850</ele>
<time>2010-06-20T08:36:46Z</time>
<desc>lat.=55.983944, lon.=26.557026, Alt.=95.383850m. Speed=11.376000m/h.</desc>
<speed>3.160000</speed>
</trkpt>
<trkpt lat="55.983971" lon="26.557056">
<ele>95.792053</ele>
<time>2010-06-20T08:36:47Z</time>
<desc>lat.=55.983971, lon.=26.557056, Alt.=95.792053m. Speed=9.432000m/h.</desc>
<speed>2.620000</speed>
</trkpt>
<trkpt lat="55.983986" lon="26.557077">
<ele>95.825256</ele>
<time>2010-06-20T08:36:48Z</time>
<desc>lat.=55.983986, lon.=26.557077, Alt.=95.825256m. Speed=8.064000m/h.</desc>
<speed>2.240000</speed>
</trkpt>
<trkpt lat="55.984001" lon="26.557106">
<ele>95.698303</ele>
<time>2010-06-20T08:36:49Z</time>
<desc>lat.=55.984001, lon.=26.557106, Alt.=95.698303m. Speed=8.136000m/h.</desc>
<speed>2.260000</speed>
</trkpt>
<trkpt lat="55.984032" lon="26.557135">
<ele>95.881897</ele>
<time>2010-06-20T08:36:50Z</time>
<desc>lat.=55.984032, lon.=26.557135, Alt.=95.881897m. Speed=11.736000m/h.</desc>
<speed>3.260000</speed>
</trkpt>
<trkpt lat="55.984035" lon="26.557175">
<ele>95.870178</ele>
<time>2010-06-20T08:36:51Z</time>
<desc>lat.=55.984035, lon.=26.557175, Alt.=95.870178m. Speed=9.180000m/h.</desc>
<speed>2.550000</speed>
</trkpt>
<trkpt lat="55.984066" lon="26.557199">
<ele>95.952209</ele>
<time>2010-06-20T08:36:52Z</time>
<desc>lat.=55.984066, lon.=26.557199, Alt.=95.952209m. Speed=10.332000m/h.</desc>
<speed>2.870000</speed>
</trkpt>
<trkpt lat="55.984097" lon="26.557220">
<ele>96.112366</ele>
<time>2010-06-20T08:36:53Z</time>
<desc>lat.=55.984097, lon.=26.557220, Alt.=96.112366m. Speed=8.388000m/h.</desc>
<speed>2.330000</speed>
</trkpt>
<trkpt lat="55.984119" lon="26.557241">
<ele>95.948303</ele>
<time>2010-06-20T08:36:54Z</time>
<desc>lat.=55.984119, lon.=26.557241, Alt.=95.948303m. Speed=8.100000m/h.</desc>
<speed>2.250000</speed>
</trkpt>
<trkpt lat="55.984142" lon="26.557257">
<ele>96.088928</ele>
<time>2010-06-20T08:36:55Z</time>
<desc>lat.=55.984142, lon.=26.557257, Alt.=96.088928m. Speed=9.864000m/h.</desc>
<speed>2.740000</speed>
</trkpt>
<trkpt lat="55.984158" lon="26.557280">
<ele>95.860413</ele>
<time>2010-06-20T08:36:56Z</time>
<desc>lat.=55.984158, lon.=26.557280, Alt.=95.860413m. Speed=7.848000m/h.</desc>
<speed>2.180000</speed>
</trkpt>
<trkpt lat="55.984177" lon="26.557304">
<ele>95.694397</ele>
<time>2010-06-20T08:36:57Z</time>
<desc>lat.=55.984177, lon.=26.557304, Alt.=95.694397m. Speed=8.784000m/h.</desc>
<speed>2.440000</speed>
</trkpt>
<trkpt lat="55.984200" lon="26.557329">
<ele>95.481506</ele>
<time>2010-06-20T08:36:58Z</time>
<desc>lat.=55.984200, lon.=26.557329, Alt.=95.481506m. Speed=9.144000m/h.</desc>
<speed>2.540000</speed>
</trkpt>
<trkpt lat="55.984219" lon="26.557350">
<ele>95.528381</ele>
<time>2010-06-20T08:36:59Z</time>
<desc>lat.=55.984219, lon.=26.557350, Alt.=95.528381m. Speed=8.712000m/h.</desc>
<speed>2.420000</speed>
</trkpt>
<trkpt lat="55.984249" lon="26.557375">
<ele>95.747131</ele>
<time>2010-06-20T08:37:00Z</time>
<desc>lat.=55.984249, lon.=26.557375, Alt.=95.747131m. Speed=9.684000m/h.</desc>
<speed>2.690000</speed>
</trkpt>
<trkpt lat="55.984272" lon="26.557396">
<ele>95.704163</ele>
<time>2010-06-20T08:37:01Z</time>
<desc>lat.=55.984272, lon.=26.557396, Alt.=95.704163m. Speed=8.028000m/h.</desc>
<speed>2.230000</speed>
</trkpt>
<trkpt lat="55.984306" lon="26.557409">
<ele>95.444397</ele>
<time>2010-06-20T08:37:02Z</time>
<desc>lat.=55.984306, lon.=26.557409, Alt.=95.444397m. Speed=9.396000m/h.</desc>
<speed>2.610000</speed>
</trkpt>
<trkpt lat="55.984329" lon="26.557434">
<ele>95.444397</ele>
<time>2010-06-20T08:37:03Z</time>
<desc>lat.=55.984329, lon.=26.557434, Alt.=95.444397m. Speed=8.064000m/h.</desc>
<speed>2.240000</speed>
</trkpt>
<trkpt lat="55.984352" lon="26.557461">
<ele>94.977600</ele>
<time>2010-06-20T08:37:04Z</time>
<desc>lat.=55.984352, lon.=26.557461, Alt.=94.977600m. Speed=8.316000m/h.</desc>
<speed>2.310000</speed>
</trkpt>
<trkpt lat="55.984375" lon="26.557486">
<ele>94.776428</ele>
<time>2010-06-20T08:37:05Z</time>
<desc>lat.=55.984375, lon.=26.557486, Alt.=94.776428m. Speed=9.504000m/h.</desc>
<speed>2.640000</speed>
</trkpt>
<trkpt lat="55.984402" lon="26.557508">
<ele>94.760803</ele>
<time>2010-06-20T08:37:06Z</time>
<desc>lat.=55.984402, lon.=26.557508, Alt.=94.760803m. Speed=9.036000m/h.</desc>
<speed>2.510000</speed>
</trkpt>
<trkpt lat="55.984425" lon="26.557533">
<ele>94.710022</ele>
<time>2010-06-20T08:37:07Z</time>
<desc>lat.=55.984425, lon.=26.557533, Alt.=94.710022m. Speed=9.432000m/h.</desc>
<speed>2.620000</speed>
</trkpt>
<trkpt lat="55.984447" lon="26.557556">
<ele>94.586975</ele>
<time>2010-06-20T08:37:08Z</time>
<desc>lat.=55.984447, lon.=26.557556, Alt.=94.586975m. Speed=8.568000m/h.</desc>
<speed>2.380000</speed>
</trkpt>
<trkpt lat="55.984467" lon="26.557589">
<ele>94.485413</ele>
<time>2010-06-20T08:37:09Z</time>
<desc>lat.=55.984467, lon.=26.557589, Alt.=94.485413m. Speed=9.360000m/h.</desc>
<speed>2.600000</speed>
</trkpt>
<trkpt lat="55.984493" lon="26.557621">
<ele>94.336975</ele>
<time>2010-06-20T08:37:10Z</time>
<desc>lat.=55.984493, lon.=26.557621, Alt.=94.336975m. Speed=9.000000m/h.</desc>
<speed>2.500000</speed>
</trkpt>
<trkpt lat="55.984512" lon="26.557665">
<ele>94.448303</ele>
<time>2010-06-20T08:37:11Z</time>
<desc>lat.=55.984512, lon.=26.557665, Alt.=94.448303m. Speed=8.712000m/h.</desc>
<speed>2.420000</speed>
</trkpt>
<trkpt lat="55.984539" lon="26.557688">
<ele>94.001038</ele>
<time>2010-06-20T08:37:12Z</time>
<desc>lat.=55.984539, lon.=26.557688, Alt.=94.001038m. Speed=9.000000m/h.</desc>
<speed>2.500000</speed>
</trkpt>
<trkpt lat="55.984558" lon="26.557711">
<ele>93.647522</ele>
<time>2010-06-20T08:37:13Z</time>
<desc>lat.=55.984558, lon.=26.557711, Alt.=93.647522m. Speed=9.540000m/h.</desc>
<speed>2.650000</speed>
</trkpt>
<trkpt lat="55.984581" lon="26.557749">
<ele>93.819397</ele>
<time>2010-06-20T08:37:14Z</time>
<desc>lat.=55.984581, lon.=26.557749, Alt.=93.819397m. Speed=9.720000m/h.</desc>
<speed>2.700000</speed>
</trkpt>
<trkpt lat="55.984604" lon="26.557775">
<ele>93.737366</ele>
<time>2010-06-20T08:37:15Z</time>
<desc>lat.=55.984604, lon.=26.557775, Alt.=93.737366m. Speed=9.612000m/h.</desc>
<speed>2.670000</speed>
</trkpt>
<trkpt lat="55.984619" lon="26.557798">
<ele>93.604553</ele>
<time>2010-06-20T08:37:16Z</time>
<desc>lat.=55.984619, lon.=26.557798, Alt.=93.604553m. Speed=8.460000m/h.</desc>
<speed>2.350000</speed>
</trkpt>
<trkpt lat="55.984638" lon="26.557819">
<ele>93.407288</ele>
<time>2010-06-20T08:37:17Z</time>
<desc>lat.=55.984638, lon.=26.557819, Alt.=93.407288m. Speed=8.208000m/h.</desc>
<speed>2.280000</speed>
</trkpt>
<trkpt lat="55.984661" lon="26.557844">
<ele>93.381897</ele>
<time>2010-06-20T08:37:18Z</time>
<desc>lat.=55.984661, lon.=26.557844, Alt.=93.381897m. Speed=9.540000m/h.</desc>
<speed>2.650000</speed>
</trkpt>
<trkpt lat="55.984676" lon="26.557863">
<ele>93.100647</ele>
<time>2010-06-20T08:37:19Z</time>
<desc>lat.=55.984676, lon.=26.557863, Alt.=93.100647m. Speed=6.048000m/h.</desc>
<speed>1.680000</speed>
</trkpt>
<trkpt lat="55.984699" lon="26.557882">
<ele>92.674866</ele>
<time>2010-06-20T08:37:20Z</time>
<desc>lat.=55.984699, lon.=26.557882, Alt.=92.674866m. Speed=7.920000m/h.</desc>
<speed>2.200000</speed>
</trkpt>
<trkpt lat="55.984711" lon="26.557907">
<ele>92.469788</ele>
<time>2010-06-20T08:37:21Z</time>
<desc>lat.=55.984711, lon.=26.557907, Alt.=92.469788m. Speed=6.804000m/h.</desc>
<speed>1.890000</speed>
</trkpt>
<trkpt lat="55.984734" lon="26.557936">
<ele>92.155334</ele>
<time>2010-06-20T08:37:22Z</time>
<desc>lat.=55.984734, lon.=26.557936, Alt.=92.155334m. Speed=8.100000m/h.</desc>
<speed>2.250000</speed>
</trkpt>
<trkpt lat="55.984756" lon="26.557962">
<ele>91.684631</ele>
<time>2010-06-20T08:37:23Z</time>
<desc>lat.=55.984756, lon.=26.557962, Alt.=91.684631m. Speed=7.668000m/h.</desc>
<speed>2.130000</speed>
</trkpt>
<trkpt lat="55.984776" lon="26.557993">
<ele>91.598694</ele>
<time>2010-06-20T08:37:24Z</time>
<desc>lat.=55.984776, lon.=26.557993, Alt.=91.598694m. Speed=9.000000m/h.</desc>
<speed>2.500000</speed>
</trkpt>
<trkpt lat="55.984802" lon="26.558023">
<ele>91.534241</ele>
<time>2010-06-20T08:37:25Z</time>
<desc>lat.=55.984802, lon.=26.558023, Alt.=91.534241m. Speed=10.728000m/h.</desc>
<speed>2.980000</speed>
</trkpt>
<trkpt lat="55.984825" lon="26.558073">
<ele>91.618225</ele>
<time>2010-06-20T08:37:26Z</time>
<desc>lat.=55.984825, lon.=26.558073, Alt.=91.618225m. Speed=11.376000m/h.</desc>
<speed>3.160000</speed>
</trkpt>
<trkpt lat="55.984852" lon="26.558138">
<ele>91.868225</ele>
<time>2010-06-20T08:37:27Z</time>
<desc>lat.=55.984852, lon.=26.558138, Alt.=91.868225m. Speed=11.448000m/h.</desc>
<speed>3.180000</speed>
</trkpt>
<trkpt lat="55.984879" lon="26.558163">
<ele>91.245178</ele>
<time>2010-06-20T08:37:28Z</time>
<desc>lat.=55.984879, lon.=26.558163, Alt.=91.245178m. Speed=12.996000m/h.</desc>
<speed>3.610000</speed>
</trkpt>
<trkpt lat="55.984913" lon="26.558178">
<ele>90.895569</ele>
<time>2010-06-20T08:37:29Z</time>
<desc>lat.=55.984913, lon.=26.558178, Alt.=90.895569m. Speed=12.204000m/h.</desc>
<speed>3.390000</speed>
</trkpt>
<trkpt lat="55.984951" lon="26.558203">
<ele>90.672913</ele>
<time>2010-06-20T08:37:30Z</time>
<desc>lat.=55.984951, lon.=26.558203, Alt.=90.672913m. Speed=10.944000m/h.</desc>
<speed>3.040000</speed>
</trkpt>
<trkpt lat="55.984985" lon="26.558237">
<ele>90.608459</ele>
<time>2010-06-20T08:37:31Z</time>
<desc>lat.=55.984985, lon.=26.558237, Alt.=90.608459m. Speed=11.196000m/h.</desc>
<speed>3.110000</speed>
</trkpt>
<trkpt lat="55.985012" lon="26.558275">
<ele>90.430725</ele>
<time>2010-06-20T08:37:32Z</time>
<desc>lat.=55.985012, lon.=26.558275, Alt.=90.430725m. Speed=11.700000m/h.</desc>
<speed>3.250000</speed>
</trkpt>
<trkpt lat="55.985043" lon="26.558313">
<ele>90.387756</ele>
<time>2010-06-20T08:37:33Z</time>
<desc>lat.=55.985043, lon.=26.558313, Alt.=90.387756m. Speed=11.808000m/h.</desc>
<speed>3.280000</speed>
</trkpt>
<trkpt lat="55.985069" lon="26.558348">
<ele>89.924866</ele>
<time>2010-06-20T08:37:34Z</time>
<desc>lat.=55.985069, lon.=26.558348, Alt.=89.924866m. Speed=11.808000m/h.</desc>
<speed>3.280000</speed>
</trkpt>
<trkpt lat="55.985104" lon="26.558376">
<ele>89.608459</ele>
<time>2010-06-20T08:37:35Z</time>
<desc>lat.=55.985104, lon.=26.558376, Alt.=89.608459m. Speed=11.448000m/h.</desc>
<speed>3.180000</speed>
</trkpt>
<trkpt lat="55.985126" lon="26.558403">
<ele>89.133850</ele>
<time>2010-06-20T08:37:36Z</time>
<desc>lat.=55.985126, lon.=26.558403, Alt.=89.133850m. Speed=10.296000m/h.</desc>
<speed>2.860000</speed>
</trkpt>
<trkpt lat="55.985149" lon="26.558430">
<ele>88.489319</ele>
<time>2010-06-20T08:37:37Z</time>
<desc>lat.=55.985149, lon.=26.558430, Alt.=88.489319m. Speed=10.080000m/h.</desc>
<speed>2.800000</speed>
</trkpt>
<trkpt lat="55.985176" lon="26.558456">
<ele>88.131897</ele>
<time>2010-06-20T08:37:38Z</time>
<desc>lat.=55.985176, lon.=26.558456, Alt.=88.131897m. Speed=10.476000m/h.</desc>
<speed>2.910000</speed>
</trkpt>
<trkpt lat="55.985203" lon="26.558485">
<ele>87.932678</ele>
<time>2010-06-20T08:37:39Z</time>
<desc>lat.=55.985203, lon.=26.558485, Alt.=87.932678m. Speed=11.412000m/h.</desc>
<speed>3.170000</speed>
</trkpt>
<trkpt lat="55.985229" lon="26.558512">
<ele>87.752991</ele>
<time>2010-06-20T08:37:40Z</time>
<desc>lat.=55.985229, lon.=26.558512, Alt.=87.752991m. Speed=10.872000m/h.</desc>
<speed>3.020000</speed>
</trkpt>
<trkpt lat="55.985256" lon="26.558542">
<ele>87.403381</ele>
<time>2010-06-20T08:37:41Z</time>
<desc>lat.=55.985256, lon.=26.558542, Alt.=87.403381m. Speed=11.664000m/h.</desc>
<speed>3.240000</speed>
</trkpt>
<trkpt lat="55.985287" lon="26.558575">
<ele>87.094788</ele>
<time>2010-06-20T08:37:42Z</time>
<desc>lat.=55.985287, lon.=26.558575, Alt.=87.094788m. Speed=11.556000m/h.</desc>
<speed>3.210000</speed>
</trkpt>
<trkpt lat="55.985317" lon="26.558603">
<ele>86.704163</ele>
<time>2010-06-20T08:37:43Z</time>
<desc>lat.=55.985317, lon.=26.558603, Alt.=86.704163m. Speed=11.808000m/h.</desc>
<speed>3.280000</speed>
</trkpt>
<trkpt lat="55.985344" lon="26.558628">
<ele>86.174866</ele>
<time>2010-06-20T08:37:44Z</time>
<desc>lat.=55.985344, lon.=26.558628, Alt.=86.174866m. Speed=11.124000m/h.</desc>
<speed>3.090000</speed>
</trkpt>
<trkpt lat="55.985378" lon="26.558653">
<ele>85.909241</ele>
<time>2010-06-20T08:37:45Z</time>
<desc>lat.=55.985378, lon.=26.558653, Alt.=85.909241m. Speed=11.556000m/h.</desc>
<speed>3.210000</speed>
</trkpt>
<trkpt lat="55.985416" lon="26.558676">
<ele>86.495178</ele>
<time>2010-06-20T08:37:46Z</time>
<desc>lat.=55.985416, lon.=26.558676, Alt.=86.495178m. Speed=11.088000m/h.</desc>
<speed>3.080000</speed>
</trkpt>
<trkpt lat="55.985455" lon="26.558691">
<ele>86.715881</ele>
<time>2010-06-20T08:37:47Z</time>
<desc>lat.=55.985455, lon.=26.558691, Alt.=86.715881m. Speed=10.908000m/h.</desc>
<speed>3.030000</speed>
</trkpt>
<trkpt lat="55.985497" lon="26.558704">
<ele>87.249084</ele>
<time>2010-06-20T08:37:48Z</time>
<desc>lat.=55.985497, lon.=26.558704, Alt.=87.249084m. Speed=9.252000m/h.</desc>
<speed>2.570000</speed>
</trkpt>
<trkpt lat="55.985527" lon="26.558716">
<ele>87.020569</ele>
<time>2010-06-20T08:37:49Z</time>
<desc>lat.=55.985527, lon.=26.558716, Alt.=87.020569m. Speed=10.296000m/h.</desc>
<speed>2.860000</speed>
</trkpt>
<trkpt lat="55.985573" lon="26.558733">
<ele>87.618225</ele>
<time>2010-06-20T08:37:50Z</time>
<desc>lat.=55.985573, lon.=26.558733, Alt.=87.618225m. Speed=12.708000m/h.</desc>
<speed>3.530000</speed>
</trkpt>
<trkpt lat="55.985615" lon="26.558752">
<ele>87.294006</ele>
<time>2010-06-20T08:37:51Z</time>
<desc>lat.=55.985615, lon.=26.558752, Alt.=87.294006m. Speed=11.916000m/h.</desc>
<speed>3.310000</speed>
</trkpt>
<trkpt lat="55.985638" lon="26.558786">
<ele>89.210022</ele>
<time>2010-06-20T08:37:52Z</time>
<desc>lat.=55.985638, lon.=26.558786, Alt.=89.210022m. Speed=10.944000m/h.</desc>
<speed>3.040000</speed>
</trkpt>
<trkpt lat="55.985661" lon="26.558826">
<ele>90.319397</ele>
<time>2010-06-20T08:37:53Z</time>
<desc>lat.=55.985661, lon.=26.558826, Alt.=90.319397m. Speed=12.060000m/h.</desc>
<speed>3.350000</speed>
</trkpt>
<trkpt lat="55.985695" lon="26.558859">
<ele>90.407288</ele>
<time>2010-06-20T08:37:54Z</time>
<desc>lat.=55.985695, lon.=26.558859, Alt.=90.407288m. Speed=13.032000m/h.</desc>
<speed>3.620000</speed>
</trkpt>
<trkpt lat="55.985725" lon="26.558887">
<ele>90.512756</ele>
<time>2010-06-20T08:37:55Z</time>
<desc>lat.=55.985725, lon.=26.558887, Alt.=90.512756m. Speed=11.016000m/h.</desc>
<speed>3.060000</speed>
</trkpt>
<trkpt lat="55.985752" lon="26.558908">
<ele>90.752991</ele>
<time>2010-06-20T08:37:56Z</time>
<desc>lat.=55.985752, lon.=26.558908, Alt.=90.752991m. Speed=10.188000m/h.</desc>
<speed>2.830000</speed>
</trkpt>
<trkpt lat="55.985775" lon="26.558928">
<ele>90.772522</ele>
<time>2010-06-20T08:37:57Z</time>
<desc>lat.=55.985775, lon.=26.558928, Alt.=90.772522m. Speed=9.864000m/h.</desc>
<speed>2.740000</speed>
</trkpt>
<trkpt lat="55.985802" lon="26.558947">
<ele>90.514709</ele>
<time>2010-06-20T08:37:58Z</time>
<desc>lat.=55.985802, lon.=26.558947, Alt.=90.514709m. Speed=10.116000m/h.</desc>
<speed>2.810000</speed>
</trkpt>
<trkpt lat="55.985825" lon="26.558958">
<ele>90.555725</ele>
<time>2010-06-20T08:37:59Z</time>
<desc>lat.=55.985825, lon.=26.558958, Alt.=90.555725m. Speed=8.316000m/h.</desc>
<speed>2.310000</speed>
</trkpt>
<trkpt lat="55.985836" lon="26.558979">
<ele>90.522522</ele>
<time>2010-06-20T08:38:00Z</time>
<desc>lat.=55.985836, lon.=26.558979, Alt.=90.522522m. Speed=5.184000m/h.</desc>
<speed>1.440000</speed>
</trkpt>
<trkpt lat="55.985851" lon="26.559010">
<ele>90.020569</ele>
<time>2010-06-20T08:38:01Z</time>
<desc>lat.=55.985851, lon.=26.559010, Alt.=90.020569m. Speed=8.640000m/h.</desc>
<speed>2.400000</speed>
</trkpt>
<trkpt lat="55.985874" lon="26.559031">
<ele>90.139709</ele>
<time>2010-06-20T08:38:02Z</time>
<desc>lat.=55.985874, lon.=26.559031, Alt.=90.139709m. Speed=8.676000m/h.</desc>
<speed>2.410000</speed>
</trkpt>
<trkpt lat="55.985897" lon="26.559050">
<ele>90.456116</ele>
<time>2010-06-20T08:38:03Z</time>
<desc>lat.=55.985897, lon.=26.559050, Alt.=90.456116m. Speed=8.136000m/h.</desc>
<speed>2.260000</speed>
</trkpt>
<trkpt lat="55.985928" lon="26.559061">
<ele>90.395569</ele>
<time>2010-06-20T08:38:04Z</time>
<desc>lat.=55.985928, lon.=26.559061, Alt.=90.395569m. Speed=8.136000m/h.</desc>
<speed>2.260000</speed>
</trkpt>
<trkpt lat="55.985962" lon="26.559074">
<ele>90.725647</ele>
<time>2010-06-20T08:38:05Z</time>
<desc>lat.=55.985962, lon.=26.559074, Alt.=90.725647m. Speed=7.668000m/h.</desc>
<speed>2.130000</speed>
</trkpt>
<trkpt lat="55.985981" lon="26.559093">
<ele>91.598694</ele>
<time>2010-06-20T08:38:06Z</time>
<desc>lat.=55.985981, lon.=26.559093, Alt.=91.598694m. Speed=8.820000m/h.</desc>
<speed>2.450000</speed>
</trkpt>
<trkpt lat="55.986004" lon="26.559116">
<ele>92.012756</ele>
<time>2010-06-20T08:38:07Z</time>
<desc>lat.=55.986004, lon.=26.559116, Alt.=92.012756m. Speed=9.576000m/h.</desc>
<speed>2.660000</speed>
</trkpt>
<trkpt lat="55.986042" lon="26.559135">
<ele>91.770569</ele>
<time>2010-06-20T08:38:08Z</time>
<desc>lat.=55.986042, lon.=26.559135, Alt.=91.770569m. Speed=10.332000m/h.</desc>
<speed>2.870000</speed>
</trkpt>
<trkpt lat="55.986069" lon="26.559162">
<ele>91.686584</ele>
<time>2010-06-20T08:38:09Z</time>
<desc>lat.=55.986069, lon.=26.559162, Alt.=91.686584m. Speed=9.900000m/h.</desc>
<speed>2.750000</speed>
</trkpt>
<trkpt lat="55.986084" lon="26.559195">
<ele>93.969788</ele>
<time>2010-06-20T08:38:10Z</time>
<desc>lat.=55.986084, lon.=26.559195, Alt.=93.969788m. Speed=9.936000m/h.</desc>
<speed>2.760000</speed>
</trkpt>
<trkpt lat="55.986111" lon="26.559221">
<ele>94.006897</ele>
<time>2010-06-20T08:38:11Z</time>
<desc>lat.=55.986111, lon.=26.559221, Alt.=94.006897m. Speed=9.720000m/h.</desc>
<speed>2.700000</speed>
</trkpt>
<trkpt lat="55.986130" lon="26.559250">
<ele>94.282288</ele>
<time>2010-06-20T08:38:12Z</time>
<desc>lat.=55.986130, lon.=26.559250, Alt.=94.282288m. Speed=9.252000m/h.</desc>
<speed>2.570000</speed>
</trkpt>
<trkpt lat="55.986153" lon="26.559273">
<ele>94.430725</ele>
<time>2010-06-20T08:38:13Z</time>
<desc>lat.=55.986153, lon.=26.559273, Alt.=94.430725m. Speed=8.928000m/h.</desc>
<speed>2.480000</speed>
</trkpt>
<trkpt lat="55.986164" lon="26.559324">
<ele>93.389709</ele>
<time>2010-06-20T08:38:14Z</time>
<desc>lat.=55.986164, lon.=26.559324, Alt.=93.389709m. Speed=8.712000m/h.</desc>
<speed>2.420000</speed>
</trkpt>
<trkpt lat="55.986187" lon="26.559368">
<ele>92.850647</ele>
<time>2010-06-20T08:38:15Z</time>
<desc>lat.=55.986187, lon.=26.559368, Alt.=92.850647m. Speed=8.928000m/h.</desc>
<speed>2.480000</speed>
</trkpt>
<trkpt lat="55.986206" lon="26.559410">
<ele>92.219788</ele>
<time>2010-06-20T08:38:16Z</time>
<desc>lat.=55.986206, lon.=26.559410, Alt.=92.219788m. Speed=10.008000m/h.</desc>
<speed>2.780000</speed>
</trkpt>
<trkpt lat="55.986229" lon="26.559439">
<ele>91.479553</ele>
<time>2010-06-20T08:38:17Z</time>
<desc>lat.=55.986229, lon.=26.559439, Alt.=91.479553m. Speed=8.244000m/h.</desc>
<speed>2.290000</speed>
</trkpt>
<trkpt lat="55.986259" lon="26.559473">
<ele>91.301819</ele>
<time>2010-06-20T08:38:18Z</time>
<desc>lat.=55.986259, lon.=26.559473, Alt.=91.301819m. Speed=10.692000m/h.</desc>
<speed>2.970000</speed>
</trkpt>
<trkpt lat="55.986282" lon="26.559509">
<ele>91.118225</ele>
<time>2010-06-20T08:38:19Z</time>
<desc>lat.=55.986282, lon.=26.559509, Alt.=91.118225m. Speed=11.520000m/h.</desc>
<speed>3.200000</speed>
</trkpt>
<trkpt lat="55.986313" lon="26.559534">
<ele>91.049866</ele>
<time>2010-06-20T08:38:20Z</time>
<desc>lat.=55.986313, lon.=26.559534, Alt.=91.049866m. Speed=10.620000m/h.</desc>
<speed>2.950000</speed>
</trkpt>
<trkpt lat="55.986332" lon="26.559566">
<ele>90.653381</ele>
<time>2010-06-20T08:38:21Z</time>
<desc>lat.=55.986332, lon.=26.559566, Alt.=90.653381m. Speed=11.088000m/h.</desc>
<speed>3.080000</speed>
</trkpt>
<trkpt lat="55.986355" lon="26.559591">
<ele>90.786194</ele>
<time>2010-06-20T08:38:22Z</time>
<desc>lat.=55.986355, lon.=26.559591, Alt.=90.786194m. Speed=10.404000m/h.</desc>
<speed>2.890000</speed>
</trkpt>
<trkpt lat="55.986382" lon="26.559626">
<ele>90.504944</ele>
<time>2010-06-20T08:38:23Z</time>
<desc>lat.=55.986382, lon.=26.559626, Alt.=90.504944m. Speed=9.576000m/h.</desc>
<speed>2.660000</speed>
</trkpt>
<trkpt lat="55.986404" lon="26.559654">
<ele>90.198303</ele>
<time>2010-06-20T08:38:24Z</time>
<desc>lat.=55.986404, lon.=26.559654, Alt.=90.198303m. Speed=16.091999m/h.</desc>
<speed>4.470000</speed>
</trkpt>
<trkpt lat="55.986435" lon="26.559675">
<ele>89.170959</ele>
<time>2010-06-20T08:38:25Z</time>
<desc>lat.=55.986435, lon.=26.559675, Alt.=89.170959m. Speed=10.440000m/h.</desc>
<speed>2.900000</speed>
</trkpt>
<trkpt lat="55.986450" lon="26.559706">
<ele>88.526428</ele>
<time>2010-06-20T08:38:26Z</time>
<desc>lat.=55.986450, lon.=26.559706, Alt.=88.526428m. Speed=8.964000m/h.</desc>
<speed>2.490000</speed>
</trkpt>
<trkpt lat="55.986469" lon="26.559732">
<ele>89.915100</ele>
<time>2010-06-20T08:38:27Z</time>
<desc>lat.=55.986469, lon.=26.559732, Alt.=89.915100m. Speed=9.216000m/h.</desc>
<speed>2.560000</speed>
</trkpt>
<trkpt lat="55.986488" lon="26.559757">
<ele>89.215881</ele>
<time>2010-06-20T08:38:28Z</time>
<desc>lat.=55.986488, lon.=26.559757, Alt.=89.215881m. Speed=8.892000m/h.</desc>
<speed>2.470000</speed>
</trkpt>
<trkpt lat="55.986507" lon="26.559790">
<ele>89.747131</ele>
<time>2010-06-20T08:38:29Z</time>
<desc>lat.=55.986507, lon.=26.559790, Alt.=89.747131m. Speed=7.632000m/h.</desc>
<speed>2.120000</speed>
</trkpt>
<trkpt lat="55.986526" lon="26.559826">
<ele>89.278381</ele>
<time>2010-06-20T08:38:30Z</time>
<desc>lat.=55.986526, lon.=26.559826, Alt.=89.278381m. Speed=9.504000m/h.</desc>
<speed>2.640000</speed>
</trkpt>
<trkpt lat="55.986542" lon="26.559860">
<ele>88.958069</ele>
<time>2010-06-20T08:38:31Z</time>
<desc>lat.=55.986542, lon.=26.559860, Alt.=88.958069m. Speed=8.820000m/h.</desc>
<speed>2.450000</speed>
</trkpt>
<trkpt lat="55.986568" lon="26.559889">
<ele>89.403381</ele>
<time>2010-06-20T08:38:32Z</time>
<desc>lat.=55.986568, lon.=26.559889, Alt.=89.403381m. Speed=8.100000m/h.</desc>
<speed>2.250000</speed>
</trkpt>
<trkpt lat="55.986580" lon="26.559912">
<ele>89.227600</ele>
<time>2010-06-20T08:38:33Z</time>
<desc>lat.=55.986580, lon.=26.559912, Alt.=89.227600m. Speed=5.148000m/h.</desc>
<speed>1.430000</speed>
</trkpt>
<trkpt lat="55.986588" lon="26.559935">
<ele>88.717834</ele>
<time>2010-06-20T08:38:34Z</time>
<desc>lat.=55.986588, lon.=26.559935, Alt.=88.717834m. Speed=4.932000m/h.</desc>
<speed>1.370000</speed>
</trkpt>
<trkpt lat="55.986595" lon="26.559956">
<ele>88.440491</ele>
<time>2010-06-20T08:38:35Z</time>
<desc>lat.=55.986595, lon.=26.559956, Alt.=88.440491m. Speed=4.860000m/h.</desc>
<speed>1.350000</speed>
</trkpt>
<trkpt lat="55.986618" lon="26.560005">
<ele>89.120178</ele>
<time>2010-06-20T08:38:36Z</time>
<desc>lat.=55.986618, lon.=26.560005, Alt.=89.120178m. Speed=7.776000m/h.</desc>
<speed>2.160000</speed>
</trkpt>
<trkpt lat="55.986637" lon="26.560040">
<ele>89.204163</ele>
<time>2010-06-20T08:38:37Z</time>
<desc>lat.=55.986637, lon.=26.560040, Alt.=89.204163m. Speed=8.460000m/h.</desc>
<speed>2.350000</speed>
</trkpt>
<trkpt lat="55.986649" lon="26.560055">
<ele>89.192444</ele>
<time>2010-06-20T08:38:38Z</time>
<desc>lat.=55.986649, lon.=26.560055, Alt.=89.192444m. Speed=4.932000m/h.</desc>
<speed>1.370000</speed>
</trkpt>
<trkpt lat="55.986656" lon="26.560070">
<ele>88.667053</ele>
<time>2010-06-20T08:38:39Z</time>
<desc>lat.=55.986656, lon.=26.560070, Alt.=88.667053m. Speed=3.888000m/h.</desc>
<speed>1.080000</speed>
</trkpt>
<trkpt lat="55.986668" lon="26.560078">
<ele>88.624084</ele>
<time>2010-06-20T08:38:40Z</time>
<desc>lat.=55.986668, lon.=26.560078, Alt.=88.624084m. Speed=4.140000m/h.</desc>
<speed>1.150000</speed>
</trkpt>
<trkpt lat="55.986679" lon="26.560093">
<ele>88.159241</ele>
<time>2010-06-20T08:38:41Z</time>
<desc>lat.=55.986679, lon.=26.560093, Alt.=88.159241m. Speed=5.580000m/h.</desc>
<speed>1.550000</speed>
</trkpt>
<trkpt lat="55.986706" lon="26.560116">
<ele>89.051819</ele>
<time>2010-06-20T08:38:42Z</time>
<desc>lat.=55.986706, lon.=26.560116, Alt.=89.051819m. Speed=6.120000m/h.</desc>
<speed>1.700000</speed>
</trkpt>
<trkpt lat="55.986729" lon="26.560146">
<ele>89.309631</ele>
<time>2010-06-20T08:38:43Z</time>
<desc>lat.=55.986729, lon.=26.560146, Alt.=89.309631m. Speed=8.532000m/h.</desc>
<speed>2.370000</speed>
</trkpt>
<trkpt lat="55.986748" lon="26.560167">
<ele>89.374084</ele>
<time>2010-06-20T08:38:44Z</time>
<desc>lat.=55.986748, lon.=26.560167, Alt.=89.374084m. Speed=6.372000m/h.</desc>
<speed>1.770000</speed>
</trkpt>
<trkpt lat="55.986767" lon="26.560198">
<ele>88.961975</ele>
<time>2010-06-20T08:38:45Z</time>
<desc>lat.=55.986767, lon.=26.560198, Alt.=88.961975m. Speed=6.840000m/h.</desc>
<speed>1.900000</speed>
</trkpt>
<trkpt lat="55.986790" lon="26.560221">
<ele>88.377991</ele>
<time>2010-06-20T08:38:46Z</time>
<desc>lat.=55.986790, lon.=26.560221, Alt.=88.377991m. Speed=6.660000m/h.</desc>
<speed>1.850000</speed>
</trkpt>
<trkpt lat="55.986824" lon="26.560242">
<ele>88.639709</ele>
<time>2010-06-20T08:38:47Z</time>
<desc>lat.=55.986824, lon.=26.560242, Alt.=88.639709m. Speed=9.360000m/h.</desc>
<speed>2.600000</speed>
</trkpt>
<trkpt lat="55.986851" lon="26.560274">
<ele>88.811584</ele>
<time>2010-06-20T08:38:48Z</time>
<desc>lat.=55.986851, lon.=26.560274, Alt.=88.811584m. Speed=9.108000m/h.</desc>
<speed>2.530000</speed>
</trkpt>
<trkpt lat="55.986866" lon="26.560310">
<ele>88.965881</ele>
<time>2010-06-20T08:38:49Z</time>
<desc>lat.=55.986866, lon.=26.560310, Alt.=88.965881m. Speed=5.508000m/h.</desc>
<speed>1.530000</speed>
</trkpt>
<trkpt lat="55.986889" lon="26.560339">
<ele>89.626038</ele>
<time>2010-06-20T08:38:50Z</time>
<desc>lat.=55.986889, lon.=26.560339, Alt.=89.626038m. Speed=5.076000m/h.</desc>
<speed>1.410000</speed>
</trkpt>
<trkpt lat="55.986912" lon="26.560358">
<ele>89.981506</ele>
<time>2010-06-20T08:38:51Z</time>
<desc>lat.=55.986912, lon.=26.560358, Alt.=89.981506m. Speed=5.292000m/h.</desc>
<speed>1.470000</speed>
</trkpt>
<trkpt lat="55.986938" lon="26.560383">
<ele>90.651428</ele>
<time>2010-06-20T08:38:52Z</time>
<desc>lat.=55.986938, lon.=26.560383, Alt.=90.651428m. Speed=7.704000m/h.</desc>
<speed>2.140000</speed>
</trkpt>
<trkpt lat="55.986969" lon="26.560410">
<ele>91.321350</ele>
<time>2010-06-20T08:38:53Z</time>
<desc>lat.=55.986969, lon.=26.560410, Alt.=91.321350m. Speed=9.396000m/h.</desc>
<speed>2.610000</speed>
</trkpt>
<trkpt lat="55.986996" lon="26.560431">
<ele>91.215881</ele>
<time>2010-06-20T08:38:54Z</time>
<desc>lat.=55.986996, lon.=26.560431, Alt.=91.215881m. Speed=7.092000m/h.</desc>
<speed>1.970000</speed>
</trkpt>
<trkpt lat="55.987026" lon="26.560469">
<ele>90.651428</ele>
<time>2010-06-20T08:38:55Z</time>
<desc>lat.=55.987026, lon.=26.560469, Alt.=90.651428m. Speed=8.244000m/h.</desc>
<speed>2.290000</speed>
</trkpt>
<trkpt lat="55.987053" lon="26.560490">
<ele>90.987366</ele>
<time>2010-06-20T08:38:56Z</time>
<desc>lat.=55.987053, lon.=26.560490, Alt.=90.987366m. Speed=7.956000m/h.</desc>
<speed>2.210000</speed>
</trkpt>
<trkpt lat="55.987083" lon="26.560511">
<ele>91.600647</ele>
<time>2010-06-20T08:38:57Z</time>
<desc>lat.=55.987083, lon.=26.560511, Alt.=91.600647m. Speed=7.704000m/h.</desc>
<speed>2.140000</speed>
</trkpt>
<trkpt lat="55.987103" lon="26.560528">
<ele>92.077209</ele>
<time>2010-06-20T08:38:58Z</time>
<desc>lat.=55.987103, lon.=26.560528, Alt.=92.077209m. Speed=8.424000m/h.</desc>
<speed>2.340000</speed>
</trkpt>
<trkpt lat="55.987148" lon="26.560541">
<ele>92.374084</ele>
<time>2010-06-20T08:38:59Z</time>
<desc>lat.=55.987148, lon.=26.560541, Alt.=92.374084m. Speed=12.060000m/h.</desc>
<speed>3.350000</speed>
</trkpt>
<trkpt lat="55.987194" lon="26.560560">
<ele>92.719788</ele>
<time>2010-06-20T08:39:00Z</time>
<desc>lat.=55.987194, lon.=26.560560, Alt.=92.719788m. Speed=12.888000m/h.</desc>
<speed>3.580000</speed>
</trkpt>
<trkpt lat="55.987240" lon="26.560575">
<ele>93.157288</ele>
<time>2010-06-20T08:39:01Z</time>
<desc>lat.=55.987240, lon.=26.560575, Alt.=93.157288m. Speed=13.428000m/h.</desc>
<speed>3.730000</speed>
</trkpt>
<trkpt lat="55.987286" lon="26.560579">
<ele>95.063538</ele>
<time>2010-06-20T08:39:02Z</time>
<desc>lat.=55.987286, lon.=26.560579, Alt.=95.063538m. Speed=10.368000m/h.</desc>
<speed>2.880000</speed>
</trkpt>
<trkpt lat="55.987328" lon="26.560589">
<ele>94.342834</ele>
<time>2010-06-20T08:39:03Z</time>
<desc>lat.=55.987328, lon.=26.560589, Alt.=94.342834m. Speed=12.096000m/h.</desc>
<speed>3.360000</speed>
</trkpt>
<trkpt lat="55.987377" lon="26.560596">
<ele>93.991272</ele>
<time>2010-06-20T08:39:04Z</time>
<desc>lat.=55.987377, lon.=26.560596, Alt.=93.991272m. Speed=11.484000m/h.</desc>
<speed>3.190000</speed>
</trkpt>
<trkpt lat="55.987419" lon="26.560598">
<ele>94.772522</ele>
<time>2010-06-20T08:39:05Z</time>
<desc>lat.=55.987419, lon.=26.560598, Alt.=94.772522m. Speed=10.404000m/h.</desc>
<speed>2.890000</speed>
</trkpt>
<trkpt lat="55.987453" lon="26.560595">
<ele>95.036194</ele>
<time>2010-06-20T08:39:06Z</time>
<desc>lat.=55.987453, lon.=26.560595, Alt.=95.036194m. Speed=7.200000m/h.</desc>
<speed>2.000000</speed>
</trkpt>
<trkpt lat="55.987495" lon="26.560593">
<ele>95.268616</ele>
<time>2010-06-20T08:39:07Z</time>
<desc>lat.=55.987495, lon.=26.560593, Alt.=95.268616m. Speed=10.044000m/h.</desc>
<speed>2.790000</speed>
</trkpt>
<trkpt lat="55.987530" lon="26.560596">
<ele>95.614319</ele>
<time>2010-06-20T08:39:08Z</time>
<desc>lat.=55.987530, lon.=26.560596, Alt.=95.614319m. Speed=10.620000m/h.</desc>
<speed>2.950000</speed>
</trkpt>
<trkpt lat="55.987564" lon="26.560596">
<ele>95.836975</ele>
<time>2010-06-20T08:39:09Z</time>
<desc>lat.=55.987564, lon.=26.560596, Alt.=95.836975m. Speed=10.044000m/h.</desc>
<speed>2.790000</speed>
</trkpt>
<trkpt lat="55.987602" lon="26.560598">
<ele>95.811584</ele>
<time>2010-06-20T08:39:10Z</time>
<desc>lat.=55.987602, lon.=26.560598, Alt.=95.811584m. Speed=11.556000m/h.</desc>
<speed>3.210000</speed>
</trkpt>
<trkpt lat="55.987621" lon="26.560595">
<ele>97.001038</ele>
<time>2010-06-20T08:39:11Z</time>
<desc>lat.=55.987621, lon.=26.560595, Alt.=97.001038m. Speed=9.144000m/h.</desc>
<speed>2.540000</speed>
</trkpt>
<trkpt lat="55.987652" lon="26.560596">
<ele>98.385803</ele>
<time>2010-06-20T08:39:12Z</time>
<desc>lat.=55.987652, lon.=26.560596, Alt.=98.385803m. Speed=10.764000m/h.</desc>
<speed>2.990000</speed>
</trkpt>
<trkpt lat="55.987686" lon="26.560610">
<ele>99.504944</ele>
<time>2010-06-20T08:39:13Z</time>
<desc>lat.=55.987686, lon.=26.560610, Alt.=99.504944m. Speed=11.880000m/h.</desc>
<speed>3.300000</speed>
</trkpt>
<trkpt lat="55.987724" lon="26.560625">
<ele>101.461975</ele>
<time>2010-06-20T08:39:14Z</time>
<desc>lat.=55.987724, lon.=26.560625, Alt.=101.461975m. Speed=11.124000m/h.</desc>
<speed>3.090000</speed>
</trkpt>
<trkpt lat="55.987759" lon="26.560638">
<ele>101.407288</ele>
<time>2010-06-20T08:39:15Z</time>
<desc>lat.=55.987759, lon.=26.560638, Alt.=101.407288m. Speed=12.132000m/h.</desc>
<speed>3.370000</speed>
</trkpt>
<trkpt lat="55.987793" lon="26.560646">
<ele>101.792053</ele>
<time>2010-06-20T08:39:16Z</time>
<desc>lat.=55.987793, lon.=26.560646, Alt.=101.792053m. Speed=11.916000m/h.</desc>
<speed>3.310000</speed>
</trkpt>
<trkpt lat="55.987831" lon="26.560659">
<ele>102.006897</ele>
<time>2010-06-20T08:39:17Z</time>
<desc>lat.=55.987831, lon.=26.560659, Alt.=102.006897m. Speed=12.096000m/h.</desc>
<speed>3.360000</speed>
</trkpt>
<trkpt lat="55.987862" lon="26.560669">
<ele>100.977600</ele>
<time>2010-06-20T08:39:18Z</time>
<desc>lat.=55.987862, lon.=26.560669, Alt.=100.977600m. Speed=10.620000m/h.</desc>
<speed>2.950000</speed>
</trkpt>
<trkpt lat="55.987885" lon="26.560680">
<ele>100.792053</ele>
<time>2010-06-20T08:39:19Z</time>
<desc>lat.=55.987885, lon.=26.560680, Alt.=100.792053m. Speed=7.812000m/h.</desc>
<speed>2.170000</speed>
</trkpt>
<trkpt lat="55.987907" lon="26.560686">
<ele>101.022522</ele>
<time>2010-06-20T08:39:20Z</time>
<desc>lat.=55.987907, lon.=26.560686, Alt.=101.022522m. Speed=8.748000m/h.</desc>
<speed>2.430000</speed>
</trkpt>
<trkpt lat="55.987934" lon="26.560686">
<ele>101.036194</ele>
<time>2010-06-20T08:39:21Z</time>
<desc>lat.=55.987934, lon.=26.560686, Alt.=101.036194m. Speed=9.252000m/h.</desc>
<speed>2.570000</speed>
</trkpt>
<trkpt lat="55.987957" lon="26.560690">
<ele>100.989319</ele>
<time>2010-06-20T08:39:22Z</time>
<desc>lat.=55.987957, lon.=26.560690, Alt.=100.989319m. Speed=7.992000m/h.</desc>
<speed>2.220000</speed>
</trkpt>
<trkpt lat="55.987980" lon="26.560694">
<ele>101.030334</ele>
<time>2010-06-20T08:39:23Z</time>
<desc>lat.=55.987980, lon.=26.560694, Alt.=101.030334m. Speed=8.352000m/h.</desc>
<speed>2.320000</speed>
</trkpt>
<trkpt lat="55.987999" lon="26.560698">
<ele>100.327209</ele>
<time>2010-06-20T08:39:24Z</time>
<desc>lat.=55.987999, lon.=26.560698, Alt.=100.327209m. Speed=7.884000m/h.</desc>
<speed>2.190000</speed>
</trkpt>
<trkpt lat="55.988022" lon="26.560709">
<ele>98.395569</ele>
<time>2010-06-20T08:39:25Z</time>
<desc>lat.=55.988022, lon.=26.560709, Alt.=98.395569m. Speed=8.316000m/h.</desc>
<speed>2.310000</speed>
</trkpt>
<trkpt lat="55.988037" lon="26.560717">
<ele>98.028381</ele>
<time>2010-06-20T08:39:26Z</time>
<desc>lat.=55.988037, lon.=26.560717, Alt.=98.028381m. Speed=6.192000m/h.</desc>
<speed>1.720000</speed>
</trkpt>
<trkpt lat="55.988064" lon="26.560730">
<ele>97.233459</ele>
<time>2010-06-20T08:39:27Z</time>
<desc>lat.=55.988064, lon.=26.560730, Alt.=97.233459m. Speed=8.028000m/h.</desc>
<speed>2.230000</speed>
</trkpt>
<trkpt lat="55.988087" lon="26.560740">
<ele>97.126038</ele>
<time>2010-06-20T08:39:28Z</time>
<desc>lat.=55.988087, lon.=26.560740, Alt.=97.126038m. Speed=7.380000m/h.</desc>
<speed>2.050000</speed>
</trkpt>
<trkpt lat="55.988121" lon="26.560743">
<ele>97.491272</ele>
<time>2010-06-20T08:39:29Z</time>
<desc>lat.=55.988121, lon.=26.560743, Alt.=97.491272m. Speed=11.160000m/h.</desc>
<speed>3.100000</speed>
</trkpt>
<trkpt lat="55.988152" lon="26.560755">
<ele>97.639709</ele>
<time>2010-06-20T08:39:30Z</time>
<desc>lat.=55.988152, lon.=26.560755, Alt.=97.639709m. Speed=12.924000m/h.</desc>
<speed>3.590000</speed>
</trkpt>
<trkpt lat="55.988186" lon="26.560759">
<ele>97.917053</ele>
<time>2010-06-20T08:39:31Z</time>
<desc>lat.=55.988186, lon.=26.560759, Alt.=97.917053m. Speed=10.908000m/h.</desc>
<speed>3.030000</speed>
</trkpt>
<trkpt lat="55.988220" lon="26.560772">
<ele>97.256897</ele>
<time>2010-06-20T08:39:32Z</time>
<desc>lat.=55.988220, lon.=26.560772, Alt.=97.256897m. Speed=11.736000m/h.</desc>
<speed>3.260000</speed>
</trkpt>
<trkpt lat="55.988262" lon="26.560780">
<ele>97.280334</ele>
<time>2010-06-20T08:39:33Z</time>
<desc>lat.=55.988262, lon.=26.560780, Alt.=97.280334m. Speed=12.384000m/h.</desc>
<speed>3.440000</speed>
</trkpt>
<trkpt lat="55.988308" lon="26.560789">
<ele>96.545959</ele>
<time>2010-06-20T08:39:34Z</time>
<desc>lat.=55.988308, lon.=26.560789, Alt.=96.545959m. Speed=12.528000m/h.</desc>
<speed>3.480000</speed>
</trkpt>
<trkpt lat="55.988350" lon="26.560801">
<ele>95.969788</ele>
<time>2010-06-20T08:39:35Z</time>
<desc>lat.=55.988350, lon.=26.560801, Alt.=95.969788m. Speed=13.680000m/h.</desc>
<speed>3.800000</speed>
</trkpt>
<trkpt lat="55.988388" lon="26.560808">
<ele>95.766663</ele>
<time>2010-06-20T08:39:36Z</time>
<desc>lat.=55.988388, lon.=26.560808, Alt.=95.766663m. Speed=11.772000m/h.</desc>
<speed>3.270000</speed>
</trkpt>
<trkpt lat="55.988422" lon="26.560820">
<ele>95.745178</ele>
<time>2010-06-20T08:39:37Z</time>
<desc>lat.=55.988422, lon.=26.560820, Alt.=95.745178m. Speed=13.680000m/h.</desc>
<speed>3.800000</speed>
</trkpt>
<trkpt lat="55.988476" lon="26.560835">
<ele>94.313538</ele>
<time>2010-06-20T08:39:38Z</time>
<desc>lat.=55.988476, lon.=26.560835, Alt.=94.313538m. Speed=15.912000m/h.</desc>
<speed>4.420000</speed>
</trkpt>
<trkpt lat="55.988529" lon="26.560843">
<ele>94.342834</ele>
<time>2010-06-20T08:39:39Z</time>
<desc>lat.=55.988529, lon.=26.560843, Alt.=94.342834m. Speed=17.208000m/h.</desc>
<speed>4.780000</speed>
</trkpt>
<trkpt lat="55.988571" lon="26.560852">
<ele>94.284241</ele>
<time>2010-06-20T08:39:40Z</time>
<desc>lat.=55.988571, lon.=26.560852, Alt.=94.284241m. Speed=14.112000m/h.</desc>
<speed>3.920000</speed>
</trkpt>
<trkpt lat="55.988609" lon="26.560850">
<ele>94.266663</ele>
<time>2010-06-20T08:39:41Z</time>
<desc>lat.=55.988609, lon.=26.560850, Alt.=94.266663m. Speed=11.628000m/h.</desc>
<speed>3.230000</speed>
</trkpt>
<trkpt lat="55.988644" lon="26.560856">
<ele>95.502991</ele>
<time>2010-06-20T08:39:42Z</time>
<desc>lat.=55.988644, lon.=26.560856, Alt.=95.502991m. Speed=12.024000m/h.</desc>
<speed>3.340000</speed>
</trkpt>
<trkpt lat="55.988682" lon="26.560869">
<ele>95.338928</ele>
<time>2010-06-20T08:39:43Z</time>
<desc>lat.=55.988682, lon.=26.560869, Alt.=95.338928m. Speed=12.996000m/h.</desc>
<speed>3.610000</speed>
</trkpt>
<trkpt lat="55.988712" lon="26.560883">
<ele>95.053772</ele>
<time>2010-06-20T08:39:44Z</time>
<desc>lat.=55.988712, lon.=26.560883, Alt.=95.053772m. Speed=13.068000m/h.</desc>
<speed>3.630000</speed>
</trkpt>
<trkpt lat="55.988750" lon="26.560911">
<ele>95.239319</ele>
<time>2010-06-20T08:39:45Z</time>
<desc>lat.=55.988750, lon.=26.560911, Alt.=95.239319m. Speed=13.068000m/h.</desc>
<speed>3.630000</speed>
</trkpt>
<trkpt lat="55.988800" lon="26.560938">
<ele>94.954163</ele>
<time>2010-06-20T08:39:46Z</time>
<desc>lat.=55.988800, lon.=26.560938, Alt.=94.954163m. Speed=15.588000m/h.</desc>
<speed>4.330000</speed>
</trkpt>
<trkpt lat="55.988850" lon="26.560944">
<ele>94.471741</ele>
<time>2010-06-20T08:39:47Z</time>
<desc>lat.=55.988850, lon.=26.560944, Alt.=94.471741m. Speed=13.788000m/h.</desc>
<speed>3.830000</speed>
</trkpt>
<trkpt lat="55.988899" lon="26.560959">
<ele>94.233459</ele>
<time>2010-06-20T08:39:48Z</time>
<desc>lat.=55.988899, lon.=26.560959, Alt.=94.233459m. Speed=11.412000m/h.</desc>
<speed>3.170000</speed>
</trkpt>
<trkpt lat="55.988926" lon="26.560965">
<ele>93.764709</ele>
<time>2010-06-20T08:39:49Z</time>
<desc>lat.=55.988926, lon.=26.560965, Alt.=93.764709m. Speed=11.304000m/h.</desc>
<speed>3.140000</speed>
</trkpt>
<trkpt lat="55.988953" lon="26.560963">
<ele>93.399475</ele>
<time>2010-06-20T08:39:50Z</time>
<desc>lat.=55.988953, lon.=26.560963, Alt.=93.399475m. Speed=10.512000m/h.</desc>
<speed>2.920000</speed>
</trkpt>
<trkpt lat="55.988995" lon="26.560970">
<ele>92.756897</ele>
<time>2010-06-20T08:39:51Z</time>
<desc>lat.=55.988995, lon.=26.560970, Alt.=92.756897m. Speed=11.520000m/h.</desc>
<speed>3.200000</speed>
</trkpt>
<trkpt lat="55.989033" lon="26.560966">
<ele>90.645569</ele>
<time>2010-06-20T08:39:52Z</time>
<desc>lat.=55.989033, lon.=26.560966, Alt.=90.645569m. Speed=11.844000m/h.</desc>
<speed>3.290000</speed>
</trkpt>
<trkpt lat="55.989090" lon="26.560993">
<ele>92.788147</ele>
<time>2010-06-20T08:39:53Z</time>
<desc>lat.=55.989090, lon.=26.560993, Alt.=92.788147m. Speed=13.572000m/h.</desc>
<speed>3.770000</speed>
</trkpt>
<trkpt lat="55.989147" lon="26.561001">
<ele>93.883850</ele>
<time>2010-06-20T08:39:54Z</time>
<desc>lat.=55.989147, lon.=26.561001, Alt.=93.883850m. Speed=12.744000m/h.</desc>
<speed>3.540000</speed>
</trkpt>
<trkpt lat="55.989189" lon="26.560986">
<ele>94.665100</ele>
<time>2010-06-20T08:39:55Z</time>
<desc>lat.=55.989189, lon.=26.560986, Alt.=94.665100m. Speed=11.700000m/h.</desc>
<speed>3.250000</speed>
</trkpt>
<trkpt lat="55.989220" lon="26.560976">
<ele>93.854553</ele>
<time>2010-06-20T08:39:56Z</time>
<desc>lat.=55.989220, lon.=26.560976, Alt.=93.854553m. Speed=11.052000m/h.</desc>
<speed>3.070000</speed>
</trkpt>
<trkpt lat="55.989254" lon="26.560966">
<ele>93.188538</ele>
<time>2010-06-20T08:39:57Z</time>
<desc>lat.=55.989254, lon.=26.560966, Alt.=93.188538m. Speed=12.060000m/h.</desc>
<speed>3.350000</speed>
</trkpt>
<trkpt lat="55.989285" lon="26.560951">
<ele>93.202209</ele>
<time>2010-06-20T08:39:58Z</time>
<desc>lat.=55.989285, lon.=26.560951, Alt.=93.202209m. Speed=15.732000m/h.</desc>
<speed>4.370000</speed>
</trkpt>
<trkpt lat="55.989326" lon="26.560955">
<ele>92.305725</ele>
<time>2010-06-20T08:39:59Z</time>
<desc>lat.=55.989326, lon.=26.560955, Alt.=92.305725m. Speed=15.228000m/h.</desc>
<speed>4.230000</speed>
</trkpt>
<trkpt lat="55.989376" lon="26.560955">
<ele>93.524475</ele>
<time>2010-06-20T08:40:00Z</time>
<desc>lat.=55.989376, lon.=26.560955, Alt.=93.524475m. Speed=14.364000m/h.</desc>
<speed>3.990000</speed>
</trkpt>
<trkpt lat="55.989418" lon="26.560957">
<ele>94.065491</ele>
<time>2010-06-20T08:40:01Z</time>
<desc>lat.=55.989418, lon.=26.560957, Alt.=94.065491m. Speed=14.652000m/h.</desc>
<speed>4.070000</speed>
</trkpt>
<trkpt lat="55.989460" lon="26.560959">
<ele>93.028381</ele>
<time>2010-06-20T08:40:02Z</time>
<desc>lat.=55.989460, lon.=26.560959, Alt.=93.028381m. Speed=12.348000m/h.</desc>
<speed>3.430000</speed>
</trkpt>
<trkpt lat="55.989506" lon="26.560955">
<ele>92.124084</ele>
<time>2010-06-20T08:40:03Z</time>
<desc>lat.=55.989506, lon.=26.560955, Alt.=92.124084m. Speed=10.944000m/h.</desc>
<speed>3.040000</speed>
</trkpt>
<trkpt lat="55.989536" lon="26.560955">
<ele>91.436584</ele>
<time>2010-06-20T08:40:04Z</time>
<desc>lat.=55.989536, lon.=26.560955, Alt.=91.436584m. Speed=11.592000m/h.</desc>
<speed>3.220000</speed>
</trkpt>
<trkpt lat="55.989578" lon="26.560966">
<ele>87.213928</ele>
<time>2010-06-20T08:40:05Z</time>
<desc>lat.=55.989578, lon.=26.560966, Alt.=87.213928m. Speed=13.680000m/h.</desc>
<speed>3.800000</speed>
</trkpt>
<trkpt lat="55.989616" lon="26.560978">
<ele>87.874084</ele>
<time>2010-06-20T08:40:06Z</time>
<desc>lat.=55.989616, lon.=26.560978, Alt.=87.874084m. Speed=12.420000m/h.</desc>
<speed>3.450000</speed>
</trkpt>
<trkpt lat="55.989643" lon="26.560993">
<ele>89.264709</ele>
<time>2010-06-20T08:40:07Z</time>
<desc>lat.=55.989643, lon.=26.560993, Alt.=89.264709m. Speed=12.024000m/h.</desc>
<speed>3.340000</speed>
</trkpt>
<trkpt lat="55.989677" lon="26.561014">
<ele>88.323303</ele>
<time>2010-06-20T08:40:08Z</time>
<desc>lat.=55.989677, lon.=26.561014, Alt.=88.323303m. Speed=12.672000m/h.</desc>
<speed>3.520000</speed>
</trkpt>
<trkpt lat="55.989693" lon="26.561039">
<ele>88.249084</ele>
<time>2010-06-20T08:40:09Z</time>
<desc>lat.=55.989693, lon.=26.561039, Alt.=88.249084m. Speed=10.548000m/h.</desc>
<speed>2.930000</speed>
</trkpt>
<trkpt lat="55.989712" lon="26.561073">
<ele>88.651428</ele>
<time>2010-06-20T08:40:10Z</time>
<desc>lat.=55.989712, lon.=26.561073, Alt.=88.651428m. Speed=11.736000m/h.</desc>
<speed>3.260000</speed>
</trkpt>
<trkpt lat="55.989738" lon="26.561113">
<ele>88.544006</ele>
<time>2010-06-20T08:40:11Z</time>
<desc>lat.=55.989738, lon.=26.561113, Alt.=88.544006m. Speed=13.464000m/h.</desc>
<speed>3.740000</speed>
</trkpt>
<trkpt lat="55.989758" lon="26.561155">
<ele>88.426819</ele>
<time>2010-06-20T08:40:12Z</time>
<desc>lat.=55.989758, lon.=26.561155, Alt.=88.426819m. Speed=10.152000m/h.</desc>
<speed>2.820000</speed>
</trkpt>
<trkpt lat="55.989773" lon="26.561192">
<ele>88.272522</ele>
<time>2010-06-20T08:40:13Z</time>
<desc>lat.=55.989773, lon.=26.561192, Alt.=88.272522m. Speed=9.684000m/h.</desc>
<speed>2.690000</speed>
</trkpt>
<trkpt lat="55.989784" lon="26.561234">
<ele>87.919006</ele>
<time>2010-06-20T08:40:14Z</time>
<desc>lat.=55.989784, lon.=26.561234, Alt.=87.919006m. Speed=9.792000m/h.</desc>
<speed>2.720000</speed>
</trkpt>
<trkpt lat="55.989792" lon="26.561275">
<ele>87.737366</ele>
<time>2010-06-20T08:40:15Z</time>
<desc>lat.=55.989792, lon.=26.561275, Alt.=87.737366m. Speed=10.404000m/h.</desc>
<speed>2.890000</speed>
</trkpt>
<trkpt lat="55.989811" lon="26.561317">
<ele>87.438538</ele>
<time>2010-06-20T08:40:16Z</time>
<desc>lat.=55.989811, lon.=26.561317, Alt.=87.438538m. Speed=10.692000m/h.</desc>
<speed>2.970000</speed>
</trkpt>
<trkpt lat="55.989830" lon="26.561367">
<ele>87.231506</ele>
<time>2010-06-20T08:40:17Z</time>
<desc>lat.=55.989830, lon.=26.561367, Alt.=87.231506m. Speed=11.340000m/h.</desc>
<speed>3.150000</speed>
</trkpt>
<trkpt lat="55.989841" lon="26.561420">
<ele>87.282288</ele>
<time>2010-06-20T08:40:18Z</time>
<desc>lat.=55.989841, lon.=26.561420, Alt.=87.282288m. Speed=11.520000m/h.</desc>
<speed>3.200000</speed>
</trkpt>
<trkpt lat="55.989853" lon="26.561462">
<ele>87.489319</ele>
<time>2010-06-20T08:40:19Z</time>
<desc>lat.=55.989853, lon.=26.561462, Alt.=87.489319m. Speed=10.764000m/h.</desc>
<speed>2.990000</speed>
</trkpt>
<trkpt lat="55.989861" lon="26.561495">
<ele>87.903381</ele>
<time>2010-06-20T08:40:20Z</time>
<desc>lat.=55.989861, lon.=26.561495, Alt.=87.903381m. Speed=8.748000m/h.</desc>
<speed>2.430000</speed>
</trkpt>
<trkpt lat="55.989876" lon="26.561531">
<ele>88.034241</ele>
<time>2010-06-20T08:40:21Z</time>
<desc>lat.=55.989876, lon.=26.561531, Alt.=88.034241m. Speed=10.224000m/h.</desc>
<speed>2.840000</speed>
</trkpt>
<trkpt lat="55.989891" lon="26.561565">
<ele>88.235413</ele>
<time>2010-06-20T08:40:22Z</time>
<desc>lat.=55.989891, lon.=26.561565, Alt.=88.235413m. Speed=9.684000m/h.</desc>
<speed>2.690000</speed>
</trkpt>
<trkpt lat="55.989910" lon="26.561602">
<ele>88.241272</ele>
<time>2010-06-20T08:40:23Z</time>
<desc>lat.=55.989910, lon.=26.561602, Alt.=88.241272m. Speed=10.584000m/h.</desc>
<speed>2.940000</speed>
</trkpt>
<trkpt lat="55.989925" lon="26.561636">
<ele>88.715881</ele>
<time>2010-06-20T08:40:24Z</time>
<desc>lat.=55.989925, lon.=26.561636, Alt.=88.715881m. Speed=9.936000m/h.</desc>
<speed>2.760000</speed>
</trkpt>
<trkpt lat="55.989944" lon="26.561670">
<ele>89.278381</ele>
<time>2010-06-20T08:40:25Z</time>
<desc>lat.=55.989944, lon.=26.561670, Alt.=89.278381m. Speed=10.368000m/h.</desc>
<speed>2.880000</speed>
</trkpt>
<trkpt lat="55.989967" lon="26.561710">
<ele>89.557678</ele>
<time>2010-06-20T08:40:26Z</time>
<desc>lat.=55.989967, lon.=26.561710, Alt.=89.557678m. Speed=10.764000m/h.</desc>
<speed>2.990000</speed>
</trkpt>
<trkpt lat="55.989990" lon="26.561745">
<ele>89.637756</ele>
<time>2010-06-20T08:40:27Z</time>
<desc>lat.=55.989990, lon.=26.561745, Alt.=89.637756m. Speed=10.692000m/h.</desc>
<speed>2.970000</speed>
</trkpt>
<trkpt lat="55.990005" lon="26.561781">
<ele>89.223694</ele>
<time>2010-06-20T08:40:28Z</time>
<desc>lat.=55.990005, lon.=26.561781, Alt.=89.223694m. Speed=10.188000m/h.</desc>
<speed>2.830000</speed>
</trkpt>
<trkpt lat="55.990028" lon="26.561813">
<ele>89.817444</ele>
<time>2010-06-20T08:40:29Z</time>
<desc>lat.=55.990028, lon.=26.561813, Alt.=89.817444m. Speed=10.188000m/h.</desc>
<speed>2.830000</speed>
</trkpt>
<trkpt lat="55.990047" lon="26.561846">
<ele>89.936584</ele>
<time>2010-06-20T08:40:30Z</time>
<desc>lat.=55.990047, lon.=26.561846, Alt.=89.936584m. Speed=8.856000m/h.</desc>
<speed>2.460000</speed>
</trkpt>
<trkpt lat="55.990067" lon="26.561878">
<ele>90.585022</ele>
<time>2010-06-20T08:40:31Z</time>
<desc>lat.=55.990067, lon.=26.561878, Alt.=90.585022m. Speed=10.980000m/h.</desc>
<speed>3.050000</speed>
</trkpt>
<trkpt lat="55.990093" lon="26.561914">
<ele>91.198303</ele>
<time>2010-06-20T08:40:32Z</time>
<desc>lat.=55.990093, lon.=26.561914, Alt.=91.198303m. Speed=10.080000m/h.</desc>
<speed>2.800000</speed>
</trkpt>
<trkpt lat="55.990112" lon="26.561941">
<ele>91.676819</ele>
<time>2010-06-20T08:40:33Z</time>
<desc>lat.=55.990112, lon.=26.561941, Alt.=91.676819m. Speed=8.172000m/h.</desc>
<speed>2.270000</speed>
</trkpt>
<trkpt lat="55.990124" lon="26.561966">
<ele>90.993225</ele>
<time>2010-06-20T08:40:34Z</time>
<desc>lat.=55.990124, lon.=26.561966, Alt.=90.993225m. Speed=9.216000m/h.</desc>
<speed>2.560000</speed>
</trkpt>
<trkpt lat="55.990139" lon="26.561998">
<ele>91.112366</ele>
<time>2010-06-20T08:40:35Z</time>
<desc>lat.=55.990139, lon.=26.561998, Alt.=91.112366m. Speed=8.820000m/h.</desc>
<speed>2.450000</speed>
</trkpt>
<trkpt lat="55.990162" lon="26.562037">
<ele>91.151428</ele>
<time>2010-06-20T08:40:36Z</time>
<desc>lat.=55.990162, lon.=26.562037, Alt.=91.151428m. Speed=11.556000m/h.</desc>
<speed>3.210000</speed>
</trkpt>
<trkpt lat="55.990177" lon="26.562080">
<ele>91.544006</ele>
<time>2010-06-20T08:40:37Z</time>
<desc>lat.=55.990177, lon.=26.562080, Alt.=91.544006m. Speed=11.772000m/h.</desc>
<speed>3.270000</speed>
</trkpt>
<trkpt lat="55.990200" lon="26.562120">
<ele>92.038147</ele>
<time>2010-06-20T08:40:38Z</time>
<desc>lat.=55.990200, lon.=26.562120, Alt.=92.038147m. Speed=10.368000m/h.</desc>
<speed>2.880000</speed>
</trkpt>
<trkpt lat="55.990211" lon="26.562159">
<ele>92.442444</ele>
<time>2010-06-20T08:40:39Z</time>
<desc>lat.=55.990211, lon.=26.562159, Alt.=92.442444m. Speed=9.144000m/h.</desc>
<speed>2.540000</speed>
</trkpt>
<trkpt lat="55.990211" lon="26.562206">
<ele>92.002991</ele>
<time>2010-06-20T08:40:40Z</time>
<desc>lat.=55.990211, lon.=26.562206, Alt.=92.002991m. Speed=7.668000m/h.</desc>
<speed>2.130000</speed>
</trkpt>
<trkpt lat="55.990219" lon="26.562237">
<ele>91.946350</ele>
<time>2010-06-20T08:40:41Z</time>
<desc>lat.=55.990219, lon.=26.562237, Alt.=91.946350m. Speed=6.840000m/h.</desc>
<speed>1.900000</speed>
</trkpt>
<trkpt lat="55.990227" lon="26.562271">
<ele>92.006897</ele>
<time>2010-06-20T08:40:42Z</time>
<desc>lat.=55.990227, lon.=26.562271, Alt.=92.006897m. Speed=7.056000m/h.</desc>
<speed>1.960000</speed>
</trkpt>
<trkpt lat="55.990227" lon="26.562305">
<ele>91.924866</ele>
<time>2010-06-20T08:40:43Z</time>
<desc>lat.=55.990227, lon.=26.562305, Alt.=91.924866m. Speed=7.164000m/h.</desc>
<speed>1.990000</speed>
</trkpt>
<trkpt lat="55.990231" lon="26.562344">
<ele>91.940491</ele>
<time>2010-06-20T08:40:44Z</time>
<desc>lat.=55.990231, lon.=26.562344, Alt.=91.940491m. Speed=7.596000m/h.</desc>
<speed>2.110000</speed>
</trkpt>
<trkpt lat="55.990242" lon="26.562376">
<ele>91.706116</ele>
<time>2010-06-20T08:40:45Z</time>
<desc>lat.=55.990242, lon.=26.562376, Alt.=91.706116m. Speed=6.516000m/h.</desc>
<speed>1.810000</speed>
</trkpt>
<trkpt lat="55.990250" lon="26.562414">
<ele>91.495178</ele>
<time>2010-06-20T08:40:46Z</time>
<desc>lat.=55.990250, lon.=26.562414, Alt.=91.495178m. Speed=8.280000m/h.</desc>
<speed>2.300000</speed>
</trkpt>
<trkpt lat="55.990269" lon="26.562458">
<ele>90.969788</ele>
<time>2010-06-20T08:40:47Z</time>
<desc>lat.=55.990269, lon.=26.562458, Alt.=90.969788m. Speed=9.036000m/h.</desc>
<speed>2.510000</speed>
</trkpt>
<trkpt lat="55.990292" lon="26.562508">
<ele>90.356506</ele>
<time>2010-06-20T08:40:48Z</time>
<desc>lat.=55.990292, lon.=26.562508, Alt.=90.356506m. Speed=9.216000m/h.</desc>
<speed>2.560000</speed>
</trkpt>
<trkpt lat="55.990314" lon="26.562550">
<ele>90.047913</ele>
<time>2010-06-20T08:40:49Z</time>
<desc>lat.=55.990314, lon.=26.562550, Alt.=90.047913m. Speed=8.676000m/h.</desc>
<speed>2.410000</speed>
</trkpt>
<trkpt lat="55.990337" lon="26.562595">
<ele>90.053772</ele>
<time>2010-06-20T08:40:50Z</time>
<desc>lat.=55.990337, lon.=26.562595, Alt.=90.053772m. Speed=10.692000m/h.</desc>
<speed>2.970000</speed>
</trkpt>
<trkpt lat="55.990364" lon="26.562634">
<ele>89.874084</ele>
<time>2010-06-20T08:40:51Z</time>
<desc>lat.=55.990364, lon.=26.562634, Alt.=89.874084m. Speed=10.476000m/h.</desc>
<speed>2.910000</speed>
</trkpt>
<trkpt lat="55.990387" lon="26.562679">
<ele>89.975647</ele>
<time>2010-06-20T08:40:52Z</time>
<desc>lat.=55.990387, lon.=26.562679, Alt.=89.975647m. Speed=9.720000m/h.</desc>
<speed>2.700000</speed>
</trkpt>
<trkpt lat="55.990414" lon="26.562748">
<ele>89.452209</ele>
<time>2010-06-20T08:40:53Z</time>
<desc>lat.=55.990414, lon.=26.562748, Alt.=89.452209m. Speed=9.900000m/h.</desc>
<speed>2.750000</speed>
</trkpt>
<trkpt lat="55.990414" lon="26.562813">
<ele>89.231506</ele>
<time>2010-06-20T08:40:54Z</time>
<desc>lat.=55.990414, lon.=26.562813, Alt.=89.231506m. Speed=8.424000m/h.</desc>
<speed>2.340000</speed>
</trkpt>
<trkpt lat="55.990437" lon="26.562870">
<ele>89.307678</ele>
<time>2010-06-20T08:40:55Z</time>
<desc>lat.=55.990437, lon.=26.562870, Alt.=89.307678m. Speed=9.864000m/h.</desc>
<speed>2.740000</speed>
</trkpt>
<trkpt lat="55.990448" lon="26.562946">
<ele>88.948303</ele>
<time>2010-06-20T08:40:56Z</time>
<desc>lat.=55.990448, lon.=26.562946, Alt.=88.948303m. Speed=10.080000m/h.</desc>
<speed>2.800000</speed>
</trkpt>
<trkpt lat="55.990467" lon="26.562984">
<ele>89.004944</ele>
<time>2010-06-20T08:40:57Z</time>
<desc>lat.=55.990467, lon.=26.562984, Alt.=89.004944m. Speed=9.252000m/h.</desc>
<speed>2.570000</speed>
</trkpt>
<trkpt lat="55.990471" lon="26.563055">
<ele>88.235413</ele>
<time>2010-06-20T08:40:58Z</time>
<desc>lat.=55.990471, lon.=26.563055, Alt.=88.235413m. Speed=11.376000m/h.</desc>
<speed>3.160000</speed>
</trkpt>
<trkpt lat="55.990490" lon="26.563107">
<ele>87.674866</ele>
<time>2010-06-20T08:40:59Z</time>
<desc>lat.=55.990490, lon.=26.563107, Alt.=87.674866m. Speed=9.828000m/h.</desc>
<speed>2.730000</speed>
</trkpt>
<trkpt lat="55.990517" lon="26.563164">
<ele>86.717834</ele>
<time>2010-06-20T08:41:00Z</time>
<desc>lat.=55.990517, lon.=26.563164, Alt.=86.717834m. Speed=10.584000m/h.</desc>
<speed>2.940000</speed>
</trkpt>
<trkpt lat="55.990547" lon="26.563223">
<ele>86.241272</ele>
<time>2010-06-20T08:41:01Z</time>
<desc>lat.=55.990547, lon.=26.563223, Alt.=86.241272m. Speed=9.792000m/h.</desc>
<speed>2.720000</speed>
</trkpt>
<trkpt lat="55.990562" lon="26.563272">
<ele>85.739319</ele>
<time>2010-06-20T08:41:02Z</time>
<desc>lat.=55.990562, lon.=26.563272, Alt.=85.739319m. Speed=9.756000m/h.</desc>
<speed>2.710000</speed>
</trkpt>
<trkpt lat="55.990578" lon="26.563316">
<ele>85.333069</ele>
<time>2010-06-20T08:41:03Z</time>
<desc>lat.=55.990578, lon.=26.563316, Alt.=85.333069m. Speed=8.928000m/h.</desc>
<speed>2.480000</speed>
</trkpt>
<trkpt lat="55.990589" lon="26.563362">
<ele>85.147522</ele>
<time>2010-06-20T08:41:04Z</time>
<desc>lat.=55.990589, lon.=26.563362, Alt.=85.147522m. Speed=8.892000m/h.</desc>
<speed>2.470000</speed>
</trkpt>
<trkpt lat="55.990604" lon="26.563402">
<ele>84.374084</ele>
<time>2010-06-20T08:41:05Z</time>
<desc>lat.=55.990604, lon.=26.563402, Alt.=84.374084m. Speed=7.092000m/h.</desc>
<speed>1.970000</speed>
</trkpt>
<trkpt lat="55.990612" lon="26.563435">
<ele>83.922913</ele>
<time>2010-06-20T08:41:06Z</time>
<desc>lat.=55.990612, lon.=26.563435, Alt.=83.922913m. Speed=4.860000m/h.</desc>
<speed>1.350000</speed>
</trkpt>
<trkpt lat="55.990620" lon="26.563477">
<ele>83.426819</ele>
<time>2010-06-20T08:41:07Z</time>
<desc>lat.=55.990620, lon.=26.563477, Alt.=83.426819m. Speed=6.804000m/h.</desc>
<speed>1.890000</speed>
</trkpt>
<trkpt lat="55.990627" lon="26.563520">
<ele>82.626038</ele>
<time>2010-06-20T08:41:08Z</time>
<desc>lat.=55.990627, lon.=26.563520, Alt.=82.626038m. Speed=7.560000m/h.</desc>
<speed>2.100000</speed>
</trkpt>
<trkpt lat="55.990635" lon="26.563568">
<ele>82.047913</ele>
<time>2010-06-20T08:41:09Z</time>
<desc>lat.=55.990635, lon.=26.563568, Alt.=82.047913m. Speed=6.912000m/h.</desc>
<speed>1.920000</speed>
</trkpt>
<trkpt lat="55.990662" lon="26.563629">
<ele>81.829163</ele>
<time>2010-06-20T08:41:10Z</time>
<desc>lat.=55.990662, lon.=26.563629, Alt.=81.829163m. Speed=10.980000m/h.</desc>
<speed>3.050000</speed>
</trkpt>
<trkpt lat="55.990673" lon="26.563719">
<ele>80.092834</ele>
<time>2010-06-20T08:41:11Z</time>
<desc>lat.=55.990673, lon.=26.563719, Alt.=80.092834m. Speed=9.792000m/h.</desc>
<speed>2.720000</speed>
</trkpt>
<trkpt lat="55.990681" lon="26.563803">
<ele>78.979553</ele>
<time>2010-06-20T08:41:12Z</time>
<desc>lat.=55.990681, lon.=26.563803, Alt.=78.979553m. Speed=8.352000m/h.</desc>
<speed>2.320000</speed>
</trkpt>
<trkpt lat="55.990692" lon="26.563835">
<ele>78.143616</ele>
<time>2010-06-20T08:41:13Z</time>
<desc>lat.=55.990692, lon.=26.563835, Alt.=78.143616m. Speed=7.200000m/h.</desc>
<speed>2.000000</speed>
</trkpt>
<trkpt lat="55.990707" lon="26.563868">
<ele>77.723694</ele>
<time>2010-06-20T08:41:14Z</time>
<desc>lat.=55.990707, lon.=26.563868, Alt.=77.723694m. Speed=5.760000m/h.</desc>
<speed>1.600000</speed>
</trkpt>
<trkpt lat="55.990746" lon="26.563927">
<ele>76.604553</ele>
<time>2010-06-20T08:41:15Z</time>
<desc>lat.=55.990746, lon.=26.563927, Alt.=76.604553m. Speed=10.332000m/h.</desc>
<speed>2.870000</speed>
</trkpt>
<trkpt lat="55.990765" lon="26.563963">
<ele>76.223694</ele>
<time>2010-06-20T08:41:16Z</time>
<desc>lat.=55.990765, lon.=26.563963, Alt.=76.223694m. Speed=11.448000m/h.</desc>
<speed>3.180000</speed>
</trkpt>
<trkpt lat="55.990780" lon="26.564045">
<ele>72.852600</ele>
<time>2010-06-20T08:41:17Z</time>
<desc>lat.=55.990780, lon.=26.564045, Alt.=72.852600m. Speed=9.864000m/h.</desc>
<speed>2.740000</speed>
</trkpt>
<trkpt lat="55.990803" lon="26.564100">
<ele>71.883850</ele>
<time>2010-06-20T08:41:18Z</time>
<desc>lat.=55.990803, lon.=26.564100, Alt.=71.883850m. Speed=9.936000m/h.</desc>
<speed>2.760000</speed>
</trkpt>
<trkpt lat="55.990826" lon="26.564146">
<ele>71.073303</ele>
<time>2010-06-20T08:41:19Z</time>
<desc>lat.=55.990826, lon.=26.564146, Alt.=71.073303m. Speed=10.224000m/h.</desc>
<speed>2.840000</speed>
</trkpt>
<trkpt lat="55.990849" lon="26.564199">
<ele>70.200256</ele>
<time>2010-06-20T08:41:20Z</time>
<desc>lat.=55.990849, lon.=26.564199, Alt.=70.200256m. Speed=11.700000m/h.</desc>
<speed>3.250000</speed>
</trkpt>
<trkpt lat="55.990879" lon="26.564245">
<ele>69.979553</ele>
<time>2010-06-20T08:41:21Z</time>
<desc>lat.=55.990879, lon.=26.564245, Alt.=69.979553m. Speed=12.168000m/h.</desc>
<speed>3.380000</speed>
</trkpt>
<trkpt lat="55.990902" lon="26.564289">
<ele>69.469788</ele>
<time>2010-06-20T08:41:22Z</time>
<desc>lat.=55.990902, lon.=26.564289, Alt.=69.469788m. Speed=11.880000m/h.</desc>
<speed>3.300000</speed>
</trkpt>
<trkpt lat="55.990921" lon="26.564323">
<ele>69.268616</ele>
<time>2010-06-20T08:41:23Z</time>
<desc>lat.=55.990921, lon.=26.564323, Alt.=69.268616m. Speed=7.704000m/h.</desc>
<speed>2.140000</speed>
</trkpt>
<trkpt lat="55.990940" lon="26.564348">
<ele>69.309631</ele>
<time>2010-06-20T08:41:24Z</time>
<desc>lat.=55.990940, lon.=26.564348, Alt.=69.309631m. Speed=7.272000m/h.</desc>
<speed>2.020000</speed>
</trkpt>
<trkpt lat="55.990963" lon="26.564365">
<ele>70.838928</ele>
<time>2010-06-20T08:41:25Z</time>
<desc>lat.=55.990963, lon.=26.564365, Alt.=70.838928m. Speed=8.820000m/h.</desc>
<speed>2.450000</speed>
</trkpt>
<trkpt lat="55.990993" lon="26.564386">
<ele>71.194397</ele>
<time>2010-06-20T08:41:26Z</time>
<desc>lat.=55.990993, lon.=26.564386, Alt.=71.194397m. Speed=10.188000m/h.</desc>
<speed>2.830000</speed>
</trkpt>
<trkpt lat="55.991024" lon="26.564417">
<ele>71.315491</ele>
<time>2010-06-20T08:41:27Z</time>
<desc>lat.=55.991024, lon.=26.564417, Alt.=71.315491m. Speed=9.828000m/h.</desc>
<speed>2.730000</speed>
</trkpt>
<trkpt lat="55.991058" lon="26.564438">
<ele>71.081116</ele>
<time>2010-06-20T08:41:28Z</time>
<desc>lat.=55.991058, lon.=26.564438, Alt.=71.081116m. Speed=11.052000m/h.</desc>
<speed>3.070000</speed>
</trkpt>
<trkpt lat="55.991093" lon="26.564459">
<ele>71.030334</ele>
<time>2010-06-20T08:41:29Z</time>
<desc>lat.=55.991093, lon.=26.564459, Alt.=71.030334m. Speed=11.520000m/h.</desc>
<speed>3.200000</speed>
</trkpt>
<trkpt lat="55.991123" lon="26.564487">
<ele>73.319397</ele>
<time>2010-06-20T08:41:30Z</time>
<desc>lat.=55.991123, lon.=26.564487, Alt.=73.319397m. Speed=9.720000m/h.</desc>
<speed>2.700000</speed>
</trkpt>
<trkpt lat="55.991154" lon="26.564505">
<ele>74.002991</ele>
<time>2010-06-20T08:41:31Z</time>
<desc>lat.=55.991154, lon.=26.564505, Alt.=74.002991m. Speed=10.980000m/h.</desc>
<speed>3.050000</speed>
</trkpt>
<trkpt lat="55.991196" lon="26.564522">
<ele>74.460022</ele>
<time>2010-06-20T08:41:32Z</time>
<desc>lat.=55.991196, lon.=26.564522, Alt.=74.460022m. Speed=14.832000m/h.</desc>
<speed>4.120000</speed>
</trkpt>
<trkpt lat="55.991234" lon="26.564531">
<ele>74.794006</ele>
<time>2010-06-20T08:41:33Z</time>
<desc>lat.=55.991234, lon.=26.564531, Alt.=74.794006m. Speed=13.428000m/h.</desc>
<speed>3.730000</speed>
</trkpt>
<trkpt lat="55.991268" lon="26.564533">
<ele>74.940491</ele>
<time>2010-06-20T08:41:34Z</time>
<desc>lat.=55.991268, lon.=26.564533, Alt.=74.940491m. Speed=12.312000m/h.</desc>
<speed>3.420000</speed>
</trkpt>
<trkpt lat="55.991295" lon="26.564541">
<ele>75.301819</ele>
<time>2010-06-20T08:41:35Z</time>
<desc>lat.=55.991295, lon.=26.564541, Alt.=75.301819m. Speed=8.712000m/h.</desc>
<speed>2.420000</speed>
</trkpt>
<trkpt lat="55.991322" lon="26.564545">
<ele>75.725647</ele>
<time>2010-06-20T08:41:36Z</time>
<desc>lat.=55.991322, lon.=26.564545, Alt.=75.725647m. Speed=9.684000m/h.</desc>
<speed>2.690000</speed>
</trkpt>
<trkpt lat="55.991348" lon="26.564554">
<ele>76.876038</ele>
<time>2010-06-20T08:41:37Z</time>
<desc>lat.=55.991348, lon.=26.564554, Alt.=76.876038m. Speed=9.360000m/h.</desc>
<speed>2.600000</speed>
</trkpt>
<trkpt lat="55.991371" lon="26.564564">
<ele>77.667053</ele>
<time>2010-06-20T08:41:38Z</time>
<desc>lat.=55.991371, lon.=26.564564, Alt.=77.667053m. Speed=8.100000m/h.</desc>
<speed>2.250000</speed>
</trkpt>
<trkpt lat="55.991394" lon="26.564562">
<ele>77.538147</ele>
<time>2010-06-20T08:41:39Z</time>
<desc>lat.=55.991394, lon.=26.564562, Alt.=77.538147m. Speed=6.552000m/h.</desc>
<speed>1.820000</speed>
</trkpt>
<trkpt lat="55.991413" lon="26.564556">
<ele>77.338928</ele>
<time>2010-06-20T08:41:40Z</time>
<desc>lat.=55.991413, lon.=26.564556, Alt.=77.338928m. Speed=6.660000m/h.</desc>
<speed>1.850000</speed>
</trkpt>
<trkpt lat="55.991432" lon="26.564566">
<ele>76.999084</ele>
<time>2010-06-20T08:41:41Z</time>
<desc>lat.=55.991432, lon.=26.564566, Alt.=76.999084m. Speed=6.984000m/h.</desc>
<speed>1.940000</speed>
</trkpt>
<trkpt lat="55.991447" lon="26.564575">
<ele>77.559631</ele>
<time>2010-06-20T08:41:42Z</time>
<desc>lat.=55.991447, lon.=26.564575, Alt.=77.559631m. Speed=7.452000m/h.</desc>
<speed>2.070000</speed>
</trkpt>
<trkpt lat="55.991467" lon="26.564577">
<ele>77.483459</ele>
<time>2010-06-20T08:41:43Z</time>
<desc>lat.=55.991467, lon.=26.564577, Alt.=77.483459m. Speed=6.696000m/h.</desc>
<speed>1.860000</speed>
</trkpt>
<trkpt lat="55.991489" lon="26.564579">
<ele>77.159241</ele>
<time>2010-06-20T08:41:44Z</time>
<desc>lat.=55.991489, lon.=26.564579, Alt.=77.159241m. Speed=8.280000m/h.</desc>
<speed>2.300000</speed>
</trkpt>
<trkpt lat="55.991520" lon="26.564569">
<ele>76.659241</ele>
<time>2010-06-20T08:41:45Z</time>
<desc>lat.=55.991520, lon.=26.564569, Alt.=76.659241m. Speed=10.224000m/h.</desc>
<speed>2.840000</speed>
</trkpt>
<trkpt lat="55.991562" lon="26.564548">
<ele>75.872131</ele>
<time>2010-06-20T08:41:46Z</time>
<desc>lat.=55.991562, lon.=26.564548, Alt.=75.872131m. Speed=9.864000m/h.</desc>
<speed>2.740000</speed>
</trkpt>
<trkpt lat="55.991585" lon="26.564535">
<ele>75.588928</ele>
<time>2010-06-20T08:41:47Z</time>
<desc>lat.=55.991585, lon.=26.564535, Alt.=75.588928m. Speed=7.128000m/h.</desc>
<speed>1.980000</speed>
</trkpt>
<trkpt lat="55.991608" lon="26.564528">
<ele>75.083069</ele>
<time>2010-06-20T08:41:48Z</time>
<desc>lat.=55.991608, lon.=26.564528, Alt.=75.083069m. Speed=7.920000m/h.</desc>
<speed>2.200000</speed>
</trkpt>
<trkpt lat="55.991634" lon="26.564520">
<ele>74.655334</ele>
<time>2010-06-20T08:41:49Z</time>
<desc>lat.=55.991634, lon.=26.564520, Alt.=74.655334m. Speed=7.272000m/h.</desc>
<speed>2.020000</speed>
</trkpt>
<trkpt lat="55.991661" lon="26.564518">
<ele>74.192444</ele>
<time>2010-06-20T08:41:50Z</time>
<desc>lat.=55.991661, lon.=26.564518, Alt.=74.192444m. Speed=7.056000m/h.</desc>
<speed>1.960000</speed>
</trkpt>
<trkpt lat="55.991680" lon="26.564512">
<ele>73.827209</ele>
<time>2010-06-20T08:41:51Z</time>
<desc>lat.=55.991680, lon.=26.564512, Alt.=73.827209m. Speed=4.500000m/h.</desc>
<speed>1.250000</speed>
</trkpt>
<trkpt lat="55.991699" lon="26.564518">
<ele>73.233459</ele>
<time>2010-06-20T08:41:52Z</time>
<desc>lat.=55.991699, lon.=26.564518, Alt.=73.233459m. Speed=5.076000m/h.</desc>
<speed>1.410000</speed>
</trkpt>
<trkpt lat="55.991722" lon="26.564508">
<ele>72.749084</ele>
<time>2010-06-20T08:41:53Z</time>
<desc>lat.=55.991722, lon.=26.564508, Alt.=72.749084m. Speed=7.308000m/h.</desc>
<speed>2.030000</speed>
</trkpt>
<trkpt lat="55.991741" lon="26.564489">
<ele>72.614319</ele>
<time>2010-06-20T08:41:54Z</time>
<desc>lat.=55.991741, lon.=26.564489, Alt.=72.614319m. Speed=6.732000m/h.</desc>
<speed>1.870000</speed>
</trkpt>
<trkpt lat="55.991764" lon="26.564480">
<ele>72.690491</ele>
<time>2010-06-20T08:41:55Z</time>
<desc>lat.=55.991764, lon.=26.564480, Alt.=72.690491m. Speed=7.380000m/h.</desc>
<speed>2.050000</speed>
</trkpt>
<trkpt lat="55.991795" lon="26.564472">
<ele>72.737366</ele>
<time>2010-06-20T08:41:56Z</time>
<desc>lat.=55.991795, lon.=26.564472, Alt.=72.737366m. Speed=8.532000m/h.</desc>
<speed>2.370000</speed>
</trkpt>
<trkpt lat="55.991829" lon="26.564466">
<ele>72.678772</ele>
<time>2010-06-20T08:41:57Z</time>
<desc>lat.=55.991829, lon.=26.564466, Alt.=72.678772m. Speed=9.000000m/h.</desc>
<speed>2.500000</speed>
</trkpt>
<trkpt lat="55.991859" lon="26.564457">
<ele>72.803772</ele>
<time>2010-06-20T08:41:58Z</time>
<desc>lat.=55.991859, lon.=26.564457, Alt.=72.803772m. Speed=8.172000m/h.</desc>
<speed>2.270000</speed>
</trkpt>
<trkpt lat="55.991894" lon="26.564445">
<ele>72.774475</ele>
<time>2010-06-20T08:41:59Z</time>
<desc>lat.=55.991894, lon.=26.564445, Alt.=72.774475m. Speed=8.244000m/h.</desc>
<speed>2.290000</speed>
</trkpt>
<trkpt lat="55.991920" lon="26.564432">
<ele>73.172913</ele>
<time>2010-06-20T08:42:00Z</time>
<desc>lat.=55.991920, lon.=26.564432, Alt.=73.172913m. Speed=7.992000m/h.</desc>
<speed>2.220000</speed>
</trkpt>
<trkpt lat="55.991959" lon="26.564421">
<ele>72.993225</ele>
<time>2010-06-20T08:42:01Z</time>
<desc>lat.=55.991959, lon.=26.564421, Alt.=72.993225m. Speed=9.252000m/h.</desc>
<speed>2.570000</speed>
</trkpt>
<trkpt lat="55.991978" lon="26.564396">
<ele>72.909241</ele>
<time>2010-06-20T08:42:02Z</time>
<desc>lat.=55.991978, lon.=26.564396, Alt.=72.909241m. Speed=10.800000m/h.</desc>
<speed>3.000000</speed>
</trkpt>
<trkpt lat="55.992027" lon="26.564386">
<ele>74.254944</ele>
<time>2010-06-20T08:42:03Z</time>
<desc>lat.=55.992027, lon.=26.564386, Alt.=74.254944m. Speed=8.676000m/h.</desc>
<speed>2.410000</speed>
</trkpt>
<trkpt lat="55.992058" lon="26.564362">
<ele>74.122131</ele>
<time>2010-06-20T08:42:04Z</time>
<desc>lat.=55.992058, lon.=26.564362, Alt.=74.122131m. Speed=8.208000m/h.</desc>
<speed>2.280000</speed>
</trkpt>
<trkpt lat="55.992081" lon="26.564331">
<ele>74.624084</ele>
<time>2010-06-20T08:42:05Z</time>
<desc>lat.=55.992081, lon.=26.564331, Alt.=74.624084m. Speed=9.288000m/h.</desc>
<speed>2.580000</speed>
</trkpt>
<trkpt lat="55.992107" lon="26.564297">
<ele>75.292053</ele>
<time>2010-06-20T08:42:06Z</time>
<desc>lat.=55.992107, lon.=26.564297, Alt.=75.292053m. Speed=8.820000m/h.</desc>
<speed>2.450000</speed>
</trkpt>
<trkpt lat="55.992130" lon="26.564276">
<ele>76.774475</ele>
<time>2010-06-20T08:42:07Z</time>
<desc>lat.=55.992130, lon.=26.564276, Alt.=76.774475m. Speed=8.208000m/h.</desc>
<speed>2.280000</speed>
</trkpt>
<trkpt lat="55.992157" lon="26.564257">
<ele>78.501038</ele>
<time>2010-06-20T08:42:08Z</time>
<desc>lat.=55.992157, lon.=26.564257, Alt.=78.501038m. Speed=8.748000m/h.</desc>
<speed>2.430000</speed>
</trkpt>
<trkpt lat="55.992191" lon="26.564234">
<ele>79.592834</ele>
<time>2010-06-20T08:42:09Z</time>
<desc>lat.=55.992191, lon.=26.564234, Alt.=79.592834m. Speed=7.668000m/h.</desc>
<speed>2.130000</speed>
</trkpt>
<trkpt lat="55.992222" lon="26.564205">
<ele>80.518616</ele>
<time>2010-06-20T08:42:10Z</time>
<desc>lat.=55.992222, lon.=26.564205, Alt.=80.518616m. Speed=10.260000m/h.</desc>
<speed>2.850000</speed>
</trkpt>
<trkpt lat="55.992245" lon="26.564178">
<ele>80.840881</ele>
<time>2010-06-20T08:42:11Z</time>
<desc>lat.=55.992245, lon.=26.564178, Alt.=80.840881m. Speed=10.404000m/h.</desc>
<speed>2.890000</speed>
</trkpt>
<trkpt lat="55.992268" lon="26.564150">
<ele>81.075256</ele>
<time>2010-06-20T08:42:12Z</time>
<desc>lat.=55.992268, lon.=26.564150, Alt.=81.075256m. Speed=9.288000m/h.</desc>
<speed>2.580000</speed>
</trkpt>
<trkpt lat="55.992290" lon="26.564110">
<ele>81.301819</ele>
<time>2010-06-20T08:42:13Z</time>
<desc>lat.=55.992290, lon.=26.564110, Alt.=81.301819m. Speed=9.900000m/h.</desc>
<speed>2.750000</speed>
</trkpt>
<trkpt lat="55.992302" lon="26.564079">
<ele>81.608459</ele>
<time>2010-06-20T08:42:14Z</time>
<desc>lat.=55.992302, lon.=26.564079, Alt.=81.608459m. Speed=8.352000m/h.</desc>
<speed>2.320000</speed>
</trkpt>
<trkpt lat="55.992313" lon="26.564049">
<ele>82.243225</ele>
<time>2010-06-20T08:42:15Z</time>
<desc>lat.=55.992313, lon.=26.564049, Alt.=82.243225m. Speed=7.920000m/h.</desc>
<speed>2.200000</speed>
</trkpt>
<trkpt lat="55.992329" lon="26.564018">
<ele>82.579163</ele>
<time>2010-06-20T08:42:16Z</time>
<desc>lat.=55.992329, lon.=26.564018, Alt.=82.579163m. Speed=8.172000m/h.</desc>
<speed>2.270000</speed>
</trkpt>
<trkpt lat="55.992344" lon="26.563992">
<ele>82.885803</ele>
<time>2010-06-20T08:42:17Z</time>
<desc>lat.=55.992344, lon.=26.563992, Alt.=82.885803m. Speed=8.064000m/h.</desc>
<speed>2.240000</speed>
</trkpt>
<trkpt lat="55.992363" lon="26.563965">
<ele>83.042053</ele>
<time>2010-06-20T08:42:18Z</time>
<desc>lat.=55.992363, lon.=26.563965, Alt.=83.042053m. Speed=8.568000m/h.</desc>
<speed>2.380000</speed>
</trkpt>
<trkpt lat="55.992378" lon="26.563938">
<ele>83.409241</ele>
<time>2010-06-20T08:42:19Z</time>
<desc>lat.=55.992378, lon.=26.563938, Alt.=83.409241m. Speed=7.488000m/h.</desc>
<speed>2.080000</speed>
</trkpt>
<trkpt lat="55.992390" lon="26.563908">
<ele>83.766663</ele>
<time>2010-06-20T08:42:20Z</time>
<desc>lat.=55.992390, lon.=26.563908, Alt.=83.766663m. Speed=8.280000m/h.</desc>
<speed>2.300000</speed>
</trkpt>
<trkpt lat="55.992401" lon="26.563869">
<ele>83.444397</ele>
<time>2010-06-20T08:42:21Z</time>
<desc>lat.=55.992401, lon.=26.563869, Alt.=83.444397m. Speed=9.108000m/h.</desc>
<speed>2.530000</speed>
</trkpt>
<trkpt lat="55.992416" lon="26.563824">
<ele>83.754944</ele>
<time>2010-06-20T08:42:22Z</time>
<desc>lat.=55.992416, lon.=26.563824, Alt.=83.754944m. Speed=10.368000m/h.</desc>
<speed>2.880000</speed>
</trkpt>
<trkpt lat="55.992428" lon="26.563784">
<ele>84.114319</ele>
<time>2010-06-20T08:42:23Z</time>
<desc>lat.=55.992428, lon.=26.563784, Alt.=84.114319m. Speed=8.496000m/h.</desc>
<speed>2.360000</speed>
</trkpt>
<trkpt lat="55.992439" lon="26.563734">
<ele>84.676819</ele>
<time>2010-06-20T08:42:24Z</time>
<desc>lat.=55.992439, lon.=26.563734, Alt.=84.676819m. Speed=9.612000m/h.</desc>
<speed>2.670000</speed>
</trkpt>
<trkpt lat="55.992455" lon="26.563694">
<ele>84.961975</ele>
<time>2010-06-20T08:42:25Z</time>
<desc>lat.=55.992455, lon.=26.563694, Alt.=84.961975m. Speed=8.172000m/h.</desc>
<speed>2.270000</speed>
</trkpt>
<trkpt lat="55.992474" lon="26.563654">
<ele>85.182678</ele>
<time>2010-06-20T08:42:26Z</time>
<desc>lat.=55.992474, lon.=26.563654, Alt.=85.182678m. Speed=9.900000m/h.</desc>
<speed>2.750000</speed>
</trkpt>
<trkpt lat="55.992485" lon="26.563616">
<ele>85.823303</ele>
<time>2010-06-20T08:42:27Z</time>
<desc>lat.=55.992485, lon.=26.563616, Alt.=85.823303m. Speed=5.796000m/h.</desc>
<speed>1.610000</speed>
</trkpt>
<trkpt lat="55.992489" lon="26.563591">
<ele>86.002991</ele>
<time>2010-06-20T08:42:28Z</time>
<desc>lat.=55.992489, lon.=26.563591, Alt.=86.002991m. Speed=3.996000m/h.</desc>
<speed>1.110000</speed>
</trkpt>
<trkpt lat="55.992493" lon="26.563564">
<ele>86.268616</ele>
<time>2010-06-20T08:42:29Z</time>
<desc>lat.=55.992493, lon.=26.563564, Alt.=86.268616m. Speed=4.284000m/h.</desc>
<speed>1.190000</speed>
</trkpt>
<trkpt lat="55.992493" lon="26.563538">
<ele>86.094788</ele>
<time>2010-06-20T08:42:30Z</time>
<desc>lat.=55.992493, lon.=26.563538, Alt.=86.094788m. Speed=5.184000m/h.</desc>
<speed>1.440000</speed>
</trkpt>
<trkpt lat="55.992500" lon="26.563505">
<ele>87.045959</ele>
<time>2010-06-20T08:42:31Z</time>
<desc>lat.=55.992500, lon.=26.563505, Alt.=87.045959m. Speed=5.976000m/h.</desc>
<speed>1.660000</speed>
</trkpt>
<trkpt lat="55.992508" lon="26.563473">
<ele>87.620178</ele>
<time>2010-06-20T08:42:32Z</time>
<desc>lat.=55.992508, lon.=26.563473, Alt.=87.620178m. Speed=4.644000m/h.</desc>
<speed>1.290000</speed>
</trkpt>
<trkpt lat="55.992531" lon="26.563448">
<ele>88.172913</ele>
<time>2010-06-20T08:42:33Z</time>
<desc>lat.=55.992531, lon.=26.563448, Alt.=88.172913m. Speed=5.436000m/h.</desc>
<speed>1.510000</speed>
</trkpt>
<trkpt lat="55.992538" lon="26.563416">
<ele>88.477600</ele>
<time>2010-06-20T08:42:34Z</time>
<desc>lat.=55.992538, lon.=26.563416, Alt.=88.477600m. Speed=5.976000m/h.</desc>
<speed>1.660000</speed>
</trkpt>
<trkpt lat="55.992554" lon="26.563375">
<ele>89.100647</ele>
<time>2010-06-20T08:42:35Z</time>
<desc>lat.=55.992554, lon.=26.563375, Alt.=89.100647m. Speed=7.164000m/h.</desc>
<speed>1.990000</speed>
</trkpt>
<trkpt lat="55.992569" lon="26.563335">
<ele>89.672913</ele>
<time>2010-06-20T08:42:36Z</time>
<desc>lat.=55.992569, lon.=26.563335, Alt.=89.672913m. Speed=7.524000m/h.</desc>
<speed>2.090000</speed>
</trkpt>
<trkpt lat="55.992577" lon="26.563292">
<ele>89.942444</ele>
<time>2010-06-20T08:42:37Z</time>
<desc>lat.=55.992577, lon.=26.563292, Alt.=89.942444m. Speed=7.020000m/h.</desc>
<speed>1.950000</speed>
</trkpt>
<trkpt lat="55.992584" lon="26.563251">
<ele>90.405334</ele>
<time>2010-06-20T08:42:38Z</time>
<desc>lat.=55.992584, lon.=26.563251, Alt.=90.405334m. Speed=5.760000m/h.</desc>
<speed>1.600000</speed>
</trkpt>
<trkpt lat="55.992592" lon="26.563217">
<ele>90.403381</ele>
<time>2010-06-20T08:42:39Z</time>
<desc>lat.=55.992592, lon.=26.563217, Alt.=90.403381m. Speed=5.724000m/h.</desc>
<speed>1.590000</speed>
</trkpt>
<trkpt lat="55.992607" lon="26.563164">
<ele>90.407288</ele>
<time>2010-06-20T08:42:40Z</time>
<desc>lat.=55.992607, lon.=26.563164, Alt.=90.407288m. Speed=7.776000m/h.</desc>
<speed>2.160000</speed>
</trkpt>
<trkpt lat="55.992622" lon="26.563107">
<ele>90.661194</ele>
<time>2010-06-20T08:42:41Z</time>
<desc>lat.=55.992622, lon.=26.563107, Alt.=90.661194m. Speed=7.812000m/h.</desc>
<speed>2.170000</speed>
</trkpt>
<trkpt lat="55.992630" lon="26.563057">
<ele>91.465881</ele>
<time>2010-06-20T08:42:42Z</time>
<desc>lat.=55.992630, lon.=26.563057, Alt.=91.465881m. Speed=7.524000m/h.</desc>
<speed>2.090000</speed>
</trkpt>
<trkpt lat="55.992630" lon="26.563011">
<ele>92.079163</ele>
<time>2010-06-20T08:42:43Z</time>
<desc>lat.=55.992630, lon.=26.563011, Alt.=92.079163m. Speed=5.436000m/h.</desc>
<speed>1.510000</speed>
</trkpt>
<trkpt lat="55.992634" lon="26.562941">
<ele>93.669006</ele>
<time>2010-06-20T08:42:44Z</time>
<desc>lat.=55.992634, lon.=26.562941, Alt.=93.669006m. Speed=8.064000m/h.</desc>
<speed>2.240000</speed>
</trkpt>
<trkpt lat="55.992649" lon="26.562872">
<ele>94.592834</ele>
<time>2010-06-20T08:42:45Z</time>
<desc>lat.=55.992649, lon.=26.562872, Alt.=94.592834m. Speed=8.712000m/h.</desc>
<speed>2.420000</speed>
</trkpt>
<trkpt lat="55.992653" lon="26.562819">
<ele>95.686584</ele>
<time>2010-06-20T08:42:46Z</time>
<desc>lat.=55.992653, lon.=26.562819, Alt.=95.686584m. Speed=8.100000m/h.</desc>
<speed>2.250000</speed>
</trkpt>
<trkpt lat="55.992649" lon="26.562763">
<ele>97.038147</ele>
<time>2010-06-20T08:42:47Z</time>
<desc>lat.=55.992649, lon.=26.562763, Alt.=97.038147m. Speed=5.508000m/h.</desc>
<speed>1.530000</speed>
</trkpt>
<trkpt lat="55.992634" lon="26.562700">
<ele>98.567444</ele>
<time>2010-06-20T08:42:48Z</time>
<desc>lat.=55.992634, lon.=26.562700, Alt.=98.567444m. Speed=5.364000m/h.</desc>
<speed>1.490000</speed>
</trkpt>
<trkpt lat="55.992657" lon="26.562649">
<ele>99.049866</ele>
<time>2010-06-20T08:42:49Z</time>
<desc>lat.=55.992657, lon.=26.562649, Alt.=99.049866m. Speed=4.392000m/h.</desc>
<speed>1.220000</speed>
</trkpt>
<trkpt lat="55.992668" lon="26.562605">
<ele>99.870178</ele>
<time>2010-06-20T08:42:50Z</time>
<desc>lat.=55.992668, lon.=26.562605, Alt.=99.870178m. Speed=4.248000m/h.</desc>
<speed>1.180000</speed>
</trkpt>
<trkpt lat="55.992680" lon="26.562559">
<ele>100.344788</ele>
<time>2010-06-20T08:42:51Z</time>
<desc>lat.=55.992680, lon.=26.562559, Alt.=100.344788m. Speed=6.984000m/h.</desc>
<speed>1.940000</speed>
</trkpt>
<trkpt lat="55.992695" lon="26.562483">
<ele>99.608459</ele>
<time>2010-06-20T08:42:52Z</time>
<desc>lat.=55.992695, lon.=26.562483, Alt.=99.608459m. Speed=7.452000m/h.</desc>
<speed>2.070000</speed>
</trkpt>
<trkpt lat="55.992695" lon="26.562422">
<ele>98.116272</ele>
<time>2010-06-20T08:42:53Z</time>
<desc>lat.=55.992695, lon.=26.562422, Alt.=98.116272m. Speed=7.884000m/h.</desc>
<speed>2.190000</speed>
</trkpt>
<trkpt lat="55.992706" lon="26.562372">
<ele>98.669006</ele>
<time>2010-06-20T08:42:54Z</time>
<desc>lat.=55.992706, lon.=26.562372, Alt.=98.669006m. Speed=7.848000m/h.</desc>
<speed>2.180000</speed>
</trkpt>
<trkpt lat="55.992706" lon="26.562313">
<ele>100.036194</ele>
<time>2010-06-20T08:42:55Z</time>
<desc>lat.=55.992706, lon.=26.562313, Alt.=100.036194m. Speed=6.048000m/h.</desc>
<speed>1.680000</speed>
</trkpt>
<trkpt lat="55.992714" lon="26.562269">
<ele>101.553772</ele>
<time>2010-06-20T08:42:56Z</time>
<desc>lat.=55.992714, lon.=26.562269, Alt.=101.553772m. Speed=5.328000m/h.</desc>
<speed>1.480000</speed>
</trkpt>
<trkpt lat="55.992752" lon="26.562201">
<ele>101.325256</ele>
<time>2010-06-20T08:42:57Z</time>
<desc>lat.=55.992752, lon.=26.562201, Alt.=101.325256m. Speed=8.136000m/h.</desc>
<speed>2.260000</speed>
</trkpt>
<trkpt lat="55.992760" lon="26.562159">
<ele>102.112366</ele>
<time>2010-06-20T08:42:58Z</time>
<desc>lat.=55.992760, lon.=26.562159, Alt.=102.112366m. Speed=4.500000m/h.</desc>
<speed>1.250000</speed>
</trkpt>
<trkpt lat="55.992764" lon="26.562126">
<ele>102.493225</ele>
<time>2010-06-20T08:42:59Z</time>
<desc>lat.=55.992764, lon.=26.562126, Alt.=102.493225m. Speed=3.132000m/h.</desc>
<speed>0.870000</speed>
</trkpt>
<trkpt lat="55.992771" lon="26.562098">
<ele>103.616272</ele>
<time>2010-06-20T08:43:00Z</time>
<desc>lat.=55.992771, lon.=26.562098, Alt.=103.616272m. Speed=5.472000m/h.</desc>
<speed>1.520000</speed>
</trkpt>
<trkpt lat="55.992790" lon="26.562052">
<ele>104.067444</ele>
<time>2010-06-20T08:43:01Z</time>
<desc>lat.=55.992790, lon.=26.562052, Alt.=104.067444m. Speed=6.192000m/h.</desc>
<speed>1.720000</speed>
</trkpt>
<trkpt lat="55.992798" lon="26.562006">
<ele>104.545959</ele>
<time>2010-06-20T08:43:02Z</time>
<desc>lat.=55.992798, lon.=26.562006, Alt.=104.545959m. Speed=7.416000m/h.</desc>
<speed>2.060000</speed>
</trkpt>
<trkpt lat="55.992802" lon="26.561966">
<ele>105.065491</ele>
<time>2010-06-20T08:43:03Z</time>
<desc>lat.=55.992802, lon.=26.561966, Alt.=105.065491m. Speed=6.696000m/h.</desc>
<speed>1.860000</speed>
</trkpt>
<trkpt lat="55.992798" lon="26.561893">
<ele>103.018616</ele>
<time>2010-06-20T08:43:04Z</time>
<desc>lat.=55.992798, lon.=26.561893, Alt.=103.018616m. Speed=9.468000m/h.</desc>
<speed>2.630000</speed>
</trkpt>
<trkpt lat="55.992805" lon="26.561829">
<ele>102.145569</ele>
<time>2010-06-20T08:43:05Z</time>
<desc>lat.=55.992805, lon.=26.561829, Alt.=102.145569m. Speed=9.036000m/h.</desc>
<speed>2.510000</speed>
</trkpt>
<trkpt lat="55.992817" lon="26.561768">
<ele>102.905334</ele>
<time>2010-06-20T08:43:06Z</time>
<desc>lat.=55.992817, lon.=26.561768, Alt.=102.905334m. Speed=9.000000m/h.</desc>
<speed>2.500000</speed>
</trkpt>
<trkpt lat="55.992821" lon="26.561722">
<ele>103.340881</ele>
<time>2010-06-20T08:43:07Z</time>
<desc>lat.=55.992821, lon.=26.561722, Alt.=103.340881m. Speed=6.156000m/h.</desc>
<speed>1.710000</speed>
</trkpt>
<trkpt lat="55.992855" lon="26.561661">
<ele>103.799866</ele>
<time>2010-06-20T08:43:08Z</time>
<desc>lat.=55.992855, lon.=26.561661, Alt.=103.799866m. Speed=7.416000m/h.</desc>
<speed>2.060000</speed>
</trkpt>
<trkpt lat="55.992870" lon="26.561615">
<ele>103.409241</ele>
<time>2010-06-20T08:43:09Z</time>
<desc>lat.=55.992870, lon.=26.561615, Alt.=103.409241m. Speed=6.156000m/h.</desc>
<speed>1.710000</speed>
</trkpt>
<trkpt lat="55.992874" lon="26.561584">
<ele>103.614319</ele>
<time>2010-06-20T08:43:10Z</time>
<desc>lat.=55.992874, lon.=26.561584, Alt.=103.614319m. Speed=5.976000m/h.</desc>
<speed>1.660000</speed>
</trkpt>
<trkpt lat="55.992889" lon="26.561539">
<ele>104.036194</ele>
<time>2010-06-20T08:43:11Z</time>
<desc>lat.=55.992889, lon.=26.561539, Alt.=104.036194m. Speed=6.228000m/h.</desc>
<speed>1.730000</speed>
</trkpt>
<trkpt lat="55.992905" lon="26.561504">
<ele>105.034241</ele>
<time>2010-06-20T08:43:12Z</time>
<desc>lat.=55.992905, lon.=26.561504, Alt.=105.034241m. Speed=6.156000m/h.</desc>
<speed>1.710000</speed>
</trkpt>
<trkpt lat="55.992931" lon="26.561443">
<ele>105.649475</ele>
<time>2010-06-20T08:43:13Z</time>
<desc>lat.=55.992931, lon.=26.561443, Alt.=105.649475m. Speed=7.740000m/h.</desc>
<speed>2.150000</speed>
</trkpt>
<trkpt lat="55.992950" lon="26.561394">
<ele>106.592834</ele>
<time>2010-06-20T08:43:14Z</time>
<desc>lat.=55.992950, lon.=26.561394, Alt.=106.592834m. Speed=7.416000m/h.</desc>
<speed>2.060000</speed>
</trkpt>
<trkpt lat="55.992958" lon="26.561348">
<ele>107.114319</ele>
<time>2010-06-20T08:43:15Z</time>
<desc>lat.=55.992958, lon.=26.561348, Alt.=107.114319m. Speed=8.604000m/h.</desc>
<speed>2.390000</speed>
</trkpt>
<trkpt lat="55.992966" lon="26.561304">
<ele>106.930725</ele>
<time>2010-06-20T08:43:16Z</time>
<desc>lat.=55.992966, lon.=26.561304, Alt.=106.930725m. Speed=7.704000m/h.</desc>
<speed>2.140000</speed>
</trkpt>
<trkpt lat="55.992977" lon="26.561277">
<ele>107.303772</ele>
<time>2010-06-20T08:43:17Z</time>
<desc>lat.=55.992977, lon.=26.561277, Alt.=107.303772m. Speed=5.832000m/h.</desc>
<speed>1.620000</speed>
</trkpt>
<trkpt lat="55.992973" lon="26.561226">
<ele>105.422913</ele>
<time>2010-06-20T08:43:18Z</time>
<desc>lat.=55.992973, lon.=26.561226, Alt.=105.422913m. Speed=6.516000m/h.</desc>
<speed>1.810000</speed>
</trkpt>
<trkpt lat="55.992985" lon="26.561176">
<ele>105.555725</ele>
<time>2010-06-20T08:43:19Z</time>
<desc>lat.=55.992985, lon.=26.561176, Alt.=105.555725m. Speed=6.192000m/h.</desc>
<speed>1.720000</speed>
</trkpt>
<trkpt lat="55.992992" lon="26.561131">
<ele>105.700256</ele>
<time>2010-06-20T08:43:20Z</time>
<desc>lat.=55.992992, lon.=26.561131, Alt.=105.700256m. Speed=6.948000m/h.</desc>
<speed>1.930000</speed>
</trkpt>
<trkpt lat="55.993004" lon="26.561094">
<ele>106.210022</ele>
<time>2010-06-20T08:43:21Z</time>
<desc>lat.=55.993004, lon.=26.561094, Alt.=106.210022m. Speed=5.472000m/h.</desc>
<speed>1.520000</speed>
</trkpt>
<trkpt lat="55.993019" lon="26.561058">
<ele>106.278381</ele>
<time>2010-06-20T08:43:22Z</time>
<desc>lat.=55.993019, lon.=26.561058, Alt.=106.278381m. Speed=6.552000m/h.</desc>
<speed>1.820000</speed>
</trkpt>
<trkpt lat="55.993034" lon="26.561022">
<ele>106.872131</ele>
<time>2010-06-20T08:43:23Z</time>
<desc>lat.=55.993034, lon.=26.561022, Alt.=106.872131m. Speed=6.300000m/h.</desc>
<speed>1.750000</speed>
</trkpt>
<trkpt lat="55.993042" lon="26.560991">
<ele>107.477600</ele>
<time>2010-06-20T08:43:24Z</time>
<desc>lat.=55.993042, lon.=26.560991, Alt.=107.477600m. Speed=6.552000m/h.</desc>
<speed>1.820000</speed>
</trkpt>
<trkpt lat="55.993046" lon="26.560955">
<ele>108.081116</ele>
<time>2010-06-20T08:43:25Z</time>
<desc>lat.=55.993046, lon.=26.560955, Alt.=108.081116m. Speed=5.976000m/h.</desc>
<speed>1.660000</speed>
</trkpt>
<trkpt lat="55.993053" lon="26.560915">
<ele>108.321350</ele>
<time>2010-06-20T08:43:26Z</time>
<desc>lat.=55.993053, lon.=26.560915, Alt.=108.321350m. Speed=5.580000m/h.</desc>
<speed>1.550000</speed>
</trkpt>
<trkpt lat="55.993053" lon="26.560873">
<ele>108.149475</ele>
<time>2010-06-20T08:43:27Z</time>
<desc>lat.=55.993053, lon.=26.560873, Alt.=108.149475m. Speed=5.148000m/h.</desc>
<speed>1.430000</speed>
</trkpt>
<trkpt lat="55.993057" lon="26.560833">
<ele>107.649475</ele>
<time>2010-06-20T08:43:28Z</time>
<desc>lat.=55.993057, lon.=26.560833, Alt.=107.649475m. Speed=6.264000m/h.</desc>
<speed>1.740000</speed>
</trkpt>
<trkpt lat="55.993061" lon="26.560801">
<ele>106.784241</ele>
<time>2010-06-20T08:43:29Z</time>
<desc>lat.=55.993061, lon.=26.560801, Alt.=106.784241m. Speed=8.028000m/h.</desc>
<speed>2.230000</speed>
</trkpt>
<trkpt lat="55.993065" lon="26.560755">
<ele>106.930725</ele>
<time>2010-06-20T08:43:30Z</time>
<desc>lat.=55.993065, lon.=26.560755, Alt.=106.930725m. Speed=8.820000m/h.</desc>
<speed>2.450000</speed>
</trkpt>
<trkpt lat="55.993073" lon="26.560698">
<ele>107.049866</ele>
<time>2010-06-20T08:43:31Z</time>
<desc>lat.=55.993073, lon.=26.560698, Alt.=107.049866m. Speed=8.640000m/h.</desc>
<speed>2.400000</speed>
</trkpt>
<trkpt lat="55.993080" lon="26.560654">
<ele>106.795959</ele>
<time>2010-06-20T08:43:32Z</time>
<desc>lat.=55.993080, lon.=26.560654, Alt.=106.795959m. Speed=9.612000m/h.</desc>
<speed>2.670000</speed>
</trkpt>
<trkpt lat="55.993084" lon="26.560608">
<ele>107.329163</ele>
<time>2010-06-20T08:43:33Z</time>
<desc>lat.=55.993084, lon.=26.560608, Alt.=107.329163m. Speed=8.820000m/h.</desc>
<speed>2.450000</speed>
</trkpt>
<trkpt lat="55.993088" lon="26.560556">
<ele>107.188538</ele>
<time>2010-06-20T08:43:34Z</time>
<desc>lat.=55.993088, lon.=26.560556, Alt.=107.188538m. Speed=8.424000m/h.</desc>
<speed>2.340000</speed>
</trkpt>
<trkpt lat="55.993095" lon="26.560505">
<ele>106.737366</ele>
<time>2010-06-20T08:43:35Z</time>
<desc>lat.=55.993095, lon.=26.560505, Alt.=106.737366m. Speed=9.324000m/h.</desc>
<speed>2.590000</speed>
</trkpt>
<trkpt lat="55.993095" lon="26.560465">
<ele>106.768616</ele>
<time>2010-06-20T08:43:36Z</time>
<desc>lat.=55.993095, lon.=26.560465, Alt.=106.768616m. Speed=7.488000m/h.</desc>
<speed>2.080000</speed>
</trkpt>
<trkpt lat="55.993103" lon="26.560427">
<ele>107.020569</ele>
<time>2010-06-20T08:43:37Z</time>
<desc>lat.=55.993103, lon.=26.560427, Alt.=107.020569m. Speed=7.128000m/h.</desc>
<speed>1.980000</speed>
</trkpt>
<trkpt lat="55.993103" lon="26.560383">
<ele>107.192444</ele>
<time>2010-06-20T08:43:38Z</time>
<desc>lat.=55.993103, lon.=26.560383, Alt.=107.192444m. Speed=7.812000m/h.</desc>
<speed>2.170000</speed>
</trkpt>
<trkpt lat="55.993099" lon="26.560337">
<ele>107.458069</ele>
<time>2010-06-20T08:43:39Z</time>
<desc>lat.=55.993099, lon.=26.560337, Alt.=107.458069m. Speed=9.252000m/h.</desc>
<speed>2.570000</speed>
</trkpt>
<trkpt lat="55.993103" lon="26.560284">
<ele>107.469788</ele>
<time>2010-06-20T08:43:40Z</time>
<desc>lat.=55.993103, lon.=26.560284, Alt.=107.469788m. Speed=9.864000m/h.</desc>
<speed>2.740000</speed>
</trkpt>
<trkpt lat="55.993103" lon="26.560242">
<ele>107.643616</ele>
<time>2010-06-20T08:43:41Z</time>
<desc>lat.=55.993103, lon.=26.560242, Alt.=107.643616m. Speed=8.496000m/h.</desc>
<speed>2.360000</speed>
</trkpt>
<trkpt lat="55.993099" lon="26.560188">
<ele>107.770569</ele>
<time>2010-06-20T08:43:42Z</time>
<desc>lat.=55.993099, lon.=26.560188, Alt.=107.770569m. Speed=8.820000m/h.</desc>
<speed>2.450000</speed>
</trkpt>
<trkpt lat="55.993095" lon="26.560144">
<ele>107.471741</ele>
<time>2010-06-20T08:43:43Z</time>
<desc>lat.=55.993095, lon.=26.560144, Alt.=107.471741m. Speed=8.100000m/h.</desc>
<speed>2.250000</speed>
</trkpt>
<trkpt lat="55.993095" lon="26.560093">
<ele>107.823303</ele>
<time>2010-06-20T08:43:44Z</time>
<desc>lat.=55.993095, lon.=26.560093, Alt.=107.823303m. Speed=7.272000m/h.</desc>
<speed>2.020000</speed>
</trkpt>
<trkpt lat="55.993099" lon="26.560045">
<ele>108.079163</ele>
<time>2010-06-20T08:43:45Z</time>
<desc>lat.=55.993099, lon.=26.560045, Alt.=108.079163m. Speed=7.704000m/h.</desc>
<speed>2.140000</speed>
</trkpt>
<trkpt lat="55.993095" lon="26.559994">
<ele>107.047913</ele>
<time>2010-06-20T08:43:46Z</time>
<desc>lat.=55.993095, lon.=26.559994, Alt.=107.047913m. Speed=7.812000m/h.</desc>
<speed>2.170000</speed>
</trkpt>
<trkpt lat="55.993088" lon="26.559952">
<ele>107.137756</ele>
<time>2010-06-20T08:43:47Z</time>
<desc>lat.=55.993088, lon.=26.559952, Alt.=107.137756m. Speed=7.488000m/h.</desc>
<speed>2.080000</speed>
</trkpt>
<trkpt lat="55.993080" lon="26.559904">
<ele>106.669006</ele>
<time>2010-06-20T08:43:48Z</time>
<desc>lat.=55.993080, lon.=26.559904, Alt.=106.669006m. Speed=9.000000m/h.</desc>
<speed>2.500000</speed>
</trkpt>
<trkpt lat="55.993084" lon="26.559847">
<ele>105.637756</ele>
<time>2010-06-20T08:43:49Z</time>
<desc>lat.=55.993084, lon.=26.559847, Alt.=105.637756m. Speed=9.576000m/h.</desc>
<speed>2.660000</speed>
</trkpt>
<trkpt lat="55.993088" lon="26.559799">
<ele>105.059631</ele>
<time>2010-06-20T08:43:50Z</time>
<desc>lat.=55.993088, lon.=26.559799, Alt.=105.059631m. Speed=8.316000m/h.</desc>
<speed>2.310000</speed>
</trkpt>
<trkpt lat="55.993095" lon="26.559752">
<ele>104.936584</ele>
<time>2010-06-20T08:43:51Z</time>
<desc>lat.=55.993095, lon.=26.559752, Alt.=104.936584m. Speed=8.892000m/h.</desc>
<speed>2.470000</speed>
</trkpt>
<trkpt lat="55.993095" lon="26.559710">
<ele>105.524475</ele>
<time>2010-06-20T08:43:52Z</time>
<desc>lat.=55.993095, lon.=26.559710, Alt.=105.524475m. Speed=8.424000m/h.</desc>
<speed>2.340000</speed>
</trkpt>
<trkpt lat="55.993103" lon="26.559662">
<ele>104.819397</ele>
<time>2010-06-20T08:43:53Z</time>
<desc>lat.=55.993103, lon.=26.559662, Alt.=104.819397m. Speed=9.000000m/h.</desc>
<speed>2.500000</speed>
</trkpt>
<trkpt lat="55.993107" lon="26.559614">
<ele>104.831116</ele>
<time>2010-06-20T08:43:54Z</time>
<desc>lat.=55.993107, lon.=26.559614, Alt.=104.831116m. Speed=8.784000m/h.</desc>
<speed>2.440000</speed>
</trkpt>
<trkpt lat="55.993114" lon="26.559574">
<ele>104.809631</ele>
<time>2010-06-20T08:43:55Z</time>
<desc>lat.=55.993114, lon.=26.559574, Alt.=104.809631m. Speed=7.560000m/h.</desc>
<speed>2.100000</speed>
</trkpt>
<trkpt lat="55.993111" lon="26.559546">
<ele>104.092834</ele>
<time>2010-06-20T08:43:56Z</time>
<desc>lat.=55.993111, lon.=26.559546, Alt.=104.092834m. Speed=5.760000m/h.</desc>
<speed>1.600000</speed>
</trkpt>
<trkpt lat="55.993114" lon="26.559507">
<ele>104.573303</ele>
<time>2010-06-20T08:43:57Z</time>
<desc>lat.=55.993114, lon.=26.559507, Alt.=104.573303m. Speed=7.740000m/h.</desc>
<speed>2.150000</speed>
</trkpt>
<trkpt lat="55.993118" lon="26.559465">
<ele>104.260803</ele>
<time>2010-06-20T08:43:58Z</time>
<desc>lat.=55.993118, lon.=26.559465, Alt.=104.260803m. Speed=8.388000m/h.</desc>
<speed>2.330000</speed>
</trkpt>
<trkpt lat="55.993122" lon="26.559422">
<ele>103.663147</ele>
<time>2010-06-20T08:43:59Z</time>
<desc>lat.=55.993122, lon.=26.559422, Alt.=103.663147m. Speed=8.028000m/h.</desc>
<speed>2.230000</speed>
</trkpt>
<trkpt lat="55.993126" lon="26.559381">
<ele>103.252991</ele>
<time>2010-06-20T08:44:00Z</time>
<desc>lat.=55.993126, lon.=26.559381, Alt.=103.252991m. Speed=8.064000m/h.</desc>
<speed>2.240000</speed>
</trkpt>
<trkpt lat="55.993118" lon="26.559340">
<ele>101.606506</ele>
<time>2010-06-20T08:44:01Z</time>
<desc>lat.=55.993118, lon.=26.559340, Alt.=101.606506m. Speed=7.524000m/h.</desc>
<speed>2.090000</speed>
</trkpt>
<trkpt lat="55.993122" lon="26.559290">
<ele>100.315491</ele>
<time>2010-06-20T08:44:02Z</time>
<desc>lat.=55.993122, lon.=26.559290, Alt.=100.315491m. Speed=7.992000m/h.</desc>
<speed>2.220000</speed>
</trkpt>
<trkpt lat="55.993122" lon="26.559240">
<ele>100.143616</ele>
<time>2010-06-20T08:44:03Z</time>
<desc>lat.=55.993122, lon.=26.559240, Alt.=100.143616m. Speed=7.848000m/h.</desc>
<speed>2.180000</speed>
</trkpt>
<trkpt lat="55.993122" lon="26.559195">
<ele>99.042053</ele>
<time>2010-06-20T08:44:04Z</time>
<desc>lat.=55.993122, lon.=26.559195, Alt.=99.042053m. Speed=8.208000m/h.</desc>
<speed>2.280000</speed>
</trkpt>
<trkpt lat="55.993122" lon="26.559158">
<ele>98.329163</ele>
<time>2010-06-20T08:44:05Z</time>
<desc>lat.=55.993122, lon.=26.559158, Alt.=98.329163m. Speed=7.812000m/h.</desc>
<speed>2.170000</speed>
</trkpt>
<trkpt lat="55.993126" lon="26.559113">
<ele>98.206116</ele>
<time>2010-06-20T08:44:06Z</time>
<desc>lat.=55.993126, lon.=26.559113, Alt.=98.206116m. Speed=8.028000m/h.</desc>
<speed>2.230000</speed>
</trkpt>
<trkpt lat="55.993137" lon="26.559065">
<ele>97.299866</ele>
<time>2010-06-20T08:44:07Z</time>
<desc>lat.=55.993137, lon.=26.559065, Alt.=97.299866m. Speed=8.172000m/h.</desc>
<speed>2.270000</speed>
</trkpt>
<trkpt lat="55.993156" lon="26.559010">
<ele>96.899475</ele>
<time>2010-06-20T08:44:08Z</time>
<desc>lat.=55.993156, lon.=26.559010, Alt.=96.899475m. Speed=8.208000m/h.</desc>
<speed>2.280000</speed>
</trkpt>
<trkpt lat="55.993164" lon="26.558969">
<ele>95.514709</ele>
<time>2010-06-20T08:44:09Z</time>
<desc>lat.=55.993164, lon.=26.558969, Alt.=95.514709m. Speed=9.936000m/h.</desc>
<speed>2.760000</speed>
</trkpt>
<trkpt lat="55.993176" lon="26.558920">
<ele>95.026428</ele>
<time>2010-06-20T08:44:10Z</time>
<desc>lat.=55.993176, lon.=26.558920, Alt.=95.026428m. Speed=10.332000m/h.</desc>
<speed>2.870000</speed>
</trkpt>
<trkpt lat="55.993187" lon="26.558876">
<ele>94.905334</ele>
<time>2010-06-20T08:44:11Z</time>
<desc>lat.=55.993187, lon.=26.558876, Alt.=94.905334m. Speed=8.604000m/h.</desc>
<speed>2.390000</speed>
</trkpt>
<trkpt lat="55.993195" lon="26.558836">
<ele>94.038147</ele>
<time>2010-06-20T08:44:12Z</time>
<desc>lat.=55.993195, lon.=26.558836, Alt.=94.038147m. Speed=7.920000m/h.</desc>
<speed>2.200000</speed>
</trkpt>
<trkpt lat="55.993202" lon="26.558800">
<ele>93.559631</ele>
<time>2010-06-20T08:44:13Z</time>
<desc>lat.=55.993202, lon.=26.558800, Alt.=93.559631m. Speed=7.776000m/h.</desc>
<speed>2.160000</speed>
</trkpt>
<trkpt lat="55.993210" lon="26.558760">
<ele>93.936584</ele>
<time>2010-06-20T08:44:14Z</time>
<desc>lat.=55.993210, lon.=26.558760, Alt.=93.936584m. Speed=8.100000m/h.</desc>
<speed>2.250000</speed>
</trkpt>
<trkpt lat="55.993217" lon="26.558720">
<ele>94.887756</ele>
<time>2010-06-20T08:44:15Z</time>
<desc>lat.=55.993217, lon.=26.558720, Alt.=94.887756m. Speed=9.432000m/h.</desc>
<speed>2.620000</speed>
</trkpt>
<trkpt lat="55.993225" lon="26.558668">
<ele>94.747131</ele>
<time>2010-06-20T08:44:16Z</time>
<desc>lat.=55.993225, lon.=26.558668, Alt.=94.747131m. Speed=10.548000m/h.</desc>
<speed>2.930000</speed>
</trkpt>
<trkpt lat="55.993244" lon="26.558611">
<ele>95.061584</ele>
<time>2010-06-20T08:44:17Z</time>
<desc>lat.=55.993244, lon.=26.558611, Alt.=95.061584m. Speed=10.116000m/h.</desc>
<speed>2.810000</speed>
</trkpt>
<trkpt lat="55.993252" lon="26.558567">
<ele>95.588928</ele>
<time>2010-06-20T08:44:18Z</time>
<desc>lat.=55.993252, lon.=26.558567, Alt.=95.588928m. Speed=8.676000m/h.</desc>
<speed>2.410000</speed>
</trkpt>
<trkpt lat="55.993256" lon="26.558525">
<ele>96.200256</ele>
<time>2010-06-20T08:44:19Z</time>
<desc>lat.=55.993256, lon.=26.558525, Alt.=96.200256m. Speed=10.080000m/h.</desc>
<speed>2.800000</speed>
</trkpt>
<trkpt lat="55.993259" lon="26.558479">
<ele>97.532288</ele>
<time>2010-06-20T08:44:20Z</time>
<desc>lat.=55.993259, lon.=26.558479, Alt.=97.532288m. Speed=8.820000m/h.</desc>
<speed>2.450000</speed>
</trkpt>
<trkpt lat="55.993259" lon="26.558434">
<ele>98.372131</ele>
<time>2010-06-20T08:44:21Z</time>
<desc>lat.=55.993259, lon.=26.558434, Alt.=98.372131m. Speed=8.496000m/h.</desc>
<speed>2.360000</speed>
</trkpt>
<trkpt lat="55.993259" lon="26.558392">
<ele>99.020569</ele>
<time>2010-06-20T08:44:22Z</time>
<desc>lat.=55.993259, lon.=26.558392, Alt.=99.020569m. Speed=9.216000m/h.</desc>
<speed>2.560000</speed>
</trkpt>
<trkpt lat="55.993263" lon="26.558342">
<ele>99.305725</ele>
<time>2010-06-20T08:44:23Z</time>
<desc>lat.=55.993263, lon.=26.558342, Alt.=99.305725m. Speed=10.620000m/h.</desc>
<speed>2.950000</speed>
</trkpt>
<trkpt lat="55.993263" lon="26.558298">
<ele>99.563538</ele>
<time>2010-06-20T08:44:24Z</time>
<desc>lat.=55.993263, lon.=26.558298, Alt.=99.563538m. Speed=7.884000m/h.</desc>
<speed>2.190000</speed>
</trkpt>
<trkpt lat="55.993271" lon="26.558241">
<ele>99.770569</ele>
<time>2010-06-20T08:44:25Z</time>
<desc>lat.=55.993271, lon.=26.558241, Alt.=99.770569m. Speed=9.396000m/h.</desc>
<speed>2.610000</speed>
</trkpt>
<trkpt lat="55.993275" lon="26.558203">
<ele>99.631897</ele>
<time>2010-06-20T08:44:26Z</time>
<desc>lat.=55.993275, lon.=26.558203, Alt.=99.631897m. Speed=6.912000m/h.</desc>
<speed>1.920000</speed>
</trkpt>
<trkpt lat="55.993282" lon="26.558159">
<ele>100.264709</ele>
<time>2010-06-20T08:44:27Z</time>
<desc>lat.=55.993282, lon.=26.558159, Alt.=100.264709m. Speed=9.180000m/h.</desc>
<speed>2.550000</speed>
</trkpt>
<trkpt lat="55.993301" lon="26.558107">
<ele>100.415100</ele>
<time>2010-06-20T08:44:28Z</time>
<desc>lat.=55.993301, lon.=26.558107, Alt.=100.415100m. Speed=12.240000m/h.</desc>
<speed>3.400000</speed>
</trkpt>
<trkpt lat="55.993320" lon="26.558056">
<ele>100.288147</ele>
<time>2010-06-20T08:44:29Z</time>
<desc>lat.=55.993320, lon.=26.558056, Alt.=100.288147m. Speed=11.556000m/h.</desc>
<speed>3.210000</speed>
</trkpt>
<trkpt lat="55.993332" lon="26.558018">
<ele>100.370178</ele>
<time>2010-06-20T08:44:30Z</time>
<desc>lat.=55.993332, lon.=26.558018, Alt.=100.370178m. Speed=8.100000m/h.</desc>
<speed>2.250000</speed>
</trkpt>
<trkpt lat="55.993343" lon="26.557987">
<ele>100.975647</ele>
<time>2010-06-20T08:44:31Z</time>
<desc>lat.=55.993343, lon.=26.557987, Alt.=100.975647m. Speed=8.784000m/h.</desc>
<speed>2.440000</speed>
</trkpt>
<trkpt lat="55.993355" lon="26.557959">
<ele>101.313538</ele>
<time>2010-06-20T08:44:32Z</time>
<desc>lat.=55.993355, lon.=26.557959, Alt.=101.313538m. Speed=8.424000m/h.</desc>
<speed>2.340000</speed>
</trkpt>
<trkpt lat="55.993362" lon="26.557928">
<ele>101.329163</ele>
<time>2010-06-20T08:44:33Z</time>
<desc>lat.=55.993362, lon.=26.557928, Alt.=101.329163m. Speed=7.308000m/h.</desc>
<speed>2.030000</speed>
</trkpt>
<trkpt lat="55.993359" lon="26.557905">
<ele>102.079163</ele>
<time>2010-06-20T08:44:34Z</time>
<desc>lat.=55.993359, lon.=26.557905, Alt.=102.079163m. Speed=4.320000m/h.</desc>
<speed>1.200000</speed>
</trkpt>
<trkpt lat="55.993351" lon="26.557873">
<ele>102.792053</ele>
<time>2010-06-20T08:44:35Z</time>
<desc>lat.=55.993351, lon.=26.557873, Alt.=102.792053m. Speed=5.760000m/h.</desc>
<speed>1.600000</speed>
</trkpt>
<trkpt lat="55.993351" lon="26.557842">
<ele>102.710022</ele>
<time>2010-06-20T08:44:36Z</time>
<desc>lat.=55.993351, lon.=26.557842, Alt.=102.710022m. Speed=5.328000m/h.</desc>
<speed>1.480000</speed>
</trkpt>
<trkpt lat="55.993351" lon="26.557823">
<ele>102.907288</ele>
<time>2010-06-20T08:44:37Z</time>
<desc>lat.=55.993351, lon.=26.557823, Alt.=102.907288m. Speed=3.600000m/h.</desc>
<speed>1.000000</speed>
</trkpt>
<trkpt lat="55.993355" lon="26.557795">
<ele>103.762756</ele>
<time>2010-06-20T08:44:38Z</time>
<desc>lat.=55.993355, lon.=26.557795, Alt.=103.762756m. Speed=6.012000m/h.</desc>
<speed>1.670000</speed>
</trkpt>
<trkpt lat="55.993362" lon="26.557758">
<ele>104.735413</ele>
<time>2010-06-20T08:44:39Z</time>
<desc>lat.=55.993362, lon.=26.557758, Alt.=104.735413m. Speed=6.696000m/h.</desc>
<speed>1.860000</speed>
</trkpt>
<trkpt lat="55.993362" lon="26.557726">
<ele>105.073303</ele>
<time>2010-06-20T08:44:40Z</time>
<desc>lat.=55.993362, lon.=26.557726, Alt.=105.073303m. Speed=5.400000m/h.</desc>
<speed>1.500000</speed>
</trkpt>
<trkpt lat="55.993366" lon="26.557688">
<ele>105.483459</ele>
<time>2010-06-20T08:44:41Z</time>
<desc>lat.=55.993366, lon.=26.557688, Alt.=105.483459m. Speed=5.688000m/h.</desc>
<speed>1.580000</speed>
</trkpt>
<trkpt lat="55.993366" lon="26.557653">
<ele>105.876038</ele>
<time>2010-06-20T08:44:42Z</time>
<desc>lat.=55.993366, lon.=26.557653, Alt.=105.876038m. Speed=6.300000m/h.</desc>
<speed>1.750000</speed>
</trkpt>
<trkpt lat="55.993374" lon="26.557606">
<ele>106.700256</ele>
<time>2010-06-20T08:44:43Z</time>
<desc>lat.=55.993374, lon.=26.557606, Alt.=106.700256m. Speed=6.768000m/h.</desc>
<speed>1.880000</speed>
</trkpt>
<trkpt lat="55.993382" lon="26.557560">
<ele>107.120178</ele>
<time>2010-06-20T08:44:44Z</time>
<desc>lat.=55.993382, lon.=26.557560, Alt.=107.120178m. Speed=7.164000m/h.</desc>
<speed>1.990000</speed>
</trkpt>
<trkpt lat="55.993393" lon="26.557526">
<ele>107.426819</ele>
<time>2010-06-20T08:44:45Z</time>
<desc>lat.=55.993393, lon.=26.557526, Alt.=107.426819m. Speed=6.516000m/h.</desc>
<speed>1.810000</speed>
</trkpt>
<trkpt lat="55.993416" lon="26.557482">
<ele>108.118225</ele>
<time>2010-06-20T08:44:46Z</time>
<desc>lat.=55.993416, lon.=26.557482, Alt.=108.118225m. Speed=9.828000m/h.</desc>
<speed>2.730000</speed>
</trkpt>
<trkpt lat="55.993427" lon="26.557425">
<ele>108.612366</ele>
<time>2010-06-20T08:44:47Z</time>
<desc>lat.=55.993427, lon.=26.557425, Alt.=108.612366m. Speed=9.612000m/h.</desc>
<speed>2.670000</speed>
</trkpt>
<trkpt lat="55.993435" lon="26.557377">
<ele>108.547913</ele>
<time>2010-06-20T08:44:48Z</time>
<desc>lat.=55.993435, lon.=26.557377, Alt.=108.547913m. Speed=8.532000m/h.</desc>
<speed>2.370000</speed>
</trkpt>
<trkpt lat="55.993439" lon="26.557314">
<ele>107.251038</ele>
<time>2010-06-20T08:44:49Z</time>
<desc>lat.=55.993439, lon.=26.557314, Alt.=107.251038m. Speed=9.936000m/h.</desc>
<speed>2.760000</speed>
</trkpt>
<trkpt lat="55.993450" lon="26.557262">
<ele>107.208069</ele>
<time>2010-06-20T08:44:50Z</time>
<desc>lat.=55.993450, lon.=26.557262, Alt.=107.208069m. Speed=9.936000m/h.</desc>
<speed>2.760000</speed>
</trkpt>
<trkpt lat="55.993454" lon="26.557196">
<ele>106.944397</ele>
<time>2010-06-20T08:44:51Z</time>
<desc>lat.=55.993454, lon.=26.557196, Alt.=106.944397m. Speed=12.024000m/h.</desc>
<speed>3.340000</speed>
</trkpt>
<trkpt lat="55.993469" lon="26.557112">
<ele>106.327209</ele>
<time>2010-06-20T08:44:52Z</time>
<desc>lat.=55.993469, lon.=26.557112, Alt.=106.327209m. Speed=12.564000m/h.</desc>
<speed>3.490000</speed>
</trkpt>
<trkpt lat="55.993500" lon="26.557037">
<ele>106.946350</ele>
<time>2010-06-20T08:44:53Z</time>
<desc>lat.=55.993500, lon.=26.557037, Alt.=106.946350m. Speed=12.888000m/h.</desc>
<speed>3.580000</speed>
</trkpt>
<trkpt lat="55.993496" lon="26.556953">
<ele>105.633850</ele>
<time>2010-06-20T08:44:54Z</time>
<desc>lat.=55.993496, lon.=26.556953, Alt.=105.633850m. Speed=12.780000m/h.</desc>
<speed>3.550000</speed>
</trkpt>
<trkpt lat="55.993473" lon="26.556877">
<ele>104.702209</ele>
<time>2010-06-20T08:44:55Z</time>
<desc>lat.=55.993473, lon.=26.556877, Alt.=104.702209m. Speed=11.772000m/h.</desc>
<speed>3.270000</speed>
</trkpt>
<trkpt lat="55.993469" lon="26.556789">
<ele>103.602600</ele>
<time>2010-06-20T08:44:56Z</time>
<desc>lat.=55.993469, lon.=26.556789, Alt.=103.602600m. Speed=11.196000m/h.</desc>
<speed>3.110000</speed>
</trkpt>
<trkpt lat="55.993473" lon="26.556719">
<ele>103.258850</ele>
<time>2010-06-20T08:44:57Z</time>
<desc>lat.=55.993473, lon.=26.556719, Alt.=103.258850m. Speed=11.304000m/h.</desc>
<speed>3.140000</speed>
</trkpt>
<trkpt lat="55.993469" lon="26.556669">
<ele>103.387756</ele>
<time>2010-06-20T08:44:58Z</time>
<desc>lat.=55.993469, lon.=26.556669, Alt.=103.387756m. Speed=11.412000m/h.</desc>
<speed>3.170000</speed>
</trkpt>
<trkpt lat="55.993469" lon="26.556583">
<ele>102.803772</ele>
<time>2010-06-20T08:44:59Z</time>
<desc>lat.=55.993469, lon.=26.556583, Alt.=102.803772m. Speed=11.736000m/h.</desc>
<speed>3.260000</speed>
</trkpt>
<trkpt lat="55.993477" lon="26.556511">
<ele>103.626038</ele>
<time>2010-06-20T08:45:00Z</time>
<desc>lat.=55.993477, lon.=26.556511, Alt.=103.626038m. Speed=10.764000m/h.</desc>
<speed>2.990000</speed>
</trkpt>
<trkpt lat="55.993488" lon="26.556435">
<ele>103.102600</ele>
<time>2010-06-20T08:45:01Z</time>
<desc>lat.=55.993488, lon.=26.556435, Alt.=103.102600m. Speed=10.908000m/h.</desc>
<speed>3.030000</speed>
</trkpt>
<trkpt lat="55.993496" lon="26.556364">
<ele>103.768616</ele>
<time>2010-06-20T08:45:02Z</time>
<desc>lat.=55.993496, lon.=26.556364, Alt.=103.768616m. Speed=9.540000m/h.</desc>
<speed>2.650000</speed>
</trkpt>
<trkpt lat="55.993492" lon="26.556293">
<ele>103.219788</ele>
<time>2010-06-20T08:45:03Z</time>
<desc>lat.=55.993492, lon.=26.556293, Alt.=103.219788m. Speed=10.152000m/h.</desc>
<speed>2.820000</speed>
</trkpt>
<trkpt lat="55.993492" lon="26.556232">
<ele>101.801819</ele>
<time>2010-06-20T08:45:04Z</time>
<desc>lat.=55.993492, lon.=26.556232, Alt.=101.801819m. Speed=9.792000m/h.</desc>
<speed>2.720000</speed>
</trkpt>
<trkpt lat="55.993488" lon="26.556179">
<ele>102.217834</ele>
<time>2010-06-20T08:45:05Z</time>
<desc>lat.=55.993488, lon.=26.556179, Alt.=102.217834m. Speed=8.712000m/h.</desc>
<speed>2.420000</speed>
</trkpt>
<trkpt lat="55.993488" lon="26.556116">
<ele>101.836975</ele>
<time>2010-06-20T08:45:06Z</time>
<desc>lat.=55.993488, lon.=26.556116, Alt.=101.836975m. Speed=8.460000m/h.</desc>
<speed>2.350000</speed>
</trkpt>
<trkpt lat="55.993473" lon="26.556072">
<ele>101.465881</ele>
<time>2010-06-20T08:45:07Z</time>
<desc>lat.=55.993473, lon.=26.556072, Alt.=101.465881m. Speed=7.920000m/h.</desc>
<speed>2.200000</speed>
</trkpt>
<trkpt lat="55.993443" lon="26.556015">
<ele>100.946350</ele>
<time>2010-06-20T08:45:08Z</time>
<desc>lat.=55.993443, lon.=26.556015, Alt.=100.946350m. Speed=7.488000m/h.</desc>
<speed>2.080000</speed>
</trkpt>
<trkpt lat="55.993439" lon="26.555967">
<ele>100.745178</ele>
<time>2010-06-20T08:45:09Z</time>
<desc>lat.=55.993439, lon.=26.555967, Alt.=100.745178m. Speed=6.300000m/h.</desc>
<speed>1.750000</speed>
</trkpt>
<trkpt lat="55.993423" lon="26.555916">
<ele>100.317444</ele>
<time>2010-06-20T08:45:10Z</time>
<desc>lat.=55.993423, lon.=26.555916, Alt.=100.317444m. Speed=6.912000m/h.</desc>
<speed>1.920000</speed>
</trkpt>
<trkpt lat="55.993420" lon="26.555868">
<ele>100.483459</ele>
<time>2010-06-20T08:45:11Z</time>
<desc>lat.=55.993420, lon.=26.555868, Alt.=100.483459m. Speed=4.320000m/h.</desc>
<speed>1.200000</speed>
</trkpt>
<trkpt lat="55.993408" lon="26.555807">
<ele>102.211975</ele>
<time>2010-06-20T08:45:12Z</time>
<desc>lat.=55.993408, lon.=26.555807, Alt.=102.211975m. Speed=4.680000m/h.</desc>
<speed>1.300000</speed>
</trkpt>
<trkpt lat="55.993408" lon="26.555756">
<ele>102.842834</ele>
<time>2010-06-20T08:45:13Z</time>
<desc>lat.=55.993408, lon.=26.555756, Alt.=102.842834m. Speed=6.804000m/h.</desc>
<speed>1.890000</speed>
</trkpt>
<trkpt lat="55.993412" lon="26.555676">
<ele>100.057678</ele>
<time>2010-06-20T08:45:14Z</time>
<desc>lat.=55.993412, lon.=26.555676, Alt.=100.057678m. Speed=9.684000m/h.</desc>
<speed>2.690000</speed>
</trkpt>
<trkpt lat="55.993412" lon="26.555620">
<ele>100.284241</ele>
<time>2010-06-20T08:45:15Z</time>
<desc>lat.=55.993412, lon.=26.555620, Alt.=100.284241m. Speed=9.864000m/h.</desc>
<speed>2.740000</speed>
</trkpt>
<trkpt lat="55.993427" lon="26.555571">
<ele>100.085022</ele>
<time>2010-06-20T08:45:16Z</time>
<desc>lat.=55.993427, lon.=26.555571, Alt.=100.085022m. Speed=9.756000m/h.</desc>
<speed>2.710000</speed>
</trkpt>
<trkpt lat="55.993435" lon="26.555492">
<ele>97.444397</ele>
<time>2010-06-20T08:45:17Z</time>
<desc>lat.=55.993435, lon.=26.555492, Alt.=97.444397m. Speed=10.440000m/h.</desc>
<speed>2.900000</speed>
</trkpt>
<trkpt lat="55.993439" lon="26.555403">
<ele>96.008850</ele>
<time>2010-06-20T08:45:18Z</time>
<desc>lat.=55.993439, lon.=26.555403, Alt.=96.008850m. Speed=10.656000m/h.</desc>
<speed>2.960000</speed>
</trkpt>
<trkpt lat="55.993435" lon="26.555338">
<ele>96.506897</ele>
<time>2010-06-20T08:45:19Z</time>
<desc>lat.=55.993435, lon.=26.555338, Alt.=96.506897m. Speed=8.316000m/h.</desc>
<speed>2.310000</speed>
</trkpt>
<trkpt lat="55.993465" lon="26.555281">
<ele>96.333069</ele>
<time>2010-06-20T08:45:20Z</time>
<desc>lat.=55.993465, lon.=26.555281, Alt.=96.333069m. Speed=13.500000m/h.</desc>
<speed>3.750000</speed>
</trkpt>
<trkpt lat="55.993496" lon="26.555235">
<ele>96.229553</ele>
<time>2010-06-20T08:45:21Z</time>
<desc>lat.=55.993496, lon.=26.555235, Alt.=96.229553m. Speed=12.132000m/h.</desc>
<speed>3.370000</speed>
</trkpt>
<trkpt lat="55.993511" lon="26.555162">
<ele>96.876038</ele>
<time>2010-06-20T08:45:22Z</time>
<desc>lat.=55.993511, lon.=26.555162, Alt.=96.876038m. Speed=12.456000m/h.</desc>
<speed>3.460000</speed>
</trkpt>
<trkpt lat="55.993507" lon="26.555058">
<ele>97.473694</ele>
<time>2010-06-20T08:45:23Z</time>
<desc>lat.=55.993507, lon.=26.555058, Alt.=97.473694m. Speed=13.176000m/h.</desc>
<speed>3.660000</speed>
</trkpt>
<trkpt lat="55.993504" lon="26.554956">
<ele>96.764709</ele>
<time>2010-06-20T08:45:24Z</time>
<desc>lat.=55.993504, lon.=26.554956, Alt.=96.764709m. Speed=13.464000m/h.</desc>
<speed>3.740000</speed>
</trkpt>
<trkpt lat="55.993523" lon="26.554867">
<ele>97.184631</ele>
<time>2010-06-20T08:45:25Z</time>
<desc>lat.=55.993523, lon.=26.554867, Alt.=97.184631m. Speed=16.236000m/h.</desc>
<speed>4.510000</speed>
</trkpt>
<trkpt lat="55.993546" lon="26.554768">
<ele>97.465881</ele>
<time>2010-06-20T08:45:26Z</time>
<desc>lat.=55.993546, lon.=26.554768, Alt.=97.465881m. Speed=15.804000m/h.</desc>
<speed>4.390000</speed>
</trkpt>
<trkpt lat="55.993549" lon="26.554693">
<ele>97.614319</ele>
<time>2010-06-20T08:45:27Z</time>
<desc>lat.=55.993549, lon.=26.554693, Alt.=97.614319m. Speed=14.472000m/h.</desc>
<speed>4.020000</speed>
</trkpt>
<trkpt lat="55.993557" lon="26.554598">
<ele>95.885803</ele>
<time>2010-06-20T08:45:28Z</time>
<desc>lat.=55.993557, lon.=26.554598, Alt.=95.885803m. Speed=16.164000m/h.</desc>
<speed>4.490000</speed>
</trkpt>
<trkpt lat="55.993561" lon="26.554506">
<ele>94.850647</ele>
<time>2010-06-20T08:45:29Z</time>
<desc>lat.=55.993561, lon.=26.554506, Alt.=94.850647m. Speed=16.416000m/h.</desc>
<speed>4.560000</speed>
</trkpt>
<trkpt lat="55.993572" lon="26.554415">
<ele>95.190491</ele>
<time>2010-06-20T08:45:30Z</time>
<desc>lat.=55.993572, lon.=26.554415, Alt.=95.190491m. Speed=15.948000m/h.</desc>
<speed>4.430000</speed>
</trkpt>
<trkpt lat="55.993599" lon="26.554325">
<ele>95.655334</ele>
<time>2010-06-20T08:45:31Z</time>
<desc>lat.=55.993599, lon.=26.554325, Alt.=95.655334m. Speed=16.632000m/h.</desc>
<speed>4.620000</speed>
</trkpt>
<trkpt lat="55.993622" lon="26.554224">
<ele>93.920959</ele>
<time>2010-06-20T08:45:32Z</time>
<desc>lat.=55.993622, lon.=26.554224, Alt.=93.920959m. Speed=17.424000m/h.</desc>
<speed>4.840000</speed>
</trkpt>
<trkpt lat="55.993645" lon="26.554138">
<ele>93.342834</ele>
<time>2010-06-20T08:45:33Z</time>
<desc>lat.=55.993645, lon.=26.554138, Alt.=93.342834m. Speed=16.524000m/h.</desc>
<speed>4.590000</speed>
</trkpt>
<trkpt lat="55.993656" lon="26.554056">
<ele>92.342834</ele>
<time>2010-06-20T08:45:34Z</time>
<desc>lat.=55.993656, lon.=26.554056, Alt.=92.342834m. Speed=15.768000m/h.</desc>
<speed>4.380000</speed>
</trkpt>
<trkpt lat="55.993671" lon="26.553982">
<ele>92.114319</ele>
<time>2010-06-20T08:45:35Z</time>
<desc>lat.=55.993671, lon.=26.553982, Alt.=92.114319m. Speed=15.876000m/h.</desc>
<speed>4.410000</speed>
</trkpt>
<trkpt lat="55.993687" lon="26.553915">
<ele>92.292053</ele>
<time>2010-06-20T08:45:36Z</time>
<desc>lat.=55.993687, lon.=26.553915, Alt.=92.292053m. Speed=12.924000m/h.</desc>
<speed>3.590000</speed>
</trkpt>
<trkpt lat="55.993694" lon="26.553858">
<ele>92.590881</ele>
<time>2010-06-20T08:45:37Z</time>
<desc>lat.=55.993694, lon.=26.553858, Alt.=92.590881m. Speed=11.124000m/h.</desc>
<speed>3.090000</speed>
</trkpt>
<trkpt lat="55.993702" lon="26.553808">
<ele>93.086975</ele>
<time>2010-06-20T08:45:38Z</time>
<desc>lat.=55.993702, lon.=26.553808, Alt.=93.086975m. Speed=9.972000m/h.</desc>
<speed>2.770000</speed>
</trkpt>
<trkpt lat="55.993702" lon="26.553770">
<ele>92.745178</ele>
<time>2010-06-20T08:45:39Z</time>
<desc>lat.=55.993702, lon.=26.553770, Alt.=92.745178m. Speed=7.596000m/h.</desc>
<speed>2.110000</speed>
</trkpt>
<trkpt lat="55.993698" lon="26.553740">
<ele>92.530334</ele>
<time>2010-06-20T08:45:40Z</time>
<desc>lat.=55.993698, lon.=26.553740, Alt.=92.530334m. Speed=7.524000m/h.</desc>
<speed>2.090000</speed>
</trkpt>
<trkpt lat="55.993706" lon="26.553698">
<ele>92.553772</ele>
<time>2010-06-20T08:45:41Z</time>
<desc>lat.=55.993706, lon.=26.553698, Alt.=92.553772m. Speed=6.912000m/h.</desc>
<speed>1.920000</speed>
</trkpt>
<trkpt lat="55.993713" lon="26.553650">
<ele>92.649475</ele>
<time>2010-06-20T08:45:42Z</time>
<desc>lat.=55.993713, lon.=26.553650, Alt.=92.649475m. Speed=8.100000m/h.</desc>
<speed>2.250000</speed>
</trkpt>
<trkpt lat="55.993725" lon="26.553604">
<ele>92.729553</ele>
<time>2010-06-20T08:45:43Z</time>
<desc>lat.=55.993725, lon.=26.553604, Alt.=92.729553m. Speed=8.172000m/h.</desc>
<speed>2.270000</speed>
</trkpt>
<trkpt lat="55.993744" lon="26.553543">
<ele>93.184631</ele>
<time>2010-06-20T08:45:44Z</time>
<desc>lat.=55.993744, lon.=26.553543, Alt.=93.184631m. Speed=10.800000m/h.</desc>
<speed>3.000000</speed>
</trkpt>
<trkpt lat="55.993755" lon="26.553503">
<ele>93.094788</ele>
<time>2010-06-20T08:45:45Z</time>
<desc>lat.=55.993755, lon.=26.553503, Alt.=93.094788m. Speed=9.000000m/h.</desc>
<speed>2.500000</speed>
</trkpt>
<trkpt lat="55.993755" lon="26.553463">
<ele>93.071350</ele>
<time>2010-06-20T08:45:46Z</time>
<desc>lat.=55.993755, lon.=26.553463, Alt.=93.071350m. Speed=7.164000m/h.</desc>
<speed>1.990000</speed>
</trkpt>
<trkpt lat="55.993759" lon="26.553429">
<ele>93.419006</ele>
<time>2010-06-20T08:45:47Z</time>
<desc>lat.=55.993759, lon.=26.553429, Alt.=93.419006m. Speed=6.552000m/h.</desc>
<speed>1.820000</speed>
</trkpt>
<trkpt lat="55.993771" lon="26.553391">
<ele>94.059631</ele>
<time>2010-06-20T08:45:48Z</time>
<desc>lat.=55.993771, lon.=26.553391, Alt.=94.059631m. Speed=4.752000m/h.</desc>
<speed>1.320000</speed>
</trkpt>
<trkpt lat="55.993771" lon="26.553356">
<ele>94.202209</ele>
<time>2010-06-20T08:45:49Z</time>
<desc>lat.=55.993771, lon.=26.553356, Alt.=94.202209m. Speed=6.588000m/h.</desc>
<speed>1.830000</speed>
</trkpt>
<trkpt lat="55.993774" lon="26.553322">
<ele>94.565491</ele>
<time>2010-06-20T08:45:50Z</time>
<desc>lat.=55.993774, lon.=26.553322, Alt.=94.565491m. Speed=6.660000m/h.</desc>
<speed>1.850000</speed>
</trkpt>
<trkpt lat="55.993778" lon="26.553286">
<ele>94.901428</ele>
<time>2010-06-20T08:45:51Z</time>
<desc>lat.=55.993778, lon.=26.553286, Alt.=94.901428m. Speed=6.840000m/h.</desc>
<speed>1.900000</speed>
</trkpt>
<trkpt lat="55.993786" lon="26.553242">
<ele>95.127991</ele>
<time>2010-06-20T08:45:52Z</time>
<desc>lat.=55.993786, lon.=26.553242, Alt.=95.127991m. Speed=7.884000m/h.</desc>
<speed>2.190000</speed>
</trkpt>
<trkpt lat="55.993801" lon="26.553177">
<ele>94.944397</ele>
<time>2010-06-20T08:45:53Z</time>
<desc>lat.=55.993801, lon.=26.553177, Alt.=94.944397m. Speed=9.864000m/h.</desc>
<speed>2.740000</speed>
</trkpt>
<trkpt lat="55.993813" lon="26.553135">
<ele>94.866272</ele>
<time>2010-06-20T08:45:54Z</time>
<desc>lat.=55.993813, lon.=26.553135, Alt.=94.866272m. Speed=6.876000m/h.</desc>
<speed>1.910000</speed>
</trkpt>
<trkpt lat="55.993809" lon="26.553102">
<ele>94.649475</ele>
<time>2010-06-20T08:45:55Z</time>
<desc>lat.=55.993809, lon.=26.553102, Alt.=94.649475m. Speed=7.344000m/h.</desc>
<speed>2.040000</speed>
</trkpt>
<trkpt lat="55.993801" lon="26.553070">
<ele>95.106506</ele>
<time>2010-06-20T08:45:56Z</time>
<desc>lat.=55.993801, lon.=26.553070, Alt.=95.106506m. Speed=6.552000m/h.</desc>
<speed>1.820000</speed>
</trkpt>
<trkpt lat="55.993813" lon="26.553026">
<ele>94.520569</ele>
<time>2010-06-20T08:45:57Z</time>
<desc>lat.=55.993813, lon.=26.553026, Alt.=94.520569m. Speed=5.760000m/h.</desc>
<speed>1.600000</speed>
</trkpt>
<trkpt lat="55.993813" lon="26.552984">
<ele>93.338928</ele>
<time>2010-06-20T08:45:58Z</time>
<desc>lat.=55.993813, lon.=26.552984, Alt.=93.338928m. Speed=8.208000m/h.</desc>
<speed>2.280000</speed>
</trkpt>
<trkpt lat="55.993813" lon="26.552925">
<ele>92.204163</ele>
<time>2010-06-20T08:45:59Z</time>
<desc>lat.=55.993813, lon.=26.552925, Alt.=92.204163m. Speed=7.416000m/h.</desc>
<speed>2.060000</speed>
</trkpt>
<trkpt lat="55.993813" lon="26.552883">
<ele>91.877991</ele>
<time>2010-06-20T08:46:00Z</time>
<desc>lat.=55.993813, lon.=26.552883, Alt.=91.877991m. Speed=7.020000m/h.</desc>
<speed>1.950000</speed>
</trkpt>
<trkpt lat="55.993820" lon="26.552837">
<ele>91.616272</ele>
<time>2010-06-20T08:46:01Z</time>
<desc>lat.=55.993820, lon.=26.552837, Alt.=91.616272m. Speed=7.848000m/h.</desc>
<speed>2.180000</speed>
</trkpt>
<trkpt lat="55.993809" lon="26.552792">
<ele>91.219788</ele>
<time>2010-06-20T08:46:02Z</time>
<desc>lat.=55.993809, lon.=26.552792, Alt.=91.219788m. Speed=8.856000m/h.</desc>
<speed>2.460000</speed>
</trkpt>
<trkpt lat="55.993801" lon="26.552753">
<ele>91.247131</ele>
<time>2010-06-20T08:46:03Z</time>
<desc>lat.=55.993801, lon.=26.552753, Alt.=91.247131m. Speed=7.236000m/h.</desc>
<speed>2.010000</speed>
</trkpt>
<trkpt lat="55.993797" lon="26.552723">
<ele>91.403381</ele>
<time>2010-06-20T08:46:04Z</time>
<desc>lat.=55.993797, lon.=26.552723, Alt.=91.403381m. Speed=4.284000m/h.</desc>
<speed>1.190000</speed>
</trkpt>
<trkpt lat="55.993793" lon="26.552706">
<ele>91.532288</ele>
<time>2010-06-20T08:46:05Z</time>
<desc>lat.=55.993793, lon.=26.552706, Alt.=91.532288m. Speed=0.684000m/h.</desc>
<speed>0.190000</speed>
</trkpt>
<trkpt lat="55.993797" lon="26.552700">
<ele>91.678772</ele>
<time>2010-06-20T08:46:06Z</time>
<desc>lat.=55.993797, lon.=26.552700, Alt.=91.678772m. Speed=1.584000m/h.</desc>
<speed>0.440000</speed>
</trkpt>
<trkpt lat="55.993790" lon="26.552704">
<ele>91.842834</ele>
<time>2010-06-20T08:46:07Z</time>
<desc>lat.=55.993790, lon.=26.552704, Alt.=91.842834m. Speed=1.368000m/h.</desc>
<speed>0.380000</speed>
</trkpt>
<trkpt lat="55.993801" lon="26.552696">
<ele>92.338928</ele>
<time>2010-06-20T08:46:08Z</time>
<desc>lat.=55.993801, lon.=26.552696, Alt.=92.338928m. Speed=1.188000m/h.</desc>
<speed>0.330000</speed>
</trkpt>
<trkpt lat="55.993801" lon="26.552698">
<ele>92.346741</ele>
<time>2010-06-20T08:46:09Z</time>
<desc>lat.=55.993801, lon.=26.552698, Alt.=92.346741m. Speed=1.080000m/h.</desc>
<speed>0.300000</speed>
</trkpt>
<trkpt lat="55.993805" lon="26.552702">
<ele>92.342834</ele>
<time>2010-06-20T08:46:10Z</time>
<desc>lat.=55.993805, lon.=26.552702, Alt.=92.342834m. Speed=1.908000m/h.</desc>
<speed>0.530000</speed>
</trkpt>
<trkpt lat="55.993809" lon="26.552708">
<ele>92.338928</ele>
<time>2010-06-20T08:46:11Z</time>
<desc>lat.=55.993809, lon.=26.552708, Alt.=92.338928m. Speed=2.268000m/h.</desc>
<speed>0.630000</speed>
</trkpt>
<trkpt lat="55.993813" lon="26.552713">
<ele>92.331116</ele>
<time>2010-06-20T08:46:12Z</time>
<desc>lat.=55.993813, lon.=26.552713, Alt.=92.331116m. Speed=2.052000m/h.</desc>
<speed>0.570000</speed>
</trkpt>
<trkpt lat="55.993816" lon="26.552717">
<ele>92.321350</ele>
<time>2010-06-20T08:46:13Z</time>
<desc>lat.=55.993816, lon.=26.552717, Alt.=92.321350m. Speed=2.664000m/h.</desc>
<speed>0.740000</speed>
</trkpt>
<trkpt lat="55.993824" lon="26.552719">
<ele>92.313538</ele>
<time>2010-06-20T08:46:14Z</time>
<desc>lat.=55.993824, lon.=26.552719, Alt.=92.313538m. Speed=2.556000m/h.</desc>
<speed>0.710000</speed>
</trkpt>
<trkpt lat="55.993832" lon="26.552717">
<ele>92.303772</ele>
<time>2010-06-20T08:46:15Z</time>
<desc>lat.=55.993832, lon.=26.552717, Alt.=92.303772m. Speed=2.484000m/h.</desc>
<speed>0.690000</speed>
</trkpt>
<trkpt lat="55.993835" lon="26.552715">
<ele>92.295959</ele>
<time>2010-06-20T08:46:16Z</time>
<desc>lat.=55.993835, lon.=26.552715, Alt.=92.295959m. Speed=2.052000m/h.</desc>
<speed>0.570000</speed>
</trkpt>
<trkpt lat="55.993843" lon="26.552713">
<ele>92.286194</ele>
<time>2010-06-20T08:46:17Z</time>
<desc>lat.=55.993843, lon.=26.552713, Alt.=92.286194m. Speed=2.376000m/h.</desc>
<speed>0.660000</speed>
</trkpt>
<trkpt lat="55.993847" lon="26.552711">
<ele>92.272522</ele>
<time>2010-06-20T08:46:18Z</time>
<desc>lat.=55.993847, lon.=26.552711, Alt.=92.272522m. Speed=1.980000m/h.</desc>
<speed>0.550000</speed>
</trkpt>
<trkpt lat="55.993851" lon="26.552711">
<ele>92.260803</ele>
<time>2010-06-20T08:46:19Z</time>
<desc>lat.=55.993851, lon.=26.552711, Alt.=92.260803m. Speed=2.232000m/h.</desc>
<speed>0.620000</speed>
</trkpt>
<trkpt lat="55.993858" lon="26.552711">
<ele>92.245178</ele>
<time>2010-06-20T08:46:20Z</time>
<desc>lat.=55.993858, lon.=26.552711, Alt.=92.245178m. Speed=1.836000m/h.</desc>
<speed>0.510000</speed>
</trkpt>
<trkpt lat="55.993862" lon="26.552710">
<ele>92.229553</ele>
<time>2010-06-20T08:46:21Z</time>
<desc>lat.=55.993862, lon.=26.552710, Alt.=92.229553m. Speed=1.872000m/h.</desc>
<speed>0.520000</speed>
</trkpt>
<trkpt lat="55.993866" lon="26.552708">
<ele>92.204163</ele>
<time>2010-06-20T08:46:22Z</time>
<desc>lat.=55.993866, lon.=26.552708, Alt.=92.204163m. Speed=1.584000m/h.</desc>
<speed>0.440000</speed>
</trkpt>
<trkpt lat="55.993870" lon="26.552706">
<ele>92.192444</ele>
<time>2010-06-20T08:46:23Z</time>
<desc>lat.=55.993870, lon.=26.552706, Alt.=92.192444m. Speed=1.440000m/h.</desc>
<speed>0.400000</speed>
</trkpt>
<trkpt lat="55.993874" lon="26.552704">
<ele>92.176819</ele>
<time>2010-06-20T08:46:24Z</time>
<desc>lat.=55.993874, lon.=26.552704, Alt.=92.176819m. Speed=1.440000m/h.</desc>
<speed>0.400000</speed>
</trkpt>
<trkpt lat="55.993877" lon="26.552698">
<ele>92.161194</ele>
<time>2010-06-20T08:46:25Z</time>
<desc>lat.=55.993877, lon.=26.552698, Alt.=92.161194m. Speed=1.764000m/h.</desc>
<speed>0.490000</speed>
</trkpt>
<trkpt lat="55.993877" lon="26.552691">
<ele>92.153381</ele>
<time>2010-06-20T08:46:26Z</time>
<desc>lat.=55.993877, lon.=26.552691, Alt.=92.153381m. Speed=2.664000m/h.</desc>
<speed>0.740000</speed>
</trkpt>
<trkpt lat="55.993877" lon="26.552677">
<ele>92.157288</ele>
<time>2010-06-20T08:46:27Z</time>
<desc>lat.=55.993877, lon.=26.552677, Alt.=92.157288m. Speed=3.996000m/h.</desc>
<speed>1.110000</speed>
</trkpt>
<trkpt lat="55.993862" lon="26.552633">
<ele>92.202209</ele>
<time>2010-06-20T08:46:28Z</time>
<desc>lat.=55.993862, lon.=26.552633, Alt.=92.202209m. Speed=4.896000m/h.</desc>
<speed>1.360000</speed>
</trkpt>
<trkpt lat="55.993835" lon="26.552582">
<ele>91.989319</ele>
<time>2010-06-20T08:46:29Z</time>
<desc>lat.=55.993835, lon.=26.552582, Alt.=91.989319m. Speed=5.112000m/h.</desc>
<speed>1.420000</speed>
</trkpt>
<trkpt lat="55.993813" lon="26.552547">
<ele>91.850647</ele>
<time>2010-06-20T08:46:30Z</time>
<desc>lat.=55.993813, lon.=26.552547, Alt.=91.850647m. Speed=4.860000m/h.</desc>
<speed>1.350000</speed>
</trkpt>
<trkpt lat="55.993805" lon="26.552521">
<ele>92.395569</ele>
<time>2010-06-20T08:46:31Z</time>
<desc>lat.=55.993805, lon.=26.552521, Alt.=92.395569m. Speed=5.184000m/h.</desc>
<speed>1.440000</speed>
</trkpt>
<trkpt lat="55.993813" lon="26.552486">
<ele>93.020569</ele>
<time>2010-06-20T08:46:32Z</time>
<desc>lat.=55.993813, lon.=26.552486, Alt.=93.020569m. Speed=5.724000m/h.</desc>
<speed>1.590000</speed>
</trkpt>
<trkpt lat="55.993816" lon="26.552460">
<ele>93.600647</ele>
<time>2010-06-20T08:46:33Z</time>
<desc>lat.=55.993816, lon.=26.552460, Alt.=93.600647m. Speed=6.372000m/h.</desc>
<speed>1.770000</speed>
</trkpt>
<trkpt lat="55.993824" lon="26.552420">
<ele>93.981506</ele>
<time>2010-06-20T08:46:34Z</time>
<desc>lat.=55.993824, lon.=26.552420, Alt.=93.981506m. Speed=7.344000m/h.</desc>
<speed>2.040000</speed>
</trkpt>
<trkpt lat="55.993832" lon="26.552357">
<ele>94.325256</ele>
<time>2010-06-20T08:46:35Z</time>
<desc>lat.=55.993832, lon.=26.552357, Alt.=94.325256m. Speed=8.784000m/h.</desc>
<speed>2.440000</speed>
</trkpt>
<trkpt lat="55.993816" lon="26.552294">
<ele>94.676819</ele>
<time>2010-06-20T08:46:36Z</time>
<desc>lat.=55.993816, lon.=26.552294, Alt.=94.676819m. Speed=9.180000m/h.</desc>
<speed>2.550000</speed>
</trkpt>
<trkpt lat="55.993813" lon="26.552233">
<ele>94.700256</ele>
<time>2010-06-20T08:46:37Z</time>
<desc>lat.=55.993813, lon.=26.552233, Alt.=94.700256m. Speed=9.756000m/h.</desc>
<speed>2.710000</speed>
</trkpt>
<trkpt lat="55.993816" lon="26.552187">
<ele>95.001038</ele>
<time>2010-06-20T08:46:38Z</time>
<desc>lat.=55.993816, lon.=26.552187, Alt.=95.001038m. Speed=9.036000m/h.</desc>
<speed>2.510000</speed>
</trkpt>
<trkpt lat="55.993824" lon="26.552139">
<ele>95.471741</ele>
<time>2010-06-20T08:46:39Z</time>
<desc>lat.=55.993824, lon.=26.552139, Alt.=95.471741m. Speed=7.848000m/h.</desc>
<speed>2.180000</speed>
</trkpt>
<trkpt lat="55.993824" lon="26.552094">
<ele>95.467834</ele>
<time>2010-06-20T08:46:40Z</time>
<desc>lat.=55.993824, lon.=26.552094, Alt.=95.467834m. Speed=7.632000m/h.</desc>
<speed>2.120000</speed>
</trkpt>
<trkpt lat="55.993824" lon="26.552055">
<ele>95.352600</ele>
<time>2010-06-20T08:46:41Z</time>
<desc>lat.=55.993824, lon.=26.552055, Alt.=95.352600m. Speed=6.408000m/h.</desc>
<speed>1.780000</speed>
</trkpt>
<trkpt lat="55.993820" lon="26.552025">
<ele>95.210022</ele>
<time>2010-06-20T08:46:42Z</time>
<desc>lat.=55.993820, lon.=26.552025, Alt.=95.210022m. Speed=6.012000m/h.</desc>
<speed>1.670000</speed>
</trkpt>
<trkpt lat="55.993824" lon="26.551991">
<ele>95.268616</ele>
<time>2010-06-20T08:46:43Z</time>
<desc>lat.=55.993824, lon.=26.551991, Alt.=95.268616m. Speed=6.660000m/h.</desc>
<speed>1.850000</speed>
</trkpt>
<trkpt lat="55.993828" lon="26.551949">
<ele>95.215881</ele>
<time>2010-06-20T08:46:44Z</time>
<desc>lat.=55.993828, lon.=26.551949, Alt.=95.215881m. Speed=8.064000m/h.</desc>
<speed>2.240000</speed>
</trkpt>
<trkpt lat="55.993839" lon="26.551893">
<ele>95.807678</ele>
<time>2010-06-20T08:46:45Z</time>
<desc>lat.=55.993839, lon.=26.551893, Alt.=95.807678m. Speed=8.820000m/h.</desc>
<speed>2.450000</speed>
</trkpt>
<trkpt lat="55.993843" lon="26.551853">
<ele>95.903381</ele>
<time>2010-06-20T08:46:46Z</time>
<desc>lat.=55.993843, lon.=26.551853, Alt.=95.903381m. Speed=8.784000m/h.</desc>
<speed>2.440000</speed>
</trkpt>
<trkpt lat="55.993851" lon="26.551804">
<ele>96.544006</ele>
<time>2010-06-20T08:46:47Z</time>
<desc>lat.=55.993851, lon.=26.551804, Alt.=96.544006m. Speed=8.244000m/h.</desc>
<speed>2.290000</speed>
</trkpt>
<trkpt lat="55.993858" lon="26.551754">
<ele>96.946350</ele>
<time>2010-06-20T08:46:48Z</time>
<desc>lat.=55.993858, lon.=26.551754, Alt.=96.946350m. Speed=8.892000m/h.</desc>
<speed>2.470000</speed>
</trkpt>
<trkpt lat="55.993855" lon="26.551710">
<ele>96.512756</ele>
<time>2010-06-20T08:46:49Z</time>
<desc>lat.=55.993855, lon.=26.551710, Alt.=96.512756m. Speed=7.596000m/h.</desc>
<speed>2.110000</speed>
</trkpt>
<trkpt lat="55.993858" lon="26.551662">
<ele>96.391663</ele>
<time>2010-06-20T08:46:50Z</time>
<desc>lat.=55.993858, lon.=26.551662, Alt.=96.391663m. Speed=8.604000m/h.</desc>
<speed>2.390000</speed>
</trkpt>
<trkpt lat="55.993843" lon="26.551605">
<ele>95.340881</ele>
<time>2010-06-20T08:46:51Z</time>
<desc>lat.=55.993843, lon.=26.551605, Alt.=95.340881m. Speed=8.748000m/h.</desc>
<speed>2.430000</speed>
</trkpt>
<trkpt lat="55.993839" lon="26.551556">
<ele>95.504944</ele>
<time>2010-06-20T08:46:52Z</time>
<desc>lat.=55.993839, lon.=26.551556, Alt.=95.504944m. Speed=7.992000m/h.</desc>
<speed>2.220000</speed>
</trkpt>
<trkpt lat="55.993839" lon="26.551525">
<ele>96.299866</ele>
<time>2010-06-20T08:46:53Z</time>
<desc>lat.=55.993839, lon.=26.551525, Alt.=96.299866m. Speed=7.200000m/h.</desc>
<speed>2.000000</speed>
</trkpt>
<trkpt lat="55.993832" lon="26.551451">
<ele>95.434631</ele>
<time>2010-06-20T08:46:54Z</time>
<desc>lat.=55.993832, lon.=26.551451, Alt.=95.434631m. Speed=7.344000m/h.</desc>
<speed>2.040000</speed>
</trkpt>
<trkpt lat="55.993828" lon="26.551411">
<ele>95.831116</ele>
<time>2010-06-20T08:46:55Z</time>
<desc>lat.=55.993828, lon.=26.551411, Alt.=95.831116m. Speed=7.164000m/h.</desc>
<speed>1.990000</speed>
</trkpt>
<trkpt lat="55.993828" lon="26.551371">
<ele>96.079163</ele>
<time>2010-06-20T08:46:56Z</time>
<desc>lat.=55.993828, lon.=26.551371, Alt.=96.079163m. Speed=6.372000m/h.</desc>
<speed>1.770000</speed>
</trkpt>
<trkpt lat="55.993820" lon="26.551332">
<ele>96.876038</ele>
<time>2010-06-20T08:46:57Z</time>
<desc>lat.=55.993820, lon.=26.551332, Alt.=96.876038m. Speed=4.608000m/h.</desc>
<speed>1.280000</speed>
</trkpt>
<trkpt lat="55.993805" lon="26.551296">
<ele>97.126038</ele>
<time>2010-06-20T08:46:58Z</time>
<desc>lat.=55.993805, lon.=26.551296, Alt.=97.126038m. Speed=7.380000m/h.</desc>
<speed>2.050000</speed>
</trkpt>
<trkpt lat="55.993805" lon="26.551249">
<ele>96.792053</ele>
<time>2010-06-20T08:46:59Z</time>
<desc>lat.=55.993805, lon.=26.551249, Alt.=96.792053m. Speed=7.344000m/h.</desc>
<speed>2.040000</speed>
</trkpt>
<trkpt lat="55.993820" lon="26.551201">
<ele>97.315491</ele>
<time>2010-06-20T08:47:00Z</time>
<desc>lat.=55.993820, lon.=26.551201, Alt.=97.315491m. Speed=8.172000m/h.</desc>
<speed>2.270000</speed>
</trkpt>
<trkpt lat="55.993835" lon="26.551151">
<ele>97.524475</ele>
<time>2010-06-20T08:47:01Z</time>
<desc>lat.=55.993835, lon.=26.551151, Alt.=97.524475m. Speed=8.100000m/h.</desc>
<speed>2.250000</speed>
</trkpt>
<trkpt lat="55.993843" lon="26.551100">
<ele>98.001038</ele>
<time>2010-06-20T08:47:02Z</time>
<desc>lat.=55.993843, lon.=26.551100, Alt.=98.001038m. Speed=9.108000m/h.</desc>
<speed>2.530000</speed>
</trkpt>
<trkpt lat="55.993851" lon="26.551044">
<ele>98.413147</ele>
<time>2010-06-20T08:47:03Z</time>
<desc>lat.=55.993851, lon.=26.551044, Alt.=98.413147m. Speed=7.920000m/h.</desc>
<speed>2.200000</speed>
</trkpt>
<trkpt lat="55.993858" lon="26.550989">
<ele>99.528381</ele>
<time>2010-06-20T08:47:04Z</time>
<desc>lat.=55.993858, lon.=26.550989, Alt.=99.528381m. Speed=8.460000m/h.</desc>
<speed>2.350000</speed>
</trkpt>
<trkpt lat="55.993866" lon="26.550938">
<ele>100.286194</ele>
<time>2010-06-20T08:47:05Z</time>
<desc>lat.=55.993866, lon.=26.550938, Alt.=100.286194m. Speed=7.056000m/h.</desc>
<speed>1.960000</speed>
</trkpt>
<trkpt lat="55.993862" lon="26.550905">
<ele>100.473694</ele>
<time>2010-06-20T08:47:06Z</time>
<desc>lat.=55.993862, lon.=26.550905, Alt.=100.473694m. Speed=6.012000m/h.</desc>
<speed>1.670000</speed>
</trkpt>
<trkpt lat="55.993858" lon="26.550873">
<ele>100.251038</ele>
<time>2010-06-20T08:47:07Z</time>
<desc>lat.=55.993858, lon.=26.550873, Alt.=100.251038m. Speed=5.796000m/h.</desc>
<speed>1.610000</speed>
</trkpt>
<trkpt lat="55.993855" lon="26.550837">
<ele>100.376038</ele>
<time>2010-06-20T08:47:08Z</time>
<desc>lat.=55.993855, lon.=26.550837, Alt.=100.376038m. Speed=6.336000m/h.</desc>
<speed>1.760000</speed>
</trkpt>
<trkpt lat="55.993855" lon="26.550802">
<ele>100.319397</ele>
<time>2010-06-20T08:47:09Z</time>
<desc>lat.=55.993855, lon.=26.550802, Alt.=100.319397m. Speed=4.932000m/h.</desc>
<speed>1.370000</speed>
</trkpt>
<trkpt lat="55.993851" lon="26.550766">
<ele>100.331116</ele>
<time>2010-06-20T08:47:10Z</time>
<desc>lat.=55.993851, lon.=26.550766, Alt.=100.331116m. Speed=5.940000m/h.</desc>
<speed>1.650000</speed>
</trkpt>
<trkpt lat="55.993851" lon="26.550732">
<ele>99.987366</ele>
<time>2010-06-20T08:47:11Z</time>
<desc>lat.=55.993851, lon.=26.550732, Alt.=99.987366m. Speed=4.896000m/h.</desc>
<speed>1.360000</speed>
</trkpt>
<trkpt lat="55.993851" lon="26.550694">
<ele>100.264709</ele>
<time>2010-06-20T08:47:12Z</time>
<desc>lat.=55.993851, lon.=26.550694, Alt.=100.264709m. Speed=4.356000m/h.</desc>
<speed>1.210000</speed>
</trkpt>
<trkpt lat="55.993855" lon="26.550667">
<ele>100.473694</ele>
<time>2010-06-20T08:47:13Z</time>
<desc>lat.=55.993855, lon.=26.550667, Alt.=100.473694m. Speed=3.312000m/h.</desc>
<speed>0.920000</speed>
</trkpt>
<trkpt lat="55.993870" lon="26.550629">
<ele>100.272522</ele>
<time>2010-06-20T08:47:14Z</time>
<desc>lat.=55.993870, lon.=26.550629, Alt.=100.272522m. Speed=5.832000m/h.</desc>
<speed>1.620000</speed>
</trkpt>
<trkpt lat="55.993881" lon="26.550589">
<ele>100.528381</ele>
<time>2010-06-20T08:47:15Z</time>
<desc>lat.=55.993881, lon.=26.550589, Alt.=100.528381m. Speed=7.128000m/h.</desc>
<speed>1.980000</speed>
</trkpt>
<trkpt lat="55.993904" lon="26.550541">
<ele>100.440491</ele>
<time>2010-06-20T08:47:16Z</time>
<desc>lat.=55.993904, lon.=26.550541, Alt.=100.440491m. Speed=7.452000m/h.</desc>
<speed>2.070000</speed>
</trkpt>
<trkpt lat="55.993908" lon="26.550503">
<ele>100.661194</ele>
<time>2010-06-20T08:47:17Z</time>
<desc>lat.=55.993908, lon.=26.550503, Alt.=100.661194m. Speed=7.164000m/h.</desc>
<speed>1.990000</speed>
</trkpt>
<trkpt lat="55.993908" lon="26.550467">
<ele>100.772522</ele>
<time>2010-06-20T08:47:18Z</time>
<desc>lat.=55.993908, lon.=26.550467, Alt.=100.772522m. Speed=5.616000m/h.</desc>
<speed>1.560000</speed>
</trkpt>
<trkpt lat="55.993912" lon="26.550438">
<ele>101.059631</ele>
<time>2010-06-20T08:47:19Z</time>
<desc>lat.=55.993912, lon.=26.550438, Alt.=101.059631m. Speed=4.536000m/h.</desc>
<speed>1.260000</speed>
</trkpt>
<trkpt lat="55.993912" lon="26.550388">
<ele>101.333069</ele>
<time>2010-06-20T08:47:20Z</time>
<desc>lat.=55.993912, lon.=26.550388, Alt.=101.333069m. Speed=6.516000m/h.</desc>
<speed>1.810000</speed>
</trkpt>
<trkpt lat="55.993919" lon="26.550352">
<ele>101.477600</ele>
<time>2010-06-20T08:47:21Z</time>
<desc>lat.=55.993919, lon.=26.550352, Alt.=101.477600m. Speed=7.092000m/h.</desc>
<speed>1.970000</speed>
</trkpt>
<trkpt lat="55.993919" lon="26.550310">
<ele>102.137756</ele>
<time>2010-06-20T08:47:22Z</time>
<desc>lat.=55.993919, lon.=26.550310, Alt.=102.137756m. Speed=3.492000m/h.</desc>
<speed>0.970000</speed>
</trkpt>
<trkpt lat="55.993919" lon="26.550276">
<ele>102.545959</ele>
<time>2010-06-20T08:47:23Z</time>
<desc>lat.=55.993919, lon.=26.550276, Alt.=102.545959m. Speed=5.868000m/h.</desc>
<speed>1.630000</speed>
</trkpt>
<trkpt lat="55.993919" lon="26.550234">
<ele>103.282288</ele>
<time>2010-06-20T08:47:24Z</time>
<desc>lat.=55.993919, lon.=26.550234, Alt.=103.282288m. Speed=4.248000m/h.</desc>
<speed>1.180000</speed>
</trkpt>
<trkpt lat="55.993923" lon="26.550180">
<ele>103.803772</ele>
<time>2010-06-20T08:47:25Z</time>
<desc>lat.=55.993923, lon.=26.550180, Alt.=103.803772m. Speed=6.768000m/h.</desc>
<speed>1.880000</speed>
</trkpt>
<trkpt lat="55.993931" lon="26.550138">
<ele>104.268616</ele>
<time>2010-06-20T08:47:26Z</time>
<desc>lat.=55.993931, lon.=26.550138, Alt.=104.268616m. Speed=5.544000m/h.</desc>
<speed>1.540000</speed>
</trkpt>
<trkpt lat="55.993931" lon="26.550089">
<ele>103.881897</ele>
<time>2010-06-20T08:47:27Z</time>
<desc>lat.=55.993931, lon.=26.550089, Alt.=103.881897m. Speed=6.912000m/h.</desc>
<speed>1.920000</speed>
</trkpt>
<trkpt lat="55.993946" lon="26.550024">
<ele>104.754944</ele>
<time>2010-06-20T08:47:28Z</time>
<desc>lat.=55.993946, lon.=26.550024, Alt.=104.754944m. Speed=8.820000m/h.</desc>
<speed>2.450000</speed>
</trkpt>
<trkpt lat="55.993950" lon="26.549974">
<ele>104.790100</ele>
<time>2010-06-20T08:47:29Z</time>
<desc>lat.=55.993950, lon.=26.549974, Alt.=104.790100m. Speed=6.480000m/h.</desc>
<speed>1.800000</speed>
</trkpt>
<trkpt lat="55.993950" lon="26.549925">
<ele>105.368225</ele>
<time>2010-06-20T08:47:30Z</time>
<desc>lat.=55.993950, lon.=26.549925, Alt.=105.368225m. Speed=6.804000m/h.</desc>
<speed>1.890000</speed>
</trkpt>
<trkpt lat="55.993950" lon="26.549868">
<ele>106.167053</ele>
<time>2010-06-20T08:47:31Z</time>
<desc>lat.=55.993950, lon.=26.549868, Alt.=106.167053m. Speed=8.064000m/h.</desc>
<speed>2.240000</speed>
</trkpt>
<trkpt lat="55.993950" lon="26.549812">
<ele>106.204163</ele>
<time>2010-06-20T08:47:32Z</time>
<desc>lat.=55.993950, lon.=26.549812, Alt.=106.204163m. Speed=7.992000m/h.</desc>
<speed>2.220000</speed>
</trkpt>
<trkpt lat="55.993954" lon="26.549730">
<ele>104.563538</ele>
<time>2010-06-20T08:47:33Z</time>
<desc>lat.=55.993954, lon.=26.549730, Alt.=104.563538m. Speed=8.532000m/h.</desc>
<speed>2.370000</speed>
</trkpt>
<trkpt lat="55.993961" lon="26.549673">
<ele>103.993225</ele>
<time>2010-06-20T08:47:34Z</time>
<desc>lat.=55.993961, lon.=26.549673, Alt.=103.993225m. Speed=8.388000m/h.</desc>
<speed>2.330000</speed>
</trkpt>
<trkpt lat="55.993969" lon="26.549623">
<ele>103.969788</ele>
<time>2010-06-20T08:47:35Z</time>
<desc>lat.=55.993969, lon.=26.549623, Alt.=103.969788m. Speed=8.892000m/h.</desc>
<speed>2.470000</speed>
</trkpt>
<trkpt lat="55.993980" lon="26.549568">
<ele>103.958069</ele>
<time>2010-06-20T08:47:36Z</time>
<desc>lat.=55.993980, lon.=26.549568, Alt.=103.958069m. Speed=7.884000m/h.</desc>
<speed>2.190000</speed>
</trkpt>
<trkpt lat="55.993996" lon="26.549517">
<ele>104.284241</ele>
<time>2010-06-20T08:47:37Z</time>
<desc>lat.=55.993996, lon.=26.549517, Alt.=104.284241m. Speed=7.308000m/h.</desc>
<speed>2.030000</speed>
</trkpt>
<trkpt lat="55.993996" lon="26.549488">
<ele>104.190491</ele>
<time>2010-06-20T08:47:38Z</time>
<desc>lat.=55.993996, lon.=26.549488, Alt.=104.190491m. Speed=5.472000m/h.</desc>
<speed>1.520000</speed>
</trkpt>
<trkpt lat="55.993980" lon="26.549458">
<ele>104.024475</ele>
<time>2010-06-20T08:47:39Z</time>
<desc>lat.=55.993980, lon.=26.549458, Alt.=104.024475m. Speed=5.796000m/h.</desc>
<speed>1.610000</speed>
</trkpt>
<trkpt lat="55.993980" lon="26.549416">
<ele>104.190491</ele>
<time>2010-06-20T08:47:40Z</time>
<desc>lat.=55.993980, lon.=26.549416, Alt.=104.190491m. Speed=6.732000m/h.</desc>
<speed>1.870000</speed>
</trkpt>
<trkpt lat="55.993984" lon="26.549377">
<ele>104.508850</ele>
<time>2010-06-20T08:47:41Z</time>
<desc>lat.=55.993984, lon.=26.549377, Alt.=104.508850m. Speed=6.588000m/h.</desc>
<speed>1.830000</speed>
</trkpt>
<trkpt lat="55.993988" lon="26.549332">
<ele>104.305725</ele>
<time>2010-06-20T08:47:42Z</time>
<desc>lat.=55.993988, lon.=26.549332, Alt.=104.305725m. Speed=6.120000m/h.</desc>
<speed>1.700000</speed>
</trkpt>
<trkpt lat="55.993996" lon="26.549276">
<ele>103.586975</ele>
<time>2010-06-20T08:47:43Z</time>
<desc>lat.=55.993996, lon.=26.549276, Alt.=103.586975m. Speed=6.012000m/h.</desc>
<speed>1.670000</speed>
</trkpt>
<trkpt lat="55.994022" lon="26.549181">
<ele>104.288147</ele>
<time>2010-06-20T08:47:44Z</time>
<desc>lat.=55.994022, lon.=26.549181, Alt.=104.288147m. Speed=8.712000m/h.</desc>
<speed>2.420000</speed>
</trkpt>
<trkpt lat="55.994045" lon="26.549128">
<ele>103.737366</ele>
<time>2010-06-20T08:47:45Z</time>
<desc>lat.=55.994045, lon.=26.549128, Alt.=103.737366m. Speed=10.728000m/h.</desc>
<speed>2.980000</speed>
</trkpt>
<trkpt lat="55.994053" lon="26.549089">
<ele>103.581116</ele>
<time>2010-06-20T08:47:46Z</time>
<desc>lat.=55.994053, lon.=26.549089, Alt.=103.581116m. Speed=6.372000m/h.</desc>
<speed>1.770000</speed>
</trkpt>
<trkpt lat="55.994053" lon="26.549053">
<ele>103.655334</ele>
<time>2010-06-20T08:47:47Z</time>
<desc>lat.=55.994053, lon.=26.549053, Alt.=103.655334m. Speed=8.280000m/h.</desc>
<speed>2.300000</speed>
</trkpt>
<trkpt lat="55.994061" lon="26.549009">
<ele>103.907288</ele>
<time>2010-06-20T08:47:48Z</time>
<desc>lat.=55.994061, lon.=26.549009, Alt.=103.907288m. Speed=8.460000m/h.</desc>
<speed>2.350000</speed>
</trkpt>
<trkpt lat="55.994064" lon="26.548973">
<ele>104.182678</ele>
<time>2010-06-20T08:47:49Z</time>
<desc>lat.=55.994064, lon.=26.548973, Alt.=104.182678m. Speed=8.136000m/h.</desc>
<speed>2.260000</speed>
</trkpt>
<trkpt lat="55.994068" lon="26.548925">
<ele>104.616272</ele>
<time>2010-06-20T08:47:50Z</time>
<desc>lat.=55.994068, lon.=26.548925, Alt.=104.616272m. Speed=9.036000m/h.</desc>
<speed>2.510000</speed>
</trkpt>
<trkpt lat="55.994080" lon="26.548880">
<ele>105.008850</ele>
<time>2010-06-20T08:47:51Z</time>
<desc>lat.=55.994080, lon.=26.548880, Alt.=105.008850m. Speed=10.116000m/h.</desc>
<speed>2.810000</speed>
</trkpt>
<trkpt lat="55.994087" lon="26.548834">
<ele>105.610413</ele>
<time>2010-06-20T08:47:52Z</time>
<desc>lat.=55.994087, lon.=26.548834, Alt.=105.610413m. Speed=7.992000m/h.</desc>
<speed>2.220000</speed>
</trkpt>
<trkpt lat="55.994091" lon="26.548788">
<ele>106.409241</ele>
<time>2010-06-20T08:47:53Z</time>
<desc>lat.=55.994091, lon.=26.548788, Alt.=106.409241m. Speed=6.336000m/h.</desc>
<speed>1.760000</speed>
</trkpt>
<trkpt lat="55.994099" lon="26.548756">
<ele>107.032288</ele>
<time>2010-06-20T08:47:54Z</time>
<desc>lat.=55.994099, lon.=26.548756, Alt.=107.032288m. Speed=5.796000m/h.</desc>
<speed>1.610000</speed>
</trkpt>
<trkpt lat="55.994110" lon="26.548717">
<ele>107.549866</ele>
<time>2010-06-20T08:47:55Z</time>
<desc>lat.=55.994110, lon.=26.548717, Alt.=107.549866m. Speed=6.732000m/h.</desc>
<speed>1.870000</speed>
</trkpt>
<trkpt lat="55.994122" lon="26.548676">
<ele>108.221741</ele>
<time>2010-06-20T08:47:56Z</time>
<desc>lat.=55.994122, lon.=26.548676, Alt.=108.221741m. Speed=9.072000m/h.</desc>
<speed>2.520000</speed>
</trkpt>
<trkpt lat="55.994129" lon="26.548632">
<ele>108.911194</ele>
<time>2010-06-20T08:47:57Z</time>
<desc>lat.=55.994129, lon.=26.548632, Alt.=108.911194m. Speed=8.928000m/h.</desc>
<speed>2.480000</speed>
</trkpt>
<trkpt lat="55.994122" lon="26.548588">
<ele>109.307678</ele>
<time>2010-06-20T08:47:58Z</time>
<desc>lat.=55.994122, lon.=26.548588, Alt.=109.307678m. Speed=8.352000m/h.</desc>
<speed>2.320000</speed>
</trkpt>
<trkpt lat="55.994125" lon="26.548538">
<ele>110.042053</ele>
<time>2010-06-20T08:47:59Z</time>
<desc>lat.=55.994125, lon.=26.548538, Alt.=110.042053m. Speed=6.984000m/h.</desc>
<speed>1.940000</speed>
</trkpt>
<trkpt lat="55.994129" lon="26.548492">
<ele>110.950256</ele>
<time>2010-06-20T08:48:00Z</time>
<desc>lat.=55.994129, lon.=26.548492, Alt.=110.950256m. Speed=8.568000m/h.</desc>
<speed>2.380000</speed>
</trkpt>
<trkpt lat="55.994141" lon="26.548435">
<ele>111.542053</ele>
<time>2010-06-20T08:48:01Z</time>
<desc>lat.=55.994141, lon.=26.548435, Alt.=111.542053m. Speed=7.920000m/h.</desc>
<speed>2.200000</speed>
</trkpt>
<trkpt lat="55.994141" lon="26.548380">
<ele>110.565491</ele>
<time>2010-06-20T08:48:02Z</time>
<desc>lat.=55.994141, lon.=26.548380, Alt.=110.565491m. Speed=9.252000m/h.</desc>
<speed>2.570000</speed>
</trkpt>
<trkpt lat="55.994144" lon="26.548328">
<ele>109.985413</ele>
<time>2010-06-20T08:48:03Z</time>
<desc>lat.=55.994144, lon.=26.548328, Alt.=109.985413m. Speed=7.812000m/h.</desc>
<speed>2.170000</speed>
</trkpt>
<trkpt lat="55.994156" lon="26.548258">
<ele>109.608459</ele>
<time>2010-06-20T08:48:04Z</time>
<desc>lat.=55.994156, lon.=26.548258, Alt.=109.608459m. Speed=9.180000m/h.</desc>
<speed>2.550000</speed>
</trkpt>
<trkpt lat="55.994156" lon="26.548203">
<ele>110.147522</ele>
<time>2010-06-20T08:48:05Z</time>
<desc>lat.=55.994156, lon.=26.548203, Alt.=110.147522m. Speed=8.712000m/h.</desc>
<speed>2.420000</speed>
</trkpt>
<trkpt lat="55.994164" lon="26.548157">
<ele>110.047913</ele>
<time>2010-06-20T08:48:06Z</time>
<desc>lat.=55.994164, lon.=26.548157, Alt.=110.047913m. Speed=9.828000m/h.</desc>
<speed>2.730000</speed>
</trkpt>
<trkpt lat="55.994175" lon="26.548100">
<ele>109.565491</ele>
<time>2010-06-20T08:48:07Z</time>
<desc>lat.=55.994175, lon.=26.548100, Alt.=109.565491m. Speed=10.908000m/h.</desc>
<speed>3.030000</speed>
</trkpt>
<trkpt lat="55.994183" lon="26.548056">
<ele>109.891663</ele>
<time>2010-06-20T08:48:08Z</time>
<desc>lat.=55.994183, lon.=26.548056, Alt.=109.891663m. Speed=8.136000m/h.</desc>
<speed>2.260000</speed>
</trkpt>
<trkpt lat="55.994194" lon="26.548000">
<ele>110.694397</ele>
<time>2010-06-20T08:48:09Z</time>
<desc>lat.=55.994194, lon.=26.548000, Alt.=110.694397m. Speed=9.288000m/h.</desc>
<speed>2.580000</speed>
</trkpt>
<trkpt lat="55.994205" lon="26.547955">
<ele>111.419006</ele>
<time>2010-06-20T08:48:10Z</time>
<desc>lat.=55.994205, lon.=26.547955, Alt.=111.419006m. Speed=9.540000m/h.</desc>
<speed>2.650000</speed>
</trkpt>
<trkpt lat="55.994209" lon="26.547909">
<ele>112.454163</ele>
<time>2010-06-20T08:48:11Z</time>
<desc>lat.=55.994209, lon.=26.547909, Alt.=112.454163m. Speed=9.504000m/h.</desc>
<speed>2.640000</speed>
</trkpt>
<trkpt lat="55.994213" lon="26.547865">
<ele>112.844788</ele>
<time>2010-06-20T08:48:12Z</time>
<desc>lat.=55.994213, lon.=26.547865, Alt.=112.844788m. Speed=8.388000m/h.</desc>
<speed>2.330000</speed>
</trkpt>
<trkpt lat="55.994209" lon="26.547825">
<ele>112.204163</ele>
<time>2010-06-20T08:48:13Z</time>
<desc>lat.=55.994209, lon.=26.547825, Alt.=112.204163m. Speed=7.848000m/h.</desc>
<speed>2.180000</speed>
</trkpt>
<trkpt lat="55.994213" lon="26.547777">
<ele>111.684631</ele>
<time>2010-06-20T08:48:14Z</time>
<desc>lat.=55.994213, lon.=26.547777, Alt.=111.684631m. Speed=7.812000m/h.</desc>
<speed>2.170000</speed>
</trkpt>
<trkpt lat="55.994217" lon="26.547720">
<ele>109.522522</ele>
<time>2010-06-20T08:48:15Z</time>
<desc>lat.=55.994217, lon.=26.547720, Alt.=109.522522m. Speed=8.568000m/h.</desc>
<speed>2.380000</speed>
</trkpt>
<trkpt lat="55.994225" lon="26.547678">
<ele>109.018616</ele>
<time>2010-06-20T08:48:16Z</time>
<desc>lat.=55.994225, lon.=26.547678, Alt.=109.018616m. Speed=8.064000m/h.</desc>
<speed>2.240000</speed>
</trkpt>
<trkpt lat="55.994228" lon="26.547634">
<ele>109.919006</ele>
<time>2010-06-20T08:48:17Z</time>
<desc>lat.=55.994228, lon.=26.547634, Alt.=109.919006m. Speed=8.280000m/h.</desc>
<speed>2.300000</speed>
</trkpt>
<trkpt lat="55.994225" lon="26.547594">
<ele>110.686584</ele>
<time>2010-06-20T08:48:18Z</time>
<desc>lat.=55.994225, lon.=26.547594, Alt.=110.686584m. Speed=8.604000m/h.</desc>
<speed>2.390000</speed>
</trkpt>
<trkpt lat="55.994225" lon="26.547556">
<ele>110.719788</ele>
<time>2010-06-20T08:48:19Z</time>
<desc>lat.=55.994225, lon.=26.547556, Alt.=110.719788m. Speed=8.748000m/h.</desc>
<speed>2.430000</speed>
</trkpt>
<trkpt lat="55.994217" lon="26.547512">
<ele>110.993225</ele>
<time>2010-06-20T08:48:20Z</time>
<desc>lat.=55.994217, lon.=26.547512, Alt.=110.993225m. Speed=8.388000m/h.</desc>
<speed>2.330000</speed>
</trkpt>
<trkpt lat="55.994228" lon="26.547451">
<ele>110.036194</ele>
<time>2010-06-20T08:48:21Z</time>
<desc>lat.=55.994228, lon.=26.547451, Alt.=110.036194m. Speed=8.604000m/h.</desc>
<speed>2.390000</speed>
</trkpt>
<trkpt lat="55.994236" lon="26.547390">
<ele>110.163147</ele>
<time>2010-06-20T08:48:22Z</time>
<desc>lat.=55.994236, lon.=26.547390, Alt.=110.163147m. Speed=8.460000m/h.</desc>
<speed>2.350000</speed>
</trkpt>
<trkpt lat="55.994247" lon="26.547342">
<ele>111.118225</ele>
<time>2010-06-20T08:48:23Z</time>
<desc>lat.=55.994247, lon.=26.547342, Alt.=111.118225m. Speed=9.108000m/h.</desc>
<speed>2.530000</speed>
</trkpt>
<trkpt lat="55.994251" lon="26.547287">
<ele>111.545959</ele>
<time>2010-06-20T08:48:24Z</time>
<desc>lat.=55.994251, lon.=26.547287, Alt.=111.545959m. Speed=10.872000m/h.</desc>
<speed>3.020000</speed>
</trkpt>
<trkpt lat="55.994274" lon="26.547201">
<ele>110.614319</ele>
<time>2010-06-20T08:48:25Z</time>
<desc>lat.=55.994274, lon.=26.547201, Alt.=110.614319m. Speed=12.492000m/h.</desc>
<speed>3.470000</speed>
</trkpt>
<trkpt lat="55.994293" lon="26.547132">
<ele>111.774475</ele>
<time>2010-06-20T08:48:26Z</time>
<desc>lat.=55.994293, lon.=26.547132, Alt.=111.774475m. Speed=12.312000m/h.</desc>
<speed>3.420000</speed>
</trkpt>
<trkpt lat="55.994308" lon="26.547071">
<ele>112.520569</ele>
<time>2010-06-20T08:48:27Z</time>
<desc>lat.=55.994308, lon.=26.547071, Alt.=112.520569m. Speed=14.328000m/h.</desc>
<speed>3.980000</speed>
</trkpt>
<trkpt lat="55.994328" lon="26.547010">
<ele>112.795959</ele>
<time>2010-06-20T08:48:28Z</time>
<desc>lat.=55.994328, lon.=26.547010, Alt.=112.795959m. Speed=14.832000m/h.</desc>
<speed>4.120000</speed>
</trkpt>
<trkpt lat="55.994339" lon="26.546953">
<ele>112.997131</ele>
<time>2010-06-20T08:48:29Z</time>
<desc>lat.=55.994339, lon.=26.546953, Alt.=112.997131m. Speed=13.284000m/h.</desc>
<speed>3.690000</speed>
</trkpt>
<trkpt lat="55.994339" lon="26.546892">
<ele>113.024475</ele>
<time>2010-06-20T08:48:30Z</time>
<desc>lat.=55.994339, lon.=26.546892, Alt.=113.024475m. Speed=11.556000m/h.</desc>
<speed>3.210000</speed>
</trkpt>
<trkpt lat="55.994343" lon="26.546829">
<ele>113.948303</ele>
<time>2010-06-20T08:48:31Z</time>
<desc>lat.=55.994343, lon.=26.546829, Alt.=113.948303m. Speed=12.168000m/h.</desc>
<speed>3.380000</speed>
</trkpt>
<trkpt lat="55.994350" lon="26.546778">
<ele>114.854553</ele>
<time>2010-06-20T08:48:32Z</time>
<desc>lat.=55.994350, lon.=26.546778, Alt.=114.854553m. Speed=8.856000m/h.</desc>
<speed>2.460000</speed>
</trkpt>
<trkpt lat="55.994350" lon="26.546740">
<ele>115.270569</ele>
<time>2010-06-20T08:48:33Z</time>
<desc>lat.=55.994350, lon.=26.546740, Alt.=115.270569m. Speed=7.488000m/h.</desc>
<speed>2.080000</speed>
</trkpt>
<trkpt lat="55.994350" lon="26.546679">
<ele>112.831116</ele>
<time>2010-06-20T08:48:34Z</time>
<desc>lat.=55.994350, lon.=26.546679, Alt.=112.831116m. Speed=11.556000m/h.</desc>
<speed>3.210000</speed>
</trkpt>
<trkpt lat="55.994350" lon="26.546610">
<ele>110.737366</ele>
<time>2010-06-20T08:48:35Z</time>
<desc>lat.=55.994350, lon.=26.546610, Alt.=110.737366m. Speed=10.260000m/h.</desc>
<speed>2.850000</speed>
</trkpt>
<trkpt lat="55.994350" lon="26.546555">
<ele>109.786194</ele>
<time>2010-06-20T08:48:36Z</time>
<desc>lat.=55.994350, lon.=26.546555, Alt.=109.786194m. Speed=9.684000m/h.</desc>
<speed>2.690000</speed>
</trkpt>
<trkpt lat="55.994354" lon="26.546492">
<ele>108.204163</ele>
<time>2010-06-20T08:48:37Z</time>
<desc>lat.=55.994354, lon.=26.546492, Alt.=108.204163m. Speed=9.468000m/h.</desc>
<speed>2.630000</speed>
</trkpt>
<trkpt lat="55.994347" lon="26.546423">
<ele>105.309631</ele>
<time>2010-06-20T08:48:38Z</time>
<desc>lat.=55.994347, lon.=26.546423, Alt.=105.309631m. Speed=9.900000m/h.</desc>
<speed>2.750000</speed>
</trkpt>
<trkpt lat="55.994354" lon="26.546381">
<ele>104.877991</ele>
<time>2010-06-20T08:48:39Z</time>
<desc>lat.=55.994354, lon.=26.546381, Alt.=104.877991m. Speed=8.064000m/h.</desc>
<speed>2.240000</speed>
</trkpt>
<trkpt lat="55.994350" lon="26.546312">
<ele>102.588928</ele>
<time>2010-06-20T08:48:40Z</time>
<desc>lat.=55.994350, lon.=26.546312, Alt.=102.588928m. Speed=10.404000m/h.</desc>
<speed>2.890000</speed>
</trkpt>
<trkpt lat="55.994362" lon="26.546246">
<ele>101.520569</ele>
<time>2010-06-20T08:48:41Z</time>
<desc>lat.=55.994362, lon.=26.546246, Alt.=101.520569m. Speed=9.864000m/h.</desc>
<speed>2.740000</speed>
</trkpt>
<trkpt lat="55.994362" lon="26.546200">
<ele>101.329163</ele>
<time>2010-06-20T08:48:42Z</time>
<desc>lat.=55.994362, lon.=26.546200, Alt.=101.329163m. Speed=7.884000m/h.</desc>
<speed>2.190000</speed>
</trkpt>
<trkpt lat="55.994370" lon="26.546154">
<ele>101.239319</ele>
<time>2010-06-20T08:48:43Z</time>
<desc>lat.=55.994370, lon.=26.546154, Alt.=101.239319m. Speed=9.216000m/h.</desc>
<speed>2.560000</speed>
</trkpt>
<trkpt lat="55.994381" lon="26.546103">
<ele>100.905334</ele>
<time>2010-06-20T08:48:44Z</time>
<desc>lat.=55.994381, lon.=26.546103, Alt.=100.905334m. Speed=9.180000m/h.</desc>
<speed>2.550000</speed>
</trkpt>
<trkpt lat="55.994377" lon="26.546062">
<ele>100.919006</ele>
<time>2010-06-20T08:48:45Z</time>
<desc>lat.=55.994377, lon.=26.546062, Alt.=100.919006m. Speed=7.776000m/h.</desc>
<speed>2.160000</speed>
</trkpt>
<trkpt lat="55.994377" lon="26.546021">
<ele>100.524475</ele>
<time>2010-06-20T08:48:46Z</time>
<desc>lat.=55.994377, lon.=26.546021, Alt.=100.524475m. Speed=8.388000m/h.</desc>
<speed>2.330000</speed>
</trkpt>
<trkpt lat="55.994385" lon="26.545965">
<ele>100.454163</ele>
<time>2010-06-20T08:48:47Z</time>
<desc>lat.=55.994385, lon.=26.545965, Alt.=100.454163m. Speed=6.948000m/h.</desc>
<speed>1.930000</speed>
</trkpt>
<trkpt lat="55.994385" lon="26.545931">
<ele>100.461975</ele>
<time>2010-06-20T08:48:48Z</time>
<desc>lat.=55.994385, lon.=26.545931, Alt.=100.461975m. Speed=5.904000m/h.</desc>
<speed>1.640000</speed>
</trkpt>
<trkpt lat="55.994385" lon="26.545898">
<ele>100.094788</ele>
<time>2010-06-20T08:48:49Z</time>
<desc>lat.=55.994385, lon.=26.545898, Alt.=100.094788m. Speed=7.596000m/h.</desc>
<speed>2.110000</speed>
</trkpt>
<trkpt lat="55.994389" lon="26.545851">
<ele>100.161194</ele>
<time>2010-06-20T08:48:50Z</time>
<desc>lat.=55.994389, lon.=26.545851, Alt.=100.161194m. Speed=7.704000m/h.</desc>
<speed>2.140000</speed>
</trkpt>
<trkpt lat="55.994404" lon="26.545816">
<ele>99.956116</ele>
<time>2010-06-20T08:48:51Z</time>
<desc>lat.=55.994404, lon.=26.545816, Alt.=99.956116m. Speed=7.632000m/h.</desc>
<speed>2.120000</speed>
</trkpt>
<trkpt lat="55.994415" lon="26.545778">
<ele>100.672913</ele>
<time>2010-06-20T08:48:52Z</time>
<desc>lat.=55.994415, lon.=26.545778, Alt.=100.672913m. Speed=8.100000m/h.</desc>
<speed>2.250000</speed>
</trkpt>
<trkpt lat="55.994427" lon="26.545723">
<ele>100.401428</ele>
<time>2010-06-20T08:48:53Z</time>
<desc>lat.=55.994427, lon.=26.545723, Alt.=100.401428m. Speed=8.352000m/h.</desc>
<speed>2.320000</speed>
</trkpt>
<trkpt lat="55.994419" lon="26.545670">
<ele>100.499084</ele>
<time>2010-06-20T08:48:54Z</time>
<desc>lat.=55.994419, lon.=26.545670, Alt.=100.499084m. Speed=9.252000m/h.</desc>
<speed>2.570000</speed>
</trkpt>
<trkpt lat="55.994427" lon="26.545610">
<ele>100.272522</ele>
<time>2010-06-20T08:48:55Z</time>
<desc>lat.=55.994427, lon.=26.545610, Alt.=100.272522m. Speed=10.260000m/h.</desc>
<speed>2.850000</speed>
</trkpt>
<trkpt lat="55.994431" lon="26.545547">
<ele>99.346741</ele>
<time>2010-06-20T08:48:56Z</time>
<desc>lat.=55.994431, lon.=26.545547, Alt.=99.346741m. Speed=9.792000m/h.</desc>
<speed>2.720000</speed>
</trkpt>
<trkpt lat="55.994434" lon="26.545494">
<ele>98.608459</ele>
<time>2010-06-20T08:48:57Z</time>
<desc>lat.=55.994434, lon.=26.545494, Alt.=98.608459m. Speed=9.432000m/h.</desc>
<speed>2.620000</speed>
</trkpt>
<trkpt lat="55.994442" lon="26.545446">
<ele>98.487366</ele>
<time>2010-06-20T08:48:58Z</time>
<desc>lat.=55.994442, lon.=26.545446, Alt.=98.487366m. Speed=9.504000m/h.</desc>
<speed>2.640000</speed>
</trkpt>
<trkpt lat="55.994450" lon="26.545387">
<ele>98.055725</ele>
<time>2010-06-20T08:48:59Z</time>
<desc>lat.=55.994450, lon.=26.545387, Alt.=98.055725m. Speed=9.828000m/h.</desc>
<speed>2.730000</speed>
</trkpt>
<trkpt lat="55.994442" lon="26.545313">
<ele>95.686584</ele>
<time>2010-06-20T08:49:00Z</time>
<desc>lat.=55.994442, lon.=26.545313, Alt.=95.686584m. Speed=9.792000m/h.</desc>
<speed>2.720000</speed>
</trkpt>
<trkpt lat="55.994438" lon="26.545252">
<ele>94.292053</ele>
<time>2010-06-20T08:49:01Z</time>
<desc>lat.=55.994438, lon.=26.545252, Alt.=94.292053m. Speed=9.540000m/h.</desc>
<speed>2.650000</speed>
</trkpt>
<trkpt lat="55.994434" lon="26.545198">
<ele>94.526428</ele>
<time>2010-06-20T08:49:02Z</time>
<desc>lat.=55.994434, lon.=26.545198, Alt.=94.526428m. Speed=9.972000m/h.</desc>
<speed>2.770000</speed>
</trkpt>
<trkpt lat="55.994434" lon="26.545134">
<ele>95.094788</ele>
<time>2010-06-20T08:49:03Z</time>
<desc>lat.=55.994434, lon.=26.545134, Alt.=95.094788m. Speed=9.576000m/h.</desc>
<speed>2.660000</speed>
</trkpt>
<trkpt lat="55.994446" lon="26.545082">
<ele>95.114319</ele>
<time>2010-06-20T08:49:04Z</time>
<desc>lat.=55.994446, lon.=26.545082, Alt.=95.114319m. Speed=9.000000m/h.</desc>
<speed>2.500000</speed>
</trkpt>
<trkpt lat="55.994442" lon="26.545036">
<ele>95.411194</ele>
<time>2010-06-20T08:49:05Z</time>
<desc>lat.=55.994442, lon.=26.545036, Alt.=95.411194m. Speed=8.064000m/h.</desc>
<speed>2.240000</speed>
</trkpt>
<trkpt lat="55.994442" lon="26.544994">
<ele>96.331116</ele>
<time>2010-06-20T08:49:06Z</time>
<desc>lat.=55.994442, lon.=26.544994, Alt.=96.331116m. Speed=7.632000m/h.</desc>
<speed>2.120000</speed>
</trkpt>
<trkpt lat="55.994450" lon="26.544937">
<ele>97.295959</ele>
<time>2010-06-20T08:49:07Z</time>
<desc>lat.=55.994450, lon.=26.544937, Alt.=97.295959m. Speed=8.100000m/h.</desc>
<speed>2.250000</speed>
</trkpt>
<trkpt lat="55.994453" lon="26.544888">
<ele>97.868225</ele>
<time>2010-06-20T08:49:08Z</time>
<desc>lat.=55.994453, lon.=26.544888, Alt.=97.868225m. Speed=8.784000m/h.</desc>
<speed>2.440000</speed>
</trkpt>
<trkpt lat="55.994457" lon="26.544838">
<ele>98.592834</ele>
<time>2010-06-20T08:49:09Z</time>
<desc>lat.=55.994457, lon.=26.544838, Alt.=98.592834m. Speed=10.584000m/h.</desc>
<speed>2.940000</speed>
</trkpt>
<trkpt lat="55.994465" lon="26.544788">
<ele>99.530334</ele>
<time>2010-06-20T08:49:10Z</time>
<desc>lat.=55.994465, lon.=26.544788, Alt.=99.530334m. Speed=10.800000m/h.</desc>
<speed>3.000000</speed>
</trkpt>
<trkpt lat="55.994473" lon="26.544733">
<ele>100.446350</ele>
<time>2010-06-20T08:49:11Z</time>
<desc>lat.=55.994473, lon.=26.544733, Alt.=100.446350m. Speed=11.016000m/h.</desc>
<speed>3.060000</speed>
</trkpt>
<trkpt lat="55.994488" lon="26.544691">
<ele>100.971741</ele>
<time>2010-06-20T08:49:12Z</time>
<desc>lat.=55.994488, lon.=26.544691, Alt.=100.971741m. Speed=10.548000m/h.</desc>
<speed>2.930000</speed>
</trkpt>
<trkpt lat="55.994488" lon="26.544643">
<ele>100.620178</ele>
<time>2010-06-20T08:49:13Z</time>
<desc>lat.=55.994488, lon.=26.544643, Alt.=100.620178m. Speed=8.136000m/h.</desc>
<speed>2.260000</speed>
</trkpt>
<trkpt lat="55.994492" lon="26.544592">
<ele>100.565491</ele>
<time>2010-06-20T08:49:14Z</time>
<desc>lat.=55.994492, lon.=26.544592, Alt.=100.565491m. Speed=9.972000m/h.</desc>
<speed>2.770000</speed>
</trkpt>
<trkpt lat="55.994488" lon="26.544531">
<ele>99.016663</ele>
<time>2010-06-20T08:49:15Z</time>
<desc>lat.=55.994488, lon.=26.544531, Alt.=99.016663m. Speed=9.756000m/h.</desc>
<speed>2.710000</speed>
</trkpt>
<trkpt lat="55.994473" lon="26.544474">
<ele>97.411194</ele>
<time>2010-06-20T08:49:16Z</time>
<desc>lat.=55.994473, lon.=26.544474, Alt.=97.411194m. Speed=10.116000m/h.</desc>
<speed>2.810000</speed>
</trkpt>
<trkpt lat="55.994457" lon="26.544418">
<ele>96.272522</ele>
<time>2010-06-20T08:49:17Z</time>
<desc>lat.=55.994457, lon.=26.544418, Alt.=96.272522m. Speed=10.260000m/h.</desc>
<speed>2.850000</speed>
</trkpt>
<trkpt lat="55.994446" lon="26.544380">
<ele>95.534241</ele>
<time>2010-06-20T08:49:18Z</time>
<desc>lat.=55.994446, lon.=26.544380, Alt.=95.534241m. Speed=8.532000m/h.</desc>
<speed>2.370000</speed>
</trkpt>
<trkpt lat="55.994438" lon="26.544336">
<ele>95.854553</ele>
<time>2010-06-20T08:49:19Z</time>
<desc>lat.=55.994438, lon.=26.544336, Alt.=95.854553m. Speed=7.380000m/h.</desc>
<speed>2.050000</speed>
</trkpt>
<trkpt lat="55.994438" lon="26.544308">
<ele>96.010803</ele>
<time>2010-06-20T08:49:20Z</time>
<desc>lat.=55.994438, lon.=26.544308, Alt.=96.010803m. Speed=4.860000m/h.</desc>
<speed>1.350000</speed>
</trkpt>
<trkpt lat="55.994434" lon="26.544287">
<ele>96.006897</ele>
<time>2010-06-20T08:49:21Z</time>
<desc>lat.=55.994434, lon.=26.544287, Alt.=96.006897m. Speed=3.996000m/h.</desc>
<speed>1.110000</speed>
</trkpt>
<trkpt lat="55.994419" lon="26.544271">
<ele>96.688538</ele>
<time>2010-06-20T08:49:22Z</time>
<desc>lat.=55.994419, lon.=26.544271, Alt.=96.688538m. Speed=4.752000m/h.</desc>
<speed>1.320000</speed>
</trkpt>
<trkpt lat="55.994411" lon="26.544245">
<ele>96.926819</ele>
<time>2010-06-20T08:49:23Z</time>
<desc>lat.=55.994411, lon.=26.544245, Alt.=96.926819m. Speed=6.012000m/h.</desc>
<speed>1.670000</speed>
</trkpt>
<trkpt lat="55.994411" lon="26.544209">
<ele>97.299866</ele>
<time>2010-06-20T08:49:24Z</time>
<desc>lat.=55.994411, lon.=26.544209, Alt.=97.299866m. Speed=7.668000m/h.</desc>
<speed>2.130000</speed>
</trkpt>
<trkpt lat="55.994408" lon="26.544172">
<ele>96.688538</ele>
<time>2010-06-20T08:49:25Z</time>
<desc>lat.=55.994408, lon.=26.544172, Alt.=96.688538m. Speed=7.308000m/h.</desc>
<speed>2.030000</speed>
</trkpt>
<trkpt lat="55.994396" lon="26.544134">
<ele>95.491272</ele>
<time>2010-06-20T08:49:26Z</time>
<desc>lat.=55.994396, lon.=26.544134, Alt.=95.491272m. Speed=8.208000m/h.</desc>
<speed>2.280000</speed>
</trkpt>
<trkpt lat="55.994396" lon="26.544085">
<ele>94.813538</ele>
<time>2010-06-20T08:49:27Z</time>
<desc>lat.=55.994396, lon.=26.544085, Alt.=94.813538m. Speed=9.792000m/h.</desc>
<speed>2.720000</speed>
</trkpt>
<trkpt lat="55.994400" lon="26.544025">
<ele>94.270569</ele>
<time>2010-06-20T08:49:28Z</time>
<desc>lat.=55.994400, lon.=26.544025, Alt.=94.270569m. Speed=11.412000m/h.</desc>
<speed>3.170000</speed>
</trkpt>
<trkpt lat="55.994434" lon="26.543966">
<ele>92.684631</ele>
<time>2010-06-20T08:49:29Z</time>
<desc>lat.=55.994434, lon.=26.543966, Alt.=92.684631m. Speed=9.792000m/h.</desc>
<speed>2.720000</speed>
</trkpt>
<trkpt lat="55.994446" lon="26.543917">
<ele>92.336975</ele>
<time>2010-06-20T08:49:30Z</time>
<desc>lat.=55.994446, lon.=26.543917, Alt.=92.336975m. Speed=11.376000m/h.</desc>
<speed>3.160000</speed>
</trkpt>
<trkpt lat="55.994450" lon="26.543858">
<ele>90.788147</ele>
<time>2010-06-20T08:49:31Z</time>
<desc>lat.=55.994450, lon.=26.543858, Alt.=90.788147m. Speed=12.060000m/h.</desc>
<speed>3.350000</speed>
</trkpt>
<trkpt lat="55.994453" lon="26.543800">
<ele>90.479553</ele>
<time>2010-06-20T08:49:32Z</time>
<desc>lat.=55.994453, lon.=26.543800, Alt.=90.479553m. Speed=11.736000m/h.</desc>
<speed>3.260000</speed>
</trkpt>
<trkpt lat="55.994453" lon="26.543743">
<ele>90.122131</ele>
<time>2010-06-20T08:49:33Z</time>
<desc>lat.=55.994453, lon.=26.543743, Alt.=90.122131m. Speed=13.320000m/h.</desc>
<speed>3.700000</speed>
</trkpt>
<trkpt lat="55.994438" lon="26.543673">
<ele>88.862366</ele>
<time>2010-06-20T08:49:34Z</time>
<desc>lat.=55.994438, lon.=26.543673, Alt.=88.862366m. Speed=14.544000m/h.</desc>
<speed>4.040000</speed>
</trkpt>
<trkpt lat="55.994446" lon="26.543596">
<ele>87.133850</ele>
<time>2010-06-20T08:49:35Z</time>
<desc>lat.=55.994446, lon.=26.543596, Alt.=87.133850m. Speed=14.616000m/h.</desc>
<speed>4.060000</speed>
</trkpt>
<trkpt lat="55.994431" lon="26.543524">
<ele>85.711975</ele>
<time>2010-06-20T08:49:36Z</time>
<desc>lat.=55.994431, lon.=26.543524, Alt.=85.711975m. Speed=16.379999m/h.</desc>
<speed>4.550000</speed>
</trkpt>
<trkpt lat="55.994419" lon="26.543457">
<ele>83.836975</ele>
<time>2010-06-20T08:49:37Z</time>
<desc>lat.=55.994419, lon.=26.543457, Alt.=83.836975m. Speed=16.559999m/h.</desc>
<speed>4.600000</speed>
</trkpt>
<trkpt lat="55.994408" lon="26.543385">
<ele>83.391663</ele>
<time>2010-06-20T08:49:38Z</time>
<desc>lat.=55.994408, lon.=26.543385, Alt.=83.391663m. Speed=16.559999m/h.</desc>
<speed>4.600000</speed>
</trkpt>
<trkpt lat="55.994404" lon="26.543308">
<ele>82.012756</ele>
<time>2010-06-20T08:49:39Z</time>
<desc>lat.=55.994404, lon.=26.543308, Alt.=82.012756m. Speed=17.028000m/h.</desc>
<speed>4.730000</speed>
</trkpt>
<trkpt lat="55.994389" lon="26.543243">
<ele>81.723694</ele>
<time>2010-06-20T08:49:40Z</time>
<desc>lat.=55.994389, lon.=26.543243, Alt.=81.723694m. Speed=14.112000m/h.</desc>
<speed>3.920000</speed>
</trkpt>
<trkpt lat="55.994392" lon="26.543173">
<ele>81.719788</ele>
<time>2010-06-20T08:49:41Z</time>
<desc>lat.=55.994392, lon.=26.543173, Alt.=81.719788m. Speed=16.020000m/h.</desc>
<speed>4.450000</speed>
</trkpt>
<trkpt lat="55.994392" lon="26.543089">
<ele>81.969788</ele>
<time>2010-06-20T08:49:42Z</time>
<desc>lat.=55.994392, lon.=26.543089, Alt.=81.969788m. Speed=16.667999m/h.</desc>
<speed>4.630000</speed>
</trkpt>
<trkpt lat="55.994408" lon="26.543011">
<ele>81.653381</ele>
<time>2010-06-20T08:49:43Z</time>
<desc>lat.=55.994408, lon.=26.543011, Alt.=81.653381m. Speed=15.876000m/h.</desc>
<speed>4.410000</speed>
</trkpt>
<trkpt lat="55.994408" lon="26.542927">
<ele>80.612366</ele>
<time>2010-06-20T08:49:44Z</time>
<desc>lat.=55.994408, lon.=26.542927, Alt.=80.612366m. Speed=16.128000m/h.</desc>
<speed>4.480000</speed>
</trkpt>
<trkpt lat="55.994404" lon="26.542814">
<ele>80.596741</ele>
<time>2010-06-20T08:49:45Z</time>
<desc>lat.=55.994404, lon.=26.542814, Alt.=80.596741m. Speed=18.143999m/h.</desc>
<speed>5.040000</speed>
</trkpt>
<trkpt lat="55.994404" lon="26.542715">
<ele>81.112366</ele>
<time>2010-06-20T08:49:46Z</time>
<desc>lat.=55.994404, lon.=26.542715, Alt.=81.112366m. Speed=18.972000m/h.</desc>
<speed>5.270000</speed>
</trkpt>
<trkpt lat="55.994408" lon="26.542631">
<ele>80.522522</ele>
<time>2010-06-20T08:49:47Z</time>
<desc>lat.=55.994408, lon.=26.542631, Alt.=80.522522m. Speed=17.676001m/h.</desc>
<speed>4.910000</speed>
</trkpt>
<trkpt lat="55.994408" lon="26.542543">
<ele>80.780334</ele>
<time>2010-06-20T08:49:48Z</time>
<desc>lat.=55.994408, lon.=26.542543, Alt.=80.780334m. Speed=16.704000m/h.</desc>
<speed>4.640000</speed>
</trkpt>
<trkpt lat="55.994400" lon="26.542421">
<ele>84.055725</ele>
<time>2010-06-20T08:49:49Z</time>
<desc>lat.=55.994400, lon.=26.542421, Alt.=84.055725m. Speed=16.812000m/h.</desc>
<speed>4.670000</speed>
</trkpt>
<trkpt lat="55.994392" lon="26.542339">
<ele>84.198303</ele>
<time>2010-06-20T08:49:50Z</time>
<desc>lat.=55.994392, lon.=26.542339, Alt.=84.198303m. Speed=15.732000m/h.</desc>
<speed>4.370000</speed>
</trkpt>
<trkpt lat="55.994396" lon="26.542269">
<ele>84.440491</ele>
<time>2010-06-20T08:49:51Z</time>
<desc>lat.=55.994396, lon.=26.542269, Alt.=84.440491m. Speed=13.500000m/h.</desc>
<speed>3.750000</speed>
</trkpt>
<trkpt lat="55.994404" lon="26.542196">
<ele>85.430725</ele>
<time>2010-06-20T08:49:52Z</time>
<desc>lat.=55.994404, lon.=26.542196, Alt.=85.430725m. Speed=12.780000m/h.</desc>
<speed>3.550000</speed>
</trkpt>
<trkpt lat="55.994415" lon="26.542128">
<ele>85.821350</ele>
<time>2010-06-20T08:49:53Z</time>
<desc>lat.=55.994415, lon.=26.542128, Alt.=85.821350m. Speed=12.852000m/h.</desc>
<speed>3.570000</speed>
</trkpt>
<trkpt lat="55.994419" lon="26.542063">
<ele>86.167053</ele>
<time>2010-06-20T08:49:54Z</time>
<desc>lat.=55.994419, lon.=26.542063, Alt.=86.167053m. Speed=10.296000m/h.</desc>
<speed>2.860000</speed>
</trkpt>
<trkpt lat="55.994438" lon="26.542011">
<ele>86.401428</ele>
<time>2010-06-20T08:49:55Z</time>
<desc>lat.=55.994438, lon.=26.542011, Alt.=86.401428m. Speed=11.268000m/h.</desc>
<speed>3.130000</speed>
</trkpt>
<trkpt lat="55.994438" lon="26.541950">
<ele>85.356506</ele>
<time>2010-06-20T08:49:56Z</time>
<desc>lat.=55.994438, lon.=26.541950, Alt.=85.356506m. Speed=12.672000m/h.</desc>
<speed>3.520000</speed>
</trkpt>
<trkpt lat="55.994442" lon="26.541885">
<ele>84.805725</ele>
<time>2010-06-20T08:49:57Z</time>
<desc>lat.=55.994442, lon.=26.541885, Alt.=84.805725m. Speed=10.872000m/h.</desc>
<speed>3.020000</speed>
</trkpt>
<trkpt lat="55.994438" lon="26.541821">
<ele>84.497131</ele>
<time>2010-06-20T08:49:58Z</time>
<desc>lat.=55.994438, lon.=26.541821, Alt.=84.497131m. Speed=9.828000m/h.</desc>
<speed>2.730000</speed>
</trkpt>
<trkpt lat="55.994404" lon="26.541742">
<ele>80.751038</ele>
<time>2010-06-20T08:49:59Z</time>
<desc>lat.=55.994404, lon.=26.541742, Alt.=80.751038m. Speed=11.196000m/h.</desc>
<speed>3.110000</speed>
</trkpt>
<trkpt lat="55.994392" lon="26.541681">
<ele>78.090881</ele>
<time>2010-06-20T08:50:00Z</time>
<desc>lat.=55.994392, lon.=26.541681, Alt.=78.090881m. Speed=13.500000m/h.</desc>
<speed>3.750000</speed>
</trkpt>
<trkpt lat="55.994392" lon="26.541611">
<ele>77.286194</ele>
<time>2010-06-20T08:50:01Z</time>
<desc>lat.=55.994392, lon.=26.541611, Alt.=77.286194m. Speed=13.716000m/h.</desc>
<speed>3.810000</speed>
</trkpt>
<trkpt lat="55.994385" lon="26.541523">
<ele>79.135803</ele>
<time>2010-06-20T08:50:02Z</time>
<desc>lat.=55.994385, lon.=26.541523, Alt.=79.135803m. Speed=15.336000m/h.</desc>
<speed>4.260000</speed>
</trkpt>
<trkpt lat="55.994381" lon="26.541409">
<ele>80.981506</ele>
<time>2010-06-20T08:50:03Z</time>
<desc>lat.=55.994381, lon.=26.541409, Alt.=80.981506m. Speed=16.775999m/h.</desc>
<speed>4.660000</speed>
</trkpt>
<trkpt lat="55.994381" lon="26.541319">
<ele>82.268616</ele>
<time>2010-06-20T08:50:04Z</time>
<desc>lat.=55.994381, lon.=26.541319, Alt.=82.268616m. Speed=12.456000m/h.</desc>
<speed>3.460000</speed>
</trkpt>
<trkpt lat="55.994396" lon="26.541256">
<ele>81.938538</ele>
<time>2010-06-20T08:50:05Z</time>
<desc>lat.=55.994396, lon.=26.541256, Alt.=81.938538m. Speed=11.772000m/h.</desc>
<speed>3.270000</speed>
</trkpt>
<trkpt lat="55.994373" lon="26.541191">
<ele>83.481506</ele>
<time>2010-06-20T08:50:06Z</time>
<desc>lat.=55.994373, lon.=26.541191, Alt.=83.481506m. Speed=10.908000m/h.</desc>
<speed>3.030000</speed>
</trkpt>
<trkpt lat="55.994370" lon="26.541111">
<ele>84.676819</ele>
<time>2010-06-20T08:50:07Z</time>
<desc>lat.=55.994370, lon.=26.541111, Alt.=84.676819m. Speed=11.016000m/h.</desc>
<speed>3.060000</speed>
</trkpt>
<trkpt lat="55.994373" lon="26.541044">
<ele>85.401428</ele>
<time>2010-06-20T08:50:08Z</time>
<desc>lat.=55.994373, lon.=26.541044, Alt.=85.401428m. Speed=9.720000m/h.</desc>
<speed>2.700000</speed>
</trkpt>
<trkpt lat="55.994366" lon="26.540964">
<ele>87.792053</ele>
<time>2010-06-20T08:50:09Z</time>
<desc>lat.=55.994366, lon.=26.540964, Alt.=87.792053m. Speed=10.260000m/h.</desc>
<speed>2.850000</speed>
</trkpt>
<trkpt lat="55.994373" lon="26.540901">
<ele>88.432678</ele>
<time>2010-06-20T08:50:10Z</time>
<desc>lat.=55.994373, lon.=26.540901, Alt.=88.432678m. Speed=10.080000m/h.</desc>
<speed>2.800000</speed>
</trkpt>
<trkpt lat="55.994381" lon="26.540838">
<ele>89.827209</ele>
<time>2010-06-20T08:50:11Z</time>
<desc>lat.=55.994381, lon.=26.540838, Alt.=89.827209m. Speed=10.368000m/h.</desc>
<speed>2.880000</speed>
</trkpt>
<trkpt lat="55.994396" lon="26.540775">
<ele>90.809631</ele>
<time>2010-06-20T08:50:12Z</time>
<desc>lat.=55.994396, lon.=26.540775, Alt.=90.809631m. Speed=9.828000m/h.</desc>
<speed>2.730000</speed>
</trkpt>
<trkpt lat="55.994400" lon="26.540693">
<ele>91.667053</ele>
<time>2010-06-20T08:50:13Z</time>
<desc>lat.=55.994400, lon.=26.540693, Alt.=91.667053m. Speed=10.044000m/h.</desc>
<speed>2.790000</speed>
</trkpt>
<trkpt lat="55.994404" lon="26.540646">
<ele>91.792053</ele>
<time>2010-06-20T08:50:14Z</time>
<desc>lat.=55.994404, lon.=26.540646, Alt.=91.792053m. Speed=9.036000m/h.</desc>
<speed>2.510000</speed>
</trkpt>
<trkpt lat="55.994404" lon="26.540594">
<ele>92.346741</ele>
<time>2010-06-20T08:50:15Z</time>
<desc>lat.=55.994404, lon.=26.540594, Alt.=92.346741m. Speed=8.964000m/h.</desc>
<speed>2.490000</speed>
</trkpt>
<trkpt lat="55.994400" lon="26.540545">
<ele>93.114319</ele>
<time>2010-06-20T08:50:16Z</time>
<desc>lat.=55.994400, lon.=26.540545, Alt.=93.114319m. Speed=9.720000m/h.</desc>
<speed>2.700000</speed>
</trkpt>
<trkpt lat="55.994400" lon="26.540491">
<ele>93.419006</ele>
<time>2010-06-20T08:50:17Z</time>
<desc>lat.=55.994400, lon.=26.540491, Alt.=93.419006m. Speed=10.980000m/h.</desc>
<speed>3.050000</speed>
</trkpt>
<trkpt lat="55.994396" lon="26.540447">
<ele>93.762756</ele>
<time>2010-06-20T08:50:18Z</time>
<desc>lat.=55.994396, lon.=26.540447, Alt.=93.762756m. Speed=11.232000m/h.</desc>
<speed>3.120000</speed>
</trkpt>
<trkpt lat="55.994392" lon="26.540390">
<ele>93.467834</ele>
<time>2010-06-20T08:50:19Z</time>
<desc>lat.=55.994392, lon.=26.540390, Alt.=93.467834m. Speed=10.800000m/h.</desc>
<speed>3.000000</speed>
</trkpt>
<trkpt lat="55.994400" lon="26.540346">
<ele>93.297913</ele>
<time>2010-06-20T08:50:20Z</time>
<desc>lat.=55.994400, lon.=26.540346, Alt.=93.297913m. Speed=9.324000m/h.</desc>
<speed>2.590000</speed>
</trkpt>
<trkpt lat="55.994408" lon="26.540302">
<ele>94.116272</ele>
<time>2010-06-20T08:50:21Z</time>
<desc>lat.=55.994408, lon.=26.540302, Alt.=94.116272m. Speed=8.928000m/h.</desc>
<speed>2.480000</speed>
</trkpt>
<trkpt lat="55.994408" lon="26.540255">
<ele>94.442444</ele>
<time>2010-06-20T08:50:22Z</time>
<desc>lat.=55.994408, lon.=26.540255, Alt.=94.442444m. Speed=10.188000m/h.</desc>
<speed>2.830000</speed>
</trkpt>
<trkpt lat="55.994404" lon="26.540209">
<ele>95.094788</ele>
<time>2010-06-20T08:50:23Z</time>
<desc>lat.=55.994404, lon.=26.540209, Alt.=95.094788m. Speed=8.820000m/h.</desc>
<speed>2.450000</speed>
</trkpt>
<trkpt lat="55.994392" lon="26.540163">
<ele>95.276428</ele>
<time>2010-06-20T08:50:24Z</time>
<desc>lat.=55.994392, lon.=26.540163, Alt.=95.276428m. Speed=9.180000m/h.</desc>
<speed>2.550000</speed>
</trkpt>
<trkpt lat="55.994385" lon="26.540123">
<ele>95.501038</ele>
<time>2010-06-20T08:50:25Z</time>
<desc>lat.=55.994385, lon.=26.540123, Alt.=95.501038m. Speed=8.640000m/h.</desc>
<speed>2.400000</speed>
</trkpt>
<trkpt lat="55.994389" lon="26.540077">
<ele>96.684631</ele>
<time>2010-06-20T08:50:26Z</time>
<desc>lat.=55.994389, lon.=26.540077, Alt.=96.684631m. Speed=9.108000m/h.</desc>
<speed>2.530000</speed>
</trkpt>
<trkpt lat="55.994389" lon="26.540026">
<ele>97.151428</ele>
<time>2010-06-20T08:50:27Z</time>
<desc>lat.=55.994389, lon.=26.540026, Alt.=97.151428m. Speed=9.216000m/h.</desc>
<speed>2.560000</speed>
</trkpt>
<trkpt lat="55.994392" lon="26.539978">
<ele>97.458069</ele>
<time>2010-06-20T08:50:28Z</time>
<desc>lat.=55.994392, lon.=26.539978, Alt.=97.458069m. Speed=8.712000m/h.</desc>
<speed>2.420000</speed>
</trkpt>
<trkpt lat="55.994396" lon="26.539928">
<ele>98.764709</ele>
<time>2010-06-20T08:50:29Z</time>
<desc>lat.=55.994396, lon.=26.539928, Alt.=98.764709m. Speed=9.432000m/h.</desc>
<speed>2.620000</speed>
</trkpt>
<trkpt lat="55.994411" lon="26.539864">
<ele>99.335022</ele>
<time>2010-06-20T08:50:30Z</time>
<desc>lat.=55.994411, lon.=26.539864, Alt.=99.335022m. Speed=10.656000m/h.</desc>
<speed>2.960000</speed>
</trkpt>
<trkpt lat="55.994419" lon="26.539812">
<ele>99.688538</ele>
<time>2010-06-20T08:50:31Z</time>
<desc>lat.=55.994419, lon.=26.539812, Alt.=99.688538m. Speed=8.748000m/h.</desc>
<speed>2.430000</speed>
</trkpt>
<trkpt lat="55.994427" lon="26.539753">
<ele>98.817444</ele>
<time>2010-06-20T08:50:32Z</time>
<desc>lat.=55.994427, lon.=26.539753, Alt.=98.817444m. Speed=11.844000m/h.</desc>
<speed>3.290000</speed>
</trkpt>
<trkpt lat="55.994419" lon="26.539705">
<ele>98.571350</ele>
<time>2010-06-20T08:50:33Z</time>
<desc>lat.=55.994419, lon.=26.539705, Alt.=98.571350m. Speed=6.444000m/h.</desc>
<speed>1.790000</speed>
</trkpt>
<trkpt lat="55.994411" lon="26.539654">
<ele>99.088928</ele>
<time>2010-06-20T08:50:34Z</time>
<desc>lat.=55.994411, lon.=26.539654, Alt.=99.088928m. Speed=8.208000m/h.</desc>
<speed>2.280000</speed>
</trkpt>
<trkpt lat="55.994415" lon="26.539602">
<ele>100.020569</ele>
<time>2010-06-20T08:50:35Z</time>
<desc>lat.=55.994415, lon.=26.539602, Alt.=100.020569m. Speed=10.044000m/h.</desc>
<speed>2.790000</speed>
</trkpt>
<trkpt lat="55.994415" lon="26.539532">
<ele>99.840881</ele>
<time>2010-06-20T08:50:36Z</time>
<desc>lat.=55.994415, lon.=26.539532, Alt.=99.840881m. Speed=13.140000m/h.</desc>
<speed>3.650000</speed>
</trkpt>
<trkpt lat="55.994419" lon="26.539455">
<ele>100.213928</ele>
<time>2010-06-20T08:50:37Z</time>
<desc>lat.=55.994419, lon.=26.539455, Alt.=100.213928m. Speed=11.808000m/h.</desc>
<speed>3.280000</speed>
</trkpt>
<trkpt lat="55.994427" lon="26.539391">
<ele>100.256897</ele>
<time>2010-06-20T08:50:38Z</time>
<desc>lat.=55.994427, lon.=26.539391, Alt.=100.256897m. Speed=12.060000m/h.</desc>
<speed>3.350000</speed>
</trkpt>
<trkpt lat="55.994442" lon="26.539324">
<ele>100.163147</ele>
<time>2010-06-20T08:50:39Z</time>
<desc>lat.=55.994442, lon.=26.539324, Alt.=100.163147m. Speed=11.376000m/h.</desc>
<speed>3.160000</speed>
</trkpt>
<trkpt lat="55.994450" lon="26.539265">
<ele>100.460022</ele>
<time>2010-06-20T08:50:40Z</time>
<desc>lat.=55.994450, lon.=26.539265, Alt.=100.460022m. Speed=12.348000m/h.</desc>
<speed>3.430000</speed>
</trkpt>
<trkpt lat="55.994457" lon="26.539202">
<ele>100.653381</ele>
<time>2010-06-20T08:50:41Z</time>
<desc>lat.=55.994457, lon.=26.539202, Alt.=100.653381m. Speed=11.016000m/h.</desc>
<speed>3.060000</speed>
</trkpt>
<trkpt lat="55.994453" lon="26.539135">
<ele>100.739319</ele>
<time>2010-06-20T08:50:42Z</time>
<desc>lat.=55.994453, lon.=26.539135, Alt.=100.739319m. Speed=12.132000m/h.</desc>
<speed>3.370000</speed>
</trkpt>
<trkpt lat="55.994446" lon="26.539070">
<ele>100.678772</ele>
<time>2010-06-20T08:50:43Z</time>
<desc>lat.=55.994446, lon.=26.539070, Alt.=100.678772m. Speed=11.088000m/h.</desc>
<speed>3.080000</speed>
</trkpt>
<trkpt lat="55.994446" lon="26.539009">
<ele>101.493225</ele>
<time>2010-06-20T08:50:44Z</time>
<desc>lat.=55.994446, lon.=26.539009, Alt.=101.493225m. Speed=11.736000m/h.</desc>
<speed>3.260000</speed>
</trkpt>
<trkpt lat="55.994438" lon="26.538944">
<ele>101.301819</ele>
<time>2010-06-20T08:50:45Z</time>
<desc>lat.=55.994438, lon.=26.538944, Alt.=101.301819m. Speed=11.340000m/h.</desc>
<speed>3.150000</speed>
</trkpt>
<trkpt lat="55.994446" lon="26.538860">
<ele>99.790100</ele>
<time>2010-06-20T08:50:46Z</time>
<desc>lat.=55.994446, lon.=26.538860, Alt.=99.790100m. Speed=12.060000m/h.</desc>
<speed>3.350000</speed>
</trkpt>
<trkpt lat="55.994450" lon="26.538773">
<ele>97.764709</ele>
<time>2010-06-20T08:50:47Z</time>
<desc>lat.=55.994450, lon.=26.538773, Alt.=97.764709m. Speed=13.608000m/h.</desc>
<speed>3.780000</speed>
</trkpt>
<trkpt lat="55.994453" lon="26.538698">
<ele>98.157288</ele>
<time>2010-06-20T08:50:48Z</time>
<desc>lat.=55.994453, lon.=26.538698, Alt.=98.157288m. Speed=14.796000m/h.</desc>
<speed>4.110000</speed>
</trkpt>
<trkpt lat="55.994457" lon="26.538614">
<ele>99.692444</ele>
<time>2010-06-20T08:50:49Z</time>
<desc>lat.=55.994457, lon.=26.538614, Alt.=99.692444m. Speed=15.300000m/h.</desc>
<speed>4.250000</speed>
</trkpt>
<trkpt lat="55.994473" lon="26.538507">
<ele>100.057678</ele>
<time>2010-06-20T08:50:50Z</time>
<desc>lat.=55.994473, lon.=26.538507, Alt.=100.057678m. Speed=19.511999m/h.</desc>
<speed>5.420000</speed>
</trkpt>
<trkpt lat="55.994495" lon="26.538401">
<ele>99.741272</ele>
<time>2010-06-20T08:50:51Z</time>
<desc>lat.=55.994495, lon.=26.538401, Alt.=99.741272m. Speed=19.403999m/h.</desc>
<speed>5.390000</speed>
</trkpt>
<trkpt lat="55.994499" lon="26.538311">
<ele>99.934631</ele>
<time>2010-06-20T08:50:52Z</time>
<desc>lat.=55.994499, lon.=26.538311, Alt.=99.934631m. Speed=16.200001m/h.</desc>
<speed>4.500000</speed>
</trkpt>
<trkpt lat="55.994503" lon="26.538223">
<ele>100.616272</ele>
<time>2010-06-20T08:50:53Z</time>
<desc>lat.=55.994503, lon.=26.538223, Alt.=100.616272m. Speed=13.752000m/h.</desc>
<speed>3.820000</speed>
</trkpt>
<trkpt lat="55.994503" lon="26.538153">
<ele>101.108459</ele>
<time>2010-06-20T08:50:54Z</time>
<desc>lat.=55.994503, lon.=26.538153, Alt.=101.108459m. Speed=13.824000m/h.</desc>
<speed>3.840000</speed>
</trkpt>
<trkpt lat="55.994507" lon="26.538082">
<ele>101.499084</ele>
<time>2010-06-20T08:50:55Z</time>
<desc>lat.=55.994507, lon.=26.538082, Alt.=101.499084m. Speed=12.096000m/h.</desc>
<speed>3.360000</speed>
</trkpt>
<trkpt lat="55.994511" lon="26.538013">
<ele>101.823303</ele>
<time>2010-06-20T08:50:56Z</time>
<desc>lat.=55.994511, lon.=26.538013, Alt.=101.823303m. Speed=11.592000m/h.</desc>
<speed>3.220000</speed>
</trkpt>
<trkpt lat="55.994518" lon="26.537924">
<ele>100.780334</ele>
<time>2010-06-20T08:50:57Z</time>
<desc>lat.=55.994518, lon.=26.537924, Alt.=100.780334m. Speed=13.716000m/h.</desc>
<speed>3.810000</speed>
</trkpt>
<trkpt lat="55.994526" lon="26.537842">
<ele>101.102600</ele>
<time>2010-06-20T08:50:58Z</time>
<desc>lat.=55.994526, lon.=26.537842, Alt.=101.102600m. Speed=13.680000m/h.</desc>
<speed>3.800000</speed>
</trkpt>
<trkpt lat="55.994534" lon="26.537766">
<ele>101.004944</ele>
<time>2010-06-20T08:50:59Z</time>
<desc>lat.=55.994534, lon.=26.537766, Alt.=101.004944m. Speed=13.248000m/h.</desc>
<speed>3.680000</speed>
</trkpt>
<trkpt lat="55.994556" lon="26.537651">
<ele>102.319397</ele>
<time>2010-06-20T08:51:00Z</time>
<desc>lat.=55.994556, lon.=26.537651, Alt.=102.319397m. Speed=18.684000m/h.</desc>
<speed>5.190000</speed>
</trkpt>
<trkpt lat="55.994579" lon="26.537556">
<ele>103.186584</ele>
<time>2010-06-20T08:51:01Z</time>
<desc>lat.=55.994579, lon.=26.537556, Alt.=103.186584m. Speed=17.063999m/h.</desc>
<speed>4.740000</speed>
</trkpt>
<trkpt lat="55.994595" lon="26.537474">
<ele>102.352600</ele>
<time>2010-06-20T08:51:02Z</time>
<desc>lat.=55.994595, lon.=26.537474, Alt.=102.352600m. Speed=17.964001m/h.</desc>
<speed>4.990000</speed>
</trkpt>
<trkpt lat="55.994606" lon="26.537359">
<ele>102.038147</ele>
<time>2010-06-20T08:51:03Z</time>
<desc>lat.=55.994606, lon.=26.537359, Alt.=102.038147m. Speed=18.072001m/h.</desc>
<speed>5.020000</speed>
</trkpt>
<trkpt lat="55.994610" lon="26.537258">
<ele>100.647522</ele>
<time>2010-06-20T08:51:04Z</time>
<desc>lat.=55.994610, lon.=26.537258, Alt.=100.647522m. Speed=19.548000m/h.</desc>
<speed>5.430000</speed>
</trkpt>
<trkpt lat="55.994621" lon="26.537136">
<ele>98.034241</ele>
<time>2010-06-20T08:51:05Z</time>
<desc>lat.=55.994621, lon.=26.537136, Alt.=98.034241m. Speed=18.431999m/h.</desc>
<speed>5.120000</speed>
</trkpt>
<trkpt lat="55.994633" lon="26.537039">
<ele>98.670959</ele>
<time>2010-06-20T08:51:06Z</time>
<desc>lat.=55.994633, lon.=26.537039, Alt.=98.670959m. Speed=18.900000m/h.</desc>
<speed>5.250000</speed>
</trkpt>
<trkpt lat="55.994659" lon="26.536922">
<ele>99.397522</ele>
<time>2010-06-20T08:51:07Z</time>
<desc>lat.=55.994659, lon.=26.536922, Alt.=99.397522m. Speed=19.691999m/h.</desc>
<speed>5.470000</speed>
</trkpt>
<trkpt lat="55.994675" lon="26.536814">
<ele>97.862366</ele>
<time>2010-06-20T08:51:08Z</time>
<desc>lat.=55.994675, lon.=26.536814, Alt.=97.862366m. Speed=20.052000m/h.</desc>
<speed>5.570000</speed>
</trkpt>
<trkpt lat="55.994678" lon="26.536709">
<ele>97.786194</ele>
<time>2010-06-20T08:51:09Z</time>
<desc>lat.=55.994678, lon.=26.536709, Alt.=97.786194m. Speed=19.403999m/h.</desc>
<speed>5.390000</speed>
</trkpt>
<trkpt lat="55.994671" lon="26.536592">
<ele>96.208069</ele>
<time>2010-06-20T08:51:10Z</time>
<desc>lat.=55.994671, lon.=26.536592, Alt.=96.208069m. Speed=20.232000m/h.</desc>
<speed>5.620000</speed>
</trkpt>
<trkpt lat="55.994686" lon="26.536480">
<ele>96.286194</ele>
<time>2010-06-20T08:51:11Z</time>
<desc>lat.=55.994686, lon.=26.536480, Alt.=96.286194m. Speed=20.268000m/h.</desc>
<speed>5.630000</speed>
</trkpt>
<trkpt lat="55.994694" lon="26.536381">
<ele>94.176819</ele>
<time>2010-06-20T08:51:12Z</time>
<desc>lat.=55.994694, lon.=26.536381, Alt.=94.176819m. Speed=19.403999m/h.</desc>
<speed>5.390000</speed>
</trkpt>
<trkpt lat="55.994698" lon="26.536282">
<ele>92.907288</ele>
<time>2010-06-20T08:51:13Z</time>
<desc>lat.=55.994698, lon.=26.536282, Alt.=92.907288m. Speed=18.900000m/h.</desc>
<speed>5.250000</speed>
</trkpt>
<trkpt lat="55.994717" lon="26.536173">
<ele>94.094788</ele>
<time>2010-06-20T08:51:14Z</time>
<desc>lat.=55.994717, lon.=26.536173, Alt.=94.094788m. Speed=18.431999m/h.</desc>
<speed>5.120000</speed>
</trkpt>
<trkpt lat="55.994736" lon="26.536074">
<ele>95.336975</ele>
<time>2010-06-20T08:51:15Z</time>
<desc>lat.=55.994736, lon.=26.536074, Alt.=95.336975m. Speed=17.100000m/h.</desc>
<speed>4.750000</speed>
</trkpt>
<trkpt lat="55.994747" lon="26.535986">
<ele>95.936584</ele>
<time>2010-06-20T08:51:16Z</time>
<desc>lat.=55.994747, lon.=26.535986, Alt.=95.936584m. Speed=16.488001m/h.</desc>
<speed>4.580000</speed>
</trkpt>
<trkpt lat="55.994755" lon="26.535917">
<ele>95.674866</ele>
<time>2010-06-20T08:51:17Z</time>
<desc>lat.=55.994755, lon.=26.535917, Alt.=95.674866m. Speed=14.976000m/h.</desc>
<speed>4.160000</speed>
</trkpt>
<trkpt lat="55.994781" lon="26.535845">
<ele>95.999084</ele>
<time>2010-06-20T08:51:18Z</time>
<desc>lat.=55.994781, lon.=26.535845, Alt.=95.999084m. Speed=15.732000m/h.</desc>
<speed>4.370000</speed>
</trkpt>
<trkpt lat="55.994797" lon="26.535763">
<ele>96.743225</ele>
<time>2010-06-20T08:51:19Z</time>
<desc>lat.=55.994797, lon.=26.535763, Alt.=96.743225m. Speed=17.496000m/h.</desc>
<speed>4.860000</speed>
</trkpt>
<trkpt lat="55.994812" lon="26.535675">
<ele>97.973694</ele>
<time>2010-06-20T08:51:20Z</time>
<desc>lat.=55.994812, lon.=26.535675, Alt.=97.973694m. Speed=17.532000m/h.</desc>
<speed>4.870000</speed>
</trkpt>
<trkpt lat="55.994820" lon="26.535606">
<ele>98.586975</ele>
<time>2010-06-20T08:51:21Z</time>
<desc>lat.=55.994820, lon.=26.535606, Alt.=98.586975m. Speed=14.508000m/h.</desc>
<speed>4.030000</speed>
</trkpt>
<trkpt lat="55.994823" lon="26.535530">
<ele>98.467834</ele>
<time>2010-06-20T08:51:22Z</time>
<desc>lat.=55.994823, lon.=26.535530, Alt.=98.467834m. Speed=16.344000m/h.</desc>
<speed>4.540000</speed>
</trkpt>
<trkpt lat="55.994839" lon="26.535452">
<ele>99.008850</ele>
<time>2010-06-20T08:51:23Z</time>
<desc>lat.=55.994839, lon.=26.535452, Alt.=99.008850m. Speed=17.639999m/h.</desc>
<speed>4.900000</speed>
</trkpt>
<trkpt lat="55.994839" lon="26.535383">
<ele>99.206116</ele>
<time>2010-06-20T08:51:24Z</time>
<desc>lat.=55.994839, lon.=26.535383, Alt.=99.206116m. Speed=13.896000m/h.</desc>
<speed>3.860000</speed>
</trkpt>
<trkpt lat="55.994846" lon="26.535316">
<ele>99.829163</ele>
<time>2010-06-20T08:51:25Z</time>
<desc>lat.=55.994846, lon.=26.535316, Alt.=99.829163m. Speed=14.328000m/h.</desc>
<speed>3.980000</speed>
</trkpt>
<trkpt lat="55.994831" lon="26.535229">
<ele>98.669006</ele>
<time>2010-06-20T08:51:26Z</time>
<desc>lat.=55.994831, lon.=26.535229, Alt.=98.669006m. Speed=16.524000m/h.</desc>
<speed>4.590000</speed>
</trkpt>
<trkpt lat="55.994831" lon="26.535151">
<ele>99.309631</ele>
<time>2010-06-20T08:51:27Z</time>
<desc>lat.=55.994831, lon.=26.535151, Alt.=99.309631m. Speed=16.091999m/h.</desc>
<speed>4.470000</speed>
</trkpt>
<trkpt lat="55.994839" lon="26.535042">
<ele>96.770569</ele>
<time>2010-06-20T08:51:28Z</time>
<desc>lat.=55.994839, lon.=26.535042, Alt.=96.770569m. Speed=17.424000m/h.</desc>
<speed>4.840000</speed>
</trkpt>
<trkpt lat="55.994846" lon="26.534962">
<ele>96.729553</ele>
<time>2010-06-20T08:51:29Z</time>
<desc>lat.=55.994846, lon.=26.534962, Alt.=96.729553m. Speed=15.768000m/h.</desc>
<speed>4.380000</speed>
</trkpt>
<trkpt lat="55.994854" lon="26.534872">
<ele>95.360413</ele>
<time>2010-06-20T08:51:30Z</time>
<desc>lat.=55.994854, lon.=26.534872, Alt.=95.360413m. Speed=16.020000m/h.</desc>
<speed>4.450000</speed>
</trkpt>
<trkpt lat="55.994873" lon="26.534782">
<ele>94.669006</ele>
<time>2010-06-20T08:51:31Z</time>
<desc>lat.=55.994873, lon.=26.534782, Alt.=94.669006m. Speed=16.955999m/h.</desc>
<speed>4.710000</speed>
</trkpt>
<trkpt lat="55.994884" lon="26.534718">
<ele>95.704163</ele>
<time>2010-06-20T08:51:32Z</time>
<desc>lat.=55.994884, lon.=26.534718, Alt.=95.704163m. Speed=13.320000m/h.</desc>
<speed>3.700000</speed>
</trkpt>
<trkpt lat="55.994881" lon="26.534658">
<ele>96.452209</ele>
<time>2010-06-20T08:51:33Z</time>
<desc>lat.=55.994881, lon.=26.534658, Alt.=96.452209m. Speed=12.096000m/h.</desc>
<speed>3.360000</speed>
</trkpt>
<trkpt lat="55.994904" lon="26.534594">
<ele>97.856506</ele>
<time>2010-06-20T08:51:34Z</time>
<desc>lat.=55.994904, lon.=26.534594, Alt.=97.856506m. Speed=17.280001m/h.</desc>
<speed>4.800000</speed>
</trkpt>
<trkpt lat="55.994926" lon="26.534529">
<ele>98.682678</ele>
<time>2010-06-20T08:51:35Z</time>
<desc>lat.=55.994926, lon.=26.534529, Alt.=98.682678m. Speed=14.940000m/h.</desc>
<speed>4.150000</speed>
</trkpt>
<trkpt lat="55.994934" lon="26.534472">
<ele>99.540100</ele>
<time>2010-06-20T08:51:36Z</time>
<desc>lat.=55.994934, lon.=26.534472, Alt.=99.540100m. Speed=12.636000m/h.</desc>
<speed>3.510000</speed>
</trkpt>
<trkpt lat="55.994934" lon="26.534420">
<ele>100.049866</ele>
<time>2010-06-20T08:51:37Z</time>
<desc>lat.=55.994934, lon.=26.534420, Alt.=100.049866m. Speed=10.656000m/h.</desc>
<speed>2.960000</speed>
</trkpt>
<trkpt lat="55.994942" lon="26.534355">
<ele>100.407288</ele>
<time>2010-06-20T08:51:38Z</time>
<desc>lat.=55.994942, lon.=26.534355, Alt.=100.407288m. Speed=12.528000m/h.</desc>
<speed>3.480000</speed>
</trkpt>
<trkpt lat="55.994953" lon="26.534292">
<ele>100.870178</ele>
<time>2010-06-20T08:51:39Z</time>
<desc>lat.=55.994953, lon.=26.534292, Alt.=100.870178m. Speed=13.680000m/h.</desc>
<speed>3.800000</speed>
</trkpt>
<trkpt lat="55.994976" lon="26.534218">
<ele>101.977600</ele>
<time>2010-06-20T08:51:40Z</time>
<desc>lat.=55.994976, lon.=26.534218, Alt.=101.977600m. Speed=14.472000m/h.</desc>
<speed>4.020000</speed>
</trkpt>
<trkpt lat="55.994991" lon="26.534151">
<ele>102.506897</ele>
<time>2010-06-20T08:51:41Z</time>
<desc>lat.=55.994991, lon.=26.534151, Alt.=102.506897m. Speed=15.084000m/h.</desc>
<speed>4.190000</speed>
</trkpt>
<trkpt lat="55.994995" lon="26.534081">
<ele>102.770569</ele>
<time>2010-06-20T08:51:42Z</time>
<desc>lat.=55.994995, lon.=26.534081, Alt.=102.770569m. Speed=16.091999m/h.</desc>
<speed>4.470000</speed>
</trkpt>
<trkpt lat="55.994991" lon="26.534008">
<ele>103.879944</ele>
<time>2010-06-20T08:51:43Z</time>
<desc>lat.=55.994991, lon.=26.534008, Alt.=103.879944m. Speed=15.552000m/h.</desc>
<speed>4.320000</speed>
</trkpt>
<trkpt lat="55.995003" lon="26.533937">
<ele>104.829163</ele>
<time>2010-06-20T08:51:44Z</time>
<desc>lat.=55.995003, lon.=26.533937, Alt.=104.829163m. Speed=15.552000m/h.</desc>
<speed>4.320000</speed>
</trkpt>
<trkpt lat="55.995010" lon="26.533859">
<ele>104.294006</ele>
<time>2010-06-20T08:51:45Z</time>
<desc>lat.=55.995010, lon.=26.533859, Alt.=104.294006m. Speed=15.696000m/h.</desc>
<speed>4.360000</speed>
</trkpt>
<trkpt lat="55.995014" lon="26.533777">
<ele>104.215881</ele>
<time>2010-06-20T08:51:46Z</time>
<desc>lat.=55.995014, lon.=26.533777, Alt.=104.215881m. Speed=16.667999m/h.</desc>
<speed>4.630000</speed>
</trkpt>
<trkpt lat="55.995018" lon="26.533678">
<ele>101.372131</ele>
<time>2010-06-20T08:51:47Z</time>
<desc>lat.=55.995018, lon.=26.533678, Alt.=101.372131m. Speed=16.379999m/h.</desc>
<speed>4.550000</speed>
</trkpt>
<trkpt lat="55.995029" lon="26.533596">
<ele>101.155334</ele>
<time>2010-06-20T08:51:48Z</time>
<desc>lat.=55.995029, lon.=26.533596, Alt.=101.155334m. Speed=15.804000m/h.</desc>
<speed>4.390000</speed>
</trkpt>
<trkpt lat="55.995029" lon="26.533506">
<ele>100.297913</ele>
<time>2010-06-20T08:51:49Z</time>
<desc>lat.=55.995029, lon.=26.533506, Alt.=100.297913m. Speed=17.639999m/h.</desc>
<speed>4.900000</speed>
</trkpt>
<trkpt lat="55.995041" lon="26.533426">
<ele>99.993225</ele>
<time>2010-06-20T08:51:50Z</time>
<desc>lat.=55.995041, lon.=26.533426, Alt.=99.993225m. Speed=16.955999m/h.</desc>
<speed>4.710000</speed>
</trkpt>
<trkpt lat="55.995052" lon="26.533325">
<ele>98.079163</ele>
<time>2010-06-20T08:51:51Z</time>
<desc>lat.=55.995052, lon.=26.533325, Alt.=98.079163m. Speed=17.316000m/h.</desc>
<speed>4.810000</speed>
</trkpt>
<trkpt lat="55.995064" lon="26.533237">
<ele>97.163147</ele>
<time>2010-06-20T08:51:52Z</time>
<desc>lat.=55.995064, lon.=26.533237, Alt.=97.163147m. Speed=17.856001m/h.</desc>
<speed>4.960000</speed>
</trkpt>
<trkpt lat="55.995083" lon="26.533140">
<ele>96.797913</ele>
<time>2010-06-20T08:51:53Z</time>
<desc>lat.=55.995083, lon.=26.533140, Alt.=96.797913m. Speed=18.216000m/h.</desc>
<speed>5.060000</speed>
</trkpt>
<trkpt lat="55.995098" lon="26.533060">
<ele>96.590881</ele>
<time>2010-06-20T08:51:54Z</time>
<desc>lat.=55.995098, lon.=26.533060, Alt.=96.590881m. Speed=16.992001m/h.</desc>
<speed>4.720000</speed>
</trkpt>
<trkpt lat="55.995113" lon="26.532978">
<ele>96.811584</ele>
<time>2010-06-20T08:51:55Z</time>
<desc>lat.=55.995113, lon.=26.532978, Alt.=96.811584m. Speed=17.316000m/h.</desc>
<speed>4.810000</speed>
</trkpt>
<trkpt lat="55.995140" lon="26.532871">
<ele>97.887756</ele>
<time>2010-06-20T08:51:56Z</time>
<desc>lat.=55.995140, lon.=26.532871, Alt.=97.887756m. Speed=17.639999m/h.</desc>
<speed>4.900000</speed>
</trkpt>
<trkpt lat="55.995152" lon="26.532791">
<ele>98.163147</ele>
<time>2010-06-20T08:51:57Z</time>
<desc>lat.=55.995152, lon.=26.532791, Alt.=98.163147m. Speed=15.876000m/h.</desc>
<speed>4.410000</speed>
</trkpt>
<trkpt lat="55.995163" lon="26.532726">
<ele>98.053772</ele>
<time>2010-06-20T08:51:58Z</time>
<desc>lat.=55.995163, lon.=26.532726, Alt.=98.053772m. Speed=14.652000m/h.</desc>
<speed>4.070000</speed>
</trkpt>
<trkpt lat="55.995197" lon="26.532663">
<ele>99.284241</ele>
<time>2010-06-20T08:51:59Z</time>
<desc>lat.=55.995197, lon.=26.532663, Alt.=99.284241m. Speed=13.824000m/h.</desc>
<speed>3.840000</speed>
</trkpt>
<trkpt lat="55.995209" lon="26.532593">
<ele>100.104553</ele>
<time>2010-06-20T08:52:00Z</time>
<desc>lat.=55.995209, lon.=26.532593, Alt.=100.104553m. Speed=16.524000m/h.</desc>
<speed>4.590000</speed>
</trkpt>
<trkpt lat="55.995224" lon="26.532534">
<ele>101.034241</ele>
<time>2010-06-20T08:52:01Z</time>
<desc>lat.=55.995224, lon.=26.532534, Alt.=101.034241m. Speed=15.300000m/h.</desc>
<speed>4.250000</speed>
</trkpt>
<trkpt lat="55.995247" lon="26.532469">
<ele>101.583069</ele>
<time>2010-06-20T08:52:02Z</time>
<desc>lat.=55.995247, lon.=26.532469, Alt.=101.583069m. Speed=13.932000m/h.</desc>
<speed>3.870000</speed>
</trkpt>
<trkpt lat="55.995266" lon="26.532415">
<ele>103.129944</ele>
<time>2010-06-20T08:52:03Z</time>
<desc>lat.=55.995266, lon.=26.532415, Alt.=103.129944m. Speed=12.600000m/h.</desc>
<speed>3.500000</speed>
</trkpt>
<trkpt lat="55.995289" lon="26.532358">
<ele>104.297913</ele>
<time>2010-06-20T08:52:04Z</time>
<desc>lat.=55.995289, lon.=26.532358, Alt.=104.297913m. Speed=15.228000m/h.</desc>
<speed>4.230000</speed>
</trkpt>
<trkpt lat="55.995300" lon="26.532297">
<ele>104.948303</ele>
<time>2010-06-20T08:52:05Z</time>
<desc>lat.=55.995300, lon.=26.532297, Alt.=104.948303m. Speed=15.264000m/h.</desc>
<speed>4.240000</speed>
</trkpt>
<trkpt lat="55.995300" lon="26.532234">
<ele>104.911194</ele>
<time>2010-06-20T08:52:06Z</time>
<desc>lat.=55.995300, lon.=26.532234, Alt.=104.911194m. Speed=13.392000m/h.</desc>
<speed>3.720000</speed>
</trkpt>
<trkpt lat="55.995308" lon="26.532175">
<ele>104.606506</ele>
<time>2010-06-20T08:52:07Z</time>
<desc>lat.=55.995308, lon.=26.532175, Alt.=104.606506m. Speed=14.292000m/h.</desc>
<speed>3.970000</speed>
</trkpt>
<trkpt lat="55.995319" lon="26.532110">
<ele>104.428772</ele>
<time>2010-06-20T08:52:08Z</time>
<desc>lat.=55.995319, lon.=26.532110, Alt.=104.428772m. Speed=15.840000m/h.</desc>
<speed>4.400000</speed>
</trkpt>
<trkpt lat="55.995331" lon="26.532042">
<ele>103.506897</ele>
<time>2010-06-20T08:52:09Z</time>
<desc>lat.=55.995331, lon.=26.532042, Alt.=103.506897m. Speed=15.120000m/h.</desc>
<speed>4.200000</speed>
</trkpt>
<trkpt lat="55.995327" lon="26.531961">
<ele>100.674866</ele>
<time>2010-06-20T08:52:10Z</time>
<desc>lat.=55.995327, lon.=26.531961, Alt.=100.674866m. Speed=13.680000m/h.</desc>
<speed>3.800000</speed>
</trkpt>
<trkpt lat="55.995338" lon="26.531900">
<ele>100.819397</ele>
<time>2010-06-20T08:52:11Z</time>
<desc>lat.=55.995338, lon.=26.531900, Alt.=100.819397m. Speed=13.428000m/h.</desc>
<speed>3.730000</speed>
</trkpt>
<trkpt lat="55.995346" lon="26.531832">
<ele>100.669006</ele>
<time>2010-06-20T08:52:12Z</time>
<desc>lat.=55.995346, lon.=26.531832, Alt.=100.669006m. Speed=14.220000m/h.</desc>
<speed>3.950000</speed>
</trkpt>
<trkpt lat="55.995358" lon="26.531757">
<ele>99.469788</ele>
<time>2010-06-20T08:52:13Z</time>
<desc>lat.=55.995358, lon.=26.531757, Alt.=99.469788m. Speed=15.084000m/h.</desc>
<speed>4.190000</speed>
</trkpt>
<trkpt lat="55.995354" lon="26.531700">
<ele>98.809631</ele>
<time>2010-06-20T08:52:14Z</time>
<desc>lat.=55.995354, lon.=26.531700, Alt.=98.809631m. Speed=11.484000m/h.</desc>
<speed>3.190000</speed>
</trkpt>
<trkpt lat="55.995354" lon="26.531637">
<ele>98.586975</ele>
<time>2010-06-20T08:52:15Z</time>
<desc>lat.=55.995354, lon.=26.531637, Alt.=98.586975m. Speed=12.276000m/h.</desc>
<speed>3.410000</speed>
</trkpt>
<trkpt lat="55.995358" lon="26.531578">
<ele>98.653381</ele>
<time>2010-06-20T08:52:16Z</time>
<desc>lat.=55.995358, lon.=26.531578, Alt.=98.653381m. Speed=11.268000m/h.</desc>
<speed>3.130000</speed>
</trkpt>
<trkpt lat="55.995354" lon="26.531517">
<ele>99.614319</ele>
<time>2010-06-20T08:52:17Z</time>
<desc>lat.=55.995354, lon.=26.531517, Alt.=99.614319m. Speed=10.368000m/h.</desc>
<speed>2.880000</speed>
</trkpt>
<trkpt lat="55.995358" lon="26.531450">
<ele>99.354553</ele>
<time>2010-06-20T08:52:18Z</time>
<desc>lat.=55.995358, lon.=26.531450, Alt.=99.354553m. Speed=12.780000m/h.</desc>
<speed>3.550000</speed>
</trkpt>
<trkpt lat="55.995358" lon="26.531368">
<ele>96.627991</ele>
<time>2010-06-20T08:52:19Z</time>
<desc>lat.=55.995358, lon.=26.531368, Alt.=96.627991m. Speed=13.968000m/h.</desc>
<speed>3.880000</speed>
</trkpt>
<trkpt lat="55.995358" lon="26.531300">
<ele>98.471741</ele>
<time>2010-06-20T08:52:20Z</time>
<desc>lat.=55.995358, lon.=26.531300, Alt.=98.471741m. Speed=11.232000m/h.</desc>
<speed>3.120000</speed>
</trkpt>
<trkpt lat="55.995361" lon="26.531229">
<ele>98.924866</ele>
<time>2010-06-20T08:52:21Z</time>
<desc>lat.=55.995361, lon.=26.531229, Alt.=98.924866m. Speed=12.024000m/h.</desc>
<speed>3.340000</speed>
</trkpt>
<trkpt lat="55.995380" lon="26.531128">
<ele>98.848694</ele>
<time>2010-06-20T08:52:22Z</time>
<desc>lat.=55.995380, lon.=26.531128, Alt.=98.848694m. Speed=13.608000m/h.</desc>
<speed>3.780000</speed>
</trkpt>
<trkpt lat="55.995388" lon="26.531059">
<ele>98.364319</ele>
<time>2010-06-20T08:52:23Z</time>
<desc>lat.=55.995388, lon.=26.531059, Alt.=98.364319m. Speed=12.816000m/h.</desc>
<speed>3.560000</speed>
</trkpt>
<trkpt lat="55.995392" lon="26.531000">
<ele>98.983459</ele>
<time>2010-06-20T08:52:24Z</time>
<desc>lat.=55.995392, lon.=26.531000, Alt.=98.983459m. Speed=12.564000m/h.</desc>
<speed>3.490000</speed>
</trkpt>
<trkpt lat="55.995392" lon="26.530930">
<ele>98.971741</ele>
<time>2010-06-20T08:52:25Z</time>
<desc>lat.=55.995392, lon.=26.530930, Alt.=98.971741m. Speed=13.428000m/h.</desc>
<speed>3.730000</speed>
</trkpt>
<trkpt lat="55.995396" lon="26.530859">
<ele>97.346741</ele>
<time>2010-06-20T08:52:26Z</time>
<desc>lat.=55.995396, lon.=26.530859, Alt.=97.346741m. Speed=13.392000m/h.</desc>
<speed>3.720000</speed>
</trkpt>
<trkpt lat="55.995403" lon="26.530787">
<ele>97.489319</ele>
<time>2010-06-20T08:52:27Z</time>
<desc>lat.=55.995403, lon.=26.530787, Alt.=97.489319m. Speed=14.688000m/h.</desc>
<speed>4.080000</speed>
</trkpt>
<trkpt lat="55.995415" lon="26.530716">
<ele>96.567444</ele>
<time>2010-06-20T08:52:28Z</time>
<desc>lat.=55.995415, lon.=26.530716, Alt.=96.567444m. Speed=14.472000m/h.</desc>
<speed>4.020000</speed>
</trkpt>
<trkpt lat="55.995411" lon="26.530661">
<ele>95.604553</ele>
<time>2010-06-20T08:52:29Z</time>
<desc>lat.=55.995411, lon.=26.530661, Alt.=95.604553m. Speed=10.836000m/h.</desc>
<speed>3.010000</speed>
</trkpt>
<trkpt lat="55.995430" lon="26.530605">
<ele>94.403381</ele>
<time>2010-06-20T08:52:30Z</time>
<desc>lat.=55.995430, lon.=26.530605, Alt.=94.403381m. Speed=10.224000m/h.</desc>
<speed>2.840000</speed>
</trkpt>
<trkpt lat="55.995438" lon="26.530542">
<ele>94.217834</ele>
<time>2010-06-20T08:52:31Z</time>
<desc>lat.=55.995438, lon.=26.530542, Alt.=94.217834m. Speed=10.584000m/h.</desc>
<speed>2.940000</speed>
</trkpt>
<trkpt lat="55.995453" lon="26.530491">
<ele>94.288147</ele>
<time>2010-06-20T08:52:32Z</time>
<desc>lat.=55.995453, lon.=26.530491, Alt.=94.288147m. Speed=8.856000m/h.</desc>
<speed>2.460000</speed>
</trkpt>
<trkpt lat="55.995453" lon="26.530458">
<ele>93.907288</ele>
<time>2010-06-20T08:52:33Z</time>
<desc>lat.=55.995453, lon.=26.530458, Alt.=93.907288m. Speed=7.668000m/h.</desc>
<speed>2.130000</speed>
</trkpt>
<trkpt lat="55.995449" lon="26.530428">
<ele>94.071350</ele>
<time>2010-06-20T08:52:34Z</time>
<desc>lat.=55.995449, lon.=26.530428, Alt.=94.071350m. Speed=7.452000m/h.</desc>
<speed>2.070000</speed>
</trkpt>
<trkpt lat="55.995449" lon="26.530376">
<ele>94.045959</ele>
<time>2010-06-20T08:52:35Z</time>
<desc>lat.=55.995449, lon.=26.530376, Alt.=94.045959m. Speed=9.792000m/h.</desc>
<speed>2.720000</speed>
</trkpt>
<trkpt lat="55.995445" lon="26.530323">
<ele>94.348694</ele>
<time>2010-06-20T08:52:36Z</time>
<desc>lat.=55.995445, lon.=26.530323, Alt.=94.348694m. Speed=10.548000m/h.</desc>
<speed>2.930000</speed>
</trkpt>
<trkpt lat="55.995457" lon="26.530262">
<ele>94.040100</ele>
<time>2010-06-20T08:52:37Z</time>
<desc>lat.=55.995457, lon.=26.530262, Alt.=94.040100m. Speed=11.052000m/h.</desc>
<speed>3.070000</speed>
</trkpt>
<trkpt lat="55.995461" lon="26.530224">
<ele>93.754944</ele>
<time>2010-06-20T08:52:38Z</time>
<desc>lat.=55.995461, lon.=26.530224, Alt.=93.754944m. Speed=7.200000m/h.</desc>
<speed>2.000000</speed>
</trkpt>
<trkpt lat="55.995468" lon="26.530191">
<ele>93.795959</ele>
<time>2010-06-20T08:52:39Z</time>
<desc>lat.=55.995468, lon.=26.530191, Alt.=93.795959m. Speed=7.848000m/h.</desc>
<speed>2.180000</speed>
</trkpt>
<trkpt lat="55.995487" lon="26.530146">
<ele>94.729553</ele>
<time>2010-06-20T08:52:40Z</time>
<desc>lat.=55.995487, lon.=26.530146, Alt.=94.729553m. Speed=10.908000m/h.</desc>
<speed>3.030000</speed>
</trkpt>
<trkpt lat="55.995506" lon="26.530088">
<ele>95.174866</ele>
<time>2010-06-20T08:52:41Z</time>
<desc>lat.=55.995506, lon.=26.530088, Alt.=95.174866m. Speed=11.232000m/h.</desc>
<speed>3.120000</speed>
</trkpt>
<trkpt lat="55.995518" lon="26.530031">
<ele>95.526428</ele>
<time>2010-06-20T08:52:42Z</time>
<desc>lat.=55.995518, lon.=26.530031, Alt.=95.526428m. Speed=9.972000m/h.</desc>
<speed>2.770000</speed>
</trkpt>
<trkpt lat="55.995522" lon="26.529985">
<ele>96.559631</ele>
<time>2010-06-20T08:52:43Z</time>
<desc>lat.=55.995522, lon.=26.529985, Alt.=96.559631m. Speed=8.568000m/h.</desc>
<speed>2.380000</speed>
</trkpt>
<trkpt lat="55.995522" lon="26.529947">
<ele>97.434631</ele>
<time>2010-06-20T08:52:44Z</time>
<desc>lat.=55.995522, lon.=26.529947, Alt.=97.434631m. Speed=7.236000m/h.</desc>
<speed>2.010000</speed>
</trkpt>
<trkpt lat="55.995525" lon="26.529909">
<ele>98.223694</ele>
<time>2010-06-20T08:52:45Z</time>
<desc>lat.=55.995525, lon.=26.529909, Alt.=98.223694m. Speed=9.072000m/h.</desc>
<speed>2.520000</speed>
</trkpt>
<trkpt lat="55.995529" lon="26.529848">
<ele>98.807678</ele>
<time>2010-06-20T08:52:46Z</time>
<desc>lat.=55.995529, lon.=26.529848, Alt.=98.807678m. Speed=11.700000m/h.</desc>
<speed>3.250000</speed>
</trkpt>
<trkpt lat="55.995541" lon="26.529789">
<ele>98.653381</ele>
<time>2010-06-20T08:52:47Z</time>
<desc>lat.=55.995541, lon.=26.529789, Alt.=98.653381m. Speed=12.276000m/h.</desc>
<speed>3.410000</speed>
</trkpt>
<trkpt lat="55.995556" lon="26.529707">
<ele>98.692444</ele>
<time>2010-06-20T08:52:48Z</time>
<desc>lat.=55.995556, lon.=26.529707, Alt.=98.692444m. Speed=11.088000m/h.</desc>
<speed>3.080000</speed>
</trkpt>
<trkpt lat="55.995571" lon="26.529655">
<ele>98.501038</ele>
<time>2010-06-20T08:52:49Z</time>
<desc>lat.=55.995571, lon.=26.529655, Alt.=98.501038m. Speed=10.764000m/h.</desc>
<speed>2.990000</speed>
</trkpt>
<trkpt lat="55.995583" lon="26.529604">
<ele>97.823303</ele>
<time>2010-06-20T08:52:50Z</time>
<desc>lat.=55.995583, lon.=26.529604, Alt.=97.823303m. Speed=10.584000m/h.</desc>
<speed>2.940000</speed>
</trkpt>
<trkpt lat="55.995586" lon="26.529568">
<ele>97.782288</ele>
<time>2010-06-20T08:52:51Z</time>
<desc>lat.=55.995586, lon.=26.529568, Alt.=97.782288m. Speed=7.488000m/h.</desc>
<speed>2.080000</speed>
</trkpt>
<trkpt lat="55.995590" lon="26.529524">
<ele>95.815491</ele>
<time>2010-06-20T08:52:52Z</time>
<desc>lat.=55.995590, lon.=26.529524, Alt.=95.815491m. Speed=8.568000m/h.</desc>
<speed>2.380000</speed>
</trkpt>
<trkpt lat="55.995598" lon="26.529480">
<ele>96.245178</ele>
<time>2010-06-20T08:52:53Z</time>
<desc>lat.=55.995598, lon.=26.529480, Alt.=96.245178m. Speed=8.496000m/h.</desc>
<speed>2.360000</speed>
</trkpt>
<trkpt lat="55.995605" lon="26.529442">
<ele>96.661194</ele>
<time>2010-06-20T08:52:54Z</time>
<desc>lat.=55.995605, lon.=26.529442, Alt.=96.661194m. Speed=8.568000m/h.</desc>
<speed>2.380000</speed>
</trkpt>
<trkpt lat="55.995613" lon="26.529402">
<ele>97.342834</ele>
<time>2010-06-20T08:52:55Z</time>
<desc>lat.=55.995613, lon.=26.529402, Alt.=97.342834m. Speed=9.504000m/h.</desc>
<speed>2.640000</speed>
</trkpt>
<trkpt lat="55.995632" lon="26.529356">
<ele>97.657288</ele>
<time>2010-06-20T08:52:56Z</time>
<desc>lat.=55.995632, lon.=26.529356, Alt.=97.657288m. Speed=10.440000m/h.</desc>
<speed>2.900000</speed>
</trkpt>
<trkpt lat="55.995628" lon="26.529310">
<ele>97.579163</ele>
<time>2010-06-20T08:52:57Z</time>
<desc>lat.=55.995628, lon.=26.529310, Alt.=97.579163m. Speed=8.640000m/h.</desc>
<speed>2.400000</speed>
</trkpt>
<trkpt lat="55.995613" lon="26.529263">
<ele>97.854553</ele>
<time>2010-06-20T08:52:58Z</time>
<desc>lat.=55.995613, lon.=26.529263, Alt.=97.854553m. Speed=6.840000m/h.</desc>
<speed>1.900000</speed>
</trkpt>
<trkpt lat="55.995613" lon="26.529230">
<ele>97.598694</ele>
<time>2010-06-20T08:52:59Z</time>
<desc>lat.=55.995613, lon.=26.529230, Alt.=97.598694m. Speed=6.264000m/h.</desc>
<speed>1.740000</speed>
</trkpt>
<trkpt lat="55.995625" lon="26.529188">
<ele>97.792053</ele>
<time>2010-06-20T08:53:00Z</time>
<desc>lat.=55.995625, lon.=26.529188, Alt.=97.792053m. Speed=7.308000m/h.</desc>
<speed>2.030000</speed>
</trkpt>
<trkpt lat="55.995625" lon="26.529150">
<ele>97.803772</ele>
<time>2010-06-20T08:53:01Z</time>
<desc>lat.=55.995625, lon.=26.529150, Alt.=97.803772m. Speed=3.672000m/h.</desc>
<speed>1.020000</speed>
</trkpt>
<trkpt lat="55.995625" lon="26.529131">
<ele>98.518616</ele>
<time>2010-06-20T08:53:02Z</time>
<desc>lat.=55.995625, lon.=26.529131, Alt.=98.518616m. Speed=1.404000m/h.</desc>
<speed>0.390000</speed>
</trkpt>
<trkpt lat="55.995625" lon="26.529121">
<ele>99.174866</ele>
<time>2010-06-20T08:53:03Z</time>
<desc>lat.=55.995625, lon.=26.529121, Alt.=99.174866m. Speed=1.152000m/h.</desc>
<speed>0.320000</speed>
</trkpt>
<trkpt lat="55.995621" lon="26.529106">
<ele>100.460022</ele>
<time>2010-06-20T08:53:04Z</time>
<desc>lat.=55.995621, lon.=26.529106, Alt.=100.460022m. Speed=2.124000m/h.</desc>
<speed>0.590000</speed>
</trkpt>
<trkpt lat="55.995621" lon="26.529102">
<ele>100.946350</ele>
<time>2010-06-20T08:53:05Z</time>
<desc>lat.=55.995621, lon.=26.529102, Alt.=100.946350m. Speed=1.548000m/h.</desc>
<speed>0.430000</speed>
</trkpt>
<trkpt lat="55.995617" lon="26.529100">
<ele>101.069397</ele>
<time>2010-06-20T08:53:06Z</time>
<desc>lat.=55.995617, lon.=26.529100, Alt.=101.069397m. Speed=1.764000m/h.</desc>
<speed>0.490000</speed>
</trkpt>
<trkpt lat="55.995613" lon="26.529100">
<ele>101.188538</ele>
<time>2010-06-20T08:53:07Z</time>
<desc>lat.=55.995613, lon.=26.529100, Alt.=101.188538m. Speed=0.684000m/h.</desc>
<speed>0.190000</speed>
</trkpt>
<trkpt lat="55.995613" lon="26.529100">
<ele>101.305725</ele>
<time>2010-06-20T08:53:08Z</time>
<desc>lat.=55.995613, lon.=26.529100, Alt.=101.305725m. Speed=0.288000m/h.</desc>
<speed>0.080000</speed>
</trkpt>
<trkpt lat="55.995613" lon="26.529099">
<ele>101.397522</ele>
<time>2010-06-20T08:53:09Z</time>
<desc>lat.=55.995613, lon.=26.529099, Alt.=101.397522m. Speed=0.432000m/h.</desc>
<speed>0.120000</speed>
</trkpt>
<trkpt lat="55.995613" lon="26.529097">
<ele>101.477600</ele>
<time>2010-06-20T08:53:10Z</time>
<desc>lat.=55.995613, lon.=26.529097, Alt.=101.477600m. Speed=0.468000m/h.</desc>
<speed>0.130000</speed>
</trkpt>
<trkpt lat="55.995613" lon="26.529095">
<ele>101.534241</ele>
<time>2010-06-20T08:53:11Z</time>
<desc>lat.=55.995613, lon.=26.529095, Alt.=101.534241m. Speed=0.936000m/h.</desc>
<speed>0.260000</speed>
</trkpt>
<trkpt lat="55.995617" lon="26.529093">
<ele>101.575256</ele>
<time>2010-06-20T08:53:12Z</time>
<desc>lat.=55.995617, lon.=26.529093, Alt.=101.575256m. Speed=1.404000m/h.</desc>
<speed>0.390000</speed>
</trkpt>
<trkpt lat="55.995621" lon="26.529089">
<ele>101.608459</ele>
<time>2010-06-20T08:53:13Z</time>
<desc>lat.=55.995621, lon.=26.529089, Alt.=101.608459m. Speed=0.972000m/h.</desc>
<speed>0.270000</speed>
</trkpt>
<trkpt lat="55.995621" lon="26.529089">
<ele>101.637756</ele>
<time>2010-06-20T08:53:14Z</time>
<desc>lat.=55.995621, lon.=26.529089, Alt.=101.637756m. Speed=1.116000m/h.</desc>
<speed>0.310000</speed>
</trkpt>
<trkpt lat="55.995625" lon="26.529093">
<ele>101.669006</ele>
<time>2010-06-20T08:53:15Z</time>
<desc>lat.=55.995625, lon.=26.529093, Alt.=101.669006m. Speed=0.540000m/h.</desc>
<speed>0.150000</speed>
</trkpt>
<trkpt lat="55.995625" lon="26.529093">
<ele>101.696350</ele>
<time>2010-06-20T08:53:16Z</time>
<desc>lat.=55.995625, lon.=26.529093, Alt.=101.696350m. Speed=0.108000m/h.</desc>
<speed>0.030000</speed>
</trkpt>
<trkpt lat="55.995625" lon="26.529093">
<ele>101.715881</ele>
<time>2010-06-20T08:53:17Z</time>
<desc>lat.=55.995625, lon.=26.529093, Alt.=101.715881m. Speed=0.252000m/h.</desc>
<speed>0.070000</speed>
</trkpt>
<trkpt lat="55.995625" lon="26.529093">
<ele>101.733459</ele>
<time>2010-06-20T08:53:18Z</time>
<desc>lat.=55.995625, lon.=26.529093, Alt.=101.733459m. Speed=0.468000m/h.</desc>
<speed>0.130000</speed>
</trkpt>
<trkpt lat="55.995625" lon="26.529091">
<ele>101.747131</ele>
<time>2010-06-20T08:53:19Z</time>
<desc>lat.=55.995625, lon.=26.529091, Alt.=101.747131m. Speed=0.756000m/h.</desc>
<speed>0.210000</speed>
</trkpt>
<trkpt lat="55.995621" lon="26.529087">
<ele>101.758850</ele>
<time>2010-06-20T08:53:20Z</time>
<desc>lat.=55.995621, lon.=26.529087, Alt.=101.758850m. Speed=0.792000m/h.</desc>
<speed>0.220000</speed>
</trkpt>
<trkpt lat="55.995621" lon="26.529085">
<ele>101.768616</ele>
<time>2010-06-20T08:53:21Z</time>
<desc>lat.=55.995621, lon.=26.529085, Alt.=101.768616m. Speed=1.152000m/h.</desc>
<speed>0.320000</speed>
</trkpt>
<trkpt lat="55.995617" lon="26.529083">
<ele>101.774475</ele>
<time>2010-06-20T08:53:22Z</time>
<desc>lat.=55.995617, lon.=26.529083, Alt.=101.774475m. Speed=1.296000m/h.</desc>
<speed>0.360000</speed>
</trkpt>
<trkpt lat="55.995617" lon="26.529079">
<ele>101.782288</ele>
<time>2010-06-20T08:53:23Z</time>
<desc>lat.=55.995617, lon.=26.529079, Alt.=101.782288m. Speed=1.260000m/h.</desc>
<speed>0.350000</speed>
</trkpt>
<trkpt lat="55.995613" lon="26.529074">
<ele>101.790100</ele>
<time>2010-06-20T08:53:24Z</time>
<desc>lat.=55.995613, lon.=26.529074, Alt.=101.790100m. Speed=0.828000m/h.</desc>
<speed>0.230000</speed>
</trkpt>
<trkpt lat="55.995613" lon="26.529070">
<ele>101.794006</ele>
<time>2010-06-20T08:53:25Z</time>
<desc>lat.=55.995613, lon.=26.529070, Alt.=101.794006m. Speed=0.612000m/h.</desc>
<speed>0.170000</speed>
</trkpt>
<trkpt lat="55.995609" lon="26.529070">
<ele>101.799866</ele>
<time>2010-06-20T08:53:26Z</time>
<desc>lat.=55.995609, lon.=26.529070, Alt.=101.799866m. Speed=0.576000m/h.</desc>
<speed>0.160000</speed>
</trkpt>
<trkpt lat="55.995609" lon="26.529070">
<ele>101.797913</ele>
<time>2010-06-20T08:53:27Z</time>
<desc>lat.=55.995609, lon.=26.529070, Alt.=101.797913m. Speed=0.720000m/h.</desc>
<speed>0.200000</speed>
</trkpt>
<trkpt lat="55.995609" lon="26.529068">
<ele>101.801819</ele>
<time>2010-06-20T08:53:28Z</time>
<desc>lat.=55.995609, lon.=26.529068, Alt.=101.801819m. Speed=0.288000m/h.</desc>
<speed>0.080000</speed>
</trkpt>
<trkpt lat="55.995605" lon="26.529068">
<ele>101.797913</ele>
<time>2010-06-20T08:53:29Z</time>
<desc>lat.=55.995605, lon.=26.529068, Alt.=101.797913m. Speed=0.792000m/h.</desc>
<speed>0.220000</speed>
</trkpt>
<trkpt lat="55.995605" lon="26.529066">
<ele>101.788147</ele>
<time>2010-06-20T08:53:30Z</time>
<desc>lat.=55.995605, lon.=26.529066, Alt.=101.788147m. Speed=0.900000m/h.</desc>
<speed>0.250000</speed>
</trkpt>
<trkpt lat="55.995605" lon="26.529062">
<ele>101.778381</ele>
<time>2010-06-20T08:53:31Z</time>
<desc>lat.=55.995605, lon.=26.529062, Alt.=101.778381m. Speed=0.648000m/h.</desc>
<speed>0.180000</speed>
</trkpt>
<trkpt lat="55.995602" lon="26.529060">
<ele>101.764709</ele>
<time>2010-06-20T08:53:32Z</time>
<desc>lat.=55.995602, lon.=26.529060, Alt.=101.764709m. Speed=0.864000m/h.</desc>
<speed>0.240000</speed>
</trkpt>
<trkpt lat="55.995602" lon="26.529057">
<ele>101.754944</ele>
<time>2010-06-20T08:53:33Z</time>
<desc>lat.=55.995602, lon.=26.529057, Alt.=101.754944m. Speed=0.864000m/h.</desc>
<speed>0.240000</speed>
</trkpt>
<trkpt lat="55.995602" lon="26.529053">
<ele>101.749084</ele>
<time>2010-06-20T08:53:34Z</time>
<desc>lat.=55.995602, lon.=26.529053, Alt.=101.749084m. Speed=0.684000m/h.</desc>
<speed>0.190000</speed>
</trkpt>
<trkpt lat="55.995598" lon="26.529051">
<ele>101.739319</ele>
<time>2010-06-20T08:53:35Z</time>
<desc>lat.=55.995598, lon.=26.529051, Alt.=101.739319m. Speed=0.756000m/h.</desc>
<speed>0.210000</speed>
</trkpt>
<trkpt lat="55.995598" lon="26.529047">
<ele>101.729553</ele>
<time>2010-06-20T08:53:36Z</time>
<desc>lat.=55.995598, lon.=26.529047, Alt.=101.729553m. Speed=0.792000m/h.</desc>
<speed>0.220000</speed>
</trkpt>
<trkpt lat="55.995598" lon="26.529045">
<ele>101.723694</ele>
<time>2010-06-20T08:53:37Z</time>
<desc>lat.=55.995598, lon.=26.529045, Alt.=101.723694m. Speed=0.864000m/h.</desc>
<speed>0.240000</speed>
</trkpt>
<trkpt lat="55.995594" lon="26.529041">
<ele>101.719788</ele>
<time>2010-06-20T08:53:38Z</time>
<desc>lat.=55.995594, lon.=26.529041, Alt.=101.719788m. Speed=0.576000m/h.</desc>
<speed>0.160000</speed>
</trkpt>
<trkpt lat="55.995594" lon="26.529041">
<ele>101.723694</ele>
<time>2010-06-20T08:53:39Z</time>
<desc>lat.=55.995594, lon.=26.529041, Alt.=101.723694m. Speed=0.360000m/h.</desc>
<speed>0.100000</speed>
</trkpt>
<trkpt lat="55.995594" lon="26.529039">
<ele>101.729553</ele>
<time>2010-06-20T08:53:40Z</time>
<desc>lat.=55.995594, lon.=26.529039, Alt.=101.729553m. Speed=0.504000m/h.</desc>
<speed>0.140000</speed>
</trkpt>
<trkpt lat="55.995590" lon="26.529039">
<ele>101.729553</ele>
<time>2010-06-20T08:53:41Z</time>
<desc>lat.=55.995590, lon.=26.529039, Alt.=101.729553m. Speed=0.180000m/h.</desc>
<speed>0.050000</speed>
</trkpt>
<trkpt lat="55.995590" lon="26.529039">
<ele>101.731506</ele>
<time>2010-06-20T08:53:42Z</time>
<desc>lat.=55.995590, lon.=26.529039, Alt.=101.731506m. Speed=1.512000m/h.</desc>
<speed>0.420000</speed>
</trkpt>
<trkpt lat="55.995590" lon="26.529032">
<ele>101.737366</ele>
<time>2010-06-20T08:53:43Z</time>
<desc>lat.=55.995590, lon.=26.529032, Alt.=101.737366m. Speed=3.132000m/h.</desc>
<speed>0.870000</speed>
</trkpt>
<trkpt lat="55.995594" lon="26.529016">
<ele>101.770569</ele>
<time>2010-06-20T08:53:44Z</time>
<desc>lat.=55.995594, lon.=26.529016, Alt.=101.770569m. Speed=4.752000m/h.</desc>
<speed>1.320000</speed>
</trkpt>
<trkpt lat="55.995594" lon="26.528954">
<ele>102.350647</ele>
<time>2010-06-20T08:53:45Z</time>
<desc>lat.=55.995594, lon.=26.528954, Alt.=102.350647m. Speed=5.256000m/h.</desc>
<speed>1.460000</speed>
</trkpt>
<trkpt lat="55.995594" lon="26.528910">
<ele>102.627991</ele>
<time>2010-06-20T08:53:46Z</time>
<desc>lat.=55.995594, lon.=26.528910, Alt.=102.627991m. Speed=5.256000m/h.</desc>
<speed>1.460000</speed>
</trkpt>
<trkpt lat="55.995594" lon="26.528877">
<ele>103.331116</ele>
<time>2010-06-20T08:53:47Z</time>
<desc>lat.=55.995594, lon.=26.528877, Alt.=103.331116m. Speed=4.644000m/h.</desc>
<speed>1.290000</speed>
</trkpt>
<trkpt lat="55.995590" lon="26.528858">
<ele>103.389709</ele>
<time>2010-06-20T08:53:48Z</time>
<desc>lat.=55.995590, lon.=26.528858, Alt.=103.389709m. Speed=3.312000m/h.</desc>
<speed>0.920000</speed>
</trkpt>
<trkpt lat="55.995590" lon="26.528841">
<ele>103.270569</ele>
<time>2010-06-20T08:53:49Z</time>
<desc>lat.=55.995590, lon.=26.528841, Alt.=103.270569m. Speed=3.384000m/h.</desc>
<speed>0.940000</speed>
</trkpt>
<trkpt lat="55.995590" lon="26.528809">
<ele>102.975647</ele>
<time>2010-06-20T08:53:50Z</time>
<desc>lat.=55.995590, lon.=26.528809, Alt.=102.975647m. Speed=5.256000m/h.</desc>
<speed>1.460000</speed>
</trkpt>
<trkpt lat="55.995594" lon="26.528780">
<ele>103.299866</ele>
<time>2010-06-20T08:53:51Z</time>
<desc>lat.=55.995594, lon.=26.528780, Alt.=103.299866m. Speed=2.340000m/h.</desc>
<speed>0.650000</speed>
</trkpt>
<trkpt lat="55.995586" lon="26.528763">
<ele>103.258850</ele>
<time>2010-06-20T08:53:52Z</time>
<desc>lat.=55.995586, lon.=26.528763, Alt.=103.258850m. Speed=1.260000m/h.</desc>
<speed>0.350000</speed>
</trkpt>
<trkpt lat="55.995586" lon="26.528749">
<ele>103.342834</ele>
<time>2010-06-20T08:53:53Z</time>
<desc>lat.=55.995586, lon.=26.528749, Alt.=103.342834m. Speed=1.368000m/h.</desc>
<speed>0.380000</speed>
</trkpt>
<trkpt lat="55.995583" lon="26.528738">
<ele>103.430725</ele>
<time>2010-06-20T08:53:54Z</time>
<desc>lat.=55.995583, lon.=26.528738, Alt.=103.430725m. Speed=1.404000m/h.</desc>
<speed>0.390000</speed>
</trkpt>
<trkpt lat="55.995579" lon="26.528717">
<ele>103.612366</ele>
<time>2010-06-20T08:53:55Z</time>
<desc>lat.=55.995579, lon.=26.528717, Alt.=103.612366m. Speed=1.368000m/h.</desc>
<speed>0.380000</speed>
</trkpt>
<trkpt lat="55.995579" lon="26.528704">
<ele>103.686584</ele>
<time>2010-06-20T08:53:56Z</time>
<desc>lat.=55.995579, lon.=26.528704, Alt.=103.686584m. Speed=1.620000m/h.</desc>
<speed>0.450000</speed>
</trkpt>
<trkpt lat="55.995583" lon="26.528687">
<ele>103.669006</ele>
<time>2010-06-20T08:53:57Z</time>
<desc>lat.=55.995583, lon.=26.528687, Alt.=103.669006m. Speed=1.188000m/h.</desc>
<speed>0.330000</speed>
</trkpt>
<trkpt lat="55.995594" lon="26.528667">
<ele>103.432678</ele>
<time>2010-06-20T08:53:58Z</time>
<desc>lat.=55.995594, lon.=26.528667, Alt.=103.432678m. Speed=1.404000m/h.</desc>
<speed>0.390000</speed>
</trkpt>
<trkpt lat="55.995586" lon="26.528637">
<ele>103.065491</ele>
<time>2010-06-20T08:53:59Z</time>
<desc>lat.=55.995586, lon.=26.528637, Alt.=103.065491m. Speed=1.260000m/h.</desc>
<speed>0.350000</speed>
</trkpt>
<trkpt lat="55.995579" lon="26.528605">
<ele>102.897522</ele>
<time>2010-06-20T08:54:00Z</time>
<desc>lat.=55.995579, lon.=26.528605, Alt.=102.897522m. Speed=1.152000m/h.</desc>
<speed>0.320000</speed>
</trkpt>
<trkpt lat="55.995579" lon="26.528572">
<ele>102.895569</ele>
<time>2010-06-20T08:54:01Z</time>
<desc>lat.=55.995579, lon.=26.528572, Alt.=102.895569m. Speed=0.756000m/h.</desc>
<speed>0.210000</speed>
</trkpt>
<trkpt lat="55.995586" lon="26.528561">
<ele>102.997131</ele>
<time>2010-06-20T08:54:02Z</time>
<desc>lat.=55.995586, lon.=26.528561, Alt.=102.997131m. Speed=0.576000m/h.</desc>
<speed>0.160000</speed>
</trkpt>
<trkpt lat="55.995586" lon="26.528549">
<ele>103.145569</ele>
<time>2010-06-20T08:54:03Z</time>
<desc>lat.=55.995586, lon.=26.528549, Alt.=103.145569m. Speed=0.684000m/h.</desc>
<speed>0.190000</speed>
</trkpt>
<trkpt lat="55.995575" lon="26.528549">
<ele>102.749084</ele>
<time>2010-06-20T08:54:04Z</time>
<desc>lat.=55.995575, lon.=26.528549, Alt.=102.749084m. Speed=0.468000m/h.</desc>
<speed>0.130000</speed>
</trkpt>
<trkpt lat="55.995571" lon="26.528549">
<ele>102.762756</ele>
<time>2010-06-20T08:54:05Z</time>
<desc>lat.=55.995571, lon.=26.528549, Alt.=102.762756m. Speed=0.540000m/h.</desc>
<speed>0.150000</speed>
</trkpt>
<trkpt lat="55.995571" lon="26.528545">
<ele>102.780334</ele>
<time>2010-06-20T08:54:06Z</time>
<desc>lat.=55.995571, lon.=26.528545, Alt.=102.780334m. Speed=0.648000m/h.</desc>
<speed>0.180000</speed>
</trkpt>
<trkpt lat="55.995571" lon="26.528542">
<ele>102.790100</ele>
<time>2010-06-20T08:54:07Z</time>
<desc>lat.=55.995571, lon.=26.528542, Alt.=102.790100m. Speed=0.540000m/h.</desc>
<speed>0.150000</speed>
</trkpt>
<trkpt lat="55.995571" lon="26.528540">
<ele>102.803772</ele>
<time>2010-06-20T08:54:08Z</time>
<desc>lat.=55.995571, lon.=26.528540, Alt.=102.803772m. Speed=0.792000m/h.</desc>
<speed>0.220000</speed>
</trkpt>
<trkpt lat="55.995571" lon="26.528536">
<ele>102.823303</ele>
<time>2010-06-20T08:54:09Z</time>
<desc>lat.=55.995571, lon.=26.528536, Alt.=102.823303m. Speed=0.792000m/h.</desc>
<speed>0.220000</speed>
</trkpt>
<trkpt lat="55.995571" lon="26.528532">
<ele>102.844788</ele>
<time>2010-06-20T08:54:10Z</time>
<desc>lat.=55.995571, lon.=26.528532, Alt.=102.844788m. Speed=0.936000m/h.</desc>
<speed>0.260000</speed>
</trkpt>
<trkpt lat="55.995567" lon="26.528528">
<ele>102.870178</ele>
<time>2010-06-20T08:54:11Z</time>
<desc>lat.=55.995567, lon.=26.528528, Alt.=102.870178m. Speed=0.648000m/h.</desc>
<speed>0.180000</speed>
</trkpt>
<trkpt lat="55.995567" lon="26.528524">
<ele>102.893616</ele>
<time>2010-06-20T08:54:12Z</time>
<desc>lat.=55.995567, lon.=26.528524, Alt.=102.893616m. Speed=0.576000m/h.</desc>
<speed>0.160000</speed>
</trkpt>
<trkpt lat="55.995567" lon="26.528522">
<ele>102.917053</ele>
<time>2010-06-20T08:54:13Z</time>
<desc>lat.=55.995567, lon.=26.528522, Alt.=102.917053m. Speed=0.648000m/h.</desc>
<speed>0.180000</speed>
</trkpt>
<trkpt lat="55.995567" lon="26.528521">
<ele>102.938538</ele>
<time>2010-06-20T08:54:14Z</time>
<desc>lat.=55.995567, lon.=26.528521, Alt.=102.938538m. Speed=0.792000m/h.</desc>
<speed>0.220000</speed>
</trkpt>
<trkpt lat="55.995567" lon="26.528517">
<ele>102.952209</ele>
<time>2010-06-20T08:54:15Z</time>
<desc>lat.=55.995567, lon.=26.528517, Alt.=102.952209m. Speed=1.188000m/h.</desc>
<speed>0.330000</speed>
</trkpt>
<trkpt lat="55.995556" lon="26.528507">
<ele>102.836975</ele>
<time>2010-06-20T08:54:16Z</time>
<desc>lat.=55.995556, lon.=26.528507, Alt.=102.836975m. Speed=1.368000m/h.</desc>
<speed>0.380000</speed>
</trkpt>
<trkpt lat="55.995556" lon="26.528500">
<ele>102.877991</ele>
<time>2010-06-20T08:54:17Z</time>
<desc>lat.=55.995556, lon.=26.528500, Alt.=102.877991m. Speed=1.188000m/h.</desc>
<speed>0.330000</speed>
</trkpt>
<trkpt lat="55.995556" lon="26.528492">
<ele>102.766663</ele>
<time>2010-06-20T08:54:18Z</time>
<desc>lat.=55.995556, lon.=26.528492, Alt.=102.766663m. Speed=1.044000m/h.</desc>
<speed>0.290000</speed>
</trkpt>
<trkpt lat="55.995548" lon="26.528486">
<ele>102.756897</ele>
<time>2010-06-20T08:54:19Z</time>
<desc>lat.=55.995548, lon.=26.528486, Alt.=102.756897m. Speed=1.008000m/h.</desc>
<speed>0.280000</speed>
</trkpt>
<trkpt lat="55.995541" lon="26.528481">
<ele>102.903381</ele>
<time>2010-06-20T08:54:20Z</time>
<desc>lat.=55.995541, lon.=26.528481, Alt.=102.903381m. Speed=1.116000m/h.</desc>
<speed>0.310000</speed>
</trkpt>
<trkpt lat="55.995541" lon="26.528481">
<ele>103.102600</ele>
<time>2010-06-20T08:54:21Z</time>
<desc>lat.=55.995541, lon.=26.528481, Alt.=103.102600m. Speed=0.936000m/h.</desc>
<speed>0.260000</speed>
</trkpt>
<trkpt lat="55.995541" lon="26.528477">
<ele>103.157288</ele>
<time>2010-06-20T08:54:22Z</time>
<desc>lat.=55.995541, lon.=26.528477, Alt.=103.157288m. Speed=1.296000m/h.</desc>
<speed>0.360000</speed>
</trkpt>
<trkpt lat="55.995541" lon="26.528479">
<ele>103.245178</ele>
<time>2010-06-20T08:54:23Z</time>
<desc>lat.=55.995541, lon.=26.528479, Alt.=103.245178m. Speed=0.504000m/h.</desc>
<speed>0.140000</speed>
</trkpt>
<trkpt lat="55.995541" lon="26.528484">
<ele>103.303772</ele>
<time>2010-06-20T08:54:24Z</time>
<desc>lat.=55.995541, lon.=26.528484, Alt.=103.303772m. Speed=0.432000m/h.</desc>
<speed>0.120000</speed>
</trkpt>
<trkpt lat="55.995533" lon="26.528479">
<ele>103.288147</ele>
<time>2010-06-20T08:54:25Z</time>
<desc>lat.=55.995533, lon.=26.528479, Alt.=103.288147m. Speed=0.900000m/h.</desc>
<speed>0.250000</speed>
</trkpt>
<trkpt lat="55.995533" lon="26.528500">
<ele>102.899475</ele>
<time>2010-06-20T08:54:26Z</time>
<desc>lat.=55.995533, lon.=26.528500, Alt.=102.899475m. Speed=1.044000m/h.</desc>
<speed>0.290000</speed>
</trkpt>
<trkpt lat="55.995529" lon="26.528500">
<ele>102.919006</ele>
<time>2010-06-20T08:54:27Z</time>
<desc>lat.=55.995529, lon.=26.528500, Alt.=102.919006m. Speed=2.952000m/h.</desc>
<speed>0.820000</speed>
</trkpt>
<trkpt lat="55.995525" lon="26.528528">
<ele>102.723694</ele>
<time>2010-06-20T08:54:28Z</time>
<desc>lat.=55.995525, lon.=26.528528, Alt.=102.723694m. Speed=3.600000m/h.</desc>
<speed>1.000000</speed>
</trkpt>
<trkpt lat="55.995522" lon="26.528519">
<ele>102.901428</ele>
<time>2010-06-20T08:54:29Z</time>
<desc>lat.=55.995522, lon.=26.528519, Alt.=102.901428m. Speed=3.492000m/h.</desc>
<speed>0.970000</speed>
</trkpt>
<trkpt lat="55.995518" lon="26.528515">
<ele>103.147522</ele>
<time>2010-06-20T08:54:30Z</time>
<desc>lat.=55.995518, lon.=26.528515, Alt.=103.147522m. Speed=3.312000m/h.</desc>
<speed>0.920000</speed>
</trkpt>
<trkpt lat="55.995514" lon="26.528519">
<ele>103.149475</ele>
<time>2010-06-20T08:54:31Z</time>
<desc>lat.=55.995514, lon.=26.528519, Alt.=103.149475m. Speed=3.492000m/h.</desc>
<speed>0.970000</speed>
</trkpt>
<trkpt lat="55.995506" lon="26.528538">
<ele>104.489319</ele>
<time>2010-06-20T08:54:32Z</time>
<desc>lat.=55.995506, lon.=26.528538, Alt.=104.489319m. Speed=2.088000m/h.</desc>
<speed>0.580000</speed>
</trkpt>
<trkpt lat="55.995502" lon="26.528551">
<ele>104.686584</ele>
<time>2010-06-20T08:54:33Z</time>
<desc>lat.=55.995502, lon.=26.528551, Alt.=104.686584m. Speed=1.980000m/h.</desc>
<speed>0.550000</speed>
</trkpt>
<trkpt lat="55.995491" lon="26.528549">
<ele>105.585022</ele>
<time>2010-06-20T08:54:34Z</time>
<desc>lat.=55.995491, lon.=26.528549, Alt.=105.585022m. Speed=2.556000m/h.</desc>
<speed>0.710000</speed>
</trkpt>
<trkpt lat="55.995480" lon="26.528553">
<ele>106.141663</ele>
<time>2010-06-20T08:54:35Z</time>
<desc>lat.=55.995480, lon.=26.528553, Alt.=106.141663m. Speed=2.844000m/h.</desc>
<speed>0.790000</speed>
</trkpt>
<trkpt lat="55.995468" lon="26.528543">
<ele>106.270569</ele>
<time>2010-06-20T08:54:36Z</time>
<desc>lat.=55.995468, lon.=26.528543, Alt.=106.270569m. Speed=3.168000m/h.</desc>
<speed>0.880000</speed>
</trkpt>
<trkpt lat="55.995449" lon="26.528542">
<ele>106.614319</ele>
<time>2010-06-20T08:54:37Z</time>
<desc>lat.=55.995449, lon.=26.528542, Alt.=106.614319m. Speed=4.356000m/h.</desc>
<speed>1.210000</speed>
</trkpt>
<trkpt lat="55.995438" lon="26.528530">
<ele>106.836975</ele>
<time>2010-06-20T08:54:38Z</time>
<desc>lat.=55.995438, lon.=26.528530, Alt.=106.836975m. Speed=4.536000m/h.</desc>
<speed>1.260000</speed>
</trkpt>
<trkpt lat="55.995419" lon="26.528515">
<ele>107.081116</ele>
<time>2010-06-20T08:54:39Z</time>
<desc>lat.=55.995419, lon.=26.528515, Alt.=107.081116m. Speed=5.400000m/h.</desc>
<speed>1.500000</speed>
</trkpt>
<trkpt lat="55.995411" lon="26.528503">
<ele>107.169006</ele>
<time>2010-06-20T08:54:40Z</time>
<desc>lat.=55.995411, lon.=26.528503, Alt.=107.169006m. Speed=5.616000m/h.</desc>
<speed>1.560000</speed>
</trkpt>
<trkpt lat="55.995403" lon="26.528492">
<ele>107.399475</ele>
<time>2010-06-20T08:54:41Z</time>
<desc>lat.=55.995403, lon.=26.528492, Alt.=107.399475m. Speed=5.400000m/h.</desc>
<speed>1.500000</speed>
</trkpt>
<trkpt lat="55.995384" lon="26.528469">
<ele>107.618225</ele>
<time>2010-06-20T08:54:42Z</time>
<desc>lat.=55.995384, lon.=26.528469, Alt.=107.618225m. Speed=6.084000m/h.</desc>
<speed>1.690000</speed>
</trkpt>
<trkpt lat="55.995369" lon="26.528469">
<ele>107.659241</ele>
<time>2010-06-20T08:54:43Z</time>
<desc>lat.=55.995369, lon.=26.528469, Alt.=107.659241m. Speed=4.716000m/h.</desc>
<speed>1.310000</speed>
</trkpt>
<trkpt lat="55.995358" lon="26.528475">
<ele>107.526428</ele>
<time>2010-06-20T08:54:44Z</time>
<desc>lat.=55.995358, lon.=26.528475, Alt.=107.526428m. Speed=3.996000m/h.</desc>
<speed>1.110000</speed>
</trkpt>
<trkpt lat="55.995342" lon="26.528465">
<ele>107.663147</ele>
<time>2010-06-20T08:54:45Z</time>
<desc>lat.=55.995342, lon.=26.528465, Alt.=107.663147m. Speed=4.788000m/h.</desc>
<speed>1.330000</speed>
</trkpt>
<trkpt lat="55.995327" lon="26.528461">
<ele>107.719788</ele>
<time>2010-06-20T08:54:46Z</time>
<desc>lat.=55.995327, lon.=26.528461, Alt.=107.719788m. Speed=4.392000m/h.</desc>
<speed>1.220000</speed>
</trkpt>
<trkpt lat="55.995316" lon="26.528456">
<ele>107.819397</ele>
<time>2010-06-20T08:54:47Z</time>
<desc>lat.=55.995316, lon.=26.528456, Alt.=107.819397m. Speed=4.032000m/h.</desc>
<speed>1.120000</speed>
</trkpt>
<trkpt lat="55.995304" lon="26.528450">
<ele>107.930725</ele>
<time>2010-06-20T08:54:48Z</time>
<desc>lat.=55.995304, lon.=26.528450, Alt.=107.930725m. Speed=5.040000m/h.</desc>
<speed>1.400000</speed>
</trkpt>
<trkpt lat="55.995293" lon="26.528444">
<ele>107.866272</ele>
<time>2010-06-20T08:54:49Z</time>
<desc>lat.=55.995293, lon.=26.528444, Alt.=107.866272m. Speed=5.760000m/h.</desc>
<speed>1.600000</speed>
</trkpt>
<trkpt lat="55.995281" lon="26.528439">
<ele>108.010803</ele>
<time>2010-06-20T08:54:50Z</time>
<desc>lat.=55.995281, lon.=26.528439, Alt.=108.010803m. Speed=4.140000m/h.</desc>
<speed>1.150000</speed>
</trkpt>
<trkpt lat="55.995270" lon="26.528423">
<ele>107.917053</ele>
<time>2010-06-20T08:54:51Z</time>
<desc>lat.=55.995270, lon.=26.528423, Alt.=107.917053m. Speed=4.572000m/h.</desc>
<speed>1.270000</speed>
</trkpt>
<trkpt lat="55.995255" lon="26.528423">
<ele>108.461975</ele>
<time>2010-06-20T08:54:52Z</time>
<desc>lat.=55.995255, lon.=26.528423, Alt.=108.461975m. Speed=2.628000m/h.</desc>
<speed>0.730000</speed>
</trkpt>
<trkpt lat="55.995239" lon="26.528416">
<ele>108.665100</ele>
<time>2010-06-20T08:54:53Z</time>
<desc>lat.=55.995239, lon.=26.528416, Alt.=108.665100m. Speed=4.356000m/h.</desc>
<speed>1.210000</speed>
</trkpt>
<trkpt lat="55.995224" lon="26.528410">
<ele>108.819397</ele>
<time>2010-06-20T08:54:54Z</time>
<desc>lat.=55.995224, lon.=26.528410, Alt.=108.819397m. Speed=4.428000m/h.</desc>
<speed>1.230000</speed>
</trkpt>
<trkpt lat="55.995209" lon="26.528406">
<ele>108.963928</ele>
<time>2010-06-20T08:54:55Z</time>
<desc>lat.=55.995209, lon.=26.528406, Alt.=108.963928m. Speed=5.400000m/h.</desc>
<speed>1.500000</speed>
</trkpt>
<trkpt lat="55.995190" lon="26.528402">
<ele>109.127991</ele>
<time>2010-06-20T08:54:56Z</time>
<desc>lat.=55.995190, lon.=26.528402, Alt.=109.127991m. Speed=5.364000m/h.</desc>
<speed>1.490000</speed>
</trkpt>
<trkpt lat="55.995167" lon="26.528379">
<ele>109.213928</ele>
<time>2010-06-20T08:54:57Z</time>
<desc>lat.=55.995167, lon.=26.528379, Alt.=109.213928m. Speed=7.704000m/h.</desc>
<speed>2.140000</speed>
</trkpt>
<trkpt lat="55.995136" lon="26.528364">
<ele>109.182678</ele>
<time>2010-06-20T08:54:58Z</time>
<desc>lat.=55.995136, lon.=26.528364, Alt.=109.182678m. Speed=7.632000m/h.</desc>
<speed>2.120000</speed>
</trkpt>
<trkpt lat="55.995113" lon="26.528358">
<ele>109.086975</ele>
<time>2010-06-20T08:54:59Z</time>
<desc>lat.=55.995113, lon.=26.528358, Alt.=109.086975m. Speed=6.480000m/h.</desc>
<speed>1.800000</speed>
</trkpt>
<trkpt lat="55.995083" lon="26.528345">
<ele>109.014709</ele>
<time>2010-06-20T08:55:00Z</time>
<desc>lat.=55.995083, lon.=26.528345, Alt.=109.014709m. Speed=8.424000m/h.</desc>
<speed>2.340000</speed>
</trkpt>
<trkpt lat="55.995037" lon="26.528341">
<ele>108.805725</ele>
<time>2010-06-20T08:55:01Z</time>
<desc>lat.=55.995037, lon.=26.528341, Alt.=108.805725m. Speed=10.908000m/h.</desc>
<speed>3.030000</speed>
</trkpt>
<trkpt lat="55.995003" lon="26.528320">
<ele>108.502991</ele>
<time>2010-06-20T08:55:02Z</time>
<desc>lat.=55.995003, lon.=26.528320, Alt.=108.502991m. Speed=10.836000m/h.</desc>
<speed>3.010000</speed>
</trkpt>
<trkpt lat="55.994953" lon="26.528292">
<ele>108.393616</ele>
<time>2010-06-20T08:55:03Z</time>
<desc>lat.=55.994953, lon.=26.528292, Alt.=108.393616m. Speed=13.752000m/h.</desc>
<speed>3.820000</speed>
</trkpt>
<trkpt lat="55.994911" lon="26.528265">
<ele>108.262756</ele>
<time>2010-06-20T08:55:04Z</time>
<desc>lat.=55.994911, lon.=26.528265, Alt.=108.262756m. Speed=13.320000m/h.</desc>
<speed>3.700000</speed>
</trkpt>
<trkpt lat="55.994884" lon="26.528254">
<ele>108.417053</ele>
<time>2010-06-20T08:55:05Z</time>
<desc>lat.=55.994884, lon.=26.528254, Alt.=108.417053m. Speed=10.404000m/h.</desc>
<speed>2.890000</speed>
</trkpt>
<trkpt lat="55.994843" lon="26.528217">
<ele>107.981506</ele>
<time>2010-06-20T08:55:06Z</time>
<desc>lat.=55.994843, lon.=26.528217, Alt.=107.981506m. Speed=9.000000m/h.</desc>
<speed>2.500000</speed>
</trkpt>
<trkpt lat="55.994793" lon="26.528193">
<ele>107.124084</ele>
<time>2010-06-20T08:55:07Z</time>
<desc>lat.=55.994793, lon.=26.528193, Alt.=107.124084m. Speed=11.736000m/h.</desc>
<speed>3.260000</speed>
</trkpt>
<trkpt lat="55.994766" lon="26.528179">
<ele>107.085022</ele>
<time>2010-06-20T08:55:08Z</time>
<desc>lat.=55.994766, lon.=26.528179, Alt.=107.085022m. Speed=10.512000m/h.</desc>
<speed>2.920000</speed>
</trkpt>
<trkpt lat="55.994740" lon="26.528172">
<ele>107.044006</ele>
<time>2010-06-20T08:55:09Z</time>
<desc>lat.=55.994740, lon.=26.528172, Alt.=107.044006m. Speed=12.780000m/h.</desc>
<speed>3.550000</speed>
</trkpt>
<trkpt lat="55.994709" lon="26.528151">
<ele>106.706116</ele>
<time>2010-06-20T08:55:10Z</time>
<desc>lat.=55.994709, lon.=26.528151, Alt.=106.706116m. Speed=12.996000m/h.</desc>
<speed>3.610000</speed>
</trkpt>
<trkpt lat="55.994678" lon="26.528131">
<ele>106.436584</ele>
<time>2010-06-20T08:55:11Z</time>
<desc>lat.=55.994678, lon.=26.528131, Alt.=106.436584m. Speed=12.492000m/h.</desc>
<speed>3.470000</speed>
</trkpt>
<trkpt lat="55.994633" lon="26.528107">
<ele>106.047913</ele>
<time>2010-06-20T08:55:12Z</time>
<desc>lat.=55.994633, lon.=26.528107, Alt.=106.047913m. Speed=15.120000m/h.</desc>
<speed>4.200000</speed>
</trkpt>
<trkpt lat="55.994579" lon="26.528069">
<ele>105.616272</ele>
<time>2010-06-20T08:55:13Z</time>
<desc>lat.=55.994579, lon.=26.528069, Alt.=105.616272m. Speed=15.984000m/h.</desc>
<speed>4.440000</speed>
</trkpt>
<trkpt lat="55.994537" lon="26.528040">
<ele>105.446350</ele>
<time>2010-06-20T08:55:14Z</time>
<desc>lat.=55.994537, lon.=26.528040, Alt.=105.446350m. Speed=15.048000m/h.</desc>
<speed>4.180000</speed>
</trkpt>
<trkpt lat="55.994503" lon="26.528017">
<ele>105.280334</ele>
<time>2010-06-20T08:55:15Z</time>
<desc>lat.=55.994503, lon.=26.528017, Alt.=105.280334m. Speed=15.012000m/h.</desc>
<speed>4.170000</speed>
</trkpt>
<trkpt lat="55.994480" lon="26.527998">
<ele>105.247131</ele>
<time>2010-06-20T08:55:16Z</time>
<desc>lat.=55.994480, lon.=26.527998, Alt.=105.247131m. Speed=9.648000m/h.</desc>
<speed>2.680000</speed>
</trkpt>
<trkpt lat="55.994457" lon="26.527981">
<ele>105.577209</ele>
<time>2010-06-20T08:55:17Z</time>
<desc>lat.=55.994457, lon.=26.527981, Alt.=105.577209m. Speed=9.576000m/h.</desc>
<speed>2.660000</speed>
</trkpt>
<trkpt lat="55.994438" lon="26.527950">
<ele>105.563538</ele>
<time>2010-06-20T08:55:18Z</time>
<desc>lat.=55.994438, lon.=26.527950, Alt.=105.563538m. Speed=8.604000m/h.</desc>
<speed>2.390000</speed>
</trkpt>
<trkpt lat="55.994404" lon="26.527918">
<ele>105.284241</ele>
<time>2010-06-20T08:55:19Z</time>
<desc>lat.=55.994404, lon.=26.527918, Alt.=105.284241m. Speed=10.044000m/h.</desc>
<speed>2.790000</speed>
</trkpt>
<trkpt lat="55.994385" lon="26.527903">
<ele>105.456116</ele>
<time>2010-06-20T08:55:20Z</time>
<desc>lat.=55.994385, lon.=26.527903, Alt.=105.456116m. Speed=6.084000m/h.</desc>
<speed>1.690000</speed>
</trkpt>
<trkpt lat="55.994373" lon="26.527874">
<ele>105.739319</ele>
<time>2010-06-20T08:55:21Z</time>
<desc>lat.=55.994373, lon.=26.527874, Alt.=105.739319m. Speed=5.724000m/h.</desc>
<speed>1.590000</speed>
</trkpt>
<trkpt lat="55.994354" lon="26.527845">
<ele>106.182678</ele>
<time>2010-06-20T08:55:22Z</time>
<desc>lat.=55.994354, lon.=26.527845, Alt.=106.182678m. Speed=5.148000m/h.</desc>
<speed>1.430000</speed>
</trkpt>
<trkpt lat="55.994343" lon="26.527824">
<ele>106.922913</ele>
<time>2010-06-20T08:55:23Z</time>
<desc>lat.=55.994343, lon.=26.527824, Alt.=106.922913m. Speed=5.076000m/h.</desc>
<speed>1.410000</speed>
</trkpt>
<trkpt lat="55.994320" lon="26.527815">
<ele>107.420959</ele>
<time>2010-06-20T08:55:24Z</time>
<desc>lat.=55.994320, lon.=26.527815, Alt.=107.420959m. Speed=4.788000m/h.</desc>
<speed>1.330000</speed>
</trkpt>
<trkpt lat="55.994286" lon="26.527809">
<ele>107.987366</ele>
<time>2010-06-20T08:55:25Z</time>
<desc>lat.=55.994286, lon.=26.527809, Alt.=107.987366m. Speed=6.372000m/h.</desc>
<speed>1.770000</speed>
</trkpt>
<trkpt lat="55.994244" lon="26.527813">
<ele>108.194397</ele>
<time>2010-06-20T08:55:26Z</time>
<desc>lat.=55.994244, lon.=26.527813, Alt.=108.194397m. Speed=5.796000m/h.</desc>
<speed>1.610000</speed>
</trkpt>
<trkpt lat="55.994209" lon="26.527809">
<ele>108.770569</ele>
<time>2010-06-20T08:55:27Z</time>
<desc>lat.=55.994209, lon.=26.527809, Alt.=108.770569m. Speed=7.020000m/h.</desc>
<speed>1.950000</speed>
</trkpt>
<trkpt lat="55.994167" lon="26.527803">
<ele>108.764709</ele>
<time>2010-06-20T08:55:28Z</time>
<desc>lat.=55.994167, lon.=26.527803, Alt.=108.764709m. Speed=7.776000m/h.</desc>
<speed>2.160000</speed>
</trkpt>
<trkpt lat="55.994125" lon="26.527788">
<ele>109.071350</ele>
<time>2010-06-20T08:55:29Z</time>
<desc>lat.=55.994125, lon.=26.527788, Alt.=109.071350m. Speed=8.820000m/h.</desc>
<speed>2.450000</speed>
</trkpt>
<trkpt lat="55.994106" lon="26.527781">
<ele>109.254944</ele>
<time>2010-06-20T08:55:30Z</time>
<desc>lat.=55.994106, lon.=26.527781, Alt.=109.254944m. Speed=13.860000m/h.</desc>
<speed>3.850000</speed>
</trkpt>
<trkpt lat="55.994072" lon="26.527767">
<ele>109.129944</ele>
<time>2010-06-20T08:55:31Z</time>
<desc>lat.=55.994072, lon.=26.527767, Alt.=109.129944m. Speed=8.928000m/h.</desc>
<speed>2.480000</speed>
</trkpt>
<trkpt lat="55.994026" lon="26.527758">
<ele>109.600647</ele>
<time>2010-06-20T08:55:32Z</time>
<desc>lat.=55.994026, lon.=26.527758, Alt.=109.600647m. Speed=11.160000m/h.</desc>
<speed>3.100000</speed>
</trkpt>
<trkpt lat="55.993996" lon="26.527735">
<ele>109.969788</ele>
<time>2010-06-20T08:55:33Z</time>
<desc>lat.=55.993996, lon.=26.527735, Alt.=109.969788m. Speed=10.548000m/h.</desc>
<speed>2.930000</speed>
</trkpt>
<trkpt lat="55.993950" lon="26.527731">
<ele>110.094788</ele>
<time>2010-06-20T08:55:34Z</time>
<desc>lat.=55.993950, lon.=26.527731, Alt.=110.094788m. Speed=11.844000m/h.</desc>
<speed>3.290000</speed>
</trkpt>
<trkpt lat="55.993908" lon="26.527714">
<ele>110.276428</ele>
<time>2010-06-20T08:55:35Z</time>
<desc>lat.=55.993908, lon.=26.527714, Alt.=110.276428m. Speed=12.564000m/h.</desc>
<speed>3.490000</speed>
</trkpt>
<trkpt lat="55.993870" lon="26.527695">
<ele>110.461975</ele>
<time>2010-06-20T08:55:36Z</time>
<desc>lat.=55.993870, lon.=26.527695, Alt.=110.461975m. Speed=11.772000m/h.</desc>
<speed>3.270000</speed>
</trkpt>
<trkpt lat="55.993847" lon="26.527695">
<ele>110.096741</ele>
<time>2010-06-20T08:55:37Z</time>
<desc>lat.=55.993847, lon.=26.527695, Alt.=110.096741m. Speed=8.172000m/h.</desc>
<speed>2.270000</speed>
</trkpt>
<trkpt lat="55.993820" lon="26.527683">
<ele>110.036194</ele>
<time>2010-06-20T08:55:38Z</time>
<desc>lat.=55.993820, lon.=26.527683, Alt.=110.036194m. Speed=6.732000m/h.</desc>
<speed>1.870000</speed>
</trkpt>
<trkpt lat="55.993790" lon="26.527668">
<ele>110.516663</ele>
<time>2010-06-20T08:55:39Z</time>
<desc>lat.=55.993790, lon.=26.527668, Alt.=110.516663m. Speed=9.828000m/h.</desc>
<speed>2.730000</speed>
</trkpt>
<trkpt lat="55.993748" lon="26.527641">
<ele>110.665100</ele>
<time>2010-06-20T08:55:40Z</time>
<desc>lat.=55.993748, lon.=26.527641, Alt.=110.665100m. Speed=8.928000m/h.</desc>
<speed>2.480000</speed>
</trkpt>
<trkpt lat="55.993713" lon="26.527634">
<ele>110.870178</ele>
<time>2010-06-20T08:55:41Z</time>
<desc>lat.=55.993713, lon.=26.527634, Alt.=110.870178m. Speed=11.304000m/h.</desc>
<speed>3.140000</speed>
</trkpt>
<trkpt lat="55.993660" lon="26.527605">
<ele>109.815491</ele>
<time>2010-06-20T08:55:42Z</time>
<desc>lat.=55.993660, lon.=26.527605, Alt.=109.815491m. Speed=13.248000m/h.</desc>
<speed>3.680000</speed>
</trkpt>
<trkpt lat="55.993618" lon="26.527565">
<ele>109.585022</ele>
<time>2010-06-20T08:55:43Z</time>
<desc>lat.=55.993618, lon.=26.527565, Alt.=109.585022m. Speed=14.400000m/h.</desc>
<speed>4.000000</speed>
</trkpt>
<trkpt lat="55.993591" lon="26.527534">
<ele>110.157288</ele>
<time>2010-06-20T08:55:44Z</time>
<desc>lat.=55.993591, lon.=26.527534, Alt.=110.157288m. Speed=6.228000m/h.</desc>
<speed>1.730000</speed>
</trkpt>
<trkpt lat="55.993568" lon="26.527504">
<ele>110.647522</ele>
<time>2010-06-20T08:55:45Z</time>
<desc>lat.=55.993568, lon.=26.527504, Alt.=110.647522m. Speed=6.768000m/h.</desc>
<speed>1.880000</speed>
</trkpt>
<trkpt lat="55.993549" lon="26.527477">
<ele>111.264709</ele>
<time>2010-06-20T08:55:46Z</time>
<desc>lat.=55.993549, lon.=26.527477, Alt.=111.264709m. Speed=5.760000m/h.</desc>
<speed>1.600000</speed>
</trkpt>
<trkpt lat="55.993530" lon="26.527449">
<ele>111.993225</ele>
<time>2010-06-20T08:55:47Z</time>
<desc>lat.=55.993530, lon.=26.527449, Alt.=111.993225m. Speed=6.444000m/h.</desc>
<speed>1.790000</speed>
</trkpt>
<trkpt lat="55.993484" lon="26.527430">
<ele>112.391663</ele>
<time>2010-06-20T08:55:48Z</time>
<desc>lat.=55.993484, lon.=26.527430, Alt.=112.391663m. Speed=6.768000m/h.</desc>
<speed>1.880000</speed>
</trkpt>
<trkpt lat="55.993458" lon="26.527420">
<ele>112.692444</ele>
<time>2010-06-20T08:55:49Z</time>
<desc>lat.=55.993458, lon.=26.527420, Alt.=112.692444m. Speed=7.488000m/h.</desc>
<speed>2.080000</speed>
</trkpt>
<trkpt lat="55.993416" lon="26.527422">
<ele>112.981506</ele>
<time>2010-06-20T08:55:50Z</time>
<desc>lat.=55.993416, lon.=26.527422, Alt.=112.981506m. Speed=7.848000m/h.</desc>
<speed>2.180000</speed>
</trkpt>
<trkpt lat="55.993378" lon="26.527401">
<ele>111.680725</ele>
<time>2010-06-20T08:55:51Z</time>
<desc>lat.=55.993378, lon.=26.527401, Alt.=111.680725m. Speed=8.424000m/h.</desc>
<speed>2.340000</speed>
</trkpt>
<trkpt lat="55.993347" lon="26.527380">
<ele>111.458069</ele>
<time>2010-06-20T08:55:52Z</time>
<desc>lat.=55.993347, lon.=26.527380, Alt.=111.458069m. Speed=7.812000m/h.</desc>
<speed>2.170000</speed>
</trkpt>
<trkpt lat="55.993317" lon="26.527359">
<ele>111.672913</ele>
<time>2010-06-20T08:55:53Z</time>
<desc>lat.=55.993317, lon.=26.527359, Alt.=111.672913m. Speed=8.352000m/h.</desc>
<speed>2.320000</speed>
</trkpt>
<trkpt lat="55.993263" lon="26.527342">
<ele>110.764709</ele>
<time>2010-06-20T08:55:54Z</time>
<desc>lat.=55.993263, lon.=26.527342, Alt.=110.764709m. Speed=11.376000m/h.</desc>
<speed>3.160000</speed>
</trkpt>
<trkpt lat="55.993225" lon="26.527327">
<ele>110.458069</ele>
<time>2010-06-20T08:55:55Z</time>
<desc>lat.=55.993225, lon.=26.527327, Alt.=110.458069m. Speed=11.340000m/h.</desc>
<speed>3.150000</speed>
</trkpt>
<trkpt lat="55.993134" lon="26.527287">
<ele>107.460022</ele>
<time>2010-06-20T08:55:56Z</time>
<desc>lat.=55.993134, lon.=26.527287, Alt.=107.460022m. Speed=11.916000m/h.</desc>
<speed>3.310000</speed>
</trkpt>
<trkpt lat="55.993084" lon="26.527267">
<ele>106.397522</ele>
<time>2010-06-20T08:55:57Z</time>
<desc>lat.=55.993084, lon.=26.527267, Alt.=106.397522m. Speed=11.844000m/h.</desc>
<speed>3.290000</speed>
</trkpt>
<trkpt lat="55.993031" lon="26.527246">
<ele>104.579163</ele>
<time>2010-06-20T08:55:58Z</time>
<desc>lat.=55.993031, lon.=26.527246, Alt.=104.579163m. Speed=11.844000m/h.</desc>
<speed>3.290000</speed>
</trkpt>
<trkpt lat="55.993004" lon="26.527225">
<ele>104.545959</ele>
<time>2010-06-20T08:55:59Z</time>
<desc>lat.=55.993004, lon.=26.527225, Alt.=104.545959m. Speed=11.952000m/h.</desc>
<speed>3.320000</speed>
</trkpt>
<trkpt lat="55.992970" lon="26.527195">
<ele>105.172913</ele>
<time>2010-06-20T08:56:00Z</time>
<desc>lat.=55.992970, lon.=26.527195, Alt.=105.172913m. Speed=12.312000m/h.</desc>
<speed>3.420000</speed>
</trkpt>
<trkpt lat="55.992943" lon="26.527180">
<ele>105.055725</ele>
<time>2010-06-20T08:56:01Z</time>
<desc>lat.=55.992943, lon.=26.527180, Alt.=105.055725m. Speed=9.108000m/h.</desc>
<speed>2.530000</speed>
</trkpt>
<trkpt lat="55.992924" lon="26.527164">
<ele>104.827209</ele>
<time>2010-06-20T08:56:02Z</time>
<desc>lat.=55.992924, lon.=26.527164, Alt.=104.827209m. Speed=6.336000m/h.</desc>
<speed>1.760000</speed>
</trkpt>
<trkpt lat="55.992908" lon="26.527153">
<ele>104.870178</ele>
<time>2010-06-20T08:56:03Z</time>
<desc>lat.=55.992908, lon.=26.527153, Alt.=104.870178m. Speed=7.128000m/h.</desc>
<speed>1.980000</speed>
</trkpt>
<trkpt lat="55.992893" lon="26.527138">
<ele>105.040100</ele>
<time>2010-06-20T08:56:04Z</time>
<desc>lat.=55.992893, lon.=26.527138, Alt.=105.040100m. Speed=4.176000m/h.</desc>
<speed>1.160000</speed>
</trkpt>
<trkpt lat="55.992874" lon="26.527117">
<ele>106.567444</ele>
<time>2010-06-20T08:56:05Z</time>
<desc>lat.=55.992874, lon.=26.527117, Alt.=106.567444m. Speed=6.048000m/h.</desc>
<speed>1.680000</speed>
</trkpt>
<trkpt lat="55.992851" lon="26.527102">
<ele>107.788147</ele>
<time>2010-06-20T08:56:06Z</time>
<desc>lat.=55.992851, lon.=26.527102, Alt.=107.788147m. Speed=7.452000m/h.</desc>
<speed>2.070000</speed>
</trkpt>
<trkpt lat="55.992832" lon="26.527090">
<ele>108.081116</ele>
<time>2010-06-20T08:56:07Z</time>
<desc>lat.=55.992832, lon.=26.527090, Alt.=108.081116m. Speed=6.084000m/h.</desc>
<speed>1.690000</speed>
</trkpt>
<trkpt lat="55.992813" lon="26.527071">
<ele>108.172913</ele>
<time>2010-06-20T08:56:08Z</time>
<desc>lat.=55.992813, lon.=26.527071, Alt.=108.172913m. Speed=6.048000m/h.</desc>
<speed>1.680000</speed>
</trkpt>
<trkpt lat="55.992790" lon="26.527052">
<ele>108.034241</ele>
<time>2010-06-20T08:56:09Z</time>
<desc>lat.=55.992790, lon.=26.527052, Alt.=108.034241m. Speed=7.200000m/h.</desc>
<speed>2.000000</speed>
</trkpt>
<trkpt lat="55.992764" lon="26.527040">
<ele>107.946350</ele>
<time>2010-06-20T08:56:10Z</time>
<desc>lat.=55.992764, lon.=26.527040, Alt.=107.946350m. Speed=8.028000m/h.</desc>
<speed>2.230000</speed>
</trkpt>
<trkpt lat="55.992741" lon="26.527029">
<ele>107.370178</ele>
<time>2010-06-20T08:56:11Z</time>
<desc>lat.=55.992741, lon.=26.527029, Alt.=107.370178m. Speed=5.904000m/h.</desc>
<speed>1.640000</speed>
</trkpt>
<trkpt lat="55.992722" lon="26.527020">
<ele>106.743225</ele>
<time>2010-06-20T08:56:12Z</time>
<desc>lat.=55.992722, lon.=26.527020, Alt.=106.743225m. Speed=5.256000m/h.</desc>
<speed>1.460000</speed>
</trkpt>
<trkpt lat="55.992702" lon="26.527014">
<ele>106.079163</ele>
<time>2010-06-20T08:56:13Z</time>
<desc>lat.=55.992702, lon.=26.527014, Alt.=106.079163m. Speed=3.672000m/h.</desc>
<speed>1.020000</speed>
</trkpt>
<trkpt lat="55.992680" lon="26.527010">
<ele>105.563538</ele>
<time>2010-06-20T08:56:14Z</time>
<desc>lat.=55.992680, lon.=26.527010, Alt.=105.563538m. Speed=4.248000m/h.</desc>
<speed>1.180000</speed>
</trkpt>
<trkpt lat="55.992661" lon="26.526993">
<ele>104.278381</ele>
<time>2010-06-20T08:56:15Z</time>
<desc>lat.=55.992661, lon.=26.526993, Alt.=104.278381m. Speed=4.716000m/h.</desc>
<speed>1.310000</speed>
</trkpt>
<trkpt lat="55.992645" lon="26.526981">
<ele>103.780334</ele>
<time>2010-06-20T08:56:16Z</time>
<desc>lat.=55.992645, lon.=26.526981, Alt.=103.780334m. Speed=3.888000m/h.</desc>
<speed>1.080000</speed>
</trkpt>
<trkpt lat="55.992630" lon="26.526966">
<ele>103.788147</ele>
<time>2010-06-20T08:56:17Z</time>
<desc>lat.=55.992630, lon.=26.526966, Alt.=103.788147m. Speed=6.696000m/h.</desc>
<speed>1.860000</speed>
</trkpt>
<trkpt lat="55.992607" lon="26.526943">
<ele>103.844788</ele>
<time>2010-06-20T08:56:18Z</time>
<desc>lat.=55.992607, lon.=26.526943, Alt.=103.844788m. Speed=9.072000m/h.</desc>
<speed>2.520000</speed>
</trkpt>
<trkpt lat="55.992573" lon="26.526932">
<ele>103.676819</ele>
<time>2010-06-20T08:56:19Z</time>
<desc>lat.=55.992573, lon.=26.526932, Alt.=103.676819m. Speed=9.072000m/h.</desc>
<speed>2.520000</speed>
</trkpt>
<trkpt lat="55.992554" lon="26.526917">
<ele>103.872131</ele>
<time>2010-06-20T08:56:20Z</time>
<desc>lat.=55.992554, lon.=26.526917, Alt.=103.872131m. Speed=8.064000m/h.</desc>
<speed>2.240000</speed>
</trkpt>
<trkpt lat="55.992527" lon="26.526896">
<ele>104.307678</ele>
<time>2010-06-20T08:56:21Z</time>
<desc>lat.=55.992527, lon.=26.526896, Alt.=104.307678m. Speed=8.856000m/h.</desc>
<speed>2.460000</speed>
</trkpt>
<trkpt lat="55.992489" lon="26.526878">
<ele>104.780334</ele>
<time>2010-06-20T08:56:22Z</time>
<desc>lat.=55.992489, lon.=26.526878, Alt.=104.780334m. Speed=10.224000m/h.</desc>
<speed>2.840000</speed>
</trkpt>
<trkpt lat="55.992458" lon="26.526855">
<ele>105.001038</ele>
<time>2010-06-20T08:56:23Z</time>
<desc>lat.=55.992458, lon.=26.526855, Alt.=105.001038m. Speed=9.504000m/h.</desc>
<speed>2.640000</speed>
</trkpt>
<trkpt lat="55.992439" lon="26.526821">
<ele>105.202209</ele>
<time>2010-06-20T08:56:24Z</time>
<desc>lat.=55.992439, lon.=26.526821, Alt.=105.202209m. Speed=7.272000m/h.</desc>
<speed>2.020000</speed>
</trkpt>
<trkpt lat="55.992401" lon="26.526812">
<ele>105.422913</ele>
<time>2010-06-20T08:56:25Z</time>
<desc>lat.=55.992401, lon.=26.526812, Alt.=105.422913m. Speed=7.236000m/h.</desc>
<speed>2.010000</speed>
</trkpt>
<trkpt lat="55.992378" lon="26.526796">
<ele>105.354553</ele>
<time>2010-06-20T08:56:26Z</time>
<desc>lat.=55.992378, lon.=26.526796, Alt.=105.354553m. Speed=7.020000m/h.</desc>
<speed>1.950000</speed>
</trkpt>
<trkpt lat="55.992348" lon="26.526770">
<ele>105.542053</ele>
<time>2010-06-20T08:56:27Z</time>
<desc>lat.=55.992348, lon.=26.526770, Alt.=105.542053m. Speed=6.372000m/h.</desc>
<speed>1.770000</speed>
</trkpt>
<trkpt lat="55.992329" lon="26.526743">
<ele>105.788147</ele>
<time>2010-06-20T08:56:28Z</time>
<desc>lat.=55.992329, lon.=26.526743, Alt.=105.788147m. Speed=5.220000m/h.</desc>
<speed>1.450000</speed>
</trkpt>
<trkpt lat="55.992313" lon="26.526730">
<ele>106.317444</ele>
<time>2010-06-20T08:56:29Z</time>
<desc>lat.=55.992313, lon.=26.526730, Alt.=106.317444m. Speed=5.148000m/h.</desc>
<speed>1.430000</speed>
</trkpt>
<trkpt lat="55.992294" lon="26.526712">
<ele>106.680725</ele>
<time>2010-06-20T08:56:30Z</time>
<desc>lat.=55.992294, lon.=26.526712, Alt.=106.680725m. Speed=5.004000m/h.</desc>
<speed>1.390000</speed>
</trkpt>
<trkpt lat="55.992256" lon="26.526701">
<ele>106.870178</ele>
<time>2010-06-20T08:56:31Z</time>
<desc>lat.=55.992256, lon.=26.526701, Alt.=106.870178m. Speed=7.920000m/h.</desc>
<speed>2.200000</speed>
</trkpt>
<trkpt lat="55.992229" lon="26.526686">
<ele>107.254944</ele>
<time>2010-06-20T08:56:32Z</time>
<desc>lat.=55.992229, lon.=26.526686, Alt.=107.254944m. Speed=7.740000m/h.</desc>
<speed>2.150000</speed>
</trkpt>
<trkpt lat="55.992191" lon="26.526665">
<ele>107.262756</ele>
<time>2010-06-20T08:56:33Z</time>
<desc>lat.=55.992191, lon.=26.526665, Alt.=107.262756m. Speed=9.648000m/h.</desc>
<speed>2.680000</speed>
</trkpt>
<trkpt lat="55.992165" lon="26.526642">
<ele>107.294006</ele>
<time>2010-06-20T08:56:34Z</time>
<desc>lat.=55.992165, lon.=26.526642, Alt.=107.294006m. Speed=9.108000m/h.</desc>
<speed>2.530000</speed>
</trkpt>
<trkpt lat="55.992126" lon="26.526617">
<ele>107.252991</ele>
<time>2010-06-20T08:56:35Z</time>
<desc>lat.=55.992126, lon.=26.526617, Alt.=107.252991m. Speed=7.668000m/h.</desc>
<speed>2.130000</speed>
</trkpt>
<trkpt lat="55.992104" lon="26.526598">
<ele>107.407288</ele>
<time>2010-06-20T08:56:36Z</time>
<desc>lat.=55.992104, lon.=26.526598, Alt.=107.407288m. Speed=7.200000m/h.</desc>
<speed>2.000000</speed>
</trkpt>
<trkpt lat="55.992069" lon="26.526573">
<ele>107.409241</ele>
<time>2010-06-20T08:56:37Z</time>
<desc>lat.=55.992069, lon.=26.526573, Alt.=107.409241m. Speed=7.560000m/h.</desc>
<speed>2.100000</speed>
</trkpt>
<trkpt lat="55.992043" lon="26.526556">
<ele>107.745178</ele>
<time>2010-06-20T08:56:38Z</time>
<desc>lat.=55.992043, lon.=26.526556, Alt.=107.745178m. Speed=8.244000m/h.</desc>
<speed>2.290000</speed>
</trkpt>
<trkpt lat="55.992008" lon="26.526531">
<ele>107.708069</ele>
<time>2010-06-20T08:56:39Z</time>
<desc>lat.=55.992008, lon.=26.526531, Alt.=107.708069m. Speed=9.828000m/h.</desc>
<speed>2.730000</speed>
</trkpt>
<trkpt lat="55.991978" lon="26.526518">
<ele>108.106506</ele>
<time>2010-06-20T08:56:40Z</time>
<desc>lat.=55.991978, lon.=26.526518, Alt.=108.106506m. Speed=10.656000m/h.</desc>
<speed>2.960000</speed>
</trkpt>
<trkpt lat="55.991940" lon="26.526512">
<ele>107.077209</ele>
<time>2010-06-20T08:56:41Z</time>
<desc>lat.=55.991940, lon.=26.526512, Alt.=107.077209m. Speed=11.160000m/h.</desc>
<speed>3.100000</speed>
</trkpt>
<trkpt lat="55.991909" lon="26.526478">
<ele>107.266663</ele>
<time>2010-06-20T08:56:42Z</time>
<desc>lat.=55.991909, lon.=26.526478, Alt.=107.266663m. Speed=9.540000m/h.</desc>
<speed>2.650000</speed>
</trkpt>
<trkpt lat="55.991886" lon="26.526451">
<ele>107.502991</ele>
<time>2010-06-20T08:56:43Z</time>
<desc>lat.=55.991886, lon.=26.526451, Alt.=107.502991m. Speed=8.784000m/h.</desc>
<speed>2.440000</speed>
</trkpt>
<trkpt lat="55.991859" lon="26.526413">
<ele>107.379944</ele>
<time>2010-06-20T08:56:44Z</time>
<desc>lat.=55.991859, lon.=26.526413, Alt.=107.379944m. Speed=10.476000m/h.</desc>
<speed>2.910000</speed>
</trkpt>
<trkpt lat="55.991829" lon="26.526392">
<ele>107.672913</ele>
<time>2010-06-20T08:56:45Z</time>
<desc>lat.=55.991829, lon.=26.526392, Alt.=107.672913m. Speed=9.324000m/h.</desc>
<speed>2.590000</speed>
</trkpt>
<trkpt lat="55.991817" lon="26.526339">
<ele>109.120178</ele>
<time>2010-06-20T08:56:46Z</time>
<desc>lat.=55.991817, lon.=26.526339, Alt.=109.120178m. Speed=8.784000m/h.</desc>
<speed>2.440000</speed>
</trkpt>
<trkpt lat="55.991791" lon="26.526323">
<ele>109.581116</ele>
<time>2010-06-20T08:56:47Z</time>
<desc>lat.=55.991791, lon.=26.526323, Alt.=109.581116m. Speed=7.020000m/h.</desc>
<speed>1.950000</speed>
</trkpt>
<trkpt lat="55.991779" lon="26.526297">
<ele>110.237366</ele>
<time>2010-06-20T08:56:48Z</time>
<desc>lat.=55.991779, lon.=26.526297, Alt.=110.237366m. Speed=5.616000m/h.</desc>
<speed>1.560000</speed>
</trkpt>
<trkpt lat="55.991756" lon="26.526272">
<ele>109.573303</ele>
<time>2010-06-20T08:56:49Z</time>
<desc>lat.=55.991756, lon.=26.526272, Alt.=109.573303m. Speed=7.524000m/h.</desc>
<speed>2.090000</speed>
</trkpt>
<trkpt lat="55.991749" lon="26.526241">
<ele>110.254944</ele>
<time>2010-06-20T08:56:50Z</time>
<desc>lat.=55.991749, lon.=26.526241, Alt.=110.254944m. Speed=6.408000m/h.</desc>
<speed>1.780000</speed>
</trkpt>
<trkpt lat="55.991722" lon="26.526207">
<ele>109.774475</ele>
<time>2010-06-20T08:56:51Z</time>
<desc>lat.=55.991722, lon.=26.526207, Alt.=109.774475m. Speed=8.892000m/h.</desc>
<speed>2.470000</speed>
</trkpt>
<trkpt lat="55.991703" lon="26.526180">
<ele>110.243225</ele>
<time>2010-06-20T08:56:52Z</time>
<desc>lat.=55.991703, lon.=26.526180, Alt.=110.243225m. Speed=8.820000m/h.</desc>
<speed>2.450000</speed>
</trkpt>
<trkpt lat="55.991684" lon="26.526157">
<ele>110.233459</ele>
<time>2010-06-20T08:56:53Z</time>
<desc>lat.=55.991684, lon.=26.526157, Alt.=110.233459m. Speed=7.956000m/h.</desc>
<speed>2.210000</speed>
</trkpt>
<trkpt lat="55.991665" lon="26.526129">
<ele>110.741272</ele>
<time>2010-06-20T08:56:54Z</time>
<desc>lat.=55.991665, lon.=26.526129, Alt.=110.741272m. Speed=8.604000m/h.</desc>
<speed>2.390000</speed>
</trkpt>
<trkpt lat="55.991650" lon="26.526104">
<ele>112.290100</ele>
<time>2010-06-20T08:56:55Z</time>
<desc>lat.=55.991650, lon.=26.526104, Alt.=112.290100m. Speed=8.496000m/h.</desc>
<speed>2.360000</speed>
</trkpt>
<trkpt lat="55.991627" lon="26.526081">
<ele>113.417053</ele>
<time>2010-06-20T08:56:56Z</time>
<desc>lat.=55.991627, lon.=26.526081, Alt.=113.417053m. Speed=9.360000m/h.</desc>
<speed>2.600000</speed>
</trkpt>
<trkpt lat="55.991608" lon="26.526060">
<ele>114.624084</ele>
<time>2010-06-20T08:56:57Z</time>
<desc>lat.=55.991608, lon.=26.526060, Alt.=114.624084m. Speed=8.568000m/h.</desc>
<speed>2.380000</speed>
</trkpt>
<trkpt lat="55.991592" lon="26.526031">
<ele>115.754944</ele>
<time>2010-06-20T08:56:58Z</time>
<desc>lat.=55.991592, lon.=26.526031, Alt.=115.754944m. Speed=7.308000m/h.</desc>
<speed>2.030000</speed>
</trkpt>
<trkpt lat="55.991577" lon="26.526007">
<ele>116.831116</ele>
<time>2010-06-20T08:56:59Z</time>
<desc>lat.=55.991577, lon.=26.526007, Alt.=116.831116m. Speed=6.552000m/h.</desc>
<speed>1.820000</speed>
</trkpt>
<trkpt lat="55.991566" lon="26.525984">
<ele>117.458069</ele>
<time>2010-06-20T08:57:00Z</time>
<desc>lat.=55.991566, lon.=26.525984, Alt.=117.458069m. Speed=7.380000m/h.</desc>
<speed>2.050000</speed>
</trkpt>
<trkpt lat="55.991539" lon="26.525957">
<ele>117.713928</ele>
<time>2010-06-20T08:57:01Z</time>
<desc>lat.=55.991539, lon.=26.525957, Alt.=117.713928m. Speed=8.280000m/h.</desc>
<speed>2.300000</speed>
</trkpt>
<trkpt lat="55.991528" lon="26.525932">
<ele>118.651428</ele>
<time>2010-06-20T08:57:02Z</time>
<desc>lat.=55.991528, lon.=26.525932, Alt.=118.651428m. Speed=7.020000m/h.</desc>
<speed>1.950000</speed>
</trkpt>
<trkpt lat="55.991516" lon="26.525900">
<ele>119.715881</ele>
<time>2010-06-20T08:57:03Z</time>
<desc>lat.=55.991516, lon.=26.525900, Alt.=119.715881m. Speed=6.876000m/h.</desc>
<speed>1.910000</speed>
</trkpt>
<trkpt lat="55.991497" lon="26.525875">
<ele>120.411194</ele>
<time>2010-06-20T08:57:04Z</time>
<desc>lat.=55.991497, lon.=26.525875, Alt.=120.411194m. Speed=6.768000m/h.</desc>
<speed>1.880000</speed>
</trkpt>
<trkpt lat="55.991486" lon="26.525852">
<ele>120.698303</ele>
<time>2010-06-20T08:57:05Z</time>
<desc>lat.=55.991486, lon.=26.525852, Alt.=120.698303m. Speed=4.824000m/h.</desc>
<speed>1.340000</speed>
</trkpt>
<trkpt lat="55.991474" lon="26.525833">
<ele>120.987366</ele>
<time>2010-06-20T08:57:06Z</time>
<desc>lat.=55.991474, lon.=26.525833, Alt.=120.987366m. Speed=5.364000m/h.</desc>
<speed>1.490000</speed>
</trkpt>
<trkpt lat="55.991463" lon="26.525810">
<ele>121.294006</ele>
<time>2010-06-20T08:57:07Z</time>
<desc>lat.=55.991463, lon.=26.525810, Alt.=121.294006m. Speed=5.472000m/h.</desc>
<speed>1.520000</speed>
</trkpt>
<trkpt lat="55.991447" lon="26.525782">
<ele>121.417053</ele>
<time>2010-06-20T08:57:08Z</time>
<desc>lat.=55.991447, lon.=26.525782, Alt.=121.417053m. Speed=6.840000m/h.</desc>
<speed>1.900000</speed>
</trkpt>
<trkpt lat="55.991436" lon="26.525755">
<ele>122.274475</ele>
<time>2010-06-20T08:57:09Z</time>
<desc>lat.=55.991436, lon.=26.525755, Alt.=122.274475m. Speed=5.724000m/h.</desc>
<speed>1.590000</speed>
</trkpt>
<trkpt lat="55.991390" lon="26.525717">
<ele>122.094788</ele>
<time>2010-06-20T08:57:10Z</time>
<desc>lat.=55.991390, lon.=26.525717, Alt.=122.094788m. Speed=8.604000m/h.</desc>
<speed>2.390000</speed>
</trkpt>
<trkpt lat="55.991348" lon="26.525682">
<ele>121.200256</ele>
<time>2010-06-20T08:57:11Z</time>
<desc>lat.=55.991348, lon.=26.525682, Alt.=121.200256m. Speed=9.792000m/h.</desc>
<speed>2.720000</speed>
</trkpt>
<trkpt lat="55.991325" lon="26.525635">
<ele>120.762756</ele>
<time>2010-06-20T08:57:12Z</time>
<desc>lat.=55.991325, lon.=26.525635, Alt.=120.762756m. Speed=10.476000m/h.</desc>
<speed>2.910000</speed>
</trkpt>
<trkpt lat="55.991325" lon="26.525600">
<ele>121.026428</ele>
<time>2010-06-20T08:57:13Z</time>
<desc>lat.=55.991325, lon.=26.525600, Alt.=121.026428m. Speed=5.724000m/h.</desc>
<speed>1.590000</speed>
</trkpt>
<trkpt lat="55.991299" lon="26.525562">
<ele>121.309631</ele>
<time>2010-06-20T08:57:14Z</time>
<desc>lat.=55.991299, lon.=26.525562, Alt.=121.309631m. Speed=9.396000m/h.</desc>
<speed>2.610000</speed>
</trkpt>
<trkpt lat="55.991261" lon="26.525522">
<ele>121.813538</ele>
<time>2010-06-20T08:57:15Z</time>
<desc>lat.=55.991261, lon.=26.525522, Alt.=121.813538m. Speed=11.088000m/h.</desc>
<speed>3.080000</speed>
</trkpt>
<trkpt lat="55.991238" lon="26.525494">
<ele>122.153381</ele>
<time>2010-06-20T08:57:16Z</time>
<desc>lat.=55.991238, lon.=26.525494, Alt.=122.153381m. Speed=10.872000m/h.</desc>
<speed>3.020000</speed>
</trkpt>
<trkpt lat="55.991203" lon="26.525457">
<ele>122.086975</ele>
<time>2010-06-20T08:57:17Z</time>
<desc>lat.=55.991203, lon.=26.525457, Alt.=122.086975m. Speed=9.540000m/h.</desc>
<speed>2.650000</speed>
</trkpt>
<trkpt lat="55.991169" lon="26.525429">
<ele>121.223694</ele>
<time>2010-06-20T08:57:18Z</time>
<desc>lat.=55.991169, lon.=26.525429, Alt.=121.223694m. Speed=9.036000m/h.</desc>
<speed>2.510000</speed>
</trkpt>
<trkpt lat="55.991138" lon="26.525383">
<ele>120.854553</ele>
<time>2010-06-20T08:57:19Z</time>
<desc>lat.=55.991138, lon.=26.525383, Alt.=120.854553m. Speed=10.008000m/h.</desc>
<speed>2.780000</speed>
</trkpt>
<trkpt lat="55.991112" lon="26.525331">
<ele>121.221741</ele>
<time>2010-06-20T08:57:20Z</time>
<desc>lat.=55.991112, lon.=26.525331, Alt.=121.221741m. Speed=11.088000m/h.</desc>
<speed>3.080000</speed>
</trkpt>
<trkpt lat="55.991070" lon="26.525295">
<ele>121.075256</ele>
<time>2010-06-20T08:57:21Z</time>
<desc>lat.=55.991070, lon.=26.525295, Alt.=121.075256m. Speed=12.708000m/h.</desc>
<speed>3.530000</speed>
</trkpt>
<trkpt lat="55.991024" lon="26.525257">
<ele>121.233459</ele>
<time>2010-06-20T08:57:22Z</time>
<desc>lat.=55.991024, lon.=26.525257, Alt.=121.233459m. Speed=12.636000m/h.</desc>
<speed>3.510000</speed>
</trkpt>
<trkpt lat="55.990990" lon="26.525232">
<ele>120.042053</ele>
<time>2010-06-20T08:57:23Z</time>
<desc>lat.=55.990990, lon.=26.525232, Alt.=120.042053m. Speed=10.368000m/h.</desc>
<speed>2.880000</speed>
</trkpt>
<trkpt lat="55.990959" lon="26.525204">
<ele>119.799866</ele>
<time>2010-06-20T08:57:24Z</time>
<desc>lat.=55.990959, lon.=26.525204, Alt.=119.799866m. Speed=9.648000m/h.</desc>
<speed>2.680000</speed>
</trkpt>
<trkpt lat="55.990932" lon="26.525177">
<ele>120.292053</ele>
<time>2010-06-20T08:57:25Z</time>
<desc>lat.=55.990932, lon.=26.525177, Alt.=120.292053m. Speed=11.664000m/h.</desc>
<speed>3.240000</speed>
</trkpt>
<trkpt lat="55.990898" lon="26.525150">
<ele>119.540100</ele>
<time>2010-06-20T08:57:26Z</time>
<desc>lat.=55.990898, lon.=26.525150, Alt.=119.540100m. Speed=11.880000m/h.</desc>
<speed>3.300000</speed>
</trkpt>
<trkpt lat="55.990864" lon="26.525124">
<ele>118.784241</ele>
<time>2010-06-20T08:57:27Z</time>
<desc>lat.=55.990864, lon.=26.525124, Alt.=118.784241m. Speed=10.296000m/h.</desc>
<speed>2.860000</speed>
</trkpt>
<trkpt lat="55.990841" lon="26.525101">
<ele>118.391663</ele>
<time>2010-06-20T08:57:28Z</time>
<desc>lat.=55.990841, lon.=26.525101, Alt.=118.391663m. Speed=9.252000m/h.</desc>
<speed>2.570000</speed>
</trkpt>
<trkpt lat="55.990822" lon="26.525080">
<ele>117.913147</ele>
<time>2010-06-20T08:57:29Z</time>
<desc>lat.=55.990822, lon.=26.525080, Alt.=117.913147m. Speed=10.188000m/h.</desc>
<speed>2.830000</speed>
</trkpt>
<trkpt lat="55.990799" lon="26.525051">
<ele>117.950256</ele>
<time>2010-06-20T08:57:30Z</time>
<desc>lat.=55.990799, lon.=26.525051, Alt.=117.950256m. Speed=11.376000m/h.</desc>
<speed>3.160000</speed>
</trkpt>
<trkpt lat="55.990772" lon="26.525015">
<ele>117.504944</ele>
<time>2010-06-20T08:57:31Z</time>
<desc>lat.=55.990772, lon.=26.525015, Alt.=117.504944m. Speed=10.332000m/h.</desc>
<speed>2.870000</speed>
</trkpt>
<trkpt lat="55.990746" lon="26.524986">
<ele>116.754944</ele>
<time>2010-06-20T08:57:32Z</time>
<desc>lat.=55.990746, lon.=26.524986, Alt.=116.754944m. Speed=11.232000m/h.</desc>
<speed>3.120000</speed>
</trkpt>
<trkpt lat="55.990715" lon="26.524981">
<ele>117.440491</ele>
<time>2010-06-20T08:57:33Z</time>
<desc>lat.=55.990715, lon.=26.524981, Alt.=117.440491m. Speed=11.268000m/h.</desc>
<speed>3.130000</speed>
</trkpt>
<trkpt lat="55.990685" lon="26.524969">
<ele>117.299866</ele>
<time>2010-06-20T08:57:34Z</time>
<desc>lat.=55.990685, lon.=26.524969, Alt.=117.299866m. Speed=11.520000m/h.</desc>
<speed>3.200000</speed>
</trkpt>
<trkpt lat="55.990650" lon="26.524950">
<ele>115.852600</ele>
<time>2010-06-20T08:57:35Z</time>
<desc>lat.=55.990650, lon.=26.524950, Alt.=115.852600m. Speed=11.628000m/h.</desc>
<speed>3.230000</speed>
</trkpt>
<trkpt lat="55.990627" lon="26.524925">
<ele>115.764709</ele>
<time>2010-06-20T08:57:36Z</time>
<desc>lat.=55.990627, lon.=26.524925, Alt.=115.764709m. Speed=10.692000m/h.</desc>
<speed>2.970000</speed>
</trkpt>
<trkpt lat="55.990597" lon="26.524906">
<ele>115.461975</ele>
<time>2010-06-20T08:57:37Z</time>
<desc>lat.=55.990597, lon.=26.524906, Alt.=115.461975m. Speed=10.836000m/h.</desc>
<speed>3.010000</speed>
</trkpt>
<trkpt lat="55.990570" lon="26.524891">
<ele>115.284241</ele>
<time>2010-06-20T08:57:38Z</time>
<desc>lat.=55.990570, lon.=26.524891, Alt.=115.284241m. Speed=11.628000m/h.</desc>
<speed>3.230000</speed>
</trkpt>
<trkpt lat="55.990536" lon="26.524868">
<ele>114.305725</ele>
<time>2010-06-20T08:57:39Z</time>
<desc>lat.=55.990536, lon.=26.524868, Alt.=114.305725m. Speed=11.484000m/h.</desc>
<speed>3.190000</speed>
</trkpt>
<trkpt lat="55.990509" lon="26.524845">
<ele>115.120178</ele>
<time>2010-06-20T08:57:40Z</time>
<desc>lat.=55.990509, lon.=26.524845, Alt.=115.120178m. Speed=11.304000m/h.</desc>
<speed>3.140000</speed>
</trkpt>
<trkpt lat="55.990479" lon="26.524826">
<ele>115.090881</ele>
<time>2010-06-20T08:57:41Z</time>
<desc>lat.=55.990479, lon.=26.524826, Alt.=115.090881m. Speed=11.448000m/h.</desc>
<speed>3.180000</speed>
</trkpt>
<trkpt lat="55.990452" lon="26.524805">
<ele>114.379944</ele>
<time>2010-06-20T08:57:42Z</time>
<desc>lat.=55.990452, lon.=26.524805, Alt.=114.379944m. Speed=12.096000m/h.</desc>
<speed>3.360000</speed>
</trkpt>
<trkpt lat="55.990421" lon="26.524776">
<ele>113.407288</ele>
<time>2010-06-20T08:57:43Z</time>
<desc>lat.=55.990421, lon.=26.524776, Alt.=113.407288m. Speed=11.844000m/h.</desc>
<speed>3.290000</speed>
</trkpt>
<trkpt lat="55.990383" lon="26.524752">
<ele>112.815491</ele>
<time>2010-06-20T08:57:44Z</time>
<desc>lat.=55.990383, lon.=26.524752, Alt.=112.815491m. Speed=11.772000m/h.</desc>
<speed>3.270000</speed>
</trkpt>
<trkpt lat="55.990360" lon="26.524729">
<ele>112.516663</ele>
<time>2010-06-20T08:57:45Z</time>
<desc>lat.=55.990360, lon.=26.524729, Alt.=112.516663m. Speed=11.592000m/h.</desc>
<speed>3.220000</speed>
</trkpt>
<trkpt lat="55.990326" lon="26.524700">
<ele>111.815491</ele>
<time>2010-06-20T08:57:46Z</time>
<desc>lat.=55.990326, lon.=26.524700, Alt.=111.815491m. Speed=12.024000m/h.</desc>
<speed>3.340000</speed>
</trkpt>
<trkpt lat="55.990292" lon="26.524673">
<ele>111.678772</ele>
<time>2010-06-20T08:57:47Z</time>
<desc>lat.=55.990292, lon.=26.524673, Alt.=111.678772m. Speed=12.672000m/h.</desc>
<speed>3.520000</speed>
</trkpt>
<trkpt lat="55.990269" lon="26.524647">
<ele>112.098694</ele>
<time>2010-06-20T08:57:48Z</time>
<desc>lat.=55.990269, lon.=26.524647, Alt.=112.098694m. Speed=10.692000m/h.</desc>
<speed>2.970000</speed>
</trkpt>
<trkpt lat="55.990238" lon="26.524622">
<ele>112.508850</ele>
<time>2010-06-20T08:57:49Z</time>
<desc>lat.=55.990238, lon.=26.524622, Alt.=112.508850m. Speed=10.980000m/h.</desc>
<speed>3.050000</speed>
</trkpt>
<trkpt lat="55.990227" lon="26.524593">
<ele>113.221741</ele>
<time>2010-06-20T08:57:50Z</time>
<desc>lat.=55.990227, lon.=26.524593, Alt.=113.221741m. Speed=8.460000m/h.</desc>
<speed>2.350000</speed>
</trkpt>
<trkpt lat="55.990196" lon="26.524576">
<ele>112.917053</ele>
<time>2010-06-20T08:57:51Z</time>
<desc>lat.=55.990196, lon.=26.524576, Alt.=112.917053m. Speed=11.520000m/h.</desc>
<speed>3.200000</speed>
</trkpt>
<trkpt lat="55.990173" lon="26.524565">
<ele>113.010803</ele>
<time>2010-06-20T08:57:52Z</time>
<desc>lat.=55.990173, lon.=26.524565, Alt.=113.010803m. Speed=7.092000m/h.</desc>
<speed>1.970000</speed>
</trkpt>
<trkpt lat="55.990143" lon="26.524532">
<ele>111.805725</ele>
<time>2010-06-20T08:57:53Z</time>
<desc>lat.=55.990143, lon.=26.524532, Alt.=111.805725m. Speed=9.900000m/h.</desc>
<speed>2.750000</speed>
</trkpt>
<trkpt lat="55.990112" lon="26.524481">
<ele>110.618225</ele>
<time>2010-06-20T08:57:54Z</time>
<desc>lat.=55.990112, lon.=26.524481, Alt.=110.618225m. Speed=12.672000m/h.</desc>
<speed>3.520000</speed>
</trkpt>
<trkpt lat="55.990086" lon="26.524452">
<ele>110.426819</ele>
<time>2010-06-20T08:57:55Z</time>
<desc>lat.=55.990086, lon.=26.524452, Alt.=110.426819m. Speed=11.304000m/h.</desc>
<speed>3.140000</speed>
</trkpt>
<trkpt lat="55.990055" lon="26.524431">
<ele>109.678772</ele>
<time>2010-06-20T08:57:56Z</time>
<desc>lat.=55.990055, lon.=26.524431, Alt.=109.678772m. Speed=10.908000m/h.</desc>
<speed>3.030000</speed>
</trkpt>
<trkpt lat="55.990028" lon="26.524408">
<ele>109.932678</ele>
<time>2010-06-20T08:57:57Z</time>
<desc>lat.=55.990028, lon.=26.524408, Alt.=109.932678m. Speed=13.248000m/h.</desc>
<speed>3.680000</speed>
</trkpt>
<trkpt lat="55.989998" lon="26.524370">
<ele>109.672913</ele>
<time>2010-06-20T08:57:58Z</time>
<desc>lat.=55.989998, lon.=26.524370, Alt.=109.672913m. Speed=12.996000m/h.</desc>
<speed>3.610000</speed>
</trkpt>
<trkpt lat="55.989964" lon="26.524332">
<ele>109.309631</ele>
<time>2010-06-20T08:57:59Z</time>
<desc>lat.=55.989964, lon.=26.524332, Alt.=109.309631m. Speed=13.428000m/h.</desc>
<speed>3.730000</speed>
</trkpt>
<trkpt lat="55.989929" lon="26.524300">
<ele>109.362366</ele>
<time>2010-06-20T08:58:00Z</time>
<desc>lat.=55.989929, lon.=26.524300, Alt.=109.362366m. Speed=15.300000m/h.</desc>
<speed>4.250000</speed>
</trkpt>
<trkpt lat="55.989880" lon="26.524269">
<ele>108.635803</ele>
<time>2010-06-20T08:58:01Z</time>
<desc>lat.=55.989880, lon.=26.524269, Alt.=108.635803m. Speed=13.788000m/h.</desc>
<speed>3.830000</speed>
</trkpt>
<trkpt lat="55.989845" lon="26.524248">
<ele>108.399475</ele>
<time>2010-06-20T08:58:02Z</time>
<desc>lat.=55.989845, lon.=26.524248, Alt.=108.399475m. Speed=13.644000m/h.</desc>
<speed>3.790000</speed>
</trkpt>
<trkpt lat="55.989815" lon="26.524216">
<ele>108.102600</ele>
<time>2010-06-20T08:58:03Z</time>
<desc>lat.=55.989815, lon.=26.524216, Alt.=108.102600m. Speed=12.996000m/h.</desc>
<speed>3.610000</speed>
</trkpt>
<trkpt lat="55.989784" lon="26.524185">
<ele>107.661194</ele>
<time>2010-06-20T08:58:04Z</time>
<desc>lat.=55.989784, lon.=26.524185, Alt.=107.661194m. Speed=12.960000m/h.</desc>
<speed>3.600000</speed>
</trkpt>
<trkpt lat="55.989754" lon="26.524170">
<ele>107.211975</ele>
<time>2010-06-20T08:58:05Z</time>
<desc>lat.=55.989754, lon.=26.524170, Alt.=107.211975m. Speed=11.808000m/h.</desc>
<speed>3.280000</speed>
</trkpt>
<trkpt lat="55.989727" lon="26.524149">
<ele>106.794006</ele>
<time>2010-06-20T08:58:06Z</time>
<desc>lat.=55.989727, lon.=26.524149, Alt.=106.794006m. Speed=12.420000m/h.</desc>
<speed>3.450000</speed>
</trkpt>
<trkpt lat="55.989689" lon="26.524120">
<ele>106.317444</ele>
<time>2010-06-20T08:58:07Z</time>
<desc>lat.=55.989689, lon.=26.524120, Alt.=106.317444m. Speed=14.328000m/h.</desc>
<speed>3.980000</speed>
</trkpt>
<trkpt lat="55.989655" lon="26.524086">
<ele>106.627991</ele>
<time>2010-06-20T08:58:08Z</time>
<desc>lat.=55.989655, lon.=26.524086, Alt.=106.627991m. Speed=14.148000m/h.</desc>
<speed>3.930000</speed>
</trkpt>
<trkpt lat="55.989624" lon="26.524059">
<ele>107.336975</ele>
<time>2010-06-20T08:58:09Z</time>
<desc>lat.=55.989624, lon.=26.524059, Alt.=107.336975m. Speed=12.924000m/h.</desc>
<speed>3.590000</speed>
</trkpt>
<trkpt lat="55.989574" lon="26.524021">
<ele>105.778381</ele>
<time>2010-06-20T08:58:10Z</time>
<desc>lat.=55.989574, lon.=26.524021, Alt.=105.778381m. Speed=13.140000m/h.</desc>
<speed>3.650000</speed>
</trkpt>
<trkpt lat="55.989544" lon="26.523994">
<ele>106.100647</ele>
<time>2010-06-20T08:58:11Z</time>
<desc>lat.=55.989544, lon.=26.523994, Alt.=106.100647m. Speed=14.364000m/h.</desc>
<speed>3.990000</speed>
</trkpt>
<trkpt lat="55.989498" lon="26.523962">
<ele>105.307678</ele>
<time>2010-06-20T08:58:12Z</time>
<desc>lat.=55.989498, lon.=26.523962, Alt.=105.307678m. Speed=14.076000m/h.</desc>
<speed>3.910000</speed>
</trkpt>
<trkpt lat="55.989456" lon="26.523941">
<ele>105.151428</ele>
<time>2010-06-20T08:58:13Z</time>
<desc>lat.=55.989456, lon.=26.523941, Alt.=105.151428m. Speed=13.068000m/h.</desc>
<speed>3.630000</speed>
</trkpt>
<trkpt lat="55.989429" lon="26.523933">
<ele>105.667053</ele>
<time>2010-06-20T08:58:14Z</time>
<desc>lat.=55.989429, lon.=26.523933, Alt.=105.667053m. Speed=11.592000m/h.</desc>
<speed>3.220000</speed>
</trkpt>
<trkpt lat="55.989410" lon="26.523918">
<ele>106.866272</ele>
<time>2010-06-20T08:58:15Z</time>
<desc>lat.=55.989410, lon.=26.523918, Alt.=106.866272m. Speed=10.224000m/h.</desc>
<speed>2.840000</speed>
</trkpt>
<trkpt lat="55.989376" lon="26.523909">
<ele>107.419006</ele>
<time>2010-06-20T08:58:16Z</time>
<desc>lat.=55.989376, lon.=26.523909, Alt.=107.419006m. Speed=10.188000m/h.</desc>
<speed>2.830000</speed>
</trkpt>
<trkpt lat="55.989346" lon="26.523897">
<ele>107.760803</ele>
<time>2010-06-20T08:58:17Z</time>
<desc>lat.=55.989346, lon.=26.523897, Alt.=107.760803m. Speed=13.104000m/h.</desc>
<speed>3.640000</speed>
</trkpt>
<trkpt lat="55.989319" lon="26.523895">
<ele>107.952209</ele>
<time>2010-06-20T08:58:18Z</time>
<desc>lat.=55.989319, lon.=26.523895, Alt.=107.952209m. Speed=10.296000m/h.</desc>
<speed>2.860000</speed>
</trkpt>
<trkpt lat="55.989296" lon="26.523880">
<ele>108.206116</ele>
<time>2010-06-20T08:58:19Z</time>
<desc>lat.=55.989296, lon.=26.523880, Alt.=108.206116m. Speed=9.216000m/h.</desc>
<speed>2.560000</speed>
</trkpt>
<trkpt lat="55.989254" lon="26.523855">
<ele>106.848694</ele>
<time>2010-06-20T08:58:20Z</time>
<desc>lat.=55.989254, lon.=26.523855, Alt.=106.848694m. Speed=11.736000m/h.</desc>
<speed>3.260000</speed>
</trkpt>
<trkpt lat="55.989216" lon="26.523838">
<ele>105.821350</ele>
<time>2010-06-20T08:58:21Z</time>
<desc>lat.=55.989216, lon.=26.523838, Alt.=105.821350m. Speed=10.980000m/h.</desc>
<speed>3.050000</speed>
</trkpt>
<trkpt lat="55.989178" lon="26.523832">
<ele>105.975647</ele>
<time>2010-06-20T08:58:22Z</time>
<desc>lat.=55.989178, lon.=26.523832, Alt.=105.975647m. Speed=12.384000m/h.</desc>
<speed>3.440000</speed>
</trkpt>
<trkpt lat="55.989143" lon="26.523827">
<ele>105.788147</ele>
<time>2010-06-20T08:58:23Z</time>
<desc>lat.=55.989143, lon.=26.523827, Alt.=105.788147m. Speed=13.284000m/h.</desc>
<speed>3.690000</speed>
</trkpt>
<trkpt lat="55.989109" lon="26.523817">
<ele>105.624084</ele>
<time>2010-06-20T08:58:24Z</time>
<desc>lat.=55.989109, lon.=26.523817, Alt.=105.624084m. Speed=11.304000m/h.</desc>
<speed>3.140000</speed>
</trkpt>
<trkpt lat="55.989071" lon="26.523802">
<ele>104.778381</ele>
<time>2010-06-20T08:58:25Z</time>
<desc>lat.=55.989071, lon.=26.523802, Alt.=104.778381m. Speed=10.800000m/h.</desc>
<speed>3.000000</speed>
</trkpt>
<trkpt lat="55.989040" lon="26.523794">
<ele>104.360413</ele>
<time>2010-06-20T08:58:26Z</time>
<desc>lat.=55.989040, lon.=26.523794, Alt.=104.360413m. Speed=8.424000m/h.</desc>
<speed>2.340000</speed>
</trkpt>
<trkpt lat="55.989017" lon="26.523787">
<ele>103.715881</ele>
<time>2010-06-20T08:58:27Z</time>
<desc>lat.=55.989017, lon.=26.523787, Alt.=103.715881m. Speed=8.172000m/h.</desc>
<speed>2.270000</speed>
</trkpt>
<trkpt lat="55.988964" lon="26.523783">
<ele>101.663147</ele>
<time>2010-06-20T08:58:28Z</time>
<desc>lat.=55.988964, lon.=26.523783, Alt.=101.663147m. Speed=9.972000m/h.</desc>
<speed>2.770000</speed>
</trkpt>
<trkpt lat="55.988937" lon="26.523779">
<ele>101.895569</ele>
<time>2010-06-20T08:58:29Z</time>
<desc>lat.=55.988937, lon.=26.523779, Alt.=101.895569m. Speed=8.244000m/h.</desc>
<speed>2.290000</speed>
</trkpt>
<trkpt lat="55.988907" lon="26.523775">
<ele>102.325256</ele>
<time>2010-06-20T08:58:30Z</time>
<desc>lat.=55.988907, lon.=26.523775, Alt.=102.325256m. Speed=9.612000m/h.</desc>
<speed>2.670000</speed>
</trkpt>
<trkpt lat="55.988884" lon="26.523769">
<ele>102.047913</ele>
<time>2010-06-20T08:58:31Z</time>
<desc>lat.=55.988884, lon.=26.523769, Alt.=102.047913m. Speed=11.736000m/h.</desc>
<speed>3.260000</speed>
</trkpt>
<trkpt lat="55.988827" lon="26.523767">
<ele>102.499084</ele>
<time>2010-06-20T08:58:32Z</time>
<desc>lat.=55.988827, lon.=26.523767, Alt.=102.499084m. Speed=14.184000m/h.</desc>
<speed>3.940000</speed>
</trkpt>
<trkpt lat="55.988792" lon="26.523756">
<ele>103.143616</ele>
<time>2010-06-20T08:58:33Z</time>
<desc>lat.=55.988792, lon.=26.523756, Alt.=103.143616m. Speed=9.900000m/h.</desc>
<speed>2.750000</speed>
</trkpt>
<trkpt lat="55.988766" lon="26.523754">
<ele>103.922913</ele>
<time>2010-06-20T08:58:34Z</time>
<desc>lat.=55.988766, lon.=26.523754, Alt.=103.922913m. Speed=9.000000m/h.</desc>
<speed>2.500000</speed>
</trkpt>
<trkpt lat="55.988739" lon="26.523745">
<ele>104.237366</ele>
<time>2010-06-20T08:58:35Z</time>
<desc>lat.=55.988739, lon.=26.523745, Alt.=104.237366m. Speed=8.460000m/h.</desc>
<speed>2.350000</speed>
</trkpt>
<trkpt lat="55.988724" lon="26.523735">
<ele>105.309631</ele>
<time>2010-06-20T08:58:36Z</time>
<desc>lat.=55.988724, lon.=26.523735, Alt.=105.309631m. Speed=6.768000m/h.</desc>
<speed>1.880000</speed>
</trkpt>
<trkpt lat="55.988705" lon="26.523726">
<ele>105.129944</ele>
<time>2010-06-20T08:58:37Z</time>
<desc>lat.=55.988705, lon.=26.523726, Alt.=105.129944m. Speed=5.832000m/h.</desc>
<speed>1.620000</speed>
</trkpt>
<trkpt lat="55.988682" lon="26.523722">
<ele>105.047913</ele>
<time>2010-06-20T08:58:38Z</time>
<desc>lat.=55.988682, lon.=26.523722, Alt.=105.047913m. Speed=4.788000m/h.</desc>
<speed>1.330000</speed>
</trkpt>
<trkpt lat="55.988663" lon="26.523716">
<ele>104.975647</ele>
<time>2010-06-20T08:58:39Z</time>
<desc>lat.=55.988663, lon.=26.523716, Alt.=104.975647m. Speed=6.048000m/h.</desc>
<speed>1.680000</speed>
</trkpt>
<trkpt lat="55.988644" lon="26.523714">
<ele>105.008850</ele>
<time>2010-06-20T08:58:40Z</time>
<desc>lat.=55.988644, lon.=26.523714, Alt.=105.008850m. Speed=5.256000m/h.</desc>
<speed>1.460000</speed>
</trkpt>
<trkpt lat="55.988621" lon="26.523714">
<ele>105.155334</ele>
<time>2010-06-20T08:58:41Z</time>
<desc>lat.=55.988621, lon.=26.523714, Alt.=105.155334m. Speed=6.084000m/h.</desc>
<speed>1.690000</speed>
</trkpt>
<trkpt lat="55.988598" lon="26.523712">
<ele>105.061584</ele>
<time>2010-06-20T08:58:42Z</time>
<desc>lat.=55.988598, lon.=26.523712, Alt.=105.061584m. Speed=8.100000m/h.</desc>
<speed>2.250000</speed>
</trkpt>
<trkpt lat="55.988564" lon="26.523697">
<ele>105.778381</ele>
<time>2010-06-20T08:58:43Z</time>
<desc>lat.=55.988564, lon.=26.523697, Alt.=105.778381m. Speed=10.116000m/h.</desc>
<speed>2.810000</speed>
</trkpt>
<trkpt lat="55.988529" lon="26.523689">
<ele>105.444397</ele>
<time>2010-06-20T08:58:44Z</time>
<desc>lat.=55.988529, lon.=26.523689, Alt.=105.444397m. Speed=9.756000m/h.</desc>
<speed>2.710000</speed>
</trkpt>
<trkpt lat="55.988510" lon="26.523674">
<ele>105.596741</ele>
<time>2010-06-20T08:58:45Z</time>
<desc>lat.=55.988510, lon.=26.523674, Alt.=105.596741m. Speed=7.344000m/h.</desc>
<speed>2.040000</speed>
</trkpt>
<trkpt lat="55.988495" lon="26.523657">
<ele>106.102600</ele>
<time>2010-06-20T08:58:46Z</time>
<desc>lat.=55.988495, lon.=26.523657, Alt.=106.102600m. Speed=6.840000m/h.</desc>
<speed>1.900000</speed>
</trkpt>
<trkpt lat="55.988472" lon="26.523640">
<ele>105.967834</ele>
<time>2010-06-20T08:58:47Z</time>
<desc>lat.=55.988472, lon.=26.523640, Alt.=105.967834m. Speed=8.388000m/h.</desc>
<speed>2.330000</speed>
</trkpt>
<trkpt lat="55.988441" lon="26.523619">
<ele>106.352600</ele>
<time>2010-06-20T08:58:48Z</time>
<desc>lat.=55.988441, lon.=26.523619, Alt.=106.352600m. Speed=8.532000m/h.</desc>
<speed>2.370000</speed>
</trkpt>
<trkpt lat="55.988396" lon="26.523617">
<ele>107.288147</ele>
<time>2010-06-20T08:58:49Z</time>
<desc>lat.=55.988396, lon.=26.523617, Alt.=107.288147m. Speed=12.024000m/h.</desc>
<speed>3.340000</speed>
</trkpt>
<trkpt lat="55.988335" lon="26.523605">
<ele>107.071350</ele>
<time>2010-06-20T08:58:50Z</time>
<desc>lat.=55.988335, lon.=26.523605, Alt.=107.071350m. Speed=13.608000m/h.</desc>
<speed>3.780000</speed>
</trkpt>
<trkpt lat="55.988297" lon="26.523598">
<ele>107.335022</ele>
<time>2010-06-20T08:58:51Z</time>
<desc>lat.=55.988297, lon.=26.523598, Alt.=107.335022m. Speed=12.744000m/h.</desc>
<speed>3.540000</speed>
</trkpt>
<trkpt lat="55.988255" lon="26.523600">
<ele>108.047913</ele>
<time>2010-06-20T08:58:52Z</time>
<desc>lat.=55.988255, lon.=26.523600, Alt.=108.047913m. Speed=12.780000m/h.</desc>
<speed>3.550000</speed>
</trkpt>
<trkpt lat="55.988216" lon="26.523600">
<ele>108.786194</ele>
<time>2010-06-20T08:58:53Z</time>
<desc>lat.=55.988216, lon.=26.523600, Alt.=108.786194m. Speed=10.800000m/h.</desc>
<speed>3.000000</speed>
</trkpt>
<trkpt lat="55.988174" lon="26.523586">
<ele>108.870178</ele>
<time>2010-06-20T08:58:54Z</time>
<desc>lat.=55.988174, lon.=26.523586, Alt.=108.870178m. Speed=12.096000m/h.</desc>
<speed>3.360000</speed>
</trkpt>
<trkpt lat="55.988136" lon="26.523569">
<ele>108.614319</ele>
<time>2010-06-20T08:58:55Z</time>
<desc>lat.=55.988136, lon.=26.523569, Alt.=108.614319m. Speed=12.600000m/h.</desc>
<speed>3.500000</speed>
</trkpt>
<trkpt lat="55.988094" lon="26.523569">
<ele>107.618225</ele>
<time>2010-06-20T08:58:56Z</time>
<desc>lat.=55.988094, lon.=26.523569, Alt.=107.618225m. Speed=12.096000m/h.</desc>
<speed>3.360000</speed>
</trkpt>
<trkpt lat="55.988060" lon="26.523567">
<ele>106.297913</ele>
<time>2010-06-20T08:58:57Z</time>
<desc>lat.=55.988060, lon.=26.523567, Alt.=106.297913m. Speed=10.800000m/h.</desc>
<speed>3.000000</speed>
</trkpt>
<trkpt lat="55.988014" lon="26.523560">
<ele>105.643616</ele>
<time>2010-06-20T08:58:58Z</time>
<desc>lat.=55.988014, lon.=26.523560, Alt.=105.643616m. Speed=13.212000m/h.</desc>
<speed>3.670000</speed>
</trkpt>
<trkpt lat="55.987980" lon="26.523550">
<ele>105.944397</ele>
<time>2010-06-20T08:58:59Z</time>
<desc>lat.=55.987980, lon.=26.523550, Alt.=105.944397m. Speed=13.176000m/h.</desc>
<speed>3.660000</speed>
</trkpt>
<trkpt lat="55.987946" lon="26.523542">
<ele>105.780334</ele>
<time>2010-06-20T08:59:00Z</time>
<desc>lat.=55.987946, lon.=26.523542, Alt.=105.780334m. Speed=11.700000m/h.</desc>
<speed>3.250000</speed>
</trkpt>
<trkpt lat="55.987915" lon="26.523518">
<ele>106.223694</ele>
<time>2010-06-20T08:59:01Z</time>
<desc>lat.=55.987915, lon.=26.523518, Alt.=106.223694m. Speed=8.532000m/h.</desc>
<speed>2.370000</speed>
</trkpt>
<trkpt lat="55.987888" lon="26.523508">
<ele>105.965881</ele>
<time>2010-06-20T08:59:02Z</time>
<desc>lat.=55.987888, lon.=26.523508, Alt.=105.965881m. Speed=9.972000m/h.</desc>
<speed>2.770000</speed>
</trkpt>
<trkpt lat="55.987854" lon="26.523506">
<ele>106.141663</ele>
<time>2010-06-20T08:59:03Z</time>
<desc>lat.=55.987854, lon.=26.523506, Alt.=106.141663m. Speed=8.784000m/h.</desc>
<speed>2.440000</speed>
</trkpt>
<trkpt lat="55.987827" lon="26.523502">
<ele>106.094788</ele>
<time>2010-06-20T08:59:04Z</time>
<desc>lat.=55.987827, lon.=26.523502, Alt.=106.094788m. Speed=6.156000m/h.</desc>
<speed>1.710000</speed>
</trkpt>
<trkpt lat="55.987793" lon="26.523497">
<ele>106.006897</ele>
<time>2010-06-20T08:59:05Z</time>
<desc>lat.=55.987793, lon.=26.523497, Alt.=106.006897m. Speed=8.748000m/h.</desc>
<speed>2.430000</speed>
</trkpt>
<trkpt lat="55.987759" lon="26.523497">
<ele>106.245178</ele>
<time>2010-06-20T08:59:06Z</time>
<desc>lat.=55.987759, lon.=26.523497, Alt.=106.245178m. Speed=10.512000m/h.</desc>
<speed>2.920000</speed>
</trkpt>
<trkpt lat="55.987724" lon="26.523491">
<ele>106.305725</ele>
<time>2010-06-20T08:59:07Z</time>
<desc>lat.=55.987724, lon.=26.523491, Alt.=106.305725m. Speed=9.612000m/h.</desc>
<speed>2.670000</speed>
</trkpt>
<trkpt lat="55.987690" lon="26.523483">
<ele>106.575256</ele>
<time>2010-06-20T08:59:08Z</time>
<desc>lat.=55.987690, lon.=26.523483, Alt.=106.575256m. Speed=10.188000m/h.</desc>
<speed>2.830000</speed>
</trkpt>
<trkpt lat="55.987648" lon="26.523493">
<ele>105.452209</ele>
<time>2010-06-20T08:59:09Z</time>
<desc>lat.=55.987648, lon.=26.523493, Alt.=105.452209m. Speed=11.808000m/h.</desc>
<speed>3.280000</speed>
</trkpt>
<trkpt lat="55.987617" lon="26.523502">
<ele>104.426819</ele>
<time>2010-06-20T08:59:10Z</time>
<desc>lat.=55.987617, lon.=26.523502, Alt.=104.426819m. Speed=9.792000m/h.</desc>
<speed>2.720000</speed>
</trkpt>
<trkpt lat="55.987576" lon="26.523510">
<ele>103.581116</ele>
<time>2010-06-20T08:59:11Z</time>
<desc>lat.=55.987576, lon.=26.523510, Alt.=103.581116m. Speed=10.080000m/h.</desc>
<speed>2.800000</speed>
</trkpt>
<trkpt lat="55.987545" lon="26.523510">
<ele>102.870178</ele>
<time>2010-06-20T08:59:12Z</time>
<desc>lat.=55.987545, lon.=26.523510, Alt.=102.870178m. Speed=9.144000m/h.</desc>
<speed>2.540000</speed>
</trkpt>
<trkpt lat="55.987507" lon="26.523508">
<ele>102.280334</ele>
<time>2010-06-20T08:59:13Z</time>
<desc>lat.=55.987507, lon.=26.523508, Alt.=102.280334m. Speed=9.612000m/h.</desc>
<speed>2.670000</speed>
</trkpt>
<trkpt lat="55.987480" lon="26.523518">
<ele>102.254944</ele>
<time>2010-06-20T08:59:14Z</time>
<desc>lat.=55.987480, lon.=26.523518, Alt.=102.254944m. Speed=16.236000m/h.</desc>
<speed>4.510000</speed>
</trkpt>
<trkpt lat="55.987446" lon="26.523540">
<ele>102.225647</ele>
<time>2010-06-20T08:59:15Z</time>
<desc>lat.=55.987446, lon.=26.523540, Alt.=102.225647m. Speed=11.880000m/h.</desc>
<speed>3.300000</speed>
</trkpt>
<trkpt lat="55.987419" lon="26.523554">
<ele>102.374084</ele>
<time>2010-06-20T08:59:16Z</time>
<desc>lat.=55.987419, lon.=26.523554, Alt.=102.374084m. Speed=11.232000m/h.</desc>
<speed>3.120000</speed>
</trkpt>
<trkpt lat="55.987392" lon="26.523560">
<ele>102.547913</ele>
<time>2010-06-20T08:59:17Z</time>
<desc>lat.=55.987392, lon.=26.523560, Alt.=102.547913m. Speed=9.360000m/h.</desc>
<speed>2.600000</speed>
</trkpt>
<trkpt lat="55.987358" lon="26.523573">
<ele>102.711975</ele>
<time>2010-06-20T08:59:18Z</time>
<desc>lat.=55.987358, lon.=26.523573, Alt.=102.711975m. Speed=10.620000m/h.</desc>
<speed>2.950000</speed>
</trkpt>
<trkpt lat="55.987320" lon="26.523592">
<ele>102.877991</ele>
<time>2010-06-20T08:59:19Z</time>
<desc>lat.=55.987320, lon.=26.523592, Alt.=102.877991m. Speed=11.160000m/h.</desc>
<speed>3.100000</speed>
</trkpt>
<trkpt lat="55.987267" lon="26.523605">
<ele>103.370178</ele>
<time>2010-06-20T08:59:20Z</time>
<desc>lat.=55.987267, lon.=26.523605, Alt.=103.370178m. Speed=12.600000m/h.</desc>
<speed>3.500000</speed>
</trkpt>
<trkpt lat="55.987213" lon="26.523623">
<ele>103.952209</ele>
<time>2010-06-20T08:59:21Z</time>
<desc>lat.=55.987213, lon.=26.523623, Alt.=103.952209m. Speed=12.420000m/h.</desc>
<speed>3.450000</speed>
</trkpt>
<trkpt lat="55.987183" lon="26.523642">
<ele>103.960022</ele>
<time>2010-06-20T08:59:22Z</time>
<desc>lat.=55.987183, lon.=26.523642, Alt.=103.960022m. Speed=10.224000m/h.</desc>
<speed>2.840000</speed>
</trkpt>
<trkpt lat="55.987160" lon="26.523661">
<ele>104.088928</ele>
<time>2010-06-20T08:59:23Z</time>
<desc>lat.=55.987160, lon.=26.523661, Alt.=104.088928m. Speed=7.812000m/h.</desc>
<speed>2.170000</speed>
</trkpt>
<trkpt lat="55.987099" lon="26.523682">
<ele>102.754944</ele>
<time>2010-06-20T08:59:24Z</time>
<desc>lat.=55.987099, lon.=26.523682, Alt.=102.754944m. Speed=8.388000m/h.</desc>
<speed>2.330000</speed>
</trkpt>
<trkpt lat="55.987064" lon="26.523699">
<ele>102.670959</ele>
<time>2010-06-20T08:59:25Z</time>
<desc>lat.=55.987064, lon.=26.523699, Alt.=102.670959m. Speed=9.684000m/h.</desc>
<speed>2.690000</speed>
</trkpt>
<trkpt lat="55.987034" lon="26.523714">
<ele>102.735413</ele>
<time>2010-06-20T08:59:26Z</time>
<desc>lat.=55.987034, lon.=26.523714, Alt.=102.735413m. Speed=8.496000m/h.</desc>
<speed>2.360000</speed>
</trkpt>
<trkpt lat="55.987011" lon="26.523733">
<ele>102.942444</ele>
<time>2010-06-20T08:59:27Z</time>
<desc>lat.=55.987011, lon.=26.523733, Alt.=102.942444m. Speed=7.668000m/h.</desc>
<speed>2.130000</speed>
</trkpt>
<trkpt lat="55.986977" lon="26.523745">
<ele>102.598694</ele>
<time>2010-06-20T08:59:28Z</time>
<desc>lat.=55.986977, lon.=26.523745, Alt.=102.598694m. Speed=8.316000m/h.</desc>
<speed>2.310000</speed>
</trkpt>
<trkpt lat="55.986950" lon="26.523766">
<ele>102.374084</ele>
<time>2010-06-20T08:59:29Z</time>
<desc>lat.=55.986950, lon.=26.523766, Alt.=102.374084m. Speed=8.280000m/h.</desc>
<speed>2.300000</speed>
</trkpt>
<trkpt lat="55.986923" lon="26.523806">
<ele>102.129944</ele>
<time>2010-06-20T08:59:30Z</time>
<desc>lat.=55.986923, lon.=26.523806, Alt.=102.129944m. Speed=7.344000m/h.</desc>
<speed>2.040000</speed>
</trkpt>
<trkpt lat="55.986893" lon="26.523815">
<ele>101.522522</ele>
<time>2010-06-20T08:59:31Z</time>
<desc>lat.=55.986893, lon.=26.523815, Alt.=101.522522m. Speed=8.676000m/h.</desc>
<speed>2.410000</speed>
</trkpt>
<trkpt lat="55.986870" lon="26.523829">
<ele>101.956116</ele>
<time>2010-06-20T08:59:32Z</time>
<desc>lat.=55.986870, lon.=26.523829, Alt.=101.956116m. Speed=9.756000m/h.</desc>
<speed>2.710000</speed>
</trkpt>
<trkpt lat="55.986832" lon="26.523842">
<ele>101.493225</ele>
<time>2010-06-20T08:59:33Z</time>
<desc>lat.=55.986832, lon.=26.523842, Alt.=101.493225m. Speed=10.872000m/h.</desc>
<speed>3.020000</speed>
</trkpt>
<trkpt lat="55.986797" lon="26.523865">
<ele>101.231506</ele>
<time>2010-06-20T08:59:34Z</time>
<desc>lat.=55.986797, lon.=26.523865, Alt.=101.231506m. Speed=10.836000m/h.</desc>
<speed>3.010000</speed>
</trkpt>
<trkpt lat="55.986759" lon="26.523907">
<ele>101.018616</ele>
<time>2010-06-20T08:59:35Z</time>
<desc>lat.=55.986759, lon.=26.523907, Alt.=101.018616m. Speed=9.576000m/h.</desc>
<speed>2.660000</speed>
</trkpt>
<trkpt lat="55.986732" lon="26.523926">
<ele>101.110413</ele>
<time>2010-06-20T08:59:36Z</time>
<desc>lat.=55.986732, lon.=26.523926, Alt.=101.110413m. Speed=9.576000m/h.</desc>
<speed>2.660000</speed>
</trkpt>
<trkpt lat="55.986710" lon="26.523945">
<ele>100.555725</ele>
<time>2010-06-20T08:59:37Z</time>
<desc>lat.=55.986710, lon.=26.523945, Alt.=100.555725m. Speed=7.524000m/h.</desc>
<speed>2.090000</speed>
</trkpt>
<trkpt lat="55.986691" lon="26.523962">
<ele>100.262756</ele>
<time>2010-06-20T08:59:38Z</time>
<desc>lat.=55.986691, lon.=26.523962, Alt.=100.262756m. Speed=6.552000m/h.</desc>
<speed>1.820000</speed>
</trkpt>
<trkpt lat="55.986668" lon="26.523979">
<ele>99.997131</ele>
<time>2010-06-20T08:59:39Z</time>
<desc>lat.=55.986668, lon.=26.523979, Alt.=99.997131m. Speed=6.912000m/h.</desc>
<speed>1.920000</speed>
</trkpt>
<trkpt lat="55.986633" lon="26.523998">
<ele>99.419006</ele>
<time>2010-06-20T08:59:40Z</time>
<desc>lat.=55.986633, lon.=26.523998, Alt.=99.419006m. Speed=10.008000m/h.</desc>
<speed>2.780000</speed>
</trkpt>
<trkpt lat="55.986595" lon="26.524025">
<ele>99.036194</ele>
<time>2010-06-20T08:59:41Z</time>
<desc>lat.=55.986595, lon.=26.524025, Alt.=99.036194m. Speed=9.612000m/h.</desc>
<speed>2.670000</speed>
</trkpt>
<trkpt lat="55.986568" lon="26.524046">
<ele>99.028381</ele>
<time>2010-06-20T08:59:42Z</time>
<desc>lat.=55.986568, lon.=26.524046, Alt.=99.028381m. Speed=8.892000m/h.</desc>
<speed>2.470000</speed>
</trkpt>
<trkpt lat="55.986538" lon="26.524059">
<ele>99.081116</ele>
<time>2010-06-20T08:59:43Z</time>
<desc>lat.=55.986538, lon.=26.524059, Alt.=99.081116m. Speed=9.000000m/h.</desc>
<speed>2.500000</speed>
</trkpt>
<trkpt lat="55.986496" lon="26.524078">
<ele>98.782288</ele>
<time>2010-06-20T08:59:44Z</time>
<desc>lat.=55.986496, lon.=26.524078, Alt.=98.782288m. Speed=9.468000m/h.</desc>
<speed>2.630000</speed>
</trkpt>
<trkpt lat="55.986446" lon="26.524096">
<ele>99.241272</ele>
<time>2010-06-20T08:59:45Z</time>
<desc>lat.=55.986446, lon.=26.524096, Alt.=99.241272m. Speed=9.108000m/h.</desc>
<speed>2.530000</speed>
</trkpt>
<trkpt lat="55.986420" lon="26.524122">
<ele>98.963928</ele>
<time>2010-06-20T08:59:46Z</time>
<desc>lat.=55.986420, lon.=26.524122, Alt.=98.963928m. Speed=9.180000m/h.</desc>
<speed>2.550000</speed>
</trkpt>
<trkpt lat="55.986389" lon="26.524155">
<ele>98.116272</ele>
<time>2010-06-20T08:59:47Z</time>
<desc>lat.=55.986389, lon.=26.524155, Alt.=98.116272m. Speed=7.920000m/h.</desc>
<speed>2.200000</speed>
</trkpt>
<trkpt lat="55.986355" lon="26.524191">
<ele>97.545959</ele>
<time>2010-06-20T08:59:48Z</time>
<desc>lat.=55.986355, lon.=26.524191, Alt.=97.545959m. Speed=7.848000m/h.</desc>
<speed>2.180000</speed>
</trkpt>
<trkpt lat="55.986328" lon="26.524220">
<ele>96.934631</ele>
<time>2010-06-20T08:59:49Z</time>
<desc>lat.=55.986328, lon.=26.524220, Alt.=96.934631m. Speed=8.784000m/h.</desc>
<speed>2.440000</speed>
</trkpt>
<trkpt lat="55.986309" lon="26.524240">
<ele>96.936584</ele>
<time>2010-06-20T08:59:50Z</time>
<desc>lat.=55.986309, lon.=26.524240, Alt.=96.936584m. Speed=7.560000m/h.</desc>
<speed>2.100000</speed>
</trkpt>
<trkpt lat="55.986286" lon="26.524256">
<ele>96.948303</ele>
<time>2010-06-20T08:59:51Z</time>
<desc>lat.=55.986286, lon.=26.524256, Alt.=96.948303m. Speed=6.660000m/h.</desc>
<speed>1.850000</speed>
</trkpt>
<trkpt lat="55.986263" lon="26.524282">
<ele>96.663147</ele>
<time>2010-06-20T08:59:52Z</time>
<desc>lat.=55.986263, lon.=26.524282, Alt.=96.663147m. Speed=5.076000m/h.</desc>
<speed>1.410000</speed>
</trkpt>
<trkpt lat="55.986244" lon="26.524296">
<ele>96.157288</ele>
<time>2010-06-20T08:59:53Z</time>
<desc>lat.=55.986244, lon.=26.524296, Alt.=96.157288m. Speed=4.932000m/h.</desc>
<speed>1.370000</speed>
</trkpt>
<trkpt lat="55.986217" lon="26.524298">
<ele>95.403381</ele>
<time>2010-06-20T08:59:54Z</time>
<desc>lat.=55.986217, lon.=26.524298, Alt.=95.403381m. Speed=4.392000m/h.</desc>
<speed>1.220000</speed>
</trkpt>
<trkpt lat="55.986195" lon="26.524309">
<ele>95.899475</ele>
<time>2010-06-20T08:59:55Z</time>
<desc>lat.=55.986195, lon.=26.524309, Alt.=95.899475m. Speed=6.300000m/h.</desc>
<speed>1.750000</speed>
</trkpt>
<trkpt lat="55.986156" lon="26.524332">
<ele>95.438538</ele>
<time>2010-06-20T08:59:56Z</time>
<desc>lat.=55.986156, lon.=26.524332, Alt.=95.438538m. Speed=7.848000m/h.</desc>
<speed>2.180000</speed>
</trkpt>
<trkpt lat="55.986134" lon="26.524349">
<ele>95.952209</ele>
<time>2010-06-20T08:59:57Z</time>
<desc>lat.=55.986134, lon.=26.524349, Alt.=95.952209m. Speed=7.056000m/h.</desc>
<speed>1.960000</speed>
</trkpt>
<trkpt lat="55.986107" lon="26.524363">
<ele>95.778381</ele>
<time>2010-06-20T08:59:58Z</time>
<desc>lat.=55.986107, lon.=26.524363, Alt.=95.778381m. Speed=7.524000m/h.</desc>
<speed>2.090000</speed>
</trkpt>
<trkpt lat="55.986076" lon="26.524391">
<ele>95.407288</ele>
<time>2010-06-20T08:59:59Z</time>
<desc>lat.=55.986076, lon.=26.524391, Alt.=95.407288m. Speed=7.488000m/h.</desc>
<speed>2.080000</speed>
</trkpt>
<trkpt lat="55.986053" lon="26.524418">
<ele>95.381897</ele>
<time>2010-06-20T09:00:00Z</time>
<desc>lat.=55.986053, lon.=26.524418, Alt.=95.381897m. Speed=8.316000m/h.</desc>
<speed>2.310000</speed>
</trkpt>
<trkpt lat="55.986012" lon="26.524443">
<ele>95.290100</ele>
<time>2010-06-20T09:00:01Z</time>
<desc>lat.=55.986012, lon.=26.524443, Alt.=95.290100m. Speed=10.692000m/h.</desc>
<speed>2.970000</speed>
</trkpt>
<trkpt lat="55.985977" lon="26.524464">
<ele>95.657288</ele>
<time>2010-06-20T09:00:02Z</time>
<desc>lat.=55.985977, lon.=26.524464, Alt.=95.657288m. Speed=10.044000m/h.</desc>
<speed>2.790000</speed>
</trkpt>
<trkpt lat="55.985928" lon="26.524483">
<ele>95.856506</ele>
<time>2010-06-20T09:00:03Z</time>
<desc>lat.=55.985928, lon.=26.524483, Alt.=95.856506m. Speed=11.304000m/h.</desc>
<speed>3.140000</speed>
</trkpt>
<trkpt lat="55.985893" lon="26.524506">
<ele>95.862366</ele>
<time>2010-06-20T09:00:04Z</time>
<desc>lat.=55.985893, lon.=26.524506, Alt.=95.862366m. Speed=10.584000m/h.</desc>
<speed>2.940000</speed>
</trkpt>
<trkpt lat="55.985836" lon="26.524536">
<ele>95.342834</ele>
<time>2010-06-20T09:00:05Z</time>
<desc>lat.=55.985836, lon.=26.524536, Alt.=95.342834m. Speed=10.224000m/h.</desc>
<speed>2.840000</speed>
</trkpt>
<trkpt lat="55.985783" lon="26.524555">
<ele>94.768616</ele>
<time>2010-06-20T09:00:06Z</time>
<desc>lat.=55.985783, lon.=26.524555, Alt.=94.768616m. Speed=10.152000m/h.</desc>
<speed>2.820000</speed>
</trkpt>
<trkpt lat="55.985748" lon="26.524582">
<ele>93.786194</ele>
<time>2010-06-20T09:00:07Z</time>
<desc>lat.=55.985748, lon.=26.524582, Alt.=93.786194m. Speed=9.756000m/h.</desc>
<speed>2.710000</speed>
</trkpt>
<trkpt lat="55.985722" lon="26.524591">
<ele>93.311584</ele>
<time>2010-06-20T09:00:08Z</time>
<desc>lat.=55.985722, lon.=26.524591, Alt.=93.311584m. Speed=9.720000m/h.</desc>
<speed>2.700000</speed>
</trkpt>
<trkpt lat="55.985703" lon="26.524595">
<ele>92.626038</ele>
<time>2010-06-20T09:00:09Z</time>
<desc>lat.=55.985703, lon.=26.524595, Alt.=92.626038m. Speed=8.424000m/h.</desc>
<speed>2.340000</speed>
</trkpt>
<trkpt lat="55.985661" lon="26.524607">
<ele>92.270569</ele>
<time>2010-06-20T09:00:10Z</time>
<desc>lat.=55.985661, lon.=26.524607, Alt.=92.270569m. Speed=9.252000m/h.</desc>
<speed>2.570000</speed>
</trkpt>
<trkpt lat="55.985630" lon="26.524616">
<ele>91.741272</ele>
<time>2010-06-20T09:00:11Z</time>
<desc>lat.=55.985630, lon.=26.524616, Alt.=91.741272m. Speed=9.144000m/h.</desc>
<speed>2.540000</speed>
</trkpt>
<trkpt lat="55.985580" lon="26.524639">
<ele>90.690491</ele>
<time>2010-06-20T09:00:12Z</time>
<desc>lat.=55.985580, lon.=26.524639, Alt.=90.690491m. Speed=14.292000m/h.</desc>
<speed>3.970000</speed>
</trkpt>
<trkpt lat="55.985531" lon="26.524645">
<ele>90.424866</ele>
<time>2010-06-20T09:00:13Z</time>
<desc>lat.=55.985531, lon.=26.524645, Alt.=90.424866m. Speed=11.808000m/h.</desc>
<speed>3.280000</speed>
</trkpt>
<trkpt lat="55.985504" lon="26.524647">
<ele>89.635803</ele>
<time>2010-06-20T09:00:14Z</time>
<desc>lat.=55.985504, lon.=26.524647, Alt.=89.635803m. Speed=6.264000m/h.</desc>
<speed>1.740000</speed>
</trkpt>
<trkpt lat="55.985477" lon="26.524633">
<ele>89.501038</ele>
<time>2010-06-20T09:00:15Z</time>
<desc>lat.=55.985477, lon.=26.524633, Alt.=89.501038m. Speed=8.820000m/h.</desc>
<speed>2.450000</speed>
</trkpt>
<trkpt lat="55.985462" lon="26.524626">
<ele>89.514709</ele>
<time>2010-06-20T09:00:16Z</time>
<desc>lat.=55.985462, lon.=26.524626, Alt.=89.514709m. Speed=6.372000m/h.</desc>
<speed>1.770000</speed>
</trkpt>
<trkpt lat="55.985439" lon="26.524626">
<ele>89.737366</ele>
<time>2010-06-20T09:00:17Z</time>
<desc>lat.=55.985439, lon.=26.524626, Alt.=89.737366m. Speed=6.444000m/h.</desc>
<speed>1.790000</speed>
</trkpt>
<trkpt lat="55.985416" lon="26.524630">
<ele>89.612366</ele>
<time>2010-06-20T09:00:18Z</time>
<desc>lat.=55.985416, lon.=26.524630, Alt.=89.612366m. Speed=7.344000m/h.</desc>
<speed>2.040000</speed>
</trkpt>
<trkpt lat="55.985394" lon="26.524633">
<ele>89.774475</ele>
<time>2010-06-20T09:00:19Z</time>
<desc>lat.=55.985394, lon.=26.524633, Alt.=89.774475m. Speed=6.300000m/h.</desc>
<speed>1.750000</speed>
</trkpt>
<trkpt lat="55.985378" lon="26.524628">
<ele>89.614319</ele>
<time>2010-06-20T09:00:20Z</time>
<desc>lat.=55.985378, lon.=26.524628, Alt.=89.614319m. Speed=6.696000m/h.</desc>
<speed>1.860000</speed>
</trkpt>
<trkpt lat="55.985363" lon="26.524632">
<ele>89.606506</ele>
<time>2010-06-20T09:00:21Z</time>
<desc>lat.=55.985363, lon.=26.524632, Alt.=89.606506m. Speed=4.968000m/h.</desc>
<speed>1.380000</speed>
</trkpt>
<trkpt lat="55.985352" lon="26.524628">
<ele>89.588928</ele>
<time>2010-06-20T09:00:22Z</time>
<desc>lat.=55.985352, lon.=26.524628, Alt.=89.588928m. Speed=5.400000m/h.</desc>
<speed>1.500000</speed>
</trkpt>
<trkpt lat="55.985344" lon="26.524609">
<ele>89.463928</ele>
<time>2010-06-20T09:00:23Z</time>
<desc>lat.=55.985344, lon.=26.524609, Alt.=89.463928m. Speed=6.732000m/h.</desc>
<speed>1.870000</speed>
</trkpt>
<trkpt lat="55.985336" lon="26.524586">
<ele>89.547913</ele>
<time>2010-06-20T09:00:24Z</time>
<desc>lat.=55.985336, lon.=26.524586, Alt.=89.547913m. Speed=5.112000m/h.</desc>
<speed>1.420000</speed>
</trkpt>
<trkpt lat="55.985329" lon="26.524569">
<ele>89.448303</ele>
<time>2010-06-20T09:00:25Z</time>
<desc>lat.=55.985329, lon.=26.524569, Alt.=89.448303m. Speed=3.132000m/h.</desc>
<speed>0.870000</speed>
</trkpt>
<trkpt lat="55.985317" lon="26.524549">
<ele>89.532288</ele>
<time>2010-06-20T09:00:26Z</time>
<desc>lat.=55.985317, lon.=26.524549, Alt.=89.532288m. Speed=5.112000m/h.</desc>
<speed>1.420000</speed>
</trkpt>
<trkpt lat="55.985306" lon="26.524519">
<ele>89.887756</ele>
<time>2010-06-20T09:00:27Z</time>
<desc>lat.=55.985306, lon.=26.524519, Alt.=89.887756m. Speed=6.012000m/h.</desc>
<speed>1.670000</speed>
</trkpt>
<trkpt lat="55.985298" lon="26.524490">
<ele>90.213928</ele>
<time>2010-06-20T09:00:28Z</time>
<desc>lat.=55.985298, lon.=26.524490, Alt.=90.213928m. Speed=4.932000m/h.</desc>
<speed>1.370000</speed>
</trkpt>
<trkpt lat="55.985294" lon="26.524443">
<ele>91.127991</ele>
<time>2010-06-20T09:00:29Z</time>
<desc>lat.=55.985294, lon.=26.524443, Alt.=91.127991m. Speed=5.292000m/h.</desc>
<speed>1.470000</speed>
</trkpt>
<trkpt lat="55.985283" lon="26.524387">
<ele>91.669006</ele>
<time>2010-06-20T09:00:30Z</time>
<desc>lat.=55.985283, lon.=26.524387, Alt.=91.669006m. Speed=8.964000m/h.</desc>
<speed>2.490000</speed>
</trkpt>
<trkpt lat="55.985271" lon="26.524340">
<ele>91.911194</ele>
<time>2010-06-20T09:00:31Z</time>
<desc>lat.=55.985271, lon.=26.524340, Alt.=91.911194m. Speed=9.360000m/h.</desc>
<speed>2.600000</speed>
</trkpt>
<trkpt lat="55.985268" lon="26.524290">
<ele>92.127991</ele>
<time>2010-06-20T09:00:32Z</time>
<desc>lat.=55.985268, lon.=26.524290, Alt.=92.127991m. Speed=7.776000m/h.</desc>
<speed>2.160000</speed>
</trkpt>
<trkpt lat="55.985256" lon="26.524244">
<ele>92.294006</ele>
<time>2010-06-20T09:00:33Z</time>
<desc>lat.=55.985256, lon.=26.524244, Alt.=92.294006m. Speed=6.516000m/h.</desc>
<speed>1.810000</speed>
</trkpt>
<trkpt lat="55.985222" lon="26.524185">
<ele>91.860413</ele>
<time>2010-06-20T09:00:34Z</time>
<desc>lat.=55.985222, lon.=26.524185, Alt.=91.860413m. Speed=8.928000m/h.</desc>
<speed>2.480000</speed>
</trkpt>
<trkpt lat="55.985199" lon="26.524134">
<ele>91.377991</ele>
<time>2010-06-20T09:00:35Z</time>
<desc>lat.=55.985199, lon.=26.524134, Alt.=91.377991m. Speed=5.652000m/h.</desc>
<speed>1.570000</speed>
</trkpt>
<trkpt lat="55.985191" lon="26.524099">
<ele>91.286194</ele>
<time>2010-06-20T09:00:36Z</time>
<desc>lat.=55.985191, lon.=26.524099, Alt.=91.286194m. Speed=5.544000m/h.</desc>
<speed>1.540000</speed>
</trkpt>
<trkpt lat="55.985172" lon="26.524065">
<ele>90.860413</ele>
<time>2010-06-20T09:00:37Z</time>
<desc>lat.=55.985172, lon.=26.524065, Alt.=90.860413m. Speed=5.616000m/h.</desc>
<speed>1.560000</speed>
</trkpt>
<trkpt lat="55.985104" lon="26.524008">
<ele>91.159241</ele>
<time>2010-06-20T09:00:38Z</time>
<desc>lat.=55.985104, lon.=26.524008, Alt.=91.159241m. Speed=4.824000m/h.</desc>
<speed>1.340000</speed>
</trkpt>
<trkpt lat="55.985092" lon="26.523973">
<ele>90.624084</ele>
<time>2010-06-20T09:00:39Z</time>
<desc>lat.=55.985092, lon.=26.523973, Alt.=90.624084m. Speed=7.164000m/h.</desc>
<speed>1.990000</speed>
</trkpt>
<trkpt lat="55.985081" lon="26.523911">
<ele>90.958069</ele>
<time>2010-06-20T09:00:40Z</time>
<desc>lat.=55.985081, lon.=26.523911, Alt.=90.958069m. Speed=10.620000m/h.</desc>
<speed>2.950000</speed>
</trkpt>
<trkpt lat="55.985077" lon="26.523832">
<ele>89.448303</ele>
<time>2010-06-20T09:00:41Z</time>
<desc>lat.=55.985077, lon.=26.523832, Alt.=89.448303m. Speed=11.016000m/h.</desc>
<speed>3.060000</speed>
</trkpt>
<trkpt lat="55.985073" lon="26.523787">
<ele>88.950256</ele>
<time>2010-06-20T09:00:42Z</time>
<desc>lat.=55.985073, lon.=26.523787, Alt.=88.950256m. Speed=9.252000m/h.</desc>
<speed>2.570000</speed>
</trkpt>
<trkpt lat="55.985065" lon="26.523714">
<ele>88.885803</ele>
<time>2010-06-20T09:00:43Z</time>
<desc>lat.=55.985065, lon.=26.523714, Alt.=88.885803m. Speed=10.512000m/h.</desc>
<speed>2.920000</speed>
</trkpt>
<trkpt lat="55.985054" lon="26.523663">
<ele>88.268616</ele>
<time>2010-06-20T09:00:44Z</time>
<desc>lat.=55.985054, lon.=26.523663, Alt.=88.268616m. Speed=8.460000m/h.</desc>
<speed>2.350000</speed>
</trkpt>
<trkpt lat="55.985046" lon="26.523617">
<ele>88.219788</ele>
<time>2010-06-20T09:00:45Z</time>
<desc>lat.=55.985046, lon.=26.523617, Alt.=88.219788m. Speed=6.660000m/h.</desc>
<speed>1.850000</speed>
</trkpt>
<trkpt lat="55.985035" lon="26.523582">
<ele>87.506897</ele>
<time>2010-06-20T09:00:46Z</time>
<desc>lat.=55.985035, lon.=26.523582, Alt.=87.506897m. Speed=5.148000m/h.</desc>
<speed>1.430000</speed>
</trkpt>
<trkpt lat="55.985023" lon="26.523535">
<ele>87.557678</ele>
<time>2010-06-20T09:00:47Z</time>
<desc>lat.=55.985023, lon.=26.523535, Alt.=87.557678m. Speed=5.364000m/h.</desc>
<speed>1.490000</speed>
</trkpt>
<trkpt lat="55.984993" lon="26.523476">
<ele>87.506897</ele>
<time>2010-06-20T09:00:48Z</time>
<desc>lat.=55.984993, lon.=26.523476, Alt.=87.506897m. Speed=6.660000m/h.</desc>
<speed>1.850000</speed>
</trkpt>
<trkpt lat="55.984985" lon="26.523424">
<ele>88.237366</ele>
<time>2010-06-20T09:00:49Z</time>
<desc>lat.=55.984985, lon.=26.523424, Alt.=88.237366m. Speed=7.524000m/h.</desc>
<speed>2.090000</speed>
</trkpt>
<trkpt lat="55.984989" lon="26.523369">
<ele>88.889709</ele>
<time>2010-06-20T09:00:50Z</time>
<desc>lat.=55.984989, lon.=26.523369, Alt.=88.889709m. Speed=7.992000m/h.</desc>
<speed>2.220000</speed>
</trkpt>
<trkpt lat="55.984989" lon="26.523315">
<ele>88.940491</ele>
<time>2010-06-20T09:00:51Z</time>
<desc>lat.=55.984989, lon.=26.523315, Alt.=88.940491m. Speed=7.200000m/h.</desc>
<speed>2.000000</speed>
</trkpt>
<trkpt lat="55.984985" lon="26.523270">
<ele>88.622131</ele>
<time>2010-06-20T09:00:52Z</time>
<desc>lat.=55.984985, lon.=26.523270, Alt.=88.622131m. Speed=7.920000m/h.</desc>
<speed>2.200000</speed>
</trkpt>
<trkpt lat="55.984993" lon="26.523212">
<ele>88.481506</ele>
<time>2010-06-20T09:00:53Z</time>
<desc>lat.=55.984993, lon.=26.523212, Alt.=88.481506m. Speed=7.056000m/h.</desc>
<speed>1.960000</speed>
</trkpt>
<trkpt lat="55.985001" lon="26.523159">
<ele>89.268616</ele>
<time>2010-06-20T09:00:54Z</time>
<desc>lat.=55.985001, lon.=26.523159, Alt.=89.268616m. Speed=7.992000m/h.</desc>
<speed>2.220000</speed>
</trkpt>
<trkpt lat="55.985004" lon="26.523119">
<ele>89.516663</ele>
<time>2010-06-20T09:00:55Z</time>
<desc>lat.=55.985004, lon.=26.523119, Alt.=89.516663m. Speed=6.804000m/h.</desc>
<speed>1.890000</speed>
</trkpt>
<trkpt lat="55.985004" lon="26.523079">
<ele>89.622131</ele>
<time>2010-06-20T09:00:56Z</time>
<desc>lat.=55.985004, lon.=26.523079, Alt.=89.622131m. Speed=7.452000m/h.</desc>
<speed>2.070000</speed>
</trkpt>
<trkpt lat="55.985012" lon="26.523031">
<ele>90.065491</ele>
<time>2010-06-20T09:00:57Z</time>
<desc>lat.=55.985012, lon.=26.523031, Alt.=90.065491m. Speed=6.408000m/h.</desc>
<speed>1.780000</speed>
</trkpt>
<trkpt lat="55.985027" lon="26.522985">
<ele>89.776428</ele>
<time>2010-06-20T09:00:58Z</time>
<desc>lat.=55.985027, lon.=26.522985, Alt.=89.776428m. Speed=10.188000m/h.</desc>
<speed>2.830000</speed>
</trkpt>
<trkpt lat="55.985043" lon="26.522924">
<ele>89.692444</ele>
<time>2010-06-20T09:00:59Z</time>
<desc>lat.=55.985043, lon.=26.522924, Alt.=89.692444m. Speed=11.376000m/h.</desc>
<speed>3.160000</speed>
</trkpt>
<trkpt lat="55.985046" lon="26.522879">
<ele>88.948303</ele>
<time>2010-06-20T09:01:00Z</time>
<desc>lat.=55.985046, lon.=26.522879, Alt.=88.948303m. Speed=9.216000m/h.</desc>
<speed>2.560000</speed>
</trkpt>
<trkpt lat="55.985050" lon="26.522842">
<ele>88.581116</ele>
<time>2010-06-20T09:01:01Z</time>
<desc>lat.=55.985050, lon.=26.522842, Alt.=88.581116m. Speed=5.400000m/h.</desc>
<speed>1.500000</speed>
</trkpt>
<trkpt lat="55.985065" lon="26.522783">
<ele>86.682678</ele>
<time>2010-06-20T09:01:02Z</time>
<desc>lat.=55.985065, lon.=26.522783, Alt.=86.682678m. Speed=8.496000m/h.</desc>
<speed>2.360000</speed>
</trkpt>
<trkpt lat="55.985092" lon="26.522707">
<ele>84.542053</ele>
<time>2010-06-20T09:01:03Z</time>
<desc>lat.=55.985092, lon.=26.522707, Alt.=84.542053m. Speed=6.300000m/h.</desc>
<speed>1.750000</speed>
</trkpt>
<trkpt lat="55.985126" lon="26.522648">
<ele>84.219788</ele>
<time>2010-06-20T09:01:04Z</time>
<desc>lat.=55.985126, lon.=26.522648, Alt.=84.219788m. Speed=8.496000m/h.</desc>
<speed>2.360000</speed>
</trkpt>
<trkpt lat="55.985142" lon="26.522619">
<ele>84.008850</ele>
<time>2010-06-20T09:01:05Z</time>
<desc>lat.=55.985142, lon.=26.522619, Alt.=84.008850m. Speed=11.556000m/h.</desc>
<speed>3.210000</speed>
</trkpt>
<trkpt lat="55.985161" lon="26.522549">
<ele>82.956116</ele>
<time>2010-06-20T09:01:06Z</time>
<desc>lat.=55.985161, lon.=26.522549, Alt.=82.956116m. Speed=11.736000m/h.</desc>
<speed>3.260000</speed>
</trkpt>
<trkpt lat="55.985180" lon="26.522511">
<ele>82.604553</ele>
<time>2010-06-20T09:01:07Z</time>
<desc>lat.=55.985180, lon.=26.522511, Alt.=82.604553m. Speed=13.968000m/h.</desc>
<speed>3.880000</speed>
</trkpt>
<trkpt lat="55.985195" lon="26.522448">
<ele>83.233459</ele>
<time>2010-06-20T09:01:08Z</time>
<desc>lat.=55.985195, lon.=26.522448, Alt.=83.233459m. Speed=11.736000m/h.</desc>
<speed>3.260000</speed>
</trkpt>
<trkpt lat="55.985210" lon="26.522375">
<ele>84.188538</ele>
<time>2010-06-20T09:01:09Z</time>
<desc>lat.=55.985210, lon.=26.522375, Alt.=84.188538m. Speed=9.504000m/h.</desc>
<speed>2.640000</speed>
</trkpt>
<trkpt lat="55.985229" lon="26.522293">
<ele>83.081116</ele>
<time>2010-06-20T09:01:10Z</time>
<desc>lat.=55.985229, lon.=26.522293, Alt.=83.081116m. Speed=10.476000m/h.</desc>
<speed>2.910000</speed>
</trkpt>
<trkpt lat="55.985241" lon="26.522230">
<ele>83.407288</ele>
<time>2010-06-20T09:01:11Z</time>
<desc>lat.=55.985241, lon.=26.522230, Alt.=83.407288m. Speed=9.828000m/h.</desc>
<speed>2.730000</speed>
</trkpt>
<trkpt lat="55.985241" lon="26.522144">
<ele>81.055725</ele>
<time>2010-06-20T09:01:12Z</time>
<desc>lat.=55.985241, lon.=26.522144, Alt.=81.055725m. Speed=9.036000m/h.</desc>
<speed>2.510000</speed>
</trkpt>
<trkpt lat="55.985291" lon="26.522045">
<ele>81.731506</ele>
<time>2010-06-20T09:01:13Z</time>
<desc>lat.=55.985291, lon.=26.522045, Alt.=81.731506m. Speed=9.720000m/h.</desc>
<speed>2.700000</speed>
</trkpt>
<trkpt lat="55.985302" lon="26.521988">
<ele>81.143616</ele>
<time>2010-06-20T09:01:14Z</time>
<desc>lat.=55.985302, lon.=26.521988, Alt.=81.143616m. Speed=8.676000m/h.</desc>
<speed>2.410000</speed>
</trkpt>
<trkpt lat="55.985310" lon="26.521942">
<ele>80.678772</ele>
<time>2010-06-20T09:01:15Z</time>
<desc>lat.=55.985310, lon.=26.521942, Alt.=80.678772m. Speed=7.020000m/h.</desc>
<speed>1.950000</speed>
</trkpt>
<trkpt lat="55.985348" lon="26.521858">
<ele>80.126038</ele>
<time>2010-06-20T09:01:16Z</time>
<desc>lat.=55.985348, lon.=26.521858, Alt.=80.126038m. Speed=10.620000m/h.</desc>
<speed>2.950000</speed>
</trkpt>
<trkpt lat="55.985359" lon="26.521805">
<ele>79.840881</ele>
<time>2010-06-20T09:01:17Z</time>
<desc>lat.=55.985359, lon.=26.521805, Alt.=79.840881m. Speed=6.948000m/h.</desc>
<speed>1.930000</speed>
</trkpt>
<trkpt lat="55.985367" lon="26.521746">
<ele>79.989319</ele>
<time>2010-06-20T09:01:18Z</time>
<desc>lat.=55.985367, lon.=26.521746, Alt.=79.989319m. Speed=8.208000m/h.</desc>
<speed>2.280000</speed>
</trkpt>
<trkpt lat="55.985382" lon="26.521692">
<ele>80.169006</ele>
<time>2010-06-20T09:01:19Z</time>
<desc>lat.=55.985382, lon.=26.521692, Alt.=80.169006m. Speed=7.452000m/h.</desc>
<speed>2.070000</speed>
</trkpt>
<trkpt lat="55.985390" lon="26.521637">
<ele>79.303772</ele>
<time>2010-06-20T09:01:20Z</time>
<desc>lat.=55.985390, lon.=26.521637, Alt.=79.303772m. Speed=9.072000m/h.</desc>
<speed>2.520000</speed>
</trkpt>
<trkpt lat="55.985401" lon="26.521589">
<ele>77.930725</ele>
<time>2010-06-20T09:01:21Z</time>
<desc>lat.=55.985401, lon.=26.521589, Alt.=77.930725m. Speed=8.172000m/h.</desc>
<speed>2.270000</speed>
</trkpt>
<trkpt lat="55.985405" lon="26.521534">
<ele>76.126038</ele>
<time>2010-06-20T09:01:22Z</time>
<desc>lat.=55.985405, lon.=26.521534, Alt.=76.126038m. Speed=5.148000m/h.</desc>
<speed>1.430000</speed>
</trkpt>
<trkpt lat="55.985413" lon="26.521484">
<ele>75.655334</ele>
<time>2010-06-20T09:01:23Z</time>
<desc>lat.=55.985413, lon.=26.521484, Alt.=75.655334m. Speed=5.904000m/h.</desc>
<speed>1.640000</speed>
</trkpt>
<trkpt lat="55.985416" lon="26.521425">
<ele>74.544006</ele>
<time>2010-06-20T09:01:24Z</time>
<desc>lat.=55.985416, lon.=26.521425, Alt.=74.544006m. Speed=8.424000m/h.</desc>
<speed>2.340000</speed>
</trkpt>
<trkpt lat="55.985420" lon="26.521374">
<ele>73.329163</ele>
<time>2010-06-20T09:01:25Z</time>
<desc>lat.=55.985420, lon.=26.521374, Alt.=73.329163m. Speed=6.732000m/h.</desc>
<speed>1.870000</speed>
</trkpt>
<trkpt lat="55.985424" lon="26.521328">
<ele>72.014709</ele>
<time>2010-06-20T09:01:26Z</time>
<desc>lat.=55.985424, lon.=26.521328, Alt.=72.014709m. Speed=8.064000m/h.</desc>
<speed>2.240000</speed>
</trkpt>
<trkpt lat="55.985435" lon="26.521248">
<ele>73.141663</ele>
<time>2010-06-20T09:01:27Z</time>
<desc>lat.=55.985435, lon.=26.521248, Alt.=73.141663m. Speed=8.244000m/h.</desc>
<speed>2.290000</speed>
</trkpt>
<trkpt lat="55.985435" lon="26.521189">
<ele>71.838928</ele>
<time>2010-06-20T09:01:28Z</time>
<desc>lat.=55.985435, lon.=26.521189, Alt.=71.838928m. Speed=8.280000m/h.</desc>
<speed>2.300000</speed>
</trkpt>
<trkpt lat="55.985451" lon="26.521107">
<ele>71.256897</ele>
<time>2010-06-20T09:01:29Z</time>
<desc>lat.=55.985451, lon.=26.521107, Alt.=71.256897m. Speed=8.172000m/h.</desc>
<speed>2.270000</speed>
</trkpt>
<trkpt lat="55.985466" lon="26.521046">
<ele>70.854553</ele>
<time>2010-06-20T09:01:30Z</time>
<desc>lat.=55.985466, lon.=26.521046, Alt.=70.854553m. Speed=7.344000m/h.</desc>
<speed>2.040000</speed>
</trkpt>
<trkpt lat="55.985477" lon="26.520967">
<ele>71.610413</ele>
<time>2010-06-20T09:01:31Z</time>
<desc>lat.=55.985477, lon.=26.520967, Alt.=71.610413m. Speed=7.560000m/h.</desc>
<speed>2.100000</speed>
</trkpt>
<trkpt lat="55.985497" lon="26.520908">
<ele>72.159241</ele>
<time>2010-06-20T09:01:32Z</time>
<desc>lat.=55.985497, lon.=26.520908, Alt.=72.159241m. Speed=6.948000m/h.</desc>
<speed>1.930000</speed>
</trkpt>
<trkpt lat="55.985516" lon="26.520853">
<ele>72.008850</ele>
<time>2010-06-20T09:01:33Z</time>
<desc>lat.=55.985516, lon.=26.520853, Alt.=72.008850m. Speed=6.120000m/h.</desc>
<speed>1.700000</speed>
</trkpt>
<trkpt lat="55.985558" lon="26.520773">
<ele>70.786194</ele>
<time>2010-06-20T09:01:34Z</time>
<desc>lat.=55.985558, lon.=26.520773, Alt.=70.786194m. Speed=10.260000m/h.</desc>
<speed>2.850000</speed>
</trkpt>
<trkpt lat="55.985580" lon="26.520718">
<ele>70.766663</ele>
<time>2010-06-20T09:01:35Z</time>
<desc>lat.=55.985580, lon.=26.520718, Alt.=70.766663m. Speed=8.712000m/h.</desc>
<speed>2.420000</speed>
</trkpt>
<trkpt lat="55.985600" lon="26.520660">
<ele>71.393616</ele>
<time>2010-06-20T09:01:36Z</time>
<desc>lat.=55.985600, lon.=26.520660, Alt.=71.393616m. Speed=8.316000m/h.</desc>
<speed>2.310000</speed>
</trkpt>
<trkpt lat="55.985615" lon="26.520626">
<ele>71.254944</ele>
<time>2010-06-20T09:01:37Z</time>
<desc>lat.=55.985615, lon.=26.520626, Alt.=71.254944m. Speed=5.616000m/h.</desc>
<speed>1.560000</speed>
</trkpt>
<trkpt lat="55.985615" lon="26.520596">
<ele>70.780334</ele>
<time>2010-06-20T09:01:38Z</time>
<desc>lat.=55.985615, lon.=26.520596, Alt.=70.780334m. Speed=4.896000m/h.</desc>
<speed>1.360000</speed>
</trkpt>
<trkpt lat="55.985619" lon="26.520563">
<ele>70.450256</ele>
<time>2010-06-20T09:01:39Z</time>
<desc>lat.=55.985619, lon.=26.520563, Alt.=70.450256m. Speed=4.572000m/h.</desc>
<speed>1.270000</speed>
</trkpt>
<trkpt lat="55.985638" lon="26.520525">
<ele>70.329163</ele>
<time>2010-06-20T09:01:40Z</time>
<desc>lat.=55.985638, lon.=26.520525, Alt.=70.329163m. Speed=5.904000m/h.</desc>
<speed>1.640000</speed>
</trkpt>
<trkpt lat="55.985653" lon="26.520500">
<ele>70.083069</ele>
<time>2010-06-20T09:01:41Z</time>
<desc>lat.=55.985653, lon.=26.520500, Alt.=70.083069m. Speed=2.844000m/h.</desc>
<speed>0.790000</speed>
</trkpt>
<trkpt lat="55.985653" lon="26.520479">
<ele>69.458069</ele>
<time>2010-06-20T09:01:42Z</time>
<desc>lat.=55.985653, lon.=26.520479, Alt.=69.458069m. Speed=3.600000m/h.</desc>
<speed>1.000000</speed>
</trkpt>
<trkpt lat="55.985657" lon="26.520464">
<ele>68.852600</ele>
<time>2010-06-20T09:01:43Z</time>
<desc>lat.=55.985657, lon.=26.520464, Alt.=68.852600m. Speed=4.392000m/h.</desc>
<speed>1.220000</speed>
</trkpt>
<trkpt lat="55.985664" lon="26.520418">
<ele>67.626038</ele>
<time>2010-06-20T09:01:44Z</time>
<desc>lat.=55.985664, lon.=26.520418, Alt.=67.626038m. Speed=4.536000m/h.</desc>
<speed>1.260000</speed>
</trkpt>
<trkpt lat="55.985680" lon="26.520390">
<ele>66.356506</ele>
<time>2010-06-20T09:01:45Z</time>
<desc>lat.=55.985680, lon.=26.520390, Alt.=66.356506m. Speed=5.580000m/h.</desc>
<speed>1.550000</speed>
</trkpt>
<trkpt lat="55.985691" lon="26.520351">
<ele>64.883850</ele>
<time>2010-06-20T09:01:46Z</time>
<desc>lat.=55.985691, lon.=26.520351, Alt.=64.883850m. Speed=5.904000m/h.</desc>
<speed>1.640000</speed>
</trkpt>
<trkpt lat="55.985703" lon="26.520325">
<ele>64.395569</ele>
<time>2010-06-20T09:01:47Z</time>
<desc>lat.=55.985703, lon.=26.520325, Alt.=64.395569m. Speed=5.688000m/h.</desc>
<speed>1.580000</speed>
</trkpt>
<trkpt lat="55.985710" lon="26.520285">
<ele>64.897522</ele>
<time>2010-06-20T09:01:48Z</time>
<desc>lat.=55.985710, lon.=26.520285, Alt.=64.897522m. Speed=5.832000m/h.</desc>
<speed>1.620000</speed>
</trkpt>
<trkpt lat="55.985733" lon="26.520241">
<ele>64.790100</ele>
<time>2010-06-20T09:01:49Z</time>
<desc>lat.=55.985733, lon.=26.520241, Alt.=64.790100m. Speed=8.280000m/h.</desc>
<speed>2.300000</speed>
</trkpt>
<trkpt lat="55.985767" lon="26.520201">
<ele>64.883850</ele>
<time>2010-06-20T09:01:50Z</time>
<desc>lat.=55.985767, lon.=26.520201, Alt.=64.883850m. Speed=8.784000m/h.</desc>
<speed>2.440000</speed>
</trkpt>
<trkpt lat="55.985790" lon="26.520161">
<ele>65.102600</ele>
<time>2010-06-20T09:01:51Z</time>
<desc>lat.=55.985790, lon.=26.520161, Alt.=65.102600m. Speed=5.292000m/h.</desc>
<speed>1.470000</speed>
</trkpt>
<trkpt lat="55.985802" lon="26.520128">
<ele>66.012756</ele>
<time>2010-06-20T09:01:52Z</time>
<desc>lat.=55.985802, lon.=26.520128, Alt.=66.012756m. Speed=6.768000m/h.</desc>
<speed>1.880000</speed>
</trkpt>
<trkpt lat="55.985809" lon="26.520094">
<ele>67.344788</ele>
<time>2010-06-20T09:01:53Z</time>
<desc>lat.=55.985809, lon.=26.520094, Alt.=67.344788m. Speed=7.416000m/h.</desc>
<speed>2.060000</speed>
</trkpt>
<trkpt lat="55.985832" lon="26.520048">
<ele>67.344788</ele>
<time>2010-06-20T09:01:54Z</time>
<desc>lat.=55.985832, lon.=26.520048, Alt.=67.344788m. Speed=9.144000m/h.</desc>
<speed>2.540000</speed>
</trkpt>
<trkpt lat="55.985859" lon="26.520018">
<ele>67.547913</ele>
<time>2010-06-20T09:01:55Z</time>
<desc>lat.=55.985859, lon.=26.520018, Alt.=67.547913m. Speed=8.280000m/h.</desc>
<speed>2.300000</speed>
</trkpt>
<trkpt lat="55.985863" lon="26.519947">
<ele>67.633850</ele>
<time>2010-06-20T09:01:56Z</time>
<desc>lat.=55.985863, lon.=26.519947, Alt.=67.633850m. Speed=8.712000m/h.</desc>
<speed>2.420000</speed>
</trkpt>
<trkpt lat="55.985878" lon="26.519892">
<ele>67.528381</ele>
<time>2010-06-20T09:01:57Z</time>
<desc>lat.=55.985878, lon.=26.519892, Alt.=67.528381m. Speed=8.928000m/h.</desc>
<speed>2.480000</speed>
</trkpt>
<trkpt lat="55.985893" lon="26.519848">
<ele>67.379944</ele>
<time>2010-06-20T09:01:58Z</time>
<desc>lat.=55.985893, lon.=26.519848, Alt.=67.379944m. Speed=9.936000m/h.</desc>
<speed>2.760000</speed>
</trkpt>
<trkpt lat="55.985912" lon="26.519785">
<ele>67.827209</ele>
<time>2010-06-20T09:01:59Z</time>
<desc>lat.=55.985912, lon.=26.519785, Alt.=67.827209m. Speed=9.972000m/h.</desc>
<speed>2.770000</speed>
</trkpt>
<trkpt lat="55.985928" lon="26.519737">
<ele>67.950256</ele>
<time>2010-06-20T09:02:00Z</time>
<desc>lat.=55.985928, lon.=26.519737, Alt.=67.950256m. Speed=9.792000m/h.</desc>
<speed>2.720000</speed>
</trkpt>
<trkpt lat="55.985943" lon="26.519690">
<ele>68.805725</ele>
<time>2010-06-20T09:02:01Z</time>
<desc>lat.=55.985943, lon.=26.519690, Alt.=68.805725m. Speed=10.476000m/h.</desc>
<speed>2.910000</speed>
</trkpt>
<trkpt lat="55.985966" lon="26.519640">
<ele>69.790100</ele>
<time>2010-06-20T09:02:02Z</time>
<desc>lat.=55.985966, lon.=26.519640, Alt.=69.790100m. Speed=9.108000m/h.</desc>
<speed>2.530000</speed>
</trkpt>
<trkpt lat="55.985977" lon="26.519596">
<ele>70.866272</ele>
<time>2010-06-20T09:02:03Z</time>
<desc>lat.=55.985977, lon.=26.519596, Alt.=70.866272m. Speed=6.228000m/h.</desc>
<speed>1.730000</speed>
</trkpt>
<trkpt lat="55.985989" lon="26.519558">
<ele>71.842834</ele>
<time>2010-06-20T09:02:04Z</time>
<desc>lat.=55.985989, lon.=26.519558, Alt.=71.842834m. Speed=4.752000m/h.</desc>
<speed>1.320000</speed>
</trkpt>
<trkpt lat="55.985996" lon="26.519539">
<ele>72.170959</ele>
<time>2010-06-20T09:02:05Z</time>
<desc>lat.=55.985996, lon.=26.519539, Alt.=72.170959m. Speed=2.268000m/h.</desc>
<speed>0.630000</speed>
</trkpt>
<trkpt lat="55.985996" lon="26.519524">
<ele>72.280334</ele>
<time>2010-06-20T09:02:06Z</time>
<desc>lat.=55.985996, lon.=26.519524, Alt.=72.280334m. Speed=1.692000m/h.</desc>
<speed>0.470000</speed>
</trkpt>
<trkpt lat="55.985992" lon="26.519508">
<ele>72.581116</ele>
<time>2010-06-20T09:02:07Z</time>
<desc>lat.=55.985992, lon.=26.519508, Alt.=72.581116m. Speed=1.260000m/h.</desc>
<speed>0.350000</speed>
</trkpt>
<trkpt lat="55.985992" lon="26.519489">
<ele>73.307678</ele>
<time>2010-06-20T09:02:08Z</time>
<desc>lat.=55.985992, lon.=26.519489, Alt.=73.307678m. Speed=0.864000m/h.</desc>
<speed>0.240000</speed>
</trkpt>
<trkpt lat="55.985989" lon="26.519485">
<ele>72.903381</ele>
<time>2010-06-20T09:02:09Z</time>
<desc>lat.=55.985989, lon.=26.519485, Alt.=72.903381m. Speed=2.448000m/h.</desc>
<speed>0.680000</speed>
</trkpt>
<trkpt lat="55.985992" lon="26.519476">
<ele>72.602600</ele>
<time>2010-06-20T09:02:10Z</time>
<desc>lat.=55.985992, lon.=26.519476, Alt.=72.602600m. Speed=3.240000m/h.</desc>
<speed>0.900000</speed>
</trkpt>
<trkpt lat="55.985996" lon="26.519463">
<ele>72.325256</ele>
<time>2010-06-20T09:02:11Z</time>
<desc>lat.=55.985996, lon.=26.519463, Alt.=72.325256m. Speed=2.736000m/h.</desc>
<speed>0.760000</speed>
</trkpt>
<trkpt lat="55.986000" lon="26.519453">
<ele>72.057678</ele>
<time>2010-06-20T09:02:12Z</time>
<desc>lat.=55.986000, lon.=26.519453, Alt.=72.057678m. Speed=3.276000m/h.</desc>
<speed>0.910000</speed>
</trkpt>
<trkpt lat="55.986008" lon="26.519440">
<ele>71.794006</ele>
<time>2010-06-20T09:02:13Z</time>
<desc>lat.=55.986008, lon.=26.519440, Alt.=71.794006m. Speed=4.140000m/h.</desc>
<speed>1.150000</speed>
</trkpt>
<trkpt lat="55.986015" lon="26.519394">
<ele>73.126038</ele>
<time>2010-06-20T09:02:14Z</time>
<desc>lat.=55.986015, lon.=26.519394, Alt.=73.126038m. Speed=4.752000m/h.</desc>
<speed>1.320000</speed>
</trkpt>
<trkpt lat="55.986031" lon="26.519361">
<ele>73.868225</ele>
<time>2010-06-20T09:02:15Z</time>
<desc>lat.=55.986031, lon.=26.519361, Alt.=73.868225m. Speed=4.284000m/h.</desc>
<speed>1.190000</speed>
</trkpt>
<trkpt lat="55.986042" lon="26.519327">
<ele>75.085022</ele>
<time>2010-06-20T09:02:16Z</time>
<desc>lat.=55.986042, lon.=26.519327, Alt.=75.085022m. Speed=5.004000m/h.</desc>
<speed>1.390000</speed>
</trkpt>
<trkpt lat="55.986050" lon="26.519293">
<ele>77.870178</ele>
<time>2010-06-20T09:02:17Z</time>
<desc>lat.=55.986050, lon.=26.519293, Alt.=77.870178m. Speed=4.536000m/h.</desc>
<speed>1.260000</speed>
</trkpt>
<trkpt lat="55.986065" lon="26.519255">
<ele>79.034241</ele>
<time>2010-06-20T09:02:18Z</time>
<desc>lat.=55.986065, lon.=26.519255, Alt.=79.034241m. Speed=3.960000m/h.</desc>
<speed>1.100000</speed>
</trkpt>
<trkpt lat="55.986076" lon="26.519236">
<ele>79.629944</ele>
<time>2010-06-20T09:02:19Z</time>
<desc>lat.=55.986076, lon.=26.519236, Alt.=79.629944m. Speed=4.608000m/h.</desc>
<speed>1.280000</speed>
</trkpt>
<trkpt lat="55.986080" lon="26.519196">
<ele>81.086975</ele>
<time>2010-06-20T09:02:20Z</time>
<desc>lat.=55.986080, lon.=26.519196, Alt.=81.086975m. Speed=3.924000m/h.</desc>
<speed>1.090000</speed>
</trkpt>
<trkpt lat="55.986088" lon="26.519169">
<ele>82.366272</ele>
<time>2010-06-20T09:02:21Z</time>
<desc>lat.=55.986088, lon.=26.519169, Alt.=82.366272m. Speed=3.672000m/h.</desc>
<speed>1.020000</speed>
</trkpt>
<trkpt lat="55.986095" lon="26.519150">
<ele>82.465881</ele>
<time>2010-06-20T09:02:22Z</time>
<desc>lat.=55.986095, lon.=26.519150, Alt.=82.465881m. Speed=2.304000m/h.</desc>
<speed>0.640000</speed>
</trkpt>
<trkpt lat="55.986088" lon="26.519129">
<ele>83.655334</ele>
<time>2010-06-20T09:02:23Z</time>
<desc>lat.=55.986088, lon.=26.519129, Alt.=83.655334m. Speed=0.792000m/h.</desc>
<speed>0.220000</speed>
</trkpt>
<trkpt lat="55.986088" lon="26.519115">
<ele>84.747131</ele>
<time>2010-06-20T09:02:24Z</time>
<desc>lat.=55.986088, lon.=26.519115, Alt.=84.747131m. Speed=0.072000m/h.</desc>
<speed>0.020000</speed>
</trkpt>
<trkpt lat="55.986088" lon="26.519094">
<ele>85.737366</ele>
<time>2010-06-20T09:02:25Z</time>
<desc>lat.=55.986088, lon.=26.519094, Alt.=85.737366m. Speed=0.576000m/h.</desc>
<speed>0.160000</speed>
</trkpt>
<trkpt lat="55.986092" lon="26.519073">
<ele>86.747131</ele>
<time>2010-06-20T09:02:26Z</time>
<desc>lat.=55.986092, lon.=26.519073, Alt.=86.747131m. Speed=0.540000m/h.</desc>
<speed>0.150000</speed>
</trkpt>
<trkpt lat="55.986095" lon="26.519072">
<ele>86.729553</ele>
<time>2010-06-20T09:02:27Z</time>
<desc>lat.=55.986095, lon.=26.519072, Alt.=86.729553m. Speed=0.108000m/h.</desc>
<speed>0.030000</speed>
</trkpt>
<trkpt lat="55.986095" lon="26.519072">
<ele>86.739319</ele>
<time>2010-06-20T09:02:28Z</time>
<desc>lat.=55.986095, lon.=26.519072, Alt.=86.739319m. Speed=0.108000m/h.</desc>
<speed>0.030000</speed>
</trkpt>
<trkpt lat="55.986092" lon="26.519070">
<ele>86.745178</ele>
<time>2010-06-20T09:02:29Z</time>
<desc>lat.=55.986092, lon.=26.519070, Alt.=86.745178m. Speed=0.072000m/h.</desc>
<speed>0.020000</speed>
</trkpt>
<trkpt lat="55.986092" lon="26.519070">
<ele>86.713928</ele>
<time>2010-06-20T09:02:30Z</time>
<desc>lat.=55.986092, lon.=26.519070, Alt.=86.713928m. Speed=0.144000m/h.</desc>
<speed>0.040000</speed>
</trkpt>
<trkpt lat="55.986092" lon="26.519070">
<ele>86.676819</ele>
<time>2010-06-20T09:02:31Z</time>
<desc>lat.=55.986092, lon.=26.519070, Alt.=86.676819m. Speed=0.108000m/h.</desc>
<speed>0.030000</speed>
</trkpt>
<trkpt lat="55.986092" lon="26.519070">
<ele>86.651428</ele>
<time>2010-06-20T09:02:32Z</time>
<desc>lat.=55.986092, lon.=26.519070, Alt.=86.651428m. Speed=0.324000m/h.</desc>
<speed>0.090000</speed>
</trkpt>
<trkpt lat="55.986092" lon="26.519072">
<ele>86.606506</ele>
<time>2010-06-20T09:02:33Z</time>
<desc>lat.=55.986092, lon.=26.519072, Alt.=86.606506m. Speed=0.468000m/h.</desc>
<speed>0.130000</speed>
</trkpt>
<trkpt lat="55.986095" lon="26.519070">
<ele>86.569397</ele>
<time>2010-06-20T09:02:34Z</time>
<desc>lat.=55.986095, lon.=26.519070, Alt.=86.569397m. Speed=0.936000m/h.</desc>
<speed>0.260000</speed>
</trkpt>
<trkpt lat="55.986095" lon="26.519068">
<ele>86.532288</ele>
<time>2010-06-20T09:02:35Z</time>
<desc>lat.=55.986095, lon.=26.519068, Alt.=86.532288m. Speed=1.296000m/h.</desc>
<speed>0.360000</speed>
</trkpt>
<trkpt lat="55.986099" lon="26.519060">
<ele>86.463928</ele>
<time>2010-06-20T09:02:36Z</time>
<desc>lat.=55.986099, lon.=26.519060, Alt.=86.463928m. Speed=1.404000m/h.</desc>
<speed>0.390000</speed>
</trkpt>
<trkpt lat="55.986103" lon="26.519054">
<ele>86.592834</ele>
<time>2010-06-20T09:02:37Z</time>
<desc>lat.=55.986103, lon.=26.519054, Alt.=86.592834m. Speed=0.720000m/h.</desc>
<speed>0.200000</speed>
</trkpt>
<trkpt lat="55.986107" lon="26.519049">
<ele>86.579163</ele>
<time>2010-06-20T09:02:38Z</time>
<desc>lat.=55.986107, lon.=26.519049, Alt.=86.579163m. Speed=0.576000m/h.</desc>
<speed>0.160000</speed>
</trkpt>
<trkpt lat="55.986118" lon="26.519037">
<ele>86.655334</ele>
<time>2010-06-20T09:02:39Z</time>
<desc>lat.=55.986118, lon.=26.519037, Alt.=86.655334m. Speed=2.808000m/h.</desc>
<speed>0.780000</speed>
</trkpt>
<trkpt lat="55.986126" lon="26.519022">
<ele>86.676819</ele>
<time>2010-06-20T09:02:40Z</time>
<desc>lat.=55.986126, lon.=26.519022, Alt.=86.676819m. Speed=3.492000m/h.</desc>
<speed>0.970000</speed>
</trkpt>
<trkpt lat="55.986137" lon="26.519009">
<ele>86.719788</ele>
<time>2010-06-20T09:02:41Z</time>
<desc>lat.=55.986137, lon.=26.519009, Alt.=86.719788m. Speed=2.880000m/h.</desc>
<speed>0.800000</speed>
</trkpt>
<trkpt lat="55.986141" lon="26.518990">
<ele>87.518616</ele>
<time>2010-06-20T09:02:42Z</time>
<desc>lat.=55.986141, lon.=26.518990, Alt.=87.518616m. Speed=4.356000m/h.</desc>
<speed>1.210000</speed>
</trkpt>
<trkpt lat="55.986149" lon="26.518972">
<ele>87.811584</ele>
<time>2010-06-20T09:02:43Z</time>
<desc>lat.=55.986149, lon.=26.518972, Alt.=87.811584m. Speed=4.644000m/h.</desc>
<speed>1.290000</speed>
</trkpt>
<trkpt lat="55.986160" lon="26.518955">
<ele>88.045959</ele>
<time>2010-06-20T09:02:44Z</time>
<desc>lat.=55.986160, lon.=26.518955, Alt.=88.045959m. Speed=4.356000m/h.</desc>
<speed>1.210000</speed>
</trkpt>
<trkpt lat="55.986168" lon="26.518938">
<ele>88.331116</ele>
<time>2010-06-20T09:02:45Z</time>
<desc>lat.=55.986168, lon.=26.518938, Alt.=88.331116m. Speed=4.716000m/h.</desc>
<speed>1.310000</speed>
</trkpt>
<trkpt lat="55.986168" lon="26.518917">
<ele>88.663147</ele>
<time>2010-06-20T09:02:46Z</time>
<desc>lat.=55.986168, lon.=26.518917, Alt.=88.663147m. Speed=3.960000m/h.</desc>
<speed>1.100000</speed>
</trkpt>
<trkpt lat="55.986187" lon="26.518892">
<ele>89.301819</ele>
<time>2010-06-20T09:02:47Z</time>
<desc>lat.=55.986187, lon.=26.518892, Alt.=89.301819m. Speed=8.640000m/h.</desc>
<speed>2.400000</speed>
</trkpt>
<trkpt lat="55.986202" lon="26.518867">
<ele>89.733459</ele>
<time>2010-06-20T09:02:48Z</time>
<desc>lat.=55.986202, lon.=26.518867, Alt.=89.733459m. Speed=7.560000m/h.</desc>
<speed>2.100000</speed>
</trkpt>
<trkpt lat="55.986214" lon="26.518833">
<ele>90.133850</ele>
<time>2010-06-20T09:02:49Z</time>
<desc>lat.=55.986214, lon.=26.518833, Alt.=90.133850m. Speed=7.776000m/h.</desc>
<speed>2.160000</speed>
</trkpt>
<trkpt lat="55.986225" lon="26.518806">
<ele>90.606506</ele>
<time>2010-06-20T09:02:50Z</time>
<desc>lat.=55.986225, lon.=26.518806, Alt.=90.606506m. Speed=5.328000m/h.</desc>
<speed>1.480000</speed>
</trkpt>
<trkpt lat="55.986237" lon="26.518785">
<ele>90.920959</ele>
<time>2010-06-20T09:02:51Z</time>
<desc>lat.=55.986237, lon.=26.518785, Alt.=90.920959m. Speed=5.580000m/h.</desc>
<speed>1.550000</speed>
</trkpt>
<trkpt lat="55.986244" lon="26.518763">
<ele>91.208069</ele>
<time>2010-06-20T09:02:52Z</time>
<desc>lat.=55.986244, lon.=26.518763, Alt.=91.208069m. Speed=5.040000m/h.</desc>
<speed>1.400000</speed>
</trkpt>
<trkpt lat="55.986252" lon="26.518728">
<ele>91.502991</ele>
<time>2010-06-20T09:02:53Z</time>
<desc>lat.=55.986252, lon.=26.518728, Alt.=91.502991m. Speed=3.312000m/h.</desc>
<speed>0.920000</speed>
</trkpt>
<trkpt lat="55.986240" lon="26.518700">
<ele>91.381897</ele>
<time>2010-06-20T09:02:54Z</time>
<desc>lat.=55.986240, lon.=26.518700, Alt.=91.381897m. Speed=1.152000m/h.</desc>
<speed>0.320000</speed>
</trkpt>
<trkpt lat="55.986248" lon="26.518675">
<ele>91.467834</ele>
<time>2010-06-20T09:02:55Z</time>
<desc>lat.=55.986248, lon.=26.518675, Alt.=91.467834m. Speed=3.132000m/h.</desc>
<speed>0.870000</speed>
</trkpt>
<trkpt lat="55.986248" lon="26.518635">
<ele>91.389709</ele>
<time>2010-06-20T09:02:56Z</time>
<desc>lat.=55.986248, lon.=26.518635, Alt.=91.389709m. Speed=5.256000m/h.</desc>
<speed>1.460000</speed>
</trkpt>
<trkpt lat="55.986282" lon="26.518579">
<ele>91.819397</ele>
<time>2010-06-20T09:02:57Z</time>
<desc>lat.=55.986282, lon.=26.518579, Alt.=91.819397m. Speed=8.208000m/h.</desc>
<speed>2.280000</speed>
</trkpt>
<trkpt lat="55.986298" lon="26.518545">
<ele>91.813538</ele>
<time>2010-06-20T09:02:58Z</time>
<desc>lat.=55.986298, lon.=26.518545, Alt.=91.813538m. Speed=6.768000m/h.</desc>
<speed>1.880000</speed>
</trkpt>
<trkpt lat="55.986309" lon="26.518499">
<ele>92.239319</ele>
<time>2010-06-20T09:02:59Z</time>
<desc>lat.=55.986309, lon.=26.518499, Alt.=92.239319m. Speed=8.568000m/h.</desc>
<speed>2.380000</speed>
</trkpt>
<trkpt lat="55.986324" lon="26.518452">
<ele>92.977600</ele>
<time>2010-06-20T09:03:00Z</time>
<desc>lat.=55.986324, lon.=26.518452, Alt.=92.977600m. Speed=9.396000m/h.</desc>
<speed>2.610000</speed>
</trkpt>
<trkpt lat="55.986362" lon="26.518396">
<ele>93.415100</ele>
<time>2010-06-20T09:03:01Z</time>
<desc>lat.=55.986362, lon.=26.518396, Alt.=93.415100m. Speed=11.304000m/h.</desc>
<speed>3.140000</speed>
</trkpt>
<trkpt lat="55.986404" lon="26.518349">
<ele>93.702209</ele>
<time>2010-06-20T09:03:02Z</time>
<desc>lat.=55.986404, lon.=26.518349, Alt.=93.702209m. Speed=11.916000m/h.</desc>
<speed>3.310000</speed>
</trkpt>
<trkpt lat="55.986435" lon="26.518303">
<ele>93.448303</ele>
<time>2010-06-20T09:03:03Z</time>
<desc>lat.=55.986435, lon.=26.518303, Alt.=93.448303m. Speed=8.532000m/h.</desc>
<speed>2.370000</speed>
</trkpt>
<trkpt lat="55.986462" lon="26.518255">
<ele>93.790100</ele>
<time>2010-06-20T09:03:04Z</time>
<desc>lat.=55.986462, lon.=26.518255, Alt.=93.790100m. Speed=10.260000m/h.</desc>
<speed>2.850000</speed>
</trkpt>
<trkpt lat="55.986485" lon="26.518206">
<ele>94.045959</ele>
<time>2010-06-20T09:03:05Z</time>
<desc>lat.=55.986485, lon.=26.518206, Alt.=94.045959m. Speed=8.892000m/h.</desc>
<speed>2.470000</speed>
</trkpt>
<trkpt lat="55.986507" lon="26.518164">
<ele>94.272522</ele>
<time>2010-06-20T09:03:06Z</time>
<desc>lat.=55.986507, lon.=26.518164, Alt.=94.272522m. Speed=10.080000m/h.</desc>
<speed>2.800000</speed>
</trkpt>
<trkpt lat="55.986523" lon="26.518112">
<ele>94.169006</ele>
<time>2010-06-20T09:03:07Z</time>
<desc>lat.=55.986523, lon.=26.518112, Alt.=94.169006m. Speed=11.880000m/h.</desc>
<speed>3.300000</speed>
</trkpt>
<trkpt lat="55.986542" lon="26.518059">
<ele>93.534241</ele>
<time>2010-06-20T09:03:08Z</time>
<desc>lat.=55.986542, lon.=26.518059, Alt.=93.534241m. Speed=11.592000m/h.</desc>
<speed>3.220000</speed>
</trkpt>
<trkpt lat="55.986561" lon="26.517996">
<ele>91.883850</ele>
<time>2010-06-20T09:03:09Z</time>
<desc>lat.=55.986561, lon.=26.517996, Alt.=91.883850m. Speed=11.304000m/h.</desc>
<speed>3.140000</speed>
</trkpt>
<trkpt lat="55.986580" lon="26.517948">
<ele>91.741272</ele>
<time>2010-06-20T09:03:10Z</time>
<desc>lat.=55.986580, lon.=26.517948, Alt.=91.741272m. Speed=11.304000m/h.</desc>
<speed>3.140000</speed>
</trkpt>
<trkpt lat="55.986588" lon="26.517914">
<ele>91.794006</ele>
<time>2010-06-20T09:03:11Z</time>
<desc>lat.=55.986588, lon.=26.517914, Alt.=91.794006m. Speed=7.884000m/h.</desc>
<speed>2.190000</speed>
</trkpt>
<trkpt lat="55.986603" lon="26.517879">
<ele>91.876038</ele>
<time>2010-06-20T09:03:12Z</time>
<desc>lat.=55.986603, lon.=26.517879, Alt.=91.876038m. Speed=8.460000m/h.</desc>
<speed>2.350000</speed>
</trkpt>
<trkpt lat="55.986622" lon="26.517836">
<ele>91.112366</ele>
<time>2010-06-20T09:03:13Z</time>
<desc>lat.=55.986622, lon.=26.517836, Alt.=91.112366m. Speed=10.404000m/h.</desc>
<speed>2.890000</speed>
</trkpt>
<trkpt lat="55.986645" lon="26.517797">
<ele>91.163147</ele>
<time>2010-06-20T09:03:14Z</time>
<desc>lat.=55.986645, lon.=26.517797, Alt.=91.163147m. Speed=10.080000m/h.</desc>
<speed>2.800000</speed>
</trkpt>
<trkpt lat="55.986660" lon="26.517757">
<ele>91.991272</ele>
<time>2010-06-20T09:03:15Z</time>
<desc>lat.=55.986660, lon.=26.517757, Alt.=91.991272m. Speed=10.224000m/h.</desc>
<speed>2.840000</speed>
</trkpt>
<trkpt lat="55.986683" lon="26.517708">
<ele>92.167053</ele>
<time>2010-06-20T09:03:16Z</time>
<desc>lat.=55.986683, lon.=26.517708, Alt.=92.167053m. Speed=9.576000m/h.</desc>
<speed>2.660000</speed>
</trkpt>
<trkpt lat="55.986694" lon="26.517664">
<ele>91.711975</ele>
<time>2010-06-20T09:03:17Z</time>
<desc>lat.=55.986694, lon.=26.517664, Alt.=91.711975m. Speed=10.152000m/h.</desc>
<speed>2.820000</speed>
</trkpt>
<trkpt lat="55.986713" lon="26.517612">
<ele>91.042053</ele>
<time>2010-06-20T09:03:18Z</time>
<desc>lat.=55.986713, lon.=26.517612, Alt.=91.042053m. Speed=12.384000m/h.</desc>
<speed>3.440000</speed>
</trkpt>
<trkpt lat="55.986729" lon="26.517551">
<ele>88.460022</ele>
<time>2010-06-20T09:03:19Z</time>
<desc>lat.=55.986729, lon.=26.517551, Alt.=88.460022m. Speed=12.852000m/h.</desc>
<speed>3.570000</speed>
</trkpt>
<trkpt lat="55.986740" lon="26.517504">
<ele>88.151428</ele>
<time>2010-06-20T09:03:20Z</time>
<desc>lat.=55.986740, lon.=26.517504, Alt.=88.151428m. Speed=9.144000m/h.</desc>
<speed>2.540000</speed>
</trkpt>
<trkpt lat="55.986748" lon="26.517464">
<ele>88.460022</ele>
<time>2010-06-20T09:03:21Z</time>
<desc>lat.=55.986748, lon.=26.517464, Alt.=88.460022m. Speed=7.128000m/h.</desc>
<speed>1.980000</speed>
</trkpt>
<trkpt lat="55.986755" lon="26.517420">
<ele>88.944397</ele>
<time>2010-06-20T09:03:22Z</time>
<desc>lat.=55.986755, lon.=26.517420, Alt.=88.944397m. Speed=7.488000m/h.</desc>
<speed>2.080000</speed>
</trkpt>
<trkpt lat="55.986778" lon="26.517378">
<ele>88.915100</ele>
<time>2010-06-20T09:03:23Z</time>
<desc>lat.=55.986778, lon.=26.517378, Alt.=88.915100m. Speed=9.432000m/h.</desc>
<speed>2.620000</speed>
</trkpt>
<trkpt lat="55.986801" lon="26.517338">
<ele>88.751038</ele>
<time>2010-06-20T09:03:24Z</time>
<desc>lat.=55.986801, lon.=26.517338, Alt.=88.751038m. Speed=9.288000m/h.</desc>
<speed>2.580000</speed>
</trkpt>
<trkpt lat="55.986816" lon="26.517296">
<ele>89.721741</ele>
<time>2010-06-20T09:03:25Z</time>
<desc>lat.=55.986816, lon.=26.517296, Alt.=89.721741m. Speed=8.784000m/h.</desc>
<speed>2.440000</speed>
</trkpt>
<trkpt lat="55.986832" lon="26.517252">
<ele>90.163147</ele>
<time>2010-06-20T09:03:26Z</time>
<desc>lat.=55.986832, lon.=26.517252, Alt.=90.163147m. Speed=7.092000m/h.</desc>
<speed>1.970000</speed>
</trkpt>
<trkpt lat="55.986843" lon="26.517220">
<ele>90.862366</ele>
<time>2010-06-20T09:03:27Z</time>
<desc>lat.=55.986843, lon.=26.517220, Alt.=90.862366m. Speed=6.120000m/h.</desc>
<speed>1.700000</speed>
</trkpt>
<trkpt lat="55.986851" lon="26.517193">
<ele>90.635803</ele>
<time>2010-06-20T09:03:28Z</time>
<desc>lat.=55.986851, lon.=26.517193, Alt.=90.635803m. Speed=4.716000m/h.</desc>
<speed>1.310000</speed>
</trkpt>
<trkpt lat="55.986862" lon="26.517159">
<ele>90.971741</ele>
<time>2010-06-20T09:03:29Z</time>
<desc>lat.=55.986862, lon.=26.517159, Alt.=90.971741m. Speed=11.304000m/h.</desc>
<speed>3.140000</speed>
</trkpt>
<trkpt lat="55.986885" lon="26.517117">
<ele>91.297913</ele>
<time>2010-06-20T09:03:30Z</time>
<desc>lat.=55.986885, lon.=26.517117, Alt.=91.297913m. Speed=10.404000m/h.</desc>
<speed>2.890000</speed>
</trkpt>
<trkpt lat="55.986908" lon="26.517076">
<ele>91.366272</ele>
<time>2010-06-20T09:03:31Z</time>
<desc>lat.=55.986908, lon.=26.517076, Alt.=91.366272m. Speed=8.136000m/h.</desc>
<speed>2.260000</speed>
</trkpt>
<trkpt lat="55.986931" lon="26.517038">
<ele>91.551819</ele>
<time>2010-06-20T09:03:32Z</time>
<desc>lat.=55.986931, lon.=26.517038, Alt.=91.551819m. Speed=2.880000m/h.</desc>
<speed>0.800000</speed>
</trkpt>
<trkpt lat="55.986938" lon="26.517010">
<ele>91.430725</ele>
<time>2010-06-20T09:03:33Z</time>
<desc>lat.=55.986938, lon.=26.517010, Alt.=91.430725m. Speed=4.212000m/h.</desc>
<speed>1.170000</speed>
</trkpt>
<trkpt lat="55.986935" lon="26.516973">
<ele>90.202209</ele>
<time>2010-06-20T09:03:34Z</time>
<desc>lat.=55.986935, lon.=26.516973, Alt.=90.202209m. Speed=2.700000m/h.</desc>
<speed>0.750000</speed>
</trkpt>
<trkpt lat="55.986938" lon="26.516956">
<ele>90.178772</ele>
<time>2010-06-20T09:03:35Z</time>
<desc>lat.=55.986938, lon.=26.516956, Alt.=90.178772m. Speed=2.088000m/h.</desc>
<speed>0.580000</speed>
</trkpt>
<trkpt lat="55.986935" lon="26.516926">
<ele>90.169006</ele>
<time>2010-06-20T09:03:36Z</time>
<desc>lat.=55.986935, lon.=26.516926, Alt.=90.169006m. Speed=2.088000m/h.</desc>
<speed>0.580000</speed>
</trkpt>
<trkpt lat="55.986935" lon="26.516909">
<ele>90.284241</ele>
<time>2010-06-20T09:03:37Z</time>
<desc>lat.=55.986935, lon.=26.516909, Alt.=90.284241m. Speed=2.124000m/h.</desc>
<speed>0.590000</speed>
</trkpt>
<trkpt lat="55.986938" lon="26.516891">
<ele>90.213928</ele>
<time>2010-06-20T09:03:38Z</time>
<desc>lat.=55.986938, lon.=26.516891, Alt.=90.213928m. Speed=2.160000m/h.</desc>
<speed>0.600000</speed>
</trkpt>
<trkpt lat="55.986938" lon="26.516876">
<ele>90.116272</ele>
<time>2010-06-20T09:03:39Z</time>
<desc>lat.=55.986938, lon.=26.516876, Alt.=90.116272m. Speed=2.160000m/h.</desc>
<speed>0.600000</speed>
</trkpt>
<trkpt lat="55.986938" lon="26.516859">
<ele>90.057678</ele>
<time>2010-06-20T09:03:40Z</time>
<desc>lat.=55.986938, lon.=26.516859, Alt.=90.057678m. Speed=1.584000m/h.</desc>
<speed>0.440000</speed>
</trkpt>
<trkpt lat="55.986946" lon="26.516846">
<ele>90.034241</ele>
<time>2010-06-20T09:03:41Z</time>
<desc>lat.=55.986946, lon.=26.516846, Alt.=90.034241m. Speed=1.152000m/h.</desc>
<speed>0.320000</speed>
</trkpt>
<trkpt lat="55.986954" lon="26.516830">
<ele>91.231506</ele>
<time>2010-06-20T09:03:42Z</time>
<desc>lat.=55.986954, lon.=26.516830, Alt.=91.231506m. Speed=0.828000m/h.</desc>
<speed>0.230000</speed>
</trkpt>
<trkpt lat="55.986954" lon="26.516817">
<ele>91.790100</ele>
<time>2010-06-20T09:03:43Z</time>
<desc>lat.=55.986954, lon.=26.516817, Alt.=91.790100m. Speed=0.720000m/h.</desc>
<speed>0.200000</speed>
</trkpt>
<trkpt lat="55.986958" lon="26.516813">
<ele>91.899475</ele>
<time>2010-06-20T09:03:44Z</time>
<desc>lat.=55.986958, lon.=26.516813, Alt.=91.899475m. Speed=0.612000m/h.</desc>
<speed>0.170000</speed>
</trkpt>
<trkpt lat="55.986961" lon="26.516790">
<ele>92.764709</ele>
<time>2010-06-20T09:03:45Z</time>
<desc>lat.=55.986961, lon.=26.516790, Alt.=92.764709m. Speed=0.720000m/h.</desc>
<speed>0.200000</speed>
</trkpt>
<trkpt lat="55.986961" lon="26.516788">
<ele>92.563538</ele>
<time>2010-06-20T09:03:46Z</time>
<desc>lat.=55.986961, lon.=26.516788, Alt.=92.563538m. Speed=0.648000m/h.</desc>
<speed>0.180000</speed>
</trkpt>
<trkpt lat="55.986961" lon="26.516787">
<ele>92.356506</ele>
<time>2010-06-20T09:03:47Z</time>
<desc>lat.=55.986961, lon.=26.516787, Alt.=92.356506m. Speed=0.540000m/h.</desc>
<speed>0.150000</speed>
</trkpt>
<trkpt lat="55.986965" lon="26.516783">
<ele>92.151428</ele>
<time>2010-06-20T09:03:48Z</time>
<desc>lat.=55.986965, lon.=26.516783, Alt.=92.151428m. Speed=0.792000m/h.</desc>
<speed>0.220000</speed>
</trkpt>
<trkpt lat="55.986961" lon="26.516779">
<ele>91.948303</ele>
<time>2010-06-20T09:03:49Z</time>
<desc>lat.=55.986961, lon.=26.516779, Alt.=91.948303m. Speed=0.900000m/h.</desc>
<speed>0.250000</speed>
</trkpt>
<trkpt lat="55.986961" lon="26.516775">
<ele>91.754944</ele>
<time>2010-06-20T09:03:50Z</time>
<desc>lat.=55.986961, lon.=26.516775, Alt.=91.754944m. Speed=1.728000m/h.</desc>
<speed>0.480000</speed>
</trkpt>
<trkpt lat="55.986961" lon="26.516760">
<ele>91.881897</ele>
<time>2010-06-20T09:03:51Z</time>
<desc>lat.=55.986961, lon.=26.516760, Alt.=91.881897m. Speed=1.872000m/h.</desc>
<speed>0.520000</speed>
</trkpt>
<trkpt lat="55.986958" lon="26.516747">
<ele>91.794006</ele>
<time>2010-06-20T09:03:52Z</time>
<desc>lat.=55.986958, lon.=26.516747, Alt.=91.794006m. Speed=1.908000m/h.</desc>
<speed>0.530000</speed>
</trkpt>
<trkpt lat="55.986958" lon="26.516668">
<ele>93.680725</ele>
<time>2010-06-20T09:03:53Z</time>
<desc>lat.=55.986958, lon.=26.516668, Alt.=93.680725m. Speed=3.528000m/h.</desc>
<speed>0.980000</speed>
</trkpt>
<trkpt lat="55.986954" lon="26.516647">
<ele>93.588928</ele>
<time>2010-06-20T09:03:54Z</time>
<desc>lat.=55.986954, lon.=26.516647, Alt.=93.588928m. Speed=4.860000m/h.</desc>
<speed>1.350000</speed>
</trkpt>
<trkpt lat="55.986958" lon="26.516628">
<ele>93.581116</ele>
<time>2010-06-20T09:03:55Z</time>
<desc>lat.=55.986958, lon.=26.516628, Alt.=93.581116m. Speed=4.212000m/h.</desc>
<speed>1.170000</speed>
</trkpt>
<trkpt lat="55.986958" lon="26.516605">
<ele>93.614319</ele>
<time>2010-06-20T09:03:56Z</time>
<desc>lat.=55.986958, lon.=26.516605, Alt.=93.614319m. Speed=5.400000m/h.</desc>
<speed>1.500000</speed>
</trkpt>
<trkpt lat="55.986954" lon="26.516581">
<ele>93.971741</ele>
<time>2010-06-20T09:03:57Z</time>
<desc>lat.=55.986954, lon.=26.516581, Alt.=93.971741m. Speed=5.184000m/h.</desc>
<speed>1.440000</speed>
</trkpt>
<trkpt lat="55.986946" lon="26.516556">
<ele>94.444397</ele>
<time>2010-06-20T09:03:58Z</time>
<desc>lat.=55.986946, lon.=26.516556, Alt.=94.444397m. Speed=5.004000m/h.</desc>
<speed>1.390000</speed>
</trkpt>
<trkpt lat="55.986942" lon="26.516542">
<ele>94.780334</ele>
<time>2010-06-20T09:03:59Z</time>
<desc>lat.=55.986942, lon.=26.516542, Alt.=94.780334m. Speed=4.644000m/h.</desc>
<speed>1.290000</speed>
</trkpt>
<trkpt lat="55.986938" lon="26.516525">
<ele>95.127991</ele>
<time>2010-06-20T09:04:00Z</time>
<desc>lat.=55.986938, lon.=26.516525, Alt.=95.127991m. Speed=2.664000m/h.</desc>
<speed>0.740000</speed>
</trkpt>
<trkpt lat="55.986938" lon="26.516510">
<ele>95.481506</ele>
<time>2010-06-20T09:04:01Z</time>
<desc>lat.=55.986938, lon.=26.516510, Alt.=95.481506m. Speed=2.340000m/h.</desc>
<speed>0.650000</speed>
</trkpt>
<trkpt lat="55.986946" lon="26.516499">
<ele>95.682678</ele>
<time>2010-06-20T09:04:02Z</time>
<desc>lat.=55.986946, lon.=26.516499, Alt.=95.682678m. Speed=3.456000m/h.</desc>
<speed>0.960000</speed>
</trkpt>
<trkpt lat="55.986954" lon="26.516485">
<ele>95.813538</ele>
<time>2010-06-20T09:04:03Z</time>
<desc>lat.=55.986954, lon.=26.516485, Alt.=95.813538m. Speed=2.160000m/h.</desc>
<speed>0.600000</speed>
</trkpt>
<trkpt lat="55.986961" lon="26.516468">
<ele>96.139709</ele>
<time>2010-06-20T09:04:04Z</time>
<desc>lat.=55.986961, lon.=26.516468, Alt.=96.139709m. Speed=1.476000m/h.</desc>
<speed>0.410000</speed>
</trkpt>
<trkpt lat="55.986965" lon="26.516459">
<ele>96.088928</ele>
<time>2010-06-20T09:04:05Z</time>
<desc>lat.=55.986965, lon.=26.516459, Alt.=96.088928m. Speed=1.152000m/h.</desc>
<speed>0.320000</speed>
</trkpt>
<trkpt lat="55.986977" lon="26.516436">
<ele>96.401428</ele>
<time>2010-06-20T09:04:06Z</time>
<desc>lat.=55.986977, lon.=26.516436, Alt.=96.401428m. Speed=1.152000m/h.</desc>
<speed>0.320000</speed>
</trkpt>
<trkpt lat="55.986977" lon="26.516428">
<ele>96.555725</ele>
<time>2010-06-20T09:04:07Z</time>
<desc>lat.=55.986977, lon.=26.516428, Alt.=96.555725m. Speed=1.044000m/h.</desc>
<speed>0.290000</speed>
</trkpt>
<trkpt lat="55.986977" lon="26.516417">
<ele>96.649475</ele>
<time>2010-06-20T09:04:08Z</time>
<desc>lat.=55.986977, lon.=26.516417, Alt.=96.649475m. Speed=1.728000m/h.</desc>
<speed>0.480000</speed>
</trkpt>
<trkpt lat="55.986977" lon="26.516396">
<ele>96.825256</ele>
<time>2010-06-20T09:04:09Z</time>
<desc>lat.=55.986977, lon.=26.516396, Alt.=96.825256m. Speed=2.952000m/h.</desc>
<speed>0.820000</speed>
</trkpt>
<trkpt lat="55.986973" lon="26.516373">
<ele>96.901428</ele>
<time>2010-06-20T09:04:10Z</time>
<desc>lat.=55.986973, lon.=26.516373, Alt.=96.901428m. Speed=3.996000m/h.</desc>
<speed>1.110000</speed>
</trkpt>
<trkpt lat="55.986988" lon="26.516340">
<ele>97.151428</ele>
<time>2010-06-20T09:04:11Z</time>
<desc>lat.=55.986988, lon.=26.516340, Alt.=97.151428m. Speed=5.652000m/h.</desc>
<speed>1.570000</speed>
</trkpt>
<trkpt lat="55.986988" lon="26.516315">
<ele>97.274475</ele>
<time>2010-06-20T09:04:12Z</time>
<desc>lat.=55.986988, lon.=26.516315, Alt.=97.274475m. Speed=5.328000m/h.</desc>
<speed>1.480000</speed>
</trkpt>
<trkpt lat="55.986988" lon="26.516287">
<ele>96.967834</ele>
<time>2010-06-20T09:04:13Z</time>
<desc>lat.=55.986988, lon.=26.516287, Alt.=96.967834m. Speed=5.904000m/h.</desc>
<speed>1.640000</speed>
</trkpt>
<trkpt lat="55.986988" lon="26.516253">
<ele>97.251038</ele>
<time>2010-06-20T09:04:14Z</time>
<desc>lat.=55.986988, lon.=26.516253, Alt.=97.251038m. Speed=5.760000m/h.</desc>
<speed>1.600000</speed>
</trkpt>
<trkpt lat="55.986992" lon="26.516212">
<ele>97.010803</ele>
<time>2010-06-20T09:04:15Z</time>
<desc>lat.=55.986992, lon.=26.516212, Alt.=97.010803m. Speed=7.416000m/h.</desc>
<speed>2.060000</speed>
</trkpt>
<trkpt lat="55.986988" lon="26.516174">
<ele>96.083069</ele>
<time>2010-06-20T09:04:16Z</time>
<desc>lat.=55.986988, lon.=26.516174, Alt.=96.083069m. Speed=7.740000m/h.</desc>
<speed>2.150000</speed>
</trkpt>
<trkpt lat="55.986988" lon="26.516129">
<ele>95.907288</ele>
<time>2010-06-20T09:04:17Z</time>
<desc>lat.=55.986988, lon.=26.516129, Alt.=95.907288m. Speed=8.712000m/h.</desc>
<speed>2.420000</speed>
</trkpt>
<trkpt lat="55.986988" lon="26.516085">
<ele>95.497131</ele>
<time>2010-06-20T09:04:18Z</time>
<desc>lat.=55.986988, lon.=26.516085, Alt.=95.497131m. Speed=8.568000m/h.</desc>
<speed>2.380000</speed>
</trkpt>
<trkpt lat="55.986996" lon="26.516039">
<ele>94.756897</ele>
<time>2010-06-20T09:04:19Z</time>
<desc>lat.=55.986996, lon.=26.516039, Alt.=94.756897m. Speed=9.756000m/h.</desc>
<speed>2.710000</speed>
</trkpt>
<trkpt lat="55.986996" lon="26.515991">
<ele>94.604553</ele>
<time>2010-06-20T09:04:20Z</time>
<desc>lat.=55.986996, lon.=26.515991, Alt.=94.604553m. Speed=9.252000m/h.</desc>
<speed>2.570000</speed>
</trkpt>
<trkpt lat="55.987000" lon="26.515945">
<ele>94.338928</ele>
<time>2010-06-20T09:04:21Z</time>
<desc>lat.=55.987000, lon.=26.515945, Alt.=94.338928m. Speed=8.496000m/h.</desc>
<speed>2.360000</speed>
</trkpt>
<trkpt lat="55.987003" lon="26.515896">
<ele>93.733459</ele>
<time>2010-06-20T09:04:22Z</time>
<desc>lat.=55.987003, lon.=26.515896, Alt.=93.733459m. Speed=10.584000m/h.</desc>
<speed>2.940000</speed>
</trkpt>
<trkpt lat="55.987011" lon="26.515842">
<ele>93.262756</ele>
<time>2010-06-20T09:04:23Z</time>
<desc>lat.=55.987011, lon.=26.515842, Alt.=93.262756m. Speed=10.692000m/h.</desc>
<speed>2.970000</speed>
</trkpt>
<trkpt lat="55.987011" lon="26.515779">
<ele>93.309631</ele>
<time>2010-06-20T09:04:24Z</time>
<desc>lat.=55.987011, lon.=26.515779, Alt.=93.309631m. Speed=9.432000m/h.</desc>
<speed>2.620000</speed>
</trkpt>
<trkpt lat="55.987015" lon="26.515732">
<ele>92.711975</ele>
<time>2010-06-20T09:04:25Z</time>
<desc>lat.=55.987015, lon.=26.515732, Alt.=92.711975m. Speed=9.936000m/h.</desc>
<speed>2.760000</speed>
</trkpt>
<trkpt lat="55.987019" lon="26.515688">
<ele>92.014709</ele>
<time>2010-06-20T09:04:26Z</time>
<desc>lat.=55.987019, lon.=26.515688, Alt.=92.014709m. Speed=9.540000m/h.</desc>
<speed>2.650000</speed>
</trkpt>
<trkpt lat="55.987030" lon="26.515644">
<ele>92.237366</ele>
<time>2010-06-20T09:04:27Z</time>
<desc>lat.=55.987030, lon.=26.515644, Alt.=92.237366m. Speed=9.108000m/h.</desc>
<speed>2.530000</speed>
</trkpt>
<trkpt lat="55.987041" lon="26.515604">
<ele>92.208069</ele>
<time>2010-06-20T09:04:28Z</time>
<desc>lat.=55.987041, lon.=26.515604, Alt.=92.208069m. Speed=9.036000m/h.</desc>
<speed>2.510000</speed>
</trkpt>
<trkpt lat="55.987045" lon="26.515554">
<ele>91.751038</ele>
<time>2010-06-20T09:04:29Z</time>
<desc>lat.=55.987045, lon.=26.515554, Alt.=91.751038m. Speed=9.108000m/h.</desc>
<speed>2.530000</speed>
</trkpt>
<trkpt lat="55.987049" lon="26.515501">
<ele>92.417053</ele>
<time>2010-06-20T09:04:30Z</time>
<desc>lat.=55.987049, lon.=26.515501, Alt.=92.417053m. Speed=8.820000m/h.</desc>
<speed>2.450000</speed>
</trkpt>
<trkpt lat="55.987049" lon="26.515459">
<ele>92.700256</ele>
<time>2010-06-20T09:04:31Z</time>
<desc>lat.=55.987049, lon.=26.515459, Alt.=92.700256m. Speed=8.892000m/h.</desc>
<speed>2.470000</speed>
</trkpt>
<trkpt lat="55.987053" lon="26.515417">
<ele>92.751038</ele>
<time>2010-06-20T09:04:32Z</time>
<desc>lat.=55.987053, lon.=26.515417, Alt.=92.751038m. Speed=9.180000m/h.</desc>
<speed>2.550000</speed>
</trkpt>
<trkpt lat="55.987053" lon="26.515371">
<ele>93.567444</ele>
<time>2010-06-20T09:04:33Z</time>
<desc>lat.=55.987053, lon.=26.515371, Alt.=93.567444m. Speed=9.288000m/h.</desc>
<speed>2.580000</speed>
</trkpt>
<trkpt lat="55.987057" lon="26.515326">
<ele>93.922913</ele>
<time>2010-06-20T09:04:34Z</time>
<desc>lat.=55.987057, lon.=26.515326, Alt.=93.922913m. Speed=10.692000m/h.</desc>
<speed>2.970000</speed>
</trkpt>
<trkpt lat="55.987057" lon="26.515285">
<ele>94.208069</ele>
<time>2010-06-20T09:04:35Z</time>
<desc>lat.=55.987057, lon.=26.515285, Alt.=94.208069m. Speed=9.324000m/h.</desc>
<speed>2.590000</speed>
</trkpt>
<trkpt lat="55.987057" lon="26.515238">
<ele>94.938538</ele>
<time>2010-06-20T09:04:36Z</time>
<desc>lat.=55.987057, lon.=26.515238, Alt.=94.938538m. Speed=9.144000m/h.</desc>
<speed>2.540000</speed>
</trkpt>
<trkpt lat="55.987053" lon="26.515203">
<ele>95.727600</ele>
<time>2010-06-20T09:04:37Z</time>
<desc>lat.=55.987053, lon.=26.515203, Alt.=95.727600m. Speed=7.596000m/h.</desc>
<speed>2.110000</speed>
</trkpt>
<trkpt lat="55.987057" lon="26.515158">
<ele>95.645569</ele>
<time>2010-06-20T09:04:38Z</time>
<desc>lat.=55.987057, lon.=26.515158, Alt.=95.645569m. Speed=9.072000m/h.</desc>
<speed>2.520000</speed>
</trkpt>
<trkpt lat="55.987061" lon="26.515120">
<ele>96.172913</ele>
<time>2010-06-20T09:04:39Z</time>
<desc>lat.=55.987061, lon.=26.515120, Alt.=96.172913m. Speed=8.568000m/h.</desc>
<speed>2.380000</speed>
</trkpt>
<trkpt lat="55.987064" lon="26.515060">
<ele>96.424866</ele>
<time>2010-06-20T09:04:40Z</time>
<desc>lat.=55.987064, lon.=26.515060, Alt.=96.424866m. Speed=9.576000m/h.</desc>
<speed>2.660000</speed>
</trkpt>
<trkpt lat="55.987068" lon="26.515007">
<ele>96.419006</ele>
<time>2010-06-20T09:04:41Z</time>
<desc>lat.=55.987068, lon.=26.515007, Alt.=96.419006m. Speed=9.396000m/h.</desc>
<speed>2.610000</speed>
</trkpt>
<trkpt lat="55.987072" lon="26.514963">
<ele>96.961975</ele>
<time>2010-06-20T09:04:42Z</time>
<desc>lat.=55.987072, lon.=26.514963, Alt.=96.961975m. Speed=8.352000m/h.</desc>
<speed>2.320000</speed>
</trkpt>
<trkpt lat="55.987072" lon="26.514910">
<ele>96.659241</ele>
<time>2010-06-20T09:04:43Z</time>
<desc>lat.=55.987072, lon.=26.514910, Alt.=96.659241m. Speed=9.900000m/h.</desc>
<speed>2.750000</speed>
</trkpt>
<trkpt lat="55.987068" lon="26.514854">
<ele>96.583069</ele>
<time>2010-06-20T09:04:44Z</time>
<desc>lat.=55.987068, lon.=26.514854, Alt.=96.583069m. Speed=10.908000m/h.</desc>
<speed>3.030000</speed>
</trkpt>
<trkpt lat="55.987080" lon="26.514801">
<ele>97.114319</ele>
<time>2010-06-20T09:04:45Z</time>
<desc>lat.=55.987080, lon.=26.514801, Alt.=97.114319m. Speed=9.864000m/h.</desc>
<speed>2.740000</speed>
</trkpt>
<trkpt lat="55.987083" lon="26.514751">
<ele>97.338928</ele>
<time>2010-06-20T09:04:46Z</time>
<desc>lat.=55.987083, lon.=26.514751, Alt.=97.338928m. Speed=9.792000m/h.</desc>
<speed>2.720000</speed>
</trkpt>
<trkpt lat="55.987083" lon="26.514698">
<ele>96.835022</ele>
<time>2010-06-20T09:04:47Z</time>
<desc>lat.=55.987083, lon.=26.514698, Alt.=96.835022m. Speed=10.224000m/h.</desc>
<speed>2.840000</speed>
</trkpt>
<trkpt lat="55.987091" lon="26.514647">
<ele>97.034241</ele>
<time>2010-06-20T09:04:48Z</time>
<desc>lat.=55.987091, lon.=26.514647, Alt.=97.034241m. Speed=9.504000m/h.</desc>
<speed>2.640000</speed>
</trkpt>
<trkpt lat="55.987091" lon="26.514599">
<ele>96.995178</ele>
<time>2010-06-20T09:04:49Z</time>
<desc>lat.=55.987091, lon.=26.514599, Alt.=96.995178m. Speed=9.432000m/h.</desc>
<speed>2.620000</speed>
</trkpt>
<trkpt lat="55.987095" lon="26.514555">
<ele>97.190491</ele>
<time>2010-06-20T09:04:50Z</time>
<desc>lat.=55.987095, lon.=26.514555, Alt.=97.190491m. Speed=9.396000m/h.</desc>
<speed>2.610000</speed>
</trkpt>
<trkpt lat="55.987103" lon="26.514507">
<ele>97.795959</ele>
<time>2010-06-20T09:04:51Z</time>
<desc>lat.=55.987103, lon.=26.514507, Alt.=97.795959m. Speed=9.324000m/h.</desc>
<speed>2.590000</speed>
</trkpt>
<trkpt lat="55.987114" lon="26.514458">
<ele>98.045959</ele>
<time>2010-06-20T09:04:52Z</time>
<desc>lat.=55.987114, lon.=26.514458, Alt.=98.045959m. Speed=8.280000m/h.</desc>
<speed>2.300000</speed>
</trkpt>
<trkpt lat="55.987122" lon="26.514414">
<ele>98.622131</ele>
<time>2010-06-20T09:04:53Z</time>
<desc>lat.=55.987122, lon.=26.514414, Alt.=98.622131m. Speed=7.992000m/h.</desc>
<speed>2.220000</speed>
</trkpt>
<trkpt lat="55.987125" lon="26.514372">
<ele>99.092834</ele>
<time>2010-06-20T09:04:54Z</time>
<desc>lat.=55.987125, lon.=26.514372, Alt.=99.092834m. Speed=5.256000m/h.</desc>
<speed>1.460000</speed>
</trkpt>
<trkpt lat="55.987133" lon="26.514334">
<ele>99.190491</ele>
<time>2010-06-20T09:04:55Z</time>
<desc>lat.=55.987133, lon.=26.514334, Alt.=99.190491m. Speed=7.884000m/h.</desc>
<speed>2.190000</speed>
</trkpt>
<trkpt lat="55.987137" lon="26.514290">
<ele>99.877991</ele>
<time>2010-06-20T09:04:56Z</time>
<desc>lat.=55.987137, lon.=26.514290, Alt.=99.877991m. Speed=7.128000m/h.</desc>
<speed>1.980000</speed>
</trkpt>
<trkpt lat="55.987141" lon="26.514244">
<ele>100.600647</ele>
<time>2010-06-20T09:04:57Z</time>
<desc>lat.=55.987141, lon.=26.514244, Alt.=100.600647m. Speed=6.696000m/h.</desc>
<speed>1.860000</speed>
</trkpt>
<trkpt lat="55.987144" lon="26.514191">
<ele>101.264709</ele>
<time>2010-06-20T09:04:58Z</time>
<desc>lat.=55.987144, lon.=26.514191, Alt.=101.264709m. Speed=6.372000m/h.</desc>
<speed>1.770000</speed>
</trkpt>
<trkpt lat="55.987144" lon="26.514141">
<ele>101.942444</ele>
<time>2010-06-20T09:04:59Z</time>
<desc>lat.=55.987144, lon.=26.514141, Alt.=101.942444m. Speed=7.128000m/h.</desc>
<speed>1.980000</speed>
</trkpt>
<trkpt lat="55.987144" lon="26.514078">
<ele>101.840881</ele>
<time>2010-06-20T09:05:00Z</time>
<desc>lat.=55.987144, lon.=26.514078, Alt.=101.840881m. Speed=7.272000m/h.</desc>
<speed>2.020000</speed>
</trkpt>
<trkpt lat="55.987144" lon="26.514013">
<ele>101.274475</ele>
<time>2010-06-20T09:05:01Z</time>
<desc>lat.=55.987144, lon.=26.514013, Alt.=101.274475m. Speed=7.164000m/h.</desc>
<speed>1.990000</speed>
</trkpt>
<trkpt lat="55.987148" lon="26.513960">
<ele>101.489319</ele>
<time>2010-06-20T09:05:02Z</time>
<desc>lat.=55.987148, lon.=26.513960, Alt.=101.489319m. Speed=6.192000m/h.</desc>
<speed>1.720000</speed>
</trkpt>
<trkpt lat="55.987156" lon="26.513910">
<ele>102.002991</ele>
<time>2010-06-20T09:05:03Z</time>
<desc>lat.=55.987156, lon.=26.513910, Alt.=102.002991m. Speed=7.128000m/h.</desc>
<speed>1.980000</speed>
</trkpt>
<trkpt lat="55.987152" lon="26.513834">
<ele>101.135803</ele>
<time>2010-06-20T09:05:04Z</time>
<desc>lat.=55.987152, lon.=26.513834, Alt.=101.135803m. Speed=7.380000m/h.</desc>
<speed>2.050000</speed>
</trkpt>
<trkpt lat="55.987152" lon="26.513786">
<ele>101.278381</ele>
<time>2010-06-20T09:05:05Z</time>
<desc>lat.=55.987152, lon.=26.513786, Alt.=101.278381m. Speed=6.696000m/h.</desc>
<speed>1.860000</speed>
</trkpt>
<trkpt lat="55.987152" lon="26.513731">
<ele>101.676819</ele>
<time>2010-06-20T09:05:06Z</time>
<desc>lat.=55.987152, lon.=26.513731, Alt.=101.676819m. Speed=8.604000m/h.</desc>
<speed>2.390000</speed>
</trkpt>
<trkpt lat="55.987141" lon="26.513649">
<ele>100.426819</ele>
<time>2010-06-20T09:05:07Z</time>
<desc>lat.=55.987141, lon.=26.513649, Alt.=100.426819m. Speed=10.296000m/h.</desc>
<speed>2.860000</speed>
</trkpt>
<trkpt lat="55.987144" lon="26.513561">
<ele>99.094788</ele>
<time>2010-06-20T09:05:08Z</time>
<desc>lat.=55.987144, lon.=26.513561, Alt.=99.094788m. Speed=12.492000m/h.</desc>
<speed>3.470000</speed>
</trkpt>
<trkpt lat="55.987148" lon="26.513491">
<ele>98.997131</ele>
<time>2010-06-20T09:05:09Z</time>
<desc>lat.=55.987148, lon.=26.513491, Alt.=98.997131m. Speed=11.232000m/h.</desc>
<speed>3.120000</speed>
</trkpt>
<trkpt lat="55.987148" lon="26.513428">
<ele>99.403381</ele>
<time>2010-06-20T09:05:10Z</time>
<desc>lat.=55.987148, lon.=26.513428, Alt.=99.403381m. Speed=10.260000m/h.</desc>
<speed>2.850000</speed>
</trkpt>
<trkpt lat="55.987144" lon="26.513369">
<ele>98.901428</ele>
<time>2010-06-20T09:05:11Z</time>
<desc>lat.=55.987144, lon.=26.513369, Alt.=98.901428m. Speed=9.000000m/h.</desc>
<speed>2.500000</speed>
</trkpt>
<trkpt lat="55.987144" lon="26.513311">
<ele>98.454163</ele>
<time>2010-06-20T09:05:12Z</time>
<desc>lat.=55.987144, lon.=26.513311, Alt.=98.454163m. Speed=7.884000m/h.</desc>
<speed>2.190000</speed>
</trkpt>
<trkpt lat="55.987125" lon="26.513248">
<ele>95.944397</ele>
<time>2010-06-20T09:05:13Z</time>
<desc>lat.=55.987125, lon.=26.513248, Alt.=95.944397m. Speed=8.856000m/h.</desc>
<speed>2.460000</speed>
</trkpt>
<trkpt lat="55.987118" lon="26.513205">
<ele>94.788147</ele>
<time>2010-06-20T09:05:14Z</time>
<desc>lat.=55.987118, lon.=26.513205, Alt.=94.788147m. Speed=8.388000m/h.</desc>
<speed>2.330000</speed>
</trkpt>
<trkpt lat="55.987106" lon="26.513151">
<ele>93.573303</ele>
<time>2010-06-20T09:05:15Z</time>
<desc>lat.=55.987106, lon.=26.513151, Alt.=93.573303m. Speed=9.072000m/h.</desc>
<speed>2.520000</speed>
</trkpt>
<trkpt lat="55.987091" lon="26.513088">
<ele>92.971741</ele>
<time>2010-06-20T09:05:16Z</time>
<desc>lat.=55.987091, lon.=26.513088, Alt.=92.971741m. Speed=9.432000m/h.</desc>
<speed>2.620000</speed>
</trkpt>
<trkpt lat="55.987068" lon="26.513044">
<ele>92.364319</ele>
<time>2010-06-20T09:05:17Z</time>
<desc>lat.=55.987068, lon.=26.513044, Alt.=92.364319m. Speed=10.116000m/h.</desc>
<speed>2.810000</speed>
</trkpt>
<trkpt lat="55.987057" lon="26.513004">
<ele>91.014709</ele>
<time>2010-06-20T09:05:18Z</time>
<desc>lat.=55.987057, lon.=26.513004, Alt.=91.014709m. Speed=8.748000m/h.</desc>
<speed>2.430000</speed>
</trkpt>
<trkpt lat="55.987049" lon="26.512970">
<ele>90.581116</ele>
<time>2010-06-20T09:05:19Z</time>
<desc>lat.=55.987049, lon.=26.512970, Alt.=90.581116m. Speed=8.568000m/h.</desc>
<speed>2.380000</speed>
</trkpt>
<trkpt lat="55.987045" lon="26.512936">
<ele>90.446350</ele>
<time>2010-06-20T09:05:20Z</time>
<desc>lat.=55.987045, lon.=26.512936, Alt.=90.446350m. Speed=7.416000m/h.</desc>
<speed>2.060000</speed>
</trkpt>
<trkpt lat="55.987045" lon="26.512896">
<ele>90.323303</ele>
<time>2010-06-20T09:05:21Z</time>
<desc>lat.=55.987045, lon.=26.512896, Alt.=90.323303m. Speed=8.064000m/h.</desc>
<speed>2.240000</speed>
</trkpt>
<trkpt lat="55.987045" lon="26.512857">
<ele>90.327209</ele>
<time>2010-06-20T09:05:22Z</time>
<desc>lat.=55.987045, lon.=26.512857, Alt.=90.327209m. Speed=7.272000m/h.</desc>
<speed>2.020000</speed>
</trkpt>
<trkpt lat="55.987053" lon="26.512825">
<ele>90.241272</ele>
<time>2010-06-20T09:05:23Z</time>
<desc>lat.=55.987053, lon.=26.512825, Alt.=90.241272m. Speed=7.668000m/h.</desc>
<speed>2.130000</speed>
</trkpt>
<trkpt lat="55.987061" lon="26.512772">
<ele>90.210022</ele>
<time>2010-06-20T09:05:24Z</time>
<desc>lat.=55.987061, lon.=26.512772, Alt.=90.210022m. Speed=8.100000m/h.</desc>
<speed>2.250000</speed>
</trkpt>
<trkpt lat="55.987072" lon="26.512728">
<ele>89.692444</ele>
<time>2010-06-20T09:05:25Z</time>
<desc>lat.=55.987072, lon.=26.512728, Alt.=89.692444m. Speed=8.460000m/h.</desc>
<speed>2.350000</speed>
</trkpt>
<trkpt lat="55.987068" lon="26.512657">
<ele>89.042053</ele>
<time>2010-06-20T09:05:26Z</time>
<desc>lat.=55.987068, lon.=26.512657, Alt.=89.042053m. Speed=10.656000m/h.</desc>
<speed>2.960000</speed>
</trkpt>
<trkpt lat="55.987072" lon="26.512594">
<ele>88.983459</ele>
<time>2010-06-20T09:05:27Z</time>
<desc>lat.=55.987072, lon.=26.512594, Alt.=88.983459m. Speed=9.648000m/h.</desc>
<speed>2.680000</speed>
</trkpt>
<trkpt lat="55.987072" lon="26.512543">
<ele>88.827209</ele>
<time>2010-06-20T09:05:28Z</time>
<desc>lat.=55.987072, lon.=26.512543, Alt.=88.827209m. Speed=9.144000m/h.</desc>
<speed>2.540000</speed>
</trkpt>
<trkpt lat="55.987076" lon="26.512493">
<ele>88.702209</ele>
<time>2010-06-20T09:05:29Z</time>
<desc>lat.=55.987076, lon.=26.512493, Alt.=88.702209m. Speed=10.512000m/h.</desc>
<speed>2.920000</speed>
</trkpt>
<trkpt lat="55.987080" lon="26.512438">
<ele>88.506897</ele>
<time>2010-06-20T09:05:30Z</time>
<desc>lat.=55.987080, lon.=26.512438, Alt.=88.506897m. Speed=10.980000m/h.</desc>
<speed>3.050000</speed>
</trkpt>
<trkpt lat="55.987072" lon="26.512381">
<ele>89.083069</ele>
<time>2010-06-20T09:05:31Z</time>
<desc>lat.=55.987072, lon.=26.512381, Alt.=89.083069m. Speed=9.900000m/h.</desc>
<speed>2.750000</speed>
</trkpt>
<trkpt lat="55.987068" lon="26.512316">
<ele>89.702209</ele>
<time>2010-06-20T09:05:32Z</time>
<desc>lat.=55.987068, lon.=26.512316, Alt.=89.702209m. Speed=9.756000m/h.</desc>
<speed>2.710000</speed>
</trkpt>
<trkpt lat="55.987061" lon="26.512274">
<ele>89.856506</ele>
<time>2010-06-20T09:05:33Z</time>
<desc>lat.=55.987061, lon.=26.512274, Alt.=89.856506m. Speed=8.424000m/h.</desc>
<speed>2.340000</speed>
</trkpt>
<trkpt lat="55.987041" lon="26.512224">
<ele>90.438538</ele>
<time>2010-06-20T09:05:34Z</time>
<desc>lat.=55.987041, lon.=26.512224, Alt.=90.438538m. Speed=7.884000m/h.</desc>
<speed>2.190000</speed>
</trkpt>
<trkpt lat="55.987030" lon="26.512146">
<ele>90.655334</ele>
<time>2010-06-20T09:05:35Z</time>
<desc>lat.=55.987030, lon.=26.512146, Alt.=90.655334m. Speed=10.044000m/h.</desc>
<speed>2.790000</speed>
</trkpt>
<trkpt lat="55.987022" lon="26.512098">
<ele>90.794006</ele>
<time>2010-06-20T09:05:36Z</time>
<desc>lat.=55.987022, lon.=26.512098, Alt.=90.794006m. Speed=9.684000m/h.</desc>
<speed>2.690000</speed>
</trkpt>
<trkpt lat="55.987011" lon="26.512011">
<ele>91.354553</ele>
<time>2010-06-20T09:05:37Z</time>
<desc>lat.=55.987011, lon.=26.512011, Alt.=91.354553m. Speed=12.312000m/h.</desc>
<speed>3.420000</speed>
</trkpt>
<trkpt lat="55.986992" lon="26.511957">
<ele>91.110413</ele>
<time>2010-06-20T09:05:38Z</time>
<desc>lat.=55.986992, lon.=26.511957, Alt.=91.110413m. Speed=12.348000m/h.</desc>
<speed>3.430000</speed>
</trkpt>
<trkpt lat="55.986965" lon="26.511915">
<ele>90.864319</ele>
<time>2010-06-20T09:05:39Z</time>
<desc>lat.=55.986965, lon.=26.511915, Alt.=90.864319m. Speed=10.836000m/h.</desc>
<speed>3.010000</speed>
</trkpt>
<trkpt lat="55.986938" lon="26.511875">
<ele>90.475647</ele>
<time>2010-06-20T09:05:40Z</time>
<desc>lat.=55.986938, lon.=26.511875, Alt.=90.475647m. Speed=12.240000m/h.</desc>
<speed>3.400000</speed>
</trkpt>
<trkpt lat="55.986916" lon="26.511833">
<ele>90.170959</ele>
<time>2010-06-20T09:05:41Z</time>
<desc>lat.=55.986916, lon.=26.511833, Alt.=90.170959m. Speed=10.692000m/h.</desc>
<speed>2.970000</speed>
</trkpt>
<trkpt lat="55.986885" lon="26.511793">
<ele>90.022522</ele>
<time>2010-06-20T09:05:42Z</time>
<desc>lat.=55.986885, lon.=26.511793, Alt.=90.022522m. Speed=13.896000m/h.</desc>
<speed>3.860000</speed>
</trkpt>
<trkpt lat="55.986862" lon="26.511749">
<ele>89.930725</ele>
<time>2010-06-20T09:05:43Z</time>
<desc>lat.=55.986862, lon.=26.511749, Alt.=89.930725m. Speed=13.212000m/h.</desc>
<speed>3.670000</speed>
</trkpt>
<trkpt lat="55.986847" lon="26.511698">
<ele>89.938538</ele>
<time>2010-06-20T09:05:44Z</time>
<desc>lat.=55.986847, lon.=26.511698, Alt.=89.938538m. Speed=12.024000m/h.</desc>
<speed>3.340000</speed>
</trkpt>
<trkpt lat="55.986828" lon="26.511646">
<ele>89.721741</ele>
<time>2010-06-20T09:05:45Z</time>
<desc>lat.=55.986828, lon.=26.511646, Alt.=89.721741m. Speed=12.744000m/h.</desc>
<speed>3.540000</speed>
</trkpt>
<trkpt lat="55.986805" lon="26.511604">
<ele>89.288147</ele>
<time>2010-06-20T09:05:46Z</time>
<desc>lat.=55.986805, lon.=26.511604, Alt.=89.288147m. Speed=11.016000m/h.</desc>
<speed>3.060000</speed>
</trkpt>
<trkpt lat="55.986794" lon="26.511572">
<ele>88.907288</ele>
<time>2010-06-20T09:05:47Z</time>
<desc>lat.=55.986794, lon.=26.511572, Alt.=88.907288m. Speed=8.964000m/h.</desc>
<speed>2.490000</speed>
</trkpt>
<trkpt lat="55.986794" lon="26.511539">
<ele>88.856506</ele>
<time>2010-06-20T09:05:48Z</time>
<desc>lat.=55.986794, lon.=26.511539, Alt.=88.856506m. Speed=8.424000m/h.</desc>
<speed>2.340000</speed>
</trkpt>
<trkpt lat="55.986782" lon="26.511511">
<ele>88.915100</ele>
<time>2010-06-20T09:05:49Z</time>
<desc>lat.=55.986782, lon.=26.511511, Alt.=88.915100m. Speed=8.424000m/h.</desc>
<speed>2.340000</speed>
</trkpt>
<trkpt lat="55.986767" lon="26.511471">
<ele>88.866272</ele>
<time>2010-06-20T09:05:50Z</time>
<desc>lat.=55.986767, lon.=26.511471, Alt.=88.866272m. Speed=10.476000m/h.</desc>
<speed>2.910000</speed>
</trkpt>
<trkpt lat="55.986736" lon="26.511431">
<ele>88.987366</ele>
<time>2010-06-20T09:05:51Z</time>
<desc>lat.=55.986736, lon.=26.511431, Alt.=88.987366m. Speed=10.044000m/h.</desc>
<speed>2.790000</speed>
</trkpt>
<trkpt lat="55.986725" lon="26.511396">
<ele>89.020569</ele>
<time>2010-06-20T09:05:52Z</time>
<desc>lat.=55.986725, lon.=26.511396, Alt.=89.020569m. Speed=7.596000m/h.</desc>
<speed>2.110000</speed>
</trkpt>
<trkpt lat="55.986717" lon="26.511314">
<ele>89.715881</ele>
<time>2010-06-20T09:05:53Z</time>
<desc>lat.=55.986717, lon.=26.511314, Alt.=89.715881m. Speed=10.764000m/h.</desc>
<speed>2.990000</speed>
</trkpt>
<trkpt lat="55.986702" lon="26.511280">
<ele>89.512756</ele>
<time>2010-06-20T09:05:54Z</time>
<desc>lat.=55.986702, lon.=26.511280, Alt.=89.512756m. Speed=9.216000m/h.</desc>
<speed>2.560000</speed>
</trkpt>
<trkpt lat="55.986668" lon="26.511257">
<ele>89.286194</ele>
<time>2010-06-20T09:05:55Z</time>
<desc>lat.=55.986668, lon.=26.511257, Alt.=89.286194m. Speed=9.432000m/h.</desc>
<speed>2.620000</speed>
</trkpt>
<trkpt lat="55.986641" lon="26.511217">
<ele>89.221741</ele>
<time>2010-06-20T09:05:56Z</time>
<desc>lat.=55.986641, lon.=26.511217, Alt.=89.221741m. Speed=11.700000m/h.</desc>
<speed>3.250000</speed>
</trkpt>
<trkpt lat="55.986610" lon="26.511171">
<ele>89.219788</ele>
<time>2010-06-20T09:05:57Z</time>
<desc>lat.=55.986610, lon.=26.511171, Alt.=89.219788m. Speed=13.212000m/h.</desc>
<speed>3.670000</speed>
</trkpt>
<trkpt lat="55.986572" lon="26.511118">
<ele>88.981506</ele>
<time>2010-06-20T09:05:58Z</time>
<desc>lat.=55.986572, lon.=26.511118, Alt.=88.981506m. Speed=13.644000m/h.</desc>
<speed>3.790000</speed>
</trkpt>
<trkpt lat="55.986538" lon="26.511076">
<ele>88.702209</ele>
<time>2010-06-20T09:05:59Z</time>
<desc>lat.=55.986538, lon.=26.511076, Alt.=88.702209m. Speed=13.428000m/h.</desc>
<speed>3.730000</speed>
</trkpt>
<trkpt lat="55.986507" lon="26.511028">
<ele>89.366272</ele>
<time>2010-06-20T09:06:00Z</time>
<desc>lat.=55.986507, lon.=26.511028, Alt.=89.366272m. Speed=12.636000m/h.</desc>
<speed>3.510000</speed>
</trkpt>
<trkpt lat="55.986492" lon="26.510996">
<ele>89.215881</ele>
<time>2010-06-20T09:06:01Z</time>
<desc>lat.=55.986492, lon.=26.510996, Alt.=89.215881m. Speed=7.524000m/h.</desc>
<speed>2.090000</speed>
</trkpt>
<trkpt lat="55.986477" lon="26.510971">
<ele>89.741272</ele>
<time>2010-06-20T09:06:02Z</time>
<desc>lat.=55.986477, lon.=26.510971, Alt.=89.741272m. Speed=9.252000m/h.</desc>
<speed>2.570000</speed>
</trkpt>
<trkpt lat="55.986473" lon="26.510929">
<ele>89.922913</ele>
<time>2010-06-20T09:06:03Z</time>
<desc>lat.=55.986473, lon.=26.510929, Alt.=89.922913m. Speed=8.064000m/h.</desc>
<speed>2.240000</speed>
</trkpt>
<trkpt lat="55.986473" lon="26.510910">
<ele>91.126038</ele>
<time>2010-06-20T09:06:04Z</time>
<desc>lat.=55.986473, lon.=26.510910, Alt.=91.126038m. Speed=5.472000m/h.</desc>
<speed>1.520000</speed>
</trkpt>
<trkpt lat="55.986465" lon="26.510887">
<ele>91.215881</ele>
<time>2010-06-20T09:06:05Z</time>
<desc>lat.=55.986465, lon.=26.510887, Alt.=91.215881m. Speed=6.912000m/h.</desc>
<speed>1.920000</speed>
</trkpt>
<trkpt lat="55.986462" lon="26.510870">
<ele>91.731506</ele>
<time>2010-06-20T09:06:06Z</time>
<desc>lat.=55.986462, lon.=26.510870, Alt.=91.731506m. Speed=3.744000m/h.</desc>
<speed>1.040000</speed>
</trkpt>
<trkpt lat="55.986458" lon="26.510849">
<ele>91.891663</ele>
<time>2010-06-20T09:06:07Z</time>
<desc>lat.=55.986458, lon.=26.510849, Alt.=91.891663m. Speed=4.428000m/h.</desc>
<speed>1.230000</speed>
</trkpt>
<trkpt lat="55.986462" lon="26.510828">
<ele>91.747131</ele>
<time>2010-06-20T09:06:08Z</time>
<desc>lat.=55.986462, lon.=26.510828, Alt.=91.747131m. Speed=3.024000m/h.</desc>
<speed>0.840000</speed>
</trkpt>
<trkpt lat="55.986462" lon="26.510813">
<ele>92.151428</ele>
<time>2010-06-20T09:06:09Z</time>
<desc>lat.=55.986462, lon.=26.510813, Alt.=92.151428m. Speed=3.564000m/h.</desc>
<speed>0.990000</speed>
</trkpt>
<trkpt lat="55.986454" lon="26.510794">
<ele>92.137756</ele>
<time>2010-06-20T09:06:10Z</time>
<desc>lat.=55.986454, lon.=26.510794, Alt.=92.137756m. Speed=4.752000m/h.</desc>
<speed>1.320000</speed>
</trkpt>
<trkpt lat="55.986443" lon="26.510769">
<ele>92.477600</ele>
<time>2010-06-20T09:06:11Z</time>
<desc>lat.=55.986443, lon.=26.510769, Alt.=92.477600m. Speed=6.156000m/h.</desc>
<speed>1.710000</speed>
</trkpt>
<trkpt lat="55.986435" lon="26.510740">
<ele>92.626038</ele>
<time>2010-06-20T09:06:12Z</time>
<desc>lat.=55.986435, lon.=26.510740, Alt.=92.626038m. Speed=6.444000m/h.</desc>
<speed>1.790000</speed>
</trkpt>
<trkpt lat="55.986412" lon="26.510715">
<ele>92.762756</ele>
<time>2010-06-20T09:06:13Z</time>
<desc>lat.=55.986412, lon.=26.510715, Alt.=92.762756m. Speed=7.056000m/h.</desc>
<speed>1.960000</speed>
</trkpt>
<trkpt lat="55.986328" lon="26.510712">
<ele>93.422913</ele>
<time>2010-06-20T09:06:14Z</time>
<desc>lat.=55.986328, lon.=26.510712, Alt.=93.422913m. Speed=9.720000m/h.</desc>
<speed>2.700000</speed>
</trkpt>
<trkpt lat="55.986309" lon="26.510668">
<ele>93.374084</ele>
<time>2010-06-20T09:06:15Z</time>
<desc>lat.=55.986309, lon.=26.510668, Alt.=93.374084m. Speed=11.376000m/h.</desc>
<speed>3.160000</speed>
</trkpt>
<trkpt lat="55.986286" lon="26.510630">
<ele>93.647522</ele>
<time>2010-06-20T09:06:16Z</time>
<desc>lat.=55.986286, lon.=26.510630, Alt.=93.647522m. Speed=11.232000m/h.</desc>
<speed>3.120000</speed>
</trkpt>
<trkpt lat="55.986248" lon="26.510592">
<ele>93.469788</ele>
<time>2010-06-20T09:06:17Z</time>
<desc>lat.=55.986248, lon.=26.510592, Alt.=93.469788m. Speed=9.900000m/h.</desc>
<speed>2.750000</speed>
</trkpt>
<trkpt lat="55.986225" lon="26.510567">
<ele>93.385803</ele>
<time>2010-06-20T09:06:18Z</time>
<desc>lat.=55.986225, lon.=26.510567, Alt.=93.385803m. Speed=8.028000m/h.</desc>
<speed>2.230000</speed>
</trkpt>
<trkpt lat="55.986202" lon="26.510544">
<ele>93.348694</ele>
<time>2010-06-20T09:06:19Z</time>
<desc>lat.=55.986202, lon.=26.510544, Alt.=93.348694m. Speed=7.416000m/h.</desc>
<speed>2.060000</speed>
</trkpt>
<trkpt lat="55.986183" lon="26.510494">
<ele>94.098694</ele>
<time>2010-06-20T09:06:20Z</time>
<desc>lat.=55.986183, lon.=26.510494, Alt.=94.098694m. Speed=9.000000m/h.</desc>
<speed>2.500000</speed>
</trkpt>
<trkpt lat="55.986153" lon="26.510458">
<ele>94.483459</ele>
<time>2010-06-20T09:06:21Z</time>
<desc>lat.=55.986153, lon.=26.510458, Alt.=94.483459m. Speed=9.792000m/h.</desc>
<speed>2.720000</speed>
</trkpt>
<trkpt lat="55.986126" lon="26.510418">
<ele>94.536194</ele>
<time>2010-06-20T09:06:22Z</time>
<desc>lat.=55.986126, lon.=26.510418, Alt.=94.536194m. Speed=9.540000m/h.</desc>
<speed>2.650000</speed>
</trkpt>
<trkpt lat="55.986099" lon="26.510384">
<ele>94.335022</ele>
<time>2010-06-20T09:06:23Z</time>
<desc>lat.=55.986099, lon.=26.510384, Alt.=94.335022m. Speed=11.268000m/h.</desc>
<speed>3.130000</speed>
</trkpt>
<trkpt lat="55.986076" lon="26.510353">
<ele>94.182678</ele>
<time>2010-06-20T09:06:24Z</time>
<desc>lat.=55.986076, lon.=26.510353, Alt.=94.182678m. Speed=9.576000m/h.</desc>
<speed>2.660000</speed>
</trkpt>
<trkpt lat="55.986053" lon="26.510315">
<ele>94.903381</ele>
<time>2010-06-20T09:06:25Z</time>
<desc>lat.=55.986053, lon.=26.510315, Alt.=94.903381m. Speed=10.152000m/h.</desc>
<speed>2.820000</speed>
</trkpt>
<trkpt lat="55.986034" lon="26.510288">
<ele>94.754944</ele>
<time>2010-06-20T09:06:26Z</time>
<desc>lat.=55.986034, lon.=26.510288, Alt.=94.754944m. Speed=8.280000m/h.</desc>
<speed>2.300000</speed>
</trkpt>
<trkpt lat="55.986023" lon="26.510267">
<ele>94.981506</ele>
<time>2010-06-20T09:06:27Z</time>
<desc>lat.=55.986023, lon.=26.510267, Alt.=94.981506m. Speed=5.616000m/h.</desc>
<speed>1.560000</speed>
</trkpt>
<trkpt lat="55.986015" lon="26.510248">
<ele>95.004944</ele>
<time>2010-06-20T09:06:28Z</time>
<desc>lat.=55.986015, lon.=26.510248, Alt.=95.004944m. Speed=4.896000m/h.</desc>
<speed>1.360000</speed>
</trkpt>
<trkpt lat="55.986008" lon="26.510231">
<ele>95.331116</ele>
<time>2010-06-20T09:06:29Z</time>
<desc>lat.=55.986008, lon.=26.510231, Alt.=95.331116m. Speed=4.536000m/h.</desc>
<speed>1.260000</speed>
</trkpt>
<trkpt lat="55.985989" lon="26.510210">
<ele>95.290100</ele>
<time>2010-06-20T09:06:30Z</time>
<desc>lat.=55.985989, lon.=26.510210, Alt.=95.290100m. Speed=6.336000m/h.</desc>
<speed>1.760000</speed>
</trkpt>
<trkpt lat="55.985981" lon="26.510180">
<ele>95.551819</ele>
<time>2010-06-20T09:06:31Z</time>
<desc>lat.=55.985981, lon.=26.510180, Alt.=95.551819m. Speed=6.048000m/h.</desc>
<speed>1.680000</speed>
</trkpt>
<trkpt lat="55.985973" lon="26.510160">
<ele>95.221741</ele>
<time>2010-06-20T09:06:32Z</time>
<desc>lat.=55.985973, lon.=26.510160, Alt.=95.221741m. Speed=6.228000m/h.</desc>
<speed>1.730000</speed>
</trkpt>
<trkpt lat="55.985977" lon="26.510101">
<ele>96.071350</ele>
<time>2010-06-20T09:06:33Z</time>
<desc>lat.=55.985977, lon.=26.510101, Alt.=96.071350m. Speed=6.264000m/h.</desc>
<speed>1.740000</speed>
</trkpt>
<trkpt lat="55.985954" lon="26.510044">
<ele>96.202209</ele>
<time>2010-06-20T09:06:34Z</time>
<desc>lat.=55.985954, lon.=26.510044, Alt.=96.202209m. Speed=8.640000m/h.</desc>
<speed>2.400000</speed>
</trkpt>
<trkpt lat="55.985939" lon="26.509998">
<ele>96.319397</ele>
<time>2010-06-20T09:06:35Z</time>
<desc>lat.=55.985939, lon.=26.509998, Alt.=96.319397m. Speed=6.264000m/h.</desc>
<speed>1.740000</speed>
</trkpt>
<trkpt lat="55.985928" lon="26.509968">
<ele>96.432678</ele>
<time>2010-06-20T09:06:36Z</time>
<desc>lat.=55.985928, lon.=26.509968, Alt.=96.432678m. Speed=5.904000m/h.</desc>
<speed>1.640000</speed>
</trkpt>
<trkpt lat="55.985912" lon="26.509932">
<ele>97.288147</ele>
<time>2010-06-20T09:06:37Z</time>
<desc>lat.=55.985912, lon.=26.509932, Alt.=97.288147m. Speed=4.536000m/h.</desc>
<speed>1.260000</speed>
</trkpt>
<trkpt lat="55.985878" lon="26.509912">
<ele>97.643616</ele>
<time>2010-06-20T09:06:38Z</time>
<desc>lat.=55.985878, lon.=26.509912, Alt.=97.643616m. Speed=4.932000m/h.</desc>
<speed>1.370000</speed>
</trkpt>
<trkpt lat="55.985832" lon="26.509874">
<ele>96.963928</ele>
<time>2010-06-20T09:06:39Z</time>
<desc>lat.=55.985832, lon.=26.509874, Alt.=96.963928m. Speed=6.228000m/h.</desc>
<speed>1.730000</speed>
</trkpt>
<trkpt lat="55.985806" lon="26.509853">
<ele>97.100647</ele>
<time>2010-06-20T09:06:40Z</time>
<desc>lat.=55.985806, lon.=26.509853, Alt.=97.100647m. Speed=7.128000m/h.</desc>
<speed>1.980000</speed>
</trkpt>
<trkpt lat="55.985786" lon="26.509830">
<ele>96.803772</ele>
<time>2010-06-20T09:06:41Z</time>
<desc>lat.=55.985786, lon.=26.509830, Alt.=96.803772m. Speed=5.148000m/h.</desc>
<speed>1.430000</speed>
</trkpt>
<trkpt lat="55.985783" lon="26.509808">
<ele>96.989319</ele>
<time>2010-06-20T09:06:42Z</time>
<desc>lat.=55.985783, lon.=26.509808, Alt.=96.989319m. Speed=5.724000m/h.</desc>
<speed>1.590000</speed>
</trkpt>
<trkpt lat="55.985775" lon="26.509785">
<ele>96.999084</ele>
<time>2010-06-20T09:06:43Z</time>
<desc>lat.=55.985775, lon.=26.509785, Alt.=96.999084m. Speed=4.536000m/h.</desc>
<speed>1.260000</speed>
</trkpt>
<trkpt lat="55.985760" lon="26.509758">
<ele>96.649475</ele>
<time>2010-06-20T09:06:44Z</time>
<desc>lat.=55.985760, lon.=26.509758, Alt.=96.649475m. Speed=5.796000m/h.</desc>
<speed>1.610000</speed>
</trkpt>
<trkpt lat="55.985748" lon="26.509729">
<ele>96.389709</ele>
<time>2010-06-20T09:06:45Z</time>
<desc>lat.=55.985748, lon.=26.509729, Alt.=96.389709m. Speed=6.984000m/h.</desc>
<speed>1.940000</speed>
</trkpt>
<trkpt lat="55.985744" lon="26.509708">
<ele>96.514709</ele>
<time>2010-06-20T09:06:46Z</time>
<desc>lat.=55.985744, lon.=26.509708, Alt.=96.514709m. Speed=4.320000m/h.</desc>
<speed>1.200000</speed>
</trkpt>
<trkpt lat="55.985729" lon="26.509684">
<ele>96.520569</ele>
<time>2010-06-20T09:06:47Z</time>
<desc>lat.=55.985729, lon.=26.509684, Alt.=96.520569m. Speed=6.156000m/h.</desc>
<speed>1.710000</speed>
</trkpt>
<trkpt lat="55.985718" lon="26.509672">
<ele>96.725647</ele>
<time>2010-06-20T09:06:48Z</time>
<desc>lat.=55.985718, lon.=26.509672, Alt.=96.725647m. Speed=4.572000m/h.</desc>
<speed>1.270000</speed>
</trkpt>
<trkpt lat="55.985706" lon="26.509649">
<ele>96.713928</ele>
<time>2010-06-20T09:06:49Z</time>
<desc>lat.=55.985706, lon.=26.509649, Alt.=96.713928m. Speed=5.364000m/h.</desc>
<speed>1.490000</speed>
</trkpt>
<trkpt lat="55.985657" lon="26.509617">
<ele>96.465881</ele>
<time>2010-06-20T09:06:50Z</time>
<desc>lat.=55.985657, lon.=26.509617, Alt.=96.465881m. Speed=10.332000m/h.</desc>
<speed>2.870000</speed>
</trkpt>
<trkpt lat="55.985630" lon="26.509581">
<ele>96.536194</ele>
<time>2010-06-20T09:06:51Z</time>
<desc>lat.=55.985630, lon.=26.509581, Alt.=96.536194m. Speed=9.720000m/h.</desc>
<speed>2.700000</speed>
</trkpt>
<trkpt lat="55.985600" lon="26.509562">
<ele>96.321350</ele>
<time>2010-06-20T09:06:52Z</time>
<desc>lat.=55.985600, lon.=26.509562, Alt.=96.321350m. Speed=9.288000m/h.</desc>
<speed>2.580000</speed>
</trkpt>
<trkpt lat="55.985580" lon="26.509539">
<ele>96.124084</ele>
<time>2010-06-20T09:06:53Z</time>
<desc>lat.=55.985580, lon.=26.509539, Alt.=96.124084m. Speed=8.172000m/h.</desc>
<speed>2.270000</speed>
</trkpt>
<trkpt lat="55.985558" lon="26.509504">
<ele>95.991272</ele>
<time>2010-06-20T09:06:54Z</time>
<desc>lat.=55.985558, lon.=26.509504, Alt.=95.991272m. Speed=8.568000m/h.</desc>
<speed>2.380000</speed>
</trkpt>
<trkpt lat="55.985546" lon="26.509434">
<ele>96.559631</ele>
<time>2010-06-20T09:06:55Z</time>
<desc>lat.=55.985546, lon.=26.509434, Alt.=96.559631m. Speed=7.128000m/h.</desc>
<speed>1.980000</speed>
</trkpt>
<trkpt lat="55.985535" lon="26.509361">
<ele>97.489319</ele>
<time>2010-06-20T09:06:56Z</time>
<desc>lat.=55.985535, lon.=26.509361, Alt.=97.489319m. Speed=8.676000m/h.</desc>
<speed>2.410000</speed>
</trkpt>
<trkpt lat="55.985516" lon="26.509317">
<ele>97.663147</ele>
<time>2010-06-20T09:06:57Z</time>
<desc>lat.=55.985516, lon.=26.509317, Alt.=97.663147m. Speed=8.640000m/h.</desc>
<speed>2.400000</speed>
</trkpt>
<trkpt lat="55.985500" lon="26.509275">
<ele>97.958069</ele>
<time>2010-06-20T09:06:58Z</time>
<desc>lat.=55.985500, lon.=26.509275, Alt.=97.958069m. Speed=9.396000m/h.</desc>
<speed>2.610000</speed>
</trkpt>
<trkpt lat="55.985485" lon="26.509245">
<ele>97.633850</ele>
<time>2010-06-20T09:06:59Z</time>
<desc>lat.=55.985485, lon.=26.509245, Alt.=97.633850m. Speed=9.000000m/h.</desc>
<speed>2.500000</speed>
</trkpt>
<trkpt lat="55.985455" lon="26.509212">
<ele>96.245178</ele>
<time>2010-06-20T09:07:00Z</time>
<desc>lat.=55.985455, lon.=26.509212, Alt.=96.245178m. Speed=9.972000m/h.</desc>
<speed>2.770000</speed>
</trkpt>
<trkpt lat="55.985435" lon="26.509163">
<ele>96.069397</ele>
<time>2010-06-20T09:07:01Z</time>
<desc>lat.=55.985435, lon.=26.509163, Alt.=96.069397m. Speed=9.972000m/h.</desc>
<speed>2.770000</speed>
</trkpt>
<trkpt lat="55.985409" lon="26.509134">
<ele>95.729553</ele>
<time>2010-06-20T09:07:02Z</time>
<desc>lat.=55.985409, lon.=26.509134, Alt.=95.729553m. Speed=9.612000m/h.</desc>
<speed>2.670000</speed>
</trkpt>
<trkpt lat="55.985382" lon="26.509115">
<ele>95.192444</ele>
<time>2010-06-20T09:07:03Z</time>
<desc>lat.=55.985382, lon.=26.509115, Alt.=95.192444m. Speed=10.260000m/h.</desc>
<speed>2.850000</speed>
</trkpt>
<trkpt lat="55.985359" lon="26.509102">
<ele>95.079163</ele>
<time>2010-06-20T09:07:04Z</time>
<desc>lat.=55.985359, lon.=26.509102, Alt.=95.079163m. Speed=9.684000m/h.</desc>
<speed>2.690000</speed>
</trkpt>
<trkpt lat="55.985329" lon="26.509090">
<ele>95.276428</ele>
<time>2010-06-20T09:07:05Z</time>
<desc>lat.=55.985329, lon.=26.509090, Alt.=95.276428m. Speed=10.296000m/h.</desc>
<speed>2.860000</speed>
</trkpt>
<trkpt lat="55.985294" lon="26.509083">
<ele>96.036194</ele>
<time>2010-06-20T09:07:06Z</time>
<desc>lat.=55.985294, lon.=26.509083, Alt.=96.036194m. Speed=10.044000m/h.</desc>
<speed>2.790000</speed>
</trkpt>
<trkpt lat="55.985264" lon="26.509066">
<ele>96.706116</ele>
<time>2010-06-20T09:07:07Z</time>
<desc>lat.=55.985264, lon.=26.509066, Alt.=96.706116m. Speed=10.980000m/h.</desc>
<speed>3.050000</speed>
</trkpt>
<trkpt lat="55.985226" lon="26.509052">
<ele>97.733459</ele>
<time>2010-06-20T09:07:08Z</time>
<desc>lat.=55.985226, lon.=26.509052, Alt.=97.733459m. Speed=10.548000m/h.</desc>
<speed>2.930000</speed>
</trkpt>
<trkpt lat="55.985199" lon="26.509035">
<ele>98.670959</ele>
<time>2010-06-20T09:07:09Z</time>
<desc>lat.=55.985199, lon.=26.509035, Alt.=98.670959m. Speed=11.052000m/h.</desc>
<speed>3.070000</speed>
</trkpt>
<trkpt lat="55.985157" lon="26.508991">
<ele>101.206116</ele>
<time>2010-06-20T09:07:10Z</time>
<desc>lat.=55.985157, lon.=26.508991, Alt.=101.206116m. Speed=11.664000m/h.</desc>
<speed>3.240000</speed>
</trkpt>
<trkpt lat="55.985126" lon="26.508959">
<ele>102.327209</ele>
<time>2010-06-20T09:07:11Z</time>
<desc>lat.=55.985126, lon.=26.508959, Alt.=102.327209m. Speed=10.476000m/h.</desc>
<speed>2.910000</speed>
</trkpt>
<trkpt lat="55.985111" lon="26.508917">
<ele>102.401428</ele>
<time>2010-06-20T09:07:12Z</time>
<desc>lat.=55.985111, lon.=26.508917, Alt.=102.401428m. Speed=9.540000m/h.</desc>
<speed>2.650000</speed>
</trkpt>
<trkpt lat="55.985096" lon="26.508821">
<ele>101.932678</ele>
<time>2010-06-20T09:07:13Z</time>
<desc>lat.=55.985096, lon.=26.508821, Alt.=101.932678m. Speed=10.008000m/h.</desc>
<speed>2.780000</speed>
</trkpt>
<trkpt lat="55.985077" lon="26.508759">
<ele>101.233459</ele>
<time>2010-06-20T09:07:14Z</time>
<desc>lat.=55.985077, lon.=26.508759, Alt.=101.233459m. Speed=10.404000m/h.</desc>
<speed>2.890000</speed>
</trkpt>
<trkpt lat="55.985046" lon="26.508699">
<ele>99.815491</ele>
<time>2010-06-20T09:07:15Z</time>
<desc>lat.=55.985046, lon.=26.508699, Alt.=99.815491m. Speed=12.348000m/h.</desc>
<speed>3.430000</speed>
</trkpt>
<trkpt lat="55.985023" lon="26.508665">
<ele>99.561584</ele>
<time>2010-06-20T09:07:16Z</time>
<desc>lat.=55.985023, lon.=26.508665, Alt.=99.561584m. Speed=11.448000m/h.</desc>
<speed>3.180000</speed>
</trkpt>
<trkpt lat="55.984997" lon="26.508636">
<ele>99.372131</ele>
<time>2010-06-20T09:07:17Z</time>
<desc>lat.=55.984997, lon.=26.508636, Alt.=99.372131m. Speed=11.520000m/h.</desc>
<speed>3.200000</speed>
</trkpt>
<trkpt lat="55.984966" lon="26.508596">
<ele>99.180725</ele>
<time>2010-06-20T09:07:18Z</time>
<desc>lat.=55.984966, lon.=26.508596, Alt.=99.180725m. Speed=11.988000m/h.</desc>
<speed>3.330000</speed>
</trkpt>
<trkpt lat="55.984940" lon="26.508566">
<ele>99.569397</ele>
<time>2010-06-20T09:07:19Z</time>
<desc>lat.=55.984940, lon.=26.508566, Alt.=99.569397m. Speed=11.376000m/h.</desc>
<speed>3.160000</speed>
</trkpt>
<trkpt lat="55.984913" lon="26.508535">
<ele>99.840881</ele>
<time>2010-06-20T09:07:20Z</time>
<desc>lat.=55.984913, lon.=26.508535, Alt.=99.840881m. Speed=11.196000m/h.</desc>
<speed>3.110000</speed>
</trkpt>
<trkpt lat="55.984886" lon="26.508516">
<ele>100.313538</ele>
<time>2010-06-20T09:07:21Z</time>
<desc>lat.=55.984886, lon.=26.508516, Alt.=100.313538m. Speed=11.088000m/h.</desc>
<speed>3.080000</speed>
</trkpt>
<trkpt lat="55.984856" lon="26.508493">
<ele>100.893616</ele>
<time>2010-06-20T09:07:22Z</time>
<desc>lat.=55.984856, lon.=26.508493, Alt.=100.893616m. Speed=10.440000m/h.</desc>
<speed>2.900000</speed>
</trkpt>
<trkpt lat="55.984833" lon="26.508465">
<ele>101.346741</ele>
<time>2010-06-20T09:07:23Z</time>
<desc>lat.=55.984833, lon.=26.508465, Alt.=101.346741m. Speed=10.908000m/h.</desc>
<speed>3.030000</speed>
</trkpt>
<trkpt lat="55.984802" lon="26.508440">
<ele>101.473694</ele>
<time>2010-06-20T09:07:24Z</time>
<desc>lat.=55.984802, lon.=26.508440, Alt.=101.473694m. Speed=11.808000m/h.</desc>
<speed>3.280000</speed>
</trkpt>
<trkpt lat="55.984776" lon="26.508408">
<ele>100.766663</ele>
<time>2010-06-20T09:07:25Z</time>
<desc>lat.=55.984776, lon.=26.508408, Alt.=100.766663m. Speed=10.476000m/h.</desc>
<speed>2.910000</speed>
</trkpt>
<trkpt lat="55.984753" lon="26.508371">
<ele>99.956116</ele>
<time>2010-06-20T09:07:26Z</time>
<desc>lat.=55.984753, lon.=26.508371, Alt.=99.956116m. Speed=10.224000m/h.</desc>
<speed>2.840000</speed>
</trkpt>
<trkpt lat="55.984726" lon="26.508339">
<ele>100.143616</ele>
<time>2010-06-20T09:07:27Z</time>
<desc>lat.=55.984726, lon.=26.508339, Alt.=100.143616m. Speed=11.340000m/h.</desc>
<speed>3.150000</speed>
</trkpt>
<trkpt lat="55.984699" lon="26.508308">
<ele>100.254944</ele>
<time>2010-06-20T09:07:28Z</time>
<desc>lat.=55.984699, lon.=26.508308, Alt.=100.254944m. Speed=11.664000m/h.</desc>
<speed>3.240000</speed>
</trkpt>
<trkpt lat="55.984673" lon="26.508240">
<ele>97.034241</ele>
<time>2010-06-20T09:07:29Z</time>
<desc>lat.=55.984673, lon.=26.508240, Alt.=97.034241m. Speed=12.132000m/h.</desc>
<speed>3.370000</speed>
</trkpt>
<trkpt lat="55.984646" lon="26.508207">
<ele>96.960022</ele>
<time>2010-06-20T09:07:30Z</time>
<desc>lat.=55.984646, lon.=26.508207, Alt.=96.960022m. Speed=11.556000m/h.</desc>
<speed>3.210000</speed>
</trkpt>
<trkpt lat="55.984619" lon="26.508184">
<ele>97.698303</ele>
<time>2010-06-20T09:07:31Z</time>
<desc>lat.=55.984619, lon.=26.508184, Alt.=97.698303m. Speed=11.268000m/h.</desc>
<speed>3.130000</speed>
</trkpt>
<trkpt lat="55.984600" lon="26.508162">
<ele>98.797913</ele>
<time>2010-06-20T09:07:32Z</time>
<desc>lat.=55.984600, lon.=26.508162, Alt.=98.797913m. Speed=9.324000m/h.</desc>
<speed>2.590000</speed>
</trkpt>
<trkpt lat="55.984573" lon="26.508116">
<ele>97.557678</ele>
<time>2010-06-20T09:07:33Z</time>
<desc>lat.=55.984573, lon.=26.508116, Alt.=97.557678m. Speed=10.908000m/h.</desc>
<speed>3.030000</speed>
</trkpt>
<trkpt lat="55.984550" lon="26.508085">
<ele>98.313538</ele>
<time>2010-06-20T09:07:34Z</time>
<desc>lat.=55.984550, lon.=26.508085, Alt.=98.313538m. Speed=11.160000m/h.</desc>
<speed>3.100000</speed>
</trkpt>
<trkpt lat="55.984524" lon="26.508053">
<ele>98.311584</ele>
<time>2010-06-20T09:07:35Z</time>
<desc>lat.=55.984524, lon.=26.508053, Alt.=98.311584m. Speed=11.052000m/h.</desc>
<speed>3.070000</speed>
</trkpt>
<trkpt lat="55.984501" lon="26.507990">
<ele>97.778381</ele>
<time>2010-06-20T09:07:36Z</time>
<desc>lat.=55.984501, lon.=26.507990, Alt.=97.778381m. Speed=12.528000m/h.</desc>
<speed>3.480000</speed>
</trkpt>
<trkpt lat="55.984478" lon="26.507931">
<ele>96.547913</ele>
<time>2010-06-20T09:07:37Z</time>
<desc>lat.=55.984478, lon.=26.507931, Alt.=96.547913m. Speed=12.564000m/h.</desc>
<speed>3.490000</speed>
</trkpt>
<trkpt lat="55.984451" lon="26.507896">
<ele>96.684631</ele>
<time>2010-06-20T09:07:38Z</time>
<desc>lat.=55.984451, lon.=26.507896, Alt.=96.684631m. Speed=12.348000m/h.</desc>
<speed>3.430000</speed>
</trkpt>
<trkpt lat="55.984428" lon="26.507870">
<ele>96.958069</ele>
<time>2010-06-20T09:07:39Z</time>
<desc>lat.=55.984428, lon.=26.507870, Alt.=96.958069m. Speed=8.964000m/h.</desc>
<speed>2.490000</speed>
</trkpt>
<trkpt lat="55.984402" lon="26.507847">
<ele>96.823303</ele>
<time>2010-06-20T09:07:40Z</time>
<desc>lat.=55.984402, lon.=26.507847, Alt.=96.823303m. Speed=9.324000m/h.</desc>
<speed>2.590000</speed>
</trkpt>
<trkpt lat="55.984379" lon="26.507828">
<ele>96.692444</ele>
<time>2010-06-20T09:07:41Z</time>
<desc>lat.=55.984379, lon.=26.507828, Alt.=96.692444m. Speed=8.244000m/h.</desc>
<speed>2.290000</speed>
</trkpt>
<trkpt lat="55.984348" lon="26.507826">
<ele>98.069397</ele>
<time>2010-06-20T09:07:42Z</time>
<desc>lat.=55.984348, lon.=26.507826, Alt.=98.069397m. Speed=8.568000m/h.</desc>
<speed>2.380000</speed>
</trkpt>
<trkpt lat="55.984310" lon="26.507828">
<ele>98.778381</ele>
<time>2010-06-20T09:07:43Z</time>
<desc>lat.=55.984310, lon.=26.507828, Alt.=98.778381m. Speed=10.584000m/h.</desc>
<speed>2.940000</speed>
</trkpt>
<trkpt lat="55.984280" lon="26.507807">
<ele>100.467834</ele>
<time>2010-06-20T09:07:44Z</time>
<desc>lat.=55.984280, lon.=26.507807, Alt.=100.467834m. Speed=10.008000m/h.</desc>
<speed>2.780000</speed>
</trkpt>
<trkpt lat="55.984249" lon="26.507816">
<ele>100.481506</ele>
<time>2010-06-20T09:07:45Z</time>
<desc>lat.=55.984249, lon.=26.507816, Alt.=100.481506m. Speed=10.080000m/h.</desc>
<speed>2.800000</speed>
</trkpt>
<trkpt lat="55.984219" lon="26.507824">
<ele>101.176819</ele>
<time>2010-06-20T09:07:46Z</time>
<desc>lat.=55.984219, lon.=26.507824, Alt.=101.176819m. Speed=9.504000m/h.</desc>
<speed>2.640000</speed>
</trkpt>
<trkpt lat="55.984188" lon="26.507849">
<ele>101.725647</ele>
<time>2010-06-20T09:07:47Z</time>
<desc>lat.=55.984188, lon.=26.507849, Alt.=101.725647m. Speed=10.512000m/h.</desc>
<speed>2.920000</speed>
</trkpt>
<trkpt lat="55.984161" lon="26.507862">
<ele>101.604553</ele>
<time>2010-06-20T09:07:48Z</time>
<desc>lat.=55.984161, lon.=26.507862, Alt.=101.604553m. Speed=9.396000m/h.</desc>
<speed>2.610000</speed>
</trkpt>
<trkpt lat="55.984142" lon="26.507870">
<ele>102.567444</ele>
<time>2010-06-20T09:07:49Z</time>
<desc>lat.=55.984142, lon.=26.507870, Alt.=102.567444m. Speed=9.324000m/h.</desc>
<speed>2.590000</speed>
</trkpt>
<trkpt lat="55.984116" lon="26.507875">
<ele>103.301819</ele>
<time>2010-06-20T09:07:50Z</time>
<desc>lat.=55.984116, lon.=26.507875, Alt.=103.301819m. Speed=11.952000m/h.</desc>
<speed>3.320000</speed>
</trkpt>
<trkpt lat="55.984089" lon="26.507887">
<ele>103.448303</ele>
<time>2010-06-20T09:07:51Z</time>
<desc>lat.=55.984089, lon.=26.507887, Alt.=103.448303m. Speed=10.044000m/h.</desc>
<speed>2.790000</speed>
</trkpt>
<trkpt lat="55.984070" lon="26.507898">
<ele>103.151428</ele>
<time>2010-06-20T09:07:52Z</time>
<desc>lat.=55.984070, lon.=26.507898, Alt.=103.151428m. Speed=7.380000m/h.</desc>
<speed>2.050000</speed>
</trkpt>
<trkpt lat="55.984047" lon="26.507914">
<ele>103.149475</ele>
<time>2010-06-20T09:07:53Z</time>
<desc>lat.=55.984047, lon.=26.507914, Alt.=103.149475m. Speed=7.164000m/h.</desc>
<speed>1.990000</speed>
</trkpt>
<trkpt lat="55.984028" lon="26.507935">
<ele>103.487366</ele>
<time>2010-06-20T09:07:54Z</time>
<desc>lat.=55.984028, lon.=26.507935, Alt.=103.487366m. Speed=7.632000m/h.</desc>
<speed>2.120000</speed>
</trkpt>
<trkpt lat="55.983974" lon="26.507935">
<ele>102.419006</ele>
<time>2010-06-20T09:07:55Z</time>
<desc>lat.=55.983974, lon.=26.507935, Alt.=102.419006m. Speed=9.324000m/h.</desc>
<speed>2.590000</speed>
</trkpt>
<trkpt lat="55.983932" lon="26.507940">
<ele>102.135803</ele>
<time>2010-06-20T09:07:56Z</time>
<desc>lat.=55.983932, lon.=26.507940, Alt.=102.135803m. Speed=11.592000m/h.</desc>
<speed>3.220000</speed>
</trkpt>
<trkpt lat="55.983891" lon="26.507961">
<ele>102.055725</ele>
<time>2010-06-20T09:07:57Z</time>
<desc>lat.=55.983891, lon.=26.507961, Alt.=102.055725m. Speed=15.552000m/h.</desc>
<speed>4.320000</speed>
</trkpt>
<trkpt lat="55.983841" lon="26.507982">
<ele>101.237366</ele>
<time>2010-06-20T09:07:58Z</time>
<desc>lat.=55.983841, lon.=26.507982, Alt.=101.237366m. Speed=16.416000m/h.</desc>
<speed>4.560000</speed>
</trkpt>
<trkpt lat="55.983784" lon="26.508009">
<ele>100.126038</ele>
<time>2010-06-20T09:07:59Z</time>
<desc>lat.=55.983784, lon.=26.508009, Alt.=100.126038m. Speed=16.308001m/h.</desc>
<speed>4.530000</speed>
</trkpt>
<trkpt lat="55.983738" lon="26.508030">
<ele>99.794006</ele>
<time>2010-06-20T09:08:00Z</time>
<desc>lat.=55.983738, lon.=26.508030, Alt.=99.794006m. Speed=16.740000m/h.</desc>
<speed>4.650000</speed>
</trkpt>
<trkpt lat="55.983685" lon="26.508051">
<ele>99.434631</ele>
<time>2010-06-20T09:08:01Z</time>
<desc>lat.=55.983685, lon.=26.508051, Alt.=99.434631m. Speed=15.516000m/h.</desc>
<speed>4.310000</speed>
</trkpt>
<trkpt lat="55.983650" lon="26.508064">
<ele>98.745178</ele>
<time>2010-06-20T09:08:02Z</time>
<desc>lat.=55.983650, lon.=26.508064, Alt.=98.745178m. Speed=13.284000m/h.</desc>
<speed>3.690000</speed>
</trkpt>
<trkpt lat="55.983593" lon="26.508080">
<ele>98.487366</ele>
<time>2010-06-20T09:08:03Z</time>
<desc>lat.=55.983593, lon.=26.508080, Alt.=98.487366m. Speed=14.148000m/h.</desc>
<speed>3.930000</speed>
</trkpt>
<trkpt lat="55.983559" lon="26.508101">
<ele>98.733459</ele>
<time>2010-06-20T09:08:04Z</time>
<desc>lat.=55.983559, lon.=26.508101, Alt.=98.733459m. Speed=13.608000m/h.</desc>
<speed>3.780000</speed>
</trkpt>
<trkpt lat="55.983521" lon="26.508116">
<ele>98.585022</ele>
<time>2010-06-20T09:08:05Z</time>
<desc>lat.=55.983521, lon.=26.508116, Alt.=98.585022m. Speed=14.112000m/h.</desc>
<speed>3.920000</speed>
</trkpt>
<trkpt lat="55.983486" lon="26.508129">
<ele>98.475647</ele>
<time>2010-06-20T09:08:06Z</time>
<desc>lat.=55.983486, lon.=26.508129, Alt.=98.475647m. Speed=13.284000m/h.</desc>
<speed>3.690000</speed>
</trkpt>
<trkpt lat="55.983456" lon="26.508142">
<ele>98.409241</ele>
<time>2010-06-20T09:08:07Z</time>
<desc>lat.=55.983456, lon.=26.508142, Alt.=98.409241m. Speed=12.492000m/h.</desc>
<speed>3.470000</speed>
</trkpt>
<trkpt lat="55.983425" lon="26.508158">
<ele>98.006897</ele>
<time>2010-06-20T09:08:08Z</time>
<desc>lat.=55.983425, lon.=26.508158, Alt.=98.006897m. Speed=11.484000m/h.</desc>
<speed>3.190000</speed>
</trkpt>
<trkpt lat="55.983391" lon="26.508165">
<ele>97.641663</ele>
<time>2010-06-20T09:08:09Z</time>
<desc>lat.=55.983391, lon.=26.508165, Alt.=97.641663m. Speed=12.852000m/h.</desc>
<speed>3.570000</speed>
</trkpt>
<trkpt lat="55.983356" lon="26.508175">
<ele>97.856506</ele>
<time>2010-06-20T09:08:10Z</time>
<desc>lat.=55.983356, lon.=26.508175, Alt.=97.856506m. Speed=12.708000m/h.</desc>
<speed>3.530000</speed>
</trkpt>
<trkpt lat="55.983330" lon="26.508179">
<ele>96.364319</ele>
<time>2010-06-20T09:08:11Z</time>
<desc>lat.=55.983330, lon.=26.508179, Alt.=96.364319m. Speed=10.800000m/h.</desc>
<speed>3.000000</speed>
</trkpt>
<trkpt lat="55.983292" lon="26.508186">
<ele>96.045959</ele>
<time>2010-06-20T09:08:12Z</time>
<desc>lat.=55.983292, lon.=26.508186, Alt.=96.045959m. Speed=10.476000m/h.</desc>
<speed>2.910000</speed>
</trkpt>
<trkpt lat="55.983257" lon="26.508190">
<ele>96.297913</ele>
<time>2010-06-20T09:08:13Z</time>
<desc>lat.=55.983257, lon.=26.508190, Alt.=96.297913m. Speed=9.936000m/h.</desc>
<speed>2.760000</speed>
</trkpt>
<trkpt lat="55.983227" lon="26.508204">
<ele>95.534241</ele>
<time>2010-06-20T09:08:14Z</time>
<desc>lat.=55.983227, lon.=26.508204, Alt.=95.534241m. Speed=10.224000m/h.</desc>
<speed>2.840000</speed>
</trkpt>
<trkpt lat="55.983200" lon="26.508224">
<ele>94.317444</ele>
<time>2010-06-20T09:08:15Z</time>
<desc>lat.=55.983200, lon.=26.508224, Alt.=94.317444m. Speed=9.540000m/h.</desc>
<speed>2.650000</speed>
</trkpt>
<trkpt lat="55.983173" lon="26.508261">
<ele>92.614319</ele>
<time>2010-06-20T09:08:16Z</time>
<desc>lat.=55.983173, lon.=26.508261, Alt.=92.614319m. Speed=8.028000m/h.</desc>
<speed>2.230000</speed>
</trkpt>
<trkpt lat="55.983154" lon="26.508287">
<ele>91.573303</ele>
<time>2010-06-20T09:08:17Z</time>
<desc>lat.=55.983154, lon.=26.508287, Alt.=91.573303m. Speed=8.136000m/h.</desc>
<speed>2.260000</speed>
</trkpt>
<trkpt lat="55.983143" lon="26.508310">
<ele>90.889709</ele>
<time>2010-06-20T09:08:18Z</time>
<desc>lat.=55.983143, lon.=26.508310, Alt.=90.889709m. Speed=6.372000m/h.</desc>
<speed>1.770000</speed>
</trkpt>
<trkpt lat="55.983135" lon="26.508327">
<ele>90.745178</ele>
<time>2010-06-20T09:08:19Z</time>
<desc>lat.=55.983135, lon.=26.508327, Alt.=90.745178m. Speed=5.040000m/h.</desc>
<speed>1.400000</speed>
</trkpt>
<trkpt lat="55.983128" lon="26.508339">
<ele>90.434631</ele>
<time>2010-06-20T09:08:20Z</time>
<desc>lat.=55.983128, lon.=26.508339, Alt.=90.434631m. Speed=1.404000m/h.</desc>
<speed>0.390000</speed>
</trkpt>
<trkpt lat="55.983131" lon="26.508345">
<ele>90.243225</ele>
<time>2010-06-20T09:08:21Z</time>
<desc>lat.=55.983131, lon.=26.508345, Alt.=90.243225m. Speed=1.620000m/h.</desc>
<speed>0.450000</speed>
</trkpt>
<trkpt lat="55.983128" lon="26.508350">
<ele>90.040100</ele>
<time>2010-06-20T09:08:22Z</time>
<desc>lat.=55.983128, lon.=26.508350, Alt.=90.040100m. Speed=1.188000m/h.</desc>
<speed>0.330000</speed>
</trkpt>
<trkpt lat="55.983124" lon="26.508354">
<ele>89.778381</ele>
<time>2010-06-20T09:08:23Z</time>
<desc>lat.=55.983124, lon.=26.508354, Alt.=89.778381m. Speed=1.044000m/h.</desc>
<speed>0.290000</speed>
</trkpt>
<trkpt lat="55.983120" lon="26.508358">
<ele>89.501038</ele>
<time>2010-06-20T09:08:24Z</time>
<desc>lat.=55.983120, lon.=26.508358, Alt.=89.501038m. Speed=0.936000m/h.</desc>
<speed>0.260000</speed>
</trkpt>
<trkpt lat="55.983120" lon="26.508362">
<ele>89.280334</ele>
<time>2010-06-20T09:08:25Z</time>
<desc>lat.=55.983120, lon.=26.508362, Alt.=89.280334m. Speed=0.900000m/h.</desc>
<speed>0.250000</speed>
</trkpt>
<trkpt lat="55.983116" lon="26.508366">
<ele>89.104553</ele>
<time>2010-06-20T09:08:26Z</time>
<desc>lat.=55.983116, lon.=26.508366, Alt.=89.104553m. Speed=0.720000m/h.</desc>
<speed>0.200000</speed>
</trkpt>
<trkpt lat="55.983116" lon="26.508368">
<ele>88.965881</ele>
<time>2010-06-20T09:08:27Z</time>
<desc>lat.=55.983116, lon.=26.508368, Alt.=88.965881m. Speed=0.612000m/h.</desc>
<speed>0.170000</speed>
</trkpt>
<trkpt lat="55.983116" lon="26.508369">
<ele>88.856506</ele>
<time>2010-06-20T09:08:28Z</time>
<desc>lat.=55.983116, lon.=26.508369, Alt.=88.856506m. Speed=0.648000m/h.</desc>
<speed>0.180000</speed>
</trkpt>
<trkpt lat="55.983112" lon="26.508369">
<ele>88.795959</ele>
<time>2010-06-20T09:08:29Z</time>
<desc>lat.=55.983112, lon.=26.508369, Alt.=88.795959m. Speed=0.684000m/h.</desc>
<speed>0.190000</speed>
</trkpt>
<trkpt lat="55.983112" lon="26.508371">
<ele>88.751038</ele>
<time>2010-06-20T09:08:30Z</time>
<desc>lat.=55.983112, lon.=26.508371, Alt.=88.751038m. Speed=0.756000m/h.</desc>
<speed>0.210000</speed>
</trkpt>
<trkpt lat="55.983109" lon="26.508371">
<ele>88.717834</ele>
<time>2010-06-20T09:08:31Z</time>
<desc>lat.=55.983109, lon.=26.508371, Alt.=88.717834m. Speed=1.476000m/h.</desc>
<speed>0.410000</speed>
</trkpt>
<trkpt lat="55.983109" lon="26.508377">
<ele>88.690491</ele>
<time>2010-06-20T09:08:32Z</time>
<desc>lat.=55.983109, lon.=26.508377, Alt.=88.690491m. Speed=3.024000m/h.</desc>
<speed>0.840000</speed>
</trkpt>
<trkpt lat="55.983105" lon="26.508389">
<ele>88.667053</ele>
<time>2010-06-20T09:08:33Z</time>
<desc>lat.=55.983105, lon.=26.508389, Alt.=88.667053m. Speed=3.420000m/h.</desc>
<speed>0.950000</speed>
</trkpt>
<trkpt lat="55.983101" lon="26.508402">
<ele>88.645569</ele>
<time>2010-06-20T09:08:34Z</time>
<desc>lat.=55.983101, lon.=26.508402, Alt.=88.645569m. Speed=3.852000m/h.</desc>
<speed>1.070000</speed>
</trkpt>
<trkpt lat="55.983101" lon="26.508438">
<ele>88.907288</ele>
<time>2010-06-20T09:08:35Z</time>
<desc>lat.=55.983101, lon.=26.508438, Alt.=88.907288m. Speed=5.256000m/h.</desc>
<speed>1.460000</speed>
</trkpt>
<trkpt lat="55.983093" lon="26.508480">
<ele>88.762756</ele>
<time>2010-06-20T09:08:36Z</time>
<desc>lat.=55.983093, lon.=26.508480, Alt.=88.762756m. Speed=7.020000m/h.</desc>
<speed>1.950000</speed>
</trkpt>
<trkpt lat="55.983082" lon="26.508511">
<ele>88.811584</ele>
<time>2010-06-20T09:08:37Z</time>
<desc>lat.=55.983082, lon.=26.508511, Alt.=88.811584m. Speed=7.308000m/h.</desc>
<speed>2.030000</speed>
</trkpt>
<trkpt lat="55.983074" lon="26.508547">
<ele>88.717834</ele>
<time>2010-06-20T09:08:38Z</time>
<desc>lat.=55.983074, lon.=26.508547, Alt.=88.717834m. Speed=7.704000m/h.</desc>
<speed>2.140000</speed>
</trkpt>
<trkpt lat="55.983070" lon="26.508583">
<ele>88.684631</ele>
<time>2010-06-20T09:08:39Z</time>
<desc>lat.=55.983070, lon.=26.508583, Alt.=88.684631m. Speed=7.092000m/h.</desc>
<speed>1.970000</speed>
</trkpt>
<trkpt lat="55.983059" lon="26.508619">
<ele>88.520569</ele>
<time>2010-06-20T09:08:40Z</time>
<desc>lat.=55.983059, lon.=26.508619, Alt.=88.520569m. Speed=7.632000m/h.</desc>
<speed>2.120000</speed>
</trkpt>
<trkpt lat="55.983047" lon="26.508654">
<ele>88.502991</ele>
<time>2010-06-20T09:08:41Z</time>
<desc>lat.=55.983047, lon.=26.508654, Alt.=88.502991m. Speed=6.480000m/h.</desc>
<speed>1.800000</speed>
</trkpt>
<trkpt lat="55.983063" lon="26.508696">
<ele>88.231506</ele>
<time>2010-06-20T09:08:42Z</time>
<desc>lat.=55.983063, lon.=26.508696, Alt.=88.231506m. Speed=6.660000m/h.</desc>
<speed>1.850000</speed>
</trkpt>
<trkpt lat="55.983059" lon="26.508732">
<ele>88.811584</ele>
<time>2010-06-20T09:08:43Z</time>
<desc>lat.=55.983059, lon.=26.508732, Alt.=88.811584m. Speed=7.344000m/h.</desc>
<speed>2.040000</speed>
</trkpt>
<trkpt lat="55.983040" lon="26.508768">
<ele>88.823303</ele>
<time>2010-06-20T09:08:44Z</time>
<desc>lat.=55.983040, lon.=26.508768, Alt.=88.823303m. Speed=8.748000m/h.</desc>
<speed>2.430000</speed>
</trkpt>
<trkpt lat="55.983013" lon="26.508812">
<ele>88.544006</ele>
<time>2010-06-20T09:08:45Z</time>
<desc>lat.=55.983013, lon.=26.508812, Alt.=88.544006m. Speed=9.288000m/h.</desc>
<speed>2.580000</speed>
</trkpt>
<trkpt lat="55.982998" lon="26.508852">
<ele>88.346741</ele>
<time>2010-06-20T09:08:46Z</time>
<desc>lat.=55.982998, lon.=26.508852, Alt.=88.346741m. Speed=9.252000m/h.</desc>
<speed>2.570000</speed>
</trkpt>
<trkpt lat="55.982983" lon="26.508894">
<ele>87.866272</ele>
<time>2010-06-20T09:08:47Z</time>
<desc>lat.=55.982983, lon.=26.508894, Alt.=87.866272m. Speed=9.864000m/h.</desc>
<speed>2.740000</speed>
</trkpt>
<trkpt lat="55.982979" lon="26.508936">
<ele>88.139709</ele>
<time>2010-06-20T09:08:48Z</time>
<desc>lat.=55.982979, lon.=26.508936, Alt.=88.139709m. Speed=8.928000m/h.</desc>
<speed>2.480000</speed>
</trkpt>
<trkpt lat="55.982967" lon="26.508982">
<ele>87.860413</ele>
<time>2010-06-20T09:08:49Z</time>
<desc>lat.=55.982967, lon.=26.508982, Alt.=87.860413m. Speed=9.288000m/h.</desc>
<speed>2.580000</speed>
</trkpt>
<trkpt lat="55.982960" lon="26.509020">
<ele>87.829163</ele>
<time>2010-06-20T09:08:50Z</time>
<desc>lat.=55.982960, lon.=26.509020, Alt.=87.829163m. Speed=9.072000m/h.</desc>
<speed>2.520000</speed>
</trkpt>
<trkpt lat="55.982948" lon="26.509062">
<ele>88.006897</ele>
<time>2010-06-20T09:08:51Z</time>
<desc>lat.=55.982948, lon.=26.509062, Alt.=88.006897m. Speed=9.432000m/h.</desc>
<speed>2.620000</speed>
</trkpt>
<trkpt lat="55.982944" lon="26.509106">
<ele>88.034241</ele>
<time>2010-06-20T09:08:52Z</time>
<desc>lat.=55.982944, lon.=26.509106, Alt.=88.034241m. Speed=10.368000m/h.</desc>
<speed>2.880000</speed>
</trkpt>
<trkpt lat="55.982941" lon="26.509148">
<ele>87.913147</ele>
<time>2010-06-20T09:08:53Z</time>
<desc>lat.=55.982941, lon.=26.509148, Alt.=87.913147m. Speed=11.088000m/h.</desc>
<speed>3.080000</speed>
</trkpt>
<trkpt lat="55.982933" lon="26.509192">
<ele>87.586975</ele>
<time>2010-06-20T09:08:54Z</time>
<desc>lat.=55.982933, lon.=26.509192, Alt.=87.586975m. Speed=11.268000m/h.</desc>
<speed>3.130000</speed>
</trkpt>
<trkpt lat="55.982929" lon="26.509239">
<ele>87.194397</ele>
<time>2010-06-20T09:08:55Z</time>
<desc>lat.=55.982929, lon.=26.509239, Alt.=87.194397m. Speed=10.908000m/h.</desc>
<speed>3.030000</speed>
</trkpt>
<trkpt lat="55.982929" lon="26.509287">
<ele>87.120178</ele>
<time>2010-06-20T09:08:56Z</time>
<desc>lat.=55.982929, lon.=26.509287, Alt.=87.120178m. Speed=10.476000m/h.</desc>
<speed>2.910000</speed>
</trkpt>
<trkpt lat="55.982925" lon="26.509333">
<ele>86.711975</ele>
<time>2010-06-20T09:08:57Z</time>
<desc>lat.=55.982925, lon.=26.509333, Alt.=86.711975m. Speed=10.044000m/h.</desc>
<speed>2.790000</speed>
</trkpt>
<trkpt lat="55.982922" lon="26.509377">
<ele>86.801819</ele>
<time>2010-06-20T09:08:58Z</time>
<desc>lat.=55.982922, lon.=26.509377, Alt.=86.801819m. Speed=9.720000m/h.</desc>
<speed>2.700000</speed>
</trkpt>
<trkpt lat="55.982918" lon="26.509420">
<ele>86.913147</ele>
<time>2010-06-20T09:08:59Z</time>
<desc>lat.=55.982918, lon.=26.509420, Alt.=86.913147m. Speed=9.324000m/h.</desc>
<speed>2.590000</speed>
</trkpt>
<trkpt lat="55.982922" lon="26.509459">
<ele>86.856506</ele>
<time>2010-06-20T09:09:00Z</time>
<desc>lat.=55.982922, lon.=26.509459, Alt.=86.856506m. Speed=8.676000m/h.</desc>
<speed>2.410000</speed>
</trkpt>
<trkpt lat="55.982922" lon="26.509499">
<ele>86.928772</ele>
<time>2010-06-20T09:09:01Z</time>
<desc>lat.=55.982922, lon.=26.509499, Alt.=86.928772m. Speed=9.072000m/h.</desc>
<speed>2.520000</speed>
</trkpt>
<trkpt lat="55.982925" lon="26.509533">
<ele>86.936584</ele>
<time>2010-06-20T09:09:02Z</time>
<desc>lat.=55.982925, lon.=26.509533, Alt.=86.936584m. Speed=8.964000m/h.</desc>
<speed>2.490000</speed>
</trkpt>
<trkpt lat="55.982918" lon="26.509575">
<ele>86.631897</ele>
<time>2010-06-20T09:09:03Z</time>
<desc>lat.=55.982918, lon.=26.509575, Alt.=86.631897m. Speed=10.872000m/h.</desc>
<speed>3.020000</speed>
</trkpt>
<trkpt lat="55.982910" lon="26.509623">
<ele>86.473694</ele>
<time>2010-06-20T09:09:04Z</time>
<desc>lat.=55.982910, lon.=26.509623, Alt.=86.473694m. Speed=10.692000m/h.</desc>
<speed>2.970000</speed>
</trkpt>
<trkpt lat="55.982906" lon="26.509665">
<ele>86.202209</ele>
<time>2010-06-20T09:09:05Z</time>
<desc>lat.=55.982906, lon.=26.509665, Alt.=86.202209m. Speed=9.792000m/h.</desc>
<speed>2.720000</speed>
</trkpt>
<trkpt lat="55.982895" lon="26.509697">
<ele>86.200256</ele>
<time>2010-06-20T09:09:06Z</time>
<desc>lat.=55.982895, lon.=26.509697, Alt.=86.200256m. Speed=5.580000m/h.</desc>
<speed>1.550000</speed>
</trkpt>
<trkpt lat="55.982891" lon="26.509724">
<ele>85.948303</ele>
<time>2010-06-20T09:09:07Z</time>
<desc>lat.=55.982891, lon.=26.509724, Alt.=85.948303m. Speed=8.100000m/h.</desc>
<speed>2.250000</speed>
</trkpt>
<trkpt lat="55.982880" lon="26.509766">
<ele>85.956116</ele>
<time>2010-06-20T09:09:08Z</time>
<desc>lat.=55.982880, lon.=26.509766, Alt.=85.956116m. Speed=9.468000m/h.</desc>
<speed>2.630000</speed>
</trkpt>
<trkpt lat="55.982872" lon="26.509809">
<ele>86.024475</ele>
<time>2010-06-20T09:09:09Z</time>
<desc>lat.=55.982872, lon.=26.509809, Alt.=86.024475m. Speed=9.144000m/h.</desc>
<speed>2.540000</speed>
</trkpt>
<trkpt lat="55.982868" lon="26.509853">
<ele>85.915100</ele>
<time>2010-06-20T09:09:10Z</time>
<desc>lat.=55.982868, lon.=26.509853, Alt.=85.915100m. Speed=9.072000m/h.</desc>
<speed>2.520000</speed>
</trkpt>
<trkpt lat="55.982849" lon="26.509899">
<ele>85.909241</ele>
<time>2010-06-20T09:09:11Z</time>
<desc>lat.=55.982849, lon.=26.509899, Alt.=85.909241m. Speed=10.260000m/h.</desc>
<speed>2.850000</speed>
</trkpt>
<trkpt lat="55.982838" lon="26.509932">
<ele>85.866272</ele>
<time>2010-06-20T09:09:12Z</time>
<desc>lat.=55.982838, lon.=26.509932, Alt.=85.866272m. Speed=6.948000m/h.</desc>
<speed>1.930000</speed>
</trkpt>
<trkpt lat="55.982826" lon="26.509958">
<ele>86.116272</ele>
<time>2010-06-20T09:09:13Z</time>
<desc>lat.=55.982826, lon.=26.509958, Alt.=86.116272m. Speed=7.884000m/h.</desc>
<speed>2.190000</speed>
</trkpt>
<trkpt lat="55.982815" lon="26.509993">
<ele>86.436584</ele>
<time>2010-06-20T09:09:14Z</time>
<desc>lat.=55.982815, lon.=26.509993, Alt.=86.436584m. Speed=6.660000m/h.</desc>
<speed>1.850000</speed>
</trkpt>
<trkpt lat="55.982803" lon="26.510044">
<ele>86.627991</ele>
<time>2010-06-20T09:09:15Z</time>
<desc>lat.=55.982803, lon.=26.510044, Alt.=86.627991m. Speed=6.984000m/h.</desc>
<speed>1.940000</speed>
</trkpt>
<trkpt lat="55.982796" lon="26.510084">
<ele>86.678772</ele>
<time>2010-06-20T09:09:16Z</time>
<desc>lat.=55.982796, lon.=26.510084, Alt.=86.678772m. Speed=8.568000m/h.</desc>
<speed>2.380000</speed>
</trkpt>
<trkpt lat="55.982792" lon="26.510126">
<ele>86.971741</ele>
<time>2010-06-20T09:09:17Z</time>
<desc>lat.=55.982792, lon.=26.510126, Alt.=86.971741m. Speed=7.380000m/h.</desc>
<speed>2.050000</speed>
</trkpt>
<trkpt lat="55.982796" lon="26.510162">
<ele>87.417053</ele>
<time>2010-06-20T09:09:18Z</time>
<desc>lat.=55.982796, lon.=26.510162, Alt.=87.417053m. Speed=6.660000m/h.</desc>
<speed>1.850000</speed>
</trkpt>
<trkpt lat="55.982796" lon="26.510202">
<ele>88.090881</ele>
<time>2010-06-20T09:09:19Z</time>
<desc>lat.=55.982796, lon.=26.510202, Alt.=88.090881m. Speed=6.408000m/h.</desc>
<speed>1.780000</speed>
</trkpt>
<trkpt lat="55.982800" lon="26.510242">
<ele>88.563538</ele>
<time>2010-06-20T09:09:20Z</time>
<desc>lat.=55.982800, lon.=26.510242, Alt.=88.563538m. Speed=7.776000m/h.</desc>
<speed>2.160000</speed>
</trkpt>
<trkpt lat="55.982815" lon="26.510305">
<ele>89.786194</ele>
<time>2010-06-20T09:09:21Z</time>
<desc>lat.=55.982815, lon.=26.510305, Alt.=89.786194m. Speed=7.668000m/h.</desc>
<speed>2.130000</speed>
</trkpt>
<trkpt lat="55.982822" lon="26.510355">
<ele>89.881897</ele>
<time>2010-06-20T09:09:22Z</time>
<desc>lat.=55.982822, lon.=26.510355, Alt.=89.881897m. Speed=7.920000m/h.</desc>
<speed>2.200000</speed>
</trkpt>
<trkpt lat="55.982822" lon="26.510414">
<ele>89.624084</ele>
<time>2010-06-20T09:09:23Z</time>
<desc>lat.=55.982822, lon.=26.510414, Alt.=89.624084m. Speed=6.516000m/h.</desc>
<speed>1.810000</speed>
</trkpt>
<trkpt lat="55.982830" lon="26.510483">
<ele>90.059631</ele>
<time>2010-06-20T09:09:24Z</time>
<desc>lat.=55.982830, lon.=26.510483, Alt.=90.059631m. Speed=5.796000m/h.</desc>
<speed>1.610000</speed>
</trkpt>
<trkpt lat="55.982830" lon="26.510508">
<ele>89.688538</ele>
<time>2010-06-20T09:09:25Z</time>
<desc>lat.=55.982830, lon.=26.510508, Alt.=89.688538m. Speed=3.852000m/h.</desc>
<speed>1.070000</speed>
</trkpt>
<trkpt lat="55.982834" lon="26.510534">
<ele>90.292053</ele>
<time>2010-06-20T09:09:26Z</time>
<desc>lat.=55.982834, lon.=26.510534, Alt.=90.292053m. Speed=4.896000m/h.</desc>
<speed>1.360000</speed>
</trkpt>
<trkpt lat="55.982834" lon="26.510569">
<ele>90.557678</ele>
<time>2010-06-20T09:09:27Z</time>
<desc>lat.=55.982834, lon.=26.510569, Alt.=90.557678m. Speed=6.300000m/h.</desc>
<speed>1.750000</speed>
</trkpt>
<trkpt lat="55.982830" lon="26.510609">
<ele>90.370178</ele>
<time>2010-06-20T09:09:28Z</time>
<desc>lat.=55.982830, lon.=26.510609, Alt.=90.370178m. Speed=6.696000m/h.</desc>
<speed>1.860000</speed>
</trkpt>
<trkpt lat="55.982830" lon="26.510645">
<ele>90.127991</ele>
<time>2010-06-20T09:09:29Z</time>
<desc>lat.=55.982830, lon.=26.510645, Alt.=90.127991m. Speed=6.804000m/h.</desc>
<speed>1.890000</speed>
</trkpt>
<trkpt lat="55.982815" lon="26.510687">
<ele>89.631897</ele>
<time>2010-06-20T09:09:30Z</time>
<desc>lat.=55.982815, lon.=26.510687, Alt.=89.631897m. Speed=5.220000m/h.</desc>
<speed>1.450000</speed>
</trkpt>
<trkpt lat="55.982815" lon="26.510708">
<ele>89.754944</ele>
<time>2010-06-20T09:09:31Z</time>
<desc>lat.=55.982815, lon.=26.510708, Alt.=89.754944m. Speed=4.464000m/h.</desc>
<speed>1.240000</speed>
</trkpt>
<trkpt lat="55.982807" lon="26.510733">
<ele>89.815491</ele>
<time>2010-06-20T09:09:32Z</time>
<desc>lat.=55.982807, lon.=26.510733, Alt.=89.815491m. Speed=3.276000m/h.</desc>
<speed>0.910000</speed>
</trkpt>
<trkpt lat="55.982811" lon="26.510754">
<ele>90.274475</ele>
<time>2010-06-20T09:09:33Z</time>
<desc>lat.=55.982811, lon.=26.510754, Alt.=90.274475m. Speed=4.176000m/h.</desc>
<speed>1.160000</speed>
</trkpt>
<trkpt lat="55.982807" lon="26.510773">
<ele>90.239319</ele>
<time>2010-06-20T09:09:34Z</time>
<desc>lat.=55.982807, lon.=26.510773, Alt.=90.239319m. Speed=5.148000m/h.</desc>
<speed>1.430000</speed>
</trkpt>
<trkpt lat="55.982803" lon="26.510796">
<ele>90.581116</ele>
<time>2010-06-20T09:09:35Z</time>
<desc>lat.=55.982803, lon.=26.510796, Alt.=90.581116m. Speed=4.284000m/h.</desc>
<speed>1.190000</speed>
</trkpt>
<trkpt lat="55.982807" lon="26.510845">
<ele>92.184631</ele>
<time>2010-06-20T09:09:36Z</time>
<desc>lat.=55.982807, lon.=26.510845, Alt.=92.184631m. Speed=4.428000m/h.</desc>
<speed>1.230000</speed>
</trkpt>
<trkpt lat="55.982815" lon="26.510864">
<ele>92.063538</ele>
<time>2010-06-20T09:09:37Z</time>
<desc>lat.=55.982815, lon.=26.510864, Alt.=92.063538m. Speed=4.428000m/h.</desc>
<speed>1.230000</speed>
</trkpt>
<trkpt lat="55.982815" lon="26.510881">
<ele>92.100647</ele>
<time>2010-06-20T09:09:38Z</time>
<desc>lat.=55.982815, lon.=26.510881, Alt.=92.100647m. Speed=3.600000m/h.</desc>
<speed>1.000000</speed>
</trkpt>
<trkpt lat="55.982811" lon="26.510902">
<ele>92.262756</ele>
<time>2010-06-20T09:09:39Z</time>
<desc>lat.=55.982811, lon.=26.510902, Alt.=92.262756m. Speed=4.644000m/h.</desc>
<speed>1.290000</speed>
</trkpt>
<trkpt lat="55.982819" lon="26.510912">
<ele>92.586975</ele>
<time>2010-06-20T09:09:40Z</time>
<desc>lat.=55.982819, lon.=26.510912, Alt.=92.586975m. Speed=2.916000m/h.</desc>
<speed>0.810000</speed>
</trkpt>
<trkpt lat="55.982811" lon="26.510927">
<ele>92.661194</ele>
<time>2010-06-20T09:09:41Z</time>
<desc>lat.=55.982811, lon.=26.510927, Alt.=92.661194m. Speed=3.384000m/h.</desc>
<speed>0.940000</speed>
</trkpt>
<trkpt lat="55.982811" lon="26.510948">
<ele>93.018616</ele>
<time>2010-06-20T09:09:42Z</time>
<desc>lat.=55.982811, lon.=26.510948, Alt.=93.018616m. Speed=3.312000m/h.</desc>
<speed>0.920000</speed>
</trkpt>
<trkpt lat="55.982815" lon="26.510969">
<ele>93.737366</ele>
<time>2010-06-20T09:09:43Z</time>
<desc>lat.=55.982815, lon.=26.510969, Alt.=93.737366m. Speed=2.232000m/h.</desc>
<speed>0.620000</speed>
</trkpt>
<trkpt lat="55.982819" lon="26.510971">
<ele>94.055725</ele>
<time>2010-06-20T09:09:44Z</time>
<desc>lat.=55.982819, lon.=26.510971, Alt.=94.055725m. Speed=1.512000m/h.</desc>
<speed>0.420000</speed>
</trkpt>
<trkpt lat="55.982811" lon="26.510986">
<ele>94.567444</ele>
<time>2010-06-20T09:09:45Z</time>
<desc>lat.=55.982811, lon.=26.510986, Alt.=94.567444m. Speed=1.584000m/h.</desc>
<speed>0.440000</speed>
</trkpt>
<trkpt lat="55.982796" lon="26.510994">
<ele>94.657288</ele>
<time>2010-06-20T09:09:46Z</time>
<desc>lat.=55.982796, lon.=26.510994, Alt.=94.657288m. Speed=2.664000m/h.</desc>
<speed>0.740000</speed>
</trkpt>
<trkpt lat="55.982780" lon="26.511003">
<ele>94.928772</ele>
<time>2010-06-20T09:09:47Z</time>
<desc>lat.=55.982780, lon.=26.511003, Alt.=94.928772m. Speed=3.636000m/h.</desc>
<speed>1.010000</speed>
</trkpt>
<trkpt lat="55.982769" lon="26.511024">
<ele>94.950256</ele>
<time>2010-06-20T09:09:48Z</time>
<desc>lat.=55.982769, lon.=26.511024, Alt.=94.950256m. Speed=4.284000m/h.</desc>
<speed>1.190000</speed>
</trkpt>
<trkpt lat="55.982754" lon="26.511055">
<ele>95.083069</ele>
<time>2010-06-20T09:09:49Z</time>
<desc>lat.=55.982754, lon.=26.511055, Alt.=95.083069m. Speed=5.688000m/h.</desc>
<speed>1.580000</speed>
</trkpt>
<trkpt lat="55.982742" lon="26.511080">
<ele>95.022522</ele>
<time>2010-06-20T09:09:50Z</time>
<desc>lat.=55.982742, lon.=26.511080, Alt.=95.022522m. Speed=7.632000m/h.</desc>
<speed>2.120000</speed>
</trkpt>
<trkpt lat="55.982727" lon="26.511114">
<ele>95.042053</ele>
<time>2010-06-20T09:09:51Z</time>
<desc>lat.=55.982727, lon.=26.511114, Alt.=95.042053m. Speed=10.152000m/h.</desc>
<speed>2.820000</speed>
</trkpt>
<trkpt lat="55.982712" lon="26.511154">
<ele>94.852600</ele>
<time>2010-06-20T09:09:52Z</time>
<desc>lat.=55.982712, lon.=26.511154, Alt.=94.852600m. Speed=9.360000m/h.</desc>
<speed>2.600000</speed>
</trkpt>
<trkpt lat="55.982697" lon="26.511187">
<ele>94.829163</ele>
<time>2010-06-20T09:09:53Z</time>
<desc>lat.=55.982697, lon.=26.511187, Alt.=94.829163m. Speed=7.596000m/h.</desc>
<speed>2.110000</speed>
</trkpt>
<trkpt lat="55.982674" lon="26.511221">
<ele>94.928772</ele>
<time>2010-06-20T09:09:54Z</time>
<desc>lat.=55.982674, lon.=26.511221, Alt.=94.928772m. Speed=7.848000m/h.</desc>
<speed>2.180000</speed>
</trkpt>
<trkpt lat="55.982647" lon="26.511253">
<ele>95.545959</ele>
<time>2010-06-20T09:09:55Z</time>
<desc>lat.=55.982647, lon.=26.511253, Alt.=95.545959m. Speed=8.532000m/h.</desc>
<speed>2.370000</speed>
</trkpt>
<trkpt lat="55.982628" lon="26.511288">
<ele>95.596741</ele>
<time>2010-06-20T09:09:56Z</time>
<desc>lat.=55.982628, lon.=26.511288, Alt.=95.596741m. Speed=8.352000m/h.</desc>
<speed>2.320000</speed>
</trkpt>
<trkpt lat="55.982609" lon="26.511322">
<ele>95.688538</ele>
<time>2010-06-20T09:09:57Z</time>
<desc>lat.=55.982609, lon.=26.511322, Alt.=95.688538m. Speed=8.712000m/h.</desc>
<speed>2.420000</speed>
</trkpt>
<trkpt lat="55.982590" lon="26.511362">
<ele>95.866272</ele>
<time>2010-06-20T09:09:58Z</time>
<desc>lat.=55.982590, lon.=26.511362, Alt.=95.866272m. Speed=8.964000m/h.</desc>
<speed>2.490000</speed>
</trkpt>
<trkpt lat="55.982590" lon="26.511400">
<ele>96.002991</ele>
<time>2010-06-20T09:09:59Z</time>
<desc>lat.=55.982590, lon.=26.511400, Alt.=96.002991m. Speed=8.712000m/h.</desc>
<speed>2.420000</speed>
</trkpt>
<trkpt lat="55.982597" lon="26.511438">
<ele>96.145569</ele>
<time>2010-06-20T09:10:00Z</time>
<desc>lat.=55.982597, lon.=26.511438, Alt.=96.145569m. Speed=8.208000m/h.</desc>
<speed>2.280000</speed>
</trkpt>
<trkpt lat="55.982613" lon="26.511478">
<ele>96.190491</ele>
<time>2010-06-20T09:10:01Z</time>
<desc>lat.=55.982613, lon.=26.511478, Alt.=96.190491m. Speed=10.548000m/h.</desc>
<speed>2.930000</speed>
</trkpt>
<trkpt lat="55.982632" lon="26.511518">
<ele>96.260803</ele>
<time>2010-06-20T09:10:02Z</time>
<desc>lat.=55.982632, lon.=26.511518, Alt.=96.260803m. Speed=11.304000m/h.</desc>
<speed>3.140000</speed>
</trkpt>
<trkpt lat="55.982655" lon="26.511545">
<ele>96.313538</ele>
<time>2010-06-20T09:10:03Z</time>
<desc>lat.=55.982655, lon.=26.511545, Alt.=96.313538m. Speed=10.944000m/h.</desc>
<speed>3.040000</speed>
</trkpt>
<trkpt lat="55.982681" lon="26.511572">
<ele>96.260803</ele>
<time>2010-06-20T09:10:04Z</time>
<desc>lat.=55.982681, lon.=26.511572, Alt.=96.260803m. Speed=10.404000m/h.</desc>
<speed>2.890000</speed>
</trkpt>
<trkpt lat="55.982704" lon="26.511595">
<ele>96.336975</ele>
<time>2010-06-20T09:10:05Z</time>
<desc>lat.=55.982704, lon.=26.511595, Alt.=96.336975m. Speed=10.332000m/h.</desc>
<speed>2.870000</speed>
</trkpt>
<trkpt lat="55.982727" lon="26.511616">
<ele>96.350647</ele>
<time>2010-06-20T09:10:06Z</time>
<desc>lat.=55.982727, lon.=26.511616, Alt.=96.350647m. Speed=10.224000m/h.</desc>
<speed>2.840000</speed>
</trkpt>
<trkpt lat="55.982746" lon="26.511642">
<ele>96.411194</ele>
<time>2010-06-20T09:10:07Z</time>
<desc>lat.=55.982746, lon.=26.511642, Alt.=96.411194m. Speed=8.532000m/h.</desc>
<speed>2.370000</speed>
</trkpt>
<trkpt lat="55.982761" lon="26.511671">
<ele>96.452209</ele>
<time>2010-06-20T09:10:08Z</time>
<desc>lat.=55.982761, lon.=26.511671, Alt.=96.452209m. Speed=7.848000m/h.</desc>
<speed>2.180000</speed>
</trkpt>
<trkpt lat="55.982773" lon="26.511709">
<ele>96.409241</ele>
<time>2010-06-20T09:10:09Z</time>
<desc>lat.=55.982773, lon.=26.511709, Alt.=96.409241m. Speed=8.532000m/h.</desc>
<speed>2.370000</speed>
</trkpt>
<trkpt lat="55.982792" lon="26.511742">
<ele>96.405334</ele>
<time>2010-06-20T09:10:10Z</time>
<desc>lat.=55.982792, lon.=26.511742, Alt.=96.405334m. Speed=9.396000m/h.</desc>
<speed>2.610000</speed>
</trkpt>
<trkpt lat="55.982807" lon="26.511772">
<ele>96.294006</ele>
<time>2010-06-20T09:10:11Z</time>
<desc>lat.=55.982807, lon.=26.511772, Alt.=96.294006m. Speed=7.884000m/h.</desc>
<speed>2.190000</speed>
</trkpt>
<trkpt lat="55.982826" lon="26.511799">
<ele>96.268616</ele>
<time>2010-06-20T09:10:12Z</time>
<desc>lat.=55.982826, lon.=26.511799, Alt.=96.268616m. Speed=8.064000m/h.</desc>
<speed>2.240000</speed>
</trkpt>
<trkpt lat="55.982841" lon="26.511827">
<ele>96.172913</ele>
<time>2010-06-20T09:10:13Z</time>
<desc>lat.=55.982841, lon.=26.511827, Alt.=96.172913m. Speed=6.732000m/h.</desc>
<speed>1.870000</speed>
</trkpt>
<trkpt lat="55.982857" lon="26.511847">
<ele>96.186584</ele>
<time>2010-06-20T09:10:14Z</time>
<desc>lat.=55.982857, lon.=26.511847, Alt.=96.186584m. Speed=5.688000m/h.</desc>
<speed>1.580000</speed>
</trkpt>
<trkpt lat="55.982868" lon="26.511864">
<ele>96.147522</ele>
<time>2010-06-20T09:10:15Z</time>
<desc>lat.=55.982868, lon.=26.511864, Alt.=96.147522m. Speed=5.364000m/h.</desc>
<speed>1.490000</speed>
</trkpt>
<trkpt lat="55.982880" lon="26.511879">
<ele>96.200256</ele>
<time>2010-06-20T09:10:16Z</time>
<desc>lat.=55.982880, lon.=26.511879, Alt.=96.200256m. Speed=5.256000m/h.</desc>
<speed>1.460000</speed>
</trkpt>
<trkpt lat="55.982895" lon="26.511904">
<ele>96.153381</ele>
<time>2010-06-20T09:10:17Z</time>
<desc>lat.=55.982895, lon.=26.511904, Alt.=96.153381m. Speed=6.804000m/h.</desc>
<speed>1.890000</speed>
</trkpt>
<trkpt lat="55.982910" lon="26.511944">
<ele>96.833069</ele>
<time>2010-06-20T09:10:18Z</time>
<desc>lat.=55.982910, lon.=26.511944, Alt.=96.833069m. Speed=7.488000m/h.</desc>
<speed>2.080000</speed>
</trkpt>
<trkpt lat="55.982929" lon="26.511948">
<ele>96.702209</ele>
<time>2010-06-20T09:10:19Z</time>
<desc>lat.=55.982929, lon.=26.511948, Alt.=96.702209m. Speed=8.532000m/h.</desc>
<speed>2.370000</speed>
</trkpt>
<trkpt lat="55.982933" lon="26.511957">
<ele>96.229553</ele>
<time>2010-06-20T09:10:20Z</time>
<desc>lat.=55.982933, lon.=26.511957, Alt.=96.229553m. Speed=7.452000m/h.</desc>
<speed>2.070000</speed>
</trkpt>
<trkpt lat="55.982944" lon="26.511951">
<ele>95.852600</ele>
<time>2010-06-20T09:10:21Z</time>
<desc>lat.=55.982944, lon.=26.511951, Alt.=95.852600m. Speed=8.424000m/h.</desc>
<speed>2.340000</speed>
</trkpt>
<trkpt lat="55.982964" lon="26.511936">
<ele>95.612366</ele>
<time>2010-06-20T09:10:22Z</time>
<desc>lat.=55.982964, lon.=26.511936, Alt.=95.612366m. Speed=8.244000m/h.</desc>
<speed>2.290000</speed>
</trkpt>
<trkpt lat="55.982975" lon="26.511923">
<ele>95.461975</ele>
<time>2010-06-20T09:10:23Z</time>
<desc>lat.=55.982975, lon.=26.511923, Alt.=95.461975m. Speed=6.228000m/h.</desc>
<speed>1.730000</speed>
</trkpt>
<trkpt lat="55.982986" lon="26.511917">
<ele>95.112366</ele>
<time>2010-06-20T09:10:24Z</time>
<desc>lat.=55.982986, lon.=26.511917, Alt.=95.112366m. Speed=6.552000m/h.</desc>
<speed>1.820000</speed>
</trkpt>
<trkpt lat="55.983002" lon="26.511898">
<ele>95.167053</ele>
<time>2010-06-20T09:10:25Z</time>
<desc>lat.=55.983002, lon.=26.511898, Alt.=95.167053m. Speed=7.164000m/h.</desc>
<speed>1.990000</speed>
</trkpt>
<trkpt lat="55.983025" lon="26.511883">
<ele>94.919006</ele>
<time>2010-06-20T09:10:26Z</time>
<desc>lat.=55.983025, lon.=26.511883, Alt.=94.919006m. Speed=8.604000m/h.</desc>
<speed>2.390000</speed>
</trkpt>
<trkpt lat="55.983051" lon="26.511868">
<ele>94.676819</ele>
<time>2010-06-20T09:10:27Z</time>
<desc>lat.=55.983051, lon.=26.511868, Alt.=94.676819m. Speed=6.876000m/h.</desc>
<speed>1.910000</speed>
</trkpt>
<trkpt lat="55.983063" lon="26.511852">
<ele>94.864319</ele>
<time>2010-06-20T09:10:28Z</time>
<desc>lat.=55.983063, lon.=26.511852, Alt.=94.864319m. Speed=4.716000m/h.</desc>
<speed>1.310000</speed>
</trkpt>
<trkpt lat="55.983082" lon="26.511843">
<ele>95.045959</ele>
<time>2010-06-20T09:10:29Z</time>
<desc>lat.=55.983082, lon.=26.511843, Alt.=95.045959m. Speed=8.100000m/h.</desc>
<speed>2.250000</speed>
</trkpt>
<trkpt lat="55.983093" lon="26.511816">
<ele>95.223694</ele>
<time>2010-06-20T09:10:30Z</time>
<desc>lat.=55.983093, lon.=26.511816, Alt.=95.223694m. Speed=7.632000m/h.</desc>
<speed>2.120000</speed>
</trkpt>
<trkpt lat="55.983089" lon="26.511787">
<ele>95.256897</ele>
<time>2010-06-20T09:10:31Z</time>
<desc>lat.=55.983089, lon.=26.511787, Alt.=95.256897m. Speed=6.444000m/h.</desc>
<speed>1.790000</speed>
</trkpt>
<trkpt lat="55.983082" lon="26.511753">
<ele>95.333069</ele>
<time>2010-06-20T09:10:32Z</time>
<desc>lat.=55.983082, lon.=26.511753, Alt.=95.333069m. Speed=8.460000m/h.</desc>
<speed>2.350000</speed>
</trkpt>
<trkpt lat="55.983078" lon="26.511715">
<ele>95.471741</ele>
<time>2010-06-20T09:10:33Z</time>
<desc>lat.=55.983078, lon.=26.511715, Alt.=95.471741m. Speed=7.416000m/h.</desc>
<speed>2.060000</speed>
</trkpt>
<trkpt lat="55.983070" lon="26.511683">
<ele>95.311584</ele>
<time>2010-06-20T09:10:34Z</time>
<desc>lat.=55.983070, lon.=26.511683, Alt.=95.311584m. Speed=7.308000m/h.</desc>
<speed>2.030000</speed>
</trkpt>
<trkpt lat="55.983059" lon="26.511642">
<ele>94.383850</ele>
<time>2010-06-20T09:10:35Z</time>
<desc>lat.=55.983059, lon.=26.511642, Alt.=94.383850m. Speed=7.560000m/h.</desc>
<speed>2.100000</speed>
</trkpt>
<trkpt lat="55.983047" lon="26.511616">
<ele>94.514709</ele>
<time>2010-06-20T09:10:36Z</time>
<desc>lat.=55.983047, lon.=26.511616, Alt.=94.514709m. Speed=7.092000m/h.</desc>
<speed>1.970000</speed>
</trkpt>
<trkpt lat="55.983040" lon="26.511587">
<ele>94.616272</ele>
<time>2010-06-20T09:10:37Z</time>
<desc>lat.=55.983040, lon.=26.511587, Alt.=94.616272m. Speed=6.300000m/h.</desc>
<speed>1.750000</speed>
</trkpt>
<trkpt lat="55.983036" lon="26.511557">
<ele>94.133850</ele>
<time>2010-06-20T09:10:38Z</time>
<desc>lat.=55.983036, lon.=26.511557, Alt.=94.133850m. Speed=7.380000m/h.</desc>
<speed>2.050000</speed>
</trkpt>
<trkpt lat="55.983028" lon="26.511524">
<ele>93.934631</ele>
<time>2010-06-20T09:10:39Z</time>
<desc>lat.=55.983028, lon.=26.511524, Alt.=93.934631m. Speed=6.912000m/h.</desc>
<speed>1.920000</speed>
</trkpt>
<trkpt lat="55.983028" lon="26.511499">
<ele>93.739319</ele>
<time>2010-06-20T09:10:40Z</time>
<desc>lat.=55.983028, lon.=26.511499, Alt.=93.739319m. Speed=4.860000m/h.</desc>
<speed>1.350000</speed>
</trkpt>
<trkpt lat="55.983028" lon="26.511465">
<ele>93.239319</ele>
<time>2010-06-20T09:10:41Z</time>
<desc>lat.=55.983028, lon.=26.511465, Alt.=93.239319m. Speed=5.076000m/h.</desc>
<speed>1.410000</speed>
</trkpt>
<trkpt lat="55.983032" lon="26.511440">
<ele>93.200256</ele>
<time>2010-06-20T09:10:42Z</time>
<desc>lat.=55.983032, lon.=26.511440, Alt.=93.200256m. Speed=4.788000m/h.</desc>
<speed>1.330000</speed>
</trkpt>
<trkpt lat="55.983021" lon="26.511410">
<ele>93.524475</ele>
<time>2010-06-20T09:10:43Z</time>
<desc>lat.=55.983021, lon.=26.511410, Alt.=93.524475m. Speed=5.976000m/h.</desc>
<speed>1.660000</speed>
</trkpt>
<trkpt lat="55.983017" lon="26.511377">
<ele>93.704163</ele>
<time>2010-06-20T09:10:44Z</time>
<desc>lat.=55.983017, lon.=26.511377, Alt.=93.704163m. Speed=6.156000m/h.</desc>
<speed>1.710000</speed>
</trkpt>
<trkpt lat="55.983013" lon="26.511347">
<ele>93.858459</ele>
<time>2010-06-20T09:10:45Z</time>
<desc>lat.=55.983013, lon.=26.511347, Alt.=93.858459m. Speed=6.804000m/h.</desc>
<speed>1.890000</speed>
</trkpt>
<trkpt lat="55.983017" lon="26.511272">
<ele>93.850647</ele>
<time>2010-06-20T09:10:46Z</time>
<desc>lat.=55.983017, lon.=26.511272, Alt.=93.850647m. Speed=8.028000m/h.</desc>
<speed>2.230000</speed>
</trkpt>
<trkpt lat="55.983013" lon="26.511236">
<ele>94.028381</ele>
<time>2010-06-20T09:10:47Z</time>
<desc>lat.=55.983013, lon.=26.511236, Alt.=94.028381m. Speed=7.776000m/h.</desc>
<speed>2.160000</speed>
</trkpt>
<trkpt lat="55.983002" lon="26.511198">
<ele>93.657288</ele>
<time>2010-06-20T09:10:48Z</time>
<desc>lat.=55.983002, lon.=26.511198, Alt.=93.657288m. Speed=7.452000m/h.</desc>
<speed>2.070000</speed>
</trkpt>
<trkpt lat="55.982990" lon="26.511145">
<ele>93.389709</ele>
<time>2010-06-20T09:10:49Z</time>
<desc>lat.=55.982990, lon.=26.511145, Alt.=93.389709m. Speed=8.244000m/h.</desc>
<speed>2.290000</speed>
</trkpt>
<trkpt lat="55.982967" lon="26.511099">
<ele>92.254944</ele>
<time>2010-06-20T09:10:50Z</time>
<desc>lat.=55.982967, lon.=26.511099, Alt.=92.254944m. Speed=7.884000m/h.</desc>
<speed>2.190000</speed>
</trkpt>
<trkpt lat="55.982952" lon="26.511045">
<ele>91.126038</ele>
<time>2010-06-20T09:10:51Z</time>
<desc>lat.=55.982952, lon.=26.511045, Alt.=91.126038m. Speed=10.008000m/h.</desc>
<speed>2.780000</speed>
</trkpt>
<trkpt lat="55.982929" lon="26.510996">
<ele>90.336975</ele>
<time>2010-06-20T09:10:52Z</time>
<desc>lat.=55.982929, lon.=26.510996, Alt.=90.336975m. Speed=10.116000m/h.</desc>
<speed>2.810000</speed>
</trkpt>
<trkpt lat="55.982914" lon="26.510956">
<ele>90.079163</ele>
<time>2010-06-20T09:10:53Z</time>
<desc>lat.=55.982914, lon.=26.510956, Alt.=90.079163m. Speed=9.432000m/h.</desc>
<speed>2.620000</speed>
</trkpt>
<trkpt lat="55.982906" lon="26.510904">
<ele>89.602600</ele>
<time>2010-06-20T09:10:54Z</time>
<desc>lat.=55.982906, lon.=26.510904, Alt.=89.602600m. Speed=11.268000m/h.</desc>
<speed>3.130000</speed>
</trkpt>
<trkpt lat="55.982903" lon="26.510853">
<ele>89.778381</ele>
<time>2010-06-20T09:10:55Z</time>
<desc>lat.=55.982903, lon.=26.510853, Alt.=89.778381m. Speed=11.232000m/h.</desc>
<speed>3.120000</speed>
</trkpt>
<trkpt lat="55.982906" lon="26.510796">
<ele>89.885803</ele>
<time>2010-06-20T09:10:56Z</time>
<desc>lat.=55.982906, lon.=26.510796, Alt.=89.885803m. Speed=12.816000m/h.</desc>
<speed>3.560000</speed>
</trkpt>
<trkpt lat="55.982903" lon="26.510735">
<ele>89.461975</ele>
<time>2010-06-20T09:10:57Z</time>
<desc>lat.=55.982903, lon.=26.510735, Alt.=89.461975m. Speed=13.680000m/h.</desc>
<speed>3.800000</speed>
</trkpt>
<trkpt lat="55.982910" lon="26.510670">
<ele>89.452209</ele>
<time>2010-06-20T09:10:58Z</time>
<desc>lat.=55.982910, lon.=26.510670, Alt.=89.452209m. Speed=15.012000m/h.</desc>
<speed>4.170000</speed>
</trkpt>
<trkpt lat="55.982906" lon="26.510607">
<ele>89.805725</ele>
<time>2010-06-20T09:10:59Z</time>
<desc>lat.=55.982906, lon.=26.510607, Alt.=89.805725m. Speed=14.112000m/h.</desc>
<speed>3.920000</speed>
</trkpt>
<trkpt lat="55.982914" lon="26.510534">
<ele>89.420959</ele>
<time>2010-06-20T09:11:00Z</time>
<desc>lat.=55.982914, lon.=26.510534, Alt.=89.420959m. Speed=15.732000m/h.</desc>
<speed>4.370000</speed>
</trkpt>
<trkpt lat="55.982922" lon="26.510464">
<ele>89.340881</ele>
<time>2010-06-20T09:11:01Z</time>
<desc>lat.=55.982922, lon.=26.510464, Alt.=89.340881m. Speed=14.976000m/h.</desc>
<speed>4.160000</speed>
</trkpt>
<trkpt lat="55.982925" lon="26.510397">
<ele>88.805725</ele>
<time>2010-06-20T09:11:02Z</time>
<desc>lat.=55.982925, lon.=26.510397, Alt.=88.805725m. Speed=14.868000m/h.</desc>
<speed>4.130000</speed>
</trkpt>
<trkpt lat="55.982933" lon="26.510332">
<ele>88.542053</ele>
<time>2010-06-20T09:11:03Z</time>
<desc>lat.=55.982933, lon.=26.510332, Alt.=88.542053m. Speed=12.780000m/h.</desc>
<speed>3.550000</speed>
</trkpt>
<trkpt lat="55.982937" lon="26.510265">
<ele>87.977600</ele>
<time>2010-06-20T09:11:04Z</time>
<desc>lat.=55.982937, lon.=26.510265, Alt.=87.977600m. Speed=13.248000m/h.</desc>
<speed>3.680000</speed>
</trkpt>
<trkpt lat="55.982941" lon="26.510206">
<ele>88.018616</ele>
<time>2010-06-20T09:11:05Z</time>
<desc>lat.=55.982941, lon.=26.510206, Alt.=88.018616m. Speed=13.032000m/h.</desc>
<speed>3.620000</speed>
</trkpt>
<trkpt lat="55.982937" lon="26.510153">
<ele>87.784241</ele>
<time>2010-06-20T09:11:06Z</time>
<desc>lat.=55.982937, lon.=26.510153, Alt.=87.784241m. Speed=10.404000m/h.</desc>
<speed>2.890000</speed>
</trkpt>
<trkpt lat="55.982941" lon="26.510101">
<ele>87.571350</ele>
<time>2010-06-20T09:11:07Z</time>
<desc>lat.=55.982941, lon.=26.510101, Alt.=87.571350m. Speed=10.980000m/h.</desc>
<speed>3.050000</speed>
</trkpt>
<trkpt lat="55.982952" lon="26.510046">
<ele>87.063538</ele>
<time>2010-06-20T09:11:08Z</time>
<desc>lat.=55.982952, lon.=26.510046, Alt.=87.063538m. Speed=12.240000m/h.</desc>
<speed>3.400000</speed>
</trkpt>
<trkpt lat="55.982967" lon="26.509987">
<ele>87.206116</ele>
<time>2010-06-20T09:11:09Z</time>
<desc>lat.=55.982967, lon.=26.509987, Alt.=87.206116m. Speed=15.840000m/h.</desc>
<speed>4.400000</speed>
</trkpt>
<trkpt lat="55.982983" lon="26.509930">
<ele>87.086975</ele>
<time>2010-06-20T09:11:10Z</time>
<desc>lat.=55.982983, lon.=26.509930, Alt.=87.086975m. Speed=11.412000m/h.</desc>
<speed>3.170000</speed>
</trkpt>
<trkpt lat="55.982994" lon="26.509876">
<ele>86.913147</ele>
<time>2010-06-20T09:11:11Z</time>
<desc>lat.=55.982994, lon.=26.509876, Alt.=86.913147m. Speed=10.944000m/h.</desc>
<speed>3.040000</speed>
</trkpt>
<trkpt lat="55.983006" lon="26.509808">
<ele>86.581116</ele>
<time>2010-06-20T09:11:12Z</time>
<desc>lat.=55.983006, lon.=26.509808, Alt.=86.581116m. Speed=14.220000m/h.</desc>
<speed>3.950000</speed>
</trkpt>
<trkpt lat="55.983017" lon="26.509743">
<ele>86.331116</ele>
<time>2010-06-20T09:11:13Z</time>
<desc>lat.=55.983017, lon.=26.509743, Alt.=86.331116m. Speed=14.400000m/h.</desc>
<speed>4.000000</speed>
</trkpt>
<trkpt lat="55.983036" lon="26.509674">
<ele>85.866272</ele>
<time>2010-06-20T09:11:14Z</time>
<desc>lat.=55.983036, lon.=26.509674, Alt.=85.866272m. Speed=13.716000m/h.</desc>
<speed>3.810000</speed>
</trkpt>
<trkpt lat="55.983044" lon="26.509604">
<ele>85.131897</ele>
<time>2010-06-20T09:11:15Z</time>
<desc>lat.=55.983044, lon.=26.509604, Alt.=85.131897m. Speed=12.204000m/h.</desc>
<speed>3.390000</speed>
</trkpt>
<trkpt lat="55.983051" lon="26.509542">
<ele>84.928772</ele>
<time>2010-06-20T09:11:16Z</time>
<desc>lat.=55.983051, lon.=26.509542, Alt.=84.928772m. Speed=11.520000m/h.</desc>
<speed>3.200000</speed>
</trkpt>
<trkpt lat="55.983055" lon="26.509468">
<ele>84.362366</ele>
<time>2010-06-20T09:11:17Z</time>
<desc>lat.=55.983055, lon.=26.509468, Alt.=84.362366m. Speed=13.320000m/h.</desc>
<speed>3.700000</speed>
</trkpt>
<trkpt lat="55.983059" lon="26.509380">
<ele>83.315491</ele>
<time>2010-06-20T09:11:18Z</time>
<desc>lat.=55.983059, lon.=26.509380, Alt.=83.315491m. Speed=13.608000m/h.</desc>
<speed>3.780000</speed>
</trkpt>
<trkpt lat="55.983067" lon="26.509285">
<ele>81.184631</ele>
<time>2010-06-20T09:11:19Z</time>
<desc>lat.=55.983067, lon.=26.509285, Alt.=81.184631m. Speed=13.068000m/h.</desc>
<speed>3.630000</speed>
</trkpt>
<trkpt lat="55.983067" lon="26.509212">
<ele>80.049866</ele>
<time>2010-06-20T09:11:20Z</time>
<desc>lat.=55.983067, lon.=26.509212, Alt.=80.049866m. Speed=11.052000m/h.</desc>
<speed>3.070000</speed>
</trkpt>
<trkpt lat="55.983063" lon="26.509155">
<ele>79.645569</ele>
<time>2010-06-20T09:11:21Z</time>
<desc>lat.=55.983063, lon.=26.509155, Alt.=79.645569m. Speed=11.520000m/h.</desc>
<speed>3.200000</speed>
</trkpt>
<trkpt lat="55.983070" lon="26.509077">
<ele>79.655334</ele>
<time>2010-06-20T09:11:22Z</time>
<desc>lat.=55.983070, lon.=26.509077, Alt.=79.655334m. Speed=12.672000m/h.</desc>
<speed>3.520000</speed>
</trkpt>
<trkpt lat="55.983074" lon="26.509001">
<ele>79.967834</ele>
<time>2010-06-20T09:11:23Z</time>
<desc>lat.=55.983074, lon.=26.509001, Alt.=79.967834m. Speed=12.060000m/h.</desc>
<speed>3.350000</speed>
</trkpt>
<trkpt lat="55.983074" lon="26.508928">
<ele>79.192444</ele>
<time>2010-06-20T09:11:24Z</time>
<desc>lat.=55.983074, lon.=26.508928, Alt.=79.192444m. Speed=10.872000m/h.</desc>
<speed>3.020000</speed>
</trkpt>
<trkpt lat="55.983070" lon="26.508850">
<ele>79.184631</ele>
<time>2010-06-20T09:11:25Z</time>
<desc>lat.=55.983070, lon.=26.508850, Alt.=79.184631m. Speed=12.312000m/h.</desc>
<speed>3.420000</speed>
</trkpt>
<trkpt lat="55.983074" lon="26.508778">
<ele>79.567444</ele>
<time>2010-06-20T09:11:26Z</time>
<desc>lat.=55.983074, lon.=26.508778, Alt.=79.567444m. Speed=10.872000m/h.</desc>
<speed>3.020000</speed>
</trkpt>
<trkpt lat="55.983074" lon="26.508711">
<ele>80.188538</ele>
<time>2010-06-20T09:11:27Z</time>
<desc>lat.=55.983074, lon.=26.508711, Alt.=80.188538m. Speed=8.712000m/h.</desc>
<speed>2.420000</speed>
</trkpt>
<trkpt lat="55.983074" lon="26.508673">
<ele>81.215881</ele>
<time>2010-06-20T09:11:28Z</time>
<desc>lat.=55.983074, lon.=26.508673, Alt.=81.215881m. Speed=7.956000m/h.</desc>
<speed>2.210000</speed>
</trkpt>
<trkpt lat="55.983078" lon="26.508589">
<ele>81.987366</ele>
<time>2010-06-20T09:11:29Z</time>
<desc>lat.=55.983078, lon.=26.508589, Alt.=81.987366m. Speed=8.928000m/h.</desc>
<speed>2.480000</speed>
</trkpt>
<trkpt lat="55.983063" lon="26.508549">
<ele>81.725647</ele>
<time>2010-06-20T09:11:30Z</time>
<desc>lat.=55.983063, lon.=26.508549, Alt.=81.725647m. Speed=7.020000m/h.</desc>
<speed>1.950000</speed>
</trkpt>
<trkpt lat="55.983055" lon="26.508514">
<ele>81.551819</ele>
<time>2010-06-20T09:11:31Z</time>
<desc>lat.=55.983055, lon.=26.508514, Alt.=81.551819m. Speed=5.760000m/h.</desc>
<speed>1.600000</speed>
</trkpt>
<trkpt lat="55.983036" lon="26.508476">
<ele>81.112366</ele>
<time>2010-06-20T09:11:32Z</time>
<desc>lat.=55.983036, lon.=26.508476, Alt.=81.112366m. Speed=6.552000m/h.</desc>
<speed>1.820000</speed>
</trkpt>
<trkpt lat="55.983013" lon="26.508400">
<ele>82.506897</ele>
<time>2010-06-20T09:11:33Z</time>
<desc>lat.=55.983013, lon.=26.508400, Alt.=82.506897m. Speed=8.640000m/h.</desc>
<speed>2.400000</speed>
</trkpt>
<trkpt lat="55.982986" lon="26.508385">
<ele>82.856506</ele>
<time>2010-06-20T09:11:34Z</time>
<desc>lat.=55.982986, lon.=26.508385, Alt.=82.856506m. Speed=9.684000m/h.</desc>
<speed>2.690000</speed>
</trkpt>
<trkpt lat="55.982960" lon="26.508366">
<ele>82.583069</ele>
<time>2010-06-20T09:11:35Z</time>
<desc>lat.=55.982960, lon.=26.508366, Alt.=82.583069m. Speed=11.268000m/h.</desc>
<speed>3.130000</speed>
</trkpt>
<trkpt lat="55.982933" lon="26.508366">
<ele>81.790100</ele>
<time>2010-06-20T09:11:36Z</time>
<desc>lat.=55.982933, lon.=26.508366, Alt.=81.790100m. Speed=12.672000m/h.</desc>
<speed>3.520000</speed>
</trkpt>
<trkpt lat="55.982899" lon="26.508360">
<ele>82.276428</ele>
<time>2010-06-20T09:11:37Z</time>
<desc>lat.=55.982899, lon.=26.508360, Alt.=82.276428m. Speed=12.924000m/h.</desc>
<speed>3.590000</speed>
</trkpt>
<trkpt lat="55.982861" lon="26.508350">
<ele>82.877991</ele>
<time>2010-06-20T09:11:38Z</time>
<desc>lat.=55.982861, lon.=26.508350, Alt.=82.877991m. Speed=14.040000m/h.</desc>
<speed>3.900000</speed>
</trkpt>
<trkpt lat="55.982830" lon="26.508358">
<ele>83.598694</ele>
<time>2010-06-20T09:11:39Z</time>
<desc>lat.=55.982830, lon.=26.508358, Alt.=83.598694m. Speed=12.636000m/h.</desc>
<speed>3.510000</speed>
</trkpt>
<trkpt lat="55.982811" lon="26.508354">
<ele>83.961975</ele>
<time>2010-06-20T09:11:40Z</time>
<desc>lat.=55.982811, lon.=26.508354, Alt.=83.961975m. Speed=11.808000m/h.</desc>
<speed>3.280000</speed>
</trkpt>
<trkpt lat="55.982780" lon="26.508362">
<ele>83.780334</ele>
<time>2010-06-20T09:11:41Z</time>
<desc>lat.=55.982780, lon.=26.508362, Alt.=83.780334m. Speed=13.500000m/h.</desc>
<speed>3.750000</speed>
</trkpt>
<trkpt lat="55.982750" lon="26.508371">
<ele>83.092834</ele>
<time>2010-06-20T09:11:42Z</time>
<desc>lat.=55.982750, lon.=26.508371, Alt.=83.092834m. Speed=13.860000m/h.</desc>
<speed>3.850000</speed>
</trkpt>
<trkpt lat="55.982712" lon="26.508381">
<ele>82.346741</ele>
<time>2010-06-20T09:11:43Z</time>
<desc>lat.=55.982712, lon.=26.508381, Alt.=82.346741m. Speed=14.544000m/h.</desc>
<speed>4.040000</speed>
</trkpt>
<trkpt lat="55.982674" lon="26.508385">
<ele>82.807678</ele>
<time>2010-06-20T09:11:44Z</time>
<desc>lat.=55.982674, lon.=26.508385, Alt.=82.807678m. Speed=13.104000m/h.</desc>
<speed>3.640000</speed>
</trkpt>
<trkpt lat="55.982632" lon="26.508390">
<ele>82.936584</ele>
<time>2010-06-20T09:11:45Z</time>
<desc>lat.=55.982632, lon.=26.508390, Alt.=82.936584m. Speed=13.896000m/h.</desc>
<speed>3.860000</speed>
</trkpt>
<trkpt lat="55.982590" lon="26.508396">
<ele>82.729553</ele>
<time>2010-06-20T09:11:46Z</time>
<desc>lat.=55.982590, lon.=26.508396, Alt.=82.729553m. Speed=12.816000m/h.</desc>
<speed>3.560000</speed>
</trkpt>
<trkpt lat="55.982559" lon="26.508404">
<ele>82.836975</ele>
<time>2010-06-20T09:11:47Z</time>
<desc>lat.=55.982559, lon.=26.508404, Alt.=82.836975m. Speed=12.924000m/h.</desc>
<speed>3.590000</speed>
</trkpt>
<trkpt lat="55.982525" lon="26.508410">
<ele>82.969788</ele>
<time>2010-06-20T09:11:48Z</time>
<desc>lat.=55.982525, lon.=26.508410, Alt.=82.969788m. Speed=13.716000m/h.</desc>
<speed>3.810000</speed>
</trkpt>
<trkpt lat="55.982491" lon="26.508417">
<ele>83.016663</ele>
<time>2010-06-20T09:11:49Z</time>
<desc>lat.=55.982491, lon.=26.508417, Alt.=83.016663m. Speed=13.212000m/h.</desc>
<speed>3.670000</speed>
</trkpt>
<trkpt lat="55.982456" lon="26.508423">
<ele>83.583069</ele>
<time>2010-06-20T09:11:50Z</time>
<desc>lat.=55.982456, lon.=26.508423, Alt.=83.583069m. Speed=12.204000m/h.</desc>
<speed>3.390000</speed>
</trkpt>
<trkpt lat="55.982426" lon="26.508429">
<ele>83.706116</ele>
<time>2010-06-20T09:11:51Z</time>
<desc>lat.=55.982426, lon.=26.508429, Alt.=83.706116m. Speed=12.600000m/h.</desc>
<speed>3.500000</speed>
</trkpt>
<trkpt lat="55.982395" lon="26.508427">
<ele>84.606506</ele>
<time>2010-06-20T09:11:52Z</time>
<desc>lat.=55.982395, lon.=26.508427, Alt.=84.606506m. Speed=12.456000m/h.</desc>
<speed>3.460000</speed>
</trkpt>
<trkpt lat="55.982365" lon="26.508421">
<ele>85.188538</ele>
<time>2010-06-20T09:11:53Z</time>
<desc>lat.=55.982365, lon.=26.508421, Alt.=85.188538m. Speed=12.132000m/h.</desc>
<speed>3.370000</speed>
</trkpt>
<trkpt lat="55.982323" lon="26.508432">
<ele>85.618225</ele>
<time>2010-06-20T09:11:54Z</time>
<desc>lat.=55.982323, lon.=26.508432, Alt.=85.618225m. Speed=13.788000m/h.</desc>
<speed>3.830000</speed>
</trkpt>
<trkpt lat="55.982281" lon="26.508444">
<ele>85.645569</ele>
<time>2010-06-20T09:11:55Z</time>
<desc>lat.=55.982281, lon.=26.508444, Alt.=85.645569m. Speed=14.112000m/h.</desc>
<speed>3.920000</speed>
</trkpt>
<trkpt lat="55.982243" lon="26.508455">
<ele>85.764709</ele>
<time>2010-06-20T09:11:56Z</time>
<desc>lat.=55.982243, lon.=26.508455, Alt.=85.764709m. Speed=15.120000m/h.</desc>
<speed>4.200000</speed>
</trkpt>
<trkpt lat="55.982212" lon="26.508463">
<ele>85.725647</ele>
<time>2010-06-20T09:11:57Z</time>
<desc>lat.=55.982212, lon.=26.508463, Alt.=85.725647m. Speed=12.888000m/h.</desc>
<speed>3.580000</speed>
</trkpt>
<trkpt lat="55.982178" lon="26.508465">
<ele>85.487366</ele>
<time>2010-06-20T09:11:58Z</time>
<desc>lat.=55.982178, lon.=26.508465, Alt.=85.487366m. Speed=12.600000m/h.</desc>
<speed>3.500000</speed>
</trkpt>
<trkpt lat="55.982155" lon="26.508467">
<ele>85.340881</ele>
<time>2010-06-20T09:11:59Z</time>
<desc>lat.=55.982155, lon.=26.508467, Alt.=85.340881m. Speed=10.764000m/h.</desc>
<speed>2.990000</speed>
</trkpt>
<trkpt lat="55.982128" lon="26.508461">
<ele>85.374084</ele>
<time>2010-06-20T09:12:00Z</time>
<desc>lat.=55.982128, lon.=26.508461, Alt.=85.374084m. Speed=11.304000m/h.</desc>
<speed>3.140000</speed>
</trkpt>
<trkpt lat="55.982082" lon="26.508455">
<ele>85.948303</ele>
<time>2010-06-20T09:12:01Z</time>
<desc>lat.=55.982082, lon.=26.508455, Alt.=85.948303m. Speed=11.880000m/h.</desc>
<speed>3.300000</speed>
</trkpt>
<trkpt lat="55.982044" lon="26.508448">
<ele>86.344788</ele>
<time>2010-06-20T09:12:02Z</time>
<desc>lat.=55.982044, lon.=26.508448, Alt.=86.344788m. Speed=13.392000m/h.</desc>
<speed>3.720000</speed>
</trkpt>
<trkpt lat="55.982010" lon="26.508446">
<ele>86.751038</ele>
<time>2010-06-20T09:12:03Z</time>
<desc>lat.=55.982010, lon.=26.508446, Alt.=86.751038m. Speed=12.060000m/h.</desc>
<speed>3.350000</speed>
</trkpt>
<trkpt lat="55.981976" lon="26.508442">
<ele>86.997131</ele>
<time>2010-06-20T09:12:04Z</time>
<desc>lat.=55.981976, lon.=26.508442, Alt.=86.997131m. Speed=11.916000m/h.</desc>
<speed>3.310000</speed>
</trkpt>
<trkpt lat="55.981945" lon="26.508432">
<ele>87.360413</ele>
<time>2010-06-20T09:12:05Z</time>
<desc>lat.=55.981945, lon.=26.508432, Alt.=87.360413m. Speed=12.204000m/h.</desc>
<speed>3.390000</speed>
</trkpt>
<trkpt lat="55.981907" lon="26.508432">
<ele>87.172913</ele>
<time>2010-06-20T09:12:06Z</time>
<desc>lat.=55.981907, lon.=26.508432, Alt.=87.172913m. Speed=11.592000m/h.</desc>
<speed>3.220000</speed>
</trkpt>
<trkpt lat="55.981869" lon="26.508430">
<ele>87.706116</ele>
<time>2010-06-20T09:12:07Z</time>
<desc>lat.=55.981869, lon.=26.508430, Alt.=87.706116m. Speed=11.124000m/h.</desc>
<speed>3.090000</speed>
</trkpt>
<trkpt lat="55.981838" lon="26.508432">
<ele>87.637756</ele>
<time>2010-06-20T09:12:08Z</time>
<desc>lat.=55.981838, lon.=26.508432, Alt.=87.637756m. Speed=11.664000m/h.</desc>
<speed>3.240000</speed>
</trkpt>
<trkpt lat="55.981804" lon="26.508434">
<ele>88.014709</ele>
<time>2010-06-20T09:12:09Z</time>
<desc>lat.=55.981804, lon.=26.508434, Alt.=88.014709m. Speed=11.232000m/h.</desc>
<speed>3.120000</speed>
</trkpt>
<trkpt lat="55.981777" lon="26.508440">
<ele>87.942444</ele>
<time>2010-06-20T09:12:10Z</time>
<desc>lat.=55.981777, lon.=26.508440, Alt.=87.942444m. Speed=11.340000m/h.</desc>
<speed>3.150000</speed>
</trkpt>
<trkpt lat="55.981747" lon="26.508438">
<ele>87.917053</ele>
<time>2010-06-20T09:12:11Z</time>
<desc>lat.=55.981747, lon.=26.508438, Alt.=87.917053m. Speed=11.016000m/h.</desc>
<speed>3.060000</speed>
</trkpt>
<trkpt lat="55.981720" lon="26.508440">
<ele>87.545959</ele>
<time>2010-06-20T09:12:12Z</time>
<desc>lat.=55.981720, lon.=26.508440, Alt.=87.545959m. Speed=11.484000m/h.</desc>
<speed>3.190000</speed>
</trkpt>
<trkpt lat="55.981693" lon="26.508442">
<ele>87.440491</ele>
<time>2010-06-20T09:12:13Z</time>
<desc>lat.=55.981693, lon.=26.508442, Alt.=87.440491m. Speed=10.584000m/h.</desc>
<speed>2.940000</speed>
</trkpt>
<trkpt lat="55.981663" lon="26.508444">
<ele>87.231506</ele>
<time>2010-06-20T09:12:14Z</time>
<desc>lat.=55.981663, lon.=26.508444, Alt.=87.231506m. Speed=11.124000m/h.</desc>
<speed>3.090000</speed>
</trkpt>
<trkpt lat="55.981628" lon="26.508442">
<ele>87.356506</ele>
<time>2010-06-20T09:12:15Z</time>
<desc>lat.=55.981628, lon.=26.508442, Alt.=87.356506m. Speed=10.656000m/h.</desc>
<speed>2.960000</speed>
</trkpt>
<trkpt lat="55.981594" lon="26.508442">
<ele>87.758850</ele>
<time>2010-06-20T09:12:16Z</time>
<desc>lat.=55.981594, lon.=26.508442, Alt.=87.758850m. Speed=11.448000m/h.</desc>
<speed>3.180000</speed>
</trkpt>
<trkpt lat="55.981564" lon="26.508442">
<ele>87.874084</ele>
<time>2010-06-20T09:12:17Z</time>
<desc>lat.=55.981564, lon.=26.508442, Alt.=87.874084m. Speed=10.260000m/h.</desc>
<speed>2.850000</speed>
</trkpt>
<trkpt lat="55.981541" lon="26.508438">
<ele>88.235413</ele>
<time>2010-06-20T09:12:18Z</time>
<desc>lat.=55.981541, lon.=26.508438, Alt.=88.235413m. Speed=10.332000m/h.</desc>
<speed>2.870000</speed>
</trkpt>
<trkpt lat="55.981510" lon="26.508434">
<ele>88.657288</ele>
<time>2010-06-20T09:12:19Z</time>
<desc>lat.=55.981510, lon.=26.508434, Alt.=88.657288m. Speed=8.964000m/h.</desc>
<speed>2.490000</speed>
</trkpt>
<trkpt lat="55.981487" lon="26.508434">
<ele>88.708069</ele>
<time>2010-06-20T09:12:20Z</time>
<desc>lat.=55.981487, lon.=26.508434, Alt.=88.708069m. Speed=10.296000m/h.</desc>
<speed>2.860000</speed>
</trkpt>
<trkpt lat="55.981457" lon="26.508436">
<ele>88.506897</ele>
<time>2010-06-20T09:12:21Z</time>
<desc>lat.=55.981457, lon.=26.508436, Alt.=88.506897m. Speed=10.224000m/h.</desc>
<speed>2.840000</speed>
</trkpt>
<trkpt lat="55.981434" lon="26.508442">
<ele>88.432678</ele>
<time>2010-06-20T09:12:22Z</time>
<desc>lat.=55.981434, lon.=26.508442, Alt.=88.432678m. Speed=9.504000m/h.</desc>
<speed>2.640000</speed>
</trkpt>
<trkpt lat="55.981407" lon="26.508440">
<ele>88.059631</ele>
<time>2010-06-20T09:12:23Z</time>
<desc>lat.=55.981407, lon.=26.508440, Alt.=88.059631m. Speed=9.432000m/h.</desc>
<speed>2.620000</speed>
</trkpt>
<trkpt lat="55.981380" lon="26.508446">
<ele>87.848694</ele>
<time>2010-06-20T09:12:24Z</time>
<desc>lat.=55.981380, lon.=26.508446, Alt.=87.848694m. Speed=9.288000m/h.</desc>
<speed>2.580000</speed>
</trkpt>
<trkpt lat="55.981358" lon="26.508450">
<ele>87.823303</ele>
<time>2010-06-20T09:12:25Z</time>
<desc>lat.=55.981358, lon.=26.508450, Alt.=87.823303m. Speed=8.460000m/h.</desc>
<speed>2.350000</speed>
</trkpt>
<trkpt lat="55.981331" lon="26.508450">
<ele>87.938538</ele>
<time>2010-06-20T09:12:26Z</time>
<desc>lat.=55.981331, lon.=26.508450, Alt.=87.938538m. Speed=8.100000m/h.</desc>
<speed>2.250000</speed>
</trkpt>
<trkpt lat="55.981308" lon="26.508450">
<ele>88.817444</ele>
<time>2010-06-20T09:12:27Z</time>
<desc>lat.=55.981308, lon.=26.508450, Alt.=88.817444m. Speed=8.640000m/h.</desc>
<speed>2.400000</speed>
</trkpt>
<trkpt lat="55.981289" lon="26.508453">
<ele>89.102600</ele>
<time>2010-06-20T09:12:28Z</time>
<desc>lat.=55.981289, lon.=26.508453, Alt.=89.102600m. Speed=7.020000m/h.</desc>
<speed>1.950000</speed>
</trkpt>
<trkpt lat="55.981270" lon="26.508451">
<ele>89.176819</ele>
<time>2010-06-20T09:12:29Z</time>
<desc>lat.=55.981270, lon.=26.508451, Alt.=89.176819m. Speed=6.192000m/h.</desc>
<speed>1.720000</speed>
</trkpt>
<trkpt lat="55.981251" lon="26.508450">
<ele>89.254944</ele>
<time>2010-06-20T09:12:30Z</time>
<desc>lat.=55.981251, lon.=26.508450, Alt.=89.254944m. Speed=8.892000m/h.</desc>
<speed>2.470000</speed>
</trkpt>
<trkpt lat="55.981228" lon="26.508450">
<ele>89.301819</ele>
<time>2010-06-20T09:12:31Z</time>
<desc>lat.=55.981228, lon.=26.508450, Alt.=89.301819m. Speed=10.368000m/h.</desc>
<speed>2.880000</speed>
</trkpt>
<trkpt lat="55.981201" lon="26.508450">
<ele>89.522522</ele>
<time>2010-06-20T09:12:32Z</time>
<desc>lat.=55.981201, lon.=26.508450, Alt.=89.522522m. Speed=9.972000m/h.</desc>
<speed>2.770000</speed>
</trkpt>
<trkpt lat="55.981178" lon="26.508450">
<ele>89.725647</ele>
<time>2010-06-20T09:12:33Z</time>
<desc>lat.=55.981178, lon.=26.508450, Alt.=89.725647m. Speed=9.684000m/h.</desc>
<speed>2.690000</speed>
</trkpt>
<trkpt lat="55.981152" lon="26.508438">
<ele>88.764709</ele>
<time>2010-06-20T09:12:34Z</time>
<desc>lat.=55.981152, lon.=26.508438, Alt.=88.764709m. Speed=10.188000m/h.</desc>
<speed>2.830000</speed>
</trkpt>
<trkpt lat="55.981129" lon="26.508432">
<ele>88.887756</ele>
<time>2010-06-20T09:12:35Z</time>
<desc>lat.=55.981129, lon.=26.508432, Alt.=88.887756m. Speed=9.216000m/h.</desc>
<speed>2.560000</speed>
</trkpt>
<trkpt lat="55.981102" lon="26.508429">
<ele>89.030334</ele>
<time>2010-06-20T09:12:36Z</time>
<desc>lat.=55.981102, lon.=26.508429, Alt.=89.030334m. Speed=8.856000m/h.</desc>
<speed>2.460000</speed>
</trkpt>
<trkpt lat="55.981079" lon="26.508425">
<ele>88.458069</ele>
<time>2010-06-20T09:12:37Z</time>
<desc>lat.=55.981079, lon.=26.508425, Alt.=88.458069m. Speed=10.044000m/h.</desc>
<speed>2.790000</speed>
</trkpt>
<trkpt lat="55.981052" lon="26.508419">
<ele>88.344788</ele>
<time>2010-06-20T09:12:38Z</time>
<desc>lat.=55.981052, lon.=26.508419, Alt.=88.344788m. Speed=11.772000m/h.</desc>
<speed>3.270000</speed>
</trkpt>
<trkpt lat="55.981026" lon="26.508415">
<ele>89.098694</ele>
<time>2010-06-20T09:12:39Z</time>
<desc>lat.=55.981026, lon.=26.508415, Alt.=89.098694m. Speed=10.944000m/h.</desc>
<speed>3.040000</speed>
</trkpt>
<trkpt lat="55.981007" lon="26.508417">
<ele>89.362366</ele>
<time>2010-06-20T09:12:40Z</time>
<desc>lat.=55.981007, lon.=26.508417, Alt.=89.362366m. Speed=8.208000m/h.</desc>
<speed>2.280000</speed>
</trkpt>
<trkpt lat="55.980984" lon="26.508419">
<ele>89.768616</ele>
<time>2010-06-20T09:12:41Z</time>
<desc>lat.=55.980984, lon.=26.508419, Alt.=89.768616m. Speed=10.080000m/h.</desc>
<speed>2.800000</speed>
</trkpt>
<trkpt lat="55.980965" lon="26.508421">
<ele>91.626038</ele>
<time>2010-06-20T09:12:42Z</time>
<desc>lat.=55.980965, lon.=26.508421, Alt.=91.626038m. Speed=8.928000m/h.</desc>
<speed>2.480000</speed>
</trkpt>
<trkpt lat="55.980942" lon="26.508417">
<ele>91.794006</ele>
<time>2010-06-20T09:12:43Z</time>
<desc>lat.=55.980942, lon.=26.508417, Alt.=91.794006m. Speed=9.144000m/h.</desc>
<speed>2.540000</speed>
</trkpt>
<trkpt lat="55.980919" lon="26.508411">
<ele>92.139709</ele>
<time>2010-06-20T09:12:44Z</time>
<desc>lat.=55.980919, lon.=26.508411, Alt.=92.139709m. Speed=7.236000m/h.</desc>
<speed>2.010000</speed>
</trkpt>
<trkpt lat="55.980892" lon="26.508410">
<ele>92.547913</ele>
<time>2010-06-20T09:12:45Z</time>
<desc>lat.=55.980892, lon.=26.508410, Alt.=92.547913m. Speed=10.188000m/h.</desc>
<speed>2.830000</speed>
</trkpt>
<trkpt lat="55.980858" lon="26.508408">
<ele>92.901428</ele>
<time>2010-06-20T09:12:46Z</time>
<desc>lat.=55.980858, lon.=26.508408, Alt.=92.901428m. Speed=11.556000m/h.</desc>
<speed>3.210000</speed>
</trkpt>
<trkpt lat="55.980831" lon="26.508410">
<ele>93.245178</ele>
<time>2010-06-20T09:12:47Z</time>
<desc>lat.=55.980831, lon.=26.508410, Alt.=93.245178m. Speed=10.152000m/h.</desc>
<speed>2.820000</speed>
</trkpt>
<trkpt lat="55.980797" lon="26.508411">
<ele>94.122131</ele>
<time>2010-06-20T09:12:48Z</time>
<desc>lat.=55.980797, lon.=26.508411, Alt.=94.122131m. Speed=12.312000m/h.</desc>
<speed>3.420000</speed>
</trkpt>
<trkpt lat="55.980766" lon="26.508415">
<ele>94.944397</ele>
<time>2010-06-20T09:12:49Z</time>
<desc>lat.=55.980766, lon.=26.508415, Alt.=94.944397m. Speed=13.896000m/h.</desc>
<speed>3.860000</speed>
</trkpt>
<trkpt lat="55.980728" lon="26.508408">
<ele>94.600647</ele>
<time>2010-06-20T09:12:50Z</time>
<desc>lat.=55.980728, lon.=26.508408, Alt.=94.600647m. Speed=15.264000m/h.</desc>
<speed>4.240000</speed>
</trkpt>
<trkpt lat="55.980690" lon="26.508404">
<ele>94.368225</ele>
<time>2010-06-20T09:12:51Z</time>
<desc>lat.=55.980690, lon.=26.508404, Alt.=94.368225m. Speed=13.536000m/h.</desc>
<speed>3.760000</speed>
</trkpt>
<trkpt lat="55.980656" lon="26.508406">
<ele>94.854553</ele>
<time>2010-06-20T09:12:52Z</time>
<desc>lat.=55.980656, lon.=26.508406, Alt.=94.854553m. Speed=14.076000m/h.</desc>
<speed>3.910000</speed>
</trkpt>
<trkpt lat="55.980621" lon="26.508402">
<ele>94.727600</ele>
<time>2010-06-20T09:12:53Z</time>
<desc>lat.=55.980621, lon.=26.508402, Alt.=94.727600m. Speed=13.788000m/h.</desc>
<speed>3.830000</speed>
</trkpt>
<trkpt lat="55.980583" lon="26.508396">
<ele>94.897522</ele>
<time>2010-06-20T09:12:54Z</time>
<desc>lat.=55.980583, lon.=26.508396, Alt.=94.897522m. Speed=14.436000m/h.</desc>
<speed>4.010000</speed>
</trkpt>
<trkpt lat="55.980549" lon="26.508389">
<ele>94.987366</ele>
<time>2010-06-20T09:12:55Z</time>
<desc>lat.=55.980549, lon.=26.508389, Alt.=94.987366m. Speed=13.788000m/h.</desc>
<speed>3.830000</speed>
</trkpt>
<trkpt lat="55.980515" lon="26.508381">
<ele>95.313538</ele>
<time>2010-06-20T09:12:56Z</time>
<desc>lat.=55.980515, lon.=26.508381, Alt.=95.313538m. Speed=14.328000m/h.</desc>
<speed>3.980000</speed>
</trkpt>
<trkpt lat="55.980484" lon="26.508381">
<ele>95.620178</ele>
<time>2010-06-20T09:12:57Z</time>
<desc>lat.=55.980484, lon.=26.508381, Alt.=95.620178m. Speed=11.916000m/h.</desc>
<speed>3.310000</speed>
</trkpt>
<trkpt lat="55.980453" lon="26.508375">
<ele>95.389709</ele>
<time>2010-06-20T09:12:58Z</time>
<desc>lat.=55.980453, lon.=26.508375, Alt.=95.389709m. Speed=12.312000m/h.</desc>
<speed>3.420000</speed>
</trkpt>
<trkpt lat="55.980423" lon="26.508373">
<ele>95.411194</ele>
<time>2010-06-20T09:12:59Z</time>
<desc>lat.=55.980423, lon.=26.508373, Alt.=95.411194m. Speed=10.512000m/h.</desc>
<speed>2.920000</speed>
</trkpt>
<trkpt lat="55.980396" lon="26.508377">
<ele>95.471741</ele>
<time>2010-06-20T09:13:00Z</time>
<desc>lat.=55.980396, lon.=26.508377, Alt.=95.471741m. Speed=10.764000m/h.</desc>
<speed>2.990000</speed>
</trkpt>
<trkpt lat="55.980370" lon="26.508381">
<ele>95.331116</ele>
<time>2010-06-20T09:13:01Z</time>
<desc>lat.=55.980370, lon.=26.508381, Alt.=95.331116m. Speed=9.936000m/h.</desc>
<speed>2.760000</speed>
</trkpt>
<trkpt lat="55.980347" lon="26.508381">
<ele>95.376038</ele>
<time>2010-06-20T09:13:02Z</time>
<desc>lat.=55.980347, lon.=26.508381, Alt.=95.376038m. Speed=9.864000m/h.</desc>
<speed>2.740000</speed>
</trkpt>
<trkpt lat="55.980324" lon="26.508377">
<ele>95.430725</ele>
<time>2010-06-20T09:13:03Z</time>
<desc>lat.=55.980324, lon.=26.508377, Alt.=95.430725m. Speed=9.324000m/h.</desc>
<speed>2.590000</speed>
</trkpt>
<trkpt lat="55.980297" lon="26.508366">
<ele>95.905334</ele>
<time>2010-06-20T09:13:04Z</time>
<desc>lat.=55.980297, lon.=26.508366, Alt.=95.905334m. Speed=9.720000m/h.</desc>
<speed>2.700000</speed>
</trkpt>
<trkpt lat="55.980263" lon="26.508358">
<ele>95.733459</ele>
<time>2010-06-20T09:13:05Z</time>
<desc>lat.=55.980263, lon.=26.508358, Alt.=95.733459m. Speed=11.808000m/h.</desc>
<speed>3.280000</speed>
</trkpt>
<trkpt lat="55.980225" lon="26.508356">
<ele>94.797913</ele>
<time>2010-06-20T09:13:06Z</time>
<desc>lat.=55.980225, lon.=26.508356, Alt.=94.797913m. Speed=14.436000m/h.</desc>
<speed>4.010000</speed>
</trkpt>
<trkpt lat="55.980194" lon="26.508350">
<ele>94.938538</ele>
<time>2010-06-20T09:13:07Z</time>
<desc>lat.=55.980194, lon.=26.508350, Alt.=94.938538m. Speed=10.800000m/h.</desc>
<speed>3.000000</speed>
</trkpt>
<trkpt lat="55.980164" lon="26.508345">
<ele>94.559631</ele>
<time>2010-06-20T09:13:08Z</time>
<desc>lat.=55.980164, lon.=26.508345, Alt.=94.559631m. Speed=9.576000m/h.</desc>
<speed>2.660000</speed>
</trkpt>
<trkpt lat="55.980137" lon="26.508329">
<ele>93.223694</ele>
<time>2010-06-20T09:13:09Z</time>
<desc>lat.=55.980137, lon.=26.508329, Alt.=93.223694m. Speed=9.108000m/h.</desc>
<speed>2.530000</speed>
</trkpt>
<trkpt lat="55.980110" lon="26.508305">
<ele>91.274475</ele>
<time>2010-06-20T09:13:10Z</time>
<desc>lat.=55.980110, lon.=26.508305, Alt.=91.274475m. Speed=11.412000m/h.</desc>
<speed>3.170000</speed>
</trkpt>
<trkpt lat="55.980080" lon="26.508289">
<ele>89.985413</ele>
<time>2010-06-20T09:13:11Z</time>
<desc>lat.=55.980080, lon.=26.508289, Alt.=89.985413m. Speed=11.052000m/h.</desc>
<speed>3.070000</speed>
</trkpt>
<trkpt lat="55.980053" lon="26.508280">
<ele>89.327209</ele>
<time>2010-06-20T09:13:12Z</time>
<desc>lat.=55.980053, lon.=26.508280, Alt.=89.327209m. Speed=9.324000m/h.</desc>
<speed>2.590000</speed>
</trkpt>
<trkpt lat="55.980022" lon="26.508265">
<ele>88.169006</ele>
<time>2010-06-20T09:13:13Z</time>
<desc>lat.=55.980022, lon.=26.508265, Alt.=88.169006m. Speed=9.540000m/h.</desc>
<speed>2.650000</speed>
</trkpt>
<trkpt lat="55.979992" lon="26.508257">
<ele>86.670959</ele>
<time>2010-06-20T09:13:14Z</time>
<desc>lat.=55.979992, lon.=26.508257, Alt.=86.670959m. Speed=9.072000m/h.</desc>
<speed>2.520000</speed>
</trkpt>
<trkpt lat="55.979958" lon="26.508255">
<ele>86.317444</ele>
<time>2010-06-20T09:13:15Z</time>
<desc>lat.=55.979958, lon.=26.508255, Alt.=86.317444m. Speed=8.784000m/h.</desc>
<speed>2.440000</speed>
</trkpt>
<trkpt lat="55.979939" lon="26.508251">
<ele>85.977600</ele>
<time>2010-06-20T09:13:16Z</time>
<desc>lat.=55.979939, lon.=26.508251, Alt.=85.977600m. Speed=8.964000m/h.</desc>
<speed>2.490000</speed>
</trkpt>
<trkpt lat="55.979908" lon="26.508245">
<ele>85.639709</ele>
<time>2010-06-20T09:13:17Z</time>
<desc>lat.=55.979908, lon.=26.508245, Alt.=85.639709m. Speed=8.712000m/h.</desc>
<speed>2.420000</speed>
</trkpt>
<trkpt lat="55.979870" lon="26.508245">
<ele>85.745178</ele>
<time>2010-06-20T09:13:18Z</time>
<desc>lat.=55.979870, lon.=26.508245, Alt.=85.745178m. Speed=8.892000m/h.</desc>
<speed>2.470000</speed>
</trkpt>
<trkpt lat="55.979839" lon="26.508244">
<ele>85.985413</ele>
<time>2010-06-20T09:13:19Z</time>
<desc>lat.=55.979839, lon.=26.508244, Alt.=85.985413m. Speed=8.820000m/h.</desc>
<speed>2.450000</speed>
</trkpt>
<trkpt lat="55.979820" lon="26.508242">
<ele>86.167053</ele>
<time>2010-06-20T09:13:20Z</time>
<desc>lat.=55.979820, lon.=26.508242, Alt.=86.167053m. Speed=5.112000m/h.</desc>
<speed>1.420000</speed>
</trkpt>
<trkpt lat="55.979801" lon="26.508238">
<ele>85.381897</ele>
<time>2010-06-20T09:13:21Z</time>
<desc>lat.=55.979801, lon.=26.508238, Alt.=85.381897m. Speed=5.832000m/h.</desc>
<speed>1.620000</speed>
</trkpt>
<trkpt lat="55.979778" lon="26.508232">
<ele>84.473694</ele>
<time>2010-06-20T09:13:22Z</time>
<desc>lat.=55.979778, lon.=26.508232, Alt.=84.473694m. Speed=7.668000m/h.</desc>
<speed>2.130000</speed>
</trkpt>
<trkpt lat="55.979755" lon="26.508224">
<ele>83.676819</ele>
<time>2010-06-20T09:13:23Z</time>
<desc>lat.=55.979755, lon.=26.508224, Alt.=83.676819m. Speed=6.588000m/h.</desc>
<speed>1.830000</speed>
</trkpt>
<trkpt lat="55.979721" lon="26.508226">
<ele>83.325256</ele>
<time>2010-06-20T09:13:24Z</time>
<desc>lat.=55.979721, lon.=26.508226, Alt.=83.325256m. Speed=9.216000m/h.</desc>
<speed>2.560000</speed>
</trkpt>
<trkpt lat="55.979649" lon="26.508238">
<ele>85.086975</ele>
<time>2010-06-20T09:13:25Z</time>
<desc>lat.=55.979649, lon.=26.508238, Alt.=85.086975m. Speed=9.216000m/h.</desc>
<speed>2.560000</speed>
</trkpt>
<trkpt lat="55.979618" lon="26.508238">
<ele>85.172913</ele>
<time>2010-06-20T09:13:26Z</time>
<desc>lat.=55.979618, lon.=26.508238, Alt.=85.172913m. Speed=9.396000m/h.</desc>
<speed>2.610000</speed>
</trkpt>
<trkpt lat="55.979568" lon="26.508251">
<ele>84.819397</ele>
<time>2010-06-20T09:13:27Z</time>
<desc>lat.=55.979568, lon.=26.508251, Alt.=84.819397m. Speed=11.088000m/h.</desc>
<speed>3.080000</speed>
</trkpt>
<trkpt lat="55.979546" lon="26.508255">
<ele>84.698303</ele>
<time>2010-06-20T09:13:28Z</time>
<desc>lat.=55.979546, lon.=26.508255, Alt.=84.698303m. Speed=7.416000m/h.</desc>
<speed>2.060000</speed>
</trkpt>
<trkpt lat="55.979523" lon="26.508251">
<ele>85.112366</ele>
<time>2010-06-20T09:13:29Z</time>
<desc>lat.=55.979523, lon.=26.508251, Alt.=85.112366m. Speed=8.208000m/h.</desc>
<speed>2.280000</speed>
</trkpt>
<trkpt lat="55.979496" lon="26.508251">
<ele>84.419006</ele>
<time>2010-06-20T09:13:30Z</time>
<desc>lat.=55.979496, lon.=26.508251, Alt.=84.419006m. Speed=8.424000m/h.</desc>
<speed>2.340000</speed>
</trkpt>
<trkpt lat="55.979469" lon="26.508251">
<ele>84.176819</ele>
<time>2010-06-20T09:13:31Z</time>
<desc>lat.=55.979469, lon.=26.508251, Alt.=84.176819m. Speed=8.316000m/h.</desc>
<speed>2.310000</speed>
</trkpt>
<trkpt lat="55.979443" lon="26.508251">
<ele>83.344788</ele>
<time>2010-06-20T09:13:32Z</time>
<desc>lat.=55.979443, lon.=26.508251, Alt.=83.344788m. Speed=8.892000m/h.</desc>
<speed>2.470000</speed>
</trkpt>
<trkpt lat="55.979416" lon="26.508253">
<ele>83.211975</ele>
<time>2010-06-20T09:13:33Z</time>
<desc>lat.=55.979416, lon.=26.508253, Alt.=83.211975m. Speed=11.520000m/h.</desc>
<speed>3.200000</speed>
</trkpt>
<trkpt lat="55.979389" lon="26.508247">
<ele>83.288147</ele>
<time>2010-06-20T09:13:34Z</time>
<desc>lat.=55.979389, lon.=26.508247, Alt.=83.288147m. Speed=10.944000m/h.</desc>
<speed>3.040000</speed>
</trkpt>
<trkpt lat="55.979359" lon="26.508245">
<ele>82.950256</ele>
<time>2010-06-20T09:13:35Z</time>
<desc>lat.=55.979359, lon.=26.508245, Alt.=82.950256m. Speed=12.060000m/h.</desc>
<speed>3.350000</speed>
</trkpt>
<trkpt lat="55.979324" lon="26.508244">
<ele>82.264709</ele>
<time>2010-06-20T09:13:36Z</time>
<desc>lat.=55.979324, lon.=26.508244, Alt.=82.264709m. Speed=12.348000m/h.</desc>
<speed>3.430000</speed>
</trkpt>
<trkpt lat="55.979294" lon="26.508236">
<ele>81.975647</ele>
<time>2010-06-20T09:13:37Z</time>
<desc>lat.=55.979294, lon.=26.508236, Alt.=81.975647m. Speed=11.556000m/h.</desc>
<speed>3.210000</speed>
</trkpt>
<trkpt lat="55.979267" lon="26.508230">
<ele>82.354553</ele>
<time>2010-06-20T09:13:38Z</time>
<desc>lat.=55.979267, lon.=26.508230, Alt.=82.354553m. Speed=13.320000m/h.</desc>
<speed>3.700000</speed>
</trkpt>
<trkpt lat="55.979240" lon="26.508226">
<ele>82.049866</ele>
<time>2010-06-20T09:13:39Z</time>
<desc>lat.=55.979240, lon.=26.508226, Alt.=82.049866m. Speed=10.944000m/h.</desc>
<speed>3.040000</speed>
</trkpt>
<trkpt lat="55.979198" lon="26.508223">
<ele>81.866272</ele>
<time>2010-06-20T09:13:40Z</time>
<desc>lat.=55.979198, lon.=26.508223, Alt.=81.866272m. Speed=12.492000m/h.</desc>
<speed>3.470000</speed>
</trkpt>
<trkpt lat="55.979160" lon="26.508223">
<ele>81.280334</ele>
<time>2010-06-20T09:13:41Z</time>
<desc>lat.=55.979160, lon.=26.508223, Alt.=81.280334m. Speed=12.528000m/h.</desc>
<speed>3.480000</speed>
</trkpt>
<trkpt lat="55.979126" lon="26.508219">
<ele>81.106506</ele>
<time>2010-06-20T09:13:42Z</time>
<desc>lat.=55.979126, lon.=26.508219, Alt.=81.106506m. Speed=11.376000m/h.</desc>
<speed>3.160000</speed>
</trkpt>
<trkpt lat="55.979076" lon="26.508223">
<ele>80.419006</ele>
<time>2010-06-20T09:13:43Z</time>
<desc>lat.=55.979076, lon.=26.508223, Alt.=80.419006m. Speed=12.384000m/h.</desc>
<speed>3.440000</speed>
</trkpt>
<trkpt lat="55.979042" lon="26.508223">
<ele>80.090881</ele>
<time>2010-06-20T09:13:44Z</time>
<desc>lat.=55.979042, lon.=26.508223, Alt.=80.090881m. Speed=11.772000m/h.</desc>
<speed>3.270000</speed>
</trkpt>
<trkpt lat="55.979004" lon="26.508215">
<ele>79.163147</ele>
<time>2010-06-20T09:13:45Z</time>
<desc>lat.=55.979004, lon.=26.508215, Alt.=79.163147m. Speed=12.060000m/h.</desc>
<speed>3.350000</speed>
</trkpt>
<trkpt lat="55.978958" lon="26.508215">
<ele>78.901428</ele>
<time>2010-06-20T09:13:46Z</time>
<desc>lat.=55.978958, lon.=26.508215, Alt.=78.901428m. Speed=11.052000m/h.</desc>
<speed>3.070000</speed>
</trkpt>
<trkpt lat="55.978931" lon="26.508209">
<ele>78.411194</ele>
<time>2010-06-20T09:13:47Z</time>
<desc>lat.=55.978931, lon.=26.508209, Alt.=78.411194m. Speed=9.072000m/h.</desc>
<speed>2.520000</speed>
</trkpt>
<trkpt lat="55.978893" lon="26.508217">
<ele>78.338928</ele>
<time>2010-06-20T09:13:48Z</time>
<desc>lat.=55.978893, lon.=26.508217, Alt.=78.338928m. Speed=11.484000m/h.</desc>
<speed>3.190000</speed>
</trkpt>
<trkpt lat="55.978859" lon="26.508219">
<ele>78.120178</ele>
<time>2010-06-20T09:13:49Z</time>
<desc>lat.=55.978859, lon.=26.508219, Alt.=78.120178m. Speed=6.516000m/h.</desc>
<speed>1.810000</speed>
</trkpt>
<trkpt lat="55.978813" lon="26.508194">
<ele>82.348694</ele>
<time>2010-06-20T09:13:50Z</time>
<desc>lat.=55.978813, lon.=26.508194, Alt.=82.348694m. Speed=8.604000m/h.</desc>
<speed>2.390000</speed>
</trkpt>
<trkpt lat="55.978786" lon="26.508192">
<ele>82.977600</ele>
<time>2010-06-20T09:13:51Z</time>
<desc>lat.=55.978786, lon.=26.508192, Alt.=82.977600m. Speed=9.324000m/h.</desc>
<speed>2.590000</speed>
</trkpt>
<trkpt lat="55.978760" lon="26.508188">
<ele>83.059631</ele>
<time>2010-06-20T09:13:52Z</time>
<desc>lat.=55.978760, lon.=26.508188, Alt.=83.059631m. Speed=10.836000m/h.</desc>
<speed>3.010000</speed>
</trkpt>
<trkpt lat="55.978729" lon="26.508198">
<ele>83.811584</ele>
<time>2010-06-20T09:13:53Z</time>
<desc>lat.=55.978729, lon.=26.508198, Alt.=83.811584m. Speed=10.800000m/h.</desc>
<speed>3.000000</speed>
</trkpt>
<trkpt lat="55.978687" lon="26.508198">
<ele>83.956116</ele>
<time>2010-06-20T09:13:54Z</time>
<desc>lat.=55.978687, lon.=26.508198, Alt.=83.956116m. Speed=11.412000m/h.</desc>
<speed>3.170000</speed>
</trkpt>
<trkpt lat="55.978661" lon="26.508190">
<ele>83.241272</ele>
<time>2010-06-20T09:13:55Z</time>
<desc>lat.=55.978661, lon.=26.508190, Alt.=83.241272m. Speed=9.000000m/h.</desc>
<speed>2.500000</speed>
</trkpt>
<trkpt lat="55.978634" lon="26.508184">
<ele>82.542053</ele>
<time>2010-06-20T09:13:56Z</time>
<desc>lat.=55.978634, lon.=26.508184, Alt.=82.542053m. Speed=9.288000m/h.</desc>
<speed>2.580000</speed>
</trkpt>
<trkpt lat="55.978607" lon="26.508183">
<ele>82.448303</ele>
<time>2010-06-20T09:13:57Z</time>
<desc>lat.=55.978607, lon.=26.508183, Alt.=82.448303m. Speed=8.820000m/h.</desc>
<speed>2.450000</speed>
</trkpt>
<trkpt lat="55.978580" lon="26.508186">
<ele>83.026428</ele>
<time>2010-06-20T09:13:58Z</time>
<desc>lat.=55.978580, lon.=26.508186, Alt.=83.026428m. Speed=10.296000m/h.</desc>
<speed>2.860000</speed>
</trkpt>
<trkpt lat="55.978558" lon="26.508188">
<ele>82.610413</ele>
<time>2010-06-20T09:13:59Z</time>
<desc>lat.=55.978558, lon.=26.508188, Alt.=82.610413m. Speed=9.072000m/h.</desc>
<speed>2.520000</speed>
</trkpt>
<trkpt lat="55.978535" lon="26.508196">
<ele>81.788147</ele>
<time>2010-06-20T09:14:00Z</time>
<desc>lat.=55.978535, lon.=26.508196, Alt.=81.788147m. Speed=7.488000m/h.</desc>
<speed>2.080000</speed>
</trkpt>
<trkpt lat="55.978519" lon="26.508196">
<ele>80.627991</ele>
<time>2010-06-20T09:14:01Z</time>
<desc>lat.=55.978519, lon.=26.508196, Alt.=80.627991m. Speed=5.148000m/h.</desc>
<speed>1.430000</speed>
</trkpt>
<trkpt lat="55.978489" lon="26.508183">
<ele>83.516663</ele>
<time>2010-06-20T09:14:02Z</time>
<desc>lat.=55.978489, lon.=26.508183, Alt.=83.516663m. Speed=3.600000m/h.</desc>
<speed>1.000000</speed>
</trkpt>
<trkpt lat="55.978481" lon="26.508183">
<ele>84.096741</ele>
<time>2010-06-20T09:14:03Z</time>
<desc>lat.=55.978481, lon.=26.508183, Alt.=84.096741m. Speed=2.772000m/h.</desc>
<speed>0.770000</speed>
</trkpt>
<trkpt lat="55.978470" lon="26.508184">
<ele>84.159241</ele>
<time>2010-06-20T09:14:04Z</time>
<desc>lat.=55.978470, lon.=26.508184, Alt.=84.159241m. Speed=2.700000m/h.</desc>
<speed>0.750000</speed>
</trkpt>
<trkpt lat="55.978462" lon="26.508183">
<ele>83.977600</ele>
<time>2010-06-20T09:14:05Z</time>
<desc>lat.=55.978462, lon.=26.508183, Alt.=83.977600m. Speed=0.684000m/h.</desc>
<speed>0.190000</speed>
</trkpt>
<trkpt lat="55.978462" lon="26.508177">
<ele>83.645569</ele>
<time>2010-06-20T09:14:06Z</time>
<desc>lat.=55.978462, lon.=26.508177, Alt.=83.645569m. Speed=0.756000m/h.</desc>
<speed>0.210000</speed>
</trkpt>
<trkpt lat="55.978458" lon="26.508173">
<ele>83.629944</ele>
<time>2010-06-20T09:14:07Z</time>
<desc>lat.=55.978458, lon.=26.508173, Alt.=83.629944m. Speed=0.684000m/h.</desc>
<speed>0.190000</speed>
</trkpt>
<trkpt lat="55.978458" lon="26.508171">
<ele>83.610413</ele>
<time>2010-06-20T09:14:08Z</time>
<desc>lat.=55.978458, lon.=26.508171, Alt.=83.610413m. Speed=0.504000m/h.</desc>
<speed>0.140000</speed>
</trkpt>
<trkpt lat="55.978455" lon="26.508171">
<ele>83.604553</ele>
<time>2010-06-20T09:14:09Z</time>
<desc>lat.=55.978455, lon.=26.508171, Alt.=83.604553m. Speed=0.288000m/h.</desc>
<speed>0.080000</speed>
</trkpt>
<trkpt lat="55.978455" lon="26.508173">
<ele>83.604553</ele>
<time>2010-06-20T09:14:10Z</time>
<desc>lat.=55.978455, lon.=26.508173, Alt.=83.604553m. Speed=0.756000m/h.</desc>
<speed>0.210000</speed>
</trkpt>
<trkpt lat="55.978451" lon="26.508173">
<ele>83.606506</ele>
<time>2010-06-20T09:14:11Z</time>
<desc>lat.=55.978451, lon.=26.508173, Alt.=83.606506m. Speed=0.324000m/h.</desc>
<speed>0.090000</speed>
</trkpt>
<trkpt lat="55.978451" lon="26.508175">
<ele>83.594788</ele>
<time>2010-06-20T09:14:12Z</time>
<desc>lat.=55.978451, lon.=26.508175, Alt.=83.594788m. Speed=0.108000m/h.</desc>
<speed>0.030000</speed>
</trkpt>
<trkpt lat="55.978451" lon="26.508173">
<ele>83.614319</ele>
<time>2010-06-20T09:14:13Z</time>
<desc>lat.=55.978451, lon.=26.508173, Alt.=83.614319m. Speed=0.000000m/h.</desc>
<speed>0.000000</speed>
</trkpt>
<trkpt lat="55.978451" lon="26.508173">
<ele>83.612366</ele>
<time>2010-06-20T09:14:14Z</time>
<desc>lat.=55.978451, lon.=26.508173, Alt.=83.612366m. Speed=0.072000m/h.</desc>
<speed>0.020000</speed>
</trkpt>
<trkpt lat="55.978451" lon="26.508173">
<ele>83.602600</ele>
<time>2010-06-20T09:14:15Z</time>
<desc>lat.=55.978451, lon.=26.508173, Alt.=83.602600m. Speed=0.180000m/h.</desc>
<speed>0.050000</speed>
</trkpt>
<trkpt lat="55.978451" lon="26.508173">
<ele>83.610413</ele>
<time>2010-06-20T09:14:16Z</time>
<desc>lat.=55.978451, lon.=26.508173, Alt.=83.610413m. Speed=0.180000m/h.</desc>
<speed>0.050000</speed>
</trkpt>
<trkpt lat="55.978447" lon="26.508173">
<ele>83.614319</ele>
<time>2010-06-20T09:14:17Z</time>
<desc>lat.=55.978447, lon.=26.508173, Alt.=83.614319m. Speed=0.180000m/h.</desc>
<speed>0.050000</speed>
</trkpt>
<trkpt lat="55.978447" lon="26.508175">
<ele>83.622131</ele>
<time>2010-06-20T09:14:18Z</time>
<desc>lat.=55.978447, lon.=26.508175, Alt.=83.622131m. Speed=0.072000m/h.</desc>
<speed>0.020000</speed>
</trkpt>
<trkpt lat="55.978447" lon="26.508173">
<ele>83.637756</ele>
<time>2010-06-20T09:14:19Z</time>
<desc>lat.=55.978447, lon.=26.508173, Alt.=83.637756m. Speed=0.036000m/h.</desc>
<speed>0.010000</speed>
</trkpt>
<trkpt lat="55.978447" lon="26.508173">
<ele>83.635803</ele>
<time>2010-06-20T09:14:20Z</time>
<desc>lat.=55.978447, lon.=26.508173, Alt.=83.635803m. Speed=0.144000m/h.</desc>
<speed>0.040000</speed>
</trkpt>
<trkpt lat="55.978447" lon="26.508173">
<ele>83.643616</ele>
<time>2010-06-20T09:14:21Z</time>
<desc>lat.=55.978447, lon.=26.508173, Alt.=83.643616m. Speed=0.144000m/h.</desc>
<speed>0.040000</speed>
</trkpt>
<trkpt lat="55.978447" lon="26.508173">
<ele>83.635803</ele>
<time>2010-06-20T09:14:22Z</time>
<desc>lat.=55.978447, lon.=26.508173, Alt.=83.635803m. Speed=0.144000m/h.</desc>
<speed>0.040000</speed>
</trkpt>
<trkpt lat="55.978447" lon="26.508173">
<ele>83.643616</ele>
<time>2010-06-20T09:14:23Z</time>
<desc>lat.=55.978447, lon.=26.508173, Alt.=83.643616m. Speed=0.072000m/h.</desc>
<speed>0.020000</speed>
</trkpt>
<trkpt lat="55.978447" lon="26.508173">
<ele>83.633850</ele>
<time>2010-06-20T09:14:24Z</time>
<desc>lat.=55.978447, lon.=26.508173, Alt.=83.633850m. Speed=0.072000m/h.</desc>
<speed>0.020000</speed>
</trkpt>
<trkpt lat="55.978447" lon="26.508173">
<ele>83.624084</ele>
<time>2010-06-20T09:14:25Z</time>
<desc>lat.=55.978447, lon.=26.508173, Alt.=83.624084m. Speed=0.216000m/h.</desc>
<speed>0.060000</speed>
</trkpt>
<trkpt lat="55.978443" lon="26.508173">
<ele>83.612366</ele>
<time>2010-06-20T09:14:26Z</time>
<desc>lat.=55.978443, lon.=26.508173, Alt.=83.612366m. Speed=0.252000m/h.</desc>
<speed>0.070000</speed>
</trkpt>
<trkpt lat="55.978443" lon="26.508173">
<ele>83.598694</ele>
<time>2010-06-20T09:14:27Z</time>
<desc>lat.=55.978443, lon.=26.508173, Alt.=83.598694m. Speed=0.144000m/h.</desc>
<speed>0.040000</speed>
</trkpt>
<trkpt lat="55.978443" lon="26.508173">
<ele>83.586975</ele>
<time>2010-06-20T09:14:28Z</time>
<desc>lat.=55.978443, lon.=26.508173, Alt.=83.586975m. Speed=0.180000m/h.</desc>
<speed>0.050000</speed>
</trkpt>
<trkpt lat="55.978443" lon="26.508173">
<ele>83.559631</ele>
<time>2010-06-20T09:14:29Z</time>
<desc>lat.=55.978443, lon.=26.508173, Alt.=83.559631m. Speed=0.252000m/h.</desc>
<speed>0.070000</speed>
</trkpt>
<trkpt lat="55.978443" lon="26.508175">
<ele>83.538147</ele>
<time>2010-06-20T09:14:30Z</time>
<desc>lat.=55.978443, lon.=26.508175, Alt.=83.538147m. Speed=0.540000m/h.</desc>
<speed>0.150000</speed>
</trkpt>
<trkpt lat="55.978443" lon="26.508171">
<ele>83.534241</ele>
<time>2010-06-20T09:14:31Z</time>
<desc>lat.=55.978443, lon.=26.508171, Alt.=83.534241m. Speed=0.144000m/h.</desc>
<speed>0.040000</speed>
</trkpt>
<trkpt lat="55.978443" lon="26.508171">
<ele>83.528381</ele>
<time>2010-06-20T09:14:32Z</time>
<desc>lat.=55.978443, lon.=26.508171, Alt.=83.528381m. Speed=0.252000m/h.</desc>
<speed>0.070000</speed>
</trkpt>
<trkpt lat="55.978443" lon="26.508171">
<ele>83.522522</ele>
<time>2010-06-20T09:14:33Z</time>
<desc>lat.=55.978443, lon.=26.508171, Alt.=83.522522m. Speed=0.612000m/h.</desc>
<speed>0.170000</speed>
</trkpt>
<trkpt lat="55.978439" lon="26.508171">
<ele>83.518616</ele>
<time>2010-06-20T09:14:34Z</time>
<desc>lat.=55.978439, lon.=26.508171, Alt.=83.518616m. Speed=0.612000m/h.</desc>
<speed>0.170000</speed>
</trkpt>
<trkpt lat="55.978439" lon="26.508171">
<ele>83.516663</ele>
<time>2010-06-20T09:14:35Z</time>
<desc>lat.=55.978439, lon.=26.508171, Alt.=83.516663m. Speed=0.432000m/h.</desc>
<speed>0.120000</speed>
</trkpt>
<trkpt lat="55.978439" lon="26.508171">
<ele>83.518616</ele>
<time>2010-06-20T09:14:36Z</time>
<desc>lat.=55.978439, lon.=26.508171, Alt.=83.518616m. Speed=0.288000m/h.</desc>
<speed>0.080000</speed>
</trkpt>
<trkpt lat="55.978439" lon="26.508171">
<ele>83.516663</ele>
<time>2010-06-20T09:14:37Z</time>
<desc>lat.=55.978439, lon.=26.508171, Alt.=83.516663m. Speed=0.504000m/h.</desc>
<speed>0.140000</speed>
</trkpt>
<trkpt lat="55.978443" lon="26.508171">
<ele>83.516663</ele>
<time>2010-06-20T09:14:38Z</time>
<desc>lat.=55.978443, lon.=26.508171, Alt.=83.516663m. Speed=1.332000m/h.</desc>
<speed>0.370000</speed>
</trkpt>
<trkpt lat="55.978447" lon="26.508171">
<ele>83.520569</ele>
<time>2010-06-20T09:14:39Z</time>
<desc>lat.=55.978447, lon.=26.508171, Alt.=83.520569m. Speed=2.736000m/h.</desc>
<speed>0.760000</speed>
</trkpt>
<trkpt lat="55.978451" lon="26.508171">
<ele>83.530334</ele>
<time>2010-06-20T09:14:40Z</time>
<desc>lat.=55.978451, lon.=26.508171, Alt.=83.530334m. Speed=3.636000m/h.</desc>
<speed>1.010000</speed>
</trkpt>
<trkpt lat="55.978466" lon="26.508167">
<ele>83.569397</ele>
<time>2010-06-20T09:14:41Z</time>
<desc>lat.=55.978466, lon.=26.508167, Alt.=83.569397m. Speed=4.500000m/h.</desc>
<speed>1.250000</speed>
</trkpt>
<trkpt lat="55.978477" lon="26.508163">
<ele>83.542053</ele>
<time>2010-06-20T09:14:42Z</time>
<desc>lat.=55.978477, lon.=26.508163, Alt.=83.542053m. Speed=5.796000m/h.</desc>
<speed>1.610000</speed>
</trkpt>
<trkpt lat="55.978493" lon="26.508156">
<ele>83.508850</ele>
<time>2010-06-20T09:14:43Z</time>
<desc>lat.=55.978493, lon.=26.508156, Alt.=83.508850m. Speed=6.048000m/h.</desc>
<speed>1.680000</speed>
</trkpt>
<trkpt lat="55.978504" lon="26.508150">
<ele>83.534241</ele>
<time>2010-06-20T09:14:44Z</time>
<desc>lat.=55.978504, lon.=26.508150, Alt.=83.534241m. Speed=5.940000m/h.</desc>
<speed>1.650000</speed>
</trkpt>
<trkpt lat="55.978512" lon="26.508146">
<ele>83.346741</ele>
<time>2010-06-20T09:14:45Z</time>
<desc>lat.=55.978512, lon.=26.508146, Alt.=83.346741m. Speed=5.544000m/h.</desc>
<speed>1.540000</speed>
</trkpt>
<trkpt lat="55.978519" lon="26.508162">
<ele>83.198303</ele>
<time>2010-06-20T09:14:46Z</time>
<desc>lat.=55.978519, lon.=26.508162, Alt.=83.198303m. Speed=5.796000m/h.</desc>
<speed>1.610000</speed>
</trkpt>
<trkpt lat="55.978531" lon="26.508169">
<ele>83.141663</ele>
<time>2010-06-20T09:14:47Z</time>
<desc>lat.=55.978531, lon.=26.508169, Alt.=83.141663m. Speed=5.292000m/h.</desc>
<speed>1.470000</speed>
</trkpt>
<trkpt lat="55.978539" lon="26.508173">
<ele>83.044006</ele>
<time>2010-06-20T09:14:48Z</time>
<desc>lat.=55.978539, lon.=26.508173, Alt.=83.044006m. Speed=5.400000m/h.</desc>
<speed>1.500000</speed>
</trkpt>
<trkpt lat="55.978558" lon="26.508177">
<ele>83.172913</ele>
<time>2010-06-20T09:14:49Z</time>
<desc>lat.=55.978558, lon.=26.508177, Alt.=83.172913m. Speed=8.172000m/h.</desc>
<speed>2.270000</speed>
</trkpt>
<trkpt lat="55.978577" lon="26.508173">
<ele>83.315491</ele>
<time>2010-06-20T09:14:50Z</time>
<desc>lat.=55.978577, lon.=26.508173, Alt.=83.315491m. Speed=8.028000m/h.</desc>
<speed>2.230000</speed>
</trkpt>
<trkpt lat="55.978600" lon="26.508171">
<ele>83.473694</ele>
<time>2010-06-20T09:14:51Z</time>
<desc>lat.=55.978600, lon.=26.508171, Alt.=83.473694m. Speed=9.324000m/h.</desc>
<speed>2.590000</speed>
</trkpt>
<trkpt lat="55.978626" lon="26.508171">
<ele>83.555725</ele>
<time>2010-06-20T09:14:52Z</time>
<desc>lat.=55.978626, lon.=26.508171, Alt.=83.555725m. Speed=10.440000m/h.</desc>
<speed>2.900000</speed>
</trkpt>
<trkpt lat="55.978645" lon="26.508171">
<ele>83.528381</ele>
<time>2010-06-20T09:14:53Z</time>
<desc>lat.=55.978645, lon.=26.508171, Alt.=83.528381m. Speed=9.756000m/h.</desc>
<speed>2.710000</speed>
</trkpt>
<trkpt lat="55.978668" lon="26.508169">
<ele>83.645569</ele>
<time>2010-06-20T09:14:54Z</time>
<desc>lat.=55.978668, lon.=26.508169, Alt.=83.645569m. Speed=10.440000m/h.</desc>
<speed>2.900000</speed>
</trkpt>
<trkpt lat="55.978695" lon="26.508173">
<ele>84.124084</ele>
<time>2010-06-20T09:14:55Z</time>
<desc>lat.=55.978695, lon.=26.508173, Alt.=84.124084m. Speed=11.952000m/h.</desc>
<speed>3.320000</speed>
</trkpt>
<trkpt lat="55.978722" lon="26.508177">
<ele>84.551819</ele>
<time>2010-06-20T09:14:56Z</time>
<desc>lat.=55.978722, lon.=26.508177, Alt.=84.551819m. Speed=11.808000m/h.</desc>
<speed>3.280000</speed>
</trkpt>
<trkpt lat="55.978752" lon="26.508175">
<ele>85.002991</ele>
<time>2010-06-20T09:14:57Z</time>
<desc>lat.=55.978752, lon.=26.508175, Alt.=85.002991m. Speed=11.484000m/h.</desc>
<speed>3.190000</speed>
</trkpt>
<trkpt lat="55.978779" lon="26.508175">
<ele>85.534241</ele>
<time>2010-06-20T09:14:58Z</time>
<desc>lat.=55.978779, lon.=26.508175, Alt.=85.534241m. Speed=10.440000m/h.</desc>
<speed>2.900000</speed>
</trkpt>
<trkpt lat="55.978809" lon="26.508179">
<ele>86.020569</ele>
<time>2010-06-20T09:14:59Z</time>
<desc>lat.=55.978809, lon.=26.508179, Alt.=86.020569m. Speed=9.900000m/h.</desc>
<speed>2.750000</speed>
</trkpt>
<trkpt lat="55.978840" lon="26.508183">
<ele>86.540100</ele>
<time>2010-06-20T09:15:00Z</time>
<desc>lat.=55.978840, lon.=26.508183, Alt.=86.540100m. Speed=10.728000m/h.</desc>
<speed>2.980000</speed>
</trkpt>
<trkpt lat="55.978863" lon="26.508184">
<ele>86.909241</ele>
<time>2010-06-20T09:15:01Z</time>
<desc>lat.=55.978863, lon.=26.508184, Alt.=86.909241m. Speed=8.856000m/h.</desc>
<speed>2.460000</speed>
</trkpt>
<trkpt lat="55.978886" lon="26.508186">
<ele>87.411194</ele>
<time>2010-06-20T09:15:02Z</time>
<desc>lat.=55.978886, lon.=26.508186, Alt.=87.411194m. Speed=8.352000m/h.</desc>
<speed>2.320000</speed>
</trkpt>
<trkpt lat="55.978905" lon="26.508184">
<ele>87.627991</ele>
<time>2010-06-20T09:15:03Z</time>
<desc>lat.=55.978905, lon.=26.508184, Alt.=87.627991m. Speed=9.936000m/h.</desc>
<speed>2.760000</speed>
</trkpt>
<trkpt lat="55.978920" lon="26.508190">
<ele>87.848694</ele>
<time>2010-06-20T09:15:04Z</time>
<desc>lat.=55.978920, lon.=26.508190, Alt.=87.848694m. Speed=6.516000m/h.</desc>
<speed>1.810000</speed>
</trkpt>
<trkpt lat="55.978947" lon="26.508190">
<ele>87.663147</ele>
<time>2010-06-20T09:15:05Z</time>
<desc>lat.=55.978947, lon.=26.508190, Alt.=87.663147m. Speed=9.396000m/h.</desc>
<speed>2.610000</speed>
</trkpt>
<trkpt lat="55.978970" lon="26.508186">
<ele>88.223694</ele>
<time>2010-06-20T09:15:06Z</time>
<desc>lat.=55.978970, lon.=26.508186, Alt.=88.223694m. Speed=10.980000m/h.</desc>
<speed>3.050000</speed>
</trkpt>
<trkpt lat="55.979000" lon="26.508190">
<ele>88.645569</ele>
<time>2010-06-20T09:15:07Z</time>
<desc>lat.=55.979000, lon.=26.508190, Alt.=88.645569m. Speed=10.800000m/h.</desc>
<speed>3.000000</speed>
</trkpt>
<trkpt lat="55.979031" lon="26.508198">
<ele>89.090881</ele>
<time>2010-06-20T09:15:08Z</time>
<desc>lat.=55.979031, lon.=26.508198, Alt.=89.090881m. Speed=8.892000m/h.</desc>
<speed>2.470000</speed>
</trkpt>
<trkpt lat="55.979050" lon="26.508196">
<ele>89.137756</ele>
<time>2010-06-20T09:15:09Z</time>
<desc>lat.=55.979050, lon.=26.508196, Alt.=89.137756m. Speed=8.604000m/h.</desc>
<speed>2.390000</speed>
</trkpt>
<trkpt lat="55.979080" lon="26.508198">
<ele>89.627991</ele>
<time>2010-06-20T09:15:10Z</time>
<desc>lat.=55.979080, lon.=26.508198, Alt.=89.627991m. Speed=11.700000m/h.</desc>
<speed>3.250000</speed>
</trkpt>
<trkpt lat="55.979107" lon="26.508190">
<ele>89.782288</ele>
<time>2010-06-20T09:15:11Z</time>
<desc>lat.=55.979107, lon.=26.508190, Alt.=89.782288m. Speed=9.720000m/h.</desc>
<speed>2.700000</speed>
</trkpt>
<trkpt lat="55.979134" lon="26.508190">
<ele>90.360413</ele>
<time>2010-06-20T09:15:12Z</time>
<desc>lat.=55.979134, lon.=26.508190, Alt.=90.360413m. Speed=8.712000m/h.</desc>
<speed>2.420000</speed>
</trkpt>
<trkpt lat="55.979153" lon="26.508190">
<ele>91.112366</ele>
<time>2010-06-20T09:15:13Z</time>
<desc>lat.=55.979153, lon.=26.508190, Alt.=91.112366m. Speed=8.892000m/h.</desc>
<speed>2.470000</speed>
</trkpt>
<trkpt lat="55.979176" lon="26.508190">
<ele>91.596741</ele>
<time>2010-06-20T09:15:14Z</time>
<desc>lat.=55.979176, lon.=26.508190, Alt.=91.596741m. Speed=8.028000m/h.</desc>
<speed>2.230000</speed>
</trkpt>
<trkpt lat="55.979198" lon="26.508188">
<ele>91.590881</ele>
<time>2010-06-20T09:15:15Z</time>
<desc>lat.=55.979198, lon.=26.508188, Alt.=91.590881m. Speed=8.136000m/h.</desc>
<speed>2.260000</speed>
</trkpt>
<trkpt lat="55.979225" lon="26.508194">
<ele>92.946350</ele>
<time>2010-06-20T09:15:16Z</time>
<desc>lat.=55.979225, lon.=26.508194, Alt.=92.946350m. Speed=10.584000m/h.</desc>
<speed>2.940000</speed>
</trkpt>
<trkpt lat="55.979256" lon="26.508192">
<ele>93.752991</ele>
<time>2010-06-20T09:15:17Z</time>
<desc>lat.=55.979256, lon.=26.508192, Alt.=93.752991m. Speed=12.276000m/h.</desc>
<speed>3.410000</speed>
</trkpt>
<trkpt lat="55.979290" lon="26.508196">
<ele>93.786194</ele>
<time>2010-06-20T09:15:18Z</time>
<desc>lat.=55.979290, lon.=26.508196, Alt.=93.786194m. Speed=13.032000m/h.</desc>
<speed>3.620000</speed>
</trkpt>
<trkpt lat="55.979321" lon="26.508196">
<ele>94.397522</ele>
<time>2010-06-20T09:15:19Z</time>
<desc>lat.=55.979321, lon.=26.508196, Alt.=94.397522m. Speed=11.736000m/h.</desc>
<speed>3.260000</speed>
</trkpt>
<trkpt lat="55.979347" lon="26.508196">
<ele>94.489319</ele>
<time>2010-06-20T09:15:20Z</time>
<desc>lat.=55.979347, lon.=26.508196, Alt.=94.489319m. Speed=11.160000m/h.</desc>
<speed>3.100000</speed>
</trkpt>
<trkpt lat="55.979389" lon="26.508192">
<ele>92.686584</ele>
<time>2010-06-20T09:15:21Z</time>
<desc>lat.=55.979389, lon.=26.508192, Alt.=92.686584m. Speed=11.052000m/h.</desc>
<speed>3.070000</speed>
</trkpt>
<trkpt lat="55.979420" lon="26.508196">
<ele>92.471741</ele>
<time>2010-06-20T09:15:22Z</time>
<desc>lat.=55.979420, lon.=26.508196, Alt.=92.471741m. Speed=10.620000m/h.</desc>
<speed>2.950000</speed>
</trkpt>
<trkpt lat="55.979450" lon="26.508196">
<ele>92.071350</ele>
<time>2010-06-20T09:15:23Z</time>
<desc>lat.=55.979450, lon.=26.508196, Alt.=92.071350m. Speed=9.936000m/h.</desc>
<speed>2.760000</speed>
</trkpt>
<trkpt lat="55.979477" lon="26.508198">
<ele>91.811584</ele>
<time>2010-06-20T09:15:24Z</time>
<desc>lat.=55.979477, lon.=26.508198, Alt.=91.811584m. Speed=11.052000m/h.</desc>
<speed>3.070000</speed>
</trkpt>
<trkpt lat="55.979504" lon="26.508200">
<ele>91.780334</ele>
<time>2010-06-20T09:15:25Z</time>
<desc>lat.=55.979504, lon.=26.508200, Alt.=91.780334m. Speed=9.216000m/h.</desc>
<speed>2.560000</speed>
</trkpt>
<trkpt lat="55.979530" lon="26.508204">
<ele>92.129944</ele>
<time>2010-06-20T09:15:26Z</time>
<desc>lat.=55.979530, lon.=26.508204, Alt.=92.129944m. Speed=10.008000m/h.</desc>
<speed>2.780000</speed>
</trkpt>
<trkpt lat="55.979557" lon="26.508223">
<ele>92.471741</ele>
<time>2010-06-20T09:15:27Z</time>
<desc>lat.=55.979557, lon.=26.508223, Alt.=92.471741m. Speed=8.460000m/h.</desc>
<speed>2.350000</speed>
</trkpt>
<trkpt lat="55.979584" lon="26.508236">
<ele>93.264709</ele>
<time>2010-06-20T09:15:28Z</time>
<desc>lat.=55.979584, lon.=26.508236, Alt.=93.264709m. Speed=8.604000m/h.</desc>
<speed>2.390000</speed>
</trkpt>
<trkpt lat="55.979614" lon="26.508245">
<ele>93.751038</ele>
<time>2010-06-20T09:15:29Z</time>
<desc>lat.=55.979614, lon.=26.508245, Alt.=93.751038m. Speed=8.748000m/h.</desc>
<speed>2.430000</speed>
</trkpt>
<trkpt lat="55.979637" lon="26.508253">
<ele>94.131897</ele>
<time>2010-06-20T09:15:30Z</time>
<desc>lat.=55.979637, lon.=26.508253, Alt.=94.131897m. Speed=9.108000m/h.</desc>
<speed>2.530000</speed>
</trkpt>
<trkpt lat="55.979660" lon="26.508261">
<ele>94.463928</ele>
<time>2010-06-20T09:15:31Z</time>
<desc>lat.=55.979660, lon.=26.508261, Alt.=94.463928m. Speed=10.836000m/h.</desc>
<speed>3.010000</speed>
</trkpt>
<trkpt lat="55.979687" lon="26.508257">
<ele>94.059631</ele>
<time>2010-06-20T09:15:32Z</time>
<desc>lat.=55.979687, lon.=26.508257, Alt.=94.059631m. Speed=10.404000m/h.</desc>
<speed>2.890000</speed>
</trkpt>
<trkpt lat="55.979710" lon="26.508263">
<ele>94.422913</ele>
<time>2010-06-20T09:15:33Z</time>
<desc>lat.=55.979710, lon.=26.508263, Alt.=94.422913m. Speed=10.476000m/h.</desc>
<speed>2.910000</speed>
</trkpt>
<trkpt lat="55.979744" lon="26.508270">
<ele>94.963928</ele>
<time>2010-06-20T09:15:34Z</time>
<desc>lat.=55.979744, lon.=26.508270, Alt.=94.963928m. Speed=12.204000m/h.</desc>
<speed>3.390000</speed>
</trkpt>
<trkpt lat="55.979774" lon="26.508282">
<ele>94.471741</ele>
<time>2010-06-20T09:15:35Z</time>
<desc>lat.=55.979774, lon.=26.508282, Alt.=94.471741m. Speed=10.872000m/h.</desc>
<speed>3.020000</speed>
</trkpt>
<trkpt lat="55.979809" lon="26.508286">
<ele>94.196350</ele>
<time>2010-06-20T09:15:36Z</time>
<desc>lat.=55.979809, lon.=26.508286, Alt.=94.196350m. Speed=11.016000m/h.</desc>
<speed>3.060000</speed>
</trkpt>
<trkpt lat="55.979843" lon="26.508295">
<ele>93.645569</ele>
<time>2010-06-20T09:15:37Z</time>
<desc>lat.=55.979843, lon.=26.508295, Alt.=93.645569m. Speed=12.888000m/h.</desc>
<speed>3.580000</speed>
</trkpt>
<trkpt lat="55.979874" lon="26.508297">
<ele>93.545959</ele>
<time>2010-06-20T09:15:38Z</time>
<desc>lat.=55.979874, lon.=26.508297, Alt.=93.545959m. Speed=10.476000m/h.</desc>
<speed>2.910000</speed>
</trkpt>
<trkpt lat="55.979904" lon="26.508301">
<ele>93.520569</ele>
<time>2010-06-20T09:15:39Z</time>
<desc>lat.=55.979904, lon.=26.508301, Alt.=93.520569m. Speed=10.224000m/h.</desc>
<speed>2.840000</speed>
</trkpt>
<trkpt lat="55.979927" lon="26.508297">
<ele>94.612366</ele>
<time>2010-06-20T09:15:40Z</time>
<desc>lat.=55.979927, lon.=26.508297, Alt.=94.612366m. Speed=9.612000m/h.</desc>
<speed>2.670000</speed>
</trkpt>
<trkpt lat="55.979958" lon="26.508299">
<ele>95.118225</ele>
<time>2010-06-20T09:15:41Z</time>
<desc>lat.=55.979958, lon.=26.508299, Alt.=95.118225m. Speed=12.456000m/h.</desc>
<speed>3.460000</speed>
</trkpt>
<trkpt lat="55.979992" lon="26.508303">
<ele>95.106506</ele>
<time>2010-06-20T09:15:42Z</time>
<desc>lat.=55.979992, lon.=26.508303, Alt.=95.106506m. Speed=12.204000m/h.</desc>
<speed>3.390000</speed>
</trkpt>
<trkpt lat="55.980022" lon="26.508291">
<ele>95.153381</ele>
<time>2010-06-20T09:15:43Z</time>
<desc>lat.=55.980022, lon.=26.508291, Alt.=95.153381m. Speed=10.800000m/h.</desc>
<speed>3.000000</speed>
</trkpt>
<trkpt lat="55.980053" lon="26.508293">
<ele>94.655334</ele>
<time>2010-06-20T09:15:44Z</time>
<desc>lat.=55.980053, lon.=26.508293, Alt.=94.655334m. Speed=9.360000m/h.</desc>
<speed>2.600000</speed>
</trkpt>
<trkpt lat="55.980080" lon="26.508293">
<ele>94.579163</ele>
<time>2010-06-20T09:15:45Z</time>
<desc>lat.=55.980080, lon.=26.508293, Alt.=94.579163m. Speed=9.792000m/h.</desc>
<speed>2.720000</speed>
</trkpt>
<trkpt lat="55.980103" lon="26.508293">
<ele>94.448303</ele>
<time>2010-06-20T09:15:46Z</time>
<desc>lat.=55.980103, lon.=26.508293, Alt.=94.448303m. Speed=11.520000m/h.</desc>
<speed>3.200000</speed>
</trkpt>
<trkpt lat="55.980129" lon="26.508293">
<ele>94.831116</ele>
<time>2010-06-20T09:15:47Z</time>
<desc>lat.=55.980129, lon.=26.508293, Alt.=94.831116m. Speed=9.180000m/h.</desc>
<speed>2.550000</speed>
</trkpt>
<trkpt lat="55.980160" lon="26.508289">
<ele>94.444397</ele>
<time>2010-06-20T09:15:48Z</time>
<desc>lat.=55.980160, lon.=26.508289, Alt.=94.444397m. Speed=10.008000m/h.</desc>
<speed>2.780000</speed>
</trkpt>
<trkpt lat="55.980190" lon="26.508293">
<ele>94.137756</ele>
<time>2010-06-20T09:15:49Z</time>
<desc>lat.=55.980190, lon.=26.508293, Alt.=94.137756m. Speed=10.800000m/h.</desc>
<speed>3.000000</speed>
</trkpt>
<trkpt lat="55.980221" lon="26.508291">
<ele>93.188538</ele>
<time>2010-06-20T09:15:50Z</time>
<desc>lat.=55.980221, lon.=26.508291, Alt.=93.188538m. Speed=10.152000m/h.</desc>
<speed>2.820000</speed>
</trkpt>
<trkpt lat="55.980247" lon="26.508287">
<ele>93.647522</ele>
<time>2010-06-20T09:15:51Z</time>
<desc>lat.=55.980247, lon.=26.508287, Alt.=93.647522m. Speed=10.296000m/h.</desc>
<speed>2.860000</speed>
</trkpt>
<trkpt lat="55.980278" lon="26.508287">
<ele>93.274475</ele>
<time>2010-06-20T09:15:52Z</time>
<desc>lat.=55.980278, lon.=26.508287, Alt.=93.274475m. Speed=10.512000m/h.</desc>
<speed>2.920000</speed>
</trkpt>
<trkpt lat="55.980309" lon="26.508286">
<ele>92.739319</ele>
<time>2010-06-20T09:15:53Z</time>
<desc>lat.=55.980309, lon.=26.508286, Alt.=92.739319m. Speed=10.512000m/h.</desc>
<speed>2.920000</speed>
</trkpt>
<trkpt lat="55.980339" lon="26.508282">
<ele>92.286194</ele>
<time>2010-06-20T09:15:54Z</time>
<desc>lat.=55.980339, lon.=26.508282, Alt.=92.286194m. Speed=9.072000m/h.</desc>
<speed>2.520000</speed>
</trkpt>
<trkpt lat="55.980370" lon="26.508280">
<ele>92.268616</ele>
<time>2010-06-20T09:15:55Z</time>
<desc>lat.=55.980370, lon.=26.508280, Alt.=92.268616m. Speed=9.504000m/h.</desc>
<speed>2.640000</speed>
</trkpt>
<trkpt lat="55.980396" lon="26.508278">
<ele>91.749084</ele>
<time>2010-06-20T09:15:56Z</time>
<desc>lat.=55.980396, lon.=26.508278, Alt.=91.749084m. Speed=9.144000m/h.</desc>
<speed>2.540000</speed>
</trkpt>
<trkpt lat="55.980427" lon="26.508280">
<ele>91.635803</ele>
<time>2010-06-20T09:15:57Z</time>
<desc>lat.=55.980427, lon.=26.508280, Alt.=91.635803m. Speed=10.368000m/h.</desc>
<speed>2.880000</speed>
</trkpt>
<trkpt lat="55.980465" lon="26.508282">
<ele>91.575256</ele>
<time>2010-06-20T09:15:58Z</time>
<desc>lat.=55.980465, lon.=26.508282, Alt.=91.575256m. Speed=11.700000m/h.</desc>
<speed>3.250000</speed>
</trkpt>
<trkpt lat="55.980499" lon="26.508276">
<ele>91.696350</ele>
<time>2010-06-20T09:15:59Z</time>
<desc>lat.=55.980499, lon.=26.508276, Alt.=91.696350m. Speed=13.176000m/h.</desc>
<speed>3.660000</speed>
</trkpt>
<trkpt lat="55.980534" lon="26.508284">
<ele>91.588928</ele>
<time>2010-06-20T09:16:00Z</time>
<desc>lat.=55.980534, lon.=26.508284, Alt.=91.588928m. Speed=11.736000m/h.</desc>
<speed>3.260000</speed>
</trkpt>
<trkpt lat="55.980534" lon="26.508268">
<ele>94.376038</ele>
<time>2010-06-20T09:16:01Z</time>
<desc>lat.=55.980534, lon.=26.508268, Alt.=94.376038m. Speed=10.728000m/h.</desc>
<speed>2.980000</speed>
</trkpt>
<trkpt lat="55.980576" lon="26.508278">
<ele>95.186584</ele>
<time>2010-06-20T09:16:02Z</time>
<desc>lat.=55.980576, lon.=26.508278, Alt.=95.186584m. Speed=9.792000m/h.</desc>
<speed>2.720000</speed>
</trkpt>
<trkpt lat="55.980598" lon="26.508276">
<ele>95.159241</ele>
<time>2010-06-20T09:16:03Z</time>
<desc>lat.=55.980598, lon.=26.508276, Alt.=95.159241m. Speed=13.428000m/h.</desc>
<speed>3.730000</speed>
</trkpt>
<trkpt lat="55.980640" lon="26.508287">
<ele>95.352600</ele>
<time>2010-06-20T09:16:04Z</time>
<desc>lat.=55.980640, lon.=26.508287, Alt.=95.352600m. Speed=11.340000m/h.</desc>
<speed>3.150000</speed>
</trkpt>
<trkpt lat="55.980671" lon="26.508291">
<ele>95.047913</ele>
<time>2010-06-20T09:16:05Z</time>
<desc>lat.=55.980671, lon.=26.508291, Alt.=95.047913m. Speed=10.296000m/h.</desc>
<speed>2.860000</speed>
</trkpt>
<trkpt lat="55.980701" lon="26.508295">
<ele>95.362366</ele>
<time>2010-06-20T09:16:06Z</time>
<desc>lat.=55.980701, lon.=26.508295, Alt.=95.362366m. Speed=10.908000m/h.</desc>
<speed>3.030000</speed>
</trkpt>
<trkpt lat="55.980736" lon="26.508299">
<ele>96.081116</ele>
<time>2010-06-20T09:16:07Z</time>
<desc>lat.=55.980736, lon.=26.508299, Alt.=96.081116m. Speed=12.168000m/h.</desc>
<speed>3.380000</speed>
</trkpt>
<trkpt lat="55.980770" lon="26.508305">
<ele>96.104553</ele>
<time>2010-06-20T09:16:08Z</time>
<desc>lat.=55.980770, lon.=26.508305, Alt.=96.104553m. Speed=12.168000m/h.</desc>
<speed>3.380000</speed>
</trkpt>
<trkpt lat="55.980804" lon="26.508305">
<ele>96.012756</ele>
<time>2010-06-20T09:16:09Z</time>
<desc>lat.=55.980804, lon.=26.508305, Alt.=96.012756m. Speed=13.212000m/h.</desc>
<speed>3.670000</speed>
</trkpt>
<trkpt lat="55.980839" lon="26.508307">
<ele>96.094788</ele>
<time>2010-06-20T09:16:10Z</time>
<desc>lat.=55.980839, lon.=26.508307, Alt.=96.094788m. Speed=12.672000m/h.</desc>
<speed>3.520000</speed>
</trkpt>
<trkpt lat="55.980873" lon="26.508310">
<ele>96.294006</ele>
<time>2010-06-20T09:16:11Z</time>
<desc>lat.=55.980873, lon.=26.508310, Alt.=96.294006m. Speed=14.004000m/h.</desc>
<speed>3.890000</speed>
</trkpt>
<trkpt lat="55.980907" lon="26.508316">
<ele>96.178772</ele>
<time>2010-06-20T09:16:12Z</time>
<desc>lat.=55.980907, lon.=26.508316, Alt.=96.178772m. Speed=13.428000m/h.</desc>
<speed>3.730000</speed>
</trkpt>
<trkpt lat="55.980946" lon="26.508318">
<ele>96.715881</ele>
<time>2010-06-20T09:16:13Z</time>
<desc>lat.=55.980946, lon.=26.508318, Alt.=96.715881m. Speed=14.148000m/h.</desc>
<speed>3.930000</speed>
</trkpt>
<trkpt lat="55.980984" lon="26.508318">
<ele>96.684631</ele>
<time>2010-06-20T09:16:14Z</time>
<desc>lat.=55.980984, lon.=26.508318, Alt.=96.684631m. Speed=12.276000m/h.</desc>
<speed>3.410000</speed>
</trkpt>
<trkpt lat="55.981022" lon="26.508320">
<ele>94.938538</ele>
<time>2010-06-20T09:16:15Z</time>
<desc>lat.=55.981022, lon.=26.508320, Alt.=94.938538m. Speed=14.112000m/h.</desc>
<speed>3.920000</speed>
</trkpt>
<trkpt lat="55.981068" lon="26.508318">
<ele>93.415100</ele>
<time>2010-06-20T09:16:16Z</time>
<desc>lat.=55.981068, lon.=26.508318, Alt.=93.415100m. Speed=14.544000m/h.</desc>
<speed>4.040000</speed>
</trkpt>
<trkpt lat="55.981110" lon="26.508316">
<ele>93.600647</ele>
<time>2010-06-20T09:16:17Z</time>
<desc>lat.=55.981110, lon.=26.508316, Alt.=93.600647m. Speed=14.220000m/h.</desc>
<speed>3.950000</speed>
</trkpt>
<trkpt lat="55.981152" lon="26.508320">
<ele>91.618225</ele>
<time>2010-06-20T09:16:18Z</time>
<desc>lat.=55.981152, lon.=26.508320, Alt.=91.618225m. Speed=13.644000m/h.</desc>
<speed>3.790000</speed>
</trkpt>
<trkpt lat="55.981201" lon="26.508327">
<ele>91.381897</ele>
<time>2010-06-20T09:16:19Z</time>
<desc>lat.=55.981201, lon.=26.508327, Alt.=91.381897m. Speed=14.760000m/h.</desc>
<speed>4.100000</speed>
</trkpt>
<trkpt lat="55.981247" lon="26.508333">
<ele>90.899475</ele>
<time>2010-06-20T09:16:20Z</time>
<desc>lat.=55.981247, lon.=26.508333, Alt.=90.899475m. Speed=15.300000m/h.</desc>
<speed>4.250000</speed>
</trkpt>
<trkpt lat="55.981293" lon="26.508337">
<ele>91.159241</ele>
<time>2010-06-20T09:16:21Z</time>
<desc>lat.=55.981293, lon.=26.508337, Alt.=91.159241m. Speed=15.444000m/h.</desc>
<speed>4.290000</speed>
</trkpt>
<trkpt lat="55.981346" lon="26.508343">
<ele>90.354553</ele>
<time>2010-06-20T09:16:22Z</time>
<desc>lat.=55.981346, lon.=26.508343, Alt.=90.354553m. Speed=14.004000m/h.</desc>
<speed>3.890000</speed>
</trkpt>
<trkpt lat="55.981392" lon="26.508347">
<ele>90.471741</ele>
<time>2010-06-20T09:16:23Z</time>
<desc>lat.=55.981392, lon.=26.508347, Alt.=90.471741m. Speed=14.616000m/h.</desc>
<speed>4.060000</speed>
</trkpt>
<trkpt lat="55.981445" lon="26.508358">
<ele>91.417053</ele>
<time>2010-06-20T09:16:24Z</time>
<desc>lat.=55.981445, lon.=26.508358, Alt.=91.417053m. Speed=14.688000m/h.</desc>
<speed>4.080000</speed>
</trkpt>
<trkpt lat="55.981499" lon="26.508369">
<ele>91.626038</ele>
<time>2010-06-20T09:16:25Z</time>
<desc>lat.=55.981499, lon.=26.508369, Alt.=91.626038m. Speed=15.660000m/h.</desc>
<speed>4.350000</speed>
</trkpt>
<trkpt lat="55.981552" lon="26.508377">
<ele>91.643616</ele>
<time>2010-06-20T09:16:26Z</time>
<desc>lat.=55.981552, lon.=26.508377, Alt.=91.643616m. Speed=15.084000m/h.</desc>
<speed>4.190000</speed>
</trkpt>
<trkpt lat="55.981606" lon="26.508394">
<ele>92.379944</ele>
<time>2010-06-20T09:16:27Z</time>
<desc>lat.=55.981606, lon.=26.508394, Alt.=92.379944m. Speed=15.300000m/h.</desc>
<speed>4.250000</speed>
</trkpt>
<trkpt lat="55.981651" lon="26.508400">
<ele>91.801819</ele>
<time>2010-06-20T09:16:28Z</time>
<desc>lat.=55.981651, lon.=26.508400, Alt.=91.801819m. Speed=16.379999m/h.</desc>
<speed>4.550000</speed>
</trkpt>
<trkpt lat="55.981697" lon="26.508402">
<ele>92.112366</ele>
<time>2010-06-20T09:16:29Z</time>
<desc>lat.=55.981697, lon.=26.508402, Alt.=92.112366m. Speed=13.572000m/h.</desc>
<speed>3.770000</speed>
</trkpt>
<trkpt lat="55.981750" lon="26.508410">
<ele>92.731506</ele>
<time>2010-06-20T09:16:30Z</time>
<desc>lat.=55.981750, lon.=26.508410, Alt.=92.731506m. Speed=14.796000m/h.</desc>
<speed>4.110000</speed>
</trkpt>
<trkpt lat="55.981800" lon="26.508413">
<ele>92.866272</ele>
<time>2010-06-20T09:16:31Z</time>
<desc>lat.=55.981800, lon.=26.508413, Alt.=92.866272m. Speed=16.200001m/h.</desc>
<speed>4.500000</speed>
</trkpt>
<trkpt lat="55.981846" lon="26.508415">
<ele>93.014709</ele>
<time>2010-06-20T09:16:32Z</time>
<desc>lat.=55.981846, lon.=26.508415, Alt.=93.014709m. Speed=16.452000m/h.</desc>
<speed>4.570000</speed>
</trkpt>
<trkpt lat="55.981888" lon="26.508419">
<ele>93.299866</ele>
<time>2010-06-20T09:16:33Z</time>
<desc>lat.=55.981888, lon.=26.508419, Alt.=93.299866m. Speed=14.652000m/h.</desc>
<speed>4.070000</speed>
</trkpt>
<trkpt lat="55.981922" lon="26.508419">
<ele>93.200256</ele>
<time>2010-06-20T09:16:34Z</time>
<desc>lat.=55.981922, lon.=26.508419, Alt.=93.200256m. Speed=14.220000m/h.</desc>
<speed>3.950000</speed>
</trkpt>
<trkpt lat="55.981960" lon="26.508417">
<ele>93.329163</ele>
<time>2010-06-20T09:16:35Z</time>
<desc>lat.=55.981960, lon.=26.508417, Alt.=93.329163m. Speed=13.608000m/h.</desc>
<speed>3.780000</speed>
</trkpt>
<trkpt lat="55.982002" lon="26.508417">
<ele>93.567444</ele>
<time>2010-06-20T09:16:36Z</time>
<desc>lat.=55.982002, lon.=26.508417, Alt.=93.567444m. Speed=14.328000m/h.</desc>
<speed>3.980000</speed>
</trkpt>
<trkpt lat="55.982048" lon="26.508423">
<ele>94.319397</ele>
<time>2010-06-20T09:16:37Z</time>
<desc>lat.=55.982048, lon.=26.508423, Alt.=94.319397m. Speed=24.948000m/h.</desc>
<speed>6.930000</speed>
</trkpt>
<trkpt lat="55.982101" lon="26.508436">
<ele>94.700256</ele>
<time>2010-06-20T09:16:38Z</time>
<desc>lat.=55.982101, lon.=26.508436, Alt.=94.700256m. Speed=15.192000m/h.</desc>
<speed>4.220000</speed>
</trkpt>
<trkpt lat="55.982136" lon="26.508434">
<ele>94.762756</ele>
<time>2010-06-20T09:16:39Z</time>
<desc>lat.=55.982136, lon.=26.508434, Alt.=94.762756m. Speed=15.084000m/h.</desc>
<speed>4.190000</speed>
</trkpt>
<trkpt lat="55.982170" lon="26.508430">
<ele>94.795959</ele>
<time>2010-06-20T09:16:40Z</time>
<desc>lat.=55.982170, lon.=26.508430, Alt.=94.795959m. Speed=14.472000m/h.</desc>
<speed>4.020000</speed>
</trkpt>
<trkpt lat="55.982201" lon="26.508425">
<ele>94.631897</ele>
<time>2010-06-20T09:16:41Z</time>
<desc>lat.=55.982201, lon.=26.508425, Alt.=94.631897m. Speed=13.248000m/h.</desc>
<speed>3.680000</speed>
</trkpt>
<trkpt lat="55.982224" lon="26.508413">
<ele>94.042053</ele>
<time>2010-06-20T09:16:42Z</time>
<desc>lat.=55.982224, lon.=26.508413, Alt.=94.042053m. Speed=12.636000m/h.</desc>
<speed>3.510000</speed>
</trkpt>
<trkpt lat="55.982258" lon="26.508408">
<ele>93.942444</ele>
<time>2010-06-20T09:16:43Z</time>
<desc>lat.=55.982258, lon.=26.508408, Alt.=93.942444m. Speed=13.860000m/h.</desc>
<speed>3.850000</speed>
</trkpt>
<trkpt lat="55.982304" lon="26.508404">
<ele>93.618225</ele>
<time>2010-06-20T09:16:44Z</time>
<desc>lat.=55.982304, lon.=26.508404, Alt.=93.618225m. Speed=15.084000m/h.</desc>
<speed>4.190000</speed>
</trkpt>
<trkpt lat="55.982342" lon="26.508396">
<ele>93.307678</ele>
<time>2010-06-20T09:16:45Z</time>
<desc>lat.=55.982342, lon.=26.508396, Alt.=93.307678m. Speed=14.292000m/h.</desc>
<speed>3.970000</speed>
</trkpt>
<trkpt lat="55.982380" lon="26.508392">
<ele>93.149475</ele>
<time>2010-06-20T09:16:46Z</time>
<desc>lat.=55.982380, lon.=26.508392, Alt.=93.149475m. Speed=14.904000m/h.</desc>
<speed>4.140000</speed>
</trkpt>
<trkpt lat="55.982422" lon="26.508385">
<ele>92.872131</ele>
<time>2010-06-20T09:16:47Z</time>
<desc>lat.=55.982422, lon.=26.508385, Alt.=92.872131m. Speed=14.544000m/h.</desc>
<speed>4.040000</speed>
</trkpt>
<trkpt lat="55.982456" lon="26.508375">
<ele>92.579163</ele>
<time>2010-06-20T09:16:48Z</time>
<desc>lat.=55.982456, lon.=26.508375, Alt.=92.579163m. Speed=13.896000m/h.</desc>
<speed>3.860000</speed>
</trkpt>
<trkpt lat="55.982494" lon="26.508366">
<ele>92.651428</ele>
<time>2010-06-20T09:16:49Z</time>
<desc>lat.=55.982494, lon.=26.508366, Alt.=92.651428m. Speed=14.832000m/h.</desc>
<speed>4.120000</speed>
</trkpt>
<trkpt lat="55.982529" lon="26.508358">
<ele>93.059631</ele>
<time>2010-06-20T09:16:50Z</time>
<desc>lat.=55.982529, lon.=26.508358, Alt.=93.059631m. Speed=13.680000m/h.</desc>
<speed>3.800000</speed>
</trkpt>
<trkpt lat="55.982555" lon="26.508354">
<ele>93.627991</ele>
<time>2010-06-20T09:16:51Z</time>
<desc>lat.=55.982555, lon.=26.508354, Alt.=93.627991m. Speed=12.888000m/h.</desc>
<speed>3.580000</speed>
</trkpt>
<trkpt lat="55.982594" lon="26.508343">
<ele>93.192444</ele>
<time>2010-06-20T09:16:52Z</time>
<desc>lat.=55.982594, lon.=26.508343, Alt.=93.192444m. Speed=13.068000m/h.</desc>
<speed>3.630000</speed>
</trkpt>
<trkpt lat="55.982624" lon="26.508337">
<ele>93.768616</ele>
<time>2010-06-20T09:16:53Z</time>
<desc>lat.=55.982624, lon.=26.508337, Alt.=93.768616m. Speed=12.636000m/h.</desc>
<speed>3.510000</speed>
</trkpt>
<trkpt lat="55.982655" lon="26.508327">
<ele>93.659241</ele>
<time>2010-06-20T09:16:54Z</time>
<desc>lat.=55.982655, lon.=26.508327, Alt.=93.659241m. Speed=13.212000m/h.</desc>
<speed>3.670000</speed>
</trkpt>
<trkpt lat="55.982693" lon="26.508318">
<ele>93.001038</ele>
<time>2010-06-20T09:16:55Z</time>
<desc>lat.=55.982693, lon.=26.508318, Alt.=93.001038m. Speed=13.572000m/h.</desc>
<speed>3.770000</speed>
</trkpt>
<trkpt lat="55.982735" lon="26.508310">
<ele>92.504944</ele>
<time>2010-06-20T09:16:56Z</time>
<desc>lat.=55.982735, lon.=26.508310, Alt.=92.504944m. Speed=14.616000m/h.</desc>
<speed>4.060000</speed>
</trkpt>
<trkpt lat="55.982780" lon="26.508297">
<ele>91.704163</ele>
<time>2010-06-20T09:16:57Z</time>
<desc>lat.=55.982780, lon.=26.508297, Alt.=91.704163m. Speed=15.228000m/h.</desc>
<speed>4.230000</speed>
</trkpt>
<trkpt lat="55.982819" lon="26.508289">
<ele>91.485413</ele>
<time>2010-06-20T09:16:58Z</time>
<desc>lat.=55.982819, lon.=26.508289, Alt.=91.485413m. Speed=14.580000m/h.</desc>
<speed>4.050000</speed>
</trkpt>
<trkpt lat="55.982853" lon="26.508282">
<ele>91.715881</ele>
<time>2010-06-20T09:16:59Z</time>
<desc>lat.=55.982853, lon.=26.508282, Alt.=91.715881m. Speed=13.320000m/h.</desc>
<speed>3.700000</speed>
</trkpt>
<trkpt lat="55.982887" lon="26.508278">
<ele>91.358459</ele>
<time>2010-06-20T09:17:00Z</time>
<desc>lat.=55.982887, lon.=26.508278, Alt.=91.358459m. Speed=12.636000m/h.</desc>
<speed>3.510000</speed>
</trkpt>
<trkpt lat="55.982922" lon="26.508270">
<ele>91.032288</ele>
<time>2010-06-20T09:17:01Z</time>
<desc>lat.=55.982922, lon.=26.508270, Alt.=91.032288m. Speed=12.564000m/h.</desc>
<speed>3.490000</speed>
</trkpt>
<trkpt lat="55.982952" lon="26.508261">
<ele>90.999084</ele>
<time>2010-06-20T09:17:02Z</time>
<desc>lat.=55.982952, lon.=26.508261, Alt.=90.999084m. Speed=13.248000m/h.</desc>
<speed>3.680000</speed>
</trkpt>
<trkpt lat="55.982983" lon="26.508251">
<ele>91.342834</ele>
<time>2010-06-20T09:17:03Z</time>
<desc>lat.=55.982983, lon.=26.508251, Alt.=91.342834m. Speed=13.140000m/h.</desc>
<speed>3.650000</speed>
</trkpt>
<trkpt lat="55.983017" lon="26.508247">
<ele>91.381897</ele>
<time>2010-06-20T09:17:04Z</time>
<desc>lat.=55.983017, lon.=26.508247, Alt.=91.381897m. Speed=12.528000m/h.</desc>
<speed>3.480000</speed>
</trkpt>
<trkpt lat="55.983051" lon="26.508242">
<ele>91.657288</ele>
<time>2010-06-20T09:17:05Z</time>
<desc>lat.=55.983051, lon.=26.508242, Alt.=91.657288m. Speed=12.528000m/h.</desc>
<speed>3.480000</speed>
</trkpt>
<trkpt lat="55.983082" lon="26.508234">
<ele>91.708069</ele>
<time>2010-06-20T09:17:06Z</time>
<desc>lat.=55.983082, lon.=26.508234, Alt.=91.708069m. Speed=12.240000m/h.</desc>
<speed>3.400000</speed>
</trkpt>
<trkpt lat="55.983116" lon="26.508221">
<ele>91.350647</ele>
<time>2010-06-20T09:17:07Z</time>
<desc>lat.=55.983116, lon.=26.508221, Alt.=91.350647m. Speed=12.168000m/h.</desc>
<speed>3.380000</speed>
</trkpt>
<trkpt lat="55.983150" lon="26.508215">
<ele>90.891663</ele>
<time>2010-06-20T09:17:08Z</time>
<desc>lat.=55.983150, lon.=26.508215, Alt.=90.891663m. Speed=12.348000m/h.</desc>
<speed>3.430000</speed>
</trkpt>
<trkpt lat="55.983185" lon="26.508204">
<ele>90.542053</ele>
<time>2010-06-20T09:17:09Z</time>
<desc>lat.=55.983185, lon.=26.508204, Alt.=90.542053m. Speed=11.700000m/h.</desc>
<speed>3.250000</speed>
</trkpt>
<trkpt lat="55.983223" lon="26.508202">
<ele>88.749084</ele>
<time>2010-06-20T09:17:10Z</time>
<desc>lat.=55.983223, lon.=26.508202, Alt.=88.749084m. Speed=10.044000m/h.</desc>
<speed>2.790000</speed>
</trkpt>
<trkpt lat="55.983250" lon="26.508196">
<ele>88.885803</ele>
<time>2010-06-20T09:17:11Z</time>
<desc>lat.=55.983250, lon.=26.508196, Alt.=88.885803m. Speed=10.872000m/h.</desc>
<speed>3.020000</speed>
</trkpt>
<trkpt lat="55.983284" lon="26.508188">
<ele>88.928772</ele>
<time>2010-06-20T09:17:12Z</time>
<desc>lat.=55.983284, lon.=26.508188, Alt.=88.928772m. Speed=12.312000m/h.</desc>
<speed>3.420000</speed>
</trkpt>
<trkpt lat="55.983315" lon="26.508175">
<ele>88.874084</ele>
<time>2010-06-20T09:17:13Z</time>
<desc>lat.=55.983315, lon.=26.508175, Alt.=88.874084m. Speed=14.076000m/h.</desc>
<speed>3.910000</speed>
</trkpt>
<trkpt lat="55.983349" lon="26.508163">
<ele>88.563538</ele>
<time>2010-06-20T09:17:14Z</time>
<desc>lat.=55.983349, lon.=26.508163, Alt.=88.563538m. Speed=13.896000m/h.</desc>
<speed>3.860000</speed>
</trkpt>
<trkpt lat="55.983379" lon="26.508158">
<ele>88.448303</ele>
<time>2010-06-20T09:17:15Z</time>
<desc>lat.=55.983379, lon.=26.508158, Alt.=88.448303m. Speed=13.572000m/h.</desc>
<speed>3.770000</speed>
</trkpt>
<trkpt lat="55.983418" lon="26.508144">
<ele>88.235413</ele>
<time>2010-06-20T09:17:16Z</time>
<desc>lat.=55.983418, lon.=26.508144, Alt.=88.235413m. Speed=11.592000m/h.</desc>
<speed>3.220000</speed>
</trkpt>
<trkpt lat="55.983448" lon="26.508135">
<ele>88.563538</ele>
<time>2010-06-20T09:17:17Z</time>
<desc>lat.=55.983448, lon.=26.508135, Alt.=88.563538m. Speed=12.924000m/h.</desc>
<speed>3.590000</speed>
</trkpt>
<trkpt lat="55.983479" lon="26.508120">
<ele>88.436584</ele>
<time>2010-06-20T09:17:18Z</time>
<desc>lat.=55.983479, lon.=26.508120, Alt.=88.436584m. Speed=11.916000m/h.</desc>
<speed>3.310000</speed>
</trkpt>
<trkpt lat="55.983509" lon="26.508104">
<ele>88.747131</ele>
<time>2010-06-20T09:17:19Z</time>
<desc>lat.=55.983509, lon.=26.508104, Alt.=88.747131m. Speed=11.916000m/h.</desc>
<speed>3.310000</speed>
</trkpt>
<trkpt lat="55.983543" lon="26.508087">
<ele>88.489319</ele>
<time>2010-06-20T09:17:20Z</time>
<desc>lat.=55.983543, lon.=26.508087, Alt.=88.489319m. Speed=12.204000m/h.</desc>
<speed>3.390000</speed>
</trkpt>
<trkpt lat="55.983570" lon="26.508066">
<ele>88.514709</ele>
<time>2010-06-20T09:17:21Z</time>
<desc>lat.=55.983570, lon.=26.508066, Alt.=88.514709m. Speed=11.088000m/h.</desc>
<speed>3.080000</speed>
</trkpt>
<trkpt lat="55.983601" lon="26.508047">
<ele>88.053772</ele>
<time>2010-06-20T09:17:22Z</time>
<desc>lat.=55.983601, lon.=26.508047, Alt.=88.053772m. Speed=10.764000m/h.</desc>
<speed>2.990000</speed>
</trkpt>
<trkpt lat="55.983627" lon="26.508034">
<ele>87.213928</ele>
<time>2010-06-20T09:17:23Z</time>
<desc>lat.=55.983627, lon.=26.508034, Alt.=87.213928m. Speed=8.100000m/h.</desc>
<speed>2.250000</speed>
</trkpt>
<trkpt lat="55.983646" lon="26.508020">
<ele>86.868225</ele>
<time>2010-06-20T09:17:24Z</time>
<desc>lat.=55.983646, lon.=26.508020, Alt.=86.868225m. Speed=6.732000m/h.</desc>
<speed>1.870000</speed>
</trkpt>
<trkpt lat="55.983662" lon="26.508003">
<ele>86.866272</ele>
<time>2010-06-20T09:17:25Z</time>
<desc>lat.=55.983662, lon.=26.508003, Alt.=86.866272m. Speed=7.668000m/h.</desc>
<speed>2.130000</speed>
</trkpt>
<trkpt lat="55.983669" lon="26.507977">
<ele>87.094788</ele>
<time>2010-06-20T09:17:26Z</time>
<desc>lat.=55.983669, lon.=26.507977, Alt.=87.094788m. Speed=4.428000m/h.</desc>
<speed>1.230000</speed>
</trkpt>
<trkpt lat="55.983681" lon="26.507954">
<ele>87.126038</ele>
<time>2010-06-20T09:17:27Z</time>
<desc>lat.=55.983681, lon.=26.507954, Alt.=87.126038m. Speed=5.688000m/h.</desc>
<speed>1.580000</speed>
</trkpt>
<trkpt lat="55.983688" lon="26.507940">
<ele>87.575256</ele>
<time>2010-06-20T09:17:28Z</time>
<desc>lat.=55.983688, lon.=26.507940, Alt.=87.575256m. Speed=4.032000m/h.</desc>
<speed>1.120000</speed>
</trkpt>
<trkpt lat="55.983696" lon="26.507925">
<ele>87.725647</ele>
<time>2010-06-20T09:17:29Z</time>
<desc>lat.=55.983696, lon.=26.507925, Alt.=87.725647m. Speed=3.960000m/h.</desc>
<speed>1.100000</speed>
</trkpt>
<trkpt lat="55.983723" lon="26.507870">
<ele>88.399475</ele>
<time>2010-06-20T09:17:30Z</time>
<desc>lat.=55.983723, lon.=26.507870, Alt.=88.399475m. Speed=6.372000m/h.</desc>
<speed>1.770000</speed>
</trkpt>
<trkpt lat="55.983746" lon="26.507847">
<ele>88.051819</ele>
<time>2010-06-20T09:17:31Z</time>
<desc>lat.=55.983746, lon.=26.507847, Alt.=88.051819m. Speed=6.300000m/h.</desc>
<speed>1.750000</speed>
</trkpt>
<trkpt lat="55.983753" lon="26.507826">
<ele>88.098694</ele>
<time>2010-06-20T09:17:32Z</time>
<desc>lat.=55.983753, lon.=26.507826, Alt.=88.098694m. Speed=5.436000m/h.</desc>
<speed>1.510000</speed>
</trkpt>
<trkpt lat="55.983765" lon="26.507805">
<ele>88.272522</ele>
<time>2010-06-20T09:17:33Z</time>
<desc>lat.=55.983765, lon.=26.507805, Alt.=88.272522m. Speed=4.212000m/h.</desc>
<speed>1.170000</speed>
</trkpt>
<trkpt lat="55.983768" lon="26.507790">
<ele>88.563538</ele>
<time>2010-06-20T09:17:34Z</time>
<desc>lat.=55.983768, lon.=26.507790, Alt.=88.563538m. Speed=3.456000m/h.</desc>
<speed>0.960000</speed>
</trkpt>
<trkpt lat="55.983791" lon="26.507771">
<ele>88.719788</ele>
<time>2010-06-20T09:17:35Z</time>
<desc>lat.=55.983791, lon.=26.507771, Alt.=88.719788m. Speed=5.616000m/h.</desc>
<speed>1.560000</speed>
</trkpt>
<trkpt lat="55.983799" lon="26.507746">
<ele>89.088928</ele>
<time>2010-06-20T09:17:36Z</time>
<desc>lat.=55.983799, lon.=26.507746, Alt.=89.088928m. Speed=4.464000m/h.</desc>
<speed>1.240000</speed>
</trkpt>
<trkpt lat="55.983795" lon="26.507698">
<ele>88.639709</ele>
<time>2010-06-20T09:17:37Z</time>
<desc>lat.=55.983795, lon.=26.507698, Alt.=88.639709m. Speed=5.580000m/h.</desc>
<speed>1.550000</speed>
</trkpt>
<trkpt lat="55.983799" lon="26.507652">
<ele>88.544006</ele>
<time>2010-06-20T09:17:38Z</time>
<desc>lat.=55.983799, lon.=26.507652, Alt.=88.544006m. Speed=8.352000m/h.</desc>
<speed>2.320000</speed>
</trkpt>
<trkpt lat="55.983803" lon="26.507624">
<ele>88.534241</ele>
<time>2010-06-20T09:17:39Z</time>
<desc>lat.=55.983803, lon.=26.507624, Alt.=88.534241m. Speed=4.932000m/h.</desc>
<speed>1.370000</speed>
</trkpt>
<trkpt lat="55.983807" lon="26.507603">
<ele>88.553772</ele>
<time>2010-06-20T09:17:40Z</time>
<desc>lat.=55.983807, lon.=26.507603, Alt.=88.553772m. Speed=3.384000m/h.</desc>
<speed>0.940000</speed>
</trkpt>
<trkpt lat="55.983803" lon="26.507591">
<ele>88.626038</ele>
<time>2010-06-20T09:17:41Z</time>
<desc>lat.=55.983803, lon.=26.507591, Alt.=88.626038m. Speed=1.008000m/h.</desc>
<speed>0.280000</speed>
</trkpt>
<trkpt lat="55.983807" lon="26.507574">
<ele>88.958069</ele>
<time>2010-06-20T09:17:42Z</time>
<desc>lat.=55.983807, lon.=26.507574, Alt.=88.958069m. Speed=2.772000m/h.</desc>
<speed>0.770000</speed>
</trkpt>
<trkpt lat="55.983814" lon="26.507547">
<ele>89.239319</ele>
<time>2010-06-20T09:17:43Z</time>
<desc>lat.=55.983814, lon.=26.507547, Alt.=89.239319m. Speed=3.780000m/h.</desc>
<speed>1.050000</speed>
</trkpt>
<trkpt lat="55.983826" lon="26.507523">
<ele>89.081116</ele>
<time>2010-06-20T09:17:44Z</time>
<desc>lat.=55.983826, lon.=26.507523, Alt.=89.081116m. Speed=4.284000m/h.</desc>
<speed>1.190000</speed>
</trkpt>
<trkpt lat="55.983841" lon="26.507500">
<ele>88.991272</ele>
<time>2010-06-20T09:17:45Z</time>
<desc>lat.=55.983841, lon.=26.507500, Alt.=88.991272m. Speed=5.328000m/h.</desc>
<speed>1.480000</speed>
</trkpt>
<trkpt lat="55.983871" lon="26.507473">
<ele>88.805725</ele>
<time>2010-06-20T09:17:46Z</time>
<desc>lat.=55.983871, lon.=26.507473, Alt.=88.805725m. Speed=9.432000m/h.</desc>
<speed>2.620000</speed>
</trkpt>
<trkpt lat="55.983898" lon="26.507448">
<ele>89.016663</ele>
<time>2010-06-20T09:17:47Z</time>
<desc>lat.=55.983898, lon.=26.507448, Alt.=89.016663m. Speed=7.740000m/h.</desc>
<speed>2.150000</speed>
</trkpt>
<trkpt lat="55.983913" lon="26.507427">
<ele>89.116272</ele>
<time>2010-06-20T09:17:48Z</time>
<desc>lat.=55.983913, lon.=26.507427, Alt.=89.116272m. Speed=5.580000m/h.</desc>
<speed>1.550000</speed>
</trkpt>
<trkpt lat="55.983929" lon="26.507401">
<ele>88.868225</ele>
<time>2010-06-20T09:17:49Z</time>
<desc>lat.=55.983929, lon.=26.507401, Alt.=88.868225m. Speed=7.200000m/h.</desc>
<speed>2.000000</speed>
</trkpt>
<trkpt lat="55.983944" lon="26.507381">
<ele>88.854553</ele>
<time>2010-06-20T09:17:50Z</time>
<desc>lat.=55.983944, lon.=26.507381, Alt.=88.854553m. Speed=4.464000m/h.</desc>
<speed>1.240000</speed>
</trkpt>
<trkpt lat="55.983955" lon="26.507360">
<ele>88.915100</ele>
<time>2010-06-20T09:17:51Z</time>
<desc>lat.=55.983955, lon.=26.507360, Alt.=88.915100m. Speed=4.356000m/h.</desc>
<speed>1.210000</speed>
</trkpt>
<trkpt lat="55.983963" lon="26.507330">
<ele>89.329163</ele>
<time>2010-06-20T09:17:52Z</time>
<desc>lat.=55.983963, lon.=26.507330, Alt.=89.329163m. Speed=4.428000m/h.</desc>
<speed>1.230000</speed>
</trkpt>
<trkpt lat="55.983982" lon="26.507299">
<ele>89.620178</ele>
<time>2010-06-20T09:17:53Z</time>
<desc>lat.=55.983982, lon.=26.507299, Alt.=89.620178m. Speed=4.356000m/h.</desc>
<speed>1.210000</speed>
</trkpt>
<trkpt lat="55.983994" lon="26.507282">
<ele>89.639709</ele>
<time>2010-06-20T09:17:54Z</time>
<desc>lat.=55.983994, lon.=26.507282, Alt.=89.639709m. Speed=3.060000m/h.</desc>
<speed>0.850000</speed>
</trkpt>
<trkpt lat="55.983997" lon="26.507263">
<ele>89.639709</ele>
<time>2010-06-20T09:17:55Z</time>
<desc>lat.=55.983997, lon.=26.507263, Alt.=89.639709m. Speed=1.908000m/h.</desc>
<speed>0.530000</speed>
</trkpt>
<trkpt lat="55.984001" lon="26.507240">
<ele>89.954163</ele>
<time>2010-06-20T09:17:56Z</time>
<desc>lat.=55.984001, lon.=26.507240, Alt.=89.954163m. Speed=3.348000m/h.</desc>
<speed>0.930000</speed>
</trkpt>
<trkpt lat="55.984005" lon="26.507208">
<ele>90.458069</ele>
<time>2010-06-20T09:17:57Z</time>
<desc>lat.=55.984005, lon.=26.507208, Alt.=90.458069m. Speed=3.708000m/h.</desc>
<speed>1.030000</speed>
</trkpt>
<trkpt lat="55.984020" lon="26.507174">
<ele>90.754944</ele>
<time>2010-06-20T09:17:58Z</time>
<desc>lat.=55.984020, lon.=26.507174, Alt.=90.754944m. Speed=3.456000m/h.</desc>
<speed>0.960000</speed>
</trkpt>
<trkpt lat="55.984032" lon="26.507147">
<ele>90.932678</ele>
<time>2010-06-20T09:17:59Z</time>
<desc>lat.=55.984032, lon.=26.507147, Alt.=90.932678m. Speed=4.140000m/h.</desc>
<speed>1.150000</speed>
</trkpt>
<trkpt lat="55.984039" lon="26.507120">
<ele>90.852600</ele>
<time>2010-06-20T09:18:00Z</time>
<desc>lat.=55.984039, lon.=26.507120, Alt.=90.852600m. Speed=2.520000m/h.</desc>
<speed>0.700000</speed>
</trkpt>
<trkpt lat="55.984043" lon="26.507090">
<ele>91.176819</ele>
<time>2010-06-20T09:18:01Z</time>
<desc>lat.=55.984043, lon.=26.507090, Alt.=91.176819m. Speed=2.196000m/h.</desc>
<speed>0.610000</speed>
</trkpt>
<trkpt lat="55.984055" lon="26.507067">
<ele>91.469788</ele>
<time>2010-06-20T09:18:02Z</time>
<desc>lat.=55.984055, lon.=26.507067, Alt.=91.469788m. Speed=2.304000m/h.</desc>
<speed>0.640000</speed>
</trkpt>
<trkpt lat="55.984062" lon="26.507042">
<ele>91.741272</ele>
<time>2010-06-20T09:18:03Z</time>
<desc>lat.=55.984062, lon.=26.507042, Alt.=91.741272m. Speed=2.772000m/h.</desc>
<speed>0.770000</speed>
</trkpt>
<trkpt lat="55.984066" lon="26.507030">
<ele>91.475647</ele>
<time>2010-06-20T09:18:04Z</time>
<desc>lat.=55.984066, lon.=26.507030, Alt.=91.475647m. Speed=3.348000m/h.</desc>
<speed>0.930000</speed>
</trkpt>
<trkpt lat="55.984066" lon="26.507015">
<ele>91.200256</ele>
<time>2010-06-20T09:18:05Z</time>
<desc>lat.=55.984066, lon.=26.507015, Alt.=91.200256m. Speed=3.852000m/h.</desc>
<speed>1.070000</speed>
</trkpt>
<trkpt lat="55.984089" lon="26.506956">
<ele>91.153381</ele>
<time>2010-06-20T09:18:06Z</time>
<desc>lat.=55.984089, lon.=26.506956, Alt.=91.153381m. Speed=6.300000m/h.</desc>
<speed>1.750000</speed>
</trkpt>
<trkpt lat="55.984119" lon="26.506910">
<ele>91.313538</ele>
<time>2010-06-20T09:18:07Z</time>
<desc>lat.=55.984119, lon.=26.506910, Alt.=91.313538m. Speed=4.284000m/h.</desc>
<speed>1.190000</speed>
</trkpt>
<trkpt lat="55.984150" lon="26.506884">
<ele>91.409241</ele>
<time>2010-06-20T09:18:08Z</time>
<desc>lat.=55.984150, lon.=26.506884, Alt.=91.409241m. Speed=6.156000m/h.</desc>
<speed>1.710000</speed>
</trkpt>
<trkpt lat="55.984203" lon="26.506849">
<ele>91.508850</ele>
<time>2010-06-20T09:18:09Z</time>
<desc>lat.=55.984203, lon.=26.506849, Alt.=91.508850m. Speed=6.012000m/h.</desc>
<speed>1.670000</speed>
</trkpt>
<trkpt lat="55.984230" lon="26.506809">
<ele>91.432678</ele>
<time>2010-06-20T09:18:10Z</time>
<desc>lat.=55.984230, lon.=26.506809, Alt.=91.432678m. Speed=7.776000m/h.</desc>
<speed>2.160000</speed>
</trkpt>
<trkpt lat="55.984264" lon="26.506775">
<ele>91.680725</ele>
<time>2010-06-20T09:18:11Z</time>
<desc>lat.=55.984264, lon.=26.506775, Alt.=91.680725m. Speed=8.640000m/h.</desc>
<speed>2.400000</speed>
</trkpt>
<trkpt lat="55.984291" lon="26.506725">
<ele>91.790100</ele>
<time>2010-06-20T09:18:12Z</time>
<desc>lat.=55.984291, lon.=26.506725, Alt.=91.790100m. Speed=5.976000m/h.</desc>
<speed>1.660000</speed>
</trkpt>
<trkpt lat="55.984322" lon="26.506691">
<ele>92.092834</ele>
<time>2010-06-20T09:18:13Z</time>
<desc>lat.=55.984322, lon.=26.506691, Alt.=92.092834m. Speed=8.136000m/h.</desc>
<speed>2.260000</speed>
</trkpt>
<trkpt lat="55.984356" lon="26.506657">
<ele>92.399475</ele>
<time>2010-06-20T09:18:14Z</time>
<desc>lat.=55.984356, lon.=26.506657, Alt.=92.399475m. Speed=9.108000m/h.</desc>
<speed>2.530000</speed>
</trkpt>
<trkpt lat="55.984390" lon="26.506615">
<ele>92.756897</ele>
<time>2010-06-20T09:18:15Z</time>
<desc>lat.=55.984390, lon.=26.506615, Alt.=92.756897m. Speed=8.784000m/h.</desc>
<speed>2.440000</speed>
</trkpt>
<trkpt lat="55.984421" lon="26.506577">
<ele>93.014709</ele>
<time>2010-06-20T09:18:16Z</time>
<desc>lat.=55.984421, lon.=26.506577, Alt.=93.014709m. Speed=8.892000m/h.</desc>
<speed>2.470000</speed>
</trkpt>
<trkpt lat="55.984459" lon="26.506546">
<ele>93.495178</ele>
<time>2010-06-20T09:18:17Z</time>
<desc>lat.=55.984459, lon.=26.506546, Alt.=93.495178m. Speed=11.232000m/h.</desc>
<speed>3.120000</speed>
</trkpt>
<trkpt lat="55.984486" lon="26.506531">
<ele>93.598694</ele>
<time>2010-06-20T09:18:18Z</time>
<desc>lat.=55.984486, lon.=26.506531, Alt.=93.598694m. Speed=6.984000m/h.</desc>
<speed>1.940000</speed>
</trkpt>
<trkpt lat="55.984524" lon="26.506487">
<ele>93.198303</ele>
<time>2010-06-20T09:18:19Z</time>
<desc>lat.=55.984524, lon.=26.506487, Alt.=93.198303m. Speed=6.372000m/h.</desc>
<speed>1.770000</speed>
</trkpt>
<trkpt lat="55.984547" lon="26.506460">
<ele>92.895569</ele>
<time>2010-06-20T09:18:20Z</time>
<desc>lat.=55.984547, lon.=26.506460, Alt.=92.895569m. Speed=6.372000m/h.</desc>
<speed>1.770000</speed>
</trkpt>
<trkpt lat="55.984577" lon="26.506428">
<ele>92.973694</ele>
<time>2010-06-20T09:18:21Z</time>
<desc>lat.=55.984577, lon.=26.506428, Alt.=92.973694m. Speed=7.164000m/h.</desc>
<speed>1.990000</speed>
</trkpt>
<trkpt lat="55.984604" lon="26.506401">
<ele>92.883850</ele>
<time>2010-06-20T09:18:22Z</time>
<desc>lat.=55.984604, lon.=26.506401, Alt.=92.883850m. Speed=5.976000m/h.</desc>
<speed>1.660000</speed>
</trkpt>
<trkpt lat="55.984627" lon="26.506363">
<ele>92.723694</ele>
<time>2010-06-20T09:18:23Z</time>
<desc>lat.=55.984627, lon.=26.506363, Alt.=92.723694m. Speed=9.072000m/h.</desc>
<speed>2.520000</speed>
</trkpt>
<trkpt lat="55.984653" lon="26.506325">
<ele>92.690491</ele>
<time>2010-06-20T09:18:24Z</time>
<desc>lat.=55.984653, lon.=26.506325, Alt.=92.690491m. Speed=11.196000m/h.</desc>
<speed>3.110000</speed>
</trkpt>
<trkpt lat="55.984684" lon="26.506283">
<ele>92.491272</ele>
<time>2010-06-20T09:18:25Z</time>
<desc>lat.=55.984684, lon.=26.506283, Alt.=92.491272m. Speed=12.924000m/h.</desc>
<speed>3.590000</speed>
</trkpt>
<trkpt lat="55.984722" lon="26.506243">
<ele>92.426819</ele>
<time>2010-06-20T09:18:26Z</time>
<desc>lat.=55.984722, lon.=26.506243, Alt.=92.426819m. Speed=10.548000m/h.</desc>
<speed>2.930000</speed>
</trkpt>
<trkpt lat="55.984764" lon="26.506214">
<ele>92.258850</ele>
<time>2010-06-20T09:18:27Z</time>
<desc>lat.=55.984764, lon.=26.506214, Alt.=92.258850m. Speed=10.152000m/h.</desc>
<speed>2.820000</speed>
</trkpt>
<trkpt lat="55.984818" lon="26.506180">
<ele>92.202209</ele>
<time>2010-06-20T09:18:28Z</time>
<desc>lat.=55.984818, lon.=26.506180, Alt.=92.202209m. Speed=11.196000m/h.</desc>
<speed>3.110000</speed>
</trkpt>
<trkpt lat="55.984863" lon="26.506151">
<ele>91.934631</ele>
<time>2010-06-20T09:18:29Z</time>
<desc>lat.=55.984863, lon.=26.506151, Alt.=91.934631m. Speed=11.196000m/h.</desc>
<speed>3.110000</speed>
</trkpt>
<trkpt lat="55.984886" lon="26.506115">
<ele>91.920959</ele>
<time>2010-06-20T09:18:30Z</time>
<desc>lat.=55.984886, lon.=26.506115, Alt.=91.920959m. Speed=6.768000m/h.</desc>
<speed>1.880000</speed>
</trkpt>
<trkpt lat="55.984917" lon="26.506081">
<ele>91.626038</ele>
<time>2010-06-20T09:18:31Z</time>
<desc>lat.=55.984917, lon.=26.506081, Alt.=91.626038m. Speed=5.868000m/h.</desc>
<speed>1.630000</speed>
</trkpt>
<trkpt lat="55.984940" lon="26.506044">
<ele>91.370178</ele>
<time>2010-06-20T09:18:32Z</time>
<desc>lat.=55.984940, lon.=26.506044, Alt.=91.370178m. Speed=5.940000m/h.</desc>
<speed>1.650000</speed>
</trkpt>
<trkpt lat="55.984985" lon="26.506002">
<ele>90.766663</ele>
<time>2010-06-20T09:18:33Z</time>
<desc>lat.=55.984985, lon.=26.506002, Alt.=90.766663m. Speed=6.192000m/h.</desc>
<speed>1.720000</speed>
</trkpt>
<trkpt lat="55.985016" lon="26.505957">
<ele>90.432678</ele>
<time>2010-06-20T09:18:34Z</time>
<desc>lat.=55.985016, lon.=26.505957, Alt.=90.432678m. Speed=6.696000m/h.</desc>
<speed>1.860000</speed>
</trkpt>
<trkpt lat="55.985050" lon="26.505915">
<ele>90.581116</ele>
<time>2010-06-20T09:18:35Z</time>
<desc>lat.=55.985050, lon.=26.505915, Alt.=90.581116m. Speed=9.108000m/h.</desc>
<speed>2.530000</speed>
</trkpt>
<trkpt lat="55.985077" lon="26.505869">
<ele>90.952209</ele>
<time>2010-06-20T09:18:36Z</time>
<desc>lat.=55.985077, lon.=26.505869, Alt.=90.952209m. Speed=8.496000m/h.</desc>
<speed>2.360000</speed>
</trkpt>
<trkpt lat="55.985096" lon="26.505823">
<ele>91.262756</ele>
<time>2010-06-20T09:18:37Z</time>
<desc>lat.=55.985096, lon.=26.505823, Alt.=91.262756m. Speed=9.252000m/h.</desc>
<speed>2.570000</speed>
</trkpt>
<trkpt lat="55.985130" lon="26.505779">
<ele>92.208069</ele>
<time>2010-06-20T09:18:38Z</time>
<desc>lat.=55.985130, lon.=26.505779, Alt.=92.208069m. Speed=10.944000m/h.</desc>
<speed>3.040000</speed>
</trkpt>
<trkpt lat="55.985168" lon="26.505737">
<ele>92.547913</ele>
<time>2010-06-20T09:18:39Z</time>
<desc>lat.=55.985168, lon.=26.505737, Alt.=92.547913m. Speed=12.420000m/h.</desc>
<speed>3.450000</speed>
</trkpt>
<trkpt lat="55.985203" lon="26.505688">
<ele>92.499084</ele>
<time>2010-06-20T09:18:40Z</time>
<desc>lat.=55.985203, lon.=26.505688, Alt.=92.499084m. Speed=9.900000m/h.</desc>
<speed>2.750000</speed>
</trkpt>
<trkpt lat="55.985229" lon="26.505644">
<ele>92.629944</ele>
<time>2010-06-20T09:18:41Z</time>
<desc>lat.=55.985229, lon.=26.505644, Alt.=92.629944m. Speed=8.676000m/h.</desc>
<speed>2.410000</speed>
</trkpt>
<trkpt lat="55.985252" lon="26.505583">
<ele>92.969788</ele>
<time>2010-06-20T09:18:42Z</time>
<desc>lat.=55.985252, lon.=26.505583, Alt.=92.969788m. Speed=10.512000m/h.</desc>
<speed>2.920000</speed>
</trkpt>
<trkpt lat="55.985283" lon="26.505520">
<ele>93.167053</ele>
<time>2010-06-20T09:18:43Z</time>
<desc>lat.=55.985283, lon.=26.505520, Alt.=93.167053m. Speed=8.172000m/h.</desc>
<speed>2.270000</speed>
</trkpt>
<trkpt lat="55.985302" lon="26.505474">
<ele>93.190491</ele>
<time>2010-06-20T09:18:44Z</time>
<desc>lat.=55.985302, lon.=26.505474, Alt.=93.190491m. Speed=8.532000m/h.</desc>
<speed>2.370000</speed>
</trkpt>
<trkpt lat="55.985325" lon="26.505440">
<ele>93.325256</ele>
<time>2010-06-20T09:18:45Z</time>
<desc>lat.=55.985325, lon.=26.505440, Alt.=93.325256m. Speed=5.364000m/h.</desc>
<speed>1.490000</speed>
</trkpt>
<trkpt lat="55.985352" lon="26.505398">
<ele>93.325256</ele>
<time>2010-06-20T09:18:46Z</time>
<desc>lat.=55.985352, lon.=26.505398, Alt.=93.325256m. Speed=7.884000m/h.</desc>
<speed>2.190000</speed>
</trkpt>
<trkpt lat="55.985374" lon="26.505362">
<ele>93.301819</ele>
<time>2010-06-20T09:18:47Z</time>
<desc>lat.=55.985374, lon.=26.505362, Alt.=93.301819m. Speed=8.208000m/h.</desc>
<speed>2.280000</speed>
</trkpt>
<trkpt lat="55.985401" lon="26.505316">
<ele>93.372131</ele>
<time>2010-06-20T09:18:48Z</time>
<desc>lat.=55.985401, lon.=26.505316, Alt.=93.372131m. Speed=7.524000m/h.</desc>
<speed>2.090000</speed>
</trkpt>
<trkpt lat="55.985428" lon="26.505272">
<ele>93.403381</ele>
<time>2010-06-20T09:18:49Z</time>
<desc>lat.=55.985428, lon.=26.505272, Alt.=93.403381m. Speed=5.724000m/h.</desc>
<speed>1.590000</speed>
</trkpt>
<trkpt lat="55.985455" lon="26.505228">
<ele>93.518616</ele>
<time>2010-06-20T09:18:50Z</time>
<desc>lat.=55.985455, lon.=26.505228, Alt.=93.518616m. Speed=8.280000m/h.</desc>
<speed>2.300000</speed>
</trkpt>
<trkpt lat="55.985481" lon="26.505194">
<ele>93.708069</ele>
<time>2010-06-20T09:18:51Z</time>
<desc>lat.=55.985481, lon.=26.505194, Alt.=93.708069m. Speed=7.308000m/h.</desc>
<speed>2.030000</speed>
</trkpt>
<trkpt lat="55.985504" lon="26.505180">
<ele>93.331116</ele>
<time>2010-06-20T09:18:52Z</time>
<desc>lat.=55.985504, lon.=26.505180, Alt.=93.331116m. Speed=5.076000m/h.</desc>
<speed>1.410000</speed>
</trkpt>
<trkpt lat="55.985535" lon="26.505138">
<ele>93.487366</ele>
<time>2010-06-20T09:18:53Z</time>
<desc>lat.=55.985535, lon.=26.505138, Alt.=93.487366m. Speed=6.516000m/h.</desc>
<speed>1.810000</speed>
</trkpt>
<trkpt lat="55.985584" lon="26.505116">
<ele>92.985413</ele>
<time>2010-06-20T09:18:54Z</time>
<desc>lat.=55.985584, lon.=26.505116, Alt.=92.985413m. Speed=9.432000m/h.</desc>
<speed>2.620000</speed>
</trkpt>
<trkpt lat="55.985603" lon="26.505085">
<ele>93.491272</ele>
<time>2010-06-20T09:18:55Z</time>
<desc>lat.=55.985603, lon.=26.505085, Alt.=93.491272m. Speed=7.596000m/h.</desc>
<speed>2.110000</speed>
</trkpt>
<trkpt lat="55.985626" lon="26.505049">
<ele>93.776428</ele>
<time>2010-06-20T09:18:56Z</time>
<desc>lat.=55.985626, lon.=26.505049, Alt.=93.776428m. Speed=6.588000m/h.</desc>
<speed>1.830000</speed>
</trkpt>
<trkpt lat="55.985649" lon="26.505024">
<ele>93.719788</ele>
<time>2010-06-20T09:18:57Z</time>
<desc>lat.=55.985649, lon.=26.505024, Alt.=93.719788m. Speed=6.444000m/h.</desc>
<speed>1.790000</speed>
</trkpt>
<trkpt lat="55.985672" lon="26.504993">
<ele>93.885803</ele>
<time>2010-06-20T09:18:58Z</time>
<desc>lat.=55.985672, lon.=26.504993, Alt.=93.885803m. Speed=7.344000m/h.</desc>
<speed>2.040000</speed>
</trkpt>
<trkpt lat="55.985695" lon="26.504955">
<ele>93.778381</ele>
<time>2010-06-20T09:18:59Z</time>
<desc>lat.=55.985695, lon.=26.504955, Alt.=93.778381m. Speed=7.560000m/h.</desc>
<speed>2.100000</speed>
</trkpt>
<trkpt lat="55.985725" lon="26.504911">
<ele>94.155334</ele>
<time>2010-06-20T09:19:00Z</time>
<desc>lat.=55.985725, lon.=26.504911, Alt.=94.155334m. Speed=7.524000m/h.</desc>
<speed>2.090000</speed>
</trkpt>
<trkpt lat="55.985748" lon="26.504860">
<ele>94.225647</ele>
<time>2010-06-20T09:19:01Z</time>
<desc>lat.=55.985748, lon.=26.504860, Alt.=94.225647m. Speed=8.352000m/h.</desc>
<speed>2.320000</speed>
</trkpt>
<trkpt lat="55.985771" lon="26.504820">
<ele>94.581116</ele>
<time>2010-06-20T09:19:02Z</time>
<desc>lat.=55.985771, lon.=26.504820, Alt.=94.581116m. Speed=7.884000m/h.</desc>
<speed>2.190000</speed>
</trkpt>
<trkpt lat="55.985798" lon="26.504770">
<ele>94.846741</ele>
<time>2010-06-20T09:19:03Z</time>
<desc>lat.=55.985798, lon.=26.504770, Alt.=94.846741m. Speed=9.180000m/h.</desc>
<speed>2.550000</speed>
</trkpt>
<trkpt lat="55.985828" lon="26.504715">
<ele>95.088928</ele>
<time>2010-06-20T09:19:04Z</time>
<desc>lat.=55.985828, lon.=26.504715, Alt.=95.088928m. Speed=11.340000m/h.</desc>
<speed>3.150000</speed>
</trkpt>
<trkpt lat="55.985851" lon="26.504665">
<ele>95.280334</ele>
<time>2010-06-20T09:19:05Z</time>
<desc>lat.=55.985851, lon.=26.504665, Alt.=95.280334m. Speed=10.800000m/h.</desc>
<speed>3.000000</speed>
</trkpt>
<trkpt lat="55.985882" lon="26.504587">
<ele>94.971741</ele>
<time>2010-06-20T09:19:06Z</time>
<desc>lat.=55.985882, lon.=26.504587, Alt.=94.971741m. Speed=14.292000m/h.</desc>
<speed>3.970000</speed>
</trkpt>
<trkpt lat="55.985897" lon="26.504507">
<ele>95.680725</ele>
<time>2010-06-20T09:19:07Z</time>
<desc>lat.=55.985897, lon.=26.504507, Alt.=95.680725m. Speed=13.032000m/h.</desc>
<speed>3.620000</speed>
</trkpt>
<trkpt lat="55.985909" lon="26.504450">
<ele>96.340881</ele>
<time>2010-06-20T09:19:08Z</time>
<desc>lat.=55.985909, lon.=26.504450, Alt.=96.340881m. Speed=10.584000m/h.</desc>
<speed>2.940000</speed>
</trkpt>
<trkpt lat="55.985928" lon="26.504393">
<ele>95.727600</ele>
<time>2010-06-20T09:19:09Z</time>
<desc>lat.=55.985928, lon.=26.504393, Alt.=95.727600m. Speed=12.276000m/h.</desc>
<speed>3.410000</speed>
</trkpt>
<trkpt lat="55.985947" lon="26.504339">
<ele>95.165100</ele>
<time>2010-06-20T09:19:10Z</time>
<desc>lat.=55.985947, lon.=26.504339, Alt.=95.165100m. Speed=10.764000m/h.</desc>
<speed>2.990000</speed>
</trkpt>
<trkpt lat="55.985966" lon="26.504288">
<ele>94.690491</ele>
<time>2010-06-20T09:19:11Z</time>
<desc>lat.=55.985966, lon.=26.504288, Alt.=94.690491m. Speed=10.260000m/h.</desc>
<speed>2.850000</speed>
</trkpt>
<trkpt lat="55.985981" lon="26.504234">
<ele>94.616272</ele>
<time>2010-06-20T09:19:12Z</time>
<desc>lat.=55.985981, lon.=26.504234, Alt.=94.616272m. Speed=12.096000m/h.</desc>
<speed>3.360000</speed>
</trkpt>
<trkpt lat="55.986053" lon="26.504108">
<ele>94.518616</ele>
<time>2010-06-20T09:19:13Z</time>
<desc>lat.=55.986053, lon.=26.504108, Alt.=94.518616m. Speed=10.800000m/h.</desc>
<speed>3.000000</speed>
</trkpt>
<trkpt lat="55.986069" lon="26.504068">
<ele>94.104553</ele>
<time>2010-06-20T09:19:14Z</time>
<desc>lat.=55.986069, lon.=26.504068, Alt.=94.104553m. Speed=11.844000m/h.</desc>
<speed>3.290000</speed>
</trkpt>
<trkpt lat="55.986084" lon="26.503984">
<ele>90.754944</ele>
<time>2010-06-20T09:19:15Z</time>
<desc>lat.=55.986084, lon.=26.503984, Alt.=90.754944m. Speed=12.600000m/h.</desc>
<speed>3.500000</speed>
</trkpt>
<trkpt lat="55.986107" lon="26.503935">
<ele>89.934631</ele>
<time>2010-06-20T09:19:16Z</time>
<desc>lat.=55.986107, lon.=26.503935, Alt.=89.934631m. Speed=10.548000m/h.</desc>
<speed>2.930000</speed>
</trkpt>
<trkpt lat="55.986126" lon="26.503904">
<ele>89.381897</ele>
<time>2010-06-20T09:19:17Z</time>
<desc>lat.=55.986126, lon.=26.503904, Alt.=89.381897m. Speed=13.644000m/h.</desc>
<speed>3.790000</speed>
</trkpt>
<trkpt lat="55.986153" lon="26.503855">
<ele>88.903381</ele>
<time>2010-06-20T09:19:18Z</time>
<desc>lat.=55.986153, lon.=26.503855, Alt.=88.903381m. Speed=12.564000m/h.</desc>
<speed>3.490000</speed>
</trkpt>
<trkpt lat="55.986176" lon="26.503801">
<ele>89.788147</ele>
<time>2010-06-20T09:19:19Z</time>
<desc>lat.=55.986176, lon.=26.503801, Alt.=89.788147m. Speed=11.772000m/h.</desc>
<speed>3.270000</speed>
</trkpt>
<trkpt lat="55.986206" lon="26.503746">
<ele>89.594788</ele>
<time>2010-06-20T09:19:20Z</time>
<desc>lat.=55.986206, lon.=26.503746, Alt.=89.594788m. Speed=13.428000m/h.</desc>
<speed>3.730000</speed>
</trkpt>
<trkpt lat="55.986233" lon="26.503710">
<ele>89.180725</ele>
<time>2010-06-20T09:19:21Z</time>
<desc>lat.=55.986233, lon.=26.503710, Alt.=89.180725m. Speed=16.452000m/h.</desc>
<speed>4.570000</speed>
</trkpt>
<trkpt lat="55.986286" lon="26.503635">
<ele>88.338928</ele>
<time>2010-06-20T09:19:22Z</time>
<desc>lat.=55.986286, lon.=26.503635, Alt.=88.338928m. Speed=18.180000m/h.</desc>
<speed>5.050000</speed>
</trkpt>
<trkpt lat="55.986340" lon="26.503557">
<ele>88.426819</ele>
<time>2010-06-20T09:19:23Z</time>
<desc>lat.=55.986340, lon.=26.503557, Alt.=88.426819m. Speed=17.820000m/h.</desc>
<speed>4.950000</speed>
</trkpt>
<trkpt lat="55.986374" lon="26.503511">
<ele>87.862366</ele>
<time>2010-06-20T09:19:24Z</time>
<desc>lat.=55.986374, lon.=26.503511, Alt.=87.862366m. Speed=18.072001m/h.</desc>
<speed>5.020000</speed>
</trkpt>
<trkpt lat="55.986427" lon="26.503469">
<ele>87.137756</ele>
<time>2010-06-20T09:19:25Z</time>
<desc>lat.=55.986427, lon.=26.503469, Alt.=87.137756m. Speed=18.035999m/h.</desc>
<speed>5.010000</speed>
</trkpt>
<trkpt lat="55.986485" lon="26.503422">
<ele>87.737366</ele>
<time>2010-06-20T09:19:26Z</time>
<desc>lat.=55.986485, lon.=26.503422, Alt.=87.737366m. Speed=17.172001m/h.</desc>
<speed>4.770000</speed>
</trkpt>
<trkpt lat="55.986542" lon="26.503372">
<ele>88.381897</ele>
<time>2010-06-20T09:19:27Z</time>
<desc>lat.=55.986542, lon.=26.503372, Alt.=88.381897m. Speed=15.444000m/h.</desc>
<speed>4.290000</speed>
</trkpt>
<trkpt lat="55.986580" lon="26.503359">
<ele>88.096741</ele>
<time>2010-06-20T09:19:28Z</time>
<desc>lat.=55.986580, lon.=26.503359, Alt.=88.096741m. Speed=13.968000m/h.</desc>
<speed>3.880000</speed>
</trkpt>
<trkpt lat="55.986614" lon="26.503349">
<ele>87.852600</ele>
<time>2010-06-20T09:19:29Z</time>
<desc>lat.=55.986614, lon.=26.503349, Alt.=87.852600m. Speed=12.384000m/h.</desc>
<speed>3.440000</speed>
</trkpt>
<trkpt lat="55.986664" lon="26.503336">
<ele>88.981506</ele>
<time>2010-06-20T09:19:30Z</time>
<desc>lat.=55.986664, lon.=26.503336, Alt.=88.981506m. Speed=13.716000m/h.</desc>
<speed>3.810000</speed>
</trkpt>
<trkpt lat="55.986706" lon="26.503330">
<ele>89.829163</ele>
<time>2010-06-20T09:19:31Z</time>
<desc>lat.=55.986706, lon.=26.503330, Alt.=89.829163m. Speed=14.040000m/h.</desc>
<speed>3.900000</speed>
</trkpt>
<trkpt lat="55.986740" lon="26.503347">
<ele>90.055725</ele>
<time>2010-06-20T09:19:32Z</time>
<desc>lat.=55.986740, lon.=26.503347, Alt.=90.055725m. Speed=12.312000m/h.</desc>
<speed>3.420000</speed>
</trkpt>
<trkpt lat="55.986767" lon="26.503376">
<ele>89.618225</ele>
<time>2010-06-20T09:19:33Z</time>
<desc>lat.=55.986767, lon.=26.503376, Alt.=89.618225m. Speed=13.032000m/h.</desc>
<speed>3.620000</speed>
</trkpt>
<trkpt lat="55.986801" lon="26.503401">
<ele>89.710022</ele>
<time>2010-06-20T09:19:34Z</time>
<desc>lat.=55.986801, lon.=26.503401, Alt.=89.710022m. Speed=13.968000m/h.</desc>
<speed>3.880000</speed>
</trkpt>
<trkpt lat="55.986832" lon="26.503429">
<ele>88.989319</ele>
<time>2010-06-20T09:19:35Z</time>
<desc>lat.=55.986832, lon.=26.503429, Alt.=88.989319m. Speed=14.040000m/h.</desc>
<speed>3.900000</speed>
</trkpt>
<trkpt lat="55.986862" lon="26.503450">
<ele>88.860413</ele>
<time>2010-06-20T09:19:36Z</time>
<desc>lat.=55.986862, lon.=26.503450, Alt.=88.860413m. Speed=14.220000m/h.</desc>
<speed>3.950000</speed>
</trkpt>
<trkpt lat="55.986885" lon="26.503485">
<ele>88.872131</ele>
<time>2010-06-20T09:19:37Z</time>
<desc>lat.=55.986885, lon.=26.503485, Alt.=88.872131m. Speed=12.924000m/h.</desc>
<speed>3.590000</speed>
</trkpt>
<trkpt lat="55.986916" lon="26.503521">
<ele>89.967834</ele>
<time>2010-06-20T09:19:38Z</time>
<desc>lat.=55.986916, lon.=26.503521, Alt.=89.967834m. Speed=13.716000m/h.</desc>
<speed>3.810000</speed>
</trkpt>
<trkpt lat="55.986942" lon="26.503559">
<ele>89.995178</ele>
<time>2010-06-20T09:19:39Z</time>
<desc>lat.=55.986942, lon.=26.503559, Alt.=89.995178m. Speed=13.716000m/h.</desc>
<speed>3.810000</speed>
</trkpt>
<trkpt lat="55.986973" lon="26.503597">
<ele>90.077209</ele>
<time>2010-06-20T09:19:40Z</time>
<desc>lat.=55.986973, lon.=26.503597, Alt.=90.077209m. Speed=14.076000m/h.</desc>
<speed>3.910000</speed>
</trkpt>
<trkpt lat="55.987007" lon="26.503635">
<ele>90.602600</ele>
<time>2010-06-20T09:19:41Z</time>
<desc>lat.=55.987007, lon.=26.503635, Alt.=90.602600m. Speed=15.084000m/h.</desc>
<speed>4.190000</speed>
</trkpt>
<trkpt lat="55.987041" lon="26.503666">
<ele>90.922913</ele>
<time>2010-06-20T09:19:42Z</time>
<desc>lat.=55.987041, lon.=26.503666, Alt.=90.922913m. Speed=14.256000m/h.</desc>
<speed>3.960000</speed>
</trkpt>
<trkpt lat="55.987076" lon="26.503700">
<ele>91.436584</ele>
<time>2010-06-20T09:19:43Z</time>
<desc>lat.=55.987076, lon.=26.503700, Alt.=91.436584m. Speed=13.248000m/h.</desc>
<speed>3.680000</speed>
</trkpt>
<trkpt lat="55.987106" lon="26.503735">
<ele>91.362366</ele>
<time>2010-06-20T09:19:44Z</time>
<desc>lat.=55.987106, lon.=26.503735, Alt.=91.362366m. Speed=15.048000m/h.</desc>
<speed>4.180000</speed>
</trkpt>
<trkpt lat="55.987141" lon="26.503769">
<ele>91.504944</ele>
<time>2010-06-20T09:19:45Z</time>
<desc>lat.=55.987141, lon.=26.503769, Alt.=91.504944m. Speed=14.976000m/h.</desc>
<speed>4.160000</speed>
</trkpt>
<trkpt lat="55.987167" lon="26.503799">
<ele>91.544006</ele>
<time>2010-06-20T09:19:46Z</time>
<desc>lat.=55.987167, lon.=26.503799, Alt.=91.544006m. Speed=14.256000m/h.</desc>
<speed>3.960000</speed>
</trkpt>
<trkpt lat="55.987194" lon="26.503819">
<ele>91.174866</ele>
<time>2010-06-20T09:19:47Z</time>
<desc>lat.=55.987194, lon.=26.503819, Alt.=91.174866m. Speed=14.256000m/h.</desc>
<speed>3.960000</speed>
</trkpt>
<trkpt lat="55.987221" lon="26.503847">
<ele>91.295959</ele>
<time>2010-06-20T09:19:48Z</time>
<desc>lat.=55.987221, lon.=26.503847, Alt.=91.295959m. Speed=13.644000m/h.</desc>
<speed>3.790000</speed>
</trkpt>
<trkpt lat="55.987255" lon="26.503876">
<ele>91.235413</ele>
<time>2010-06-20T09:19:49Z</time>
<desc>lat.=55.987255, lon.=26.503876, Alt.=91.235413m. Speed=14.184000m/h.</desc>
<speed>3.940000</speed>
</trkpt>
<trkpt lat="55.987286" lon="26.503899">
<ele>91.295959</ele>
<time>2010-06-20T09:19:50Z</time>
<desc>lat.=55.987286, lon.=26.503899, Alt.=91.295959m. Speed=13.320000m/h.</desc>
<speed>3.700000</speed>
</trkpt>
<trkpt lat="55.987320" lon="26.503920">
<ele>91.305725</ele>
<time>2010-06-20T09:19:51Z</time>
<desc>lat.=55.987320, lon.=26.503920, Alt.=91.305725m. Speed=13.896000m/h.</desc>
<speed>3.860000</speed>
</trkpt>
<trkpt lat="55.987354" lon="26.503944">
<ele>91.887756</ele>
<time>2010-06-20T09:19:52Z</time>
<desc>lat.=55.987354, lon.=26.503944, Alt.=91.887756m. Speed=13.176000m/h.</desc>
<speed>3.660000</speed>
</trkpt>
<trkpt lat="55.987396" lon="26.503962">
<ele>92.192444</ele>
<time>2010-06-20T09:19:53Z</time>
<desc>lat.=55.987396, lon.=26.503962, Alt.=92.192444m. Speed=14.976000m/h.</desc>
<speed>4.160000</speed>
</trkpt>
<trkpt lat="55.987434" lon="26.503977">
<ele>92.493225</ele>
<time>2010-06-20T09:19:54Z</time>
<desc>lat.=55.987434, lon.=26.503977, Alt.=92.493225m. Speed=13.572000m/h.</desc>
<speed>3.770000</speed>
</trkpt>
<trkpt lat="55.987469" lon="26.503986">
<ele>93.120178</ele>
<time>2010-06-20T09:19:55Z</time>
<desc>lat.=55.987469, lon.=26.503986, Alt.=93.120178m. Speed=13.788000m/h.</desc>
<speed>3.830000</speed>
</trkpt>
<trkpt lat="55.987503" lon="26.504000">
<ele>94.276428</ele>
<time>2010-06-20T09:19:56Z</time>
<desc>lat.=55.987503, lon.=26.504000, Alt.=94.276428m. Speed=13.392000m/h.</desc>
<speed>3.720000</speed>
</trkpt>
<trkpt lat="55.987541" lon="26.504009">
<ele>94.831116</ele>
<time>2010-06-20T09:19:57Z</time>
<desc>lat.=55.987541, lon.=26.504009, Alt.=94.831116m. Speed=12.636000m/h.</desc>
<speed>3.510000</speed>
</trkpt>
<trkpt lat="55.987579" lon="26.504007">
<ele>95.606506</ele>
<time>2010-06-20T09:19:58Z</time>
<desc>lat.=55.987579, lon.=26.504007, Alt.=95.606506m. Speed=13.644000m/h.</desc>
<speed>3.790000</speed>
</trkpt>
<trkpt lat="55.987617" lon="26.504007">
<ele>96.030334</ele>
<time>2010-06-20T09:19:59Z</time>
<desc>lat.=55.987617, lon.=26.504007, Alt.=96.030334m. Speed=13.968000m/h.</desc>
<speed>3.880000</speed>
</trkpt>
<trkpt lat="55.987656" lon="26.504011">
<ele>96.278381</ele>
<time>2010-06-20T09:20:00Z</time>
<desc>lat.=55.987656, lon.=26.504011, Alt.=96.278381m. Speed=15.012000m/h.</desc>
<speed>4.170000</speed>
</trkpt>
<trkpt lat="55.987698" lon="26.504005">
<ele>96.501038</ele>
<time>2010-06-20T09:20:01Z</time>
<desc>lat.=55.987698, lon.=26.504005, Alt.=96.501038m. Speed=14.508000m/h.</desc>
<speed>4.030000</speed>
</trkpt>
<trkpt lat="55.987736" lon="26.504004">
<ele>96.928772</ele>
<time>2010-06-20T09:20:02Z</time>
<desc>lat.=55.987736, lon.=26.504004, Alt.=96.928772m. Speed=13.248000m/h.</desc>
<speed>3.680000</speed>
</trkpt>
<trkpt lat="55.987770" lon="26.504002">
<ele>97.161194</ele>
<time>2010-06-20T09:20:03Z</time>
<desc>lat.=55.987770, lon.=26.504002, Alt.=97.161194m. Speed=12.744000m/h.</desc>
<speed>3.540000</speed>
</trkpt>
<trkpt lat="55.987804" lon="26.503996">
<ele>96.780334</ele>
<time>2010-06-20T09:20:04Z</time>
<desc>lat.=55.987804, lon.=26.503996, Alt.=96.780334m. Speed=12.852000m/h.</desc>
<speed>3.570000</speed>
</trkpt>
<trkpt lat="55.987835" lon="26.503990">
<ele>96.981506</ele>
<time>2010-06-20T09:20:05Z</time>
<desc>lat.=55.987835, lon.=26.503990, Alt.=96.981506m. Speed=12.132000m/h.</desc>
<speed>3.370000</speed>
</trkpt>
<trkpt lat="55.987865" lon="26.503981">
<ele>97.448303</ele>
<time>2010-06-20T09:20:06Z</time>
<desc>lat.=55.987865, lon.=26.503981, Alt.=97.448303m. Speed=13.140000m/h.</desc>
<speed>3.650000</speed>
</trkpt>
<trkpt lat="55.987896" lon="26.503967">
<ele>97.799866</ele>
<time>2010-06-20T09:20:07Z</time>
<desc>lat.=55.987896, lon.=26.503967, Alt.=97.799866m. Speed=11.952000m/h.</desc>
<speed>3.320000</speed>
</trkpt>
<trkpt lat="55.987930" lon="26.503960">
<ele>97.237366</ele>
<time>2010-06-20T09:20:08Z</time>
<desc>lat.=55.987930, lon.=26.503960, Alt.=97.237366m. Speed=11.592000m/h.</desc>
<speed>3.220000</speed>
</trkpt>
<trkpt lat="55.987953" lon="26.503954">
<ele>97.956116</ele>
<time>2010-06-20T09:20:09Z</time>
<desc>lat.=55.987953, lon.=26.503954, Alt.=97.956116m. Speed=9.504000m/h.</desc>
<speed>2.640000</speed>
</trkpt>
<trkpt lat="55.987980" lon="26.503960">
<ele>99.430725</ele>
<time>2010-06-20T09:20:10Z</time>
<desc>lat.=55.987980, lon.=26.503960, Alt.=99.430725m. Speed=9.144000m/h.</desc>
<speed>2.540000</speed>
</trkpt>
<trkpt lat="55.988007" lon="26.503958">
<ele>98.983459</ele>
<time>2010-06-20T09:20:11Z</time>
<desc>lat.=55.988007, lon.=26.503958, Alt.=98.983459m. Speed=9.864000m/h.</desc>
<speed>2.740000</speed>
</trkpt>
<trkpt lat="55.988026" lon="26.503952">
<ele>99.030334</ele>
<time>2010-06-20T09:20:12Z</time>
<desc>lat.=55.988026, lon.=26.503952, Alt.=99.030334m. Speed=8.892000m/h.</desc>
<speed>2.470000</speed>
</trkpt>
<trkpt lat="55.988049" lon="26.503946">
<ele>99.221741</ele>
<time>2010-06-20T09:20:13Z</time>
<desc>lat.=55.988049, lon.=26.503946, Alt.=99.221741m. Speed=9.252000m/h.</desc>
<speed>2.570000</speed>
</trkpt>
<trkpt lat="55.988075" lon="26.503941">
<ele>99.178772</ele>
<time>2010-06-20T09:20:14Z</time>
<desc>lat.=55.988075, lon.=26.503941, Alt.=99.178772m. Speed=11.088000m/h.</desc>
<speed>3.080000</speed>
</trkpt>
<trkpt lat="55.988106" lon="26.503929">
<ele>99.208069</ele>
<time>2010-06-20T09:20:15Z</time>
<desc>lat.=55.988106, lon.=26.503929, Alt.=99.208069m. Speed=12.240000m/h.</desc>
<speed>3.400000</speed>
</trkpt>
<trkpt lat="55.988136" lon="26.503918">
<ele>98.954163</ele>
<time>2010-06-20T09:20:16Z</time>
<desc>lat.=55.988136, lon.=26.503918, Alt.=98.954163m. Speed=14.004000m/h.</desc>
<speed>3.890000</speed>
</trkpt>
<trkpt lat="55.988174" lon="26.503908">
<ele>98.881897</ele>
<time>2010-06-20T09:20:17Z</time>
<desc>lat.=55.988174, lon.=26.503908, Alt.=98.881897m. Speed=15.732000m/h.</desc>
<speed>4.370000</speed>
</trkpt>
<trkpt lat="55.988216" lon="26.503901">
<ele>98.956116</ele>
<time>2010-06-20T09:20:18Z</time>
<desc>lat.=55.988216, lon.=26.503901, Alt.=98.956116m. Speed=15.732000m/h.</desc>
<speed>4.370000</speed>
</trkpt>
<trkpt lat="55.988255" lon="26.503891">
<ele>98.682678</ele>
<time>2010-06-20T09:20:19Z</time>
<desc>lat.=55.988255, lon.=26.503891, Alt.=98.682678m. Speed=15.264000m/h.</desc>
<speed>4.240000</speed>
</trkpt>
<trkpt lat="55.988300" lon="26.503881">
<ele>98.364319</ele>
<time>2010-06-20T09:20:20Z</time>
<desc>lat.=55.988300, lon.=26.503881, Alt.=98.364319m. Speed=16.271999m/h.</desc>
<speed>4.520000</speed>
</trkpt>
<trkpt lat="55.988346" lon="26.503870">
<ele>97.817444</ele>
<time>2010-06-20T09:20:21Z</time>
<desc>lat.=55.988346, lon.=26.503870, Alt.=97.817444m. Speed=17.388000m/h.</desc>
<speed>4.830000</speed>
</trkpt>
<trkpt lat="55.988392" lon="26.503864">
<ele>97.776428</ele>
<time>2010-06-20T09:20:22Z</time>
<desc>lat.=55.988392, lon.=26.503864, Alt.=97.776428m. Speed=16.091999m/h.</desc>
<speed>4.470000</speed>
</trkpt>
<trkpt lat="55.988430" lon="26.503860">
<ele>98.083069</ele>
<time>2010-06-20T09:20:23Z</time>
<desc>lat.=55.988430, lon.=26.503860, Alt.=98.083069m. Speed=14.868000m/h.</desc>
<speed>4.130000</speed>
</trkpt>
<trkpt lat="55.988472" lon="26.503859">
<ele>97.594788</ele>
<time>2010-06-20T09:20:24Z</time>
<desc>lat.=55.988472, lon.=26.503859, Alt.=97.594788m. Speed=15.120000m/h.</desc>
<speed>4.200000</speed>
</trkpt>
<trkpt lat="55.988514" lon="26.503862">
<ele>97.749084</ele>
<time>2010-06-20T09:20:25Z</time>
<desc>lat.=55.988514, lon.=26.503862, Alt.=97.749084m. Speed=14.364000m/h.</desc>
<speed>3.990000</speed>
</trkpt>
<trkpt lat="55.988560" lon="26.503866">
<ele>97.825256</ele>
<time>2010-06-20T09:20:26Z</time>
<desc>lat.=55.988560, lon.=26.503866, Alt.=97.825256m. Speed=14.400000m/h.</desc>
<speed>4.000000</speed>
</trkpt>
<trkpt lat="55.988602" lon="26.503868">
<ele>98.008850</ele>
<time>2010-06-20T09:20:27Z</time>
<desc>lat.=55.988602, lon.=26.503868, Alt.=98.008850m. Speed=14.760000m/h.</desc>
<speed>4.100000</speed>
</trkpt>
<trkpt lat="55.988644" lon="26.503870">
<ele>98.809631</ele>
<time>2010-06-20T09:20:28Z</time>
<desc>lat.=55.988644, lon.=26.503870, Alt.=98.809631m. Speed=15.048000m/h.</desc>
<speed>4.180000</speed>
</trkpt>
<trkpt lat="55.988678" lon="26.503868">
<ele>98.797913</ele>
<time>2010-06-20T09:20:29Z</time>
<desc>lat.=55.988678, lon.=26.503868, Alt.=98.797913m. Speed=14.760000m/h.</desc>
<speed>4.100000</speed>
</trkpt>
<trkpt lat="55.988716" lon="26.503868">
<ele>98.723694</ele>
<time>2010-06-20T09:20:30Z</time>
<desc>lat.=55.988716, lon.=26.503868, Alt.=98.723694m. Speed=14.220000m/h.</desc>
<speed>3.950000</speed>
</trkpt>
<trkpt lat="55.988750" lon="26.503866">
<ele>99.145569</ele>
<time>2010-06-20T09:20:31Z</time>
<desc>lat.=55.988750, lon.=26.503866, Alt.=99.145569m. Speed=13.500000m/h.</desc>
<speed>3.750000</speed>
</trkpt>
<trkpt lat="55.988781" lon="26.503864">
<ele>99.221741</ele>
<time>2010-06-20T09:20:32Z</time>
<desc>lat.=55.988781, lon.=26.503864, Alt.=99.221741m. Speed=11.952000m/h.</desc>
<speed>3.320000</speed>
</trkpt>
<trkpt lat="55.988808" lon="26.503866">
<ele>99.442444</ele>
<time>2010-06-20T09:20:33Z</time>
<desc>lat.=55.988808, lon.=26.503866, Alt.=99.442444m. Speed=10.296000m/h.</desc>
<speed>2.860000</speed>
</trkpt>
<trkpt lat="55.988834" lon="26.503860">
<ele>99.079163</ele>
<time>2010-06-20T09:20:34Z</time>
<desc>lat.=55.988834, lon.=26.503860, Alt.=99.079163m. Speed=10.440000m/h.</desc>
<speed>2.900000</speed>
</trkpt>
<trkpt lat="55.988861" lon="26.503868">
<ele>99.356506</ele>
<time>2010-06-20T09:20:35Z</time>
<desc>lat.=55.988861, lon.=26.503868, Alt.=99.356506m. Speed=10.908000m/h.</desc>
<speed>3.030000</speed>
</trkpt>
<trkpt lat="55.988888" lon="26.503868">
<ele>99.106506</ele>
<time>2010-06-20T09:20:36Z</time>
<desc>lat.=55.988888, lon.=26.503868, Alt.=99.106506m. Speed=11.556000m/h.</desc>
<speed>3.210000</speed>
</trkpt>
<trkpt lat="55.988911" lon="26.503868">
<ele>98.835022</ele>
<time>2010-06-20T09:20:37Z</time>
<desc>lat.=55.988911, lon.=26.503868, Alt.=98.835022m. Speed=9.900000m/h.</desc>
<speed>2.750000</speed>
</trkpt>
<trkpt lat="55.988937" lon="26.503864">
<ele>98.456116</ele>
<time>2010-06-20T09:20:38Z</time>
<desc>lat.=55.988937, lon.=26.503864, Alt.=98.456116m. Speed=10.152000m/h.</desc>
<speed>2.820000</speed>
</trkpt>
<trkpt lat="55.988964" lon="26.503860">
<ele>97.876038</ele>
<time>2010-06-20T09:20:39Z</time>
<desc>lat.=55.988964, lon.=26.503860, Alt.=97.876038m. Speed=9.504000m/h.</desc>
<speed>2.640000</speed>
</trkpt>
<trkpt lat="55.988983" lon="26.503855">
<ele>97.792053</ele>
<time>2010-06-20T09:20:40Z</time>
<desc>lat.=55.988983, lon.=26.503855, Alt.=97.792053m. Speed=9.576000m/h.</desc>
<speed>2.660000</speed>
</trkpt>
<trkpt lat="55.989006" lon="26.503845">
<ele>97.356506</ele>
<time>2010-06-20T09:20:41Z</time>
<desc>lat.=55.989006, lon.=26.503845, Alt.=97.356506m. Speed=8.748000m/h.</desc>
<speed>2.430000</speed>
</trkpt>
<trkpt lat="55.989021" lon="26.503832">
<ele>97.161194</ele>
<time>2010-06-20T09:20:42Z</time>
<desc>lat.=55.989021, lon.=26.503832, Alt.=97.161194m. Speed=7.524000m/h.</desc>
<speed>2.090000</speed>
</trkpt>
<trkpt lat="55.989048" lon="26.503826">
<ele>97.083069</ele>
<time>2010-06-20T09:20:43Z</time>
<desc>lat.=55.989048, lon.=26.503826, Alt.=97.083069m. Speed=9.144000m/h.</desc>
<speed>2.540000</speed>
</trkpt>
<trkpt lat="55.989075" lon="26.503807">
<ele>96.467834</ele>
<time>2010-06-20T09:20:44Z</time>
<desc>lat.=55.989075, lon.=26.503807, Alt.=96.467834m. Speed=12.744000m/h.</desc>
<speed>3.540000</speed>
</trkpt>
<trkpt lat="55.989101" lon="26.503780">
<ele>96.358459</ele>
<time>2010-06-20T09:20:45Z</time>
<desc>lat.=55.989101, lon.=26.503780, Alt.=96.358459m. Speed=13.824000m/h.</desc>
<speed>3.840000</speed>
</trkpt>
<trkpt lat="55.989128" lon="26.503746">
<ele>96.577209</ele>
<time>2010-06-20T09:20:46Z</time>
<desc>lat.=55.989128, lon.=26.503746, Alt.=96.577209m. Speed=13.860000m/h.</desc>
<speed>3.850000</speed>
</trkpt>
<trkpt lat="55.989159" lon="26.503716">
<ele>97.686584</ele>
<time>2010-06-20T09:20:47Z</time>
<desc>lat.=55.989159, lon.=26.503716, Alt.=97.686584m. Speed=13.896000m/h.</desc>
<speed>3.860000</speed>
</trkpt>
<trkpt lat="55.989182" lon="26.503675">
<ele>98.446350</ele>
<time>2010-06-20T09:20:48Z</time>
<desc>lat.=55.989182, lon.=26.503675, Alt.=98.446350m. Speed=14.328000m/h.</desc>
<speed>3.980000</speed>
</trkpt>
<trkpt lat="55.989208" lon="26.503628">
<ele>98.208069</ele>
<time>2010-06-20T09:20:49Z</time>
<desc>lat.=55.989208, lon.=26.503628, Alt.=98.208069m. Speed=15.444000m/h.</desc>
<speed>4.290000</speed>
</trkpt>
<trkpt lat="55.989235" lon="26.503574">
<ele>97.598694</ele>
<time>2010-06-20T09:20:50Z</time>
<desc>lat.=55.989235, lon.=26.503574, Alt.=97.598694m. Speed=14.940000m/h.</desc>
<speed>4.150000</speed>
</trkpt>
<trkpt lat="55.989262" lon="26.503523">
<ele>97.405334</ele>
<time>2010-06-20T09:20:51Z</time>
<desc>lat.=55.989262, lon.=26.503523, Alt.=97.405334m. Speed=14.364000m/h.</desc>
<speed>3.990000</speed>
</trkpt>
<trkpt lat="55.989281" lon="26.503477">
<ele>97.004944</ele>
<time>2010-06-20T09:20:52Z</time>
<desc>lat.=55.989281, lon.=26.503477, Alt.=97.004944m. Speed=13.356000m/h.</desc>
<speed>3.710000</speed>
</trkpt>
<trkpt lat="55.989307" lon="26.503429">
<ele>97.559631</ele>
<time>2010-06-20T09:20:53Z</time>
<desc>lat.=55.989307, lon.=26.503429, Alt.=97.559631m. Speed=14.004000m/h.</desc>
<speed>3.890000</speed>
</trkpt>
<trkpt lat="55.989338" lon="26.503384">
<ele>97.356506</ele>
<time>2010-06-20T09:20:54Z</time>
<desc>lat.=55.989338, lon.=26.503384, Alt.=97.356506m. Speed=15.840000m/h.</desc>
<speed>4.400000</speed>
</trkpt>
<trkpt lat="55.989365" lon="26.503334">
<ele>97.249084</ele>
<time>2010-06-20T09:20:55Z</time>
<desc>lat.=55.989365, lon.=26.503334, Alt.=97.249084m. Speed=15.768000m/h.</desc>
<speed>4.380000</speed>
</trkpt>
<trkpt lat="55.989384" lon="26.503290">
<ele>97.379944</ele>
<time>2010-06-20T09:20:56Z</time>
<desc>lat.=55.989384, lon.=26.503290, Alt.=97.379944m. Speed=14.328000m/h.</desc>
<speed>3.980000</speed>
</trkpt>
<trkpt lat="55.989403" lon="26.503244">
<ele>96.981506</ele>
<time>2010-06-20T09:20:57Z</time>
<desc>lat.=55.989403, lon.=26.503244, Alt.=96.981506m. Speed=14.472000m/h.</desc>
<speed>4.020000</speed>
</trkpt>
<trkpt lat="55.989429" lon="26.503199">
<ele>96.797913</ele>
<time>2010-06-20T09:20:58Z</time>
<desc>lat.=55.989429, lon.=26.503199, Alt.=96.797913m. Speed=13.212000m/h.</desc>
<speed>3.670000</speed>
</trkpt>
<trkpt lat="55.989452" lon="26.503160">
<ele>97.061584</ele>
<time>2010-06-20T09:20:59Z</time>
<desc>lat.=55.989452, lon.=26.503160, Alt.=97.061584m. Speed=12.780000m/h.</desc>
<speed>3.550000</speed>
</trkpt>
<trkpt lat="55.989471" lon="26.503115">
<ele>96.903381</ele>
<time>2010-06-20T09:21:00Z</time>
<desc>lat.=55.989471, lon.=26.503115, Alt.=96.903381m. Speed=14.112000m/h.</desc>
<speed>3.920000</speed>
</trkpt>
<trkpt lat="55.989494" lon="26.503071">
<ele>96.362366</ele>
<time>2010-06-20T09:21:01Z</time>
<desc>lat.=55.989494, lon.=26.503071, Alt.=96.362366m. Speed=14.544000m/h.</desc>
<speed>4.040000</speed>
</trkpt>
<trkpt lat="55.989521" lon="26.503027">
<ele>96.491272</ele>
<time>2010-06-20T09:21:02Z</time>
<desc>lat.=55.989521, lon.=26.503027, Alt.=96.491272m. Speed=15.084000m/h.</desc>
<speed>4.190000</speed>
</trkpt>
<trkpt lat="55.989548" lon="26.502979">
<ele>96.383850</ele>
<time>2010-06-20T09:21:03Z</time>
<desc>lat.=55.989548, lon.=26.502979, Alt.=96.383850m. Speed=15.336000m/h.</desc>
<speed>4.260000</speed>
</trkpt>
<trkpt lat="55.989571" lon="26.502930">
<ele>96.419006</ele>
<time>2010-06-20T09:21:04Z</time>
<desc>lat.=55.989571, lon.=26.502930, Alt.=96.419006m. Speed=17.028000m/h.</desc>
<speed>4.730000</speed>
</trkpt>
<trkpt lat="55.989597" lon="26.502876">
<ele>96.266663</ele>
<time>2010-06-20T09:21:05Z</time>
<desc>lat.=55.989597, lon.=26.502876, Alt.=96.266663m. Speed=15.876000m/h.</desc>
<speed>4.410000</speed>
</trkpt>
<trkpt lat="55.989632" lon="26.502819">
<ele>96.295959</ele>
<time>2010-06-20T09:21:06Z</time>
<desc>lat.=55.989632, lon.=26.502819, Alt.=96.295959m. Speed=14.832000m/h.</desc>
<speed>4.120000</speed>
</trkpt>
<trkpt lat="55.989666" lon="26.502766">
<ele>96.663147</ele>
<time>2010-06-20T09:21:07Z</time>
<desc>lat.=55.989666, lon.=26.502766, Alt.=96.663147m. Speed=14.904000m/h.</desc>
<speed>4.140000</speed>
</trkpt>
<trkpt lat="55.989697" lon="26.502714">
<ele>96.395569</ele>
<time>2010-06-20T09:21:08Z</time>
<desc>lat.=55.989697, lon.=26.502714, Alt.=96.395569m. Speed=16.667999m/h.</desc>
<speed>4.630000</speed>
</trkpt>
<trkpt lat="55.989723" lon="26.502665">
<ele>96.809631</ele>
<time>2010-06-20T09:21:09Z</time>
<desc>lat.=55.989723, lon.=26.502665, Alt.=96.809631m. Speed=16.524000m/h.</desc>
<speed>4.590000</speed>
</trkpt>
<trkpt lat="55.989750" lon="26.502613">
<ele>96.792053</ele>
<time>2010-06-20T09:21:10Z</time>
<desc>lat.=55.989750, lon.=26.502613, Alt.=96.792053m. Speed=15.012000m/h.</desc>
<speed>4.170000</speed>
</trkpt>
<trkpt lat="55.989777" lon="26.502565">
<ele>96.684631</ele>
<time>2010-06-20T09:21:11Z</time>
<desc>lat.=55.989777, lon.=26.502565, Alt.=96.684631m. Speed=14.256000m/h.</desc>
<speed>3.960000</speed>
</trkpt>
<trkpt lat="55.989803" lon="26.502522">
<ele>96.586975</ele>
<time>2010-06-20T09:21:12Z</time>
<desc>lat.=55.989803, lon.=26.502522, Alt.=96.586975m. Speed=13.752000m/h.</desc>
<speed>3.820000</speed>
</trkpt>
<trkpt lat="55.989834" lon="26.502474">
<ele>96.782288</ele>
<time>2010-06-20T09:21:13Z</time>
<desc>lat.=55.989834, lon.=26.502474, Alt.=96.782288m. Speed=14.904000m/h.</desc>
<speed>4.140000</speed>
</trkpt>
<trkpt lat="55.989868" lon="26.502432">
<ele>97.044006</ele>
<time>2010-06-20T09:21:14Z</time>
<desc>lat.=55.989868, lon.=26.502432, Alt.=97.044006m. Speed=14.220000m/h.</desc>
<speed>3.950000</speed>
</trkpt>
<trkpt lat="55.989906" lon="26.502380">
<ele>97.614319</ele>
<time>2010-06-20T09:21:15Z</time>
<desc>lat.=55.989906, lon.=26.502380, Alt.=97.614319m. Speed=14.220000m/h.</desc>
<speed>3.950000</speed>
</trkpt>
<trkpt lat="55.989933" lon="26.502338">
<ele>98.051819</ele>
<time>2010-06-20T09:21:16Z</time>
<desc>lat.=55.989933, lon.=26.502338, Alt.=98.051819m. Speed=13.104000m/h.</desc>
<speed>3.640000</speed>
</trkpt>
<trkpt lat="55.989960" lon="26.502304">
<ele>98.188538</ele>
<time>2010-06-20T09:21:17Z</time>
<desc>lat.=55.989960, lon.=26.502304, Alt.=98.188538m. Speed=13.176000m/h.</desc>
<speed>3.660000</speed>
</trkpt>
<trkpt lat="55.989986" lon="26.502264">
<ele>98.530334</ele>
<time>2010-06-20T09:21:18Z</time>
<desc>lat.=55.989986, lon.=26.502264, Alt.=98.530334m. Speed=13.716000m/h.</desc>
<speed>3.810000</speed>
</trkpt>
<trkpt lat="55.990009" lon="26.502214">
<ele>98.903381</ele>
<time>2010-06-20T09:21:19Z</time>
<desc>lat.=55.990009, lon.=26.502214, Alt.=98.903381m. Speed=13.248000m/h.</desc>
<speed>3.680000</speed>
</trkpt>
<trkpt lat="55.990032" lon="26.502165">
<ele>99.395569</ele>
<time>2010-06-20T09:21:20Z</time>
<desc>lat.=55.990032, lon.=26.502165, Alt.=99.395569m. Speed=14.472000m/h.</desc>
<speed>4.020000</speed>
</trkpt>
<trkpt lat="55.990063" lon="26.502119">
<ele>99.493225</ele>
<time>2010-06-20T09:21:21Z</time>
<desc>lat.=55.990063, lon.=26.502119, Alt.=99.493225m. Speed=13.788000m/h.</desc>
<speed>3.830000</speed>
</trkpt>
<trkpt lat="55.990086" lon="26.502085">
<ele>99.284241</ele>
<time>2010-06-20T09:21:22Z</time>
<desc>lat.=55.990086, lon.=26.502085, Alt.=99.284241m. Speed=12.276000m/h.</desc>
<speed>3.410000</speed>
</trkpt>
<trkpt lat="55.990108" lon="26.502045">
<ele>99.252991</ele>
<time>2010-06-20T09:21:23Z</time>
<desc>lat.=55.990108, lon.=26.502045, Alt.=99.252991m. Speed=12.744000m/h.</desc>
<speed>3.540000</speed>
</trkpt>
<trkpt lat="55.990128" lon="26.502003">
<ele>99.372131</ele>
<time>2010-06-20T09:21:24Z</time>
<desc>lat.=55.990128, lon.=26.502003, Alt.=99.372131m. Speed=12.600000m/h.</desc>
<speed>3.500000</speed>
</trkpt>
<trkpt lat="55.990150" lon="26.501957">
<ele>99.516663</ele>
<time>2010-06-20T09:21:25Z</time>
<desc>lat.=55.990150, lon.=26.501957, Alt.=99.516663m. Speed=13.104000m/h.</desc>
<speed>3.640000</speed>
</trkpt>
<trkpt lat="55.990177" lon="26.501911">
<ele>99.438538</ele>
<time>2010-06-20T09:21:26Z</time>
<desc>lat.=55.990177, lon.=26.501911, Alt.=99.438538m. Speed=12.960000m/h.</desc>
<speed>3.600000</speed>
</trkpt>
<trkpt lat="55.990196" lon="26.501875">
<ele>99.256897</ele>
<time>2010-06-20T09:21:27Z</time>
<desc>lat.=55.990196, lon.=26.501875, Alt.=99.256897m. Speed=11.412000m/h.</desc>
<speed>3.170000</speed>
</trkpt>
<trkpt lat="55.990215" lon="26.501839">
<ele>99.247131</ele>
<time>2010-06-20T09:21:28Z</time>
<desc>lat.=55.990215, lon.=26.501839, Alt.=99.247131m. Speed=10.980000m/h.</desc>
<speed>3.050000</speed>
</trkpt>
<trkpt lat="55.990234" lon="26.501802">
<ele>99.217834</ele>
<time>2010-06-20T09:21:29Z</time>
<desc>lat.=55.990234, lon.=26.501802, Alt.=99.217834m. Speed=11.196000m/h.</desc>
<speed>3.110000</speed>
</trkpt>
<trkpt lat="55.990253" lon="26.501766">
<ele>99.124084</ele>
<time>2010-06-20T09:21:30Z</time>
<desc>lat.=55.990253, lon.=26.501766, Alt.=99.124084m. Speed=12.240000m/h.</desc>
<speed>3.400000</speed>
</trkpt>
<trkpt lat="55.990269" lon="26.501726">
<ele>99.069397</ele>
<time>2010-06-20T09:21:31Z</time>
<desc>lat.=55.990269, lon.=26.501726, Alt.=99.069397m. Speed=11.052000m/h.</desc>
<speed>3.070000</speed>
</trkpt>
<trkpt lat="55.990288" lon="26.501684">
<ele>99.170959</ele>
<time>2010-06-20T09:21:32Z</time>
<desc>lat.=55.990288, lon.=26.501684, Alt.=99.170959m. Speed=12.384000m/h.</desc>
<speed>3.440000</speed>
</trkpt>
<trkpt lat="55.990307" lon="26.501638">
<ele>99.592834</ele>
<time>2010-06-20T09:21:33Z</time>
<desc>lat.=55.990307, lon.=26.501638, Alt.=99.592834m. Speed=11.772000m/h.</desc>
<speed>3.270000</speed>
</trkpt>
<trkpt lat="55.990330" lon="26.501593">
<ele>99.950256</ele>
<time>2010-06-20T09:21:34Z</time>
<desc>lat.=55.990330, lon.=26.501593, Alt.=99.950256m. Speed=14.112000m/h.</desc>
<speed>3.920000</speed>
</trkpt>
<trkpt lat="55.990356" lon="26.501545">
<ele>100.049866</ele>
<time>2010-06-20T09:21:35Z</time>
<desc>lat.=55.990356, lon.=26.501545, Alt.=100.049866m. Speed=14.364000m/h.</desc>
<speed>3.990000</speed>
</trkpt>
<trkpt lat="55.990383" lon="26.501497">
<ele>100.325256</ele>
<time>2010-06-20T09:21:36Z</time>
<desc>lat.=55.990383, lon.=26.501497, Alt.=100.325256m. Speed=14.544000m/h.</desc>
<speed>4.040000</speed>
</trkpt>
<trkpt lat="55.990402" lon="26.501446">
<ele>100.420959</ele>
<time>2010-06-20T09:21:37Z</time>
<desc>lat.=55.990402, lon.=26.501446, Alt.=100.420959m. Speed=13.140000m/h.</desc>
<speed>3.650000</speed>
</trkpt>
<trkpt lat="55.990417" lon="26.501404">
<ele>100.448303</ele>
<time>2010-06-20T09:21:38Z</time>
<desc>lat.=55.990417, lon.=26.501404, Alt.=100.448303m. Speed=10.332000m/h.</desc>
<speed>2.870000</speed>
</trkpt>
<trkpt lat="55.990429" lon="26.501373">
<ele>100.385803</ele>
<time>2010-06-20T09:21:39Z</time>
<desc>lat.=55.990429, lon.=26.501373, Alt.=100.385803m. Speed=6.084000m/h.</desc>
<speed>1.690000</speed>
</trkpt>
<trkpt lat="55.990433" lon="26.501362">
<ele>100.434631</ele>
<time>2010-06-20T09:21:40Z</time>
<desc>lat.=55.990433, lon.=26.501362, Alt.=100.434631m. Speed=0.612000m/h.</desc>
<speed>0.170000</speed>
</trkpt>
<trkpt lat="55.990433" lon="26.501352">
<ele>100.477600</ele>
<time>2010-06-20T09:21:41Z</time>
<desc>lat.=55.990433, lon.=26.501352, Alt.=100.477600m. Speed=0.684000m/h.</desc>
<speed>0.190000</speed>
</trkpt>
<trkpt lat="55.990433" lon="26.501348">
<ele>100.493225</ele>
<time>2010-06-20T09:21:42Z</time>
<desc>lat.=55.990433, lon.=26.501348, Alt.=100.493225m. Speed=0.360000m/h.</desc>
<speed>0.100000</speed>
</trkpt>
<trkpt lat="55.990437" lon="26.501348">
<ele>100.549866</ele>
<time>2010-06-20T09:21:43Z</time>
<desc>lat.=55.990437, lon.=26.501348, Alt.=100.549866m. Speed=0.360000m/h.</desc>
<speed>0.100000</speed>
</trkpt>
<trkpt lat="55.990437" lon="26.501347">
<ele>100.586975</ele>
<time>2010-06-20T09:21:44Z</time>
<desc>lat.=55.990437, lon.=26.501347, Alt.=100.586975m. Speed=0.072000m/h.</desc>
<speed>0.020000</speed>
</trkpt>
<trkpt lat="55.990437" lon="26.501348">
<ele>100.624084</ele>
<time>2010-06-20T09:21:45Z</time>
<desc>lat.=55.990437, lon.=26.501348, Alt.=100.624084m. Speed=0.396000m/h.</desc>
<speed>0.110000</speed>
</trkpt>
<trkpt lat="55.990437" lon="26.501347">
<ele>100.647522</ele>
<time>2010-06-20T09:21:46Z</time>
<desc>lat.=55.990437, lon.=26.501347, Alt.=100.647522m. Speed=0.432000m/h.</desc>
<speed>0.120000</speed>
</trkpt>
<trkpt lat="55.990437" lon="26.501345">
<ele>100.665100</ele>
<time>2010-06-20T09:21:47Z</time>
<desc>lat.=55.990437, lon.=26.501345, Alt.=100.665100m. Speed=0.144000m/h.</desc>
<speed>0.040000</speed>
</trkpt>
<trkpt lat="55.990437" lon="26.501345">
<ele>100.672913</ele>
<time>2010-06-20T09:21:48Z</time>
<desc>lat.=55.990437, lon.=26.501345, Alt.=100.672913m. Speed=0.108000m/h.</desc>
<speed>0.030000</speed>
</trkpt>
<trkpt lat="55.990437" lon="26.501345">
<ele>100.680725</ele>
<time>2010-06-20T09:21:49Z</time>
<desc>lat.=55.990437, lon.=26.501345, Alt.=100.680725m. Speed=0.468000m/h.</desc>
<speed>0.130000</speed>
</trkpt>
<trkpt lat="55.990437" lon="26.501345">
<ele>100.686584</ele>
<time>2010-06-20T09:21:50Z</time>
<desc>lat.=55.990437, lon.=26.501345, Alt.=100.686584m. Speed=0.540000m/h.</desc>
<speed>0.150000</speed>
</trkpt>
<trkpt lat="55.990437" lon="26.501341">
<ele>100.694397</ele>
<time>2010-06-20T09:21:51Z</time>
<desc>lat.=55.990437, lon.=26.501341, Alt.=100.694397m. Speed=0.432000m/h.</desc>
<speed>0.120000</speed>
</trkpt>
<trkpt lat="55.990437" lon="26.501339">
<ele>100.706116</ele>
<time>2010-06-20T09:21:52Z</time>
<desc>lat.=55.990437, lon.=26.501339, Alt.=100.706116m. Speed=0.072000m/h.</desc>
<speed>0.020000</speed>
</trkpt>
<trkpt lat="55.990437" lon="26.501339">
<ele>100.752991</ele>
<time>2010-06-20T09:21:53Z</time>
<desc>lat.=55.990437, lon.=26.501339, Alt.=100.752991m. Speed=0.180000m/h.</desc>
<speed>0.050000</speed>
</trkpt>
<trkpt lat="55.990437" lon="26.501339">
<ele>100.790100</ele>
<time>2010-06-20T09:21:54Z</time>
<desc>lat.=55.990437, lon.=26.501339, Alt.=100.790100m. Speed=0.072000m/h.</desc>
<speed>0.020000</speed>
</trkpt>
<trkpt lat="55.990437" lon="26.501339">
<ele>100.809631</ele>
<time>2010-06-20T09:21:55Z</time>
<desc>lat.=55.990437, lon.=26.501339, Alt.=100.809631m. Speed=0.072000m/h.</desc>
<speed>0.020000</speed>
</trkpt>
<trkpt lat="55.990437" lon="26.501339">
<ele>100.827209</ele>
<time>2010-06-20T09:21:56Z</time>
<desc>lat.=55.990437, lon.=26.501339, Alt.=100.827209m. Speed=0.036000m/h.</desc>
<speed>0.010000</speed>
</trkpt>
<trkpt lat="55.990437" lon="26.501339">
<ele>100.836975</ele>
<time>2010-06-20T09:21:57Z</time>
<desc>lat.=55.990437, lon.=26.501339, Alt.=100.836975m. Speed=0.108000m/h.</desc>
<speed>0.030000</speed>
</trkpt>
<trkpt lat="55.990437" lon="26.501339">
<ele>100.844788</ele>
<time>2010-06-20T09:21:58Z</time>
<desc>lat.=55.990437, lon.=26.501339, Alt.=100.844788m. Speed=0.072000m/h.</desc>
<speed>0.020000</speed>
</trkpt>
<trkpt lat="55.990437" lon="26.501339">
<ele>100.852600</ele>
<time>2010-06-20T09:21:59Z</time>
<desc>lat.=55.990437, lon.=26.501339, Alt.=100.852600m. Speed=0.252000m/h.</desc>
<speed>0.070000</speed>
</trkpt>
<trkpt lat="55.990437" lon="26.501339">
<ele>100.860413</ele>
<time>2010-06-20T09:22:00Z</time>
<desc>lat.=55.990437, lon.=26.501339, Alt.=100.860413m. Speed=0.144000m/h.</desc>
<speed>0.040000</speed>
</trkpt>
<trkpt lat="55.990437" lon="26.501339">
<ele>100.866272</ele>
<time>2010-06-20T09:22:01Z</time>
<desc>lat.=55.990437, lon.=26.501339, Alt.=100.866272m. Speed=0.432000m/h.</desc>
<speed>0.120000</speed>
</trkpt>
<trkpt lat="55.990437" lon="26.501339">
<ele>100.872131</ele>
<time>2010-06-20T09:22:02Z</time>
<desc>lat.=55.990437, lon.=26.501339, Alt.=100.872131m. Speed=0.576000m/h.</desc>
<speed>0.160000</speed>
</trkpt>
<trkpt lat="55.990440" lon="26.501339">
<ele>100.877991</ele>
<time>2010-06-20T09:22:03Z</time>
<desc>lat.=55.990440, lon.=26.501339, Alt.=100.877991m. Speed=0.432000m/h.</desc>
<speed>0.120000</speed>
</trkpt>
<trkpt lat="55.990440" lon="26.501339">
<ele>100.879944</ele>
<time>2010-06-20T09:22:04Z</time>
<desc>lat.=55.990440, lon.=26.501339, Alt.=100.879944m. Speed=0.324000m/h.</desc>
<speed>0.090000</speed>
</trkpt>
<trkpt lat="55.990440" lon="26.501337">
<ele>100.881897</ele>
<time>2010-06-20T09:22:05Z</time>
<desc>lat.=55.990440, lon.=26.501337, Alt.=100.881897m. Speed=0.180000m/h.</desc>
<speed>0.050000</speed>
</trkpt>
<trkpt lat="55.990440" lon="26.501337">
<ele>100.885803</ele>
<time>2010-06-20T09:22:06Z</time>
<desc>lat.=55.990440, lon.=26.501337, Alt.=100.885803m. Speed=0.360000m/h.</desc>
<speed>0.100000</speed>
</trkpt>
<trkpt lat="55.990440" lon="26.501337">
<ele>100.887756</ele>
<time>2010-06-20T09:22:07Z</time>
<desc>lat.=55.990440, lon.=26.501337, Alt.=100.887756m. Speed=0.036000m/h.</desc>
<speed>0.010000</speed>
</trkpt>
<trkpt lat="55.990440" lon="26.501337">
<ele>100.889709</ele>
<time>2010-06-20T09:22:08Z</time>
<desc>lat.=55.990440, lon.=26.501337, Alt.=100.889709m. Speed=0.144000m/h.</desc>
<speed>0.040000</speed>
</trkpt>
<trkpt lat="55.990440" lon="26.501337">
<ele>100.889709</ele>
<time>2010-06-20T09:22:09Z</time>
<desc>lat.=55.990440, lon.=26.501337, Alt.=100.889709m. Speed=0.072000m/h.</desc>
<speed>0.020000</speed>
</trkpt>
<trkpt lat="55.990440" lon="26.501339">
<ele>100.891663</ele>
<time>2010-06-20T09:22:10Z</time>
<desc>lat.=55.990440, lon.=26.501339, Alt.=100.891663m. Speed=0.540000m/h.</desc>
<speed>0.150000</speed>
</trkpt>
<trkpt lat="55.990440" lon="26.501335">
<ele>100.889709</ele>
<time>2010-06-20T09:22:11Z</time>
<desc>lat.=55.990440, lon.=26.501335, Alt.=100.889709m. Speed=2.880000m/h.</desc>
<speed>0.800000</speed>
</trkpt>
<trkpt lat="55.990440" lon="26.501324">
<ele>100.876038</ele>
<time>2010-06-20T09:22:12Z</time>
<desc>lat.=55.990440, lon.=26.501324, Alt.=100.876038m. Speed=3.600000m/h.</desc>
<speed>1.000000</speed>
</trkpt>
<trkpt lat="55.990437" lon="26.501307">
<ele>100.643616</ele>
<time>2010-06-20T09:22:13Z</time>
<desc>lat.=55.990437, lon.=26.501307, Alt.=100.643616m. Speed=4.572000m/h.</desc>
<speed>1.270000</speed>
</trkpt>
<trkpt lat="55.990440" lon="26.501295">
<ele>100.329163</ele>
<time>2010-06-20T09:22:14Z</time>
<desc>lat.=55.990440, lon.=26.501295, Alt.=100.329163m. Speed=5.112000m/h.</desc>
<speed>1.420000</speed>
</trkpt>
<trkpt lat="55.990448" lon="26.501272">
<ele>100.419006</ele>
<time>2010-06-20T09:22:15Z</time>
<desc>lat.=55.990448, lon.=26.501272, Alt.=100.419006m. Speed=5.760000m/h.</desc>
<speed>1.600000</speed>
</trkpt>
<trkpt lat="55.990448" lon="26.501245">
<ele>100.516663</ele>
<time>2010-06-20T09:22:16Z</time>
<desc>lat.=55.990448, lon.=26.501245, Alt.=100.516663m. Speed=6.300000m/h.</desc>
<speed>1.750000</speed>
</trkpt>
<trkpt lat="55.990452" lon="26.501223">
<ele>100.465881</ele>
<time>2010-06-20T09:22:17Z</time>
<desc>lat.=55.990452, lon.=26.501223, Alt.=100.465881m. Speed=7.200000m/h.</desc>
<speed>2.000000</speed>
</trkpt>
<trkpt lat="55.990456" lon="26.501192">
<ele>100.469788</ele>
<time>2010-06-20T09:22:18Z</time>
<desc>lat.=55.990456, lon.=26.501192, Alt.=100.469788m. Speed=6.876000m/h.</desc>
<speed>1.910000</speed>
</trkpt>
<trkpt lat="55.990456" lon="26.501162">
<ele>100.395569</ele>
<time>2010-06-20T09:22:19Z</time>
<desc>lat.=55.990456, lon.=26.501162, Alt.=100.395569m. Speed=6.768000m/h.</desc>
<speed>1.880000</speed>
</trkpt>
<trkpt lat="55.990459" lon="26.501129">
<ele>100.088928</ele>
<time>2010-06-20T09:22:20Z</time>
<desc>lat.=55.990459, lon.=26.501129, Alt.=100.088928m. Speed=7.092000m/h.</desc>
<speed>1.970000</speed>
</trkpt>
<trkpt lat="55.990463" lon="26.501106">
<ele>100.040100</ele>
<time>2010-06-20T09:22:21Z</time>
<desc>lat.=55.990463, lon.=26.501106, Alt.=100.040100m. Speed=7.236000m/h.</desc>
<speed>2.010000</speed>
</trkpt>
<trkpt lat="55.990463" lon="26.501070">
<ele>99.926819</ele>
<time>2010-06-20T09:22:22Z</time>
<desc>lat.=55.990463, lon.=26.501070, Alt.=99.926819m. Speed=8.172000m/h.</desc>
<speed>2.270000</speed>
</trkpt>
<trkpt lat="55.990467" lon="26.501036">
<ele>99.788147</ele>
<time>2010-06-20T09:22:23Z</time>
<desc>lat.=55.990467, lon.=26.501036, Alt.=99.788147m. Speed=7.812000m/h.</desc>
<speed>2.170000</speed>
</trkpt>
<trkpt lat="55.990467" lon="26.501005">
<ele>99.610413</ele>
<time>2010-06-20T09:22:24Z</time>
<desc>lat.=55.990467, lon.=26.501005, Alt.=99.610413m. Speed=6.768000m/h.</desc>
<speed>1.880000</speed>
</trkpt>
<trkpt lat="55.990475" lon="26.500977">
<ele>99.524475</ele>
<time>2010-06-20T09:22:25Z</time>
<desc>lat.=55.990475, lon.=26.500977, Alt.=99.524475m. Speed=6.948000m/h.</desc>
<speed>1.930000</speed>
</trkpt>
<trkpt lat="55.990479" lon="26.500946">
<ele>99.350647</ele>
<time>2010-06-20T09:22:26Z</time>
<desc>lat.=55.990479, lon.=26.500946, Alt.=99.350647m. Speed=6.516000m/h.</desc>
<speed>1.810000</speed>
</trkpt>
<trkpt lat="55.990482" lon="26.500919">
<ele>99.288147</ele>
<time>2010-06-20T09:22:27Z</time>
<desc>lat.=55.990482, lon.=26.500919, Alt.=99.288147m. Speed=5.760000m/h.</desc>
<speed>1.600000</speed>
</trkpt>
<trkpt lat="55.990486" lon="26.500896">
<ele>99.061584</ele>
<time>2010-06-20T09:22:28Z</time>
<desc>lat.=55.990486, lon.=26.500896, Alt.=99.061584m. Speed=4.824000m/h.</desc>
<speed>1.340000</speed>
</trkpt>
<trkpt lat="55.990490" lon="26.500877">
<ele>98.903381</ele>
<time>2010-06-20T09:22:29Z</time>
<desc>lat.=55.990490, lon.=26.500877, Alt.=98.903381m. Speed=4.248000m/h.</desc>
<speed>1.180000</speed>
</trkpt>
<trkpt lat="55.990494" lon="26.500862">
<ele>98.897522</ele>
<time>2010-06-20T09:22:30Z</time>
<desc>lat.=55.990494, lon.=26.500862, Alt.=98.897522m. Speed=4.536000m/h.</desc>
<speed>1.260000</speed>
</trkpt>
<trkpt lat="55.990501" lon="26.500841">
<ele>98.915100</ele>
<time>2010-06-20T09:22:31Z</time>
<desc>lat.=55.990501, lon.=26.500841, Alt.=98.915100m. Speed=5.436000m/h.</desc>
<speed>1.510000</speed>
</trkpt>
<trkpt lat="55.990505" lon="26.500818">
<ele>98.653381</ele>
<time>2010-06-20T09:22:32Z</time>
<desc>lat.=55.990505, lon.=26.500818, Alt.=98.653381m. Speed=5.580000m/h.</desc>
<speed>1.550000</speed>
</trkpt>
<trkpt lat="55.990505" lon="26.500797">
<ele>98.510803</ele>
<time>2010-06-20T09:22:33Z</time>
<desc>lat.=55.990505, lon.=26.500797, Alt.=98.510803m. Speed=5.976000m/h.</desc>
<speed>1.660000</speed>
</trkpt>
<trkpt lat="55.990509" lon="26.500774">
<ele>98.354553</ele>
<time>2010-06-20T09:22:34Z</time>
<desc>lat.=55.990509, lon.=26.500774, Alt.=98.354553m. Speed=4.932000m/h.</desc>
<speed>1.370000</speed>
</trkpt>
<trkpt lat="55.990513" lon="26.500753">
<ele>98.348694</ele>
<time>2010-06-20T09:22:35Z</time>
<desc>lat.=55.990513, lon.=26.500753, Alt.=98.348694m. Speed=4.968000m/h.</desc>
<speed>1.380000</speed>
</trkpt>
<trkpt lat="55.990517" lon="26.500729">
<ele>98.331116</ele>
<time>2010-06-20T09:22:36Z</time>
<desc>lat.=55.990517, lon.=26.500729, Alt.=98.331116m. Speed=5.364000m/h.</desc>
<speed>1.490000</speed>
</trkpt>
<trkpt lat="55.990517" lon="26.500702">
<ele>98.239319</ele>
<time>2010-06-20T09:22:37Z</time>
<desc>lat.=55.990517, lon.=26.500702, Alt.=98.239319m. Speed=5.904000m/h.</desc>
<speed>1.640000</speed>
</trkpt>
<trkpt lat="55.990520" lon="26.500677">
<ele>98.288147</ele>
<time>2010-06-20T09:22:38Z</time>
<desc>lat.=55.990520, lon.=26.500677, Alt.=98.288147m. Speed=6.228000m/h.</desc>
<speed>1.730000</speed>
</trkpt>
<trkpt lat="55.990524" lon="26.500652">
<ele>98.186584</ele>
<time>2010-06-20T09:22:39Z</time>
<desc>lat.=55.990524, lon.=26.500652, Alt.=98.186584m. Speed=5.508000m/h.</desc>
<speed>1.530000</speed>
</trkpt>
<trkpt lat="55.990528" lon="26.500633">
<ele>98.014709</ele>
<time>2010-06-20T09:22:40Z</time>
<desc>lat.=55.990528, lon.=26.500633, Alt.=98.014709m. Speed=4.032000m/h.</desc>
<speed>1.120000</speed>
</trkpt>
<trkpt lat="55.990532" lon="26.500626">
<ele>97.807678</ele>
<time>2010-06-20T09:22:41Z</time>
<desc>lat.=55.990532, lon.=26.500626, Alt.=97.807678m. Speed=1.512000m/h.</desc>
<speed>0.420000</speed>
</trkpt>
<trkpt lat="55.990536" lon="26.500624">
<ele>97.766663</ele>
<time>2010-06-20T09:22:42Z</time>
<desc>lat.=55.990536, lon.=26.500624, Alt.=97.766663m. Speed=0.900000m/h.</desc>
<speed>0.250000</speed>
</trkpt>
<trkpt lat="55.990532" lon="26.500628">
<ele>97.590881</ele>
<time>2010-06-20T09:22:43Z</time>
<desc>lat.=55.990532, lon.=26.500628, Alt.=97.590881m. Speed=0.864000m/h.</desc>
<speed>0.240000</speed>
</trkpt>
<trkpt lat="55.990532" lon="26.500626">
<ele>97.579163</ele>
<time>2010-06-20T09:22:44Z</time>
<desc>lat.=55.990532, lon.=26.500626, Alt.=97.579163m. Speed=0.504000m/h.</desc>
<speed>0.140000</speed>
</trkpt>
<trkpt lat="55.990532" lon="26.500626">
<ele>97.481506</ele>
<time>2010-06-20T09:22:45Z</time>
<desc>lat.=55.990532, lon.=26.500626, Alt.=97.481506m. Speed=0.288000m/h.</desc>
<speed>0.080000</speed>
</trkpt>
<trkpt lat="55.990532" lon="26.500626">
<ele>97.428772</ele>
<time>2010-06-20T09:22:46Z</time>
<desc>lat.=55.990532, lon.=26.500626, Alt.=97.428772m. Speed=0.324000m/h.</desc>
<speed>0.090000</speed>
</trkpt>
<trkpt lat="55.990532" lon="26.500628">
<ele>97.405334</ele>
<time>2010-06-20T09:22:47Z</time>
<desc>lat.=55.990532, lon.=26.500628, Alt.=97.405334m. Speed=0.144000m/h.</desc>
<speed>0.040000</speed>
</trkpt>
<trkpt lat="55.990532" lon="26.500628">
<ele>97.385803</ele>
<time>2010-06-20T09:22:48Z</time>
<desc>lat.=55.990532, lon.=26.500628, Alt.=97.385803m. Speed=0.108000m/h.</desc>
<speed>0.030000</speed>
</trkpt>
<trkpt lat="55.990532" lon="26.500628">
<ele>97.368225</ele>
<time>2010-06-20T09:22:49Z</time>
<desc>lat.=55.990532, lon.=26.500628, Alt.=97.368225m. Speed=0.072000m/h.</desc>
<speed>0.020000</speed>
</trkpt>
<trkpt lat="55.990532" lon="26.500628">
<ele>97.354553</ele>
<time>2010-06-20T09:22:50Z</time>
<desc>lat.=55.990532, lon.=26.500628, Alt.=97.354553m. Speed=0.072000m/h.</desc>
<speed>0.020000</speed>
</trkpt>
<trkpt lat="55.990532" lon="26.500628">
<ele>97.342834</ele>
<time>2010-06-20T09:22:51Z</time>
<desc>lat.=55.990532, lon.=26.500628, Alt.=97.342834m. Speed=0.000000m/h.</desc>
<speed>0.000000</speed>
</trkpt>
<trkpt lat="55.990532" lon="26.500628">
<ele>97.335022</ele>
<time>2010-06-20T09:22:52Z</time>
<desc>lat.=55.990532, lon.=26.500628, Alt.=97.335022m. Speed=0.036000m/h.</desc>
<speed>0.010000</speed>
</trkpt>
<trkpt lat="55.990532" lon="26.500628">
<ele>97.329163</ele>
<time>2010-06-20T09:22:53Z</time>
<desc>lat.=55.990532, lon.=26.500628, Alt.=97.329163m. Speed=0.036000m/h.</desc>
<speed>0.010000</speed>
</trkpt>
<trkpt lat="55.990532" lon="26.500628">
<ele>97.336975</ele>
<time>2010-06-20T09:22:54Z</time>
<desc>lat.=55.990532, lon.=26.500628, Alt.=97.336975m. Speed=0.000000m/h.</desc>
<speed>0.000000</speed>
</trkpt>
<trkpt lat="55.990532" lon="26.500628">
<ele>97.348694</ele>
<time>2010-06-20T09:22:55Z</time>
<desc>lat.=55.990532, lon.=26.500628, Alt.=97.348694m. Speed=0.216000m/h.</desc>
<speed>0.060000</speed>
</trkpt>
<trkpt lat="55.990532" lon="26.500628">
<ele>97.358459</ele>
<time>2010-06-20T09:22:56Z</time>
<desc>lat.=55.990532, lon.=26.500628, Alt.=97.358459m. Speed=0.288000m/h.</desc>
<speed>0.080000</speed>
</trkpt>
<trkpt lat="55.990532" lon="26.500626">
<ele>97.362366</ele>
<time>2010-06-20T09:22:57Z</time>
<desc>lat.=55.990532, lon.=26.500626, Alt.=97.362366m. Speed=0.180000m/h.</desc>
<speed>0.050000</speed>
</trkpt>
<trkpt lat="55.990532" lon="26.500626">
<ele>97.362366</ele>
<time>2010-06-20T09:22:58Z</time>
<desc>lat.=55.990532, lon.=26.500626, Alt.=97.362366m. Speed=0.036000m/h.</desc>
<speed>0.010000</speed>
</trkpt>
<trkpt lat="55.990532" lon="26.500626">
<ele>97.362366</ele>
<time>2010-06-20T09:22:59Z</time>
<desc>lat.=55.990532, lon.=26.500626, Alt.=97.362366m. Speed=0.036000m/h.</desc>
<speed>0.010000</speed>
</trkpt>
<trkpt lat="55.990532" lon="26.500626">
<ele>97.362366</ele>
<time>2010-06-20T09:23:00Z</time>
<desc>lat.=55.990532, lon.=26.500626, Alt.=97.362366m. Speed=0.036000m/h.</desc>
<speed>0.010000</speed>
</trkpt>
<trkpt lat="55.990532" lon="26.500626">
<ele>97.364319</ele>
<time>2010-06-20T09:23:01Z</time>
<desc>lat.=55.990532, lon.=26.500626, Alt.=97.364319m. Speed=0.036000m/h.</desc>
<speed>0.010000</speed>
</trkpt>
<trkpt lat="55.990532" lon="26.500626">
<ele>97.368225</ele>
<time>2010-06-20T09:23:02Z</time>
<desc>lat.=55.990532, lon.=26.500626, Alt.=97.368225m. Speed=0.036000m/h.</desc>
<speed>0.010000</speed>
</trkpt>
<trkpt lat="55.990532" lon="26.500626">
<ele>97.372131</ele>
<time>2010-06-20T09:23:03Z</time>
<desc>lat.=55.990532, lon.=26.500626, Alt.=97.372131m. Speed=0.072000m/h.</desc>
<speed>0.020000</speed>
</trkpt>
<trkpt lat="55.990532" lon="26.500626">
<ele>97.372131</ele>
<time>2010-06-20T09:23:04Z</time>
<desc>lat.=55.990532, lon.=26.500626, Alt.=97.372131m. Speed=0.036000m/h.</desc>
<speed>0.010000</speed>
</trkpt>
<trkpt lat="55.990532" lon="26.500626">
<ele>97.374084</ele>
<time>2010-06-20T09:23:05Z</time>
<desc>lat.=55.990532, lon.=26.500626, Alt.=97.374084m. Speed=0.000000m/h.</desc>
<speed>0.000000</speed>
</trkpt>
<trkpt lat="55.990532" lon="26.500626">
<ele>97.372131</ele>
<time>2010-06-20T09:23:06Z</time>
<desc>lat.=55.990532, lon.=26.500626, Alt.=97.372131m. Speed=0.000000m/h.</desc>
<speed>0.000000</speed>
</trkpt>
<trkpt lat="55.990532" lon="26.500626">
<ele>97.374084</ele>
<time>2010-06-20T09:23:07Z</time>
<desc>lat.=55.990532, lon.=26.500626, Alt.=97.374084m. Speed=0.036000m/h.</desc>
<speed>0.010000</speed>
</trkpt>
<trkpt lat="55.990532" lon="26.500626">
<ele>97.374084</ele>
<time>2010-06-20T09:23:08Z</time>
<desc>lat.=55.990532, lon.=26.500626, Alt.=97.374084m. Speed=0.000000m/h.</desc>
<speed>0.000000</speed>
</trkpt>
<trkpt lat="55.990532" lon="26.500626">
<ele>97.374084</ele>
<time>2010-06-20T09:23:09Z</time>
<desc>lat.=55.990532, lon.=26.500626, Alt.=97.374084m. Speed=0.072000m/h.</desc>
<speed>0.020000</speed>
</trkpt>
<trkpt lat="55.990532" lon="26.500626">
<ele>97.374084</ele>
<time>2010-06-20T09:23:10Z</time>
<desc>lat.=55.990532, lon.=26.500626, Alt.=97.374084m. Speed=0.072000m/h.</desc>
<speed>0.020000</speed>
</trkpt>
<trkpt lat="55.990532" lon="26.500626">
<ele>97.376038</ele>
<time>2010-06-20T09:23:11Z</time>
<desc>lat.=55.990532, lon.=26.500626, Alt.=97.376038m. Speed=0.036000m/h.</desc>
<speed>0.010000</speed>
</trkpt>
<trkpt lat="55.990532" lon="26.500626">
<ele>97.374084</ele>
<time>2010-06-20T09:23:12Z</time>
<desc>lat.=55.990532, lon.=26.500626, Alt.=97.374084m. Speed=0.360000m/h.</desc>
<speed>0.100000</speed>
</trkpt>
<trkpt lat="55.990532" lon="26.500626">
<ele>97.376038</ele>
<time>2010-06-20T09:23:13Z</time>
<desc>lat.=55.990532, lon.=26.500626, Alt.=97.376038m. Speed=0.036000m/h.</desc>
<speed>0.010000</speed>
</trkpt>
<trkpt lat="55.990532" lon="26.500626">
<ele>97.376038</ele>
<time>2010-06-20T09:23:14Z</time>
<desc>lat.=55.990532, lon.=26.500626, Alt.=97.376038m. Speed=0.000000m/h.</desc>
<speed>0.000000</speed>
</trkpt>
<trkpt lat="55.990532" lon="26.500626">
<ele>97.376038</ele>
<time>2010-06-20T09:23:15Z</time>
<desc>lat.=55.990532, lon.=26.500626, Alt.=97.376038m. Speed=0.036000m/h.</desc>
<speed>0.010000</speed>
</trkpt>
<trkpt lat="55.990532" lon="26.500626">
<ele>97.379944</ele>
<time>2010-06-20T09:23:16Z</time>
<desc>lat.=55.990532, lon.=26.500626, Alt.=97.379944m. Speed=0.072000m/h.</desc>
<speed>0.020000</speed>
</trkpt>
<trkpt lat="55.990532" lon="26.500626">
<ele>97.379944</ele>
<time>2010-06-20T09:23:17Z</time>
<desc>lat.=55.990532, lon.=26.500626, Alt.=97.379944m. Speed=0.108000m/h.</desc>
<speed>0.030000</speed>
</trkpt>
<trkpt lat="55.990532" lon="26.500626">
<ele>97.377991</ele>
<time>2010-06-20T09:23:18Z</time>
<desc>lat.=55.990532, lon.=26.500626, Alt.=97.377991m. Speed=0.180000m/h.</desc>
<speed>0.050000</speed>
</trkpt>
<trkpt lat="55.990532" lon="26.500626">
<ele>97.376038</ele>
<time>2010-06-20T09:23:19Z</time>
<desc>lat.=55.990532, lon.=26.500626, Alt.=97.376038m. Speed=0.000000m/h.</desc>
<speed>0.000000</speed>
</trkpt>
<trkpt lat="55.990532" lon="26.500626">
<ele>97.377991</ele>
<time>2010-06-20T09:23:20Z</time>
<desc>lat.=55.990532, lon.=26.500626, Alt.=97.377991m. Speed=0.072000m/h.</desc>
<speed>0.020000</speed>
</trkpt>
<trkpt lat="55.990532" lon="26.500626">
<ele>97.379944</ele>
<time>2010-06-20T09:23:21Z</time>
<desc>lat.=55.990532, lon.=26.500626, Alt.=97.379944m. Speed=0.288000m/h.</desc>
<speed>0.080000</speed>
</trkpt>
<trkpt lat="55.990532" lon="26.500626">
<ele>97.379944</ele>
<time>2010-06-20T09:23:22Z</time>
<desc>lat.=55.990532, lon.=26.500626, Alt.=97.379944m. Speed=0.036000m/h.</desc>
<speed>0.010000</speed>
</trkpt>
<trkpt lat="55.990532" lon="26.500626">
<ele>97.338928</ele>
<time>2010-06-20T09:23:23Z</time>
<desc>lat.=55.990532, lon.=26.500626, Alt.=97.338928m. Speed=0.144000m/h.</desc>
<speed>0.040000</speed>
</trkpt>
<trkpt lat="55.990532" lon="26.500626">
<ele>97.336975</ele>
<time>2010-06-20T09:23:24Z</time>
<desc>lat.=55.990532, lon.=26.500626, Alt.=97.336975m. Speed=0.000000m/h.</desc>
<speed>0.000000</speed>
</trkpt>
<trkpt lat="55.990532" lon="26.500626">
<ele>97.335022</ele>
<time>2010-06-20T09:23:25Z</time>
<desc>lat.=55.990532, lon.=26.500626, Alt.=97.335022m. Speed=0.036000m/h.</desc>
<speed>0.010000</speed>
</trkpt>
<trkpt lat="55.990532" lon="26.500626">
<ele>97.335022</ele>
<time>2010-06-20T09:23:26Z</time>
<desc>lat.=55.990532, lon.=26.500626, Alt.=97.335022m. Speed=0.036000m/h.</desc>
<speed>0.010000</speed>
</trkpt>
<trkpt lat="55.990532" lon="26.500626">
<ele>97.335022</ele>
<time>2010-06-20T09:23:27Z</time>
<desc>lat.=55.990532, lon.=26.500626, Alt.=97.335022m. Speed=0.072000m/h.</desc>
<speed>0.020000</speed>
</trkpt>
<trkpt lat="55.990532" lon="26.500626">
<ele>97.336975</ele>
<time>2010-06-20T09:23:28Z</time>
<desc>lat.=55.990532, lon.=26.500626, Alt.=97.336975m. Speed=0.072000m/h.</desc>
<speed>0.020000</speed>
</trkpt>
<trkpt lat="55.990532" lon="26.500626">
<ele>97.338928</ele>
<time>2010-06-20T09:23:29Z</time>
<desc>lat.=55.990532, lon.=26.500626, Alt.=97.338928m. Speed=0.036000m/h.</desc>
<speed>0.010000</speed>
</trkpt>
<trkpt lat="55.990532" lon="26.500626">
<ele>97.338928</ele>
<time>2010-06-20T09:23:30Z</time>
<desc>lat.=55.990532, lon.=26.500626, Alt.=97.338928m. Speed=0.108000m/h.</desc>
<speed>0.030000</speed>
</trkpt>
<trkpt lat="55.990532" lon="26.500626">
<ele>97.342834</ele>
<time>2010-06-20T09:23:31Z</time>
<desc>lat.=55.990532, lon.=26.500626, Alt.=97.342834m. Speed=0.036000m/h.</desc>
<speed>0.010000</speed>
</trkpt>
<trkpt lat="55.990532" lon="26.500626">
<ele>97.344788</ele>
<time>2010-06-20T09:23:32Z</time>
<desc>lat.=55.990532, lon.=26.500626, Alt.=97.344788m. Speed=0.000000m/h.</desc>
<speed>0.000000</speed>
</trkpt>
<trkpt lat="55.990532" lon="26.500626">
<ele>97.348694</ele>
<time>2010-06-20T09:23:33Z</time>
<desc>lat.=55.990532, lon.=26.500626, Alt.=97.348694m. Speed=0.072000m/h.</desc>
<speed>0.020000</speed>
</trkpt>
<trkpt lat="55.990532" lon="26.500626">
<ele>97.352600</ele>
<time>2010-06-20T09:23:34Z</time>
<desc>lat.=55.990532, lon.=26.500626, Alt.=97.352600m. Speed=0.000000m/h.</desc>
<speed>0.000000</speed>
</trkpt>
<trkpt lat="55.990532" lon="26.500626">
<ele>97.352600</ele>
<time>2010-06-20T09:23:35Z</time>
<desc>lat.=55.990532, lon.=26.500626, Alt.=97.352600m. Speed=0.000000m/h.</desc>
<speed>0.000000</speed>
</trkpt>
<trkpt lat="55.990532" lon="26.500626">
<ele>97.350647</ele>
<time>2010-06-20T09:23:36Z</time>
<desc>lat.=55.990532, lon.=26.500626, Alt.=97.350647m. Speed=0.000000m/h.</desc>
<speed>0.000000</speed>
</trkpt>
<trkpt lat="55.990532" lon="26.500626">
<ele>97.350647</ele>
<time>2010-06-20T09:23:37Z</time>
<desc>lat.=55.990532, lon.=26.500626, Alt.=97.350647m. Speed=0.072000m/h.</desc>
<speed>0.020000</speed>
</trkpt>
<trkpt lat="55.990532" lon="26.500626">
<ele>97.350647</ele>
<time>2010-06-20T09:23:38Z</time>
<desc>lat.=55.990532, lon.=26.500626, Alt.=97.350647m. Speed=0.036000m/h.</desc>
<speed>0.010000</speed>
</trkpt>
<trkpt lat="55.990532" lon="26.500624">
<ele>97.354553</ele>
<time>2010-06-20T09:23:39Z</time>
<desc>lat.=55.990532, lon.=26.500624, Alt.=97.354553m. Speed=0.036000m/h.</desc>
<speed>0.010000</speed>
</trkpt>
<trkpt lat="55.990532" lon="26.500624">
<ele>97.352600</ele>
<time>2010-06-20T09:23:40Z</time>
<desc>lat.=55.990532, lon.=26.500624, Alt.=97.352600m. Speed=0.072000m/h.</desc>
<speed>0.020000</speed>
</trkpt>
<trkpt lat="55.990532" lon="26.500624">
<ele>97.352600</ele>
<time>2010-06-20T09:23:41Z</time>
<desc>lat.=55.990532, lon.=26.500624, Alt.=97.352600m. Speed=0.108000m/h.</desc>
<speed>0.030000</speed>
</trkpt>
<trkpt lat="55.990532" lon="26.500624">
<ele>97.352600</ele>
<time>2010-06-20T09:23:42Z</time>
<desc>lat.=55.990532, lon.=26.500624, Alt.=97.352600m. Speed=0.036000m/h.</desc>
<speed>0.010000</speed>
</trkpt>
<trkpt lat="55.990532" lon="26.500624">
<ele>97.352600</ele>
<time>2010-06-20T09:23:43Z</time>
<desc>lat.=55.990532, lon.=26.500624, Alt.=97.352600m. Speed=0.000000m/h.</desc>
<speed>0.000000</speed>
</trkpt>
<trkpt lat="55.990532" lon="26.500624">
<ele>97.352600</ele>
<time>2010-06-20T09:23:44Z</time>
<desc>lat.=55.990532, lon.=26.500624, Alt.=97.352600m. Speed=0.036000m/h.</desc>
<speed>0.010000</speed>
</trkpt>
<trkpt lat="55.990532" lon="26.500624">
<ele>97.350647</ele>
<time>2010-06-20T09:23:45Z</time>
<desc>lat.=55.990532, lon.=26.500624, Alt.=97.350647m. Speed=0.000000m/h.</desc>
<speed>0.000000</speed>
</trkpt>
<trkpt lat="55.990532" lon="26.500624">
<ele>97.350647</ele>
<time>2010-06-20T09:23:46Z</time>
<desc>lat.=55.990532, lon.=26.500624, Alt.=97.350647m. Speed=0.072000m/h.</desc>
<speed>0.020000</speed>
</trkpt>
<trkpt lat="55.990532" lon="26.500624">
<ele>97.350647</ele>
<time>2010-06-20T09:23:47Z</time>
<desc>lat.=55.990532, lon.=26.500624, Alt.=97.350647m. Speed=0.036000m/h.</desc>
<speed>0.010000</speed>
</trkpt>
<trkpt lat="55.990532" lon="26.500624">
<ele>97.350647</ele>
<time>2010-06-20T09:23:48Z</time>
<desc>lat.=55.990532, lon.=26.500624, Alt.=97.350647m. Speed=0.000000m/h.</desc>
<speed>0.000000</speed>
</trkpt>
<trkpt lat="55.990532" lon="26.500624">
<ele>97.350647</ele>
<time>2010-06-20T09:23:49Z</time>
<desc>lat.=55.990532, lon.=26.500624, Alt.=97.350647m. Speed=0.000000m/h.</desc>
<speed>0.000000</speed>
</trkpt>
<trkpt lat="55.990532" lon="26.500624">
<ele>97.350647</ele>
<time>2010-06-20T09:23:50Z</time>
<desc>lat.=55.990532, lon.=26.500624, Alt.=97.350647m. Speed=0.036000m/h.</desc>
<speed>0.010000</speed>
</trkpt>
<trkpt lat="55.990532" lon="26.500624">
<ele>97.352600</ele>
<time>2010-06-20T09:23:51Z</time>
<desc>lat.=55.990532, lon.=26.500624, Alt.=97.352600m. Speed=0.000000m/h.</desc>
<speed>0.000000</speed>
</trkpt>
<trkpt lat="55.990532" lon="26.500624">
<ele>97.352600</ele>
<time>2010-06-20T09:23:52Z</time>
<desc>lat.=55.990532, lon.=26.500624, Alt.=97.352600m. Speed=0.000000m/h.</desc>
<speed>0.000000</speed>
</trkpt>
<trkpt lat="55.990532" lon="26.500624">
<ele>97.350647</ele>
<time>2010-06-20T09:23:53Z</time>
<desc>lat.=55.990532, lon.=26.500624, Alt.=97.350647m. Speed=0.036000m/h.</desc>
<speed>0.010000</speed>
</trkpt>
<trkpt lat="55.990532" lon="26.500624">
<ele>97.350647</ele>
<time>2010-06-20T09:23:54Z</time>
<desc>lat.=55.990532, lon.=26.500624, Alt.=97.350647m. Speed=0.036000m/h.</desc>
<speed>0.010000</speed>
</trkpt>
<trkpt lat="55.990532" lon="26.500624">
<ele>97.350647</ele>
<time>2010-06-20T09:23:55Z</time>
<desc>lat.=55.990532, lon.=26.500624, Alt.=97.350647m. Speed=0.036000m/h.</desc>
<speed>0.010000</speed>
</trkpt>
<trkpt lat="55.990532" lon="26.500624">
<ele>97.350647</ele>
<time>2010-06-20T09:23:56Z</time>
<desc>lat.=55.990532, lon.=26.500624, Alt.=97.350647m. Speed=0.144000m/h.</desc>
<speed>0.040000</speed>
</trkpt>
<trkpt lat="55.990532" lon="26.500624">
<ele>97.350647</ele>
<time>2010-06-20T09:23:57Z</time>
<desc>lat.=55.990532, lon.=26.500624, Alt.=97.350647m. Speed=0.072000m/h.</desc>
<speed>0.020000</speed>
</trkpt>
<trkpt lat="55.990532" lon="26.500624">
<ele>97.352600</ele>
<time>2010-06-20T09:23:58Z</time>
<desc>lat.=55.990532, lon.=26.500624, Alt.=97.352600m. Speed=0.072000m/h.</desc>
<speed>0.020000</speed>
</trkpt>
<trkpt lat="55.990532" lon="26.500624">
<ele>97.352600</ele>
<time>2010-06-20T09:23:59Z</time>
<desc>lat.=55.990532, lon.=26.500624, Alt.=97.352600m. Speed=0.180000m/h.</desc>
<speed>0.050000</speed>
</trkpt>
<trkpt lat="55.990532" lon="26.500624">
<ele>97.350647</ele>
<time>2010-06-20T09:24:00Z</time>
<desc>lat.=55.990532, lon.=26.500624, Alt.=97.350647m. Speed=0.108000m/h.</desc>
<speed>0.030000</speed>
</trkpt>
<trkpt lat="55.990532" lon="26.500624">
<ele>97.348694</ele>
<time>2010-06-20T09:24:01Z</time>
<desc>lat.=55.990532, lon.=26.500624, Alt.=97.348694m. Speed=0.000000m/h.</desc>
<speed>0.000000</speed>
</trkpt>
<trkpt lat="55.990532" lon="26.500624">
<ele>97.348694</ele>
<time>2010-06-20T09:24:02Z</time>
<desc>lat.=55.990532, lon.=26.500624, Alt.=97.348694m. Speed=0.036000m/h.</desc>
<speed>0.010000</speed>
</trkpt>
<trkpt lat="55.990532" lon="26.500624">
<ele>97.348694</ele>
<time>2010-06-20T09:24:03Z</time>
<desc>lat.=55.990532, lon.=26.500624, Alt.=97.348694m. Speed=0.000000m/h.</desc>
<speed>0.000000</speed>
</trkpt>
<trkpt lat="55.990532" lon="26.500624">
<ele>97.346741</ele>
<time>2010-06-20T09:24:04Z</time>
<desc>lat.=55.990532, lon.=26.500624, Alt.=97.346741m. Speed=0.000000m/h.</desc>
<speed>0.000000</speed>
</trkpt>
<trkpt lat="55.990532" lon="26.500624">
<ele>97.346741</ele>
<time>2010-06-20T09:24:05Z</time>
<desc>lat.=55.990532, lon.=26.500624, Alt.=97.346741m. Speed=0.000000m/h.</desc>
<speed>0.000000</speed>
</trkpt>
<trkpt lat="55.990532" lon="26.500624">
<ele>97.346741</ele>
<time>2010-06-20T09:24:06Z</time>
<desc>lat.=55.990532, lon.=26.500624, Alt.=97.346741m. Speed=0.000000m/h.</desc>
<speed>0.000000</speed>
</trkpt>
<trkpt lat="55.990532" lon="26.500624">
<ele>97.346741</ele>
<time>2010-06-20T09:24:07Z</time>
<desc>lat.=55.990532, lon.=26.500624, Alt.=97.346741m. Speed=0.036000m/h.</desc>
<speed>0.010000</speed>
</trkpt>
<trkpt lat="55.990532" lon="26.500624">
<ele>97.346741</ele>
<time>2010-06-20T09:24:08Z</time>
<desc>lat.=55.990532, lon.=26.500624, Alt.=97.346741m. Speed=0.000000m/h.</desc>
<speed>0.000000</speed>
</trkpt>
<trkpt lat="55.990532" lon="26.500624">
<ele>97.348694</ele>
<time>2010-06-20T09:24:09Z</time>
<desc>lat.=55.990532, lon.=26.500624, Alt.=97.348694m. Speed=0.072000m/h.</desc>
<speed>0.020000</speed>
</trkpt>
<trkpt lat="55.990532" lon="26.500624">
<ele>97.348694</ele>
<time>2010-06-20T09:24:10Z</time>
<desc>lat.=55.990532, lon.=26.500624, Alt.=97.348694m. Speed=0.072000m/h.</desc>
<speed>0.020000</speed>
</trkpt>
<trkpt lat="55.990532" lon="26.500624">
<ele>97.348694</ele>
<time>2010-06-20T09:24:11Z</time>
<desc>lat.=55.990532, lon.=26.500624, Alt.=97.348694m. Speed=0.036000m/h.</desc>
<speed>0.010000</speed>
</trkpt>
<trkpt lat="55.990532" lon="26.500624">
<ele>97.348694</ele>
<time>2010-06-20T09:24:12Z</time>
<desc>lat.=55.990532, lon.=26.500624, Alt.=97.348694m. Speed=0.036000m/h.</desc>
<speed>0.010000</speed>
</trkpt>
<trkpt lat="55.990532" lon="26.500624">
<ele>97.350647</ele>
<time>2010-06-20T09:24:13Z</time>
<desc>lat.=55.990532, lon.=26.500624, Alt.=97.350647m. Speed=0.144000m/h.</desc>
<speed>0.040000</speed>
</trkpt>
<trkpt lat="55.990532" lon="26.500624">
<ele>97.350647</ele>
<time>2010-06-20T09:24:14Z</time>
<desc>lat.=55.990532, lon.=26.500624, Alt.=97.350647m. Speed=0.036000m/h.</desc>
<speed>0.010000</speed>
</trkpt>
<trkpt lat="55.990532" lon="26.500624">
<ele>97.350647</ele>
<time>2010-06-20T09:24:15Z</time>
<desc>lat.=55.990532, lon.=26.500624, Alt.=97.350647m. Speed=0.072000m/h.</desc>
<speed>0.020000</speed>
</trkpt>
<trkpt lat="55.990532" lon="26.500624">
<ele>97.352600</ele>
<time>2010-06-20T09:24:16Z</time>
<desc>lat.=55.990532, lon.=26.500624, Alt.=97.352600m. Speed=0.036000m/h.</desc>
<speed>0.010000</speed>
</trkpt>
<trkpt lat="55.990532" lon="26.500624">
<ele>97.352600</ele>
<time>2010-06-20T09:24:17Z</time>
<desc>lat.=55.990532, lon.=26.500624, Alt.=97.352600m. Speed=0.036000m/h.</desc>
<speed>0.010000</speed>
</trkpt>
<trkpt lat="55.990532" lon="26.500624">
<ele>97.352600</ele>
<time>2010-06-20T09:24:18Z</time>
<desc>lat.=55.990532, lon.=26.500624, Alt.=97.352600m. Speed=0.072000m/h.</desc>
<speed>0.020000</speed>
</trkpt>
<trkpt lat="55.990532" lon="26.500624">
<ele>97.354553</ele>
<time>2010-06-20T09:24:19Z</time>
<desc>lat.=55.990532, lon.=26.500624, Alt.=97.354553m. Speed=0.036000m/h.</desc>
<speed>0.010000</speed>
</trkpt>
<trkpt lat="55.990532" lon="26.500624">
<ele>97.354553</ele>
<time>2010-06-20T09:24:20Z</time>
<desc>lat.=55.990532, lon.=26.500624, Alt.=97.354553m. Speed=0.108000m/h.</desc>
<speed>0.030000</speed>
</trkpt>
<trkpt lat="55.990532" lon="26.500624">
<ele>97.354553</ele>
<time>2010-06-20T09:24:21Z</time>
<desc>lat.=55.990532, lon.=26.500624, Alt.=97.354553m. Speed=0.072000m/h.</desc>
<speed>0.020000</speed>
</trkpt>
<trkpt lat="55.990532" lon="26.500624">
<ele>97.354553</ele>
<time>2010-06-20T09:24:22Z</time>
<desc>lat.=55.990532, lon.=26.500624, Alt.=97.354553m. Speed=0.000000m/h.</desc>
<speed>0.000000</speed>
</trkpt>
<trkpt lat="55.990532" lon="26.500624">
<ele>97.352600</ele>
<time>2010-06-20T09:24:23Z</time>
<desc>lat.=55.990532, lon.=26.500624, Alt.=97.352600m. Speed=0.144000m/h.</desc>
<speed>0.040000</speed>
</trkpt>
<trkpt lat="55.990532" lon="26.500624">
<ele>97.352600</ele>
<time>2010-06-20T09:24:24Z</time>
<desc>lat.=55.990532, lon.=26.500624, Alt.=97.352600m. Speed=0.036000m/h.</desc>
<speed>0.010000</speed>
</trkpt>
<trkpt lat="55.990532" lon="26.500624">
<ele>97.352600</ele>
<time>2010-06-20T09:24:25Z</time>
<desc>lat.=55.990532, lon.=26.500624, Alt.=97.352600m. Speed=0.000000m/h.</desc>
<speed>0.000000</speed>
</trkpt>
<trkpt lat="55.990532" lon="26.500624">
<ele>97.352600</ele>
<time>2010-06-20T09:24:26Z</time>
<desc>lat.=55.990532, lon.=26.500624, Alt.=97.352600m. Speed=0.000000m/h.</desc>
<speed>0.000000</speed>
</trkpt>
<trkpt lat="55.990532" lon="26.500624">
<ele>97.352600</ele>
<time>2010-06-20T09:24:27Z</time>
<desc>lat.=55.990532, lon.=26.500624, Alt.=97.352600m. Speed=0.072000m/h.</desc>
<speed>0.020000</speed>
</trkpt>
<trkpt lat="55.990532" lon="26.500624">
<ele>97.352600</ele>
<time>2010-06-20T09:24:28Z</time>
<desc>lat.=55.990532, lon.=26.500624, Alt.=97.352600m. Speed=0.036000m/h.</desc>
<speed>0.010000</speed>
</trkpt>
<trkpt lat="55.990532" lon="26.500624">
<ele>97.352600</ele>
<time>2010-06-20T09:24:29Z</time>
<desc>lat.=55.990532, lon.=26.500624, Alt.=97.352600m. Speed=0.000000m/h.</desc>
<speed>0.000000</speed>
</trkpt>
<trkpt lat="55.990532" lon="26.500622">
<ele>97.352600</ele>
<time>2010-06-20T09:24:30Z</time>
<desc>lat.=55.990532, lon.=26.500622, Alt.=97.352600m. Speed=0.000000m/h.</desc>
<speed>0.000000</speed>
</trkpt>
<trkpt lat="55.990532" lon="26.500622">
<ele>97.352600</ele>
<time>2010-06-20T09:24:31Z</time>
<desc>lat.=55.990532, lon.=26.500622, Alt.=97.352600m. Speed=0.036000m/h.</desc>
<speed>0.010000</speed>
</trkpt>
<trkpt lat="55.990532" lon="26.500622">
<ele>97.352600</ele>
<time>2010-06-20T09:24:32Z</time>
<desc>lat.=55.990532, lon.=26.500622, Alt.=97.352600m. Speed=0.000000m/h.</desc>
<speed>0.000000</speed>
</trkpt>
<trkpt lat="55.990532" lon="26.500622">
<ele>97.352600</ele>
<time>2010-06-20T09:24:33Z</time>
<desc>lat.=55.990532, lon.=26.500622, Alt.=97.352600m. Speed=0.000000m/h.</desc>
<speed>0.000000</speed>
</trkpt>
<trkpt lat="55.990532" lon="26.500622">
<ele>97.352600</ele>
<time>2010-06-20T09:24:34Z</time>
<desc>lat.=55.990532, lon.=26.500622, Alt.=97.352600m. Speed=0.000000m/h.</desc>
<speed>0.000000</speed>
</trkpt>
<trkpt lat="55.990532" lon="26.500622">
<ele>97.352600</ele>
<time>2010-06-20T09:24:35Z</time>
<desc>lat.=55.990532, lon.=26.500622, Alt.=97.352600m. Speed=0.000000m/h.</desc>
<speed>0.000000</speed>
</trkpt>
<trkpt lat="55.990532" lon="26.500622">
<ele>97.352600</ele>
<time>2010-06-20T09:24:36Z</time>
<desc>lat.=55.990532, lon.=26.500622, Alt.=97.352600m. Speed=0.036000m/h.</desc>
<speed>0.010000</speed>
</trkpt>
<trkpt lat="55.990532" lon="26.500622">
<ele>97.352600</ele>
<time>2010-06-20T09:24:37Z</time>
<desc>lat.=55.990532, lon.=26.500622, Alt.=97.352600m. Speed=0.000000m/h.</desc>
<speed>0.000000</speed>
</trkpt>
<trkpt lat="55.990532" lon="26.500622">
<ele>97.352600</ele>
<time>2010-06-20T09:24:38Z</time>
<desc>lat.=55.990532, lon.=26.500622, Alt.=97.352600m. Speed=0.000000m/h.</desc>
<speed>0.000000</speed>
</trkpt>
<trkpt lat="55.990532" lon="26.500622">
<ele>97.352600</ele>
<time>2010-06-20T09:24:39Z</time>
<desc>lat.=55.990532, lon.=26.500622, Alt.=97.352600m. Speed=0.000000m/h.</desc>
<speed>0.000000</speed>
</trkpt>
<trkpt lat="55.990532" lon="26.500622">
<ele>97.350647</ele>
<time>2010-06-20T09:24:40Z</time>
<desc>lat.=55.990532, lon.=26.500622, Alt.=97.350647m. Speed=0.036000m/h.</desc>
<speed>0.010000</speed>
</trkpt>
<trkpt lat="55.990532" lon="26.500622">
<ele>97.352600</ele>
<time>2010-06-20T09:24:41Z</time>
<desc>lat.=55.990532, lon.=26.500622, Alt.=97.352600m. Speed=0.036000m/h.</desc>
<speed>0.010000</speed>
</trkpt>
<trkpt lat="55.990532" lon="26.500622">
<ele>97.350647</ele>
<time>2010-06-20T09:24:42Z</time>
<desc>lat.=55.990532, lon.=26.500622, Alt.=97.350647m. Speed=0.000000m/h.</desc>
<speed>0.000000</speed>
</trkpt>
<trkpt lat="55.990532" lon="26.500622">
<ele>97.352600</ele>
<time>2010-06-20T09:24:43Z</time>
<desc>lat.=55.990532, lon.=26.500622, Alt.=97.352600m. Speed=0.036000m/h.</desc>
<speed>0.010000</speed>
</trkpt>
<trkpt lat="55.990532" lon="26.500622">
<ele>97.350647</ele>
<time>2010-06-20T09:24:44Z</time>
<desc>lat.=55.990532, lon.=26.500622, Alt.=97.350647m. Speed=0.000000m/h.</desc>
<speed>0.000000</speed>
</trkpt>
<trkpt lat="55.990532" lon="26.500622">
<ele>97.350647</ele>
<time>2010-06-20T09:24:45Z</time>
<desc>lat.=55.990532, lon.=26.500622, Alt.=97.350647m. Speed=0.000000m/h.</desc>
<speed>0.000000</speed>
</trkpt>
<trkpt lat="55.990532" lon="26.500622">
<ele>97.350647</ele>
<time>2010-06-20T09:24:46Z</time>
<desc>lat.=55.990532, lon.=26.500622, Alt.=97.350647m. Speed=0.036000m/h.</desc>
<speed>0.010000</speed>
</trkpt>
<trkpt lat="55.990532" lon="26.500622">
<ele>97.352600</ele>
<time>2010-06-20T09:24:47Z</time>
<desc>lat.=55.990532, lon.=26.500622, Alt.=97.352600m. Speed=0.072000m/h.</desc>
<speed>0.020000</speed>
</trkpt>
<trkpt lat="55.990532" lon="26.500622">
<ele>97.358459</ele>
<time>2010-06-20T09:24:48Z</time>
<desc>lat.=55.990532, lon.=26.500622, Alt.=97.358459m. Speed=0.216000m/h.</desc>
<speed>0.060000</speed>
</trkpt>
<trkpt lat="55.990532" lon="26.500622">
<ele>97.358459</ele>
<time>2010-06-20T09:24:49Z</time>
<desc>lat.=55.990532, lon.=26.500622, Alt.=97.358459m. Speed=0.108000m/h.</desc>
<speed>0.030000</speed>
</trkpt>
<trkpt lat="55.990532" lon="26.500622">
<ele>97.360413</ele>
<time>2010-06-20T09:24:50Z</time>
<desc>lat.=55.990532, lon.=26.500622, Alt.=97.360413m. Speed=0.000000m/h.</desc>
<speed>0.000000</speed>
</trkpt>
<trkpt lat="55.990532" lon="26.500622">
<ele>97.364319</ele>
<time>2010-06-20T09:24:51Z</time>
<desc>lat.=55.990532, lon.=26.500622, Alt.=97.364319m. Speed=0.036000m/h.</desc>
<speed>0.010000</speed>
</trkpt>
<trkpt lat="55.990532" lon="26.500622">
<ele>97.366272</ele>
<time>2010-06-20T09:24:52Z</time>
<desc>lat.=55.990532, lon.=26.500622, Alt.=97.366272m. Speed=0.108000m/h.</desc>
<speed>0.030000</speed>
</trkpt>
<trkpt lat="55.990532" lon="26.500622">
<ele>97.366272</ele>
<time>2010-06-20T09:24:53Z</time>
<desc>lat.=55.990532, lon.=26.500622, Alt.=97.366272m. Speed=0.072000m/h.</desc>
<speed>0.020000</speed>
</trkpt>
<trkpt lat="55.990532" lon="26.500622">
<ele>97.364319</ele>
<time>2010-06-20T09:24:54Z</time>
<desc>lat.=55.990532, lon.=26.500622, Alt.=97.364319m. Speed=0.036000m/h.</desc>
<speed>0.010000</speed>
</trkpt>
<trkpt lat="55.990532" lon="26.500622">
<ele>97.366272</ele>
<time>2010-06-20T09:24:55Z</time>
<desc>lat.=55.990532, lon.=26.500622, Alt.=97.366272m. Speed=0.072000m/h.</desc>
<speed>0.020000</speed>
</trkpt>
<trkpt lat="55.990532" lon="26.500622">
<ele>97.366272</ele>
<time>2010-06-20T09:24:56Z</time>
<desc>lat.=55.990532, lon.=26.500622, Alt.=97.366272m. Speed=0.036000m/h.</desc>
<speed>0.010000</speed>
</trkpt>
<trkpt lat="55.990532" lon="26.500622">
<ele>97.366272</ele>
<time>2010-06-20T09:24:57Z</time>
<desc>lat.=55.990532, lon.=26.500622, Alt.=97.366272m. Speed=0.000000m/h.</desc>
<speed>0.000000</speed>
</trkpt>
<trkpt lat="55.990532" lon="26.500622">
<ele>97.366272</ele>
<time>2010-06-20T09:24:58Z</time>
<desc>lat.=55.990532, lon.=26.500622, Alt.=97.366272m. Speed=0.036000m/h.</desc>
<speed>0.010000</speed>
</trkpt>
<trkpt lat="55.990532" lon="26.500620">
<ele>97.366272</ele>
<time>2010-06-20T09:24:59Z</time>
<desc>lat.=55.990532, lon.=26.500620, Alt.=97.366272m. Speed=0.072000m/h.</desc>
<speed>0.020000</speed>
</trkpt>
<trkpt lat="55.990532" lon="26.500622">
<ele>97.366272</ele>
<time>2010-06-20T09:25:00Z</time>
<desc>lat.=55.990532, lon.=26.500622, Alt.=97.366272m. Speed=0.000000m/h.</desc>
<speed>0.000000</speed>
</trkpt>
<trkpt lat="55.990532" lon="26.500620">
<ele>97.366272</ele>
<time>2010-06-20T09:25:01Z</time>
<desc>lat.=55.990532, lon.=26.500620, Alt.=97.366272m. Speed=0.000000m/h.</desc>
<speed>0.000000</speed>
</trkpt>
<trkpt lat="55.990532" lon="26.500620">
<ele>97.366272</ele>
<time>2010-06-20T09:25:02Z</time>
<desc>lat.=55.990532, lon.=26.500620, Alt.=97.366272m. Speed=0.036000m/h.</desc>
<speed>0.010000</speed>
</trkpt>
<trkpt lat="55.990532" lon="26.500620">
<ele>97.366272</ele>
<time>2010-06-20T09:25:03Z</time>
<desc>lat.=55.990532, lon.=26.500620, Alt.=97.366272m. Speed=0.036000m/h.</desc>
<speed>0.010000</speed>
</trkpt>
<trkpt lat="55.990532" lon="26.500620">
<ele>97.366272</ele>
<time>2010-06-20T09:25:04Z</time>
<desc>lat.=55.990532, lon.=26.500620, Alt.=97.366272m. Speed=0.036000m/h.</desc>
<speed>0.010000</speed>
</trkpt>
<trkpt lat="55.990532" lon="26.500620">
<ele>97.368225</ele>
<time>2010-06-20T09:25:05Z</time>
<desc>lat.=55.990532, lon.=26.500620, Alt.=97.368225m. Speed=0.072000m/h.</desc>
<speed>0.020000</speed>
</trkpt>
<trkpt lat="55.990532" lon="26.500620">
<ele>97.368225</ele>
<time>2010-06-20T09:25:06Z</time>
<desc>lat.=55.990532, lon.=26.500620, Alt.=97.368225m. Speed=0.036000m/h.</desc>
<speed>0.010000</speed>
</trkpt>
<trkpt lat="55.990532" lon="26.500620">
<ele>97.368225</ele>
<time>2010-06-20T09:25:07Z</time>
<desc>lat.=55.990532, lon.=26.500620, Alt.=97.368225m. Speed=0.036000m/h.</desc>
<speed>0.010000</speed>
</trkpt>
<trkpt lat="55.990532" lon="26.500620">
<ele>97.368225</ele>
<time>2010-06-20T09:25:08Z</time>
<desc>lat.=55.990532, lon.=26.500620, Alt.=97.368225m. Speed=0.108000m/h.</desc>
<speed>0.030000</speed>
</trkpt>
<trkpt lat="55.990532" lon="26.500620">
<ele>97.366272</ele>
<time>2010-06-20T09:25:09Z</time>
<desc>lat.=55.990532, lon.=26.500620, Alt.=97.366272m. Speed=0.036000m/h.</desc>
<speed>0.010000</speed>
</trkpt>
<trkpt lat="55.990532" lon="26.500620">
<ele>97.368225</ele>
<time>2010-06-20T09:25:10Z</time>
<desc>lat.=55.990532, lon.=26.500620, Alt.=97.368225m. Speed=0.000000m/h.</desc>
<speed>0.000000</speed>
</trkpt>
<trkpt lat="55.990532" lon="26.500620">
<ele>97.368225</ele>
<time>2010-06-20T09:25:11Z</time>
<desc>lat.=55.990532, lon.=26.500620, Alt.=97.368225m. Speed=0.000000m/h.</desc>
<speed>0.000000</speed>
</trkpt>
<trkpt lat="55.990532" lon="26.500620">
<ele>97.368225</ele>
<time>2010-06-20T09:25:12Z</time>
<desc>lat.=55.990532, lon.=26.500620, Alt.=97.368225m. Speed=0.000000m/h.</desc>
<speed>0.000000</speed>
</trkpt>
<trkpt lat="55.990532" lon="26.500620">
<ele>97.368225</ele>
<time>2010-06-20T09:25:13Z</time>
<desc>lat.=55.990532, lon.=26.500620, Alt.=97.368225m. Speed=0.072000m/h.</desc>
<speed>0.020000</speed>
</trkpt>
<trkpt lat="55.990532" lon="26.500620">
<ele>97.368225</ele>
<time>2010-06-20T09:25:14Z</time>
<desc>lat.=55.990532, lon.=26.500620, Alt.=97.368225m. Speed=0.036000m/h.</desc>
<speed>0.010000</speed>
</trkpt>
<trkpt lat="55.990532" lon="26.500620">
<ele>97.368225</ele>
<time>2010-06-20T09:25:15Z</time>
<desc>lat.=55.990532, lon.=26.500620, Alt.=97.368225m. Speed=0.180000m/h.</desc>
<speed>0.050000</speed>
</trkpt>
<trkpt lat="55.990532" lon="26.500620">
<ele>97.368225</ele>
<time>2010-06-20T09:25:16Z</time>
<desc>lat.=55.990532, lon.=26.500620, Alt.=97.368225m. Speed=0.072000m/h.</desc>
<speed>0.020000</speed>
</trkpt>
<trkpt lat="55.990532" lon="26.500620">
<ele>97.368225</ele>
<time>2010-06-20T09:25:17Z</time>
<desc>lat.=55.990532, lon.=26.500620, Alt.=97.368225m. Speed=0.000000m/h.</desc>
<speed>0.000000</speed>
</trkpt>
<trkpt lat="55.990532" lon="26.500620">
<ele>97.368225</ele>
<time>2010-06-20T09:25:18Z</time>
<desc>lat.=55.990532, lon.=26.500620, Alt.=97.368225m. Speed=0.036000m/h.</desc>
<speed>0.010000</speed>
</trkpt>
<trkpt lat="55.990532" lon="26.500620">
<ele>97.370178</ele>
<time>2010-06-20T09:25:19Z</time>
<desc>lat.=55.990532, lon.=26.500620, Alt.=97.370178m. Speed=0.036000m/h.</desc>
<speed>0.010000</speed>
</trkpt>
<trkpt lat="55.990532" lon="26.500620">
<ele>97.370178</ele>
<time>2010-06-20T09:25:20Z</time>
<desc>lat.=55.990532, lon.=26.500620, Alt.=97.370178m. Speed=0.000000m/h.</desc>
<speed>0.000000</speed>
</trkpt>
<trkpt lat="55.990532" lon="26.500620">
<ele>97.370178</ele>
<time>2010-06-20T09:25:21Z</time>
<desc>lat.=55.990532, lon.=26.500620, Alt.=97.370178m. Speed=0.000000m/h.</desc>
<speed>0.000000</speed>
</trkpt>
<trkpt lat="55.990532" lon="26.500620">
<ele>97.370178</ele>
<time>2010-06-20T09:25:22Z</time>
<desc>lat.=55.990532, lon.=26.500620, Alt.=97.370178m. Speed=0.072000m/h.</desc>
<speed>0.020000</speed>
</trkpt>
<trkpt lat="55.990532" lon="26.500620">
<ele>97.370178</ele>
<time>2010-06-20T09:25:23Z</time>
<desc>lat.=55.990532, lon.=26.500620, Alt.=97.370178m. Speed=0.036000m/h.</desc>
<speed>0.010000</speed>
</trkpt>
<trkpt lat="55.990532" lon="26.500620">
<ele>97.370178</ele>
<time>2010-06-20T09:25:24Z</time>
<desc>lat.=55.990532, lon.=26.500620, Alt.=97.370178m. Speed=0.108000m/h.</desc>
<speed>0.030000</speed>
</trkpt>
<trkpt lat="55.990532" lon="26.500620">
<ele>97.370178</ele>
<time>2010-06-20T09:25:25Z</time>
<desc>lat.=55.990532, lon.=26.500620, Alt.=97.370178m. Speed=0.000000m/h.</desc>
<speed>0.000000</speed>
</trkpt>
<trkpt lat="55.990532" lon="26.500620">
<ele>97.372131</ele>
<time>2010-06-20T09:25:26Z</time>
<desc>lat.=55.990532, lon.=26.500620, Alt.=97.372131m. Speed=0.072000m/h.</desc>
<speed>0.020000</speed>
</trkpt>
<trkpt lat="55.990532" lon="26.500620">
<ele>97.372131</ele>
<time>2010-06-20T09:25:27Z</time>
<desc>lat.=55.990532, lon.=26.500620, Alt.=97.372131m. Speed=0.108000m/h.</desc>
<speed>0.030000</speed>
</trkpt>
<trkpt lat="55.990532" lon="26.500620">
<ele>97.374084</ele>
<time>2010-06-20T09:25:28Z</time>
<desc>lat.=55.990532, lon.=26.500620, Alt.=97.374084m. Speed=0.072000m/h.</desc>
<speed>0.020000</speed>
</trkpt>
<trkpt lat="55.990532" lon="26.500620">
<ele>97.376038</ele>
<time>2010-06-20T09:25:29Z</time>
<desc>lat.=55.990532, lon.=26.500620, Alt.=97.376038m. Speed=0.108000m/h.</desc>
<speed>0.030000</speed>
</trkpt>
<trkpt lat="55.990532" lon="26.500620">
<ele>97.376038</ele>
<time>2010-06-20T09:25:30Z</time>
<desc>lat.=55.990532, lon.=26.500620, Alt.=97.376038m. Speed=0.036000m/h.</desc>
<speed>0.010000</speed>
</trkpt>
<trkpt lat="55.990532" lon="26.500620">
<ele>97.376038</ele>
<time>2010-06-20T09:25:31Z</time>
<desc>lat.=55.990532, lon.=26.500620, Alt.=97.376038m. Speed=0.036000m/h.</desc>
<speed>0.010000</speed>
</trkpt>
<trkpt lat="55.990532" lon="26.500620">
<ele>97.377991</ele>
<time>2010-06-20T09:25:32Z</time>
<desc>lat.=55.990532, lon.=26.500620, Alt.=97.377991m. Speed=0.036000m/h.</desc>
<speed>0.010000</speed>
</trkpt>
<trkpt lat="55.990532" lon="26.500620">
<ele>97.377991</ele>
<time>2010-06-20T09:25:33Z</time>
<desc>lat.=55.990532, lon.=26.500620, Alt.=97.377991m. Speed=0.072000m/h.</desc>
<speed>0.020000</speed>
</trkpt>
<trkpt lat="55.990532" lon="26.500620">
<ele>97.379944</ele>
<time>2010-06-20T09:25:34Z</time>
<desc>lat.=55.990532, lon.=26.500620, Alt.=97.379944m. Speed=0.180000m/h.</desc>
<speed>0.050000</speed>
</trkpt>
<trkpt lat="55.990532" lon="26.500620">
<ele>97.381897</ele>
<time>2010-06-20T09:25:35Z</time>
<desc>lat.=55.990532, lon.=26.500620, Alt.=97.381897m. Speed=0.180000m/h.</desc>
<speed>0.050000</speed>
</trkpt>
<trkpt lat="55.990532" lon="26.500620">
<ele>97.383850</ele>
<time>2010-06-20T09:25:36Z</time>
<desc>lat.=55.990532, lon.=26.500620, Alt.=97.383850m. Speed=0.072000m/h.</desc>
<speed>0.020000</speed>
</trkpt>
<trkpt lat="55.990532" lon="26.500620">
<ele>97.383850</ele>
<time>2010-06-20T09:25:37Z</time>
<desc>lat.=55.990532, lon.=26.500620, Alt.=97.383850m. Speed=0.072000m/h.</desc>
<speed>0.020000</speed>
</trkpt>
<trkpt lat="55.990532" lon="26.500620">
<ele>97.385803</ele>
<time>2010-06-20T09:25:38Z</time>
<desc>lat.=55.990532, lon.=26.500620, Alt.=97.385803m. Speed=0.036000m/h.</desc>
<speed>0.010000</speed>
</trkpt>
<trkpt lat="55.990532" lon="26.500620">
<ele>97.385803</ele>
<time>2010-06-20T09:25:39Z</time>
<desc>lat.=55.990532, lon.=26.500620, Alt.=97.385803m. Speed=0.036000m/h.</desc>
<speed>0.010000</speed>
</trkpt>
<trkpt lat="55.990532" lon="26.500620">
<ele>97.387756</ele>
<time>2010-06-20T09:25:40Z</time>
<desc>lat.=55.990532, lon.=26.500620, Alt.=97.387756m. Speed=0.072000m/h.</desc>
<speed>0.020000</speed>
</trkpt>
<trkpt lat="55.990532" lon="26.500620">
<ele>97.387756</ele>
<time>2010-06-20T09:25:41Z</time>
<desc>lat.=55.990532, lon.=26.500620, Alt.=97.387756m. Speed=0.180000m/h.</desc>
<speed>0.050000</speed>
</trkpt>
<trkpt lat="55.990532" lon="26.500618">
<ele>97.391663</ele>
<time>2010-06-20T09:25:42Z</time>
<desc>lat.=55.990532, lon.=26.500618, Alt.=97.391663m. Speed=0.000000m/h.</desc>
<speed>0.000000</speed>
</trkpt>
<trkpt lat="55.990532" lon="26.500618">
<ele>97.399475</ele>
<time>2010-06-20T09:25:43Z</time>
<desc>lat.=55.990532, lon.=26.500618, Alt.=97.399475m. Speed=0.036000m/h.</desc>
<speed>0.010000</speed>
</trkpt>
<trkpt lat="55.990532" lon="26.500618">
<ele>97.399475</ele>
<time>2010-06-20T09:25:44Z</time>
<desc>lat.=55.990532, lon.=26.500618, Alt.=97.399475m. Speed=0.036000m/h.</desc>
<speed>0.010000</speed>
</trkpt>
<trkpt lat="55.990532" lon="26.500618">
<ele>97.399475</ele>
<time>2010-06-20T09:25:45Z</time>
<desc>lat.=55.990532, lon.=26.500618, Alt.=97.399475m. Speed=0.036000m/h.</desc>
<speed>0.010000</speed>
</trkpt>
<trkpt lat="55.990532" lon="26.500618">
<ele>97.399475</ele>
<time>2010-06-20T09:25:46Z</time>
<desc>lat.=55.990532, lon.=26.500618, Alt.=97.399475m. Speed=0.036000m/h.</desc>
<speed>0.010000</speed>
</trkpt>
<trkpt lat="55.990532" lon="26.500618">
<ele>97.399475</ele>
<time>2010-06-20T09:25:47Z</time>
<desc>lat.=55.990532, lon.=26.500618, Alt.=97.399475m. Speed=0.072000m/h.</desc>
<speed>0.020000</speed>
</trkpt>
<trkpt lat="55.990532" lon="26.500618">
<ele>97.399475</ele>
<time>2010-06-20T09:25:48Z</time>
<desc>lat.=55.990532, lon.=26.500618, Alt.=97.399475m. Speed=0.000000m/h.</desc>
<speed>0.000000</speed>
</trkpt>
<trkpt lat="55.990532" lon="26.500618">
<ele>97.399475</ele>
<time>2010-06-20T09:25:49Z</time>
<desc>lat.=55.990532, lon.=26.500618, Alt.=97.399475m. Speed=0.000000m/h.</desc>
<speed>0.000000</speed>
</trkpt>
<trkpt lat="55.990532" lon="26.500618">
<ele>97.401428</ele>
<time>2010-06-20T09:25:50Z</time>
<desc>lat.=55.990532, lon.=26.500618, Alt.=97.401428m. Speed=0.000000m/h.</desc>
<speed>0.000000</speed>
</trkpt>
<trkpt lat="55.990532" lon="26.500618">
<ele>97.401428</ele>
<time>2010-06-20T09:25:51Z</time>
<desc>lat.=55.990532, lon.=26.500618, Alt.=97.401428m. Speed=0.036000m/h.</desc>
<speed>0.010000</speed>
</trkpt>
<trkpt lat="55.990532" lon="26.500618">
<ele>97.403381</ele>
<time>2010-06-20T09:25:52Z</time>
<desc>lat.=55.990532, lon.=26.500618, Alt.=97.403381m. Speed=0.072000m/h.</desc>
<speed>0.020000</speed>
</trkpt>
<trkpt lat="55.990532" lon="26.500618">
<ele>97.405334</ele>
<time>2010-06-20T09:25:53Z</time>
<desc>lat.=55.990532, lon.=26.500618, Alt.=97.405334m. Speed=0.108000m/h.</desc>
<speed>0.030000</speed>
</trkpt>
<trkpt lat="55.990532" lon="26.500618">
<ele>97.407288</ele>
<time>2010-06-20T09:25:54Z</time>
<desc>lat.=55.990532, lon.=26.500618, Alt.=97.407288m. Speed=0.108000m/h.</desc>
<speed>0.030000</speed>
</trkpt>
<trkpt lat="55.990532" lon="26.500618">
<ele>97.409241</ele>
<time>2010-06-20T09:25:55Z</time>
<desc>lat.=55.990532, lon.=26.500618, Alt.=97.409241m. Speed=0.180000m/h.</desc>
<speed>0.050000</speed>
</trkpt>
<trkpt lat="55.990532" lon="26.500618">
<ele>97.407288</ele>
<time>2010-06-20T09:25:56Z</time>
<desc>lat.=55.990532, lon.=26.500618, Alt.=97.407288m. Speed=0.036000m/h.</desc>
<speed>0.010000</speed>
</trkpt>
<trkpt lat="55.990532" lon="26.500618">
<ele>97.405334</ele>
<time>2010-06-20T09:25:57Z</time>
<desc>lat.=55.990532, lon.=26.500618, Alt.=97.405334m. Speed=0.000000m/h.</desc>
<speed>0.000000</speed>
</trkpt>
<trkpt lat="55.990532" lon="26.500618">
<ele>97.407288</ele>
<time>2010-06-20T09:25:58Z</time>
<desc>lat.=55.990532, lon.=26.500618, Alt.=97.407288m. Speed=0.000000m/h.</desc>
<speed>0.000000</speed>
</trkpt>
<trkpt lat="55.990532" lon="26.500618">
<ele>97.407288</ele>
<time>2010-06-20T09:25:59Z</time>
<desc>lat.=55.990532, lon.=26.500618, Alt.=97.407288m. Speed=0.036000m/h.</desc>
<speed>0.010000</speed>
</trkpt>
<trkpt lat="55.990532" lon="26.500618">
<ele>97.411194</ele>
<time>2010-06-20T09:26:00Z</time>
<desc>lat.=55.990532, lon.=26.500618, Alt.=97.411194m. Speed=0.108000m/h.</desc>
<speed>0.030000</speed>
</trkpt>
<trkpt lat="55.990532" lon="26.500618">
<ele>97.413147</ele>
<time>2010-06-20T09:26:01Z</time>
<desc>lat.=55.990532, lon.=26.500618, Alt.=97.413147m. Speed=0.036000m/h.</desc>
<speed>0.010000</speed>
</trkpt>
<trkpt lat="55.990532" lon="26.500618">
<ele>97.415100</ele>
<time>2010-06-20T09:26:02Z</time>
<desc>lat.=55.990532, lon.=26.500618, Alt.=97.415100m. Speed=0.216000m/h.</desc>
<speed>0.060000</speed>
</trkpt>
<trkpt lat="55.990532" lon="26.500618">
<ele>97.413147</ele>
<time>2010-06-20T09:26:03Z</time>
<desc>lat.=55.990532, lon.=26.500618, Alt.=97.413147m. Speed=0.072000m/h.</desc>
<speed>0.020000</speed>
</trkpt>
<trkpt lat="55.990532" lon="26.500618">
<ele>97.409241</ele>
<time>2010-06-20T09:26:04Z</time>
<desc>lat.=55.990532, lon.=26.500618, Alt.=97.409241m. Speed=0.072000m/h.</desc>
<speed>0.020000</speed>
</trkpt>
<trkpt lat="55.990532" lon="26.500618">
<ele>97.411194</ele>
<time>2010-06-20T09:26:05Z</time>
<desc>lat.=55.990532, lon.=26.500618, Alt.=97.411194m. Speed=0.000000m/h.</desc>
<speed>0.000000</speed>
</trkpt>
<trkpt lat="55.990532" lon="26.500618">
<ele>97.411194</ele>
<time>2010-06-20T09:26:06Z</time>
<desc>lat.=55.990532, lon.=26.500618, Alt.=97.411194m. Speed=0.036000m/h.</desc>
<speed>0.010000</speed>
</trkpt>
<trkpt lat="55.990532" lon="26.500618">
<ele>97.413147</ele>
<time>2010-06-20T09:26:07Z</time>
<desc>lat.=55.990532, lon.=26.500618, Alt.=97.413147m. Speed=0.072000m/h.</desc>
<speed>0.020000</speed>
</trkpt>
<trkpt lat="55.990532" lon="26.500618">
<ele>97.415100</ele>
<time>2010-06-20T09:26:08Z</time>
<desc>lat.=55.990532, lon.=26.500618, Alt.=97.415100m. Speed=0.072000m/h.</desc>
<speed>0.020000</speed>
</trkpt>
<trkpt lat="55.990532" lon="26.500618">
<ele>97.415100</ele>
<time>2010-06-20T09:26:09Z</time>
<desc>lat.=55.990532, lon.=26.500618, Alt.=97.415100m. Speed=0.000000m/h.</desc>
<speed>0.000000</speed>
</trkpt>
<trkpt lat="55.990532" lon="26.500618">
<ele>97.415100</ele>
<time>2010-06-20T09:26:10Z</time>
<desc>lat.=55.990532, lon.=26.500618, Alt.=97.415100m. Speed=0.072000m/h.</desc>
<speed>0.020000</speed>
</trkpt>
<trkpt lat="55.990532" lon="26.500618">
<ele>97.415100</ele>
<time>2010-06-20T09:26:11Z</time>
<desc>lat.=55.990532, lon.=26.500618, Alt.=97.415100m. Speed=0.000000m/h.</desc>
<speed>0.000000</speed>
</trkpt>
<trkpt lat="55.990532" lon="26.500618">
<ele>97.417053</ele>
<time>2010-06-20T09:26:12Z</time>
<desc>lat.=55.990532, lon.=26.500618, Alt.=97.417053m. Speed=0.036000m/h.</desc>
<speed>0.010000</speed>
</trkpt>
<trkpt lat="55.990532" lon="26.500618">
<ele>97.417053</ele>
<time>2010-06-20T09:26:13Z</time>
<desc>lat.=55.990532, lon.=26.500618, Alt.=97.417053m. Speed=0.144000m/h.</desc>
<speed>0.040000</speed>
</trkpt>
<trkpt lat="55.990532" lon="26.500618">
<ele>97.420959</ele>
<time>2010-06-20T09:26:14Z</time>
<desc>lat.=55.990532, lon.=26.500618, Alt.=97.420959m. Speed=0.000000m/h.</desc>
<speed>0.000000</speed>
</trkpt>
<trkpt lat="55.990532" lon="26.500618">
<ele>97.422913</ele>
<time>2010-06-20T09:26:15Z</time>
<desc>lat.=55.990532, lon.=26.500618, Alt.=97.422913m. Speed=0.036000m/h.</desc>
<speed>0.010000</speed>
</trkpt>
<trkpt lat="55.990532" lon="26.500618">
<ele>97.426819</ele>
<time>2010-06-20T09:26:16Z</time>
<desc>lat.=55.990532, lon.=26.500618, Alt.=97.426819m. Speed=0.072000m/h.</desc>
<speed>0.020000</speed>
</trkpt>
<trkpt lat="55.990532" lon="26.500618">
<ele>97.430725</ele>
<time>2010-06-20T09:26:17Z</time>
<desc>lat.=55.990532, lon.=26.500618, Alt.=97.430725m. Speed=0.000000m/h.</desc>
<speed>0.000000</speed>
</trkpt>
<trkpt lat="55.990532" lon="26.500618">
<ele>97.430725</ele>
<time>2010-06-20T09:26:18Z</time>
<desc>lat.=55.990532, lon.=26.500618, Alt.=97.430725m. Speed=0.000000m/h.</desc>
<speed>0.000000</speed>
</trkpt>
<trkpt lat="55.990532" lon="26.500618">
<ele>97.432678</ele>
<time>2010-06-20T09:26:19Z</time>
<desc>lat.=55.990532, lon.=26.500618, Alt.=97.432678m. Speed=0.072000m/h.</desc>
<speed>0.020000</speed>
</trkpt>
<trkpt lat="55.990532" lon="26.500618">
<ele>97.432678</ele>
<time>2010-06-20T09:26:20Z</time>
<desc>lat.=55.990532, lon.=26.500618, Alt.=97.432678m. Speed=0.036000m/h.</desc>
<speed>0.010000</speed>
</trkpt>
<trkpt lat="55.990532" lon="26.500618">
<ele>97.434631</ele>
<time>2010-06-20T09:26:21Z</time>
<desc>lat.=55.990532, lon.=26.500618, Alt.=97.434631m. Speed=0.000000m/h.</desc>
<speed>0.000000</speed>
</trkpt>
<trkpt lat="55.990532" lon="26.500618">
<ele>97.434631</ele>
<time>2010-06-20T09:26:22Z</time>
<desc>lat.=55.990532, lon.=26.500618, Alt.=97.434631m. Speed=0.000000m/h.</desc>
<speed>0.000000</speed>
</trkpt>
<trkpt lat="55.990532" lon="26.500618">
<ele>97.436584</ele>
<time>2010-06-20T09:26:23Z</time>
<desc>lat.=55.990532, lon.=26.500618, Alt.=97.436584m. Speed=0.072000m/h.</desc>
<speed>0.020000</speed>
</trkpt>
<trkpt lat="55.990532" lon="26.500618">
<ele>97.436584</ele>
<time>2010-06-20T09:26:24Z</time>
<desc>lat.=55.990532, lon.=26.500618, Alt.=97.436584m. Speed=0.000000m/h.</desc>
<speed>0.000000</speed>
</trkpt>
<trkpt lat="55.990532" lon="26.500618">
<ele>97.436584</ele>
<time>2010-06-20T09:26:25Z</time>
<desc>lat.=55.990532, lon.=26.500618, Alt.=97.436584m. Speed=0.000000m/h.</desc>
<speed>0.000000</speed>
</trkpt>
<trkpt lat="55.990532" lon="26.500618">
<ele>97.436584</ele>
<time>2010-06-20T09:26:26Z</time>
<desc>lat.=55.990532, lon.=26.500618, Alt.=97.436584m. Speed=0.036000m/h.</desc>
<speed>0.010000</speed>
</trkpt>
<trkpt lat="55.990532" lon="26.500618">
<ele>97.440491</ele>
<time>2010-06-20T09:26:27Z</time>
<desc>lat.=55.990532, lon.=26.500618, Alt.=97.440491m. Speed=0.036000m/h.</desc>
<speed>0.010000</speed>
</trkpt>
<trkpt lat="55.990532" lon="26.500618">
<ele>97.440491</ele>
<time>2010-06-20T09:26:28Z</time>
<desc>lat.=55.990532, lon.=26.500618, Alt.=97.440491m. Speed=0.000000m/h.</desc>
<speed>0.000000</speed>
</trkpt>
<trkpt lat="55.990532" lon="26.500618">
<ele>97.440491</ele>
<time>2010-06-20T09:26:29Z</time>
<desc>lat.=55.990532, lon.=26.500618, Alt.=97.440491m. Speed=0.036000m/h.</desc>
<speed>0.010000</speed>
</trkpt>
<trkpt lat="55.990532" lon="26.500618">
<ele>97.440491</ele>
<time>2010-06-20T09:26:30Z</time>
<desc>lat.=55.990532, lon.=26.500618, Alt.=97.440491m. Speed=0.000000m/h.</desc>
<speed>0.000000</speed>
</trkpt>
<trkpt lat="55.990532" lon="26.500618">
<ele>97.440491</ele>
<time>2010-06-20T09:26:31Z</time>
<desc>lat.=55.990532, lon.=26.500618, Alt.=97.440491m. Speed=0.000000m/h.</desc>
<speed>0.000000</speed>
</trkpt>
<trkpt lat="55.990532" lon="26.500618">
<ele>97.440491</ele>
<time>2010-06-20T09:26:32Z</time>
<desc>lat.=55.990532, lon.=26.500618, Alt.=97.440491m. Speed=0.000000m/h.</desc>
<speed>0.000000</speed>
</trkpt>
<trkpt lat="55.990532" lon="26.500618">
<ele>97.444397</ele>
<time>2010-06-20T09:26:33Z</time>
<desc>lat.=55.990532, lon.=26.500618, Alt.=97.444397m. Speed=0.000000m/h.</desc>
<speed>0.000000</speed>
</trkpt>
<trkpt lat="55.990532" lon="26.500618">
<ele>97.444397</ele>
<time>2010-06-20T09:26:34Z</time>
<desc>lat.=55.990532, lon.=26.500618, Alt.=97.444397m. Speed=0.036000m/h.</desc>
<speed>0.010000</speed>
</trkpt>
<trkpt lat="55.990532" lon="26.500618">
<ele>97.448303</ele>
<time>2010-06-20T09:26:35Z</time>
<desc>lat.=55.990532, lon.=26.500618, Alt.=97.448303m. Speed=0.000000m/h.</desc>
<speed>0.000000</speed>
</trkpt>
<trkpt lat="55.990532" lon="26.500618">
<ele>97.448303</ele>
<time>2010-06-20T09:26:36Z</time>
<desc>lat.=55.990532, lon.=26.500618, Alt.=97.448303m. Speed=0.072000m/h.</desc>
<speed>0.020000</speed>
</trkpt>
<trkpt lat="55.990532" lon="26.500618">
<ele>97.448303</ele>
<time>2010-06-20T09:26:37Z</time>
<desc>lat.=55.990532, lon.=26.500618, Alt.=97.448303m. Speed=0.144000m/h.</desc>
<speed>0.040000</speed>
</trkpt>
<trkpt lat="55.990532" lon="26.500618">
<ele>97.452209</ele>
<time>2010-06-20T09:26:38Z</time>
<desc>lat.=55.990532, lon.=26.500618, Alt.=97.452209m. Speed=0.072000m/h.</desc>
<speed>0.020000</speed>
</trkpt>
<trkpt lat="55.990532" lon="26.500618">
<ele>97.454163</ele>
<time>2010-06-20T09:26:39Z</time>
<desc>lat.=55.990532, lon.=26.500618, Alt.=97.454163m. Speed=0.000000m/h.</desc>
<speed>0.000000</speed>
</trkpt>
<trkpt lat="55.990532" lon="26.500618">
<ele>97.458069</ele>
<time>2010-06-20T09:26:40Z</time>
<desc>lat.=55.990532, lon.=26.500618, Alt.=97.458069m. Speed=0.036000m/h.</desc>
<speed>0.010000</speed>
</trkpt>
<trkpt lat="55.990532" lon="26.500618">
<ele>97.460022</ele>
<time>2010-06-20T09:26:41Z</time>
<desc>lat.=55.990532, lon.=26.500618, Alt.=97.460022m. Speed=0.036000m/h.</desc>
<speed>0.010000</speed>
</trkpt>
<trkpt lat="55.990532" lon="26.500618">
<ele>97.461975</ele>
<time>2010-06-20T09:26:42Z</time>
<desc>lat.=55.990532, lon.=26.500618, Alt.=97.461975m. Speed=0.108000m/h.</desc>
<speed>0.030000</speed>
</trkpt>
<trkpt lat="55.990532" lon="26.500618">
<ele>97.463928</ele>
<time>2010-06-20T09:26:43Z</time>
<desc>lat.=55.990532, lon.=26.500618, Alt.=97.463928m. Speed=0.072000m/h.</desc>
<speed>0.020000</speed>
</trkpt>
<trkpt lat="55.990532" lon="26.500618">
<ele>97.465881</ele>
<time>2010-06-20T09:26:44Z</time>
<desc>lat.=55.990532, lon.=26.500618, Alt.=97.465881m. Speed=0.036000m/h.</desc>
<speed>0.010000</speed>
</trkpt>
<trkpt lat="55.990532" lon="26.500618">
<ele>97.467834</ele>
<time>2010-06-20T09:26:45Z</time>
<desc>lat.=55.990532, lon.=26.500618, Alt.=97.467834m. Speed=0.036000m/h.</desc>
<speed>0.010000</speed>
</trkpt>
<trkpt lat="55.990532" lon="26.500618">
<ele>97.469788</ele>
<time>2010-06-20T09:26:46Z</time>
<desc>lat.=55.990532, lon.=26.500618, Alt.=97.469788m. Speed=0.036000m/h.</desc>
<speed>0.010000</speed>
</trkpt>
<trkpt lat="55.990532" lon="26.500618">
<ele>97.469788</ele>
<time>2010-06-20T09:26:47Z</time>
<desc>lat.=55.990532, lon.=26.500618, Alt.=97.469788m. Speed=0.036000m/h.</desc>
<speed>0.010000</speed>
</trkpt>
<trkpt lat="55.990532" lon="26.500618">
<ele>97.471741</ele>
<time>2010-06-20T09:26:48Z</time>
<desc>lat.=55.990532, lon.=26.500618, Alt.=97.471741m. Speed=0.036000m/h.</desc>
<speed>0.010000</speed>
</trkpt>
<trkpt lat="55.990532" lon="26.500618">
<ele>97.473694</ele>
<time>2010-06-20T09:26:49Z</time>
<desc>lat.=55.990532, lon.=26.500618, Alt.=97.473694m. Speed=0.036000m/h.</desc>
<speed>0.010000</speed>
</trkpt>
<trkpt lat="55.990532" lon="26.500618">
<ele>97.477600</ele>
<time>2010-06-20T09:26:50Z</time>
<desc>lat.=55.990532, lon.=26.500618, Alt.=97.477600m. Speed=0.144000m/h.</desc>
<speed>0.040000</speed>
</trkpt>
<trkpt lat="55.990532" lon="26.500618">
<ele>97.477600</ele>
<time>2010-06-20T09:26:51Z</time>
<desc>lat.=55.990532, lon.=26.500618, Alt.=97.477600m. Speed=0.144000m/h.</desc>
<speed>0.040000</speed>
</trkpt>
<trkpt lat="55.990532" lon="26.500618">
<ele>97.479553</ele>
<time>2010-06-20T09:26:52Z</time>
<desc>lat.=55.990532, lon.=26.500618, Alt.=97.479553m. Speed=0.072000m/h.</desc>
<speed>0.020000</speed>
</trkpt>
<trkpt lat="55.990532" lon="26.500618">
<ele>97.479553</ele>
<time>2010-06-20T09:26:53Z</time>
<desc>lat.=55.990532, lon.=26.500618, Alt.=97.479553m. Speed=0.072000m/h.</desc>
<speed>0.020000</speed>
</trkpt>
<trkpt lat="55.990532" lon="26.500618">
<ele>97.479553</ele>
<time>2010-06-20T09:26:54Z</time>
<desc>lat.=55.990532, lon.=26.500618, Alt.=97.479553m. Speed=0.000000m/h.</desc>
<speed>0.000000</speed>
</trkpt>
<trkpt lat="55.990532" lon="26.500618">
<ele>97.479553</ele>
<time>2010-06-20T09:26:55Z</time>
<desc>lat.=55.990532, lon.=26.500618, Alt.=97.479553m. Speed=0.000000m/h.</desc>
<speed>0.000000</speed>
</trkpt>
<trkpt lat="55.990532" lon="26.500618">
<ele>97.481506</ele>
<time>2010-06-20T09:26:56Z</time>
<desc>lat.=55.990532, lon.=26.500618, Alt.=97.481506m. Speed=0.000000m/h.</desc>
<speed>0.000000</speed>
</trkpt>
<trkpt lat="55.990532" lon="26.500618">
<ele>97.479553</ele>
<time>2010-06-20T09:26:57Z</time>
<desc>lat.=55.990532, lon.=26.500618, Alt.=97.479553m. Speed=0.000000m/h.</desc>
<speed>0.000000</speed>
</trkpt>
<trkpt lat="55.990532" lon="26.500618">
<ele>97.479553</ele>
<time>2010-06-20T09:26:58Z</time>
<desc>lat.=55.990532, lon.=26.500618, Alt.=97.479553m. Speed=0.000000m/h.</desc>
<speed>0.000000</speed>
</trkpt>
<trkpt lat="55.990532" lon="26.500618">
<ele>97.481506</ele>
<time>2010-06-20T09:26:59Z</time>
<desc>lat.=55.990532, lon.=26.500618, Alt.=97.481506m. Speed=0.144000m/h.</desc>
<speed>0.040000</speed>
</trkpt>
<trkpt lat="55.990532" lon="26.500618">
<ele>97.481506</ele>
<time>2010-06-20T09:27:00Z</time>
<desc>lat.=55.990532, lon.=26.500618, Alt.=97.481506m. Speed=0.072000m/h.</desc>
<speed>0.020000</speed>
</trkpt>
<trkpt lat="55.990532" lon="26.500618">
<ele>97.479553</ele>
<time>2010-06-20T09:27:01Z</time>
<desc>lat.=55.990532, lon.=26.500618, Alt.=97.479553m. Speed=0.000000m/h.</desc>
<speed>0.000000</speed>
</trkpt>
<trkpt lat="55.990532" lon="26.500618">
<ele>97.477600</ele>
<time>2010-06-20T09:27:02Z</time>
<desc>lat.=55.990532, lon.=26.500618, Alt.=97.477600m. Speed=0.036000m/h.</desc>
<speed>0.010000</speed>
</trkpt>
<trkpt lat="55.990532" lon="26.500618">
<ele>97.475647</ele>
<time>2010-06-20T09:27:03Z</time>
<desc>lat.=55.990532, lon.=26.500618, Alt.=97.475647m. Speed=0.036000m/h.</desc>
<speed>0.010000</speed>
</trkpt>
<trkpt lat="55.990532" lon="26.500618">
<ele>97.473694</ele>
<time>2010-06-20T09:27:04Z</time>
<desc>lat.=55.990532, lon.=26.500618, Alt.=97.473694m. Speed=0.072000m/h.</desc>
<speed>0.020000</speed>
</trkpt>
<trkpt lat="55.990532" lon="26.500618">
<ele>97.473694</ele>
<time>2010-06-20T09:27:05Z</time>
<desc>lat.=55.990532, lon.=26.500618, Alt.=97.473694m. Speed=0.144000m/h.</desc>
<speed>0.040000</speed>
</trkpt>
<trkpt lat="55.990532" lon="26.500618">
<ele>97.473694</ele>
<time>2010-06-20T09:27:06Z</time>
<desc>lat.=55.990532, lon.=26.500618, Alt.=97.473694m. Speed=0.036000m/h.</desc>
<speed>0.010000</speed>
</trkpt>
<trkpt lat="55.990532" lon="26.500618">
<ele>97.471741</ele>
<time>2010-06-20T09:27:07Z</time>
<desc>lat.=55.990532, lon.=26.500618, Alt.=97.471741m. Speed=0.072000m/h.</desc>
<speed>0.020000</speed>
</trkpt>
<trkpt lat="55.990532" lon="26.500618">
<ele>97.469788</ele>
<time>2010-06-20T09:27:08Z</time>
<desc>lat.=55.990532, lon.=26.500618, Alt.=97.469788m. Speed=0.036000m/h.</desc>
<speed>0.010000</speed>
</trkpt>
<trkpt lat="55.990532" lon="26.500618">
<ele>97.473694</ele>
<time>2010-06-20T09:27:09Z</time>
<desc>lat.=55.990532, lon.=26.500618, Alt.=97.473694m. Speed=0.108000m/h.</desc>
<speed>0.030000</speed>
</trkpt>
<trkpt lat="55.990532" lon="26.500618">
<ele>97.473694</ele>
<time>2010-06-20T09:27:10Z</time>
<desc>lat.=55.990532, lon.=26.500618, Alt.=97.473694m. Speed=0.036000m/h.</desc>
<speed>0.010000</speed>
</trkpt>
<trkpt lat="55.990532" lon="26.500618">
<ele>97.473694</ele>
<time>2010-06-20T09:27:11Z</time>
<desc>lat.=55.990532, lon.=26.500618, Alt.=97.473694m. Speed=0.036000m/h.</desc>
<speed>0.010000</speed>
</trkpt>
<trkpt lat="55.990532" lon="26.500618">
<ele>97.471741</ele>
<time>2010-06-20T09:27:12Z</time>
<desc>lat.=55.990532, lon.=26.500618, Alt.=97.471741m. Speed=0.000000m/h.</desc>
<speed>0.000000</speed>
</trkpt>
<trkpt lat="55.990532" lon="26.500618">
<ele>97.469788</ele>
<time>2010-06-20T09:27:13Z</time>
<desc>lat.=55.990532, lon.=26.500618, Alt.=97.469788m. Speed=0.036000m/h.</desc>
<speed>0.010000</speed>
</trkpt>
<trkpt lat="55.990532" lon="26.500618">
<ele>97.467834</ele>
<time>2010-06-20T09:27:14Z</time>
<desc>lat.=55.990532, lon.=26.500618, Alt.=97.467834m. Speed=0.216000m/h.</desc>
<speed>0.060000</speed>
</trkpt>
<trkpt lat="55.990532" lon="26.500618">
<ele>97.463928</ele>
<time>2010-06-20T09:27:15Z</time>
<desc>lat.=55.990532, lon.=26.500618, Alt.=97.463928m. Speed=0.180000m/h.</desc>
<speed>0.050000</speed>
</trkpt>
<trkpt lat="55.990532" lon="26.500616">
<ele>97.483459</ele>
<time>2010-06-20T09:27:16Z</time>
<desc>lat.=55.990532, lon.=26.500616, Alt.=97.483459m. Speed=0.432000m/h.</desc>
<speed>0.120000</speed>
</trkpt>
<trkpt lat="55.990532" lon="26.500616">
<ele>97.493225</ele>
<time>2010-06-20T09:27:17Z</time>
<desc>lat.=55.990532, lon.=26.500616, Alt.=97.493225m. Speed=0.504000m/h.</desc>
<speed>0.140000</speed>
</trkpt>
<trkpt lat="55.990536" lon="26.500614">
<ele>97.477600</ele>
<time>2010-06-20T09:27:18Z</time>
<desc>lat.=55.990536, lon.=26.500614, Alt.=97.477600m. Speed=0.432000m/h.</desc>
<speed>0.120000</speed>
</trkpt>
<trkpt lat="55.990536" lon="26.500616">
<ele>97.473694</ele>
<time>2010-06-20T09:27:19Z</time>
<desc>lat.=55.990536, lon.=26.500616, Alt.=97.473694m. Speed=0.072000m/h.</desc>
<speed>0.020000</speed>
</trkpt>
<trkpt lat="55.990536" lon="26.500616">
<ele>97.467834</ele>
<time>2010-06-20T09:27:20Z</time>
<desc>lat.=55.990536, lon.=26.500616, Alt.=97.467834m. Speed=0.108000m/h.</desc>
<speed>0.030000</speed>
</trkpt>
<trkpt lat="55.990536" lon="26.500616">
<ele>97.471741</ele>
<time>2010-06-20T09:27:21Z</time>
<desc>lat.=55.990536, lon.=26.500616, Alt.=97.471741m. Speed=0.252000m/h.</desc>
<speed>0.070000</speed>
</trkpt>
<trkpt lat="55.990536" lon="26.500616">
<ele>97.450256</ele>
<time>2010-06-20T09:27:22Z</time>
<desc>lat.=55.990536, lon.=26.500616, Alt.=97.450256m. Speed=0.108000m/h.</desc>
<speed>0.030000</speed>
</trkpt>
<trkpt lat="55.990536" lon="26.500616">
<ele>97.426819</ele>
<time>2010-06-20T09:27:23Z</time>
<desc>lat.=55.990536, lon.=26.500616, Alt.=97.426819m. Speed=1.332000m/h.</desc>
<speed>0.370000</speed>
</trkpt>
<trkpt lat="55.990540" lon="26.500610">
<ele>97.524475</ele>
<time>2010-06-20T09:27:24Z</time>
<desc>lat.=55.990540, lon.=26.500610, Alt.=97.524475m. Speed=1.260000m/h.</desc>
<speed>0.350000</speed>
</trkpt>
<trkpt lat="55.990540" lon="26.500608">
<ele>97.542053</ele>
<time>2010-06-20T09:27:25Z</time>
<desc>lat.=55.990540, lon.=26.500608, Alt.=97.542053m. Speed=0.324000m/h.</desc>
<speed>0.090000</speed>
</trkpt>
<trkpt lat="55.990540" lon="26.500603">
<ele>97.747131</ele>
<time>2010-06-20T09:27:26Z</time>
<desc>lat.=55.990540, lon.=26.500603, Alt.=97.747131m. Speed=0.216000m/h.</desc>
<speed>0.060000</speed>
</trkpt>
<trkpt lat="55.990540" lon="26.500601">
<ele>97.915100</ele>
<time>2010-06-20T09:27:27Z</time>
<desc>lat.=55.990540, lon.=26.500601, Alt.=97.915100m. Speed=0.108000m/h.</desc>
<speed>0.030000</speed>
</trkpt>
<trkpt lat="55.990540" lon="26.500601">
<ele>97.967834</ele>
<time>2010-06-20T09:27:28Z</time>
<desc>lat.=55.990540, lon.=26.500601, Alt.=97.967834m. Speed=0.144000m/h.</desc>
<speed>0.040000</speed>
</trkpt>
<trkpt lat="55.990540" lon="26.500601">
<ele>97.965881</ele>
<time>2010-06-20T09:27:29Z</time>
<desc>lat.=55.990540, lon.=26.500601, Alt.=97.965881m. Speed=0.180000m/h.</desc>
<speed>0.050000</speed>
</trkpt>
<trkpt lat="55.990540" lon="26.500601">
<ele>97.952209</ele>
<time>2010-06-20T09:27:30Z</time>
<desc>lat.=55.990540, lon.=26.500601, Alt.=97.952209m. Speed=1.260000m/h.</desc>
<speed>0.350000</speed>
</trkpt>
<trkpt lat="55.990540" lon="26.500591">
<ele>98.051819</ele>
<time>2010-06-20T09:27:31Z</time>
<desc>lat.=55.990540, lon.=26.500591, Alt.=98.051819m. Speed=1.836000m/h.</desc>
<speed>0.510000</speed>
</trkpt>
<trkpt lat="55.990540" lon="26.500580">
<ele>98.061584</ele>
<time>2010-06-20T09:27:32Z</time>
<desc>lat.=55.990540, lon.=26.500580, Alt.=98.061584m. Speed=3.240000m/h.</desc>
<speed>0.900000</speed>
</trkpt>
<trkpt lat="55.990540" lon="26.500566">
<ele>98.014709</ele>
<time>2010-06-20T09:27:33Z</time>
<desc>lat.=55.990540, lon.=26.500566, Alt.=98.014709m. Speed=3.600000m/h.</desc>
<speed>1.000000</speed>
</trkpt>
<trkpt lat="55.990540" lon="26.500549">
<ele>98.067444</ele>
<time>2010-06-20T09:27:34Z</time>
<desc>lat.=55.990540, lon.=26.500549, Alt.=98.067444m. Speed=3.780000m/h.</desc>
<speed>1.050000</speed>
</trkpt>
<trkpt lat="55.990547" lon="26.500536">
<ele>98.038147</ele>
<time>2010-06-20T09:27:35Z</time>
<desc>lat.=55.990547, lon.=26.500536, Alt.=98.038147m. Speed=5.076000m/h.</desc>
<speed>1.410000</speed>
</trkpt>
<trkpt lat="55.990551" lon="26.500517">
<ele>98.174866</ele>
<time>2010-06-20T09:27:36Z</time>
<desc>lat.=55.990551, lon.=26.500517, Alt.=98.174866m. Speed=4.752000m/h.</desc>
<speed>1.320000</speed>
</trkpt>
<trkpt lat="55.990555" lon="26.500492">
<ele>98.243225</ele>
<time>2010-06-20T09:27:37Z</time>
<desc>lat.=55.990555, lon.=26.500492, Alt.=98.243225m. Speed=6.048000m/h.</desc>
<speed>1.680000</speed>
</trkpt>
<trkpt lat="55.990555" lon="26.500467">
<ele>98.083069</ele>
<time>2010-06-20T09:27:38Z</time>
<desc>lat.=55.990555, lon.=26.500467, Alt.=98.083069m. Speed=5.904000m/h.</desc>
<speed>1.640000</speed>
</trkpt>
<trkpt lat="55.990555" lon="26.500435">
<ele>98.198303</ele>
<time>2010-06-20T09:27:39Z</time>
<desc>lat.=55.990555, lon.=26.500435, Alt.=98.198303m. Speed=5.832000m/h.</desc>
<speed>1.620000</speed>
</trkpt>
<trkpt lat="55.990555" lon="26.500410">
<ele>97.999084</ele>
<time>2010-06-20T09:27:40Z</time>
<desc>lat.=55.990555, lon.=26.500410, Alt.=97.999084m. Speed=6.228000m/h.</desc>
<speed>1.730000</speed>
</trkpt>
<trkpt lat="55.990551" lon="26.500380">
<ele>98.053772</ele>
<time>2010-06-20T09:27:41Z</time>
<desc>lat.=55.990551, lon.=26.500380, Alt.=98.053772m. Speed=5.940000m/h.</desc>
<speed>1.650000</speed>
</trkpt>
<trkpt lat="55.990551" lon="26.500353">
<ele>97.928772</ele>
<time>2010-06-20T09:27:42Z</time>
<desc>lat.=55.990551, lon.=26.500353, Alt.=97.928772m. Speed=7.308000m/h.</desc>
<speed>2.030000</speed>
</trkpt>
<trkpt lat="55.990555" lon="26.500320">
<ele>97.850647</ele>
<time>2010-06-20T09:27:43Z</time>
<desc>lat.=55.990555, lon.=26.500320, Alt.=97.850647m. Speed=7.128000m/h.</desc>
<speed>1.980000</speed>
</trkpt>
<trkpt lat="55.990555" lon="26.500284">
<ele>97.926819</ele>
<time>2010-06-20T09:27:44Z</time>
<desc>lat.=55.990555, lon.=26.500284, Alt.=97.926819m. Speed=7.920000m/h.</desc>
<speed>2.200000</speed>
</trkpt>
<trkpt lat="55.990559" lon="26.500250">
<ele>97.905334</ele>
<time>2010-06-20T09:27:45Z</time>
<desc>lat.=55.990559, lon.=26.500250, Alt.=97.905334m. Speed=7.632000m/h.</desc>
<speed>2.120000</speed>
</trkpt>
<trkpt lat="55.990566" lon="26.500212">
<ele>97.961975</ele>
<time>2010-06-20T09:27:46Z</time>
<desc>lat.=55.990566, lon.=26.500212, Alt.=97.961975m. Speed=7.416000m/h.</desc>
<speed>2.060000</speed>
</trkpt>
<trkpt lat="55.990574" lon="26.500183">
<ele>97.807678</ele>
<time>2010-06-20T09:27:47Z</time>
<desc>lat.=55.990574, lon.=26.500183, Alt.=97.807678m. Speed=7.236000m/h.</desc>
<speed>2.010000</speed>
</trkpt>
<trkpt lat="55.990582" lon="26.500149">
<ele>97.801819</ele>
<time>2010-06-20T09:27:48Z</time>
<desc>lat.=55.990582, lon.=26.500149, Alt.=97.801819m. Speed=7.416000m/h.</desc>
<speed>2.060000</speed>
</trkpt>
<trkpt lat="55.990585" lon="26.500114">
<ele>97.684631</ele>
<time>2010-06-20T09:27:49Z</time>
<desc>lat.=55.990585, lon.=26.500114, Alt.=97.684631m. Speed=7.992000m/h.</desc>
<speed>2.220000</speed>
</trkpt>
<trkpt lat="55.990582" lon="26.500082">
<ele>97.569397</ele>
<time>2010-06-20T09:27:50Z</time>
<desc>lat.=55.990582, lon.=26.500082, Alt.=97.569397m. Speed=7.992000m/h.</desc>
<speed>2.220000</speed>
</trkpt>
<trkpt lat="55.990582" lon="26.500051">
<ele>97.487366</ele>
<time>2010-06-20T09:27:51Z</time>
<desc>lat.=55.990582, lon.=26.500051, Alt.=97.487366m. Speed=7.812000m/h.</desc>
<speed>2.170000</speed>
</trkpt>
<trkpt lat="55.990582" lon="26.500019">
<ele>97.389709</ele>
<time>2010-06-20T09:27:52Z</time>
<desc>lat.=55.990582, lon.=26.500019, Alt.=97.389709m. Speed=7.632000m/h.</desc>
<speed>2.120000</speed>
</trkpt>
<trkpt lat="55.990589" lon="26.499987">
<ele>97.313538</ele>
<time>2010-06-20T09:27:53Z</time>
<desc>lat.=55.990589, lon.=26.499987, Alt.=97.313538m. Speed=7.380000m/h.</desc>
<speed>2.050000</speed>
</trkpt>
<trkpt lat="55.990593" lon="26.499956">
<ele>97.280334</ele>
<time>2010-06-20T09:27:54Z</time>
<desc>lat.=55.990593, lon.=26.499956, Alt.=97.280334m. Speed=7.236000m/h.</desc>
<speed>2.010000</speed>
</trkpt>
<trkpt lat="55.990601" lon="26.499926">
<ele>97.206116</ele>
<time>2010-06-20T09:27:55Z</time>
<desc>lat.=55.990601, lon.=26.499926, Alt.=97.206116m. Speed=6.984000m/h.</desc>
<speed>1.940000</speed>
</trkpt>
<trkpt lat="55.990604" lon="26.499893">
<ele>97.149475</ele>
<time>2010-06-20T09:27:56Z</time>
<desc>lat.=55.990604, lon.=26.499893, Alt.=97.149475m. Speed=6.984000m/h.</desc>
<speed>1.940000</speed>
</trkpt>
<trkpt lat="55.990604" lon="26.499861">
<ele>97.200256</ele>
<time>2010-06-20T09:27:57Z</time>
<desc>lat.=55.990604, lon.=26.499861, Alt.=97.200256m. Speed=7.200000m/h.</desc>
<speed>2.000000</speed>
</trkpt>
<trkpt lat="55.990608" lon="26.499826">
<ele>97.196350</ele>
<time>2010-06-20T09:27:58Z</time>
<desc>lat.=55.990608, lon.=26.499826, Alt.=97.196350m. Speed=8.244000m/h.</desc>
<speed>2.290000</speed>
</trkpt>
<trkpt lat="55.990612" lon="26.499790">
<ele>97.170959</ele>
<time>2010-06-20T09:27:59Z</time>
<desc>lat.=55.990612, lon.=26.499790, Alt.=97.170959m. Speed=8.604000m/h.</desc>
<speed>2.390000</speed>
</trkpt>
<trkpt lat="55.990623" lon="26.499752">
<ele>97.198303</ele>
<time>2010-06-20T09:28:00Z</time>
<desc>lat.=55.990623, lon.=26.499752, Alt.=97.198303m. Speed=8.352000m/h.</desc>
<speed>2.320000</speed>
</trkpt>
<trkpt lat="55.990627" lon="26.499718">
<ele>97.169006</ele>
<time>2010-06-20T09:28:01Z</time>
<desc>lat.=55.990627, lon.=26.499718, Alt.=97.169006m. Speed=8.208000m/h.</desc>
<speed>2.280000</speed>
</trkpt>
<trkpt lat="55.990627" lon="26.499683">
<ele>97.077209</ele>
<time>2010-06-20T09:28:02Z</time>
<desc>lat.=55.990627, lon.=26.499683, Alt.=97.077209m. Speed=7.632000m/h.</desc>
<speed>2.120000</speed>
</trkpt>
<trkpt lat="55.990631" lon="26.499649">
<ele>96.948303</ele>
<time>2010-06-20T09:28:03Z</time>
<desc>lat.=55.990631, lon.=26.499649, Alt.=96.948303m. Speed=8.244000m/h.</desc>
<speed>2.290000</speed>
</trkpt>
<trkpt lat="55.990639" lon="26.499611">
<ele>97.014709</ele>
<time>2010-06-20T09:28:04Z</time>
<desc>lat.=55.990639, lon.=26.499611, Alt.=97.014709m. Speed=7.560000m/h.</desc>
<speed>2.100000</speed>
</trkpt>
<trkpt lat="55.990643" lon="26.499567">
<ele>97.170959</ele>
<time>2010-06-20T09:28:05Z</time>
<desc>lat.=55.990643, lon.=26.499567, Alt.=97.170959m. Speed=6.912000m/h.</desc>
<speed>1.920000</speed>
</trkpt>
<trkpt lat="55.990654" lon="26.499525">
<ele>97.438538</ele>
<time>2010-06-20T09:28:06Z</time>
<desc>lat.=55.990654, lon.=26.499525, Alt.=97.438538m. Speed=6.912000m/h.</desc>
<speed>1.920000</speed>
</trkpt>
<trkpt lat="55.990658" lon="26.499495">
<ele>97.483459</ele>
<time>2010-06-20T09:28:07Z</time>
<desc>lat.=55.990658, lon.=26.499495, Alt.=97.483459m. Speed=6.336000m/h.</desc>
<speed>1.760000</speed>
</trkpt>
<trkpt lat="55.990662" lon="26.499466">
<ele>97.403381</ele>
<time>2010-06-20T09:28:08Z</time>
<desc>lat.=55.990662, lon.=26.499466, Alt.=97.403381m. Speed=7.020000m/h.</desc>
<speed>1.950000</speed>
</trkpt>
<trkpt lat="55.990665" lon="26.499435">
<ele>97.061584</ele>
<time>2010-06-20T09:28:09Z</time>
<desc>lat.=55.990665, lon.=26.499435, Alt.=97.061584m. Speed=6.804000m/h.</desc>
<speed>1.890000</speed>
</trkpt>
<trkpt lat="55.990669" lon="26.499411">
<ele>97.032288</ele>
<time>2010-06-20T09:28:10Z</time>
<desc>lat.=55.990669, lon.=26.499411, Alt.=97.032288m. Speed=6.804000m/h.</desc>
<speed>1.890000</speed>
</trkpt>
<trkpt lat="55.990669" lon="26.499378">
<ele>96.954163</ele>
<time>2010-06-20T09:28:11Z</time>
<desc>lat.=55.990669, lon.=26.499378, Alt.=96.954163m. Speed=7.164000m/h.</desc>
<speed>1.990000</speed>
</trkpt>
<trkpt lat="55.990669" lon="26.499348">
<ele>97.022522</ele>
<time>2010-06-20T09:28:12Z</time>
<desc>lat.=55.990669, lon.=26.499348, Alt.=97.022522m. Speed=8.244000m/h.</desc>
<speed>2.290000</speed>
</trkpt>
<trkpt lat="55.990669" lon="26.499317">
<ele>96.862366</ele>
<time>2010-06-20T09:28:13Z</time>
<desc>lat.=55.990669, lon.=26.499317, Alt.=96.862366m. Speed=7.488000m/h.</desc>
<speed>2.080000</speed>
</trkpt>
<trkpt lat="55.990673" lon="26.499283">
<ele>96.911194</ele>
<time>2010-06-20T09:28:14Z</time>
<desc>lat.=55.990673, lon.=26.499283, Alt.=96.911194m. Speed=8.352000m/h.</desc>
<speed>2.320000</speed>
</trkpt>
<trkpt lat="55.990677" lon="26.499245">
<ele>97.065491</ele>
<time>2010-06-20T09:28:15Z</time>
<desc>lat.=55.990677, lon.=26.499245, Alt.=97.065491m. Speed=8.388000m/h.</desc>
<speed>2.330000</speed>
</trkpt>
<trkpt lat="55.990677" lon="26.499201">
<ele>97.129944</ele>
<time>2010-06-20T09:28:16Z</time>
<desc>lat.=55.990677, lon.=26.499201, Alt.=97.129944m. Speed=9.540000m/h.</desc>
<speed>2.650000</speed>
</trkpt>
<trkpt lat="55.990681" lon="26.499159">
<ele>97.020569</ele>
<time>2010-06-20T09:28:17Z</time>
<desc>lat.=55.990681, lon.=26.499159, Alt.=97.020569m. Speed=9.360000m/h.</desc>
<speed>2.600000</speed>
</trkpt>
<trkpt lat="55.990681" lon="26.499117">
<ele>96.928772</ele>
<time>2010-06-20T09:28:18Z</time>
<desc>lat.=55.990681, lon.=26.499117, Alt.=96.928772m. Speed=9.252000m/h.</desc>
<speed>2.570000</speed>
</trkpt>
<trkpt lat="55.990681" lon="26.499079">
<ele>96.850647</ele>
<time>2010-06-20T09:28:19Z</time>
<desc>lat.=55.990681, lon.=26.499079, Alt.=96.850647m. Speed=8.028000m/h.</desc>
<speed>2.230000</speed>
</trkpt>
<trkpt lat="55.990685" lon="26.499035">
<ele>96.954163</ele>
<time>2010-06-20T09:28:20Z</time>
<desc>lat.=55.990685, lon.=26.499035, Alt.=96.954163m. Speed=8.964000m/h.</desc>
<speed>2.490000</speed>
</trkpt>
<trkpt lat="55.990692" lon="26.498993">
<ele>96.862366</ele>
<time>2010-06-20T09:28:21Z</time>
<desc>lat.=55.990692, lon.=26.498993, Alt.=96.862366m. Speed=8.640000m/h.</desc>
<speed>2.400000</speed>
</trkpt>
<trkpt lat="55.990696" lon="26.498949">
<ele>97.145569</ele>
<time>2010-06-20T09:28:22Z</time>
<desc>lat.=55.990696, lon.=26.498949, Alt.=97.145569m. Speed=8.424000m/h.</desc>
<speed>2.340000</speed>
</trkpt>
<trkpt lat="55.990700" lon="26.498909">
<ele>97.004944</ele>
<time>2010-06-20T09:28:23Z</time>
<desc>lat.=55.990700, lon.=26.498909, Alt.=97.004944m. Speed=7.740000m/h.</desc>
<speed>2.150000</speed>
</trkpt>
<trkpt lat="55.990711" lon="26.498871">
<ele>97.075256</ele>
<time>2010-06-20T09:28:24Z</time>
<desc>lat.=55.990711, lon.=26.498871, Alt.=97.075256m. Speed=9.000000m/h.</desc>
<speed>2.500000</speed>
</trkpt>
<trkpt lat="55.990715" lon="26.498827">
<ele>97.012756</ele>
<time>2010-06-20T09:28:25Z</time>
<desc>lat.=55.990715, lon.=26.498827, Alt.=97.012756m. Speed=10.584000m/h.</desc>
<speed>2.940000</speed>
</trkpt>
<trkpt lat="55.990723" lon="26.498779">
<ele>97.174866</ele>
<time>2010-06-20T09:28:26Z</time>
<desc>lat.=55.990723, lon.=26.498779, Alt.=97.174866m. Speed=11.736000m/h.</desc>
<speed>3.260000</speed>
</trkpt>
<trkpt lat="55.990738" lon="26.498720">
<ele>97.188538</ele>
<time>2010-06-20T09:28:27Z</time>
<desc>lat.=55.990738, lon.=26.498720, Alt.=97.188538m. Speed=11.484000m/h.</desc>
<speed>3.190000</speed>
</trkpt>
<trkpt lat="55.990746" lon="26.498667">
<ele>97.049866</ele>
<time>2010-06-20T09:28:28Z</time>
<desc>lat.=55.990746, lon.=26.498667, Alt.=97.049866m. Speed=11.736000m/h.</desc>
<speed>3.260000</speed>
</trkpt>
<trkpt lat="55.990757" lon="26.498610">
<ele>97.186584</ele>
<time>2010-06-20T09:28:29Z</time>
<desc>lat.=55.990757, lon.=26.498610, Alt.=97.186584m. Speed=12.744000m/h.</desc>
<speed>3.540000</speed>
</trkpt>
<trkpt lat="55.990765" lon="26.498552">
<ele>97.096741</ele>
<time>2010-06-20T09:28:30Z</time>
<desc>lat.=55.990765, lon.=26.498552, Alt.=97.096741m. Speed=12.276000m/h.</desc>
<speed>3.410000</speed>
</trkpt>
<trkpt lat="55.990772" lon="26.498499">
<ele>97.106506</ele>
<time>2010-06-20T09:28:31Z</time>
<desc>lat.=55.990772, lon.=26.498499, Alt.=97.106506m. Speed=12.240000m/h.</desc>
<speed>3.400000</speed>
</trkpt>
<trkpt lat="55.990780" lon="26.498436">
<ele>97.389709</ele>
<time>2010-06-20T09:28:32Z</time>
<desc>lat.=55.990780, lon.=26.498436, Alt.=97.389709m. Speed=11.880000m/h.</desc>
<speed>3.300000</speed>
</trkpt>
<trkpt lat="55.990788" lon="26.498381">
<ele>97.438538</ele>
<time>2010-06-20T09:28:33Z</time>
<desc>lat.=55.990788, lon.=26.498381, Alt.=97.438538m. Speed=12.780000m/h.</desc>
<speed>3.550000</speed>
</trkpt>
<trkpt lat="55.990795" lon="26.498325">
<ele>97.290100</ele>
<time>2010-06-20T09:28:34Z</time>
<desc>lat.=55.990795, lon.=26.498325, Alt.=97.290100m. Speed=13.212000m/h.</desc>
<speed>3.670000</speed>
</trkpt>
<trkpt lat="55.990803" lon="26.498268">
<ele>97.436584</ele>
<time>2010-06-20T09:28:35Z</time>
<desc>lat.=55.990803, lon.=26.498268, Alt.=97.436584m. Speed=13.212000m/h.</desc>
<speed>3.670000</speed>
</trkpt>
<trkpt lat="55.990810" lon="26.498220">
<ele>97.368225</ele>
<time>2010-06-20T09:28:36Z</time>
<desc>lat.=55.990810, lon.=26.498220, Alt.=97.368225m. Speed=11.484000m/h.</desc>
<speed>3.190000</speed>
</trkpt>
<trkpt lat="55.990814" lon="26.498177">
<ele>97.096741</ele>
<time>2010-06-20T09:28:37Z</time>
<desc>lat.=55.990814, lon.=26.498177, Alt.=97.096741m. Speed=11.124000m/h.</desc>
<speed>3.090000</speed>
</trkpt>
<trkpt lat="55.990818" lon="26.498127">
<ele>96.700256</ele>
<time>2010-06-20T09:28:38Z</time>
<desc>lat.=55.990818, lon.=26.498127, Alt.=96.700256m. Speed=12.348000m/h.</desc>
<speed>3.430000</speed>
</trkpt>
<trkpt lat="55.990826" lon="26.498077">
<ele>96.651428</ele>
<time>2010-06-20T09:28:39Z</time>
<desc>lat.=55.990826, lon.=26.498077, Alt.=96.651428m. Speed=10.620000m/h.</desc>
<speed>2.950000</speed>
</trkpt>
<trkpt lat="55.990829" lon="26.498034">
<ele>96.389709</ele>
<time>2010-06-20T09:28:40Z</time>
<desc>lat.=55.990829, lon.=26.498034, Alt.=96.389709m. Speed=11.268000m/h.</desc>
<speed>3.130000</speed>
</trkpt>
<trkpt lat="55.990837" lon="26.497988">
<ele>96.374084</ele>
<time>2010-06-20T09:28:41Z</time>
<desc>lat.=55.990837, lon.=26.497988, Alt.=96.374084m. Speed=10.584000m/h.</desc>
<speed>2.940000</speed>
</trkpt>
<trkpt lat="55.990841" lon="26.497934">
<ele>96.544006</ele>
<time>2010-06-20T09:28:42Z</time>
<desc>lat.=55.990841, lon.=26.497934, Alt.=96.544006m. Speed=11.448000m/h.</desc>
<speed>3.180000</speed>
</trkpt>
<trkpt lat="55.990849" lon="26.497885">
<ele>96.377991</ele>
<time>2010-06-20T09:28:43Z</time>
<desc>lat.=55.990849, lon.=26.497885, Alt.=96.377991m. Speed=12.384000m/h.</desc>
<speed>3.440000</speed>
</trkpt>
<trkpt lat="55.990856" lon="26.497826">
<ele>96.001038</ele>
<time>2010-06-20T09:28:44Z</time>
<desc>lat.=55.990856, lon.=26.497826, Alt.=96.001038m. Speed=13.392000m/h.</desc>
<speed>3.720000</speed>
</trkpt>
<trkpt lat="55.990860" lon="26.497766">
<ele>95.831116</ele>
<time>2010-06-20T09:28:45Z</time>
<desc>lat.=55.990860, lon.=26.497766, Alt.=95.831116m. Speed=12.780000m/h.</desc>
<speed>3.550000</speed>
</trkpt>
<trkpt lat="55.990860" lon="26.497723">
<ele>95.557678</ele>
<time>2010-06-20T09:28:46Z</time>
<desc>lat.=55.990860, lon.=26.497723, Alt.=95.557678m. Speed=11.016000m/h.</desc>
<speed>3.060000</speed>
</trkpt>
<trkpt lat="55.990864" lon="26.497665">
<ele>95.131897</ele>
<time>2010-06-20T09:28:47Z</time>
<desc>lat.=55.990864, lon.=26.497665, Alt.=95.131897m. Speed=11.664000m/h.</desc>
<speed>3.240000</speed>
</trkpt>
<trkpt lat="55.990864" lon="26.497623">
<ele>95.014709</ele>
<time>2010-06-20T09:28:48Z</time>
<desc>lat.=55.990864, lon.=26.497623, Alt.=95.014709m. Speed=10.296000m/h.</desc>
<speed>2.860000</speed>
</trkpt>
<trkpt lat="55.990871" lon="26.497581">
<ele>95.026428</ele>
<time>2010-06-20T09:28:49Z</time>
<desc>lat.=55.990871, lon.=26.497581, Alt.=95.026428m. Speed=11.196000m/h.</desc>
<speed>3.110000</speed>
</trkpt>
<trkpt lat="55.990871" lon="26.497530">
<ele>94.655334</ele>
<time>2010-06-20T09:28:50Z</time>
<desc>lat.=55.990871, lon.=26.497530, Alt.=94.655334m. Speed=11.988000m/h.</desc>
<speed>3.330000</speed>
</trkpt>
<trkpt lat="55.990871" lon="26.497469">
<ele>94.579163</ele>
<time>2010-06-20T09:28:51Z</time>
<desc>lat.=55.990871, lon.=26.497469, Alt.=94.579163m. Speed=11.592000m/h.</desc>
<speed>3.220000</speed>
</trkpt>
<trkpt lat="55.990871" lon="26.497417">
<ele>94.190491</ele>
<time>2010-06-20T09:28:52Z</time>
<desc>lat.=55.990871, lon.=26.497417, Alt.=94.190491m. Speed=12.888000m/h.</desc>
<speed>3.580000</speed>
</trkpt>
<trkpt lat="55.990871" lon="26.497366">
<ele>94.596741</ele>
<time>2010-06-20T09:28:53Z</time>
<desc>lat.=55.990871, lon.=26.497366, Alt.=94.596741m. Speed=12.240000m/h.</desc>
<speed>3.400000</speed>
</trkpt>
<trkpt lat="55.990875" lon="26.497309">
<ele>95.167053</ele>
<time>2010-06-20T09:28:54Z</time>
<desc>lat.=55.990875, lon.=26.497309, Alt.=95.167053m. Speed=13.644000m/h.</desc>
<speed>3.790000</speed>
</trkpt>
<trkpt lat="55.990883" lon="26.497246">
<ele>95.610413</ele>
<time>2010-06-20T09:28:55Z</time>
<desc>lat.=55.990883, lon.=26.497246, Alt.=95.610413m. Speed=14.652000m/h.</desc>
<speed>4.070000</speed>
</trkpt>
<trkpt lat="55.990891" lon="26.497181">
<ele>95.749084</ele>
<time>2010-06-20T09:28:56Z</time>
<desc>lat.=55.990891, lon.=26.497181, Alt.=95.749084m. Speed=15.408000m/h.</desc>
<speed>4.280000</speed>
</trkpt>
<trkpt lat="55.990898" lon="26.497107">
<ele>95.940491</ele>
<time>2010-06-20T09:28:57Z</time>
<desc>lat.=55.990898, lon.=26.497107, Alt.=95.940491m. Speed=15.948000m/h.</desc>
<speed>4.430000</speed>
</trkpt>
<trkpt lat="55.990910" lon="26.497034">
<ele>96.145569</ele>
<time>2010-06-20T09:28:58Z</time>
<desc>lat.=55.990910, lon.=26.497034, Alt.=96.145569m. Speed=16.559999m/h.</desc>
<speed>4.600000</speed>
</trkpt>
<trkpt lat="55.990917" lon="26.496965">
<ele>96.157288</ele>
<time>2010-06-20T09:28:59Z</time>
<desc>lat.=55.990917, lon.=26.496965, Alt.=96.157288m. Speed=16.452000m/h.</desc>
<speed>4.570000</speed>
</trkpt>
<trkpt lat="55.990925" lon="26.496897">
<ele>96.333069</ele>
<time>2010-06-20T09:29:00Z</time>
<desc>lat.=55.990925, lon.=26.496897, Alt.=96.333069m. Speed=16.236000m/h.</desc>
<speed>4.510000</speed>
</trkpt>
<trkpt lat="55.990925" lon="26.496824">
<ele>96.618225</ele>
<time>2010-06-20T09:29:01Z</time>
<desc>lat.=55.990925, lon.=26.496824, Alt.=96.618225m. Speed=16.091999m/h.</desc>
<speed>4.470000</speed>
</trkpt>
<trkpt lat="55.990929" lon="26.496752">
<ele>96.680725</ele>
<time>2010-06-20T09:29:02Z</time>
<desc>lat.=55.990929, lon.=26.496752, Alt.=96.680725m. Speed=16.920000m/h.</desc>
<speed>4.700000</speed>
</trkpt>
<trkpt lat="55.990940" lon="26.496681">
<ele>96.817444</ele>
<time>2010-06-20T09:29:03Z</time>
<desc>lat.=55.990940, lon.=26.496681, Alt.=96.817444m. Speed=16.488001m/h.</desc>
<speed>4.580000</speed>
</trkpt>
<trkpt lat="55.990944" lon="26.496609">
<ele>96.956116</ele>
<time>2010-06-20T09:29:04Z</time>
<desc>lat.=55.990944, lon.=26.496609, Alt.=96.956116m. Speed=16.236000m/h.</desc>
<speed>4.510000</speed>
</trkpt>
<trkpt lat="55.990952" lon="26.496536">
<ele>96.928772</ele>
<time>2010-06-20T09:29:05Z</time>
<desc>lat.=55.990952, lon.=26.496536, Alt.=96.928772m. Speed=15.840000m/h.</desc>
<speed>4.400000</speed>
</trkpt>
<trkpt lat="55.990959" lon="26.496466">
<ele>97.012756</ele>
<time>2010-06-20T09:29:06Z</time>
<desc>lat.=55.990959, lon.=26.496466, Alt.=97.012756m. Speed=15.624000m/h.</desc>
<speed>4.340000</speed>
</trkpt>
<trkpt lat="55.990967" lon="26.496399">
<ele>97.067444</ele>
<time>2010-06-20T09:29:07Z</time>
<desc>lat.=55.990967, lon.=26.496399, Alt.=97.067444m. Speed=15.480000m/h.</desc>
<speed>4.300000</speed>
</trkpt>
<trkpt lat="55.990971" lon="26.496334">
<ele>97.124084</ele>
<time>2010-06-20T09:29:08Z</time>
<desc>lat.=55.990971, lon.=26.496334, Alt.=97.124084m. Speed=14.868000m/h.</desc>
<speed>4.130000</speed>
</trkpt>
<trkpt lat="55.990978" lon="26.496269">
<ele>97.243225</ele>
<time>2010-06-20T09:29:09Z</time>
<desc>lat.=55.990978, lon.=26.496269, Alt.=97.243225m. Speed=14.436000m/h.</desc>
<speed>4.010000</speed>
</trkpt>
<trkpt lat="55.990986" lon="26.496210">
<ele>97.389709</ele>
<time>2010-06-20T09:29:10Z</time>
<desc>lat.=55.990986, lon.=26.496210, Alt.=97.389709m. Speed=14.220000m/h.</desc>
<speed>3.950000</speed>
</trkpt>
<trkpt lat="55.990993" lon="26.496149">
<ele>97.460022</ele>
<time>2010-06-20T09:29:11Z</time>
<desc>lat.=55.990993, lon.=26.496149, Alt.=97.460022m. Speed=13.500000m/h.</desc>
<speed>3.750000</speed>
</trkpt>
<trkpt lat="55.990997" lon="26.496092">
<ele>97.124084</ele>
<time>2010-06-20T09:29:12Z</time>
<desc>lat.=55.990997, lon.=26.496092, Alt.=97.124084m. Speed=13.860000m/h.</desc>
<speed>3.850000</speed>
</trkpt>
<trkpt lat="55.991001" lon="26.496033">
<ele>97.280334</ele>
<time>2010-06-20T09:29:13Z</time>
<desc>lat.=55.991001, lon.=26.496033, Alt.=97.280334m. Speed=13.608000m/h.</desc>
<speed>3.780000</speed>
</trkpt>
<trkpt lat="55.991001" lon="26.495977">
<ele>97.284241</ele>
<time>2010-06-20T09:29:14Z</time>
<desc>lat.=55.991001, lon.=26.495977, Alt.=97.284241m. Speed=13.284000m/h.</desc>
<speed>3.690000</speed>
</trkpt>
<trkpt lat="55.991005" lon="26.495922">
<ele>97.305725</ele>
<time>2010-06-20T09:29:15Z</time>
<desc>lat.=55.991005, lon.=26.495922, Alt.=97.305725m. Speed=12.996000m/h.</desc>
<speed>3.610000</speed>
</trkpt>
<trkpt lat="55.991005" lon="26.495867">
<ele>97.360413</ele>
<time>2010-06-20T09:29:16Z</time>
<desc>lat.=55.991005, lon.=26.495867, Alt.=97.360413m. Speed=12.492000m/h.</desc>
<speed>3.470000</speed>
</trkpt>
<trkpt lat="55.991001" lon="26.495815">
<ele>97.303772</ele>
<time>2010-06-20T09:29:17Z</time>
<desc>lat.=55.991001, lon.=26.495815, Alt.=97.303772m. Speed=12.420000m/h.</desc>
<speed>3.450000</speed>
</trkpt>
<trkpt lat="55.990997" lon="26.495764">
<ele>97.313538</ele>
<time>2010-06-20T09:29:18Z</time>
<desc>lat.=55.990997, lon.=26.495764, Alt.=97.313538m. Speed=12.132000m/h.</desc>
<speed>3.370000</speed>
</trkpt>
<trkpt lat="55.990993" lon="26.495712">
<ele>97.143616</ele>
<time>2010-06-20T09:29:19Z</time>
<desc>lat.=55.990993, lon.=26.495712, Alt.=97.143616m. Speed=12.096000m/h.</desc>
<speed>3.360000</speed>
</trkpt>
<trkpt lat="55.990993" lon="26.495655">
<ele>97.094788</ele>
<time>2010-06-20T09:29:20Z</time>
<desc>lat.=55.990993, lon.=26.495655, Alt.=97.094788m. Speed=12.456000m/h.</desc>
<speed>3.460000</speed>
</trkpt>
<trkpt lat="55.990993" lon="26.495598">
<ele>96.788147</ele>
<time>2010-06-20T09:29:21Z</time>
<desc>lat.=55.990993, lon.=26.495598, Alt.=96.788147m. Speed=13.140000m/h.</desc>
<speed>3.650000</speed>
</trkpt>
<trkpt lat="55.990990" lon="26.495541">
<ele>96.719788</ele>
<time>2010-06-20T09:29:22Z</time>
<desc>lat.=55.990990, lon.=26.495541, Alt.=96.719788m. Speed=12.996000m/h.</desc>
<speed>3.610000</speed>
</trkpt>
<trkpt lat="55.990986" lon="26.495480">
<ele>96.795959</ele>
<time>2010-06-20T09:29:23Z</time>
<desc>lat.=55.990986, lon.=26.495480, Alt.=96.795959m. Speed=13.104000m/h.</desc>
<speed>3.640000</speed>
</trkpt>
<trkpt lat="55.990982" lon="26.495420">
<ele>96.694397</ele>
<time>2010-06-20T09:29:24Z</time>
<desc>lat.=55.990982, lon.=26.495420, Alt.=96.694397m. Speed=13.104000m/h.</desc>
<speed>3.640000</speed>
</trkpt>
<trkpt lat="55.990978" lon="26.495363">
<ele>96.645569</ele>
<time>2010-06-20T09:29:25Z</time>
<desc>lat.=55.990978, lon.=26.495363, Alt.=96.645569m. Speed=13.428000m/h.</desc>
<speed>3.730000</speed>
</trkpt>
<trkpt lat="55.990974" lon="26.495306">
<ele>96.424866</ele>
<time>2010-06-20T09:29:26Z</time>
<desc>lat.=55.990974, lon.=26.495306, Alt.=96.424866m. Speed=13.320000m/h.</desc>
<speed>3.700000</speed>
</trkpt>
<trkpt lat="55.990967" lon="26.495245">
<ele>96.268616</ele>
<time>2010-06-20T09:29:27Z</time>
<desc>lat.=55.990967, lon.=26.495245, Alt.=96.268616m. Speed=13.752000m/h.</desc>
<speed>3.820000</speed>
</trkpt>
<trkpt lat="55.990963" lon="26.495188">
<ele>96.251038</ele>
<time>2010-06-20T09:29:28Z</time>
<desc>lat.=55.990963, lon.=26.495188, Alt.=96.251038m. Speed=13.716000m/h.</desc>
<speed>3.810000</speed>
</trkpt>
<trkpt lat="55.990959" lon="26.495131">
<ele>96.178772</ele>
<time>2010-06-20T09:29:29Z</time>
<desc>lat.=55.990959, lon.=26.495131, Alt.=96.178772m. Speed=14.076000m/h.</desc>
<speed>3.910000</speed>
</trkpt>
<trkpt lat="55.990952" lon="26.495070">
<ele>95.879944</ele>
<time>2010-06-20T09:29:30Z</time>
<desc>lat.=55.990952, lon.=26.495070, Alt.=95.879944m. Speed=14.616000m/h.</desc>
<speed>4.060000</speed>
</trkpt>
<trkpt lat="55.990944" lon="26.495005">
<ele>95.694397</ele>
<time>2010-06-20T09:29:31Z</time>
<desc>lat.=55.990944, lon.=26.495005, Alt.=95.694397m. Speed=15.084000m/h.</desc>
<speed>4.190000</speed>
</trkpt>
<trkpt lat="55.990936" lon="26.494940">
<ele>95.588928</ele>
<time>2010-06-20T09:29:32Z</time>
<desc>lat.=55.990936, lon.=26.494940, Alt.=95.588928m. Speed=15.444000m/h.</desc>
<speed>4.290000</speed>
</trkpt>
<trkpt lat="55.990929" lon="26.494871">
<ele>95.399475</ele>
<time>2010-06-20T09:29:33Z</time>
<desc>lat.=55.990929, lon.=26.494871, Alt.=95.399475m. Speed=15.876000m/h.</desc>
<speed>4.410000</speed>
</trkpt>
<trkpt lat="55.990917" lon="26.494806">
<ele>95.169006</ele>
<time>2010-06-20T09:29:34Z</time>
<desc>lat.=55.990917, lon.=26.494806, Alt.=95.169006m. Speed=16.056000m/h.</desc>
<speed>4.460000</speed>
</trkpt>
<trkpt lat="55.990906" lon="26.494736">
<ele>95.055725</ele>
<time>2010-06-20T09:29:35Z</time>
<desc>lat.=55.990906, lon.=26.494736, Alt.=95.055725m. Speed=16.200001m/h.</desc>
<speed>4.500000</speed>
</trkpt>
<trkpt lat="55.990894" lon="26.494663">
<ele>95.028381</ele>
<time>2010-06-20T09:29:36Z</time>
<desc>lat.=55.990894, lon.=26.494663, Alt.=95.028381m. Speed=16.667999m/h.</desc>
<speed>4.630000</speed>
</trkpt>
<trkpt lat="55.990883" lon="26.494593">
<ele>94.813538</ele>
<time>2010-06-20T09:29:37Z</time>
<desc>lat.=55.990883, lon.=26.494593, Alt.=94.813538m. Speed=16.884001m/h.</desc>
<speed>4.690000</speed>
</trkpt>
<trkpt lat="55.990871" lon="26.494522">
<ele>94.643616</ele>
<time>2010-06-20T09:29:38Z</time>
<desc>lat.=55.990871, lon.=26.494522, Alt.=94.643616m. Speed=15.300000m/h.</desc>
<speed>4.250000</speed>
</trkpt>
<trkpt lat="55.990860" lon="26.494455">
<ele>94.544006</ele>
<time>2010-06-20T09:29:39Z</time>
<desc>lat.=55.990860, lon.=26.494455, Alt.=94.544006m. Speed=15.624000m/h.</desc>
<speed>4.340000</speed>
</trkpt>
<trkpt lat="55.990845" lon="26.494387">
<ele>94.438538</ele>
<time>2010-06-20T09:29:40Z</time>
<desc>lat.=55.990845, lon.=26.494387, Alt.=94.438538m. Speed=16.091999m/h.</desc>
<speed>4.470000</speed>
</trkpt>
<trkpt lat="55.990829" lon="26.494320">
<ele>94.268616</ele>
<time>2010-06-20T09:29:41Z</time>
<desc>lat.=55.990829, lon.=26.494320, Alt.=94.268616m. Speed=16.704000m/h.</desc>
<speed>4.640000</speed>
</trkpt>
<trkpt lat="55.990818" lon="26.494247">
<ele>94.028381</ele>
<time>2010-06-20T09:29:42Z</time>
<desc>lat.=55.990818, lon.=26.494247, Alt.=94.028381m. Speed=17.316000m/h.</desc>
<speed>4.810000</speed>
</trkpt>
<trkpt lat="55.990803" lon="26.494173">
<ele>93.881897</ele>
<time>2010-06-20T09:29:43Z</time>
<desc>lat.=55.990803, lon.=26.494173, Alt.=93.881897m. Speed=18.108000m/h.</desc>
<speed>5.030000</speed>
</trkpt>
<trkpt lat="55.990788" lon="26.494095">
<ele>93.686584</ele>
<time>2010-06-20T09:29:44Z</time>
<desc>lat.=55.990788, lon.=26.494095, Alt.=93.686584m. Speed=18.936001m/h.</desc>
<speed>5.260000</speed>
</trkpt>
<trkpt lat="55.990768" lon="26.494015">
<ele>93.385803</ele>
<time>2010-06-20T09:29:45Z</time>
<desc>lat.=55.990768, lon.=26.494015, Alt.=93.385803m. Speed=19.764000m/h.</desc>
<speed>5.490000</speed>
</trkpt>
<trkpt lat="55.990753" lon="26.493929">
<ele>93.176819</ele>
<time>2010-06-20T09:29:46Z</time>
<desc>lat.=55.990753, lon.=26.493929, Alt.=93.176819m. Speed=20.448000m/h.</desc>
<speed>5.680000</speed>
</trkpt>
<trkpt lat="55.990738" lon="26.493843">
<ele>92.876038</ele>
<time>2010-06-20T09:29:47Z</time>
<desc>lat.=55.990738, lon.=26.493843, Alt.=92.876038m. Speed=21.096001m/h.</desc>
<speed>5.860000</speed>
</trkpt>
<trkpt lat="55.990719" lon="26.493755">
<ele>92.585022</ele>
<time>2010-06-20T09:29:48Z</time>
<desc>lat.=55.990719, lon.=26.493755, Alt.=92.585022m. Speed=21.132000m/h.</desc>
<speed>5.870000</speed>
</trkpt>
<trkpt lat="55.990700" lon="26.493671">
<ele>92.301819</ele>
<time>2010-06-20T09:29:49Z</time>
<desc>lat.=55.990700, lon.=26.493671, Alt.=92.301819m. Speed=20.916000m/h.</desc>
<speed>5.810000</speed>
</trkpt>
<trkpt lat="55.990681" lon="26.493589">
<ele>92.252991</ele>
<time>2010-06-20T09:29:50Z</time>
<desc>lat.=55.990681, lon.=26.493589, Alt.=92.252991m. Speed=20.879999m/h.</desc>
<speed>5.800000</speed>
</trkpt>
<trkpt lat="55.990658" lon="26.493502">
<ele>92.169006</ele>
<time>2010-06-20T09:29:51Z</time>
<desc>lat.=55.990658, lon.=26.493502, Alt.=92.169006m. Speed=21.024000m/h.</desc>
<speed>5.840000</speed>
</trkpt>
<trkpt lat="55.990643" lon="26.493414">
<ele>91.999084</ele>
<time>2010-06-20T09:29:52Z</time>
<desc>lat.=55.990643, lon.=26.493414, Alt.=91.999084m. Speed=21.096001m/h.</desc>
<speed>5.860000</speed>
</trkpt>
<trkpt lat="55.990623" lon="26.493324">
<ele>91.799866</ele>
<time>2010-06-20T09:29:53Z</time>
<desc>lat.=55.990623, lon.=26.493324, Alt.=91.799866m. Speed=21.024000m/h.</desc>
<speed>5.840000</speed>
</trkpt>
<trkpt lat="55.990601" lon="26.493233">
<ele>91.633850</ele>
<time>2010-06-20T09:29:54Z</time>
<desc>lat.=55.990601, lon.=26.493233, Alt.=91.633850m. Speed=20.700001m/h.</desc>
<speed>5.750000</speed>
</trkpt>
<trkpt lat="55.990585" lon="26.493139">
<ele>91.344788</ele>
<time>2010-06-20T09:29:55Z</time>
<desc>lat.=55.990585, lon.=26.493139, Alt.=91.344788m. Speed=21.384001m/h.</desc>
<speed>5.940000</speed>
</trkpt>
<trkpt lat="55.990570" lon="26.493046">
<ele>91.057678</ele>
<time>2010-06-20T09:29:56Z</time>
<desc>lat.=55.990570, lon.=26.493046, Alt.=91.057678m. Speed=21.455999m/h.</desc>
<speed>5.960000</speed>
</trkpt>
<trkpt lat="55.990551" lon="26.492952">
<ele>90.731506</ele>
<time>2010-06-20T09:29:57Z</time>
<desc>lat.=55.990551, lon.=26.492952, Alt.=90.731506m. Speed=21.132000m/h.</desc>
<speed>5.870000</speed>
</trkpt>
<trkpt lat="55.990532" lon="26.492863">
<ele>90.497131</ele>
<time>2010-06-20T09:29:58Z</time>
<desc>lat.=55.990532, lon.=26.492863, Alt.=90.497131m. Speed=21.059999m/h.</desc>
<speed>5.850000</speed>
</trkpt>
<trkpt lat="55.990513" lon="26.492771">
<ele>90.272522</ele>
<time>2010-06-20T09:29:59Z</time>
<desc>lat.=55.990513, lon.=26.492771, Alt.=90.272522m. Speed=20.808001m/h.</desc>
<speed>5.780000</speed>
</trkpt>
<trkpt lat="55.990498" lon="26.492683">
<ele>90.004944</ele>
<time>2010-06-20T09:30:00Z</time>
<desc>lat.=55.990498, lon.=26.492683, Alt.=90.004944m. Speed=21.132000m/h.</desc>
<speed>5.870000</speed>
</trkpt>
<trkpt lat="55.990482" lon="26.492590">
<ele>89.860413</ele>
<time>2010-06-20T09:30:01Z</time>
<desc>lat.=55.990482, lon.=26.492590, Alt.=89.860413m. Speed=21.167999m/h.</desc>
<speed>5.880000</speed>
</trkpt>
<trkpt lat="55.990459" lon="26.492498">
<ele>89.629944</ele>
<time>2010-06-20T09:30:02Z</time>
<desc>lat.=55.990459, lon.=26.492498, Alt.=89.629944m. Speed=21.420000m/h.</desc>
<speed>5.950000</speed>
</trkpt>
<trkpt lat="55.990440" lon="26.492405">
<ele>89.473694</ele>
<time>2010-06-20T09:30:03Z</time>
<desc>lat.=55.990440, lon.=26.492405, Alt.=89.473694m. Speed=21.708000m/h.</desc>
<speed>6.030000</speed>
</trkpt>
<trkpt lat="55.990421" lon="26.492313">
<ele>89.241272</ele>
<time>2010-06-20T09:30:04Z</time>
<desc>lat.=55.990421, lon.=26.492313, Alt.=89.241272m. Speed=21.959999m/h.</desc>
<speed>6.100000</speed>
</trkpt>
<trkpt lat="55.990402" lon="26.492220">
<ele>88.997131</ele>
<time>2010-06-20T09:30:05Z</time>
<desc>lat.=55.990402, lon.=26.492220, Alt.=88.997131m. Speed=22.247999m/h.</desc>
<speed>6.180000</speed>
</trkpt>
<trkpt lat="55.990379" lon="26.492123">
<ele>88.713928</ele>
<time>2010-06-20T09:30:06Z</time>
<desc>lat.=55.990379, lon.=26.492123, Alt.=88.713928m. Speed=22.896000m/h.</desc>
<speed>6.360000</speed>
</trkpt>
<trkpt lat="55.990360" lon="26.492023">
<ele>88.379944</ele>
<time>2010-06-20T09:30:07Z</time>
<desc>lat.=55.990360, lon.=26.492023, Alt.=88.379944m. Speed=23.364000m/h.</desc>
<speed>6.490000</speed>
</trkpt>
<trkpt lat="55.990337" lon="26.491922">
<ele>88.104553</ele>
<time>2010-06-20T09:30:08Z</time>
<desc>lat.=55.990337, lon.=26.491922, Alt.=88.104553m. Speed=23.976000m/h.</desc>
<speed>6.660000</speed>
</trkpt>
<trkpt lat="55.990318" lon="26.491819">
<ele>87.872131</ele>
<time>2010-06-20T09:30:09Z</time>
<desc>lat.=55.990318, lon.=26.491819, Alt.=87.872131m. Speed=24.299999m/h.</desc>
<speed>6.750000</speed>
</trkpt>
<trkpt lat="55.990295" lon="26.491714">
<ele>87.731506</ele>
<time>2010-06-20T09:30:10Z</time>
<desc>lat.=55.990295, lon.=26.491714, Alt.=87.731506m. Speed=24.444000m/h.</desc>
<speed>6.790000</speed>
</trkpt>
<trkpt lat="55.990276" lon="26.491611">
<ele>87.338928</ele>
<time>2010-06-20T09:30:11Z</time>
<desc>lat.=55.990276, lon.=26.491611, Alt.=87.338928m. Speed=24.695999m/h.</desc>
<speed>6.860000</speed>
</trkpt>
<trkpt lat="55.990253" lon="26.491508">
<ele>87.094788</ele>
<time>2010-06-20T09:30:12Z</time>
<desc>lat.=55.990253, lon.=26.491508, Alt.=87.094788m. Speed=24.804001m/h.</desc>
<speed>6.890000</speed>
</trkpt>
<trkpt lat="55.990231" lon="26.491402">
<ele>87.010803</ele>
<time>2010-06-20T09:30:13Z</time>
<desc>lat.=55.990231, lon.=26.491402, Alt.=87.010803m. Speed=24.048000m/h.</desc>
<speed>6.680000</speed>
</trkpt>
<trkpt lat="55.990204" lon="26.491297">
<ele>86.975647</ele>
<time>2010-06-20T09:30:14Z</time>
<desc>lat.=55.990204, lon.=26.491297, Alt.=86.975647m. Speed=23.903999m/h.</desc>
<speed>6.640000</speed>
</trkpt>
<trkpt lat="55.990185" lon="26.491194">
<ele>86.649475</ele>
<time>2010-06-20T09:30:15Z</time>
<desc>lat.=55.990185, lon.=26.491194, Alt.=86.649475m. Speed=23.724001m/h.</desc>
<speed>6.590000</speed>
</trkpt>
<trkpt lat="55.990162" lon="26.491095">
<ele>86.352600</ele>
<time>2010-06-20T09:30:16Z</time>
<desc>lat.=55.990162, lon.=26.491095, Alt.=86.352600m. Speed=23.436001m/h.</desc>
<speed>6.510000</speed>
</trkpt>
<trkpt lat="55.990143" lon="26.490997">
<ele>86.252991</ele>
<time>2010-06-20T09:30:17Z</time>
<desc>lat.=55.990143, lon.=26.490997, Alt.=86.252991m. Speed=23.148001m/h.</desc>
<speed>6.430000</speed>
</trkpt>
<trkpt lat="55.990120" lon="26.490904">
<ele>86.190491</ele>
<time>2010-06-20T09:30:18Z</time>
<desc>lat.=55.990120, lon.=26.490904, Alt.=86.190491m. Speed=22.212000m/h.</desc>
<speed>6.170000</speed>
</trkpt>
<trkpt lat="55.990097" lon="26.490816">
<ele>86.155334</ele>
<time>2010-06-20T09:30:19Z</time>
<desc>lat.=55.990097, lon.=26.490816, Alt.=86.155334m. Speed=21.204000m/h.</desc>
<speed>5.890000</speed>
</trkpt>
<trkpt lat="55.990078" lon="26.490728">
<ele>86.012756</ele>
<time>2010-06-20T09:30:20Z</time>
<desc>lat.=55.990078, lon.=26.490728, Alt.=86.012756m. Speed=21.240000m/h.</desc>
<speed>5.900000</speed>
</trkpt>
<trkpt lat="55.990059" lon="26.490641">
<ele>86.010803</ele>
<time>2010-06-20T09:30:21Z</time>
<desc>lat.=55.990059, lon.=26.490641, Alt.=86.010803m. Speed=21.167999m/h.</desc>
<speed>5.880000</speed>
</trkpt>
<trkpt lat="55.990040" lon="26.490557">
<ele>86.122131</ele>
<time>2010-06-20T09:30:22Z</time>
<desc>lat.=55.990040, lon.=26.490557, Alt.=86.122131m. Speed=21.275999m/h.</desc>
<speed>5.910000</speed>
</trkpt>
<trkpt lat="55.990025" lon="26.490461">
<ele>85.563538</ele>
<time>2010-06-20T09:30:23Z</time>
<desc>lat.=55.990025, lon.=26.490461, Alt.=85.563538m. Speed=22.860001m/h.</desc>
<speed>6.350000</speed>
</trkpt>
<trkpt lat="55.990009" lon="26.490366">
<ele>85.475647</ele>
<time>2010-06-20T09:30:24Z</time>
<desc>lat.=55.990009, lon.=26.490366, Alt.=85.475647m. Speed=21.348000m/h.</desc>
<speed>5.930000</speed>
</trkpt>
<trkpt lat="55.989990" lon="26.490274">
<ele>85.870178</ele>
<time>2010-06-20T09:30:25Z</time>
<desc>lat.=55.989990, lon.=26.490274, Alt.=85.870178m. Speed=19.764000m/h.</desc>
<speed>5.490000</speed>
</trkpt>
<trkpt lat="55.989979" lon="26.490181">
<ele>85.682678</ele>
<time>2010-06-20T09:30:26Z</time>
<desc>lat.=55.989979, lon.=26.490181, Alt.=85.682678m. Speed=18.072001m/h.</desc>
<speed>5.020000</speed>
</trkpt>
<trkpt lat="55.989971" lon="26.490101">
<ele>85.627991</ele>
<time>2010-06-20T09:30:27Z</time>
<desc>lat.=55.989971, lon.=26.490101, Alt.=85.627991m. Speed=17.100000m/h.</desc>
<speed>4.750000</speed>
</trkpt>
<trkpt lat="55.989964" lon="26.490023">
<ele>85.135803</ele>
<time>2010-06-20T09:30:28Z</time>
<desc>lat.=55.989964, lon.=26.490023, Alt.=85.135803m. Speed=16.740000m/h.</desc>
<speed>4.650000</speed>
</trkpt>
<trkpt lat="55.989941" lon="26.489956">
<ele>86.645569</ele>
<time>2010-06-20T09:30:29Z</time>
<desc>lat.=55.989941, lon.=26.489956, Alt.=86.645569m. Speed=15.912000m/h.</desc>
<speed>4.420000</speed>
</trkpt>
<trkpt lat="55.989929" lon="26.489887">
<ele>86.633850</ele>
<time>2010-06-20T09:30:30Z</time>
<desc>lat.=55.989929, lon.=26.489887, Alt.=86.633850m. Speed=16.848000m/h.</desc>
<speed>4.680000</speed>
</trkpt>
<trkpt lat="55.989918" lon="26.489813">
<ele>86.645569</ele>
<time>2010-06-20T09:30:31Z</time>
<desc>lat.=55.989918, lon.=26.489813, Alt.=86.645569m. Speed=17.964001m/h.</desc>
<speed>4.990000</speed>
</trkpt>
<trkpt lat="55.989899" lon="26.489737">
<ele>86.811584</ele>
<time>2010-06-20T09:30:32Z</time>
<desc>lat.=55.989899, lon.=26.489737, Alt.=86.811584m. Speed=19.224001m/h.</desc>
<speed>5.340000</speed>
</trkpt>
<trkpt lat="55.989883" lon="26.489658">
<ele>87.036194</ele>
<time>2010-06-20T09:30:33Z</time>
<desc>lat.=55.989883, lon.=26.489658, Alt.=87.036194m. Speed=20.268000m/h.</desc>
<speed>5.630000</speed>
</trkpt>
<trkpt lat="55.989864" lon="26.489574">
<ele>86.960022</ele>
<time>2010-06-20T09:30:34Z</time>
<desc>lat.=55.989864, lon.=26.489574, Alt.=86.960022m. Speed=21.024000m/h.</desc>
<speed>5.840000</speed>
</trkpt>
<trkpt lat="55.989849" lon="26.489487">
<ele>87.059631</ele>
<time>2010-06-20T09:30:35Z</time>
<desc>lat.=55.989849, lon.=26.489487, Alt.=87.059631m. Speed=21.132000m/h.</desc>
<speed>5.870000</speed>
</trkpt>
<trkpt lat="55.989830" lon="26.489397">
<ele>87.243225</ele>
<time>2010-06-20T09:30:36Z</time>
<desc>lat.=55.989830, lon.=26.489397, Alt.=87.243225m. Speed=20.664000m/h.</desc>
<speed>5.740000</speed>
</trkpt>
<trkpt lat="55.989819" lon="26.489315">
<ele>87.141663</ele>
<time>2010-06-20T09:30:37Z</time>
<desc>lat.=55.989819, lon.=26.489315, Alt.=87.141663m. Speed=19.944000m/h.</desc>
<speed>5.540000</speed>
</trkpt>
<trkpt lat="55.989799" lon="26.489227">
<ele>87.137756</ele>
<time>2010-06-20T09:30:38Z</time>
<desc>lat.=55.989799, lon.=26.489227, Alt.=87.137756m. Speed=19.403999m/h.</desc>
<speed>5.390000</speed>
</trkpt>
<trkpt lat="55.989784" lon="26.489149">
<ele>87.294006</ele>
<time>2010-06-20T09:30:39Z</time>
<desc>lat.=55.989784, lon.=26.489149, Alt.=87.294006m. Speed=18.143999m/h.</desc>
<speed>5.040000</speed>
</trkpt>
<trkpt lat="55.989769" lon="26.489073">
<ele>87.559631</ele>
<time>2010-06-20T09:30:40Z</time>
<desc>lat.=55.989769, lon.=26.489073, Alt.=87.559631m. Speed=18.108000m/h.</desc>
<speed>5.030000</speed>
</trkpt>
<trkpt lat="55.989750" lon="26.488997">
<ele>87.620178</ele>
<time>2010-06-20T09:30:41Z</time>
<desc>lat.=55.989750, lon.=26.488997, Alt.=87.620178m. Speed=18.540001m/h.</desc>
<speed>5.150000</speed>
</trkpt>
<trkpt lat="55.989735" lon="26.488918">
<ele>87.754944</ele>
<time>2010-06-20T09:30:42Z</time>
<desc>lat.=55.989735, lon.=26.488918, Alt.=87.754944m. Speed=18.719999m/h.</desc>
<speed>5.200000</speed>
</trkpt>
<trkpt lat="55.989719" lon="26.488842">
<ele>87.745178</ele>
<time>2010-06-20T09:30:43Z</time>
<desc>lat.=55.989719, lon.=26.488842, Alt.=87.745178m. Speed=18.540001m/h.</desc>
<speed>5.150000</speed>
</trkpt>
<trkpt lat="55.989704" lon="26.488773">
<ele>87.723694</ele>
<time>2010-06-20T09:30:44Z</time>
<desc>lat.=55.989704, lon.=26.488773, Alt.=87.723694m. Speed=17.676001m/h.</desc>
<speed>4.910000</speed>
</trkpt>
<trkpt lat="55.989689" lon="26.488708">
<ele>88.049866</ele>
<time>2010-06-20T09:30:45Z</time>
<desc>lat.=55.989689, lon.=26.488708, Alt.=88.049866m. Speed=16.775999m/h.</desc>
<speed>4.660000</speed>
</trkpt>
<trkpt lat="55.989674" lon="26.488644">
<ele>88.098694</ele>
<time>2010-06-20T09:30:46Z</time>
<desc>lat.=55.989674, lon.=26.488644, Alt.=88.098694m. Speed=16.344000m/h.</desc>
<speed>4.540000</speed>
</trkpt>
<trkpt lat="55.989658" lon="26.488573">
<ele>88.403381</ele>
<time>2010-06-20T09:30:47Z</time>
<desc>lat.=55.989658, lon.=26.488573, Alt.=88.403381m. Speed=16.452000m/h.</desc>
<speed>4.570000</speed>
</trkpt>
<trkpt lat="55.989647" lon="26.488508">
<ele>88.475647</ele>
<time>2010-06-20T09:30:48Z</time>
<desc>lat.=55.989647, lon.=26.488508, Alt.=88.475647m. Speed=15.012000m/h.</desc>
<speed>4.170000</speed>
</trkpt>
<trkpt lat="55.989628" lon="26.488445">
<ele>88.618225</ele>
<time>2010-06-20T09:30:49Z</time>
<desc>lat.=55.989628, lon.=26.488445, Alt.=88.618225m. Speed=14.184000m/h.</desc>
<speed>3.940000</speed>
</trkpt>
<trkpt lat="55.989616" lon="26.488390">
<ele>88.631897</ele>
<time>2010-06-20T09:30:50Z</time>
<desc>lat.=55.989616, lon.=26.488390, Alt.=88.631897m. Speed=14.004000m/h.</desc>
<speed>3.890000</speed>
</trkpt>
<trkpt lat="55.989601" lon="26.488331">
<ele>88.690491</ele>
<time>2010-06-20T09:30:51Z</time>
<desc>lat.=55.989601, lon.=26.488331, Alt.=88.690491m. Speed=14.832000m/h.</desc>
<speed>4.120000</speed>
</trkpt>
<trkpt lat="55.989586" lon="26.488277">
<ele>89.151428</ele>
<time>2010-06-20T09:30:52Z</time>
<desc>lat.=55.989586, lon.=26.488277, Alt.=89.151428m. Speed=15.660000m/h.</desc>
<speed>4.350000</speed>
</trkpt>
<trkpt lat="55.989571" lon="26.488214">
<ele>89.127991</ele>
<time>2010-06-20T09:30:53Z</time>
<desc>lat.=55.989571, lon.=26.488214, Alt.=89.127991m. Speed=16.704000m/h.</desc>
<speed>4.640000</speed>
</trkpt>
<trkpt lat="55.989552" lon="26.488152">
<ele>89.729553</ele>
<time>2010-06-20T09:30:54Z</time>
<desc>lat.=55.989552, lon.=26.488152, Alt.=89.729553m. Speed=16.884001m/h.</desc>
<speed>4.690000</speed>
</trkpt>
<trkpt lat="55.989532" lon="26.488085">
<ele>89.936584</ele>
<time>2010-06-20T09:30:55Z</time>
<desc>lat.=55.989532, lon.=26.488085, Alt.=89.936584m. Speed=16.379999m/h.</desc>
<speed>4.550000</speed>
</trkpt>
<trkpt lat="55.989517" lon="26.488018">
<ele>89.805725</ele>
<time>2010-06-20T09:30:56Z</time>
<desc>lat.=55.989517, lon.=26.488018, Alt.=89.805725m. Speed=15.948000m/h.</desc>
<speed>4.430000</speed>
</trkpt>
<trkpt lat="55.989498" lon="26.487949">
<ele>90.018616</ele>
<time>2010-06-20T09:30:57Z</time>
<desc>lat.=55.989498, lon.=26.487949, Alt.=90.018616m. Speed=15.912000m/h.</desc>
<speed>4.420000</speed>
</trkpt>
<trkpt lat="55.989483" lon="26.487885">
<ele>90.036194</ele>
<time>2010-06-20T09:30:58Z</time>
<desc>lat.=55.989483, lon.=26.487885, Alt.=90.036194m. Speed=15.804000m/h.</desc>
<speed>4.390000</speed>
</trkpt>
<trkpt lat="55.989468" lon="26.487820">
<ele>89.700256</ele>
<time>2010-06-20T09:30:59Z</time>
<desc>lat.=55.989468, lon.=26.487820, Alt.=89.700256m. Speed=15.948000m/h.</desc>
<speed>4.430000</speed>
</trkpt>
<trkpt lat="55.989452" lon="26.487755">
<ele>89.633850</ele>
<time>2010-06-20T09:31:00Z</time>
<desc>lat.=55.989452, lon.=26.487755, Alt.=89.633850m. Speed=15.588000m/h.</desc>
<speed>4.330000</speed>
</trkpt>
<trkpt lat="55.989441" lon="26.487688">
<ele>89.434631</ele>
<time>2010-06-20T09:31:01Z</time>
<desc>lat.=55.989441, lon.=26.487688, Alt.=89.434631m. Speed=15.768000m/h.</desc>
<speed>4.380000</speed>
</trkpt>
<trkpt lat="55.989426" lon="26.487623">
<ele>89.131897</ele>
<time>2010-06-20T09:31:02Z</time>
<desc>lat.=55.989426, lon.=26.487623, Alt.=89.131897m. Speed=16.308001m/h.</desc>
<speed>4.530000</speed>
</trkpt>
<trkpt lat="55.989414" lon="26.487558">
<ele>88.915100</ele>
<time>2010-06-20T09:31:03Z</time>
<desc>lat.=55.989414, lon.=26.487558, Alt.=88.915100m. Speed=16.452000m/h.</desc>
<speed>4.570000</speed>
</trkpt>
<trkpt lat="55.989399" lon="26.487494">
<ele>88.649475</ele>
<time>2010-06-20T09:31:04Z</time>
<desc>lat.=55.989399, lon.=26.487494, Alt.=88.649475m. Speed=16.775999m/h.</desc>
<speed>4.660000</speed>
</trkpt>
<trkpt lat="55.989384" lon="26.487431">
<ele>88.583069</ele>
<time>2010-06-20T09:31:05Z</time>
<desc>lat.=55.989384, lon.=26.487431, Alt.=88.583069m. Speed=16.955999m/h.</desc>
<speed>4.710000</speed>
</trkpt>
<trkpt lat="55.989365" lon="26.487368">
<ele>88.616272</ele>
<time>2010-06-20T09:31:06Z</time>
<desc>lat.=55.989365, lon.=26.487368, Alt.=88.616272m. Speed=16.920000m/h.</desc>
<speed>4.700000</speed>
</trkpt>
<trkpt lat="55.989349" lon="26.487303">
<ele>88.497131</ele>
<time>2010-06-20T09:31:07Z</time>
<desc>lat.=55.989349, lon.=26.487303, Alt.=88.497131m. Speed=17.028000m/h.</desc>
<speed>4.730000</speed>
</trkpt>
<trkpt lat="55.989334" lon="26.487230">
<ele>88.268616</ele>
<time>2010-06-20T09:31:08Z</time>
<desc>lat.=55.989334, lon.=26.487230, Alt.=88.268616m. Speed=17.136000m/h.</desc>
<speed>4.760000</speed>
</trkpt>
<trkpt lat="55.989319" lon="26.487162">
<ele>88.208069</ele>
<time>2010-06-20T09:31:09Z</time>
<desc>lat.=55.989319, lon.=26.487162, Alt.=88.208069m. Speed=17.459999m/h.</desc>
<speed>4.850000</speed>
</trkpt>
<trkpt lat="55.989304" lon="26.487093">
<ele>88.126038</ele>
<time>2010-06-20T09:31:10Z</time>
<desc>lat.=55.989304, lon.=26.487093, Alt.=88.126038m. Speed=17.712000m/h.</desc>
<speed>4.920000</speed>
</trkpt>
<trkpt lat="55.989285" lon="26.487020">
<ele>88.055725</ele>
<time>2010-06-20T09:31:11Z</time>
<desc>lat.=55.989285, lon.=26.487020, Alt.=88.055725m. Speed=17.820000m/h.</desc>
<speed>4.950000</speed>
</trkpt>
<trkpt lat="55.989269" lon="26.486950">
<ele>87.819397</ele>
<time>2010-06-20T09:31:12Z</time>
<desc>lat.=55.989269, lon.=26.486950, Alt.=87.819397m. Speed=17.927999m/h.</desc>
<speed>4.980000</speed>
</trkpt>
<trkpt lat="55.989250" lon="26.486876">
<ele>87.469788</ele>
<time>2010-06-20T09:31:13Z</time>
<desc>lat.=55.989250, lon.=26.486876, Alt.=87.469788m. Speed=18.108000m/h.</desc>
<speed>5.030000</speed>
</trkpt>
<trkpt lat="55.989231" lon="26.486809">
<ele>87.442444</ele>
<time>2010-06-20T09:31:14Z</time>
<desc>lat.=55.989231, lon.=26.486809, Alt.=87.442444m. Speed=17.927999m/h.</desc>
<speed>4.980000</speed>
</trkpt>
<trkpt lat="55.989216" lon="26.486740">
<ele>87.284241</ele>
<time>2010-06-20T09:31:15Z</time>
<desc>lat.=55.989216, lon.=26.486740, Alt.=87.284241m. Speed=16.920000m/h.</desc>
<speed>4.700000</speed>
</trkpt>
<trkpt lat="55.989201" lon="26.486675">
<ele>87.098694</ele>
<time>2010-06-20T09:31:16Z</time>
<desc>lat.=55.989201, lon.=26.486675, Alt.=87.098694m. Speed=16.308001m/h.</desc>
<speed>4.530000</speed>
</trkpt>
<trkpt lat="55.989189" lon="26.486612">
<ele>87.001038</ele>
<time>2010-06-20T09:31:17Z</time>
<desc>lat.=55.989189, lon.=26.486612, Alt.=87.001038m. Speed=16.128000m/h.</desc>
<speed>4.480000</speed>
</trkpt>
<trkpt lat="55.989174" lon="26.486549">
<ele>86.913147</ele>
<time>2010-06-20T09:31:18Z</time>
<desc>lat.=55.989174, lon.=26.486549, Alt.=86.913147m. Speed=15.408000m/h.</desc>
<speed>4.280000</speed>
</trkpt>
<trkpt lat="55.989159" lon="26.486488">
<ele>86.872131</ele>
<time>2010-06-20T09:31:19Z</time>
<desc>lat.=55.989159, lon.=26.486488, Alt.=86.872131m. Speed=15.264000m/h.</desc>
<speed>4.240000</speed>
</trkpt>
<trkpt lat="55.989143" lon="26.486429">
<ele>86.819397</ele>
<time>2010-06-20T09:31:20Z</time>
<desc>lat.=55.989143, lon.=26.486429, Alt.=86.819397m. Speed=15.300000m/h.</desc>
<speed>4.250000</speed>
</trkpt>
<trkpt lat="55.989124" lon="26.486372">
<ele>86.940491</ele>
<time>2010-06-20T09:31:21Z</time>
<desc>lat.=55.989124, lon.=26.486372, Alt.=86.940491m. Speed=15.156000m/h.</desc>
<speed>4.210000</speed>
</trkpt>
<trkpt lat="55.989109" lon="26.486313">
<ele>86.881897</ele>
<time>2010-06-20T09:31:22Z</time>
<desc>lat.=55.989109, lon.=26.486313, Alt.=86.881897m. Speed=15.012000m/h.</desc>
<speed>4.170000</speed>
</trkpt>
<trkpt lat="55.989098" lon="26.486252">
<ele>86.829163</ele>
<time>2010-06-20T09:31:23Z</time>
<desc>lat.=55.989098, lon.=26.486252, Alt.=86.829163m. Speed=14.724000m/h.</desc>
<speed>4.090000</speed>
</trkpt>
<trkpt lat="55.989086" lon="26.486193">
<ele>86.735413</ele>
<time>2010-06-20T09:31:24Z</time>
<desc>lat.=55.989086, lon.=26.486193, Alt.=86.735413m. Speed=13.716000m/h.</desc>
<speed>3.810000</speed>
</trkpt>
<trkpt lat="55.989075" lon="26.486132">
<ele>86.835022</ele>
<time>2010-06-20T09:31:25Z</time>
<desc>lat.=55.989075, lon.=26.486132, Alt.=86.835022m. Speed=13.104000m/h.</desc>
<speed>3.640000</speed>
</trkpt>
<trkpt lat="55.989063" lon="26.486084">
<ele>87.028381</ele>
<time>2010-06-20T09:31:26Z</time>
<desc>lat.=55.989063, lon.=26.486084, Alt.=87.028381m. Speed=11.484000m/h.</desc>
<speed>3.190000</speed>
</trkpt>
<trkpt lat="55.989048" lon="26.486034">
<ele>87.251038</ele>
<time>2010-06-20T09:31:27Z</time>
<desc>lat.=55.989048, lon.=26.486034, Alt.=87.251038m. Speed=11.304000m/h.</desc>
<speed>3.140000</speed>
</trkpt>
<trkpt lat="55.989040" lon="26.485981">
<ele>87.366272</ele>
<time>2010-06-20T09:31:28Z</time>
<desc>lat.=55.989040, lon.=26.485981, Alt.=87.366272m. Speed=12.132000m/h.</desc>
<speed>3.370000</speed>
</trkpt>
<trkpt lat="55.989029" lon="26.485928">
<ele>87.436584</ele>
<time>2010-06-20T09:31:29Z</time>
<desc>lat.=55.989029, lon.=26.485928, Alt.=87.436584m. Speed=13.464000m/h.</desc>
<speed>3.740000</speed>
</trkpt>
<trkpt lat="55.989014" lon="26.485865">
<ele>87.346741</ele>
<time>2010-06-20T09:31:30Z</time>
<desc>lat.=55.989014, lon.=26.485865, Alt.=87.346741m. Speed=14.652000m/h.</desc>
<speed>4.070000</speed>
</trkpt>
<trkpt lat="55.988998" lon="26.485794">
<ele>87.038147</ele>
<time>2010-06-20T09:31:31Z</time>
<desc>lat.=55.988998, lon.=26.485794, Alt.=87.038147m. Speed=15.660000m/h.</desc>
<speed>4.350000</speed>
</trkpt>
<trkpt lat="55.988983" lon="26.485720">
<ele>86.856506</ele>
<time>2010-06-20T09:31:32Z</time>
<desc>lat.=55.988983, lon.=26.485720, Alt.=86.856506m. Speed=16.452000m/h.</desc>
<speed>4.570000</speed>
</trkpt>
<trkpt lat="55.988964" lon="26.485645">
<ele>86.754944</ele>
<time>2010-06-20T09:31:33Z</time>
<desc>lat.=55.988964, lon.=26.485645, Alt.=86.754944m. Speed=17.712000m/h.</desc>
<speed>4.920000</speed>
</trkpt>
<trkpt lat="55.988949" lon="26.485563">
<ele>86.702209</ele>
<time>2010-06-20T09:31:34Z</time>
<desc>lat.=55.988949, lon.=26.485563, Alt.=86.702209m. Speed=18.360001m/h.</desc>
<speed>5.100000</speed>
</trkpt>
<trkpt lat="55.988930" lon="26.485479">
<ele>86.604553</ele>
<time>2010-06-20T09:31:35Z</time>
<desc>lat.=55.988930, lon.=26.485479, Alt.=86.604553m. Speed=17.964001m/h.</desc>
<speed>4.990000</speed>
</trkpt>
<trkpt lat="55.988914" lon="26.485399">
<ele>86.803772</ele>
<time>2010-06-20T09:31:36Z</time>
<desc>lat.=55.988914, lon.=26.485399, Alt.=86.803772m. Speed=17.063999m/h.</desc>
<speed>4.740000</speed>
</trkpt>
<trkpt lat="55.988895" lon="26.485329">
<ele>87.026428</ele>
<time>2010-06-20T09:31:37Z</time>
<desc>lat.=55.988895, lon.=26.485329, Alt.=87.026428m. Speed=16.091999m/h.</desc>
<speed>4.470000</speed>
</trkpt>
<trkpt lat="55.988880" lon="26.485264">
<ele>87.172913</ele>
<time>2010-06-20T09:31:38Z</time>
<desc>lat.=55.988880, lon.=26.485264, Alt.=87.172913m. Speed=15.948000m/h.</desc>
<speed>4.430000</speed>
</trkpt>
<trkpt lat="55.988865" lon="26.485199">
<ele>87.350647</ele>
<time>2010-06-20T09:31:39Z</time>
<desc>lat.=55.988865, lon.=26.485199, Alt.=87.350647m. Speed=16.056000m/h.</desc>
<speed>4.460000</speed>
</trkpt>
<trkpt lat="55.988853" lon="26.485134">
<ele>87.329163</ele>
<time>2010-06-20T09:31:40Z</time>
<desc>lat.=55.988853, lon.=26.485134, Alt.=87.329163m. Speed=15.588000m/h.</desc>
<speed>4.330000</speed>
</trkpt>
<trkpt lat="55.988846" lon="26.485071">
<ele>87.436584</ele>
<time>2010-06-20T09:31:41Z</time>
<desc>lat.=55.988846, lon.=26.485071, Alt.=87.436584m. Speed=15.336000m/h.</desc>
<speed>4.260000</speed>
</trkpt>
<trkpt lat="55.988834" lon="26.485010">
<ele>87.489319</ele>
<time>2010-06-20T09:31:42Z</time>
<desc>lat.=55.988834, lon.=26.485010, Alt.=87.489319m. Speed=14.796000m/h.</desc>
<speed>4.110000</speed>
</trkpt>
<trkpt lat="55.988823" lon="26.484955">
<ele>87.643616</ele>
<time>2010-06-20T09:31:43Z</time>
<desc>lat.=55.988823, lon.=26.484955, Alt.=87.643616m. Speed=14.148000m/h.</desc>
<speed>3.930000</speed>
</trkpt>
<trkpt lat="55.988811" lon="26.484900">
<ele>87.530334</ele>
<time>2010-06-20T09:31:44Z</time>
<desc>lat.=55.988811, lon.=26.484900, Alt.=87.530334m. Speed=13.176000m/h.</desc>
<speed>3.660000</speed>
</trkpt>
<trkpt lat="55.988804" lon="26.484846">
<ele>87.401428</ele>
<time>2010-06-20T09:31:45Z</time>
<desc>lat.=55.988804, lon.=26.484846, Alt.=87.401428m. Speed=13.068000m/h.</desc>
<speed>3.630000</speed>
</trkpt>
<trkpt lat="55.988789" lon="26.484787">
<ele>87.588928</ele>
<time>2010-06-20T09:31:46Z</time>
<desc>lat.=55.988789, lon.=26.484787, Alt.=87.588928m. Speed=13.644000m/h.</desc>
<speed>3.790000</speed>
</trkpt>
<trkpt lat="55.988777" lon="26.484726">
<ele>87.747131</ele>
<time>2010-06-20T09:31:47Z</time>
<desc>lat.=55.988777, lon.=26.484726, Alt.=87.747131m. Speed=14.580000m/h.</desc>
<speed>4.050000</speed>
</trkpt>
<trkpt lat="55.988766" lon="26.484663">
<ele>87.860413</ele>
<time>2010-06-20T09:31:48Z</time>
<desc>lat.=55.988766, lon.=26.484663, Alt.=87.860413m. Speed=15.840000m/h.</desc>
<speed>4.400000</speed>
</trkpt>
<trkpt lat="55.988754" lon="26.484587">
<ele>87.344788</ele>
<time>2010-06-20T09:31:49Z</time>
<desc>lat.=55.988754, lon.=26.484587, Alt.=87.344788m. Speed=17.243999m/h.</desc>
<speed>4.790000</speed>
</trkpt>
<trkpt lat="55.988735" lon="26.484510">
<ele>87.493225</ele>
<time>2010-06-20T09:31:50Z</time>
<desc>lat.=55.988735, lon.=26.484510, Alt.=87.493225m. Speed=17.964001m/h.</desc>
<speed>4.990000</speed>
</trkpt>
<trkpt lat="55.988720" lon="26.484428">
<ele>87.372131</ele>
<time>2010-06-20T09:31:51Z</time>
<desc>lat.=55.988720, lon.=26.484428, Alt.=87.372131m. Speed=18.431999m/h.</desc>
<speed>5.120000</speed>
</trkpt>
<trkpt lat="55.988705" lon="26.484348">
<ele>87.694397</ele>
<time>2010-06-20T09:31:52Z</time>
<desc>lat.=55.988705, lon.=26.484348, Alt.=87.694397m. Speed=18.936001m/h.</desc>
<speed>5.260000</speed>
</trkpt>
<trkpt lat="55.988697" lon="26.484270">
<ele>87.674866</ele>
<time>2010-06-20T09:31:53Z</time>
<desc>lat.=55.988697, lon.=26.484270, Alt.=87.674866m. Speed=18.288000m/h.</desc>
<speed>5.080000</speed>
</trkpt>
<trkpt lat="55.988686" lon="26.484194">
<ele>87.647522</ele>
<time>2010-06-20T09:31:54Z</time>
<desc>lat.=55.988686, lon.=26.484194, Alt.=87.647522m. Speed=17.639999m/h.</desc>
<speed>4.900000</speed>
</trkpt>
<trkpt lat="55.988670" lon="26.484119">
<ele>87.669006</ele>
<time>2010-06-20T09:31:55Z</time>
<desc>lat.=55.988670, lon.=26.484119, Alt.=87.669006m. Speed=16.992001m/h.</desc>
<speed>4.720000</speed>
</trkpt>
<trkpt lat="55.988659" lon="26.484043">
<ele>87.579163</ele>
<time>2010-06-20T09:31:56Z</time>
<desc>lat.=55.988659, lon.=26.484043, Alt.=87.579163m. Speed=16.884001m/h.</desc>
<speed>4.690000</speed>
</trkpt>
<trkpt lat="55.988647" lon="26.483976">
<ele>87.653381</ele>
<time>2010-06-20T09:31:57Z</time>
<desc>lat.=55.988647, lon.=26.483976, Alt.=87.653381m. Speed=15.912000m/h.</desc>
<speed>4.420000</speed>
</trkpt>
<trkpt lat="55.988628" lon="26.483908">
<ele>88.321350</ele>
<time>2010-06-20T09:31:58Z</time>
<desc>lat.=55.988628, lon.=26.483908, Alt.=88.321350m. Speed=16.775999m/h.</desc>
<speed>4.660000</speed>
</trkpt>
<trkpt lat="55.988609" lon="26.483837">
<ele>88.719788</ele>
<time>2010-06-20T09:31:59Z</time>
<desc>lat.=55.988609, lon.=26.483837, Alt.=88.719788m. Speed=16.848000m/h.</desc>
<speed>4.680000</speed>
</trkpt>
<trkpt lat="55.988598" lon="26.483755">
<ele>88.188538</ele>
<time>2010-06-20T09:32:00Z</time>
<desc>lat.=55.988598, lon.=26.483755, Alt.=88.188538m. Speed=17.856001m/h.</desc>
<speed>4.960000</speed>
</trkpt>
<trkpt lat="55.988590" lon="26.483671">
<ele>87.600647</ele>
<time>2010-06-20T09:32:01Z</time>
<desc>lat.=55.988590, lon.=26.483671, Alt.=87.600647m. Speed=17.316000m/h.</desc>
<speed>4.810000</speed>
</trkpt>
<trkpt lat="55.988575" lon="26.483591">
<ele>87.719788</ele>
<time>2010-06-20T09:32:02Z</time>
<desc>lat.=55.988575, lon.=26.483591, Alt.=87.719788m. Speed=18.288000m/h.</desc>
<speed>5.080000</speed>
</trkpt>
<trkpt lat="55.988564" lon="26.483513">
<ele>87.266663</ele>
<time>2010-06-20T09:32:03Z</time>
<desc>lat.=55.988564, lon.=26.483513, Alt.=87.266663m. Speed=18.972000m/h.</desc>
<speed>5.270000</speed>
</trkpt>
<trkpt lat="55.988552" lon="26.483433">
<ele>87.204163</ele>
<time>2010-06-20T09:32:04Z</time>
<desc>lat.=55.988552, lon.=26.483433, Alt.=87.204163m. Speed=18.540001m/h.</desc>
<speed>5.150000</speed>
</trkpt>
<trkpt lat="55.988541" lon="26.483360">
<ele>87.012756</ele>
<time>2010-06-20T09:32:05Z</time>
<desc>lat.=55.988541, lon.=26.483360, Alt.=87.012756m. Speed=18.540001m/h.</desc>
<speed>5.150000</speed>
</trkpt>
<trkpt lat="55.988529" lon="26.483284">
<ele>86.694397</ele>
<time>2010-06-20T09:32:06Z</time>
<desc>lat.=55.988529, lon.=26.483284, Alt.=86.694397m. Speed=18.396000m/h.</desc>
<speed>5.110000</speed>
</trkpt>
<trkpt lat="55.988518" lon="26.483210">
<ele>86.504944</ele>
<time>2010-06-20T09:32:07Z</time>
<desc>lat.=55.988518, lon.=26.483210, Alt.=86.504944m. Speed=18.396000m/h.</desc>
<speed>5.110000</speed>
</trkpt>
<trkpt lat="55.988503" lon="26.483133">
<ele>86.436584</ele>
<time>2010-06-20T09:32:08Z</time>
<desc>lat.=55.988503, lon.=26.483133, Alt.=86.436584m. Speed=18.323999m/h.</desc>
<speed>5.090000</speed>
</trkpt>
<trkpt lat="55.988491" lon="26.483059">
<ele>86.002991</ele>
<time>2010-06-20T09:32:09Z</time>
<desc>lat.=55.988491, lon.=26.483059, Alt.=86.002991m. Speed=18.288000m/h.</desc>
<speed>5.080000</speed>
</trkpt>
<trkpt lat="55.988476" lon="26.482988">
<ele>85.960022</ele>
<time>2010-06-20T09:32:10Z</time>
<desc>lat.=55.988476, lon.=26.482988, Alt.=85.960022m. Speed=18.072001m/h.</desc>
<speed>5.020000</speed>
</trkpt>
<trkpt lat="55.988457" lon="26.482918">
<ele>86.059631</ele>
<time>2010-06-20T09:32:11Z</time>
<desc>lat.=55.988457, lon.=26.482918, Alt.=86.059631m. Speed=17.712000m/h.</desc>
<speed>4.920000</speed>
</trkpt>
<trkpt lat="55.988445" lon="26.482843">
<ele>86.010803</ele>
<time>2010-06-20T09:32:12Z</time>
<desc>lat.=55.988445, lon.=26.482843, Alt.=86.010803m. Speed=17.280001m/h.</desc>
<speed>4.800000</speed>
</trkpt>
<trkpt lat="55.988434" lon="26.482773">
<ele>86.042053</ele>
<time>2010-06-20T09:32:13Z</time>
<desc>lat.=55.988434, lon.=26.482773, Alt.=86.042053m. Speed=16.200001m/h.</desc>
<speed>4.500000</speed>
</trkpt>
<trkpt lat="55.988422" lon="26.482706">
<ele>86.137756</ele>
<time>2010-06-20T09:32:14Z</time>
<desc>lat.=55.988422, lon.=26.482706, Alt.=86.137756m. Speed=15.048000m/h.</desc>
<speed>4.180000</speed>
</trkpt>
<trkpt lat="55.988411" lon="26.482643">
<ele>86.376038</ele>
<time>2010-06-20T09:32:15Z</time>
<desc>lat.=55.988411, lon.=26.482643, Alt.=86.376038m. Speed=15.264000m/h.</desc>
<speed>4.240000</speed>
</trkpt>
<trkpt lat="55.988396" lon="26.482574">
<ele>86.518616</ele>
<time>2010-06-20T09:32:16Z</time>
<desc>lat.=55.988396, lon.=26.482574, Alt.=86.518616m. Speed=16.379999m/h.</desc>
<speed>4.550000</speed>
</trkpt>
<trkpt lat="55.988380" lon="26.482498">
<ele>86.549866</ele>
<time>2010-06-20T09:32:17Z</time>
<desc>lat.=55.988380, lon.=26.482498, Alt.=86.549866m. Speed=18.180000m/h.</desc>
<speed>5.050000</speed>
</trkpt>
<trkpt lat="55.988365" lon="26.482414">
<ele>86.633850</ele>
<time>2010-06-20T09:32:18Z</time>
<desc>lat.=55.988365, lon.=26.482414, Alt.=86.633850m. Speed=19.836000m/h.</desc>
<speed>5.510000</speed>
</trkpt>
<trkpt lat="55.988346" lon="26.482323">
<ele>86.713928</ele>
<time>2010-06-20T09:32:19Z</time>
<desc>lat.=55.988346, lon.=26.482323, Alt.=86.713928m. Speed=20.844000m/h.</desc>
<speed>5.790000</speed>
</trkpt>
<trkpt lat="55.988323" lon="26.482231">
<ele>86.807678</ele>
<time>2010-06-20T09:32:20Z</time>
<desc>lat.=55.988323, lon.=26.482231, Alt.=86.807678m. Speed=20.375999m/h.</desc>
<speed>5.660000</speed>
</trkpt>
<trkpt lat="55.988308" lon="26.482130">
<ele>86.229553</ele>
<time>2010-06-20T09:32:21Z</time>
<desc>lat.=55.988308, lon.=26.482130, Alt.=86.229553m. Speed=19.548000m/h.</desc>
<speed>5.430000</speed>
</trkpt>
<trkpt lat="55.988289" lon="26.482046">
<ele>86.340881</ele>
<time>2010-06-20T09:32:22Z</time>
<desc>lat.=55.988289, lon.=26.482046, Alt.=86.340881m. Speed=18.612000m/h.</desc>
<speed>5.170000</speed>
</trkpt>
<trkpt lat="55.988274" lon="26.481968">
<ele>86.377991</ele>
<time>2010-06-20T09:32:23Z</time>
<desc>lat.=55.988274, lon.=26.481968, Alt.=86.377991m. Speed=18.431999m/h.</desc>
<speed>5.120000</speed>
</trkpt>
<trkpt lat="55.988258" lon="26.481890">
<ele>86.374084</ele>
<time>2010-06-20T09:32:24Z</time>
<desc>lat.=55.988258, lon.=26.481890, Alt.=86.374084m. Speed=18.719999m/h.</desc>
<speed>5.200000</speed>
</trkpt>
<trkpt lat="55.988243" lon="26.481812">
<ele>86.544006</ele>
<time>2010-06-20T09:32:25Z</time>
<desc>lat.=55.988243, lon.=26.481812, Alt.=86.544006m. Speed=18.252001m/h.</desc>
<speed>5.070000</speed>
</trkpt>
<trkpt lat="55.988228" lon="26.481730">
<ele>86.497131</ele>
<time>2010-06-20T09:32:26Z</time>
<desc>lat.=55.988228, lon.=26.481730, Alt.=86.497131m. Speed=17.172001m/h.</desc>
<speed>4.770000</speed>
</trkpt>
<trkpt lat="55.988213" lon="26.481655">
<ele>86.749084</ele>
<time>2010-06-20T09:32:27Z</time>
<desc>lat.=55.988213, lon.=26.481655, Alt.=86.749084m. Speed=17.136000m/h.</desc>
<speed>4.760000</speed>
</trkpt>
<trkpt lat="55.988197" lon="26.481583">
<ele>86.995178</ele>
<time>2010-06-20T09:32:28Z</time>
<desc>lat.=55.988197, lon.=26.481583, Alt.=86.995178m. Speed=17.028000m/h.</desc>
<speed>4.730000</speed>
</trkpt>
<trkpt lat="55.988182" lon="26.481506">
<ele>87.036194</ele>
<time>2010-06-20T09:32:29Z</time>
<desc>lat.=55.988182, lon.=26.481506, Alt.=87.036194m. Speed=18.072001m/h.</desc>
<speed>5.020000</speed>
</trkpt>
<trkpt lat="55.988167" lon="26.481432">
<ele>87.100647</ele>
<time>2010-06-20T09:32:30Z</time>
<desc>lat.=55.988167, lon.=26.481432, Alt.=87.100647m. Speed=18.035999m/h.</desc>
<speed>5.010000</speed>
</trkpt>
<trkpt lat="55.988152" lon="26.481356">
<ele>87.079163</ele>
<time>2010-06-20T09:32:31Z</time>
<desc>lat.=55.988152, lon.=26.481356, Alt.=87.079163m. Speed=17.388000m/h.</desc>
<speed>4.830000</speed>
</trkpt>
<trkpt lat="55.988140" lon="26.481291">
<ele>87.415100</ele>
<time>2010-06-20T09:32:32Z</time>
<desc>lat.=55.988140, lon.=26.481291, Alt.=87.415100m. Speed=15.984000m/h.</desc>
<speed>4.440000</speed>
</trkpt>
<trkpt lat="55.988129" lon="26.481224">
<ele>87.661194</ele>
<time>2010-06-20T09:32:33Z</time>
<desc>lat.=55.988129, lon.=26.481224, Alt.=87.661194m. Speed=16.164000m/h.</desc>
<speed>4.490000</speed>
</trkpt>
<trkpt lat="55.988117" lon="26.481153">
<ele>87.723694</ele>
<time>2010-06-20T09:32:34Z</time>
<desc>lat.=55.988117, lon.=26.481153, Alt.=87.723694m. Speed=17.172001m/h.</desc>
<speed>4.770000</speed>
</trkpt>
<trkpt lat="55.988102" lon="26.481077">
<ele>87.643616</ele>
<time>2010-06-20T09:32:35Z</time>
<desc>lat.=55.988102, lon.=26.481077, Alt.=87.643616m. Speed=17.747999m/h.</desc>
<speed>4.930000</speed>
</trkpt>
<trkpt lat="55.988087" lon="26.481003">
<ele>87.831116</ele>
<time>2010-06-20T09:32:36Z</time>
<desc>lat.=55.988087, lon.=26.481003, Alt.=87.831116m. Speed=17.351999m/h.</desc>
<speed>4.820000</speed>
</trkpt>
<trkpt lat="55.988068" lon="26.480934">
<ele>88.254944</ele>
<time>2010-06-20T09:32:37Z</time>
<desc>lat.=55.988068, lon.=26.480934, Alt.=88.254944m. Speed=15.876000m/h.</desc>
<speed>4.410000</speed>
</trkpt>
<trkpt lat="55.988052" lon="26.480865">
<ele>88.581116</ele>
<time>2010-06-20T09:32:38Z</time>
<desc>lat.=55.988052, lon.=26.480865, Alt.=88.581116m. Speed=16.056000m/h.</desc>
<speed>4.460000</speed>
</trkpt>
<trkpt lat="55.988037" lon="26.480801">
<ele>89.112366</ele>
<time>2010-06-20T09:32:39Z</time>
<desc>lat.=55.988037, lon.=26.480801, Alt.=89.112366m. Speed=15.948000m/h.</desc>
<speed>4.430000</speed>
</trkpt>
<trkpt lat="55.988022" lon="26.480724">
<ele>88.655334</ele>
<time>2010-06-20T09:32:40Z</time>
<desc>lat.=55.988022, lon.=26.480724, Alt.=88.655334m. Speed=16.091999m/h.</desc>
<speed>4.470000</speed>
</trkpt>
<trkpt lat="55.988010" lon="26.480663">
<ele>89.112366</ele>
<time>2010-06-20T09:32:41Z</time>
<desc>lat.=55.988010, lon.=26.480663, Alt.=89.112366m. Speed=15.372000m/h.</desc>
<speed>4.270000</speed>
</trkpt>
<trkpt lat="55.987999" lon="26.480602">
<ele>89.086975</ele>
<time>2010-06-20T09:32:42Z</time>
<desc>lat.=55.987999, lon.=26.480602, Alt.=89.086975m. Speed=16.344000m/h.</desc>
<speed>4.540000</speed>
</trkpt>
<trkpt lat="55.987984" lon="26.480528">
<ele>89.059631</ele>
<time>2010-06-20T09:32:43Z</time>
<desc>lat.=55.987984, lon.=26.480528, Alt.=89.059631m. Speed=16.920000m/h.</desc>
<speed>4.700000</speed>
</trkpt>
<trkpt lat="55.987968" lon="26.480461">
<ele>89.295959</ele>
<time>2010-06-20T09:32:44Z</time>
<desc>lat.=55.987968, lon.=26.480461, Alt.=89.295959m. Speed=16.559999m/h.</desc>
<speed>4.600000</speed>
</trkpt>
<trkpt lat="55.987957" lon="26.480391">
<ele>89.196350</ele>
<time>2010-06-20T09:32:45Z</time>
<desc>lat.=55.987957, lon.=26.480391, Alt.=89.196350m. Speed=17.784000m/h.</desc>
<speed>4.940000</speed>
</trkpt>
<trkpt lat="55.987942" lon="26.480324">
<ele>89.141663</ele>
<time>2010-06-20T09:32:46Z</time>
<desc>lat.=55.987942, lon.=26.480324, Alt.=89.141663m. Speed=17.388000m/h.</desc>
<speed>4.830000</speed>
</trkpt>
<trkpt lat="55.987923" lon="26.480249">
<ele>88.934631</ele>
<time>2010-06-20T09:32:47Z</time>
<desc>lat.=55.987923, lon.=26.480249, Alt.=88.934631m. Speed=17.316000m/h.</desc>
<speed>4.810000</speed>
</trkpt>
<trkpt lat="55.987907" lon="26.480177">
<ele>88.631897</ele>
<time>2010-06-20T09:32:48Z</time>
<desc>lat.=55.987907, lon.=26.480177, Alt.=88.631897m. Speed=16.020000m/h.</desc>
<speed>4.450000</speed>
</trkpt>
<trkpt lat="55.987885" lon="26.480108">
<ele>88.831116</ele>
<time>2010-06-20T09:32:49Z</time>
<desc>lat.=55.987885, lon.=26.480108, Alt.=88.831116m. Speed=15.372000m/h.</desc>
<speed>4.270000</speed>
</trkpt>
<trkpt lat="55.987869" lon="26.480051">
<ele>88.836975</ele>
<time>2010-06-20T09:32:50Z</time>
<desc>lat.=55.987869, lon.=26.480051, Alt.=88.836975m. Speed=14.040000m/h.</desc>
<speed>3.900000</speed>
</trkpt>
<trkpt lat="55.987854" lon="26.480001">
<ele>89.440491</ele>
<time>2010-06-20T09:32:51Z</time>
<desc>lat.=55.987854, lon.=26.480001, Alt.=89.440491m. Speed=14.400000m/h.</desc>
<speed>4.000000</speed>
</trkpt>
<trkpt lat="55.987835" lon="26.479954">
<ele>89.944397</ele>
<time>2010-06-20T09:32:52Z</time>
<desc>lat.=55.987835, lon.=26.479954, Alt.=89.944397m. Speed=14.508000m/h.</desc>
<speed>4.030000</speed>
</trkpt>
<trkpt lat="55.987812" lon="26.479902">
<ele>90.237366</ele>
<time>2010-06-20T09:32:53Z</time>
<desc>lat.=55.987812, lon.=26.479902, Alt.=90.237366m. Speed=15.984000m/h.</desc>
<speed>4.440000</speed>
</trkpt>
<trkpt lat="55.987789" lon="26.479839">
<ele>90.172913</ele>
<time>2010-06-20T09:32:54Z</time>
<desc>lat.=55.987789, lon.=26.479839, Alt.=90.172913m. Speed=16.308001m/h.</desc>
<speed>4.530000</speed>
</trkpt>
<trkpt lat="55.987770" lon="26.479769">
<ele>88.965881</ele>
<time>2010-06-20T09:32:55Z</time>
<desc>lat.=55.987770, lon.=26.479769, Alt.=88.965881m. Speed=15.984000m/h.</desc>
<speed>4.440000</speed>
</trkpt>
<trkpt lat="55.987751" lon="26.479710">
<ele>88.688538</ele>
<time>2010-06-20T09:32:56Z</time>
<desc>lat.=55.987751, lon.=26.479710, Alt.=88.688538m. Speed=16.056000m/h.</desc>
<speed>4.460000</speed>
</trkpt>
<trkpt lat="55.987724" lon="26.479649">
<ele>88.313538</ele>
<time>2010-06-20T09:32:57Z</time>
<desc>lat.=55.987724, lon.=26.479649, Alt.=88.313538m. Speed=16.992001m/h.</desc>
<speed>4.720000</speed>
</trkpt>
<trkpt lat="55.987694" lon="26.479589">
<ele>88.073303</ele>
<time>2010-06-20T09:32:58Z</time>
<desc>lat.=55.987694, lon.=26.479589, Alt.=88.073303m. Speed=18.252001m/h.</desc>
<speed>5.070000</speed>
</trkpt>
<trkpt lat="55.987656" lon="26.479528">
<ele>88.088928</ele>
<time>2010-06-20T09:32:59Z</time>
<desc>lat.=55.987656, lon.=26.479528, Alt.=88.088928m. Speed=18.288000m/h.</desc>
<speed>5.080000</speed>
</trkpt>
<trkpt lat="55.987625" lon="26.479473">
<ele>88.194397</ele>
<time>2010-06-20T09:33:00Z</time>
<desc>lat.=55.987625, lon.=26.479473, Alt.=88.194397m. Speed=17.639999m/h.</desc>
<speed>4.900000</speed>
</trkpt>
<trkpt lat="55.987598" lon="26.479408">
<ele>87.729553</ele>
<time>2010-06-20T09:33:01Z</time>
<desc>lat.=55.987598, lon.=26.479408, Alt.=87.729553m. Speed=18.035999m/h.</desc>
<speed>5.010000</speed>
</trkpt>
<trkpt lat="55.987572" lon="26.479342">
<ele>87.926819</ele>
<time>2010-06-20T09:33:02Z</time>
<desc>lat.=55.987572, lon.=26.479342, Alt.=87.926819m. Speed=18.431999m/h.</desc>
<speed>5.120000</speed>
</trkpt>
<trkpt lat="55.987549" lon="26.479273">
<ele>87.784241</ele>
<time>2010-06-20T09:33:03Z</time>
<desc>lat.=55.987549, lon.=26.479273, Alt.=87.784241m. Speed=18.936001m/h.</desc>
<speed>5.260000</speed>
</trkpt>
<trkpt lat="55.987522" lon="26.479208">
<ele>88.208069</ele>
<time>2010-06-20T09:33:04Z</time>
<desc>lat.=55.987522, lon.=26.479208, Alt.=88.208069m. Speed=19.908001m/h.</desc>
<speed>5.530000</speed>
</trkpt>
<trkpt lat="55.987495" lon="26.479141">
<ele>88.129944</ele>
<time>2010-06-20T09:33:05Z</time>
<desc>lat.=55.987495, lon.=26.479141, Alt.=88.129944m. Speed=19.764000m/h.</desc>
<speed>5.490000</speed>
</trkpt>
<trkpt lat="55.987469" lon="26.479071">
<ele>88.305725</ele>
<time>2010-06-20T09:33:06Z</time>
<desc>lat.=55.987469, lon.=26.479071, Alt.=88.305725m. Speed=20.736000m/h.</desc>
<speed>5.760000</speed>
</trkpt>
<trkpt lat="55.987442" lon="26.478998">
<ele>88.424866</ele>
<time>2010-06-20T09:33:07Z</time>
<desc>lat.=55.987442, lon.=26.478998, Alt.=88.424866m. Speed=20.808001m/h.</desc>
<speed>5.780000</speed>
</trkpt>
<trkpt lat="55.987411" lon="26.478928">
<ele>88.600647</ele>
<time>2010-06-20T09:33:08Z</time>
<desc>lat.=55.987411, lon.=26.478928, Alt.=88.600647m. Speed=20.700001m/h.</desc>
<speed>5.750000</speed>
</trkpt>
<trkpt lat="55.987377" lon="26.478857">
<ele>88.764709</ele>
<time>2010-06-20T09:33:09Z</time>
<desc>lat.=55.987377, lon.=26.478857, Alt.=88.764709m. Speed=20.808001m/h.</desc>
<speed>5.780000</speed>
</trkpt>
<trkpt lat="55.987347" lon="26.478785">
<ele>88.852600</ele>
<time>2010-06-20T09:33:10Z</time>
<desc>lat.=55.987347, lon.=26.478785, Alt.=88.852600m. Speed=20.736000m/h.</desc>
<speed>5.760000</speed>
</trkpt>
<trkpt lat="55.987316" lon="26.478714">
<ele>89.178772</ele>
<time>2010-06-20T09:33:11Z</time>
<desc>lat.=55.987316, lon.=26.478714, Alt.=89.178772m. Speed=20.591999m/h.</desc>
<speed>5.720000</speed>
</trkpt>
<trkpt lat="55.987289" lon="26.478643">
<ele>89.325256</ele>
<time>2010-06-20T09:33:12Z</time>
<desc>lat.=55.987289, lon.=26.478643, Alt.=89.325256m. Speed=20.268000m/h.</desc>
<speed>5.630000</speed>
</trkpt>
<trkpt lat="55.987263" lon="26.478569">
<ele>89.247131</ele>
<time>2010-06-20T09:33:13Z</time>
<desc>lat.=55.987263, lon.=26.478569, Alt.=89.247131m. Speed=20.195999m/h.</desc>
<speed>5.610000</speed>
</trkpt>
<trkpt lat="55.987236" lon="26.478498">
<ele>89.145569</ele>
<time>2010-06-20T09:33:14Z</time>
<desc>lat.=55.987236, lon.=26.478498, Alt.=89.145569m. Speed=19.799999m/h.</desc>
<speed>5.500000</speed>
</trkpt>
<trkpt lat="55.987206" lon="26.478434">
<ele>89.317444</ele>
<time>2010-06-20T09:33:15Z</time>
<desc>lat.=55.987206, lon.=26.478434, Alt.=89.317444m. Speed=19.728001m/h.</desc>
<speed>5.480000</speed>
</trkpt>
<trkpt lat="55.987179" lon="26.478367">
<ele>89.333069</ele>
<time>2010-06-20T09:33:16Z</time>
<desc>lat.=55.987179, lon.=26.478367, Alt.=89.333069m. Speed=19.403999m/h.</desc>
<speed>5.390000</speed>
</trkpt>
<trkpt lat="55.987148" lon="26.478306">
<ele>89.440491</ele>
<time>2010-06-20T09:33:17Z</time>
<desc>lat.=55.987148, lon.=26.478306, Alt.=89.440491m. Speed=19.080000m/h.</desc>
<speed>5.300000</speed>
</trkpt>
<trkpt lat="55.987118" lon="26.478243">
<ele>89.288147</ele>
<time>2010-06-20T09:33:18Z</time>
<desc>lat.=55.987118, lon.=26.478243, Alt.=89.288147m. Speed=18.792000m/h.</desc>
<speed>5.220000</speed>
</trkpt>
<trkpt lat="55.987095" lon="26.478172">
<ele>89.176819</ele>
<time>2010-06-20T09:33:19Z</time>
<desc>lat.=55.987095, lon.=26.478172, Alt.=89.176819m. Speed=18.504000m/h.</desc>
<speed>5.140000</speed>
</trkpt>
<trkpt lat="55.987068" lon="26.478109">
<ele>89.167053</ele>
<time>2010-06-20T09:33:20Z</time>
<desc>lat.=55.987068, lon.=26.478109, Alt.=89.167053m. Speed=17.280001m/h.</desc>
<speed>4.800000</speed>
</trkpt>
<trkpt lat="55.987038" lon="26.478054">
<ele>89.778381</ele>
<time>2010-06-20T09:33:21Z</time>
<desc>lat.=55.987038, lon.=26.478054, Alt.=89.778381m. Speed=16.955999m/h.</desc>
<speed>4.710000</speed>
</trkpt>
<trkpt lat="55.987011" lon="26.477999">
<ele>90.233459</ele>
<time>2010-06-20T09:33:22Z</time>
<desc>lat.=55.987011, lon.=26.477999, Alt.=90.233459m. Speed=14.364000m/h.</desc>
<speed>3.990000</speed>
</trkpt>
<trkpt lat="55.986988" lon="26.477945">
<ele>90.479553</ele>
<time>2010-06-20T09:33:23Z</time>
<desc>lat.=55.986988, lon.=26.477945, Alt.=90.479553m. Speed=16.884001m/h.</desc>
<speed>4.690000</speed>
</trkpt>
<trkpt lat="55.986954" lon="26.477882">
<ele>90.696350</ele>
<time>2010-06-20T09:33:24Z</time>
<desc>lat.=55.986954, lon.=26.477882, Alt.=90.696350m. Speed=17.964001m/h.</desc>
<speed>4.990000</speed>
</trkpt>
<trkpt lat="55.986931" lon="26.477819">
<ele>90.852600</ele>
<time>2010-06-20T09:33:25Z</time>
<desc>lat.=55.986931, lon.=26.477819, Alt.=90.852600m. Speed=17.496000m/h.</desc>
<speed>4.860000</speed>
</trkpt>
<trkpt lat="55.986904" lon="26.477755">
<ele>90.895569</ele>
<time>2010-06-20T09:33:26Z</time>
<desc>lat.=55.986904, lon.=26.477755, Alt.=90.895569m. Speed=17.532000m/h.</desc>
<speed>4.870000</speed>
</trkpt>
<trkpt lat="55.986877" lon="26.477692">
<ele>91.366272</ele>
<time>2010-06-20T09:33:27Z</time>
<desc>lat.=55.986877, lon.=26.477692, Alt.=91.366272m. Speed=18.504000m/h.</desc>
<speed>5.140000</speed>
</trkpt>
<trkpt lat="55.986858" lon="26.477621">
<ele>91.825256</ele>
<time>2010-06-20T09:33:28Z</time>
<desc>lat.=55.986858, lon.=26.477621, Alt.=91.825256m. Speed=17.784000m/h.</desc>
<speed>4.940000</speed>
</trkpt>
<trkpt lat="55.986832" lon="26.477556">
<ele>92.092834</ele>
<time>2010-06-20T09:33:29Z</time>
<desc>lat.=55.986832, lon.=26.477556, Alt.=92.092834m. Speed=17.856001m/h.</desc>
<speed>4.960000</speed>
</trkpt>
<trkpt lat="55.986805" lon="26.477499">
<ele>92.295959</ele>
<time>2010-06-20T09:33:30Z</time>
<desc>lat.=55.986805, lon.=26.477499, Alt.=92.295959m. Speed=16.056000m/h.</desc>
<speed>4.460000</speed>
</trkpt>
<trkpt lat="55.986774" lon="26.477457">
<ele>92.620178</ele>
<time>2010-06-20T09:33:31Z</time>
<desc>lat.=55.986774, lon.=26.477457, Alt.=92.620178m. Speed=13.572000m/h.</desc>
<speed>3.770000</speed>
</trkpt>
<trkpt lat="55.986752" lon="26.477407">
<ele>92.981506</ele>
<time>2010-06-20T09:33:32Z</time>
<desc>lat.=55.986752, lon.=26.477407, Alt.=92.981506m. Speed=15.660000m/h.</desc>
<speed>4.350000</speed>
</trkpt>
<trkpt lat="55.986721" lon="26.477346">
<ele>93.118225</ele>
<time>2010-06-20T09:33:33Z</time>
<desc>lat.=55.986721, lon.=26.477346, Alt.=93.118225m. Speed=16.056000m/h.</desc>
<speed>4.460000</speed>
</trkpt>
<trkpt lat="55.986694" lon="26.477289">
<ele>93.567444</ele>
<time>2010-06-20T09:33:34Z</time>
<desc>lat.=55.986694, lon.=26.477289, Alt.=93.567444m. Speed=15.840000m/h.</desc>
<speed>4.400000</speed>
</trkpt>
<trkpt lat="55.986664" lon="26.477217">
<ele>93.653381</ele>
<time>2010-06-20T09:33:35Z</time>
<desc>lat.=55.986664, lon.=26.477217, Alt.=93.653381m. Speed=17.856001m/h.</desc>
<speed>4.960000</speed>
</trkpt>
<trkpt lat="55.986633" lon="26.477156">
<ele>93.760803</ele>
<time>2010-06-20T09:33:36Z</time>
<desc>lat.=55.986633, lon.=26.477156, Alt.=93.760803m. Speed=18.000000m/h.</desc>
<speed>5.000000</speed>
</trkpt>
<trkpt lat="55.986607" lon="26.477083">
<ele>93.893616</ele>
<time>2010-06-20T09:33:37Z</time>
<desc>lat.=55.986607, lon.=26.477083, Alt.=93.893616m. Speed=18.000000m/h.</desc>
<speed>5.000000</speed>
</trkpt>
<trkpt lat="55.986584" lon="26.477013">
<ele>93.585022</ele>
<time>2010-06-20T09:33:38Z</time>
<desc>lat.=55.986584, lon.=26.477013, Alt.=93.585022m. Speed=16.452000m/h.</desc>
<speed>4.570000</speed>
</trkpt>
<trkpt lat="55.986568" lon="26.476934">
<ele>93.299866</ele>
<time>2010-06-20T09:33:39Z</time>
<desc>lat.=55.986568, lon.=26.476934, Alt.=93.299866m. Speed=16.632000m/h.</desc>
<speed>4.620000</speed>
</trkpt>
<trkpt lat="55.986542" lon="26.476868">
<ele>93.434631</ele>
<time>2010-06-20T09:33:40Z</time>
<desc>lat.=55.986542, lon.=26.476868, Alt.=93.434631m. Speed=16.740000m/h.</desc>
<speed>4.650000</speed>
</trkpt>
<trkpt lat="55.986519" lon="26.476801">
<ele>93.051819</ele>
<time>2010-06-20T09:33:41Z</time>
<desc>lat.=55.986519, lon.=26.476801, Alt.=93.051819m. Speed=17.172001m/h.</desc>
<speed>4.770000</speed>
</trkpt>
<trkpt lat="55.986481" lon="26.476723">
<ele>93.530334</ele>
<time>2010-06-20T09:33:42Z</time>
<desc>lat.=55.986481, lon.=26.476723, Alt.=93.530334m. Speed=17.208000m/h.</desc>
<speed>4.780000</speed>
</trkpt>
<trkpt lat="55.986454" lon="26.476652">
<ele>93.692444</ele>
<time>2010-06-20T09:33:43Z</time>
<desc>lat.=55.986454, lon.=26.476652, Alt.=93.692444m. Speed=16.452000m/h.</desc>
<speed>4.570000</speed>
</trkpt>
<trkpt lat="55.986427" lon="26.476593">
<ele>93.952209</ele>
<time>2010-06-20T09:33:44Z</time>
<desc>lat.=55.986427, lon.=26.476593, Alt.=93.952209m. Speed=15.156000m/h.</desc>
<speed>4.210000</speed>
</trkpt>
<trkpt lat="55.986404" lon="26.476542">
<ele>94.213928</ele>
<time>2010-06-20T09:33:45Z</time>
<desc>lat.=55.986404, lon.=26.476542, Alt.=94.213928m. Speed=15.048000m/h.</desc>
<speed>4.180000</speed>
</trkpt>
<trkpt lat="55.986378" lon="26.476482">
<ele>94.485413</ele>
<time>2010-06-20T09:33:46Z</time>
<desc>lat.=55.986378, lon.=26.476482, Alt.=94.485413m. Speed=15.300000m/h.</desc>
<speed>4.250000</speed>
</trkpt>
<trkpt lat="55.986355" lon="26.476421">
<ele>94.442444</ele>
<time>2010-06-20T09:33:47Z</time>
<desc>lat.=55.986355, lon.=26.476421, Alt.=94.442444m. Speed=15.480000m/h.</desc>
<speed>4.300000</speed>
</trkpt>
<trkpt lat="55.986332" lon="26.476357">
<ele>94.393616</ele>
<time>2010-06-20T09:33:48Z</time>
<desc>lat.=55.986332, lon.=26.476357, Alt.=94.393616m. Speed=15.372000m/h.</desc>
<speed>4.270000</speed>
</trkpt>
<trkpt lat="55.986309" lon="26.476284">
<ele>93.790100</ele>
<time>2010-06-20T09:33:49Z</time>
<desc>lat.=55.986309, lon.=26.476284, Alt.=93.790100m. Speed=15.948000m/h.</desc>
<speed>4.430000</speed>
</trkpt>
<trkpt lat="55.986282" lon="26.476234">
<ele>93.641663</ele>
<time>2010-06-20T09:33:50Z</time>
<desc>lat.=55.986282, lon.=26.476234, Alt.=93.641663m. Speed=15.660000m/h.</desc>
<speed>4.350000</speed>
</trkpt>
<trkpt lat="55.986256" lon="26.476181">
<ele>93.446350</ele>
<time>2010-06-20T09:33:51Z</time>
<desc>lat.=55.986256, lon.=26.476181, Alt.=93.446350m. Speed=16.308001m/h.</desc>
<speed>4.530000</speed>
</trkpt>
<trkpt lat="55.986229" lon="26.476131">
<ele>93.776428</ele>
<time>2010-06-20T09:33:52Z</time>
<desc>lat.=55.986229, lon.=26.476131, Alt.=93.776428m. Speed=14.796000m/h.</desc>
<speed>4.110000</speed>
</trkpt>
<trkpt lat="55.986202" lon="26.476080">
<ele>94.208069</ele>
<time>2010-06-20T09:33:53Z</time>
<desc>lat.=55.986202, lon.=26.476080, Alt.=94.208069m. Speed=12.996000m/h.</desc>
<speed>3.610000</speed>
</trkpt>
<trkpt lat="55.986183" lon="26.476034">
<ele>94.473694</ele>
<time>2010-06-20T09:33:54Z</time>
<desc>lat.=55.986183, lon.=26.476034, Alt.=94.473694m. Speed=12.348000m/h.</desc>
<speed>3.430000</speed>
</trkpt>
<trkpt lat="55.986168" lon="26.475985">
<ele>94.086975</ele>
<time>2010-06-20T09:33:55Z</time>
<desc>lat.=55.986168, lon.=26.475985, Alt.=94.086975m. Speed=13.320000m/h.</desc>
<speed>3.700000</speed>
</trkpt>
<trkpt lat="55.986149" lon="26.475933">
<ele>93.956116</ele>
<time>2010-06-20T09:33:56Z</time>
<desc>lat.=55.986149, lon.=26.475933, Alt.=93.956116m. Speed=12.636000m/h.</desc>
<speed>3.510000</speed>
</trkpt>
<trkpt lat="55.986134" lon="26.475887">
<ele>93.883850</ele>
<time>2010-06-20T09:33:57Z</time>
<desc>lat.=55.986134, lon.=26.475887, Alt.=93.883850m. Speed=11.772000m/h.</desc>
<speed>3.270000</speed>
</trkpt>
<trkpt lat="55.986115" lon="26.475845">
<ele>93.885803</ele>
<time>2010-06-20T09:33:58Z</time>
<desc>lat.=55.986115, lon.=26.475845, Alt.=93.885803m. Speed=11.484000m/h.</desc>
<speed>3.190000</speed>
</trkpt>
<trkpt lat="55.986103" lon="26.475794">
<ele>92.948303</ele>
<time>2010-06-20T09:33:59Z</time>
<desc>lat.=55.986103, lon.=26.475794, Alt.=92.948303m. Speed=12.924000m/h.</desc>
<speed>3.590000</speed>
</trkpt>
<trkpt lat="55.986084" lon="26.475761">
<ele>93.528381</ele>
<time>2010-06-20T09:34:00Z</time>
<desc>lat.=55.986084, lon.=26.475761, Alt.=93.528381m. Speed=11.376000m/h.</desc>
<speed>3.160000</speed>
</trkpt>
<trkpt lat="55.986065" lon="26.475716">
<ele>92.942444</ele>
<time>2010-06-20T09:34:01Z</time>
<desc>lat.=55.986065, lon.=26.475716, Alt.=92.942444m. Speed=12.744000m/h.</desc>
<speed>3.540000</speed>
</trkpt>
<trkpt lat="55.986050" lon="26.475668">
<ele>92.815491</ele>
<time>2010-06-20T09:34:02Z</time>
<desc>lat.=55.986050, lon.=26.475668, Alt.=92.815491m. Speed=12.420000m/h.</desc>
<speed>3.450000</speed>
</trkpt>
<trkpt lat="55.986034" lon="26.475624">
<ele>92.975647</ele>
<time>2010-06-20T09:34:03Z</time>
<desc>lat.=55.986034, lon.=26.475624, Alt.=92.975647m. Speed=12.744000m/h.</desc>
<speed>3.540000</speed>
</trkpt>
<trkpt lat="55.986019" lon="26.475576">
<ele>92.854553</ele>
<time>2010-06-20T09:34:04Z</time>
<desc>lat.=55.986019, lon.=26.475576, Alt.=92.854553m. Speed=12.672000m/h.</desc>
<speed>3.520000</speed>
</trkpt>
<trkpt lat="55.986000" lon="26.475536">
<ele>93.210022</ele>
<time>2010-06-20T09:34:05Z</time>
<desc>lat.=55.986000, lon.=26.475536, Alt.=93.210022m. Speed=12.168000m/h.</desc>
<speed>3.380000</speed>
</trkpt>
<trkpt lat="55.985985" lon="26.475491">
<ele>93.088928</ele>
<time>2010-06-20T09:34:06Z</time>
<desc>lat.=55.985985, lon.=26.475491, Alt.=93.088928m. Speed=12.600000m/h.</desc>
<speed>3.500000</speed>
</trkpt>
<trkpt lat="55.985966" lon="26.475449">
<ele>92.944397</ele>
<time>2010-06-20T09:34:07Z</time>
<desc>lat.=55.985966, lon.=26.475449, Alt.=92.944397m. Speed=12.960000m/h.</desc>
<speed>3.600000</speed>
</trkpt>
<trkpt lat="55.985947" lon="26.475405">
<ele>92.901428</ele>
<time>2010-06-20T09:34:08Z</time>
<desc>lat.=55.985947, lon.=26.475405, Alt.=92.901428m. Speed=12.924000m/h.</desc>
<speed>3.590000</speed>
</trkpt>
<trkpt lat="55.985928" lon="26.475365">
<ele>93.085022</ele>
<time>2010-06-20T09:34:09Z</time>
<desc>lat.=55.985928, lon.=26.475365, Alt.=93.085022m. Speed=12.600000m/h.</desc>
<speed>3.500000</speed>
</trkpt>
<trkpt lat="55.985909" lon="26.475319">
<ele>93.276428</ele>
<time>2010-06-20T09:34:10Z</time>
<desc>lat.=55.985909, lon.=26.475319, Alt.=93.276428m. Speed=12.888000m/h.</desc>
<speed>3.580000</speed>
</trkpt>
<trkpt lat="55.985889" lon="26.475269">
<ele>93.317444</ele>
<time>2010-06-20T09:34:11Z</time>
<desc>lat.=55.985889, lon.=26.475269, Alt.=93.317444m. Speed=13.644000m/h.</desc>
<speed>3.790000</speed>
</trkpt>
<trkpt lat="55.985870" lon="26.475224">
<ele>93.579163</ele>
<time>2010-06-20T09:34:12Z</time>
<desc>lat.=55.985870, lon.=26.475224, Alt.=93.579163m. Speed=13.176000m/h.</desc>
<speed>3.660000</speed>
</trkpt>
<trkpt lat="55.985851" lon="26.475180">
<ele>93.975647</ele>
<time>2010-06-20T09:34:13Z</time>
<desc>lat.=55.985851, lon.=26.475180, Alt.=93.975647m. Speed=13.176000m/h.</desc>
<speed>3.660000</speed>
</trkpt>
<trkpt lat="55.985828" lon="26.475136">
<ele>94.215881</ele>
<time>2010-06-20T09:34:14Z</time>
<desc>lat.=55.985828, lon.=26.475136, Alt.=94.215881m. Speed=13.392000m/h.</desc>
<speed>3.720000</speed>
</trkpt>
<trkpt lat="55.985806" lon="26.475100">
<ele>95.055725</ele>
<time>2010-06-20T09:34:15Z</time>
<desc>lat.=55.985806, lon.=26.475100, Alt.=95.055725m. Speed=13.428000m/h.</desc>
<speed>3.730000</speed>
</trkpt>
<trkpt lat="55.985786" lon="26.475056">
<ele>95.336975</ele>
<time>2010-06-20T09:34:16Z</time>
<desc>lat.=55.985786, lon.=26.475056, Alt.=95.336975m. Speed=12.708000m/h.</desc>
<speed>3.530000</speed>
</trkpt>
<trkpt lat="55.985764" lon="26.475023">
<ele>96.504944</ele>
<time>2010-06-20T09:34:17Z</time>
<desc>lat.=55.985764, lon.=26.475023, Alt.=96.504944m. Speed=13.104000m/h.</desc>
<speed>3.640000</speed>
</trkpt>
<trkpt lat="55.985741" lon="26.474989">
<ele>97.485413</ele>
<time>2010-06-20T09:34:18Z</time>
<desc>lat.=55.985741, lon.=26.474989, Alt.=97.485413m. Speed=13.356000m/h.</desc>
<speed>3.710000</speed>
</trkpt>
<trkpt lat="55.985718" lon="26.474941">
<ele>97.670959</ele>
<time>2010-06-20T09:34:19Z</time>
<desc>lat.=55.985718, lon.=26.474941, Alt.=97.670959m. Speed=13.068000m/h.</desc>
<speed>3.630000</speed>
</trkpt>
<trkpt lat="55.985703" lon="26.474880">
<ele>96.905334</ele>
<time>2010-06-20T09:34:20Z</time>
<desc>lat.=55.985703, lon.=26.474880, Alt.=96.905334m. Speed=14.112000m/h.</desc>
<speed>3.920000</speed>
</trkpt>
<trkpt lat="55.985683" lon="26.474827">
<ele>96.294006</ele>
<time>2010-06-20T09:34:21Z</time>
<desc>lat.=55.985683, lon.=26.474827, Alt.=96.294006m. Speed=13.356000m/h.</desc>
<speed>3.710000</speed>
</trkpt>
<trkpt lat="55.985664" lon="26.474781">
<ele>96.245178</ele>
<time>2010-06-20T09:34:22Z</time>
<desc>lat.=55.985664, lon.=26.474781, Alt.=96.245178m. Speed=12.528000m/h.</desc>
<speed>3.480000</speed>
</trkpt>
<trkpt lat="55.985649" lon="26.474733">
<ele>95.614319</ele>
<time>2010-06-20T09:34:23Z</time>
<desc>lat.=55.985649, lon.=26.474733, Alt.=95.614319m. Speed=10.872000m/h.</desc>
<speed>3.020000</speed>
</trkpt>
<trkpt lat="55.985634" lon="26.474682">
<ele>95.905334</ele>
<time>2010-06-20T09:34:24Z</time>
<desc>lat.=55.985634, lon.=26.474682, Alt.=95.905334m. Speed=13.176000m/h.</desc>
<speed>3.660000</speed>
</trkpt>
<trkpt lat="55.985615" lon="26.474634">
<ele>96.122131</ele>
<time>2010-06-20T09:34:25Z</time>
<desc>lat.=55.985615, lon.=26.474634, Alt.=96.122131m. Speed=12.708000m/h.</desc>
<speed>3.530000</speed>
</trkpt>
<trkpt lat="55.985596" lon="26.474585">
<ele>96.325256</ele>
<time>2010-06-20T09:34:26Z</time>
<desc>lat.=55.985596, lon.=26.474585, Alt.=96.325256m. Speed=12.924000m/h.</desc>
<speed>3.590000</speed>
</trkpt>
<trkpt lat="55.985580" lon="26.474537">
<ele>96.860413</ele>
<time>2010-06-20T09:34:27Z</time>
<desc>lat.=55.985580, lon.=26.474537, Alt.=96.860413m. Speed=12.636000m/h.</desc>
<speed>3.510000</speed>
</trkpt>
<trkpt lat="55.985561" lon="26.474489">
<ele>97.231506</ele>
<time>2010-06-20T09:34:28Z</time>
<desc>lat.=55.985561, lon.=26.474489, Alt.=97.231506m. Speed=13.140000m/h.</desc>
<speed>3.650000</speed>
</trkpt>
<trkpt lat="55.985542" lon="26.474438">
<ele>97.143616</ele>
<time>2010-06-20T09:34:29Z</time>
<desc>lat.=55.985542, lon.=26.474438, Alt.=97.143616m. Speed=12.816000m/h.</desc>
<speed>3.560000</speed>
</trkpt>
<trkpt lat="55.985527" lon="26.474388">
<ele>96.610413</ele>
<time>2010-06-20T09:34:30Z</time>
<desc>lat.=55.985527, lon.=26.474388, Alt.=96.610413m. Speed=11.664000m/h.</desc>
<speed>3.240000</speed>
</trkpt>
<trkpt lat="55.985512" lon="26.474354">
<ele>96.919006</ele>
<time>2010-06-20T09:34:31Z</time>
<desc>lat.=55.985512, lon.=26.474354, Alt.=96.919006m. Speed=10.224000m/h.</desc>
<speed>2.840000</speed>
</trkpt>
<trkpt lat="55.985493" lon="26.474314">
<ele>97.129944</ele>
<time>2010-06-20T09:34:32Z</time>
<desc>lat.=55.985493, lon.=26.474314, Alt.=97.129944m. Speed=11.988000m/h.</desc>
<speed>3.330000</speed>
</trkpt>
<trkpt lat="55.985474" lon="26.474276">
<ele>97.354553</ele>
<time>2010-06-20T09:34:33Z</time>
<desc>lat.=55.985474, lon.=26.474276, Alt.=97.354553m. Speed=12.888000m/h.</desc>
<speed>3.580000</speed>
</trkpt>
<trkpt lat="55.985451" lon="26.474224">
<ele>97.284241</ele>
<time>2010-06-20T09:34:34Z</time>
<desc>lat.=55.985451, lon.=26.474224, Alt.=97.284241m. Speed=13.752000m/h.</desc>
<speed>3.820000</speed>
</trkpt>
<trkpt lat="55.985432" lon="26.474174">
<ele>97.182678</ele>
<time>2010-06-20T09:34:35Z</time>
<desc>lat.=55.985432, lon.=26.474174, Alt.=97.182678m. Speed=12.960000m/h.</desc>
<speed>3.600000</speed>
</trkpt>
<trkpt lat="55.985420" lon="26.474112">
<ele>96.403381</ele>
<time>2010-06-20T09:34:36Z</time>
<desc>lat.=55.985420, lon.=26.474112, Alt.=96.403381m. Speed=14.040000m/h.</desc>
<speed>3.900000</speed>
</trkpt>
<trkpt lat="55.985401" lon="26.474064">
<ele>96.325256</ele>
<time>2010-06-20T09:34:37Z</time>
<desc>lat.=55.985401, lon.=26.474064, Alt.=96.325256m. Speed=12.384000m/h.</desc>
<speed>3.440000</speed>
</trkpt>
<trkpt lat="55.985382" lon="26.474024">
<ele>96.419006</ele>
<time>2010-06-20T09:34:38Z</time>
<desc>lat.=55.985382, lon.=26.474024, Alt.=96.419006m. Speed=11.880000m/h.</desc>
<speed>3.300000</speed>
</trkpt>
<trkpt lat="55.985367" lon="26.473986">
<ele>96.520569</ele>
<time>2010-06-20T09:34:39Z</time>
<desc>lat.=55.985367, lon.=26.473986, Alt.=96.520569m. Speed=12.456000m/h.</desc>
<speed>3.460000</speed>
</trkpt>
<trkpt lat="55.985344" lon="26.473938">
<ele>96.522522</ele>
<time>2010-06-20T09:34:40Z</time>
<desc>lat.=55.985344, lon.=26.473938, Alt.=96.522522m. Speed=12.276000m/h.</desc>
<speed>3.410000</speed>
</trkpt>
<trkpt lat="55.985317" lon="26.473896">
<ele>97.422913</ele>
<time>2010-06-20T09:34:41Z</time>
<desc>lat.=55.985317, lon.=26.473896, Alt.=97.422913m. Speed=11.592000m/h.</desc>
<speed>3.220000</speed>
</trkpt>
<trkpt lat="55.985298" lon="26.473854">
<ele>97.585022</ele>
<time>2010-06-20T09:34:42Z</time>
<desc>lat.=55.985298, lon.=26.473854, Alt.=97.585022m. Speed=11.124000m/h.</desc>
<speed>3.090000</speed>
</trkpt>
<trkpt lat="55.985283" lon="26.473812">
<ele>97.618225</ele>
<time>2010-06-20T09:34:43Z</time>
<desc>lat.=55.985283, lon.=26.473812, Alt.=97.618225m. Speed=11.124000m/h.</desc>
<speed>3.090000</speed>
</trkpt>
<trkpt lat="55.985268" lon="26.473778">
<ele>97.758850</ele>
<time>2010-06-20T09:34:44Z</time>
<desc>lat.=55.985268, lon.=26.473778, Alt.=97.758850m. Speed=11.628000m/h.</desc>
<speed>3.230000</speed>
</trkpt>
<trkpt lat="55.985252" lon="26.473722">
<ele>96.864319</ele>
<time>2010-06-20T09:34:45Z</time>
<desc>lat.=55.985252, lon.=26.473722, Alt.=96.864319m. Speed=10.800000m/h.</desc>
<speed>3.000000</speed>
</trkpt>
<trkpt lat="55.985245" lon="26.473675">
<ele>96.223694</ele>
<time>2010-06-20T09:34:46Z</time>
<desc>lat.=55.985245, lon.=26.473675, Alt.=96.223694m. Speed=10.296000m/h.</desc>
<speed>2.860000</speed>
</trkpt>
<trkpt lat="55.985237" lon="26.473627">
<ele>96.040100</ele>
<time>2010-06-20T09:34:47Z</time>
<desc>lat.=55.985237, lon.=26.473627, Alt.=96.040100m. Speed=12.204000m/h.</desc>
<speed>3.390000</speed>
</trkpt>
<trkpt lat="55.985222" lon="26.473581">
<ele>96.151428</ele>
<time>2010-06-20T09:34:48Z</time>
<desc>lat.=55.985222, lon.=26.473581, Alt.=96.151428m. Speed=12.672000m/h.</desc>
<speed>3.520000</speed>
</trkpt>
<trkpt lat="55.985203" lon="26.473530">
<ele>96.280334</ele>
<time>2010-06-20T09:34:49Z</time>
<desc>lat.=55.985203, lon.=26.473530, Alt.=96.280334m. Speed=13.788000m/h.</desc>
<speed>3.830000</speed>
</trkpt>
<trkpt lat="55.985184" lon="26.473484">
<ele>96.608459</ele>
<time>2010-06-20T09:34:50Z</time>
<desc>lat.=55.985184, lon.=26.473484, Alt.=96.608459m. Speed=12.960000m/h.</desc>
<speed>3.600000</speed>
</trkpt>
<trkpt lat="55.985165" lon="26.473446">
<ele>97.233459</ele>
<time>2010-06-20T09:34:51Z</time>
<desc>lat.=55.985165, lon.=26.473446, Alt.=97.233459m. Speed=12.204000m/h.</desc>
<speed>3.390000</speed>
</trkpt>
<trkpt lat="55.985146" lon="26.473412">
<ele>97.885803</ele>
<time>2010-06-20T09:34:52Z</time>
<desc>lat.=55.985146, lon.=26.473412, Alt.=97.885803m. Speed=11.664000m/h.</desc>
<speed>3.240000</speed>
</trkpt>
<trkpt lat="55.985126" lon="26.473391">
<ele>98.944397</ele>
<time>2010-06-20T09:34:53Z</time>
<desc>lat.=55.985126, lon.=26.473391, Alt.=98.944397m. Speed=11.160000m/h.</desc>
<speed>3.100000</speed>
</trkpt>
<trkpt lat="55.985107" lon="26.473354">
<ele>99.586975</ele>
<time>2010-06-20T09:34:54Z</time>
<desc>lat.=55.985107, lon.=26.473354, Alt.=99.586975m. Speed=12.204000m/h.</desc>
<speed>3.390000</speed>
</trkpt>
<trkpt lat="55.985088" lon="26.473303">
<ele>99.883850</ele>
<time>2010-06-20T09:34:55Z</time>
<desc>lat.=55.985088, lon.=26.473303, Alt.=99.883850m. Speed=12.924000m/h.</desc>
<speed>3.590000</speed>
</trkpt>
<trkpt lat="55.985069" lon="26.473249">
<ele>99.555725</ele>
<time>2010-06-20T09:34:56Z</time>
<desc>lat.=55.985069, lon.=26.473249, Alt.=99.555725m. Speed=13.140000m/h.</desc>
<speed>3.650000</speed>
</trkpt>
<trkpt lat="55.985050" lon="26.473211">
<ele>100.342834</ele>
<time>2010-06-20T09:34:57Z</time>
<desc>lat.=55.985050, lon.=26.473211, Alt.=100.342834m. Speed=12.672000m/h.</desc>
<speed>3.520000</speed>
</trkpt>
<trkpt lat="55.985031" lon="26.473164">
<ele>100.245178</ele>
<time>2010-06-20T09:34:58Z</time>
<desc>lat.=55.985031, lon.=26.473164, Alt.=100.245178m. Speed=12.420000m/h.</desc>
<speed>3.450000</speed>
</trkpt>
<trkpt lat="55.985016" lon="26.473099">
<ele>99.151428</ele>
<time>2010-06-20T09:34:59Z</time>
<desc>lat.=55.985016, lon.=26.473099, Alt.=99.151428m. Speed=13.104000m/h.</desc>
<speed>3.640000</speed>
</trkpt>
<trkpt lat="55.985001" lon="26.473043">
<ele>98.854553</ele>
<time>2010-06-20T09:35:00Z</time>
<desc>lat.=55.985001, lon.=26.473043, Alt.=98.854553m. Speed=13.824000m/h.</desc>
<speed>3.840000</speed>
</trkpt>
<trkpt lat="55.984982" lon="26.472994">
<ele>98.958069</ele>
<time>2010-06-20T09:35:01Z</time>
<desc>lat.=55.984982, lon.=26.472994, Alt.=98.958069m. Speed=12.024000m/h.</desc>
<speed>3.340000</speed>
</trkpt>
<trkpt lat="55.984966" lon="26.472950">
<ele>98.711975</ele>
<time>2010-06-20T09:35:02Z</time>
<desc>lat.=55.984966, lon.=26.472950, Alt.=98.711975m. Speed=12.024000m/h.</desc>
<speed>3.340000</speed>
</trkpt>
<trkpt lat="55.984951" lon="26.472902">
<ele>98.489319</ele>
<time>2010-06-20T09:35:03Z</time>
<desc>lat.=55.984951, lon.=26.472902, Alt.=98.489319m. Speed=12.276000m/h.</desc>
<speed>3.410000</speed>
</trkpt>
<trkpt lat="55.984932" lon="26.472857">
<ele>98.620178</ele>
<time>2010-06-20T09:35:04Z</time>
<desc>lat.=55.984932, lon.=26.472857, Alt.=98.620178m. Speed=12.456000m/h.</desc>
<speed>3.460000</speed>
</trkpt>
<trkpt lat="55.984913" lon="26.472807">
<ele>98.735413</ele>
<time>2010-06-20T09:35:05Z</time>
<desc>lat.=55.984913, lon.=26.472807, Alt.=98.735413m. Speed=14.040000m/h.</desc>
<speed>3.900000</speed>
</trkpt>
<trkpt lat="55.984898" lon="26.472754">
<ele>98.182678</ele>
<time>2010-06-20T09:35:06Z</time>
<desc>lat.=55.984898, lon.=26.472754, Alt.=98.182678m. Speed=14.976000m/h.</desc>
<speed>4.160000</speed>
</trkpt>
<trkpt lat="55.984879" lon="26.472704">
<ele>98.526428</ele>
<time>2010-06-20T09:35:07Z</time>
<desc>lat.=55.984879, lon.=26.472704, Alt.=98.526428m. Speed=14.508000m/h.</desc>
<speed>4.030000</speed>
</trkpt>
<trkpt lat="55.984856" lon="26.472660">
<ele>99.116272</ele>
<time>2010-06-20T09:35:08Z</time>
<desc>lat.=55.984856, lon.=26.472660, Alt.=99.116272m. Speed=14.184000m/h.</desc>
<speed>3.940000</speed>
</trkpt>
<trkpt lat="55.984837" lon="26.472612">
<ele>99.204163</ele>
<time>2010-06-20T09:35:09Z</time>
<desc>lat.=55.984837, lon.=26.472612, Alt.=99.204163m. Speed=14.040000m/h.</desc>
<speed>3.900000</speed>
</trkpt>
<trkpt lat="55.984810" lon="26.472561">
<ele>99.877991</ele>
<time>2010-06-20T09:35:10Z</time>
<desc>lat.=55.984810, lon.=26.472561, Alt.=99.877991m. Speed=13.824000m/h.</desc>
<speed>3.840000</speed>
</trkpt>
<trkpt lat="55.984791" lon="26.472515">
<ele>100.071350</ele>
<time>2010-06-20T09:35:11Z</time>
<desc>lat.=55.984791, lon.=26.472515, Alt.=100.071350m. Speed=12.888000m/h.</desc>
<speed>3.580000</speed>
</trkpt>
<trkpt lat="55.984772" lon="26.472471">
<ele>100.219788</ele>
<time>2010-06-20T09:35:12Z</time>
<desc>lat.=55.984772, lon.=26.472471, Alt.=100.219788m. Speed=13.500000m/h.</desc>
<speed>3.750000</speed>
</trkpt>
<trkpt lat="55.984741" lon="26.472420">
<ele>100.542053</ele>
<time>2010-06-20T09:35:13Z</time>
<desc>lat.=55.984741, lon.=26.472420, Alt.=100.542053m. Speed=14.400000m/h.</desc>
<speed>4.000000</speed>
</trkpt>
<trkpt lat="55.984722" lon="26.472361">
<ele>99.672913</ele>
<time>2010-06-20T09:35:14Z</time>
<desc>lat.=55.984722, lon.=26.472361, Alt.=99.672913m. Speed=15.408000m/h.</desc>
<speed>4.280000</speed>
</trkpt>
<trkpt lat="55.984699" lon="26.472305">
<ele>99.383850</ele>
<time>2010-06-20T09:35:15Z</time>
<desc>lat.=55.984699, lon.=26.472305, Alt.=99.383850m. Speed=15.012000m/h.</desc>
<speed>4.170000</speed>
</trkpt>
<trkpt lat="55.984673" lon="26.472252">
<ele>99.481506</ele>
<time>2010-06-20T09:35:16Z</time>
<desc>lat.=55.984673, lon.=26.472252, Alt.=99.481506m. Speed=15.624000m/h.</desc>
<speed>4.340000</speed>
</trkpt>
<trkpt lat="55.984646" lon="26.472198">
<ele>100.749084</ele>
<time>2010-06-20T09:35:17Z</time>
<desc>lat.=55.984646, lon.=26.472198, Alt.=100.749084m. Speed=15.840000m/h.</desc>
<speed>4.400000</speed>
</trkpt>
<trkpt lat="55.984623" lon="26.472141">
<ele>101.088928</ele>
<time>2010-06-20T09:35:18Z</time>
<desc>lat.=55.984623, lon.=26.472141, Alt.=101.088928m. Speed=15.984000m/h.</desc>
<speed>4.440000</speed>
</trkpt>
<trkpt lat="55.984604" lon="26.472088">
<ele>101.077209</ele>
<time>2010-06-20T09:35:19Z</time>
<desc>lat.=55.984604, lon.=26.472088, Alt.=101.077209m. Speed=15.948000m/h.</desc>
<speed>4.430000</speed>
</trkpt>
<trkpt lat="55.984581" lon="26.472021">
<ele>100.438538</ele>
<time>2010-06-20T09:35:20Z</time>
<desc>lat.=55.984581, lon.=26.472021, Alt.=100.438538m. Speed=16.955999m/h.</desc>
<speed>4.710000</speed>
</trkpt>
<trkpt lat="55.984554" lon="26.471958">
<ele>100.008850</ele>
<time>2010-06-20T09:35:21Z</time>
<desc>lat.=55.984554, lon.=26.471958, Alt.=100.008850m. Speed=17.100000m/h.</desc>
<speed>4.750000</speed>
</trkpt>
<trkpt lat="55.984531" lon="26.471899">
<ele>99.811584</ele>
<time>2010-06-20T09:35:22Z</time>
<desc>lat.=55.984531, lon.=26.471899, Alt.=99.811584m. Speed=15.912000m/h.</desc>
<speed>4.420000</speed>
</trkpt>
<trkpt lat="55.984505" lon="26.471840">
<ele>99.657288</ele>
<time>2010-06-20T09:35:23Z</time>
<desc>lat.=55.984505, lon.=26.471840, Alt.=99.657288m. Speed=16.128000m/h.</desc>
<speed>4.480000</speed>
</trkpt>
<trkpt lat="55.984478" lon="26.471786">
<ele>99.401428</ele>
<time>2010-06-20T09:35:24Z</time>
<desc>lat.=55.984478, lon.=26.471786, Alt.=99.401428m. Speed=16.416000m/h.</desc>
<speed>4.560000</speed>
</trkpt>
<trkpt lat="55.984451" lon="26.471727">
<ele>99.430725</ele>
<time>2010-06-20T09:35:25Z</time>
<desc>lat.=55.984451, lon.=26.471727, Alt.=99.430725m. Speed=16.271999m/h.</desc>
<speed>4.520000</speed>
</trkpt>
<trkpt lat="55.984432" lon="26.471659">
<ele>98.780334</ele>
<time>2010-06-20T09:35:26Z</time>
<desc>lat.=55.984432, lon.=26.471659, Alt.=98.780334m. Speed=16.164000m/h.</desc>
<speed>4.490000</speed>
</trkpt>
<trkpt lat="55.984413" lon="26.471586">
<ele>98.139709</ele>
<time>2010-06-20T09:35:27Z</time>
<desc>lat.=55.984413, lon.=26.471586, Alt.=98.139709m. Speed=16.236000m/h.</desc>
<speed>4.510000</speed>
</trkpt>
<trkpt lat="55.984390" lon="26.471521">
<ele>97.954163</ele>
<time>2010-06-20T09:35:28Z</time>
<desc>lat.=55.984390, lon.=26.471521, Alt.=97.954163m. Speed=16.091999m/h.</desc>
<speed>4.470000</speed>
</trkpt>
<trkpt lat="55.984371" lon="26.471453">
<ele>97.516663</ele>
<time>2010-06-20T09:35:29Z</time>
<desc>lat.=55.984371, lon.=26.471453, Alt.=97.516663m. Speed=15.804000m/h.</desc>
<speed>4.390000</speed>
</trkpt>
<trkpt lat="55.984352" lon="26.471382">
<ele>96.989319</ele>
<time>2010-06-20T09:35:30Z</time>
<desc>lat.=55.984352, lon.=26.471382, Alt.=96.989319m. Speed=15.876000m/h.</desc>
<speed>4.410000</speed>
</trkpt>
<trkpt lat="55.984333" lon="26.471317">
<ele>96.676819</ele>
<time>2010-06-20T09:35:31Z</time>
<desc>lat.=55.984333, lon.=26.471317, Alt.=96.676819m. Speed=15.588000m/h.</desc>
<speed>4.330000</speed>
</trkpt>
<trkpt lat="55.984310" lon="26.471252">
<ele>96.252991</ele>
<time>2010-06-20T09:35:32Z</time>
<desc>lat.=55.984310, lon.=26.471252, Alt.=96.252991m. Speed=15.624000m/h.</desc>
<speed>4.340000</speed>
</trkpt>
<trkpt lat="55.984295" lon="26.471186">
<ele>95.885803</ele>
<time>2010-06-20T09:35:33Z</time>
<desc>lat.=55.984295, lon.=26.471186, Alt.=95.885803m. Speed=15.552000m/h.</desc>
<speed>4.320000</speed>
</trkpt>
<trkpt lat="55.984276" lon="26.471111">
<ele>95.458069</ele>
<time>2010-06-20T09:35:34Z</time>
<desc>lat.=55.984276, lon.=26.471111, Alt.=95.458069m. Speed=14.796000m/h.</desc>
<speed>4.110000</speed>
</trkpt>
<trkpt lat="55.984253" lon="26.471041">
<ele>95.270569</ele>
<time>2010-06-20T09:35:35Z</time>
<desc>lat.=55.984253, lon.=26.471041, Alt.=95.270569m. Speed=14.940000m/h.</desc>
<speed>4.150000</speed>
</trkpt>
<trkpt lat="55.984238" lon="26.470972">
<ele>94.870178</ele>
<time>2010-06-20T09:35:36Z</time>
<desc>lat.=55.984238, lon.=26.470972, Alt.=94.870178m. Speed=14.508000m/h.</desc>
<speed>4.030000</speed>
</trkpt>
<trkpt lat="55.984226" lon="26.470898">
<ele>94.170959</ele>
<time>2010-06-20T09:35:37Z</time>
<desc>lat.=55.984226, lon.=26.470898, Alt.=94.170959m. Speed=14.652000m/h.</desc>
<speed>4.070000</speed>
</trkpt>
<trkpt lat="55.984211" lon="26.470831">
<ele>93.711975</ele>
<time>2010-06-20T09:35:38Z</time>
<desc>lat.=55.984211, lon.=26.470831, Alt.=93.711975m. Speed=14.436000m/h.</desc>
<speed>4.010000</speed>
</trkpt>
<trkpt lat="55.984196" lon="26.470766">
<ele>93.501038</ele>
<time>2010-06-20T09:35:39Z</time>
<desc>lat.=55.984196, lon.=26.470766, Alt.=93.501038m. Speed=14.076000m/h.</desc>
<speed>3.910000</speed>
</trkpt>
<trkpt lat="55.984184" lon="26.470705">
<ele>93.311584</ele>
<time>2010-06-20T09:35:40Z</time>
<desc>lat.=55.984184, lon.=26.470705, Alt.=93.311584m. Speed=14.400000m/h.</desc>
<speed>4.000000</speed>
</trkpt>
<trkpt lat="55.984177" lon="26.470646">
<ele>93.151428</ele>
<time>2010-06-20T09:35:41Z</time>
<desc>lat.=55.984177, lon.=26.470646, Alt.=93.151428m. Speed=14.328000m/h.</desc>
<speed>3.980000</speed>
</trkpt>
<trkpt lat="55.984165" lon="26.470587">
<ele>93.020569</ele>
<time>2010-06-20T09:35:42Z</time>
<desc>lat.=55.984165, lon.=26.470587, Alt.=93.020569m. Speed=13.572000m/h.</desc>
<speed>3.770000</speed>
</trkpt>
<trkpt lat="55.984161" lon="26.470528">
<ele>93.028381</ele>
<time>2010-06-20T09:35:43Z</time>
<desc>lat.=55.984161, lon.=26.470528, Alt.=93.028381m. Speed=12.888000m/h.</desc>
<speed>3.580000</speed>
</trkpt>
<trkpt lat="55.984154" lon="26.470470">
<ele>93.145569</ele>
<time>2010-06-20T09:35:44Z</time>
<desc>lat.=55.984154, lon.=26.470470, Alt.=93.145569m. Speed=12.060000m/h.</desc>
<speed>3.350000</speed>
</trkpt>
<trkpt lat="55.984150" lon="26.470419">
<ele>93.284241</ele>
<time>2010-06-20T09:35:45Z</time>
<desc>lat.=55.984150, lon.=26.470419, Alt.=93.284241m. Speed=11.340000m/h.</desc>
<speed>3.150000</speed>
</trkpt>
<trkpt lat="55.984146" lon="26.470369">
<ele>93.440491</ele>
<time>2010-06-20T09:35:46Z</time>
<desc>lat.=55.984146, lon.=26.470369, Alt.=93.440491m. Speed=11.952000m/h.</desc>
<speed>3.320000</speed>
</trkpt>
<trkpt lat="55.984138" lon="26.470318">
<ele>93.530334</ele>
<time>2010-06-20T09:35:47Z</time>
<desc>lat.=55.984138, lon.=26.470318, Alt.=93.530334m. Speed=11.484000m/h.</desc>
<speed>3.190000</speed>
</trkpt>
<trkpt lat="55.984135" lon="26.470268">
<ele>93.528381</ele>
<time>2010-06-20T09:35:48Z</time>
<desc>lat.=55.984135, lon.=26.470268, Alt.=93.528381m. Speed=11.376000m/h.</desc>
<speed>3.160000</speed>
</trkpt>
<trkpt lat="55.984131" lon="26.470224">
<ele>93.331116</ele>
<time>2010-06-20T09:35:49Z</time>
<desc>lat.=55.984131, lon.=26.470224, Alt.=93.331116m. Speed=11.268000m/h.</desc>
<speed>3.130000</speed>
</trkpt>
<trkpt lat="55.984123" lon="26.470173">
<ele>93.247131</ele>
<time>2010-06-20T09:35:50Z</time>
<desc>lat.=55.984123, lon.=26.470173, Alt.=93.247131m. Speed=10.404000m/h.</desc>
<speed>2.890000</speed>
</trkpt>
<trkpt lat="55.984119" lon="26.470119">
<ele>93.137756</ele>
<time>2010-06-20T09:35:51Z</time>
<desc>lat.=55.984119, lon.=26.470119, Alt.=93.137756m. Speed=12.564000m/h.</desc>
<speed>3.490000</speed>
</trkpt>
<trkpt lat="55.984116" lon="26.470064">
<ele>92.747131</ele>
<time>2010-06-20T09:35:52Z</time>
<desc>lat.=55.984116, lon.=26.470064, Alt.=92.747131m. Speed=12.852000m/h.</desc>
<speed>3.570000</speed>
</trkpt>
<trkpt lat="55.984116" lon="26.470007">
<ele>92.424866</ele>
<time>2010-06-20T09:35:53Z</time>
<desc>lat.=55.984116, lon.=26.470007, Alt.=92.424866m. Speed=13.068000m/h.</desc>
<speed>3.630000</speed>
</trkpt>
<trkpt lat="55.984112" lon="26.469946">
<ele>92.247131</ele>
<time>2010-06-20T09:35:54Z</time>
<desc>lat.=55.984112, lon.=26.469946, Alt.=92.247131m. Speed=13.608000m/h.</desc>
<speed>3.780000</speed>
</trkpt>
<trkpt lat="55.984108" lon="26.469885">
<ele>91.901428</ele>
<time>2010-06-20T09:35:55Z</time>
<desc>lat.=55.984108, lon.=26.469885, Alt.=91.901428m. Speed=13.968000m/h.</desc>
<speed>3.880000</speed>
</trkpt>
<trkpt lat="55.984104" lon="26.469824">
<ele>91.743225</ele>
<time>2010-06-20T09:35:56Z</time>
<desc>lat.=55.984104, lon.=26.469824, Alt.=91.743225m. Speed=13.716000m/h.</desc>
<speed>3.810000</speed>
</trkpt>
<trkpt lat="55.984100" lon="26.469763">
<ele>91.596741</ele>
<time>2010-06-20T09:35:57Z</time>
<desc>lat.=55.984100, lon.=26.469763, Alt.=91.596741m. Speed=13.644000m/h.</desc>
<speed>3.790000</speed>
</trkpt>
<trkpt lat="55.984100" lon="26.469702">
<ele>91.407288</ele>
<time>2010-06-20T09:35:58Z</time>
<desc>lat.=55.984100, lon.=26.469702, Alt.=91.407288m. Speed=13.464000m/h.</desc>
<speed>3.740000</speed>
</trkpt>
<trkpt lat="55.984097" lon="26.469643">
<ele>91.159241</ele>
<time>2010-06-20T09:35:59Z</time>
<desc>lat.=55.984097, lon.=26.469643, Alt.=91.159241m. Speed=13.284000m/h.</desc>
<speed>3.690000</speed>
</trkpt>
<trkpt lat="55.984093" lon="26.469585">
<ele>91.104553</ele>
<time>2010-06-20T09:36:00Z</time>
<desc>lat.=55.984093, lon.=26.469585, Alt.=91.104553m. Speed=13.068000m/h.</desc>
<speed>3.630000</speed>
</trkpt>
<trkpt lat="55.984089" lon="26.469530">
<ele>90.901428</ele>
<time>2010-06-20T09:36:01Z</time>
<desc>lat.=55.984089, lon.=26.469530, Alt.=90.901428m. Speed=12.672000m/h.</desc>
<speed>3.520000</speed>
</trkpt>
<trkpt lat="55.984085" lon="26.469475">
<ele>90.692444</ele>
<time>2010-06-20T09:36:02Z</time>
<desc>lat.=55.984085, lon.=26.469475, Alt.=90.692444m. Speed=12.348000m/h.</desc>
<speed>3.430000</speed>
</trkpt>
<trkpt lat="55.984081" lon="26.469419">
<ele>90.659241</ele>
<time>2010-06-20T09:36:03Z</time>
<desc>lat.=55.984081, lon.=26.469419, Alt.=90.659241m. Speed=12.276000m/h.</desc>
<speed>3.410000</speed>
</trkpt>
<trkpt lat="55.984077" lon="26.469360">
<ele>90.436584</ele>
<time>2010-06-20T09:36:04Z</time>
<desc>lat.=55.984077, lon.=26.469360, Alt.=90.436584m. Speed=12.672000m/h.</desc>
<speed>3.520000</speed>
</trkpt>
<trkpt lat="55.984074" lon="26.469297">
<ele>90.346741</ele>
<time>2010-06-20T09:36:05Z</time>
<desc>lat.=55.984074, lon.=26.469297, Alt.=90.346741m. Speed=13.320000m/h.</desc>
<speed>3.700000</speed>
</trkpt>
<trkpt lat="55.984066" lon="26.469236">
<ele>90.295959</ele>
<time>2010-06-20T09:36:06Z</time>
<desc>lat.=55.984066, lon.=26.469236, Alt.=90.295959m. Speed=13.140000m/h.</desc>
<speed>3.650000</speed>
</trkpt>
<trkpt lat="55.984062" lon="26.469179">
<ele>90.237366</ele>
<time>2010-06-20T09:36:07Z</time>
<desc>lat.=55.984062, lon.=26.469179, Alt.=90.237366m. Speed=12.564000m/h.</desc>
<speed>3.490000</speed>
</trkpt>
<trkpt lat="55.984062" lon="26.469120">
<ele>90.184631</ele>
<time>2010-06-20T09:36:08Z</time>
<desc>lat.=55.984062, lon.=26.469120, Alt.=90.184631m. Speed=12.816000m/h.</desc>
<speed>3.560000</speed>
</trkpt>
<trkpt lat="55.984058" lon="26.469059">
<ele>89.872131</ele>
<time>2010-06-20T09:36:09Z</time>
<desc>lat.=55.984058, lon.=26.469059, Alt.=89.872131m. Speed=12.816000m/h.</desc>
<speed>3.560000</speed>
</trkpt>
<trkpt lat="55.984051" lon="26.469000">
<ele>89.854553</ele>
<time>2010-06-20T09:36:10Z</time>
<desc>lat.=55.984051, lon.=26.469000, Alt.=89.854553m. Speed=12.636000m/h.</desc>
<speed>3.510000</speed>
</trkpt>
<trkpt lat="55.984051" lon="26.468943">
<ele>89.614319</ele>
<time>2010-06-20T09:36:11Z</time>
<desc>lat.=55.984051, lon.=26.468943, Alt.=89.614319m. Speed=11.988000m/h.</desc>
<speed>3.330000</speed>
</trkpt>
<trkpt lat="55.984051" lon="26.468889">
<ele>89.551819</ele>
<time>2010-06-20T09:36:12Z</time>
<desc>lat.=55.984051, lon.=26.468889, Alt.=89.551819m. Speed=11.412000m/h.</desc>
<speed>3.170000</speed>
</trkpt>
<trkpt lat="55.984047" lon="26.468836">
<ele>89.491272</ele>
<time>2010-06-20T09:36:13Z</time>
<desc>lat.=55.984047, lon.=26.468836, Alt.=89.491272m. Speed=11.844000m/h.</desc>
<speed>3.290000</speed>
</trkpt>
<trkpt lat="55.984043" lon="26.468784">
<ele>89.473694</ele>
<time>2010-06-20T09:36:14Z</time>
<desc>lat.=55.984043, lon.=26.468784, Alt.=89.473694m. Speed=11.412000m/h.</desc>
<speed>3.170000</speed>
</trkpt>
<trkpt lat="55.984039" lon="26.468731">
<ele>89.358459</ele>
<time>2010-06-20T09:36:15Z</time>
<desc>lat.=55.984039, lon.=26.468731, Alt.=89.358459m. Speed=12.924000m/h.</desc>
<speed>3.590000</speed>
</trkpt>
<trkpt lat="55.984035" lon="26.468672">
<ele>89.200256</ele>
<time>2010-06-20T09:36:16Z</time>
<desc>lat.=55.984035, lon.=26.468672, Alt.=89.200256m. Speed=13.644000m/h.</desc>
<speed>3.790000</speed>
</trkpt>
<trkpt lat="55.984032" lon="26.468609">
<ele>89.122131</ele>
<time>2010-06-20T09:36:17Z</time>
<desc>lat.=55.984032, lon.=26.468609, Alt.=89.122131m. Speed=14.004000m/h.</desc>
<speed>3.890000</speed>
</trkpt>
<trkpt lat="55.984028" lon="26.468548">
<ele>88.989319</ele>
<time>2010-06-20T09:36:18Z</time>
<desc>lat.=55.984028, lon.=26.468548, Alt.=88.989319m. Speed=13.356000m/h.</desc>
<speed>3.710000</speed>
</trkpt>
<trkpt lat="55.984020" lon="26.468493">
<ele>88.860413</ele>
<time>2010-06-20T09:36:19Z</time>
<desc>lat.=55.984020, lon.=26.468493, Alt.=88.860413m. Speed=12.888000m/h.</desc>
<speed>3.580000</speed>
</trkpt>
<trkpt lat="55.984016" lon="26.468437">
<ele>88.969788</ele>
<time>2010-06-20T09:36:20Z</time>
<desc>lat.=55.984016, lon.=26.468437, Alt.=88.969788m. Speed=12.384000m/h.</desc>
<speed>3.440000</speed>
</trkpt>
<trkpt lat="55.984016" lon="26.468388">
<ele>89.047913</ele>
<time>2010-06-20T09:36:21Z</time>
<desc>lat.=55.984016, lon.=26.468388, Alt.=89.047913m. Speed=11.736000m/h.</desc>
<speed>3.260000</speed>
</trkpt>
<trkpt lat="55.984013" lon="26.468338">
<ele>89.075256</ele>
<time>2010-06-20T09:36:22Z</time>
<desc>lat.=55.984013, lon.=26.468338, Alt.=89.075256m. Speed=11.124000m/h.</desc>
<speed>3.090000</speed>
</trkpt>
<trkpt lat="55.984009" lon="26.468287">
<ele>89.090881</ele>
<time>2010-06-20T09:36:23Z</time>
<desc>lat.=55.984009, lon.=26.468287, Alt.=89.090881m. Speed=11.556000m/h.</desc>
<speed>3.210000</speed>
</trkpt>
<trkpt lat="55.984001" lon="26.468235">
<ele>89.067444</ele>
<time>2010-06-20T09:36:24Z</time>
<desc>lat.=55.984001, lon.=26.468235, Alt.=89.067444m. Speed=12.060000m/h.</desc>
<speed>3.350000</speed>
</trkpt>
<trkpt lat="55.984001" lon="26.468178">
<ele>88.887756</ele>
<time>2010-06-20T09:36:25Z</time>
<desc>lat.=55.984001, lon.=26.468178, Alt.=88.887756m. Speed=13.140000m/h.</desc>
<speed>3.650000</speed>
</trkpt>
<trkpt lat="55.983997" lon="26.468121">
<ele>88.788147</ele>
<time>2010-06-20T09:36:26Z</time>
<desc>lat.=55.983997, lon.=26.468121, Alt.=88.788147m. Speed=12.780000m/h.</desc>
<speed>3.550000</speed>
</trkpt>
<trkpt lat="55.983994" lon="26.468065">
<ele>88.743225</ele>
<time>2010-06-20T09:36:27Z</time>
<desc>lat.=55.983994, lon.=26.468065, Alt.=88.743225m. Speed=12.240000m/h.</desc>
<speed>3.400000</speed>
</trkpt>
<trkpt lat="55.983990" lon="26.468010">
<ele>88.713928</ele>
<time>2010-06-20T09:36:28Z</time>
<desc>lat.=55.983990, lon.=26.468010, Alt.=88.713928m. Speed=12.672000m/h.</desc>
<speed>3.520000</speed>
</trkpt>
<trkpt lat="55.983986" lon="26.467953">
<ele>88.692444</ele>
<time>2010-06-20T09:36:29Z</time>
<desc>lat.=55.983986, lon.=26.467953, Alt.=88.692444m. Speed=13.572000m/h.</desc>
<speed>3.770000</speed>
</trkpt>
<trkpt lat="55.983982" lon="26.467894">
<ele>88.612366</ele>
<time>2010-06-20T09:36:30Z</time>
<desc>lat.=55.983982, lon.=26.467894, Alt.=88.612366m. Speed=13.140000m/h.</desc>
<speed>3.650000</speed>
</trkpt>
<trkpt lat="55.983978" lon="26.467836">
<ele>88.547913</ele>
<time>2010-06-20T09:36:31Z</time>
<desc>lat.=55.983978, lon.=26.467836, Alt.=88.547913m. Speed=12.744000m/h.</desc>
<speed>3.540000</speed>
</trkpt>
<trkpt lat="55.983974" lon="26.467781">
<ele>88.522522</ele>
<time>2010-06-20T09:36:32Z</time>
<desc>lat.=55.983974, lon.=26.467781, Alt.=88.522522m. Speed=12.024000m/h.</desc>
<speed>3.340000</speed>
</trkpt>
<trkpt lat="55.983971" lon="26.467728">
<ele>88.698303</ele>
<time>2010-06-20T09:36:33Z</time>
<desc>lat.=55.983971, lon.=26.467728, Alt.=88.698303m. Speed=12.564000m/h.</desc>
<speed>3.490000</speed>
</trkpt>
<trkpt lat="55.983963" lon="26.467670">
<ele>88.780334</ele>
<time>2010-06-20T09:36:34Z</time>
<desc>lat.=55.983963, lon.=26.467670, Alt.=88.780334m. Speed=12.276000m/h.</desc>
<speed>3.410000</speed>
</trkpt>
<trkpt lat="55.983959" lon="26.467617">
<ele>88.780334</ele>
<time>2010-06-20T09:36:35Z</time>
<desc>lat.=55.983959, lon.=26.467617, Alt.=88.780334m. Speed=11.448000m/h.</desc>
<speed>3.180000</speed>
</trkpt>
<trkpt lat="55.983963" lon="26.467569">
<ele>88.780334</ele>
<time>2010-06-20T09:36:36Z</time>
<desc>lat.=55.983963, lon.=26.467569, Alt.=88.780334m. Speed=10.476000m/h.</desc>
<speed>2.910000</speed>
</trkpt>
<trkpt lat="55.983963" lon="26.467525">
<ele>88.735413</ele>
<time>2010-06-20T09:36:37Z</time>
<desc>lat.=55.983963, lon.=26.467525, Alt.=88.735413m. Speed=10.656000m/h.</desc>
<speed>2.960000</speed>
</trkpt>
<trkpt lat="55.983959" lon="26.467482">
<ele>88.743225</ele>
<time>2010-06-20T09:36:38Z</time>
<desc>lat.=55.983959, lon.=26.467482, Alt.=88.743225m. Speed=11.052000m/h.</desc>
<speed>3.070000</speed>
</trkpt>
<trkpt lat="55.983959" lon="26.467432">
<ele>88.823303</ele>
<time>2010-06-20T09:36:39Z</time>
<desc>lat.=55.983959, lon.=26.467432, Alt.=88.823303m. Speed=11.412000m/h.</desc>
<speed>3.170000</speed>
</trkpt>
<trkpt lat="55.983959" lon="26.467384">
<ele>88.852600</ele>
<time>2010-06-20T09:36:40Z</time>
<desc>lat.=55.983959, lon.=26.467384, Alt.=88.852600m. Speed=12.816000m/h.</desc>
<speed>3.560000</speed>
</trkpt>
<trkpt lat="55.983959" lon="26.467329">
<ele>88.710022</ele>
<time>2010-06-20T09:36:41Z</time>
<desc>lat.=55.983959, lon.=26.467329, Alt.=88.710022m. Speed=11.880000m/h.</desc>
<speed>3.300000</speed>
</trkpt>
<trkpt lat="55.983959" lon="26.467274">
<ele>88.643616</ele>
<time>2010-06-20T09:36:42Z</time>
<desc>lat.=55.983959, lon.=26.467274, Alt.=88.643616m. Speed=11.016000m/h.</desc>
<speed>3.060000</speed>
</trkpt>
<trkpt lat="55.983959" lon="26.467224">
<ele>88.598694</ele>
<time>2010-06-20T09:36:43Z</time>
<desc>lat.=55.983959, lon.=26.467224, Alt.=88.598694m. Speed=11.124000m/h.</desc>
<speed>3.090000</speed>
</trkpt>
<trkpt lat="55.983955" lon="26.467176">
<ele>88.616272</ele>
<time>2010-06-20T09:36:44Z</time>
<desc>lat.=55.983955, lon.=26.467176, Alt.=88.616272m. Speed=11.736000m/h.</desc>
<speed>3.260000</speed>
</trkpt>
<trkpt lat="55.983959" lon="26.467127">
<ele>88.557678</ele>
<time>2010-06-20T09:36:45Z</time>
<desc>lat.=55.983959, lon.=26.467127, Alt.=88.557678m. Speed=11.196000m/h.</desc>
<speed>3.110000</speed>
</trkpt>
<trkpt lat="55.983959" lon="26.467077">
<ele>88.499084</ele>
<time>2010-06-20T09:36:46Z</time>
<desc>lat.=55.983959, lon.=26.467077, Alt.=88.499084m. Speed=10.548000m/h.</desc>
<speed>2.930000</speed>
</trkpt>
<trkpt lat="55.983959" lon="26.467030">
<ele>88.489319</ele>
<time>2010-06-20T09:36:47Z</time>
<desc>lat.=55.983959, lon.=26.467030, Alt.=88.489319m. Speed=10.512000m/h.</desc>
<speed>2.920000</speed>
</trkpt>
<trkpt lat="55.983959" lon="26.466986">
<ele>88.549866</ele>
<time>2010-06-20T09:36:48Z</time>
<desc>lat.=55.983959, lon.=26.466986, Alt.=88.549866m. Speed=10.872000m/h.</desc>
<speed>3.020000</speed>
</trkpt>
<trkpt lat="55.983959" lon="26.466940">
<ele>88.864319</ele>
<time>2010-06-20T09:36:49Z</time>
<desc>lat.=55.983959, lon.=26.466940, Alt.=88.864319m. Speed=11.484000m/h.</desc>
<speed>3.190000</speed>
</trkpt>
<trkpt lat="55.983963" lon="26.466894">
<ele>88.911194</ele>
<time>2010-06-20T09:36:50Z</time>
<desc>lat.=55.983963, lon.=26.466894, Alt.=88.911194m. Speed=10.656000m/h.</desc>
<speed>2.960000</speed>
</trkpt>
<trkpt lat="55.983963" lon="26.466850">
<ele>89.241272</ele>
<time>2010-06-20T09:36:51Z</time>
<desc>lat.=55.983963, lon.=26.466850, Alt.=89.241272m. Speed=10.620000m/h.</desc>
<speed>2.950000</speed>
</trkpt>
<trkpt lat="55.983967" lon="26.466799">
<ele>89.489319</ele>
<time>2010-06-20T09:36:52Z</time>
<desc>lat.=55.983967, lon.=26.466799, Alt.=89.489319m. Speed=11.052000m/h.</desc>
<speed>3.070000</speed>
</trkpt>
<trkpt lat="55.983971" lon="26.466743">
<ele>89.514709</ele>
<time>2010-06-20T09:36:53Z</time>
<desc>lat.=55.983971, lon.=26.466743, Alt.=89.514709m. Speed=11.844000m/h.</desc>
<speed>3.290000</speed>
</trkpt>
<trkpt lat="55.983967" lon="26.466686">
<ele>89.506897</ele>
<time>2010-06-20T09:36:54Z</time>
<desc>lat.=55.983967, lon.=26.466686, Alt.=89.506897m. Speed=11.916000m/h.</desc>
<speed>3.310000</speed>
</trkpt>
<trkpt lat="55.983963" lon="26.466627">
<ele>89.551819</ele>
<time>2010-06-20T09:36:55Z</time>
<desc>lat.=55.983963, lon.=26.466627, Alt.=89.551819m. Speed=11.520000m/h.</desc>
<speed>3.200000</speed>
</trkpt>
<trkpt lat="55.983967" lon="26.466576">
<ele>89.721741</ele>
<time>2010-06-20T09:36:56Z</time>
<desc>lat.=55.983967, lon.=26.466576, Alt.=89.721741m. Speed=10.908000m/h.</desc>
<speed>3.030000</speed>
</trkpt>
<trkpt lat="55.983967" lon="26.466526">
<ele>89.985413</ele>
<time>2010-06-20T09:36:57Z</time>
<desc>lat.=55.983967, lon.=26.466526, Alt.=89.985413m. Speed=11.160000m/h.</desc>
<speed>3.100000</speed>
</trkpt>
<trkpt lat="55.983967" lon="26.466473">
<ele>89.993225</ele>
<time>2010-06-20T09:36:58Z</time>
<desc>lat.=55.983967, lon.=26.466473, Alt.=89.993225m. Speed=11.772000m/h.</desc>
<speed>3.270000</speed>
</trkpt>
<trkpt lat="55.983967" lon="26.466419">
<ele>89.819397</ele>
<time>2010-06-20T09:36:59Z</time>
<desc>lat.=55.983967, lon.=26.466419, Alt.=89.819397m. Speed=11.664000m/h.</desc>
<speed>3.240000</speed>
</trkpt>
<trkpt lat="55.983971" lon="26.466360">
<ele>88.858459</ele>
<time>2010-06-20T09:37:00Z</time>
<desc>lat.=55.983971, lon.=26.466360, Alt.=88.858459m. Speed=11.484000m/h.</desc>
<speed>3.190000</speed>
</trkpt>
<trkpt lat="55.983971" lon="26.466312">
<ele>88.961975</ele>
<time>2010-06-20T09:37:01Z</time>
<desc>lat.=55.983971, lon.=26.466312, Alt.=88.961975m. Speed=10.872000m/h.</desc>
<speed>3.020000</speed>
</trkpt>
<trkpt lat="55.983974" lon="26.466261">
<ele>88.592834</ele>
<time>2010-06-20T09:37:02Z</time>
<desc>lat.=55.983974, lon.=26.466261, Alt.=88.592834m. Speed=9.648000m/h.</desc>
<speed>2.680000</speed>
</trkpt>
<trkpt lat="55.983978" lon="26.466217">
<ele>88.561584</ele>
<time>2010-06-20T09:37:03Z</time>
<desc>lat.=55.983978, lon.=26.466217, Alt.=88.561584m. Speed=9.000000m/h.</desc>
<speed>2.500000</speed>
</trkpt>
<trkpt lat="55.983982" lon="26.466169">
<ele>88.210022</ele>
<time>2010-06-20T09:37:04Z</time>
<desc>lat.=55.983982, lon.=26.466169, Alt.=88.210022m. Speed=9.720000m/h.</desc>
<speed>2.700000</speed>
</trkpt>
<trkpt lat="55.983986" lon="26.466120">
<ele>88.194397</ele>
<time>2010-06-20T09:37:05Z</time>
<desc>lat.=55.983986, lon.=26.466120, Alt.=88.194397m. Speed=9.324000m/h.</desc>
<speed>2.590000</speed>
</trkpt>
<trkpt lat="55.983994" lon="26.466080">
<ele>87.879944</ele>
<time>2010-06-20T09:37:06Z</time>
<desc>lat.=55.983994, lon.=26.466080, Alt.=87.879944m. Speed=9.540000m/h.</desc>
<speed>2.650000</speed>
</trkpt>
<trkpt lat="55.983990" lon="26.466032">
<ele>87.631897</ele>
<time>2010-06-20T09:37:07Z</time>
<desc>lat.=55.983990, lon.=26.466032, Alt.=87.631897m. Speed=10.836000m/h.</desc>
<speed>3.010000</speed>
</trkpt>
<trkpt lat="55.983990" lon="26.465977">
<ele>87.645569</ele>
<time>2010-06-20T09:37:08Z</time>
<desc>lat.=55.983990, lon.=26.465977, Alt.=87.645569m. Speed=12.132000m/h.</desc>
<speed>3.370000</speed>
</trkpt>
<trkpt lat="55.983994" lon="26.465921">
<ele>87.799866</ele>
<time>2010-06-20T09:37:09Z</time>
<desc>lat.=55.983994, lon.=26.465921, Alt.=87.799866m. Speed=13.032000m/h.</desc>
<speed>3.620000</speed>
</trkpt>
<trkpt lat="55.983994" lon="26.465858">
<ele>88.083069</ele>
<time>2010-06-20T09:37:10Z</time>
<desc>lat.=55.983994, lon.=26.465858, Alt.=88.083069m. Speed=13.248000m/h.</desc>
<speed>3.680000</speed>
</trkpt>
<trkpt lat="55.983994" lon="26.465797">
<ele>88.096741</ele>
<time>2010-06-20T09:37:11Z</time>
<desc>lat.=55.983994, lon.=26.465797, Alt.=88.096741m. Speed=14.076000m/h.</desc>
<speed>3.910000</speed>
</trkpt>
<trkpt lat="55.983994" lon="26.465733">
<ele>88.264709</ele>
<time>2010-06-20T09:37:12Z</time>
<desc>lat.=55.983994, lon.=26.465733, Alt.=88.264709m. Speed=14.760000m/h.</desc>
<speed>4.100000</speed>
</trkpt>
<trkpt lat="55.983997" lon="26.465664">
<ele>88.536194</ele>
<time>2010-06-20T09:37:13Z</time>
<desc>lat.=55.983997, lon.=26.465664, Alt.=88.536194m. Speed=15.912000m/h.</desc>
<speed>4.420000</speed>
</trkpt>
<trkpt lat="55.983997" lon="26.465597">
<ele>88.516663</ele>
<time>2010-06-20T09:37:14Z</time>
<desc>lat.=55.983997, lon.=26.465597, Alt.=88.516663m. Speed=15.732000m/h.</desc>
<speed>4.370000</speed>
</trkpt>
<trkpt lat="55.983997" lon="26.465525">
<ele>88.536194</ele>
<time>2010-06-20T09:37:15Z</time>
<desc>lat.=55.983997, lon.=26.465525, Alt.=88.536194m. Speed=14.976000m/h.</desc>
<speed>4.160000</speed>
</trkpt>
<trkpt lat="55.983997" lon="26.465460">
<ele>88.856506</ele>
<time>2010-06-20T09:37:16Z</time>
<desc>lat.=55.983997, lon.=26.465460, Alt.=88.856506m. Speed=14.544000m/h.</desc>
<speed>4.040000</speed>
</trkpt>
<trkpt lat="55.983997" lon="26.465397">
<ele>89.094788</ele>
<time>2010-06-20T09:37:17Z</time>
<desc>lat.=55.983997, lon.=26.465397, Alt.=89.094788m. Speed=14.724000m/h.</desc>
<speed>4.090000</speed>
</trkpt>
<trkpt lat="55.984001" lon="26.465328">
<ele>89.198303</ele>
<time>2010-06-20T09:37:18Z</time>
<desc>lat.=55.984001, lon.=26.465328, Alt.=89.198303m. Speed=15.768000m/h.</desc>
<speed>4.380000</speed>
</trkpt>
<trkpt lat="55.984005" lon="26.465260">
<ele>89.362366</ele>
<time>2010-06-20T09:37:19Z</time>
<desc>lat.=55.984005, lon.=26.465260, Alt.=89.362366m. Speed=15.696000m/h.</desc>
<speed>4.360000</speed>
</trkpt>
<trkpt lat="55.984009" lon="26.465189">
<ele>89.483459</ele>
<time>2010-06-20T09:37:20Z</time>
<desc>lat.=55.984009, lon.=26.465189, Alt.=89.483459m. Speed=15.624000m/h.</desc>
<speed>4.340000</speed>
</trkpt>
<trkpt lat="55.984009" lon="26.465118">
<ele>89.368225</ele>
<time>2010-06-20T09:37:21Z</time>
<desc>lat.=55.984009, lon.=26.465118, Alt.=89.368225m. Speed=16.488001m/h.</desc>
<speed>4.580000</speed>
</trkpt>
<trkpt lat="55.984013" lon="26.465046">
<ele>89.508850</ele>
<time>2010-06-20T09:37:22Z</time>
<desc>lat.=55.984013, lon.=26.465046, Alt.=89.508850m. Speed=16.379999m/h.</desc>
<speed>4.550000</speed>
</trkpt>
<trkpt lat="55.984016" lon="26.464970">
<ele>89.602600</ele>
<time>2010-06-20T09:37:23Z</time>
<desc>lat.=55.984016, lon.=26.464970, Alt.=89.602600m. Speed=17.459999m/h.</desc>
<speed>4.850000</speed>
</trkpt>
<trkpt lat="55.984020" lon="26.464891">
<ele>89.659241</ele>
<time>2010-06-20T09:37:24Z</time>
<desc>lat.=55.984020, lon.=26.464891, Alt.=89.659241m. Speed=18.288000m/h.</desc>
<speed>5.080000</speed>
</trkpt>
<trkpt lat="55.984020" lon="26.464809">
<ele>89.784241</ele>
<time>2010-06-20T09:37:25Z</time>
<desc>lat.=55.984020, lon.=26.464809, Alt.=89.784241m. Speed=18.252001m/h.</desc>
<speed>5.070000</speed>
</trkpt>
<trkpt lat="55.984024" lon="26.464727">
<ele>89.919006</ele>
<time>2010-06-20T09:37:26Z</time>
<desc>lat.=55.984024, lon.=26.464727, Alt.=89.919006m. Speed=18.396000m/h.</desc>
<speed>5.110000</speed>
</trkpt>
<trkpt lat="55.984020" lon="26.464649">
<ele>90.118225</ele>
<time>2010-06-20T09:37:27Z</time>
<desc>lat.=55.984020, lon.=26.464649, Alt.=90.118225m. Speed=16.920000m/h.</desc>
<speed>4.700000</speed>
</trkpt>
<trkpt lat="55.984020" lon="26.464577">
<ele>90.211975</ele>
<time>2010-06-20T09:37:28Z</time>
<desc>lat.=55.984020, lon.=26.464577, Alt.=90.211975m. Speed=15.984000m/h.</desc>
<speed>4.440000</speed>
</trkpt>
<trkpt lat="55.984024" lon="26.464506">
<ele>90.547913</ele>
<time>2010-06-20T09:37:29Z</time>
<desc>lat.=55.984024, lon.=26.464506, Alt.=90.547913m. Speed=15.912000m/h.</desc>
<speed>4.420000</speed>
</trkpt>
<trkpt lat="55.984028" lon="26.464434">
<ele>90.614319</ele>
<time>2010-06-20T09:37:30Z</time>
<desc>lat.=55.984028, lon.=26.464434, Alt.=90.614319m. Speed=16.344000m/h.</desc>
<speed>4.540000</speed>
</trkpt>
<trkpt lat="55.984032" lon="26.464357">
<ele>90.764709</ele>
<time>2010-06-20T09:37:31Z</time>
<desc>lat.=55.984032, lon.=26.464357, Alt.=90.764709m. Speed=17.459999m/h.</desc>
<speed>4.850000</speed>
</trkpt>
<trkpt lat="55.984032" lon="26.464279">
<ele>90.934631</ele>
<time>2010-06-20T09:37:32Z</time>
<desc>lat.=55.984032, lon.=26.464279, Alt.=90.934631m. Speed=17.424000m/h.</desc>
<speed>4.840000</speed>
</trkpt>
<trkpt lat="55.984032" lon="26.464203">
<ele>91.042053</ele>
<time>2010-06-20T09:37:33Z</time>
<desc>lat.=55.984032, lon.=26.464203, Alt.=91.042053m. Speed=16.667999m/h.</desc>
<speed>4.630000</speed>
</trkpt>
<trkpt lat="55.984035" lon="26.464130">
<ele>91.196350</ele>
<time>2010-06-20T09:37:34Z</time>
<desc>lat.=55.984035, lon.=26.464130, Alt.=91.196350m. Speed=15.732000m/h.</desc>
<speed>4.370000</speed>
</trkpt>
<trkpt lat="55.984032" lon="26.464064">
<ele>91.594788</ele>
<time>2010-06-20T09:37:35Z</time>
<desc>lat.=55.984032, lon.=26.464064, Alt.=91.594788m. Speed=14.328000m/h.</desc>
<speed>3.980000</speed>
</trkpt>
<trkpt lat="55.984039" lon="26.464001">
<ele>91.706116</ele>
<time>2010-06-20T09:37:36Z</time>
<desc>lat.=55.984039, lon.=26.464001, Alt.=91.706116m. Speed=13.860000m/h.</desc>
<speed>3.850000</speed>
</trkpt>
<trkpt lat="55.984039" lon="26.463938">
<ele>91.995178</ele>
<time>2010-06-20T09:37:37Z</time>
<desc>lat.=55.984039, lon.=26.463938, Alt.=91.995178m. Speed=14.796000m/h.</desc>
<speed>4.110000</speed>
</trkpt>
<trkpt lat="55.984047" lon="26.463869">
<ele>91.983459</ele>
<time>2010-06-20T09:37:38Z</time>
<desc>lat.=55.984047, lon.=26.463869, Alt.=91.983459m. Speed=15.192000m/h.</desc>
<speed>4.220000</speed>
</trkpt>
<trkpt lat="55.984051" lon="26.463800">
<ele>91.920959</ele>
<time>2010-06-20T09:37:39Z</time>
<desc>lat.=55.984051, lon.=26.463800, Alt.=91.920959m. Speed=15.768000m/h.</desc>
<speed>4.380000</speed>
</trkpt>
<trkpt lat="55.984051" lon="26.463728">
<ele>91.965881</ele>
<time>2010-06-20T09:37:40Z</time>
<desc>lat.=55.984051, lon.=26.463728, Alt.=91.965881m. Speed=16.775999m/h.</desc>
<speed>4.660000</speed>
</trkpt>
<trkpt lat="55.984055" lon="26.463654">
<ele>92.108459</ele>
<time>2010-06-20T09:37:41Z</time>
<desc>lat.=55.984055, lon.=26.463654, Alt.=92.108459m. Speed=16.775999m/h.</desc>
<speed>4.660000</speed>
</trkpt>
<trkpt lat="55.984058" lon="26.463575">
<ele>92.233459</ele>
<time>2010-06-20T09:37:42Z</time>
<desc>lat.=55.984058, lon.=26.463575, Alt.=92.233459m. Speed=17.604000m/h.</desc>
<speed>4.890000</speed>
</trkpt>
<trkpt lat="55.984058" lon="26.463499">
<ele>92.309631</ele>
<time>2010-06-20T09:37:43Z</time>
<desc>lat.=55.984058, lon.=26.463499, Alt.=92.309631m. Speed=16.740000m/h.</desc>
<speed>4.650000</speed>
</trkpt>
<trkpt lat="55.984058" lon="26.463427">
<ele>92.362366</ele>
<time>2010-06-20T09:37:44Z</time>
<desc>lat.=55.984058, lon.=26.463427, Alt.=92.362366m. Speed=15.444000m/h.</desc>
<speed>4.290000</speed>
</trkpt>
<trkpt lat="55.984055" lon="26.463360">
<ele>93.149475</ele>
<time>2010-06-20T09:37:45Z</time>
<desc>lat.=55.984055, lon.=26.463360, Alt.=93.149475m. Speed=14.760000m/h.</desc>
<speed>4.100000</speed>
</trkpt>
<trkpt lat="55.984058" lon="26.463293">
<ele>93.303772</ele>
<time>2010-06-20T09:37:46Z</time>
<desc>lat.=55.984058, lon.=26.463293, Alt.=93.303772m. Speed=15.516000m/h.</desc>
<speed>4.310000</speed>
</trkpt>
<trkpt lat="55.984058" lon="26.463226">
<ele>93.534241</ele>
<time>2010-06-20T09:37:47Z</time>
<desc>lat.=55.984058, lon.=26.463226, Alt.=93.534241m. Speed=15.840000m/h.</desc>
<speed>4.400000</speed>
</trkpt>
<trkpt lat="55.984062" lon="26.463154">
<ele>93.803772</ele>
<time>2010-06-20T09:37:48Z</time>
<desc>lat.=55.984062, lon.=26.463154, Alt.=93.803772m. Speed=15.912000m/h.</desc>
<speed>4.420000</speed>
</trkpt>
<trkpt lat="55.984062" lon="26.463083">
<ele>93.995178</ele>
<time>2010-06-20T09:37:49Z</time>
<desc>lat.=55.984062, lon.=26.463083, Alt.=93.995178m. Speed=16.091999m/h.</desc>
<speed>4.470000</speed>
</trkpt>
<trkpt lat="55.984062" lon="26.463013">
<ele>94.147522</ele>
<time>2010-06-20T09:37:50Z</time>
<desc>lat.=55.984062, lon.=26.463013, Alt.=94.147522m. Speed=16.200001m/h.</desc>
<speed>4.500000</speed>
</trkpt>
<trkpt lat="55.984066" lon="26.462940">
<ele>94.073303</ele>
<time>2010-06-20T09:37:51Z</time>
<desc>lat.=55.984066, lon.=26.462940, Alt.=94.073303m. Speed=16.704000m/h.</desc>
<speed>4.640000</speed>
</trkpt>
<trkpt lat="55.984066" lon="26.462866">
<ele>94.268616</ele>
<time>2010-06-20T09:37:52Z</time>
<desc>lat.=55.984066, lon.=26.462866, Alt.=94.268616m. Speed=16.884001m/h.</desc>
<speed>4.690000</speed>
</trkpt>
<trkpt lat="55.984066" lon="26.462793">
<ele>94.721741</ele>
<time>2010-06-20T09:37:53Z</time>
<desc>lat.=55.984066, lon.=26.462793, Alt.=94.721741m. Speed=15.804000m/h.</desc>
<speed>4.390000</speed>
</trkpt>
<trkpt lat="55.984066" lon="26.462725">
<ele>94.805725</ele>
<time>2010-06-20T09:37:54Z</time>
<desc>lat.=55.984066, lon.=26.462725, Alt.=94.805725m. Speed=16.056000m/h.</desc>
<speed>4.460000</speed>
</trkpt>
<trkpt lat="55.984070" lon="26.462656">
<ele>94.704163</ele>
<time>2010-06-20T09:37:55Z</time>
<desc>lat.=55.984070, lon.=26.462656, Alt.=94.704163m. Speed=15.732000m/h.</desc>
<speed>4.370000</speed>
</trkpt>
<trkpt lat="55.984070" lon="26.462591">
<ele>95.135803</ele>
<time>2010-06-20T09:37:56Z</time>
<desc>lat.=55.984070, lon.=26.462591, Alt.=95.135803m. Speed=14.076000m/h.</desc>
<speed>3.910000</speed>
</trkpt>
<trkpt lat="55.984070" lon="26.462532">
<ele>95.626038</ele>
<time>2010-06-20T09:37:57Z</time>
<desc>lat.=55.984070, lon.=26.462532, Alt.=95.626038m. Speed=14.652000m/h.</desc>
<speed>4.070000</speed>
</trkpt>
<trkpt lat="55.984070" lon="26.462465">
<ele>95.768616</ele>
<time>2010-06-20T09:37:58Z</time>
<desc>lat.=55.984070, lon.=26.462465, Alt.=95.768616m. Speed=15.984000m/h.</desc>
<speed>4.440000</speed>
</trkpt>
<trkpt lat="55.984074" lon="26.462395">
<ele>95.932678</ele>
<time>2010-06-20T09:37:59Z</time>
<desc>lat.=55.984074, lon.=26.462395, Alt.=95.932678m. Speed=16.596001m/h.</desc>
<speed>4.610000</speed>
</trkpt>
<trkpt lat="55.984074" lon="26.462320">
<ele>96.092834</ele>
<time>2010-06-20T09:38:00Z</time>
<desc>lat.=55.984074, lon.=26.462320, Alt.=96.092834m. Speed=17.172001m/h.</desc>
<speed>4.770000</speed>
</trkpt>
<trkpt lat="55.984077" lon="26.462246">
<ele>96.038147</ele>
<time>2010-06-20T09:38:01Z</time>
<desc>lat.=55.984077, lon.=26.462246, Alt.=96.038147m. Speed=17.496000m/h.</desc>
<speed>4.860000</speed>
</trkpt>
<trkpt lat="55.984081" lon="26.462166">
<ele>95.946350</ele>
<time>2010-06-20T09:38:02Z</time>
<desc>lat.=55.984081, lon.=26.462166, Alt.=95.946350m. Speed=16.920000m/h.</desc>
<speed>4.700000</speed>
</trkpt>
<trkpt lat="55.984081" lon="26.462093">
<ele>96.350647</ele>
<time>2010-06-20T09:38:03Z</time>
<desc>lat.=55.984081, lon.=26.462093, Alt.=96.350647m. Speed=16.704000m/h.</desc>
<speed>4.640000</speed>
</trkpt>
<trkpt lat="55.984085" lon="26.462023">
<ele>96.258850</ele>
<time>2010-06-20T09:38:04Z</time>
<desc>lat.=55.984085, lon.=26.462023, Alt.=96.258850m. Speed=15.984000m/h.</desc>
<speed>4.440000</speed>
</trkpt>
<trkpt lat="55.984089" lon="26.461956">
<ele>95.993225</ele>
<time>2010-06-20T09:38:05Z</time>
<desc>lat.=55.984089, lon.=26.461956, Alt.=95.993225m. Speed=14.040000m/h.</desc>
<speed>3.900000</speed>
</trkpt>
<trkpt lat="55.984093" lon="26.461897">
<ele>95.995178</ele>
<time>2010-06-20T09:38:06Z</time>
<desc>lat.=55.984093, lon.=26.461897, Alt.=95.995178m. Speed=14.220000m/h.</desc>
<speed>3.950000</speed>
</trkpt>
<trkpt lat="55.984097" lon="26.461838">
<ele>95.948303</ele>
<time>2010-06-20T09:38:07Z</time>
<desc>lat.=55.984097, lon.=26.461838, Alt.=95.948303m. Speed=13.500000m/h.</desc>
<speed>3.750000</speed>
</trkpt>
<trkpt lat="55.984093" lon="26.461790">
<ele>96.172913</ele>
<time>2010-06-20T09:38:08Z</time>
<desc>lat.=55.984093, lon.=26.461790, Alt.=96.172913m. Speed=11.232000m/h.</desc>
<speed>3.120000</speed>
</trkpt>
<trkpt lat="55.984089" lon="26.461742">
<ele>97.129944</ele>
<time>2010-06-20T09:38:09Z</time>
<desc>lat.=55.984089, lon.=26.461742, Alt.=97.129944m. Speed=12.852000m/h.</desc>
<speed>3.570000</speed>
</trkpt>
<trkpt lat="55.984085" lon="26.461681">
<ele>97.110413</ele>
<time>2010-06-20T09:38:10Z</time>
<desc>lat.=55.984085, lon.=26.461681, Alt.=97.110413m. Speed=14.076000m/h.</desc>
<speed>3.910000</speed>
</trkpt>
<trkpt lat="55.984077" lon="26.461624">
<ele>97.325256</ele>
<time>2010-06-20T09:38:11Z</time>
<desc>lat.=55.984077, lon.=26.461624, Alt.=97.325256m. Speed=11.736000m/h.</desc>
<speed>3.260000</speed>
</trkpt>
<trkpt lat="55.984074" lon="26.461567">
<ele>97.467834</ele>
<time>2010-06-20T09:38:12Z</time>
<desc>lat.=55.984074, lon.=26.461567, Alt.=97.467834m. Speed=11.304000m/h.</desc>
<speed>3.140000</speed>
</trkpt>
<trkpt lat="55.984074" lon="26.461502">
<ele>96.983459</ele>
<time>2010-06-20T09:38:13Z</time>
<desc>lat.=55.984074, lon.=26.461502, Alt.=96.983459m. Speed=13.248000m/h.</desc>
<speed>3.680000</speed>
</trkpt>
<trkpt lat="55.984074" lon="26.461422">
<ele>96.200256</ele>
<time>2010-06-20T09:38:14Z</time>
<desc>lat.=55.984074, lon.=26.461422, Alt.=96.200256m. Speed=13.104000m/h.</desc>
<speed>3.640000</speed>
</trkpt>
<trkpt lat="55.984070" lon="26.461357">
<ele>96.012756</ele>
<time>2010-06-20T09:38:15Z</time>
<desc>lat.=55.984070, lon.=26.461357, Alt.=96.012756m. Speed=13.896000m/h.</desc>
<speed>3.860000</speed>
</trkpt>
<trkpt lat="55.984066" lon="26.461292">
<ele>96.190491</ele>
<time>2010-06-20T09:38:16Z</time>
<desc>lat.=55.984066, lon.=26.461292, Alt.=96.190491m. Speed=13.608000m/h.</desc>
<speed>3.780000</speed>
</trkpt>
<trkpt lat="55.984070" lon="26.461212">
<ele>94.635803</ele>
<time>2010-06-20T09:38:17Z</time>
<desc>lat.=55.984070, lon.=26.461212, Alt.=94.635803m. Speed=13.176000m/h.</desc>
<speed>3.660000</speed>
</trkpt>
<trkpt lat="55.984066" lon="26.461153">
<ele>94.440491</ele>
<time>2010-06-20T09:38:18Z</time>
<desc>lat.=55.984066, lon.=26.461153, Alt.=94.440491m. Speed=13.032000m/h.</desc>
<speed>3.620000</speed>
</trkpt>
<trkpt lat="55.984062" lon="26.461098">
<ele>94.795959</ele>
<time>2010-06-20T09:38:19Z</time>
<desc>lat.=55.984062, lon.=26.461098, Alt.=94.795959m. Speed=12.528000m/h.</desc>
<speed>3.480000</speed>
</trkpt>
<trkpt lat="55.984062" lon="26.461042">
<ele>94.627991</ele>
<time>2010-06-20T09:38:20Z</time>
<desc>lat.=55.984062, lon.=26.461042, Alt.=94.627991m. Speed=11.844000m/h.</desc>
<speed>3.290000</speed>
</trkpt>
<trkpt lat="55.984062" lon="26.460991">
<ele>94.059631</ele>
<time>2010-06-20T09:38:21Z</time>
<desc>lat.=55.984062, lon.=26.460991, Alt.=94.059631m. Speed=12.276000m/h.</desc>
<speed>3.410000</speed>
</trkpt>
<trkpt lat="55.984066" lon="26.460928">
<ele>93.243225</ele>
<time>2010-06-20T09:38:22Z</time>
<desc>lat.=55.984066, lon.=26.460928, Alt.=93.243225m. Speed=11.952000m/h.</desc>
<speed>3.320000</speed>
</trkpt>
<trkpt lat="55.984066" lon="26.460871">
<ele>93.067444</ele>
<time>2010-06-20T09:38:23Z</time>
<desc>lat.=55.984066, lon.=26.460871, Alt.=93.067444m. Speed=11.772000m/h.</desc>
<speed>3.270000</speed>
</trkpt>
<trkpt lat="55.984070" lon="26.460804">
<ele>92.094788</ele>
<time>2010-06-20T09:38:24Z</time>
<desc>lat.=55.984070, lon.=26.460804, Alt.=92.094788m. Speed=12.888000m/h.</desc>
<speed>3.580000</speed>
</trkpt>
<trkpt lat="55.984070" lon="26.460737">
<ele>91.598694</ele>
<time>2010-06-20T09:38:25Z</time>
<desc>lat.=55.984070, lon.=26.460737, Alt.=91.598694m. Speed=12.528000m/h.</desc>
<speed>3.480000</speed>
</trkpt>
<trkpt lat="55.984074" lon="26.460670">
<ele>90.852600</ele>
<time>2010-06-20T09:38:26Z</time>
<desc>lat.=55.984074, lon.=26.460670, Alt.=90.852600m. Speed=12.564000m/h.</desc>
<speed>3.490000</speed>
</trkpt>
<trkpt lat="55.984074" lon="26.460608">
<ele>90.504944</ele>
<time>2010-06-20T09:38:27Z</time>
<desc>lat.=55.984074, lon.=26.460608, Alt.=90.504944m. Speed=13.248000m/h.</desc>
<speed>3.680000</speed>
</trkpt>
<trkpt lat="55.984074" lon="26.460560">
<ele>91.971741</ele>
<time>2010-06-20T09:38:28Z</time>
<desc>lat.=55.984074, lon.=26.460560, Alt.=91.971741m. Speed=13.536000m/h.</desc>
<speed>3.760000</speed>
</trkpt>
<trkpt lat="55.984074" lon="26.460505">
<ele>92.803772</ele>
<time>2010-06-20T09:38:29Z</time>
<desc>lat.=55.984074, lon.=26.460505, Alt.=92.803772m. Speed=12.924000m/h.</desc>
<speed>3.590000</speed>
</trkpt>
<trkpt lat="55.984077" lon="26.460447">
<ele>93.188538</ele>
<time>2010-06-20T09:38:30Z</time>
<desc>lat.=55.984077, lon.=26.460447, Alt.=93.188538m. Speed=12.420000m/h.</desc>
<speed>3.450000</speed>
</trkpt>
<trkpt lat="55.984081" lon="26.460398">
<ele>93.530334</ele>
<time>2010-06-20T09:38:31Z</time>
<desc>lat.=55.984081, lon.=26.460398, Alt.=93.530334m. Speed=11.916000m/h.</desc>
<speed>3.310000</speed>
</trkpt>
<trkpt lat="55.984081" lon="26.460350">
<ele>93.922913</ele>
<time>2010-06-20T09:38:32Z</time>
<desc>lat.=55.984081, lon.=26.460350, Alt.=93.922913m. Speed=11.268000m/h.</desc>
<speed>3.130000</speed>
</trkpt>
<trkpt lat="55.984077" lon="26.460302">
<ele>94.126038</ele>
<time>2010-06-20T09:38:33Z</time>
<desc>lat.=55.984077, lon.=26.460302, Alt.=94.126038m. Speed=10.980000m/h.</desc>
<speed>3.050000</speed>
</trkpt>
<trkpt lat="55.984077" lon="26.460245">
<ele>92.475647</ele>
<time>2010-06-20T09:38:34Z</time>
<desc>lat.=55.984077, lon.=26.460245, Alt.=92.475647m. Speed=11.664000m/h.</desc>
<speed>3.240000</speed>
</trkpt>
<trkpt lat="55.984077" lon="26.460196">
<ele>92.544006</ele>
<time>2010-06-20T09:38:35Z</time>
<desc>lat.=55.984077, lon.=26.460196, Alt.=92.544006m. Speed=12.204000m/h.</desc>
<speed>3.390000</speed>
</trkpt>
<trkpt lat="55.984081" lon="26.460138">
<ele>92.239319</ele>
<time>2010-06-20T09:38:36Z</time>
<desc>lat.=55.984081, lon.=26.460138, Alt.=92.239319m. Speed=11.772000m/h.</desc>
<speed>3.270000</speed>
</trkpt>
<trkpt lat="55.984085" lon="26.460085">
<ele>92.198303</ele>
<time>2010-06-20T09:38:37Z</time>
<desc>lat.=55.984085, lon.=26.460085, Alt.=92.198303m. Speed=12.168000m/h.</desc>
<speed>3.380000</speed>
</trkpt>
<trkpt lat="55.984085" lon="26.460032">
<ele>91.846741</ele>
<time>2010-06-20T09:38:38Z</time>
<desc>lat.=55.984085, lon.=26.460032, Alt.=91.846741m. Speed=11.628000m/h.</desc>
<speed>3.230000</speed>
</trkpt>
<trkpt lat="55.984085" lon="26.459980">
<ele>91.516663</ele>
<time>2010-06-20T09:38:39Z</time>
<desc>lat.=55.984085, lon.=26.459980, Alt.=91.516663m. Speed=11.592000m/h.</desc>
<speed>3.220000</speed>
</trkpt>
<trkpt lat="55.984085" lon="26.459923">
<ele>91.950256</ele>
<time>2010-06-20T09:38:40Z</time>
<desc>lat.=55.984085, lon.=26.459923, Alt.=91.950256m. Speed=12.240000m/h.</desc>
<speed>3.400000</speed>
</trkpt>
<trkpt lat="55.984085" lon="26.459869">
<ele>91.977600</ele>
<time>2010-06-20T09:38:41Z</time>
<desc>lat.=55.984085, lon.=26.459869, Alt.=91.977600m. Speed=12.204000m/h.</desc>
<speed>3.390000</speed>
</trkpt>
<trkpt lat="55.984085" lon="26.459826">
<ele>92.776428</ele>
<time>2010-06-20T09:38:42Z</time>
<desc>lat.=55.984085, lon.=26.459826, Alt.=92.776428m. Speed=12.060000m/h.</desc>
<speed>3.350000</speed>
</trkpt>
<trkpt lat="55.984089" lon="26.459784">
<ele>93.366272</ele>
<time>2010-06-20T09:38:43Z</time>
<desc>lat.=55.984089, lon.=26.459784, Alt.=93.366272m. Speed=11.556000m/h.</desc>
<speed>3.210000</speed>
</trkpt>
<trkpt lat="55.984093" lon="26.459736">
<ele>94.210022</ele>
<time>2010-06-20T09:38:44Z</time>
<desc>lat.=55.984093, lon.=26.459736, Alt.=94.210022m. Speed=11.412000m/h.</desc>
<speed>3.170000</speed>
</trkpt>
<trkpt lat="55.984093" lon="26.459686">
<ele>94.268616</ele>
<time>2010-06-20T09:38:45Z</time>
<desc>lat.=55.984093, lon.=26.459686, Alt.=94.268616m. Speed=10.512000m/h.</desc>
<speed>2.920000</speed>
</trkpt>
<trkpt lat="55.984093" lon="26.459641">
<ele>94.292053</ele>
<time>2010-06-20T09:38:46Z</time>
<desc>lat.=55.984093, lon.=26.459641, Alt.=94.292053m. Speed=10.224000m/h.</desc>
<speed>2.840000</speed>
</trkpt>
<trkpt lat="55.984097" lon="26.459595">
<ele>94.387756</ele>
<time>2010-06-20T09:38:47Z</time>
<desc>lat.=55.984097, lon.=26.459595, Alt.=94.387756m. Speed=9.504000m/h.</desc>
<speed>2.640000</speed>
</trkpt>
<trkpt lat="55.984104" lon="26.459557">
<ele>94.719788</ele>
<time>2010-06-20T09:38:48Z</time>
<desc>lat.=55.984104, lon.=26.459557, Alt.=94.719788m. Speed=9.324000m/h.</desc>
<speed>2.590000</speed>
</trkpt>
<trkpt lat="55.984104" lon="26.459509">
<ele>94.733459</ele>
<time>2010-06-20T09:38:49Z</time>
<desc>lat.=55.984104, lon.=26.459509, Alt.=94.733459m. Speed=9.504000m/h.</desc>
<speed>2.640000</speed>
</trkpt>
<trkpt lat="55.984104" lon="26.459461">
<ele>94.475647</ele>
<time>2010-06-20T09:38:50Z</time>
<desc>lat.=55.984104, lon.=26.459461, Alt.=94.475647m. Speed=10.296000m/h.</desc>
<speed>2.860000</speed>
</trkpt>
<trkpt lat="55.984104" lon="26.459417">
<ele>94.420959</ele>
<time>2010-06-20T09:38:51Z</time>
<desc>lat.=55.984104, lon.=26.459417, Alt.=94.420959m. Speed=8.100000m/h.</desc>
<speed>2.250000</speed>
</trkpt>
<trkpt lat="55.984104" lon="26.459387">
<ele>94.286194</ele>
<time>2010-06-20T09:38:52Z</time>
<desc>lat.=55.984104, lon.=26.459387, Alt.=94.286194m. Speed=6.192000m/h.</desc>
<speed>1.720000</speed>
</trkpt>
<trkpt lat="55.984108" lon="26.459352">
<ele>94.618225</ele>
<time>2010-06-20T09:38:53Z</time>
<desc>lat.=55.984108, lon.=26.459352, Alt.=94.618225m. Speed=6.840000m/h.</desc>
<speed>1.900000</speed>
</trkpt>
<trkpt lat="55.984108" lon="26.459326">
<ele>94.788147</ele>
<time>2010-06-20T09:38:54Z</time>
<desc>lat.=55.984108, lon.=26.459326, Alt.=94.788147m. Speed=5.076000m/h.</desc>
<speed>1.410000</speed>
</trkpt>
<trkpt lat="55.984108" lon="26.459278">
<ele>94.424866</ele>
<time>2010-06-20T09:38:55Z</time>
<desc>lat.=55.984108, lon.=26.459278, Alt.=94.424866m. Speed=6.840000m/h.</desc>
<speed>1.900000</speed>
</trkpt>
<trkpt lat="55.984104" lon="26.459238">
<ele>94.848694</ele>
<time>2010-06-20T09:38:56Z</time>
<desc>lat.=55.984104, lon.=26.459238, Alt.=94.848694m. Speed=7.956000m/h.</desc>
<speed>2.210000</speed>
</trkpt>
<trkpt lat="55.984104" lon="26.459200">
<ele>94.958069</ele>
<time>2010-06-20T09:38:57Z</time>
<desc>lat.=55.984104, lon.=26.459200, Alt.=94.958069m. Speed=8.640000m/h.</desc>
<speed>2.400000</speed>
</trkpt>
<trkpt lat="55.984104" lon="26.459162">
<ele>94.866272</ele>
<time>2010-06-20T09:38:58Z</time>
<desc>lat.=55.984104, lon.=26.459162, Alt.=94.866272m. Speed=8.208000m/h.</desc>
<speed>2.280000</speed>
</trkpt>
<trkpt lat="55.984104" lon="26.459120">
<ele>94.698303</ele>
<time>2010-06-20T09:38:59Z</time>
<desc>lat.=55.984104, lon.=26.459120, Alt.=94.698303m. Speed=8.028000m/h.</desc>
<speed>2.230000</speed>
</trkpt>
<trkpt lat="55.984112" lon="26.459072">
<ele>94.713928</ele>
<time>2010-06-20T09:39:00Z</time>
<desc>lat.=55.984112, lon.=26.459072, Alt.=94.713928m. Speed=9.504000m/h.</desc>
<speed>2.640000</speed>
</trkpt>
<trkpt lat="55.984127" lon="26.459028">
<ele>94.553772</ele>
<time>2010-06-20T09:39:01Z</time>
<desc>lat.=55.984127, lon.=26.459028, Alt.=94.553772m. Speed=7.272000m/h.</desc>
<speed>2.020000</speed>
</trkpt>
<trkpt lat="55.984138" lon="26.458986">
<ele>94.192444</ele>
<time>2010-06-20T09:39:02Z</time>
<desc>lat.=55.984138, lon.=26.458986, Alt.=94.192444m. Speed=8.208000m/h.</desc>
<speed>2.280000</speed>
</trkpt>
<trkpt lat="55.984154" lon="26.458946">
<ele>93.294006</ele>
<time>2010-06-20T09:39:03Z</time>
<desc>lat.=55.984154, lon.=26.458946, Alt.=93.294006m. Speed=8.928000m/h.</desc>
<speed>2.480000</speed>
</trkpt>
<trkpt lat="55.984177" lon="26.458904">
<ele>92.917053</ele>
<time>2010-06-20T09:39:04Z</time>
<desc>lat.=55.984177, lon.=26.458904, Alt.=92.917053m. Speed=9.180000m/h.</desc>
<speed>2.550000</speed>
</trkpt>
<trkpt lat="55.984184" lon="26.458860">
<ele>93.524475</ele>
<time>2010-06-20T09:39:05Z</time>
<desc>lat.=55.984184, lon.=26.458860, Alt.=93.524475m. Speed=7.704000m/h.</desc>
<speed>2.140000</speed>
</trkpt>
<trkpt lat="55.984192" lon="26.458801">
<ele>93.299866</ele>
<time>2010-06-20T09:39:06Z</time>
<desc>lat.=55.984192, lon.=26.458801, Alt.=93.299866m. Speed=7.740000m/h.</desc>
<speed>2.150000</speed>
</trkpt>
<trkpt lat="55.984207" lon="26.458767">
<ele>93.356506</ele>
<time>2010-06-20T09:39:07Z</time>
<desc>lat.=55.984207, lon.=26.458767, Alt.=93.356506m. Speed=8.568000m/h.</desc>
<speed>2.380000</speed>
</trkpt>
<trkpt lat="55.984230" lon="26.458731">
<ele>92.530334</ele>
<time>2010-06-20T09:39:08Z</time>
<desc>lat.=55.984230, lon.=26.458731, Alt.=92.530334m. Speed=8.892000m/h.</desc>
<speed>2.470000</speed>
</trkpt>
<trkpt lat="55.984253" lon="26.458693">
<ele>91.655334</ele>
<time>2010-06-20T09:39:09Z</time>
<desc>lat.=55.984253, lon.=26.458693, Alt.=91.655334m. Speed=9.360000m/h.</desc>
<speed>2.600000</speed>
</trkpt>
<trkpt lat="55.984276" lon="26.458668">
<ele>90.930725</ele>
<time>2010-06-20T09:39:10Z</time>
<desc>lat.=55.984276, lon.=26.458668, Alt.=90.930725m. Speed=9.684000m/h.</desc>
<speed>2.690000</speed>
</trkpt>
<trkpt lat="55.984299" lon="26.458649">
<ele>90.217834</ele>
<time>2010-06-20T09:39:11Z</time>
<desc>lat.=55.984299, lon.=26.458649, Alt.=90.217834m. Speed=8.460000m/h.</desc>
<speed>2.350000</speed>
</trkpt>
<trkpt lat="55.984322" lon="26.458641">
<ele>89.471741</ele>
<time>2010-06-20T09:39:12Z</time>
<desc>lat.=55.984322, lon.=26.458641, Alt.=89.471741m. Speed=9.576000m/h.</desc>
<speed>2.660000</speed>
</trkpt>
<trkpt lat="55.984344" lon="26.458635">
<ele>88.922913</ele>
<time>2010-06-20T09:39:13Z</time>
<desc>lat.=55.984344, lon.=26.458635, Alt.=88.922913m. Speed=7.596000m/h.</desc>
<speed>2.110000</speed>
</trkpt>
<trkpt lat="55.984360" lon="26.458633">
<ele>88.674866</ele>
<time>2010-06-20T09:39:14Z</time>
<desc>lat.=55.984360, lon.=26.458633, Alt.=88.674866m. Speed=7.020000m/h.</desc>
<speed>1.950000</speed>
</trkpt>
<trkpt lat="55.984379" lon="26.458622">
<ele>88.950256</ele>
<time>2010-06-20T09:39:15Z</time>
<desc>lat.=55.984379, lon.=26.458622, Alt.=88.950256m. Speed=7.920000m/h.</desc>
<speed>2.200000</speed>
</trkpt>
<trkpt lat="55.984402" lon="26.458616">
<ele>88.616272</ele>
<time>2010-06-20T09:39:16Z</time>
<desc>lat.=55.984402, lon.=26.458616, Alt.=88.616272m. Speed=8.964000m/h.</desc>
<speed>2.490000</speed>
</trkpt>
<trkpt lat="55.984421" lon="26.458611">
<ele>88.608459</ele>
<time>2010-06-20T09:39:17Z</time>
<desc>lat.=55.984421, lon.=26.458611, Alt.=88.608459m. Speed=9.288000m/h.</desc>
<speed>2.580000</speed>
</trkpt>
<trkpt lat="55.984444" lon="26.458605">
<ele>88.102600</ele>
<time>2010-06-20T09:39:18Z</time>
<desc>lat.=55.984444, lon.=26.458605, Alt.=88.102600m. Speed=11.196000m/h.</desc>
<speed>3.110000</speed>
</trkpt>
<trkpt lat="55.984474" lon="26.458601">
<ele>88.247131</ele>
<time>2010-06-20T09:39:19Z</time>
<desc>lat.=55.984474, lon.=26.458601, Alt.=88.247131m. Speed=11.520000m/h.</desc>
<speed>3.200000</speed>
</trkpt>
<trkpt lat="55.984505" lon="26.458601">
<ele>88.229553</ele>
<time>2010-06-20T09:39:20Z</time>
<desc>lat.=55.984505, lon.=26.458601, Alt.=88.229553m. Speed=11.736000m/h.</desc>
<speed>3.260000</speed>
</trkpt>
<trkpt lat="55.984535" lon="26.458597">
<ele>88.579163</ele>
<time>2010-06-20T09:39:21Z</time>
<desc>lat.=55.984535, lon.=26.458597, Alt.=88.579163m. Speed=12.024000m/h.</desc>
<speed>3.340000</speed>
</trkpt>
<trkpt lat="55.984566" lon="26.458597">
<ele>88.401428</ele>
<time>2010-06-20T09:39:22Z</time>
<desc>lat.=55.984566, lon.=26.458597, Alt.=88.401428m. Speed=11.016000m/h.</desc>
<speed>3.060000</speed>
</trkpt>
<trkpt lat="55.984596" lon="26.458607">
<ele>88.745178</ele>
<time>2010-06-20T09:39:23Z</time>
<desc>lat.=55.984596, lon.=26.458607, Alt.=88.745178m. Speed=11.340000m/h.</desc>
<speed>3.150000</speed>
</trkpt>
<trkpt lat="55.984631" lon="26.458591">
<ele>86.544006</ele>
<time>2010-06-20T09:39:24Z</time>
<desc>lat.=55.984631, lon.=26.458591, Alt.=86.544006m. Speed=10.764000m/h.</desc>
<speed>2.990000</speed>
</trkpt>
<trkpt lat="55.984661" lon="26.458593">
<ele>86.137756</ele>
<time>2010-06-20T09:39:25Z</time>
<desc>lat.=55.984661, lon.=26.458593, Alt.=86.137756m. Speed=11.556000m/h.</desc>
<speed>3.210000</speed>
</trkpt>
<trkpt lat="55.984692" lon="26.458603">
<ele>86.280334</ele>
<time>2010-06-20T09:39:26Z</time>
<desc>lat.=55.984692, lon.=26.458603, Alt.=86.280334m. Speed=9.828000m/h.</desc>
<speed>2.730000</speed>
</trkpt>
<trkpt lat="55.984711" lon="26.458612">
<ele>86.737366</ele>
<time>2010-06-20T09:39:27Z</time>
<desc>lat.=55.984711, lon.=26.458612, Alt.=86.737366m. Speed=6.588000m/h.</desc>
<speed>1.830000</speed>
</trkpt>
<trkpt lat="55.984730" lon="26.458611">
<ele>86.823303</ele>
<time>2010-06-20T09:39:28Z</time>
<desc>lat.=55.984730, lon.=26.458611, Alt.=86.823303m. Speed=9.252000m/h.</desc>
<speed>2.570000</speed>
</trkpt>
<trkpt lat="55.984753" lon="26.458620">
<ele>87.733459</ele>
<time>2010-06-20T09:39:29Z</time>
<desc>lat.=55.984753, lon.=26.458620, Alt.=87.733459m. Speed=9.324000m/h.</desc>
<speed>2.590000</speed>
</trkpt>
<trkpt lat="55.984772" lon="26.458626">
<ele>88.389709</ele>
<time>2010-06-20T09:39:30Z</time>
<desc>lat.=55.984772, lon.=26.458626, Alt.=88.389709m. Speed=9.504000m/h.</desc>
<speed>2.640000</speed>
</trkpt>
<trkpt lat="55.984795" lon="26.458630">
<ele>89.012756</ele>
<time>2010-06-20T09:39:31Z</time>
<desc>lat.=55.984795, lon.=26.458630, Alt.=89.012756m. Speed=10.188000m/h.</desc>
<speed>2.830000</speed>
</trkpt>
<trkpt lat="55.984818" lon="26.458633">
<ele>89.225647</ele>
<time>2010-06-20T09:39:32Z</time>
<desc>lat.=55.984818, lon.=26.458633, Alt.=89.225647m. Speed=9.936000m/h.</desc>
<speed>2.760000</speed>
</trkpt>
<trkpt lat="55.984848" lon="26.458641">
<ele>89.680725</ele>
<time>2010-06-20T09:39:33Z</time>
<desc>lat.=55.984848, lon.=26.458641, Alt.=89.680725m. Speed=10.116000m/h.</desc>
<speed>2.810000</speed>
</trkpt>
<trkpt lat="55.984875" lon="26.458641">
<ele>89.885803</ele>
<time>2010-06-20T09:39:34Z</time>
<desc>lat.=55.984875, lon.=26.458641, Alt.=89.885803m. Speed=9.252000m/h.</desc>
<speed>2.570000</speed>
</trkpt>
<trkpt lat="55.984901" lon="26.458637">
<ele>90.010803</ele>
<time>2010-06-20T09:39:35Z</time>
<desc>lat.=55.984901, lon.=26.458637, Alt.=90.010803m. Speed=9.576000m/h.</desc>
<speed>2.660000</speed>
</trkpt>
<trkpt lat="55.984924" lon="26.458635">
<ele>90.669006</ele>
<time>2010-06-20T09:39:36Z</time>
<desc>lat.=55.984924, lon.=26.458635, Alt.=90.669006m. Speed=11.052000m/h.</desc>
<speed>3.070000</speed>
</trkpt>
<trkpt lat="55.984955" lon="26.458635">
<ele>91.188538</ele>
<time>2010-06-20T09:39:37Z</time>
<desc>lat.=55.984955, lon.=26.458635, Alt.=91.188538m. Speed=12.384000m/h.</desc>
<speed>3.440000</speed>
</trkpt>
<trkpt lat="55.984989" lon="26.458641">
<ele>91.624084</ele>
<time>2010-06-20T09:39:38Z</time>
<desc>lat.=55.984989, lon.=26.458641, Alt.=91.624084m. Speed=11.304000m/h.</desc>
<speed>3.140000</speed>
</trkpt>
<trkpt lat="55.985023" lon="26.458645">
<ele>92.165100</ele>
<time>2010-06-20T09:39:39Z</time>
<desc>lat.=55.985023, lon.=26.458645, Alt.=92.165100m. Speed=12.204000m/h.</desc>
<speed>3.390000</speed>
</trkpt>
<trkpt lat="55.985058" lon="26.458652">
<ele>92.717834</ele>
<time>2010-06-20T09:39:40Z</time>
<desc>lat.=55.985058, lon.=26.458652, Alt.=92.717834m. Speed=12.708000m/h.</desc>
<speed>3.530000</speed>
</trkpt>
<trkpt lat="55.985088" lon="26.458658">
<ele>93.590881</ele>
<time>2010-06-20T09:39:41Z</time>
<desc>lat.=55.985088, lon.=26.458658, Alt.=93.590881m. Speed=13.572000m/h.</desc>
<speed>3.770000</speed>
</trkpt>
<trkpt lat="55.985123" lon="26.458666">
<ele>94.215881</ele>
<time>2010-06-20T09:39:42Z</time>
<desc>lat.=55.985123, lon.=26.458666, Alt.=94.215881m. Speed=12.096000m/h.</desc>
<speed>3.360000</speed>
</trkpt>
<trkpt lat="55.985153" lon="26.458662">
<ele>94.502991</ele>
<time>2010-06-20T09:39:43Z</time>
<desc>lat.=55.985153, lon.=26.458662, Alt.=94.502991m. Speed=12.528000m/h.</desc>
<speed>3.480000</speed>
</trkpt>
<trkpt lat="55.985180" lon="26.458664">
<ele>94.993225</ele>
<time>2010-06-20T09:39:44Z</time>
<desc>lat.=55.985180, lon.=26.458664, Alt.=94.993225m. Speed=11.808000m/h.</desc>
<speed>3.280000</speed>
</trkpt>
<trkpt lat="55.985207" lon="26.458666">
<ele>95.231506</ele>
<time>2010-06-20T09:39:45Z</time>
<desc>lat.=55.985207, lon.=26.458666, Alt.=95.231506m. Speed=10.980000m/h.</desc>
<speed>3.050000</speed>
</trkpt>
<trkpt lat="55.985237" lon="26.458673">
<ele>95.210022</ele>
<time>2010-06-20T09:39:46Z</time>
<desc>lat.=55.985237, lon.=26.458673, Alt.=95.210022m. Speed=10.440000m/h.</desc>
<speed>2.900000</speed>
</trkpt>
<trkpt lat="55.985256" lon="26.458677">
<ele>95.270569</ele>
<time>2010-06-20T09:39:47Z</time>
<desc>lat.=55.985256, lon.=26.458677, Alt.=95.270569m. Speed=10.368000m/h.</desc>
<speed>2.880000</speed>
</trkpt>
<trkpt lat="55.985283" lon="26.458677">
<ele>95.487366</ele>
<time>2010-06-20T09:39:48Z</time>
<desc>lat.=55.985283, lon.=26.458677, Alt.=95.487366m. Speed=10.800000m/h.</desc>
<speed>3.000000</speed>
</trkpt>
<trkpt lat="55.985310" lon="26.458677">
<ele>95.518616</ele>
<time>2010-06-20T09:39:49Z</time>
<desc>lat.=55.985310, lon.=26.458677, Alt.=95.518616m. Speed=12.348000m/h.</desc>
<speed>3.430000</speed>
</trkpt>
<trkpt lat="55.985340" lon="26.458679">
<ele>96.155334</ele>
<time>2010-06-20T09:39:50Z</time>
<desc>lat.=55.985340, lon.=26.458679, Alt.=96.155334m. Speed=13.356000m/h.</desc>
<speed>3.710000</speed>
</trkpt>
<trkpt lat="55.985374" lon="26.458689">
<ele>97.116272</ele>
<time>2010-06-20T09:39:51Z</time>
<desc>lat.=55.985374, lon.=26.458689, Alt.=97.116272m. Speed=14.400000m/h.</desc>
<speed>4.000000</speed>
</trkpt>
<trkpt lat="55.985409" lon="26.458689">
<ele>97.719788</ele>
<time>2010-06-20T09:39:52Z</time>
<desc>lat.=55.985409, lon.=26.458689, Alt.=97.719788m. Speed=14.688000m/h.</desc>
<speed>4.080000</speed>
</trkpt>
<trkpt lat="55.985447" lon="26.458689">
<ele>98.422913</ele>
<time>2010-06-20T09:39:53Z</time>
<desc>lat.=55.985447, lon.=26.458689, Alt.=98.422913m. Speed=14.220000m/h.</desc>
<speed>3.950000</speed>
</trkpt>
<trkpt lat="55.985489" lon="26.458683">
<ele>98.532288</ele>
<time>2010-06-20T09:39:54Z</time>
<desc>lat.=55.985489, lon.=26.458683, Alt.=98.532288m. Speed=15.192000m/h.</desc>
<speed>4.220000</speed>
</trkpt>
<trkpt lat="55.985527" lon="26.458683">
<ele>99.469788</ele>
<time>2010-06-20T09:39:55Z</time>
<desc>lat.=55.985527, lon.=26.458683, Alt.=99.469788m. Speed=15.840000m/h.</desc>
<speed>4.400000</speed>
</trkpt>
<trkpt lat="55.985565" lon="26.458685">
<ele>100.366272</ele>
<time>2010-06-20T09:39:56Z</time>
<desc>lat.=55.985565, lon.=26.458685, Alt.=100.366272m. Speed=15.552000m/h.</desc>
<speed>4.320000</speed>
</trkpt>
<trkpt lat="55.985600" lon="26.458698">
<ele>102.090881</ele>
<time>2010-06-20T09:39:57Z</time>
<desc>lat.=55.985600, lon.=26.458698, Alt.=102.090881m. Speed=14.724000m/h.</desc>
<speed>4.090000</speed>
</trkpt>
<trkpt lat="55.985638" lon="26.458702">
<ele>103.458069</ele>
<time>2010-06-20T09:39:58Z</time>
<desc>lat.=55.985638, lon.=26.458702, Alt.=103.458069m. Speed=15.372000m/h.</desc>
<speed>4.270000</speed>
</trkpt>
<trkpt lat="55.985676" lon="26.458712">
<ele>104.297913</ele>
<time>2010-06-20T09:39:59Z</time>
<desc>lat.=55.985676, lon.=26.458712, Alt.=104.297913m. Speed=17.820000m/h.</desc>
<speed>4.950000</speed>
</trkpt>
<trkpt lat="55.985722" lon="26.458717">
<ele>105.354553</ele>
<time>2010-06-20T09:40:00Z</time>
<desc>lat.=55.985722, lon.=26.458717, Alt.=105.354553m. Speed=16.524000m/h.</desc>
<speed>4.590000</speed>
</trkpt>
<trkpt lat="55.985764" lon="26.458719">
<ele>105.915100</ele>
<time>2010-06-20T09:40:01Z</time>
<desc>lat.=55.985764, lon.=26.458719, Alt.=105.915100m. Speed=15.840000m/h.</desc>
<speed>4.400000</speed>
</trkpt>
<trkpt lat="55.985798" lon="26.458725">
<ele>106.706116</ele>
<time>2010-06-20T09:40:02Z</time>
<desc>lat.=55.985798, lon.=26.458725, Alt.=106.706116m. Speed=14.292000m/h.</desc>
<speed>3.970000</speed>
</trkpt>
<trkpt lat="55.985836" lon="26.458729">
<ele>106.905334</ele>
<time>2010-06-20T09:40:03Z</time>
<desc>lat.=55.985836, lon.=26.458729, Alt.=106.905334m. Speed=14.400000m/h.</desc>
<speed>4.000000</speed>
</trkpt>
<trkpt lat="55.985867" lon="26.458729">
<ele>107.249084</ele>
<time>2010-06-20T09:40:04Z</time>
<desc>lat.=55.985867, lon.=26.458729, Alt.=107.249084m. Speed=12.456000m/h.</desc>
<speed>3.460000</speed>
</trkpt>
<trkpt lat="55.985901" lon="26.458729">
<ele>107.139709</ele>
<time>2010-06-20T09:40:05Z</time>
<desc>lat.=55.985901, lon.=26.458729, Alt.=107.139709m. Speed=12.636000m/h.</desc>
<speed>3.510000</speed>
</trkpt>
<trkpt lat="55.985931" lon="26.458731">
<ele>107.315491</ele>
<time>2010-06-20T09:40:06Z</time>
<desc>lat.=55.985931, lon.=26.458731, Alt.=107.315491m. Speed=11.916000m/h.</desc>
<speed>3.310000</speed>
</trkpt>
<trkpt lat="55.985962" lon="26.458733">
<ele>108.032288</ele>
<time>2010-06-20T09:40:07Z</time>
<desc>lat.=55.985962, lon.=26.458733, Alt.=108.032288m. Speed=10.476000m/h.</desc>
<speed>2.910000</speed>
</trkpt>
<trkpt lat="55.985985" lon="26.458729">
<ele>108.579163</ele>
<time>2010-06-20T09:40:08Z</time>
<desc>lat.=55.985985, lon.=26.458729, Alt.=108.579163m. Speed=10.656000m/h.</desc>
<speed>2.960000</speed>
</trkpt>
<trkpt lat="55.986012" lon="26.458723">
<ele>108.542053</ele>
<time>2010-06-20T09:40:09Z</time>
<desc>lat.=55.986012, lon.=26.458723, Alt.=108.542053m. Speed=10.332000m/h.</desc>
<speed>2.870000</speed>
</trkpt>
<trkpt lat="55.986034" lon="26.458719">
<ele>108.399475</ele>
<time>2010-06-20T09:40:10Z</time>
<desc>lat.=55.986034, lon.=26.458719, Alt.=108.399475m. Speed=10.224000m/h.</desc>
<speed>2.840000</speed>
</trkpt>
<trkpt lat="55.986065" lon="26.458712">
<ele>107.061584</ele>
<time>2010-06-20T09:40:11Z</time>
<desc>lat.=55.986065, lon.=26.458712, Alt.=107.061584m. Speed=10.836000m/h.</desc>
<speed>3.010000</speed>
</trkpt>
<trkpt lat="55.986092" lon="26.458715">
<ele>106.346741</ele>
<time>2010-06-20T09:40:12Z</time>
<desc>lat.=55.986092, lon.=26.458715, Alt.=106.346741m. Speed=10.368000m/h.</desc>
<speed>2.880000</speed>
</trkpt>
<trkpt lat="55.986122" lon="26.458717">
<ele>105.811584</ele>
<time>2010-06-20T09:40:13Z</time>
<desc>lat.=55.986122, lon.=26.458717, Alt.=105.811584m. Speed=11.016000m/h.</desc>
<speed>3.060000</speed>
</trkpt>
<trkpt lat="55.986149" lon="26.458712">
<ele>105.711975</ele>
<time>2010-06-20T09:40:14Z</time>
<desc>lat.=55.986149, lon.=26.458712, Alt.=105.711975m. Speed=12.564000m/h.</desc>
<speed>3.490000</speed>
</trkpt>
<trkpt lat="55.986176" lon="26.458702">
<ele>105.735413</ele>
<time>2010-06-20T09:40:15Z</time>
<desc>lat.=55.986176, lon.=26.458702, Alt.=105.735413m. Speed=12.384000m/h.</desc>
<speed>3.440000</speed>
</trkpt>
<trkpt lat="55.986206" lon="26.458708">
<ele>106.001038</ele>
<time>2010-06-20T09:40:16Z</time>
<desc>lat.=55.986206, lon.=26.458708, Alt.=106.001038m. Speed=12.096000m/h.</desc>
<speed>3.360000</speed>
</trkpt>
<trkpt lat="55.986252" lon="26.458698">
<ele>104.536194</ele>
<time>2010-06-20T09:40:17Z</time>
<desc>lat.=55.986252, lon.=26.458698, Alt.=104.536194m. Speed=14.040000m/h.</desc>
<speed>3.900000</speed>
</trkpt>
<trkpt lat="55.986282" lon="26.458693">
<ele>103.752991</ele>
<time>2010-06-20T09:40:18Z</time>
<desc>lat.=55.986282, lon.=26.458693, Alt.=103.752991m. Speed=12.456000m/h.</desc>
<speed>3.460000</speed>
</trkpt>
<trkpt lat="55.986309" lon="26.458696">
<ele>104.370178</ele>
<time>2010-06-20T09:40:19Z</time>
<desc>lat.=55.986309, lon.=26.458696, Alt.=104.370178m. Speed=12.168000m/h.</desc>
<speed>3.380000</speed>
</trkpt>
<trkpt lat="55.986343" lon="26.458693">
<ele>104.440491</ele>
<time>2010-06-20T09:40:20Z</time>
<desc>lat.=55.986343, lon.=26.458693, Alt.=104.440491m. Speed=12.060000m/h.</desc>
<speed>3.350000</speed>
</trkpt>
<trkpt lat="55.986378" lon="26.458689">
<ele>104.145569</ele>
<time>2010-06-20T09:40:21Z</time>
<desc>lat.=55.986378, lon.=26.458689, Alt.=104.145569m. Speed=12.996000m/h.</desc>
<speed>3.610000</speed>
</trkpt>
<trkpt lat="55.986404" lon="26.458687">
<ele>103.649475</ele>
<time>2010-06-20T09:40:22Z</time>
<desc>lat.=55.986404, lon.=26.458687, Alt.=103.649475m. Speed=13.104000m/h.</desc>
<speed>3.640000</speed>
</trkpt>
<trkpt lat="55.986435" lon="26.458691">
<ele>103.463928</ele>
<time>2010-06-20T09:40:23Z</time>
<desc>lat.=55.986435, lon.=26.458691, Alt.=103.463928m. Speed=13.716000m/h.</desc>
<speed>3.810000</speed>
</trkpt>
<trkpt lat="55.986473" lon="26.458694">
<ele>103.465881</ele>
<time>2010-06-20T09:40:24Z</time>
<desc>lat.=55.986473, lon.=26.458694, Alt.=103.465881m. Speed=15.336000m/h.</desc>
<speed>4.260000</speed>
</trkpt>
<trkpt lat="55.986515" lon="26.458693">
<ele>102.717834</ele>
<time>2010-06-20T09:40:25Z</time>
<desc>lat.=55.986515, lon.=26.458693, Alt.=102.717834m. Speed=15.552000m/h.</desc>
<speed>4.320000</speed>
</trkpt>
<trkpt lat="55.986549" lon="26.458685">
<ele>102.151428</ele>
<time>2010-06-20T09:40:26Z</time>
<desc>lat.=55.986549, lon.=26.458685, Alt.=102.151428m. Speed=12.924000m/h.</desc>
<speed>3.590000</speed>
</trkpt>
<trkpt lat="55.986576" lon="26.458681">
<ele>101.952209</ele>
<time>2010-06-20T09:40:27Z</time>
<desc>lat.=55.986576, lon.=26.458681, Alt.=101.952209m. Speed=12.492000m/h.</desc>
<speed>3.470000</speed>
</trkpt>
<trkpt lat="55.986614" lon="26.458681">
<ele>101.817444</ele>
<time>2010-06-20T09:40:28Z</time>
<desc>lat.=55.986614, lon.=26.458681, Alt.=101.817444m. Speed=12.564000m/h.</desc>
<speed>3.490000</speed>
</trkpt>
<trkpt lat="55.986641" lon="26.458685">
<ele>101.981506</ele>
<time>2010-06-20T09:40:29Z</time>
<desc>lat.=55.986641, lon.=26.458685, Alt.=101.981506m. Speed=12.384000m/h.</desc>
<speed>3.440000</speed>
</trkpt>
<trkpt lat="55.986671" lon="26.458689">
<ele>101.368225</ele>
<time>2010-06-20T09:40:30Z</time>
<desc>lat.=55.986671, lon.=26.458689, Alt.=101.368225m. Speed=13.608000m/h.</desc>
<speed>3.780000</speed>
</trkpt>
<trkpt lat="55.986710" lon="26.458689">
<ele>100.612366</ele>
<time>2010-06-20T09:40:31Z</time>
<desc>lat.=55.986710, lon.=26.458689, Alt.=100.612366m. Speed=15.192000m/h.</desc>
<speed>4.220000</speed>
</trkpt>
<trkpt lat="55.986744" lon="26.458691">
<ele>100.026428</ele>
<time>2010-06-20T09:40:32Z</time>
<desc>lat.=55.986744, lon.=26.458691, Alt.=100.026428m. Speed=15.480000m/h.</desc>
<speed>4.300000</speed>
</trkpt>
<trkpt lat="55.986782" lon="26.458704">
<ele>99.508850</ele>
<time>2010-06-20T09:40:33Z</time>
<desc>lat.=55.986782, lon.=26.458704, Alt.=99.508850m. Speed=17.136000m/h.</desc>
<speed>4.760000</speed>
</trkpt>
<trkpt lat="55.986828" lon="26.458715">
<ele>100.085022</ele>
<time>2010-06-20T09:40:34Z</time>
<desc>lat.=55.986828, lon.=26.458715, Alt.=100.085022m. Speed=16.704000m/h.</desc>
<speed>4.640000</speed>
</trkpt>
<trkpt lat="55.986870" lon="26.458719">
<ele>97.735413</ele>
<time>2010-06-20T09:40:35Z</time>
<desc>lat.=55.986870, lon.=26.458719, Alt.=97.735413m. Speed=17.100000m/h.</desc>
<speed>4.750000</speed>
</trkpt>
<trkpt lat="55.986908" lon="26.458729">
<ele>96.686584</ele>
<time>2010-06-20T09:40:36Z</time>
<desc>lat.=55.986908, lon.=26.458729, Alt.=96.686584m. Speed=17.316000m/h.</desc>
<speed>4.810000</speed>
</trkpt>
<trkpt lat="55.986946" lon="26.458746">
<ele>96.102600</ele>
<time>2010-06-20T09:40:37Z</time>
<desc>lat.=55.986946, lon.=26.458746, Alt.=96.102600m. Speed=16.667999m/h.</desc>
<speed>4.630000</speed>
</trkpt>
<trkpt lat="55.986992" lon="26.458771">
<ele>96.833069</ele>
<time>2010-06-20T09:40:38Z</time>
<desc>lat.=55.986992, lon.=26.458771, Alt.=96.833069m. Speed=17.063999m/h.</desc>
<speed>4.740000</speed>
</trkpt>
<trkpt lat="55.987030" lon="26.458794">
<ele>95.952209</ele>
<time>2010-06-20T09:40:39Z</time>
<desc>lat.=55.987030, lon.=26.458794, Alt.=95.952209m. Speed=17.280001m/h.</desc>
<speed>4.800000</speed>
</trkpt>
<trkpt lat="55.987076" lon="26.458817">
<ele>96.415100</ele>
<time>2010-06-20T09:40:40Z</time>
<desc>lat.=55.987076, lon.=26.458817, Alt.=96.415100m. Speed=17.388000m/h.</desc>
<speed>4.830000</speed>
</trkpt>
<trkpt lat="55.987118" lon="26.458843">
<ele>96.934631</ele>
<time>2010-06-20T09:40:41Z</time>
<desc>lat.=55.987118, lon.=26.458843, Alt.=96.934631m. Speed=18.000000m/h.</desc>
<speed>5.000000</speed>
</trkpt>
<trkpt lat="55.987164" lon="26.458870">
<ele>97.491272</ele>
<time>2010-06-20T09:40:42Z</time>
<desc>lat.=55.987164, lon.=26.458870, Alt.=97.491272m. Speed=18.252001m/h.</desc>
<speed>5.070000</speed>
</trkpt>
<trkpt lat="55.987206" lon="26.458897">
<ele>97.850647</ele>
<time>2010-06-20T09:40:43Z</time>
<desc>lat.=55.987206, lon.=26.458897, Alt.=97.850647m. Speed=17.532000m/h.</desc>
<speed>4.870000</speed>
</trkpt>
<trkpt lat="55.987251" lon="26.458927">
<ele>98.680725</ele>
<time>2010-06-20T09:40:44Z</time>
<desc>lat.=55.987251, lon.=26.458927, Alt.=98.680725m. Speed=17.028000m/h.</desc>
<speed>4.730000</speed>
</trkpt>
<trkpt lat="55.987297" lon="26.458952">
<ele>98.389709</ele>
<time>2010-06-20T09:40:45Z</time>
<desc>lat.=55.987297, lon.=26.458952, Alt.=98.389709m. Speed=17.712000m/h.</desc>
<speed>4.920000</speed>
</trkpt>
<trkpt lat="55.987339" lon="26.458982">
<ele>98.510803</ele>
<time>2010-06-20T09:40:46Z</time>
<desc>lat.=55.987339, lon.=26.458982, Alt.=98.510803m. Speed=17.604000m/h.</desc>
<speed>4.890000</speed>
</trkpt>
<trkpt lat="55.987377" lon="26.459009">
<ele>97.686584</ele>
<time>2010-06-20T09:40:47Z</time>
<desc>lat.=55.987377, lon.=26.459009, Alt.=97.686584m. Speed=17.496000m/h.</desc>
<speed>4.860000</speed>
</trkpt>
<trkpt lat="55.987423" lon="26.459034">
<ele>96.645569</ele>
<time>2010-06-20T09:40:48Z</time>
<desc>lat.=55.987423, lon.=26.459034, Alt.=96.645569m. Speed=18.827999m/h.</desc>
<speed>5.230000</speed>
</trkpt>
<trkpt lat="55.987473" lon="26.459063">
<ele>96.516663</ele>
<time>2010-06-20T09:40:49Z</time>
<desc>lat.=55.987473, lon.=26.459063, Alt.=96.516663m. Speed=19.368000m/h.</desc>
<speed>5.380000</speed>
</trkpt>
<trkpt lat="55.987514" lon="26.459091">
<ele>96.700256</ele>
<time>2010-06-20T09:40:50Z</time>
<desc>lat.=55.987514, lon.=26.459091, Alt.=96.700256m. Speed=17.784000m/h.</desc>
<speed>4.940000</speed>
</trkpt>
<trkpt lat="55.987556" lon="26.459112">
<ele>96.528381</ele>
<time>2010-06-20T09:40:51Z</time>
<desc>lat.=55.987556, lon.=26.459112, Alt.=96.528381m. Speed=15.804000m/h.</desc>
<speed>4.390000</speed>
</trkpt>
<trkpt lat="55.987598" lon="26.459127">
<ele>96.313538</ele>
<time>2010-06-20T09:40:52Z</time>
<desc>lat.=55.987598, lon.=26.459127, Alt.=96.313538m. Speed=15.984000m/h.</desc>
<speed>4.440000</speed>
</trkpt>
<trkpt lat="55.987640" lon="26.459139">
<ele>95.563538</ele>
<time>2010-06-20T09:40:53Z</time>
<desc>lat.=55.987640, lon.=26.459139, Alt.=95.563538m. Speed=15.948000m/h.</desc>
<speed>4.430000</speed>
</trkpt>
<trkpt lat="55.987675" lon="26.459156">
<ele>95.006897</ele>
<time>2010-06-20T09:40:54Z</time>
<desc>lat.=55.987675, lon.=26.459156, Alt.=95.006897m. Speed=16.020000m/h.</desc>
<speed>4.450000</speed>
</trkpt>
<trkpt lat="55.987713" lon="26.459185">
<ele>95.778381</ele>
<time>2010-06-20T09:40:55Z</time>
<desc>lat.=55.987713, lon.=26.459185, Alt.=95.778381m. Speed=16.559999m/h.</desc>
<speed>4.600000</speed>
</trkpt>
<trkpt lat="55.987759" lon="26.459215">
<ele>96.210022</ele>
<time>2010-06-20T09:40:56Z</time>
<desc>lat.=55.987759, lon.=26.459215, Alt.=96.210022m. Speed=16.884001m/h.</desc>
<speed>4.690000</speed>
</trkpt>
<trkpt lat="55.987801" lon="26.459246">
<ele>96.610413</ele>
<time>2010-06-20T09:40:57Z</time>
<desc>lat.=55.987801, lon.=26.459246, Alt.=96.610413m. Speed=16.524000m/h.</desc>
<speed>4.590000</speed>
</trkpt>
<trkpt lat="55.987839" lon="26.459267">
<ele>96.975647</ele>
<time>2010-06-20T09:40:58Z</time>
<desc>lat.=55.987839, lon.=26.459267, Alt.=96.975647m. Speed=15.768000m/h.</desc>
<speed>4.380000</speed>
</trkpt>
<trkpt lat="55.987873" lon="26.459290">
<ele>97.555725</ele>
<time>2010-06-20T09:40:59Z</time>
<desc>lat.=55.987873, lon.=26.459290, Alt.=97.555725m. Speed=15.804000m/h.</desc>
<speed>4.390000</speed>
</trkpt>
<trkpt lat="55.987915" lon="26.459312">
<ele>97.987366</ele>
<time>2010-06-20T09:41:00Z</time>
<desc>lat.=55.987915, lon.=26.459312, Alt.=97.987366m. Speed=16.020000m/h.</desc>
<speed>4.450000</speed>
</trkpt>
<trkpt lat="55.987957" lon="26.459328">
<ele>97.317444</ele>
<time>2010-06-20T09:41:01Z</time>
<desc>lat.=55.987957, lon.=26.459328, Alt.=97.317444m. Speed=15.768000m/h.</desc>
<speed>4.380000</speed>
</trkpt>
<trkpt lat="55.987995" lon="26.459343">
<ele>97.038147</ele>
<time>2010-06-20T09:41:02Z</time>
<desc>lat.=55.987995, lon.=26.459343, Alt.=97.038147m. Speed=15.804000m/h.</desc>
<speed>4.390000</speed>
</trkpt>
<trkpt lat="55.988033" lon="26.459358">
<ele>96.958069</ele>
<time>2010-06-20T09:41:03Z</time>
<desc>lat.=55.988033, lon.=26.459358, Alt.=96.958069m. Speed=15.444000m/h.</desc>
<speed>4.290000</speed>
</trkpt>
<trkpt lat="55.988068" lon="26.459373">
<ele>96.815491</ele>
<time>2010-06-20T09:41:04Z</time>
<desc>lat.=55.988068, lon.=26.459373, Alt.=96.815491m. Speed=13.860000m/h.</desc>
<speed>3.850000</speed>
</trkpt>
<trkpt lat="55.988102" lon="26.459396">
<ele>96.778381</ele>
<time>2010-06-20T09:41:05Z</time>
<desc>lat.=55.988102, lon.=26.459396, Alt.=96.778381m. Speed=13.644000m/h.</desc>
<speed>3.790000</speed>
</trkpt>
<trkpt lat="55.988140" lon="26.459417">
<ele>96.852600</ele>
<time>2010-06-20T09:41:06Z</time>
<desc>lat.=55.988140, lon.=26.459417, Alt.=96.852600m. Speed=14.832000m/h.</desc>
<speed>4.120000</speed>
</trkpt>
<trkpt lat="55.988174" lon="26.459440">
<ele>96.842834</ele>
<time>2010-06-20T09:41:07Z</time>
<desc>lat.=55.988174, lon.=26.459440, Alt.=96.842834m. Speed=13.716000m/h.</desc>
<speed>3.810000</speed>
</trkpt>
<trkpt lat="55.988213" lon="26.459461">
<ele>96.850647</ele>
<time>2010-06-20T09:41:08Z</time>
<desc>lat.=55.988213, lon.=26.459461, Alt.=96.850647m. Speed=15.300000m/h.</desc>
<speed>4.250000</speed>
</trkpt>
<trkpt lat="55.988251" lon="26.459478">
<ele>96.602600</ele>
<time>2010-06-20T09:41:09Z</time>
<desc>lat.=55.988251, lon.=26.459478, Alt.=96.602600m. Speed=16.271999m/h.</desc>
<speed>4.520000</speed>
</trkpt>
<trkpt lat="55.988293" lon="26.459496">
<ele>96.114319</ele>
<time>2010-06-20T09:41:10Z</time>
<desc>lat.=55.988293, lon.=26.459496, Alt.=96.114319m. Speed=15.696000m/h.</desc>
<speed>4.360000</speed>
</trkpt>
<trkpt lat="55.988331" lon="26.459522">
<ele>96.565491</ele>
<time>2010-06-20T09:41:11Z</time>
<desc>lat.=55.988331, lon.=26.459522, Alt.=96.565491m. Speed=16.200001m/h.</desc>
<speed>4.500000</speed>
</trkpt>
<trkpt lat="55.988369" lon="26.459532">
<ele>96.169006</ele>
<time>2010-06-20T09:41:12Z</time>
<desc>lat.=55.988369, lon.=26.459532, Alt.=96.169006m. Speed=15.480000m/h.</desc>
<speed>4.300000</speed>
</trkpt>
<trkpt lat="55.988407" lon="26.459549">
<ele>95.768616</ele>
<time>2010-06-20T09:41:13Z</time>
<desc>lat.=55.988407, lon.=26.459549, Alt.=95.768616m. Speed=15.732000m/h.</desc>
<speed>4.370000</speed>
</trkpt>
<trkpt lat="55.988445" lon="26.459568">
<ele>95.534241</ele>
<time>2010-06-20T09:41:14Z</time>
<desc>lat.=55.988445, lon.=26.459568, Alt.=95.534241m. Speed=16.596001m/h.</desc>
<speed>4.610000</speed>
</trkpt>
<trkpt lat="55.988483" lon="26.459589">
<ele>95.377991</ele>
<time>2010-06-20T09:41:15Z</time>
<desc>lat.=55.988483, lon.=26.459589, Alt.=95.377991m. Speed=15.624000m/h.</desc>
<speed>4.340000</speed>
</trkpt>
<trkpt lat="55.988518" lon="26.459616">
<ele>95.653381</ele>
<time>2010-06-20T09:41:16Z</time>
<desc>lat.=55.988518, lon.=26.459616, Alt.=95.653381m. Speed=16.091999m/h.</desc>
<speed>4.470000</speed>
</trkpt>
<trkpt lat="55.988556" lon="26.459639">
<ele>95.420959</ele>
<time>2010-06-20T09:41:17Z</time>
<desc>lat.=55.988556, lon.=26.459639, Alt.=95.420959m. Speed=16.559999m/h.</desc>
<speed>4.600000</speed>
</trkpt>
<trkpt lat="55.988594" lon="26.459663">
<ele>95.077209</ele>
<time>2010-06-20T09:41:18Z</time>
<desc>lat.=55.988594, lon.=26.459663, Alt.=95.077209m. Speed=16.488001m/h.</desc>
<speed>4.580000</speed>
</trkpt>
<trkpt lat="55.988632" lon="26.459682">
<ele>94.995178</ele>
<time>2010-06-20T09:41:19Z</time>
<desc>lat.=55.988632, lon.=26.459682, Alt.=94.995178m. Speed=15.516000m/h.</desc>
<speed>4.310000</speed>
</trkpt>
<trkpt lat="55.988670" lon="26.459703">
<ele>95.376038</ele>
<time>2010-06-20T09:41:20Z</time>
<desc>lat.=55.988670, lon.=26.459703, Alt.=95.376038m. Speed=14.760000m/h.</desc>
<speed>4.100000</speed>
</trkpt>
<trkpt lat="55.988708" lon="26.459715">
<ele>95.051819</ele>
<time>2010-06-20T09:41:21Z</time>
<desc>lat.=55.988708, lon.=26.459715, Alt.=95.051819m. Speed=15.840000m/h.</desc>
<speed>4.400000</speed>
</trkpt>
<trkpt lat="55.988750" lon="26.459732">
<ele>94.547913</ele>
<time>2010-06-20T09:41:22Z</time>
<desc>lat.=55.988750, lon.=26.459732, Alt.=94.547913m. Speed=16.524000m/h.</desc>
<speed>4.590000</speed>
</trkpt>
<trkpt lat="55.988796" lon="26.459753">
<ele>94.544006</ele>
<time>2010-06-20T09:41:23Z</time>
<desc>lat.=55.988796, lon.=26.459753, Alt.=94.544006m. Speed=16.632000m/h.</desc>
<speed>4.620000</speed>
</trkpt>
<trkpt lat="55.988834" lon="26.459766">
<ele>94.206116</ele>
<time>2010-06-20T09:41:24Z</time>
<desc>lat.=55.988834, lon.=26.459766, Alt.=94.206116m. Speed=15.120000m/h.</desc>
<speed>4.200000</speed>
</trkpt>
<trkpt lat="55.988865" lon="26.459768">
<ele>93.180725</ele>
<time>2010-06-20T09:41:25Z</time>
<desc>lat.=55.988865, lon.=26.459768, Alt.=93.180725m. Speed=13.644000m/h.</desc>
<speed>3.790000</speed>
</trkpt>
<trkpt lat="55.988899" lon="26.459780">
<ele>92.719788</ele>
<time>2010-06-20T09:41:26Z</time>
<desc>lat.=55.988899, lon.=26.459780, Alt.=92.719788m. Speed=13.320000m/h.</desc>
<speed>3.700000</speed>
</trkpt>
<trkpt lat="55.988930" lon="26.459793">
<ele>92.020569</ele>
<time>2010-06-20T09:41:27Z</time>
<desc>lat.=55.988930, lon.=26.459793, Alt.=92.020569m. Speed=12.636000m/h.</desc>
<speed>3.510000</speed>
</trkpt>
<trkpt lat="55.988956" lon="26.459810">
<ele>91.797913</ele>
<time>2010-06-20T09:41:28Z</time>
<desc>lat.=55.988956, lon.=26.459810, Alt.=91.797913m. Speed=12.960000m/h.</desc>
<speed>3.600000</speed>
</trkpt>
<trkpt lat="55.988983" lon="26.459835">
<ele>92.325256</ele>
<time>2010-06-20T09:41:29Z</time>
<desc>lat.=55.988983, lon.=26.459835, Alt.=92.325256m. Speed=13.608000m/h.</desc>
<speed>3.780000</speed>
</trkpt>
<trkpt lat="55.989025" lon="26.459848">
<ele>92.315491</ele>
<time>2010-06-20T09:41:30Z</time>
<desc>lat.=55.989025, lon.=26.459848, Alt.=92.315491m. Speed=14.076000m/h.</desc>
<speed>3.910000</speed>
</trkpt>
<trkpt lat="55.989063" lon="26.459860">
<ele>92.333069</ele>
<time>2010-06-20T09:41:31Z</time>
<desc>lat.=55.989063, lon.=26.459860, Alt.=92.333069m. Speed=15.012000m/h.</desc>
<speed>4.170000</speed>
</trkpt>
<trkpt lat="55.989101" lon="26.459873">
<ele>91.711975</ele>
<time>2010-06-20T09:41:32Z</time>
<desc>lat.=55.989101, lon.=26.459873, Alt.=91.711975m. Speed=14.292000m/h.</desc>
<speed>3.970000</speed>
</trkpt>
<trkpt lat="55.989140" lon="26.459890">
<ele>91.645569</ele>
<time>2010-06-20T09:41:33Z</time>
<desc>lat.=55.989140, lon.=26.459890, Alt.=91.645569m. Speed=14.472000m/h.</desc>
<speed>4.020000</speed>
</trkpt>
<trkpt lat="55.989178" lon="26.459915">
<ele>92.971741</ele>
<time>2010-06-20T09:41:34Z</time>
<desc>lat.=55.989178, lon.=26.459915, Alt.=92.971741m. Speed=16.452000m/h.</desc>
<speed>4.570000</speed>
</trkpt>
<trkpt lat="55.989212" lon="26.459932">
<ele>93.231506</ele>
<time>2010-06-20T09:41:35Z</time>
<desc>lat.=55.989212, lon.=26.459932, Alt.=93.231506m. Speed=14.688000m/h.</desc>
<speed>4.080000</speed>
</trkpt>
<trkpt lat="55.989246" lon="26.459951">
<ele>92.674866</ele>
<time>2010-06-20T09:41:36Z</time>
<desc>lat.=55.989246, lon.=26.459951, Alt.=92.674866m. Speed=14.184000m/h.</desc>
<speed>3.940000</speed>
</trkpt>
<trkpt lat="55.989277" lon="26.459969">
<ele>92.422913</ele>
<time>2010-06-20T09:41:37Z</time>
<desc>lat.=55.989277, lon.=26.459969, Alt.=92.422913m. Speed=12.708000m/h.</desc>
<speed>3.530000</speed>
</trkpt>
<trkpt lat="55.989304" lon="26.459990">
<ele>93.030334</ele>
<time>2010-06-20T09:41:38Z</time>
<desc>lat.=55.989304, lon.=26.459990, Alt.=93.030334m. Speed=11.484000m/h.</desc>
<speed>3.190000</speed>
</trkpt>
<trkpt lat="55.989330" lon="26.460007">
<ele>93.118225</ele>
<time>2010-06-20T09:41:39Z</time>
<desc>lat.=55.989330, lon.=26.460007, Alt.=93.118225m. Speed=13.500000m/h.</desc>
<speed>3.750000</speed>
</trkpt>
<trkpt lat="55.989368" lon="26.460014">
<ele>92.655334</ele>
<time>2010-06-20T09:41:40Z</time>
<desc>lat.=55.989368, lon.=26.460014, Alt.=92.655334m. Speed=14.688000m/h.</desc>
<speed>4.080000</speed>
</trkpt>
<trkpt lat="55.989407" lon="26.460033">
<ele>93.407288</ele>
<time>2010-06-20T09:41:41Z</time>
<desc>lat.=55.989407, lon.=26.460033, Alt.=93.407288m. Speed=13.608000m/h.</desc>
<speed>3.780000</speed>
</trkpt>
<trkpt lat="55.989445" lon="26.460043">
<ele>93.251038</ele>
<time>2010-06-20T09:41:42Z</time>
<desc>lat.=55.989445, lon.=26.460043, Alt.=93.251038m. Speed=16.667999m/h.</desc>
<speed>4.630000</speed>
</trkpt>
<trkpt lat="55.989491" lon="26.460054">
<ele>93.264709</ele>
<time>2010-06-20T09:41:43Z</time>
<desc>lat.=55.989491, lon.=26.460054, Alt.=93.264709m. Speed=16.128000m/h.</desc>
<speed>4.480000</speed>
</trkpt>
<trkpt lat="55.989525" lon="26.460070">
<ele>93.741272</ele>
<time>2010-06-20T09:41:44Z</time>
<desc>lat.=55.989525, lon.=26.460070, Alt.=93.741272m. Speed=14.040000m/h.</desc>
<speed>3.900000</speed>
</trkpt>
<trkpt lat="55.989555" lon="26.460087">
<ele>93.850647</ele>
<time>2010-06-20T09:41:45Z</time>
<desc>lat.=55.989555, lon.=26.460087, Alt.=93.850647m. Speed=12.312000m/h.</desc>
<speed>3.420000</speed>
</trkpt>
<trkpt lat="55.989586" lon="26.460093">
<ele>93.864319</ele>
<time>2010-06-20T09:41:46Z</time>
<desc>lat.=55.989586, lon.=26.460093, Alt.=93.864319m. Speed=11.844000m/h.</desc>
<speed>3.290000</speed>
</trkpt>
<trkpt lat="55.989628" lon="26.460110">
<ele>93.739319</ele>
<time>2010-06-20T09:41:47Z</time>
<desc>lat.=55.989628, lon.=26.460110, Alt.=93.739319m. Speed=13.824000m/h.</desc>
<speed>3.840000</speed>
</trkpt>
<trkpt lat="55.989658" lon="26.460127">
<ele>94.112366</ele>
<time>2010-06-20T09:41:48Z</time>
<desc>lat.=55.989658, lon.=26.460127, Alt.=94.112366m. Speed=13.284000m/h.</desc>
<speed>3.690000</speed>
</trkpt>
<trkpt lat="55.989689" lon="26.460142">
<ele>93.194397</ele>
<time>2010-06-20T09:41:49Z</time>
<desc>lat.=55.989689, lon.=26.460142, Alt.=93.194397m. Speed=10.980000m/h.</desc>
<speed>3.050000</speed>
</trkpt>
<trkpt lat="55.989716" lon="26.460157">
<ele>92.985413</ele>
<time>2010-06-20T09:41:50Z</time>
<desc>lat.=55.989716, lon.=26.460157, Alt.=92.985413m. Speed=10.656000m/h.</desc>
<speed>2.960000</speed>
</trkpt>
<trkpt lat="55.989731" lon="26.460176">
<ele>92.715881</ele>
<time>2010-06-20T09:41:51Z</time>
<desc>lat.=55.989731, lon.=26.460176, Alt.=92.715881m. Speed=7.956000m/h.</desc>
<speed>2.210000</speed>
</trkpt>
<trkpt lat="55.989750" lon="26.460203">
<ele>92.444397</ele>
<time>2010-06-20T09:41:52Z</time>
<desc>lat.=55.989750, lon.=26.460203, Alt.=92.444397m. Speed=9.360000m/h.</desc>
<speed>2.600000</speed>
</trkpt>
<trkpt lat="55.989777" lon="26.460230">
<ele>92.157288</ele>
<time>2010-06-20T09:41:53Z</time>
<desc>lat.=55.989777, lon.=26.460230, Alt.=92.157288m. Speed=10.656000m/h.</desc>
<speed>2.960000</speed>
</trkpt>
<trkpt lat="55.989807" lon="26.460249">
<ele>91.629944</ele>
<time>2010-06-20T09:41:54Z</time>
<desc>lat.=55.989807, lon.=26.460249, Alt.=91.629944m. Speed=10.476000m/h.</desc>
<speed>2.910000</speed>
</trkpt>
<trkpt lat="55.989849" lon="26.460278">
<ele>91.606506</ele>
<time>2010-06-20T09:41:55Z</time>
<desc>lat.=55.989849, lon.=26.460278, Alt.=91.606506m. Speed=11.124000m/h.</desc>
<speed>3.090000</speed>
</trkpt>
<trkpt lat="55.989891" lon="26.460281">
<ele>91.172913</ele>
<time>2010-06-20T09:41:56Z</time>
<desc>lat.=55.989891, lon.=26.460281, Alt.=91.172913m. Speed=11.916000m/h.</desc>
<speed>3.310000</speed>
</trkpt>
<trkpt lat="55.989933" lon="26.460283">
<ele>90.583069</ele>
<time>2010-06-20T09:41:57Z</time>
<desc>lat.=55.989933, lon.=26.460283, Alt.=90.583069m. Speed=11.520000m/h.</desc>
<speed>3.200000</speed>
</trkpt>
<trkpt lat="55.989964" lon="26.460285">
<ele>90.502991</ele>
<time>2010-06-20T09:41:58Z</time>
<desc>lat.=55.989964, lon.=26.460285, Alt.=90.502991m. Speed=9.612000m/h.</desc>
<speed>2.670000</speed>
</trkpt>
<trkpt lat="55.989994" lon="26.460299">
<ele>91.016663</ele>
<time>2010-06-20T09:41:59Z</time>
<desc>lat.=55.989994, lon.=26.460299, Alt.=91.016663m. Speed=9.936000m/h.</desc>
<speed>2.760000</speed>
</trkpt>
<trkpt lat="55.990021" lon="26.460312">
<ele>91.161194</ele>
<time>2010-06-20T09:42:00Z</time>
<desc>lat.=55.990021, lon.=26.460312, Alt.=91.161194m. Speed=9.036000m/h.</desc>
<speed>2.510000</speed>
</trkpt>
<trkpt lat="55.990067" lon="26.460314">
<ele>91.088928</ele>
<time>2010-06-20T09:42:01Z</time>
<desc>lat.=55.990067, lon.=26.460314, Alt.=91.088928m. Speed=10.908000m/h.</desc>
<speed>3.030000</speed>
</trkpt>
<trkpt lat="55.990108" lon="26.460352">
<ele>93.751038</ele>
<time>2010-06-20T09:42:02Z</time>
<desc>lat.=55.990108, lon.=26.460352, Alt.=93.751038m. Speed=8.172000m/h.</desc>
<speed>2.270000</speed>
</trkpt>
<trkpt lat="55.990139" lon="26.460363">
<ele>95.065491</ele>
<time>2010-06-20T09:42:03Z</time>
<desc>lat.=55.990139, lon.=26.460363, Alt.=95.065491m. Speed=8.208000m/h.</desc>
<speed>2.280000</speed>
</trkpt>
<trkpt lat="55.990158" lon="26.460379">
<ele>95.891663</ele>
<time>2010-06-20T09:42:04Z</time>
<desc>lat.=55.990158, lon.=26.460379, Alt.=95.891663m. Speed=7.884000m/h.</desc>
<speed>2.190000</speed>
</trkpt>
<trkpt lat="55.990177" lon="26.460386">
<ele>97.460022</ele>
<time>2010-06-20T09:42:05Z</time>
<desc>lat.=55.990177, lon.=26.460386, Alt.=97.460022m. Speed=8.352000m/h.</desc>
<speed>2.320000</speed>
</trkpt>
<trkpt lat="55.990204" lon="26.460396">
<ele>97.133850</ele>
<time>2010-06-20T09:42:06Z</time>
<desc>lat.=55.990204, lon.=26.460396, Alt.=97.133850m. Speed=8.100000m/h.</desc>
<speed>2.250000</speed>
</trkpt>
<trkpt lat="55.990234" lon="26.460413">
<ele>96.676819</ele>
<time>2010-06-20T09:42:07Z</time>
<desc>lat.=55.990234, lon.=26.460413, Alt.=96.676819m. Speed=10.836000m/h.</desc>
<speed>3.010000</speed>
</trkpt>
<trkpt lat="55.990269" lon="26.460436">
<ele>96.710022</ele>
<time>2010-06-20T09:42:08Z</time>
<desc>lat.=55.990269, lon.=26.460436, Alt.=96.710022m. Speed=14.220000m/h.</desc>
<speed>3.950000</speed>
</trkpt>
<trkpt lat="55.990307" lon="26.460461">
<ele>96.286194</ele>
<time>2010-06-20T09:42:09Z</time>
<desc>lat.=55.990307, lon.=26.460461, Alt.=96.286194m. Speed=16.200001m/h.</desc>
<speed>4.500000</speed>
</trkpt>
<trkpt lat="55.990341" lon="26.460478">
<ele>96.502991</ele>
<time>2010-06-20T09:42:10Z</time>
<desc>lat.=55.990341, lon.=26.460478, Alt.=96.502991m. Speed=15.336000m/h.</desc>
<speed>4.260000</speed>
</trkpt>
<trkpt lat="55.990387" lon="26.460495">
<ele>96.481506</ele>
<time>2010-06-20T09:42:11Z</time>
<desc>lat.=55.990387, lon.=26.460495, Alt.=96.481506m. Speed=17.243999m/h.</desc>
<speed>4.790000</speed>
</trkpt>
<trkpt lat="55.990440" lon="26.460506">
<ele>95.993225</ele>
<time>2010-06-20T09:42:12Z</time>
<desc>lat.=55.990440, lon.=26.460506, Alt.=95.993225m. Speed=18.612000m/h.</desc>
<speed>5.170000</speed>
</trkpt>
<trkpt lat="55.990482" lon="26.460527">
<ele>95.651428</ele>
<time>2010-06-20T09:42:13Z</time>
<desc>lat.=55.990482, lon.=26.460527, Alt.=95.651428m. Speed=18.468000m/h.</desc>
<speed>5.130000</speed>
</trkpt>
<trkpt lat="55.990528" lon="26.460546">
<ele>95.469788</ele>
<time>2010-06-20T09:42:14Z</time>
<desc>lat.=55.990528, lon.=26.460546, Alt.=95.469788m. Speed=16.955999m/h.</desc>
<speed>4.710000</speed>
</trkpt>
<trkpt lat="55.990582" lon="26.460552">
<ele>94.784241</ele>
<time>2010-06-20T09:42:15Z</time>
<desc>lat.=55.990582, lon.=26.460552, Alt.=94.784241m. Speed=15.336000m/h.</desc>
<speed>4.260000</speed>
</trkpt>
<trkpt lat="55.990616" lon="26.460573">
<ele>94.344788</ele>
<time>2010-06-20T09:42:16Z</time>
<desc>lat.=55.990616, lon.=26.460573, Alt.=94.344788m. Speed=16.164000m/h.</desc>
<speed>4.490000</speed>
</trkpt>
<trkpt lat="55.990654" lon="26.460600">
<ele>94.331116</ele>
<time>2010-06-20T09:42:17Z</time>
<desc>lat.=55.990654, lon.=26.460600, Alt.=94.331116m. Speed=16.559999m/h.</desc>
<speed>4.600000</speed>
</trkpt>
<trkpt lat="55.990700" lon="26.460619">
<ele>94.233459</ele>
<time>2010-06-20T09:42:18Z</time>
<desc>lat.=55.990700, lon.=26.460619, Alt.=94.233459m. Speed=16.236000m/h.</desc>
<speed>4.510000</speed>
</trkpt>
<trkpt lat="55.990734" lon="26.460642">
<ele>94.180725</ele>
<time>2010-06-20T09:42:19Z</time>
<desc>lat.=55.990734, lon.=26.460642, Alt.=94.180725m. Speed=15.516000m/h.</desc>
<speed>4.310000</speed>
</trkpt>
<trkpt lat="55.990772" lon="26.460661">
<ele>93.930725</ele>
<time>2010-06-20T09:42:20Z</time>
<desc>lat.=55.990772, lon.=26.460661, Alt.=93.930725m. Speed=15.948000m/h.</desc>
<speed>4.430000</speed>
</trkpt>
<trkpt lat="55.990810" lon="26.460680">
<ele>93.600647</ele>
<time>2010-06-20T09:42:21Z</time>
<desc>lat.=55.990810, lon.=26.460680, Alt.=93.600647m. Speed=15.192000m/h.</desc>
<speed>4.220000</speed>
</trkpt>
<trkpt lat="55.990845" lon="26.460695">
<ele>92.952209</ele>
<time>2010-06-20T09:42:22Z</time>
<desc>lat.=55.990845, lon.=26.460695, Alt.=92.952209m. Speed=14.184000m/h.</desc>
<speed>3.940000</speed>
</trkpt>
<trkpt lat="55.990879" lon="26.460716">
<ele>92.389709</ele>
<time>2010-06-20T09:42:23Z</time>
<desc>lat.=55.990879, lon.=26.460716, Alt.=92.389709m. Speed=12.780000m/h.</desc>
<speed>3.550000</speed>
</trkpt>
<trkpt lat="55.990910" lon="26.460735">
<ele>91.807678</ele>
<time>2010-06-20T09:42:24Z</time>
<desc>lat.=55.990910, lon.=26.460735, Alt.=91.807678m. Speed=13.932000m/h.</desc>
<speed>3.870000</speed>
</trkpt>
<trkpt lat="55.990940" lon="26.460756">
<ele>91.819397</ele>
<time>2010-06-20T09:42:25Z</time>
<desc>lat.=55.990940, lon.=26.460756, Alt.=91.819397m. Speed=13.068000m/h.</desc>
<speed>3.630000</speed>
</trkpt>
<trkpt lat="55.990971" lon="26.460773">
<ele>91.762756</ele>
<time>2010-06-20T09:42:26Z</time>
<desc>lat.=55.990971, lon.=26.460773, Alt.=91.762756m. Speed=12.672000m/h.</desc>
<speed>3.520000</speed>
</trkpt>
<trkpt lat="55.991009" lon="26.460800">
<ele>91.686584</ele>
<time>2010-06-20T09:42:27Z</time>
<desc>lat.=55.991009, lon.=26.460800, Alt.=91.686584m. Speed=14.220000m/h.</desc>
<speed>3.950000</speed>
</trkpt>
<trkpt lat="55.991043" lon="26.460819">
<ele>91.575256</ele>
<time>2010-06-20T09:42:28Z</time>
<desc>lat.=55.991043, lon.=26.460819, Alt.=91.575256m. Speed=12.132000m/h.</desc>
<speed>3.370000</speed>
</trkpt>
<trkpt lat="55.991074" lon="26.460838">
<ele>91.481506</ele>
<time>2010-06-20T09:42:29Z</time>
<desc>lat.=55.991074, lon.=26.460838, Alt.=91.481506m. Speed=11.232000m/h.</desc>
<speed>3.120000</speed>
</trkpt>
<trkpt lat="55.991108" lon="26.460861">
<ele>94.026428</ele>
<time>2010-06-20T09:42:30Z</time>
<desc>lat.=55.991108, lon.=26.460861, Alt.=94.026428m. Speed=11.880000m/h.</desc>
<speed>3.300000</speed>
</trkpt>
<trkpt lat="55.991131" lon="26.460878">
<ele>94.581116</ele>
<time>2010-06-20T09:42:31Z</time>
<desc>lat.=55.991131, lon.=26.460878, Alt.=94.581116m. Speed=10.764000m/h.</desc>
<speed>2.990000</speed>
</trkpt>
<trkpt lat="55.991154" lon="26.460905">
<ele>95.438538</ele>
<time>2010-06-20T09:42:32Z</time>
<desc>lat.=55.991154, lon.=26.460905, Alt.=95.438538m. Speed=10.152000m/h.</desc>
<speed>2.820000</speed>
</trkpt>
<trkpt lat="55.991184" lon="26.460924">
<ele>95.790100</ele>
<time>2010-06-20T09:42:33Z</time>
<desc>lat.=55.991184, lon.=26.460924, Alt.=95.790100m. Speed=11.016000m/h.</desc>
<speed>3.060000</speed>
</trkpt>
<trkpt lat="55.991203" lon="26.460939">
<ele>95.276428</ele>
<time>2010-06-20T09:42:34Z</time>
<desc>lat.=55.991203, lon.=26.460939, Alt.=95.276428m. Speed=10.296000m/h.</desc>
<speed>2.860000</speed>
</trkpt>
<trkpt lat="55.991230" lon="26.460962">
<ele>95.606506</ele>
<time>2010-06-20T09:42:35Z</time>
<desc>lat.=55.991230, lon.=26.460962, Alt.=95.606506m. Speed=10.512000m/h.</desc>
<speed>2.920000</speed>
</trkpt>
<trkpt lat="55.991249" lon="26.460983">
<ele>96.313538</ele>
<time>2010-06-20T09:42:36Z</time>
<desc>lat.=55.991249, lon.=26.460983, Alt.=96.313538m. Speed=9.288000m/h.</desc>
<speed>2.580000</speed>
</trkpt>
<trkpt lat="55.991280" lon="26.460995">
<ele>96.647522</ele>
<time>2010-06-20T09:42:37Z</time>
<desc>lat.=55.991280, lon.=26.460995, Alt.=96.647522m. Speed=10.008000m/h.</desc>
<speed>2.780000</speed>
</trkpt>
<trkpt lat="55.991314" lon="26.461023">
<ele>98.096741</ele>
<time>2010-06-20T09:42:38Z</time>
<desc>lat.=55.991314, lon.=26.461023, Alt.=98.096741m. Speed=12.132000m/h.</desc>
<speed>3.370000</speed>
</trkpt>
<trkpt lat="55.991337" lon="26.461033">
<ele>97.321350</ele>
<time>2010-06-20T09:42:39Z</time>
<desc>lat.=55.991337, lon.=26.461033, Alt.=97.321350m. Speed=12.780000m/h.</desc>
<speed>3.550000</speed>
</trkpt>
<trkpt lat="55.991364" lon="26.461050">
<ele>97.358459</ele>
<time>2010-06-20T09:42:40Z</time>
<desc>lat.=55.991364, lon.=26.461050, Alt.=97.358459m. Speed=11.952000m/h.</desc>
<speed>3.320000</speed>
</trkpt>
<trkpt lat="55.991394" lon="26.461071">
<ele>97.042053</ele>
<time>2010-06-20T09:42:41Z</time>
<desc>lat.=55.991394, lon.=26.461071, Alt.=97.042053m. Speed=11.520000m/h.</desc>
<speed>3.200000</speed>
</trkpt>
<trkpt lat="55.991421" lon="26.461088">
<ele>96.940491</ele>
<time>2010-06-20T09:42:42Z</time>
<desc>lat.=55.991421, lon.=26.461088, Alt.=96.940491m. Speed=10.980000m/h.</desc>
<speed>3.050000</speed>
</trkpt>
<trkpt lat="55.991447" lon="26.461107">
<ele>96.653381</ele>
<time>2010-06-20T09:42:43Z</time>
<desc>lat.=55.991447, lon.=26.461107, Alt.=96.653381m. Speed=10.728000m/h.</desc>
<speed>2.980000</speed>
</trkpt>
<trkpt lat="55.991470" lon="26.461117">
<ele>96.342834</ele>
<time>2010-06-20T09:42:44Z</time>
<desc>lat.=55.991470, lon.=26.461117, Alt.=96.342834m. Speed=10.332000m/h.</desc>
<speed>2.870000</speed>
</trkpt>
<trkpt lat="55.991497" lon="26.461126">
<ele>96.294006</ele>
<time>2010-06-20T09:42:45Z</time>
<desc>lat.=55.991497, lon.=26.461126, Alt.=96.294006m. Speed=9.072000m/h.</desc>
<speed>2.520000</speed>
</trkpt>
<trkpt lat="55.991520" lon="26.461142">
<ele>96.387756</ele>
<time>2010-06-20T09:42:46Z</time>
<desc>lat.=55.991520, lon.=26.461142, Alt.=96.387756m. Speed=8.460000m/h.</desc>
<speed>2.350000</speed>
</trkpt>
<trkpt lat="55.991539" lon="26.461151">
<ele>96.073303</ele>
<time>2010-06-20T09:42:47Z</time>
<desc>lat.=55.991539, lon.=26.461151, Alt.=96.073303m. Speed=8.100000m/h.</desc>
<speed>2.250000</speed>
</trkpt>
<trkpt lat="55.991562" lon="26.461168">
<ele>96.903381</ele>
<time>2010-06-20T09:42:48Z</time>
<desc>lat.=55.991562, lon.=26.461168, Alt.=96.903381m. Speed=7.740000m/h.</desc>
<speed>2.150000</speed>
</trkpt>
<trkpt lat="55.991585" lon="26.461185">
<ele>97.772522</ele>
<time>2010-06-20T09:42:49Z</time>
<desc>lat.=55.991585, lon.=26.461185, Alt.=97.772522m. Speed=8.784000m/h.</desc>
<speed>2.440000</speed>
</trkpt>
<trkpt lat="55.991608" lon="26.461197">
<ele>98.088928</ele>
<time>2010-06-20T09:42:50Z</time>
<desc>lat.=55.991608, lon.=26.461197, Alt.=98.088928m. Speed=10.260000m/h.</desc>
<speed>2.850000</speed>
</trkpt>
<trkpt lat="55.991627" lon="26.461218">
<ele>98.727600</ele>
<time>2010-06-20T09:42:51Z</time>
<desc>lat.=55.991627, lon.=26.461218, Alt.=98.727600m. Speed=9.540000m/h.</desc>
<speed>2.650000</speed>
</trkpt>
<trkpt lat="55.991650" lon="26.461237">
<ele>98.788147</ele>
<time>2010-06-20T09:42:52Z</time>
<desc>lat.=55.991650, lon.=26.461237, Alt.=98.788147m. Speed=9.684000m/h.</desc>
<speed>2.690000</speed>
</trkpt>
<trkpt lat="55.991669" lon="26.461248">
<ele>98.649475</ele>
<time>2010-06-20T09:42:53Z</time>
<desc>lat.=55.991669, lon.=26.461248, Alt.=98.649475m. Speed=11.340000m/h.</desc>
<speed>3.150000</speed>
</trkpt>
<trkpt lat="55.991695" lon="26.461267">
<ele>98.725647</ele>
<time>2010-06-20T09:42:54Z</time>
<desc>lat.=55.991695, lon.=26.461267, Alt.=98.725647m. Speed=9.108000m/h.</desc>
<speed>2.530000</speed>
</trkpt>
<trkpt lat="55.991718" lon="26.461285">
<ele>98.956116</ele>
<time>2010-06-20T09:42:55Z</time>
<desc>lat.=55.991718, lon.=26.461285, Alt.=98.956116m. Speed=10.044000m/h.</desc>
<speed>2.790000</speed>
</trkpt>
<trkpt lat="55.991741" lon="26.461292">
<ele>98.274475</ele>
<time>2010-06-20T09:42:56Z</time>
<desc>lat.=55.991741, lon.=26.461292, Alt.=98.274475m. Speed=8.892000m/h.</desc>
<speed>2.470000</speed>
</trkpt>
<trkpt lat="55.991768" lon="26.461302">
<ele>98.223694</ele>
<time>2010-06-20T09:42:57Z</time>
<desc>lat.=55.991768, lon.=26.461302, Alt.=98.223694m. Speed=10.728000m/h.</desc>
<speed>2.980000</speed>
</trkpt>
<trkpt lat="55.991798" lon="26.461317">
<ele>98.366272</ele>
<time>2010-06-20T09:42:58Z</time>
<desc>lat.=55.991798, lon.=26.461317, Alt.=98.366272m. Speed=9.072000m/h.</desc>
<speed>2.520000</speed>
</trkpt>
<trkpt lat="55.991825" lon="26.461336">
<ele>98.268616</ele>
<time>2010-06-20T09:42:59Z</time>
<desc>lat.=55.991825, lon.=26.461336, Alt.=98.268616m. Speed=10.116000m/h.</desc>
<speed>2.810000</speed>
</trkpt>
<trkpt lat="55.991852" lon="26.461353">
<ele>97.567444</ele>
<time>2010-06-20T09:43:00Z</time>
<desc>lat.=55.991852, lon.=26.461353, Alt.=97.567444m. Speed=12.636000m/h.</desc>
<speed>3.510000</speed>
</trkpt>
<trkpt lat="55.991879" lon="26.461384">
<ele>98.083069</ele>
<time>2010-06-20T09:43:01Z</time>
<desc>lat.=55.991879, lon.=26.461384, Alt.=98.083069m. Speed=12.060000m/h.</desc>
<speed>3.350000</speed>
</trkpt>
<trkpt lat="55.991901" lon="26.461416">
<ele>97.913147</ele>
<time>2010-06-20T09:43:02Z</time>
<desc>lat.=55.991901, lon.=26.461416, Alt.=97.913147m. Speed=11.916000m/h.</desc>
<speed>3.310000</speed>
</trkpt>
<trkpt lat="55.991936" lon="26.461437">
<ele>97.397522</ele>
<time>2010-06-20T09:43:03Z</time>
<desc>lat.=55.991936, lon.=26.461437, Alt.=97.397522m. Speed=13.788000m/h.</desc>
<speed>3.830000</speed>
</trkpt>
<trkpt lat="55.991966" lon="26.461462">
<ele>98.169006</ele>
<time>2010-06-20T09:43:04Z</time>
<desc>lat.=55.991966, lon.=26.461462, Alt.=98.169006m. Speed=14.940000m/h.</desc>
<speed>4.150000</speed>
</trkpt>
<trkpt lat="55.992008" lon="26.461479">
<ele>97.844788</ele>
<time>2010-06-20T09:43:05Z</time>
<desc>lat.=55.992008, lon.=26.461479, Alt.=97.844788m. Speed=16.091999m/h.</desc>
<speed>4.470000</speed>
</trkpt>
<trkpt lat="55.992039" lon="26.461506">
<ele>98.024475</ele>
<time>2010-06-20T09:43:06Z</time>
<desc>lat.=55.992039, lon.=26.461506, Alt.=98.024475m. Speed=15.012000m/h.</desc>
<speed>4.170000</speed>
</trkpt>
<trkpt lat="55.992085" lon="26.461529">
<ele>97.544006</ele>
<time>2010-06-20T09:43:07Z</time>
<desc>lat.=55.992085, lon.=26.461529, Alt.=97.544006m. Speed=15.480000m/h.</desc>
<speed>4.300000</speed>
</trkpt>
<trkpt lat="55.992126" lon="26.461548">
<ele>96.514709</ele>
<time>2010-06-20T09:43:08Z</time>
<desc>lat.=55.992126, lon.=26.461548, Alt.=96.514709m. Speed=17.136000m/h.</desc>
<speed>4.760000</speed>
</trkpt>
<trkpt lat="55.992168" lon="26.461571">
<ele>96.544006</ele>
<time>2010-06-20T09:43:09Z</time>
<desc>lat.=55.992168, lon.=26.461571, Alt.=96.544006m. Speed=15.948000m/h.</desc>
<speed>4.430000</speed>
</trkpt>
<trkpt lat="55.992207" lon="26.461596">
<ele>96.792053</ele>
<time>2010-06-20T09:43:10Z</time>
<desc>lat.=55.992207, lon.=26.461596, Alt.=96.792053m. Speed=13.896000m/h.</desc>
<speed>3.860000</speed>
</trkpt>
<trkpt lat="55.992237" lon="26.461615">
<ele>96.239319</ele>
<time>2010-06-20T09:43:11Z</time>
<desc>lat.=55.992237, lon.=26.461615, Alt.=96.239319m. Speed=13.824000m/h.</desc>
<speed>3.840000</speed>
</trkpt>
<trkpt lat="55.992271" lon="26.461637">
<ele>95.862366</ele>
<time>2010-06-20T09:43:12Z</time>
<desc>lat.=55.992271, lon.=26.461637, Alt.=95.862366m. Speed=15.156000m/h.</desc>
<speed>4.210000</speed>
</trkpt>
<trkpt lat="55.992306" lon="26.461649">
<ele>94.881897</ele>
<time>2010-06-20T09:43:13Z</time>
<desc>lat.=55.992306, lon.=26.461649, Alt.=94.881897m. Speed=13.140000m/h.</desc>
<speed>3.650000</speed>
</trkpt>
<trkpt lat="55.992340" lon="26.461658">
<ele>94.176819</ele>
<time>2010-06-20T09:43:14Z</time>
<desc>lat.=55.992340, lon.=26.461658, Alt.=94.176819m. Speed=13.860000m/h.</desc>
<speed>3.850000</speed>
</trkpt>
<trkpt lat="55.992374" lon="26.461679">
<ele>94.311584</ele>
<time>2010-06-20T09:43:15Z</time>
<desc>lat.=55.992374, lon.=26.461679, Alt.=94.311584m. Speed=14.652000m/h.</desc>
<speed>4.070000</speed>
</trkpt>
<trkpt lat="55.992409" lon="26.461700">
<ele>94.305725</ele>
<time>2010-06-20T09:43:16Z</time>
<desc>lat.=55.992409, lon.=26.461700, Alt.=94.305725m. Speed=13.212000m/h.</desc>
<speed>3.670000</speed>
</trkpt>
<trkpt lat="55.992439" lon="26.461720">
<ele>94.436584</ele>
<time>2010-06-20T09:43:17Z</time>
<desc>lat.=55.992439, lon.=26.461720, Alt.=94.436584m. Speed=12.060000m/h.</desc>
<speed>3.350000</speed>
</trkpt>
<trkpt lat="55.992474" lon="26.461740">
<ele>95.258850</ele>
<time>2010-06-20T09:43:18Z</time>
<desc>lat.=55.992474, lon.=26.461740, Alt.=95.258850m. Speed=10.728000m/h.</desc>
<speed>2.980000</speed>
</trkpt>
<trkpt lat="55.992504" lon="26.461760">
<ele>95.965881</ele>
<time>2010-06-20T09:43:19Z</time>
<desc>lat.=55.992504, lon.=26.461760, Alt.=95.965881m. Speed=9.216000m/h.</desc>
<speed>2.560000</speed>
</trkpt>
<trkpt lat="55.992523" lon="26.461771">
<ele>96.737366</ele>
<time>2010-06-20T09:43:20Z</time>
<desc>lat.=55.992523, lon.=26.461771, Alt.=96.737366m. Speed=7.848000m/h.</desc>
<speed>2.180000</speed>
</trkpt>
<trkpt lat="55.992538" lon="26.461771">
<ele>94.924866</ele>
<time>2010-06-20T09:43:21Z</time>
<desc>lat.=55.992538, lon.=26.461771, Alt.=94.924866m. Speed=6.408000m/h.</desc>
<speed>1.780000</speed>
</trkpt>
<trkpt lat="55.992554" lon="26.461779">
<ele>94.956116</ele>
<time>2010-06-20T09:43:22Z</time>
<desc>lat.=55.992554, lon.=26.461779, Alt.=94.956116m. Speed=4.932000m/h.</desc>
<speed>1.370000</speed>
</trkpt>
<trkpt lat="55.992565" lon="26.461784">
<ele>94.760803</ele>
<time>2010-06-20T09:43:23Z</time>
<desc>lat.=55.992565, lon.=26.461784, Alt.=94.760803m. Speed=7.272000m/h.</desc>
<speed>2.020000</speed>
</trkpt>
<trkpt lat="55.992580" lon="26.461788">
<ele>94.930725</ele>
<time>2010-06-20T09:43:24Z</time>
<desc>lat.=55.992580, lon.=26.461788, Alt.=94.930725m. Speed=6.876000m/h.</desc>
<speed>1.910000</speed>
</trkpt>
<trkpt lat="55.992596" lon="26.461792">
<ele>94.311584</ele>
<time>2010-06-20T09:43:25Z</time>
<desc>lat.=55.992596, lon.=26.461792, Alt.=94.311584m. Speed=8.100000m/h.</desc>
<speed>2.250000</speed>
</trkpt>
<trkpt lat="55.992615" lon="26.461805">
<ele>94.409241</ele>
<time>2010-06-20T09:43:26Z</time>
<desc>lat.=55.992615, lon.=26.461805, Alt.=94.409241m. Speed=8.928000m/h.</desc>
<speed>2.480000</speed>
</trkpt>
<trkpt lat="55.992634" lon="26.461821">
<ele>94.159241</ele>
<time>2010-06-20T09:43:27Z</time>
<desc>lat.=55.992634, lon.=26.461821, Alt.=94.159241m. Speed=9.108000m/h.</desc>
<speed>2.530000</speed>
</trkpt>
<trkpt lat="55.992661" lon="26.461838">
<ele>95.079163</ele>
<time>2010-06-20T09:43:28Z</time>
<desc>lat.=55.992661, lon.=26.461838, Alt.=95.079163m. Speed=9.792000m/h.</desc>
<speed>2.720000</speed>
</trkpt>
<trkpt lat="55.992687" lon="26.461855">
<ele>95.547913</ele>
<time>2010-06-20T09:43:29Z</time>
<desc>lat.=55.992687, lon.=26.461855, Alt.=95.547913m. Speed=12.312000m/h.</desc>
<speed>3.420000</speed>
</trkpt>
<trkpt lat="55.992718" lon="26.461872">
<ele>95.559631</ele>
<time>2010-06-20T09:43:30Z</time>
<desc>lat.=55.992718, lon.=26.461872, Alt.=95.559631m. Speed=11.484000m/h.</desc>
<speed>3.190000</speed>
</trkpt>
<trkpt lat="55.992748" lon="26.461893">
<ele>96.317444</ele>
<time>2010-06-20T09:43:31Z</time>
<desc>lat.=55.992748, lon.=26.461893, Alt.=96.317444m. Speed=13.536000m/h.</desc>
<speed>3.760000</speed>
</trkpt>
<trkpt lat="55.992779" lon="26.461906">
<ele>96.264709</ele>
<time>2010-06-20T09:43:32Z</time>
<desc>lat.=55.992779, lon.=26.461906, Alt.=96.264709m. Speed=12.708000m/h.</desc>
<speed>3.530000</speed>
</trkpt>
<trkpt lat="55.992813" lon="26.461926">
<ele>96.208069</ele>
<time>2010-06-20T09:43:33Z</time>
<desc>lat.=55.992813, lon.=26.461926, Alt.=96.208069m. Speed=13.068000m/h.</desc>
<speed>3.630000</speed>
</trkpt>
<trkpt lat="55.992836" lon="26.461935">
<ele>95.479553</ele>
<time>2010-06-20T09:43:34Z</time>
<desc>lat.=55.992836, lon.=26.461935, Alt.=95.479553m. Speed=13.392000m/h.</desc>
<speed>3.720000</speed>
</trkpt>
<trkpt lat="55.992870" lon="26.461956">
<ele>95.877991</ele>
<time>2010-06-20T09:43:35Z</time>
<desc>lat.=55.992870, lon.=26.461956, Alt.=95.877991m. Speed=12.672000m/h.</desc>
<speed>3.520000</speed>
</trkpt>
<trkpt lat="55.992897" lon="26.461977">
<ele>96.167053</ele>
<time>2010-06-20T09:43:36Z</time>
<desc>lat.=55.992897, lon.=26.461977, Alt.=96.167053m. Speed=12.132000m/h.</desc>
<speed>3.370000</speed>
</trkpt>
<trkpt lat="55.992924" lon="26.461998">
<ele>96.139709</ele>
<time>2010-06-20T09:43:37Z</time>
<desc>lat.=55.992924, lon.=26.461998, Alt.=96.139709m. Speed=11.628000m/h.</desc>
<speed>3.230000</speed>
</trkpt>
<trkpt lat="55.992950" lon="26.462023">
<ele>96.495178</ele>
<time>2010-06-20T09:43:38Z</time>
<desc>lat.=55.992950, lon.=26.462023, Alt.=96.495178m. Speed=11.340000m/h.</desc>
<speed>3.150000</speed>
</trkpt>
<trkpt lat="55.992977" lon="26.462044">
<ele>96.864319</ele>
<time>2010-06-20T09:43:39Z</time>
<desc>lat.=55.992977, lon.=26.462044, Alt.=96.864319m. Speed=11.376000m/h.</desc>
<speed>3.160000</speed>
</trkpt>
<trkpt lat="55.993008" lon="26.462059">
<ele>96.782288</ele>
<time>2010-06-20T09:43:40Z</time>
<desc>lat.=55.993008, lon.=26.462059, Alt.=96.782288m. Speed=14.940000m/h.</desc>
<speed>4.150000</speed>
</trkpt>
<trkpt lat="55.993046" lon="26.462074">
<ele>96.645569</ele>
<time>2010-06-20T09:43:41Z</time>
<desc>lat.=55.993046, lon.=26.462074, Alt.=96.645569m. Speed=13.608000m/h.</desc>
<speed>3.780000</speed>
</trkpt>
<trkpt lat="55.993080" lon="26.462093">
<ele>96.639709</ele>
<time>2010-06-20T09:43:42Z</time>
<desc>lat.=55.993080, lon.=26.462093, Alt.=96.639709m. Speed=11.160000m/h.</desc>
<speed>3.100000</speed>
</trkpt>
<trkpt lat="55.993114" lon="26.462107">
<ele>96.301819</ele>
<time>2010-06-20T09:43:43Z</time>
<desc>lat.=55.993114, lon.=26.462107, Alt.=96.301819m. Speed=11.052000m/h.</desc>
<speed>3.070000</speed>
</trkpt>
<trkpt lat="55.993145" lon="26.462120">
<ele>96.186584</ele>
<time>2010-06-20T09:43:44Z</time>
<desc>lat.=55.993145, lon.=26.462120, Alt.=96.186584m. Speed=10.440000m/h.</desc>
<speed>2.900000</speed>
</trkpt>
<trkpt lat="55.993176" lon="26.462143">
<ele>96.127991</ele>
<time>2010-06-20T09:43:45Z</time>
<desc>lat.=55.993176, lon.=26.462143, Alt.=96.127991m. Speed=11.160000m/h.</desc>
<speed>3.100000</speed>
</trkpt>
<trkpt lat="55.993206" lon="26.462170">
<ele>95.940491</ele>
<time>2010-06-20T09:43:46Z</time>
<desc>lat.=55.993206, lon.=26.462170, Alt.=95.940491m. Speed=12.240000m/h.</desc>
<speed>3.400000</speed>
</trkpt>
<trkpt lat="55.993237" lon="26.462187">
<ele>95.463928</ele>
<time>2010-06-20T09:43:47Z</time>
<desc>lat.=55.993237, lon.=26.462187, Alt.=95.463928m. Speed=12.240000m/h.</desc>
<speed>3.400000</speed>
</trkpt>
<trkpt lat="55.993263" lon="26.462196">
<ele>95.098694</ele>
<time>2010-06-20T09:43:48Z</time>
<desc>lat.=55.993263, lon.=26.462196, Alt.=95.098694m. Speed=10.188000m/h.</desc>
<speed>2.830000</speed>
</trkpt>
<trkpt lat="55.993290" lon="26.462208">
<ele>94.504944</ele>
<time>2010-06-20T09:43:49Z</time>
<desc>lat.=55.993290, lon.=26.462208, Alt.=94.504944m. Speed=10.332000m/h.</desc>
<speed>2.870000</speed>
</trkpt>
<trkpt lat="55.993317" lon="26.462223">
<ele>94.419006</ele>
<time>2010-06-20T09:43:50Z</time>
<desc>lat.=55.993317, lon.=26.462223, Alt.=94.419006m. Speed=12.456000m/h.</desc>
<speed>3.460000</speed>
</trkpt>
<trkpt lat="55.993347" lon="26.462240">
<ele>94.352600</ele>
<time>2010-06-20T09:43:51Z</time>
<desc>lat.=55.993347, lon.=26.462240, Alt.=94.352600m. Speed=12.240000m/h.</desc>
<speed>3.400000</speed>
</trkpt>
<trkpt lat="55.993382" lon="26.462244">
<ele>93.917053</ele>
<time>2010-06-20T09:43:52Z</time>
<desc>lat.=55.993382, lon.=26.462244, Alt.=93.917053m. Speed=11.412000m/h.</desc>
<speed>3.170000</speed>
</trkpt>
<trkpt lat="55.993416" lon="26.462252">
<ele>93.479553</ele>
<time>2010-06-20T09:43:53Z</time>
<desc>lat.=55.993416, lon.=26.462252, Alt.=93.479553m. Speed=12.240000m/h.</desc>
<speed>3.400000</speed>
</trkpt>
<trkpt lat="55.993443" lon="26.462259">
<ele>93.362366</ele>
<time>2010-06-20T09:43:54Z</time>
<desc>lat.=55.993443, lon.=26.462259, Alt.=93.362366m. Speed=10.188000m/h.</desc>
<speed>2.830000</speed>
</trkpt>
<trkpt lat="55.993473" lon="26.462271">
<ele>94.493225</ele>
<time>2010-06-20T09:43:55Z</time>
<desc>lat.=55.993473, lon.=26.462271, Alt.=94.493225m. Speed=8.352000m/h.</desc>
<speed>2.320000</speed>
</trkpt>
<trkpt lat="55.993496" lon="26.462275">
<ele>94.522522</ele>
<time>2010-06-20T09:43:56Z</time>
<desc>lat.=55.993496, lon.=26.462275, Alt.=94.522522m. Speed=7.884000m/h.</desc>
<speed>2.190000</speed>
</trkpt>
<trkpt lat="55.993523" lon="26.462278">
<ele>94.760803</ele>
<time>2010-06-20T09:43:57Z</time>
<desc>lat.=55.993523, lon.=26.462278, Alt.=94.760803m. Speed=10.116000m/h.</desc>
<speed>2.810000</speed>
</trkpt>
<trkpt lat="55.993553" lon="26.462278">
<ele>94.696350</ele>
<time>2010-06-20T09:43:58Z</time>
<desc>lat.=55.993553, lon.=26.462278, Alt.=94.696350m. Speed=9.828000m/h.</desc>
<speed>2.730000</speed>
</trkpt>
<trkpt lat="55.993580" lon="26.462269">
<ele>94.604553</ele>
<time>2010-06-20T09:43:59Z</time>
<desc>lat.=55.993580, lon.=26.462269, Alt.=94.604553m. Speed=10.296000m/h.</desc>
<speed>2.860000</speed>
</trkpt>
<trkpt lat="55.993603" lon="26.462275">
<ele>94.825256</ele>
<time>2010-06-20T09:44:00Z</time>
<desc>lat.=55.993603, lon.=26.462275, Alt.=94.825256m. Speed=9.396000m/h.</desc>
<speed>2.610000</speed>
</trkpt>
<trkpt lat="55.993622" lon="26.462286">
<ele>94.784241</ele>
<time>2010-06-20T09:44:01Z</time>
<desc>lat.=55.993622, lon.=26.462286, Alt.=94.784241m. Speed=8.964000m/h.</desc>
<speed>2.490000</speed>
</trkpt>
<trkpt lat="55.993645" lon="26.462297">
<ele>94.487366</ele>
<time>2010-06-20T09:44:02Z</time>
<desc>lat.=55.993645, lon.=26.462297, Alt.=94.487366m. Speed=10.512000m/h.</desc>
<speed>2.920000</speed>
</trkpt>
<trkpt lat="55.993671" lon="26.462305">
<ele>94.538147</ele>
<time>2010-06-20T09:44:03Z</time>
<desc>lat.=55.993671, lon.=26.462305, Alt.=94.538147m. Speed=12.132000m/h.</desc>
<speed>3.370000</speed>
</trkpt>
<trkpt lat="55.993702" lon="26.462311">
<ele>94.524475</ele>
<time>2010-06-20T09:44:04Z</time>
<desc>lat.=55.993702, lon.=26.462311, Alt.=94.524475m. Speed=12.564000m/h.</desc>
<speed>3.490000</speed>
</trkpt>
<trkpt lat="55.993732" lon="26.462324">
<ele>94.465881</ele>
<time>2010-06-20T09:44:05Z</time>
<desc>lat.=55.993732, lon.=26.462324, Alt.=94.465881m. Speed=10.836000m/h.</desc>
<speed>3.010000</speed>
</trkpt>
<trkpt lat="55.993771" lon="26.462315">
<ele>93.672913</ele>
<time>2010-06-20T09:44:06Z</time>
<desc>lat.=55.993771, lon.=26.462315, Alt.=93.672913m. Speed=12.600000m/h.</desc>
<speed>3.500000</speed>
</trkpt>
<trkpt lat="55.993805" lon="26.462311">
<ele>93.237366</ele>
<time>2010-06-20T09:44:07Z</time>
<desc>lat.=55.993805, lon.=26.462311, Alt.=93.237366m. Speed=12.024000m/h.</desc>
<speed>3.340000</speed>
</trkpt>
<trkpt lat="55.993835" lon="26.462311">
<ele>92.934631</ele>
<time>2010-06-20T09:44:08Z</time>
<desc>lat.=55.993835, lon.=26.462311, Alt.=92.934631m. Speed=9.612000m/h.</desc>
<speed>2.670000</speed>
</trkpt>
<trkpt lat="55.993870" lon="26.462305">
<ele>92.737366</ele>
<time>2010-06-20T09:44:09Z</time>
<desc>lat.=55.993870, lon.=26.462305, Alt.=92.737366m. Speed=9.468000m/h.</desc>
<speed>2.630000</speed>
</trkpt>
<trkpt lat="55.993896" lon="26.462299">
<ele>92.463928</ele>
<time>2010-06-20T09:44:10Z</time>
<desc>lat.=55.993896, lon.=26.462299, Alt.=92.463928m. Speed=10.512000m/h.</desc>
<speed>2.920000</speed>
</trkpt>
<trkpt lat="55.993923" lon="26.462296">
<ele>91.946350</ele>
<time>2010-06-20T09:44:11Z</time>
<desc>lat.=55.993923, lon.=26.462296, Alt.=91.946350m. Speed=10.476000m/h.</desc>
<speed>2.910000</speed>
</trkpt>
<trkpt lat="55.993969" lon="26.462311">
<ele>91.756897</ele>
<time>2010-06-20T09:44:12Z</time>
<desc>lat.=55.993969, lon.=26.462311, Alt.=91.756897m. Speed=13.392000m/h.</desc>
<speed>3.720000</speed>
</trkpt>
<trkpt lat="55.994011" lon="26.462315">
<ele>91.926819</ele>
<time>2010-06-20T09:44:13Z</time>
<desc>lat.=55.994011, lon.=26.462315, Alt.=91.926819m. Speed=12.240000m/h.</desc>
<speed>3.400000</speed>
</trkpt>
<trkpt lat="55.994049" lon="26.462317">
<ele>91.575256</ele>
<time>2010-06-20T09:44:14Z</time>
<desc>lat.=55.994049, lon.=26.462317, Alt.=91.575256m. Speed=15.012000m/h.</desc>
<speed>4.170000</speed>
</trkpt>
<trkpt lat="55.994091" lon="26.462313">
<ele>90.901428</ele>
<time>2010-06-20T09:44:15Z</time>
<desc>lat.=55.994091, lon.=26.462313, Alt.=90.901428m. Speed=15.588000m/h.</desc>
<speed>4.330000</speed>
</trkpt>
<trkpt lat="55.994137" lon="26.462309">
<ele>90.284241</ele>
<time>2010-06-20T09:44:16Z</time>
<desc>lat.=55.994137, lon.=26.462309, Alt.=90.284241m. Speed=13.320000m/h.</desc>
<speed>3.700000</speed>
</trkpt>
<trkpt lat="55.994179" lon="26.462301">
<ele>89.122131</ele>
<time>2010-06-20T09:44:17Z</time>
<desc>lat.=55.994179, lon.=26.462301, Alt.=89.122131m. Speed=11.844000m/h.</desc>
<speed>3.290000</speed>
</trkpt>
<trkpt lat="55.994221" lon="26.462307">
<ele>89.442444</ele>
<time>2010-06-20T09:44:18Z</time>
<desc>lat.=55.994221, lon.=26.462307, Alt.=89.442444m. Speed=12.564000m/h.</desc>
<speed>3.490000</speed>
</trkpt>
<trkpt lat="55.994263" lon="26.462315">
<ele>89.452209</ele>
<time>2010-06-20T09:44:19Z</time>
<desc>lat.=55.994263, lon.=26.462315, Alt.=89.452209m. Speed=12.996000m/h.</desc>
<speed>3.610000</speed>
</trkpt>
<trkpt lat="55.994301" lon="26.462318">
<ele>88.430725</ele>
<time>2010-06-20T09:44:20Z</time>
<desc>lat.=55.994301, lon.=26.462318, Alt.=88.430725m. Speed=13.140000m/h.</desc>
<speed>3.650000</speed>
</trkpt>
<trkpt lat="55.994343" lon="26.462322">
<ele>88.129944</ele>
<time>2010-06-20T09:44:21Z</time>
<desc>lat.=55.994343, lon.=26.462322, Alt.=88.129944m. Speed=13.680000m/h.</desc>
<speed>3.800000</speed>
</trkpt>
<trkpt lat="55.994385" lon="26.462332">
<ele>89.094788</ele>
<time>2010-06-20T09:44:22Z</time>
<desc>lat.=55.994385, lon.=26.462332, Alt.=89.094788m. Speed=14.400000m/h.</desc>
<speed>4.000000</speed>
</trkpt>
<trkpt lat="55.994434" lon="26.462337">
<ele>88.596741</ele>
<time>2010-06-20T09:44:23Z</time>
<desc>lat.=55.994434, lon.=26.462337, Alt.=88.596741m. Speed=15.768000m/h.</desc>
<speed>4.380000</speed>
</trkpt>
<trkpt lat="55.994476" lon="26.462347">
<ele>88.254944</ele>
<time>2010-06-20T09:44:24Z</time>
<desc>lat.=55.994476, lon.=26.462347, Alt.=88.254944m. Speed=16.632000m/h.</desc>
<speed>4.620000</speed>
</trkpt>
<trkpt lat="55.994530" lon="26.462355">
<ele>88.983459</ele>
<time>2010-06-20T09:44:25Z</time>
<desc>lat.=55.994530, lon.=26.462355, Alt.=88.983459m. Speed=16.812000m/h.</desc>
<speed>4.670000</speed>
</trkpt>
<trkpt lat="55.994579" lon="26.462378">
<ele>92.364319</ele>
<time>2010-06-20T09:44:26Z</time>
<desc>lat.=55.994579, lon.=26.462378, Alt.=92.364319m. Speed=15.156000m/h.</desc>
<speed>4.210000</speed>
</trkpt>
<trkpt lat="55.994614" lon="26.462385">
<ele>92.860413</ele>
<time>2010-06-20T09:44:27Z</time>
<desc>lat.=55.994614, lon.=26.462385, Alt.=92.860413m. Speed=12.852000m/h.</desc>
<speed>3.570000</speed>
</trkpt>
<trkpt lat="55.994648" lon="26.462395">
<ele>93.243225</ele>
<time>2010-06-20T09:44:28Z</time>
<desc>lat.=55.994648, lon.=26.462395, Alt.=93.243225m. Speed=12.708000m/h.</desc>
<speed>3.530000</speed>
</trkpt>
<trkpt lat="55.994686" lon="26.462399">
<ele>93.626038</ele>
<time>2010-06-20T09:44:29Z</time>
<desc>lat.=55.994686, lon.=26.462399, Alt.=93.626038m. Speed=12.636000m/h.</desc>
<speed>3.510000</speed>
</trkpt>
<trkpt lat="55.994720" lon="26.462406">
<ele>94.585022</ele>
<time>2010-06-20T09:44:30Z</time>
<desc>lat.=55.994720, lon.=26.462406, Alt.=94.585022m. Speed=11.088000m/h.</desc>
<speed>3.080000</speed>
</trkpt>
<trkpt lat="55.994751" lon="26.462416">
<ele>95.469788</ele>
<time>2010-06-20T09:44:31Z</time>
<desc>lat.=55.994751, lon.=26.462416, Alt.=95.469788m. Speed=11.664000m/h.</desc>
<speed>3.240000</speed>
</trkpt>
<trkpt lat="55.994785" lon="26.462418">
<ele>95.942444</ele>
<time>2010-06-20T09:44:32Z</time>
<desc>lat.=55.994785, lon.=26.462418, Alt.=95.942444m. Speed=13.104000m/h.</desc>
<speed>3.640000</speed>
</trkpt>
<trkpt lat="55.994820" lon="26.462421">
<ele>95.938538</ele>
<time>2010-06-20T09:44:33Z</time>
<desc>lat.=55.994820, lon.=26.462421, Alt.=95.938538m. Speed=12.852000m/h.</desc>
<speed>3.570000</speed>
</trkpt>
<trkpt lat="55.994854" lon="26.462425">
<ele>96.108459</ele>
<time>2010-06-20T09:44:34Z</time>
<desc>lat.=55.994854, lon.=26.462425, Alt.=96.108459m. Speed=13.320000m/h.</desc>
<speed>3.700000</speed>
</trkpt>
<trkpt lat="55.994888" lon="26.462431">
<ele>96.272522</ele>
<time>2010-06-20T09:44:35Z</time>
<desc>lat.=55.994888, lon.=26.462431, Alt.=96.272522m. Speed=13.068000m/h.</desc>
<speed>3.630000</speed>
</trkpt>
<trkpt lat="55.994930" lon="26.462437">
<ele>97.270569</ele>
<time>2010-06-20T09:44:36Z</time>
<desc>lat.=55.994930, lon.=26.462437, Alt.=97.270569m. Speed=14.940000m/h.</desc>
<speed>4.150000</speed>
</trkpt>
<trkpt lat="55.994976" lon="26.462450">
<ele>99.768616</ele>
<time>2010-06-20T09:44:37Z</time>
<desc>lat.=55.994976, lon.=26.462450, Alt.=99.768616m. Speed=14.364000m/h.</desc>
<speed>3.990000</speed>
</trkpt>
<trkpt lat="55.995018" lon="26.462461">
<ele>100.606506</ele>
<time>2010-06-20T09:44:38Z</time>
<desc>lat.=55.995018, lon.=26.462461, Alt.=100.606506m. Speed=16.020000m/h.</desc>
<speed>4.450000</speed>
</trkpt>
<trkpt lat="55.995056" lon="26.462467">
<ele>101.006897</ele>
<time>2010-06-20T09:44:39Z</time>
<desc>lat.=55.995056, lon.=26.462467, Alt.=101.006897m. Speed=13.896000m/h.</desc>
<speed>3.860000</speed>
</trkpt>
<trkpt lat="55.995090" lon="26.462467">
<ele>101.071350</ele>
<time>2010-06-20T09:44:40Z</time>
<desc>lat.=55.995090, lon.=26.462467, Alt.=101.071350m. Speed=11.880000m/h.</desc>
<speed>3.300000</speed>
</trkpt>
<trkpt lat="55.995121" lon="26.462471">
<ele>101.108459</ele>
<time>2010-06-20T09:44:41Z</time>
<desc>lat.=55.995121, lon.=26.462471, Alt.=101.108459m. Speed=12.240000m/h.</desc>
<speed>3.400000</speed>
</trkpt>
<trkpt lat="55.995155" lon="26.462477">
<ele>101.098694</ele>
<time>2010-06-20T09:44:42Z</time>
<desc>lat.=55.995155, lon.=26.462477, Alt.=101.098694m. Speed=12.960000m/h.</desc>
<speed>3.600000</speed>
</trkpt>
<trkpt lat="55.995190" lon="26.462481">
<ele>101.629944</ele>
<time>2010-06-20T09:44:43Z</time>
<desc>lat.=55.995190, lon.=26.462481, Alt.=101.629944m. Speed=14.868000m/h.</desc>
<speed>4.130000</speed>
</trkpt>
<trkpt lat="55.995224" lon="26.462486">
<ele>102.536194</ele>
<time>2010-06-20T09:44:44Z</time>
<desc>lat.=55.995224, lon.=26.462486, Alt.=102.536194m. Speed=13.104000m/h.</desc>
<speed>3.640000</speed>
</trkpt>
<trkpt lat="55.995258" lon="26.462492">
<ele>102.772522</ele>
<time>2010-06-20T09:44:45Z</time>
<desc>lat.=55.995258, lon.=26.462492, Alt.=102.772522m. Speed=11.844000m/h.</desc>
<speed>3.290000</speed>
</trkpt>
<trkpt lat="55.995289" lon="26.462507">
<ele>103.645569</ele>
<time>2010-06-20T09:44:46Z</time>
<desc>lat.=55.995289, lon.=26.462507, Alt.=103.645569m. Speed=12.600000m/h.</desc>
<speed>3.500000</speed>
</trkpt>
<trkpt lat="55.995323" lon="26.462521">
<ele>104.428772</ele>
<time>2010-06-20T09:44:47Z</time>
<desc>lat.=55.995323, lon.=26.462521, Alt.=104.428772m. Speed=13.392000m/h.</desc>
<speed>3.720000</speed>
</trkpt>
<trkpt lat="55.995354" lon="26.462532">
<ele>104.842834</ele>
<time>2010-06-20T09:44:48Z</time>
<desc>lat.=55.995354, lon.=26.462532, Alt.=104.842834m. Speed=14.688000m/h.</desc>
<speed>4.080000</speed>
</trkpt>
<trkpt lat="55.995388" lon="26.462538">
<ele>104.815491</ele>
<time>2010-06-20T09:44:49Z</time>
<desc>lat.=55.995388, lon.=26.462538, Alt.=104.815491m. Speed=14.760000m/h.</desc>
<speed>4.100000</speed>
</trkpt>
<trkpt lat="55.995430" lon="26.462545">
<ele>105.155334</ele>
<time>2010-06-20T09:44:50Z</time>
<desc>lat.=55.995430, lon.=26.462545, Alt.=105.155334m. Speed=16.344000m/h.</desc>
<speed>4.540000</speed>
</trkpt>
<trkpt lat="55.995472" lon="26.462553">
<ele>105.270569</ele>
<time>2010-06-20T09:44:51Z</time>
<desc>lat.=55.995472, lon.=26.462553, Alt.=105.270569m. Speed=16.740000m/h.</desc>
<speed>4.650000</speed>
</trkpt>
<trkpt lat="55.995514" lon="26.462559">
<ele>105.262756</ele>
<time>2010-06-20T09:44:52Z</time>
<desc>lat.=55.995514, lon.=26.462559, Alt.=105.262756m. Speed=16.056000m/h.</desc>
<speed>4.460000</speed>
</trkpt>
<trkpt lat="55.995552" lon="26.462564">
<ele>105.133850</ele>
<time>2010-06-20T09:44:53Z</time>
<desc>lat.=55.995552, lon.=26.462564, Alt.=105.133850m. Speed=13.824000m/h.</desc>
<speed>3.840000</speed>
</trkpt>
<trkpt lat="55.995586" lon="26.462570">
<ele>105.424866</ele>
<time>2010-06-20T09:44:54Z</time>
<desc>lat.=55.995586, lon.=26.462570, Alt.=105.424866m. Speed=14.184000m/h.</desc>
<speed>3.940000</speed>
</trkpt>
<trkpt lat="55.995625" lon="26.462566">
<ele>104.961975</ele>
<time>2010-06-20T09:44:55Z</time>
<desc>lat.=55.995625, lon.=26.462566, Alt.=104.961975m. Speed=14.364000m/h.</desc>
<speed>3.990000</speed>
</trkpt>
<trkpt lat="55.995663" lon="26.462566">
<ele>105.217834</ele>
<time>2010-06-20T09:44:56Z</time>
<desc>lat.=55.995663, lon.=26.462566, Alt.=105.217834m. Speed=15.156000m/h.</desc>
<speed>4.210000</speed>
</trkpt>
<trkpt lat="55.995701" lon="26.462578">
<ele>106.622131</ele>
<time>2010-06-20T09:44:57Z</time>
<desc>lat.=55.995701, lon.=26.462578, Alt.=106.622131m. Speed=14.868000m/h.</desc>
<speed>4.130000</speed>
</trkpt>
<trkpt lat="55.995739" lon="26.462574">
<ele>105.696350</ele>
<time>2010-06-20T09:44:58Z</time>
<desc>lat.=55.995739, lon.=26.462574, Alt.=105.696350m. Speed=15.444000m/h.</desc>
<speed>4.290000</speed>
</trkpt>
<trkpt lat="55.995777" lon="26.462576">
<ele>105.526428</ele>
<time>2010-06-20T09:44:59Z</time>
<desc>lat.=55.995777, lon.=26.462576, Alt.=105.526428m. Speed=15.192000m/h.</desc>
<speed>4.220000</speed>
</trkpt>
<trkpt lat="55.995819" lon="26.462580">
<ele>106.149475</ele>
<time>2010-06-20T09:45:00Z</time>
<desc>lat.=55.995819, lon.=26.462580, Alt.=106.149475m. Speed=16.920000m/h.</desc>
<speed>4.700000</speed>
</trkpt>
<trkpt lat="55.995861" lon="26.462591">
<ele>107.934631</ele>
<time>2010-06-20T09:45:01Z</time>
<desc>lat.=55.995861, lon.=26.462591, Alt.=107.934631m. Speed=17.280001m/h.</desc>
<speed>4.800000</speed>
</trkpt>
<trkpt lat="55.995903" lon="26.462597">
<ele>107.874084</ele>
<time>2010-06-20T09:45:02Z</time>
<desc>lat.=55.995903, lon.=26.462597, Alt.=107.874084m. Speed=16.955999m/h.</desc>
<speed>4.710000</speed>
</trkpt>
<trkpt lat="55.995949" lon="26.462599">
<ele>107.165100</ele>
<time>2010-06-20T09:45:03Z</time>
<desc>lat.=55.995949, lon.=26.462599, Alt.=107.165100m. Speed=19.872000m/h.</desc>
<speed>5.520000</speed>
</trkpt>
<trkpt lat="55.995991" lon="26.462601">
<ele>106.778381</ele>
<time>2010-06-20T09:45:04Z</time>
<desc>lat.=55.995991, lon.=26.462601, Alt.=106.778381m. Speed=17.316000m/h.</desc>
<speed>4.810000</speed>
</trkpt>
<trkpt lat="55.996029" lon="26.462603">
<ele>106.616272</ele>
<time>2010-06-20T09:45:05Z</time>
<desc>lat.=55.996029, lon.=26.462603, Alt.=106.616272m. Speed=13.608000m/h.</desc>
<speed>3.780000</speed>
</trkpt>
<trkpt lat="55.996059" lon="26.462605">
<ele>106.586975</ele>
<time>2010-06-20T09:45:06Z</time>
<desc>lat.=55.996059, lon.=26.462605, Alt.=106.586975m. Speed=12.528000m/h.</desc>
<speed>3.480000</speed>
</trkpt>
<trkpt lat="55.996094" lon="26.462601">
<ele>106.549866</ele>
<time>2010-06-20T09:45:07Z</time>
<desc>lat.=55.996094, lon.=26.462601, Alt.=106.549866m. Speed=14.220000m/h.</desc>
<speed>3.950000</speed>
</trkpt>
<trkpt lat="55.996128" lon="26.462597">
<ele>106.487366</ele>
<time>2010-06-20T09:45:08Z</time>
<desc>lat.=55.996128, lon.=26.462597, Alt.=106.487366m. Speed=14.004000m/h.</desc>
<speed>3.890000</speed>
</trkpt>
<trkpt lat="55.996162" lon="26.462597">
<ele>106.438538</ele>
<time>2010-06-20T09:45:09Z</time>
<desc>lat.=55.996162, lon.=26.462597, Alt.=106.438538m. Speed=15.372000m/h.</desc>
<speed>4.270000</speed>
</trkpt>
<trkpt lat="55.996197" lon="26.462601">
<ele>106.817444</ele>
<time>2010-06-20T09:45:10Z</time>
<desc>lat.=55.996197, lon.=26.462601, Alt.=106.817444m. Speed=13.752000m/h.</desc>
<speed>3.820000</speed>
</trkpt>
<trkpt lat="55.996235" lon="26.462601">
<ele>106.526428</ele>
<time>2010-06-20T09:45:11Z</time>
<desc>lat.=55.996235, lon.=26.462601, Alt.=106.526428m. Speed=13.500000m/h.</desc>
<speed>3.750000</speed>
</trkpt>
<trkpt lat="55.996273" lon="26.462606">
<ele>107.624084</ele>
<time>2010-06-20T09:45:12Z</time>
<desc>lat.=55.996273, lon.=26.462606, Alt.=107.624084m. Speed=13.068000m/h.</desc>
<speed>3.630000</speed>
</trkpt>
<trkpt lat="55.996304" lon="26.462605">
<ele>107.688538</ele>
<time>2010-06-20T09:45:13Z</time>
<desc>lat.=55.996304, lon.=26.462605, Alt.=107.688538m. Speed=11.844000m/h.</desc>
<speed>3.290000</speed>
</trkpt>
<trkpt lat="55.996334" lon="26.462606">
<ele>107.247131</ele>
<time>2010-06-20T09:45:14Z</time>
<desc>lat.=55.996334, lon.=26.462606, Alt.=107.247131m. Speed=11.520000m/h.</desc>
<speed>3.200000</speed>
</trkpt>
<trkpt lat="55.996361" lon="26.462612">
<ele>107.379944</ele>
<time>2010-06-20T09:45:15Z</time>
<desc>lat.=55.996361, lon.=26.462612, Alt.=107.379944m. Speed=11.232000m/h.</desc>
<speed>3.120000</speed>
</trkpt>
<trkpt lat="55.996384" lon="26.462618">
<ele>107.608459</ele>
<time>2010-06-20T09:45:16Z</time>
<desc>lat.=55.996384, lon.=26.462618, Alt.=107.608459m. Speed=11.016000m/h.</desc>
<speed>3.060000</speed>
</trkpt>
<trkpt lat="55.996410" lon="26.462624">
<ele>107.395569</ele>
<time>2010-06-20T09:45:17Z</time>
<desc>lat.=55.996410, lon.=26.462624, Alt.=107.395569m. Speed=10.908000m/h.</desc>
<speed>3.030000</speed>
</trkpt>
<trkpt lat="55.996437" lon="26.462624">
<ele>107.581116</ele>
<time>2010-06-20T09:45:18Z</time>
<desc>lat.=55.996437, lon.=26.462624, Alt.=107.581116m. Speed=10.512000m/h.</desc>
<speed>2.920000</speed>
</trkpt>
<trkpt lat="55.996468" lon="26.462620">
<ele>107.100647</ele>
<time>2010-06-20T09:45:19Z</time>
<desc>lat.=55.996468, lon.=26.462620, Alt.=107.100647m. Speed=13.572000m/h.</desc>
<speed>3.770000</speed>
</trkpt>
<trkpt lat="55.996498" lon="26.462620">
<ele>106.729553</ele>
<time>2010-06-20T09:45:20Z</time>
<desc>lat.=55.996498, lon.=26.462620, Alt.=106.729553m. Speed=12.204000m/h.</desc>
<speed>3.390000</speed>
</trkpt>
<trkpt lat="55.996525" lon="26.462624">
<ele>106.809631</ele>
<time>2010-06-20T09:45:21Z</time>
<desc>lat.=55.996525, lon.=26.462624, Alt.=106.809631m. Speed=12.132000m/h.</desc>
<speed>3.370000</speed>
</trkpt>
<trkpt lat="55.996559" lon="26.462627">
<ele>107.362366</ele>
<time>2010-06-20T09:45:22Z</time>
<desc>lat.=55.996559, lon.=26.462627, Alt.=107.362366m. Speed=12.852000m/h.</desc>
<speed>3.570000</speed>
</trkpt>
<trkpt lat="55.996590" lon="26.462637">
<ele>108.200256</ele>
<time>2010-06-20T09:45:23Z</time>
<desc>lat.=55.996590, lon.=26.462637, Alt.=108.200256m. Speed=12.924000m/h.</desc>
<speed>3.590000</speed>
</trkpt>
<trkpt lat="55.996628" lon="26.462641">
<ele>108.897522</ele>
<time>2010-06-20T09:45:24Z</time>
<desc>lat.=55.996628, lon.=26.462641, Alt.=108.897522m. Speed=14.004000m/h.</desc>
<speed>3.890000</speed>
</trkpt>
<trkpt lat="55.996666" lon="26.462641">
<ele>109.126038</ele>
<time>2010-06-20T09:45:25Z</time>
<desc>lat.=55.996666, lon.=26.462641, Alt.=109.126038m. Speed=14.256000m/h.</desc>
<speed>3.960000</speed>
</trkpt>
<trkpt lat="55.996700" lon="26.462641">
<ele>109.262756</ele>
<time>2010-06-20T09:45:26Z</time>
<desc>lat.=55.996700, lon.=26.462641, Alt.=109.262756m. Speed=15.696000m/h.</desc>
<speed>4.360000</speed>
</trkpt>
<trkpt lat="55.996738" lon="26.462645">
<ele>109.331116</ele>
<time>2010-06-20T09:45:27Z</time>
<desc>lat.=55.996738, lon.=26.462645, Alt.=109.331116m. Speed=15.552000m/h.</desc>
<speed>4.320000</speed>
</trkpt>
<trkpt lat="55.996773" lon="26.462650">
<ele>109.309631</ele>
<time>2010-06-20T09:45:28Z</time>
<desc>lat.=55.996773, lon.=26.462650, Alt.=109.309631m. Speed=15.444000m/h.</desc>
<speed>4.290000</speed>
</trkpt>
<trkpt lat="55.996807" lon="26.462658">
<ele>109.200256</ele>
<time>2010-06-20T09:45:29Z</time>
<desc>lat.=55.996807, lon.=26.462658, Alt.=109.200256m. Speed=16.775999m/h.</desc>
<speed>4.660000</speed>
</trkpt>
<trkpt lat="55.996849" lon="26.462662">
<ele>109.338928</ele>
<time>2010-06-20T09:45:30Z</time>
<desc>lat.=55.996849, lon.=26.462662, Alt.=109.338928m. Speed=16.704000m/h.</desc>
<speed>4.640000</speed>
</trkpt>
<trkpt lat="55.996899" lon="26.462669">
<ele>109.676819</ele>
<time>2010-06-20T09:45:31Z</time>
<desc>lat.=55.996899, lon.=26.462669, Alt.=109.676819m. Speed=18.072001m/h.</desc>
<speed>5.020000</speed>
</trkpt>
<trkpt lat="55.996941" lon="26.462675">
<ele>109.760803</ele>
<time>2010-06-20T09:45:32Z</time>
<desc>lat.=55.996941, lon.=26.462675, Alt.=109.760803m. Speed=17.964001m/h.</desc>
<speed>4.990000</speed>
</trkpt>
<trkpt lat="55.996983" lon="26.462675">
<ele>108.920959</ele>
<time>2010-06-20T09:45:33Z</time>
<desc>lat.=55.996983, lon.=26.462675, Alt.=108.920959m. Speed=17.712000m/h.</desc>
<speed>4.920000</speed>
</trkpt>
<trkpt lat="55.997028" lon="26.462673">
<ele>108.256897</ele>
<time>2010-06-20T09:45:34Z</time>
<desc>lat.=55.997028, lon.=26.462673, Alt.=108.256897m. Speed=17.639999m/h.</desc>
<speed>4.900000</speed>
</trkpt>
<trkpt lat="55.997070" lon="26.462671">
<ele>107.165100</ele>
<time>2010-06-20T09:45:35Z</time>
<desc>lat.=55.997070, lon.=26.462671, Alt.=107.165100m. Speed=17.424000m/h.</desc>
<speed>4.840000</speed>
</trkpt>
<trkpt lat="55.997112" lon="26.462667">
<ele>106.247131</ele>
<time>2010-06-20T09:45:36Z</time>
<desc>lat.=55.997112, lon.=26.462667, Alt.=106.247131m. Speed=17.496000m/h.</desc>
<speed>4.860000</speed>
</trkpt>
<trkpt lat="55.997154" lon="26.462669">
<ele>105.176819</ele>
<time>2010-06-20T09:45:37Z</time>
<desc>lat.=55.997154, lon.=26.462669, Alt.=105.176819m. Speed=16.596001m/h.</desc>
<speed>4.610000</speed>
</trkpt>
<trkpt lat="55.997192" lon="26.462667">
<ele>104.727600</ele>
<time>2010-06-20T09:45:38Z</time>
<desc>lat.=55.997192, lon.=26.462667, Alt.=104.727600m. Speed=15.840000m/h.</desc>
<speed>4.400000</speed>
</trkpt>
<trkpt lat="55.997231" lon="26.462662">
<ele>104.350647</ele>
<time>2010-06-20T09:45:39Z</time>
<desc>lat.=55.997231, lon.=26.462662, Alt.=104.350647m. Speed=14.976000m/h.</desc>
<speed>4.160000</speed>
</trkpt>
<trkpt lat="55.997269" lon="26.462662">
<ele>104.458069</ele>
<time>2010-06-20T09:45:40Z</time>
<desc>lat.=55.997269, lon.=26.462662, Alt.=104.458069m. Speed=14.220000m/h.</desc>
<speed>3.950000</speed>
</trkpt>
<trkpt lat="55.997303" lon="26.462675">
<ele>104.745178</ele>
<time>2010-06-20T09:45:41Z</time>
<desc>lat.=55.997303, lon.=26.462675, Alt.=104.745178m. Speed=12.348000m/h.</desc>
<speed>3.430000</speed>
</trkpt>
<trkpt lat="55.997334" lon="26.462681">
<ele>104.469788</ele>
<time>2010-06-20T09:45:42Z</time>
<desc>lat.=55.997334, lon.=26.462681, Alt.=104.469788m. Speed=11.844000m/h.</desc>
<speed>3.290000</speed>
</trkpt>
<trkpt lat="55.997360" lon="26.462683">
<ele>104.249084</ele>
<time>2010-06-20T09:45:43Z</time>
<desc>lat.=55.997360, lon.=26.462683, Alt.=104.249084m. Speed=10.944000m/h.</desc>
<speed>3.040000</speed>
</trkpt>
<trkpt lat="55.997387" lon="26.462683">
<ele>104.147522</ele>
<time>2010-06-20T09:45:44Z</time>
<desc>lat.=55.997387, lon.=26.462683, Alt.=104.147522m. Speed=10.512000m/h.</desc>
<speed>2.920000</speed>
</trkpt>
<trkpt lat="55.997414" lon="26.462681">
<ele>103.788147</ele>
<time>2010-06-20T09:45:45Z</time>
<desc>lat.=55.997414, lon.=26.462681, Alt.=103.788147m. Speed=9.684000m/h.</desc>
<speed>2.690000</speed>
</trkpt>
<trkpt lat="55.997437" lon="26.462671">
<ele>103.661194</ele>
<time>2010-06-20T09:45:46Z</time>
<desc>lat.=55.997437, lon.=26.462671, Alt.=103.661194m. Speed=10.944000m/h.</desc>
<speed>3.040000</speed>
</trkpt>
<trkpt lat="55.997463" lon="26.462669">
<ele>103.018616</ele>
<time>2010-06-20T09:45:47Z</time>
<desc>lat.=55.997463, lon.=26.462669, Alt.=103.018616m. Speed=9.684000m/h.</desc>
<speed>2.690000</speed>
</trkpt>
<trkpt lat="55.997486" lon="26.462671">
<ele>102.376038</ele>
<time>2010-06-20T09:45:48Z</time>
<desc>lat.=55.997486, lon.=26.462671, Alt.=102.376038m. Speed=9.576000m/h.</desc>
<speed>2.660000</speed>
</trkpt>
<trkpt lat="55.997505" lon="26.462666">
<ele>102.120178</ele>
<time>2010-06-20T09:45:49Z</time>
<desc>lat.=55.997505, lon.=26.462666, Alt.=102.120178m. Speed=9.684000m/h.</desc>
<speed>2.690000</speed>
</trkpt>
<trkpt lat="55.997528" lon="26.462669">
<ele>102.698303</ele>
<time>2010-06-20T09:45:50Z</time>
<desc>lat.=55.997528, lon.=26.462669, Alt.=102.698303m. Speed=9.576000m/h.</desc>
<speed>2.660000</speed>
</trkpt>
<trkpt lat="55.997551" lon="26.462677">
<ele>103.377991</ele>
<time>2010-06-20T09:45:51Z</time>
<desc>lat.=55.997551, lon.=26.462677, Alt.=103.377991m. Speed=11.412000m/h.</desc>
<speed>3.170000</speed>
</trkpt>
<trkpt lat="55.997574" lon="26.462681">
<ele>102.983459</ele>
<time>2010-06-20T09:45:52Z</time>
<desc>lat.=55.997574, lon.=26.462681, Alt.=102.983459m. Speed=9.468000m/h.</desc>
<speed>2.630000</speed>
</trkpt>
<trkpt lat="55.997593" lon="26.462687">
<ele>103.413147</ele>
<time>2010-06-20T09:45:53Z</time>
<desc>lat.=55.997593, lon.=26.462687, Alt.=103.413147m. Speed=9.288000m/h.</desc>
<speed>2.580000</speed>
</trkpt>
<trkpt lat="55.997616" lon="26.462685">
<ele>103.954163</ele>
<time>2010-06-20T09:45:54Z</time>
<desc>lat.=55.997616, lon.=26.462685, Alt.=103.954163m. Speed=10.692000m/h.</desc>
<speed>2.970000</speed>
</trkpt>
<trkpt lat="55.997643" lon="26.462687">
<ele>104.436584</ele>
<time>2010-06-20T09:45:55Z</time>
<desc>lat.=55.997643, lon.=26.462687, Alt.=104.436584m. Speed=10.008000m/h.</desc>
<speed>2.780000</speed>
</trkpt>
<trkpt lat="55.997669" lon="26.462677">
<ele>104.063538</ele>
<time>2010-06-20T09:45:56Z</time>
<desc>lat.=55.997669, lon.=26.462677, Alt.=104.063538m. Speed=11.628000m/h.</desc>
<speed>3.230000</speed>
</trkpt>
<trkpt lat="55.997696" lon="26.462673">
<ele>103.532288</ele>
<time>2010-06-20T09:45:57Z</time>
<desc>lat.=55.997696, lon.=26.462673, Alt.=103.532288m. Speed=10.980000m/h.</desc>
<speed>3.050000</speed>
</trkpt>
<trkpt lat="55.997730" lon="26.462677">
<ele>103.653381</ele>
<time>2010-06-20T09:45:58Z</time>
<desc>lat.=55.997730, lon.=26.462677, Alt.=103.653381m. Speed=11.808000m/h.</desc>
<speed>3.280000</speed>
</trkpt>
<trkpt lat="55.997757" lon="26.462681">
<ele>103.629944</ele>
<time>2010-06-20T09:45:59Z</time>
<desc>lat.=55.997757, lon.=26.462681, Alt.=103.629944m. Speed=10.692000m/h.</desc>
<speed>2.970000</speed>
</trkpt>
<trkpt lat="55.997784" lon="26.462683">
<ele>103.198303</ele>
<time>2010-06-20T09:46:00Z</time>
<desc>lat.=55.997784, lon.=26.462683, Alt.=103.198303m. Speed=10.152000m/h.</desc>
<speed>2.820000</speed>
</trkpt>
<trkpt lat="55.997810" lon="26.462685">
<ele>103.553772</ele>
<time>2010-06-20T09:46:01Z</time>
<desc>lat.=55.997810, lon.=26.462685, Alt.=103.553772m. Speed=10.404000m/h.</desc>
<speed>2.890000</speed>
</trkpt>
<trkpt lat="55.997837" lon="26.462685">
<ele>103.590881</ele>
<time>2010-06-20T09:46:02Z</time>
<desc>lat.=55.997837, lon.=26.462685, Alt.=103.590881m. Speed=11.340000m/h.</desc>
<speed>3.150000</speed>
</trkpt>
<trkpt lat="55.997864" lon="26.462683">
<ele>102.596741</ele>
<time>2010-06-20T09:46:03Z</time>
<desc>lat.=55.997864, lon.=26.462683, Alt.=102.596741m. Speed=11.124000m/h.</desc>
<speed>3.090000</speed>
</trkpt>
<trkpt lat="55.997894" lon="26.462687">
<ele>101.764709</ele>
<time>2010-06-20T09:46:04Z</time>
<desc>lat.=55.997894, lon.=26.462687, Alt.=101.764709m. Speed=11.484000m/h.</desc>
<speed>3.190000</speed>
</trkpt>
<trkpt lat="55.997925" lon="26.462690">
<ele>101.110413</ele>
<time>2010-06-20T09:46:05Z</time>
<desc>lat.=55.997925, lon.=26.462690, Alt.=101.110413m. Speed=12.276000m/h.</desc>
<speed>3.410000</speed>
</trkpt>
<trkpt lat="55.997955" lon="26.462692">
<ele>101.647522</ele>
<time>2010-06-20T09:46:06Z</time>
<desc>lat.=55.997955, lon.=26.462692, Alt.=101.647522m. Speed=12.924000m/h.</desc>
<speed>3.590000</speed>
</trkpt>
<trkpt lat="55.997993" lon="26.462694">
<ele>101.866272</ele>
<time>2010-06-20T09:46:07Z</time>
<desc>lat.=55.997993, lon.=26.462694, Alt.=101.866272m. Speed=13.824000m/h.</desc>
<speed>3.840000</speed>
</trkpt>
<trkpt lat="55.998028" lon="26.462690">
<ele>101.405334</ele>
<time>2010-06-20T09:46:08Z</time>
<desc>lat.=55.998028, lon.=26.462690, Alt.=101.405334m. Speed=14.436000m/h.</desc>
<speed>4.010000</speed>
</trkpt>
<trkpt lat="55.998062" lon="26.462692">
<ele>101.198303</ele>
<time>2010-06-20T09:46:09Z</time>
<desc>lat.=55.998062, lon.=26.462692, Alt.=101.198303m. Speed=15.768000m/h.</desc>
<speed>4.380000</speed>
</trkpt>
<trkpt lat="55.998104" lon="26.462694">
<ele>100.323303</ele>
<time>2010-06-20T09:46:10Z</time>
<desc>lat.=55.998104, lon.=26.462694, Alt.=100.323303m. Speed=16.236000m/h.</desc>
<speed>4.510000</speed>
</trkpt>
<trkpt lat="55.998142" lon="26.462692">
<ele>99.631897</ele>
<time>2010-06-20T09:46:11Z</time>
<desc>lat.=55.998142, lon.=26.462692, Alt.=99.631897m. Speed=17.316000m/h.</desc>
<speed>4.810000</speed>
</trkpt>
<trkpt lat="55.998184" lon="26.462683">
<ele>99.092834</ele>
<time>2010-06-20T09:46:12Z</time>
<desc>lat.=55.998184, lon.=26.462683, Alt.=99.092834m. Speed=16.308001m/h.</desc>
<speed>4.530000</speed>
</trkpt>
<trkpt lat="55.998226" lon="26.462673">
<ele>98.924866</ele>
<time>2010-06-20T09:46:13Z</time>
<desc>lat.=55.998226, lon.=26.462673, Alt.=98.924866m. Speed=17.243999m/h.</desc>
<speed>4.790000</speed>
</trkpt>
<trkpt lat="55.998268" lon="26.462664">
<ele>98.667053</ele>
<time>2010-06-20T09:46:14Z</time>
<desc>lat.=55.998268, lon.=26.462664, Alt.=98.667053m. Speed=17.496000m/h.</desc>
<speed>4.860000</speed>
</trkpt>
<trkpt lat="55.998314" lon="26.462662">
<ele>99.292053</ele>
<time>2010-06-20T09:46:15Z</time>
<desc>lat.=55.998314, lon.=26.462662, Alt.=99.292053m. Speed=17.747999m/h.</desc>
<speed>4.930000</speed>
</trkpt>
<trkpt lat="55.998356" lon="26.462658">
<ele>99.155334</ele>
<time>2010-06-20T09:46:16Z</time>
<desc>lat.=55.998356, lon.=26.462658, Alt.=99.155334m. Speed=18.000000m/h.</desc>
<speed>5.000000</speed>
</trkpt>
<trkpt lat="55.998402" lon="26.462652">
<ele>98.899475</ele>
<time>2010-06-20T09:46:17Z</time>
<desc>lat.=55.998402, lon.=26.462652, Alt.=98.899475m. Speed=17.676001m/h.</desc>
<speed>4.910000</speed>
</trkpt>
<trkpt lat="55.998444" lon="26.462641">
<ele>98.606506</ele>
<time>2010-06-20T09:46:18Z</time>
<desc>lat.=55.998444, lon.=26.462641, Alt.=98.606506m. Speed=17.280001m/h.</desc>
<speed>4.800000</speed>
</trkpt>
<trkpt lat="55.998486" lon="26.462631">
<ele>98.467834</ele>
<time>2010-06-20T09:46:19Z</time>
<desc>lat.=55.998486, lon.=26.462631, Alt.=98.467834m. Speed=17.063999m/h.</desc>
<speed>4.740000</speed>
</trkpt>
<trkpt lat="55.998531" lon="26.462633">
<ele>100.670959</ele>
<time>2010-06-20T09:46:20Z</time>
<desc>lat.=55.998531, lon.=26.462633, Alt.=100.670959m. Speed=16.992001m/h.</desc>
<speed>4.720000</speed>
</trkpt>
<trkpt lat="55.998566" lon="26.462624">
<ele>100.518616</ele>
<time>2010-06-20T09:46:21Z</time>
<desc>lat.=55.998566, lon.=26.462624, Alt.=100.518616m. Speed=15.768000m/h.</desc>
<speed>4.380000</speed>
</trkpt>
<trkpt lat="55.998600" lon="26.462616">
<ele>100.397522</ele>
<time>2010-06-20T09:46:22Z</time>
<desc>lat.=55.998600, lon.=26.462616, Alt.=100.397522m. Speed=14.940000m/h.</desc>
<speed>4.150000</speed>
</trkpt>
<trkpt lat="55.998638" lon="26.462610">
<ele>100.385803</ele>
<time>2010-06-20T09:46:23Z</time>
<desc>lat.=55.998638, lon.=26.462610, Alt.=100.385803m. Speed=14.220000m/h.</desc>
<speed>3.950000</speed>
</trkpt>
<trkpt lat="55.998672" lon="26.462601">
<ele>100.569397</ele>
<time>2010-06-20T09:46:24Z</time>
<desc>lat.=55.998672, lon.=26.462601, Alt.=100.569397m. Speed=13.392000m/h.</desc>
<speed>3.720000</speed>
</trkpt>
<trkpt lat="55.998707" lon="26.462587">
<ele>100.817444</ele>
<time>2010-06-20T09:46:25Z</time>
<desc>lat.=55.998707, lon.=26.462587, Alt.=100.817444m. Speed=13.644000m/h.</desc>
<speed>3.790000</speed>
</trkpt>
<trkpt lat="55.998741" lon="26.462574">
<ele>100.885803</ele>
<time>2010-06-20T09:46:26Z</time>
<desc>lat.=55.998741, lon.=26.462574, Alt.=100.885803m. Speed=14.256000m/h.</desc>
<speed>3.960000</speed>
</trkpt>
<trkpt lat="55.998783" lon="26.462561">
<ele>100.752991</ele>
<time>2010-06-20T09:46:27Z</time>
<desc>lat.=55.998783, lon.=26.462561, Alt.=100.752991m. Speed=15.228000m/h.</desc>
<speed>4.230000</speed>
</trkpt>
<trkpt lat="55.998821" lon="26.462555">
<ele>100.782288</ele>
<time>2010-06-20T09:46:28Z</time>
<desc>lat.=55.998821, lon.=26.462555, Alt.=100.782288m. Speed=14.724000m/h.</desc>
<speed>4.090000</speed>
</trkpt>
<trkpt lat="55.998859" lon="26.462549">
<ele>101.237366</ele>
<time>2010-06-20T09:46:29Z</time>
<desc>lat.=55.998859, lon.=26.462549, Alt.=101.237366m. Speed=15.300000m/h.</desc>
<speed>4.250000</speed>
</trkpt>
<trkpt lat="55.998898" lon="26.462528">
<ele>100.852600</ele>
<time>2010-06-20T09:46:30Z</time>
<desc>lat.=55.998898, lon.=26.462528, Alt.=100.852600m. Speed=15.336000m/h.</desc>
<speed>4.260000</speed>
</trkpt>
<trkpt lat="55.998936" lon="26.462523">
<ele>100.559631</ele>
<time>2010-06-20T09:46:31Z</time>
<desc>lat.=55.998936, lon.=26.462523, Alt.=100.559631m. Speed=15.156000m/h.</desc>
<speed>4.210000</speed>
</trkpt>
<trkpt lat="55.998970" lon="26.462515">
<ele>101.335022</ele>
<time>2010-06-20T09:46:32Z</time>
<desc>lat.=55.998970, lon.=26.462515, Alt.=101.335022m. Speed=15.372000m/h.</desc>
<speed>4.270000</speed>
</trkpt>
<trkpt lat="55.999004" lon="26.462494">
<ele>99.399475</ele>
<time>2010-06-20T09:46:33Z</time>
<desc>lat.=55.999004, lon.=26.462494, Alt.=99.399475m. Speed=11.988000m/h.</desc>
<speed>3.330000</speed>
</trkpt>
<trkpt lat="55.999039" lon="26.462486">
<ele>99.905334</ele>
<time>2010-06-20T09:46:34Z</time>
<desc>lat.=55.999039, lon.=26.462486, Alt.=99.905334m. Speed=14.976000m/h.</desc>
<speed>4.160000</speed>
</trkpt>
<trkpt lat="55.999077" lon="26.462471">
<ele>100.231506</ele>
<time>2010-06-20T09:46:35Z</time>
<desc>lat.=55.999077, lon.=26.462471, Alt.=100.231506m. Speed=14.580000m/h.</desc>
<speed>4.050000</speed>
</trkpt>
<trkpt lat="55.999115" lon="26.462460">
<ele>100.362366</ele>
<time>2010-06-20T09:46:36Z</time>
<desc>lat.=55.999115, lon.=26.462460, Alt.=100.362366m. Speed=14.868000m/h.</desc>
<speed>4.130000</speed>
</trkpt>
<trkpt lat="55.999149" lon="26.462450">
<ele>100.487366</ele>
<time>2010-06-20T09:46:37Z</time>
<desc>lat.=55.999149, lon.=26.462450, Alt.=100.487366m. Speed=14.580000m/h.</desc>
<speed>4.050000</speed>
</trkpt>
<trkpt lat="55.999184" lon="26.462439">
<ele>100.545959</ele>
<time>2010-06-20T09:46:38Z</time>
<desc>lat.=55.999184, lon.=26.462439, Alt.=100.545959m. Speed=14.472000m/h.</desc>
<speed>4.020000</speed>
</trkpt>
<trkpt lat="55.999218" lon="26.462425">
<ele>100.645569</ele>
<time>2010-06-20T09:46:39Z</time>
<desc>lat.=55.999218, lon.=26.462425, Alt.=100.645569m. Speed=13.536000m/h.</desc>
<speed>3.760000</speed>
</trkpt>
<trkpt lat="55.999249" lon="26.462418">
<ele>100.948303</ele>
<time>2010-06-20T09:46:40Z</time>
<desc>lat.=55.999249, lon.=26.462418, Alt.=100.948303m. Speed=11.952000m/h.</desc>
<speed>3.320000</speed>
</trkpt>
<trkpt lat="55.999279" lon="26.462408">
<ele>100.872131</ele>
<time>2010-06-20T09:46:41Z</time>
<desc>lat.=55.999279, lon.=26.462408, Alt.=100.872131m. Speed=12.024000m/h.</desc>
<speed>3.340000</speed>
</trkpt>
<trkpt lat="55.999310" lon="26.462402">
<ele>101.419006</ele>
<time>2010-06-20T09:46:42Z</time>
<desc>lat.=55.999310, lon.=26.462402, Alt.=101.419006m. Speed=12.024000m/h.</desc>
<speed>3.340000</speed>
</trkpt>
<trkpt lat="55.999340" lon="26.462395">
<ele>101.856506</ele>
<time>2010-06-20T09:46:43Z</time>
<desc>lat.=55.999340, lon.=26.462395, Alt.=101.856506m. Speed=12.168000m/h.</desc>
<speed>3.380000</speed>
</trkpt>
<trkpt lat="55.999371" lon="26.462391">
<ele>102.118225</ele>
<time>2010-06-20T09:46:44Z</time>
<desc>lat.=55.999371, lon.=26.462391, Alt.=102.118225m. Speed=11.880000m/h.</desc>
<speed>3.300000</speed>
</trkpt>
<trkpt lat="55.999397" lon="26.462387">
<ele>102.473694</ele>
<time>2010-06-20T09:46:45Z</time>
<desc>lat.=55.999397, lon.=26.462387, Alt.=102.473694m. Speed=10.188000m/h.</desc>
<speed>2.830000</speed>
</trkpt>
<trkpt lat="55.999428" lon="26.462383">
<ele>103.540100</ele>
<time>2010-06-20T09:46:46Z</time>
<desc>lat.=55.999428, lon.=26.462383, Alt.=103.540100m. Speed=11.196000m/h.</desc>
<speed>3.110000</speed>
</trkpt>
<trkpt lat="55.999454" lon="26.462372">
<ele>103.862366</ele>
<time>2010-06-20T09:46:47Z</time>
<desc>lat.=55.999454, lon.=26.462372, Alt.=103.862366m. Speed=10.944000m/h.</desc>
<speed>3.040000</speed>
</trkpt>
<trkpt lat="55.999485" lon="26.462362">
<ele>103.979553</ele>
<time>2010-06-20T09:46:48Z</time>
<desc>lat.=55.999485, lon.=26.462362, Alt.=103.979553m. Speed=11.844000m/h.</desc>
<speed>3.290000</speed>
</trkpt>
<trkpt lat="55.999512" lon="26.462358">
<ele>104.344788</ele>
<time>2010-06-20T09:46:49Z</time>
<desc>lat.=55.999512, lon.=26.462358, Alt.=104.344788m. Speed=10.116000m/h.</desc>
<speed>2.810000</speed>
</trkpt>
<trkpt lat="55.999535" lon="26.462351">
<ele>104.711975</ele>
<time>2010-06-20T09:46:50Z</time>
<desc>lat.=55.999535, lon.=26.462351, Alt.=104.711975m. Speed=10.764000m/h.</desc>
<speed>2.990000</speed>
</trkpt>
<trkpt lat="55.999565" lon="26.462339">
<ele>105.274475</ele>
<time>2010-06-20T09:46:51Z</time>
<desc>lat.=55.999565, lon.=26.462339, Alt.=105.274475m. Speed=10.908000m/h.</desc>
<speed>3.030000</speed>
</trkpt>
<trkpt lat="55.999596" lon="26.462334">
<ele>105.842834</ele>
<time>2010-06-20T09:46:52Z</time>
<desc>lat.=55.999596, lon.=26.462334, Alt.=105.842834m. Speed=12.456000m/h.</desc>
<speed>3.460000</speed>
</trkpt>
<trkpt lat="55.999626" lon="26.462326">
<ele>106.450256</ele>
<time>2010-06-20T09:46:53Z</time>
<desc>lat.=55.999626, lon.=26.462326, Alt.=106.450256m. Speed=12.744000m/h.</desc>
<speed>3.540000</speed>
</trkpt>
<trkpt lat="55.999657" lon="26.462317">
<ele>107.057678</ele>
<time>2010-06-20T09:46:54Z</time>
<desc>lat.=55.999657, lon.=26.462317, Alt.=107.057678m. Speed=11.880000m/h.</desc>
<speed>3.300000</speed>
</trkpt>
<trkpt lat="55.999687" lon="26.462303">
<ele>107.733459</ele>
<time>2010-06-20T09:46:55Z</time>
<desc>lat.=55.999687, lon.=26.462303, Alt.=107.733459m. Speed=12.348000m/h.</desc>
<speed>3.430000</speed>
</trkpt>
<trkpt lat="55.999722" lon="26.462294">
<ele>108.473694</ele>
<time>2010-06-20T09:46:56Z</time>
<desc>lat.=55.999722, lon.=26.462294, Alt.=108.473694m. Speed=12.060000m/h.</desc>
<speed>3.350000</speed>
</trkpt>
<trkpt lat="55.999767" lon="26.462278">
<ele>109.735413</ele>
<time>2010-06-20T09:46:57Z</time>
<desc>lat.=55.999767, lon.=26.462278, Alt.=109.735413m. Speed=13.248000m/h.</desc>
<speed>3.680000</speed>
</trkpt>
<trkpt lat="55.999794" lon="26.462254">
<ele>106.790100</ele>
<time>2010-06-20T09:46:58Z</time>
<desc>lat.=55.999794, lon.=26.462254, Alt.=106.790100m. Speed=12.708000m/h.</desc>
<speed>3.530000</speed>
</trkpt>
<trkpt lat="55.999825" lon="26.462236">
<ele>106.434631</ele>
<time>2010-06-20T09:46:59Z</time>
<desc>lat.=55.999825, lon.=26.462236, Alt.=106.434631m. Speed=13.536000m/h.</desc>
<speed>3.760000</speed>
</trkpt>
<trkpt lat="55.999863" lon="26.462221">
<ele>106.930725</ele>
<time>2010-06-20T09:47:00Z</time>
<desc>lat.=55.999863, lon.=26.462221, Alt.=106.930725m. Speed=14.040000m/h.</desc>
<speed>3.900000</speed>
</trkpt>
<trkpt lat="55.999905" lon="26.462202">
<ele>107.614319</ele>
<time>2010-06-20T09:47:01Z</time>
<desc>lat.=55.999905, lon.=26.462202, Alt.=107.614319m. Speed=14.004000m/h.</desc>
<speed>3.890000</speed>
</trkpt>
<trkpt lat="55.999947" lon="26.462193">
<ele>106.971741</ele>
<time>2010-06-20T09:47:02Z</time>
<desc>lat.=55.999947, lon.=26.462193, Alt.=106.971741m. Speed=13.680000m/h.</desc>
<speed>3.800000</speed>
</trkpt>
<trkpt lat="55.999985" lon="26.462187">
<ele>106.588928</ele>
<time>2010-06-20T09:47:03Z</time>
<desc>lat.=55.999985, lon.=26.462187, Alt.=106.588928m. Speed=13.752000m/h.</desc>
<speed>3.820000</speed>
</trkpt>
<trkpt lat="56.000015" lon="26.462170">
<ele>107.065491</ele>
<time>2010-06-20T09:47:04Z</time>
<desc>lat.=56.000015, lon.=26.462170, Alt.=107.065491m. Speed=14.256000m/h.</desc>
<speed>3.960000</speed>
</trkpt>
<trkpt lat="56.000053" lon="26.462152">
<ele>107.858459</ele>
<time>2010-06-20T09:47:05Z</time>
<desc>lat.=56.000053, lon.=26.462152, Alt.=107.858459m. Speed=14.112000m/h.</desc>
<speed>3.920000</speed>
</trkpt>
<trkpt lat="56.000088" lon="26.462139">
<ele>108.305725</ele>
<time>2010-06-20T09:47:06Z</time>
<desc>lat.=56.000088, lon.=26.462139, Alt.=108.305725m. Speed=15.120000m/h.</desc>
<speed>4.200000</speed>
</trkpt>
<trkpt lat="56.000134" lon="26.462122">
<ele>108.131897</ele>
<time>2010-06-20T09:47:07Z</time>
<desc>lat.=56.000134, lon.=26.462122, Alt.=108.131897m. Speed=16.128000m/h.</desc>
<speed>4.480000</speed>
</trkpt>
<trkpt lat="56.000172" lon="26.462103">
<ele>108.598694</ele>
<time>2010-06-20T09:47:08Z</time>
<desc>lat.=56.000172, lon.=26.462103, Alt.=108.598694m. Speed=14.904000m/h.</desc>
<speed>4.140000</speed>
</trkpt>
<trkpt lat="56.000210" lon="26.462078">
<ele>107.881897</ele>
<time>2010-06-20T09:47:09Z</time>
<desc>lat.=56.000210, lon.=26.462078, Alt.=107.881897m. Speed=14.292000m/h.</desc>
<speed>3.970000</speed>
</trkpt>
<trkpt lat="56.000244" lon="26.462053">
<ele>107.883850</ele>
<time>2010-06-20T09:47:10Z</time>
<desc>lat.=56.000244, lon.=26.462053, Alt.=107.883850m. Speed=14.220000m/h.</desc>
<speed>3.950000</speed>
</trkpt>
<trkpt lat="56.000278" lon="26.462030">
<ele>107.465881</ele>
<time>2010-06-20T09:47:11Z</time>
<desc>lat.=56.000278, lon.=26.462030, Alt.=107.465881m. Speed=14.400000m/h.</desc>
<speed>4.000000</speed>
</trkpt>
<trkpt lat="56.000313" lon="26.462006">
<ele>106.735413</ele>
<time>2010-06-20T09:47:12Z</time>
<desc>lat.=56.000313, lon.=26.462006, Alt.=106.735413m. Speed=14.040000m/h.</desc>
<speed>3.900000</speed>
</trkpt>
<trkpt lat="56.000336" lon="26.461987">
<ele>106.637756</ele>
<time>2010-06-20T09:47:13Z</time>
<desc>lat.=56.000336, lon.=26.461987, Alt.=106.637756m. Speed=10.548000m/h.</desc>
<speed>2.930000</speed>
</trkpt>
<trkpt lat="56.000374" lon="26.461981">
<ele>106.329163</ele>
<time>2010-06-20T09:47:14Z</time>
<desc>lat.=56.000374, lon.=26.461981, Alt.=106.329163m. Speed=11.736000m/h.</desc>
<speed>3.260000</speed>
</trkpt>
<trkpt lat="56.000397" lon="26.461979">
<ele>106.235413</ele>
<time>2010-06-20T09:47:15Z</time>
<desc>lat.=56.000397, lon.=26.461979, Alt.=106.235413m. Speed=10.908000m/h.</desc>
<speed>3.030000</speed>
</trkpt>
<trkpt lat="56.000431" lon="26.461979">
<ele>106.585022</ele>
<time>2010-06-20T09:47:16Z</time>
<desc>lat.=56.000431, lon.=26.461979, Alt.=106.585022m. Speed=11.808000m/h.</desc>
<speed>3.280000</speed>
</trkpt>
<trkpt lat="56.000469" lon="26.461971">
<ele>106.831116</ele>
<time>2010-06-20T09:47:17Z</time>
<desc>lat.=56.000469, lon.=26.461971, Alt.=106.831116m. Speed=14.832000m/h.</desc>
<speed>4.120000</speed>
</trkpt>
<trkpt lat="56.000511" lon="26.461960">
<ele>107.286194</ele>
<time>2010-06-20T09:47:18Z</time>
<desc>lat.=56.000511, lon.=26.461960, Alt.=107.286194m. Speed=14.940000m/h.</desc>
<speed>4.150000</speed>
</trkpt>
<trkpt lat="56.000549" lon="26.461948">
<ele>107.172913</ele>
<time>2010-06-20T09:47:19Z</time>
<desc>lat.=56.000549, lon.=26.461948, Alt.=107.172913m. Speed=15.660000m/h.</desc>
<speed>4.350000</speed>
</trkpt>
<trkpt lat="56.000591" lon="26.461937">
<ele>107.522522</ele>
<time>2010-06-20T09:47:20Z</time>
<desc>lat.=56.000591, lon.=26.461937, Alt.=107.522522m. Speed=16.559999m/h.</desc>
<speed>4.600000</speed>
</trkpt>
<trkpt lat="56.000641" lon="26.461905">
<ele>107.852600</ele>
<time>2010-06-20T09:47:21Z</time>
<desc>lat.=56.000641, lon.=26.461905, Alt.=107.852600m. Speed=18.288000m/h.</desc>
<speed>5.080000</speed>
</trkpt>
<trkpt lat="56.000679" lon="26.461882">
<ele>107.797913</ele>
<time>2010-06-20T09:47:22Z</time>
<desc>lat.=56.000679, lon.=26.461882, Alt.=107.797913m. Speed=18.468000m/h.</desc>
<speed>5.130000</speed>
</trkpt>
<trkpt lat="56.000725" lon="26.461866">
<ele>108.010803</ele>
<time>2010-06-20T09:47:23Z</time>
<desc>lat.=56.000725, lon.=26.461866, Alt.=108.010803m. Speed=17.063999m/h.</desc>
<speed>4.740000</speed>
</trkpt>
<trkpt lat="56.000767" lon="26.461853">
<ele>108.305725</ele>
<time>2010-06-20T09:47:24Z</time>
<desc>lat.=56.000767, lon.=26.461853, Alt.=108.305725m. Speed=16.812000m/h.</desc>
<speed>4.670000</speed>
</trkpt>
<trkpt lat="56.000809" lon="26.461828">
<ele>108.260803</ele>
<time>2010-06-20T09:47:25Z</time>
<desc>lat.=56.000809, lon.=26.461828, Alt.=108.260803m. Speed=15.804000m/h.</desc>
<speed>4.390000</speed>
</trkpt>
<trkpt lat="56.000847" lon="26.461815">
<ele>108.338928</ele>
<time>2010-06-20T09:47:26Z</time>
<desc>lat.=56.000847, lon.=26.461815, Alt.=108.338928m. Speed=14.976000m/h.</desc>
<speed>4.160000</speed>
</trkpt>
<trkpt lat="56.000885" lon="26.461796">
<ele>108.131897</ele>
<time>2010-06-20T09:47:27Z</time>
<desc>lat.=56.000885, lon.=26.461796, Alt.=108.131897m. Speed=15.768000m/h.</desc>
<speed>4.380000</speed>
</trkpt>
<trkpt lat="56.000927" lon="26.461781">
<ele>108.231506</ele>
<time>2010-06-20T09:47:28Z</time>
<desc>lat.=56.000927, lon.=26.461781, Alt.=108.231506m. Speed=16.308001m/h.</desc>
<speed>4.530000</speed>
</trkpt>
<trkpt lat="56.000961" lon="26.461767">
<ele>108.545959</ele>
<time>2010-06-20T09:47:29Z</time>
<desc>lat.=56.000961, lon.=26.461767, Alt.=108.545959m. Speed=15.084000m/h.</desc>
<speed>4.190000</speed>
</trkpt>
<trkpt lat="56.000999" lon="26.461748">
<ele>108.040100</ele>
<time>2010-06-20T09:47:30Z</time>
<desc>lat.=56.000999, lon.=26.461748, Alt.=108.040100m. Speed=14.076000m/h.</desc>
<speed>3.910000</speed>
</trkpt>
<trkpt lat="56.001030" lon="26.461739">
<ele>107.942444</ele>
<time>2010-06-20T09:47:31Z</time>
<desc>lat.=56.001030, lon.=26.461739, Alt.=107.942444m. Speed=13.032000m/h.</desc>
<speed>3.620000</speed>
</trkpt>
<trkpt lat="56.001060" lon="26.461723">
<ele>107.805725</ele>
<time>2010-06-20T09:47:32Z</time>
<desc>lat.=56.001060, lon.=26.461723, Alt.=107.805725m. Speed=12.528000m/h.</desc>
<speed>3.480000</speed>
</trkpt>
<trkpt lat="56.001091" lon="26.461714">
<ele>107.254944</ele>
<time>2010-06-20T09:47:33Z</time>
<desc>lat.=56.001091, lon.=26.461714, Alt.=107.254944m. Speed=10.944000m/h.</desc>
<speed>3.040000</speed>
</trkpt>
<trkpt lat="56.001122" lon="26.461710">
<ele>107.590881</ele>
<time>2010-06-20T09:47:34Z</time>
<desc>lat.=56.001122, lon.=26.461710, Alt.=107.590881m. Speed=10.800000m/h.</desc>
<speed>3.000000</speed>
</trkpt>
<trkpt lat="56.001148" lon="26.461704">
<ele>106.629944</ele>
<time>2010-06-20T09:47:35Z</time>
<desc>lat.=56.001148, lon.=26.461704, Alt.=106.629944m. Speed=10.224000m/h.</desc>
<speed>2.840000</speed>
</trkpt>
<trkpt lat="56.001167" lon="26.461697">
<ele>106.313538</ele>
<time>2010-06-20T09:47:36Z</time>
<desc>lat.=56.001167, lon.=26.461697, Alt.=106.313538m. Speed=8.568000m/h.</desc>
<speed>2.380000</speed>
</trkpt>
<trkpt lat="56.001186" lon="26.461695">
<ele>106.440491</ele>
<time>2010-06-20T09:47:37Z</time>
<desc>lat.=56.001186, lon.=26.461695, Alt.=106.440491m. Speed=8.172000m/h.</desc>
<speed>2.270000</speed>
</trkpt>
<trkpt lat="56.001202" lon="26.461687">
<ele>106.631897</ele>
<time>2010-06-20T09:47:38Z</time>
<desc>lat.=56.001202, lon.=26.461687, Alt.=106.631897m. Speed=7.164000m/h.</desc>
<speed>1.990000</speed>
</trkpt>
<trkpt lat="56.001221" lon="26.461683">
<ele>106.460022</ele>
<time>2010-06-20T09:47:39Z</time>
<desc>lat.=56.001221, lon.=26.461683, Alt.=106.460022m. Speed=6.624000m/h.</desc>
<speed>1.840000</speed>
</trkpt>
<trkpt lat="56.001240" lon="26.461678">
<ele>106.481506</ele>
<time>2010-06-20T09:47:40Z</time>
<desc>lat.=56.001240, lon.=26.461678, Alt.=106.481506m. Speed=6.012000m/h.</desc>
<speed>1.670000</speed>
</trkpt>
<trkpt lat="56.001255" lon="26.461670">
<ele>106.252991</ele>
<time>2010-06-20T09:47:41Z</time>
<desc>lat.=56.001255, lon.=26.461670, Alt.=106.252991m. Speed=7.632000m/h.</desc>
<speed>2.120000</speed>
</trkpt>
<trkpt lat="56.001270" lon="26.461662">
<ele>105.682678</ele>
<time>2010-06-20T09:47:42Z</time>
<desc>lat.=56.001270, lon.=26.461662, Alt.=105.682678m. Speed=6.984000m/h.</desc>
<speed>1.940000</speed>
</trkpt>
<trkpt lat="56.001282" lon="26.461653">
<ele>104.967834</ele>
<time>2010-06-20T09:47:43Z</time>
<desc>lat.=56.001282, lon.=26.461653, Alt.=104.967834m. Speed=6.012000m/h.</desc>
<speed>1.670000</speed>
</trkpt>
<trkpt lat="56.001301" lon="26.461649">
<ele>104.813538</ele>
<time>2010-06-20T09:47:44Z</time>
<desc>lat.=56.001301, lon.=26.461649, Alt.=104.813538m. Speed=6.012000m/h.</desc>
<speed>1.670000</speed>
</trkpt>
<trkpt lat="56.001316" lon="26.461643">
<ele>104.448303</ele>
<time>2010-06-20T09:47:45Z</time>
<desc>lat.=56.001316, lon.=26.461643, Alt.=104.448303m. Speed=5.904000m/h.</desc>
<speed>1.640000</speed>
</trkpt>
<trkpt lat="56.001335" lon="26.461632">
<ele>104.305725</ele>
<time>2010-06-20T09:47:46Z</time>
<desc>lat.=56.001335, lon.=26.461632, Alt.=104.305725m. Speed=7.488000m/h.</desc>
<speed>2.080000</speed>
</trkpt>
<trkpt lat="56.001354" lon="26.461615">
<ele>104.715881</ele>
<time>2010-06-20T09:47:47Z</time>
<desc>lat.=56.001354, lon.=26.461615, Alt.=104.715881m. Speed=6.948000m/h.</desc>
<speed>1.930000</speed>
</trkpt>
<trkpt lat="56.001373" lon="26.461607">
<ele>104.364319</ele>
<time>2010-06-20T09:47:48Z</time>
<desc>lat.=56.001373, lon.=26.461607, Alt.=104.364319m. Speed=8.028000m/h.</desc>
<speed>2.230000</speed>
</trkpt>
<trkpt lat="56.001392" lon="26.461613">
<ele>104.942444</ele>
<time>2010-06-20T09:47:49Z</time>
<desc>lat.=56.001392, lon.=26.461613, Alt.=104.942444m. Speed=7.920000m/h.</desc>
<speed>2.200000</speed>
</trkpt>
<trkpt lat="56.001419" lon="26.461613">
<ele>105.756897</ele>
<time>2010-06-20T09:47:50Z</time>
<desc>lat.=56.001419, lon.=26.461613, Alt.=105.756897m. Speed=7.164000m/h.</desc>
<speed>1.990000</speed>
</trkpt>
<trkpt lat="56.001438" lon="26.461615">
<ele>106.227600</ele>
<time>2010-06-20T09:47:51Z</time>
<desc>lat.=56.001438, lon.=26.461615, Alt.=106.227600m. Speed=6.084000m/h.</desc>
<speed>1.690000</speed>
</trkpt>
<trkpt lat="56.001450" lon="26.461620">
<ele>107.075256</ele>
<time>2010-06-20T09:47:52Z</time>
<desc>lat.=56.001450, lon.=26.461620, Alt.=107.075256m. Speed=8.136000m/h.</desc>
<speed>2.260000</speed>
</trkpt>
<trkpt lat="56.001472" lon="26.461599">
<ele>107.684631</ele>
<time>2010-06-20T09:47:53Z</time>
<desc>lat.=56.001472, lon.=26.461599, Alt.=107.684631m. Speed=7.056000m/h.</desc>
<speed>1.960000</speed>
</trkpt>
<trkpt lat="56.001488" lon="26.461594">
<ele>107.377991</ele>
<time>2010-06-20T09:47:54Z</time>
<desc>lat.=56.001488, lon.=26.461594, Alt.=107.377991m. Speed=6.912000m/h.</desc>
<speed>1.920000</speed>
</trkpt>
<trkpt lat="56.001511" lon="26.461588">
<ele>107.696350</ele>
<time>2010-06-20T09:47:55Z</time>
<desc>lat.=56.001511, lon.=26.461588, Alt.=107.696350m. Speed=6.840000m/h.</desc>
<speed>1.900000</speed>
</trkpt>
<trkpt lat="56.001530" lon="26.461578">
<ele>107.348694</ele>
<time>2010-06-20T09:47:56Z</time>
<desc>lat.=56.001530, lon.=26.461578, Alt.=107.348694m. Speed=9.072000m/h.</desc>
<speed>2.520000</speed>
</trkpt>
<trkpt lat="56.001553" lon="26.461565">
<ele>107.206116</ele>
<time>2010-06-20T09:47:57Z</time>
<desc>lat.=56.001553, lon.=26.461565, Alt.=107.206116m. Speed=10.368000m/h.</desc>
<speed>2.880000</speed>
</trkpt>
<trkpt lat="56.001575" lon="26.461559">
<ele>107.877991</ele>
<time>2010-06-20T09:47:58Z</time>
<desc>lat.=56.001575, lon.=26.461559, Alt.=107.877991m. Speed=11.052000m/h.</desc>
<speed>3.070000</speed>
</trkpt>
<trkpt lat="56.001602" lon="26.461548">
<ele>107.483459</ele>
<time>2010-06-20T09:47:59Z</time>
<desc>lat.=56.001602, lon.=26.461548, Alt.=107.483459m. Speed=12.348000m/h.</desc>
<speed>3.430000</speed>
</trkpt>
<trkpt lat="56.001633" lon="26.461536">
<ele>106.920959</ele>
<time>2010-06-20T09:48:00Z</time>
<desc>lat.=56.001633, lon.=26.461536, Alt.=106.920959m. Speed=12.996000m/h.</desc>
<speed>3.610000</speed>
</trkpt>
<trkpt lat="56.001667" lon="26.461525">
<ele>106.624084</ele>
<time>2010-06-20T09:48:01Z</time>
<desc>lat.=56.001667, lon.=26.461525, Alt.=106.624084m. Speed=14.328000m/h.</desc>
<speed>3.980000</speed>
</trkpt>
<trkpt lat="56.001705" lon="26.461508">
<ele>106.450256</ele>
<time>2010-06-20T09:48:02Z</time>
<desc>lat.=56.001705, lon.=26.461508, Alt.=106.450256m. Speed=14.796000m/h.</desc>
<speed>4.110000</speed>
</trkpt>
<trkpt lat="56.001743" lon="26.461494">
<ele>106.692444</ele>
<time>2010-06-20T09:48:03Z</time>
<desc>lat.=56.001743, lon.=26.461494, Alt.=106.692444m. Speed=15.660000m/h.</desc>
<speed>4.350000</speed>
</trkpt>
<trkpt lat="56.001785" lon="26.461479">
<ele>106.655334</ele>
<time>2010-06-20T09:48:04Z</time>
<desc>lat.=56.001785, lon.=26.461479, Alt.=106.655334m. Speed=16.524000m/h.</desc>
<speed>4.590000</speed>
</trkpt>
<trkpt lat="56.001827" lon="26.461464">
<ele>106.161194</ele>
<time>2010-06-20T09:48:05Z</time>
<desc>lat.=56.001827, lon.=26.461464, Alt.=106.161194m. Speed=17.316000m/h.</desc>
<speed>4.810000</speed>
</trkpt>
<trkpt lat="56.001873" lon="26.461454">
<ele>106.356506</ele>
<time>2010-06-20T09:48:06Z</time>
<desc>lat.=56.001873, lon.=26.461454, Alt.=106.356506m. Speed=17.712000m/h.</desc>
<speed>4.920000</speed>
</trkpt>
<trkpt lat="56.001915" lon="26.461443">
<ele>106.241272</ele>
<time>2010-06-20T09:48:07Z</time>
<desc>lat.=56.001915, lon.=26.461443, Alt.=106.241272m. Speed=15.588000m/h.</desc>
<speed>4.330000</speed>
</trkpt>
<trkpt lat="56.001949" lon="26.461432">
<ele>106.409241</ele>
<time>2010-06-20T09:48:08Z</time>
<desc>lat.=56.001949, lon.=26.461432, Alt.=106.409241m. Speed=15.156000m/h.</desc>
<speed>4.210000</speed>
</trkpt>
<trkpt lat="56.001987" lon="26.461422">
<ele>106.813538</ele>
<time>2010-06-20T09:48:09Z</time>
<desc>lat.=56.001987, lon.=26.461422, Alt.=106.813538m. Speed=14.472000m/h.</desc>
<speed>4.020000</speed>
</trkpt>
<trkpt lat="56.002018" lon="26.461412">
<ele>107.028381</ele>
<time>2010-06-20T09:48:10Z</time>
<desc>lat.=56.002018, lon.=26.461412, Alt.=107.028381m. Speed=13.824000m/h.</desc>
<speed>3.840000</speed>
</trkpt>
<trkpt lat="56.002048" lon="26.461399">
<ele>106.907288</ele>
<time>2010-06-20T09:48:11Z</time>
<desc>lat.=56.002048, lon.=26.461399, Alt.=106.907288m. Speed=12.960000m/h.</desc>
<speed>3.600000</speed>
</trkpt>
<trkpt lat="56.002079" lon="26.461390">
<ele>106.372131</ele>
<time>2010-06-20T09:48:12Z</time>
<desc>lat.=56.002079, lon.=26.461390, Alt.=106.372131m. Speed=13.392000m/h.</desc>
<speed>3.720000</speed>
</trkpt>
<trkpt lat="56.002113" lon="26.461378">
<ele>105.975647</ele>
<time>2010-06-20T09:48:13Z</time>
<desc>lat.=56.002113, lon.=26.461378, Alt.=105.975647m. Speed=14.040000m/h.</desc>
<speed>3.900000</speed>
</trkpt>
<trkpt lat="56.002151" lon="26.461367">
<ele>105.919006</ele>
<time>2010-06-20T09:48:14Z</time>
<desc>lat.=56.002151, lon.=26.461367, Alt.=105.919006m. Speed=15.084000m/h.</desc>
<speed>4.190000</speed>
</trkpt>
<trkpt lat="56.002186" lon="26.461351">
<ele>105.758850</ele>
<time>2010-06-20T09:48:15Z</time>
<desc>lat.=56.002186, lon.=26.461351, Alt.=105.758850m. Speed=15.012000m/h.</desc>
<speed>4.170000</speed>
</trkpt>
<trkpt lat="56.002220" lon="26.461332">
<ele>105.329163</ele>
<time>2010-06-20T09:48:16Z</time>
<desc>lat.=56.002220, lon.=26.461332, Alt.=105.329163m. Speed=15.516000m/h.</desc>
<speed>4.310000</speed>
</trkpt>
<trkpt lat="56.002262" lon="26.461315">
<ele>104.874084</ele>
<time>2010-06-20T09:48:17Z</time>
<desc>lat.=56.002262, lon.=26.461315, Alt.=104.874084m. Speed=15.912000m/h.</desc>
<speed>4.420000</speed>
</trkpt>
<trkpt lat="56.002304" lon="26.461302">
<ele>104.549866</ele>
<time>2010-06-20T09:48:18Z</time>
<desc>lat.=56.002304, lon.=26.461302, Alt.=104.549866m. Speed=16.524000m/h.</desc>
<speed>4.590000</speed>
</trkpt>
<trkpt lat="56.002342" lon="26.461288">
<ele>104.452209</ele>
<time>2010-06-20T09:48:19Z</time>
<desc>lat.=56.002342, lon.=26.461288, Alt.=104.452209m. Speed=16.056000m/h.</desc>
<speed>4.460000</speed>
</trkpt>
<trkpt lat="56.002380" lon="26.461271">
<ele>103.971741</ele>
<time>2010-06-20T09:48:20Z</time>
<desc>lat.=56.002380, lon.=26.461271, Alt.=103.971741m. Speed=15.516000m/h.</desc>
<speed>4.310000</speed>
</trkpt>
<trkpt lat="56.002415" lon="26.461258">
<ele>104.278381</ele>
<time>2010-06-20T09:48:21Z</time>
<desc>lat.=56.002415, lon.=26.461258, Alt.=104.278381m. Speed=15.264000m/h.</desc>
<speed>4.240000</speed>
</trkpt>
<trkpt lat="56.002453" lon="26.461245">
<ele>104.356506</ele>
<time>2010-06-20T09:48:22Z</time>
<desc>lat.=56.002453, lon.=26.461245, Alt.=104.356506m. Speed=13.608000m/h.</desc>
<speed>3.780000</speed>
</trkpt>
<trkpt lat="56.002491" lon="26.461252">
<ele>103.958069</ele>
<time>2010-06-20T09:48:23Z</time>
<desc>lat.=56.002491, lon.=26.461252, Alt.=103.958069m. Speed=14.796000m/h.</desc>
<speed>4.110000</speed>
</trkpt>
<trkpt lat="56.002529" lon="26.461245">
<ele>104.417053</ele>
<time>2010-06-20T09:48:24Z</time>
<desc>lat.=56.002529, lon.=26.461245, Alt.=104.417053m. Speed=15.516000m/h.</desc>
<speed>4.310000</speed>
</trkpt>
<trkpt lat="56.002563" lon="26.461224">
<ele>102.444397</ele>
<time>2010-06-20T09:48:25Z</time>
<desc>lat.=56.002563, lon.=26.461224, Alt.=102.444397m. Speed=15.624000m/h.</desc>
<speed>4.340000</speed>
</trkpt>
<trkpt lat="56.002605" lon="26.461212">
<ele>102.547913</ele>
<time>2010-06-20T09:48:26Z</time>
<desc>lat.=56.002605, lon.=26.461212, Alt.=102.547913m. Speed=15.372000m/h.</desc>
<speed>4.270000</speed>
</trkpt>
<trkpt lat="56.002644" lon="26.461205">
<ele>102.391663</ele>
<time>2010-06-20T09:48:27Z</time>
<desc>lat.=56.002644, lon.=26.461205, Alt.=102.391663m. Speed=14.508000m/h.</desc>
<speed>4.030000</speed>
</trkpt>
<trkpt lat="56.002682" lon="26.461195">
<ele>102.635803</ele>
<time>2010-06-20T09:48:28Z</time>
<desc>lat.=56.002682, lon.=26.461195, Alt.=102.635803m. Speed=13.644000m/h.</desc>
<speed>3.790000</speed>
</trkpt>
<trkpt lat="56.002716" lon="26.461185">
<ele>102.829163</ele>
<time>2010-06-20T09:48:29Z</time>
<desc>lat.=56.002716, lon.=26.461185, Alt.=102.829163m. Speed=13.680000m/h.</desc>
<speed>3.800000</speed>
</trkpt>
<trkpt lat="56.002747" lon="26.461176">
<ele>102.323303</ele>
<time>2010-06-20T09:48:30Z</time>
<desc>lat.=56.002747, lon.=26.461176, Alt.=102.323303m. Speed=12.852000m/h.</desc>
<speed>3.570000</speed>
</trkpt>
<trkpt lat="56.002781" lon="26.461172">
<ele>101.887756</ele>
<time>2010-06-20T09:48:31Z</time>
<desc>lat.=56.002781, lon.=26.461172, Alt.=101.887756m. Speed=14.400000m/h.</desc>
<speed>4.000000</speed>
</trkpt>
<trkpt lat="56.002819" lon="26.461163">
<ele>101.635803</ele>
<time>2010-06-20T09:48:32Z</time>
<desc>lat.=56.002819, lon.=26.461163, Alt.=101.635803m. Speed=15.804000m/h.</desc>
<speed>4.390000</speed>
</trkpt>
<trkpt lat="56.002861" lon="26.461153">
<ele>101.465881</ele>
<time>2010-06-20T09:48:33Z</time>
<desc>lat.=56.002861, lon.=26.461153, Alt.=101.465881m. Speed=16.056000m/h.</desc>
<speed>4.460000</speed>
</trkpt>
<trkpt lat="56.002899" lon="26.461147">
<ele>101.278381</ele>
<time>2010-06-20T09:48:34Z</time>
<desc>lat.=56.002899, lon.=26.461147, Alt.=101.278381m. Speed=15.732000m/h.</desc>
<speed>4.370000</speed>
</trkpt>
<trkpt lat="56.002945" lon="26.461142">
<ele>101.456116</ele>
<time>2010-06-20T09:48:35Z</time>
<desc>lat.=56.002945, lon.=26.461142, Alt.=101.456116m. Speed=16.344000m/h.</desc>
<speed>4.540000</speed>
</trkpt>
<trkpt lat="56.002987" lon="26.461138">
<ele>101.639709</ele>
<time>2010-06-20T09:48:36Z</time>
<desc>lat.=56.002987, lon.=26.461138, Alt.=101.639709m. Speed=16.884001m/h.</desc>
<speed>4.690000</speed>
</trkpt>
<trkpt lat="56.003029" lon="26.461136">
<ele>102.217834</ele>
<time>2010-06-20T09:48:37Z</time>
<desc>lat.=56.003029, lon.=26.461136, Alt.=102.217834m. Speed=16.632000m/h.</desc>
<speed>4.620000</speed>
</trkpt>
<trkpt lat="56.003071" lon="26.461128">
<ele>102.405334</ele>
<time>2010-06-20T09:48:38Z</time>
<desc>lat.=56.003071, lon.=26.461128, Alt.=102.405334m. Speed=16.632000m/h.</desc>
<speed>4.620000</speed>
</trkpt>
<trkpt lat="56.003113" lon="26.461130">
<ele>103.606506</ele>
<time>2010-06-20T09:48:39Z</time>
<desc>lat.=56.003113, lon.=26.461130, Alt.=103.606506m. Speed=16.667999m/h.</desc>
<speed>4.630000</speed>
</trkpt>
<trkpt lat="56.003155" lon="26.461121">
<ele>103.301819</ele>
<time>2010-06-20T09:48:40Z</time>
<desc>lat.=56.003155, lon.=26.461121, Alt.=103.301819m. Speed=16.559999m/h.</desc>
<speed>4.600000</speed>
</trkpt>
<trkpt lat="56.003193" lon="26.461111">
<ele>102.952209</ele>
<time>2010-06-20T09:48:41Z</time>
<desc>lat.=56.003193, lon.=26.461111, Alt.=102.952209m. Speed=16.416000m/h.</desc>
<speed>4.560000</speed>
</trkpt>
<trkpt lat="56.003235" lon="26.461109">
<ele>103.698303</ele>
<time>2010-06-20T09:48:42Z</time>
<desc>lat.=56.003235, lon.=26.461109, Alt.=103.698303m. Speed=16.128000m/h.</desc>
<speed>4.480000</speed>
</trkpt>
<trkpt lat="56.003277" lon="26.461105">
<ele>103.565491</ele>
<time>2010-06-20T09:48:43Z</time>
<desc>lat.=56.003277, lon.=26.461105, Alt.=103.565491m. Speed=15.984000m/h.</desc>
<speed>4.440000</speed>
</trkpt>
<trkpt lat="56.003319" lon="26.461100">
<ele>103.254944</ele>
<time>2010-06-20T09:48:44Z</time>
<desc>lat.=56.003319, lon.=26.461100, Alt.=103.254944m. Speed=15.696000m/h.</desc>
<speed>4.360000</speed>
</trkpt>
<trkpt lat="56.003361" lon="26.461094">
<ele>103.872131</ele>
<time>2010-06-20T09:48:45Z</time>
<desc>lat.=56.003361, lon.=26.461094, Alt.=103.872131m. Speed=16.308001m/h.</desc>
<speed>4.530000</speed>
</trkpt>
<trkpt lat="56.003407" lon="26.461100">
<ele>104.622131</ele>
<time>2010-06-20T09:48:46Z</time>
<desc>lat.=56.003407, lon.=26.461100, Alt.=104.622131m. Speed=15.192000m/h.</desc>
<speed>4.220000</speed>
</trkpt>
<trkpt lat="56.003445" lon="26.461100">
<ele>104.471741</ele>
<time>2010-06-20T09:48:47Z</time>
<desc>lat.=56.003445, lon.=26.461100, Alt.=104.471741m. Speed=14.652000m/h.</desc>
<speed>4.070000</speed>
</trkpt>
<trkpt lat="56.003483" lon="26.461096">
<ele>104.266663</ele>
<time>2010-06-20T09:48:48Z</time>
<desc>lat.=56.003483, lon.=26.461096, Alt.=104.266663m. Speed=13.932000m/h.</desc>
<speed>3.870000</speed>
</trkpt>
<trkpt lat="56.003510" lon="26.461092">
<ele>104.335022</ele>
<time>2010-06-20T09:48:49Z</time>
<desc>lat.=56.003510, lon.=26.461092, Alt.=104.335022m. Speed=10.944000m/h.</desc>
<speed>3.040000</speed>
</trkpt>
<trkpt lat="56.003540" lon="26.461075">
<ele>104.448303</ele>
<time>2010-06-20T09:48:50Z</time>
<desc>lat.=56.003540, lon.=26.461075, Alt.=104.448303m. Speed=11.556000m/h.</desc>
<speed>3.210000</speed>
</trkpt>
<trkpt lat="56.003574" lon="26.461058">
<ele>104.727600</ele>
<time>2010-06-20T09:48:51Z</time>
<desc>lat.=56.003574, lon.=26.461058, Alt.=104.727600m. Speed=13.392000m/h.</desc>
<speed>3.720000</speed>
</trkpt>
<trkpt lat="56.003613" lon="26.461056">
<ele>104.762756</ele>
<time>2010-06-20T09:48:52Z</time>
<desc>lat.=56.003613, lon.=26.461056, Alt.=104.762756m. Speed=13.968000m/h.</desc>
<speed>3.880000</speed>
</trkpt>
<trkpt lat="56.003647" lon="26.461056">
<ele>104.909241</ele>
<time>2010-06-20T09:48:53Z</time>
<desc>lat.=56.003647, lon.=26.461056, Alt.=104.909241m. Speed=13.536000m/h.</desc>
<speed>3.760000</speed>
</trkpt>
<trkpt lat="56.003681" lon="26.461052">
<ele>104.961975</ele>
<time>2010-06-20T09:48:54Z</time>
<desc>lat.=56.003681, lon.=26.461052, Alt.=104.961975m. Speed=13.464000m/h.</desc>
<speed>3.740000</speed>
</trkpt>
<trkpt lat="56.003716" lon="26.461050">
<ele>105.315491</ele>
<time>2010-06-20T09:48:55Z</time>
<desc>lat.=56.003716, lon.=26.461050, Alt.=105.315491m. Speed=13.176000m/h.</desc>
<speed>3.660000</speed>
</trkpt>
<trkpt lat="56.003750" lon="26.461046">
<ele>105.131897</ele>
<time>2010-06-20T09:48:56Z</time>
<desc>lat.=56.003750, lon.=26.461046, Alt.=105.131897m. Speed=12.060000m/h.</desc>
<speed>3.350000</speed>
</trkpt>
<trkpt lat="56.003780" lon="26.461048">
<ele>105.083069</ele>
<time>2010-06-20T09:48:57Z</time>
<desc>lat.=56.003780, lon.=26.461048, Alt.=105.083069m. Speed=11.988000m/h.</desc>
<speed>3.330000</speed>
</trkpt>
<trkpt lat="56.003807" lon="26.461056">
<ele>105.401428</ele>
<time>2010-06-20T09:48:58Z</time>
<desc>lat.=56.003807, lon.=26.461056, Alt.=105.401428m. Speed=9.396000m/h.</desc>
<speed>2.610000</speed>
</trkpt>
<trkpt lat="56.003838" lon="26.461069">
<ele>105.901428</ele>
<time>2010-06-20T09:48:59Z</time>
<desc>lat.=56.003838, lon.=26.461069, Alt.=105.901428m. Speed=11.160000m/h.</desc>
<speed>3.100000</speed>
</trkpt>
<trkpt lat="56.003864" lon="26.461077">
<ele>106.032288</ele>
<time>2010-06-20T09:49:00Z</time>
<desc>lat.=56.003864, lon.=26.461077, Alt.=106.032288m. Speed=12.132000m/h.</desc>
<speed>3.370000</speed>
</trkpt>
<trkpt lat="56.003899" lon="26.461077">
<ele>106.463928</ele>
<time>2010-06-20T09:49:01Z</time>
<desc>lat.=56.003899, lon.=26.461077, Alt.=106.463928m. Speed=11.268000m/h.</desc>
<speed>3.130000</speed>
</trkpt>
<trkpt lat="56.003929" lon="26.461063">
<ele>106.815491</ele>
<time>2010-06-20T09:49:02Z</time>
<desc>lat.=56.003929, lon.=26.461063, Alt.=106.815491m. Speed=10.944000m/h.</desc>
<speed>3.040000</speed>
</trkpt>
<trkpt lat="56.003960" lon="26.461061">
<ele>107.629944</ele>
<time>2010-06-20T09:49:03Z</time>
<desc>lat.=56.003960, lon.=26.461061, Alt.=107.629944m. Speed=11.772000m/h.</desc>
<speed>3.270000</speed>
</trkpt>
<trkpt lat="56.003986" lon="26.461063">
<ele>108.030334</ele>
<time>2010-06-20T09:49:04Z</time>
<desc>lat.=56.003986, lon.=26.461063, Alt.=108.030334m. Speed=11.808000m/h.</desc>
<speed>3.280000</speed>
</trkpt>
<trkpt lat="56.004021" lon="26.461061">
<ele>107.794006</ele>
<time>2010-06-20T09:49:05Z</time>
<desc>lat.=56.004021, lon.=26.461061, Alt.=107.794006m. Speed=12.024000m/h.</desc>
<speed>3.340000</speed>
</trkpt>
<trkpt lat="56.004047" lon="26.461058">
<ele>106.678772</ele>
<time>2010-06-20T09:49:06Z</time>
<desc>lat.=56.004047, lon.=26.461058, Alt.=106.678772m. Speed=12.096000m/h.</desc>
<speed>3.360000</speed>
</trkpt>
<trkpt lat="56.004082" lon="26.461061">
<ele>106.713928</ele>
<time>2010-06-20T09:49:07Z</time>
<desc>lat.=56.004082, lon.=26.461061, Alt.=106.713928m. Speed=12.996000m/h.</desc>
<speed>3.610000</speed>
</trkpt>
<trkpt lat="56.004116" lon="26.461061">
<ele>104.887756</ele>
<time>2010-06-20T09:49:08Z</time>
<desc>lat.=56.004116, lon.=26.461061, Alt.=104.887756m. Speed=14.004000m/h.</desc>
<speed>3.890000</speed>
</trkpt>
<trkpt lat="56.004154" lon="26.461065">
<ele>105.126038</ele>
<time>2010-06-20T09:49:09Z</time>
<desc>lat.=56.004154, lon.=26.461065, Alt.=105.126038m. Speed=14.976000m/h.</desc>
<speed>4.160000</speed>
</trkpt>
<trkpt lat="56.004192" lon="26.461061">
<ele>104.532288</ele>
<time>2010-06-20T09:49:10Z</time>
<desc>lat.=56.004192, lon.=26.461061, Alt.=104.532288m. Speed=14.472000m/h.</desc>
<speed>4.020000</speed>
</trkpt>
<trkpt lat="56.004234" lon="26.461071">
<ele>105.215881</ele>
<time>2010-06-20T09:49:11Z</time>
<desc>lat.=56.004234, lon.=26.461071, Alt.=105.215881m. Speed=15.804000m/h.</desc>
<speed>4.390000</speed>
</trkpt>
<trkpt lat="56.004272" lon="26.461081">
<ele>105.530334</ele>
<time>2010-06-20T09:49:12Z</time>
<desc>lat.=56.004272, lon.=26.461081, Alt.=105.530334m. Speed=14.400000m/h.</desc>
<speed>4.000000</speed>
</trkpt>
<trkpt lat="56.004318" lon="26.461090">
<ele>105.756897</ele>
<time>2010-06-20T09:49:13Z</time>
<desc>lat.=56.004318, lon.=26.461090, Alt.=105.756897m. Speed=16.200001m/h.</desc>
<speed>4.500000</speed>
</trkpt>
<trkpt lat="56.004360" lon="26.461088">
<ele>107.483459</ele>
<time>2010-06-20T09:49:14Z</time>
<desc>lat.=56.004360, lon.=26.461088, Alt.=107.483459m. Speed=14.328000m/h.</desc>
<speed>3.980000</speed>
</trkpt>
<trkpt lat="56.004398" lon="26.461082">
<ele>107.489319</ele>
<time>2010-06-20T09:49:15Z</time>
<desc>lat.=56.004398, lon.=26.461082, Alt.=107.489319m. Speed=15.264000m/h.</desc>
<speed>4.240000</speed>
</trkpt>
<trkpt lat="56.004436" lon="26.461077">
<ele>107.202209</ele>
<time>2010-06-20T09:49:16Z</time>
<desc>lat.=56.004436, lon.=26.461077, Alt.=107.202209m. Speed=15.660000m/h.</desc>
<speed>4.350000</speed>
</trkpt>
<trkpt lat="56.004471" lon="26.461071">
<ele>106.081116</ele>
<time>2010-06-20T09:49:17Z</time>
<desc>lat.=56.004471, lon.=26.461071, Alt.=106.081116m. Speed=15.876000m/h.</desc>
<speed>4.410000</speed>
</trkpt>
<trkpt lat="56.004513" lon="26.461067">
<ele>105.708069</ele>
<time>2010-06-20T09:49:18Z</time>
<desc>lat.=56.004513, lon.=26.461067, Alt.=105.708069m. Speed=15.156000m/h.</desc>
<speed>4.210000</speed>
</trkpt>
<trkpt lat="56.004555" lon="26.461065">
<ele>106.081116</ele>
<time>2010-06-20T09:49:19Z</time>
<desc>lat.=56.004555, lon.=26.461065, Alt.=106.081116m. Speed=15.012000m/h.</desc>
<speed>4.170000</speed>
</trkpt>
<trkpt lat="56.004593" lon="26.461065">
<ele>106.512756</ele>
<time>2010-06-20T09:49:20Z</time>
<desc>lat.=56.004593, lon.=26.461065, Alt.=106.512756m. Speed=14.904000m/h.</desc>
<speed>4.140000</speed>
</trkpt>
<trkpt lat="56.004635" lon="26.461069">
<ele>106.686584</ele>
<time>2010-06-20T09:49:21Z</time>
<desc>lat.=56.004635, lon.=26.461069, Alt.=106.686584m. Speed=14.292000m/h.</desc>
<speed>3.970000</speed>
</trkpt>
<trkpt lat="56.004669" lon="26.461063">
<ele>106.153381</ele>
<time>2010-06-20T09:49:22Z</time>
<desc>lat.=56.004669, lon.=26.461063, Alt.=106.153381m. Speed=13.716000m/h.</desc>
<speed>3.810000</speed>
</trkpt>
<trkpt lat="56.004704" lon="26.461060">
<ele>105.629944</ele>
<time>2010-06-20T09:49:23Z</time>
<desc>lat.=56.004704, lon.=26.461060, Alt.=105.629944m. Speed=13.284000m/h.</desc>
<speed>3.690000</speed>
</trkpt>
<trkpt lat="56.004738" lon="26.461052">
<ele>106.053772</ele>
<time>2010-06-20T09:49:24Z</time>
<desc>lat.=56.004738, lon.=26.461052, Alt.=106.053772m. Speed=12.744000m/h.</desc>
<speed>3.540000</speed>
</trkpt>
<trkpt lat="56.004768" lon="26.461052">
<ele>105.985413</ele>
<time>2010-06-20T09:49:25Z</time>
<desc>lat.=56.004768, lon.=26.461052, Alt.=105.985413m. Speed=12.636000m/h.</desc>
<speed>3.510000</speed>
</trkpt>
<trkpt lat="56.004795" lon="26.461054">
<ele>105.211975</ele>
<time>2010-06-20T09:49:26Z</time>
<desc>lat.=56.004795, lon.=26.461054, Alt.=105.211975m. Speed=12.420000m/h.</desc>
<speed>3.450000</speed>
</trkpt>
<trkpt lat="56.004826" lon="26.461046">
<ele>105.251038</ele>
<time>2010-06-20T09:49:27Z</time>
<desc>lat.=56.004826, lon.=26.461046, Alt.=105.251038m. Speed=11.628000m/h.</desc>
<speed>3.230000</speed>
</trkpt>
<trkpt lat="56.004856" lon="26.461054">
<ele>105.637756</ele>
<time>2010-06-20T09:49:28Z</time>
<desc>lat.=56.004856, lon.=26.461054, Alt.=105.637756m. Speed=12.204000m/h.</desc>
<speed>3.390000</speed>
</trkpt>
<trkpt lat="56.004887" lon="26.461054">
<ele>106.036194</ele>
<time>2010-06-20T09:49:29Z</time>
<desc>lat.=56.004887, lon.=26.461054, Alt.=106.036194m. Speed=12.312000m/h.</desc>
<speed>3.420000</speed>
</trkpt>
<trkpt lat="56.004917" lon="26.461058">
<ele>106.155334</ele>
<time>2010-06-20T09:49:30Z</time>
<desc>lat.=56.004917, lon.=26.461058, Alt.=106.155334m. Speed=12.024000m/h.</desc>
<speed>3.340000</speed>
</trkpt>
<trkpt lat="56.004948" lon="26.461058">
<ele>106.012756</ele>
<time>2010-06-20T09:49:31Z</time>
<desc>lat.=56.004948, lon.=26.461058, Alt.=106.012756m. Speed=10.764000m/h.</desc>
<speed>2.990000</speed>
</trkpt>
<trkpt lat="56.004974" lon="26.461054">
<ele>106.018616</ele>
<time>2010-06-20T09:49:32Z</time>
<desc>lat.=56.004974, lon.=26.461054, Alt.=106.018616m. Speed=10.548000m/h.</desc>
<speed>2.930000</speed>
</trkpt>
<trkpt lat="56.004997" lon="26.461052">
<ele>106.237366</ele>
<time>2010-06-20T09:49:33Z</time>
<desc>lat.=56.004997, lon.=26.461052, Alt.=106.237366m. Speed=7.524000m/h.</desc>
<speed>2.090000</speed>
</trkpt>
<trkpt lat="56.005016" lon="26.461061">
<ele>106.651428</ele>
<time>2010-06-20T09:49:34Z</time>
<desc>lat.=56.005016, lon.=26.461061, Alt.=106.651428m. Speed=8.532000m/h.</desc>
<speed>2.370000</speed>
</trkpt>
<trkpt lat="56.005039" lon="26.461065">
<ele>106.555725</ele>
<time>2010-06-20T09:49:35Z</time>
<desc>lat.=56.005039, lon.=26.461065, Alt.=106.555725m. Speed=9.504000m/h.</desc>
<speed>2.640000</speed>
</trkpt>
<trkpt lat="56.005058" lon="26.461061">
<ele>106.579163</ele>
<time>2010-06-20T09:49:36Z</time>
<desc>lat.=56.005058, lon.=26.461061, Alt.=106.579163m. Speed=7.668000m/h.</desc>
<speed>2.130000</speed>
</trkpt>
<trkpt lat="56.005081" lon="26.461058">
<ele>106.249084</ele>
<time>2010-06-20T09:49:37Z</time>
<desc>lat.=56.005081, lon.=26.461058, Alt.=106.249084m. Speed=6.948000m/h.</desc>
<speed>1.930000</speed>
</trkpt>
<trkpt lat="56.005100" lon="26.461044">
<ele>105.663147</ele>
<time>2010-06-20T09:49:38Z</time>
<desc>lat.=56.005100, lon.=26.461044, Alt.=105.663147m. Speed=8.568000m/h.</desc>
<speed>2.380000</speed>
</trkpt>
<trkpt lat="56.005123" lon="26.461037">
<ele>105.030334</ele>
<time>2010-06-20T09:49:39Z</time>
<desc>lat.=56.005123, lon.=26.461037, Alt.=105.030334m. Speed=9.504000m/h.</desc>
<speed>2.640000</speed>
</trkpt>
<trkpt lat="56.005142" lon="26.461048">
<ele>104.501038</ele>
<time>2010-06-20T09:49:40Z</time>
<desc>lat.=56.005142, lon.=26.461048, Alt.=104.501038m. Speed=8.676000m/h.</desc>
<speed>2.410000</speed>
</trkpt>
<trkpt lat="56.005169" lon="26.461050">
<ele>104.295959</ele>
<time>2010-06-20T09:49:41Z</time>
<desc>lat.=56.005169, lon.=26.461050, Alt.=104.295959m. Speed=9.180000m/h.</desc>
<speed>2.550000</speed>
</trkpt>
<trkpt lat="56.005188" lon="26.461052">
<ele>104.237366</ele>
<time>2010-06-20T09:49:42Z</time>
<desc>lat.=56.005188, lon.=26.461052, Alt.=104.237366m. Speed=7.740000m/h.</desc>
<speed>2.150000</speed>
</trkpt>
<trkpt lat="56.005207" lon="26.461048">
<ele>104.399475</ele>
<time>2010-06-20T09:49:43Z</time>
<desc>lat.=56.005207, lon.=26.461048, Alt.=104.399475m. Speed=7.092000m/h.</desc>
<speed>1.970000</speed>
</trkpt>
<trkpt lat="56.005222" lon="26.461060">
<ele>104.249084</ele>
<time>2010-06-20T09:49:44Z</time>
<desc>lat.=56.005222, lon.=26.461060, Alt.=104.249084m. Speed=6.372000m/h.</desc>
<speed>1.770000</speed>
</trkpt>
<trkpt lat="56.005238" lon="26.461058">
<ele>104.014709</ele>
<time>2010-06-20T09:49:45Z</time>
<desc>lat.=56.005238, lon.=26.461058, Alt.=104.014709m. Speed=6.012000m/h.</desc>
<speed>1.670000</speed>
</trkpt>
<trkpt lat="56.005249" lon="26.461054">
<ele>103.055725</ele>
<time>2010-06-20T09:49:46Z</time>
<desc>lat.=56.005249, lon.=26.461054, Alt.=103.055725m. Speed=5.292000m/h.</desc>
<speed>1.470000</speed>
</trkpt>
<trkpt lat="56.005260" lon="26.461058">
<ele>102.094788</ele>
<time>2010-06-20T09:49:47Z</time>
<desc>lat.=56.005260, lon.=26.461058, Alt.=102.094788m. Speed=4.428000m/h.</desc>
<speed>1.230000</speed>
</trkpt>
<trkpt lat="56.005272" lon="26.461063">
<ele>101.651428</ele>
<time>2010-06-20T09:49:48Z</time>
<desc>lat.=56.005272, lon.=26.461063, Alt.=101.651428m. Speed=5.652000m/h.</desc>
<speed>1.570000</speed>
</trkpt>
<trkpt lat="56.005291" lon="26.461058">
<ele>102.907288</ele>
<time>2010-06-20T09:49:49Z</time>
<desc>lat.=56.005291, lon.=26.461058, Alt.=102.907288m. Speed=4.284000m/h.</desc>
<speed>1.190000</speed>
</trkpt>
<trkpt lat="56.005306" lon="26.461050">
<ele>102.967834</ele>
<time>2010-06-20T09:49:50Z</time>
<desc>lat.=56.005306, lon.=26.461050, Alt.=102.967834m. Speed=5.040000m/h.</desc>
<speed>1.400000</speed>
</trkpt>
<trkpt lat="56.005322" lon="26.461048">
<ele>102.917053</ele>
<time>2010-06-20T09:49:51Z</time>
<desc>lat.=56.005322, lon.=26.461048, Alt.=102.917053m. Speed=6.048000m/h.</desc>
<speed>1.680000</speed>
</trkpt>
<trkpt lat="56.005337" lon="26.461056">
<ele>102.920959</ele>
<time>2010-06-20T09:49:52Z</time>
<desc>lat.=56.005337, lon.=26.461056, Alt.=102.920959m. Speed=3.600000m/h.</desc>
<speed>1.000000</speed>
</trkpt>
<trkpt lat="56.005352" lon="26.461054">
<ele>102.760803</ele>
<time>2010-06-20T09:49:53Z</time>
<desc>lat.=56.005352, lon.=26.461054, Alt.=102.760803m. Speed=4.824000m/h.</desc>
<speed>1.340000</speed>
</trkpt>
<trkpt lat="56.005375" lon="26.461056">
<ele>103.262756</ele>
<time>2010-06-20T09:49:54Z</time>
<desc>lat.=56.005375, lon.=26.461056, Alt.=103.262756m. Speed=7.992000m/h.</desc>
<speed>2.220000</speed>
</trkpt>
<trkpt lat="56.005402" lon="26.461060">
<ele>103.338928</ele>
<time>2010-06-20T09:49:55Z</time>
<desc>lat.=56.005402, lon.=26.461060, Alt.=103.338928m. Speed=7.704000m/h.</desc>
<speed>2.140000</speed>
</trkpt>
<trkpt lat="56.005421" lon="26.461067">
<ele>103.297913</ele>
<time>2010-06-20T09:49:56Z</time>
<desc>lat.=56.005421, lon.=26.461067, Alt.=103.297913m. Speed=7.452000m/h.</desc>
<speed>2.070000</speed>
</trkpt>
<trkpt lat="56.005451" lon="26.461084">
<ele>103.385803</ele>
<time>2010-06-20T09:49:57Z</time>
<desc>lat.=56.005451, lon.=26.461084, Alt.=103.385803m. Speed=7.884000m/h.</desc>
<speed>2.190000</speed>
</trkpt>
<trkpt lat="56.005486" lon="26.461098">
<ele>105.124084</ele>
<time>2010-06-20T09:49:58Z</time>
<desc>lat.=56.005486, lon.=26.461098, Alt.=105.124084m. Speed=8.640000m/h.</desc>
<speed>2.400000</speed>
</trkpt>
<trkpt lat="56.005512" lon="26.461107">
<ele>105.475647</ele>
<time>2010-06-20T09:49:59Z</time>
<desc>lat.=56.005512, lon.=26.461107, Alt.=105.475647m. Speed=7.884000m/h.</desc>
<speed>2.190000</speed>
</trkpt>
<trkpt lat="56.005539" lon="26.461113">
<ele>105.575256</ele>
<time>2010-06-20T09:50:00Z</time>
<desc>lat.=56.005539, lon.=26.461113, Alt.=105.575256m. Speed=7.776000m/h.</desc>
<speed>2.160000</speed>
</trkpt>
<trkpt lat="56.005554" lon="26.461115">
<ele>105.993225</ele>
<time>2010-06-20T09:50:01Z</time>
<desc>lat.=56.005554, lon.=26.461115, Alt.=105.993225m. Speed=6.876000m/h.</desc>
<speed>1.910000</speed>
</trkpt>
<trkpt lat="56.005577" lon="26.461107">
<ele>106.688538</ele>
<time>2010-06-20T09:50:02Z</time>
<desc>lat.=56.005577, lon.=26.461107, Alt.=106.688538m. Speed=6.912000m/h.</desc>
<speed>1.920000</speed>
</trkpt>
<trkpt lat="56.005592" lon="26.461105">
<ele>107.129944</ele>
<time>2010-06-20T09:50:03Z</time>
<desc>lat.=56.005592, lon.=26.461105, Alt.=107.129944m. Speed=7.596000m/h.</desc>
<speed>2.110000</speed>
</trkpt>
<trkpt lat="56.005611" lon="26.461111">
<ele>107.430725</ele>
<time>2010-06-20T09:50:04Z</time>
<desc>lat.=56.005611, lon.=26.461111, Alt.=107.430725m. Speed=7.056000m/h.</desc>
<speed>1.960000</speed>
</trkpt>
<trkpt lat="56.005627" lon="26.461121">
<ele>107.092834</ele>
<time>2010-06-20T09:50:05Z</time>
<desc>lat.=56.005627, lon.=26.461121, Alt.=107.092834m. Speed=7.164000m/h.</desc>
<speed>1.990000</speed>
</trkpt>
<trkpt lat="56.005653" lon="26.461134">
<ele>107.100647</ele>
<time>2010-06-20T09:50:06Z</time>
<desc>lat.=56.005653, lon.=26.461134, Alt.=107.100647m. Speed=7.524000m/h.</desc>
<speed>2.090000</speed>
</trkpt>
<trkpt lat="56.005676" lon="26.461132">
<ele>107.413147</ele>
<time>2010-06-20T09:50:07Z</time>
<desc>lat.=56.005676, lon.=26.461132, Alt.=107.413147m. Speed=7.524000m/h.</desc>
<speed>2.090000</speed>
</trkpt>
<trkpt lat="56.005692" lon="26.461124">
<ele>107.588928</ele>
<time>2010-06-20T09:50:08Z</time>
<desc>lat.=56.005692, lon.=26.461124, Alt.=107.588928m. Speed=6.480000m/h.</desc>
<speed>1.800000</speed>
</trkpt>
<trkpt lat="56.005699" lon="26.461121">
<ele>107.413147</ele>
<time>2010-06-20T09:50:09Z</time>
<desc>lat.=56.005699, lon.=26.461121, Alt.=107.413147m. Speed=6.804000m/h.</desc>
<speed>1.890000</speed>
</trkpt>
<trkpt lat="56.005714" lon="26.461121">
<ele>107.686584</ele>
<time>2010-06-20T09:50:10Z</time>
<desc>lat.=56.005714, lon.=26.461121, Alt.=107.686584m. Speed=4.680000m/h.</desc>
<speed>1.300000</speed>
</trkpt>
<trkpt lat="56.005726" lon="26.461117">
<ele>107.877991</ele>
<time>2010-06-20T09:50:11Z</time>
<desc>lat.=56.005726, lon.=26.461117, Alt.=107.877991m. Speed=3.492000m/h.</desc>
<speed>0.970000</speed>
</trkpt>
<trkpt lat="56.005733" lon="26.461123">
<ele>108.176819</ele>
<time>2010-06-20T09:50:12Z</time>
<desc>lat.=56.005733, lon.=26.461123, Alt.=108.176819m. Speed=1.584000m/h.</desc>
<speed>0.440000</speed>
</trkpt>
<trkpt lat="56.005741" lon="26.461123">
<ele>108.006897</ele>
<time>2010-06-20T09:50:13Z</time>
<desc>lat.=56.005741, lon.=26.461123, Alt.=108.006897m. Speed=0.864000m/h.</desc>
<speed>0.240000</speed>
</trkpt>
<trkpt lat="56.005745" lon="26.461121">
<ele>108.139709</ele>
<time>2010-06-20T09:50:14Z</time>
<desc>lat.=56.005745, lon.=26.461121, Alt.=108.139709m. Speed=0.612000m/h.</desc>
<speed>0.170000</speed>
</trkpt>
<trkpt lat="56.005745" lon="26.461121">
<ele>108.229553</ele>
<time>2010-06-20T09:50:15Z</time>
<desc>lat.=56.005745, lon.=26.461121, Alt.=108.229553m. Speed=0.396000m/h.</desc>
<speed>0.110000</speed>
</trkpt>
<trkpt lat="56.005745" lon="26.461121">
<ele>108.292053</ele>
<time>2010-06-20T09:50:16Z</time>
<desc>lat.=56.005745, lon.=26.461121, Alt.=108.292053m. Speed=0.108000m/h.</desc>
<speed>0.030000</speed>
</trkpt>
<trkpt lat="56.005745" lon="26.461121">
<ele>108.286194</ele>
<time>2010-06-20T09:50:17Z</time>
<desc>lat.=56.005745, lon.=26.461121, Alt.=108.286194m. Speed=0.036000m/h.</desc>
<speed>0.010000</speed>
</trkpt>
<trkpt lat="56.005745" lon="26.461121">
<ele>108.278381</ele>
<time>2010-06-20T09:50:18Z</time>
<desc>lat.=56.005745, lon.=26.461121, Alt.=108.278381m. Speed=0.072000m/h.</desc>
<speed>0.020000</speed>
</trkpt>
<trkpt lat="56.005745" lon="26.461121">
<ele>108.290100</ele>
<time>2010-06-20T09:50:19Z</time>
<desc>lat.=56.005745, lon.=26.461121, Alt.=108.290100m. Speed=0.288000m/h.</desc>
<speed>0.080000</speed>
</trkpt>
<trkpt lat="56.005749" lon="26.461121">
<ele>108.268616</ele>
<time>2010-06-20T09:50:20Z</time>
<desc>lat.=56.005749, lon.=26.461121, Alt.=108.268616m. Speed=0.036000m/h.</desc>
<speed>0.010000</speed>
</trkpt>
<trkpt lat="56.005749" lon="26.461119">
<ele>108.251038</ele>
<time>2010-06-20T09:50:21Z</time>
<desc>lat.=56.005749, lon.=26.461119, Alt.=108.251038m. Speed=0.072000m/h.</desc>
<speed>0.020000</speed>
</trkpt>
<trkpt lat="56.005749" lon="26.461119">
<ele>108.243225</ele>
<time>2010-06-20T09:50:22Z</time>
<desc>lat.=56.005749, lon.=26.461119, Alt.=108.243225m. Speed=0.576000m/h.</desc>
<speed>0.160000</speed>
</trkpt>
<trkpt lat="56.005749" lon="26.461123">
<ele>108.221741</ele>
<time>2010-06-20T09:50:23Z</time>
<desc>lat.=56.005749, lon.=26.461123, Alt.=108.221741m. Speed=0.540000m/h.</desc>
<speed>0.150000</speed>
</trkpt>
<trkpt lat="56.005749" lon="26.461124">
<ele>108.213928</ele>
<time>2010-06-20T09:50:24Z</time>
<desc>lat.=56.005749, lon.=26.461124, Alt.=108.213928m. Speed=0.216000m/h.</desc>
<speed>0.060000</speed>
</trkpt>
<trkpt lat="56.005749" lon="26.461126">
<ele>108.204163</ele>
<time>2010-06-20T09:50:25Z</time>
<desc>lat.=56.005749, lon.=26.461126, Alt.=108.204163m. Speed=0.396000m/h.</desc>
<speed>0.110000</speed>
</trkpt>
<trkpt lat="56.005749" lon="26.461128">
<ele>108.192444</ele>
<time>2010-06-20T09:50:26Z</time>
<desc>lat.=56.005749, lon.=26.461128, Alt.=108.192444m. Speed=0.036000m/h.</desc>
<speed>0.010000</speed>
</trkpt>
<trkpt lat="56.005749" lon="26.461128">
<ele>108.186584</ele>
<time>2010-06-20T09:50:27Z</time>
<desc>lat.=56.005749, lon.=26.461128, Alt.=108.186584m. Speed=0.108000m/h.</desc>
<speed>0.030000</speed>
</trkpt>
<trkpt lat="56.005749" lon="26.461128">
<ele>108.174866</ele>
<time>2010-06-20T09:50:28Z</time>
<desc>lat.=56.005749, lon.=26.461128, Alt.=108.174866m. Speed=0.072000m/h.</desc>
<speed>0.020000</speed>
</trkpt>
<trkpt lat="56.005749" lon="26.461128">
<ele>108.161194</ele>
<time>2010-06-20T09:50:29Z</time>
<desc>lat.=56.005749, lon.=26.461128, Alt.=108.161194m. Speed=0.036000m/h.</desc>
<speed>0.010000</speed>
</trkpt>
<trkpt lat="56.005749" lon="26.461128">
<ele>108.151428</ele>
<time>2010-06-20T09:50:30Z</time>
<desc>lat.=56.005749, lon.=26.461128, Alt.=108.151428m. Speed=0.216000m/h.</desc>
<speed>0.060000</speed>
</trkpt>
<trkpt lat="56.005749" lon="26.461128">
<ele>108.137756</ele>
<time>2010-06-20T09:50:31Z</time>
<desc>lat.=56.005749, lon.=26.461128, Alt.=108.137756m. Speed=0.036000m/h.</desc>
<speed>0.010000</speed>
</trkpt>
<trkpt lat="56.005749" lon="26.461128">
<ele>108.124084</ele>
<time>2010-06-20T09:50:32Z</time>
<desc>lat.=56.005749, lon.=26.461128, Alt.=108.124084m. Speed=0.144000m/h.</desc>
<speed>0.040000</speed>
</trkpt>
<trkpt lat="56.005749" lon="26.461128">
<ele>108.100647</ele>
<time>2010-06-20T09:50:33Z</time>
<desc>lat.=56.005749, lon.=26.461128, Alt.=108.100647m. Speed=0.216000m/h.</desc>
<speed>0.060000</speed>
</trkpt>
<trkpt lat="56.005749" lon="26.461130">
<ele>108.077209</ele>
<time>2010-06-20T09:50:34Z</time>
<desc>lat.=56.005749, lon.=26.461130, Alt.=108.077209m. Speed=0.108000m/h.</desc>
<speed>0.030000</speed>
</trkpt>
<trkpt lat="56.005749" lon="26.461130">
<ele>108.042053</ele>
<time>2010-06-20T09:50:35Z</time>
<desc>lat.=56.005749, lon.=26.461130, Alt.=108.042053m. Speed=0.288000m/h.</desc>
<speed>0.080000</speed>
</trkpt>
<trkpt lat="56.005749" lon="26.461128">
<ele>108.010803</ele>
<time>2010-06-20T09:50:36Z</time>
<desc>lat.=56.005749, lon.=26.461128, Alt.=108.010803m. Speed=0.072000m/h.</desc>
<speed>0.020000</speed>
</trkpt>
<trkpt lat="56.005749" lon="26.461128">
<ele>107.989319</ele>
<time>2010-06-20T09:50:37Z</time>
<desc>lat.=56.005749, lon.=26.461128, Alt.=107.989319m. Speed=0.216000m/h.</desc>
<speed>0.060000</speed>
</trkpt>
<trkpt lat="56.005749" lon="26.461130">
<ele>107.981506</ele>
<time>2010-06-20T09:50:38Z</time>
<desc>lat.=56.005749, lon.=26.461130, Alt.=107.981506m. Speed=0.216000m/h.</desc>
<speed>0.060000</speed>
</trkpt>
<trkpt lat="56.005749" lon="26.461130">
<ele>107.975647</ele>
<time>2010-06-20T09:50:39Z</time>
<desc>lat.=56.005749, lon.=26.461130, Alt.=107.975647m. Speed=0.396000m/h.</desc>
<speed>0.110000</speed>
</trkpt>
<trkpt lat="56.005745" lon="26.461130">
<ele>107.963928</ele>
<time>2010-06-20T09:50:40Z</time>
<desc>lat.=56.005745, lon.=26.461130, Alt.=107.963928m. Speed=0.288000m/h.</desc>
<speed>0.080000</speed>
</trkpt>
<trkpt lat="56.005745" lon="26.461128">
<ele>107.952209</ele>
<time>2010-06-20T09:50:41Z</time>
<desc>lat.=56.005745, lon.=26.461128, Alt.=107.952209m. Speed=0.216000m/h.</desc>
<speed>0.060000</speed>
</trkpt>
<trkpt lat="56.005745" lon="26.461128">
<ele>107.940491</ele>
<time>2010-06-20T09:50:42Z</time>
<desc>lat.=56.005745, lon.=26.461128, Alt.=107.940491m. Speed=0.144000m/h.</desc>
<speed>0.040000</speed>
</trkpt>
<trkpt lat="56.005745" lon="26.461128">
<ele>107.930725</ele>
<time>2010-06-20T09:50:43Z</time>
<desc>lat.=56.005745, lon.=26.461128, Alt.=107.930725m. Speed=0.036000m/h.</desc>
<speed>0.010000</speed>
</trkpt>
<trkpt lat="56.005745" lon="26.461128">
<ele>107.919006</ele>
<time>2010-06-20T09:50:44Z</time>
<desc>lat.=56.005745, lon.=26.461128, Alt.=107.919006m. Speed=0.036000m/h.</desc>
<speed>0.010000</speed>
</trkpt>
<trkpt lat="56.005745" lon="26.461128">
<ele>107.905334</ele>
<time>2010-06-20T09:50:45Z</time>
<desc>lat.=56.005745, lon.=26.461128, Alt.=107.905334m. Speed=0.072000m/h.</desc>
<speed>0.020000</speed>
</trkpt>
<trkpt lat="56.005745" lon="26.461128">
<ele>107.901428</ele>
<time>2010-06-20T09:50:46Z</time>
<desc>lat.=56.005745, lon.=26.461128, Alt.=107.901428m. Speed=0.252000m/h.</desc>
<speed>0.070000</speed>
</trkpt>
<trkpt lat="56.005745" lon="26.461128">
<ele>107.885803</ele>
<time>2010-06-20T09:50:47Z</time>
<desc>lat.=56.005745, lon.=26.461128, Alt.=107.885803m. Speed=0.144000m/h.</desc>
<speed>0.040000</speed>
</trkpt>
<trkpt lat="56.005745" lon="26.461128">
<ele>107.885803</ele>
<time>2010-06-20T09:50:48Z</time>
<desc>lat.=56.005745, lon.=26.461128, Alt.=107.885803m. Speed=0.036000m/h.</desc>
<speed>0.010000</speed>
</trkpt>
<trkpt lat="56.005745" lon="26.461128">
<ele>107.883850</ele>
<time>2010-06-20T09:50:49Z</time>
<desc>lat.=56.005745, lon.=26.461128, Alt.=107.883850m. Speed=0.216000m/h.</desc>
<speed>0.060000</speed>
</trkpt>
<trkpt lat="56.005745" lon="26.461128">
<ele>107.879944</ele>
<time>2010-06-20T09:50:50Z</time>
<desc>lat.=56.005745, lon.=26.461128, Alt.=107.879944m. Speed=0.036000m/h.</desc>
<speed>0.010000</speed>
</trkpt>
<trkpt lat="56.005745" lon="26.461128">
<ele>107.879944</ele>
<time>2010-06-20T09:50:51Z</time>
<desc>lat.=56.005745, lon.=26.461128, Alt.=107.879944m. Speed=0.108000m/h.</desc>
<speed>0.030000</speed>
</trkpt>
<trkpt lat="56.005745" lon="26.461128">
<ele>107.881897</ele>
<time>2010-06-20T09:50:52Z</time>
<desc>lat.=56.005745, lon.=26.461128, Alt.=107.881897m. Speed=0.036000m/h.</desc>
<speed>0.010000</speed>
</trkpt>
<trkpt lat="56.005745" lon="26.461128">
<ele>107.877991</ele>
<time>2010-06-20T09:50:53Z</time>
<desc>lat.=56.005745, lon.=26.461128, Alt.=107.877991m. Speed=0.036000m/h.</desc>
<speed>0.010000</speed>
</trkpt>
<trkpt lat="56.005745" lon="26.461128">
<ele>107.881897</ele>
<time>2010-06-20T09:50:54Z</time>
<desc>lat.=56.005745, lon.=26.461128, Alt.=107.881897m. Speed=0.036000m/h.</desc>
<speed>0.010000</speed>
</trkpt>
<trkpt lat="56.005745" lon="26.461128">
<ele>107.883850</ele>
<time>2010-06-20T09:50:55Z</time>
<desc>lat.=56.005745, lon.=26.461128, Alt.=107.883850m. Speed=0.036000m/h.</desc>
<speed>0.010000</speed>
</trkpt>
<trkpt lat="56.005745" lon="26.461128">
<ele>107.889709</ele>
<time>2010-06-20T09:50:56Z</time>
<desc>lat.=56.005745, lon.=26.461128, Alt.=107.889709m. Speed=0.000000m/h.</desc>
<speed>0.000000</speed>
</trkpt>
<trkpt lat="56.005745" lon="26.461128">
<ele>107.893616</ele>
<time>2010-06-20T09:50:57Z</time>
<desc>lat.=56.005745, lon.=26.461128, Alt.=107.893616m. Speed=0.036000m/h.</desc>
<speed>0.010000</speed>
</trkpt>
<trkpt lat="56.005745" lon="26.461128">
<ele>107.883850</ele>
<time>2010-06-20T09:50:58Z</time>
<desc>lat.=56.005745, lon.=26.461128, Alt.=107.883850m. Speed=0.036000m/h.</desc>
<speed>0.010000</speed>
</trkpt>
<trkpt lat="56.005745" lon="26.461128">
<ele>107.876038</ele>
<time>2010-06-20T09:50:59Z</time>
<desc>lat.=56.005745, lon.=26.461128, Alt.=107.876038m. Speed=0.072000m/h.</desc>
<speed>0.020000</speed>
</trkpt>
<trkpt lat="56.005745" lon="26.461128">
<ele>107.866272</ele>
<time>2010-06-20T09:51:00Z</time>
<desc>lat.=56.005745, lon.=26.461128, Alt.=107.866272m. Speed=0.072000m/h.</desc>
<speed>0.020000</speed>
</trkpt>
<trkpt lat="56.005745" lon="26.461128">
<ele>107.858459</ele>
<time>2010-06-20T09:51:01Z</time>
<desc>lat.=56.005745, lon.=26.461128, Alt.=107.858459m. Speed=0.000000m/h.</desc>
<speed>0.000000</speed>
</trkpt>
<trkpt lat="56.005745" lon="26.461128">
<ele>107.848694</ele>
<time>2010-06-20T09:51:02Z</time>
<desc>lat.=56.005745, lon.=26.461128, Alt.=107.848694m. Speed=0.000000m/h.</desc>
<speed>0.000000</speed>
</trkpt>
<trkpt lat="56.005745" lon="26.461128">
<ele>107.842834</ele>
<time>2010-06-20T09:51:03Z</time>
<desc>lat.=56.005745, lon.=26.461128, Alt.=107.842834m. Speed=0.000000m/h.</desc>
<speed>0.000000</speed>
</trkpt>
<trkpt lat="56.005745" lon="26.461128">
<ele>107.833069</ele>
<time>2010-06-20T09:51:04Z</time>
<desc>lat.=56.005745, lon.=26.461128, Alt.=107.833069m. Speed=0.036000m/h.</desc>
<speed>0.010000</speed>
</trkpt>
<trkpt lat="56.005745" lon="26.461128">
<ele>107.835022</ele>
<time>2010-06-20T09:51:05Z</time>
<desc>lat.=56.005745, lon.=26.461128, Alt.=107.835022m. Speed=0.072000m/h.</desc>
<speed>0.020000</speed>
</trkpt>
<trkpt lat="56.005745" lon="26.461130">
<ele>107.836975</ele>
<time>2010-06-20T09:51:06Z</time>
<desc>lat.=56.005745, lon.=26.461130, Alt.=107.836975m. Speed=0.036000m/h.</desc>
<speed>0.010000</speed>
</trkpt>
<trkpt lat="56.005745" lon="26.461128">
<ele>107.835022</ele>
<time>2010-06-20T09:51:07Z</time>
<desc>lat.=56.005745, lon.=26.461128, Alt.=107.835022m. Speed=0.108000m/h.</desc>
<speed>0.030000</speed>
</trkpt>
<trkpt lat="56.005745" lon="26.461128">
<ele>107.823303</ele>
<time>2010-06-20T09:51:08Z</time>
<desc>lat.=56.005745, lon.=26.461128, Alt.=107.823303m. Speed=0.036000m/h.</desc>
<speed>0.010000</speed>
</trkpt>
<trkpt lat="56.005745" lon="26.461128">
<ele>107.819397</ele>
<time>2010-06-20T09:51:09Z</time>
<desc>lat.=56.005745, lon.=26.461128, Alt.=107.819397m. Speed=0.036000m/h.</desc>
<speed>0.010000</speed>
</trkpt>
<trkpt lat="56.005745" lon="26.461128">
<ele>107.817444</ele>
<time>2010-06-20T09:51:10Z</time>
<desc>lat.=56.005745, lon.=26.461128, Alt.=107.817444m. Speed=0.036000m/h.</desc>
<speed>0.010000</speed>
</trkpt>
<trkpt lat="56.005745" lon="26.461128">
<ele>107.813538</ele>
<time>2010-06-20T09:51:11Z</time>
<desc>lat.=56.005745, lon.=26.461128, Alt.=107.813538m. Speed=0.036000m/h.</desc>
<speed>0.010000</speed>
</trkpt>
<trkpt lat="56.005745" lon="26.461128">
<ele>107.811584</ele>
<time>2010-06-20T09:51:12Z</time>
<desc>lat.=56.005745, lon.=26.461128, Alt.=107.811584m. Speed=0.036000m/h.</desc>
<speed>0.010000</speed>
</trkpt>
<trkpt lat="56.005745" lon="26.461128">
<ele>107.805725</ele>
<time>2010-06-20T09:51:13Z</time>
<desc>lat.=56.005745, lon.=26.461128, Alt.=107.805725m. Speed=0.000000m/h.</desc>
<speed>0.000000</speed>
</trkpt>
<trkpt lat="56.005745" lon="26.461128">
<ele>107.799866</ele>
<time>2010-06-20T09:51:14Z</time>
<desc>lat.=56.005745, lon.=26.461128, Alt.=107.799866m. Speed=0.036000m/h.</desc>
<speed>0.010000</speed>
</trkpt>
<trkpt lat="56.005745" lon="26.461128">
<ele>107.795959</ele>
<time>2010-06-20T09:51:15Z</time>
<desc>lat.=56.005745, lon.=26.461128, Alt.=107.795959m. Speed=0.036000m/h.</desc>
<speed>0.010000</speed>
</trkpt>
<trkpt lat="56.005745" lon="26.461128">
<ele>107.792053</ele>
<time>2010-06-20T09:51:16Z</time>
<desc>lat.=56.005745, lon.=26.461128, Alt.=107.792053m. Speed=0.036000m/h.</desc>
<speed>0.010000</speed>
</trkpt>
<trkpt lat="56.005745" lon="26.461128">
<ele>107.790100</ele>
<time>2010-06-20T09:51:17Z</time>
<desc>lat.=56.005745, lon.=26.461128, Alt.=107.790100m. Speed=0.000000m/h.</desc>
<speed>0.000000</speed>
</trkpt>
<trkpt lat="56.005745" lon="26.461128">
<ele>107.788147</ele>
<time>2010-06-20T09:51:18Z</time>
<desc>lat.=56.005745, lon.=26.461128, Alt.=107.788147m. Speed=0.036000m/h.</desc>
<speed>0.010000</speed>
</trkpt>
<trkpt lat="56.005745" lon="26.461128">
<ele>107.786194</ele>
<time>2010-06-20T09:51:19Z</time>
<desc>lat.=56.005745, lon.=26.461128, Alt.=107.786194m. Speed=0.000000m/h.</desc>
<speed>0.000000</speed>
</trkpt>
<trkpt lat="56.005745" lon="26.461128">
<ele>107.782288</ele>
<time>2010-06-20T09:51:20Z</time>
<desc>lat.=56.005745, lon.=26.461128, Alt.=107.782288m. Speed=0.000000m/h.</desc>
<speed>0.000000</speed>
</trkpt>
<trkpt lat="56.005745" lon="26.461128">
<ele>107.784241</ele>
<time>2010-06-20T09:51:21Z</time>
<desc>lat.=56.005745, lon.=26.461128, Alt.=107.784241m. Speed=0.000000m/h.</desc>
<speed>0.000000</speed>
</trkpt>
<trkpt lat="56.005745" lon="26.461128">
<ele>107.784241</ele>
<time>2010-06-20T09:51:22Z</time>
<desc>lat.=56.005745, lon.=26.461128, Alt.=107.784241m. Speed=0.072000m/h.</desc>
<speed>0.020000</speed>
</trkpt>
<trkpt lat="56.005745" lon="26.461128">
<ele>107.786194</ele>
<time>2010-06-20T09:51:23Z</time>
<desc>lat.=56.005745, lon.=26.461128, Alt.=107.786194m. Speed=0.000000m/h.</desc>
<speed>0.000000</speed>
</trkpt>
<trkpt lat="56.005749" lon="26.461130">
<ele>107.790100</ele>
<time>2010-06-20T09:51:24Z</time>
<desc>lat.=56.005749, lon.=26.461130, Alt.=107.790100m. Speed=0.000000m/h.</desc>
<speed>0.000000</speed>
</trkpt>
<trkpt lat="56.005749" lon="26.461130">
<ele>107.790100</ele>
<time>2010-06-20T09:51:25Z</time>
<desc>lat.=56.005749, lon.=26.461130, Alt.=107.790100m. Speed=0.072000m/h.</desc>
<speed>0.020000</speed>
</trkpt>
<trkpt lat="56.005749" lon="26.461130">
<ele>107.788147</ele>
<time>2010-06-20T09:51:26Z</time>
<desc>lat.=56.005749, lon.=26.461130, Alt.=107.788147m. Speed=0.036000m/h.</desc>
<speed>0.010000</speed>
</trkpt>
<trkpt lat="56.005749" lon="26.461130">
<ele>107.786194</ele>
<time>2010-06-20T09:51:27Z</time>
<desc>lat.=56.005749, lon.=26.461130, Alt.=107.786194m. Speed=0.072000m/h.</desc>
<speed>0.020000</speed>
</trkpt>
<trkpt lat="56.005749" lon="26.461130">
<ele>107.784241</ele>
<time>2010-06-20T09:51:28Z</time>
<desc>lat.=56.005749, lon.=26.461130, Alt.=107.784241m. Speed=0.000000m/h.</desc>
<speed>0.000000</speed>
</trkpt>
<trkpt lat="56.005749" lon="26.461130">
<ele>107.786194</ele>
<time>2010-06-20T09:51:29Z</time>
<desc>lat.=56.005749, lon.=26.461130, Alt.=107.786194m. Speed=0.036000m/h.</desc>
<speed>0.010000</speed>
</trkpt>
<trkpt lat="56.005749" lon="26.461130">
<ele>107.790100</ele>
<time>2010-06-20T09:51:30Z</time>
<desc>lat.=56.005749, lon.=26.461130, Alt.=107.790100m. Speed=0.000000m/h.</desc>
<speed>0.000000</speed>
</trkpt>
<trkpt lat="56.005749" lon="26.461130">
<ele>107.795959</ele>
<time>2010-06-20T09:51:31Z</time>
<desc>lat.=56.005749, lon.=26.461130, Alt.=107.795959m. Speed=0.036000m/h.</desc>
<speed>0.010000</speed>
</trkpt>
<trkpt lat="56.005749" lon="26.461130">
<ele>107.797913</ele>
<time>2010-06-20T09:51:32Z</time>
<desc>lat.=56.005749, lon.=26.461130, Alt.=107.797913m. Speed=0.036000m/h.</desc>
<speed>0.010000</speed>
</trkpt>
<trkpt lat="56.005749" lon="26.461130">
<ele>107.801819</ele>
<time>2010-06-20T09:51:33Z</time>
<desc>lat.=56.005749, lon.=26.461130, Alt.=107.801819m. Speed=0.108000m/h.</desc>
<speed>0.030000</speed>
</trkpt>
<trkpt lat="56.005749" lon="26.461130">
<ele>107.803772</ele>
<time>2010-06-20T09:51:34Z</time>
<desc>lat.=56.005749, lon.=26.461130, Alt.=107.803772m. Speed=0.108000m/h.</desc>
<speed>0.030000</speed>
</trkpt>
<trkpt lat="56.005749" lon="26.461130">
<ele>107.805725</ele>
<time>2010-06-20T09:51:35Z</time>
<desc>lat.=56.005749, lon.=26.461130, Alt.=107.805725m. Speed=0.036000m/h.</desc>
<speed>0.010000</speed>
</trkpt>
<trkpt lat="56.005749" lon="26.461130">
<ele>107.813538</ele>
<time>2010-06-20T09:51:36Z</time>
<desc>lat.=56.005749, lon.=26.461130, Alt.=107.813538m. Speed=0.000000m/h.</desc>
<speed>0.000000</speed>
</trkpt>
<trkpt lat="56.005749" lon="26.461130">
<ele>107.821350</ele>
<time>2010-06-20T09:51:37Z</time>
<desc>lat.=56.005749, lon.=26.461130, Alt.=107.821350m. Speed=0.036000m/h.</desc>
<speed>0.010000</speed>
</trkpt>
<trkpt lat="56.005749" lon="26.461130">
<ele>107.825256</ele>
<time>2010-06-20T09:51:38Z</time>
<desc>lat.=56.005749, lon.=26.461130, Alt.=107.825256m. Speed=0.072000m/h.</desc>
<speed>0.020000</speed>
</trkpt>
<trkpt lat="56.005749" lon="26.461130">
<ele>107.829163</ele>
<time>2010-06-20T09:51:39Z</time>
<desc>lat.=56.005749, lon.=26.461130, Alt.=107.829163m. Speed=0.000000m/h.</desc>
<speed>0.000000</speed>
</trkpt>
<trkpt lat="56.005749" lon="26.461130">
<ele>107.831116</ele>
<time>2010-06-20T09:51:40Z</time>
<desc>lat.=56.005749, lon.=26.461130, Alt.=107.831116m. Speed=0.036000m/h.</desc>
<speed>0.010000</speed>
</trkpt>
<trkpt lat="56.005749" lon="26.461130">
<ele>107.835022</ele>
<time>2010-06-20T09:51:41Z</time>
<desc>lat.=56.005749, lon.=26.461130, Alt.=107.835022m. Speed=0.000000m/h.</desc>
<speed>0.000000</speed>
</trkpt>
<trkpt lat="56.005749" lon="26.461130">
<ele>107.836975</ele>
<time>2010-06-20T09:51:42Z</time>
<desc>lat.=56.005749, lon.=26.461130, Alt.=107.836975m. Speed=0.000000m/h.</desc>
<speed>0.000000</speed>
</trkpt>
<trkpt lat="56.005749" lon="26.461130">
<ele>107.835022</ele>
<time>2010-06-20T09:51:43Z</time>
<desc>lat.=56.005749, lon.=26.461130, Alt.=107.835022m. Speed=0.000000m/h.</desc>
<speed>0.000000</speed>
</trkpt>
<trkpt lat="56.005749" lon="26.461130">
<ele>107.835022</ele>
<time>2010-06-20T09:51:44Z</time>
<desc>lat.=56.005749, lon.=26.461130, Alt.=107.835022m. Speed=0.036000m/h.</desc>
<speed>0.010000</speed>
</trkpt>
<trkpt lat="56.005749" lon="26.461130">
<ele>107.844788</ele>
<time>2010-06-20T09:51:45Z</time>
<desc>lat.=56.005749, lon.=26.461130, Alt.=107.844788m. Speed=0.000000m/h.</desc>
<speed>0.000000</speed>
</trkpt>
<trkpt lat="56.005749" lon="26.461130">
<ele>107.852600</ele>
<time>2010-06-20T09:51:46Z</time>
<desc>lat.=56.005749, lon.=26.461130, Alt.=107.852600m. Speed=0.000000m/h.</desc>
<speed>0.000000</speed>
</trkpt>
<trkpt lat="56.005749" lon="26.461130">
<ele>107.856506</ele>
<time>2010-06-20T09:51:47Z</time>
<desc>lat.=56.005749, lon.=26.461130, Alt.=107.856506m. Speed=0.000000m/h.</desc>
<speed>0.000000</speed>
</trkpt>
<trkpt lat="56.005749" lon="26.461130">
<ele>107.858459</ele>
<time>2010-06-20T09:51:48Z</time>
<desc>lat.=56.005749, lon.=26.461130, Alt.=107.858459m. Speed=0.036000m/h.</desc>
<speed>0.010000</speed>
</trkpt>
<trkpt lat="56.005749" lon="26.461130">
<ele>107.860413</ele>
<time>2010-06-20T09:51:49Z</time>
<desc>lat.=56.005749, lon.=26.461130, Alt.=107.860413m. Speed=0.036000m/h.</desc>
<speed>0.010000</speed>
</trkpt>
<trkpt lat="56.005749" lon="26.461130">
<ele>107.870178</ele>
<time>2010-06-20T09:51:50Z</time>
<desc>lat.=56.005749, lon.=26.461130, Alt.=107.870178m. Speed=0.036000m/h.</desc>
<speed>0.010000</speed>
</trkpt>
<trkpt lat="56.005749" lon="26.461130">
<ele>107.870178</ele>
<time>2010-06-20T09:51:51Z</time>
<desc>lat.=56.005749, lon.=26.461130, Alt.=107.870178m. Speed=0.036000m/h.</desc>
<speed>0.010000</speed>
</trkpt>
<trkpt lat="56.005749" lon="26.461130">
<ele>107.879944</ele>
<time>2010-06-20T09:51:52Z</time>
<desc>lat.=56.005749, lon.=26.461130, Alt.=107.879944m. Speed=0.036000m/h.</desc>
<speed>0.010000</speed>
</trkpt>
<trkpt lat="56.005749" lon="26.461130">
<ele>107.876038</ele>
<time>2010-06-20T09:51:53Z</time>
<desc>lat.=56.005749, lon.=26.461130, Alt.=107.876038m. Speed=0.108000m/h.</desc>
<speed>0.030000</speed>
</trkpt>
<trkpt lat="56.005749" lon="26.461130">
<ele>107.876038</ele>
<time>2010-06-20T09:51:54Z</time>
<desc>lat.=56.005749, lon.=26.461130, Alt.=107.876038m. Speed=0.108000m/h.</desc>
<speed>0.030000</speed>
</trkpt>
<trkpt lat="56.005749" lon="26.461130">
<ele>107.874084</ele>
<time>2010-06-20T09:51:55Z</time>
<desc>lat.=56.005749, lon.=26.461130, Alt.=107.874084m. Speed=0.108000m/h.</desc>
<speed>0.030000</speed>
</trkpt>
<trkpt lat="56.005749" lon="26.461130">
<ele>107.876038</ele>
<time>2010-06-20T09:51:56Z</time>
<desc>lat.=56.005749, lon.=26.461130, Alt.=107.876038m. Speed=0.072000m/h.</desc>
<speed>0.020000</speed>
</trkpt>
<trkpt lat="56.005749" lon="26.461130">
<ele>107.877991</ele>
<time>2010-06-20T09:51:57Z</time>
<desc>lat.=56.005749, lon.=26.461130, Alt.=107.877991m. Speed=0.108000m/h.</desc>
<speed>0.030000</speed>
</trkpt>
<trkpt lat="56.005749" lon="26.461130">
<ele>107.876038</ele>
<time>2010-06-20T09:51:58Z</time>
<desc>lat.=56.005749, lon.=26.461130, Alt.=107.876038m. Speed=0.108000m/h.</desc>
<speed>0.030000</speed>
</trkpt>
<trkpt lat="56.005749" lon="26.461130">
<ele>107.872131</ele>
<time>2010-06-20T09:51:59Z</time>
<desc>lat.=56.005749, lon.=26.461130, Alt.=107.872131m. Speed=0.036000m/h.</desc>
<speed>0.010000</speed>
</trkpt>
<trkpt lat="56.005749" lon="26.461130">
<ele>107.868225</ele>
<time>2010-06-20T09:52:00Z</time>
<desc>lat.=56.005749, lon.=26.461130, Alt.=107.868225m. Speed=0.000000m/h.</desc>
<speed>0.000000</speed>
</trkpt>
<trkpt lat="56.005749" lon="26.461130">
<ele>107.866272</ele>
<time>2010-06-20T09:52:01Z</time>
<desc>lat.=56.005749, lon.=26.461130, Alt.=107.866272m. Speed=0.000000m/h.</desc>
<speed>0.000000</speed>
</trkpt>
<trkpt lat="56.005749" lon="26.461130">
<ele>107.866272</ele>
<time>2010-06-20T09:52:02Z</time>
<desc>lat.=56.005749, lon.=26.461130, Alt.=107.866272m. Speed=0.000000m/h.</desc>
<speed>0.000000</speed>
</trkpt>
<trkpt lat="56.005749" lon="26.461130">
<ele>107.866272</ele>
<time>2010-06-20T09:52:03Z</time>
<desc>lat.=56.005749, lon.=26.461130, Alt.=107.866272m. Speed=0.036000m/h.</desc>
<speed>0.010000</speed>
</trkpt>
<trkpt lat="56.005749" lon="26.461130">
<ele>107.864319</ele>
<time>2010-06-20T09:52:04Z</time>
<desc>lat.=56.005749, lon.=26.461130, Alt.=107.864319m. Speed=0.000000m/h.</desc>
<speed>0.000000</speed>
</trkpt>
<trkpt lat="56.005749" lon="26.461130">
<ele>107.862366</ele>
<time>2010-06-20T09:52:05Z</time>
<desc>lat.=56.005749, lon.=26.461130, Alt.=107.862366m. Speed=0.000000m/h.</desc>
<speed>0.000000</speed>
</trkpt>
<trkpt lat="56.005749" lon="26.461130">
<ele>107.858459</ele>
<time>2010-06-20T09:52:06Z</time>
<desc>lat.=56.005749, lon.=26.461130, Alt.=107.858459m. Speed=0.036000m/h.</desc>
<speed>0.010000</speed>
</trkpt>
<trkpt lat="56.005749" lon="26.461130">
<ele>107.850647</ele>
<time>2010-06-20T09:52:07Z</time>
<desc>lat.=56.005749, lon.=26.461130, Alt.=107.850647m. Speed=0.036000m/h.</desc>
<speed>0.010000</speed>
</trkpt>
<trkpt lat="56.005749" lon="26.461130">
<ele>107.844788</ele>
<time>2010-06-20T09:52:08Z</time>
<desc>lat.=56.005749, lon.=26.461130, Alt.=107.844788m. Speed=0.000000m/h.</desc>
<speed>0.000000</speed>
</trkpt>
<trkpt lat="56.005749" lon="26.461130">
<ele>107.842834</ele>
<time>2010-06-20T09:52:09Z</time>
<desc>lat.=56.005749, lon.=26.461130, Alt.=107.842834m. Speed=0.072000m/h.</desc>
<speed>0.020000</speed>
</trkpt>
<trkpt lat="56.005749" lon="26.461130">
<ele>107.846741</ele>
<time>2010-06-20T09:52:10Z</time>
<desc>lat.=56.005749, lon.=26.461130, Alt.=107.846741m. Speed=0.000000m/h.</desc>
<speed>0.000000</speed>
</trkpt>
<trkpt lat="56.005749" lon="26.461130">
<ele>107.854553</ele>
<time>2010-06-20T09:52:11Z</time>
<desc>lat.=56.005749, lon.=26.461130, Alt.=107.854553m. Speed=0.324000m/h.</desc>
<speed>0.090000</speed>
</trkpt>
<trkpt lat="56.005749" lon="26.461130">
<ele>107.852600</ele>
<time>2010-06-20T09:52:12Z</time>
<desc>lat.=56.005749, lon.=26.461130, Alt.=107.852600m. Speed=0.072000m/h.</desc>
<speed>0.020000</speed>
</trkpt>
<trkpt lat="56.005749" lon="26.461130">
<ele>107.858459</ele>
<time>2010-06-20T09:52:13Z</time>
<desc>lat.=56.005749, lon.=26.461130, Alt.=107.858459m. Speed=0.072000m/h.</desc>
<speed>0.020000</speed>
</trkpt>
<trkpt lat="56.005749" lon="26.461130">
<ele>107.860413</ele>
<time>2010-06-20T09:52:14Z</time>
<desc>lat.=56.005749, lon.=26.461130, Alt.=107.860413m. Speed=0.036000m/h.</desc>
<speed>0.010000</speed>
</trkpt>
<trkpt lat="56.005749" lon="26.461130">
<ele>107.858459</ele>
<time>2010-06-20T09:52:15Z</time>
<desc>lat.=56.005749, lon.=26.461130, Alt.=107.858459m. Speed=0.000000m/h.</desc>
<speed>0.000000</speed>
</trkpt>
<trkpt lat="56.005749" lon="26.461130">
<ele>107.856506</ele>
<time>2010-06-20T09:52:16Z</time>
<desc>lat.=56.005749, lon.=26.461130, Alt.=107.856506m. Speed=0.000000m/h.</desc>
<speed>0.000000</speed>
</trkpt>
<trkpt lat="56.005749" lon="26.461130">
<ele>107.858459</ele>
<time>2010-06-20T09:52:17Z</time>
<desc>lat.=56.005749, lon.=26.461130, Alt.=107.858459m. Speed=0.036000m/h.</desc>
<speed>0.010000</speed>
</trkpt>
<trkpt lat="56.005749" lon="26.461130">
<ele>107.844788</ele>
<time>2010-06-20T09:52:18Z</time>
<desc>lat.=56.005749, lon.=26.461130, Alt.=107.844788m. Speed=0.000000m/h.</desc>
<speed>0.000000</speed>
</trkpt>
<trkpt lat="56.005749" lon="26.461130">
<ele>107.842834</ele>
<time>2010-06-20T09:52:19Z</time>
<desc>lat.=56.005749, lon.=26.461130, Alt.=107.842834m. Speed=0.108000m/h.</desc>
<speed>0.030000</speed>
</trkpt>
<trkpt lat="56.005749" lon="26.461130">
<ele>107.838928</ele>
<time>2010-06-20T09:52:20Z</time>
<desc>lat.=56.005749, lon.=26.461130, Alt.=107.838928m. Speed=0.036000m/h.</desc>
<speed>0.010000</speed>
</trkpt>
<trkpt lat="56.005749" lon="26.461130">
<ele>107.836975</ele>
<time>2010-06-20T09:52:21Z</time>
<desc>lat.=56.005749, lon.=26.461130, Alt.=107.836975m. Speed=0.000000m/h.</desc>
<speed>0.000000</speed>
</trkpt>
<trkpt lat="56.005749" lon="26.461130">
<ele>107.835022</ele>
<time>2010-06-20T09:52:22Z</time>
<desc>lat.=56.005749, lon.=26.461130, Alt.=107.835022m. Speed=0.072000m/h.</desc>
<speed>0.020000</speed>
</trkpt>
<trkpt lat="56.005749" lon="26.461130">
<ele>107.831116</ele>
<time>2010-06-20T09:52:23Z</time>
<desc>lat.=56.005749, lon.=26.461130, Alt.=107.831116m. Speed=0.036000m/h.</desc>
<speed>0.010000</speed>
</trkpt>
<trkpt lat="56.005749" lon="26.461130">
<ele>107.829163</ele>
<time>2010-06-20T09:52:24Z</time>
<desc>lat.=56.005749, lon.=26.461130, Alt.=107.829163m. Speed=0.000000m/h.</desc>
<speed>0.000000</speed>
</trkpt>
<trkpt lat="56.005749" lon="26.461130">
<ele>107.827209</ele>
<time>2010-06-20T09:52:25Z</time>
<desc>lat.=56.005749, lon.=26.461130, Alt.=107.827209m. Speed=0.000000m/h.</desc>
<speed>0.000000</speed>
</trkpt>
<trkpt lat="56.005749" lon="26.461130">
<ele>107.829163</ele>
<time>2010-06-20T09:52:26Z</time>
<desc>lat.=56.005749, lon.=26.461130, Alt.=107.829163m. Speed=0.036000m/h.</desc>
<speed>0.010000</speed>
</trkpt>
<trkpt lat="56.005749" lon="26.461130">
<ele>107.829163</ele>
<time>2010-06-20T09:52:27Z</time>
<desc>lat.=56.005749, lon.=26.461130, Alt.=107.829163m. Speed=0.036000m/h.</desc>
<speed>0.010000</speed>
</trkpt>
<trkpt lat="56.005749" lon="26.461130">
<ele>107.827209</ele>
<time>2010-06-20T09:52:28Z</time>
<desc>lat.=56.005749, lon.=26.461130, Alt.=107.827209m. Speed=0.036000m/h.</desc>
<speed>0.010000</speed>
</trkpt>
<trkpt lat="56.005749" lon="26.461130">
<ele>107.827209</ele>
<time>2010-06-20T09:52:29Z</time>
<desc>lat.=56.005749, lon.=26.461130, Alt.=107.827209m. Speed=0.000000m/h.</desc>
<speed>0.000000</speed>
</trkpt>
<trkpt lat="56.005749" lon="26.461130">
<ele>107.825256</ele>
<time>2010-06-20T09:52:30Z</time>
<desc>lat.=56.005749, lon.=26.461130, Alt.=107.825256m. Speed=0.036000m/h.</desc>
<speed>0.010000</speed>
</trkpt>
<trkpt lat="56.005749" lon="26.461130">
<ele>107.825256</ele>
<time>2010-06-20T09:52:31Z</time>
<desc>lat.=56.005749, lon.=26.461130, Alt.=107.825256m. Speed=0.000000m/h.</desc>
<speed>0.000000</speed>
</trkpt>
<trkpt lat="56.005749" lon="26.461130">
<ele>107.825256</ele>
<time>2010-06-20T09:52:32Z</time>
<desc>lat.=56.005749, lon.=26.461130, Alt.=107.825256m. Speed=0.036000m/h.</desc>
<speed>0.010000</speed>
</trkpt>
<trkpt lat="56.005749" lon="26.461130">
<ele>107.825256</ele>
<time>2010-06-20T09:52:33Z</time>
<desc>lat.=56.005749, lon.=26.461130, Alt.=107.825256m. Speed=0.108000m/h.</desc>
<speed>0.030000</speed>
</trkpt>
<trkpt lat="56.005749" lon="26.461130">
<ele>107.825256</ele>
<time>2010-06-20T09:52:34Z</time>
<desc>lat.=56.005749, lon.=26.461130, Alt.=107.825256m. Speed=0.036000m/h.</desc>
<speed>0.010000</speed>
</trkpt>
<trkpt lat="56.005749" lon="26.461130">
<ele>107.827209</ele>
<time>2010-06-20T09:52:35Z</time>
<desc>lat.=56.005749, lon.=26.461130, Alt.=107.827209m. Speed=0.036000m/h.</desc>
<speed>0.010000</speed>
</trkpt>
<trkpt lat="56.005749" lon="26.461130">
<ele>107.827209</ele>
<time>2010-06-20T09:52:36Z</time>
<desc>lat.=56.005749, lon.=26.461130, Alt.=107.827209m. Speed=0.036000m/h.</desc>
<speed>0.010000</speed>
</trkpt>
<trkpt lat="56.005749" lon="26.461130">
<ele>107.827209</ele>
<time>2010-06-20T09:52:37Z</time>
<desc>lat.=56.005749, lon.=26.461130, Alt.=107.827209m. Speed=0.036000m/h.</desc>
<speed>0.010000</speed>
</trkpt>
<trkpt lat="56.005749" lon="26.461130">
<ele>107.827209</ele>
<time>2010-06-20T09:52:38Z</time>
<desc>lat.=56.005749, lon.=26.461130, Alt.=107.827209m. Speed=0.072000m/h.</desc>
<speed>0.020000</speed>
</trkpt>
<trkpt lat="56.005749" lon="26.461130">
<ele>107.827209</ele>
<time>2010-06-20T09:52:39Z</time>
<desc>lat.=56.005749, lon.=26.461130, Alt.=107.827209m. Speed=0.000000m/h.</desc>
<speed>0.000000</speed>
</trkpt>
<trkpt lat="56.005749" lon="26.461130">
<ele>107.827209</ele>
<time>2010-06-20T09:52:40Z</time>
<desc>lat.=56.005749, lon.=26.461130, Alt.=107.827209m. Speed=0.036000m/h.</desc>
<speed>0.010000</speed>
</trkpt>
<trkpt lat="56.005749" lon="26.461130">
<ele>107.827209</ele>
<time>2010-06-20T09:52:41Z</time>
<desc>lat.=56.005749, lon.=26.461130, Alt.=107.827209m. Speed=0.072000m/h.</desc>
<speed>0.020000</speed>
</trkpt>
<trkpt lat="56.005749" lon="26.461130">
<ele>107.823303</ele>
<time>2010-06-20T09:52:42Z</time>
<desc>lat.=56.005749, lon.=26.461130, Alt.=107.823303m. Speed=0.036000m/h.</desc>
<speed>0.010000</speed>
</trkpt>
<trkpt lat="56.005749" lon="26.461130">
<ele>107.823303</ele>
<time>2010-06-20T09:52:43Z</time>
<desc>lat.=56.005749, lon.=26.461130, Alt.=107.823303m. Speed=0.036000m/h.</desc>
<speed>0.010000</speed>
</trkpt>
<trkpt lat="56.005749" lon="26.461130">
<ele>107.823303</ele>
<time>2010-06-20T09:52:44Z</time>
<desc>lat.=56.005749, lon.=26.461130, Alt.=107.823303m. Speed=0.000000m/h.</desc>
<speed>0.000000</speed>
</trkpt>
<trkpt lat="56.005749" lon="26.461130">
<ele>107.821350</ele>
<time>2010-06-20T09:52:45Z</time>
<desc>lat.=56.005749, lon.=26.461130, Alt.=107.821350m. Speed=0.000000m/h.</desc>
<speed>0.000000</speed>
</trkpt>
<trkpt lat="56.005749" lon="26.461130">
<ele>107.819397</ele>
<time>2010-06-20T09:52:46Z</time>
<desc>lat.=56.005749, lon.=26.461130, Alt.=107.819397m. Speed=0.000000m/h.</desc>
<speed>0.000000</speed>
</trkpt>
<trkpt lat="56.005749" lon="26.461130">
<ele>107.817444</ele>
<time>2010-06-20T09:52:47Z</time>
<desc>lat.=56.005749, lon.=26.461130, Alt.=107.817444m. Speed=0.000000m/h.</desc>
<speed>0.000000</speed>
</trkpt>
<trkpt lat="56.005749" lon="26.461130">
<ele>107.817444</ele>
<time>2010-06-20T09:52:48Z</time>
<desc>lat.=56.005749, lon.=26.461130, Alt.=107.817444m. Speed=0.000000m/h.</desc>
<speed>0.000000</speed>
</trkpt>
<trkpt lat="56.005749" lon="26.461130">
<ele>107.817444</ele>
<time>2010-06-20T09:52:49Z</time>
<desc>lat.=56.005749, lon.=26.461130, Alt.=107.817444m. Speed=0.000000m/h.</desc>
<speed>0.000000</speed>
</trkpt>
<trkpt lat="56.005749" lon="26.461130">
<ele>107.815491</ele>
<time>2010-06-20T09:52:50Z</time>
<desc>lat.=56.005749, lon.=26.461130, Alt.=107.815491m. Speed=0.036000m/h.</desc>
<speed>0.010000</speed>
</trkpt>
<trkpt lat="56.005749" lon="26.461130">
<ele>107.815491</ele>
<time>2010-06-20T09:52:51Z</time>
<desc>lat.=56.005749, lon.=26.461130, Alt.=107.815491m. Speed=0.000000m/h.</desc>
<speed>0.000000</speed>
</trkpt>
<trkpt lat="56.005749" lon="26.461130">
<ele>107.813538</ele>
<time>2010-06-20T09:52:52Z</time>
<desc>lat.=56.005749, lon.=26.461130, Alt.=107.813538m. Speed=0.036000m/h.</desc>
<speed>0.010000</speed>
</trkpt>
<trkpt lat="56.005749" lon="26.461130">
<ele>107.813538</ele>
<time>2010-06-20T09:52:53Z</time>
<desc>lat.=56.005749, lon.=26.461130, Alt.=107.813538m. Speed=0.000000m/h.</desc>
<speed>0.000000</speed>
</trkpt>
<trkpt lat="56.005749" lon="26.461130">
<ele>107.817444</ele>
<time>2010-06-20T09:52:54Z</time>
<desc>lat.=56.005749, lon.=26.461130, Alt.=107.817444m. Speed=0.072000m/h.</desc>
<speed>0.020000</speed>
</trkpt>
<trkpt lat="56.005749" lon="26.461130">
<ele>107.823303</ele>
<time>2010-06-20T09:52:55Z</time>
<desc>lat.=56.005749, lon.=26.461130, Alt.=107.823303m. Speed=0.036000m/h.</desc>
<speed>0.010000</speed>
</trkpt>
<trkpt lat="56.005749" lon="26.461130">
<ele>107.827209</ele>
<time>2010-06-20T09:52:56Z</time>
<desc>lat.=56.005749, lon.=26.461130, Alt.=107.827209m. Speed=0.036000m/h.</desc>
<speed>0.010000</speed>
</trkpt>
<trkpt lat="56.005749" lon="26.461130">
<ele>107.827209</ele>
<time>2010-06-20T09:52:57Z</time>
<desc>lat.=56.005749, lon.=26.461130, Alt.=107.827209m. Speed=0.036000m/h.</desc>
<speed>0.010000</speed>
</trkpt>
<trkpt lat="56.005749" lon="26.461130">
<ele>107.827209</ele>
<time>2010-06-20T09:52:58Z</time>
<desc>lat.=56.005749, lon.=26.461130, Alt.=107.827209m. Speed=0.072000m/h.</desc>
<speed>0.020000</speed>
</trkpt>
<trkpt lat="56.005749" lon="26.461130">
<ele>107.829163</ele>
<time>2010-06-20T09:52:59Z</time>
<desc>lat.=56.005749, lon.=26.461130, Alt.=107.829163m. Speed=0.072000m/h.</desc>
<speed>0.020000</speed>
</trkpt>
<trkpt lat="56.005749" lon="26.461130">
<ele>107.831116</ele>
<time>2010-06-20T09:53:00Z</time>
<desc>lat.=56.005749, lon.=26.461130, Alt.=107.831116m. Speed=0.036000m/h.</desc>
<speed>0.010000</speed>
</trkpt>
<trkpt lat="56.005749" lon="26.461130">
<ele>107.827209</ele>
<time>2010-06-20T09:53:01Z</time>
<desc>lat.=56.005749, lon.=26.461130, Alt.=107.827209m. Speed=0.036000m/h.</desc>
<speed>0.010000</speed>
</trkpt>
<trkpt lat="56.005749" lon="26.461130">
<ele>107.825256</ele>
<time>2010-06-20T09:53:02Z</time>
<desc>lat.=56.005749, lon.=26.461130, Alt.=107.825256m. Speed=0.072000m/h.</desc>
<speed>0.020000</speed>
</trkpt>
<trkpt lat="56.005749" lon="26.461130">
<ele>107.821350</ele>
<time>2010-06-20T09:53:03Z</time>
<desc>lat.=56.005749, lon.=26.461130, Alt.=107.821350m. Speed=0.072000m/h.</desc>
<speed>0.020000</speed>
</trkpt>
<trkpt lat="56.005749" lon="26.461130">
<ele>107.821350</ele>
<time>2010-06-20T09:53:04Z</time>
<desc>lat.=56.005749, lon.=26.461130, Alt.=107.821350m. Speed=0.000000m/h.</desc>
<speed>0.000000</speed>
</trkpt>
<trkpt lat="56.005749" lon="26.461130">
<ele>107.819397</ele>
<time>2010-06-20T09:53:05Z</time>
<desc>lat.=56.005749, lon.=26.461130, Alt.=107.819397m. Speed=0.036000m/h.</desc>
<speed>0.010000</speed>
</trkpt>
<trkpt lat="56.005749" lon="26.461130">
<ele>107.817444</ele>
<time>2010-06-20T09:53:06Z</time>
<desc>lat.=56.005749, lon.=26.461130, Alt.=107.817444m. Speed=0.000000m/h.</desc>
<speed>0.000000</speed>
</trkpt>
<trkpt lat="56.005749" lon="26.461130">
<ele>107.815491</ele>
<time>2010-06-20T09:53:07Z</time>
<desc>lat.=56.005749, lon.=26.461130, Alt.=107.815491m. Speed=0.000000m/h.</desc>
<speed>0.000000</speed>
</trkpt>
<trkpt lat="56.005749" lon="26.461130">
<ele>107.815491</ele>
<time>2010-06-20T09:53:08Z</time>
<desc>lat.=56.005749, lon.=26.461130, Alt.=107.815491m. Speed=0.036000m/h.</desc>
<speed>0.010000</speed>
</trkpt>
<trkpt lat="56.005749" lon="26.461130">
<ele>107.813538</ele>
<time>2010-06-20T09:53:09Z</time>
<desc>lat.=56.005749, lon.=26.461130, Alt.=107.813538m. Speed=0.000000m/h.</desc>
<speed>0.000000</speed>
</trkpt>
<trkpt lat="56.005749" lon="26.461130">
<ele>107.811584</ele>
<time>2010-06-20T09:53:10Z</time>
<desc>lat.=56.005749, lon.=26.461130, Alt.=107.811584m. Speed=0.000000m/h.</desc>
<speed>0.000000</speed>
</trkpt>
<trkpt lat="56.005749" lon="26.461130">
<ele>107.809631</ele>
<time>2010-06-20T09:53:11Z</time>
<desc>lat.=56.005749, lon.=26.461130, Alt.=107.809631m. Speed=0.036000m/h.</desc>
<speed>0.010000</speed>
</trkpt>
<trkpt lat="56.005749" lon="26.461130">
<ele>107.809631</ele>
<time>2010-06-20T09:53:12Z</time>
<desc>lat.=56.005749, lon.=26.461130, Alt.=107.809631m. Speed=0.072000m/h.</desc>
<speed>0.020000</speed>
</trkpt>
<trkpt lat="56.005749" lon="26.461130">
<ele>107.805725</ele>
<time>2010-06-20T09:53:13Z</time>
<desc>lat.=56.005749, lon.=26.461130, Alt.=107.805725m. Speed=0.036000m/h.</desc>
<speed>0.010000</speed>
</trkpt>
<trkpt lat="56.005749" lon="26.461130">
<ele>107.803772</ele>
<time>2010-06-20T09:53:14Z</time>
<desc>lat.=56.005749, lon.=26.461130, Alt.=107.803772m. Speed=0.000000m/h.</desc>
<speed>0.000000</speed>
</trkpt>
<trkpt lat="56.005749" lon="26.461130">
<ele>107.803772</ele>
<time>2010-06-20T09:53:15Z</time>
<desc>lat.=56.005749, lon.=26.461130, Alt.=107.803772m. Speed=0.036000m/h.</desc>
<speed>0.010000</speed>
</trkpt>
<trkpt lat="56.005749" lon="26.461130">
<ele>107.799866</ele>
<time>2010-06-20T09:53:16Z</time>
<desc>lat.=56.005749, lon.=26.461130, Alt.=107.799866m. Speed=0.036000m/h.</desc>
<speed>0.010000</speed>
</trkpt>
<trkpt lat="56.005749" lon="26.461130">
<ele>107.795959</ele>
<time>2010-06-20T09:53:17Z</time>
<desc>lat.=56.005749, lon.=26.461130, Alt.=107.795959m. Speed=0.036000m/h.</desc>
<speed>0.010000</speed>
</trkpt>
<trkpt lat="56.005749" lon="26.461130">
<ele>107.786194</ele>
<time>2010-06-20T09:53:18Z</time>
<desc>lat.=56.005749, lon.=26.461130, Alt.=107.786194m. Speed=0.036000m/h.</desc>
<speed>0.010000</speed>
</trkpt>
<trkpt lat="56.005749" lon="26.461130">
<ele>107.784241</ele>
<time>2010-06-20T09:53:19Z</time>
<desc>lat.=56.005749, lon.=26.461130, Alt.=107.784241m. Speed=0.036000m/h.</desc>
<speed>0.010000</speed>
</trkpt>
<trkpt lat="56.005749" lon="26.461130">
<ele>107.780334</ele>
<time>2010-06-20T09:53:20Z</time>
<desc>lat.=56.005749, lon.=26.461130, Alt.=107.780334m. Speed=0.000000m/h.</desc>
<speed>0.000000</speed>
</trkpt>
<trkpt lat="56.005749" lon="26.461130">
<ele>107.774475</ele>
<time>2010-06-20T09:53:21Z</time>
<desc>lat.=56.005749, lon.=26.461130, Alt.=107.774475m. Speed=0.000000m/h.</desc>
<speed>0.000000</speed>
</trkpt>
<trkpt lat="56.005749" lon="26.461130">
<ele>107.772522</ele>
<time>2010-06-20T09:53:22Z</time>
<desc>lat.=56.005749, lon.=26.461130, Alt.=107.772522m. Speed=0.000000m/h.</desc>
<speed>0.000000</speed>
</trkpt>
<trkpt lat="56.005749" lon="26.461130">
<ele>107.770569</ele>
<time>2010-06-20T09:53:23Z</time>
<desc>lat.=56.005749, lon.=26.461130, Alt.=107.770569m. Speed=0.036000m/h.</desc>
<speed>0.010000</speed>
</trkpt>
<trkpt lat="56.005749" lon="26.461130">
<ele>107.770569</ele>
<time>2010-06-20T09:53:24Z</time>
<desc>lat.=56.005749, lon.=26.461130, Alt.=107.770569m. Speed=0.000000m/h.</desc>
<speed>0.000000</speed>
</trkpt>
<trkpt lat="56.005749" lon="26.461130">
<ele>107.772522</ele>
<time>2010-06-20T09:53:25Z</time>
<desc>lat.=56.005749, lon.=26.461130, Alt.=107.772522m. Speed=0.000000m/h.</desc>
<speed>0.000000</speed>
</trkpt>
<trkpt lat="56.005749" lon="26.461130">
<ele>107.772522</ele>
<time>2010-06-20T09:53:26Z</time>
<desc>lat.=56.005749, lon.=26.461130, Alt.=107.772522m. Speed=0.036000m/h.</desc>
<speed>0.010000</speed>
</trkpt>
<trkpt lat="56.005749" lon="26.461130">
<ele>107.772522</ele>
<time>2010-06-20T09:53:27Z</time>
<desc>lat.=56.005749, lon.=26.461130, Alt.=107.772522m. Speed=0.000000m/h.</desc>
<speed>0.000000</speed>
</trkpt>
<trkpt lat="56.005749" lon="26.461130">
<ele>107.774475</ele>
<time>2010-06-20T09:53:28Z</time>
<desc>lat.=56.005749, lon.=26.461130, Alt.=107.774475m. Speed=0.000000m/h.</desc>
<speed>0.000000</speed>
</trkpt>
<trkpt lat="56.005749" lon="26.461130">
<ele>107.778381</ele>
<time>2010-06-20T09:53:29Z</time>
<desc>lat.=56.005749, lon.=26.461130, Alt.=107.778381m. Speed=0.000000m/h.</desc>
<speed>0.000000</speed>
</trkpt>
<trkpt lat="56.005749" lon="26.461130">
<ele>107.778381</ele>
<time>2010-06-20T09:53:30Z</time>
<desc>lat.=56.005749, lon.=26.461130, Alt.=107.778381m. Speed=0.000000m/h.</desc>
<speed>0.000000</speed>
</trkpt>
<trkpt lat="56.005749" lon="26.461130">
<ele>107.776428</ele>
<time>2010-06-20T09:53:31Z</time>
<desc>lat.=56.005749, lon.=26.461130, Alt.=107.776428m. Speed=0.036000m/h.</desc>
<speed>0.010000</speed>
</trkpt>
<trkpt lat="56.005749" lon="26.461130">
<ele>107.776428</ele>
<time>2010-06-20T09:53:32Z</time>
<desc>lat.=56.005749, lon.=26.461130, Alt.=107.776428m. Speed=0.036000m/h.</desc>
<speed>0.010000</speed>
</trkpt>
<trkpt lat="56.005749" lon="26.461130">
<ele>107.780334</ele>
<time>2010-06-20T09:53:33Z</time>
<desc>lat.=56.005749, lon.=26.461130, Alt.=107.780334m. Speed=0.000000m/h.</desc>
<speed>0.000000</speed>
</trkpt>
<trkpt lat="56.005749" lon="26.461130">
<ele>107.784241</ele>
<time>2010-06-20T09:53:34Z</time>
<desc>lat.=56.005749, lon.=26.461130, Alt.=107.784241m. Speed=0.000000m/h.</desc>
<speed>0.000000</speed>
</trkpt>
<trkpt lat="56.005749" lon="26.461130">
<ele>107.788147</ele>
<time>2010-06-20T09:53:35Z</time>
<desc>lat.=56.005749, lon.=26.461130, Alt.=107.788147m. Speed=0.000000m/h.</desc>
<speed>0.000000</speed>
</trkpt>
<trkpt lat="56.005749" lon="26.461130">
<ele>107.792053</ele>
<time>2010-06-20T09:53:36Z</time>
<desc>lat.=56.005749, lon.=26.461130, Alt.=107.792053m. Speed=0.036000m/h.</desc>
<speed>0.010000</speed>
</trkpt>
<trkpt lat="56.005749" lon="26.461130">
<ele>107.794006</ele>
<time>2010-06-20T09:53:37Z</time>
<desc>lat.=56.005749, lon.=26.461130, Alt.=107.794006m. Speed=0.000000m/h.</desc>
<speed>0.000000</speed>
</trkpt>
<trkpt lat="56.005749" lon="26.461130">
<ele>107.792053</ele>
<time>2010-06-20T09:53:38Z</time>
<desc>lat.=56.005749, lon.=26.461130, Alt.=107.792053m. Speed=0.000000m/h.</desc>
<speed>0.000000</speed>
</trkpt>
<trkpt lat="56.005749" lon="26.461130">
<ele>107.792053</ele>
<time>2010-06-20T09:53:39Z</time>
<desc>lat.=56.005749, lon.=26.461130, Alt.=107.792053m. Speed=0.000000m/h.</desc>
<speed>0.000000</speed>
</trkpt>
<trkpt lat="56.005749" lon="26.461132">
<ele>107.792053</ele>
<time>2010-06-20T09:53:40Z</time>
<desc>lat.=56.005749, lon.=26.461132, Alt.=107.792053m. Speed=0.000000m/h.</desc>
<speed>0.000000</speed>
</trkpt>
<trkpt lat="56.005749" lon="26.461132">
<ele>107.788147</ele>
<time>2010-06-20T09:53:41Z</time>
<desc>lat.=56.005749, lon.=26.461132, Alt.=107.788147m. Speed=0.000000m/h.</desc>
<speed>0.000000</speed>
</trkpt>
<trkpt lat="56.005749" lon="26.461132">
<ele>107.782288</ele>
<time>2010-06-20T09:53:42Z</time>
<desc>lat.=56.005749, lon.=26.461132, Alt.=107.782288m. Speed=0.000000m/h.</desc>
<speed>0.000000</speed>
</trkpt>
<trkpt lat="56.005749" lon="26.461132">
<ele>107.774475</ele>
<time>2010-06-20T09:53:43Z</time>
<desc>lat.=56.005749, lon.=26.461132, Alt.=107.774475m. Speed=0.036000m/h.</desc>
<speed>0.010000</speed>
</trkpt>
<trkpt lat="56.005749" lon="26.461132">
<ele>107.766663</ele>
<time>2010-06-20T09:53:44Z</time>
<desc>lat.=56.005749, lon.=26.461132, Alt.=107.766663m. Speed=0.000000m/h.</desc>
<speed>0.000000</speed>
</trkpt>
<trkpt lat="56.005749" lon="26.461132">
<ele>107.762756</ele>
<time>2010-06-20T09:53:45Z</time>
<desc>lat.=56.005749, lon.=26.461132, Alt.=107.762756m. Speed=0.036000m/h.</desc>
<speed>0.010000</speed>
</trkpt>
<trkpt lat="56.005749" lon="26.461132">
<ele>107.756897</ele>
<time>2010-06-20T09:53:46Z</time>
<desc>lat.=56.005749, lon.=26.461132, Alt.=107.756897m. Speed=0.072000m/h.</desc>
<speed>0.020000</speed>
</trkpt>
<trkpt lat="56.005749" lon="26.461132">
<ele>107.751038</ele>
<time>2010-06-20T09:53:47Z</time>
<desc>lat.=56.005749, lon.=26.461132, Alt.=107.751038m. Speed=0.000000m/h.</desc>
<speed>0.000000</speed>
</trkpt>
<trkpt lat="56.005749" lon="26.461132">
<ele>107.743225</ele>
<time>2010-06-20T09:53:48Z</time>
<desc>lat.=56.005749, lon.=26.461132, Alt.=107.743225m. Speed=0.000000m/h.</desc>
<speed>0.000000</speed>
</trkpt>
<trkpt lat="56.005749" lon="26.461132">
<ele>107.737366</ele>
<time>2010-06-20T09:53:49Z</time>
<desc>lat.=56.005749, lon.=26.461132, Alt.=107.737366m. Speed=0.000000m/h.</desc>
<speed>0.000000</speed>
</trkpt>
<trkpt lat="56.005749" lon="26.461132">
<ele>107.735413</ele>
<time>2010-06-20T09:53:50Z</time>
<desc>lat.=56.005749, lon.=26.461132, Alt.=107.735413m. Speed=0.072000m/h.</desc>
<speed>0.020000</speed>
</trkpt>
<trkpt lat="56.005749" lon="26.461132">
<ele>107.731506</ele>
<time>2010-06-20T09:53:51Z</time>
<desc>lat.=56.005749, lon.=26.461132, Alt.=107.731506m. Speed=0.000000m/h.</desc>
<speed>0.000000</speed>
</trkpt>
<trkpt lat="56.005749" lon="26.461132">
<ele>107.723694</ele>
<time>2010-06-20T09:53:52Z</time>
<desc>lat.=56.005749, lon.=26.461132, Alt.=107.723694m. Speed=0.036000m/h.</desc>
<speed>0.010000</speed>
</trkpt>
<trkpt lat="56.005749" lon="26.461132">
<ele>107.719788</ele>
<time>2010-06-20T09:53:53Z</time>
<desc>lat.=56.005749, lon.=26.461132, Alt.=107.719788m. Speed=0.000000m/h.</desc>
<speed>0.000000</speed>
</trkpt>
<trkpt lat="56.005749" lon="26.461132">
<ele>107.713928</ele>
<time>2010-06-20T09:53:54Z</time>
<desc>lat.=56.005749, lon.=26.461132, Alt.=107.713928m. Speed=0.000000m/h.</desc>
<speed>0.000000</speed>
</trkpt>
<trkpt lat="56.005749" lon="26.461132">
<ele>107.708069</ele>
<time>2010-06-20T09:53:55Z</time>
<desc>lat.=56.005749, lon.=26.461132, Alt.=107.708069m. Speed=0.000000m/h.</desc>
<speed>0.000000</speed>
</trkpt>
<trkpt lat="56.005749" lon="26.461132">
<ele>107.706116</ele>
<time>2010-06-20T09:53:56Z</time>
<desc>lat.=56.005749, lon.=26.461132, Alt.=107.706116m. Speed=0.000000m/h.</desc>
<speed>0.000000</speed>
</trkpt>
<trkpt lat="56.005749" lon="26.461132">
<ele>107.698303</ele>
<time>2010-06-20T09:53:57Z</time>
<desc>lat.=56.005749, lon.=26.461132, Alt.=107.698303m. Speed=0.000000m/h.</desc>
<speed>0.000000</speed>
</trkpt>
<trkpt lat="56.005749" lon="26.461130">
<ele>107.692444</ele>
<time>2010-06-20T09:53:58Z</time>
<desc>lat.=56.005749, lon.=26.461130, Alt.=107.692444m. Speed=0.036000m/h.</desc>
<speed>0.010000</speed>
</trkpt>
<trkpt lat="56.005749" lon="26.461130">
<ele>107.688538</ele>
<time>2010-06-20T09:53:59Z</time>
<desc>lat.=56.005749, lon.=26.461130, Alt.=107.688538m. Speed=0.036000m/h.</desc>
<speed>0.010000</speed>
</trkpt>
<trkpt lat="56.005749" lon="26.461130">
<ele>107.684631</ele>
<time>2010-06-20T09:54:00Z</time>
<desc>lat.=56.005749, lon.=26.461130, Alt.=107.684631m. Speed=0.000000m/h.</desc>
<speed>0.000000</speed>
</trkpt>
<trkpt lat="56.005749" lon="26.461130">
<ele>107.680725</ele>
<time>2010-06-20T09:54:01Z</time>
<desc>lat.=56.005749, lon.=26.461130, Alt.=107.680725m. Speed=0.000000m/h.</desc>
<speed>0.000000</speed>
</trkpt>
<trkpt lat="56.005749" lon="26.461130">
<ele>107.676819</ele>
<time>2010-06-20T09:54:02Z</time>
<desc>lat.=56.005749, lon.=26.461130, Alt.=107.676819m. Speed=0.000000m/h.</desc>
<speed>0.000000</speed>
</trkpt>
<trkpt lat="56.005749" lon="26.461130">
<ele>107.670959</ele>
<time>2010-06-20T09:54:03Z</time>
<desc>lat.=56.005749, lon.=26.461130, Alt.=107.670959m. Speed=0.000000m/h.</desc>
<speed>0.000000</speed>
</trkpt>
<trkpt lat="56.005749" lon="26.461130">
<ele>107.665100</ele>
<time>2010-06-20T09:54:04Z</time>
<desc>lat.=56.005749, lon.=26.461130, Alt.=107.665100m. Speed=0.036000m/h.</desc>
<speed>0.010000</speed>
</trkpt>
<trkpt lat="56.005749" lon="26.461130">
<ele>107.659241</ele>
<time>2010-06-20T09:54:05Z</time>
<desc>lat.=56.005749, lon.=26.461130, Alt.=107.659241m. Speed=0.036000m/h.</desc>
<speed>0.010000</speed>
</trkpt>
<trkpt lat="56.005749" lon="26.461130">
<ele>107.651428</ele>
<time>2010-06-20T09:54:06Z</time>
<desc>lat.=56.005749, lon.=26.461130, Alt.=107.651428m. Speed=0.000000m/h.</desc>
<speed>0.000000</speed>
</trkpt>
<trkpt lat="56.005749" lon="26.461130">
<ele>107.647522</ele>
<time>2010-06-20T09:54:07Z</time>
<desc>lat.=56.005749, lon.=26.461130, Alt.=107.647522m. Speed=0.000000m/h.</desc>
<speed>0.000000</speed>
</trkpt>
<trkpt lat="56.005749" lon="26.461130">
<ele>107.643616</ele>
<time>2010-06-20T09:54:08Z</time>
<desc>lat.=56.005749, lon.=26.461130, Alt.=107.643616m. Speed=0.000000m/h.</desc>
<speed>0.000000</speed>
</trkpt>
<trkpt lat="56.005749" lon="26.461130">
<ele>107.639709</ele>
<time>2010-06-20T09:54:09Z</time>
<desc>lat.=56.005749, lon.=26.461130, Alt.=107.639709m. Speed=0.036000m/h.</desc>
<speed>0.010000</speed>
</trkpt>
<trkpt lat="56.005749" lon="26.461130">
<ele>107.635803</ele>
<time>2010-06-20T09:54:10Z</time>
<desc>lat.=56.005749, lon.=26.461130, Alt.=107.635803m. Speed=0.000000m/h.</desc>
<speed>0.000000</speed>
</trkpt>
<trkpt lat="56.005749" lon="26.461130">
<ele>107.633850</ele>
<time>2010-06-20T09:54:11Z</time>
<desc>lat.=56.005749, lon.=26.461130, Alt.=107.633850m. Speed=0.000000m/h.</desc>
<speed>0.000000</speed>
</trkpt>
<trkpt lat="56.005749" lon="26.461130">
<ele>107.635803</ele>
<time>2010-06-20T09:54:12Z</time>
<desc>lat.=56.005749, lon.=26.461130, Alt.=107.635803m. Speed=0.000000m/h.</desc>
<speed>0.000000</speed>
</trkpt>
<trkpt lat="56.005749" lon="26.461130">
<ele>107.635803</ele>
<time>2010-06-20T09:54:13Z</time>
<desc>lat.=56.005749, lon.=26.461130, Alt.=107.635803m. Speed=0.000000m/h.</desc>
<speed>0.000000</speed>
</trkpt>
<trkpt lat="56.005749" lon="26.461130">
<ele>107.631897</ele>
<time>2010-06-20T09:54:14Z</time>
<desc>lat.=56.005749, lon.=26.461130, Alt.=107.631897m. Speed=0.036000m/h.</desc>
<speed>0.010000</speed>
</trkpt>
<trkpt lat="56.005749" lon="26.461130">
<ele>107.629944</ele>
<time>2010-06-20T09:54:15Z</time>
<desc>lat.=56.005749, lon.=26.461130, Alt.=107.629944m. Speed=0.000000m/h.</desc>
<speed>0.000000</speed>
</trkpt>
<trkpt lat="56.005749" lon="26.461130">
<ele>107.629944</ele>
<time>2010-06-20T09:54:16Z</time>
<desc>lat.=56.005749, lon.=26.461130, Alt.=107.629944m. Speed=0.000000m/h.</desc>
<speed>0.000000</speed>
</trkpt>
<trkpt lat="56.005749" lon="26.461130">
<ele>107.629944</ele>
<time>2010-06-20T09:54:17Z</time>
<desc>lat.=56.005749, lon.=26.461130, Alt.=107.629944m. Speed=0.000000m/h.</desc>
<speed>0.000000</speed>
</trkpt>
<trkpt lat="56.005749" lon="26.461130">
<ele>107.629944</ele>
<time>2010-06-20T09:54:18Z</time>
<desc>lat.=56.005749, lon.=26.461130, Alt.=107.629944m. Speed=0.036000m/h.</desc>
<speed>0.010000</speed>
</trkpt>
<trkpt lat="56.005749" lon="26.461130">
<ele>107.629944</ele>
<time>2010-06-20T09:54:19Z</time>
<desc>lat.=56.005749, lon.=26.461130, Alt.=107.629944m. Speed=0.000000m/h.</desc>
<speed>0.000000</speed>
</trkpt>
<trkpt lat="56.005749" lon="26.461130">
<ele>107.627991</ele>
<time>2010-06-20T09:54:20Z</time>
<desc>lat.=56.005749, lon.=26.461130, Alt.=107.627991m. Speed=0.072000m/h.</desc>
<speed>0.020000</speed>
</trkpt>
<trkpt lat="56.005749" lon="26.461130">
<ele>107.624084</ele>
<time>2010-06-20T09:54:21Z</time>
<desc>lat.=56.005749, lon.=26.461130, Alt.=107.624084m. Speed=0.036000m/h.</desc>
<speed>0.010000</speed>
</trkpt>
<trkpt lat="56.005749" lon="26.461130">
<ele>107.620178</ele>
<time>2010-06-20T09:54:22Z</time>
<desc>lat.=56.005749, lon.=26.461130, Alt.=107.620178m. Speed=0.036000m/h.</desc>
<speed>0.010000</speed>
</trkpt>
<trkpt lat="56.005749" lon="26.461130">
<ele>107.616272</ele>
<time>2010-06-20T09:54:23Z</time>
<desc>lat.=56.005749, lon.=26.461130, Alt.=107.616272m. Speed=0.000000m/h.</desc>
<speed>0.000000</speed>
</trkpt>
<trkpt lat="56.005749" lon="26.461130">
<ele>107.612366</ele>
<time>2010-06-20T09:54:24Z</time>
<desc>lat.=56.005749, lon.=26.461130, Alt.=107.612366m. Speed=0.000000m/h.</desc>
<speed>0.000000</speed>
</trkpt>
<trkpt lat="56.005749" lon="26.461130">
<ele>107.608459</ele>
<time>2010-06-20T09:54:25Z</time>
<desc>lat.=56.005749, lon.=26.461130, Alt.=107.608459m. Speed=0.036000m/h.</desc>
<speed>0.010000</speed>
</trkpt>
<trkpt lat="56.005749" lon="26.461130">
<ele>107.604553</ele>
<time>2010-06-20T09:54:26Z</time>
<desc>lat.=56.005749, lon.=26.461130, Alt.=107.604553m. Speed=0.000000m/h.</desc>
<speed>0.000000</speed>
</trkpt>
<trkpt lat="56.005749" lon="26.461130">
<ele>107.600647</ele>
<time>2010-06-20T09:54:27Z</time>
<desc>lat.=56.005749, lon.=26.461130, Alt.=107.600647m. Speed=0.000000m/h.</desc>
<speed>0.000000</speed>
</trkpt>
<trkpt lat="56.005749" lon="26.461130">
<ele>107.596741</ele>
<time>2010-06-20T09:54:28Z</time>
<desc>lat.=56.005749, lon.=26.461130, Alt.=107.596741m. Speed=0.000000m/h.</desc>
<speed>0.000000</speed>
</trkpt>
<trkpt lat="56.005749" lon="26.461130">
<ele>107.590881</ele>
<time>2010-06-20T09:54:29Z</time>
<desc>lat.=56.005749, lon.=26.461130, Alt.=107.590881m. Speed=0.000000m/h.</desc>
<speed>0.000000</speed>
</trkpt>
<trkpt lat="56.005749" lon="26.461130">
<ele>107.590881</ele>
<time>2010-06-20T09:54:30Z</time>
<desc>lat.=56.005749, lon.=26.461130, Alt.=107.590881m. Speed=0.000000m/h.</desc>
<speed>0.000000</speed>
</trkpt>
<trkpt lat="56.005749" lon="26.461130">
<ele>107.588928</ele>
<time>2010-06-20T09:54:31Z</time>
<desc>lat.=56.005749, lon.=26.461130, Alt.=107.588928m. Speed=0.000000m/h.</desc>
<speed>0.000000</speed>
</trkpt>
<trkpt lat="56.005749" lon="26.461130">
<ele>107.590881</ele>
<time>2010-06-20T09:54:32Z</time>
<desc>lat.=56.005749, lon.=26.461130, Alt.=107.590881m. Speed=0.000000m/h.</desc>
<speed>0.000000</speed>
</trkpt>
<trkpt lat="56.005749" lon="26.461130">
<ele>107.586975</ele>
<time>2010-06-20T09:54:33Z</time>
<desc>lat.=56.005749, lon.=26.461130, Alt.=107.586975m. Speed=0.108000m/h.</desc>
<speed>0.030000</speed>
</trkpt>
<trkpt lat="56.005749" lon="26.461130">
<ele>107.583069</ele>
<time>2010-06-20T09:54:34Z</time>
<desc>lat.=56.005749, lon.=26.461130, Alt.=107.583069m. Speed=0.036000m/h.</desc>
<speed>0.010000</speed>
</trkpt>
<trkpt lat="56.005749" lon="26.461130">
<ele>107.581116</ele>
<time>2010-06-20T09:54:35Z</time>
<desc>lat.=56.005749, lon.=26.461130, Alt.=107.581116m. Speed=0.000000m/h.</desc>
<speed>0.000000</speed>
</trkpt>
<trkpt lat="56.005749" lon="26.461130">
<ele>107.577209</ele>
<time>2010-06-20T09:54:36Z</time>
<desc>lat.=56.005749, lon.=26.461130, Alt.=107.577209m. Speed=0.000000m/h.</desc>
<speed>0.000000</speed>
</trkpt>
<trkpt lat="56.005749" lon="26.461130">
<ele>107.573303</ele>
<time>2010-06-20T09:54:37Z</time>
<desc>lat.=56.005749, lon.=26.461130, Alt.=107.573303m. Speed=0.036000m/h.</desc>
<speed>0.010000</speed>
</trkpt>
<trkpt lat="56.005749" lon="26.461130">
<ele>107.571350</ele>
<time>2010-06-20T09:54:38Z</time>
<desc>lat.=56.005749, lon.=26.461130, Alt.=107.571350m. Speed=0.000000m/h.</desc>
<speed>0.000000</speed>
</trkpt>
<trkpt lat="56.005749" lon="26.461130">
<ele>107.567444</ele>
<time>2010-06-20T09:54:39Z</time>
<desc>lat.=56.005749, lon.=26.461130, Alt.=107.567444m. Speed=0.000000m/h.</desc>
<speed>0.000000</speed>
</trkpt>
<trkpt lat="56.005749" lon="26.461130">
<ele>107.565491</ele>
<time>2010-06-20T09:54:40Z</time>
<desc>lat.=56.005749, lon.=26.461130, Alt.=107.565491m. Speed=0.000000m/h.</desc>
<speed>0.000000</speed>
</trkpt>
<trkpt lat="56.005749" lon="26.461130">
<ele>107.561584</ele>
<time>2010-06-20T09:54:41Z</time>
<desc>lat.=56.005749, lon.=26.461130, Alt.=107.561584m. Speed=0.000000m/h.</desc>
<speed>0.000000</speed>
</trkpt>
<trkpt lat="56.005749" lon="26.461130">
<ele>107.559631</ele>
<time>2010-06-20T09:54:42Z</time>
<desc>lat.=56.005749, lon.=26.461130, Alt.=107.559631m. Speed=0.000000m/h.</desc>
<speed>0.000000</speed>
</trkpt>
<trkpt lat="56.005749" lon="26.461130">
<ele>107.555725</ele>
<time>2010-06-20T09:54:43Z</time>
<desc>lat.=56.005749, lon.=26.461130, Alt.=107.555725m. Speed=0.000000m/h.</desc>
<speed>0.000000</speed>
</trkpt>
<trkpt lat="56.005749" lon="26.461130">
<ele>107.553772</ele>
<time>2010-06-20T09:54:44Z</time>
<desc>lat.=56.005749, lon.=26.461130, Alt.=107.553772m. Speed=0.036000m/h.</desc>
<speed>0.010000</speed>
</trkpt>
<trkpt lat="56.005749" lon="26.461130">
<ele>107.555725</ele>
<time>2010-06-20T09:54:45Z</time>
<desc>lat.=56.005749, lon.=26.461130, Alt.=107.555725m. Speed=0.000000m/h.</desc>
<speed>0.000000</speed>
</trkpt>
<trkpt lat="56.005749" lon="26.461130">
<ele>107.557678</ele>
<time>2010-06-20T09:54:46Z</time>
<desc>lat.=56.005749, lon.=26.461130, Alt.=107.557678m. Speed=0.000000m/h.</desc>
<speed>0.000000</speed>
</trkpt>
<trkpt lat="56.005749" lon="26.461130">
<ele>107.553772</ele>
<time>2010-06-20T09:54:47Z</time>
<desc>lat.=56.005749, lon.=26.461130, Alt.=107.553772m. Speed=0.000000m/h.</desc>
<speed>0.000000</speed>
</trkpt>
<trkpt lat="56.005749" lon="26.461130">
<ele>107.549866</ele>
<time>2010-06-20T09:54:48Z</time>
<desc>lat.=56.005749, lon.=26.461130, Alt.=107.549866m. Speed=0.000000m/h.</desc>
<speed>0.000000</speed>
</trkpt>
<trkpt lat="56.005749" lon="26.461130">
<ele>107.549866</ele>
<time>2010-06-20T09:54:49Z</time>
<desc>lat.=56.005749, lon.=26.461130, Alt.=107.549866m. Speed=0.000000m/h.</desc>
<speed>0.000000</speed>
</trkpt>
<trkpt lat="56.005749" lon="26.461130">
<ele>107.547913</ele>
<time>2010-06-20T09:54:50Z</time>
<desc>lat.=56.005749, lon.=26.461130, Alt.=107.547913m. Speed=0.000000m/h.</desc>
<speed>0.000000</speed>
</trkpt>
<trkpt lat="56.005749" lon="26.461130">
<ele>107.545959</ele>
<time>2010-06-20T09:54:51Z</time>
<desc>lat.=56.005749, lon.=26.461130, Alt.=107.545959m. Speed=0.036000m/h.</desc>
<speed>0.010000</speed>
</trkpt>
<trkpt lat="56.005749" lon="26.461130">
<ele>107.545959</ele>
<time>2010-06-20T09:54:52Z</time>
<desc>lat.=56.005749, lon.=26.461130, Alt.=107.545959m. Speed=0.000000m/h.</desc>
<speed>0.000000</speed>
</trkpt>
<trkpt lat="56.005749" lon="26.461130">
<ele>107.549866</ele>
<time>2010-06-20T09:54:53Z</time>
<desc>lat.=56.005749, lon.=26.461130, Alt.=107.549866m. Speed=0.000000m/h.</desc>
<speed>0.000000</speed>
</trkpt>
<trkpt lat="56.005749" lon="26.461130">
<ele>107.549866</ele>
<time>2010-06-20T09:54:54Z</time>
<desc>lat.=56.005749, lon.=26.461130, Alt.=107.549866m. Speed=0.000000m/h.</desc>
<speed>0.000000</speed>
</trkpt>
<trkpt lat="56.005749" lon="26.461130">
<ele>107.549866</ele>
<time>2010-06-20T09:54:55Z</time>
<desc>lat.=56.005749, lon.=26.461130, Alt.=107.549866m. Speed=0.000000m/h.</desc>
<speed>0.000000</speed>
</trkpt>
<trkpt lat="56.005749" lon="26.461130">
<ele>107.545959</ele>
<time>2010-06-20T09:54:56Z</time>
<desc>lat.=56.005749, lon.=26.461130, Alt.=107.545959m. Speed=0.000000m/h.</desc>
<speed>0.000000</speed>
</trkpt>
<trkpt lat="56.005749" lon="26.461130">
<ele>107.544006</ele>
<time>2010-06-20T09:54:57Z</time>
<desc>lat.=56.005749, lon.=26.461130, Alt.=107.544006m. Speed=0.000000m/h.</desc>
<speed>0.000000</speed>
</trkpt>
<trkpt lat="56.005749" lon="26.461130">
<ele>107.540100</ele>
<time>2010-06-20T09:54:58Z</time>
<desc>lat.=56.005749, lon.=26.461130, Alt.=107.540100m. Speed=0.036000m/h.</desc>
<speed>0.010000</speed>
</trkpt>
<trkpt lat="56.005749" lon="26.461130">
<ele>107.534241</ele>
<time>2010-06-20T09:54:59Z</time>
<desc>lat.=56.005749, lon.=26.461130, Alt.=107.534241m. Speed=0.036000m/h.</desc>
<speed>0.010000</speed>
</trkpt>
<trkpt lat="56.005749" lon="26.461130">
<ele>107.528381</ele>
<time>2010-06-20T09:55:00Z</time>
<desc>lat.=56.005749, lon.=26.461130, Alt.=107.528381m. Speed=0.000000m/h.</desc>
<speed>0.000000</speed>
</trkpt>
<trkpt lat="56.005749" lon="26.461130">
<ele>107.522522</ele>
<time>2010-06-20T09:55:01Z</time>
<desc>lat.=56.005749, lon.=26.461130, Alt.=107.522522m. Speed=0.000000m/h.</desc>
<speed>0.000000</speed>
</trkpt>
<trkpt lat="56.005749" lon="26.461130">
<ele>107.518616</ele>
<time>2010-06-20T09:55:02Z</time>
<desc>lat.=56.005749, lon.=26.461130, Alt.=107.518616m. Speed=0.036000m/h.</desc>
<speed>0.010000</speed>
</trkpt>
<trkpt lat="56.005749" lon="26.461130">
<ele>107.514709</ele>
<time>2010-06-20T09:55:03Z</time>
<desc>lat.=56.005749, lon.=26.461130, Alt.=107.514709m. Speed=0.072000m/h.</desc>
<speed>0.020000</speed>
</trkpt>
<trkpt lat="56.005749" lon="26.461130">
<ele>107.512756</ele>
<time>2010-06-20T09:55:04Z</time>
<desc>lat.=56.005749, lon.=26.461130, Alt.=107.512756m. Speed=0.072000m/h.</desc>
<speed>0.020000</speed>
</trkpt>
<trkpt lat="56.005749" lon="26.461130">
<ele>107.512756</ele>
<time>2010-06-20T09:55:05Z</time>
<desc>lat.=56.005749, lon.=26.461130, Alt.=107.512756m. Speed=0.036000m/h.</desc>
<speed>0.010000</speed>
</trkpt>
<trkpt lat="56.005749" lon="26.461130">
<ele>107.512756</ele>
<time>2010-06-20T09:55:06Z</time>
<desc>lat.=56.005749, lon.=26.461130, Alt.=107.512756m. Speed=0.036000m/h.</desc>
<speed>0.010000</speed>
</trkpt>
<trkpt lat="56.005749" lon="26.461130">
<ele>107.510803</ele>
<time>2010-06-20T09:55:07Z</time>
<desc>lat.=56.005749, lon.=26.461130, Alt.=107.510803m. Speed=0.072000m/h.</desc>
<speed>0.020000</speed>
</trkpt>
<trkpt lat="56.005749" lon="26.461130">
<ele>107.508850</ele>
<time>2010-06-20T09:55:08Z</time>
<desc>lat.=56.005749, lon.=26.461130, Alt.=107.508850m. Speed=0.036000m/h.</desc>
<speed>0.010000</speed>
</trkpt>
<trkpt lat="56.005749" lon="26.461130">
<ele>107.508850</ele>
<time>2010-06-20T09:55:09Z</time>
<desc>lat.=56.005749, lon.=26.461130, Alt.=107.508850m. Speed=0.000000m/h.</desc>
<speed>0.000000</speed>
</trkpt>
<trkpt lat="56.005749" lon="26.461130">
<ele>107.510803</ele>
<time>2010-06-20T09:55:10Z</time>
<desc>lat.=56.005749, lon.=26.461130, Alt.=107.510803m. Speed=0.036000m/h.</desc>
<speed>0.010000</speed>
</trkpt>
<trkpt lat="56.005749" lon="26.461130">
<ele>107.512756</ele>
<time>2010-06-20T09:55:11Z</time>
<desc>lat.=56.005749, lon.=26.461130, Alt.=107.512756m. Speed=0.036000m/h.</desc>
<speed>0.010000</speed>
</trkpt>
<trkpt lat="56.005749" lon="26.461128">
<ele>107.512756</ele>
<time>2010-06-20T09:55:12Z</time>
<desc>lat.=56.005749, lon.=26.461128, Alt.=107.512756m. Speed=0.036000m/h.</desc>
<speed>0.010000</speed>
</trkpt>
<trkpt lat="56.005749" lon="26.461128">
<ele>107.510803</ele>
<time>2010-06-20T09:55:13Z</time>
<desc>lat.=56.005749, lon.=26.461128, Alt.=107.510803m. Speed=0.000000m/h.</desc>
<speed>0.000000</speed>
</trkpt>
<trkpt lat="56.005749" lon="26.461128">
<ele>107.506897</ele>
<time>2010-06-20T09:55:14Z</time>
<desc>lat.=56.005749, lon.=26.461128, Alt.=107.506897m. Speed=0.036000m/h.</desc>
<speed>0.010000</speed>
</trkpt>
<trkpt lat="56.005749" lon="26.461128">
<ele>107.502991</ele>
<time>2010-06-20T09:55:15Z</time>
<desc>lat.=56.005749, lon.=26.461128, Alt.=107.502991m. Speed=0.000000m/h.</desc>
<speed>0.000000</speed>
</trkpt>
<trkpt lat="56.005749" lon="26.461128">
<ele>107.501038</ele>
<time>2010-06-20T09:55:16Z</time>
<desc>lat.=56.005749, lon.=26.461128, Alt.=107.501038m. Speed=0.036000m/h.</desc>
<speed>0.010000</speed>
</trkpt>
<trkpt lat="56.005749" lon="26.461128">
<ele>107.501038</ele>
<time>2010-06-20T09:55:17Z</time>
<desc>lat.=56.005749, lon.=26.461128, Alt.=107.501038m. Speed=0.000000m/h.</desc>
<speed>0.000000</speed>
</trkpt>
<trkpt lat="56.005749" lon="26.461128">
<ele>107.502991</ele>
<time>2010-06-20T09:55:18Z</time>
<desc>lat.=56.005749, lon.=26.461128, Alt.=107.502991m. Speed=0.000000m/h.</desc>
<speed>0.000000</speed>
</trkpt>
<trkpt lat="56.005749" lon="26.461128">
<ele>107.501038</ele>
<time>2010-06-20T09:55:19Z</time>
<desc>lat.=56.005749, lon.=26.461128, Alt.=107.501038m. Speed=0.036000m/h.</desc>
<speed>0.010000</speed>
</trkpt>
<trkpt lat="56.005749" lon="26.461128">
<ele>107.501038</ele>
<time>2010-06-20T09:55:20Z</time>
<desc>lat.=56.005749, lon.=26.461128, Alt.=107.501038m. Speed=0.036000m/h.</desc>
<speed>0.010000</speed>
</trkpt>
<trkpt lat="56.005749" lon="26.461128">
<ele>107.501038</ele>
<time>2010-06-20T09:55:21Z</time>
<desc>lat.=56.005749, lon.=26.461128, Alt.=107.501038m. Speed=0.036000m/h.</desc>
<speed>0.010000</speed>
</trkpt>
<trkpt lat="56.005749" lon="26.461128">
<ele>107.502991</ele>
<time>2010-06-20T09:55:22Z</time>
<desc>lat.=56.005749, lon.=26.461128, Alt.=107.502991m. Speed=0.000000m/h.</desc>
<speed>0.000000</speed>
</trkpt>
<trkpt lat="56.005749" lon="26.461128">
<ele>107.504944</ele>
<time>2010-06-20T09:55:23Z</time>
<desc>lat.=56.005749, lon.=26.461128, Alt.=107.504944m. Speed=0.036000m/h.</desc>
<speed>0.010000</speed>
</trkpt>
<trkpt lat="56.005749" lon="26.461128">
<ele>107.504944</ele>
<time>2010-06-20T09:55:24Z</time>
<desc>lat.=56.005749, lon.=26.461128, Alt.=107.504944m. Speed=0.000000m/h.</desc>
<speed>0.000000</speed>
</trkpt>
<trkpt lat="56.005749" lon="26.461128">
<ele>107.504944</ele>
<time>2010-06-20T09:55:25Z</time>
<desc>lat.=56.005749, lon.=26.461128, Alt.=107.504944m. Speed=0.000000m/h.</desc>
<speed>0.000000</speed>
</trkpt>
<trkpt lat="56.005749" lon="26.461128">
<ele>107.506897</ele>
<time>2010-06-20T09:55:26Z</time>
<desc>lat.=56.005749, lon.=26.461128, Alt.=107.506897m. Speed=0.000000m/h.</desc>
<speed>0.000000</speed>
</trkpt>
<trkpt lat="56.005749" lon="26.461128">
<ele>107.504944</ele>
<time>2010-06-20T09:55:27Z</time>
<desc>lat.=56.005749, lon.=26.461128, Alt.=107.504944m. Speed=0.000000m/h.</desc>
<speed>0.000000</speed>
</trkpt>
<trkpt lat="56.005749" lon="26.461128">
<ele>107.504944</ele>
<time>2010-06-20T09:55:28Z</time>
<desc>lat.=56.005749, lon.=26.461128, Alt.=107.504944m. Speed=0.000000m/h.</desc>
<speed>0.000000</speed>
</trkpt>
<trkpt lat="56.005749" lon="26.461128">
<ele>107.504944</ele>
<time>2010-06-20T09:55:29Z</time>
<desc>lat.=56.005749, lon.=26.461128, Alt.=107.504944m. Speed=0.000000m/h.</desc>
<speed>0.000000</speed>
</trkpt>
<trkpt lat="56.005749" lon="26.461128">
<ele>107.508850</ele>
<time>2010-06-20T09:55:30Z</time>
<desc>lat.=56.005749, lon.=26.461128, Alt.=107.508850m. Speed=0.036000m/h.</desc>
<speed>0.010000</speed>
</trkpt>
<trkpt lat="56.005749" lon="26.461128">
<ele>107.508850</ele>
<time>2010-06-20T09:55:31Z</time>
<desc>lat.=56.005749, lon.=26.461128, Alt.=107.508850m. Speed=0.000000m/h.</desc>
<speed>0.000000</speed>
</trkpt>
<trkpt lat="56.005749" lon="26.461128">
<ele>107.506897</ele>
<time>2010-06-20T09:55:32Z</time>
<desc>lat.=56.005749, lon.=26.461128, Alt.=107.506897m. Speed=0.000000m/h.</desc>
<speed>0.000000</speed>
</trkpt>
<trkpt lat="56.005749" lon="26.461128">
<ele>107.504944</ele>
<time>2010-06-20T09:55:33Z</time>
<desc>lat.=56.005749, lon.=26.461128, Alt.=107.504944m. Speed=0.000000m/h.</desc>
<speed>0.000000</speed>
</trkpt>
<trkpt lat="56.005749" lon="26.461128">
<ele>107.504944</ele>
<time>2010-06-20T09:55:34Z</time>
<desc>lat.=56.005749, lon.=26.461128, Alt.=107.504944m. Speed=0.000000m/h.</desc>
<speed>0.000000</speed>
</trkpt>
<trkpt lat="56.005749" lon="26.461128">
<ele>107.506897</ele>
<time>2010-06-20T09:55:35Z</time>
<desc>lat.=56.005749, lon.=26.461128, Alt.=107.506897m. Speed=0.000000m/h.</desc>
<speed>0.000000</speed>
</trkpt>
<trkpt lat="56.005749" lon="26.461128">
<ele>107.504944</ele>
<time>2010-06-20T09:55:36Z</time>
<desc>lat.=56.005749, lon.=26.461128, Alt.=107.504944m. Speed=0.000000m/h.</desc>
<speed>0.000000</speed>
</trkpt>
<trkpt lat="56.005749" lon="26.461128">
<ele>107.502991</ele>
<time>2010-06-20T09:55:37Z</time>
<desc>lat.=56.005749, lon.=26.461128, Alt.=107.502991m. Speed=0.000000m/h.</desc>
<speed>0.000000</speed>
</trkpt>
<trkpt lat="56.005749" lon="26.461128">
<ele>107.501038</ele>
<time>2010-06-20T09:55:38Z</time>
<desc>lat.=56.005749, lon.=26.461128, Alt.=107.501038m. Speed=0.000000m/h.</desc>
<speed>0.000000</speed>
</trkpt>
<trkpt lat="56.005749" lon="26.461128">
<ele>107.501038</ele>
<time>2010-06-20T09:55:39Z</time>
<desc>lat.=56.005749, lon.=26.461128, Alt.=107.501038m. Speed=0.000000m/h.</desc>
<speed>0.000000</speed>
</trkpt>
<trkpt lat="56.005749" lon="26.461128">
<ele>107.501038</ele>
<time>2010-06-20T09:55:40Z</time>
<desc>lat.=56.005749, lon.=26.461128, Alt.=107.501038m. Speed=0.000000m/h.</desc>
<speed>0.000000</speed>
</trkpt>
<trkpt lat="56.005749" lon="26.461128">
<ele>107.501038</ele>
<time>2010-06-20T09:55:41Z</time>
<desc>lat.=56.005749, lon.=26.461128, Alt.=107.501038m. Speed=0.000000m/h.</desc>
<speed>0.000000</speed>
</trkpt>
<trkpt lat="56.005749" lon="26.461128">
<ele>107.501038</ele>
<time>2010-06-20T09:55:42Z</time>
<desc>lat.=56.005749, lon.=26.461128, Alt.=107.501038m. Speed=0.000000m/h.</desc>
<speed>0.000000</speed>
</trkpt>
<trkpt lat="56.005749" lon="26.461128">
<ele>107.499084</ele>
<time>2010-06-20T09:55:43Z</time>
<desc>lat.=56.005749, lon.=26.461128, Alt.=107.499084m. Speed=0.036000m/h.</desc>
<speed>0.010000</speed>
</trkpt>
<trkpt lat="56.005749" lon="26.461128">
<ele>107.499084</ele>
<time>2010-06-20T09:55:44Z</time>
<desc>lat.=56.005749, lon.=26.461128, Alt.=107.499084m. Speed=0.000000m/h.</desc>
<speed>0.000000</speed>
</trkpt>
<trkpt lat="56.005749" lon="26.461128">
<ele>107.501038</ele>
<time>2010-06-20T09:55:45Z</time>
<desc>lat.=56.005749, lon.=26.461128, Alt.=107.501038m. Speed=0.000000m/h.</desc>
<speed>0.000000</speed>
</trkpt>
<trkpt lat="56.005749" lon="26.461128">
<ele>107.502991</ele>
<time>2010-06-20T09:55:46Z</time>
<desc>lat.=56.005749, lon.=26.461128, Alt.=107.502991m. Speed=0.000000m/h.</desc>
<speed>0.000000</speed>
</trkpt>
<trkpt lat="56.005749" lon="26.461128">
<ele>107.502991</ele>
<time>2010-06-20T09:55:47Z</time>
<desc>lat.=56.005749, lon.=26.461128, Alt.=107.502991m. Speed=0.000000m/h.</desc>
<speed>0.000000</speed>
</trkpt>
<trkpt lat="56.005749" lon="26.461128">
<ele>107.502991</ele>
<time>2010-06-20T09:55:48Z</time>
<desc>lat.=56.005749, lon.=26.461128, Alt.=107.502991m. Speed=0.072000m/h.</desc>
<speed>0.020000</speed>
</trkpt>
<trkpt lat="56.005749" lon="26.461128">
<ele>107.502991</ele>
<time>2010-06-20T09:55:49Z</time>
<desc>lat.=56.005749, lon.=26.461128, Alt.=107.502991m. Speed=0.036000m/h.</desc>
<speed>0.010000</speed>
</trkpt>
<trkpt lat="56.005749" lon="26.461128">
<ele>107.501038</ele>
<time>2010-06-20T09:55:50Z</time>
<desc>lat.=56.005749, lon.=26.461128, Alt.=107.501038m. Speed=0.000000m/h.</desc>
<speed>0.000000</speed>
</trkpt>
<trkpt lat="56.005749" lon="26.461128">
<ele>107.501038</ele>
<time>2010-06-20T09:55:51Z</time>
<desc>lat.=56.005749, lon.=26.461128, Alt.=107.501038m. Speed=0.036000m/h.</desc>
<speed>0.010000</speed>
</trkpt>
<trkpt lat="56.005749" lon="26.461128">
<ele>107.501038</ele>
<time>2010-06-20T09:55:52Z</time>
<desc>lat.=56.005749, lon.=26.461128, Alt.=107.501038m. Speed=0.036000m/h.</desc>
<speed>0.010000</speed>
</trkpt>
<trkpt lat="56.005749" lon="26.461128">
<ele>107.501038</ele>
<time>2010-06-20T09:55:53Z</time>
<desc>lat.=56.005749, lon.=26.461128, Alt.=107.501038m. Speed=0.000000m/h.</desc>
<speed>0.000000</speed>
</trkpt>
<trkpt lat="56.005749" lon="26.461128">
<ele>107.499084</ele>
<time>2010-06-20T09:55:54Z</time>
<desc>lat.=56.005749, lon.=26.461128, Alt.=107.499084m. Speed=0.036000m/h.</desc>
<speed>0.010000</speed>
</trkpt>
<trkpt lat="56.005749" lon="26.461128">
<ele>107.497131</ele>
<time>2010-06-20T09:55:55Z</time>
<desc>lat.=56.005749, lon.=26.461128, Alt.=107.497131m. Speed=0.036000m/h.</desc>
<speed>0.010000</speed>
</trkpt>
<trkpt lat="56.005749" lon="26.461128">
<ele>107.495178</ele>
<time>2010-06-20T09:55:56Z</time>
<desc>lat.=56.005749, lon.=26.461128, Alt.=107.495178m. Speed=0.036000m/h.</desc>
<speed>0.010000</speed>
</trkpt>
<trkpt lat="56.005749" lon="26.461128">
<ele>107.493225</ele>
<time>2010-06-20T09:55:57Z</time>
<desc>lat.=56.005749, lon.=26.461128, Alt.=107.493225m. Speed=0.000000m/h.</desc>
<speed>0.000000</speed>
</trkpt>
<trkpt lat="56.005749" lon="26.461128">
<ele>107.489319</ele>
<time>2010-06-20T09:55:58Z</time>
<desc>lat.=56.005749, lon.=26.461128, Alt.=107.489319m. Speed=0.000000m/h.</desc>
<speed>0.000000</speed>
</trkpt>
<trkpt lat="56.005749" lon="26.461128">
<ele>107.485413</ele>
<time>2010-06-20T09:55:59Z</time>
<desc>lat.=56.005749, lon.=26.461128, Alt.=107.485413m. Speed=0.000000m/h.</desc>
<speed>0.000000</speed>
</trkpt>
<trkpt lat="56.005749" lon="26.461128">
<ele>107.481506</ele>
<time>2010-06-20T09:56:00Z</time>
<desc>lat.=56.005749, lon.=26.461128, Alt.=107.481506m. Speed=0.036000m/h.</desc>
<speed>0.010000</speed>
</trkpt>
<trkpt lat="56.005749" lon="26.461128">
<ele>107.479553</ele>
<time>2010-06-20T09:56:01Z</time>
<desc>lat.=56.005749, lon.=26.461128, Alt.=107.479553m. Speed=0.072000m/h.</desc>
<speed>0.020000</speed>
</trkpt>
<trkpt lat="56.005749" lon="26.461128">
<ele>107.477600</ele>
<time>2010-06-20T09:56:02Z</time>
<desc>lat.=56.005749, lon.=26.461128, Alt.=107.477600m. Speed=0.036000m/h.</desc>
<speed>0.010000</speed>
</trkpt>
<trkpt lat="56.005749" lon="26.461128">
<ele>107.475647</ele>
<time>2010-06-20T09:56:03Z</time>
<desc>lat.=56.005749, lon.=26.461128, Alt.=107.475647m. Speed=0.036000m/h.</desc>
<speed>0.010000</speed>
</trkpt>
<trkpt lat="56.005749" lon="26.461128">
<ele>107.475647</ele>
<time>2010-06-20T09:56:04Z</time>
<desc>lat.=56.005749, lon.=26.461128, Alt.=107.475647m. Speed=0.000000m/h.</desc>
<speed>0.000000</speed>
</trkpt>
<trkpt lat="56.005749" lon="26.461128">
<ele>107.473694</ele>
<time>2010-06-20T09:56:05Z</time>
<desc>lat.=56.005749, lon.=26.461128, Alt.=107.473694m. Speed=0.000000m/h.</desc>
<speed>0.000000</speed>
</trkpt>
<trkpt lat="56.005749" lon="26.461128">
<ele>107.471741</ele>
<time>2010-06-20T09:56:06Z</time>
<desc>lat.=56.005749, lon.=26.461128, Alt.=107.471741m. Speed=0.036000m/h.</desc>
<speed>0.010000</speed>
</trkpt>
<trkpt lat="56.005749" lon="26.461128">
<ele>107.467834</ele>
<time>2010-06-20T09:56:07Z</time>
<desc>lat.=56.005749, lon.=26.461128, Alt.=107.467834m. Speed=0.036000m/h.</desc>
<speed>0.010000</speed>
</trkpt>
<trkpt lat="56.005749" lon="26.461128">
<ele>107.465881</ele>
<time>2010-06-20T09:56:08Z</time>
<desc>lat.=56.005749, lon.=26.461128, Alt.=107.465881m. Speed=0.000000m/h.</desc>
<speed>0.000000</speed>
</trkpt>
<trkpt lat="56.005749" lon="26.461128">
<ele>107.467834</ele>
<time>2010-06-20T09:56:09Z</time>
<desc>lat.=56.005749, lon.=26.461128, Alt.=107.467834m. Speed=0.036000m/h.</desc>
<speed>0.010000</speed>
</trkpt>
<trkpt lat="56.005749" lon="26.461128">
<ele>107.467834</ele>
<time>2010-06-20T09:56:10Z</time>
<desc>lat.=56.005749, lon.=26.461128, Alt.=107.467834m. Speed=0.000000m/h.</desc>
<speed>0.000000</speed>
</trkpt>
<trkpt lat="56.005749" lon="26.461128">
<ele>107.465881</ele>
<time>2010-06-20T09:56:11Z</time>
<desc>lat.=56.005749, lon.=26.461128, Alt.=107.465881m. Speed=0.000000m/h.</desc>
<speed>0.000000</speed>
</trkpt>
<trkpt lat="56.005749" lon="26.461128">
<ele>107.461975</ele>
<time>2010-06-20T09:56:12Z</time>
<desc>lat.=56.005749, lon.=26.461128, Alt.=107.461975m. Speed=0.000000m/h.</desc>
<speed>0.000000</speed>
</trkpt>
<trkpt lat="56.005749" lon="26.461128">
<ele>107.460022</ele>
<time>2010-06-20T09:56:13Z</time>
<desc>lat.=56.005749, lon.=26.461128, Alt.=107.460022m. Speed=0.036000m/h.</desc>
<speed>0.010000</speed>
</trkpt>
<trkpt lat="56.005749" lon="26.461128">
<ele>107.458069</ele>
<time>2010-06-20T09:56:14Z</time>
<desc>lat.=56.005749, lon.=26.461128, Alt.=107.458069m. Speed=0.036000m/h.</desc>
<speed>0.010000</speed>
</trkpt>
<trkpt lat="56.005749" lon="26.461128">
<ele>107.456116</ele>
<time>2010-06-20T09:56:15Z</time>
<desc>lat.=56.005749, lon.=26.461128, Alt.=107.456116m. Speed=0.000000m/h.</desc>
<speed>0.000000</speed>
</trkpt>
<trkpt lat="56.005749" lon="26.461128">
<ele>107.454163</ele>
<time>2010-06-20T09:56:16Z</time>
<desc>lat.=56.005749, lon.=26.461128, Alt.=107.454163m. Speed=0.000000m/h.</desc>
<speed>0.000000</speed>
</trkpt>
<trkpt lat="56.005749" lon="26.461128">
<ele>107.454163</ele>
<time>2010-06-20T09:56:17Z</time>
<desc>lat.=56.005749, lon.=26.461128, Alt.=107.454163m. Speed=0.000000m/h.</desc>
<speed>0.000000</speed>
</trkpt>
<trkpt lat="56.005749" lon="26.461128">
<ele>107.450256</ele>
<time>2010-06-20T09:56:18Z</time>
<desc>lat.=56.005749, lon.=26.461128, Alt.=107.450256m. Speed=0.000000m/h.</desc>
<speed>0.000000</speed>
</trkpt>
<trkpt lat="56.005749" lon="26.461128">
<ele>107.446350</ele>
<time>2010-06-20T09:56:19Z</time>
<desc>lat.=56.005749, lon.=26.461128, Alt.=107.446350m. Speed=0.000000m/h.</desc>
<speed>0.000000</speed>
</trkpt>
<trkpt lat="56.005749" lon="26.461128">
<ele>107.446350</ele>
<time>2010-06-20T09:56:20Z</time>
<desc>lat.=56.005749, lon.=26.461128, Alt.=107.446350m. Speed=0.036000m/h.</desc>
<speed>0.010000</speed>
</trkpt>
<trkpt lat="56.005749" lon="26.461128">
<ele>107.444397</ele>
<time>2010-06-20T09:56:21Z</time>
<desc>lat.=56.005749, lon.=26.461128, Alt.=107.444397m. Speed=0.000000m/h.</desc>
<speed>0.000000</speed>
</trkpt>
<trkpt lat="56.005749" lon="26.461128">
<ele>107.442444</ele>
<time>2010-06-20T09:56:22Z</time>
<desc>lat.=56.005749, lon.=26.461128, Alt.=107.442444m. Speed=0.000000m/h.</desc>
<speed>0.000000</speed>
</trkpt>
<trkpt lat="56.005749" lon="26.461128">
<ele>107.438538</ele>
<time>2010-06-20T09:56:23Z</time>
<desc>lat.=56.005749, lon.=26.461128, Alt.=107.438538m. Speed=0.000000m/h.</desc>
<speed>0.000000</speed>
</trkpt>
<trkpt lat="56.005753" lon="26.461128">
<ele>107.438538</ele>
<time>2010-06-20T09:56:24Z</time>
<desc>lat.=56.005753, lon.=26.461128, Alt.=107.438538m. Speed=0.000000m/h.</desc>
<speed>0.000000</speed>
</trkpt>
<trkpt lat="56.005753" lon="26.461128">
<ele>107.436584</ele>
<time>2010-06-20T09:56:25Z</time>
<desc>lat.=56.005753, lon.=26.461128, Alt.=107.436584m. Speed=0.000000m/h.</desc>
<speed>0.000000</speed>
</trkpt>
<trkpt lat="56.005753" lon="26.461128">
<ele>107.432678</ele>
<time>2010-06-20T09:56:26Z</time>
<desc>lat.=56.005753, lon.=26.461128, Alt.=107.432678m. Speed=0.000000m/h.</desc>
<speed>0.000000</speed>
</trkpt>
<trkpt lat="56.005753" lon="26.461128">
<ele>107.430725</ele>
<time>2010-06-20T09:56:27Z</time>
<desc>lat.=56.005753, lon.=26.461128, Alt.=107.430725m. Speed=0.000000m/h.</desc>
<speed>0.000000</speed>
</trkpt>
<trkpt lat="56.005753" lon="26.461128">
<ele>107.434631</ele>
<time>2010-06-20T09:56:28Z</time>
<desc>lat.=56.005753, lon.=26.461128, Alt.=107.434631m. Speed=0.036000m/h.</desc>
<speed>0.010000</speed>
</trkpt>
<trkpt lat="56.005753" lon="26.461128">
<ele>107.430725</ele>
<time>2010-06-20T09:56:29Z</time>
<desc>lat.=56.005753, lon.=26.461128, Alt.=107.430725m. Speed=0.000000m/h.</desc>
<speed>0.000000</speed>
</trkpt>
<trkpt lat="56.005753" lon="26.461128">
<ele>107.428772</ele>
<time>2010-06-20T09:56:30Z</time>
<desc>lat.=56.005753, lon.=26.461128, Alt.=107.428772m. Speed=0.036000m/h.</desc>
<speed>0.010000</speed>
</trkpt>
<trkpt lat="56.005753" lon="26.461128">
<ele>107.426819</ele>
<time>2010-06-20T09:56:31Z</time>
<desc>lat.=56.005753, lon.=26.461128, Alt.=107.426819m. Speed=0.072000m/h.</desc>
<speed>0.020000</speed>
</trkpt>
<trkpt lat="56.005753" lon="26.461128">
<ele>107.428772</ele>
<time>2010-06-20T09:56:32Z</time>
<desc>lat.=56.005753, lon.=26.461128, Alt.=107.428772m. Speed=0.000000m/h.</desc>
<speed>0.000000</speed>
</trkpt>
<trkpt lat="56.005753" lon="26.461128">
<ele>107.426819</ele>
<time>2010-06-20T09:56:33Z</time>
<desc>lat.=56.005753, lon.=26.461128, Alt.=107.426819m. Speed=0.000000m/h.</desc>
<speed>0.000000</speed>
</trkpt>
<trkpt lat="56.005753" lon="26.461128">
<ele>107.424866</ele>
<time>2010-06-20T09:56:34Z</time>
<desc>lat.=56.005753, lon.=26.461128, Alt.=107.424866m. Speed=0.000000m/h.</desc>
<speed>0.000000</speed>
</trkpt>
<trkpt lat="56.005753" lon="26.461128">
<ele>107.422913</ele>
<time>2010-06-20T09:56:35Z</time>
<desc>lat.=56.005753, lon.=26.461128, Alt.=107.422913m. Speed=0.000000m/h.</desc>
<speed>0.000000</speed>
</trkpt>
<trkpt lat="56.005753" lon="26.461128">
<ele>107.420959</ele>
<time>2010-06-20T09:56:36Z</time>
<desc>lat.=56.005753, lon.=26.461128, Alt.=107.420959m. Speed=0.000000m/h.</desc>
<speed>0.000000</speed>
</trkpt>
<trkpt lat="56.005753" lon="26.461128">
<ele>107.419006</ele>
<time>2010-06-20T09:56:37Z</time>
<desc>lat.=56.005753, lon.=26.461128, Alt.=107.419006m. Speed=0.000000m/h.</desc>
<speed>0.000000</speed>
</trkpt>
<trkpt lat="56.005753" lon="26.461128">
<ele>107.417053</ele>
<time>2010-06-20T09:56:38Z</time>
<desc>lat.=56.005753, lon.=26.461128, Alt.=107.417053m. Speed=0.036000m/h.</desc>
<speed>0.010000</speed>
</trkpt>
<trkpt lat="56.005753" lon="26.461128">
<ele>107.417053</ele>
<time>2010-06-20T09:56:39Z</time>
<desc>lat.=56.005753, lon.=26.461128, Alt.=107.417053m. Speed=0.072000m/h.</desc>
<speed>0.020000</speed>
</trkpt>
<trkpt lat="56.005753" lon="26.461128">
<ele>107.415100</ele>
<time>2010-06-20T09:56:40Z</time>
<desc>lat.=56.005753, lon.=26.461128, Alt.=107.415100m. Speed=0.000000m/h.</desc>
<speed>0.000000</speed>
</trkpt>
<trkpt lat="56.005753" lon="26.461128">
<ele>107.415100</ele>
<time>2010-06-20T09:56:41Z</time>
<desc>lat.=56.005753, lon.=26.461128, Alt.=107.415100m. Speed=0.000000m/h.</desc>
<speed>0.000000</speed>
</trkpt>
<trkpt lat="56.005753" lon="26.461128">
<ele>107.415100</ele>
<time>2010-06-20T09:56:42Z</time>
<desc>lat.=56.005753, lon.=26.461128, Alt.=107.415100m. Speed=0.000000m/h.</desc>
<speed>0.000000</speed>
</trkpt>
<trkpt lat="56.005753" lon="26.461128">
<ele>107.413147</ele>
<time>2010-06-20T09:56:43Z</time>
<desc>lat.=56.005753, lon.=26.461128, Alt.=107.413147m. Speed=0.000000m/h.</desc>
<speed>0.000000</speed>
</trkpt>
<trkpt lat="56.005753" lon="26.461128">
<ele>107.411194</ele>
<time>2010-06-20T09:56:44Z</time>
<desc>lat.=56.005753, lon.=26.461128, Alt.=107.411194m. Speed=0.036000m/h.</desc>
<speed>0.010000</speed>
</trkpt>
<trkpt lat="56.005753" lon="26.461128">
<ele>107.411194</ele>
<time>2010-06-20T09:56:45Z</time>
<desc>lat.=56.005753, lon.=26.461128, Alt.=107.411194m. Speed=0.036000m/h.</desc>
<speed>0.010000</speed>
</trkpt>
<trkpt lat="56.005753" lon="26.461126">
<ele>107.409241</ele>
<time>2010-06-20T09:56:46Z</time>
<desc>lat.=56.005753, lon.=26.461126, Alt.=107.409241m. Speed=0.072000m/h.</desc>
<speed>0.020000</speed>
</trkpt>
<trkpt lat="56.005753" lon="26.461126">
<ele>107.411194</ele>
<time>2010-06-20T09:56:47Z</time>
<desc>lat.=56.005753, lon.=26.461126, Alt.=107.411194m. Speed=0.216000m/h.</desc>
<speed>0.060000</speed>
</trkpt>
<trkpt lat="56.005753" lon="26.461128">
<ele>107.411194</ele>
<time>2010-06-20T09:56:48Z</time>
<desc>lat.=56.005753, lon.=26.461128, Alt.=107.411194m. Speed=0.144000m/h.</desc>
<speed>0.040000</speed>
</trkpt>
<trkpt lat="56.005753" lon="26.461128">
<ele>107.383850</ele>
<time>2010-06-20T09:56:49Z</time>
<desc>lat.=56.005753, lon.=26.461128, Alt.=107.383850m. Speed=0.216000m/h.</desc>
<speed>0.060000</speed>
</trkpt>
<trkpt lat="56.005753" lon="26.461128">
<ele>107.381897</ele>
<time>2010-06-20T09:56:50Z</time>
<desc>lat.=56.005753, lon.=26.461128, Alt.=107.381897m. Speed=0.072000m/h.</desc>
<speed>0.020000</speed>
</trkpt>
<trkpt lat="56.005753" lon="26.461126">
<ele>107.370178</ele>
<time>2010-06-20T09:56:51Z</time>
<desc>lat.=56.005753, lon.=26.461126, Alt.=107.370178m. Speed=0.108000m/h.</desc>
<speed>0.030000</speed>
</trkpt>
<trkpt lat="56.005753" lon="26.461126">
<ele>107.366272</ele>
<time>2010-06-20T09:56:52Z</time>
<desc>lat.=56.005753, lon.=26.461126, Alt.=107.366272m. Speed=0.036000m/h.</desc>
<speed>0.010000</speed>
</trkpt>
<trkpt lat="56.005753" lon="26.461126">
<ele>107.364319</ele>
<time>2010-06-20T09:56:53Z</time>
<desc>lat.=56.005753, lon.=26.461126, Alt.=107.364319m. Speed=0.108000m/h.</desc>
<speed>0.030000</speed>
</trkpt>
<trkpt lat="56.005753" lon="26.461126">
<ele>107.364319</ele>
<time>2010-06-20T09:56:54Z</time>
<desc>lat.=56.005753, lon.=26.461126, Alt.=107.364319m. Speed=0.036000m/h.</desc>
<speed>0.010000</speed>
</trkpt>
<trkpt lat="56.005753" lon="26.461126">
<ele>107.362366</ele>
<time>2010-06-20T09:56:55Z</time>
<desc>lat.=56.005753, lon.=26.461126, Alt.=107.362366m. Speed=0.072000m/h.</desc>
<speed>0.020000</speed>
</trkpt>
<trkpt lat="56.005753" lon="26.461126">
<ele>107.360413</ele>
<time>2010-06-20T09:56:56Z</time>
<desc>lat.=56.005753, lon.=26.461126, Alt.=107.360413m. Speed=0.108000m/h.</desc>
<speed>0.030000</speed>
</trkpt>
<trkpt lat="56.005753" lon="26.461126">
<ele>107.354553</ele>
<time>2010-06-20T09:56:57Z</time>
<desc>lat.=56.005753, lon.=26.461126, Alt.=107.354553m. Speed=0.612000m/h.</desc>
<speed>0.170000</speed>
</trkpt>
<trkpt lat="56.005753" lon="26.461128">
<ele>107.356506</ele>
<time>2010-06-20T09:56:58Z</time>
<desc>lat.=56.005753, lon.=26.461128, Alt.=107.356506m. Speed=0.432000m/h.</desc>
<speed>0.120000</speed>
</trkpt>
<trkpt lat="56.005753" lon="26.461128">
<ele>107.352600</ele>
<time>2010-06-20T09:56:59Z</time>
<desc>lat.=56.005753, lon.=26.461128, Alt.=107.352600m. Speed=2.052000m/h.</desc>
<speed>0.570000</speed>
</trkpt>
<trkpt lat="56.005760" lon="26.461134">
<ele>107.190491</ele>
<time>2010-06-20T09:57:00Z</time>
<desc>lat.=56.005760, lon.=26.461134, Alt.=107.190491m. Speed=2.592000m/h.</desc>
<speed>0.720000</speed>
</trkpt>
<trkpt lat="56.005772" lon="26.461134">
<ele>107.102600</ele>
<time>2010-06-20T09:57:01Z</time>
<desc>lat.=56.005772, lon.=26.461134, Alt.=107.102600m. Speed=4.716000m/h.</desc>
<speed>1.310000</speed>
</trkpt>
<trkpt lat="56.005791" lon="26.461132">
<ele>106.827209</ele>
<time>2010-06-20T09:57:02Z</time>
<desc>lat.=56.005791, lon.=26.461132, Alt.=106.827209m. Speed=7.200000m/h.</desc>
<speed>2.000000</speed>
</trkpt>
<trkpt lat="56.005810" lon="26.461128">
<ele>106.633850</ele>
<time>2010-06-20T09:57:03Z</time>
<desc>lat.=56.005810, lon.=26.461128, Alt.=106.633850m. Speed=8.820000m/h.</desc>
<speed>2.450000</speed>
</trkpt>
<trkpt lat="56.005840" lon="26.461123">
<ele>106.829163</ele>
<time>2010-06-20T09:57:04Z</time>
<desc>lat.=56.005840, lon.=26.461123, Alt.=106.829163m. Speed=9.720000m/h.</desc>
<speed>2.700000</speed>
</trkpt>
<trkpt lat="56.005867" lon="26.461121">
<ele>106.454163</ele>
<time>2010-06-20T09:57:05Z</time>
<desc>lat.=56.005867, lon.=26.461121, Alt.=106.454163m. Speed=10.440000m/h.</desc>
<speed>2.900000</speed>
</trkpt>
<trkpt lat="56.005901" lon="26.461121">
<ele>106.377991</ele>
<time>2010-06-20T09:57:06Z</time>
<desc>lat.=56.005901, lon.=26.461121, Alt.=106.377991m. Speed=10.044000m/h.</desc>
<speed>2.790000</speed>
</trkpt>
<trkpt lat="56.005928" lon="26.461121">
<ele>106.067444</ele>
<time>2010-06-20T09:57:07Z</time>
<desc>lat.=56.005928, lon.=26.461121, Alt.=106.067444m. Speed=9.612000m/h.</desc>
<speed>2.670000</speed>
</trkpt>
<trkpt lat="56.005959" lon="26.461123">
<ele>106.641663</ele>
<time>2010-06-20T09:57:08Z</time>
<desc>lat.=56.005959, lon.=26.461123, Alt.=106.641663m. Speed=9.828000m/h.</desc>
<speed>2.730000</speed>
</trkpt>
<trkpt lat="56.005985" lon="26.461121">
<ele>106.352600</ele>
<time>2010-06-20T09:57:09Z</time>
<desc>lat.=56.005985, lon.=26.461121, Alt.=106.352600m. Speed=9.144000m/h.</desc>
<speed>2.540000</speed>
</trkpt>
<trkpt lat="56.006012" lon="26.461123">
<ele>106.151428</ele>
<time>2010-06-20T09:57:10Z</time>
<desc>lat.=56.006012, lon.=26.461123, Alt.=106.151428m. Speed=9.108000m/h.</desc>
<speed>2.530000</speed>
</trkpt>
<trkpt lat="56.006035" lon="26.461123">
<ele>105.938538</ele>
<time>2010-06-20T09:57:11Z</time>
<desc>lat.=56.006035, lon.=26.461123, Alt.=105.938538m. Speed=8.748000m/h.</desc>
<speed>2.430000</speed>
</trkpt>
<trkpt lat="56.006058" lon="26.461123">
<ele>105.590881</ele>
<time>2010-06-20T09:57:12Z</time>
<desc>lat.=56.006058, lon.=26.461123, Alt.=105.590881m. Speed=8.172000m/h.</desc>
<speed>2.270000</speed>
</trkpt>
<trkpt lat="56.006081" lon="26.461130">
<ele>105.856506</ele>
<time>2010-06-20T09:57:13Z</time>
<desc>lat.=56.006081, lon.=26.461130, Alt.=105.856506m. Speed=8.604000m/h.</desc>
<speed>2.390000</speed>
</trkpt>
<trkpt lat="56.006100" lon="26.461130">
<ele>105.751038</ele>
<time>2010-06-20T09:57:14Z</time>
<desc>lat.=56.006100, lon.=26.461130, Alt.=105.751038m. Speed=10.152000m/h.</desc>
<speed>2.820000</speed>
</trkpt>
<trkpt lat="56.006130" lon="26.461130">
<ele>105.723694</ele>
<time>2010-06-20T09:57:15Z</time>
<desc>lat.=56.006130, lon.=26.461130, Alt.=105.723694m. Speed=10.548000m/h.</desc>
<speed>2.930000</speed>
</trkpt>
<trkpt lat="56.006161" lon="26.461132">
<ele>105.891663</ele>
<time>2010-06-20T09:57:16Z</time>
<desc>lat.=56.006161, lon.=26.461132, Alt.=105.891663m. Speed=10.512000m/h.</desc>
<speed>2.920000</speed>
</trkpt>
<trkpt lat="56.006187" lon="26.461134">
<ele>106.165100</ele>
<time>2010-06-20T09:57:17Z</time>
<desc>lat.=56.006187, lon.=26.461134, Alt.=106.165100m. Speed=11.088000m/h.</desc>
<speed>3.080000</speed>
</trkpt>
<trkpt lat="56.006214" lon="26.461138">
<ele>106.467834</ele>
<time>2010-06-20T09:57:18Z</time>
<desc>lat.=56.006214, lon.=26.461138, Alt.=106.467834m. Speed=11.124000m/h.</desc>
<speed>3.090000</speed>
</trkpt>
<trkpt lat="56.006245" lon="26.461143">
<ele>106.786194</ele>
<time>2010-06-20T09:57:19Z</time>
<desc>lat.=56.006245, lon.=26.461143, Alt.=106.786194m. Speed=12.600000m/h.</desc>
<speed>3.500000</speed>
</trkpt>
<trkpt lat="56.006275" lon="26.461147">
<ele>106.637756</ele>
<time>2010-06-20T09:57:20Z</time>
<desc>lat.=56.006275, lon.=26.461147, Alt.=106.637756m. Speed=12.600000m/h.</desc>
<speed>3.500000</speed>
</trkpt>
<trkpt lat="56.006310" lon="26.461147">
<ele>106.456116</ele>
<time>2010-06-20T09:57:21Z</time>
<desc>lat.=56.006310, lon.=26.461147, Alt.=106.456116m. Speed=13.572000m/h.</desc>
<speed>3.770000</speed>
</trkpt>
<trkpt lat="56.006344" lon="26.461149">
<ele>105.780334</ele>
<time>2010-06-20T09:57:22Z</time>
<desc>lat.=56.006344, lon.=26.461149, Alt.=105.780334m. Speed=13.428000m/h.</desc>
<speed>3.730000</speed>
</trkpt>
<trkpt lat="56.006378" lon="26.461155">
<ele>105.544006</ele>
<time>2010-06-20T09:57:23Z</time>
<desc>lat.=56.006378, lon.=26.461155, Alt.=105.544006m. Speed=12.564000m/h.</desc>
<speed>3.490000</speed>
</trkpt>
<trkpt lat="56.006409" lon="26.461161">
<ele>105.626038</ele>
<time>2010-06-20T09:57:24Z</time>
<desc>lat.=56.006409, lon.=26.461161, Alt.=105.626038m. Speed=11.448000m/h.</desc>
<speed>3.180000</speed>
</trkpt>
<trkpt lat="56.006439" lon="26.461164">
<ele>105.178772</ele>
<time>2010-06-20T09:57:25Z</time>
<desc>lat.=56.006439, lon.=26.461164, Alt.=105.178772m. Speed=12.492000m/h.</desc>
<speed>3.470000</speed>
</trkpt>
<trkpt lat="56.006474" lon="26.461166">
<ele>105.282288</ele>
<time>2010-06-20T09:57:26Z</time>
<desc>lat.=56.006474, lon.=26.461166, Alt.=105.282288m. Speed=14.220000m/h.</desc>
<speed>3.950000</speed>
</trkpt>
<trkpt lat="56.006508" lon="26.461166">
<ele>105.204163</ele>
<time>2010-06-20T09:57:27Z</time>
<desc>lat.=56.006508, lon.=26.461166, Alt.=105.204163m. Speed=14.256000m/h.</desc>
<speed>3.960000</speed>
</trkpt>
<trkpt lat="56.006542" lon="26.461170">
<ele>105.172913</ele>
<time>2010-06-20T09:57:28Z</time>
<desc>lat.=56.006542, lon.=26.461170, Alt.=105.172913m. Speed=14.220000m/h.</desc>
<speed>3.950000</speed>
</trkpt>
<trkpt lat="56.006573" lon="26.461174">
<ele>105.192444</ele>
<time>2010-06-20T09:57:29Z</time>
<desc>lat.=56.006573, lon.=26.461174, Alt.=105.192444m. Speed=13.500000m/h.</desc>
<speed>3.750000</speed>
</trkpt>
<trkpt lat="56.006603" lon="26.461178">
<ele>104.991272</ele>
<time>2010-06-20T09:57:30Z</time>
<desc>lat.=56.006603, lon.=26.461178, Alt.=104.991272m. Speed=12.060000m/h.</desc>
<speed>3.350000</speed>
</trkpt>
<trkpt lat="56.006634" lon="26.461180">
<ele>104.823303</ele>
<time>2010-06-20T09:57:31Z</time>
<desc>lat.=56.006634, lon.=26.461180, Alt.=104.823303m. Speed=11.052000m/h.</desc>
<speed>3.070000</speed>
</trkpt>
<trkpt lat="56.006664" lon="26.461178">
<ele>104.710022</ele>
<time>2010-06-20T09:57:32Z</time>
<desc>lat.=56.006664, lon.=26.461178, Alt.=104.710022m. Speed=13.176000m/h.</desc>
<speed>3.660000</speed>
</trkpt>
<trkpt lat="56.006699" lon="26.461174">
<ele>104.147522</ele>
<time>2010-06-20T09:57:33Z</time>
<desc>lat.=56.006699, lon.=26.461174, Alt.=104.147522m. Speed=13.500000m/h.</desc>
<speed>3.750000</speed>
</trkpt>
<trkpt lat="56.006733" lon="26.461168">
<ele>104.442444</ele>
<time>2010-06-20T09:57:34Z</time>
<desc>lat.=56.006733, lon.=26.461168, Alt.=104.442444m. Speed=12.924000m/h.</desc>
<speed>3.590000</speed>
</trkpt>
<trkpt lat="56.006767" lon="26.461164">
<ele>104.360413</ele>
<time>2010-06-20T09:57:35Z</time>
<desc>lat.=56.006767, lon.=26.461164, Alt.=104.360413m. Speed=12.240000m/h.</desc>
<speed>3.400000</speed>
</trkpt>
<trkpt lat="56.006805" lon="26.461161">
<ele>104.579163</ele>
<time>2010-06-20T09:57:36Z</time>
<desc>lat.=56.006805, lon.=26.461161, Alt.=104.579163m. Speed=12.852000m/h.</desc>
<speed>3.570000</speed>
</trkpt>
<trkpt lat="56.006840" lon="26.461159">
<ele>104.518616</ele>
<time>2010-06-20T09:57:37Z</time>
<desc>lat.=56.006840, lon.=26.461159, Alt.=104.518616m. Speed=12.636000m/h.</desc>
<speed>3.510000</speed>
</trkpt>
<trkpt lat="56.006870" lon="26.461161">
<ele>104.352600</ele>
<time>2010-06-20T09:57:38Z</time>
<desc>lat.=56.006870, lon.=26.461161, Alt.=104.352600m. Speed=11.268000m/h.</desc>
<speed>3.130000</speed>
</trkpt>
<trkpt lat="56.006905" lon="26.461161">
<ele>104.223694</ele>
<time>2010-06-20T09:57:39Z</time>
<desc>lat.=56.006905, lon.=26.461161, Alt.=104.223694m. Speed=12.240000m/h.</desc>
<speed>3.400000</speed>
</trkpt>
<trkpt lat="56.006935" lon="26.461159">
<ele>104.288147</ele>
<time>2010-06-20T09:57:40Z</time>
<desc>lat.=56.006935, lon.=26.461159, Alt.=104.288147m. Speed=12.960000m/h.</desc>
<speed>3.600000</speed>
</trkpt>
<trkpt lat="56.006973" lon="26.461153">
<ele>104.528381</ele>
<time>2010-06-20T09:57:41Z</time>
<desc>lat.=56.006973, lon.=26.461153, Alt.=104.528381m. Speed=15.192000m/h.</desc>
<speed>4.220000</speed>
</trkpt>
<trkpt lat="56.007008" lon="26.461145">
<ele>104.680725</ele>
<time>2010-06-20T09:57:42Z</time>
<desc>lat.=56.007008, lon.=26.461145, Alt.=104.680725m. Speed=14.904000m/h.</desc>
<speed>4.140000</speed>
</trkpt>
<trkpt lat="56.007050" lon="26.461147">
<ele>104.588928</ele>
<time>2010-06-20T09:57:43Z</time>
<desc>lat.=56.007050, lon.=26.461147, Alt.=104.588928m. Speed=15.336000m/h.</desc>
<speed>4.260000</speed>
</trkpt>
<trkpt lat="56.007088" lon="26.461149">
<ele>104.393616</ele>
<time>2010-06-20T09:57:44Z</time>
<desc>lat.=56.007088, lon.=26.461149, Alt.=104.393616m. Speed=15.012000m/h.</desc>
<speed>4.170000</speed>
</trkpt>
<trkpt lat="56.007122" lon="26.461153">
<ele>103.022522</ele>
<time>2010-06-20T09:57:45Z</time>
<desc>lat.=56.007122, lon.=26.461153, Alt.=103.022522m. Speed=14.040000m/h.</desc>
<speed>3.900000</speed>
</trkpt>
<trkpt lat="56.007153" lon="26.461153">
<ele>102.739319</ele>
<time>2010-06-20T09:57:46Z</time>
<desc>lat.=56.007153, lon.=26.461153, Alt.=102.739319m. Speed=13.824000m/h.</desc>
<speed>3.840000</speed>
</trkpt>
<trkpt lat="56.007183" lon="26.461155">
<ele>102.391663</ele>
<time>2010-06-20T09:57:47Z</time>
<desc>lat.=56.007183, lon.=26.461155, Alt.=102.391663m. Speed=14.004000m/h.</desc>
<speed>3.890000</speed>
</trkpt>
<trkpt lat="56.007221" lon="26.461157">
<ele>102.137756</ele>
<time>2010-06-20T09:57:48Z</time>
<desc>lat.=56.007221, lon.=26.461157, Alt.=102.137756m. Speed=14.760000m/h.</desc>
<speed>4.100000</speed>
</trkpt>
<trkpt lat="56.007259" lon="26.461159">
<ele>102.208069</ele>
<time>2010-06-20T09:57:49Z</time>
<desc>lat.=56.007259, lon.=26.461159, Alt.=102.208069m. Speed=15.372000m/h.</desc>
<speed>4.270000</speed>
</trkpt>
<trkpt lat="56.007301" lon="26.461157">
<ele>102.379944</ele>
<time>2010-06-20T09:57:50Z</time>
<desc>lat.=56.007301, lon.=26.461157, Alt.=102.379944m. Speed=15.408000m/h.</desc>
<speed>4.280000</speed>
</trkpt>
<trkpt lat="56.007347" lon="26.461153">
<ele>102.561584</ele>
<time>2010-06-20T09:57:51Z</time>
<desc>lat.=56.007347, lon.=26.461153, Alt.=102.561584m. Speed=16.164000m/h.</desc>
<speed>4.490000</speed>
</trkpt>
<trkpt lat="56.007385" lon="26.461155">
<ele>102.325256</ele>
<time>2010-06-20T09:57:52Z</time>
<desc>lat.=56.007385, lon.=26.461155, Alt.=102.325256m. Speed=16.596001m/h.</desc>
<speed>4.610000</speed>
</trkpt>
<trkpt lat="56.007423" lon="26.461159">
<ele>101.735413</ele>
<time>2010-06-20T09:57:53Z</time>
<desc>lat.=56.007423, lon.=26.461159, Alt.=101.735413m. Speed=16.091999m/h.</desc>
<speed>4.470000</speed>
</trkpt>
<trkpt lat="56.007458" lon="26.461164">
<ele>102.532288</ele>
<time>2010-06-20T09:57:54Z</time>
<desc>lat.=56.007458, lon.=26.461164, Alt.=102.532288m. Speed=15.948000m/h.</desc>
<speed>4.430000</speed>
</trkpt>
<trkpt lat="56.007500" lon="26.461163">
<ele>102.178772</ele>
<time>2010-06-20T09:57:55Z</time>
<desc>lat.=56.007500, lon.=26.461163, Alt.=102.178772m. Speed=16.992001m/h.</desc>
<speed>4.720000</speed>
</trkpt>
<trkpt lat="56.007542" lon="26.461159">
<ele>102.655334</ele>
<time>2010-06-20T09:57:56Z</time>
<desc>lat.=56.007542, lon.=26.461159, Alt.=102.655334m. Speed=17.063999m/h.</desc>
<speed>4.740000</speed>
</trkpt>
<trkpt lat="56.007591" lon="26.461161">
<ele>102.739319</ele>
<time>2010-06-20T09:57:57Z</time>
<desc>lat.=56.007591, lon.=26.461161, Alt.=102.739319m. Speed=18.000000m/h.</desc>
<speed>5.000000</speed>
</trkpt>
<trkpt lat="56.007637" lon="26.461168">
<ele>102.575256</ele>
<time>2010-06-20T09:57:58Z</time>
<desc>lat.=56.007637, lon.=26.461168, Alt.=102.575256m. Speed=17.856001m/h.</desc>
<speed>4.960000</speed>
</trkpt>
<trkpt lat="56.007687" lon="26.461178">
<ele>102.079163</ele>
<time>2010-06-20T09:57:59Z</time>
<desc>lat.=56.007687, lon.=26.461178, Alt.=102.079163m. Speed=19.656000m/h.</desc>
<speed>5.460000</speed>
</trkpt>
<trkpt lat="56.007736" lon="26.461180">
<ele>101.440491</ele>
<time>2010-06-20T09:58:00Z</time>
<desc>lat.=56.007736, lon.=26.461180, Alt.=101.440491m. Speed=19.476000m/h.</desc>
<speed>5.410000</speed>
</trkpt>
<trkpt lat="56.007786" lon="26.461182">
<ele>101.001038</ele>
<time>2010-06-20T09:58:01Z</time>
<desc>lat.=56.007786, lon.=26.461182, Alt.=101.001038m. Speed=18.864000m/h.</desc>
<speed>5.240000</speed>
</trkpt>
<trkpt lat="56.007832" lon="26.461180">
<ele>100.483459</ele>
<time>2010-06-20T09:58:02Z</time>
<desc>lat.=56.007832, lon.=26.461180, Alt.=100.483459m. Speed=18.072001m/h.</desc>
<speed>5.020000</speed>
</trkpt>
<trkpt lat="56.007877" lon="26.461180">
<ele>100.262756</ele>
<time>2010-06-20T09:58:03Z</time>
<desc>lat.=56.007877, lon.=26.461180, Alt.=100.262756m. Speed=17.927999m/h.</desc>
<speed>4.980000</speed>
</trkpt>
<trkpt lat="56.007923" lon="26.461182">
<ele>100.211975</ele>
<time>2010-06-20T09:58:04Z</time>
<desc>lat.=56.007923, lon.=26.461182, Alt.=100.211975m. Speed=18.035999m/h.</desc>
<speed>5.010000</speed>
</trkpt>
<trkpt lat="56.007965" lon="26.461178">
<ele>100.225647</ele>
<time>2010-06-20T09:58:05Z</time>
<desc>lat.=56.007965, lon.=26.461178, Alt.=100.225647m. Speed=18.900000m/h.</desc>
<speed>5.250000</speed>
</trkpt>
<trkpt lat="56.008015" lon="26.461178">
<ele>100.297913</ele>
<time>2010-06-20T09:58:06Z</time>
<desc>lat.=56.008015, lon.=26.461178, Alt.=100.297913m. Speed=19.260000m/h.</desc>
<speed>5.350000</speed>
</trkpt>
<trkpt lat="56.008060" lon="26.461176">
<ele>100.639709</ele>
<time>2010-06-20T09:58:07Z</time>
<desc>lat.=56.008060, lon.=26.461176, Alt.=100.639709m. Speed=18.288000m/h.</desc>
<speed>5.080000</speed>
</trkpt>
<trkpt lat="56.008102" lon="26.461176">
<ele>100.713928</ele>
<time>2010-06-20T09:58:08Z</time>
<desc>lat.=56.008102, lon.=26.461176, Alt.=100.713928m. Speed=17.820000m/h.</desc>
<speed>4.950000</speed>
</trkpt>
<trkpt lat="56.008148" lon="26.461178">
<ele>100.960022</ele>
<time>2010-06-20T09:58:09Z</time>
<desc>lat.=56.008148, lon.=26.461178, Alt.=100.960022m. Speed=17.100000m/h.</desc>
<speed>4.750000</speed>
</trkpt>
<trkpt lat="56.008194" lon="26.461180">
<ele>101.225647</ele>
<time>2010-06-20T09:58:10Z</time>
<desc>lat.=56.008194, lon.=26.461180, Alt.=101.225647m. Speed=18.323999m/h.</desc>
<speed>5.090000</speed>
</trkpt>
<trkpt lat="56.008244" lon="26.461182">
<ele>101.434631</ele>
<time>2010-06-20T09:58:11Z</time>
<desc>lat.=56.008244, lon.=26.461182, Alt.=101.434631m. Speed=18.827999m/h.</desc>
<speed>5.230000</speed>
</trkpt>
<trkpt lat="56.008286" lon="26.461182">
<ele>101.063538</ele>
<time>2010-06-20T09:58:12Z</time>
<desc>lat.=56.008286, lon.=26.461182, Alt.=101.063538m. Speed=17.424000m/h.</desc>
<speed>4.840000</speed>
</trkpt>
<trkpt lat="56.008327" lon="26.461182">
<ele>100.979553</ele>
<time>2010-06-20T09:58:13Z</time>
<desc>lat.=56.008327, lon.=26.461182, Alt.=100.979553m. Speed=16.236000m/h.</desc>
<speed>4.510000</speed>
</trkpt>
<trkpt lat="56.008369" lon="26.461185">
<ele>101.299866</ele>
<time>2010-06-20T09:58:14Z</time>
<desc>lat.=56.008369, lon.=26.461185, Alt.=101.299866m. Speed=16.559999m/h.</desc>
<speed>4.600000</speed>
</trkpt>
<trkpt lat="56.008411" lon="26.461189">
<ele>101.170959</ele>
<time>2010-06-20T09:58:15Z</time>
<desc>lat.=56.008411, lon.=26.461189, Alt.=101.170959m. Speed=17.351999m/h.</desc>
<speed>4.820000</speed>
</trkpt>
<trkpt lat="56.008453" lon="26.461187">
<ele>101.272522</ele>
<time>2010-06-20T09:58:16Z</time>
<desc>lat.=56.008453, lon.=26.461187, Alt.=101.272522m. Speed=17.136000m/h.</desc>
<speed>4.760000</speed>
</trkpt>
<trkpt lat="56.008495" lon="26.461184">
<ele>101.292053</ele>
<time>2010-06-20T09:58:17Z</time>
<desc>lat.=56.008495, lon.=26.461184, Alt.=101.292053m. Speed=17.172001m/h.</desc>
<speed>4.770000</speed>
</trkpt>
<trkpt lat="56.008541" lon="26.461184">
<ele>101.397522</ele>
<time>2010-06-20T09:58:18Z</time>
<desc>lat.=56.008541, lon.=26.461184, Alt.=101.397522m. Speed=18.684000m/h.</desc>
<speed>5.190000</speed>
</trkpt>
<trkpt lat="56.008591" lon="26.461191">
<ele>101.686584</ele>
<time>2010-06-20T09:58:19Z</time>
<desc>lat.=56.008591, lon.=26.461191, Alt.=101.686584m. Speed=19.584000m/h.</desc>
<speed>5.440000</speed>
</trkpt>
<trkpt lat="56.008640" lon="26.461197">
<ele>101.674866</ele>
<time>2010-06-20T09:58:20Z</time>
<desc>lat.=56.008640, lon.=26.461197, Alt.=101.674866m. Speed=19.368000m/h.</desc>
<speed>5.380000</speed>
</trkpt>
<trkpt lat="56.008686" lon="26.461201">
<ele>101.764709</ele>
<time>2010-06-20T09:58:21Z</time>
<desc>lat.=56.008686, lon.=26.461201, Alt.=101.764709m. Speed=18.540001m/h.</desc>
<speed>5.150000</speed>
</trkpt>
<trkpt lat="56.008732" lon="26.461206">
<ele>101.727600</ele>
<time>2010-06-20T09:58:22Z</time>
<desc>lat.=56.008732, lon.=26.461206, Alt.=101.727600m. Speed=17.712000m/h.</desc>
<speed>4.920000</speed>
</trkpt>
<trkpt lat="56.008785" lon="26.461206">
<ele>101.956116</ele>
<time>2010-06-20T09:58:23Z</time>
<desc>lat.=56.008785, lon.=26.461206, Alt.=101.956116m. Speed=19.080000m/h.</desc>
<speed>5.300000</speed>
</trkpt>
<trkpt lat="56.008831" lon="26.461208">
<ele>101.981506</ele>
<time>2010-06-20T09:58:24Z</time>
<desc>lat.=56.008831, lon.=26.461208, Alt.=101.981506m. Speed=18.827999m/h.</desc>
<speed>5.230000</speed>
</trkpt>
<trkpt lat="56.008877" lon="26.461212">
<ele>101.961975</ele>
<time>2010-06-20T09:58:25Z</time>
<desc>lat.=56.008877, lon.=26.461212, Alt.=101.961975m. Speed=19.872000m/h.</desc>
<speed>5.520000</speed>
</trkpt>
<trkpt lat="56.008930" lon="26.461218">
<ele>102.180725</ele>
<time>2010-06-20T09:58:26Z</time>
<desc>lat.=56.008930, lon.=26.461218, Alt.=102.180725m. Speed=20.087999m/h.</desc>
<speed>5.580000</speed>
</trkpt>
<trkpt lat="56.008980" lon="26.461224">
<ele>102.364319</ele>
<time>2010-06-20T09:58:27Z</time>
<desc>lat.=56.008980, lon.=26.461224, Alt.=102.364319m. Speed=20.771999m/h.</desc>
<speed>5.770000</speed>
</trkpt>
<trkpt lat="56.009033" lon="26.461224">
<ele>102.485413</ele>
<time>2010-06-20T09:58:28Z</time>
<desc>lat.=56.009033, lon.=26.461224, Alt.=102.485413m. Speed=20.628000m/h.</desc>
<speed>5.730000</speed>
</trkpt>
<trkpt lat="56.009083" lon="26.461222">
<ele>102.614319</ele>
<time>2010-06-20T09:58:29Z</time>
<desc>lat.=56.009083, lon.=26.461222, Alt.=102.614319m. Speed=19.260000m/h.</desc>
<speed>5.350000</speed>
</trkpt>
<trkpt lat="56.009132" lon="26.461222">
<ele>102.460022</ele>
<time>2010-06-20T09:58:30Z</time>
<desc>lat.=56.009132, lon.=26.461222, Alt.=102.460022m. Speed=19.476000m/h.</desc>
<speed>5.410000</speed>
</trkpt>
<trkpt lat="56.009186" lon="26.461222">
<ele>102.387756</ele>
<time>2010-06-20T09:58:31Z</time>
<desc>lat.=56.009186, lon.=26.461222, Alt.=102.387756m. Speed=22.427999m/h.</desc>
<speed>6.230000</speed>
</trkpt>
<trkpt lat="56.009239" lon="26.461222">
<ele>101.983459</ele>
<time>2010-06-20T09:58:32Z</time>
<desc>lat.=56.009239, lon.=26.461222, Alt.=101.983459m. Speed=21.312000m/h.</desc>
<speed>5.920000</speed>
</trkpt>
<trkpt lat="56.009296" lon="26.461226">
<ele>102.001038</ele>
<time>2010-06-20T09:58:33Z</time>
<desc>lat.=56.009296, lon.=26.461226, Alt.=102.001038m. Speed=21.312000m/h.</desc>
<speed>5.920000</speed>
</trkpt>
<trkpt lat="56.009346" lon="26.461224">
<ele>101.737366</ele>
<time>2010-06-20T09:58:34Z</time>
<desc>lat.=56.009346, lon.=26.461224, Alt.=101.737366m. Speed=22.464001m/h.</desc>
<speed>6.240000</speed>
</trkpt>
<trkpt lat="56.009403" lon="26.461222">
<ele>102.424866</ele>
<time>2010-06-20T09:58:35Z</time>
<desc>lat.=56.009403, lon.=26.461222, Alt.=102.424866m. Speed=22.680000m/h.</desc>
<speed>6.300000</speed>
</trkpt>
<trkpt lat="56.009464" lon="26.461224">
<ele>102.577209</ele>
<time>2010-06-20T09:58:36Z</time>
<desc>lat.=56.009464, lon.=26.461224, Alt.=102.577209m. Speed=22.823999m/h.</desc>
<speed>6.340000</speed>
</trkpt>
<trkpt lat="56.009521" lon="26.461222">
<ele>103.299866</ele>
<time>2010-06-20T09:58:37Z</time>
<desc>lat.=56.009521, lon.=26.461222, Alt.=103.299866m. Speed=23.688000m/h.</desc>
<speed>6.580000</speed>
</trkpt>
<trkpt lat="56.009583" lon="26.461226">
<ele>103.225647</ele>
<time>2010-06-20T09:58:38Z</time>
<desc>lat.=56.009583, lon.=26.461226, Alt.=103.225647m. Speed=24.156000m/h.</desc>
<speed>6.710000</speed>
</trkpt>
<trkpt lat="56.009640" lon="26.461227">
<ele>103.211975</ele>
<time>2010-06-20T09:58:39Z</time>
<desc>lat.=56.009640, lon.=26.461227, Alt.=103.211975m. Speed=24.660000m/h.</desc>
<speed>6.850000</speed>
</trkpt>
<trkpt lat="56.009705" lon="26.461229">
<ele>103.202209</ele>
<time>2010-06-20T09:58:40Z</time>
<desc>lat.=56.009705, lon.=26.461229, Alt.=103.202209m. Speed=24.444000m/h.</desc>
<speed>6.790000</speed>
</trkpt>
<trkpt lat="56.009766" lon="26.461226">
<ele>103.176819</ele>
<time>2010-06-20T09:58:41Z</time>
<desc>lat.=56.009766, lon.=26.461226, Alt.=103.176819m. Speed=23.472000m/h.</desc>
<speed>6.520000</speed>
</trkpt>
<trkpt lat="56.009823" lon="26.461222">
<ele>103.100647</ele>
<time>2010-06-20T09:58:42Z</time>
<desc>lat.=56.009823, lon.=26.461222, Alt.=103.100647m. Speed=22.860001m/h.</desc>
<speed>6.350000</speed>
</trkpt>
<trkpt lat="56.009880" lon="26.461216">
<ele>102.917053</ele>
<time>2010-06-20T09:58:43Z</time>
<desc>lat.=56.009880, lon.=26.461216, Alt.=102.917053m. Speed=21.888000m/h.</desc>
<speed>6.080000</speed>
</trkpt>
<trkpt lat="56.009933" lon="26.461212">
<ele>102.727600</ele>
<time>2010-06-20T09:58:44Z</time>
<desc>lat.=56.009933, lon.=26.461212, Alt.=102.727600m. Speed=21.240000m/h.</desc>
<speed>5.900000</speed>
</trkpt>
<trkpt lat="56.009987" lon="26.461214">
<ele>102.624084</ele>
<time>2010-06-20T09:58:45Z</time>
<desc>lat.=56.009987, lon.=26.461214, Alt.=102.624084m. Speed=20.664000m/h.</desc>
<speed>5.740000</speed>
</trkpt>
<trkpt lat="56.010040" lon="26.461220">
<ele>102.362366</ele>
<time>2010-06-20T09:58:46Z</time>
<desc>lat.=56.010040, lon.=26.461220, Alt.=102.362366m. Speed=21.492001m/h.</desc>
<speed>5.970000</speed>
</trkpt>
<trkpt lat="56.010094" lon="26.461220">
<ele>102.196350</ele>
<time>2010-06-20T09:58:47Z</time>
<desc>lat.=56.010094, lon.=26.461220, Alt.=102.196350m. Speed=22.212000m/h.</desc>
<speed>6.170000</speed>
</trkpt>
<trkpt lat="56.010151" lon="26.461218">
<ele>101.483459</ele>
<time>2010-06-20T09:58:48Z</time>
<desc>lat.=56.010151, lon.=26.461218, Alt.=101.483459m. Speed=23.652000m/h.</desc>
<speed>6.570000</speed>
</trkpt>
<trkpt lat="56.010212" lon="26.461210">
<ele>101.252991</ele>
<time>2010-06-20T09:58:49Z</time>
<desc>lat.=56.010212, lon.=26.461210, Alt.=101.252991m. Speed=24.120001m/h.</desc>
<speed>6.700000</speed>
</trkpt>
<trkpt lat="56.010273" lon="26.461201">
<ele>100.879944</ele>
<time>2010-06-20T09:58:50Z</time>
<desc>lat.=56.010273, lon.=26.461201, Alt.=100.879944m. Speed=24.804001m/h.</desc>
<speed>6.890000</speed>
</trkpt>
<trkpt lat="56.010338" lon="26.461193">
<ele>100.544006</ele>
<time>2010-06-20T09:58:51Z</time>
<desc>lat.=56.010338, lon.=26.461193, Alt.=100.544006m. Speed=26.063999m/h.</desc>
<speed>7.240000</speed>
</trkpt>
<trkpt lat="56.010403" lon="26.461184">
<ele>100.383850</ele>
<time>2010-06-20T09:58:52Z</time>
<desc>lat.=56.010403, lon.=26.461184, Alt.=100.383850m. Speed=27.396000m/h.</desc>
<speed>7.610000</speed>
</trkpt>
<trkpt lat="56.010475" lon="26.461178">
<ele>99.735413</ele>
<time>2010-06-20T09:58:53Z</time>
<desc>lat.=56.010475, lon.=26.461178, Alt.=99.735413m. Speed=28.584000m/h.</desc>
<speed>7.940000</speed>
</trkpt>
<trkpt lat="56.010551" lon="26.461166">
<ele>99.598694</ele>
<time>2010-06-20T09:58:54Z</time>
<desc>lat.=56.010551, lon.=26.461166, Alt.=99.598694m. Speed=29.771999m/h.</desc>
<speed>8.270000</speed>
</trkpt>
<trkpt lat="56.010624" lon="26.461159">
<ele>99.192444</ele>
<time>2010-06-20T09:58:55Z</time>
<desc>lat.=56.010624, lon.=26.461159, Alt.=99.192444m. Speed=30.743999m/h.</desc>
<speed>8.540000</speed>
</trkpt>
<trkpt lat="56.010704" lon="26.461143">
<ele>99.196350</ele>
<time>2010-06-20T09:58:56Z</time>
<desc>lat.=56.010704, lon.=26.461143, Alt.=99.196350m. Speed=30.996000m/h.</desc>
<speed>8.610000</speed>
</trkpt>
<trkpt lat="56.010784" lon="26.461132">
<ele>98.672913</ele>
<time>2010-06-20T09:58:57Z</time>
<desc>lat.=56.010784, lon.=26.461132, Alt.=98.672913m. Speed=30.851999m/h.</desc>
<speed>8.570000</speed>
</trkpt>
<trkpt lat="56.010864" lon="26.461121">
<ele>98.536194</ele>
<time>2010-06-20T09:58:58Z</time>
<desc>lat.=56.010864, lon.=26.461121, Alt.=98.536194m. Speed=30.672001m/h.</desc>
<speed>8.520000</speed>
</trkpt>
<trkpt lat="56.010944" lon="26.461107">
<ele>98.004944</ele>
<time>2010-06-20T09:58:59Z</time>
<desc>lat.=56.010944, lon.=26.461107, Alt.=98.004944m. Speed=30.924000m/h.</desc>
<speed>8.590000</speed>
</trkpt>
<trkpt lat="56.011021" lon="26.461096">
<ele>97.772522</ele>
<time>2010-06-20T09:59:00Z</time>
<desc>lat.=56.011021, lon.=26.461096, Alt.=97.772522m. Speed=30.959999m/h.</desc>
<speed>8.600000</speed>
</trkpt>
<trkpt lat="56.011101" lon="26.461082">
<ele>97.540100</ele>
<time>2010-06-20T09:59:01Z</time>
<desc>lat.=56.011101, lon.=26.461082, Alt.=97.540100m. Speed=30.996000m/h.</desc>
<speed>8.610000</speed>
</trkpt>
<trkpt lat="56.011181" lon="26.461073">
<ele>97.426819</ele>
<time>2010-06-20T09:59:02Z</time>
<desc>lat.=56.011181, lon.=26.461073, Alt.=97.426819m. Speed=30.743999m/h.</desc>
<speed>8.540000</speed>
</trkpt>
<trkpt lat="56.011257" lon="26.461056">
<ele>97.217834</ele>
<time>2010-06-20T09:59:03Z</time>
<desc>lat.=56.011257, lon.=26.461056, Alt.=97.217834m. Speed=30.636000m/h.</desc>
<speed>8.510000</speed>
</trkpt>
<trkpt lat="56.011337" lon="26.461042">
<ele>96.850647</ele>
<time>2010-06-20T09:59:04Z</time>
<desc>lat.=56.011337, lon.=26.461042, Alt.=96.850647m. Speed=30.204000m/h.</desc>
<speed>8.390000</speed>
</trkpt>
<trkpt lat="56.011414" lon="26.461029">
<ele>96.934631</ele>
<time>2010-06-20T09:59:05Z</time>
<desc>lat.=56.011414, lon.=26.461029, Alt.=96.934631m. Speed=30.528000m/h.</desc>
<speed>8.480000</speed>
</trkpt>
<trkpt lat="56.011486" lon="26.461016">
<ele>96.567444</ele>
<time>2010-06-20T09:59:06Z</time>
<desc>lat.=56.011486, lon.=26.461016, Alt.=96.567444m. Speed=31.320000m/h.</desc>
<speed>8.700000</speed>
</trkpt>
<trkpt lat="56.011566" lon="26.461000">
<ele>96.448303</ele>
<time>2010-06-20T09:59:07Z</time>
<desc>lat.=56.011566, lon.=26.461000, Alt.=96.448303m. Speed=32.363998m/h.</desc>
<speed>8.990000</speed>
</trkpt>
<trkpt lat="56.011642" lon="26.460981">
<ele>96.129944</ele>
<time>2010-06-20T09:59:08Z</time>
<desc>lat.=56.011642, lon.=26.460981, Alt.=96.129944m. Speed=32.400002m/h.</desc>
<speed>9.000000</speed>
</trkpt>
<trkpt lat="56.011723" lon="26.460960">
<ele>96.272522</ele>
<time>2010-06-20T09:59:09Z</time>
<desc>lat.=56.011723, lon.=26.460960, Alt.=96.272522m. Speed=32.256001m/h.</desc>
<speed>8.960000</speed>
</trkpt>
<trkpt lat="56.011803" lon="26.460943">
<ele>95.637756</ele>
<time>2010-06-20T09:59:10Z</time>
<desc>lat.=56.011803, lon.=26.460943, Alt.=95.637756m. Speed=31.860001m/h.</desc>
<speed>8.850000</speed>
</trkpt>
<trkpt lat="56.011883" lon="26.460920">
<ele>95.499084</ele>
<time>2010-06-20T09:59:11Z</time>
<desc>lat.=56.011883, lon.=26.460920, Alt.=95.499084m. Speed=31.139999m/h.</desc>
<speed>8.650000</speed>
</trkpt>
<trkpt lat="56.011955" lon="26.460897">
<ele>95.227600</ele>
<time>2010-06-20T09:59:12Z</time>
<desc>lat.=56.011955, lon.=26.460897, Alt.=95.227600m. Speed=30.275999m/h.</desc>
<speed>8.410000</speed>
</trkpt>
<trkpt lat="56.012028" lon="26.460873">
<ele>95.090881</ele>
<time>2010-06-20T09:59:13Z</time>
<desc>lat.=56.012028, lon.=26.460873, Alt.=95.090881m. Speed=30.312000m/h.</desc>
<speed>8.420000</speed>
</trkpt>
<trkpt lat="56.012104" lon="26.460840">
<ele>95.120178</ele>
<time>2010-06-20T09:59:14Z</time>
<desc>lat.=56.012104, lon.=26.460840, Alt.=95.120178m. Speed=30.636000m/h.</desc>
<speed>8.510000</speed>
</trkpt>
<trkpt lat="56.012177" lon="26.460812">
<ele>95.026428</ele>
<time>2010-06-20T09:59:15Z</time>
<desc>lat.=56.012177, lon.=26.460812, Alt.=95.026428m. Speed=30.672001m/h.</desc>
<speed>8.520000</speed>
</trkpt>
<trkpt lat="56.012249" lon="26.460777">
<ele>95.340881</ele>
<time>2010-06-20T09:59:16Z</time>
<desc>lat.=56.012249, lon.=26.460777, Alt.=95.340881m. Speed=30.384001m/h.</desc>
<speed>8.440000</speed>
</trkpt>
<trkpt lat="56.012321" lon="26.460743">
<ele>95.389709</ele>
<time>2010-06-20T09:59:17Z</time>
<desc>lat.=56.012321, lon.=26.460743, Alt.=95.389709m. Speed=28.620001m/h.</desc>
<speed>7.950000</speed>
</trkpt>
<trkpt lat="56.012390" lon="26.460703">
<ele>95.469788</ele>
<time>2010-06-20T09:59:18Z</time>
<desc>lat.=56.012390, lon.=26.460703, Alt.=95.469788m. Speed=29.160000m/h.</desc>
<speed>8.100000</speed>
</trkpt>
<trkpt lat="56.012459" lon="26.460672">
<ele>95.711975</ele>
<time>2010-06-20T09:59:19Z</time>
<desc>lat.=56.012459, lon.=26.460672, Alt.=95.711975m. Speed=26.568001m/h.</desc>
<speed>7.380000</speed>
</trkpt>
<trkpt lat="56.012524" lon="26.460638">
<ele>96.221741</ele>
<time>2010-06-20T09:59:20Z</time>
<desc>lat.=56.012524, lon.=26.460638, Alt.=96.221741m. Speed=27.792000m/h.</desc>
<speed>7.720000</speed>
</trkpt>
<trkpt lat="56.012592" lon="26.460606">
<ele>95.979553</ele>
<time>2010-06-20T09:59:21Z</time>
<desc>lat.=56.012592, lon.=26.460606, Alt.=95.979553m. Speed=29.879999m/h.</desc>
<speed>8.300000</speed>
</trkpt>
<trkpt lat="56.012661" lon="26.460567">
<ele>95.493225</ele>
<time>2010-06-20T09:59:22Z</time>
<desc>lat.=56.012661, lon.=26.460567, Alt.=95.493225m. Speed=29.340000m/h.</desc>
<speed>8.150000</speed>
</trkpt>
<trkpt lat="56.012730" lon="26.460524">
<ele>95.407288</ele>
<time>2010-06-20T09:59:23Z</time>
<desc>lat.=56.012730, lon.=26.460524, Alt.=95.407288m. Speed=27.360001m/h.</desc>
<speed>7.600000</speed>
</trkpt>
<trkpt lat="56.012791" lon="26.460480">
<ele>95.256897</ele>
<time>2010-06-20T09:59:24Z</time>
<desc>lat.=56.012791, lon.=26.460480, Alt.=95.256897m. Speed=26.856001m/h.</desc>
<speed>7.460000</speed>
</trkpt>
<trkpt lat="56.012856" lon="26.460434">
<ele>95.844788</ele>
<time>2010-06-20T09:59:25Z</time>
<desc>lat.=56.012856, lon.=26.460434, Alt.=95.844788m. Speed=28.044001m/h.</desc>
<speed>7.790000</speed>
</trkpt>
<trkpt lat="56.012920" lon="26.460390">
<ele>95.659241</ele>
<time>2010-06-20T09:59:26Z</time>
<desc>lat.=56.012920, lon.=26.460390, Alt.=95.659241m. Speed=27.504000m/h.</desc>
<speed>7.640000</speed>
</trkpt>
<trkpt lat="56.012981" lon="26.460342">
<ele>95.686584</ele>
<time>2010-06-20T09:59:27Z</time>
<desc>lat.=56.012981, lon.=26.460342, Alt.=95.686584m. Speed=26.351999m/h.</desc>
<speed>7.320000</speed>
</trkpt>
<trkpt lat="56.013035" lon="26.460289">
<ele>95.493225</ele>
<time>2010-06-20T09:59:28Z</time>
<desc>lat.=56.013035, lon.=26.460289, Alt.=95.493225m. Speed=27.827999m/h.</desc>
<speed>7.730000</speed>
</trkpt>
<trkpt lat="56.013092" lon="26.460220">
<ele>95.251038</ele>
<time>2010-06-20T09:59:29Z</time>
<desc>lat.=56.013092, lon.=26.460220, Alt.=95.251038m. Speed=28.511999m/h.</desc>
<speed>7.920000</speed>
</trkpt>
<trkpt lat="56.013149" lon="26.460155">
<ele>95.317444</ele>
<time>2010-06-20T09:59:30Z</time>
<desc>lat.=56.013149, lon.=26.460155, Alt.=95.317444m. Speed=28.260000m/h.</desc>
<speed>7.850000</speed>
</trkpt>
<trkpt lat="56.013218" lon="26.460089">
<ele>95.176819</ele>
<time>2010-06-20T09:59:31Z</time>
<desc>lat.=56.013218, lon.=26.460089, Alt.=95.176819m. Speed=28.908001m/h.</desc>
<speed>8.030000</speed>
</trkpt>
<trkpt lat="56.013279" lon="26.460018">
<ele>95.419006</ele>
<time>2010-06-20T09:59:32Z</time>
<desc>lat.=56.013279, lon.=26.460018, Alt.=95.419006m. Speed=27.864000m/h.</desc>
<speed>7.740000</speed>
</trkpt>
<trkpt lat="56.013336" lon="26.459946">
<ele>95.325256</ele>
<time>2010-06-20T09:59:33Z</time>
<desc>lat.=56.013336, lon.=26.459946, Alt.=95.325256m. Speed=28.511999m/h.</desc>
<speed>7.920000</speed>
</trkpt>
<trkpt lat="56.013397" lon="26.459873">
<ele>95.012756</ele>
<time>2010-06-20T09:59:34Z</time>
<desc>lat.=56.013397, lon.=26.459873, Alt.=95.012756m. Speed=26.856001m/h.</desc>
<speed>7.460000</speed>
</trkpt>
<trkpt lat="56.013454" lon="26.459803">
<ele>95.188538</ele>
<time>2010-06-20T09:59:35Z</time>
<desc>lat.=56.013454, lon.=26.459803, Alt.=95.188538m. Speed=25.667999m/h.</desc>
<speed>7.130000</speed>
</trkpt>
<trkpt lat="56.013512" lon="26.459734">
<ele>95.569397</ele>
<time>2010-06-20T09:59:36Z</time>
<desc>lat.=56.013512, lon.=26.459734, Alt.=95.569397m. Speed=24.372000m/h.</desc>
<speed>6.770000</speed>
</trkpt>
<trkpt lat="56.013565" lon="26.459669">
<ele>95.864319</ele>
<time>2010-06-20T09:59:37Z</time>
<desc>lat.=56.013565, lon.=26.459669, Alt.=95.864319m. Speed=25.632000m/h.</desc>
<speed>7.120000</speed>
</trkpt>
<trkpt lat="56.013618" lon="26.459608">
<ele>96.075256</ele>
<time>2010-06-20T09:59:38Z</time>
<desc>lat.=56.013618, lon.=26.459608, Alt.=96.075256m. Speed=24.624001m/h.</desc>
<speed>6.840000</speed>
</trkpt>
<trkpt lat="56.013672" lon="26.459534">
<ele>96.401428</ele>
<time>2010-06-20T09:59:39Z</time>
<desc>lat.=56.013672, lon.=26.459534, Alt.=96.401428m. Speed=25.812000m/h.</desc>
<speed>7.170000</speed>
</trkpt>
<trkpt lat="56.013725" lon="26.459459">
<ele>96.444397</ele>
<time>2010-06-20T09:59:40Z</time>
<desc>lat.=56.013725, lon.=26.459459, Alt.=96.444397m. Speed=25.992001m/h.</desc>
<speed>7.220000</speed>
</trkpt>
<trkpt lat="56.013775" lon="26.459385">
<ele>97.356506</ele>
<time>2010-06-20T09:59:41Z</time>
<desc>lat.=56.013775, lon.=26.459385, Alt.=97.356506m. Speed=25.091999m/h.</desc>
<speed>6.970000</speed>
</trkpt>
<trkpt lat="56.013824" lon="26.459311">
<ele>97.094788</ele>
<time>2010-06-20T09:59:42Z</time>
<desc>lat.=56.013824, lon.=26.459311, Alt.=97.094788m. Speed=25.379999m/h.</desc>
<speed>7.050000</speed>
</trkpt>
<trkpt lat="56.013878" lon="26.459234">
<ele>97.411194</ele>
<time>2010-06-20T09:59:43Z</time>
<desc>lat.=56.013878, lon.=26.459234, Alt.=97.411194m. Speed=27.360001m/h.</desc>
<speed>7.600000</speed>
</trkpt>
<trkpt lat="56.013927" lon="26.459160">
<ele>96.799866</ele>
<time>2010-06-20T09:59:44Z</time>
<desc>lat.=56.013927, lon.=26.459160, Alt.=96.799866m. Speed=26.568001m/h.</desc>
<speed>7.380000</speed>
</trkpt>
<trkpt lat="56.013977" lon="26.459087">
<ele>97.233459</ele>
<time>2010-06-20T09:59:45Z</time>
<desc>lat.=56.013977, lon.=26.459087, Alt.=97.233459m. Speed=24.768000m/h.</desc>
<speed>6.880000</speed>
</trkpt>
<trkpt lat="56.014027" lon="26.459021">
<ele>96.684631</ele>
<time>2010-06-20T09:59:46Z</time>
<desc>lat.=56.014027, lon.=26.459021, Alt.=96.684631m. Speed=25.524000m/h.</desc>
<speed>7.090000</speed>
</trkpt>
<trkpt lat="56.014076" lon="26.458963">
<ele>95.473694</ele>
<time>2010-06-20T09:59:47Z</time>
<desc>lat.=56.014076, lon.=26.458963, Alt.=95.473694m. Speed=25.344000m/h.</desc>
<speed>7.040000</speed>
</trkpt>
<trkpt lat="56.014130" lon="26.458902">
<ele>95.362366</ele>
<time>2010-06-20T09:59:48Z</time>
<desc>lat.=56.014130, lon.=26.458902, Alt.=95.362366m. Speed=25.667999m/h.</desc>
<speed>7.130000</speed>
</trkpt>
<trkpt lat="56.014183" lon="26.458845">
<ele>95.598694</ele>
<time>2010-06-20T09:59:49Z</time>
<desc>lat.=56.014183, lon.=26.458845, Alt.=95.598694m. Speed=24.444000m/h.</desc>
<speed>6.790000</speed>
</trkpt>
<trkpt lat="56.014233" lon="26.458801">
<ele>96.069397</ele>
<time>2010-06-20T09:59:50Z</time>
<desc>lat.=56.014233, lon.=26.458801, Alt.=96.069397m. Speed=24.516001m/h.</desc>
<speed>6.810000</speed>
</trkpt>
<trkpt lat="56.014286" lon="26.458742">
<ele>95.571350</ele>
<time>2010-06-20T09:59:51Z</time>
<desc>lat.=56.014286, lon.=26.458742, Alt.=95.571350m. Speed=24.156000m/h.</desc>
<speed>6.710000</speed>
</trkpt>
<trkpt lat="56.014339" lon="26.458698">
<ele>95.583069</ele>
<time>2010-06-20T09:59:52Z</time>
<desc>lat.=56.014339, lon.=26.458698, Alt.=95.583069m. Speed=25.416000m/h.</desc>
<speed>7.060000</speed>
</trkpt>
<trkpt lat="56.014393" lon="26.458649">
<ele>95.311584</ele>
<time>2010-06-20T09:59:53Z</time>
<desc>lat.=56.014393, lon.=26.458649, Alt.=95.311584m. Speed=23.724001m/h.</desc>
<speed>6.590000</speed>
</trkpt>
<trkpt lat="56.014446" lon="26.458601">
<ele>95.633850</ele>
<time>2010-06-20T09:59:54Z</time>
<desc>lat.=56.014446, lon.=26.458601, Alt.=95.633850m. Speed=23.327999m/h.</desc>
<speed>6.480000</speed>
</trkpt>
<trkpt lat="56.014500" lon="26.458561">
<ele>95.608459</ele>
<time>2010-06-20T09:59:55Z</time>
<desc>lat.=56.014500, lon.=26.458561, Alt.=95.608459m. Speed=22.535999m/h.</desc>
<speed>6.260000</speed>
</trkpt>
<trkpt lat="56.014553" lon="26.458519">
<ele>95.829163</ele>
<time>2010-06-20T09:59:56Z</time>
<desc>lat.=56.014553, lon.=26.458519, Alt.=95.829163m. Speed=22.176001m/h.</desc>
<speed>6.160000</speed>
</trkpt>
<trkpt lat="56.014606" lon="26.458485">
<ele>95.721741</ele>
<time>2010-06-20T09:59:57Z</time>
<desc>lat.=56.014606, lon.=26.458485, Alt.=95.721741m. Speed=21.492001m/h.</desc>
<speed>5.970000</speed>
</trkpt>
<trkpt lat="56.014656" lon="26.458448">
<ele>95.610413</ele>
<time>2010-06-20T09:59:58Z</time>
<desc>lat.=56.014656, lon.=26.458448, Alt.=95.610413m. Speed=20.700001m/h.</desc>
<speed>5.750000</speed>
</trkpt>
<trkpt lat="56.014706" lon="26.458403">
<ele>95.885803</ele>
<time>2010-06-20T09:59:59Z</time>
<desc>lat.=56.014706, lon.=26.458403, Alt.=95.885803m. Speed=19.908001m/h.</desc>
<speed>5.530000</speed>
</trkpt>
<trkpt lat="56.014748" lon="26.458364">
<ele>96.165100</ele>
<time>2010-06-20T10:00:00Z</time>
<desc>lat.=56.014748, lon.=26.458364, Alt.=96.165100m. Speed=19.944000m/h.</desc>
<speed>5.540000</speed>
</trkpt>
<trkpt lat="56.014793" lon="26.458323">
<ele>96.622131</ele>
<time>2010-06-20T10:00:01Z</time>
<desc>lat.=56.014793, lon.=26.458323, Alt.=96.622131m. Speed=19.728001m/h.</desc>
<speed>5.480000</speed>
</trkpt>
<trkpt lat="56.014843" lon="26.458284">
<ele>97.077209</ele>
<time>2010-06-20T10:00:02Z</time>
<desc>lat.=56.014843, lon.=26.458284, Alt.=97.077209m. Speed=19.332001m/h.</desc>
<speed>5.370000</speed>
</trkpt>
<trkpt lat="56.014889" lon="26.458244">
<ele>97.401428</ele>
<time>2010-06-20T10:00:03Z</time>
<desc>lat.=56.014889, lon.=26.458244, Alt.=97.401428m. Speed=18.972000m/h.</desc>
<speed>5.270000</speed>
</trkpt>
<trkpt lat="56.014931" lon="26.458202">
<ele>97.512756</ele>
<time>2010-06-20T10:00:04Z</time>
<desc>lat.=56.014931, lon.=26.458202, Alt.=97.512756m. Speed=21.204000m/h.</desc>
<speed>5.890000</speed>
</trkpt>
<trkpt lat="56.014977" lon="26.458158">
<ele>97.413147</ele>
<time>2010-06-20T10:00:05Z</time>
<desc>lat.=56.014977, lon.=26.458158, Alt.=97.413147m. Speed=19.152000m/h.</desc>
<speed>5.320000</speed>
</trkpt>
<trkpt lat="56.015015" lon="26.458130">
<ele>97.321350</ele>
<time>2010-06-20T10:00:06Z</time>
<desc>lat.=56.015015, lon.=26.458130, Alt.=97.321350m. Speed=15.768000m/h.</desc>
<speed>4.380000</speed>
</trkpt>
<trkpt lat="56.015053" lon="26.458092">
<ele>97.571350</ele>
<time>2010-06-20T10:00:07Z</time>
<desc>lat.=56.015053, lon.=26.458092, Alt.=97.571350m. Speed=19.080000m/h.</desc>
<speed>5.300000</speed>
</trkpt>
<trkpt lat="56.015095" lon="26.458052">
<ele>97.504944</ele>
<time>2010-06-20T10:00:08Z</time>
<desc>lat.=56.015095, lon.=26.458052, Alt.=97.504944m. Speed=18.143999m/h.</desc>
<speed>5.040000</speed>
</trkpt>
<trkpt lat="56.015137" lon="26.458015">
<ele>96.659241</ele>
<time>2010-06-20T10:00:09Z</time>
<desc>lat.=56.015137, lon.=26.458015, Alt.=96.659241m. Speed=17.280001m/h.</desc>
<speed>4.800000</speed>
</trkpt>
<trkpt lat="56.015179" lon="26.457977">
<ele>97.170959</ele>
<time>2010-06-20T10:00:10Z</time>
<desc>lat.=56.015179, lon.=26.457977, Alt.=97.170959m. Speed=18.143999m/h.</desc>
<speed>5.040000</speed>
</trkpt>
<trkpt lat="56.015224" lon="26.457941">
<ele>97.088928</ele>
<time>2010-06-20T10:00:11Z</time>
<desc>lat.=56.015224, lon.=26.457941, Alt.=97.088928m. Speed=18.000000m/h.</desc>
<speed>5.000000</speed>
</trkpt>
<trkpt lat="56.015263" lon="26.457907">
<ele>96.409241</ele>
<time>2010-06-20T10:00:12Z</time>
<desc>lat.=56.015263, lon.=26.457907, Alt.=96.409241m. Speed=18.288000m/h.</desc>
<speed>5.080000</speed>
</trkpt>
<trkpt lat="56.015305" lon="26.457865">
<ele>96.549866</ele>
<time>2010-06-20T10:00:13Z</time>
<desc>lat.=56.015305, lon.=26.457865, Alt.=96.549866m. Speed=18.972000m/h.</desc>
<speed>5.270000</speed>
</trkpt>
<trkpt lat="56.015350" lon="26.457827">
<ele>96.643616</ele>
<time>2010-06-20T10:00:14Z</time>
<desc>lat.=56.015350, lon.=26.457827, Alt.=96.643616m. Speed=19.332001m/h.</desc>
<speed>5.370000</speed>
</trkpt>
<trkpt lat="56.015400" lon="26.457794">
<ele>96.817444</ele>
<time>2010-06-20T10:00:15Z</time>
<desc>lat.=56.015400, lon.=26.457794, Alt.=96.817444m. Speed=19.080000m/h.</desc>
<speed>5.300000</speed>
</trkpt>
<trkpt lat="56.015438" lon="26.457758">
<ele>96.770569</ele>
<time>2010-06-20T10:00:16Z</time>
<desc>lat.=56.015438, lon.=26.457758, Alt.=96.770569m. Speed=18.684000m/h.</desc>
<speed>5.190000</speed>
</trkpt>
<trkpt lat="56.015480" lon="26.457722">
<ele>96.407288</ele>
<time>2010-06-20T10:00:17Z</time>
<desc>lat.=56.015480, lon.=26.457722, Alt.=96.407288m. Speed=19.944000m/h.</desc>
<speed>5.540000</speed>
</trkpt>
<trkpt lat="56.015526" lon="26.457680">
<ele>96.012756</ele>
<time>2010-06-20T10:00:18Z</time>
<desc>lat.=56.015526, lon.=26.457680, Alt.=96.012756m. Speed=19.980000m/h.</desc>
<speed>5.550000</speed>
</trkpt>
<trkpt lat="56.015575" lon="26.457638">
<ele>96.077209</ele>
<time>2010-06-20T10:00:19Z</time>
<desc>lat.=56.015575, lon.=26.457638, Alt.=96.077209m. Speed=21.708000m/h.</desc>
<speed>6.030000</speed>
</trkpt>
<trkpt lat="56.015621" lon="26.457598">
<ele>95.877991</ele>
<time>2010-06-20T10:00:20Z</time>
<desc>lat.=56.015621, lon.=26.457598, Alt.=95.877991m. Speed=20.808001m/h.</desc>
<speed>5.780000</speed>
</trkpt>
<trkpt lat="56.015671" lon="26.457561">
<ele>96.196350</ele>
<time>2010-06-20T10:00:21Z</time>
<desc>lat.=56.015671, lon.=26.457561, Alt.=96.196350m. Speed=20.052000m/h.</desc>
<speed>5.570000</speed>
</trkpt>
<trkpt lat="56.015713" lon="26.457527">
<ele>96.340881</ele>
<time>2010-06-20T10:00:22Z</time>
<desc>lat.=56.015713, lon.=26.457527, Alt.=96.340881m. Speed=19.080000m/h.</desc>
<speed>5.300000</speed>
</trkpt>
<trkpt lat="56.015762" lon="26.457485">
<ele>96.565491</ele>
<time>2010-06-20T10:00:23Z</time>
<desc>lat.=56.015762, lon.=26.457485, Alt.=96.565491m. Speed=21.167999m/h.</desc>
<speed>5.880000</speed>
</trkpt>
<trkpt lat="56.015808" lon="26.457447">
<ele>96.377991</ele>
<time>2010-06-20T10:00:24Z</time>
<desc>lat.=56.015808, lon.=26.457447, Alt.=96.377991m. Speed=21.059999m/h.</desc>
<speed>5.850000</speed>
</trkpt>
<trkpt lat="56.015850" lon="26.457403">
<ele>95.719788</ele>
<time>2010-06-20T10:00:25Z</time>
<desc>lat.=56.015850, lon.=26.457403, Alt.=95.719788m. Speed=20.483999m/h.</desc>
<speed>5.690000</speed>
</trkpt>
<trkpt lat="56.015892" lon="26.457363">
<ele>94.942444</ele>
<time>2010-06-20T10:00:26Z</time>
<desc>lat.=56.015892, lon.=26.457363, Alt.=94.942444m. Speed=20.771999m/h.</desc>
<speed>5.770000</speed>
</trkpt>
<trkpt lat="56.015934" lon="26.457327">
<ele>94.698303</ele>
<time>2010-06-20T10:00:27Z</time>
<desc>lat.=56.015934, lon.=26.457327, Alt.=94.698303m. Speed=20.448000m/h.</desc>
<speed>5.680000</speed>
</trkpt>
<trkpt lat="56.015976" lon="26.457285">
<ele>94.196350</ele>
<time>2010-06-20T10:00:28Z</time>
<desc>lat.=56.015976, lon.=26.457285, Alt.=94.196350m. Speed=20.268000m/h.</desc>
<speed>5.630000</speed>
</trkpt>
<trkpt lat="56.016026" lon="26.457237">
<ele>94.284241</ele>
<time>2010-06-20T10:00:29Z</time>
<desc>lat.=56.016026, lon.=26.457237, Alt.=94.284241m. Speed=21.528000m/h.</desc>
<speed>5.980000</speed>
</trkpt>
<trkpt lat="56.016068" lon="26.457197">
<ele>93.934631</ele>
<time>2010-06-20T10:00:30Z</time>
<desc>lat.=56.016068, lon.=26.457197, Alt.=93.934631m. Speed=20.808001m/h.</desc>
<speed>5.780000</speed>
</trkpt>
<trkpt lat="56.016117" lon="26.457151">
<ele>93.889709</ele>
<time>2010-06-20T10:00:31Z</time>
<desc>lat.=56.016117, lon.=26.457151, Alt.=93.889709m. Speed=22.356001m/h.</desc>
<speed>6.210000</speed>
</trkpt>
<trkpt lat="56.016171" lon="26.457109">
<ele>93.444397</ele>
<time>2010-06-20T10:00:32Z</time>
<desc>lat.=56.016171, lon.=26.457109, Alt.=93.444397m. Speed=23.148001m/h.</desc>
<speed>6.430000</speed>
</trkpt>
<trkpt lat="56.016224" lon="26.457062">
<ele>93.618225</ele>
<time>2010-06-20T10:00:33Z</time>
<desc>lat.=56.016224, lon.=26.457062, Alt.=93.618225m. Speed=22.356001m/h.</desc>
<speed>6.210000</speed>
</trkpt>
<trkpt lat="56.016281" lon="26.457026">
<ele>93.850647</ele>
<time>2010-06-20T10:00:34Z</time>
<desc>lat.=56.016281, lon.=26.457026, Alt.=93.850647m. Speed=22.356001m/h.</desc>
<speed>6.210000</speed>
</trkpt>
<trkpt lat="56.016335" lon="26.456987">
<ele>94.014709</ele>
<time>2010-06-20T10:00:35Z</time>
<desc>lat.=56.016335, lon.=26.456987, Alt.=94.014709m. Speed=21.492001m/h.</desc>
<speed>5.970000</speed>
</trkpt>
<trkpt lat="56.016384" lon="26.456953">
<ele>93.936584</ele>
<time>2010-06-20T10:00:36Z</time>
<desc>lat.=56.016384, lon.=26.456953, Alt.=93.936584m. Speed=20.016001m/h.</desc>
<speed>5.560000</speed>
</trkpt>
<trkpt lat="56.016430" lon="26.456924">
<ele>94.887756</ele>
<time>2010-06-20T10:00:37Z</time>
<desc>lat.=56.016430, lon.=26.456924, Alt.=94.887756m. Speed=21.708000m/h.</desc>
<speed>6.030000</speed>
</trkpt>
<trkpt lat="56.016483" lon="26.456875">
<ele>95.149475</ele>
<time>2010-06-20T10:00:38Z</time>
<desc>lat.=56.016483, lon.=26.456875, Alt.=95.149475m. Speed=22.212000m/h.</desc>
<speed>6.170000</speed>
</trkpt>
<trkpt lat="56.016533" lon="26.456837">
<ele>94.581116</ele>
<time>2010-06-20T10:00:39Z</time>
<desc>lat.=56.016533, lon.=26.456837, Alt.=94.581116m. Speed=22.823999m/h.</desc>
<speed>6.340000</speed>
</trkpt>
<trkpt lat="56.016586" lon="26.456795">
<ele>95.010803</ele>
<time>2010-06-20T10:00:40Z</time>
<desc>lat.=56.016586, lon.=26.456795, Alt.=95.010803m. Speed=23.256001m/h.</desc>
<speed>6.460000</speed>
</trkpt>
<trkpt lat="56.016647" lon="26.456755">
<ele>95.864319</ele>
<time>2010-06-20T10:00:41Z</time>
<desc>lat.=56.016647, lon.=26.456755, Alt.=95.864319m. Speed=23.364000m/h.</desc>
<speed>6.490000</speed>
</trkpt>
<trkpt lat="56.016705" lon="26.456717">
<ele>96.495178</ele>
<time>2010-06-20T10:00:42Z</time>
<desc>lat.=56.016705, lon.=26.456717, Alt.=96.495178m. Speed=22.427999m/h.</desc>
<speed>6.230000</speed>
</trkpt>
<trkpt lat="56.016758" lon="26.456682">
<ele>96.653381</ele>
<time>2010-06-20T10:00:43Z</time>
<desc>lat.=56.016758, lon.=26.456682, Alt.=96.653381m. Speed=21.384001m/h.</desc>
<speed>5.940000</speed>
</trkpt>
<trkpt lat="56.016815" lon="26.456652">
<ele>97.143616</ele>
<time>2010-06-20T10:00:44Z</time>
<desc>lat.=56.016815, lon.=26.456652, Alt.=97.143616m. Speed=22.247999m/h.</desc>
<speed>6.180000</speed>
</trkpt>
<trkpt lat="56.016872" lon="26.456635">
<ele>97.106506</ele>
<time>2010-06-20T10:00:45Z</time>
<desc>lat.=56.016872, lon.=26.456635, Alt.=97.106506m. Speed=20.268000m/h.</desc>
<speed>5.630000</speed>
</trkpt>
<trkpt lat="56.016922" lon="26.456625">
<ele>97.063538</ele>
<time>2010-06-20T10:00:46Z</time>
<desc>lat.=56.016922, lon.=26.456625, Alt.=97.063538m. Speed=20.412001m/h.</desc>
<speed>5.670000</speed>
</trkpt>
<trkpt lat="56.016972" lon="26.456619">
<ele>97.227600</ele>
<time>2010-06-20T10:00:47Z</time>
<desc>lat.=56.016972, lon.=26.456619, Alt.=97.227600m. Speed=19.260000m/h.</desc>
<speed>5.350000</speed>
</trkpt>
<trkpt lat="56.017021" lon="26.456600">
<ele>97.987366</ele>
<time>2010-06-20T10:00:48Z</time>
<desc>lat.=56.017021, lon.=26.456600, Alt.=97.987366m. Speed=19.368000m/h.</desc>
<speed>5.380000</speed>
</trkpt>
<trkpt lat="56.017067" lon="26.456589">
<ele>98.157288</ele>
<time>2010-06-20T10:00:49Z</time>
<desc>lat.=56.017067, lon.=26.456589, Alt.=98.157288m. Speed=20.556000m/h.</desc>
<speed>5.710000</speed>
</trkpt>
<trkpt lat="56.017120" lon="26.456587">
<ele>98.206116</ele>
<time>2010-06-20T10:00:50Z</time>
<desc>lat.=56.017120, lon.=26.456587, Alt.=98.206116m. Speed=21.312000m/h.</desc>
<speed>5.920000</speed>
</trkpt>
<trkpt lat="56.017178" lon="26.456583">
<ele>98.733459</ele>
<time>2010-06-20T10:00:51Z</time>
<desc>lat.=56.017178, lon.=26.456583, Alt.=98.733459m. Speed=22.500000m/h.</desc>
<speed>6.250000</speed>
</trkpt>
<trkpt lat="56.017231" lon="26.456587">
<ele>98.385803</ele>
<time>2010-06-20T10:00:52Z</time>
<desc>lat.=56.017231, lon.=26.456587, Alt.=98.385803m. Speed=23.219999m/h.</desc>
<speed>6.450000</speed>
</trkpt>
<trkpt lat="56.017288" lon="26.456594">
<ele>98.262756</ele>
<time>2010-06-20T10:00:53Z</time>
<desc>lat.=56.017288, lon.=26.456594, Alt.=98.262756m. Speed=23.940001m/h.</desc>
<speed>6.650000</speed>
</trkpt>
<trkpt lat="56.017349" lon="26.456602">
<ele>98.251038</ele>
<time>2010-06-20T10:00:54Z</time>
<desc>lat.=56.017349, lon.=26.456602, Alt.=98.251038m. Speed=23.940001m/h.</desc>
<speed>6.650000</speed>
</trkpt>
<trkpt lat="56.017410" lon="26.456610">
<ele>98.104553</ele>
<time>2010-06-20T10:00:55Z</time>
<desc>lat.=56.017410, lon.=26.456610, Alt.=98.104553m. Speed=23.903999m/h.</desc>
<speed>6.640000</speed>
</trkpt>
<trkpt lat="56.017471" lon="26.456612">
<ele>97.971741</ele>
<time>2010-06-20T10:00:56Z</time>
<desc>lat.=56.017471, lon.=26.456612, Alt.=97.971741m. Speed=24.228001m/h.</desc>
<speed>6.730000</speed>
</trkpt>
<trkpt lat="56.017532" lon="26.456614">
<ele>97.659241</ele>
<time>2010-06-20T10:00:57Z</time>
<desc>lat.=56.017532, lon.=26.456614, Alt.=97.659241m. Speed=24.732000m/h.</desc>
<speed>6.870000</speed>
</trkpt>
<trkpt lat="56.017593" lon="26.456615">
<ele>97.319397</ele>
<time>2010-06-20T10:00:58Z</time>
<desc>lat.=56.017593, lon.=26.456615, Alt.=97.319397m. Speed=25.308001m/h.</desc>
<speed>7.030000</speed>
</trkpt>
<trkpt lat="56.017654" lon="26.456619">
<ele>96.825256</ele>
<time>2010-06-20T10:00:59Z</time>
<desc>lat.=56.017654, lon.=26.456619, Alt.=96.825256m. Speed=25.920000m/h.</desc>
<speed>7.200000</speed>
</trkpt>
<trkpt lat="56.017723" lon="26.456623">
<ele>96.542053</ele>
<time>2010-06-20T10:01:00Z</time>
<desc>lat.=56.017723, lon.=26.456623, Alt.=96.542053m. Speed=26.639999m/h.</desc>
<speed>7.400000</speed>
</trkpt>
<trkpt lat="56.017788" lon="26.456629">
<ele>96.329163</ele>
<time>2010-06-20T10:01:01Z</time>
<desc>lat.=56.017788, lon.=26.456629, Alt.=96.329163m. Speed=26.892000m/h.</desc>
<speed>7.470000</speed>
</trkpt>
<trkpt lat="56.017857" lon="26.456633">
<ele>96.104553</ele>
<time>2010-06-20T10:01:02Z</time>
<desc>lat.=56.017857, lon.=26.456633, Alt.=96.104553m. Speed=27.396000m/h.</desc>
<speed>7.610000</speed>
</trkpt>
<trkpt lat="56.017925" lon="26.456633">
<ele>95.770569</ele>
<time>2010-06-20T10:01:03Z</time>
<desc>lat.=56.017925, lon.=26.456633, Alt.=95.770569m. Speed=27.180000m/h.</desc>
<speed>7.550000</speed>
</trkpt>
<trkpt lat="56.017994" lon="26.456633">
<ele>95.610413</ele>
<time>2010-06-20T10:01:04Z</time>
<desc>lat.=56.017994, lon.=26.456633, Alt.=95.610413m. Speed=27.143999m/h.</desc>
<speed>7.540000</speed>
</trkpt>
<trkpt lat="56.018063" lon="26.456633">
<ele>95.456116</ele>
<time>2010-06-20T10:01:05Z</time>
<desc>lat.=56.018063, lon.=26.456633, Alt.=95.456116m. Speed=27.180000m/h.</desc>
<speed>7.550000</speed>
</trkpt>
<trkpt lat="56.018127" lon="26.456640">
<ele>95.294006</ele>
<time>2010-06-20T10:01:06Z</time>
<desc>lat.=56.018127, lon.=26.456640, Alt.=95.294006m. Speed=26.892000m/h.</desc>
<speed>7.470000</speed>
</trkpt>
<trkpt lat="56.018196" lon="26.456648">
<ele>95.221741</ele>
<time>2010-06-20T10:01:07Z</time>
<desc>lat.=56.018196, lon.=26.456648, Alt.=95.221741m. Speed=26.532000m/h.</desc>
<speed>7.370000</speed>
</trkpt>
<trkpt lat="56.018261" lon="26.456648">
<ele>95.143616</ele>
<time>2010-06-20T10:01:08Z</time>
<desc>lat.=56.018261, lon.=26.456648, Alt.=95.143616m. Speed=25.812000m/h.</desc>
<speed>7.170000</speed>
</trkpt>
<trkpt lat="56.018333" lon="26.456640">
<ele>95.512756</ele>
<time>2010-06-20T10:01:09Z</time>
<desc>lat.=56.018333, lon.=26.456640, Alt.=95.512756m. Speed=28.007999m/h.</desc>
<speed>7.780000</speed>
</trkpt>
<trkpt lat="56.018398" lon="26.456642">
<ele>95.508850</ele>
<time>2010-06-20T10:01:10Z</time>
<desc>lat.=56.018398, lon.=26.456642, Alt.=95.508850m. Speed=24.983999m/h.</desc>
<speed>6.940000</speed>
</trkpt>
<trkpt lat="56.018459" lon="26.456646">
<ele>95.518616</ele>
<time>2010-06-20T10:01:11Z</time>
<desc>lat.=56.018459, lon.=26.456646, Alt.=95.518616m. Speed=23.796000m/h.</desc>
<speed>6.610000</speed>
</trkpt>
<trkpt lat="56.018520" lon="26.456652">
<ele>95.659241</ele>
<time>2010-06-20T10:01:12Z</time>
<desc>lat.=56.018520, lon.=26.456652, Alt.=95.659241m. Speed=25.236000m/h.</desc>
<speed>7.010000</speed>
</trkpt>
<trkpt lat="56.018581" lon="26.456656">
<ele>95.735413</ele>
<time>2010-06-20T10:01:13Z</time>
<desc>lat.=56.018581, lon.=26.456656, Alt.=95.735413m. Speed=23.652000m/h.</desc>
<speed>6.570000</speed>
</trkpt>
<trkpt lat="56.018642" lon="26.456654">
<ele>95.917053</ele>
<time>2010-06-20T10:01:14Z</time>
<desc>lat.=56.018642, lon.=26.456654, Alt.=95.917053m. Speed=23.472000m/h.</desc>
<speed>6.520000</speed>
</trkpt>
<trkpt lat="56.018703" lon="26.456657">
<ele>96.044006</ele>
<time>2010-06-20T10:01:15Z</time>
<desc>lat.=56.018703, lon.=26.456657, Alt.=96.044006m. Speed=25.632000m/h.</desc>
<speed>7.120000</speed>
</trkpt>
<trkpt lat="56.018768" lon="26.456663">
<ele>96.151428</ele>
<time>2010-06-20T10:01:16Z</time>
<desc>lat.=56.018768, lon.=26.456663, Alt.=96.151428m. Speed=25.775999m/h.</desc>
<speed>7.160000</speed>
</trkpt>
<trkpt lat="56.018826" lon="26.456669">
<ele>96.313538</ele>
<time>2010-06-20T10:01:17Z</time>
<desc>lat.=56.018826, lon.=26.456669, Alt.=96.313538m. Speed=26.208000m/h.</desc>
<speed>7.280000</speed>
</trkpt>
<trkpt lat="56.018894" lon="26.456665">
<ele>96.448303</ele>
<time>2010-06-20T10:01:18Z</time>
<desc>lat.=56.018894, lon.=26.456665, Alt.=96.448303m. Speed=26.316000m/h.</desc>
<speed>7.310000</speed>
</trkpt>
<trkpt lat="56.018963" lon="26.456667">
<ele>96.344788</ele>
<time>2010-06-20T10:01:19Z</time>
<desc>lat.=56.018963, lon.=26.456667, Alt.=96.344788m. Speed=26.388000m/h.</desc>
<speed>7.330000</speed>
</trkpt>
<trkpt lat="56.019032" lon="26.456669">
<ele>96.549866</ele>
<time>2010-06-20T10:01:20Z</time>
<desc>lat.=56.019032, lon.=26.456669, Alt.=96.549866m. Speed=24.875999m/h.</desc>
<speed>6.910000</speed>
</trkpt>
<trkpt lat="56.019093" lon="26.456676">
<ele>96.504944</ele>
<time>2010-06-20T10:01:21Z</time>
<desc>lat.=56.019093, lon.=26.456676, Alt.=96.504944m. Speed=23.976000m/h.</desc>
<speed>6.660000</speed>
</trkpt>
<trkpt lat="56.019157" lon="26.456686">
<ele>97.178772</ele>
<time>2010-06-20T10:01:22Z</time>
<desc>lat.=56.019157, lon.=26.456686, Alt.=97.178772m. Speed=23.256001m/h.</desc>
<speed>6.460000</speed>
</trkpt>
<trkpt lat="56.019215" lon="26.456694">
<ele>97.159241</ele>
<time>2010-06-20T10:01:23Z</time>
<desc>lat.=56.019215, lon.=26.456694, Alt.=97.159241m. Speed=22.356001m/h.</desc>
<speed>6.210000</speed>
</trkpt>
<trkpt lat="56.019268" lon="26.456703">
<ele>97.151428</ele>
<time>2010-06-20T10:01:24Z</time>
<desc>lat.=56.019268, lon.=26.456703, Alt.=97.151428m. Speed=21.851999m/h.</desc>
<speed>6.070000</speed>
</trkpt>
<trkpt lat="56.019329" lon="26.456697">
<ele>96.948303</ele>
<time>2010-06-20T10:01:25Z</time>
<desc>lat.=56.019329, lon.=26.456697, Alt.=96.948303m. Speed=22.032000m/h.</desc>
<speed>6.120000</speed>
</trkpt>
<trkpt lat="56.019382" lon="26.456694">
<ele>96.485413</ele>
<time>2010-06-20T10:01:26Z</time>
<desc>lat.=56.019382, lon.=26.456694, Alt.=96.485413m. Speed=21.204000m/h.</desc>
<speed>5.890000</speed>
</trkpt>
<trkpt lat="56.019432" lon="26.456694">
<ele>96.239319</ele>
<time>2010-06-20T10:01:27Z</time>
<desc>lat.=56.019432, lon.=26.456694, Alt.=96.239319m. Speed=20.808001m/h.</desc>
<speed>5.780000</speed>
</trkpt>
<trkpt lat="56.019485" lon="26.456701">
<ele>96.323303</ele>
<time>2010-06-20T10:01:28Z</time>
<desc>lat.=56.019485, lon.=26.456701, Alt.=96.323303m. Speed=20.520000m/h.</desc>
<speed>5.700000</speed>
</trkpt>
<trkpt lat="56.019535" lon="26.456701">
<ele>96.292053</ele>
<time>2010-06-20T10:01:29Z</time>
<desc>lat.=56.019535, lon.=26.456701, Alt.=96.292053m. Speed=20.016001m/h.</desc>
<speed>5.560000</speed>
</trkpt>
<trkpt lat="56.019585" lon="26.456701">
<ele>96.208069</ele>
<time>2010-06-20T10:01:30Z</time>
<desc>lat.=56.019585, lon.=26.456701, Alt.=96.208069m. Speed=19.296000m/h.</desc>
<speed>5.360000</speed>
</trkpt>
<trkpt lat="56.019627" lon="26.456705">
<ele>96.065491</ele>
<time>2010-06-20T10:01:31Z</time>
<desc>lat.=56.019627, lon.=26.456705, Alt.=96.065491m. Speed=18.143999m/h.</desc>
<speed>5.040000</speed>
</trkpt>
<trkpt lat="56.019672" lon="26.456709">
<ele>95.991272</ele>
<time>2010-06-20T10:01:32Z</time>
<desc>lat.=56.019672, lon.=26.456709, Alt.=95.991272m. Speed=18.468000m/h.</desc>
<speed>5.130000</speed>
</trkpt>
<trkpt lat="56.019718" lon="26.456709">
<ele>95.961975</ele>
<time>2010-06-20T10:01:33Z</time>
<desc>lat.=56.019718, lon.=26.456709, Alt.=95.961975m. Speed=18.323999m/h.</desc>
<speed>5.090000</speed>
</trkpt>
<trkpt lat="56.019764" lon="26.456709">
<ele>95.786194</ele>
<time>2010-06-20T10:01:34Z</time>
<desc>lat.=56.019764, lon.=26.456709, Alt.=95.786194m. Speed=18.143999m/h.</desc>
<speed>5.040000</speed>
</trkpt>
<trkpt lat="56.019806" lon="26.456720">
<ele>96.409241</ele>
<time>2010-06-20T10:01:35Z</time>
<desc>lat.=56.019806, lon.=26.456720, Alt.=96.409241m. Speed=18.756001m/h.</desc>
<speed>5.210000</speed>
</trkpt>
<trkpt lat="56.019852" lon="26.456722">
<ele>96.002991</ele>
<time>2010-06-20T10:01:36Z</time>
<desc>lat.=56.019852, lon.=26.456722, Alt.=96.002991m. Speed=18.576000m/h.</desc>
<speed>5.160000</speed>
</trkpt>
<trkpt lat="56.019894" lon="26.456724">
<ele>96.210022</ele>
<time>2010-06-20T10:01:37Z</time>
<desc>lat.=56.019894, lon.=26.456724, Alt.=96.210022m. Speed=19.044001m/h.</desc>
<speed>5.290000</speed>
</trkpt>
<trkpt lat="56.019943" lon="26.456730">
<ele>96.467834</ele>
<time>2010-06-20T10:01:38Z</time>
<desc>lat.=56.019943, lon.=26.456730, Alt.=96.467834m. Speed=19.260000m/h.</desc>
<speed>5.350000</speed>
</trkpt>
<trkpt lat="56.019989" lon="26.456730">
<ele>96.885803</ele>
<time>2010-06-20T10:01:39Z</time>
<desc>lat.=56.019989, lon.=26.456730, Alt.=96.885803m. Speed=19.296000m/h.</desc>
<speed>5.360000</speed>
</trkpt>
<trkpt lat="56.020039" lon="26.456736">
<ele>97.278381</ele>
<time>2010-06-20T10:01:40Z</time>
<desc>lat.=56.020039, lon.=26.456736, Alt.=97.278381m. Speed=18.035999m/h.</desc>
<speed>5.010000</speed>
</trkpt>
<trkpt lat="56.020081" lon="26.456741">
<ele>97.807678</ele>
<time>2010-06-20T10:01:41Z</time>
<desc>lat.=56.020081, lon.=26.456741, Alt.=97.807678m. Speed=17.964001m/h.</desc>
<speed>4.990000</speed>
</trkpt>
<trkpt lat="56.020123" lon="26.456743">
<ele>98.223694</ele>
<time>2010-06-20T10:01:42Z</time>
<desc>lat.=56.020123, lon.=26.456743, Alt.=98.223694m. Speed=17.100000m/h.</desc>
<speed>4.750000</speed>
</trkpt>
<trkpt lat="56.020164" lon="26.456741">
<ele>98.702209</ele>
<time>2010-06-20T10:01:43Z</time>
<desc>lat.=56.020164, lon.=26.456741, Alt.=98.702209m. Speed=17.028000m/h.</desc>
<speed>4.730000</speed>
</trkpt>
<trkpt lat="56.020214" lon="26.456739">
<ele>98.973694</ele>
<time>2010-06-20T10:01:44Z</time>
<desc>lat.=56.020214, lon.=26.456739, Alt.=98.973694m. Speed=18.827999m/h.</desc>
<speed>5.230000</speed>
</trkpt>
<trkpt lat="56.020267" lon="26.456730">
<ele>99.399475</ele>
<time>2010-06-20T10:01:45Z</time>
<desc>lat.=56.020267, lon.=26.456730, Alt.=99.399475m. Speed=19.728001m/h.</desc>
<speed>5.480000</speed>
</trkpt>
<trkpt lat="56.020321" lon="26.456738">
<ele>99.758850</ele>
<time>2010-06-20T10:01:46Z</time>
<desc>lat.=56.020321, lon.=26.456738, Alt.=99.758850m. Speed=21.167999m/h.</desc>
<speed>5.880000</speed>
</trkpt>
<trkpt lat="56.020370" lon="26.456741">
<ele>99.854553</ele>
<time>2010-06-20T10:01:47Z</time>
<desc>lat.=56.020370, lon.=26.456741, Alt.=99.854553m. Speed=18.288000m/h.</desc>
<speed>5.080000</speed>
</trkpt>
<trkpt lat="56.020412" lon="26.456739">
<ele>99.491272</ele>
<time>2010-06-20T10:01:48Z</time>
<desc>lat.=56.020412, lon.=26.456739, Alt.=99.491272m. Speed=17.351999m/h.</desc>
<speed>4.820000</speed>
</trkpt>
<trkpt lat="56.020451" lon="26.456738">
<ele>99.194397</ele>
<time>2010-06-20T10:01:49Z</time>
<desc>lat.=56.020451, lon.=26.456738, Alt.=99.194397m. Speed=17.424000m/h.</desc>
<speed>4.840000</speed>
</trkpt>
<trkpt lat="56.020496" lon="26.456738">
<ele>99.170959</ele>
<time>2010-06-20T10:01:50Z</time>
<desc>lat.=56.020496, lon.=26.456738, Alt.=99.170959m. Speed=17.136000m/h.</desc>
<speed>4.760000</speed>
</trkpt>
<trkpt lat="56.020542" lon="26.456739">
<ele>98.217834</ele>
<time>2010-06-20T10:01:51Z</time>
<desc>lat.=56.020542, lon.=26.456739, Alt.=98.217834m. Speed=20.483999m/h.</desc>
<speed>5.690000</speed>
</trkpt>
<trkpt lat="56.020592" lon="26.456747">
<ele>98.342834</ele>
<time>2010-06-20T10:01:52Z</time>
<desc>lat.=56.020592, lon.=26.456747, Alt.=98.342834m. Speed=19.188000m/h.</desc>
<speed>5.330000</speed>
</trkpt>
<trkpt lat="56.020641" lon="26.456747">
<ele>98.155334</ele>
<time>2010-06-20T10:01:53Z</time>
<desc>lat.=56.020641, lon.=26.456747, Alt.=98.155334m. Speed=18.143999m/h.</desc>
<speed>5.040000</speed>
</trkpt>
<trkpt lat="56.020687" lon="26.456747">
<ele>97.639709</ele>
<time>2010-06-20T10:01:54Z</time>
<desc>lat.=56.020687, lon.=26.456747, Alt.=97.639709m. Speed=17.712000m/h.</desc>
<speed>4.920000</speed>
</trkpt>
<trkpt lat="56.020733" lon="26.456749">
<ele>97.528381</ele>
<time>2010-06-20T10:01:55Z</time>
<desc>lat.=56.020733, lon.=26.456749, Alt.=97.528381m. Speed=18.035999m/h.</desc>
<speed>5.010000</speed>
</trkpt>
<trkpt lat="56.020779" lon="26.456751">
<ele>96.877991</ele>
<time>2010-06-20T10:01:56Z</time>
<desc>lat.=56.020779, lon.=26.456751, Alt.=96.877991m. Speed=18.252001m/h.</desc>
<speed>5.070000</speed>
</trkpt>
<trkpt lat="56.020828" lon="26.456755">
<ele>97.612366</ele>
<time>2010-06-20T10:01:57Z</time>
<desc>lat.=56.020828, lon.=26.456755, Alt.=97.612366m. Speed=18.000000m/h.</desc>
<speed>5.000000</speed>
</trkpt>
<trkpt lat="56.020874" lon="26.456758">
<ele>98.083069</ele>
<time>2010-06-20T10:01:58Z</time>
<desc>lat.=56.020874, lon.=26.456758, Alt.=98.083069m. Speed=18.072001m/h.</desc>
<speed>5.020000</speed>
</trkpt>
<trkpt lat="56.020924" lon="26.456766">
<ele>98.663147</ele>
<time>2010-06-20T10:01:59Z</time>
<desc>lat.=56.020924, lon.=26.456766, Alt.=98.663147m. Speed=17.604000m/h.</desc>
<speed>4.890000</speed>
</trkpt>
<trkpt lat="56.020962" lon="26.456770">
<ele>98.885803</ele>
<time>2010-06-20T10:02:00Z</time>
<desc>lat.=56.020962, lon.=26.456770, Alt.=98.885803m. Speed=17.459999m/h.</desc>
<speed>4.850000</speed>
</trkpt>
<trkpt lat="56.021004" lon="26.456778">
<ele>98.586975</ele>
<time>2010-06-20T10:02:01Z</time>
<desc>lat.=56.021004, lon.=26.456778, Alt.=98.586975m. Speed=17.100000m/h.</desc>
<speed>4.750000</speed>
</trkpt>
<trkpt lat="56.021042" lon="26.456783">
<ele>98.407288</ele>
<time>2010-06-20T10:02:02Z</time>
<desc>lat.=56.021042, lon.=26.456783, Alt.=98.407288m. Speed=16.667999m/h.</desc>
<speed>4.630000</speed>
</trkpt>
<trkpt lat="56.021084" lon="26.456787">
<ele>98.292053</ele>
<time>2010-06-20T10:02:03Z</time>
<desc>lat.=56.021084, lon.=26.456787, Alt.=98.292053m. Speed=16.379999m/h.</desc>
<speed>4.550000</speed>
</trkpt>
<trkpt lat="56.021122" lon="26.456797">
<ele>98.249084</ele>
<time>2010-06-20T10:02:04Z</time>
<desc>lat.=56.021122, lon.=26.456797, Alt.=98.249084m. Speed=16.488001m/h.</desc>
<speed>4.580000</speed>
</trkpt>
<trkpt lat="56.021164" lon="26.456810">
<ele>98.272522</ele>
<time>2010-06-20T10:02:05Z</time>
<desc>lat.=56.021164, lon.=26.456810, Alt.=98.272522m. Speed=16.056000m/h.</desc>
<speed>4.460000</speed>
</trkpt>
<trkpt lat="56.021206" lon="26.456820">
<ele>98.491272</ele>
<time>2010-06-20T10:02:06Z</time>
<desc>lat.=56.021206, lon.=26.456820, Alt.=98.491272m. Speed=16.848000m/h.</desc>
<speed>4.680000</speed>
</trkpt>
<trkpt lat="56.021248" lon="26.456827">
<ele>98.805725</ele>
<time>2010-06-20T10:02:07Z</time>
<desc>lat.=56.021248, lon.=26.456827, Alt.=98.805725m. Speed=17.459999m/h.</desc>
<speed>4.850000</speed>
</trkpt>
<trkpt lat="56.021290" lon="26.456837">
<ele>99.034241</ele>
<time>2010-06-20T10:02:08Z</time>
<desc>lat.=56.021290, lon.=26.456837, Alt.=99.034241m. Speed=15.912000m/h.</desc>
<speed>4.420000</speed>
</trkpt>
<trkpt lat="56.021336" lon="26.456842">
<ele>99.489319</ele>
<time>2010-06-20T10:02:09Z</time>
<desc>lat.=56.021336, lon.=26.456842, Alt.=99.489319m. Speed=18.143999m/h.</desc>
<speed>5.040000</speed>
</trkpt>
<trkpt lat="56.021381" lon="26.456856">
<ele>99.655334</ele>
<time>2010-06-20T10:02:10Z</time>
<desc>lat.=56.021381, lon.=26.456856, Alt.=99.655334m. Speed=17.639999m/h.</desc>
<speed>4.900000</speed>
</trkpt>
<trkpt lat="56.021423" lon="26.456875">
<ele>99.682678</ele>
<time>2010-06-20T10:02:11Z</time>
<desc>lat.=56.021423, lon.=26.456875, Alt.=99.682678m. Speed=18.288000m/h.</desc>
<speed>5.080000</speed>
</trkpt>
<trkpt lat="56.021469" lon="26.456888">
<ele>99.715881</ele>
<time>2010-06-20T10:02:12Z</time>
<desc>lat.=56.021469, lon.=26.456888, Alt.=99.715881m. Speed=17.604000m/h.</desc>
<speed>4.890000</speed>
</trkpt>
<trkpt lat="56.021519" lon="26.456905">
<ele>99.926819</ele>
<time>2010-06-20T10:02:13Z</time>
<desc>lat.=56.021519, lon.=26.456905, Alt.=99.926819m. Speed=18.684000m/h.</desc>
<speed>5.190000</speed>
</trkpt>
<trkpt lat="56.021564" lon="26.456924">
<ele>99.917053</ele>
<time>2010-06-20T10:02:14Z</time>
<desc>lat.=56.021564, lon.=26.456924, Alt.=99.917053m. Speed=17.172001m/h.</desc>
<speed>4.770000</speed>
</trkpt>
<trkpt lat="56.021606" lon="26.456944">
<ele>99.919006</ele>
<time>2010-06-20T10:02:15Z</time>
<desc>lat.=56.021606, lon.=26.456944, Alt.=99.919006m. Speed=16.992001m/h.</desc>
<speed>4.720000</speed>
</trkpt>
<trkpt lat="56.021648" lon="26.456959">
<ele>99.815491</ele>
<time>2010-06-20T10:02:16Z</time>
<desc>lat.=56.021648, lon.=26.456959, Alt.=99.815491m. Speed=16.775999m/h.</desc>
<speed>4.660000</speed>
</trkpt>
<trkpt lat="56.021690" lon="26.456966">
<ele>99.649475</ele>
<time>2010-06-20T10:02:17Z</time>
<desc>lat.=56.021690, lon.=26.456966, Alt.=99.649475m. Speed=16.920000m/h.</desc>
<speed>4.700000</speed>
</trkpt>
<trkpt lat="56.021732" lon="26.456972">
<ele>99.592834</ele>
<time>2010-06-20T10:02:18Z</time>
<desc>lat.=56.021732, lon.=26.456972, Alt.=99.592834m. Speed=17.604000m/h.</desc>
<speed>4.890000</speed>
</trkpt>
<trkpt lat="56.021778" lon="26.456993">
<ele>99.307678</ele>
<time>2010-06-20T10:02:19Z</time>
<desc>lat.=56.021778, lon.=26.456993, Alt.=99.307678m. Speed=17.964001m/h.</desc>
<speed>4.990000</speed>
</trkpt>
<trkpt lat="56.021820" lon="26.457010">
<ele>98.866272</ele>
<time>2010-06-20T10:02:20Z</time>
<desc>lat.=56.021820, lon.=26.457010, Alt.=98.866272m. Speed=17.351999m/h.</desc>
<speed>4.820000</speed>
</trkpt>
<trkpt lat="56.021858" lon="26.457027">
<ele>98.249084</ele>
<time>2010-06-20T10:02:21Z</time>
<desc>lat.=56.021858, lon.=26.457027, Alt.=98.249084m. Speed=16.884001m/h.</desc>
<speed>4.690000</speed>
</trkpt>
<trkpt lat="56.021900" lon="26.457047">
<ele>97.858459</ele>
<time>2010-06-20T10:02:22Z</time>
<desc>lat.=56.021900, lon.=26.457047, Alt.=97.858459m. Speed=17.892000m/h.</desc>
<speed>4.970000</speed>
</trkpt>
<trkpt lat="56.021942" lon="26.457071">
<ele>97.487366</ele>
<time>2010-06-20T10:02:23Z</time>
<desc>lat.=56.021942, lon.=26.457071, Alt.=97.487366m. Speed=17.856001m/h.</desc>
<speed>4.960000</speed>
</trkpt>
<trkpt lat="56.021992" lon="26.457100">
<ele>97.561584</ele>
<time>2010-06-20T10:02:24Z</time>
<desc>lat.=56.021992, lon.=26.457100, Alt.=97.561584m. Speed=18.323999m/h.</desc>
<speed>5.090000</speed>
</trkpt>
<trkpt lat="56.022034" lon="26.457123">
<ele>97.161194</ele>
<time>2010-06-20T10:02:25Z</time>
<desc>lat.=56.022034, lon.=26.457123, Alt.=97.161194m. Speed=17.208000m/h.</desc>
<speed>4.780000</speed>
</trkpt>
<trkpt lat="56.022079" lon="26.457140">
<ele>95.961975</ele>
<time>2010-06-20T10:02:26Z</time>
<desc>lat.=56.022079, lon.=26.457140, Alt.=95.961975m. Speed=17.639999m/h.</desc>
<speed>4.900000</speed>
</trkpt>
<trkpt lat="56.022129" lon="26.457161">
<ele>95.436584</ele>
<time>2010-06-20T10:02:27Z</time>
<desc>lat.=56.022129, lon.=26.457161, Alt.=95.436584m. Speed=18.756001m/h.</desc>
<speed>5.210000</speed>
</trkpt>
<trkpt lat="56.022179" lon="26.457191">
<ele>95.147522</ele>
<time>2010-06-20T10:02:28Z</time>
<desc>lat.=56.022179, lon.=26.457191, Alt.=95.147522m. Speed=20.268000m/h.</desc>
<speed>5.630000</speed>
</trkpt>
<trkpt lat="56.022232" lon="26.457218">
<ele>95.583069</ele>
<time>2010-06-20T10:02:29Z</time>
<desc>lat.=56.022232, lon.=26.457218, Alt.=95.583069m. Speed=20.375999m/h.</desc>
<speed>5.660000</speed>
</trkpt>
<trkpt lat="56.022285" lon="26.457260">
<ele>95.620178</ele>
<time>2010-06-20T10:02:30Z</time>
<desc>lat.=56.022285, lon.=26.457260, Alt.=95.620178m. Speed=21.312000m/h.</desc>
<speed>5.920000</speed>
</trkpt>
<trkpt lat="56.022339" lon="26.457289">
<ele>95.948303</ele>
<time>2010-06-20T10:02:31Z</time>
<desc>lat.=56.022339, lon.=26.457289, Alt.=95.948303m. Speed=20.879999m/h.</desc>
<speed>5.800000</speed>
</trkpt>
<trkpt lat="56.022392" lon="26.457321">
<ele>95.655334</ele>
<time>2010-06-20T10:02:32Z</time>
<desc>lat.=56.022392, lon.=26.457321, Alt.=95.655334m. Speed=21.600000m/h.</desc>
<speed>6.000000</speed>
</trkpt>
<trkpt lat="56.022449" lon="26.457350">
<ele>96.366272</ele>
<time>2010-06-20T10:02:33Z</time>
<desc>lat.=56.022449, lon.=26.457350, Alt.=96.366272m. Speed=21.672001m/h.</desc>
<speed>6.020000</speed>
</trkpt>
<trkpt lat="56.022507" lon="26.457382">
<ele>96.387756</ele>
<time>2010-06-20T10:02:34Z</time>
<desc>lat.=56.022507, lon.=26.457382, Alt.=96.387756m. Speed=21.600000m/h.</desc>
<speed>6.000000</speed>
</trkpt>
<trkpt lat="56.022556" lon="26.457418">
<ele>96.219788</ele>
<time>2010-06-20T10:02:35Z</time>
<desc>lat.=56.022556, lon.=26.457418, Alt.=96.219788m. Speed=21.672001m/h.</desc>
<speed>6.020000</speed>
</trkpt>
<trkpt lat="56.022610" lon="26.457453">
<ele>95.788147</ele>
<time>2010-06-20T10:02:36Z</time>
<desc>lat.=56.022610, lon.=26.457453, Alt.=95.788147m. Speed=21.492001m/h.</desc>
<speed>5.970000</speed>
</trkpt>
<trkpt lat="56.022663" lon="26.457485">
<ele>95.487366</ele>
<time>2010-06-20T10:02:37Z</time>
<desc>lat.=56.022663, lon.=26.457485, Alt.=95.487366m. Speed=21.816000m/h.</desc>
<speed>6.060000</speed>
</trkpt>
<trkpt lat="56.022713" lon="26.457521">
<ele>95.225647</ele>
<time>2010-06-20T10:02:38Z</time>
<desc>lat.=56.022713, lon.=26.457521, Alt.=95.225647m. Speed=21.708000m/h.</desc>
<speed>6.030000</speed>
</trkpt>
<trkpt lat="56.022770" lon="26.457542">
<ele>95.731506</ele>
<time>2010-06-20T10:02:39Z</time>
<desc>lat.=56.022770, lon.=26.457542, Alt.=95.731506m. Speed=22.284000m/h.</desc>
<speed>6.190000</speed>
</trkpt>
<trkpt lat="56.022823" lon="26.457575">
<ele>95.815491</ele>
<time>2010-06-20T10:02:40Z</time>
<desc>lat.=56.022823, lon.=26.457575, Alt.=95.815491m. Speed=22.356001m/h.</desc>
<speed>6.210000</speed>
</trkpt>
<trkpt lat="56.022881" lon="26.457611">
<ele>95.797913</ele>
<time>2010-06-20T10:02:41Z</time>
<desc>lat.=56.022881, lon.=26.457611, Alt.=95.797913m. Speed=22.968000m/h.</desc>
<speed>6.380000</speed>
</trkpt>
<trkpt lat="56.022938" lon="26.457661">
<ele>95.608459</ele>
<time>2010-06-20T10:02:42Z</time>
<desc>lat.=56.022938, lon.=26.457661, Alt.=95.608459m. Speed=23.327999m/h.</desc>
<speed>6.480000</speed>
</trkpt>
<trkpt lat="56.022991" lon="26.457697">
<ele>95.526428</ele>
<time>2010-06-20T10:02:43Z</time>
<desc>lat.=56.022991, lon.=26.457697, Alt.=95.526428m. Speed=23.219999m/h.</desc>
<speed>6.450000</speed>
</trkpt>
<trkpt lat="56.023048" lon="26.457731">
<ele>94.877991</ele>
<time>2010-06-20T10:02:44Z</time>
<desc>lat.=56.023048, lon.=26.457731, Alt.=94.877991m. Speed=23.976000m/h.</desc>
<speed>6.660000</speed>
</trkpt>
<trkpt lat="56.023106" lon="26.457773">
<ele>94.905334</ele>
<time>2010-06-20T10:02:45Z</time>
<desc>lat.=56.023106, lon.=26.457773, Alt.=94.905334m. Speed=24.768000m/h.</desc>
<speed>6.880000</speed>
</trkpt>
<trkpt lat="56.023163" lon="26.457819">
<ele>95.002991</ele>
<time>2010-06-20T10:02:46Z</time>
<desc>lat.=56.023163, lon.=26.457819, Alt.=95.002991m. Speed=24.552000m/h.</desc>
<speed>6.820000</speed>
</trkpt>
<trkpt lat="56.023220" lon="26.457865">
<ele>95.014709</ele>
<time>2010-06-20T10:02:47Z</time>
<desc>lat.=56.023220, lon.=26.457865, Alt.=95.014709m. Speed=24.444000m/h.</desc>
<speed>6.790000</speed>
</trkpt>
<trkpt lat="56.023285" lon="26.457922">
<ele>94.856506</ele>
<time>2010-06-20T10:02:48Z</time>
<desc>lat.=56.023285, lon.=26.457922, Alt.=94.856506m. Speed=25.559999m/h.</desc>
<speed>7.100000</speed>
</trkpt>
<trkpt lat="56.023346" lon="26.457970">
<ele>94.641663</ele>
<time>2010-06-20T10:02:49Z</time>
<desc>lat.=56.023346, lon.=26.457970, Alt.=94.641663m. Speed=25.559999m/h.</desc>
<speed>7.100000</speed>
</trkpt>
<trkpt lat="56.023407" lon="26.458017">
<ele>94.864319</ele>
<time>2010-06-20T10:02:50Z</time>
<desc>lat.=56.023407, lon.=26.458017, Alt.=94.864319m. Speed=25.379999m/h.</desc>
<speed>7.050000</speed>
</trkpt>
<trkpt lat="56.023464" lon="26.458065">
<ele>95.002991</ele>
<time>2010-06-20T10:02:51Z</time>
<desc>lat.=56.023464, lon.=26.458065, Alt.=95.002991m. Speed=24.084000m/h.</desc>
<speed>6.690000</speed>
</trkpt>
<trkpt lat="56.023518" lon="26.458103">
<ele>94.917053</ele>
<time>2010-06-20T10:02:52Z</time>
<desc>lat.=56.023518, lon.=26.458103, Alt.=94.917053m. Speed=23.292000m/h.</desc>
<speed>6.470000</speed>
</trkpt>
<trkpt lat="56.023567" lon="26.458149">
<ele>94.737366</ele>
<time>2010-06-20T10:02:53Z</time>
<desc>lat.=56.023567, lon.=26.458149, Alt.=94.737366m. Speed=23.903999m/h.</desc>
<speed>6.640000</speed>
</trkpt>
<trkpt lat="56.023617" lon="26.458193">
<ele>94.504944</ele>
<time>2010-06-20T10:02:54Z</time>
<desc>lat.=56.023617, lon.=26.458193, Alt.=94.504944m. Speed=22.788000m/h.</desc>
<speed>6.330000</speed>
</trkpt>
<trkpt lat="56.023670" lon="26.458231">
<ele>94.436584</ele>
<time>2010-06-20T10:02:55Z</time>
<desc>lat.=56.023670, lon.=26.458231, Alt.=94.436584m. Speed=22.464001m/h.</desc>
<speed>6.240000</speed>
</trkpt>
<trkpt lat="56.023716" lon="26.458282">
<ele>94.752991</ele>
<time>2010-06-20T10:02:56Z</time>
<desc>lat.=56.023716, lon.=26.458282, Alt.=94.752991m. Speed=20.808001m/h.</desc>
<speed>5.780000</speed>
</trkpt>
<trkpt lat="56.023766" lon="26.458332">
<ele>95.114319</ele>
<time>2010-06-20T10:02:57Z</time>
<desc>lat.=56.023766, lon.=26.458332, Alt.=95.114319m. Speed=21.420000m/h.</desc>
<speed>5.950000</speed>
</trkpt>
<trkpt lat="56.023815" lon="26.458378">
<ele>95.180725</ele>
<time>2010-06-20T10:02:58Z</time>
<desc>lat.=56.023815, lon.=26.458378, Alt.=95.180725m. Speed=21.743999m/h.</desc>
<speed>6.040000</speed>
</trkpt>
<trkpt lat="56.023857" lon="26.458426">
<ele>95.331116</ele>
<time>2010-06-20T10:02:59Z</time>
<desc>lat.=56.023857, lon.=26.458426, Alt.=95.331116m. Speed=19.440001m/h.</desc>
<speed>5.400000</speed>
</trkpt>
<trkpt lat="56.023899" lon="26.458475">
<ele>95.590881</ele>
<time>2010-06-20T10:03:00Z</time>
<desc>lat.=56.023899, lon.=26.458475, Alt.=95.590881m. Speed=20.700001m/h.</desc>
<speed>5.750000</speed>
</trkpt>
<trkpt lat="56.023945" lon="26.458521">
<ele>95.665100</ele>
<time>2010-06-20T10:03:01Z</time>
<desc>lat.=56.023945, lon.=26.458521, Alt.=95.665100m. Speed=21.708000m/h.</desc>
<speed>6.030000</speed>
</trkpt>
<trkpt lat="56.023987" lon="26.458565">
<ele>95.672913</ele>
<time>2010-06-20T10:03:02Z</time>
<desc>lat.=56.023987, lon.=26.458565, Alt.=95.672913m. Speed=19.872000m/h.</desc>
<speed>5.520000</speed>
</trkpt>
<trkpt lat="56.024025" lon="26.458603">
<ele>95.794006</ele>
<time>2010-06-20T10:03:03Z</time>
<desc>lat.=56.024025, lon.=26.458603, Alt.=95.794006m. Speed=16.812000m/h.</desc>
<speed>4.670000</speed>
</trkpt>
<trkpt lat="56.024059" lon="26.458643">
<ele>95.856506</ele>
<time>2010-06-20T10:03:04Z</time>
<desc>lat.=56.024059, lon.=26.458643, Alt.=95.856506m. Speed=16.992001m/h.</desc>
<speed>4.720000</speed>
</trkpt>
<trkpt lat="56.024097" lon="26.458687">
<ele>95.946350</ele>
<time>2010-06-20T10:03:05Z</time>
<desc>lat.=56.024097, lon.=26.458687, Alt.=95.946350m. Speed=16.920000m/h.</desc>
<speed>4.700000</speed>
</trkpt>
<trkpt lat="56.024132" lon="26.458727">
<ele>96.458069</ele>
<time>2010-06-20T10:03:06Z</time>
<desc>lat.=56.024132, lon.=26.458727, Alt.=96.458069m. Speed=14.544000m/h.</desc>
<speed>4.040000</speed>
</trkpt>
<trkpt lat="56.024162" lon="26.458754">
<ele>96.551819</ele>
<time>2010-06-20T10:03:07Z</time>
<desc>lat.=56.024162, lon.=26.458754, Alt.=96.551819m. Speed=13.932000m/h.</desc>
<speed>3.870000</speed>
</trkpt>
<trkpt lat="56.024197" lon="26.458790">
<ele>97.241272</ele>
<time>2010-06-20T10:03:08Z</time>
<desc>lat.=56.024197, lon.=26.458790, Alt.=97.241272m. Speed=14.688000m/h.</desc>
<speed>4.080000</speed>
</trkpt>
<trkpt lat="56.024227" lon="26.458818">
<ele>97.004944</ele>
<time>2010-06-20T10:03:09Z</time>
<desc>lat.=56.024227, lon.=26.458818, Alt.=97.004944m. Speed=14.112000m/h.</desc>
<speed>3.920000</speed>
</trkpt>
<trkpt lat="56.024265" lon="26.458826">
<ele>96.254944</ele>
<time>2010-06-20T10:03:10Z</time>
<desc>lat.=56.024265, lon.=26.458826, Alt.=96.254944m. Speed=12.528000m/h.</desc>
<speed>3.480000</speed>
</trkpt>
<trkpt lat="56.024296" lon="26.458839">
<ele>96.510803</ele>
<time>2010-06-20T10:03:11Z</time>
<desc>lat.=56.024296, lon.=26.458839, Alt.=96.510803m. Speed=11.916000m/h.</desc>
<speed>3.310000</speed>
</trkpt>
<trkpt lat="56.024326" lon="26.458860">
<ele>96.643616</ele>
<time>2010-06-20T10:03:12Z</time>
<desc>lat.=56.024326, lon.=26.458860, Alt.=96.643616m. Speed=11.340000m/h.</desc>
<speed>3.150000</speed>
</trkpt>
<trkpt lat="56.024353" lon="26.458876">
<ele>95.624084</ele>
<time>2010-06-20T10:03:13Z</time>
<desc>lat.=56.024353, lon.=26.458876, Alt.=95.624084m. Speed=11.268000m/h.</desc>
<speed>3.130000</speed>
</trkpt>
<trkpt lat="56.024380" lon="26.458899">
<ele>93.987366</ele>
<time>2010-06-20T10:03:14Z</time>
<desc>lat.=56.024380, lon.=26.458899, Alt.=93.987366m. Speed=10.656000m/h.</desc>
<speed>2.960000</speed>
</trkpt>
<trkpt lat="56.024414" lon="26.458927">
<ele>94.655334</ele>
<time>2010-06-20T10:03:15Z</time>
<desc>lat.=56.024414, lon.=26.458927, Alt.=94.655334m. Speed=10.044000m/h.</desc>
<speed>2.790000</speed>
</trkpt>
<trkpt lat="56.024452" lon="26.458946">
<ele>95.178772</ele>
<time>2010-06-20T10:03:16Z</time>
<desc>lat.=56.024452, lon.=26.458946, Alt.=95.178772m. Speed=10.332000m/h.</desc>
<speed>2.870000</speed>
</trkpt>
<trkpt lat="56.024483" lon="26.458977">
<ele>96.170959</ele>
<time>2010-06-20T10:03:17Z</time>
<desc>lat.=56.024483, lon.=26.458977, Alt.=96.170959m. Speed=9.540000m/h.</desc>
<speed>2.650000</speed>
</trkpt>
<trkpt lat="56.024513" lon="26.459002">
<ele>97.549866</ele>
<time>2010-06-20T10:03:18Z</time>
<desc>lat.=56.024513, lon.=26.459002, Alt.=97.549866m. Speed=10.008000m/h.</desc>
<speed>2.780000</speed>
</trkpt>
<trkpt lat="56.024544" lon="26.459023">
<ele>98.954163</ele>
<time>2010-06-20T10:03:19Z</time>
<desc>lat.=56.024544, lon.=26.459023, Alt.=98.954163m. Speed=10.116000m/h.</desc>
<speed>2.810000</speed>
</trkpt>
<trkpt lat="56.024567" lon="26.459030">
<ele>98.690491</ele>
<time>2010-06-20T10:03:20Z</time>
<desc>lat.=56.024567, lon.=26.459030, Alt.=98.690491m. Speed=9.396000m/h.</desc>
<speed>2.610000</speed>
</trkpt>
<trkpt lat="56.024593" lon="26.459042">
<ele>97.842834</ele>
<time>2010-06-20T10:03:21Z</time>
<desc>lat.=56.024593, lon.=26.459042, Alt.=97.842834m. Speed=11.124000m/h.</desc>
<speed>3.090000</speed>
</trkpt>
<trkpt lat="56.024632" lon="26.459055">
<ele>99.788147</ele>
<time>2010-06-20T10:03:22Z</time>
<desc>lat.=56.024632, lon.=26.459055, Alt.=99.788147m. Speed=12.276000m/h.</desc>
<speed>3.410000</speed>
</trkpt>
<trkpt lat="56.024662" lon="26.459076">
<ele>100.450256</ele>
<time>2010-06-20T10:03:23Z</time>
<desc>lat.=56.024662, lon.=26.459076, Alt.=100.450256m. Speed=13.248000m/h.</desc>
<speed>3.680000</speed>
</trkpt>
<trkpt lat="56.024700" lon="26.459103">
<ele>100.354553</ele>
<time>2010-06-20T10:03:24Z</time>
<desc>lat.=56.024700, lon.=26.459103, Alt.=100.354553m. Speed=14.004000m/h.</desc>
<speed>3.890000</speed>
</trkpt>
<trkpt lat="56.024731" lon="26.459133">
<ele>99.971741</ele>
<time>2010-06-20T10:03:25Z</time>
<desc>lat.=56.024731, lon.=26.459133, Alt.=99.971741m. Speed=13.464000m/h.</desc>
<speed>3.740000</speed>
</trkpt>
<trkpt lat="56.024761" lon="26.459171">
<ele>99.967834</ele>
<time>2010-06-20T10:03:26Z</time>
<desc>lat.=56.024761, lon.=26.459171, Alt.=99.967834m. Speed=13.752000m/h.</desc>
<speed>3.820000</speed>
</trkpt>
<trkpt lat="56.024792" lon="26.459206">
<ele>99.604553</ele>
<time>2010-06-20T10:03:27Z</time>
<desc>lat.=56.024792, lon.=26.459206, Alt.=99.604553m. Speed=14.652000m/h.</desc>
<speed>4.070000</speed>
</trkpt>
<trkpt lat="56.024826" lon="26.459229">
<ele>99.475647</ele>
<time>2010-06-20T10:03:28Z</time>
<desc>lat.=56.024826, lon.=26.459229, Alt.=99.475647m. Speed=13.356000m/h.</desc>
<speed>3.710000</speed>
</trkpt>
<trkpt lat="56.024860" lon="26.459261">
<ele>99.448303</ele>
<time>2010-06-20T10:03:29Z</time>
<desc>lat.=56.024860, lon.=26.459261, Alt.=99.448303m. Speed=13.788000m/h.</desc>
<speed>3.830000</speed>
</trkpt>
<trkpt lat="56.024899" lon="26.459297">
<ele>100.719788</ele>
<time>2010-06-20T10:03:30Z</time>
<desc>lat.=56.024899, lon.=26.459297, Alt.=100.719788m. Speed=13.428000m/h.</desc>
<speed>3.730000</speed>
</trkpt>
<trkpt lat="56.024944" lon="26.459322">
<ele>101.817444</ele>
<time>2010-06-20T10:03:31Z</time>
<desc>lat.=56.024944, lon.=26.459322, Alt.=101.817444m. Speed=14.976000m/h.</desc>
<speed>4.160000</speed>
</trkpt>
<trkpt lat="56.024979" lon="26.459352">
<ele>101.920959</ele>
<time>2010-06-20T10:03:32Z</time>
<desc>lat.=56.024979, lon.=26.459352, Alt.=101.920959m. Speed=14.544000m/h.</desc>
<speed>4.040000</speed>
</trkpt>
<trkpt lat="56.025021" lon="26.459377">
<ele>101.973694</ele>
<time>2010-06-20T10:03:33Z</time>
<desc>lat.=56.025021, lon.=26.459377, Alt.=101.973694m. Speed=15.372000m/h.</desc>
<speed>4.270000</speed>
</trkpt>
<trkpt lat="56.025059" lon="26.459410">
<ele>101.831116</ele>
<time>2010-06-20T10:03:34Z</time>
<desc>lat.=56.025059, lon.=26.459410, Alt.=101.831116m. Speed=15.084000m/h.</desc>
<speed>4.190000</speed>
</trkpt>
<trkpt lat="56.025089" lon="26.459442">
<ele>100.708069</ele>
<time>2010-06-20T10:03:35Z</time>
<desc>lat.=56.025089, lon.=26.459442, Alt.=100.708069m. Speed=15.408000m/h.</desc>
<speed>4.280000</speed>
</trkpt>
<trkpt lat="56.025131" lon="26.459480">
<ele>100.233459</ele>
<time>2010-06-20T10:03:36Z</time>
<desc>lat.=56.025131, lon.=26.459480, Alt.=100.233459m. Speed=17.100000m/h.</desc>
<speed>4.750000</speed>
</trkpt>
<trkpt lat="56.025173" lon="26.459505">
<ele>99.465881</ele>
<time>2010-06-20T10:03:37Z</time>
<desc>lat.=56.025173, lon.=26.459505, Alt.=99.465881m. Speed=16.559999m/h.</desc>
<speed>4.600000</speed>
</trkpt>
<trkpt lat="56.025215" lon="26.459538">
<ele>98.956116</ele>
<time>2010-06-20T10:03:38Z</time>
<desc>lat.=56.025215, lon.=26.459538, Alt.=98.956116m. Speed=16.308001m/h.</desc>
<speed>4.530000</speed>
</trkpt>
<trkpt lat="56.025253" lon="26.459578">
<ele>98.719788</ele>
<time>2010-06-20T10:03:39Z</time>
<desc>lat.=56.025253, lon.=26.459578, Alt.=98.719788m. Speed=16.559999m/h.</desc>
<speed>4.600000</speed>
</trkpt>
<trkpt lat="56.025291" lon="26.459610">
<ele>98.264709</ele>
<time>2010-06-20T10:03:40Z</time>
<desc>lat.=56.025291, lon.=26.459610, Alt.=98.264709m. Speed=15.120000m/h.</desc>
<speed>4.200000</speed>
</trkpt>
<trkpt lat="56.025326" lon="26.459639">
<ele>98.340881</ele>
<time>2010-06-20T10:03:41Z</time>
<desc>lat.=56.025326, lon.=26.459639, Alt.=98.340881m. Speed=15.768000m/h.</desc>
<speed>4.380000</speed>
</trkpt>
<trkpt lat="56.025356" lon="26.459661">
<ele>97.917053</ele>
<time>2010-06-20T10:03:42Z</time>
<desc>lat.=56.025356, lon.=26.459661, Alt.=97.917053m. Speed=14.220000m/h.</desc>
<speed>3.950000</speed>
</trkpt>
<trkpt lat="56.025383" lon="26.459688">
<ele>96.741272</ele>
<time>2010-06-20T10:03:43Z</time>
<desc>lat.=56.025383, lon.=26.459688, Alt.=96.741272m. Speed=12.168000m/h.</desc>
<speed>3.380000</speed>
</trkpt>
<trkpt lat="56.025406" lon="26.459705">
<ele>95.831116</ele>
<time>2010-06-20T10:03:44Z</time>
<desc>lat.=56.025406, lon.=26.459705, Alt.=95.831116m. Speed=11.916000m/h.</desc>
<speed>3.310000</speed>
</trkpt>
<trkpt lat="56.025433" lon="26.459721">
<ele>94.737366</ele>
<time>2010-06-20T10:03:45Z</time>
<desc>lat.=56.025433, lon.=26.459721, Alt.=94.737366m. Speed=11.124000m/h.</desc>
<speed>3.090000</speed>
</trkpt>
<trkpt lat="56.025463" lon="26.459721">
<ele>96.030334</ele>
<time>2010-06-20T10:03:46Z</time>
<desc>lat.=56.025463, lon.=26.459721, Alt.=96.030334m. Speed=13.356000m/h.</desc>
<speed>3.710000</speed>
</trkpt>
<trkpt lat="56.025497" lon="26.459738">
<ele>95.647522</ele>
<time>2010-06-20T10:03:47Z</time>
<desc>lat.=56.025497, lon.=26.459738, Alt.=95.647522m. Speed=12.420000m/h.</desc>
<speed>3.450000</speed>
</trkpt>
<trkpt lat="56.025528" lon="26.459755">
<ele>95.460022</ele>
<time>2010-06-20T10:03:48Z</time>
<desc>lat.=56.025528, lon.=26.459755, Alt.=95.460022m. Speed=10.980000m/h.</desc>
<speed>3.050000</speed>
</trkpt>
<trkpt lat="56.025558" lon="26.459778">
<ele>95.799866</ele>
<time>2010-06-20T10:03:49Z</time>
<desc>lat.=56.025558, lon.=26.459778, Alt.=95.799866m. Speed=13.248000m/h.</desc>
<speed>3.680000</speed>
</trkpt>
<trkpt lat="56.025600" lon="26.459806">
<ele>96.196350</ele>
<time>2010-06-20T10:03:50Z</time>
<desc>lat.=56.025600, lon.=26.459806, Alt.=96.196350m. Speed=14.544000m/h.</desc>
<speed>4.040000</speed>
</trkpt>
<trkpt lat="56.025639" lon="26.459845">
<ele>97.215881</ele>
<time>2010-06-20T10:03:51Z</time>
<desc>lat.=56.025639, lon.=26.459845, Alt.=97.215881m. Speed=15.300000m/h.</desc>
<speed>4.250000</speed>
</trkpt>
<trkpt lat="56.025681" lon="26.459879">
<ele>97.508850</ele>
<time>2010-06-20T10:03:52Z</time>
<desc>lat.=56.025681, lon.=26.459879, Alt.=97.508850m. Speed=14.940000m/h.</desc>
<speed>4.150000</speed>
</trkpt>
<trkpt lat="56.025723" lon="26.459908">
<ele>97.559631</ele>
<time>2010-06-20T10:03:53Z</time>
<desc>lat.=56.025723, lon.=26.459908, Alt.=97.559631m. Speed=15.768000m/h.</desc>
<speed>4.380000</speed>
</trkpt>
<trkpt lat="56.025761" lon="26.459927">
<ele>97.842834</ele>
<time>2010-06-20T10:03:54Z</time>
<desc>lat.=56.025761, lon.=26.459927, Alt.=97.842834m. Speed=15.984000m/h.</desc>
<speed>4.440000</speed>
</trkpt>
<trkpt lat="56.025799" lon="26.459963">
<ele>97.317444</ele>
<time>2010-06-20T10:03:55Z</time>
<desc>lat.=56.025799, lon.=26.459963, Alt.=97.317444m. Speed=16.128000m/h.</desc>
<speed>4.480000</speed>
</trkpt>
<trkpt lat="56.025841" lon="26.459991">
<ele>97.710022</ele>
<time>2010-06-20T10:03:56Z</time>
<desc>lat.=56.025841, lon.=26.459991, Alt.=97.710022m. Speed=15.660000m/h.</desc>
<speed>4.350000</speed>
</trkpt>
<trkpt lat="56.025887" lon="26.460014">
<ele>97.778381</ele>
<time>2010-06-20T10:03:57Z</time>
<desc>lat.=56.025887, lon.=26.460014, Alt.=97.778381m. Speed=16.056000m/h.</desc>
<speed>4.460000</speed>
</trkpt>
<trkpt lat="56.025936" lon="26.460043">
<ele>98.965881</ele>
<time>2010-06-20T10:03:58Z</time>
<desc>lat.=56.025936, lon.=26.460043, Alt.=98.965881m. Speed=17.172001m/h.</desc>
<speed>4.770000</speed>
</trkpt>
<trkpt lat="56.025986" lon="26.460077">
<ele>99.295959</ele>
<time>2010-06-20T10:03:59Z</time>
<desc>lat.=56.025986, lon.=26.460077, Alt.=99.295959m. Speed=18.827999m/h.</desc>
<speed>5.230000</speed>
</trkpt>
<trkpt lat="56.026028" lon="26.460110">
<ele>99.149475</ele>
<time>2010-06-20T10:04:00Z</time>
<desc>lat.=56.026028, lon.=26.460110, Alt.=99.149475m. Speed=18.900000m/h.</desc>
<speed>5.250000</speed>
</trkpt>
<trkpt lat="56.026073" lon="26.460159">
<ele>97.100647</ele>
<time>2010-06-20T10:04:01Z</time>
<desc>lat.=56.026073, lon.=26.460159, Alt.=97.100647m. Speed=19.296000m/h.</desc>
<speed>5.360000</speed>
</trkpt>
<trkpt lat="56.026119" lon="26.460199">
<ele>97.077209</ele>
<time>2010-06-20T10:04:02Z</time>
<desc>lat.=56.026119, lon.=26.460199, Alt.=97.077209m. Speed=19.080000m/h.</desc>
<speed>5.300000</speed>
</trkpt>
<trkpt lat="56.026165" lon="26.460239">
<ele>97.211975</ele>
<time>2010-06-20T10:04:03Z</time>
<desc>lat.=56.026165, lon.=26.460239, Alt.=97.211975m. Speed=19.368000m/h.</desc>
<speed>5.380000</speed>
</trkpt>
<trkpt lat="56.026207" lon="26.460274">
<ele>96.711975</ele>
<time>2010-06-20T10:04:04Z</time>
<desc>lat.=56.026207, lon.=26.460274, Alt.=96.711975m. Speed=18.827999m/h.</desc>
<speed>5.230000</speed>
</trkpt>
<trkpt lat="56.026249" lon="26.460304">
<ele>96.413147</ele>
<time>2010-06-20T10:04:05Z</time>
<desc>lat.=56.026249, lon.=26.460304, Alt.=96.413147m. Speed=17.459999m/h.</desc>
<speed>4.850000</speed>
</trkpt>
<trkpt lat="56.026291" lon="26.460333">
<ele>96.227600</ele>
<time>2010-06-20T10:04:06Z</time>
<desc>lat.=56.026291, lon.=26.460333, Alt.=96.227600m. Speed=15.696000m/h.</desc>
<speed>4.360000</speed>
</trkpt>
<trkpt lat="56.026333" lon="26.460375">
<ele>96.682678</ele>
<time>2010-06-20T10:04:07Z</time>
<desc>lat.=56.026333, lon.=26.460375, Alt.=96.682678m. Speed=17.784000m/h.</desc>
<speed>4.940000</speed>
</trkpt>
<trkpt lat="56.026382" lon="26.460407">
<ele>96.979553</ele>
<time>2010-06-20T10:04:08Z</time>
<desc>lat.=56.026382, lon.=26.460407, Alt.=96.979553m. Speed=17.964001m/h.</desc>
<speed>4.990000</speed>
</trkpt>
<trkpt lat="56.026428" lon="26.460430">
<ele>97.444397</ele>
<time>2010-06-20T10:04:09Z</time>
<desc>lat.=56.026428, lon.=26.460430, Alt.=97.444397m. Speed=18.468000m/h.</desc>
<speed>5.130000</speed>
</trkpt>
<trkpt lat="56.026474" lon="26.460461">
<ele>97.424866</ele>
<time>2010-06-20T10:04:10Z</time>
<desc>lat.=56.026474, lon.=26.460461, Alt.=97.424866m. Speed=18.323999m/h.</desc>
<speed>5.090000</speed>
</trkpt>
<trkpt lat="56.026520" lon="26.460495">
<ele>97.344788</ele>
<time>2010-06-20T10:04:11Z</time>
<desc>lat.=56.026520, lon.=26.460495, Alt.=97.344788m. Speed=19.548000m/h.</desc>
<speed>5.430000</speed>
</trkpt>
<trkpt lat="56.026569" lon="26.460539">
<ele>97.702209</ele>
<time>2010-06-20T10:04:12Z</time>
<desc>lat.=56.026569, lon.=26.460539, Alt.=97.702209m. Speed=19.260000m/h.</desc>
<speed>5.350000</speed>
</trkpt>
<trkpt lat="56.026611" lon="26.460577">
<ele>97.944397</ele>
<time>2010-06-20T10:04:13Z</time>
<desc>lat.=56.026611, lon.=26.460577, Alt.=97.944397m. Speed=18.180000m/h.</desc>
<speed>5.050000</speed>
</trkpt>
<trkpt lat="56.026649" lon="26.460606">
<ele>97.819397</ele>
<time>2010-06-20T10:04:14Z</time>
<desc>lat.=56.026649, lon.=26.460606, Alt.=97.819397m. Speed=17.100000m/h.</desc>
<speed>4.750000</speed>
</trkpt>
<trkpt lat="56.026688" lon="26.460638">
<ele>97.803772</ele>
<time>2010-06-20T10:04:15Z</time>
<desc>lat.=56.026688, lon.=26.460638, Alt.=97.803772m. Speed=18.396000m/h.</desc>
<speed>5.110000</speed>
</trkpt>
<trkpt lat="56.026730" lon="26.460674">
<ele>97.817444</ele>
<time>2010-06-20T10:04:16Z</time>
<desc>lat.=56.026730, lon.=26.460674, Alt.=97.817444m. Speed=19.080000m/h.</desc>
<speed>5.300000</speed>
</trkpt>
<trkpt lat="56.026768" lon="26.460699">
<ele>97.854553</ele>
<time>2010-06-20T10:04:17Z</time>
<desc>lat.=56.026768, lon.=26.460699, Alt.=97.854553m. Speed=16.236000m/h.</desc>
<speed>4.510000</speed>
</trkpt>
<trkpt lat="56.026794" lon="26.460711">
<ele>97.856506</ele>
<time>2010-06-20T10:04:18Z</time>
<desc>lat.=56.026794, lon.=26.460711, Alt.=97.856506m. Speed=9.036000m/h.</desc>
<speed>2.510000</speed>
</trkpt>
<trkpt lat="56.026829" lon="26.460732">
<ele>97.821350</ele>
<time>2010-06-20T10:04:19Z</time>
<desc>lat.=56.026829, lon.=26.460732, Alt.=97.821350m. Speed=13.752000m/h.</desc>
<speed>3.820000</speed>
</trkpt>
<trkpt lat="56.026863" lon="26.460749">
<ele>97.661194</ele>
<time>2010-06-20T10:04:20Z</time>
<desc>lat.=56.026863, lon.=26.460749, Alt.=97.661194m. Speed=14.040000m/h.</desc>
<speed>3.900000</speed>
</trkpt>
<trkpt lat="56.026894" lon="26.460768">
<ele>97.776428</ele>
<time>2010-06-20T10:04:21Z</time>
<desc>lat.=56.026894, lon.=26.460768, Alt.=97.776428m. Speed=10.008000m/h.</desc>
<speed>2.780000</speed>
</trkpt>
<trkpt lat="56.026924" lon="26.460789">
<ele>98.006897</ele>
<time>2010-06-20T10:04:22Z</time>
<desc>lat.=56.026924, lon.=26.460789, Alt.=98.006897m. Speed=12.384000m/h.</desc>
<speed>3.440000</speed>
</trkpt>
<trkpt lat="56.026958" lon="26.460810">
<ele>98.430725</ele>
<time>2010-06-20T10:04:23Z</time>
<desc>lat.=56.026958, lon.=26.460810, Alt.=98.430725m. Speed=13.860000m/h.</desc>
<speed>3.850000</speed>
</trkpt>
<trkpt lat="56.027004" lon="26.460836">
<ele>98.696350</ele>
<time>2010-06-20T10:04:24Z</time>
<desc>lat.=56.027004, lon.=26.460836, Alt.=98.696350m. Speed=15.984000m/h.</desc>
<speed>4.440000</speed>
</trkpt>
<trkpt lat="56.027046" lon="26.460857">
<ele>98.868225</ele>
<time>2010-06-20T10:04:25Z</time>
<desc>lat.=56.027046, lon.=26.460857, Alt.=98.868225m. Speed=16.379999m/h.</desc>
<speed>4.550000</speed>
</trkpt>
<trkpt lat="56.027088" lon="26.460886">
<ele>98.682678</ele>
<time>2010-06-20T10:04:26Z</time>
<desc>lat.=56.027088, lon.=26.460886, Alt.=98.682678m. Speed=14.760000m/h.</desc>
<speed>4.100000</speed>
</trkpt>
<trkpt lat="56.027126" lon="26.460924">
<ele>99.040100</ele>
<time>2010-06-20T10:04:27Z</time>
<desc>lat.=56.027126, lon.=26.460924, Alt.=99.040100m. Speed=16.812000m/h.</desc>
<speed>4.670000</speed>
</trkpt>
<trkpt lat="56.027164" lon="26.460960">
<ele>98.963928</ele>
<time>2010-06-20T10:04:28Z</time>
<desc>lat.=56.027164, lon.=26.460960, Alt.=98.963928m. Speed=14.184000m/h.</desc>
<speed>3.940000</speed>
</trkpt>
<trkpt lat="56.027203" lon="26.460989">
<ele>99.126038</ele>
<time>2010-06-20T10:04:29Z</time>
<desc>lat.=56.027203, lon.=26.460989, Alt.=99.126038m. Speed=14.652000m/h.</desc>
<speed>4.070000</speed>
</trkpt>
<trkpt lat="56.027245" lon="26.461016">
<ele>99.395569</ele>
<time>2010-06-20T10:04:30Z</time>
<desc>lat.=56.027245, lon.=26.461016, Alt.=99.395569m. Speed=14.148000m/h.</desc>
<speed>3.930000</speed>
</trkpt>
<trkpt lat="56.027290" lon="26.461052">
<ele>99.813538</ele>
<time>2010-06-20T10:04:31Z</time>
<desc>lat.=56.027290, lon.=26.461052, Alt.=99.813538m. Speed=16.992001m/h.</desc>
<speed>4.720000</speed>
</trkpt>
<trkpt lat="56.027340" lon="26.461081">
<ele>99.723694</ele>
<time>2010-06-20T10:04:32Z</time>
<desc>lat.=56.027340, lon.=26.461081, Alt.=99.723694m. Speed=17.243999m/h.</desc>
<speed>4.790000</speed>
</trkpt>
<trkpt lat="56.027386" lon="26.461103">
<ele>99.428772</ele>
<time>2010-06-20T10:04:33Z</time>
<desc>lat.=56.027386, lon.=26.461103, Alt.=99.428772m. Speed=15.084000m/h.</desc>
<speed>4.190000</speed>
</trkpt>
<trkpt lat="56.027428" lon="26.461121">
<ele>100.006897</ele>
<time>2010-06-20T10:04:34Z</time>
<desc>lat.=56.027428, lon.=26.461121, Alt.=100.006897m. Speed=16.775999m/h.</desc>
<speed>4.660000</speed>
</trkpt>
<trkpt lat="56.027466" lon="26.461151">
<ele>99.795959</ele>
<time>2010-06-20T10:04:35Z</time>
<desc>lat.=56.027466, lon.=26.461151, Alt.=99.795959m. Speed=15.984000m/h.</desc>
<speed>4.440000</speed>
</trkpt>
<trkpt lat="56.027512" lon="26.461195">
<ele>100.245178</ele>
<time>2010-06-20T10:04:36Z</time>
<desc>lat.=56.027512, lon.=26.461195, Alt.=100.245178m. Speed=18.323999m/h.</desc>
<speed>5.090000</speed>
</trkpt>
<trkpt lat="56.027554" lon="26.461229">
<ele>100.188538</ele>
<time>2010-06-20T10:04:37Z</time>
<desc>lat.=56.027554, lon.=26.461229, Alt.=100.188538m. Speed=17.459999m/h.</desc>
<speed>4.850000</speed>
</trkpt>
<trkpt lat="56.027599" lon="26.461256">
<ele>100.030334</ele>
<time>2010-06-20T10:04:38Z</time>
<desc>lat.=56.027599, lon.=26.461256, Alt.=100.030334m. Speed=17.136000m/h.</desc>
<speed>4.760000</speed>
</trkpt>
<trkpt lat="56.027641" lon="26.461288">
<ele>100.141663</ele>
<time>2010-06-20T10:04:39Z</time>
<desc>lat.=56.027641, lon.=26.461288, Alt.=100.141663m. Speed=17.532000m/h.</desc>
<speed>4.870000</speed>
</trkpt>
<trkpt lat="56.027687" lon="26.461309">
<ele>100.198303</ele>
<time>2010-06-20T10:04:40Z</time>
<desc>lat.=56.027687, lon.=26.461309, Alt.=100.198303m. Speed=17.532000m/h.</desc>
<speed>4.870000</speed>
</trkpt>
<trkpt lat="56.027733" lon="26.461342">
<ele>100.260803</ele>
<time>2010-06-20T10:04:41Z</time>
<desc>lat.=56.027733, lon.=26.461342, Alt.=100.260803m. Speed=18.035999m/h.</desc>
<speed>5.010000</speed>
</trkpt>
<trkpt lat="56.027775" lon="26.461369">
<ele>100.604553</ele>
<time>2010-06-20T10:04:42Z</time>
<desc>lat.=56.027775, lon.=26.461369, Alt.=100.604553m. Speed=18.000000m/h.</desc>
<speed>5.000000</speed>
</trkpt>
<trkpt lat="56.027821" lon="26.461407">
<ele>100.794006</ele>
<time>2010-06-20T10:04:43Z</time>
<desc>lat.=56.027821, lon.=26.461407, Alt.=100.794006m. Speed=18.000000m/h.</desc>
<speed>5.000000</speed>
</trkpt>
<trkpt lat="56.027866" lon="26.461441">
<ele>101.112366</ele>
<time>2010-06-20T10:04:44Z</time>
<desc>lat.=56.027866, lon.=26.461441, Alt.=101.112366m. Speed=17.532000m/h.</desc>
<speed>4.870000</speed>
</trkpt>
<trkpt lat="56.027908" lon="26.461489">
<ele>101.063538</ele>
<time>2010-06-20T10:04:45Z</time>
<desc>lat.=56.027908, lon.=26.461489, Alt.=101.063538m. Speed=18.252001m/h.</desc>
<speed>5.070000</speed>
</trkpt>
<trkpt lat="56.027950" lon="26.461576">
<ele>100.973694</ele>
<time>2010-06-20T10:04:46Z</time>
<desc>lat.=56.027950, lon.=26.461576, Alt.=100.973694m. Speed=17.712000m/h.</desc>
<speed>4.920000</speed>
</trkpt>
<trkpt lat="56.027988" lon="26.461626">
<ele>101.102600</ele>
<time>2010-06-20T10:04:47Z</time>
<desc>lat.=56.027988, lon.=26.461626, Alt.=101.102600m. Speed=17.424000m/h.</desc>
<speed>4.840000</speed>
</trkpt>
<trkpt lat="56.028030" lon="26.461670">
<ele>101.352600</ele>
<time>2010-06-20T10:04:48Z</time>
<desc>lat.=56.028030, lon.=26.461670, Alt.=101.352600m. Speed=17.136000m/h.</desc>
<speed>4.760000</speed>
</trkpt>
<trkpt lat="56.028069" lon="26.461700">
<ele>101.561584</ele>
<time>2010-06-20T10:04:49Z</time>
<desc>lat.=56.028069, lon.=26.461700, Alt.=101.561584m. Speed=16.775999m/h.</desc>
<speed>4.660000</speed>
</trkpt>
<trkpt lat="56.028107" lon="26.461733">
<ele>101.973694</ele>
<time>2010-06-20T10:04:50Z</time>
<desc>lat.=56.028107, lon.=26.461733, Alt.=101.973694m. Speed=16.667999m/h.</desc>
<speed>4.630000</speed>
</trkpt>
<trkpt lat="56.028145" lon="26.461763">
<ele>102.565491</ele>
<time>2010-06-20T10:04:51Z</time>
<desc>lat.=56.028145, lon.=26.461763, Alt.=102.565491m. Speed=14.832000m/h.</desc>
<speed>4.120000</speed>
</trkpt>
<trkpt lat="56.028175" lon="26.461790">
<ele>102.567444</ele>
<time>2010-06-20T10:04:52Z</time>
<desc>lat.=56.028175, lon.=26.461790, Alt.=102.567444m. Speed=11.412000m/h.</desc>
<speed>3.170000</speed>
</trkpt>
<trkpt lat="56.028191" lon="26.461811">
<ele>102.102600</ele>
<time>2010-06-20T10:04:53Z</time>
<desc>lat.=56.028191, lon.=26.461811, Alt.=102.102600m. Speed=5.328000m/h.</desc>
<speed>1.480000</speed>
</trkpt>
<trkpt lat="56.028191" lon="26.461832">
<ele>100.879944</ele>
<time>2010-06-20T10:04:54Z</time>
<desc>lat.=56.028191, lon.=26.461832, Alt.=100.879944m. Speed=0.504000m/h.</desc>
<speed>0.140000</speed>
</trkpt>
<trkpt lat="56.028187" lon="26.461840">
<ele>100.069397</ele>
<time>2010-06-20T10:04:55Z</time>
<desc>lat.=56.028187, lon.=26.461840, Alt.=100.069397m. Speed=0.648000m/h.</desc>
<speed>0.180000</speed>
</trkpt>
<trkpt lat="56.028183" lon="26.461843">
<ele>99.583069</ele>
<time>2010-06-20T10:04:56Z</time>
<desc>lat.=56.028183, lon.=26.461843, Alt.=99.583069m. Speed=0.324000m/h.</desc>
<speed>0.090000</speed>
</trkpt>
<trkpt lat="56.028183" lon="26.461847">
<ele>99.639709</ele>
<time>2010-06-20T10:04:57Z</time>
<desc>lat.=56.028183, lon.=26.461847, Alt.=99.639709m. Speed=0.180000m/h.</desc>
<speed>0.050000</speed>
</trkpt>
<trkpt lat="56.028183" lon="26.461847">
<ele>99.618225</ele>
<time>2010-06-20T10:04:58Z</time>
<desc>lat.=56.028183, lon.=26.461847, Alt.=99.618225m. Speed=0.252000m/h.</desc>
<speed>0.070000</speed>
</trkpt>
<trkpt lat="56.028183" lon="26.461847">
<ele>99.608459</ele>
<time>2010-06-20T10:04:59Z</time>
<desc>lat.=56.028183, lon.=26.461847, Alt.=99.608459m. Speed=0.180000m/h.</desc>
<speed>0.050000</speed>
</trkpt>
<trkpt lat="56.028183" lon="26.461849">
<ele>99.588928</ele>
<time>2010-06-20T10:05:00Z</time>
<desc>lat.=56.028183, lon.=26.461849, Alt.=99.588928m. Speed=0.072000m/h.</desc>
<speed>0.020000</speed>
</trkpt>
<trkpt lat="56.028179" lon="26.461849">
<ele>99.565491</ele>
<time>2010-06-20T10:05:01Z</time>
<desc>lat.=56.028179, lon.=26.461849, Alt.=99.565491m. Speed=0.000000m/h.</desc>
<speed>0.000000</speed>
</trkpt>
<trkpt lat="56.028179" lon="26.461849">
<ele>99.545959</ele>
<time>2010-06-20T10:05:02Z</time>
<desc>lat.=56.028179, lon.=26.461849, Alt.=99.545959m. Speed=0.252000m/h.</desc>
<speed>0.070000</speed>
</trkpt>
<trkpt lat="56.028179" lon="26.461849">
<ele>99.530334</ele>
<time>2010-06-20T10:05:03Z</time>
<desc>lat.=56.028179, lon.=26.461849, Alt.=99.530334m. Speed=0.180000m/h.</desc>
<speed>0.050000</speed>
</trkpt>
<trkpt lat="56.028179" lon="26.461849">
<ele>99.516663</ele>
<time>2010-06-20T10:05:04Z</time>
<desc>lat.=56.028179, lon.=26.461849, Alt.=99.516663m. Speed=0.792000m/h.</desc>
<speed>0.220000</speed>
</trkpt>
<trkpt lat="56.028183" lon="26.461851">
<ele>99.502991</ele>
<time>2010-06-20T10:05:05Z</time>
<desc>lat.=56.028183, lon.=26.461851, Alt.=99.502991m. Speed=1.944000m/h.</desc>
<speed>0.540000</speed>
</trkpt>
<trkpt lat="56.028187" lon="26.461851">
<ele>99.493225</ele>
<time>2010-06-20T10:05:06Z</time>
<desc>lat.=56.028187, lon.=26.461851, Alt.=99.493225m. Speed=2.664000m/h.</desc>
<speed>0.740000</speed>
</trkpt>
<trkpt lat="56.028194" lon="26.461851">
<ele>99.481506</ele>
<time>2010-06-20T10:05:07Z</time>
<desc>lat.=56.028194, lon.=26.461851, Alt.=99.481506m. Speed=4.212000m/h.</desc>
<speed>1.170000</speed>
</trkpt>
<trkpt lat="56.028210" lon="26.461863">
<ele>99.284241</ele>
<time>2010-06-20T10:05:08Z</time>
<desc>lat.=56.028210, lon.=26.461863, Alt.=99.284241m. Speed=6.516000m/h.</desc>
<speed>1.810000</speed>
</trkpt>
<trkpt lat="56.028233" lon="26.461887">
<ele>99.471741</ele>
<time>2010-06-20T10:05:09Z</time>
<desc>lat.=56.028233, lon.=26.461887, Alt.=99.471741m. Speed=9.036000m/h.</desc>
<speed>2.510000</speed>
</trkpt>
<trkpt lat="56.028255" lon="26.461905">
<ele>99.897522</ele>
<time>2010-06-20T10:05:10Z</time>
<desc>lat.=56.028255, lon.=26.461905, Alt.=99.897522m. Speed=9.576000m/h.</desc>
<speed>2.660000</speed>
</trkpt>
<trkpt lat="56.028282" lon="26.461918">
<ele>99.708069</ele>
<time>2010-06-20T10:05:11Z</time>
<desc>lat.=56.028282, lon.=26.461918, Alt.=99.708069m. Speed=9.576000m/h.</desc>
<speed>2.660000</speed>
</trkpt>
<trkpt lat="56.028305" lon="26.461935">
<ele>99.905334</ele>
<time>2010-06-20T10:05:12Z</time>
<desc>lat.=56.028305, lon.=26.461935, Alt.=99.905334m. Speed=9.324000m/h.</desc>
<speed>2.590000</speed>
</trkpt>
<trkpt lat="56.028324" lon="26.461960">
<ele>99.657288</ele>
<time>2010-06-20T10:05:13Z</time>
<desc>lat.=56.028324, lon.=26.461960, Alt.=99.657288m. Speed=9.108000m/h.</desc>
<speed>2.530000</speed>
</trkpt>
<trkpt lat="56.028343" lon="26.461996">
<ele>99.891663</ele>
<time>2010-06-20T10:05:14Z</time>
<desc>lat.=56.028343, lon.=26.461996, Alt.=99.891663m. Speed=8.676000m/h.</desc>
<speed>2.410000</speed>
</trkpt>
<trkpt lat="56.028347" lon="26.462034">
<ele>99.350647</ele>
<time>2010-06-20T10:05:15Z</time>
<desc>lat.=56.028347, lon.=26.462034, Alt.=99.350647m. Speed=8.424000m/h.</desc>
<speed>2.340000</speed>
</trkpt>
<trkpt lat="56.028343" lon="26.462070">
<ele>98.973694</ele>
<time>2010-06-20T10:05:16Z</time>
<desc>lat.=56.028343, lon.=26.462070, Alt.=98.973694m. Speed=8.856000m/h.</desc>
<speed>2.460000</speed>
</trkpt>
<trkpt lat="56.028328" lon="26.462112">
<ele>98.874084</ele>
<time>2010-06-20T10:05:17Z</time>
<desc>lat.=56.028328, lon.=26.462112, Alt.=98.874084m. Speed=10.872000m/h.</desc>
<speed>3.020000</speed>
</trkpt>
<trkpt lat="56.028313" lon="26.462158">
<ele>98.358459</ele>
<time>2010-06-20T10:05:18Z</time>
<desc>lat.=56.028313, lon.=26.462158, Alt.=98.358459m. Speed=11.016000m/h.</desc>
<speed>3.060000</speed>
</trkpt>
<trkpt lat="56.028297" lon="26.462204">
<ele>98.364319</ele>
<time>2010-06-20T10:05:19Z</time>
<desc>lat.=56.028297, lon.=26.462204, Alt.=98.364319m. Speed=10.332000m/h.</desc>
<speed>2.870000</speed>
</trkpt>
<trkpt lat="56.028286" lon="26.462250">
<ele>98.325256</ele>
<time>2010-06-20T10:05:20Z</time>
<desc>lat.=56.028286, lon.=26.462250, Alt.=98.325256m. Speed=9.720000m/h.</desc>
<speed>2.700000</speed>
</trkpt>
<trkpt lat="56.028275" lon="26.462290">
<ele>98.358459</ele>
<time>2010-06-20T10:05:21Z</time>
<desc>lat.=56.028275, lon.=26.462290, Alt.=98.358459m. Speed=9.936000m/h.</desc>
<speed>2.760000</speed>
</trkpt>
<trkpt lat="56.028259" lon="26.462328">
<ele>98.012756</ele>
<time>2010-06-20T10:05:22Z</time>
<desc>lat.=56.028259, lon.=26.462328, Alt.=98.012756m. Speed=9.972000m/h.</desc>
<speed>2.770000</speed>
</trkpt>
<trkpt lat="56.028240" lon="26.462362">
<ele>97.905334</ele>
<time>2010-06-20T10:05:23Z</time>
<desc>lat.=56.028240, lon.=26.462362, Alt.=97.905334m. Speed=9.324000m/h.</desc>
<speed>2.590000</speed>
</trkpt>
<trkpt lat="56.028225" lon="26.462397">
<ele>97.633850</ele>
<time>2010-06-20T10:05:24Z</time>
<desc>lat.=56.028225, lon.=26.462397, Alt.=97.633850m. Speed=8.784000m/h.</desc>
<speed>2.440000</speed>
</trkpt>
<trkpt lat="56.028210" lon="26.462427">
<ele>97.551819</ele>
<time>2010-06-20T10:05:25Z</time>
<desc>lat.=56.028210, lon.=26.462427, Alt.=97.551819m. Speed=8.424000m/h.</desc>
<speed>2.340000</speed>
</trkpt>
<trkpt lat="56.028198" lon="26.462452">
<ele>97.858459</ele>
<time>2010-06-20T10:05:26Z</time>
<desc>lat.=56.028198, lon.=26.462452, Alt.=97.858459m. Speed=7.848000m/h.</desc>
<speed>2.180000</speed>
</trkpt>
<trkpt lat="56.028183" lon="26.462469">
<ele>98.336975</ele>
<time>2010-06-20T10:05:27Z</time>
<desc>lat.=56.028183, lon.=26.462469, Alt.=98.336975m. Speed=7.740000m/h.</desc>
<speed>2.150000</speed>
</trkpt>
<trkpt lat="56.028164" lon="26.462477">
<ele>98.751038</ele>
<time>2010-06-20T10:05:28Z</time>
<desc>lat.=56.028164, lon.=26.462477, Alt.=98.751038m. Speed=7.920000m/h.</desc>
<speed>2.200000</speed>
</trkpt>
<trkpt lat="56.028145" lon="26.462471">
<ele>99.038147</ele>
<time>2010-06-20T10:05:29Z</time>
<desc>lat.=56.028145, lon.=26.462471, Alt.=99.038147m. Speed=5.544000m/h.</desc>
<speed>1.540000</speed>
</trkpt>
<trkpt lat="56.028130" lon="26.462463">
<ele>99.461975</ele>
<time>2010-06-20T10:05:30Z</time>
<desc>lat.=56.028130, lon.=26.462463, Alt.=99.461975m. Speed=4.212000m/h.</desc>
<speed>1.170000</speed>
</trkpt>
<trkpt lat="56.028118" lon="26.462454">
<ele>99.737366</ele>
<time>2010-06-20T10:05:31Z</time>
<desc>lat.=56.028118, lon.=26.462454, Alt.=99.737366m. Speed=3.420000m/h.</desc>
<speed>0.950000</speed>
</trkpt>
<trkpt lat="56.028111" lon="26.462444">
<ele>100.002991</ele>
<time>2010-06-20T10:05:32Z</time>
<desc>lat.=56.028111, lon.=26.462444, Alt.=100.002991m. Speed=2.340000m/h.</desc>
<speed>0.650000</speed>
</trkpt>
<trkpt lat="56.028103" lon="26.462442">
<ele>100.303772</ele>
<time>2010-06-20T10:05:33Z</time>
<desc>lat.=56.028103, lon.=26.462442, Alt.=100.303772m. Speed=0.936000m/h.</desc>
<speed>0.260000</speed>
</trkpt>
<trkpt lat="56.028095" lon="26.462439">
<ele>100.403381</ele>
<time>2010-06-20T10:05:34Z</time>
<desc>lat.=56.028095, lon.=26.462439, Alt.=100.403381m. Speed=0.288000m/h.</desc>
<speed>0.080000</speed>
</trkpt>
<trkpt lat="56.028095" lon="26.462435">
<ele>100.217834</ele>
<time>2010-06-20T10:05:35Z</time>
<desc>lat.=56.028095, lon.=26.462435, Alt.=100.217834m. Speed=0.144000m/h.</desc>
<speed>0.040000</speed>
</trkpt>
<trkpt lat="56.028095" lon="26.462433">
<ele>100.131897</ele>
<time>2010-06-20T10:05:36Z</time>
<desc>lat.=56.028095, lon.=26.462433, Alt.=100.131897m. Speed=0.180000m/h.</desc>
<speed>0.050000</speed>
</trkpt>
<trkpt lat="56.028095" lon="26.462435">
<ele>100.206116</ele>
<time>2010-06-20T10:05:37Z</time>
<desc>lat.=56.028095, lon.=26.462435, Alt.=100.206116m. Speed=0.216000m/h.</desc>
<speed>0.060000</speed>
</trkpt>
<trkpt lat="56.028095" lon="26.462435">
<ele>100.268616</ele>
<time>2010-06-20T10:05:38Z</time>
<desc>lat.=56.028095, lon.=26.462435, Alt.=100.268616m. Speed=0.072000m/h.</desc>
<speed>0.020000</speed>
</trkpt>
<trkpt lat="56.028095" lon="26.462435">
<ele>100.309631</ele>
<time>2010-06-20T10:05:39Z</time>
<desc>lat.=56.028095, lon.=26.462435, Alt.=100.309631m. Speed=0.108000m/h.</desc>
<speed>0.030000</speed>
</trkpt>
<trkpt lat="56.028095" lon="26.462435">
<ele>100.344788</ele>
<time>2010-06-20T10:05:40Z</time>
<desc>lat.=56.028095, lon.=26.462435, Alt.=100.344788m. Speed=0.000000m/h.</desc>
<speed>0.000000</speed>
</trkpt>
<trkpt lat="56.028095" lon="26.462435">
<ele>100.354553</ele>
<time>2010-06-20T10:05:41Z</time>
<desc>lat.=56.028095, lon.=26.462435, Alt.=100.354553m. Speed=0.072000m/h.</desc>
<speed>0.020000</speed>
</trkpt>
<trkpt lat="56.028095" lon="26.462435">
<ele>100.360413</ele>
<time>2010-06-20T10:05:42Z</time>
<desc>lat.=56.028095, lon.=26.462435, Alt.=100.360413m. Speed=0.000000m/h.</desc>
<speed>0.000000</speed>
</trkpt>
<trkpt lat="56.028095" lon="26.462435">
<ele>100.358459</ele>
<time>2010-06-20T10:05:43Z</time>
<desc>lat.=56.028095, lon.=26.462435, Alt.=100.358459m. Speed=0.144000m/h.</desc>
<speed>0.040000</speed>
</trkpt>
<trkpt lat="56.028095" lon="26.462435">
<ele>100.340881</ele>
<time>2010-06-20T10:05:44Z</time>
<desc>lat.=56.028095, lon.=26.462435, Alt.=100.340881m. Speed=0.396000m/h.</desc>
<speed>0.110000</speed>
</trkpt>
<trkpt lat="56.028095" lon="26.462437">
<ele>100.327209</ele>
<time>2010-06-20T10:05:45Z</time>
<desc>lat.=56.028095, lon.=26.462437, Alt.=100.327209m. Speed=4.788000m/h.</desc>
<speed>1.330000</speed>
</trkpt>
<trkpt lat="56.028099" lon="26.462456">
<ele>100.032288</ele>
<time>2010-06-20T10:05:46Z</time>
<desc>lat.=56.028099, lon.=26.462456, Alt.=100.032288m. Speed=2.340000m/h.</desc>
<speed>0.650000</speed>
</trkpt>
<trkpt lat="56.028095" lon="26.462454">
<ele>99.751038</ele>
<time>2010-06-20T10:05:47Z</time>
<desc>lat.=56.028095, lon.=26.462454, Alt.=99.751038m. Speed=0.252000m/h.</desc>
<speed>0.070000</speed>
</trkpt>
<trkpt lat="56.028088" lon="26.462452">
<ele>99.481506</ele>
<time>2010-06-20T10:05:48Z</time>
<desc>lat.=56.028088, lon.=26.462452, Alt.=99.481506m. Speed=0.432000m/h.</desc>
<speed>0.120000</speed>
</trkpt>
<trkpt lat="56.028080" lon="26.462442">
<ele>99.385803</ele>
<time>2010-06-20T10:05:49Z</time>
<desc>lat.=56.028080, lon.=26.462442, Alt.=99.385803m. Speed=0.396000m/h.</desc>
<speed>0.110000</speed>
</trkpt>
<trkpt lat="56.028084" lon="26.462429">
<ele>99.061584</ele>
<time>2010-06-20T10:05:50Z</time>
<desc>lat.=56.028084, lon.=26.462429, Alt.=99.061584m. Speed=0.684000m/h.</desc>
<speed>0.190000</speed>
</trkpt>
<trkpt lat="56.028084" lon="26.462427">
<ele>99.036194</ele>
<time>2010-06-20T10:05:51Z</time>
<desc>lat.=56.028084, lon.=26.462427, Alt.=99.036194m. Speed=0.504000m/h.</desc>
<speed>0.140000</speed>
</trkpt>
<trkpt lat="56.028084" lon="26.462425">
<ele>99.010803</ele>
<time>2010-06-20T10:05:52Z</time>
<desc>lat.=56.028084, lon.=26.462425, Alt.=99.010803m. Speed=0.360000m/h.</desc>
<speed>0.100000</speed>
</trkpt>
<trkpt lat="56.028084" lon="26.462423">
<ele>98.987366</ele>
<time>2010-06-20T10:05:53Z</time>
<desc>lat.=56.028084, lon.=26.462423, Alt.=98.987366m. Speed=0.144000m/h.</desc>
<speed>0.040000</speed>
</trkpt>
<trkpt lat="56.028084" lon="26.462423">
<ele>98.973694</ele>
<time>2010-06-20T10:05:54Z</time>
<desc>lat.=56.028084, lon.=26.462423, Alt.=98.973694m. Speed=0.036000m/h.</desc>
<speed>0.010000</speed>
</trkpt>
<trkpt lat="56.028088" lon="26.462423">
<ele>98.965881</ele>
<time>2010-06-20T10:05:55Z</time>
<desc>lat.=56.028088, lon.=26.462423, Alt.=98.965881m. Speed=0.000000m/h.</desc>
<speed>0.000000</speed>
</trkpt>
<trkpt lat="56.028088" lon="26.462423">
<ele>98.973694</ele>
<time>2010-06-20T10:05:56Z</time>
<desc>lat.=56.028088, lon.=26.462423, Alt.=98.973694m. Speed=0.036000m/h.</desc>
<speed>0.010000</speed>
</trkpt>
<trkpt lat="56.028088" lon="26.462423">
<ele>98.987366</ele>
<time>2010-06-20T10:05:57Z</time>
<desc>lat.=56.028088, lon.=26.462423, Alt.=98.987366m. Speed=0.000000m/h.</desc>
<speed>0.000000</speed>
</trkpt>
<trkpt lat="56.028088" lon="26.462423">
<ele>98.997131</ele>
<time>2010-06-20T10:05:58Z</time>
<desc>lat.=56.028088, lon.=26.462423, Alt.=98.997131m. Speed=0.000000m/h.</desc>
<speed>0.000000</speed>
</trkpt>
<trkpt lat="56.028088" lon="26.462423">
<ele>99.001038</ele>
<time>2010-06-20T10:05:59Z</time>
<desc>lat.=56.028088, lon.=26.462423, Alt.=99.001038m. Speed=0.036000m/h.</desc>
<speed>0.010000</speed>
</trkpt>
<trkpt lat="56.028088" lon="26.462423">
<ele>99.008850</ele>
<time>2010-06-20T10:06:00Z</time>
<desc>lat.=56.028088, lon.=26.462423, Alt.=99.008850m. Speed=0.036000m/h.</desc>
<speed>0.010000</speed>
</trkpt>
<trkpt lat="56.028088" lon="26.462423">
<ele>99.008850</ele>
<time>2010-06-20T10:06:01Z</time>
<desc>lat.=56.028088, lon.=26.462423, Alt.=99.008850m. Speed=0.000000m/h.</desc>
<speed>0.000000</speed>
</trkpt>
<trkpt lat="56.028088" lon="26.462423">
<ele>99.008850</ele>
<time>2010-06-20T10:06:02Z</time>
<desc>lat.=56.028088, lon.=26.462423, Alt.=99.008850m. Speed=0.000000m/h.</desc>
<speed>0.000000</speed>
</trkpt>
<trkpt lat="56.028088" lon="26.462423">
<ele>99.010803</ele>
<time>2010-06-20T10:06:03Z</time>
<desc>lat.=56.028088, lon.=26.462423, Alt.=99.010803m. Speed=0.000000m/h.</desc>
<speed>0.000000</speed>
</trkpt>
<trkpt lat="56.028088" lon="26.462423">
<ele>99.008850</ele>
<time>2010-06-20T10:06:04Z</time>
<desc>lat.=56.028088, lon.=26.462423, Alt.=99.008850m. Speed=0.000000m/h.</desc>
<speed>0.000000</speed>
</trkpt>
<trkpt lat="56.028088" lon="26.462423">
<ele>99.006897</ele>
<time>2010-06-20T10:06:05Z</time>
<desc>lat.=56.028088, lon.=26.462423, Alt.=99.006897m. Speed=0.000000m/h.</desc>
<speed>0.000000</speed>
</trkpt>
<trkpt lat="56.028088" lon="26.462423">
<ele>99.006897</ele>
<time>2010-06-20T10:06:06Z</time>
<desc>lat.=56.028088, lon.=26.462423, Alt.=99.006897m. Speed=0.000000m/h.</desc>
<speed>0.000000</speed>
</trkpt>
<trkpt lat="56.028088" lon="26.462423">
<ele>99.006897</ele>
<time>2010-06-20T10:06:07Z</time>
<desc>lat.=56.028088, lon.=26.462423, Alt.=99.006897m. Speed=0.000000m/h.</desc>
<speed>0.000000</speed>
</trkpt>
<trkpt lat="56.028088" lon="26.462423">
<ele>99.006897</ele>
<time>2010-06-20T10:06:08Z</time>
<desc>lat.=56.028088, lon.=26.462423, Alt.=99.006897m. Speed=0.000000m/h.</desc>
<speed>0.000000</speed>
</trkpt>
<trkpt lat="56.028088" lon="26.462423">
<ele>99.006897</ele>
<time>2010-06-20T10:06:09Z</time>
<desc>lat.=56.028088, lon.=26.462423, Alt.=99.006897m. Speed=0.036000m/h.</desc>
<speed>0.010000</speed>
</trkpt>
<trkpt lat="56.028088" lon="26.462423">
<ele>99.006897</ele>
<time>2010-06-20T10:06:10Z</time>
<desc>lat.=56.028088, lon.=26.462423, Alt.=99.006897m. Speed=0.000000m/h.</desc>
<speed>0.000000</speed>
</trkpt>
<trkpt lat="56.028088" lon="26.462423">
<ele>99.006897</ele>
<time>2010-06-20T10:06:11Z</time>
<desc>lat.=56.028088, lon.=26.462423, Alt.=99.006897m. Speed=0.000000m/h.</desc>
<speed>0.000000</speed>
</trkpt>
<trkpt lat="56.028088" lon="26.462423">
<ele>99.010803</ele>
<time>2010-06-20T10:06:12Z</time>
<desc>lat.=56.028088, lon.=26.462423, Alt.=99.010803m. Speed=0.000000m/h.</desc>
<speed>0.000000</speed>
</trkpt>
<trkpt lat="56.028088" lon="26.462423">
<ele>99.010803</ele>
<time>2010-06-20T10:06:13Z</time>
<desc>lat.=56.028088, lon.=26.462423, Alt.=99.010803m. Speed=0.000000m/h.</desc>
<speed>0.000000</speed>
</trkpt>
<trkpt lat="56.028088" lon="26.462423">
<ele>99.006897</ele>
<time>2010-06-20T10:06:14Z</time>
<desc>lat.=56.028088, lon.=26.462423, Alt.=99.006897m. Speed=0.000000m/h.</desc>
<speed>0.000000</speed>
</trkpt>
<trkpt lat="56.028088" lon="26.462423">
<ele>99.002991</ele>
<time>2010-06-20T10:06:15Z</time>
<desc>lat.=56.028088, lon.=26.462423, Alt.=99.002991m. Speed=0.000000m/h.</desc>
<speed>0.000000</speed>
</trkpt>
<trkpt lat="56.028088" lon="26.462423">
<ele>99.001038</ele>
<time>2010-06-20T10:06:16Z</time>
<desc>lat.=56.028088, lon.=26.462423, Alt.=99.001038m. Speed=0.000000m/h.</desc>
<speed>0.000000</speed>
</trkpt>
<trkpt lat="56.028088" lon="26.462423">
<ele>99.001038</ele>
<time>2010-06-20T10:06:17Z</time>
<desc>lat.=56.028088, lon.=26.462423, Alt.=99.001038m. Speed=0.000000m/h.</desc>
<speed>0.000000</speed>
</trkpt>
<trkpt lat="56.028088" lon="26.462423">
<ele>99.001038</ele>
<time>2010-06-20T10:06:18Z</time>
<desc>lat.=56.028088, lon.=26.462423, Alt.=99.001038m. Speed=0.000000m/h.</desc>
<speed>0.000000</speed>
</trkpt>
<trkpt lat="56.028088" lon="26.462425">
<ele>98.999084</ele>
<time>2010-06-20T10:06:19Z</time>
<desc>lat.=56.028088, lon.=26.462425, Alt.=98.999084m. Speed=0.000000m/h.</desc>
<speed>0.000000</speed>
</trkpt>
<trkpt lat="56.028088" lon="26.462425">
<ele>98.999084</ele>
<time>2010-06-20T10:06:20Z</time>
<desc>lat.=56.028088, lon.=26.462425, Alt.=98.999084m. Speed=0.000000m/h.</desc>
<speed>0.000000</speed>
</trkpt>
<trkpt lat="56.028088" lon="26.462425">
<ele>99.001038</ele>
<time>2010-06-20T10:06:21Z</time>
<desc>lat.=56.028088, lon.=26.462425, Alt.=99.001038m. Speed=0.036000m/h.</desc>
<speed>0.010000</speed>
</trkpt>
<trkpt lat="56.028088" lon="26.462425">
<ele>99.002991</ele>
<time>2010-06-20T10:06:22Z</time>
<desc>lat.=56.028088, lon.=26.462425, Alt.=99.002991m. Speed=0.000000m/h.</desc>
<speed>0.000000</speed>
</trkpt>
<trkpt lat="56.028088" lon="26.462425">
<ele>99.002991</ele>
<time>2010-06-20T10:06:23Z</time>
<desc>lat.=56.028088, lon.=26.462425, Alt.=99.002991m. Speed=0.036000m/h.</desc>
<speed>0.010000</speed>
</trkpt>
<trkpt lat="56.028088" lon="26.462425">
<ele>99.002991</ele>
<time>2010-06-20T10:06:24Z</time>
<desc>lat.=56.028088, lon.=26.462425, Alt.=99.002991m. Speed=0.036000m/h.</desc>
<speed>0.010000</speed>
</trkpt>
<trkpt lat="56.028088" lon="26.462425">
<ele>99.004944</ele>
<time>2010-06-20T10:06:25Z</time>
<desc>lat.=56.028088, lon.=26.462425, Alt.=99.004944m. Speed=0.000000m/h.</desc>
<speed>0.000000</speed>
</trkpt>
<trkpt lat="56.028088" lon="26.462425">
<ele>99.006897</ele>
<time>2010-06-20T10:06:26Z</time>
<desc>lat.=56.028088, lon.=26.462425, Alt.=99.006897m. Speed=0.000000m/h.</desc>
<speed>0.000000</speed>
</trkpt>
<trkpt lat="56.028088" lon="26.462425">
<ele>99.014709</ele>
<time>2010-06-20T10:06:27Z</time>
<desc>lat.=56.028088, lon.=26.462425, Alt.=99.014709m. Speed=0.000000m/h.</desc>
<speed>0.000000</speed>
</trkpt>
<trkpt lat="56.028088" lon="26.462425">
<ele>99.012756</ele>
<time>2010-06-20T10:06:28Z</time>
<desc>lat.=56.028088, lon.=26.462425, Alt.=99.012756m. Speed=0.036000m/h.</desc>
<speed>0.010000</speed>
</trkpt>
<trkpt lat="56.028088" lon="26.462425">
<ele>99.016663</ele>
<time>2010-06-20T10:06:29Z</time>
<desc>lat.=56.028088, lon.=26.462425, Alt.=99.016663m. Speed=0.036000m/h.</desc>
<speed>0.010000</speed>
</trkpt>
<trkpt lat="56.028088" lon="26.462425">
<ele>99.018616</ele>
<time>2010-06-20T10:06:30Z</time>
<desc>lat.=56.028088, lon.=26.462425, Alt.=99.018616m. Speed=0.036000m/h.</desc>
<speed>0.010000</speed>
</trkpt>
<trkpt lat="56.028088" lon="26.462425">
<ele>99.012756</ele>
<time>2010-06-20T10:06:31Z</time>
<desc>lat.=56.028088, lon.=26.462425, Alt.=99.012756m. Speed=0.036000m/h.</desc>
<speed>0.010000</speed>
</trkpt>
<trkpt lat="56.028088" lon="26.462425">
<ele>99.010803</ele>
<time>2010-06-20T10:06:32Z</time>
<desc>lat.=56.028088, lon.=26.462425, Alt.=99.010803m. Speed=0.036000m/h.</desc>
<speed>0.010000</speed>
</trkpt>
<trkpt lat="56.028088" lon="26.462425">
<ele>99.008850</ele>
<time>2010-06-20T10:06:33Z</time>
<desc>lat.=56.028088, lon.=26.462425, Alt.=99.008850m. Speed=0.000000m/h.</desc>
<speed>0.000000</speed>
</trkpt>
<trkpt lat="56.028088" lon="26.462425">
<ele>99.008850</ele>
<time>2010-06-20T10:06:34Z</time>
<desc>lat.=56.028088, lon.=26.462425, Alt.=99.008850m. Speed=0.000000m/h.</desc>
<speed>0.000000</speed>
</trkpt>
<trkpt lat="56.028088" lon="26.462425">
<ele>99.008850</ele>
<time>2010-06-20T10:06:35Z</time>
<desc>lat.=56.028088, lon.=26.462425, Alt.=99.008850m. Speed=0.000000m/h.</desc>
<speed>0.000000</speed>
</trkpt>
<trkpt lat="56.028088" lon="26.462425">
<ele>99.010803</ele>
<time>2010-06-20T10:06:36Z</time>
<desc>lat.=56.028088, lon.=26.462425, Alt.=99.010803m. Speed=0.072000m/h.</desc>
<speed>0.020000</speed>
</trkpt>
<trkpt lat="56.028088" lon="26.462425">
<ele>99.012756</ele>
<time>2010-06-20T10:06:37Z</time>
<desc>lat.=56.028088, lon.=26.462425, Alt.=99.012756m. Speed=0.252000m/h.</desc>
<speed>0.070000</speed>
</trkpt>
<trkpt lat="56.028088" lon="26.462425">
<ele>99.018616</ele>
<time>2010-06-20T10:06:38Z</time>
<desc>lat.=56.028088, lon.=26.462425, Alt.=99.018616m. Speed=0.108000m/h.</desc>
<speed>0.030000</speed>
</trkpt>
<trkpt lat="56.028088" lon="26.462427">
<ele>99.022522</ele>
<time>2010-06-20T10:06:39Z</time>
<desc>lat.=56.028088, lon.=26.462427, Alt.=99.022522m. Speed=0.000000m/h.</desc>
<speed>0.000000</speed>
</trkpt>
<trkpt lat="56.028088" lon="26.462427">
<ele>99.032288</ele>
<time>2010-06-20T10:06:40Z</time>
<desc>lat.=56.028088, lon.=26.462427, Alt.=99.032288m. Speed=0.036000m/h.</desc>
<speed>0.010000</speed>
</trkpt>
<trkpt lat="56.028088" lon="26.462427">
<ele>99.038147</ele>
<time>2010-06-20T10:06:41Z</time>
<desc>lat.=56.028088, lon.=26.462427, Alt.=99.038147m. Speed=0.036000m/h.</desc>
<speed>0.010000</speed>
</trkpt>
<trkpt lat="56.028088" lon="26.462427">
<ele>99.047913</ele>
<time>2010-06-20T10:06:42Z</time>
<desc>lat.=56.028088, lon.=26.462427, Alt.=99.047913m. Speed=0.036000m/h.</desc>
<speed>0.010000</speed>
</trkpt>
<trkpt lat="56.028088" lon="26.462427">
<ele>99.061584</ele>
<time>2010-06-20T10:06:43Z</time>
<desc>lat.=56.028088, lon.=26.462427, Alt.=99.061584m. Speed=0.036000m/h.</desc>
<speed>0.010000</speed>
</trkpt>
<trkpt lat="56.028088" lon="26.462427">
<ele>99.069397</ele>
<time>2010-06-20T10:06:44Z</time>
<desc>lat.=56.028088, lon.=26.462427, Alt.=99.069397m. Speed=0.000000m/h.</desc>
<speed>0.000000</speed>
</trkpt>
<trkpt lat="56.028088" lon="26.462427">
<ele>99.075256</ele>
<time>2010-06-20T10:06:45Z</time>
<desc>lat.=56.028088, lon.=26.462427, Alt.=99.075256m. Speed=0.000000m/h.</desc>
<speed>0.000000</speed>
</trkpt>
<trkpt lat="56.028088" lon="26.462427">
<ele>99.077209</ele>
<time>2010-06-20T10:06:46Z</time>
<desc>lat.=56.028088, lon.=26.462427, Alt.=99.077209m. Speed=0.000000m/h.</desc>
<speed>0.000000</speed>
</trkpt>
<trkpt lat="56.028088" lon="26.462427">
<ele>99.079163</ele>
<time>2010-06-20T10:06:47Z</time>
<desc>lat.=56.028088, lon.=26.462427, Alt.=99.079163m. Speed=0.000000m/h.</desc>
<speed>0.000000</speed>
</trkpt>
<trkpt lat="56.028088" lon="26.462427">
<ele>99.083069</ele>
<time>2010-06-20T10:06:48Z</time>
<desc>lat.=56.028088, lon.=26.462427, Alt.=99.083069m. Speed=0.000000m/h.</desc>
<speed>0.000000</speed>
</trkpt>
<trkpt lat="56.028088" lon="26.462427">
<ele>99.085022</ele>
<time>2010-06-20T10:06:49Z</time>
<desc>lat.=56.028088, lon.=26.462427, Alt.=99.085022m. Speed=0.000000m/h.</desc>
<speed>0.000000</speed>
</trkpt>
<trkpt lat="56.028088" lon="26.462427">
<ele>99.088928</ele>
<time>2010-06-20T10:06:50Z</time>
<desc>lat.=56.028088, lon.=26.462427, Alt.=99.088928m. Speed=0.000000m/h.</desc>
<speed>0.000000</speed>
</trkpt>
<trkpt lat="56.028088" lon="26.462427">
<ele>99.092834</ele>
<time>2010-06-20T10:06:51Z</time>
<desc>lat.=56.028088, lon.=26.462427, Alt.=99.092834m. Speed=0.000000m/h.</desc>
<speed>0.000000</speed>
</trkpt>
<trkpt lat="56.028088" lon="26.462427">
<ele>99.096741</ele>
<time>2010-06-20T10:06:52Z</time>
<desc>lat.=56.028088, lon.=26.462427, Alt.=99.096741m. Speed=0.036000m/h.</desc>
<speed>0.010000</speed>
</trkpt>
<trkpt lat="56.028088" lon="26.462427">
<ele>99.102600</ele>
<time>2010-06-20T10:06:53Z</time>
<desc>lat.=56.028088, lon.=26.462427, Alt.=99.102600m. Speed=0.036000m/h.</desc>
<speed>0.010000</speed>
</trkpt>
<trkpt lat="56.028088" lon="26.462427">
<ele>99.112366</ele>
<time>2010-06-20T10:06:54Z</time>
<desc>lat.=56.028088, lon.=26.462427, Alt.=99.112366m. Speed=0.000000m/h.</desc>
<speed>0.000000</speed>
</trkpt>
<trkpt lat="56.028088" lon="26.462427">
<ele>99.118225</ele>
<time>2010-06-20T10:06:55Z</time>
<desc>lat.=56.028088, lon.=26.462427, Alt.=99.118225m. Speed=0.000000m/h.</desc>
<speed>0.000000</speed>
</trkpt>
<trkpt lat="56.028088" lon="26.462427">
<ele>99.124084</ele>
<time>2010-06-20T10:06:56Z</time>
<desc>lat.=56.028088, lon.=26.462427, Alt.=99.124084m. Speed=0.000000m/h.</desc>
<speed>0.000000</speed>
</trkpt>
<trkpt lat="56.028088" lon="26.462427">
<ele>99.131897</ele>
<time>2010-06-20T10:06:57Z</time>
<desc>lat.=56.028088, lon.=26.462427, Alt.=99.131897m. Speed=0.036000m/h.</desc>
<speed>0.010000</speed>
</trkpt>
<trkpt lat="56.028088" lon="26.462427">
<ele>99.135803</ele>
<time>2010-06-20T10:06:58Z</time>
<desc>lat.=56.028088, lon.=26.462427, Alt.=99.135803m. Speed=0.000000m/h.</desc>
<speed>0.000000</speed>
</trkpt>
<trkpt lat="56.028088" lon="26.462427">
<ele>99.137756</ele>
<time>2010-06-20T10:06:59Z</time>
<desc>lat.=56.028088, lon.=26.462427, Alt.=99.137756m. Speed=0.000000m/h.</desc>
<speed>0.000000</speed>
</trkpt>
<trkpt lat="56.028088" lon="26.462429">
<ele>99.137756</ele>
<time>2010-06-20T10:07:00Z</time>
<desc>lat.=56.028088, lon.=26.462429, Alt.=99.137756m. Speed=0.036000m/h.</desc>
<speed>0.010000</speed>
</trkpt>
<trkpt lat="56.028088" lon="26.462429">
<ele>99.139709</ele>
<time>2010-06-20T10:07:01Z</time>
<desc>lat.=56.028088, lon.=26.462429, Alt.=99.139709m. Speed=0.000000m/h.</desc>
<speed>0.000000</speed>
</trkpt>
<trkpt lat="56.028088" lon="26.462429">
<ele>99.145569</ele>
<time>2010-06-20T10:07:02Z</time>
<desc>lat.=56.028088, lon.=26.462429, Alt.=99.145569m. Speed=0.000000m/h.</desc>
<speed>0.000000</speed>
</trkpt>
<trkpt lat="56.028088" lon="26.462429">
<ele>99.145569</ele>
<time>2010-06-20T10:07:03Z</time>
<desc>lat.=56.028088, lon.=26.462429, Alt.=99.145569m. Speed=0.036000m/h.</desc>
<speed>0.010000</speed>
</trkpt>
<trkpt lat="56.028088" lon="26.462429">
<ele>99.149475</ele>
<time>2010-06-20T10:07:04Z</time>
<desc>lat.=56.028088, lon.=26.462429, Alt.=99.149475m. Speed=0.000000m/h.</desc>
<speed>0.000000</speed>
</trkpt>
<trkpt lat="56.028088" lon="26.462429">
<ele>99.153381</ele>
<time>2010-06-20T10:07:05Z</time>
<desc>lat.=56.028088, lon.=26.462429, Alt.=99.153381m. Speed=0.000000m/h.</desc>
<speed>0.000000</speed>
</trkpt>
<trkpt lat="56.028088" lon="26.462429">
<ele>99.159241</ele>
<time>2010-06-20T10:07:06Z</time>
<desc>lat.=56.028088, lon.=26.462429, Alt.=99.159241m. Speed=0.000000m/h.</desc>
<speed>0.000000</speed>
</trkpt>
<trkpt lat="56.028088" lon="26.462429">
<ele>99.165100</ele>
<time>2010-06-20T10:07:07Z</time>
<desc>lat.=56.028088, lon.=26.462429, Alt.=99.165100m. Speed=0.000000m/h.</desc>
<speed>0.000000</speed>
</trkpt>
<trkpt lat="56.028088" lon="26.462429">
<ele>99.169006</ele>
<time>2010-06-20T10:07:08Z</time>
<desc>lat.=56.028088, lon.=26.462429, Alt.=99.169006m. Speed=0.000000m/h.</desc>
<speed>0.000000</speed>
</trkpt>
<trkpt lat="56.028088" lon="26.462429">
<ele>99.176819</ele>
<time>2010-06-20T10:07:09Z</time>
<desc>lat.=56.028088, lon.=26.462429, Alt.=99.176819m. Speed=0.000000m/h.</desc>
<speed>0.000000</speed>
</trkpt>
<trkpt lat="56.028088" lon="26.462429">
<ele>99.182678</ele>
<time>2010-06-20T10:07:10Z</time>
<desc>lat.=56.028088, lon.=26.462429, Alt.=99.182678m. Speed=0.000000m/h.</desc>
<speed>0.000000</speed>
</trkpt>
<trkpt lat="56.028088" lon="26.462429">
<ele>99.186584</ele>
<time>2010-06-20T10:07:11Z</time>
<desc>lat.=56.028088, lon.=26.462429, Alt.=99.186584m. Speed=0.000000m/h.</desc>
<speed>0.000000</speed>
</trkpt>
<trkpt lat="56.028088" lon="26.462429">
<ele>99.192444</ele>
<time>2010-06-20T10:07:12Z</time>
<desc>lat.=56.028088, lon.=26.462429, Alt.=99.192444m. Speed=0.000000m/h.</desc>
<speed>0.000000</speed>
</trkpt>
<trkpt lat="56.028088" lon="26.462429">
<ele>99.198303</ele>
<time>2010-06-20T10:07:13Z</time>
<desc>lat.=56.028088, lon.=26.462429, Alt.=99.198303m. Speed=0.000000m/h.</desc>
<speed>0.000000</speed>
</trkpt>
<trkpt lat="56.028088" lon="26.462429">
<ele>99.204163</ele>
<time>2010-06-20T10:07:14Z</time>
<desc>lat.=56.028088, lon.=26.462429, Alt.=99.204163m. Speed=0.000000m/h.</desc>
<speed>0.000000</speed>
</trkpt>
<trkpt lat="56.028088" lon="26.462429">
<ele>99.208069</ele>
<time>2010-06-20T10:07:15Z</time>
<desc>lat.=56.028088, lon.=26.462429, Alt.=99.208069m. Speed=0.000000m/h.</desc>
<speed>0.000000</speed>
</trkpt>
<trkpt lat="56.028088" lon="26.462429">
<ele>99.213928</ele>
<time>2010-06-20T10:07:16Z</time>
<desc>lat.=56.028088, lon.=26.462429, Alt.=99.213928m. Speed=0.000000m/h.</desc>
<speed>0.000000</speed>
</trkpt>
<trkpt lat="56.028088" lon="26.462431">
<ele>99.219788</ele>
<time>2010-06-20T10:07:17Z</time>
<desc>lat.=56.028088, lon.=26.462431, Alt.=99.219788m. Speed=0.000000m/h.</desc>
<speed>0.000000</speed>
</trkpt>
<trkpt lat="56.028088" lon="26.462431">
<ele>99.225647</ele>
<time>2010-06-20T10:07:18Z</time>
<desc>lat.=56.028088, lon.=26.462431, Alt.=99.225647m. Speed=0.000000m/h.</desc>
<speed>0.000000</speed>
</trkpt>
<trkpt lat="56.028088" lon="26.462431">
<ele>99.229553</ele>
<time>2010-06-20T10:07:19Z</time>
<desc>lat.=56.028088, lon.=26.462431, Alt.=99.229553m. Speed=0.000000m/h.</desc>
<speed>0.000000</speed>
</trkpt>
<trkpt lat="56.028088" lon="26.462431">
<ele>99.235413</ele>
<time>2010-06-20T10:07:20Z</time>
<desc>lat.=56.028088, lon.=26.462431, Alt.=99.235413m. Speed=0.036000m/h.</desc>
<speed>0.010000</speed>
</trkpt>
<trkpt lat="56.028088" lon="26.462431">
<ele>99.243225</ele>
<time>2010-06-20T10:07:21Z</time>
<desc>lat.=56.028088, lon.=26.462431, Alt.=99.243225m. Speed=0.000000m/h.</desc>
<speed>0.000000</speed>
</trkpt>
<trkpt lat="56.028088" lon="26.462431">
<ele>99.249084</ele>
<time>2010-06-20T10:07:22Z</time>
<desc>lat.=56.028088, lon.=26.462431, Alt.=99.249084m. Speed=0.000000m/h.</desc>
<speed>0.000000</speed>
</trkpt>
<trkpt lat="56.028088" lon="26.462431">
<ele>99.251038</ele>
<time>2010-06-20T10:07:23Z</time>
<desc>lat.=56.028088, lon.=26.462431, Alt.=99.251038m. Speed=0.000000m/h.</desc>
<speed>0.000000</speed>
</trkpt>
<trkpt lat="56.028088" lon="26.462431">
<ele>99.252991</ele>
<time>2010-06-20T10:07:24Z</time>
<desc>lat.=56.028088, lon.=26.462431, Alt.=99.252991m. Speed=0.000000m/h.</desc>
<speed>0.000000</speed>
</trkpt>
<trkpt lat="56.028088" lon="26.462431">
<ele>99.254944</ele>
<time>2010-06-20T10:07:25Z</time>
<desc>lat.=56.028088, lon.=26.462431, Alt.=99.254944m. Speed=0.000000m/h.</desc>
<speed>0.000000</speed>
</trkpt>
<trkpt lat="56.028088" lon="26.462431">
<ele>99.254944</ele>
<time>2010-06-20T10:07:26Z</time>
<desc>lat.=56.028088, lon.=26.462431, Alt.=99.254944m. Speed=0.000000m/h.</desc>
<speed>0.000000</speed>
</trkpt>
<trkpt lat="56.028088" lon="26.462431">
<ele>99.254944</ele>
<time>2010-06-20T10:07:27Z</time>
<desc>lat.=56.028088, lon.=26.462431, Alt.=99.254944m. Speed=0.000000m/h.</desc>
<speed>0.000000</speed>
</trkpt>
<trkpt lat="56.028088" lon="26.462431">
<ele>99.258850</ele>
<time>2010-06-20T10:07:28Z</time>
<desc>lat.=56.028088, lon.=26.462431, Alt.=99.258850m. Speed=0.000000m/h.</desc>
<speed>0.000000</speed>
</trkpt>
<trkpt lat="56.028088" lon="26.462431">
<ele>99.262756</ele>
<time>2010-06-20T10:07:29Z</time>
<desc>lat.=56.028088, lon.=26.462431, Alt.=99.262756m. Speed=0.000000m/h.</desc>
<speed>0.000000</speed>
</trkpt>
<trkpt lat="56.028088" lon="26.462431">
<ele>99.262756</ele>
<time>2010-06-20T10:07:30Z</time>
<desc>lat.=56.028088, lon.=26.462431, Alt.=99.262756m. Speed=0.072000m/h.</desc>
<speed>0.020000</speed>
</trkpt>
<trkpt lat="56.028088" lon="26.462431">
<ele>99.262756</ele>
<time>2010-06-20T10:07:31Z</time>
<desc>lat.=56.028088, lon.=26.462431, Alt.=99.262756m. Speed=0.036000m/h.</desc>
<speed>0.010000</speed>
</trkpt>
<trkpt lat="56.028088" lon="26.462431">
<ele>99.262756</ele>
<time>2010-06-20T10:07:32Z</time>
<desc>lat.=56.028088, lon.=26.462431, Alt.=99.262756m. Speed=0.036000m/h.</desc>
<speed>0.010000</speed>
</trkpt>
<trkpt lat="56.028088" lon="26.462431">
<ele>99.260803</ele>
<time>2010-06-20T10:07:33Z</time>
<desc>lat.=56.028088, lon.=26.462431, Alt.=99.260803m. Speed=0.072000m/h.</desc>
<speed>0.020000</speed>
</trkpt>
<trkpt lat="56.028088" lon="26.462431">
<ele>99.260803</ele>
<time>2010-06-20T10:07:34Z</time>
<desc>lat.=56.028088, lon.=26.462431, Alt.=99.260803m. Speed=0.072000m/h.</desc>
<speed>0.020000</speed>
</trkpt>
<trkpt lat="56.028088" lon="26.462431">
<ele>99.264709</ele>
<time>2010-06-20T10:07:35Z</time>
<desc>lat.=56.028088, lon.=26.462431, Alt.=99.264709m. Speed=0.108000m/h.</desc>
<speed>0.030000</speed>
</trkpt>
<trkpt lat="56.028088" lon="26.462431">
<ele>99.264709</ele>
<time>2010-06-20T10:07:36Z</time>
<desc>lat.=56.028088, lon.=26.462431, Alt.=99.264709m. Speed=0.108000m/h.</desc>
<speed>0.030000</speed>
</trkpt>
<trkpt lat="56.028088" lon="26.462431">
<ele>99.266663</ele>
<time>2010-06-20T10:07:37Z</time>
<desc>lat.=56.028088, lon.=26.462431, Alt.=99.266663m. Speed=0.648000m/h.</desc>
<speed>0.180000</speed>
</trkpt>
<trkpt lat="56.028088" lon="26.462431">
<ele>99.266663</ele>
<time>2010-06-20T10:07:38Z</time>
<desc>lat.=56.028088, lon.=26.462431, Alt.=99.266663m. Speed=0.432000m/h.</desc>
<speed>0.120000</speed>
</trkpt>
<trkpt lat="56.028088" lon="26.462431">
<ele>99.266663</ele>
<time>2010-06-20T10:07:39Z</time>
<desc>lat.=56.028088, lon.=26.462431, Alt.=99.266663m. Speed=0.036000m/h.</desc>
<speed>0.010000</speed>
</trkpt>
<trkpt lat="56.028088" lon="26.462431">
<ele>99.264709</ele>
<time>2010-06-20T10:07:40Z</time>
<desc>lat.=56.028088, lon.=26.462431, Alt.=99.264709m. Speed=0.036000m/h.</desc>
<speed>0.010000</speed>
</trkpt>
<trkpt lat="56.028088" lon="26.462431">
<ele>99.262756</ele>
<time>2010-06-20T10:07:41Z</time>
<desc>lat.=56.028088, lon.=26.462431, Alt.=99.262756m. Speed=0.108000m/h.</desc>
<speed>0.030000</speed>
</trkpt>
<trkpt lat="56.028088" lon="26.462431">
<ele>99.258850</ele>
<time>2010-06-20T10:07:42Z</time>
<desc>lat.=56.028088, lon.=26.462431, Alt.=99.258850m. Speed=0.072000m/h.</desc>
<speed>0.020000</speed>
</trkpt>
<trkpt lat="56.028088" lon="26.462431">
<ele>99.258850</ele>
<time>2010-06-20T10:07:43Z</time>
<desc>lat.=56.028088, lon.=26.462431, Alt.=99.258850m. Speed=0.036000m/h.</desc>
<speed>0.010000</speed>
</trkpt>
<trkpt lat="56.028088" lon="26.462431">
<ele>99.258850</ele>
<time>2010-06-20T10:07:44Z</time>
<desc>lat.=56.028088, lon.=26.462431, Alt.=99.258850m. Speed=0.000000m/h.</desc>
<speed>0.000000</speed>
</trkpt>
<trkpt lat="56.028088" lon="26.462431">
<ele>99.258850</ele>
<time>2010-06-20T10:07:45Z</time>
<desc>lat.=56.028088, lon.=26.462431, Alt.=99.258850m. Speed=0.000000m/h.</desc>
<speed>0.000000</speed>
</trkpt>
<trkpt lat="56.028088" lon="26.462431">
<ele>99.258850</ele>
<time>2010-06-20T10:07:46Z</time>
<desc>lat.=56.028088, lon.=26.462431, Alt.=99.258850m. Speed=0.000000m/h.</desc>
<speed>0.000000</speed>
</trkpt>
<trkpt lat="56.028088" lon="26.462431">
<ele>99.256897</ele>
<time>2010-06-20T10:07:47Z</time>
<desc>lat.=56.028088, lon.=26.462431, Alt.=99.256897m. Speed=0.360000m/h.</desc>
<speed>0.100000</speed>
</trkpt>
<trkpt lat="56.028088" lon="26.462431">
<ele>99.251038</ele>
<time>2010-06-20T10:07:48Z</time>
<desc>lat.=56.028088, lon.=26.462431, Alt.=99.251038m. Speed=1.260000m/h.</desc>
<speed>0.350000</speed>
</trkpt>
<trkpt lat="56.028088" lon="26.462435">
<ele>99.235413</ele>
<time>2010-06-20T10:07:49Z</time>
<desc>lat.=56.028088, lon.=26.462435, Alt.=99.235413m. Speed=0.576000m/h.</desc>
<speed>0.160000</speed>
</trkpt>
<trkpt lat="56.028091" lon="26.462440">
<ele>99.268616</ele>
<time>2010-06-20T10:07:50Z</time>
<desc>lat.=56.028091, lon.=26.462440, Alt.=99.268616m. Speed=1.080000m/h.</desc>
<speed>0.300000</speed>
</trkpt>
<trkpt lat="56.028091" lon="26.462442">
<ele>99.290100</ele>
<time>2010-06-20T10:07:51Z</time>
<desc>lat.=56.028091, lon.=26.462442, Alt.=99.290100m. Speed=0.468000m/h.</desc>
<speed>0.130000</speed>
</trkpt>
<trkpt lat="56.028095" lon="26.462448">
<ele>99.354553</ele>
<time>2010-06-20T10:07:52Z</time>
<desc>lat.=56.028095, lon.=26.462448, Alt.=99.354553m. Speed=1.764000m/h.</desc>
<speed>0.490000</speed>
</trkpt>
<trkpt lat="56.028099" lon="26.462461">
<ele>99.446350</ele>
<time>2010-06-20T10:07:53Z</time>
<desc>lat.=56.028099, lon.=26.462461, Alt.=99.446350m. Speed=2.304000m/h.</desc>
<speed>0.640000</speed>
</trkpt>
<trkpt lat="56.028103" lon="26.462469">
<ele>99.335022</ele>
<time>2010-06-20T10:07:54Z</time>
<desc>lat.=56.028103, lon.=26.462469, Alt.=99.335022m. Speed=0.936000m/h.</desc>
<speed>0.260000</speed>
</trkpt>
<trkpt lat="56.028107" lon="26.462475">
<ele>99.210022</ele>
<time>2010-06-20T10:07:55Z</time>
<desc>lat.=56.028107, lon.=26.462475, Alt.=99.210022m. Speed=0.504000m/h.</desc>
<speed>0.140000</speed>
</trkpt>
<trkpt lat="56.028107" lon="26.462479">
<ele>99.163147</ele>
<time>2010-06-20T10:07:56Z</time>
<desc>lat.=56.028107, lon.=26.462479, Alt.=99.163147m. Speed=0.720000m/h.</desc>
<speed>0.200000</speed>
</trkpt>
<trkpt lat="56.028107" lon="26.462477">
<ele>99.126038</ele>
<time>2010-06-20T10:07:57Z</time>
<desc>lat.=56.028107, lon.=26.462477, Alt.=99.126038m. Speed=0.396000m/h.</desc>
<speed>0.110000</speed>
</trkpt>
<trkpt lat="56.028107" lon="26.462479">
<ele>99.067444</ele>
<time>2010-06-20T10:07:58Z</time>
<desc>lat.=56.028107, lon.=26.462479, Alt.=99.067444m. Speed=0.324000m/h.</desc>
<speed>0.090000</speed>
</trkpt>
<trkpt lat="56.028103" lon="26.462479">
<ele>99.020569</ele>
<time>2010-06-20T10:07:59Z</time>
<desc>lat.=56.028103, lon.=26.462479, Alt.=99.020569m. Speed=0.468000m/h.</desc>
<speed>0.130000</speed>
</trkpt>
<trkpt lat="56.028107" lon="26.462477">
<ele>98.940491</ele>
<time>2010-06-20T10:08:00Z</time>
<desc>lat.=56.028107, lon.=26.462477, Alt.=98.940491m. Speed=1.008000m/h.</desc>
<speed>0.280000</speed>
</trkpt>
<trkpt lat="56.028107" lon="26.462473">
<ele>98.876038</ele>
<time>2010-06-20T10:08:01Z</time>
<desc>lat.=56.028107, lon.=26.462473, Alt.=98.876038m. Speed=0.792000m/h.</desc>
<speed>0.220000</speed>
</trkpt>
<trkpt lat="56.028107" lon="26.462471">
<ele>98.827209</ele>
<time>2010-06-20T10:08:02Z</time>
<desc>lat.=56.028107, lon.=26.462471, Alt.=98.827209m. Speed=1.692000m/h.</desc>
<speed>0.470000</speed>
</trkpt>
<trkpt lat="56.028114" lon="26.462463">
<ele>98.768616</ele>
<time>2010-06-20T10:08:03Z</time>
<desc>lat.=56.028114, lon.=26.462463, Alt.=98.768616m. Speed=2.232000m/h.</desc>
<speed>0.620000</speed>
</trkpt>
<trkpt lat="56.028130" lon="26.462465">
<ele>98.614319</ele>
<time>2010-06-20T10:08:04Z</time>
<desc>lat.=56.028130, lon.=26.462465, Alt.=98.614319m. Speed=3.204000m/h.</desc>
<speed>0.890000</speed>
</trkpt>
<trkpt lat="56.028137" lon="26.462469">
<ele>98.491272</ele>
<time>2010-06-20T10:08:05Z</time>
<desc>lat.=56.028137, lon.=26.462469, Alt.=98.491272m. Speed=3.996000m/h.</desc>
<speed>1.110000</speed>
</trkpt>
<trkpt lat="56.028152" lon="26.462469">
<ele>98.385803</ele>
<time>2010-06-20T10:08:06Z</time>
<desc>lat.=56.028152, lon.=26.462469, Alt.=98.385803m. Speed=4.896000m/h.</desc>
<speed>1.360000</speed>
</trkpt>
<trkpt lat="56.028168" lon="26.462465">
<ele>98.717834</ele>
<time>2010-06-20T10:08:07Z</time>
<desc>lat.=56.028168, lon.=26.462465, Alt.=98.717834m. Speed=5.112000m/h.</desc>
<speed>1.420000</speed>
</trkpt>
<trkpt lat="56.028175" lon="26.462475">
<ele>98.778381</ele>
<time>2010-06-20T10:08:08Z</time>
<desc>lat.=56.028175, lon.=26.462475, Alt.=98.778381m. Speed=4.644000m/h.</desc>
<speed>1.290000</speed>
</trkpt>
<trkpt lat="56.028187" lon="26.462490">
<ele>98.784241</ele>
<time>2010-06-20T10:08:09Z</time>
<desc>lat.=56.028187, lon.=26.462490, Alt.=98.784241m. Speed=4.032000m/h.</desc>
<speed>1.120000</speed>
</trkpt>
<trkpt lat="56.028194" lon="26.462509">
<ele>99.219788</ele>
<time>2010-06-20T10:08:10Z</time>
<desc>lat.=56.028194, lon.=26.462509, Alt.=99.219788m. Speed=5.724000m/h.</desc>
<speed>1.590000</speed>
</trkpt>
<trkpt lat="56.028206" lon="26.462538">
<ele>99.374084</ele>
<time>2010-06-20T10:08:11Z</time>
<desc>lat.=56.028206, lon.=26.462538, Alt.=99.374084m. Speed=5.400000m/h.</desc>
<speed>1.500000</speed>
</trkpt>
<trkpt lat="56.028221" lon="26.462570">
<ele>99.653381</ele>
<time>2010-06-20T10:08:12Z</time>
<desc>lat.=56.028221, lon.=26.462570, Alt.=99.653381m. Speed=5.832000m/h.</desc>
<speed>1.620000</speed>
</trkpt>
<trkpt lat="56.028214" lon="26.462595">
<ele>99.663147</ele>
<time>2010-06-20T10:08:13Z</time>
<desc>lat.=56.028214, lon.=26.462595, Alt.=99.663147m. Speed=6.912000m/h.</desc>
<speed>1.920000</speed>
</trkpt>
<trkpt lat="56.028202" lon="26.462622">
<ele>99.571350</ele>
<time>2010-06-20T10:08:14Z</time>
<desc>lat.=56.028202, lon.=26.462622, Alt.=99.571350m. Speed=7.056000m/h.</desc>
<speed>1.960000</speed>
</trkpt>
<trkpt lat="56.028191" lon="26.462646">
<ele>99.424866</ele>
<time>2010-06-20T10:08:15Z</time>
<desc>lat.=56.028191, lon.=26.462646, Alt.=99.424866m. Speed=7.740000m/h.</desc>
<speed>2.150000</speed>
</trkpt>
<trkpt lat="56.028175" lon="26.462673">
<ele>99.157288</ele>
<time>2010-06-20T10:08:16Z</time>
<desc>lat.=56.028175, lon.=26.462673, Alt.=99.157288m. Speed=7.992000m/h.</desc>
<speed>2.220000</speed>
</trkpt>
<trkpt lat="56.028160" lon="26.462692">
<ele>98.920959</ele>
<time>2010-06-20T10:08:17Z</time>
<desc>lat.=56.028160, lon.=26.462692, Alt.=98.920959m. Speed=8.064000m/h.</desc>
<speed>2.240000</speed>
</trkpt>
<trkpt lat="56.028141" lon="26.462709">
<ele>99.045959</ele>
<time>2010-06-20T10:08:18Z</time>
<desc>lat.=56.028141, lon.=26.462709, Alt.=99.045959m. Speed=6.336000m/h.</desc>
<speed>1.760000</speed>
</trkpt>
<trkpt lat="56.028126" lon="26.462717">
<ele>98.983459</ele>
<time>2010-06-20T10:08:19Z</time>
<desc>lat.=56.028126, lon.=26.462717, Alt.=98.983459m. Speed=5.724000m/h.</desc>
<speed>1.590000</speed>
</trkpt>
<trkpt lat="56.028111" lon="26.462723">
<ele>98.979553</ele>
<time>2010-06-20T10:08:20Z</time>
<desc>lat.=56.028111, lon.=26.462723, Alt.=98.979553m. Speed=4.752000m/h.</desc>
<speed>1.320000</speed>
</trkpt>
<trkpt lat="56.028095" lon="26.462729">
<ele>98.997131</ele>
<time>2010-06-20T10:08:21Z</time>
<desc>lat.=56.028095, lon.=26.462729, Alt.=98.997131m. Speed=3.492000m/h.</desc>
<speed>0.970000</speed>
</trkpt>
<trkpt lat="56.028091" lon="26.462734">
<ele>98.975647</ele>
<time>2010-06-20T10:08:22Z</time>
<desc>lat.=56.028091, lon.=26.462734, Alt.=98.975647m. Speed=0.828000m/h.</desc>
<speed>0.230000</speed>
</trkpt>
<trkpt lat="56.028095" lon="26.462740">
<ele>99.319397</ele>
<time>2010-06-20T10:08:23Z</time>
<desc>lat.=56.028095, lon.=26.462740, Alt.=99.319397m. Speed=0.504000m/h.</desc>
<speed>0.140000</speed>
</trkpt>
<trkpt lat="56.028103" lon="26.462748">
<ele>99.329163</ele>
<time>2010-06-20T10:08:24Z</time>
<desc>lat.=56.028103, lon.=26.462748, Alt.=99.329163m. Speed=0.324000m/h.</desc>
<speed>0.090000</speed>
</trkpt>
<trkpt lat="56.028103" lon="26.462757">
<ele>99.491272</ele>
<time>2010-06-20T10:08:25Z</time>
<desc>lat.=56.028103, lon.=26.462757, Alt.=99.491272m. Speed=0.072000m/h.</desc>
<speed>0.020000</speed>
</trkpt>
<trkpt lat="56.028103" lon="26.462757">
<ele>99.461975</ele>
<time>2010-06-20T10:08:26Z</time>
<desc>lat.=56.028103, lon.=26.462757, Alt.=99.461975m. Speed=0.396000m/h.</desc>
<speed>0.110000</speed>
</trkpt>
<trkpt lat="56.028103" lon="26.462757">
<ele>99.473694</ele>
<time>2010-06-20T10:08:27Z</time>
<desc>lat.=56.028103, lon.=26.462757, Alt.=99.473694m. Speed=0.216000m/h.</desc>
<speed>0.060000</speed>
</trkpt>
<trkpt lat="56.028103" lon="26.462757">
<ele>99.495178</ele>
<time>2010-06-20T10:08:28Z</time>
<desc>lat.=56.028103, lon.=26.462757, Alt.=99.495178m. Speed=0.180000m/h.</desc>
<speed>0.050000</speed>
</trkpt>
<trkpt lat="56.028103" lon="26.462757">
<ele>99.514709</ele>
<time>2010-06-20T10:08:29Z</time>
<desc>lat.=56.028103, lon.=26.462757, Alt.=99.514709m. Speed=0.180000m/h.</desc>
<speed>0.050000</speed>
</trkpt>
<trkpt lat="56.028103" lon="26.462757">
<ele>99.532288</ele>
<time>2010-06-20T10:08:30Z</time>
<desc>lat.=56.028103, lon.=26.462757, Alt.=99.532288m. Speed=0.216000m/h.</desc>
<speed>0.060000</speed>
</trkpt>
<trkpt lat="56.028103" lon="26.462755">
<ele>99.551819</ele>
<time>2010-06-20T10:08:31Z</time>
<desc>lat.=56.028103, lon.=26.462755, Alt.=99.551819m. Speed=0.252000m/h.</desc>
<speed>0.070000</speed>
</trkpt>
<trkpt lat="56.028103" lon="26.462755">
<ele>99.567444</ele>
<time>2010-06-20T10:08:32Z</time>
<desc>lat.=56.028103, lon.=26.462755, Alt.=99.567444m. Speed=0.252000m/h.</desc>
<speed>0.070000</speed>
</trkpt>
<trkpt lat="56.028103" lon="26.462753">
<ele>99.581116</ele>
<time>2010-06-20T10:08:33Z</time>
<desc>lat.=56.028103, lon.=26.462753, Alt.=99.581116m. Speed=0.036000m/h.</desc>
<speed>0.010000</speed>
</trkpt>
<trkpt lat="56.028103" lon="26.462753">
<ele>99.594788</ele>
<time>2010-06-20T10:08:34Z</time>
<desc>lat.=56.028103, lon.=26.462753, Alt.=99.594788m. Speed=0.216000m/h.</desc>
<speed>0.060000</speed>
</trkpt>
<trkpt lat="56.028103" lon="26.462753">
<ele>99.606506</ele>
<time>2010-06-20T10:08:35Z</time>
<desc>lat.=56.028103, lon.=26.462753, Alt.=99.606506m. Speed=0.252000m/h.</desc>
<speed>0.070000</speed>
</trkpt>
<trkpt lat="56.028103" lon="26.462753">
<ele>99.610413</ele>
<time>2010-06-20T10:08:36Z</time>
<desc>lat.=56.028103, lon.=26.462753, Alt.=99.610413m. Speed=0.036000m/h.</desc>
<speed>0.010000</speed>
</trkpt>
<trkpt lat="56.028103" lon="26.462755">
<ele>99.612366</ele>
<time>2010-06-20T10:08:37Z</time>
<desc>lat.=56.028103, lon.=26.462755, Alt.=99.612366m. Speed=0.036000m/h.</desc>
<speed>0.010000</speed>
</trkpt>
<trkpt lat="56.028103" lon="26.462755">
<ele>99.612366</ele>
<time>2010-06-20T10:08:38Z</time>
<desc>lat.=56.028103, lon.=26.462755, Alt.=99.612366m. Speed=0.000000m/h.</desc>
<speed>0.000000</speed>
</trkpt>
<trkpt lat="56.028103" lon="26.462755">
<ele>99.616272</ele>
<time>2010-06-20T10:08:39Z</time>
<desc>lat.=56.028103, lon.=26.462755, Alt.=99.616272m. Speed=0.612000m/h.</desc>
<speed>0.170000</speed>
</trkpt>
<trkpt lat="56.028103" lon="26.462753">
<ele>99.602600</ele>
<time>2010-06-20T10:08:40Z</time>
<desc>lat.=56.028103, lon.=26.462753, Alt.=99.602600m. Speed=0.576000m/h.</desc>
<speed>0.160000</speed>
</trkpt>
<trkpt lat="56.028103" lon="26.462753">
<ele>99.602600</ele>
<time>2010-06-20T10:08:41Z</time>
<desc>lat.=56.028103, lon.=26.462753, Alt.=99.602600m. Speed=0.324000m/h.</desc>
<speed>0.090000</speed>
</trkpt>
<trkpt lat="56.028099" lon="26.462751">
<ele>99.598694</ele>
<time>2010-06-20T10:08:42Z</time>
<desc>lat.=56.028099, lon.=26.462751, Alt.=99.598694m. Speed=0.720000m/h.</desc>
<speed>0.200000</speed>
</trkpt>
<trkpt lat="56.028099" lon="26.462749">
<ele>99.594788</ele>
<time>2010-06-20T10:08:43Z</time>
<desc>lat.=56.028099, lon.=26.462749, Alt.=99.594788m. Speed=0.828000m/h.</desc>
<speed>0.230000</speed>
</trkpt>
<trkpt lat="56.028099" lon="26.462748">
<ele>99.590881</ele>
<time>2010-06-20T10:08:44Z</time>
<desc>lat.=56.028099, lon.=26.462748, Alt.=99.590881m. Speed=0.720000m/h.</desc>
<speed>0.200000</speed>
</trkpt>
<trkpt lat="56.028095" lon="26.462746">
<ele>99.585022</ele>
<time>2010-06-20T10:08:45Z</time>
<desc>lat.=56.028095, lon.=26.462746, Alt.=99.585022m. Speed=0.648000m/h.</desc>
<speed>0.180000</speed>
</trkpt>
<trkpt lat="56.028095" lon="26.462742">
<ele>99.577209</ele>
<time>2010-06-20T10:08:46Z</time>
<desc>lat.=56.028095, lon.=26.462742, Alt.=99.577209m. Speed=0.684000m/h.</desc>
<speed>0.190000</speed>
</trkpt>
<trkpt lat="56.028095" lon="26.462740">
<ele>99.565491</ele>
<time>2010-06-20T10:08:47Z</time>
<desc>lat.=56.028095, lon.=26.462740, Alt.=99.565491m. Speed=0.720000m/h.</desc>
<speed>0.200000</speed>
</trkpt>
<trkpt lat="56.028091" lon="26.462738">
<ele>99.553772</ele>
<time>2010-06-20T10:08:48Z</time>
<desc>lat.=56.028091, lon.=26.462738, Alt.=99.553772m. Speed=0.792000m/h.</desc>
<speed>0.220000</speed>
</trkpt>
<trkpt lat="56.028091" lon="26.462738">
<ele>99.542053</ele>
<time>2010-06-20T10:08:49Z</time>
<desc>lat.=56.028091, lon.=26.462738, Alt.=99.542053m. Speed=0.756000m/h.</desc>
<speed>0.210000</speed>
</trkpt>
<trkpt lat="56.028088" lon="26.462736">
<ele>99.528381</ele>
<time>2010-06-20T10:08:50Z</time>
<desc>lat.=56.028088, lon.=26.462736, Alt.=99.528381m. Speed=0.540000m/h.</desc>
<speed>0.150000</speed>
</trkpt>
<trkpt lat="56.028088" lon="26.462734">
<ele>99.510803</ele>
<time>2010-06-20T10:08:51Z</time>
<desc>lat.=56.028088, lon.=26.462734, Alt.=99.510803m. Speed=0.612000m/h.</desc>
<speed>0.170000</speed>
</trkpt>
<trkpt lat="56.028088" lon="26.462734">
<ele>99.491272</ele>
<time>2010-06-20T10:08:52Z</time>
<desc>lat.=56.028088, lon.=26.462734, Alt.=99.491272m. Speed=0.540000m/h.</desc>
<speed>0.150000</speed>
</trkpt>
<trkpt lat="56.028084" lon="26.462732">
<ele>99.469788</ele>
<time>2010-06-20T10:08:53Z</time>
<desc>lat.=56.028084, lon.=26.462732, Alt.=99.469788m. Speed=0.108000m/h.</desc>
<speed>0.030000</speed>
</trkpt>
<trkpt lat="56.028084" lon="26.462732">
<ele>99.452209</ele>
<time>2010-06-20T10:08:54Z</time>
<desc>lat.=56.028084, lon.=26.462732, Alt.=99.452209m. Speed=0.072000m/h.</desc>
<speed>0.020000</speed>
</trkpt>
<trkpt lat="56.028084" lon="26.462732">
<ele>99.434631</ele>
<time>2010-06-20T10:08:55Z</time>
<desc>lat.=56.028084, lon.=26.462732, Alt.=99.434631m. Speed=0.072000m/h.</desc>
<speed>0.020000</speed>
</trkpt>
<trkpt lat="56.028084" lon="26.462732">
<ele>99.417053</ele>
<time>2010-06-20T10:08:56Z</time>
<desc>lat.=56.028084, lon.=26.462732, Alt.=99.417053m. Speed=0.072000m/h.</desc>
<speed>0.020000</speed>
</trkpt>
<trkpt lat="56.028084" lon="26.462732">
<ele>99.401428</ele>
<time>2010-06-20T10:08:57Z</time>
<desc>lat.=56.028084, lon.=26.462732, Alt.=99.401428m. Speed=0.072000m/h.</desc>
<speed>0.020000</speed>
</trkpt>
<trkpt lat="56.028088" lon="26.462732">
<ele>99.385803</ele>
<time>2010-06-20T10:08:58Z</time>
<desc>lat.=56.028088, lon.=26.462732, Alt.=99.385803m. Speed=0.108000m/h.</desc>
<speed>0.030000</speed>
</trkpt>
<trkpt lat="56.028088" lon="26.462734">
<ele>99.372131</ele>
<time>2010-06-20T10:08:59Z</time>
<desc>lat.=56.028088, lon.=26.462734, Alt.=99.372131m. Speed=0.072000m/h.</desc>
<speed>0.020000</speed>
</trkpt>
<trkpt lat="56.028088" lon="26.462734">
<ele>99.354553</ele>
<time>2010-06-20T10:09:00Z</time>
<desc>lat.=56.028088, lon.=26.462734, Alt.=99.354553m. Speed=0.072000m/h.</desc>
<speed>0.020000</speed>
</trkpt>
<trkpt lat="56.028088" lon="26.462734">
<ele>99.338928</ele>
<time>2010-06-20T10:09:01Z</time>
<desc>lat.=56.028088, lon.=26.462734, Alt.=99.338928m. Speed=0.036000m/h.</desc>
<speed>0.010000</speed>
</trkpt>
<trkpt lat="56.028088" lon="26.462732">
<ele>99.325256</ele>
<time>2010-06-20T10:09:02Z</time>
<desc>lat.=56.028088, lon.=26.462732, Alt.=99.325256m. Speed=0.000000m/h.</desc>
<speed>0.000000</speed>
</trkpt>
<trkpt lat="56.028088" lon="26.462732">
<ele>99.309631</ele>
<time>2010-06-20T10:09:03Z</time>
<desc>lat.=56.028088, lon.=26.462732, Alt.=99.309631m. Speed=0.072000m/h.</desc>
<speed>0.020000</speed>
</trkpt>
<trkpt lat="56.028088" lon="26.462734">
<ele>99.295959</ele>
<time>2010-06-20T10:09:04Z</time>
<desc>lat.=56.028088, lon.=26.462734, Alt.=99.295959m. Speed=0.252000m/h.</desc>
<speed>0.070000</speed>
</trkpt>
<trkpt lat="56.028088" lon="26.462734">
<ele>99.297913</ele>
<time>2010-06-20T10:09:05Z</time>
<desc>lat.=56.028088, lon.=26.462734, Alt.=99.297913m. Speed=0.180000m/h.</desc>
<speed>0.050000</speed>
</trkpt>
<trkpt lat="56.028088" lon="26.462734">
<ele>99.299866</ele>
<time>2010-06-20T10:09:06Z</time>
<desc>lat.=56.028088, lon.=26.462734, Alt.=99.299866m. Speed=0.900000m/h.</desc>
<speed>0.250000</speed>
</trkpt>
<trkpt lat="56.028088" lon="26.462738">
<ele>99.309631</ele>
<time>2010-06-20T10:09:07Z</time>
<desc>lat.=56.028088, lon.=26.462738, Alt.=99.309631m. Speed=0.936000m/h.</desc>
<speed>0.260000</speed>
</trkpt>
<trkpt lat="56.028088" lon="26.462742">
<ele>99.323303</ele>
<time>2010-06-20T10:09:08Z</time>
<desc>lat.=56.028088, lon.=26.462742, Alt.=99.323303m. Speed=1.080000m/h.</desc>
<speed>0.300000</speed>
</trkpt>
<trkpt lat="56.028095" lon="26.462755">
<ele>99.344788</ele>
<time>2010-06-20T10:09:09Z</time>
<desc>lat.=56.028095, lon.=26.462755, Alt.=99.344788m. Speed=1.260000m/h.</desc>
<speed>0.350000</speed>
</trkpt>
<trkpt lat="56.028099" lon="26.462776">
<ele>99.600647</ele>
<time>2010-06-20T10:09:10Z</time>
<desc>lat.=56.028099, lon.=26.462776, Alt.=99.600647m. Speed=1.584000m/h.</desc>
<speed>0.440000</speed>
</trkpt>
<trkpt lat="56.028099" lon="26.462793">
<ele>100.034241</ele>
<time>2010-06-20T10:09:11Z</time>
<desc>lat.=56.028099, lon.=26.462793, Alt.=100.034241m. Speed=1.800000m/h.</desc>
<speed>0.500000</speed>
</trkpt>
<trkpt lat="56.028088" lon="26.462803">
<ele>100.661194</ele>
<time>2010-06-20T10:09:12Z</time>
<desc>lat.=56.028088, lon.=26.462803, Alt.=100.661194m. Speed=1.980000m/h.</desc>
<speed>0.550000</speed>
</trkpt>
<trkpt lat="56.028084" lon="26.462830">
<ele>100.657288</ele>
<time>2010-06-20T10:09:13Z</time>
<desc>lat.=56.028084, lon.=26.462830, Alt.=100.657288m. Speed=4.932000m/h.</desc>
<speed>1.370000</speed>
</trkpt>
<trkpt lat="56.028076" lon="26.462860">
<ele>100.516663</ele>
<time>2010-06-20T10:09:14Z</time>
<desc>lat.=56.028076, lon.=26.462860, Alt.=100.516663m. Speed=5.940000m/h.</desc>
<speed>1.650000</speed>
</trkpt>
<trkpt lat="56.028069" lon="26.462893">
<ele>100.504944</ele>
<time>2010-06-20T10:09:15Z</time>
<desc>lat.=56.028069, lon.=26.462893, Alt.=100.504944m. Speed=6.300000m/h.</desc>
<speed>1.750000</speed>
</trkpt>
<trkpt lat="56.028061" lon="26.462944">
<ele>100.262756</ele>
<time>2010-06-20T10:09:16Z</time>
<desc>lat.=56.028061, lon.=26.462944, Alt.=100.262756m. Speed=8.496000m/h.</desc>
<speed>2.360000</speed>
</trkpt>
<trkpt lat="56.028053" lon="26.462982">
<ele>99.866272</ele>
<time>2010-06-20T10:09:17Z</time>
<desc>lat.=56.028053, lon.=26.462982, Alt.=99.866272m. Speed=8.784000m/h.</desc>
<speed>2.440000</speed>
</trkpt>
<trkpt lat="56.028049" lon="26.463024">
<ele>99.583069</ele>
<time>2010-06-20T10:09:18Z</time>
<desc>lat.=56.028049, lon.=26.463024, Alt.=99.583069m. Speed=7.812000m/h.</desc>
<speed>2.170000</speed>
</trkpt>
<trkpt lat="56.028042" lon="26.463072">
<ele>99.139709</ele>
<time>2010-06-20T10:09:19Z</time>
<desc>lat.=56.028042, lon.=26.463072, Alt.=99.139709m. Speed=8.316000m/h.</desc>
<speed>2.310000</speed>
</trkpt>
<trkpt lat="56.028042" lon="26.463108">
<ele>99.270569</ele>
<time>2010-06-20T10:09:20Z</time>
<desc>lat.=56.028042, lon.=26.463108, Alt.=99.270569m. Speed=6.984000m/h.</desc>
<speed>1.940000</speed>
</trkpt>
<trkpt lat="56.028042" lon="26.463140">
<ele>99.323303</ele>
<time>2010-06-20T10:09:21Z</time>
<desc>lat.=56.028042, lon.=26.463140, Alt.=99.323303m. Speed=5.940000m/h.</desc>
<speed>1.650000</speed>
</trkpt>
<trkpt lat="56.028038" lon="26.463173">
<ele>99.026428</ele>
<time>2010-06-20T10:09:22Z</time>
<desc>lat.=56.028038, lon.=26.463173, Alt.=99.026428m. Speed=6.552000m/h.</desc>
<speed>1.820000</speed>
</trkpt>
<trkpt lat="56.028038" lon="26.463209">
<ele>98.436584</ele>
<time>2010-06-20T10:09:23Z</time>
<desc>lat.=56.028038, lon.=26.463209, Alt.=98.436584m. Speed=5.040000m/h.</desc>
<speed>1.400000</speed>
</trkpt>
<trkpt lat="56.028034" lon="26.463236">
<ele>98.405334</ele>
<time>2010-06-20T10:09:24Z</time>
<desc>lat.=56.028034, lon.=26.463236, Alt.=98.405334m. Speed=5.544000m/h.</desc>
<speed>1.540000</speed>
</trkpt>
<trkpt lat="56.028030" lon="26.463257">
<ele>98.458069</ele>
<time>2010-06-20T10:09:25Z</time>
<desc>lat.=56.028030, lon.=26.463257, Alt.=98.458069m. Speed=4.896000m/h.</desc>
<speed>1.360000</speed>
</trkpt>
<trkpt lat="56.028030" lon="26.463280">
<ele>98.676819</ele>
<time>2010-06-20T10:09:26Z</time>
<desc>lat.=56.028030, lon.=26.463280, Alt.=98.676819m. Speed=4.140000m/h.</desc>
<speed>1.150000</speed>
</trkpt>
<trkpt lat="56.028034" lon="26.463301">
<ele>98.838928</ele>
<time>2010-06-20T10:09:27Z</time>
<desc>lat.=56.028034, lon.=26.463301, Alt.=98.838928m. Speed=3.744000m/h.</desc>
<speed>1.040000</speed>
</trkpt>
<trkpt lat="56.028030" lon="26.463329">
<ele>101.409241</ele>
<time>2010-06-20T10:09:28Z</time>
<desc>lat.=56.028030, lon.=26.463329, Alt.=101.409241m. Speed=4.104000m/h.</desc>
<speed>1.140000</speed>
</trkpt>
<trkpt lat="56.028034" lon="26.463356">
<ele>102.030334</ele>
<time>2010-06-20T10:09:29Z</time>
<desc>lat.=56.028034, lon.=26.463356, Alt.=102.030334m. Speed=4.896000m/h.</desc>
<speed>1.360000</speed>
</trkpt>
<trkpt lat="56.028038" lon="26.463379">
<ele>101.961975</ele>
<time>2010-06-20T10:09:30Z</time>
<desc>lat.=56.028038, lon.=26.463379, Alt.=101.961975m. Speed=4.788000m/h.</desc>
<speed>1.330000</speed>
</trkpt>
<trkpt lat="56.028034" lon="26.463409">
<ele>102.153381</ele>
<time>2010-06-20T10:09:31Z</time>
<desc>lat.=56.028034, lon.=26.463409, Alt.=102.153381m. Speed=5.868000m/h.</desc>
<speed>1.630000</speed>
</trkpt>
<trkpt lat="56.028034" lon="26.463430">
<ele>101.756897</ele>
<time>2010-06-20T10:09:32Z</time>
<desc>lat.=56.028034, lon.=26.463430, Alt.=101.756897m. Speed=4.644000m/h.</desc>
<speed>1.290000</speed>
</trkpt>
<trkpt lat="56.028023" lon="26.463453">
<ele>101.569397</ele>
<time>2010-06-20T10:09:33Z</time>
<desc>lat.=56.028023, lon.=26.463453, Alt.=101.569397m. Speed=7.200000m/h.</desc>
<speed>2.000000</speed>
</trkpt>
<trkpt lat="56.027996" lon="26.463480">
<ele>101.874084</ele>
<time>2010-06-20T10:09:34Z</time>
<desc>lat.=56.027996, lon.=26.463480, Alt.=101.874084m. Speed=8.532000m/h.</desc>
<speed>2.370000</speed>
</trkpt>
<trkpt lat="56.027973" lon="26.463495">
<ele>102.333069</ele>
<time>2010-06-20T10:09:35Z</time>
<desc>lat.=56.027973, lon.=26.463495, Alt.=102.333069m. Speed=10.872000m/h.</desc>
<speed>3.020000</speed>
</trkpt>
<trkpt lat="56.027954" lon="26.463511">
<ele>102.124084</ele>
<time>2010-06-20T10:09:36Z</time>
<desc>lat.=56.027954, lon.=26.463511, Alt.=102.124084m. Speed=6.876000m/h.</desc>
<speed>1.910000</speed>
</trkpt>
<trkpt lat="56.027939" lon="26.463509">
<ele>102.397522</ele>
<time>2010-06-20T10:09:37Z</time>
<desc>lat.=56.027939, lon.=26.463509, Alt.=102.397522m. Speed=6.552000m/h.</desc>
<speed>1.820000</speed>
</trkpt>
<trkpt lat="56.027920" lon="26.463503">
<ele>102.590881</ele>
<time>2010-06-20T10:09:38Z</time>
<desc>lat.=56.027920, lon.=26.463503, Alt.=102.590881m. Speed=6.588000m/h.</desc>
<speed>1.830000</speed>
</trkpt>
<trkpt lat="56.027897" lon="26.463497">
<ele>102.797913</ele>
<time>2010-06-20T10:09:39Z</time>
<desc>lat.=56.027897, lon.=26.463497, Alt.=102.797913m. Speed=7.092000m/h.</desc>
<speed>1.970000</speed>
</trkpt>
<trkpt lat="56.027878" lon="26.463478">
<ele>103.108459</ele>
<time>2010-06-20T10:09:40Z</time>
<desc>lat.=56.027878, lon.=26.463478, Alt.=103.108459m. Speed=6.984000m/h.</desc>
<speed>1.940000</speed>
</trkpt>
<trkpt lat="56.027851" lon="26.463470">
<ele>103.460022</ele>
<time>2010-06-20T10:09:41Z</time>
<desc>lat.=56.027851, lon.=26.463470, Alt.=103.460022m. Speed=8.604000m/h.</desc>
<speed>2.390000</speed>
</trkpt>
<trkpt lat="56.027824" lon="26.463478">
<ele>103.879944</ele>
<time>2010-06-20T10:09:42Z</time>
<desc>lat.=56.027824, lon.=26.463478, Alt.=103.879944m. Speed=6.084000m/h.</desc>
<speed>1.690000</speed>
</trkpt>
<trkpt lat="56.027809" lon="26.463482">
<ele>104.284241</ele>
<time>2010-06-20T10:09:43Z</time>
<desc>lat.=56.027809, lon.=26.463482, Alt.=104.284241m. Speed=5.076000m/h.</desc>
<speed>1.410000</speed>
</trkpt>
<trkpt lat="56.027790" lon="26.463478">
<ele>104.454163</ele>
<time>2010-06-20T10:09:44Z</time>
<desc>lat.=56.027790, lon.=26.463478, Alt.=104.454163m. Speed=4.752000m/h.</desc>
<speed>1.320000</speed>
</trkpt>
<trkpt lat="56.027775" lon="26.463482">
<ele>104.432678</ele>
<time>2010-06-20T10:09:45Z</time>
<desc>lat.=56.027775, lon.=26.463482, Alt.=104.432678m. Speed=4.680000m/h.</desc>
<speed>1.300000</speed>
</trkpt>
<trkpt lat="56.027760" lon="26.463484">
<ele>104.424866</ele>
<time>2010-06-20T10:09:46Z</time>
<desc>lat.=56.027760, lon.=26.463484, Alt.=104.424866m. Speed=4.320000m/h.</desc>
<speed>1.200000</speed>
</trkpt>
<trkpt lat="56.027740" lon="26.463491">
<ele>104.227600</ele>
<time>2010-06-20T10:09:47Z</time>
<desc>lat.=56.027740, lon.=26.463491, Alt.=104.227600m. Speed=3.384000m/h.</desc>
<speed>0.940000</speed>
</trkpt>
<trkpt lat="56.027714" lon="26.463507">
<ele>104.069397</ele>
<time>2010-06-20T10:09:48Z</time>
<desc>lat.=56.027714, lon.=26.463507, Alt.=104.069397m. Speed=5.292000m/h.</desc>
<speed>1.470000</speed>
</trkpt>
<trkpt lat="56.027702" lon="26.463537">
<ele>104.276428</ele>
<time>2010-06-20T10:09:49Z</time>
<desc>lat.=56.027702, lon.=26.463537, Alt.=104.276428m. Speed=7.020000m/h.</desc>
<speed>1.950000</speed>
</trkpt>
<trkpt lat="56.027691" lon="26.463566">
<ele>104.495178</ele>
<time>2010-06-20T10:09:50Z</time>
<desc>lat.=56.027691, lon.=26.463566, Alt.=104.495178m. Speed=5.076000m/h.</desc>
<speed>1.410000</speed>
</trkpt>
<trkpt lat="56.027679" lon="26.463594">
<ele>104.469788</ele>
<time>2010-06-20T10:09:51Z</time>
<desc>lat.=56.027679, lon.=26.463594, Alt.=104.469788m. Speed=8.604000m/h.</desc>
<speed>2.390000</speed>
</trkpt>
<trkpt lat="56.027668" lon="26.463636">
<ele>104.485413</ele>
<time>2010-06-20T10:09:52Z</time>
<desc>lat.=56.027668, lon.=26.463636, Alt.=104.485413m. Speed=9.288000m/h.</desc>
<speed>2.580000</speed>
</trkpt>
<trkpt lat="56.027645" lon="26.463692">
<ele>104.153381</ele>
<time>2010-06-20T10:09:53Z</time>
<desc>lat.=56.027645, lon.=26.463692, Alt.=104.153381m. Speed=12.636000m/h.</desc>
<speed>3.510000</speed>
</trkpt>
<trkpt lat="56.027618" lon="26.463760">
<ele>104.155334</ele>
<time>2010-06-20T10:09:54Z</time>
<desc>lat.=56.027618, lon.=26.463760, Alt.=104.155334m. Speed=16.488001m/h.</desc>
<speed>4.580000</speed>
</trkpt>
<trkpt lat="56.027596" lon="26.463839">
<ele>103.711975</ele>
<time>2010-06-20T10:09:55Z</time>
<desc>lat.=56.027596, lon.=26.463839, Alt.=103.711975m. Speed=16.632000m/h.</desc>
<speed>4.620000</speed>
</trkpt>
<trkpt lat="56.027576" lon="26.463928">
<ele>103.493225</ele>
<time>2010-06-20T10:09:56Z</time>
<desc>lat.=56.027576, lon.=26.463928, Alt.=103.493225m. Speed=19.224001m/h.</desc>
<speed>5.340000</speed>
</trkpt>
<trkpt lat="56.027550" lon="26.464020">
<ele>103.182678</ele>
<time>2010-06-20T10:09:57Z</time>
<desc>lat.=56.027550, lon.=26.464020, Alt.=103.182678m. Speed=20.195999m/h.</desc>
<speed>5.610000</speed>
</trkpt>
<trkpt lat="56.027531" lon="26.464132">
<ele>102.364319</ele>
<time>2010-06-20T10:09:58Z</time>
<desc>lat.=56.027531, lon.=26.464132, Alt.=102.364319m. Speed=18.792000m/h.</desc>
<speed>5.220000</speed>
</trkpt>
<trkpt lat="56.027500" lon="26.464233">
<ele>101.110413</ele>
<time>2010-06-20T10:09:59Z</time>
<desc>lat.=56.027500, lon.=26.464233, Alt.=101.110413m. Speed=21.636000m/h.</desc>
<speed>6.010000</speed>
</trkpt>
<trkpt lat="56.027477" lon="26.464352">
<ele>100.151428</ele>
<time>2010-06-20T10:10:00Z</time>
<desc>lat.=56.027477, lon.=26.464352, Alt.=100.151428m. Speed=20.771999m/h.</desc>
<speed>5.770000</speed>
</trkpt>
<trkpt lat="56.027458" lon="26.464457">
<ele>99.241272</ele>
<time>2010-06-20T10:10:01Z</time>
<desc>lat.=56.027458, lon.=26.464457, Alt.=99.241272m. Speed=21.528000m/h.</desc>
<speed>5.980000</speed>
</trkpt>
<trkpt lat="56.027435" lon="26.464579">
<ele>98.073303</ele>
<time>2010-06-20T10:10:02Z</time>
<desc>lat.=56.027435, lon.=26.464579, Alt.=98.073303m. Speed=22.608000m/h.</desc>
<speed>6.280000</speed>
</trkpt>
<trkpt lat="56.027412" lon="26.464697">
<ele>97.026428</ele>
<time>2010-06-20T10:10:03Z</time>
<desc>lat.=56.027412, lon.=26.464697, Alt.=97.026428m. Speed=22.788000m/h.</desc>
<speed>6.330000</speed>
</trkpt>
<trkpt lat="56.027390" lon="26.464804">
<ele>97.247131</ele>
<time>2010-06-20T10:10:04Z</time>
<desc>lat.=56.027390, lon.=26.464804, Alt.=97.247131m. Speed=23.076000m/h.</desc>
<speed>6.410000</speed>
</trkpt>
<trkpt lat="56.027370" lon="26.464905">
<ele>95.983459</ele>
<time>2010-06-20T10:10:05Z</time>
<desc>lat.=56.027370, lon.=26.464905, Alt.=95.983459m. Speed=20.736000m/h.</desc>
<speed>5.760000</speed>
</trkpt>
<trkpt lat="56.027351" lon="26.464996">
<ele>95.006897</ele>
<time>2010-06-20T10:10:06Z</time>
<desc>lat.=56.027351, lon.=26.464996, Alt.=95.006897m. Speed=19.872000m/h.</desc>
<speed>5.520000</speed>
</trkpt>
<trkpt lat="56.027321" lon="26.465101">
<ele>94.186584</ele>
<time>2010-06-20T10:10:07Z</time>
<desc>lat.=56.027321, lon.=26.465101, Alt.=94.186584m. Speed=20.340000m/h.</desc>
<speed>5.650000</speed>
</trkpt>
<trkpt lat="56.027298" lon="26.465185">
<ele>93.653381</ele>
<time>2010-06-20T10:10:08Z</time>
<desc>lat.=56.027298, lon.=26.465185, Alt.=93.653381m. Speed=18.072001m/h.</desc>
<speed>5.020000</speed>
</trkpt>
<trkpt lat="56.027275" lon="26.465277">
<ele>92.952209</ele>
<time>2010-06-20T10:10:09Z</time>
<desc>lat.=56.027275, lon.=26.465277, Alt.=92.952209m. Speed=19.872000m/h.</desc>
<speed>5.520000</speed>
</trkpt>
<trkpt lat="56.027256" lon="26.465376">
<ele>91.971741</ele>
<time>2010-06-20T10:10:10Z</time>
<desc>lat.=56.027256, lon.=26.465376, Alt.=91.971741m. Speed=21.708000m/h.</desc>
<speed>6.030000</speed>
</trkpt>
<trkpt lat="56.027237" lon="26.465469">
<ele>90.850647</ele>
<time>2010-06-20T10:10:11Z</time>
<desc>lat.=56.027237, lon.=26.465469, Alt.=90.850647m. Speed=18.143999m/h.</desc>
<speed>5.040000</speed>
</trkpt>
<trkpt lat="56.027218" lon="26.465542">
<ele>90.627991</ele>
<time>2010-06-20T10:10:12Z</time>
<desc>lat.=56.027218, lon.=26.465542, Alt.=90.627991m. Speed=14.796000m/h.</desc>
<speed>4.110000</speed>
</trkpt>
<trkpt lat="56.027206" lon="26.465595">
<ele>89.965881</ele>
<time>2010-06-20T10:10:13Z</time>
<desc>lat.=56.027206, lon.=26.465595, Alt.=89.965881m. Speed=13.608000m/h.</desc>
<speed>3.780000</speed>
</trkpt>
<trkpt lat="56.027191" lon="26.465649">
<ele>89.647522</ele>
<time>2010-06-20T10:10:14Z</time>
<desc>lat.=56.027191, lon.=26.465649, Alt.=89.647522m. Speed=12.456000m/h.</desc>
<speed>3.460000</speed>
</trkpt>
<trkpt lat="56.027176" lon="26.465727">
<ele>89.627991</ele>
<time>2010-06-20T10:10:15Z</time>
<desc>lat.=56.027176, lon.=26.465727, Alt.=89.627991m. Speed=17.892000m/h.</desc>
<speed>4.970000</speed>
</trkpt>
<trkpt lat="56.027130" lon="26.465807">
<ele>89.536194</ele>
<time>2010-06-20T10:10:16Z</time>
<desc>lat.=56.027130, lon.=26.465807, Alt.=89.536194m. Speed=19.511999m/h.</desc>
<speed>5.420000</speed>
</trkpt>
<trkpt lat="56.027100" lon="26.465931">
<ele>88.182678</ele>
<time>2010-06-20T10:10:17Z</time>
<desc>lat.=56.027100, lon.=26.465931, Alt.=88.182678m. Speed=22.284000m/h.</desc>
<speed>6.190000</speed>
</trkpt>
<trkpt lat="56.027061" lon="26.466093">
<ele>86.926819</ele>
<time>2010-06-20T10:10:18Z</time>
<desc>lat.=56.027061, lon.=26.466093, Alt.=86.926819m. Speed=26.784000m/h.</desc>
<speed>7.440000</speed>
</trkpt>
<trkpt lat="56.027023" lon="26.466228">
<ele>86.752991</ele>
<time>2010-06-20T10:10:19Z</time>
<desc>lat.=56.027023, lon.=26.466228, Alt.=86.752991m. Speed=26.496000m/h.</desc>
<speed>7.360000</speed>
</trkpt>
<trkpt lat="56.026997" lon="26.466337">
<ele>87.251038</ele>
<time>2010-06-20T10:10:20Z</time>
<desc>lat.=56.026997, lon.=26.466337, Alt.=87.251038m. Speed=23.004000m/h.</desc>
<speed>6.390000</speed>
</trkpt>
<trkpt lat="56.026962" lon="26.466471">
<ele>87.387756</ele>
<time>2010-06-20T10:10:21Z</time>
<desc>lat.=56.026962, lon.=26.466471, Alt.=87.387756m. Speed=21.959999m/h.</desc>
<speed>6.100000</speed>
</trkpt>
<trkpt lat="56.026936" lon="26.466599">
<ele>87.512756</ele>
<time>2010-06-20T10:10:22Z</time>
<desc>lat.=56.026936, lon.=26.466599, Alt.=87.512756m. Speed=23.327999m/h.</desc>
<speed>6.480000</speed>
</trkpt>
<trkpt lat="56.026897" lon="26.466810">
<ele>87.377991</ele>
<time>2010-06-20T10:10:23Z</time>
<desc>lat.=56.026897, lon.=26.466810, Alt.=87.377991m. Speed=24.912001m/h.</desc>
<speed>6.920000</speed>
</trkpt>
<trkpt lat="56.026863" lon="26.466948">
<ele>86.786194</ele>
<time>2010-06-20T10:10:24Z</time>
<desc>lat.=56.026863, lon.=26.466948, Alt.=86.786194m. Speed=25.704000m/h.</desc>
<speed>7.140000</speed>
</trkpt>
<trkpt lat="56.026825" lon="26.467104">
<ele>86.516663</ele>
<time>2010-06-20T10:10:25Z</time>
<desc>lat.=56.026825, lon.=26.467104, Alt.=86.516663m. Speed=25.955999m/h.</desc>
<speed>7.210000</speed>
</trkpt>
<trkpt lat="56.026791" lon="26.467237">
<ele>85.096741</ele>
<time>2010-06-20T10:10:26Z</time>
<desc>lat.=56.026791, lon.=26.467237, Alt.=85.096741m. Speed=24.120001m/h.</desc>
<speed>6.700000</speed>
</trkpt>
<trkpt lat="56.026768" lon="26.467356">
<ele>83.874084</ele>
<time>2010-06-20T10:10:27Z</time>
<desc>lat.=56.026768, lon.=26.467356, Alt.=83.874084m. Speed=22.860001m/h.</desc>
<speed>6.350000</speed>
</trkpt>
<trkpt lat="56.026749" lon="26.467464">
<ele>83.372131</ele>
<time>2010-06-20T10:10:28Z</time>
<desc>lat.=56.026749, lon.=26.467464, Alt.=83.372131m. Speed=20.988001m/h.</desc>
<speed>5.830000</speed>
</trkpt>
<trkpt lat="56.026730" lon="26.467552">
<ele>82.751038</ele>
<time>2010-06-20T10:10:29Z</time>
<desc>lat.=56.026730, lon.=26.467552, Alt.=82.751038m. Speed=16.920000m/h.</desc>
<speed>4.700000</speed>
</trkpt>
<trkpt lat="56.026714" lon="26.467623">
<ele>82.075256</ele>
<time>2010-06-20T10:10:30Z</time>
<desc>lat.=56.026714, lon.=26.467623, Alt.=82.075256m. Speed=11.412000m/h.</desc>
<speed>3.170000</speed>
</trkpt>
<trkpt lat="56.026699" lon="26.467705">
<ele>81.616272</ele>
<time>2010-06-20T10:10:31Z</time>
<desc>lat.=56.026699, lon.=26.467705, Alt.=81.616272m. Speed=7.200000m/h.</desc>
<speed>2.000000</speed>
</trkpt>
<trkpt lat="56.026688" lon="26.467749">
<ele>81.079163</ele>
<time>2010-06-20T10:10:32Z</time>
<desc>lat.=56.026688, lon.=26.467749, Alt.=81.079163m. Speed=5.544000m/h.</desc>
<speed>1.540000</speed>
</trkpt>
<trkpt lat="56.026680" lon="26.467779">
<ele>81.190491</ele>
<time>2010-06-20T10:10:33Z</time>
<desc>lat.=56.026680, lon.=26.467779, Alt.=81.190491m. Speed=5.616000m/h.</desc>
<speed>1.560000</speed>
</trkpt>
<trkpt lat="56.026669" lon="26.467804">
<ele>80.061584</ele>
<time>2010-06-20T10:10:34Z</time>
<desc>lat.=56.026669, lon.=26.467804, Alt.=80.061584m. Speed=4.392000m/h.</desc>
<speed>1.220000</speed>
</trkpt>
<trkpt lat="56.026661" lon="26.467833">
<ele>79.264709</ele>
<time>2010-06-20T10:10:35Z</time>
<desc>lat.=56.026661, lon.=26.467833, Alt.=79.264709m. Speed=4.392000m/h.</desc>
<speed>1.220000</speed>
</trkpt>
<trkpt lat="56.026657" lon="26.467863">
<ele>78.055725</ele>
<time>2010-06-20T10:10:36Z</time>
<desc>lat.=56.026657, lon.=26.467863, Alt.=78.055725m. Speed=5.148000m/h.</desc>
<speed>1.430000</speed>
</trkpt>
<trkpt lat="56.026642" lon="26.467896">
<ele>77.452209</ele>
<time>2010-06-20T10:10:37Z</time>
<desc>lat.=56.026642, lon.=26.467896, Alt.=77.452209m. Speed=5.652000m/h.</desc>
<speed>1.570000</speed>
</trkpt>
<trkpt lat="56.026634" lon="26.467936">
<ele>77.260803</ele>
<time>2010-06-20T10:10:38Z</time>
<desc>lat.=56.026634, lon.=26.467936, Alt.=77.260803m. Speed=5.616000m/h.</desc>
<speed>1.560000</speed>
</trkpt>
<trkpt lat="56.026623" lon="26.467970">
<ele>76.481506</ele>
<time>2010-06-20T10:10:39Z</time>
<desc>lat.=56.026623, lon.=26.467970, Alt.=76.481506m. Speed=7.920000m/h.</desc>
<speed>2.200000</speed>
</trkpt>
<trkpt lat="56.026619" lon="26.468008">
<ele>76.225647</ele>
<time>2010-06-20T10:10:40Z</time>
<desc>lat.=56.026619, lon.=26.468008, Alt.=76.225647m. Speed=6.588000m/h.</desc>
<speed>1.830000</speed>
</trkpt>
<trkpt lat="56.026615" lon="26.468048">
<ele>76.274475</ele>
<time>2010-06-20T10:10:41Z</time>
<desc>lat.=56.026615, lon.=26.468048, Alt.=76.274475m. Speed=7.992000m/h.</desc>
<speed>2.220000</speed>
</trkpt>
<trkpt lat="56.026615" lon="26.468081">
<ele>76.010803</ele>
<time>2010-06-20T10:10:42Z</time>
<desc>lat.=56.026615, lon.=26.468081, Alt.=76.010803m. Speed=6.732000m/h.</desc>
<speed>1.870000</speed>
</trkpt>
<trkpt lat="56.026611" lon="26.468117">
<ele>75.606506</ele>
<time>2010-06-20T10:10:43Z</time>
<desc>lat.=56.026611, lon.=26.468117, Alt.=75.606506m. Speed=7.380000m/h.</desc>
<speed>2.050000</speed>
</trkpt>
<trkpt lat="56.026600" lon="26.468151">
<ele>75.374084</ele>
<time>2010-06-20T10:10:44Z</time>
<desc>lat.=56.026600, lon.=26.468151, Alt.=75.374084m. Speed=8.496000m/h.</desc>
<speed>2.360000</speed>
</trkpt>
<trkpt lat="56.026581" lon="26.468189">
<ele>75.157288</ele>
<time>2010-06-20T10:10:45Z</time>
<desc>lat.=56.026581, lon.=26.468189, Alt.=75.157288m. Speed=8.496000m/h.</desc>
<speed>2.360000</speed>
</trkpt>
<trkpt lat="56.026569" lon="26.468258">
<ele>75.585022</ele>
<time>2010-06-20T10:10:46Z</time>
<desc>lat.=56.026569, lon.=26.468258, Alt.=75.585022m. Speed=9.072000m/h.</desc>
<speed>2.520000</speed>
</trkpt>
<trkpt lat="56.026558" lon="26.468306">
<ele>75.190491</ele>
<time>2010-06-20T10:10:47Z</time>
<desc>lat.=56.026558, lon.=26.468306, Alt.=75.190491m. Speed=7.164000m/h.</desc>
<speed>1.990000</speed>
</trkpt>
<trkpt lat="56.026546" lon="26.468349">
<ele>75.610413</ele>
<time>2010-06-20T10:10:48Z</time>
<desc>lat.=56.026546, lon.=26.468349, Alt.=75.610413m. Speed=6.228000m/h.</desc>
<speed>1.730000</speed>
</trkpt>
<trkpt lat="56.026539" lon="26.468395">
<ele>76.641663</ele>
<time>2010-06-20T10:10:49Z</time>
<desc>lat.=56.026539, lon.=26.468395, Alt.=76.641663m. Speed=4.608000m/h.</desc>
<speed>1.280000</speed>
</trkpt>
<trkpt lat="56.026535" lon="26.468412">
<ele>77.118225</ele>
<time>2010-06-20T10:10:50Z</time>
<desc>lat.=56.026535, lon.=26.468412, Alt.=77.118225m. Speed=2.268000m/h.</desc>
<speed>0.630000</speed>
</trkpt>
<trkpt lat="56.026527" lon="26.468422">
<ele>77.069397</ele>
<time>2010-06-20T10:10:51Z</time>
<desc>lat.=56.026527, lon.=26.468422, Alt.=77.069397m. Speed=1.332000m/h.</desc>
<speed>0.370000</speed>
</trkpt>
<trkpt lat="56.026524" lon="26.468428">
<ele>77.116272</ele>
<time>2010-06-20T10:10:52Z</time>
<desc>lat.=56.026524, lon.=26.468428, Alt.=77.116272m. Speed=0.756000m/h.</desc>
<speed>0.210000</speed>
</trkpt>
<trkpt lat="56.026520" lon="26.468431">
<ele>77.604553</ele>
<time>2010-06-20T10:10:53Z</time>
<desc>lat.=56.026520, lon.=26.468431, Alt.=77.604553m. Speed=0.684000m/h.</desc>
<speed>0.190000</speed>
</trkpt>
<trkpt lat="56.026520" lon="26.468431">
<ele>77.536194</ele>
<time>2010-06-20T10:10:54Z</time>
<desc>lat.=56.026520, lon.=26.468431, Alt.=77.536194m. Speed=0.468000m/h.</desc>
<speed>0.130000</speed>
</trkpt>
<trkpt lat="56.026520" lon="26.468431">
<ele>77.461975</ele>
<time>2010-06-20T10:10:55Z</time>
<desc>lat.=56.026520, lon.=26.468431, Alt.=77.461975m. Speed=0.252000m/h.</desc>
<speed>0.070000</speed>
</trkpt>
<trkpt lat="56.026516" lon="26.468431">
<ele>77.407288</ele>
<time>2010-06-20T10:10:56Z</time>
<desc>lat.=56.026516, lon.=26.468431, Alt.=77.407288m. Speed=0.396000m/h.</desc>
<speed>0.110000</speed>
</trkpt>
<trkpt lat="56.026516" lon="26.468433">
<ele>77.387756</ele>
<time>2010-06-20T10:10:57Z</time>
<desc>lat.=56.026516, lon.=26.468433, Alt.=77.387756m. Speed=0.000000m/h.</desc>
<speed>0.000000</speed>
</trkpt>
<trkpt lat="56.026516" lon="26.468433">
<ele>77.403381</ele>
<time>2010-06-20T10:10:58Z</time>
<desc>lat.=56.026516, lon.=26.468433, Alt.=77.403381m. Speed=0.072000m/h.</desc>
<speed>0.020000</speed>
</trkpt>
<trkpt lat="56.026516" lon="26.468433">
<ele>77.395569</ele>
<time>2010-06-20T10:10:59Z</time>
<desc>lat.=56.026516, lon.=26.468433, Alt.=77.395569m. Speed=0.108000m/h.</desc>
<speed>0.030000</speed>
</trkpt>
<trkpt lat="56.026516" lon="26.468433">
<ele>77.403381</ele>
<time>2010-06-20T10:11:00Z</time>
<desc>lat.=56.026516, lon.=26.468433, Alt.=77.403381m. Speed=0.036000m/h.</desc>
<speed>0.010000</speed>
</trkpt>
<trkpt lat="56.026516" lon="26.468433">
<ele>77.454163</ele>
<time>2010-06-20T10:11:01Z</time>
<desc>lat.=56.026516, lon.=26.468433, Alt.=77.454163m. Speed=0.036000m/h.</desc>
<speed>0.010000</speed>
</trkpt>
<trkpt lat="56.026516" lon="26.468433">
<ele>77.493225</ele>
<time>2010-06-20T10:11:02Z</time>
<desc>lat.=56.026516, lon.=26.468433, Alt.=77.493225m. Speed=0.036000m/h.</desc>
<speed>0.010000</speed>
</trkpt>
<trkpt lat="56.026516" lon="26.468435">
<ele>77.526428</ele>
<time>2010-06-20T10:11:03Z</time>
<desc>lat.=56.026516, lon.=26.468435, Alt.=77.526428m. Speed=0.072000m/h.</desc>
<speed>0.020000</speed>
</trkpt>
<trkpt lat="56.026516" lon="26.468435">
<ele>77.544006</ele>
<time>2010-06-20T10:11:04Z</time>
<desc>lat.=56.026516, lon.=26.468435, Alt.=77.544006m. Speed=0.108000m/h.</desc>
<speed>0.030000</speed>
</trkpt>
<trkpt lat="56.026516" lon="26.468435">
<ele>77.567444</ele>
<time>2010-06-20T10:11:05Z</time>
<desc>lat.=56.026516, lon.=26.468435, Alt.=77.567444m. Speed=0.108000m/h.</desc>
<speed>0.030000</speed>
</trkpt>
<trkpt lat="56.026516" lon="26.468435">
<ele>77.592834</ele>
<time>2010-06-20T10:11:06Z</time>
<desc>lat.=56.026516, lon.=26.468435, Alt.=77.592834m. Speed=0.180000m/h.</desc>
<speed>0.050000</speed>
</trkpt>
<trkpt lat="56.026516" lon="26.468435">
<ele>77.602600</ele>
<time>2010-06-20T10:11:07Z</time>
<desc>lat.=56.026516, lon.=26.468435, Alt.=77.602600m. Speed=1.080000m/h.</desc>
<speed>0.300000</speed>
</trkpt>
<trkpt lat="56.026516" lon="26.468439">
<ele>77.622131</ele>
<time>2010-06-20T10:11:08Z</time>
<desc>lat.=56.026516, lon.=26.468439, Alt.=77.622131m. Speed=0.468000m/h.</desc>
<speed>0.130000</speed>
</trkpt>
<trkpt lat="56.026512" lon="26.468441">
<ele>77.651428</ele>
<time>2010-06-20T10:11:09Z</time>
<desc>lat.=56.026512, lon.=26.468441, Alt.=77.651428m. Speed=0.324000m/h.</desc>
<speed>0.090000</speed>
</trkpt>
<trkpt lat="56.026512" lon="26.468443">
<ele>77.686584</ele>
<time>2010-06-20T10:11:10Z</time>
<desc>lat.=56.026512, lon.=26.468443, Alt.=77.686584m. Speed=0.324000m/h.</desc>
<speed>0.090000</speed>
</trkpt>
<trkpt lat="56.026512" lon="26.468443">
<ele>77.704163</ele>
<time>2010-06-20T10:11:11Z</time>
<desc>lat.=56.026512, lon.=26.468443, Alt.=77.704163m. Speed=0.072000m/h.</desc>
<speed>0.020000</speed>
</trkpt>
<trkpt lat="56.026512" lon="26.468443">
<ele>77.721741</ele>
<time>2010-06-20T10:11:12Z</time>
<desc>lat.=56.026512, lon.=26.468443, Alt.=77.721741m. Speed=0.288000m/h.</desc>
<speed>0.080000</speed>
</trkpt>
<trkpt lat="56.026512" lon="26.468445">
<ele>77.735413</ele>
<time>2010-06-20T10:11:13Z</time>
<desc>lat.=56.026512, lon.=26.468445, Alt.=77.735413m. Speed=0.612000m/h.</desc>
<speed>0.170000</speed>
</trkpt>
<trkpt lat="56.026512" lon="26.468445">
<ele>77.756897</ele>
<time>2010-06-20T10:11:14Z</time>
<desc>lat.=56.026512, lon.=26.468445, Alt.=77.756897m. Speed=1.440000m/h.</desc>
<speed>0.400000</speed>
</trkpt>
<trkpt lat="56.026512" lon="26.468441">
<ele>77.987366</ele>
<time>2010-06-20T10:11:15Z</time>
<desc>lat.=56.026512, lon.=26.468441, Alt.=77.987366m. Speed=0.792000m/h.</desc>
<speed>0.220000</speed>
</trkpt>
<trkpt lat="56.026512" lon="26.468437">
<ele>78.180725</ele>
<time>2010-06-20T10:11:16Z</time>
<desc>lat.=56.026512, lon.=26.468437, Alt.=78.180725m. Speed=0.756000m/h.</desc>
<speed>0.210000</speed>
</trkpt>
<trkpt lat="56.026516" lon="26.468435">
<ele>78.286194</ele>
<time>2010-06-20T10:11:17Z</time>
<desc>lat.=56.026516, lon.=26.468435, Alt.=78.286194m. Speed=0.360000m/h.</desc>
<speed>0.100000</speed>
</trkpt>
<trkpt lat="56.026516" lon="26.468437">
<ele>78.360413</ele>
<time>2010-06-20T10:11:18Z</time>
<desc>lat.=56.026516, lon.=26.468437, Alt.=78.360413m. Speed=0.360000m/h.</desc>
<speed>0.100000</speed>
</trkpt>
<trkpt lat="56.026516" lon="26.468435">
<ele>78.430725</ele>
<time>2010-06-20T10:11:19Z</time>
<desc>lat.=56.026516, lon.=26.468435, Alt.=78.430725m. Speed=0.684000m/h.</desc>
<speed>0.190000</speed>
</trkpt>
<trkpt lat="56.026516" lon="26.468433">
<ele>78.465881</ele>
<time>2010-06-20T10:11:20Z</time>
<desc>lat.=56.026516, lon.=26.468433, Alt.=78.465881m. Speed=0.720000m/h.</desc>
<speed>0.200000</speed>
</trkpt>
<trkpt lat="56.026516" lon="26.468430">
<ele>78.491272</ele>
<time>2010-06-20T10:11:21Z</time>
<desc>lat.=56.026516, lon.=26.468430, Alt.=78.491272m. Speed=0.720000m/h.</desc>
<speed>0.200000</speed>
</trkpt>
<trkpt lat="56.026516" lon="26.468430">
<ele>78.559631</ele>
<time>2010-06-20T10:11:22Z</time>
<desc>lat.=56.026516, lon.=26.468430, Alt.=78.559631m. Speed=0.756000m/h.</desc>
<speed>0.210000</speed>
</trkpt>
<trkpt lat="56.026520" lon="26.468426">
<ele>78.598694</ele>
<time>2010-06-20T10:11:23Z</time>
<desc>lat.=56.026520, lon.=26.468426, Alt.=78.598694m. Speed=0.792000m/h.</desc>
<speed>0.220000</speed>
</trkpt>
<trkpt lat="56.026516" lon="26.468428">
<ele>78.624084</ele>
<time>2010-06-20T10:11:24Z</time>
<desc>lat.=56.026516, lon.=26.468428, Alt.=78.624084m. Speed=0.684000m/h.</desc>
<speed>0.190000</speed>
</trkpt>
<trkpt lat="56.026516" lon="26.468426">
<ele>78.641663</ele>
<time>2010-06-20T10:11:25Z</time>
<desc>lat.=56.026516, lon.=26.468426, Alt.=78.641663m. Speed=0.792000m/h.</desc>
<speed>0.220000</speed>
</trkpt>
<trkpt lat="56.026512" lon="26.468424">
<ele>78.655334</ele>
<time>2010-06-20T10:11:26Z</time>
<desc>lat.=56.026512, lon.=26.468424, Alt.=78.655334m. Speed=0.000000m/h.</desc>
<speed>0.000000</speed>
</trkpt>
<trkpt lat="56.026516" lon="26.468424">
<ele>78.649475</ele>
<time>2010-06-20T10:11:27Z</time>
<desc>lat.=56.026516, lon.=26.468424, Alt.=78.649475m. Speed=0.036000m/h.</desc>
<speed>0.010000</speed>
</trkpt>
<trkpt lat="56.026512" lon="26.468424">
<ele>78.647522</ele>
<time>2010-06-20T10:11:28Z</time>
<desc>lat.=56.026512, lon.=26.468424, Alt.=78.647522m. Speed=0.036000m/h.</desc>
<speed>0.010000</speed>
</trkpt>
<trkpt lat="56.026512" lon="26.468424">
<ele>78.643616</ele>
<time>2010-06-20T10:11:29Z</time>
<desc>lat.=56.026512, lon.=26.468424, Alt.=78.643616m. Speed=0.036000m/h.</desc>
<speed>0.010000</speed>
</trkpt>
<trkpt lat="56.026512" lon="26.468424">
<ele>78.641663</ele>
<time>2010-06-20T10:11:30Z</time>
<desc>lat.=56.026512, lon.=26.468424, Alt.=78.641663m. Speed=0.036000m/h.</desc>
<speed>0.010000</speed>
</trkpt>
<trkpt lat="56.026512" lon="26.468424">
<ele>78.655334</ele>
<time>2010-06-20T10:11:31Z</time>
<desc>lat.=56.026512, lon.=26.468424, Alt.=78.655334m. Speed=0.072000m/h.</desc>
<speed>0.020000</speed>
</trkpt>
<trkpt lat="56.026512" lon="26.468424">
<ele>78.653381</ele>
<time>2010-06-20T10:11:32Z</time>
<desc>lat.=56.026512, lon.=26.468424, Alt.=78.653381m. Speed=0.036000m/h.</desc>
<speed>0.010000</speed>
</trkpt>
<trkpt lat="56.026512" lon="26.468424">
<ele>78.663147</ele>
<time>2010-06-20T10:11:33Z</time>
<desc>lat.=56.026512, lon.=26.468424, Alt.=78.663147m. Speed=0.072000m/h.</desc>
<speed>0.020000</speed>
</trkpt>
<trkpt lat="56.026512" lon="26.468424">
<ele>78.663147</ele>
<time>2010-06-20T10:11:34Z</time>
<desc>lat.=56.026512, lon.=26.468424, Alt.=78.663147m. Speed=0.108000m/h.</desc>
<speed>0.030000</speed>
</trkpt>
<trkpt lat="56.026512" lon="26.468424">
<ele>78.659241</ele>
<time>2010-06-20T10:11:35Z</time>
<desc>lat.=56.026512, lon.=26.468424, Alt.=78.659241m. Speed=0.144000m/h.</desc>
<speed>0.040000</speed>
</trkpt>
<trkpt lat="56.026512" lon="26.468424">
<ele>78.653381</ele>
<time>2010-06-20T10:11:36Z</time>
<desc>lat.=56.026512, lon.=26.468424, Alt.=78.653381m. Speed=0.000000m/h.</desc>
<speed>0.000000</speed>
</trkpt>
<trkpt lat="56.026512" lon="26.468424">
<ele>78.639709</ele>
<time>2010-06-20T10:11:37Z</time>
<desc>lat.=56.026512, lon.=26.468424, Alt.=78.639709m. Speed=0.000000m/h.</desc>
<speed>0.000000</speed>
</trkpt>
<trkpt lat="56.026512" lon="26.468424">
<ele>78.643616</ele>
<time>2010-06-20T10:11:38Z</time>
<desc>lat.=56.026512, lon.=26.468424, Alt.=78.643616m. Speed=0.000000m/h.</desc>
<speed>0.000000</speed>
</trkpt>
<trkpt lat="56.026512" lon="26.468424">
<ele>78.657288</ele>
<time>2010-06-20T10:11:39Z</time>
<desc>lat.=56.026512, lon.=26.468424, Alt.=78.657288m. Speed=0.036000m/h.</desc>
<speed>0.010000</speed>
</trkpt>
<trkpt lat="56.026512" lon="26.468424">
<ele>78.661194</ele>
<time>2010-06-20T10:11:40Z</time>
<desc>lat.=56.026512, lon.=26.468424, Alt.=78.661194m. Speed=0.000000m/h.</desc>
<speed>0.000000</speed>
</trkpt>
<trkpt lat="56.026512" lon="26.468424">
<ele>78.676819</ele>
<time>2010-06-20T10:11:41Z</time>
<desc>lat.=56.026512, lon.=26.468424, Alt.=78.676819m. Speed=0.000000m/h.</desc>
<speed>0.000000</speed>
</trkpt>
<trkpt lat="56.026512" lon="26.468424">
<ele>78.684631</ele>
<time>2010-06-20T10:11:42Z</time>
<desc>lat.=56.026512, lon.=26.468424, Alt.=78.684631m. Speed=0.000000m/h.</desc>
<speed>0.000000</speed>
</trkpt>
<trkpt lat="56.026512" lon="26.468424">
<ele>78.692444</ele>
<time>2010-06-20T10:11:43Z</time>
<desc>lat.=56.026512, lon.=26.468424, Alt.=78.692444m. Speed=0.036000m/h.</desc>
<speed>0.010000</speed>
</trkpt>
<trkpt lat="56.026512" lon="26.468424">
<ele>78.698303</ele>
<time>2010-06-20T10:11:44Z</time>
<desc>lat.=56.026512, lon.=26.468424, Alt.=78.698303m. Speed=0.036000m/h.</desc>
<speed>0.010000</speed>
</trkpt>
<trkpt lat="56.026512" lon="26.468424">
<ele>78.706116</ele>
<time>2010-06-20T10:11:45Z</time>
<desc>lat.=56.026512, lon.=26.468424, Alt.=78.706116m. Speed=0.180000m/h.</desc>
<speed>0.050000</speed>
</trkpt>
<trkpt lat="56.026512" lon="26.468424">
<ele>78.711975</ele>
<time>2010-06-20T10:11:46Z</time>
<desc>lat.=56.026512, lon.=26.468424, Alt.=78.711975m. Speed=0.288000m/h.</desc>
<speed>0.080000</speed>
</trkpt>
<trkpt lat="56.026512" lon="26.468426">
<ele>78.719788</ele>
<time>2010-06-20T10:11:47Z</time>
<desc>lat.=56.026512, lon.=26.468426, Alt.=78.719788m. Speed=0.108000m/h.</desc>
<speed>0.030000</speed>
</trkpt>
<trkpt lat="56.026512" lon="26.468426">
<ele>78.727600</ele>
<time>2010-06-20T10:11:48Z</time>
<desc>lat.=56.026512, lon.=26.468426, Alt.=78.727600m. Speed=0.000000m/h.</desc>
<speed>0.000000</speed>
</trkpt>
<trkpt lat="56.026512" lon="26.468426">
<ele>78.727600</ele>
<time>2010-06-20T10:11:49Z</time>
<desc>lat.=56.026512, lon.=26.468426, Alt.=78.727600m. Speed=0.072000m/h.</desc>
<speed>0.020000</speed>
</trkpt>
<trkpt lat="56.026516" lon="26.468426">
<ele>78.733459</ele>
<time>2010-06-20T10:11:50Z</time>
<desc>lat.=56.026516, lon.=26.468426, Alt.=78.733459m. Speed=0.252000m/h.</desc>
<speed>0.070000</speed>
</trkpt>
<trkpt lat="56.026516" lon="26.468426">
<ele>78.737366</ele>
<time>2010-06-20T10:11:51Z</time>
<desc>lat.=56.026516, lon.=26.468426, Alt.=78.737366m. Speed=0.108000m/h.</desc>
<speed>0.030000</speed>
</trkpt>
<trkpt lat="56.026516" lon="26.468426">
<ele>78.739319</ele>
<time>2010-06-20T10:11:52Z</time>
<desc>lat.=56.026516, lon.=26.468426, Alt.=78.739319m. Speed=0.576000m/h.</desc>
<speed>0.160000</speed>
</trkpt>
<trkpt lat="56.026512" lon="26.468424">
<ele>78.741272</ele>
<time>2010-06-20T10:11:53Z</time>
<desc>lat.=56.026512, lon.=26.468424, Alt.=78.741272m. Speed=0.828000m/h.</desc>
<speed>0.230000</speed>
</trkpt>
<trkpt lat="56.026512" lon="26.468420">
<ele>78.743225</ele>
<time>2010-06-20T10:11:54Z</time>
<desc>lat.=56.026512, lon.=26.468420, Alt.=78.743225m. Speed=2.232000m/h.</desc>
<speed>0.620000</speed>
</trkpt>
<trkpt lat="56.026512" lon="26.468409">
<ele>78.743225</ele>
<time>2010-06-20T10:11:55Z</time>
<desc>lat.=56.026512, lon.=26.468409, Alt.=78.743225m. Speed=3.024000m/h.</desc>
<speed>0.840000</speed>
</trkpt>
<trkpt lat="56.026512" lon="26.468395">
<ele>78.741272</ele>
<time>2010-06-20T10:11:56Z</time>
<desc>lat.=56.026512, lon.=26.468395, Alt.=78.741272m. Speed=3.204000m/h.</desc>
<speed>0.890000</speed>
</trkpt>
<trkpt lat="56.026512" lon="26.468382">
<ele>78.739319</ele>
<time>2010-06-20T10:11:57Z</time>
<desc>lat.=56.026512, lon.=26.468382, Alt.=78.739319m. Speed=3.780000m/h.</desc>
<speed>1.050000</speed>
</trkpt>
<trkpt lat="56.026520" lon="26.468342">
<ele>78.833069</ele>
<time>2010-06-20T10:11:58Z</time>
<desc>lat.=56.026520, lon.=26.468342, Alt.=78.833069m. Speed=6.480000m/h.</desc>
<speed>1.800000</speed>
</trkpt>
<trkpt lat="56.026524" lon="26.468317">
<ele>78.936584</ele>
<time>2010-06-20T10:11:59Z</time>
<desc>lat.=56.026524, lon.=26.468317, Alt.=78.936584m. Speed=5.868000m/h.</desc>
<speed>1.630000</speed>
</trkpt>
<trkpt lat="56.026527" lon="26.468281">
<ele>79.047913</ele>
<time>2010-06-20T10:12:00Z</time>
<desc>lat.=56.026527, lon.=26.468281, Alt.=79.047913m. Speed=8.712000m/h.</desc>
<speed>2.420000</speed>
</trkpt>
<trkpt lat="56.026531" lon="26.468254">
<ele>79.174866</ele>
<time>2010-06-20T10:12:01Z</time>
<desc>lat.=56.026531, lon.=26.468254, Alt.=79.174866m. Speed=6.732000m/h.</desc>
<speed>1.870000</speed>
</trkpt>
<trkpt lat="56.026535" lon="26.468227">
<ele>79.385803</ele>
<time>2010-06-20T10:12:02Z</time>
<desc>lat.=56.026535, lon.=26.468227, Alt.=79.385803m. Speed=7.704000m/h.</desc>
<speed>2.140000</speed>
</trkpt>
<trkpt lat="56.026543" lon="26.468193">
<ele>79.600647</ele>
<time>2010-06-20T10:12:03Z</time>
<desc>lat.=56.026543, lon.=26.468193, Alt.=79.600647m. Speed=10.584000m/h.</desc>
<speed>2.940000</speed>
</trkpt>
<trkpt lat="56.026554" lon="26.468134">
<ele>79.612366</ele>
<time>2010-06-20T10:12:04Z</time>
<desc>lat.=56.026554, lon.=26.468134, Alt.=79.612366m. Speed=12.492000m/h.</desc>
<speed>3.470000</speed>
</trkpt>
<trkpt lat="56.026569" lon="26.468084">
<ele>79.649475</ele>
<time>2010-06-20T10:12:05Z</time>
<desc>lat.=56.026569, lon.=26.468084, Alt.=79.649475m. Speed=11.772000m/h.</desc>
<speed>3.270000</speed>
</trkpt>
<trkpt lat="56.026585" lon="26.468037">
<ele>79.653381</ele>
<time>2010-06-20T10:12:06Z</time>
<desc>lat.=56.026585, lon.=26.468037, Alt.=79.653381m. Speed=11.088000m/h.</desc>
<speed>3.080000</speed>
</trkpt>
<trkpt lat="56.026596" lon="26.467972">
<ele>79.557678</ele>
<time>2010-06-20T10:12:07Z</time>
<desc>lat.=56.026596, lon.=26.467972, Alt.=79.557678m. Speed=11.124000m/h.</desc>
<speed>3.090000</speed>
</trkpt>
<trkpt lat="56.026608" lon="26.467920">
<ele>79.504944</ele>
<time>2010-06-20T10:12:08Z</time>
<desc>lat.=56.026608, lon.=26.467920, Alt.=79.504944m. Speed=10.332000m/h.</desc>
<speed>2.870000</speed>
</trkpt>
<trkpt lat="56.026615" lon="26.467888">
<ele>79.501038</ele>
<time>2010-06-20T10:12:09Z</time>
<desc>lat.=56.026615, lon.=26.467888, Alt.=79.501038m. Speed=7.164000m/h.</desc>
<speed>1.990000</speed>
</trkpt>
<trkpt lat="56.026627" lon="26.467854">
<ele>79.256897</ele>
<time>2010-06-20T10:12:10Z</time>
<desc>lat.=56.026627, lon.=26.467854, Alt.=79.256897m. Speed=9.684000m/h.</desc>
<speed>2.690000</speed>
</trkpt>
<trkpt lat="56.026642" lon="26.467808">
<ele>79.131897</ele>
<time>2010-06-20T10:12:11Z</time>
<desc>lat.=56.026642, lon.=26.467808, Alt.=79.131897m. Speed=8.784000m/h.</desc>
<speed>2.440000</speed>
</trkpt>
<trkpt lat="56.026653" lon="26.467766">
<ele>79.086975</ele>
<time>2010-06-20T10:12:12Z</time>
<desc>lat.=56.026653, lon.=26.467766, Alt.=79.086975m. Speed=8.964000m/h.</desc>
<speed>2.490000</speed>
</trkpt>
<trkpt lat="56.026665" lon="26.467728">
<ele>79.026428</ele>
<time>2010-06-20T10:12:13Z</time>
<desc>lat.=56.026665, lon.=26.467728, Alt.=79.026428m. Speed=11.196000m/h.</desc>
<speed>3.110000</speed>
</trkpt>
<trkpt lat="56.026672" lon="26.467676">
<ele>78.911194</ele>
<time>2010-06-20T10:12:14Z</time>
<desc>lat.=56.026672, lon.=26.467676, Alt.=78.911194m. Speed=11.700000m/h.</desc>
<speed>3.250000</speed>
</trkpt>
<trkpt lat="56.026684" lon="26.467617">
<ele>78.835022</ele>
<time>2010-06-20T10:12:15Z</time>
<desc>lat.=56.026684, lon.=26.467617, Alt.=78.835022m. Speed=13.212000m/h.</desc>
<speed>3.670000</speed>
</trkpt>
<trkpt lat="56.026695" lon="26.467558">
<ele>78.790100</ele>
<time>2010-06-20T10:12:16Z</time>
<desc>lat.=56.026695, lon.=26.467558, Alt.=78.790100m. Speed=13.176000m/h.</desc>
<speed>3.660000</speed>
</trkpt>
<trkpt lat="56.026711" lon="26.467499">
<ele>78.862366</ele>
<time>2010-06-20T10:12:17Z</time>
<desc>lat.=56.026711, lon.=26.467499, Alt.=78.862366m. Speed=11.664000m/h.</desc>
<speed>3.240000</speed>
</trkpt>
<trkpt lat="56.026726" lon="26.467453">
<ele>78.901428</ele>
<time>2010-06-20T10:12:18Z</time>
<desc>lat.=56.026726, lon.=26.467453, Alt.=78.901428m. Speed=12.960000m/h.</desc>
<speed>3.600000</speed>
</trkpt>
<trkpt lat="56.026745" lon="26.467396">
<ele>78.993225</ele>
<time>2010-06-20T10:12:19Z</time>
<desc>lat.=56.026745, lon.=26.467396, Alt.=78.993225m. Speed=16.020000m/h.</desc>
<speed>4.450000</speed>
</trkpt>
<trkpt lat="56.026760" lon="26.467319">
<ele>79.495178</ele>
<time>2010-06-20T10:12:20Z</time>
<desc>lat.=56.026760, lon.=26.467319, Alt.=79.495178m. Speed=15.588000m/h.</desc>
<speed>4.330000</speed>
</trkpt>
<trkpt lat="56.026779" lon="26.467243">
<ele>79.469788</ele>
<time>2010-06-20T10:12:21Z</time>
<desc>lat.=56.026779, lon.=26.467243, Alt.=79.469788m. Speed=15.408000m/h.</desc>
<speed>4.280000</speed>
</trkpt>
<trkpt lat="56.026798" lon="26.467171">
<ele>79.665100</ele>
<time>2010-06-20T10:12:22Z</time>
<desc>lat.=56.026798, lon.=26.467171, Alt.=79.665100m. Speed=16.200001m/h.</desc>
<speed>4.500000</speed>
</trkpt>
<trkpt lat="56.026817" lon="26.467089">
<ele>79.835022</ele>
<time>2010-06-20T10:12:23Z</time>
<desc>lat.=56.026817, lon.=26.467089, Alt.=79.835022m. Speed=19.188000m/h.</desc>
<speed>5.330000</speed>
</trkpt>
<trkpt lat="56.026833" lon="26.467001">
<ele>79.866272</ele>
<time>2010-06-20T10:12:24Z</time>
<desc>lat.=56.026833, lon.=26.467001, Alt.=79.866272m. Speed=19.476000m/h.</desc>
<speed>5.410000</speed>
</trkpt>
<trkpt lat="56.026848" lon="26.466911">
<ele>79.831116</ele>
<time>2010-06-20T10:12:25Z</time>
<desc>lat.=56.026848, lon.=26.466911, Alt.=79.831116m. Speed=19.584000m/h.</desc>
<speed>5.440000</speed>
</trkpt>
<trkpt lat="56.026863" lon="26.466824">
<ele>79.635803</ele>
<time>2010-06-20T10:12:26Z</time>
<desc>lat.=56.026863, lon.=26.466824, Alt.=79.635803m. Speed=19.080000m/h.</desc>
<speed>5.300000</speed>
</trkpt>
<trkpt lat="56.026878" lon="26.466745">
<ele>79.633850</ele>
<time>2010-06-20T10:12:27Z</time>
<desc>lat.=56.026878, lon.=26.466745, Alt.=79.633850m. Speed=19.691999m/h.</desc>
<speed>5.470000</speed>
</trkpt>
<trkpt lat="56.026894" lon="26.466671">
<ele>79.614319</ele>
<time>2010-06-20T10:12:28Z</time>
<desc>lat.=56.026894, lon.=26.466671, Alt.=79.614319m. Speed=15.696000m/h.</desc>
<speed>4.360000</speed>
</trkpt>
<trkpt lat="56.026905" lon="26.466599">
<ele>79.672913</ele>
<time>2010-06-20T10:12:29Z</time>
<desc>lat.=56.026905, lon.=26.466599, Alt.=79.672913m. Speed=17.028000m/h.</desc>
<speed>4.730000</speed>
</trkpt>
<trkpt lat="56.026920" lon="26.466536">
<ele>79.844788</ele>
<time>2010-06-20T10:12:30Z</time>
<desc>lat.=56.026920, lon.=26.466536, Alt.=79.844788m. Speed=10.836000m/h.</desc>
<speed>3.010000</speed>
</trkpt>
<trkpt lat="56.026924" lon="26.466480">
<ele>79.922913</ele>
<time>2010-06-20T10:12:31Z</time>
<desc>lat.=56.026924, lon.=26.466480, Alt.=79.922913m. Speed=11.556000m/h.</desc>
<speed>3.210000</speed>
</trkpt>
<trkpt lat="56.026932" lon="26.466442">
<ele>80.170959</ele>
<time>2010-06-20T10:12:32Z</time>
<desc>lat.=56.026932, lon.=26.466442, Alt.=80.170959m. Speed=8.568000m/h.</desc>
<speed>2.380000</speed>
</trkpt>
<trkpt lat="56.026936" lon="26.466404">
<ele>80.352600</ele>
<time>2010-06-20T10:12:33Z</time>
<desc>lat.=56.026936, lon.=26.466404, Alt.=80.352600m. Speed=12.492000m/h.</desc>
<speed>3.470000</speed>
</trkpt>
<trkpt lat="56.026947" lon="26.466368">
<ele>80.370178</ele>
<time>2010-06-20T10:12:34Z</time>
<desc>lat.=56.026947, lon.=26.466368, Alt.=80.370178m. Speed=9.180000m/h.</desc>
<speed>2.550000</speed>
</trkpt>
<trkpt lat="56.026970" lon="26.466328">
<ele>79.928772</ele>
<time>2010-06-20T10:12:35Z</time>
<desc>lat.=56.026970, lon.=26.466328, Alt.=79.928772m. Speed=7.452000m/h.</desc>
<speed>2.070000</speed>
</trkpt>
<trkpt lat="56.026970" lon="26.466249">
<ele>79.870178</ele>
<time>2010-06-20T10:12:36Z</time>
<desc>lat.=56.026970, lon.=26.466249, Alt.=79.870178m. Speed=10.764000m/h.</desc>
<speed>2.990000</speed>
</trkpt>
<trkpt lat="56.026978" lon="26.466145">
<ele>79.204163</ele>
<time>2010-06-20T10:12:37Z</time>
<desc>lat.=56.026978, lon.=26.466145, Alt.=79.204163m. Speed=16.200001m/h.</desc>
<speed>4.500000</speed>
</trkpt>
<trkpt lat="56.026978" lon="26.466074">
<ele>78.801819</ele>
<time>2010-06-20T10:12:38Z</time>
<desc>lat.=56.026978, lon.=26.466074, Alt.=78.801819m. Speed=9.936000m/h.</desc>
<speed>2.760000</speed>
</trkpt>
<trkpt lat="56.026989" lon="26.466007">
<ele>78.295959</ele>
<time>2010-06-20T10:12:39Z</time>
<desc>lat.=56.026989, lon.=26.466007, Alt.=78.295959m. Speed=11.988000m/h.</desc>
<speed>3.330000</speed>
</trkpt>
<trkpt lat="56.026997" lon="26.465958">
<ele>78.215881</ele>
<time>2010-06-20T10:12:40Z</time>
<desc>lat.=56.026997, lon.=26.465958, Alt.=78.215881m. Speed=11.160000m/h.</desc>
<speed>3.100000</speed>
</trkpt>
<trkpt lat="56.027008" lon="26.465912">
<ele>78.012756</ele>
<time>2010-06-20T10:12:41Z</time>
<desc>lat.=56.027008, lon.=26.465912, Alt.=78.012756m. Speed=10.692000m/h.</desc>
<speed>2.970000</speed>
</trkpt>
<trkpt lat="56.027016" lon="26.465868">
<ele>77.739319</ele>
<time>2010-06-20T10:12:42Z</time>
<desc>lat.=56.027016, lon.=26.465868, Alt.=77.739319m. Speed=10.188000m/h.</desc>
<speed>2.830000</speed>
</trkpt>
<trkpt lat="56.027023" lon="26.465828">
<ele>77.612366</ele>
<time>2010-06-20T10:12:43Z</time>
<desc>lat.=56.027023, lon.=26.465828, Alt.=77.612366m. Speed=7.668000m/h.</desc>
<speed>2.130000</speed>
</trkpt>
<trkpt lat="56.027023" lon="26.465792">
<ele>77.338928</ele>
<time>2010-06-20T10:12:44Z</time>
<desc>lat.=56.027023, lon.=26.465792, Alt.=77.338928m. Speed=7.308000m/h.</desc>
<speed>2.030000</speed>
</trkpt>
<trkpt lat="56.027023" lon="26.465767">
<ele>77.120178</ele>
<time>2010-06-20T10:12:45Z</time>
<desc>lat.=56.027023, lon.=26.465767, Alt.=77.120178m. Speed=6.192000m/h.</desc>
<speed>1.720000</speed>
</trkpt>
<trkpt lat="56.027027" lon="26.465725">
<ele>76.924866</ele>
<time>2010-06-20T10:12:46Z</time>
<desc>lat.=56.027027, lon.=26.465725, Alt.=76.924866m. Speed=10.620000m/h.</desc>
<speed>2.950000</speed>
</trkpt>
<trkpt lat="56.027039" lon="26.465687">
<ele>76.792053</ele>
<time>2010-06-20T10:12:47Z</time>
<desc>lat.=56.027039, lon.=26.465687, Alt.=76.792053m. Speed=8.928000m/h.</desc>
<speed>2.480000</speed>
</trkpt>
<trkpt lat="56.027042" lon="26.465639">
<ele>76.528381</ele>
<time>2010-06-20T10:12:48Z</time>
<desc>lat.=56.027042, lon.=26.465639, Alt.=76.528381m. Speed=7.920000m/h.</desc>
<speed>2.200000</speed>
</trkpt>
<trkpt lat="56.027050" lon="26.465597">
<ele>76.461975</ele>
<time>2010-06-20T10:12:49Z</time>
<desc>lat.=56.027050, lon.=26.465597, Alt.=76.461975m. Speed=5.688000m/h.</desc>
<speed>1.580000</speed>
</trkpt>
<trkpt lat="56.027058" lon="26.465572">
<ele>76.348694</ele>
<time>2010-06-20T10:12:50Z</time>
<desc>lat.=56.027058, lon.=26.465572, Alt.=76.348694m. Speed=5.616000m/h.</desc>
<speed>1.560000</speed>
</trkpt>
<trkpt lat="56.027069" lon="26.465532">
<ele>76.292053</ele>
<time>2010-06-20T10:12:51Z</time>
<desc>lat.=56.027069, lon.=26.465532, Alt.=76.292053m. Speed=5.940000m/h.</desc>
<speed>1.650000</speed>
</trkpt>
<trkpt lat="56.027081" lon="26.465500">
<ele>76.159241</ele>
<time>2010-06-20T10:12:52Z</time>
<desc>lat.=56.027081, lon.=26.465500, Alt.=76.159241m. Speed=6.084000m/h.</desc>
<speed>1.690000</speed>
</trkpt>
<trkpt lat="56.027088" lon="26.465469">
<ele>76.122131</ele>
<time>2010-06-20T10:12:53Z</time>
<desc>lat.=56.027088, lon.=26.465469, Alt.=76.122131m. Speed=4.536000m/h.</desc>
<speed>1.260000</speed>
</trkpt>
<trkpt lat="56.027092" lon="26.465437">
<ele>76.045959</ele>
<time>2010-06-20T10:12:54Z</time>
<desc>lat.=56.027092, lon.=26.465437, Alt.=76.045959m. Speed=4.068000m/h.</desc>
<speed>1.130000</speed>
</trkpt>
<trkpt lat="56.027096" lon="26.465403">
<ele>76.063538</ele>
<time>2010-06-20T10:12:55Z</time>
<desc>lat.=56.027096, lon.=26.465403, Alt.=76.063538m. Speed=5.256000m/h.</desc>
<speed>1.460000</speed>
</trkpt>
<trkpt lat="56.027103" lon="26.465380">
<ele>75.961975</ele>
<time>2010-06-20T10:12:56Z</time>
<desc>lat.=56.027103, lon.=26.465380, Alt.=75.961975m. Speed=2.916000m/h.</desc>
<speed>0.810000</speed>
</trkpt>
<trkpt lat="56.027111" lon="26.465353">
<ele>76.075256</ele>
<time>2010-06-20T10:12:57Z</time>
<desc>lat.=56.027111, lon.=26.465353, Alt.=76.075256m. Speed=4.608000m/h.</desc>
<speed>1.280000</speed>
</trkpt>
<trkpt lat="56.027115" lon="26.465315">
<ele>76.118225</ele>
<time>2010-06-20T10:12:58Z</time>
<desc>lat.=56.027115, lon.=26.465315, Alt.=76.118225m. Speed=5.328000m/h.</desc>
<speed>1.480000</speed>
</trkpt>
<trkpt lat="56.027126" lon="26.465267">
<ele>76.204163</ele>
<time>2010-06-20T10:12:59Z</time>
<desc>lat.=56.027126, lon.=26.465267, Alt.=76.204163m. Speed=6.228000m/h.</desc>
<speed>1.730000</speed>
</trkpt>
<trkpt lat="56.027145" lon="26.465206">
<ele>76.104553</ele>
<time>2010-06-20T10:13:00Z</time>
<desc>lat.=56.027145, lon.=26.465206, Alt.=76.104553m. Speed=4.968000m/h.</desc>
<speed>1.380000</speed>
</trkpt>
<trkpt lat="56.027157" lon="26.465120">
<ele>75.829163</ele>
<time>2010-06-20T10:13:01Z</time>
<desc>lat.=56.027157, lon.=26.465120, Alt.=75.829163m. Speed=7.920000m/h.</desc>
<speed>2.200000</speed>
</trkpt>
<trkpt lat="56.027203" lon="26.465038">
<ele>76.223694</ele>
<time>2010-06-20T10:13:02Z</time>
<desc>lat.=56.027203, lon.=26.465038, Alt.=76.223694m. Speed=7.128000m/h.</desc>
<speed>1.980000</speed>
</trkpt>
<trkpt lat="56.027222" lon="26.464977">
<ele>76.032288</ele>
<time>2010-06-20T10:13:03Z</time>
<desc>lat.=56.027222, lon.=26.464977, Alt.=76.032288m. Speed=6.048000m/h.</desc>
<speed>1.680000</speed>
</trkpt>
<trkpt lat="56.027233" lon="26.464916">
<ele>75.690491</ele>
<time>2010-06-20T10:13:04Z</time>
<desc>lat.=56.027233, lon.=26.464916, Alt.=75.690491m. Speed=6.372000m/h.</desc>
<speed>1.770000</speed>
</trkpt>
<trkpt lat="56.027256" lon="26.464842">
<ele>75.538147</ele>
<time>2010-06-20T10:13:05Z</time>
<desc>lat.=56.027256, lon.=26.464842, Alt.=75.538147m. Speed=7.992000m/h.</desc>
<speed>2.220000</speed>
</trkpt>
<trkpt lat="56.027264" lon="26.464773">
<ele>75.770569</ele>
<time>2010-06-20T10:13:06Z</time>
<desc>lat.=56.027264, lon.=26.464773, Alt.=75.770569m. Speed=8.352000m/h.</desc>
<speed>2.320000</speed>
</trkpt>
<trkpt lat="56.027271" lon="26.464708">
<ele>75.963928</ele>
<time>2010-06-20T10:13:07Z</time>
<desc>lat.=56.027271, lon.=26.464708, Alt.=75.963928m. Speed=5.364000m/h.</desc>
<speed>1.490000</speed>
</trkpt>
<trkpt lat="56.027275" lon="26.464653">
<ele>75.833069</ele>
<time>2010-06-20T10:13:08Z</time>
<desc>lat.=56.027275, lon.=26.464653, Alt.=75.833069m. Speed=4.824000m/h.</desc>
<speed>1.340000</speed>
</trkpt>
<trkpt lat="56.027283" lon="26.464602">
<ele>76.210022</ele>
<time>2010-06-20T10:13:09Z</time>
<desc>lat.=56.027283, lon.=26.464602, Alt.=76.210022m. Speed=5.868000m/h.</desc>
<speed>1.630000</speed>
</trkpt>
<trkpt lat="56.027298" lon="26.464539">
<ele>76.211975</ele>
<time>2010-06-20T10:13:10Z</time>
<desc>lat.=56.027298, lon.=26.464539, Alt.=76.211975m. Speed=6.660000m/h.</desc>
<speed>1.850000</speed>
</trkpt>
<trkpt lat="56.027306" lon="26.464479">
<ele>76.545959</ele>
<time>2010-06-20T10:13:11Z</time>
<desc>lat.=56.027306, lon.=26.464479, Alt.=76.545959m. Speed=5.976000m/h.</desc>
<speed>1.660000</speed>
</trkpt>
<trkpt lat="56.027317" lon="26.464445">
<ele>76.698303</ele>
<time>2010-06-20T10:13:12Z</time>
<desc>lat.=56.027317, lon.=26.464445, Alt.=76.698303m. Speed=5.400000m/h.</desc>
<speed>1.500000</speed>
</trkpt>
<trkpt lat="56.027332" lon="26.464403">
<ele>76.690491</ele>
<time>2010-06-20T10:13:13Z</time>
<desc>lat.=56.027332, lon.=26.464403, Alt.=76.690491m. Speed=6.156000m/h.</desc>
<speed>1.710000</speed>
</trkpt>
<trkpt lat="56.027344" lon="26.464348">
<ele>76.915100</ele>
<time>2010-06-20T10:13:14Z</time>
<desc>lat.=56.027344, lon.=26.464348, Alt.=76.915100m. Speed=6.444000m/h.</desc>
<speed>1.790000</speed>
</trkpt>
<trkpt lat="56.027355" lon="26.464287">
<ele>76.835022</ele>
<time>2010-06-20T10:13:15Z</time>
<desc>lat.=56.027355, lon.=26.464287, Alt.=76.835022m. Speed=7.380000m/h.</desc>
<speed>2.050000</speed>
</trkpt>
<trkpt lat="56.027374" lon="26.464252">
<ele>76.667053</ele>
<time>2010-06-20T10:13:16Z</time>
<desc>lat.=56.027374, lon.=26.464252, Alt.=76.667053m. Speed=8.064000m/h.</desc>
<speed>2.240000</speed>
</trkpt>
<trkpt lat="56.027409" lon="26.464212">
<ele>76.561584</ele>
<time>2010-06-20T10:13:17Z</time>
<desc>lat.=56.027409, lon.=26.464212, Alt.=76.561584m. Speed=7.848000m/h.</desc>
<speed>2.180000</speed>
</trkpt>
<trkpt lat="56.027431" lon="26.464207">
<ele>76.583069</ele>
<time>2010-06-20T10:13:18Z</time>
<desc>lat.=56.027431, lon.=26.464207, Alt.=76.583069m. Speed=8.892000m/h.</desc>
<speed>2.470000</speed>
</trkpt>
<trkpt lat="56.027462" lon="26.464161">
<ele>75.635803</ele>
<time>2010-06-20T10:13:19Z</time>
<desc>lat.=56.027462, lon.=26.464161, Alt.=75.635803m. Speed=10.116000m/h.</desc>
<speed>2.810000</speed>
</trkpt>
<trkpt lat="56.027493" lon="26.464138">
<ele>75.157288</ele>
<time>2010-06-20T10:13:20Z</time>
<desc>lat.=56.027493, lon.=26.464138, Alt.=75.157288m. Speed=10.620000m/h.</desc>
<speed>2.950000</speed>
</trkpt>
<trkpt lat="56.027546" lon="26.464096">
<ele>77.465881</ele>
<time>2010-06-20T10:13:21Z</time>
<desc>lat.=56.027546, lon.=26.464096, Alt.=77.465881m. Speed=9.144000m/h.</desc>
<speed>2.540000</speed>
</trkpt>
<trkpt lat="56.027588" lon="26.464052">
<ele>79.419006</ele>
<time>2010-06-20T10:13:22Z</time>
<desc>lat.=56.027588, lon.=26.464052, Alt.=79.419006m. Speed=5.616000m/h.</desc>
<speed>1.560000</speed>
</trkpt>
<trkpt lat="56.027637" lon="26.464020">
<ele>79.536194</ele>
<time>2010-06-20T10:13:23Z</time>
<desc>lat.=56.027637, lon.=26.464020, Alt.=79.536194m. Speed=9.612000m/h.</desc>
<speed>2.670000</speed>
</trkpt>
<trkpt lat="56.027668" lon="26.463976">
<ele>79.516663</ele>
<time>2010-06-20T10:13:24Z</time>
<desc>lat.=56.027668, lon.=26.463976, Alt.=79.516663m. Speed=8.712000m/h.</desc>
<speed>2.420000</speed>
</trkpt>
<trkpt lat="56.027683" lon="26.463999">
<ele>81.170959</ele>
<time>2010-06-20T10:13:25Z</time>
<desc>lat.=56.027683, lon.=26.463999, Alt.=81.170959m. Speed=6.732000m/h.</desc>
<speed>1.870000</speed>
</trkpt>
<trkpt lat="56.027702" lon="26.464020">
<ele>81.885803</ele>
<time>2010-06-20T10:13:26Z</time>
<desc>lat.=56.027702, lon.=26.464020, Alt.=81.885803m. Speed=6.696000m/h.</desc>
<speed>1.860000</speed>
</trkpt>
<trkpt lat="56.027714" lon="26.464048">
<ele>82.530334</ele>
<time>2010-06-20T10:13:27Z</time>
<desc>lat.=56.027714, lon.=26.464048, Alt.=82.530334m. Speed=6.984000m/h.</desc>
<speed>1.940000</speed>
</trkpt>
<trkpt lat="56.027725" lon="26.464071">
<ele>83.327209</ele>
<time>2010-06-20T10:13:28Z</time>
<desc>lat.=56.027725, lon.=26.464071, Alt.=83.327209m. Speed=6.336000m/h.</desc>
<speed>1.760000</speed>
</trkpt>
<trkpt lat="56.027744" lon="26.464100">
<ele>83.922913</ele>
<time>2010-06-20T10:13:29Z</time>
<desc>lat.=56.027744, lon.=26.464100, Alt.=83.922913m. Speed=7.452000m/h.</desc>
<speed>2.070000</speed>
</trkpt>
<trkpt lat="56.027740" lon="26.464128">
<ele>84.629944</ele>
<time>2010-06-20T10:13:30Z</time>
<desc>lat.=56.027740, lon.=26.464128, Alt.=84.629944m. Speed=7.380000m/h.</desc>
<speed>2.050000</speed>
</trkpt>
<trkpt lat="56.027740" lon="26.464159">
<ele>85.575256</ele>
<time>2010-06-20T10:13:31Z</time>
<desc>lat.=56.027740, lon.=26.464159, Alt.=85.575256m. Speed=7.740000m/h.</desc>
<speed>2.150000</speed>
</trkpt>
<trkpt lat="56.027744" lon="26.464193">
<ele>85.819397</ele>
<time>2010-06-20T10:13:32Z</time>
<desc>lat.=56.027744, lon.=26.464193, Alt.=85.819397m. Speed=7.668000m/h.</desc>
<speed>2.130000</speed>
</trkpt>
<trkpt lat="56.027740" lon="26.464220">
<ele>86.795959</ele>
<time>2010-06-20T10:13:33Z</time>
<desc>lat.=56.027740, lon.=26.464220, Alt.=86.795959m. Speed=8.172000m/h.</desc>
<speed>2.270000</speed>
</trkpt>
<trkpt lat="56.027733" lon="26.464247">
<ele>87.295959</ele>
<time>2010-06-20T10:13:34Z</time>
<desc>lat.=56.027733, lon.=26.464247, Alt.=87.295959m. Speed=7.416000m/h.</desc>
<speed>2.060000</speed>
</trkpt>
<trkpt lat="56.027729" lon="26.464262">
<ele>87.948303</ele>
<time>2010-06-20T10:13:35Z</time>
<desc>lat.=56.027729, lon.=26.464262, Alt.=87.948303m. Speed=4.248000m/h.</desc>
<speed>1.180000</speed>
</trkpt>
<trkpt lat="56.027725" lon="26.464272">
<ele>88.420959</ele>
<time>2010-06-20T10:13:36Z</time>
<desc>lat.=56.027725, lon.=26.464272, Alt.=88.420959m. Speed=2.736000m/h.</desc>
<speed>0.760000</speed>
</trkpt>
<trkpt lat="56.027718" lon="26.464273">
<ele>89.706116</ele>
<time>2010-06-20T10:13:37Z</time>
<desc>lat.=56.027718, lon.=26.464273, Alt.=89.706116m. Speed=4.824000m/h.</desc>
<speed>1.340000</speed>
</trkpt>
<trkpt lat="56.027706" lon="26.464262">
<ele>91.290100</ele>
<time>2010-06-20T10:13:38Z</time>
<desc>lat.=56.027706, lon.=26.464262, Alt.=91.290100m. Speed=6.696000m/h.</desc>
<speed>1.860000</speed>
</trkpt>
<trkpt lat="56.027699" lon="26.464251">
<ele>91.813538</ele>
<time>2010-06-20T10:13:39Z</time>
<desc>lat.=56.027699, lon.=26.464251, Alt.=91.813538m. Speed=4.176000m/h.</desc>
<speed>1.160000</speed>
</trkpt>
<trkpt lat="56.027695" lon="26.464231">
<ele>92.350647</ele>
<time>2010-06-20T10:13:40Z</time>
<desc>lat.=56.027695, lon.=26.464231, Alt.=92.350647m. Speed=5.580000m/h.</desc>
<speed>1.550000</speed>
</trkpt>
<trkpt lat="56.027702" lon="26.464211">
<ele>92.952209</ele>
<time>2010-06-20T10:13:41Z</time>
<desc>lat.=56.027702, lon.=26.464211, Alt.=92.952209m. Speed=6.156000m/h.</desc>
<speed>1.710000</speed>
</trkpt>
<trkpt lat="56.027718" lon="26.464203">
<ele>93.389709</ele>
<time>2010-06-20T10:13:42Z</time>
<desc>lat.=56.027718, lon.=26.464203, Alt.=93.389709m. Speed=7.704000m/h.</desc>
<speed>2.140000</speed>
</trkpt>
<trkpt lat="56.027725" lon="26.464184">
<ele>94.376038</ele>
<time>2010-06-20T10:13:43Z</time>
<desc>lat.=56.027725, lon.=26.464184, Alt.=94.376038m. Speed=5.184000m/h.</desc>
<speed>1.440000</speed>
</trkpt>
<trkpt lat="56.027733" lon="26.464167">
<ele>95.268616</ele>
<time>2010-06-20T10:13:44Z</time>
<desc>lat.=56.027733, lon.=26.464167, Alt.=95.268616m. Speed=4.644000m/h.</desc>
<speed>1.290000</speed>
</trkpt>
<trkpt lat="56.027733" lon="26.464144">
<ele>95.122131</ele>
<time>2010-06-20T10:13:45Z</time>
<desc>lat.=56.027733, lon.=26.464144, Alt.=95.122131m. Speed=3.456000m/h.</desc>
<speed>0.960000</speed>
</trkpt>
<trkpt lat="56.027733" lon="26.464127">
<ele>95.756897</ele>
<time>2010-06-20T10:13:46Z</time>
<desc>lat.=56.027733, lon.=26.464127, Alt.=95.756897m. Speed=3.096000m/h.</desc>
<speed>0.860000</speed>
</trkpt>
<trkpt lat="56.027729" lon="26.464109">
<ele>96.301819</ele>
<time>2010-06-20T10:13:47Z</time>
<desc>lat.=56.027729, lon.=26.464109, Alt.=96.301819m. Speed=3.744000m/h.</desc>
<speed>1.040000</speed>
</trkpt>
<trkpt lat="56.027737" lon="26.464092">
<ele>97.030334</ele>
<time>2010-06-20T10:13:48Z</time>
<desc>lat.=56.027737, lon.=26.464092, Alt.=97.030334m. Speed=3.888000m/h.</desc>
<speed>1.080000</speed>
</trkpt>
<trkpt lat="56.027733" lon="26.464043">
<ele>96.729553</ele>
<time>2010-06-20T10:13:49Z</time>
<desc>lat.=56.027733, lon.=26.464043, Alt.=96.729553m. Speed=7.704000m/h.</desc>
<speed>2.140000</speed>
</trkpt>
<trkpt lat="56.027729" lon="26.463987">
<ele>96.376038</ele>
<time>2010-06-20T10:13:50Z</time>
<desc>lat.=56.027729, lon.=26.463987, Alt.=96.376038m. Speed=8.388000m/h.</desc>
<speed>2.330000</speed>
</trkpt>
<trkpt lat="56.027721" lon="26.463945">
<ele>96.481506</ele>
<time>2010-06-20T10:13:51Z</time>
<desc>lat.=56.027721, lon.=26.463945, Alt.=96.481506m. Speed=7.020000m/h.</desc>
<speed>1.950000</speed>
</trkpt>
<trkpt lat="56.027714" lon="26.463905">
<ele>96.307678</ele>
<time>2010-06-20T10:13:52Z</time>
<desc>lat.=56.027714, lon.=26.463905, Alt.=96.307678m. Speed=6.336000m/h.</desc>
<speed>1.760000</speed>
</trkpt>
<trkpt lat="56.027706" lon="26.463869">
<ele>96.174866</ele>
<time>2010-06-20T10:13:53Z</time>
<desc>lat.=56.027706, lon.=26.463869, Alt.=96.174866m. Speed=3.924000m/h.</desc>
<speed>1.090000</speed>
</trkpt>
<trkpt lat="56.027702" lon="26.463835">
<ele>96.249084</ele>
<time>2010-06-20T10:13:54Z</time>
<desc>lat.=56.027702, lon.=26.463835, Alt.=96.249084m. Speed=4.572000m/h.</desc>
<speed>1.270000</speed>
</trkpt>
<trkpt lat="56.027695" lon="26.463806">
<ele>96.229553</ele>
<time>2010-06-20T10:13:55Z</time>
<desc>lat.=56.027695, lon.=26.463806, Alt.=96.229553m. Speed=5.436000m/h.</desc>
<speed>1.510000</speed>
</trkpt>
<trkpt lat="56.027679" lon="26.463772">
<ele>96.221741</ele>
<time>2010-06-20T10:13:56Z</time>
<desc>lat.=56.027679, lon.=26.463772, Alt.=96.221741m. Speed=5.940000m/h.</desc>
<speed>1.650000</speed>
</trkpt>
<trkpt lat="56.027668" lon="26.463747">
<ele>96.264709</ele>
<time>2010-06-20T10:13:57Z</time>
<desc>lat.=56.027668, lon.=26.463747, Alt.=96.264709m. Speed=4.896000m/h.</desc>
<speed>1.360000</speed>
</trkpt>
<trkpt lat="56.027645" lon="26.463737">
<ele>96.460022</ele>
<time>2010-06-20T10:13:58Z</time>
<desc>lat.=56.027645, lon.=26.463737, Alt.=96.460022m. Speed=6.660000m/h.</desc>
<speed>1.850000</speed>
</trkpt>
<trkpt lat="56.027618" lon="26.463720">
<ele>96.960022</ele>
<time>2010-06-20T10:13:59Z</time>
<desc>lat.=56.027618, lon.=26.463720, Alt.=96.960022m. Speed=7.848000m/h.</desc>
<speed>2.180000</speed>
</trkpt>
<trkpt lat="56.027599" lon="26.463703">
<ele>97.553772</ele>
<time>2010-06-20T10:14:00Z</time>
<desc>lat.=56.027599, lon.=26.463703, Alt.=97.553772m. Speed=6.336000m/h.</desc>
<speed>1.760000</speed>
</trkpt>
<trkpt lat="56.027584" lon="26.463684">
<ele>97.877991</ele>
<time>2010-06-20T10:14:01Z</time>
<desc>lat.=56.027584, lon.=26.463684, Alt.=97.877991m. Speed=5.724000m/h.</desc>
<speed>1.590000</speed>
</trkpt>
<trkpt lat="56.027565" lon="26.463669">
<ele>98.012756</ele>
<time>2010-06-20T10:14:02Z</time>
<desc>lat.=56.027565, lon.=26.463669, Alt.=98.012756m. Speed=3.528000m/h.</desc>
<speed>0.980000</speed>
</trkpt>
<trkpt lat="56.027554" lon="26.463657">
<ele>98.299866</ele>
<time>2010-06-20T10:14:03Z</time>
<desc>lat.=56.027554, lon.=26.463657, Alt.=98.299866m. Speed=4.752000m/h.</desc>
<speed>1.320000</speed>
</trkpt>
<trkpt lat="56.027534" lon="26.463652">
<ele>98.588928</ele>
<time>2010-06-20T10:14:04Z</time>
<desc>lat.=56.027534, lon.=26.463652, Alt.=98.588928m. Speed=7.344000m/h.</desc>
<speed>2.040000</speed>
</trkpt>
<trkpt lat="56.027512" lon="26.463654">
<ele>98.760803</ele>
<time>2010-06-20T10:14:05Z</time>
<desc>lat.=56.027512, lon.=26.463654, Alt.=98.760803m. Speed=7.128000m/h.</desc>
<speed>1.980000</speed>
</trkpt>
<trkpt lat="56.027477" lon="26.463659">
<ele>98.807678</ele>
<time>2010-06-20T10:14:06Z</time>
<desc>lat.=56.027477, lon.=26.463659, Alt.=98.807678m. Speed=12.708000m/h.</desc>
<speed>3.530000</speed>
</trkpt>
<trkpt lat="56.027439" lon="26.463671">
<ele>98.608459</ele>
<time>2010-06-20T10:14:07Z</time>
<desc>lat.=56.027439, lon.=26.463671, Alt.=98.608459m. Speed=13.068000m/h.</desc>
<speed>3.630000</speed>
</trkpt>
<trkpt lat="56.027397" lon="26.463690">
<ele>98.534241</ele>
<time>2010-06-20T10:14:08Z</time>
<desc>lat.=56.027397, lon.=26.463690, Alt.=98.534241m. Speed=15.336000m/h.</desc>
<speed>4.260000</speed>
</trkpt>
<trkpt lat="56.027355" lon="26.463715">
<ele>98.354553</ele>
<time>2010-06-20T10:14:09Z</time>
<desc>lat.=56.027355, lon.=26.463715, Alt.=98.354553m. Speed=16.667999m/h.</desc>
<speed>4.630000</speed>
</trkpt>
<trkpt lat="56.027302" lon="26.463739">
<ele>97.729553</ele>
<time>2010-06-20T10:14:10Z</time>
<desc>lat.=56.027302, lon.=26.463739, Alt.=97.729553m. Speed=20.087999m/h.</desc>
<speed>5.580000</speed>
</trkpt>
<trkpt lat="56.027233" lon="26.463755">
<ele>97.399475</ele>
<time>2010-06-20T10:14:11Z</time>
<desc>lat.=56.027233, lon.=26.463755, Alt.=97.399475m. Speed=22.320000m/h.</desc>
<speed>6.200000</speed>
</trkpt>
<trkpt lat="56.027168" lon="26.463783">
<ele>97.145569</ele>
<time>2010-06-20T10:14:12Z</time>
<desc>lat.=56.027168, lon.=26.463783, Alt.=97.145569m. Speed=23.724001m/h.</desc>
<speed>6.590000</speed>
</trkpt>
<trkpt lat="56.027107" lon="26.463823">
<ele>97.098694</ele>
<time>2010-06-20T10:14:13Z</time>
<desc>lat.=56.027107, lon.=26.463823, Alt.=97.098694m. Speed=21.780001m/h.</desc>
<speed>6.050000</speed>
</trkpt>
<trkpt lat="56.027046" lon="26.463871">
<ele>97.190491</ele>
<time>2010-06-20T10:14:14Z</time>
<desc>lat.=56.027046, lon.=26.463871, Alt.=97.190491m. Speed=23.184000m/h.</desc>
<speed>6.440000</speed>
</trkpt>
<trkpt lat="56.026993" lon="26.463911">
<ele>96.825256</ele>
<time>2010-06-20T10:14:15Z</time>
<desc>lat.=56.026993, lon.=26.463911, Alt.=96.825256m. Speed=18.612000m/h.</desc>
<speed>5.170000</speed>
</trkpt>
<trkpt lat="56.026939" lon="26.463938">
<ele>96.475647</ele>
<time>2010-06-20T10:14:16Z</time>
<desc>lat.=56.026939, lon.=26.463938, Alt.=96.475647m. Speed=13.428000m/h.</desc>
<speed>3.730000</speed>
</trkpt>
<trkpt lat="56.026905" lon="26.463961">
<ele>96.372131</ele>
<time>2010-06-20T10:14:17Z</time>
<desc>lat.=56.026905, lon.=26.463961, Alt.=96.372131m. Speed=9.684000m/h.</desc>
<speed>2.690000</speed>
</trkpt>
<trkpt lat="56.026878" lon="26.463984">
<ele>96.012756</ele>
<time>2010-06-20T10:14:18Z</time>
<desc>lat.=56.026878, lon.=26.463984, Alt.=96.012756m. Speed=7.056000m/h.</desc>
<speed>1.960000</speed>
</trkpt>
<trkpt lat="56.026821" lon="26.464018">
<ele>94.542053</ele>
<time>2010-06-20T10:14:19Z</time>
<desc>lat.=56.026821, lon.=26.464018, Alt.=94.542053m. Speed=5.004000m/h.</desc>
<speed>1.390000</speed>
</trkpt>
<trkpt lat="56.026775" lon="26.464046">
<ele>93.372131</ele>
<time>2010-06-20T10:14:20Z</time>
<desc>lat.=56.026775, lon.=26.464046, Alt.=93.372131m. Speed=5.040000m/h.</desc>
<speed>1.400000</speed>
</trkpt>
<trkpt lat="56.026749" lon="26.464075">
<ele>92.438538</ele>
<time>2010-06-20T10:14:21Z</time>
<desc>lat.=56.026749, lon.=26.464075, Alt.=92.438538m. Speed=5.688000m/h.</desc>
<speed>1.580000</speed>
</trkpt>
<trkpt lat="56.026722" lon="26.464098">
<ele>91.682678</ele>
<time>2010-06-20T10:14:22Z</time>
<desc>lat.=56.026722, lon.=26.464098, Alt.=91.682678m. Speed=6.012000m/h.</desc>
<speed>1.670000</speed>
</trkpt>
<trkpt lat="56.026695" lon="26.464132">
<ele>90.844788</ele>
<time>2010-06-20T10:14:23Z</time>
<desc>lat.=56.026695, lon.=26.464132, Alt.=90.844788m. Speed=4.896000m/h.</desc>
<speed>1.360000</speed>
</trkpt>
<trkpt lat="56.026680" lon="26.464155">
<ele>90.731506</ele>
<time>2010-06-20T10:14:24Z</time>
<desc>lat.=56.026680, lon.=26.464155, Alt.=90.731506m. Speed=4.752000m/h.</desc>
<speed>1.320000</speed>
</trkpt>
<trkpt lat="56.026661" lon="26.464163">
<ele>90.672913</ele>
<time>2010-06-20T10:14:25Z</time>
<desc>lat.=56.026661, lon.=26.464163, Alt.=90.672913m. Speed=2.988000m/h.</desc>
<speed>0.830000</speed>
</trkpt>
<trkpt lat="56.026649" lon="26.464178">
<ele>90.518616</ele>
<time>2010-06-20T10:14:26Z</time>
<desc>lat.=56.026649, lon.=26.464178, Alt.=90.518616m. Speed=1.728000m/h.</desc>
<speed>0.480000</speed>
</trkpt>
<trkpt lat="56.026642" lon="26.464184">
<ele>90.698303</ele>
<time>2010-06-20T10:14:27Z</time>
<desc>lat.=56.026642, lon.=26.464184, Alt.=90.698303m. Speed=1.728000m/h.</desc>
<speed>0.480000</speed>
</trkpt>
<trkpt lat="56.026638" lon="26.464184">
<ele>90.643616</ele>
<time>2010-06-20T10:14:28Z</time>
<desc>lat.=56.026638, lon.=26.464184, Alt.=90.643616m. Speed=0.864000m/h.</desc>
<speed>0.240000</speed>
</trkpt>
<trkpt lat="56.026634" lon="26.464186">
<ele>90.401428</ele>
<time>2010-06-20T10:14:29Z</time>
<desc>lat.=56.026634, lon.=26.464186, Alt.=90.401428m. Speed=0.864000m/h.</desc>
<speed>0.240000</speed>
</trkpt>
<trkpt lat="56.026634" lon="26.464188">
<ele>90.231506</ele>
<time>2010-06-20T10:14:30Z</time>
<desc>lat.=56.026634, lon.=26.464188, Alt.=90.231506m. Speed=0.684000m/h.</desc>
<speed>0.190000</speed>
</trkpt>
<trkpt lat="56.026630" lon="26.464190">
<ele>90.106506</ele>
<time>2010-06-20T10:14:31Z</time>
<desc>lat.=56.026630, lon.=26.464190, Alt.=90.106506m. Speed=1.116000m/h.</desc>
<speed>0.310000</speed>
</trkpt>
<trkpt lat="56.026630" lon="26.464190">
<ele>90.006897</ele>
<time>2010-06-20T10:14:32Z</time>
<desc>lat.=56.026630, lon.=26.464190, Alt.=90.006897m. Speed=3.420000m/h.</desc>
<speed>0.950000</speed>
</trkpt>
<trkpt lat="56.026619" lon="26.464193">
<ele>89.909241</ele>
<time>2010-06-20T10:14:33Z</time>
<desc>lat.=56.026619, lon.=26.464193, Alt.=89.909241m. Speed=4.176000m/h.</desc>
<speed>1.160000</speed>
</trkpt>
<trkpt lat="56.026604" lon="26.464176">
<ele>90.045959</ele>
<time>2010-06-20T10:14:34Z</time>
<desc>lat.=56.026604, lon.=26.464176, Alt.=90.045959m. Speed=4.860000m/h.</desc>
<speed>1.350000</speed>
</trkpt>
<trkpt lat="56.026585" lon="26.464159">
<ele>90.030334</ele>
<time>2010-06-20T10:14:35Z</time>
<desc>lat.=56.026585, lon.=26.464159, Alt.=90.030334m. Speed=3.168000m/h.</desc>
<speed>0.880000</speed>
</trkpt>
<trkpt lat="56.026577" lon="26.464151">
<ele>89.952209</ele>
<time>2010-06-20T10:14:36Z</time>
<desc>lat.=56.026577, lon.=26.464151, Alt.=89.952209m. Speed=2.484000m/h.</desc>
<speed>0.690000</speed>
</trkpt>
<trkpt lat="56.026562" lon="26.464157">
<ele>89.881897</ele>
<time>2010-06-20T10:14:37Z</time>
<desc>lat.=56.026562, lon.=26.464157, Alt.=89.881897m. Speed=3.816000m/h.</desc>
<speed>1.060000</speed>
</trkpt>
<trkpt lat="56.026546" lon="26.464153">
<ele>89.885803</ele>
<time>2010-06-20T10:14:38Z</time>
<desc>lat.=56.026546, lon.=26.464153, Alt.=89.885803m. Speed=4.716000m/h.</desc>
<speed>1.310000</speed>
</trkpt>
<trkpt lat="56.026535" lon="26.464146">
<ele>89.780334</ele>
<time>2010-06-20T10:14:39Z</time>
<desc>lat.=56.026535, lon.=26.464146, Alt.=89.780334m. Speed=4.212000m/h.</desc>
<speed>1.170000</speed>
</trkpt>
<trkpt lat="56.026527" lon="26.464140">
<ele>89.688538</ele>
<time>2010-06-20T10:14:40Z</time>
<desc>lat.=56.026527, lon.=26.464140, Alt.=89.688538m. Speed=2.916000m/h.</desc>
<speed>0.810000</speed>
</trkpt>
<trkpt lat="56.026516" lon="26.464134">
<ele>89.639709</ele>
<time>2010-06-20T10:14:41Z</time>
<desc>lat.=56.026516, lon.=26.464134, Alt.=89.639709m. Speed=3.096000m/h.</desc>
<speed>0.860000</speed>
</trkpt>
<trkpt lat="56.026516" lon="26.464132">
<ele>89.627991</ele>
<time>2010-06-20T10:14:42Z</time>
<desc>lat.=56.026516, lon.=26.464132, Alt.=89.627991m. Speed=1.260000m/h.</desc>
<speed>0.350000</speed>
</trkpt>
<trkpt lat="56.026512" lon="26.464128">
<ele>89.743225</ele>
<time>2010-06-20T10:14:43Z</time>
<desc>lat.=56.026512, lon.=26.464128, Alt.=89.743225m. Speed=0.720000m/h.</desc>
<speed>0.200000</speed>
</trkpt>
<trkpt lat="56.026516" lon="26.464128">
<ele>90.042053</ele>
<time>2010-06-20T10:14:44Z</time>
<desc>lat.=56.026516, lon.=26.464128, Alt.=90.042053m. Speed=0.900000m/h.</desc>
<speed>0.250000</speed>
</trkpt>
<trkpt lat="56.026512" lon="26.464115">
<ele>90.245178</ele>
<time>2010-06-20T10:14:45Z</time>
<desc>lat.=56.026512, lon.=26.464115, Alt.=90.245178m. Speed=1.080000m/h.</desc>
<speed>0.300000</speed>
</trkpt>
<trkpt lat="56.026508" lon="26.464094">
<ele>90.424866</ele>
<time>2010-06-20T10:14:46Z</time>
<desc>lat.=56.026508, lon.=26.464094, Alt.=90.424866m. Speed=2.088000m/h.</desc>
<speed>0.580000</speed>
</trkpt>
<trkpt lat="56.026505" lon="26.464079">
<ele>90.508850</ele>
<time>2010-06-20T10:14:47Z</time>
<desc>lat.=56.026505, lon.=26.464079, Alt.=90.508850m. Speed=2.160000m/h.</desc>
<speed>0.600000</speed>
</trkpt>
<trkpt lat="56.026493" lon="26.464085">
<ele>90.690491</ele>
<time>2010-06-20T10:14:48Z</time>
<desc>lat.=56.026493, lon.=26.464085, Alt.=90.690491m. Speed=1.692000m/h.</desc>
<speed>0.470000</speed>
</trkpt>
<trkpt lat="56.026474" lon="26.464033">
<ele>91.563538</ele>
<time>2010-06-20T10:14:49Z</time>
<desc>lat.=56.026474, lon.=26.464033, Alt.=91.563538m. Speed=1.656000m/h.</desc>
<speed>0.460000</speed>
</trkpt>
<trkpt lat="56.026466" lon="26.464003">
<ele>92.249084</ele>
<time>2010-06-20T10:14:50Z</time>
<desc>lat.=56.026466, lon.=26.464003, Alt.=92.249084m. Speed=1.620000m/h.</desc>
<speed>0.450000</speed>
</trkpt>
<trkpt lat="56.026459" lon="26.463985">
<ele>92.440491</ele>
<time>2010-06-20T10:14:51Z</time>
<desc>lat.=56.026459, lon.=26.463985, Alt.=92.440491m. Speed=1.476000m/h.</desc>
<speed>0.410000</speed>
</trkpt>
<trkpt lat="56.026455" lon="26.463987">
<ele>93.169006</ele>
<time>2010-06-20T10:14:52Z</time>
<desc>lat.=56.026455, lon.=26.463987, Alt.=93.169006m. Speed=1.476000m/h.</desc>
<speed>0.410000</speed>
</trkpt>
<trkpt lat="56.026443" lon="26.463997">
<ele>93.473694</ele>
<time>2010-06-20T10:14:53Z</time>
<desc>lat.=56.026443, lon.=26.463997, Alt.=93.473694m. Speed=1.188000m/h.</desc>
<speed>0.330000</speed>
</trkpt>
<trkpt lat="56.026447" lon="26.464014">
<ele>93.526428</ele>
<time>2010-06-20T10:14:54Z</time>
<desc>lat.=56.026447, lon.=26.464014, Alt.=93.526428m. Speed=1.152000m/h.</desc>
<speed>0.320000</speed>
</trkpt>
<trkpt lat="56.026436" lon="26.464024">
<ele>93.846741</ele>
<time>2010-06-20T10:14:55Z</time>
<desc>lat.=56.026436, lon.=26.464024, Alt.=93.846741m. Speed=1.404000m/h.</desc>
<speed>0.390000</speed>
</trkpt>
<trkpt lat="56.026432" lon="26.464033">
<ele>94.045959</ele>
<time>2010-06-20T10:14:56Z</time>
<desc>lat.=56.026432, lon.=26.464033, Alt.=94.045959m. Speed=1.440000m/h.</desc>
<speed>0.400000</speed>
</trkpt>
<trkpt lat="56.026428" lon="26.464048">
<ele>94.258850</ele>
<time>2010-06-20T10:14:57Z</time>
<desc>lat.=56.026428, lon.=26.464048, Alt.=94.258850m. Speed=1.548000m/h.</desc>
<speed>0.430000</speed>
</trkpt>
<trkpt lat="56.026424" lon="26.464069">
<ele>94.319397</ele>
<time>2010-06-20T10:14:58Z</time>
<desc>lat.=56.026424, lon.=26.464069, Alt.=94.319397m. Speed=1.296000m/h.</desc>
<speed>0.360000</speed>
</trkpt>
<trkpt lat="56.026421" lon="26.464090">
<ele>94.698303</ele>
<time>2010-06-20T10:14:59Z</time>
<desc>lat.=56.026421, lon.=26.464090, Alt.=94.698303m. Speed=1.116000m/h.</desc>
<speed>0.310000</speed>
</trkpt>
<trkpt lat="56.026413" lon="26.464117">
<ele>95.362366</ele>
<time>2010-06-20T10:15:00Z</time>
<desc>lat.=56.026413, lon.=26.464117, Alt.=95.362366m. Speed=1.224000m/h.</desc>
<speed>0.340000</speed>
</trkpt>
<trkpt lat="56.026402" lon="26.464148">
<ele>96.465881</ele>
<time>2010-06-20T10:15:01Z</time>
<desc>lat.=56.026402, lon.=26.464148, Alt.=96.465881m. Speed=1.260000m/h.</desc>
<speed>0.350000</speed>
</trkpt>
<trkpt lat="56.026398" lon="26.464161">
<ele>97.317444</ele>
<time>2010-06-20T10:15:02Z</time>
<desc>lat.=56.026398, lon.=26.464161, Alt.=97.317444m. Speed=1.080000m/h.</desc>
<speed>0.300000</speed>
</trkpt>
<trkpt lat="56.026394" lon="26.464165">
<ele>98.229553</ele>
<time>2010-06-20T10:15:03Z</time>
<desc>lat.=56.026394, lon.=26.464165, Alt.=98.229553m. Speed=1.224000m/h.</desc>
<speed>0.340000</speed>
</trkpt>
<trkpt lat="56.026390" lon="26.464169">
<ele>99.026428</ele>
<time>2010-06-20T10:15:04Z</time>
<desc>lat.=56.026390, lon.=26.464169, Alt.=99.026428m. Speed=1.116000m/h.</desc>
<speed>0.310000</speed>
</trkpt>
<trkpt lat="56.026382" lon="26.464182">
<ele>99.903381</ele>
<time>2010-06-20T10:15:05Z</time>
<desc>lat.=56.026382, lon.=26.464182, Alt.=99.903381m. Speed=1.836000m/h.</desc>
<speed>0.510000</speed>
</trkpt>
<trkpt lat="56.026375" lon="26.464203">
<ele>100.192444</ele>
<time>2010-06-20T10:15:06Z</time>
<desc>lat.=56.026375, lon.=26.464203, Alt.=100.192444m. Speed=1.620000m/h.</desc>
<speed>0.450000</speed>
</trkpt>
<trkpt lat="56.026375" lon="26.464216">
<ele>100.526428</ele>
<time>2010-06-20T10:15:07Z</time>
<desc>lat.=56.026375, lon.=26.464216, Alt.=100.526428m. Speed=1.188000m/h.</desc>
<speed>0.330000</speed>
</trkpt>
<trkpt lat="56.026363" lon="26.464231">
<ele>101.393616</ele>
<time>2010-06-20T10:15:08Z</time>
<desc>lat.=56.026363, lon.=26.464231, Alt.=101.393616m. Speed=1.332000m/h.</desc>
<speed>0.370000</speed>
</trkpt>
<trkpt lat="56.026371" lon="26.464243">
<ele>101.692444</ele>
<time>2010-06-20T10:15:09Z</time>
<desc>lat.=56.026371, lon.=26.464243, Alt.=101.692444m. Speed=1.044000m/h.</desc>
<speed>0.290000</speed>
</trkpt>
<trkpt lat="56.026371" lon="26.464262">
<ele>102.102600</ele>
<time>2010-06-20T10:15:10Z</time>
<desc>lat.=56.026371, lon.=26.464262, Alt.=102.102600m. Speed=1.152000m/h.</desc>
<speed>0.320000</speed>
</trkpt>
<trkpt lat="56.026363" lon="26.464298">
<ele>103.079163</ele>
<time>2010-06-20T10:15:11Z</time>
<desc>lat.=56.026363, lon.=26.464298, Alt.=103.079163m. Speed=1.332000m/h.</desc>
<speed>0.370000</speed>
</trkpt>
<trkpt lat="56.026352" lon="26.464317">
<ele>103.811584</ele>
<time>2010-06-20T10:15:12Z</time>
<desc>lat.=56.026352, lon.=26.464317, Alt.=103.811584m. Speed=1.440000m/h.</desc>
<speed>0.400000</speed>
</trkpt>
<trkpt lat="56.026348" lon="26.464336">
<ele>104.426819</ele>
<time>2010-06-20T10:15:13Z</time>
<desc>lat.=56.026348, lon.=26.464336, Alt.=104.426819m. Speed=1.188000m/h.</desc>
<speed>0.330000</speed>
</trkpt>
<trkpt lat="56.026340" lon="26.464354">
<ele>104.823303</ele>
<time>2010-06-20T10:15:14Z</time>
<desc>lat.=56.026340, lon.=26.464354, Alt.=104.823303m. Speed=1.116000m/h.</desc>
<speed>0.310000</speed>
</trkpt>
<trkpt lat="56.026333" lon="26.464373">
<ele>105.379944</ele>
<time>2010-06-20T10:15:15Z</time>
<desc>lat.=56.026333, lon.=26.464373, Alt.=105.379944m. Speed=1.152000m/h.</desc>
<speed>0.320000</speed>
</trkpt>
<trkpt lat="56.026321" lon="26.464390">
<ele>105.934631</ele>
<time>2010-06-20T10:15:16Z</time>
<desc>lat.=56.026321, lon.=26.464390, Alt.=105.934631m. Speed=1.440000m/h.</desc>
<speed>0.400000</speed>
</trkpt>
<trkpt lat="56.026314" lon="26.464407">
<ele>106.419006</ele>
<time>2010-06-20T10:15:17Z</time>
<desc>lat.=56.026314, lon.=26.464407, Alt.=106.419006m. Speed=1.152000m/h.</desc>
<speed>0.320000</speed>
</trkpt>
<trkpt lat="56.026302" lon="26.464426">
<ele>106.909241</ele>
<time>2010-06-20T10:15:18Z</time>
<desc>lat.=56.026302, lon.=26.464426, Alt.=106.909241m. Speed=1.620000m/h.</desc>
<speed>0.450000</speed>
</trkpt>
<trkpt lat="56.026299" lon="26.464441">
<ele>107.381897</ele>
<time>2010-06-20T10:15:19Z</time>
<desc>lat.=56.026299, lon.=26.464441, Alt.=107.381897m. Speed=1.332000m/h.</desc>
<speed>0.370000</speed>
</trkpt>
<trkpt lat="56.026291" lon="26.464453">
<ele>107.807678</ele>
<time>2010-06-20T10:15:20Z</time>
<desc>lat.=56.026291, lon.=26.464453, Alt.=107.807678m. Speed=1.440000m/h.</desc>
<speed>0.400000</speed>
</trkpt>
<trkpt lat="56.026283" lon="26.464464">
<ele>107.930725</ele>
<time>2010-06-20T10:15:21Z</time>
<desc>lat.=56.026283, lon.=26.464464, Alt.=107.930725m. Speed=1.512000m/h.</desc>
<speed>0.420000</speed>
</trkpt>
<trkpt lat="56.026279" lon="26.464474">
<ele>108.321350</ele>
<time>2010-06-20T10:15:22Z</time>
<desc>lat.=56.026279, lon.=26.464474, Alt.=108.321350m. Speed=0.720000m/h.</desc>
<speed>0.200000</speed>
</trkpt>
<trkpt lat="56.026276" lon="26.464474">
<ele>108.758850</ele>
<time>2010-06-20T10:15:23Z</time>
<desc>lat.=56.026276, lon.=26.464474, Alt.=108.758850m. Speed=0.720000m/h.</desc>
<speed>0.200000</speed>
</trkpt>
<trkpt lat="56.026268" lon="26.464479">
<ele>109.180725</ele>
<time>2010-06-20T10:15:24Z</time>
<desc>lat.=56.026268, lon.=26.464479, Alt.=109.180725m. Speed=0.792000m/h.</desc>
<speed>0.220000</speed>
</trkpt>
<trkpt lat="56.026264" lon="26.464491">
<ele>109.575256</ele>
<time>2010-06-20T10:15:25Z</time>
<desc>lat.=56.026264, lon.=26.464491, Alt.=109.575256m. Speed=0.288000m/h.</desc>
<speed>0.080000</speed>
</trkpt>
<trkpt lat="56.026264" lon="26.464493">
<ele>109.581116</ele>
<time>2010-06-20T10:15:26Z</time>
<desc>lat.=56.026264, lon.=26.464493, Alt.=109.581116m. Speed=0.252000m/h.</desc>
<speed>0.070000</speed>
</trkpt>
<trkpt lat="56.026264" lon="26.464493">
<ele>109.579163</ele>
<time>2010-06-20T10:15:27Z</time>
<desc>lat.=56.026264, lon.=26.464493, Alt.=109.579163m. Speed=0.108000m/h.</desc>
<speed>0.030000</speed>
</trkpt>
<trkpt lat="56.026264" lon="26.464493">
<ele>109.585022</ele>
<time>2010-06-20T10:15:28Z</time>
<desc>lat.=56.026264, lon.=26.464493, Alt.=109.585022m. Speed=0.108000m/h.</desc>
<speed>0.030000</speed>
</trkpt>
<trkpt lat="56.026264" lon="26.464493">
<ele>109.583069</ele>
<time>2010-06-20T10:15:29Z</time>
<desc>lat.=56.026264, lon.=26.464493, Alt.=109.583069m. Speed=0.396000m/h.</desc>
<speed>0.110000</speed>
</trkpt>
<trkpt lat="56.026264" lon="26.464493">
<ele>109.588928</ele>
<time>2010-06-20T10:15:30Z</time>
<desc>lat.=56.026264, lon.=26.464493, Alt.=109.588928m. Speed=0.468000m/h.</desc>
<speed>0.130000</speed>
</trkpt>
<trkpt lat="56.026268" lon="26.464495">
<ele>109.592834</ele>
<time>2010-06-20T10:15:31Z</time>
<desc>lat.=56.026268, lon.=26.464495, Alt.=109.592834m. Speed=0.540000m/h.</desc>
<speed>0.150000</speed>
</trkpt>
<trkpt lat="56.026268" lon="26.464495">
<ele>109.604553</ele>
<time>2010-06-20T10:15:32Z</time>
<desc>lat.=56.026268, lon.=26.464495, Alt.=109.604553m. Speed=0.288000m/h.</desc>
<speed>0.080000</speed>
</trkpt>
<trkpt lat="56.026268" lon="26.464495">
<ele>109.614319</ele>
<time>2010-06-20T10:15:33Z</time>
<desc>lat.=56.026268, lon.=26.464495, Alt.=109.614319m. Speed=0.432000m/h.</desc>
<speed>0.120000</speed>
</trkpt>
<trkpt lat="56.026268" lon="26.464495">
<ele>109.631897</ele>
<time>2010-06-20T10:15:34Z</time>
<desc>lat.=56.026268, lon.=26.464495, Alt.=109.631897m. Speed=0.432000m/h.</desc>
<speed>0.120000</speed>
</trkpt>
<trkpt lat="56.026272" lon="26.464493">
<ele>109.653381</ele>
<time>2010-06-20T10:15:35Z</time>
<desc>lat.=56.026272, lon.=26.464493, Alt.=109.653381m. Speed=0.396000m/h.</desc>
<speed>0.110000</speed>
</trkpt>
<trkpt lat="56.026272" lon="26.464491">
<ele>109.674866</ele>
<time>2010-06-20T10:15:36Z</time>
<desc>lat.=56.026272, lon.=26.464491, Alt.=109.674866m. Speed=0.324000m/h.</desc>
<speed>0.090000</speed>
</trkpt>
<trkpt lat="56.026272" lon="26.464489">
<ele>109.696350</ele>
<time>2010-06-20T10:15:37Z</time>
<desc>lat.=56.026272, lon.=26.464489, Alt.=109.696350m. Speed=0.324000m/h.</desc>
<speed>0.090000</speed>
</trkpt>
<trkpt lat="56.026272" lon="26.464487">
<ele>109.715881</ele>
<time>2010-06-20T10:15:38Z</time>
<desc>lat.=56.026272, lon.=26.464487, Alt.=109.715881m. Speed=0.288000m/h.</desc>
<speed>0.080000</speed>
</trkpt>
<trkpt lat="56.026272" lon="26.464487">
<ele>109.735413</ele>
<time>2010-06-20T10:15:39Z</time>
<desc>lat.=56.026272, lon.=26.464487, Alt.=109.735413m. Speed=0.792000m/h.</desc>
<speed>0.220000</speed>
</trkpt>
<trkpt lat="56.026272" lon="26.464483">
<ele>109.752991</ele>
<time>2010-06-20T10:15:40Z</time>
<desc>lat.=56.026272, lon.=26.464483, Alt.=109.752991m. Speed=0.720000m/h.</desc>
<speed>0.200000</speed>
</trkpt>
<trkpt lat="56.026276" lon="26.464483">
<ele>109.782288</ele>
<time>2010-06-20T10:15:41Z</time>
<desc>lat.=56.026276, lon.=26.464483, Alt.=109.782288m. Speed=0.648000m/h.</desc>
<speed>0.180000</speed>
</trkpt>
<trkpt lat="56.026276" lon="26.464483">
<ele>109.797913</ele>
<time>2010-06-20T10:15:42Z</time>
<desc>lat.=56.026276, lon.=26.464483, Alt.=109.797913m. Speed=0.360000m/h.</desc>
<speed>0.100000</speed>
</trkpt>
<trkpt lat="56.026279" lon="26.464481">
<ele>109.817444</ele>
<time>2010-06-20T10:15:43Z</time>
<desc>lat.=56.026279, lon.=26.464481, Alt.=109.817444m. Speed=0.288000m/h.</desc>
<speed>0.080000</speed>
</trkpt>
<trkpt lat="56.026279" lon="26.464481">
<ele>109.868225</ele>
<time>2010-06-20T10:15:44Z</time>
<desc>lat.=56.026279, lon.=26.464481, Alt.=109.868225m. Speed=0.288000m/h.</desc>
<speed>0.080000</speed>
</trkpt>
<trkpt lat="56.026279" lon="26.464481">
<ele>109.899475</ele>
<time>2010-06-20T10:15:45Z</time>
<desc>lat.=56.026279, lon.=26.464481, Alt.=109.899475m. Speed=0.468000m/h.</desc>
<speed>0.130000</speed>
</trkpt>
<trkpt lat="56.026279" lon="26.464479">
<ele>109.922913</ele>
<time>2010-06-20T10:15:46Z</time>
<desc>lat.=56.026279, lon.=26.464479, Alt.=109.922913m. Speed=0.468000m/h.</desc>
<speed>0.130000</speed>
</trkpt>
<trkpt lat="56.026276" lon="26.464478">
<ele>109.940491</ele>
<time>2010-06-20T10:15:47Z</time>
<desc>lat.=56.026276, lon.=26.464478, Alt.=109.940491m. Speed=1.368000m/h.</desc>
<speed>0.380000</speed>
</trkpt>
<trkpt lat="56.026279" lon="26.464478">
<ele>110.044006</ele>
<time>2010-06-20T10:15:48Z</time>
<desc>lat.=56.026279, lon.=26.464478, Alt.=110.044006m. Speed=1.548000m/h.</desc>
<speed>0.430000</speed>
</trkpt>
<trkpt lat="56.026279" lon="26.464479">
<ele>110.143616</ele>
<time>2010-06-20T10:15:49Z</time>
<desc>lat.=56.026279, lon.=26.464479, Alt.=110.143616m. Speed=1.584000m/h.</desc>
<speed>0.440000</speed>
</trkpt>
<trkpt lat="56.026283" lon="26.464483">
<ele>110.278381</ele>
<time>2010-06-20T10:15:50Z</time>
<desc>lat.=56.026283, lon.=26.464483, Alt.=110.278381m. Speed=1.404000m/h.</desc>
<speed>0.390000</speed>
</trkpt>
<trkpt lat="56.026287" lon="26.464493">
<ele>110.379944</ele>
<time>2010-06-20T10:15:51Z</time>
<desc>lat.=56.026287, lon.=26.464493, Alt.=110.379944m. Speed=1.980000m/h.</desc>
<speed>0.550000</speed>
</trkpt>
<trkpt lat="56.026291" lon="26.464500">
<ele>110.508850</ele>
<time>2010-06-20T10:15:52Z</time>
<desc>lat.=56.026291, lon.=26.464500, Alt.=110.508850m. Speed=1.764000m/h.</desc>
<speed>0.490000</speed>
</trkpt>
<trkpt lat="56.026295" lon="26.464510">
<ele>110.710022</ele>
<time>2010-06-20T10:15:53Z</time>
<desc>lat.=56.026295, lon.=26.464510, Alt.=110.710022m. Speed=1.872000m/h.</desc>
<speed>0.520000</speed>
</trkpt>
<trkpt lat="56.026302" lon="26.464520">
<ele>111.020569</ele>
<time>2010-06-20T10:15:54Z</time>
<desc>lat.=56.026302, lon.=26.464520, Alt.=111.020569m. Speed=1.836000m/h.</desc>
<speed>0.510000</speed>
</trkpt>
<trkpt lat="56.026329" lon="26.464525">
<ele>111.174866</ele>
<time>2010-06-20T10:15:55Z</time>
<desc>lat.=56.026329, lon.=26.464525, Alt.=111.174866m. Speed=2.484000m/h.</desc>
<speed>0.690000</speed>
</trkpt>
<trkpt lat="56.026348" lon="26.464569">
<ele>112.428772</ele>
<time>2010-06-20T10:15:56Z</time>
<desc>lat.=56.026348, lon.=26.464569, Alt.=112.428772m. Speed=2.988000m/h.</desc>
<speed>0.830000</speed>
</trkpt>
<trkpt lat="56.026352" lon="26.464579">
<ele>112.467834</ele>
<time>2010-06-20T10:15:57Z</time>
<desc>lat.=56.026352, lon.=26.464579, Alt.=112.467834m. Speed=2.160000m/h.</desc>
<speed>0.600000</speed>
</trkpt>
<trkpt lat="56.026360" lon="26.464592">
<ele>112.719788</ele>
<time>2010-06-20T10:15:58Z</time>
<desc>lat.=56.026360, lon.=26.464592, Alt.=112.719788m. Speed=2.448000m/h.</desc>
<speed>0.680000</speed>
</trkpt>
<trkpt lat="56.026367" lon="26.464598">
<ele>112.836975</ele>
<time>2010-06-20T10:15:59Z</time>
<desc>lat.=56.026367, lon.=26.464598, Alt.=112.836975m. Speed=2.664000m/h.</desc>
<speed>0.740000</speed>
</trkpt>
<trkpt lat="56.026379" lon="26.464609">
<ele>113.463928</ele>
<time>2010-06-20T10:16:00Z</time>
<desc>lat.=56.026379, lon.=26.464609, Alt.=113.463928m. Speed=2.232000m/h.</desc>
<speed>0.620000</speed>
</trkpt>
<trkpt lat="56.026390" lon="26.464628">
<ele>114.544006</ele>
<time>2010-06-20T10:16:01Z</time>
<desc>lat.=56.026390, lon.=26.464628, Alt.=114.544006m. Speed=1.116000m/h.</desc>
<speed>0.310000</speed>
</trkpt>
<trkpt lat="56.026394" lon="26.464626">
<ele>114.626038</ele>
<time>2010-06-20T10:16:02Z</time>
<desc>lat.=56.026394, lon.=26.464626, Alt.=114.626038m. Speed=1.008000m/h.</desc>
<speed>0.280000</speed>
</trkpt>
<trkpt lat="56.026398" lon="26.464642">
<ele>114.971741</ele>
<time>2010-06-20T10:16:03Z</time>
<desc>lat.=56.026398, lon.=26.464642, Alt.=114.971741m. Speed=0.756000m/h.</desc>
<speed>0.210000</speed>
</trkpt>
<trkpt lat="56.026409" lon="26.464659">
<ele>115.483459</ele>
<time>2010-06-20T10:16:04Z</time>
<desc>lat.=56.026409, lon.=26.464659, Alt.=115.483459m. Speed=0.648000m/h.</desc>
<speed>0.180000</speed>
</trkpt>
<trkpt lat="56.026409" lon="26.464663">
<ele>116.493225</ele>
<time>2010-06-20T10:16:05Z</time>
<desc>lat.=56.026409, lon.=26.464663, Alt.=116.493225m. Speed=0.180000m/h.</desc>
<speed>0.050000</speed>
</trkpt>
<trkpt lat="56.026409" lon="26.464663">
<ele>116.532288</ele>
<time>2010-06-20T10:16:06Z</time>
<desc>lat.=56.026409, lon.=26.464663, Alt.=116.532288m. Speed=0.252000m/h.</desc>
<speed>0.070000</speed>
</trkpt>
<trkpt lat="56.026409" lon="26.464663">
<ele>116.565491</ele>
<time>2010-06-20T10:16:07Z</time>
<desc>lat.=56.026409, lon.=26.464663, Alt.=116.565491m. Speed=0.396000m/h.</desc>
<speed>0.110000</speed>
</trkpt>
<trkpt lat="56.026409" lon="26.464663">
<ele>116.586975</ele>
<time>2010-06-20T10:16:08Z</time>
<desc>lat.=56.026409, lon.=26.464663, Alt.=116.586975m. Speed=0.108000m/h.</desc>
<speed>0.030000</speed>
</trkpt>
<trkpt lat="56.026413" lon="26.464663">
<ele>116.602600</ele>
<time>2010-06-20T10:16:09Z</time>
<desc>lat.=56.026413, lon.=26.464663, Alt.=116.602600m. Speed=0.360000m/h.</desc>
<speed>0.100000</speed>
</trkpt>
<trkpt lat="56.026413" lon="26.464661">
<ele>116.620178</ele>
<time>2010-06-20T10:16:10Z</time>
<desc>lat.=56.026413, lon.=26.464661, Alt.=116.620178m. Speed=0.756000m/h.</desc>
<speed>0.210000</speed>
</trkpt>
<trkpt lat="56.026413" lon="26.464657">
<ele>116.626038</ele>
<time>2010-06-20T10:16:11Z</time>
<desc>lat.=56.026413, lon.=26.464657, Alt.=116.626038m. Speed=0.720000m/h.</desc>
<speed>0.200000</speed>
</trkpt>
<trkpt lat="56.026413" lon="26.464655">
<ele>116.629944</ele>
<time>2010-06-20T10:16:12Z</time>
<desc>lat.=56.026413, lon.=26.464655, Alt.=116.629944m. Speed=0.576000m/h.</desc>
<speed>0.160000</speed>
</trkpt>
<trkpt lat="56.026413" lon="26.464655">
<ele>116.627991</ele>
<time>2010-06-20T10:16:13Z</time>
<desc>lat.=56.026413, lon.=26.464655, Alt.=116.627991m. Speed=0.216000m/h.</desc>
<speed>0.060000</speed>
</trkpt>
<trkpt lat="56.026417" lon="26.464655">
<ele>116.629944</ele>
<time>2010-06-20T10:16:14Z</time>
<desc>lat.=56.026417, lon.=26.464655, Alt.=116.629944m. Speed=0.036000m/h.</desc>
<speed>0.010000</speed>
</trkpt>
<trkpt lat="56.026417" lon="26.464655">
<ele>116.633850</ele>
<time>2010-06-20T10:16:15Z</time>
<desc>lat.=56.026417, lon.=26.464655, Alt.=116.633850m. Speed=0.360000m/h.</desc>
<speed>0.100000</speed>
</trkpt>
<trkpt lat="56.026413" lon="26.464653">
<ele>116.637756</ele>
<time>2010-06-20T10:16:16Z</time>
<desc>lat.=56.026413, lon.=26.464653, Alt.=116.637756m. Speed=0.108000m/h.</desc>
<speed>0.030000</speed>
</trkpt>
<trkpt lat="56.026417" lon="26.464653">
<ele>116.641663</ele>
<time>2010-06-20T10:16:17Z</time>
<desc>lat.=56.026417, lon.=26.464653, Alt.=116.641663m. Speed=0.324000m/h.</desc>
<speed>0.090000</speed>
</trkpt>
<trkpt lat="56.026417" lon="26.464653">
<ele>116.653381</ele>
<time>2010-06-20T10:16:18Z</time>
<desc>lat.=56.026417, lon.=26.464653, Alt.=116.653381m. Speed=0.216000m/h.</desc>
<speed>0.060000</speed>
</trkpt>
<trkpt lat="56.026417" lon="26.464653">
<ele>116.661194</ele>
<time>2010-06-20T10:16:19Z</time>
<desc>lat.=56.026417, lon.=26.464653, Alt.=116.661194m. Speed=0.540000m/h.</desc>
<speed>0.150000</speed>
</trkpt>
<trkpt lat="56.026417" lon="26.464653">
<ele>116.667053</ele>
<time>2010-06-20T10:16:20Z</time>
<desc>lat.=56.026417, lon.=26.464653, Alt.=116.667053m. Speed=0.108000m/h.</desc>
<speed>0.030000</speed>
</trkpt>
<trkpt lat="56.026417" lon="26.464653">
<ele>116.655334</ele>
<time>2010-06-20T10:16:21Z</time>
<desc>lat.=56.026417, lon.=26.464653, Alt.=116.655334m. Speed=0.000000m/h.</desc>
<speed>0.000000</speed>
</trkpt>
<trkpt lat="56.026417" lon="26.464653">
<ele>116.643616</ele>
<time>2010-06-20T10:16:22Z</time>
<desc>lat.=56.026417, lon.=26.464653, Alt.=116.643616m. Speed=0.036000m/h.</desc>
<speed>0.010000</speed>
</trkpt>
<trkpt lat="56.026417" lon="26.464653">
<ele>116.649475</ele>
<time>2010-06-20T10:16:23Z</time>
<desc>lat.=56.026417, lon.=26.464653, Alt.=116.649475m. Speed=0.108000m/h.</desc>
<speed>0.030000</speed>
</trkpt>
<trkpt lat="56.026421" lon="26.464653">
<ele>116.641663</ele>
<time>2010-06-20T10:16:24Z</time>
<desc>lat.=56.026421, lon.=26.464653, Alt.=116.641663m. Speed=0.036000m/h.</desc>
<speed>0.010000</speed>
</trkpt>
<trkpt lat="56.026421" lon="26.464653">
<ele>116.651428</ele>
<time>2010-06-20T10:16:25Z</time>
<desc>lat.=56.026421, lon.=26.464653, Alt.=116.651428m. Speed=0.252000m/h.</desc>
<speed>0.070000</speed>
</trkpt>
<trkpt lat="56.026417" lon="26.464653">
<ele>116.665100</ele>
<time>2010-06-20T10:16:26Z</time>
<desc>lat.=56.026417, lon.=26.464653, Alt.=116.665100m. Speed=0.072000m/h.</desc>
<speed>0.020000</speed>
</trkpt>
<trkpt lat="56.026417" lon="26.464653">
<ele>116.659241</ele>
<time>2010-06-20T10:16:27Z</time>
<desc>lat.=56.026417, lon.=26.464653, Alt.=116.659241m. Speed=0.252000m/h.</desc>
<speed>0.070000</speed>
</trkpt>
<trkpt lat="56.026421" lon="26.464653">
<ele>116.678772</ele>
<time>2010-06-20T10:16:28Z</time>
<desc>lat.=56.026421, lon.=26.464653, Alt.=116.678772m. Speed=0.108000m/h.</desc>
<speed>0.030000</speed>
</trkpt>
<trkpt lat="56.026421" lon="26.464653">
<ele>116.678772</ele>
<time>2010-06-20T10:16:29Z</time>
<desc>lat.=56.026421, lon.=26.464653, Alt.=116.678772m. Speed=0.072000m/h.</desc>
<speed>0.020000</speed>
</trkpt>
<trkpt lat="56.026421" lon="26.464653">
<ele>116.672913</ele>
<time>2010-06-20T10:16:30Z</time>
<desc>lat.=56.026421, lon.=26.464653, Alt.=116.672913m. Speed=0.072000m/h.</desc>
<speed>0.020000</speed>
</trkpt>
<trkpt lat="56.026421" lon="26.464651">
<ele>116.678772</ele>
<time>2010-06-20T10:16:31Z</time>
<desc>lat.=56.026421, lon.=26.464651, Alt.=116.678772m. Speed=0.216000m/h.</desc>
<speed>0.060000</speed>
</trkpt>
<trkpt lat="56.026421" lon="26.464651">
<ele>116.700256</ele>
<time>2010-06-20T10:16:32Z</time>
<desc>lat.=56.026421, lon.=26.464651, Alt.=116.700256m. Speed=0.072000m/h.</desc>
<speed>0.020000</speed>
</trkpt>
<trkpt lat="56.026421" lon="26.464649">
<ele>116.723694</ele>
<time>2010-06-20T10:16:33Z</time>
<desc>lat.=56.026421, lon.=26.464649, Alt.=116.723694m. Speed=0.144000m/h.</desc>
<speed>0.040000</speed>
</trkpt>
<trkpt lat="56.026421" lon="26.464649">
<ele>116.737366</ele>
<time>2010-06-20T10:16:34Z</time>
<desc>lat.=56.026421, lon.=26.464649, Alt.=116.737366m. Speed=0.360000m/h.</desc>
<speed>0.100000</speed>
</trkpt>
<trkpt lat="56.026421" lon="26.464649">
<ele>116.739319</ele>
<time>2010-06-20T10:16:35Z</time>
<desc>lat.=56.026421, lon.=26.464649, Alt.=116.739319m. Speed=0.144000m/h.</desc>
<speed>0.040000</speed>
</trkpt>
<trkpt lat="56.026421" lon="26.464649">
<ele>116.745178</ele>
<time>2010-06-20T10:16:36Z</time>
<desc>lat.=56.026421, lon.=26.464649, Alt.=116.745178m. Speed=0.036000m/h.</desc>
<speed>0.010000</speed>
</trkpt>
<trkpt lat="56.026421" lon="26.464649">
<ele>116.745178</ele>
<time>2010-06-20T10:16:37Z</time>
<desc>lat.=56.026421, lon.=26.464649, Alt.=116.745178m. Speed=0.000000m/h.</desc>
<speed>0.000000</speed>
</trkpt>
<trkpt lat="56.026421" lon="26.464649">
<ele>116.749084</ele>
<time>2010-06-20T10:16:38Z</time>
<desc>lat.=56.026421, lon.=26.464649, Alt.=116.749084m. Speed=0.000000m/h.</desc>
<speed>0.000000</speed>
</trkpt>
<trkpt lat="56.026421" lon="26.464649">
<ele>116.751038</ele>
<time>2010-06-20T10:16:39Z</time>
<desc>lat.=56.026421, lon.=26.464649, Alt.=116.751038m. Speed=0.000000m/h.</desc>
<speed>0.000000</speed>
</trkpt>
<trkpt lat="56.026421" lon="26.464649">
<ele>116.756897</ele>
<time>2010-06-20T10:16:40Z</time>
<desc>lat.=56.026421, lon.=26.464649, Alt.=116.756897m. Speed=0.072000m/h.</desc>
<speed>0.020000</speed>
</trkpt>
<trkpt lat="56.026421" lon="26.464649">
<ele>116.762756</ele>
<time>2010-06-20T10:16:41Z</time>
<desc>lat.=56.026421, lon.=26.464649, Alt.=116.762756m. Speed=0.036000m/h.</desc>
<speed>0.010000</speed>
</trkpt>
<trkpt lat="56.026421" lon="26.464647">
<ele>116.772522</ele>
<time>2010-06-20T10:16:42Z</time>
<desc>lat.=56.026421, lon.=26.464647, Alt.=116.772522m. Speed=0.144000m/h.</desc>
<speed>0.040000</speed>
</trkpt>
<trkpt lat="56.026421" lon="26.464647">
<ele>116.770569</ele>
<time>2010-06-20T10:16:43Z</time>
<desc>lat.=56.026421, lon.=26.464647, Alt.=116.770569m. Speed=0.000000m/h.</desc>
<speed>0.000000</speed>
</trkpt>
<trkpt lat="56.026421" lon="26.464647">
<ele>116.770569</ele>
<time>2010-06-20T10:16:44Z</time>
<desc>lat.=56.026421, lon.=26.464647, Alt.=116.770569m. Speed=0.036000m/h.</desc>
<speed>0.010000</speed>
</trkpt>
<trkpt lat="56.026421" lon="26.464647">
<ele>116.788147</ele>
<time>2010-06-20T10:16:45Z</time>
<desc>lat.=56.026421, lon.=26.464647, Alt.=116.788147m. Speed=0.072000m/h.</desc>
<speed>0.020000</speed>
</trkpt>
<trkpt lat="56.026421" lon="26.464647">
<ele>116.792053</ele>
<time>2010-06-20T10:16:46Z</time>
<desc>lat.=56.026421, lon.=26.464647, Alt.=116.792053m. Speed=0.000000m/h.</desc>
<speed>0.000000</speed>
</trkpt>
<trkpt lat="56.026421" lon="26.464647">
<ele>116.797913</ele>
<time>2010-06-20T10:16:47Z</time>
<desc>lat.=56.026421, lon.=26.464647, Alt.=116.797913m. Speed=0.036000m/h.</desc>
<speed>0.010000</speed>
</trkpt>
<trkpt lat="56.026421" lon="26.464647">
<ele>116.805725</ele>
<time>2010-06-20T10:16:48Z</time>
<desc>lat.=56.026421, lon.=26.464647, Alt.=116.805725m. Speed=0.072000m/h.</desc>
<speed>0.020000</speed>
</trkpt>
<trkpt lat="56.026421" lon="26.464647">
<ele>116.805725</ele>
<time>2010-06-20T10:16:49Z</time>
<desc>lat.=56.026421, lon.=26.464647, Alt.=116.805725m. Speed=0.072000m/h.</desc>
<speed>0.020000</speed>
</trkpt>
<trkpt lat="56.026421" lon="26.464647">
<ele>116.815491</ele>
<time>2010-06-20T10:16:50Z</time>
<desc>lat.=56.026421, lon.=26.464647, Alt.=116.815491m. Speed=0.000000m/h.</desc>
<speed>0.000000</speed>
</trkpt>
<trkpt lat="56.026421" lon="26.464647">
<ele>116.821350</ele>
<time>2010-06-20T10:16:51Z</time>
<desc>lat.=56.026421, lon.=26.464647, Alt.=116.821350m. Speed=0.072000m/h.</desc>
<speed>0.020000</speed>
</trkpt>
<trkpt lat="56.026421" lon="26.464647">
<ele>116.823303</ele>
<time>2010-06-20T10:16:52Z</time>
<desc>lat.=56.026421, lon.=26.464647, Alt.=116.823303m. Speed=0.000000m/h.</desc>
<speed>0.000000</speed>
</trkpt>
<trkpt lat="56.026421" lon="26.464647">
<ele>116.827209</ele>
<time>2010-06-20T10:16:53Z</time>
<desc>lat.=56.026421, lon.=26.464647, Alt.=116.827209m. Speed=0.036000m/h.</desc>
<speed>0.010000</speed>
</trkpt>
<trkpt lat="56.026421" lon="26.464647">
<ele>116.838928</ele>
<time>2010-06-20T10:16:54Z</time>
<desc>lat.=56.026421, lon.=26.464647, Alt.=116.838928m. Speed=0.036000m/h.</desc>
<speed>0.010000</speed>
</trkpt>
<trkpt lat="56.026421" lon="26.464647">
<ele>116.848694</ele>
<time>2010-06-20T10:16:55Z</time>
<desc>lat.=56.026421, lon.=26.464647, Alt.=116.848694m. Speed=0.000000m/h.</desc>
<speed>0.000000</speed>
</trkpt>
<trkpt lat="56.026421" lon="26.464647">
<ele>116.856506</ele>
<time>2010-06-20T10:16:56Z</time>
<desc>lat.=56.026421, lon.=26.464647, Alt.=116.856506m. Speed=0.000000m/h.</desc>
<speed>0.000000</speed>
</trkpt>
<trkpt lat="56.026421" lon="26.464647">
<ele>116.864319</ele>
<time>2010-06-20T10:16:57Z</time>
<desc>lat.=56.026421, lon.=26.464647, Alt.=116.864319m. Speed=0.036000m/h.</desc>
<speed>0.010000</speed>
</trkpt>
<trkpt lat="56.026421" lon="26.464647">
<ele>116.864319</ele>
<time>2010-06-20T10:16:58Z</time>
<desc>lat.=56.026421, lon.=26.464647, Alt.=116.864319m. Speed=0.000000m/h.</desc>
<speed>0.000000</speed>
</trkpt>
<trkpt lat="56.026421" lon="26.464647">
<ele>116.862366</ele>
<time>2010-06-20T10:16:59Z</time>
<desc>lat.=56.026421, lon.=26.464647, Alt.=116.862366m. Speed=0.072000m/h.</desc>
<speed>0.020000</speed>
</trkpt>
<trkpt lat="56.026421" lon="26.464647">
<ele>116.866272</ele>
<time>2010-06-20T10:17:00Z</time>
<desc>lat.=56.026421, lon.=26.464647, Alt.=116.866272m. Speed=0.108000m/h.</desc>
<speed>0.030000</speed>
</trkpt>
<trkpt lat="56.026421" lon="26.464647">
<ele>116.872131</ele>
<time>2010-06-20T10:17:01Z</time>
<desc>lat.=56.026421, lon.=26.464647, Alt.=116.872131m. Speed=0.000000m/h.</desc>
<speed>0.000000</speed>
</trkpt>
<trkpt lat="56.026421" lon="26.464647">
<ele>116.870178</ele>
<time>2010-06-20T10:17:02Z</time>
<desc>lat.=56.026421, lon.=26.464647, Alt.=116.870178m. Speed=0.000000m/h.</desc>
<speed>0.000000</speed>
</trkpt>
<trkpt lat="56.026421" lon="26.464647">
<ele>116.868225</ele>
<time>2010-06-20T10:17:03Z</time>
<desc>lat.=56.026421, lon.=26.464647, Alt.=116.868225m. Speed=0.000000m/h.</desc>
<speed>0.000000</speed>
</trkpt>
<trkpt lat="56.026421" lon="26.464647">
<ele>116.866272</ele>
<time>2010-06-20T10:17:04Z</time>
<desc>lat.=56.026421, lon.=26.464647, Alt.=116.866272m. Speed=0.036000m/h.</desc>
<speed>0.010000</speed>
</trkpt>
<trkpt lat="56.026421" lon="26.464647">
<ele>116.860413</ele>
<time>2010-06-20T10:17:05Z</time>
<desc>lat.=56.026421, lon.=26.464647, Alt.=116.860413m. Speed=0.000000m/h.</desc>
<speed>0.000000</speed>
</trkpt>
<trkpt lat="56.026421" lon="26.464647">
<ele>116.854553</ele>
<time>2010-06-20T10:17:06Z</time>
<desc>lat.=56.026421, lon.=26.464647, Alt.=116.854553m. Speed=0.036000m/h.</desc>
<speed>0.010000</speed>
</trkpt>
<trkpt lat="56.026421" lon="26.464647">
<ele>116.850647</ele>
<time>2010-06-20T10:17:07Z</time>
<desc>lat.=56.026421, lon.=26.464647, Alt.=116.850647m. Speed=0.000000m/h.</desc>
<speed>0.000000</speed>
</trkpt>
<trkpt lat="56.026421" lon="26.464647">
<ele>116.848694</ele>
<time>2010-06-20T10:17:08Z</time>
<desc>lat.=56.026421, lon.=26.464647, Alt.=116.848694m. Speed=0.000000m/h.</desc>
<speed>0.000000</speed>
</trkpt>
<trkpt lat="56.026421" lon="26.464647">
<ele>116.850647</ele>
<time>2010-06-20T10:17:09Z</time>
<desc>lat.=56.026421, lon.=26.464647, Alt.=116.850647m. Speed=0.000000m/h.</desc>
<speed>0.000000</speed>
</trkpt>
<trkpt lat="56.026421" lon="26.464647">
<ele>116.848694</ele>
<time>2010-06-20T10:17:10Z</time>
<desc>lat.=56.026421, lon.=26.464647, Alt.=116.848694m. Speed=0.000000m/h.</desc>
<speed>0.000000</speed>
</trkpt>
<trkpt lat="56.026421" lon="26.464647">
<ele>116.850647</ele>
<time>2010-06-20T10:17:11Z</time>
<desc>lat.=56.026421, lon.=26.464647, Alt.=116.850647m. Speed=0.000000m/h.</desc>
<speed>0.000000</speed>
</trkpt>
<trkpt lat="56.026421" lon="26.464647">
<ele>116.848694</ele>
<time>2010-06-20T10:17:12Z</time>
<desc>lat.=56.026421, lon.=26.464647, Alt.=116.848694m. Speed=0.072000m/h.</desc>
<speed>0.020000</speed>
</trkpt>
<trkpt lat="56.026421" lon="26.464647">
<ele>116.848694</ele>
<time>2010-06-20T10:17:13Z</time>
<desc>lat.=56.026421, lon.=26.464647, Alt.=116.848694m. Speed=0.036000m/h.</desc>
<speed>0.010000</speed>
</trkpt>
<trkpt lat="56.026421" lon="26.464647">
<ele>116.840881</ele>
<time>2010-06-20T10:17:14Z</time>
<desc>lat.=56.026421, lon.=26.464647, Alt.=116.840881m. Speed=0.000000m/h.</desc>
<speed>0.000000</speed>
</trkpt>
<trkpt lat="56.026421" lon="26.464647">
<ele>116.833069</ele>
<time>2010-06-20T10:17:15Z</time>
<desc>lat.=56.026421, lon.=26.464647, Alt.=116.833069m. Speed=0.000000m/h.</desc>
<speed>0.000000</speed>
</trkpt>
<trkpt lat="56.026421" lon="26.464647">
<ele>116.829163</ele>
<time>2010-06-20T10:17:16Z</time>
<desc>lat.=56.026421, lon.=26.464647, Alt.=116.829163m. Speed=0.036000m/h.</desc>
<speed>0.010000</speed>
</trkpt>
<trkpt lat="56.026421" lon="26.464647">
<ele>116.827209</ele>
<time>2010-06-20T10:17:17Z</time>
<desc>lat.=56.026421, lon.=26.464647, Alt.=116.827209m. Speed=0.036000m/h.</desc>
<speed>0.010000</speed>
</trkpt>
<trkpt lat="56.026421" lon="26.464647">
<ele>116.840881</ele>
<time>2010-06-20T10:17:18Z</time>
<desc>lat.=56.026421, lon.=26.464647, Alt.=116.840881m. Speed=0.036000m/h.</desc>
<speed>0.010000</speed>
</trkpt>
<trkpt lat="56.026421" lon="26.464647">
<ele>116.846741</ele>
<time>2010-06-20T10:17:19Z</time>
<desc>lat.=56.026421, lon.=26.464647, Alt.=116.846741m. Speed=0.036000m/h.</desc>
<speed>0.010000</speed>
</trkpt>
<trkpt lat="56.026421" lon="26.464647">
<ele>116.850647</ele>
<time>2010-06-20T10:17:20Z</time>
<desc>lat.=56.026421, lon.=26.464647, Alt.=116.850647m. Speed=0.036000m/h.</desc>
<speed>0.010000</speed>
</trkpt>
<trkpt lat="56.026421" lon="26.464647">
<ele>116.854553</ele>
<time>2010-06-20T10:17:21Z</time>
<desc>lat.=56.026421, lon.=26.464647, Alt.=116.854553m. Speed=0.000000m/h.</desc>
<speed>0.000000</speed>
</trkpt>
<trkpt lat="56.026421" lon="26.464647">
<ele>116.860413</ele>
<time>2010-06-20T10:17:22Z</time>
<desc>lat.=56.026421, lon.=26.464647, Alt.=116.860413m. Speed=0.000000m/h.</desc>
<speed>0.000000</speed>
</trkpt>
<trkpt lat="56.026421" lon="26.464647">
<ele>116.866272</ele>
<time>2010-06-20T10:17:23Z</time>
<desc>lat.=56.026421, lon.=26.464647, Alt.=116.866272m. Speed=0.036000m/h.</desc>
<speed>0.010000</speed>
</trkpt>
<trkpt lat="56.026421" lon="26.464647">
<ele>116.872131</ele>
<time>2010-06-20T10:17:24Z</time>
<desc>lat.=56.026421, lon.=26.464647, Alt.=116.872131m. Speed=0.036000m/h.</desc>
<speed>0.010000</speed>
</trkpt>
<trkpt lat="56.026421" lon="26.464647">
<ele>116.883850</ele>
<time>2010-06-20T10:17:25Z</time>
<desc>lat.=56.026421, lon.=26.464647, Alt.=116.883850m. Speed=0.000000m/h.</desc>
<speed>0.000000</speed>
</trkpt>
<trkpt lat="56.026421" lon="26.464647">
<ele>116.893616</ele>
<time>2010-06-20T10:17:26Z</time>
<desc>lat.=56.026421, lon.=26.464647, Alt.=116.893616m. Speed=0.000000m/h.</desc>
<speed>0.000000</speed>
</trkpt>
<trkpt lat="56.026421" lon="26.464647">
<ele>116.903381</ele>
<time>2010-06-20T10:17:27Z</time>
<desc>lat.=56.026421, lon.=26.464647, Alt.=116.903381m. Speed=0.072000m/h.</desc>
<speed>0.020000</speed>
</trkpt>
<trkpt lat="56.026421" lon="26.464647">
<ele>116.911194</ele>
<time>2010-06-20T10:17:28Z</time>
<desc>lat.=56.026421, lon.=26.464647, Alt.=116.911194m. Speed=0.036000m/h.</desc>
<speed>0.010000</speed>
</trkpt>
<trkpt lat="56.026421" lon="26.464647">
<ele>116.917053</ele>
<time>2010-06-20T10:17:29Z</time>
<desc>lat.=56.026421, lon.=26.464647, Alt.=116.917053m. Speed=0.036000m/h.</desc>
<speed>0.010000</speed>
</trkpt>
<trkpt lat="56.026421" lon="26.464647">
<ele>116.924866</ele>
<time>2010-06-20T10:17:30Z</time>
<desc>lat.=56.026421, lon.=26.464647, Alt.=116.924866m. Speed=0.036000m/h.</desc>
<speed>0.010000</speed>
</trkpt>
<trkpt lat="56.026421" lon="26.464647">
<ele>116.926819</ele>
<time>2010-06-20T10:17:31Z</time>
<desc>lat.=56.026421, lon.=26.464647, Alt.=116.926819m. Speed=0.000000m/h.</desc>
<speed>0.000000</speed>
</trkpt>
<trkpt lat="56.026421" lon="26.464647">
<ele>116.936584</ele>
<time>2010-06-20T10:17:32Z</time>
<desc>lat.=56.026421, lon.=26.464647, Alt.=116.936584m. Speed=0.072000m/h.</desc>
<speed>0.020000</speed>
</trkpt>
<trkpt lat="56.026421" lon="26.464647">
<ele>116.948303</ele>
<time>2010-06-20T10:17:33Z</time>
<desc>lat.=56.026421, lon.=26.464647, Alt.=116.948303m. Speed=0.108000m/h.</desc>
<speed>0.030000</speed>
</trkpt>
<trkpt lat="56.026421" lon="26.464649">
<ele>116.967834</ele>
<time>2010-06-20T10:17:34Z</time>
<desc>lat.=56.026421, lon.=26.464649, Alt.=116.967834m. Speed=0.180000m/h.</desc>
<speed>0.050000</speed>
</trkpt>
<trkpt lat="56.026421" lon="26.464649">
<ele>116.969788</ele>
<time>2010-06-20T10:17:35Z</time>
<desc>lat.=56.026421, lon.=26.464649, Alt.=116.969788m. Speed=0.072000m/h.</desc>
<speed>0.020000</speed>
</trkpt>
<trkpt lat="56.026421" lon="26.464649">
<ele>116.965881</ele>
<time>2010-06-20T10:17:36Z</time>
<desc>lat.=56.026421, lon.=26.464649, Alt.=116.965881m. Speed=0.036000m/h.</desc>
<speed>0.010000</speed>
</trkpt>
<trkpt lat="56.026421" lon="26.464649">
<ele>116.958069</ele>
<time>2010-06-20T10:17:37Z</time>
<desc>lat.=56.026421, lon.=26.464649, Alt.=116.958069m. Speed=0.108000m/h.</desc>
<speed>0.030000</speed>
</trkpt>
<trkpt lat="56.026421" lon="26.464649">
<ele>116.950256</ele>
<time>2010-06-20T10:17:38Z</time>
<desc>lat.=56.026421, lon.=26.464649, Alt.=116.950256m. Speed=0.036000m/h.</desc>
<speed>0.010000</speed>
</trkpt>
<trkpt lat="56.026421" lon="26.464649">
<ele>116.940491</ele>
<time>2010-06-20T10:17:39Z</time>
<desc>lat.=56.026421, lon.=26.464649, Alt.=116.940491m. Speed=0.072000m/h.</desc>
<speed>0.020000</speed>
</trkpt>
<trkpt lat="56.026421" lon="26.464649">
<ele>116.926819</ele>
<time>2010-06-20T10:17:40Z</time>
<desc>lat.=56.026421, lon.=26.464649, Alt.=116.926819m. Speed=0.288000m/h.</desc>
<speed>0.080000</speed>
</trkpt>
<trkpt lat="56.026421" lon="26.464649">
<ele>116.920959</ele>
<time>2010-06-20T10:17:41Z</time>
<desc>lat.=56.026421, lon.=26.464649, Alt.=116.920959m. Speed=0.144000m/h.</desc>
<speed>0.040000</speed>
</trkpt>
<trkpt lat="56.026421" lon="26.464651">
<ele>116.913147</ele>
<time>2010-06-20T10:17:42Z</time>
<desc>lat.=56.026421, lon.=26.464651, Alt.=116.913147m. Speed=0.180000m/h.</desc>
<speed>0.050000</speed>
</trkpt>
<trkpt lat="56.026421" lon="26.464651">
<ele>116.905334</ele>
<time>2010-06-20T10:17:43Z</time>
<desc>lat.=56.026421, lon.=26.464651, Alt.=116.905334m. Speed=0.108000m/h.</desc>
<speed>0.030000</speed>
</trkpt>
<trkpt lat="56.026421" lon="26.464651">
<ele>116.899475</ele>
<time>2010-06-20T10:17:44Z</time>
<desc>lat.=56.026421, lon.=26.464651, Alt.=116.899475m. Speed=0.072000m/h.</desc>
<speed>0.020000</speed>
</trkpt>
<trkpt lat="56.026421" lon="26.464651">
<ele>116.895569</ele>
<time>2010-06-20T10:17:45Z</time>
<desc>lat.=56.026421, lon.=26.464651, Alt.=116.895569m. Speed=0.180000m/h.</desc>
<speed>0.050000</speed>
</trkpt>
<trkpt lat="56.026421" lon="26.464651">
<ele>116.889709</ele>
<time>2010-06-20T10:17:46Z</time>
<desc>lat.=56.026421, lon.=26.464651, Alt.=116.889709m. Speed=0.072000m/h.</desc>
<speed>0.020000</speed>
</trkpt>
<trkpt lat="56.026421" lon="26.464651">
<ele>116.887756</ele>
<time>2010-06-20T10:17:47Z</time>
<desc>lat.=56.026421, lon.=26.464651, Alt.=116.887756m. Speed=0.036000m/h.</desc>
<speed>0.010000</speed>
</trkpt>
<trkpt lat="56.026421" lon="26.464651">
<ele>116.885803</ele>
<time>2010-06-20T10:17:48Z</time>
<desc>lat.=56.026421, lon.=26.464651, Alt.=116.885803m. Speed=0.072000m/h.</desc>
<speed>0.020000</speed>
</trkpt>
<trkpt lat="56.026421" lon="26.464651">
<ele>116.883850</ele>
<time>2010-06-20T10:17:49Z</time>
<desc>lat.=56.026421, lon.=26.464651, Alt.=116.883850m. Speed=0.036000m/h.</desc>
<speed>0.010000</speed>
</trkpt>
<trkpt lat="56.026421" lon="26.464651">
<ele>116.883850</ele>
<time>2010-06-20T10:17:50Z</time>
<desc>lat.=56.026421, lon.=26.464651, Alt.=116.883850m. Speed=0.036000m/h.</desc>
<speed>0.010000</speed>
</trkpt>
<trkpt lat="56.026421" lon="26.464651">
<ele>116.887756</ele>
<time>2010-06-20T10:17:51Z</time>
<desc>lat.=56.026421, lon.=26.464651, Alt.=116.887756m. Speed=0.036000m/h.</desc>
<speed>0.010000</speed>
</trkpt>
<trkpt lat="56.026421" lon="26.464649">
<ele>116.889709</ele>
<time>2010-06-20T10:17:52Z</time>
<desc>lat.=56.026421, lon.=26.464649, Alt.=116.889709m. Speed=0.036000m/h.</desc>
<speed>0.010000</speed>
</trkpt>
<trkpt lat="56.026421" lon="26.464649">
<ele>116.885803</ele>
<time>2010-06-20T10:17:53Z</time>
<desc>lat.=56.026421, lon.=26.464649, Alt.=116.885803m. Speed=0.144000m/h.</desc>
<speed>0.040000</speed>
</trkpt>
<trkpt lat="56.026421" lon="26.464649">
<ele>116.876038</ele>
<time>2010-06-20T10:17:54Z</time>
<desc>lat.=56.026421, lon.=26.464649, Alt.=116.876038m. Speed=0.180000m/h.</desc>
<speed>0.050000</speed>
</trkpt>
<trkpt lat="56.026421" lon="26.464649">
<ele>116.877991</ele>
<time>2010-06-20T10:17:55Z</time>
<desc>lat.=56.026421, lon.=26.464649, Alt.=116.877991m. Speed=0.000000m/h.</desc>
<speed>0.000000</speed>
</trkpt>
<trkpt lat="56.026421" lon="26.464649">
<ele>116.877991</ele>
<time>2010-06-20T10:17:56Z</time>
<desc>lat.=56.026421, lon.=26.464649, Alt.=116.877991m. Speed=0.108000m/h.</desc>
<speed>0.030000</speed>
</trkpt>
<trkpt lat="56.026421" lon="26.464649">
<ele>116.885803</ele>
<time>2010-06-20T10:17:57Z</time>
<desc>lat.=56.026421, lon.=26.464649, Alt.=116.885803m. Speed=0.108000m/h.</desc>
<speed>0.030000</speed>
</trkpt>
<trkpt lat="56.026421" lon="26.464649">
<ele>116.903381</ele>
<time>2010-06-20T10:17:58Z</time>
<desc>lat.=56.026421, lon.=26.464649, Alt.=116.903381m. Speed=0.180000m/h.</desc>
<speed>0.050000</speed>
</trkpt>
<trkpt lat="56.026421" lon="26.464649">
<ele>116.903381</ele>
<time>2010-06-20T10:17:59Z</time>
<desc>lat.=56.026421, lon.=26.464649, Alt.=116.903381m. Speed=0.072000m/h.</desc>
<speed>0.020000</speed>
</trkpt>
<trkpt lat="56.026421" lon="26.464649">
<ele>116.907288</ele>
<time>2010-06-20T10:18:00Z</time>
<desc>lat.=56.026421, lon.=26.464649, Alt.=116.907288m. Speed=0.540000m/h.</desc>
<speed>0.150000</speed>
</trkpt>
<trkpt lat="56.026424" lon="26.464647">
<ele>116.911194</ele>
<time>2010-06-20T10:18:01Z</time>
<desc>lat.=56.026424, lon.=26.464647, Alt.=116.911194m. Speed=0.504000m/h.</desc>
<speed>0.140000</speed>
</trkpt>
<trkpt lat="56.026424" lon="26.464647">
<ele>116.909241</ele>
<time>2010-06-20T10:18:02Z</time>
<desc>lat.=56.026424, lon.=26.464647, Alt.=116.909241m. Speed=0.324000m/h.</desc>
<speed>0.090000</speed>
</trkpt>
<trkpt lat="56.026424" lon="26.464647">
<ele>116.909241</ele>
<time>2010-06-20T10:18:03Z</time>
<desc>lat.=56.026424, lon.=26.464647, Alt.=116.909241m. Speed=0.504000m/h.</desc>
<speed>0.140000</speed>
</trkpt>
<trkpt lat="56.026424" lon="26.464647">
<ele>116.907288</ele>
<time>2010-06-20T10:18:04Z</time>
<desc>lat.=56.026424, lon.=26.464647, Alt.=116.907288m. Speed=0.756000m/h.</desc>
<speed>0.210000</speed>
</trkpt>
<trkpt lat="56.026428" lon="26.464647">
<ele>116.907288</ele>
<time>2010-06-20T10:18:05Z</time>
<desc>lat.=56.026428, lon.=26.464647, Alt.=116.907288m. Speed=0.972000m/h.</desc>
<speed>0.270000</speed>
</trkpt>
<trkpt lat="56.026432" lon="26.464649">
<ele>116.911194</ele>
<time>2010-06-20T10:18:06Z</time>
<desc>lat.=56.026432, lon.=26.464649, Alt.=116.911194m. Speed=1.008000m/h.</desc>
<speed>0.280000</speed>
</trkpt>
<trkpt lat="56.026432" lon="26.464649">
<ele>116.915100</ele>
<time>2010-06-20T10:18:07Z</time>
<desc>lat.=56.026432, lon.=26.464649, Alt.=116.915100m. Speed=1.188000m/h.</desc>
<speed>0.330000</speed>
</trkpt>
<trkpt lat="56.026447" lon="26.464659">
<ele>117.131897</ele>
<time>2010-06-20T10:18:08Z</time>
<desc>lat.=56.026447, lon.=26.464659, Alt.=117.131897m. Speed=1.332000m/h.</desc>
<speed>0.370000</speed>
</trkpt>
<trkpt lat="56.026459" lon="26.464672">
<ele>117.600647</ele>
<time>2010-06-20T10:18:09Z</time>
<desc>lat.=56.026459, lon.=26.464672, Alt.=117.600647m. Speed=1.260000m/h.</desc>
<speed>0.350000</speed>
</trkpt>
<trkpt lat="56.026459" lon="26.464670">
<ele>117.719788</ele>
<time>2010-06-20T10:18:10Z</time>
<desc>lat.=56.026459, lon.=26.464670, Alt.=117.719788m. Speed=0.720000m/h.</desc>
<speed>0.200000</speed>
</trkpt>
<trkpt lat="56.026463" lon="26.464672">
<ele>117.544006</ele>
<time>2010-06-20T10:18:11Z</time>
<desc>lat.=56.026463, lon.=26.464672, Alt.=117.544006m. Speed=0.720000m/h.</desc>
<speed>0.200000</speed>
</trkpt>
<trkpt lat="56.026466" lon="26.464678">
<ele>117.575256</ele>
<time>2010-06-20T10:18:12Z</time>
<desc>lat.=56.026466, lon.=26.464678, Alt.=117.575256m. Speed=0.648000m/h.</desc>
<speed>0.180000</speed>
</trkpt>
<trkpt lat="56.026470" lon="26.464678">
<ele>117.336975</ele>
<time>2010-06-20T10:18:13Z</time>
<desc>lat.=56.026470, lon.=26.464678, Alt.=117.336975m. Speed=0.756000m/h.</desc>
<speed>0.210000</speed>
</trkpt>
<trkpt lat="56.026474" lon="26.464676">
<ele>117.335022</ele>
<time>2010-06-20T10:18:14Z</time>
<desc>lat.=56.026474, lon.=26.464676, Alt.=117.335022m. Speed=0.900000m/h.</desc>
<speed>0.250000</speed>
</trkpt>
<trkpt lat="56.026474" lon="26.464672">
<ele>117.333069</ele>
<time>2010-06-20T10:18:15Z</time>
<desc>lat.=56.026474, lon.=26.464672, Alt.=117.333069m. Speed=0.828000m/h.</desc>
<speed>0.230000</speed>
</trkpt>
<trkpt lat="56.026474" lon="26.464670">
<ele>117.331116</ele>
<time>2010-06-20T10:18:16Z</time>
<desc>lat.=56.026474, lon.=26.464670, Alt.=117.331116m. Speed=0.828000m/h.</desc>
<speed>0.230000</speed>
</trkpt>
<trkpt lat="56.026478" lon="26.464668">
<ele>117.338928</ele>
<time>2010-06-20T10:18:17Z</time>
<desc>lat.=56.026478, lon.=26.464668, Alt.=117.338928m. Speed=0.720000m/h.</desc>
<speed>0.200000</speed>
</trkpt>
<trkpt lat="56.026478" lon="26.464664">
<ele>117.348694</ele>
<time>2010-06-20T10:18:18Z</time>
<desc>lat.=56.026478, lon.=26.464664, Alt.=117.348694m. Speed=0.612000m/h.</desc>
<speed>0.170000</speed>
</trkpt>
<trkpt lat="56.026478" lon="26.464663">
<ele>117.362366</ele>
<time>2010-06-20T10:18:19Z</time>
<desc>lat.=56.026478, lon.=26.464663, Alt.=117.362366m. Speed=0.396000m/h.</desc>
<speed>0.110000</speed>
</trkpt>
<trkpt lat="56.026482" lon="26.464661">
<ele>117.381897</ele>
<time>2010-06-20T10:18:20Z</time>
<desc>lat.=56.026482, lon.=26.464661, Alt.=117.381897m. Speed=0.576000m/h.</desc>
<speed>0.160000</speed>
</trkpt>
<trkpt lat="56.026482" lon="26.464659">
<ele>117.401428</ele>
<time>2010-06-20T10:18:21Z</time>
<desc>lat.=56.026482, lon.=26.464659, Alt.=117.401428m. Speed=0.648000m/h.</desc>
<speed>0.180000</speed>
</trkpt>
<trkpt lat="56.026482" lon="26.464657">
<ele>117.426819</ele>
<time>2010-06-20T10:18:22Z</time>
<desc>lat.=56.026482, lon.=26.464657, Alt.=117.426819m. Speed=0.756000m/h.</desc>
<speed>0.210000</speed>
</trkpt>
<trkpt lat="56.026485" lon="26.464655">
<ele>117.460022</ele>
<time>2010-06-20T10:18:23Z</time>
<desc>lat.=56.026485, lon.=26.464655, Alt.=117.460022m. Speed=0.972000m/h.</desc>
<speed>0.270000</speed>
</trkpt>
<trkpt lat="56.026485" lon="26.464651">
<ele>117.501038</ele>
<time>2010-06-20T10:18:24Z</time>
<desc>lat.=56.026485, lon.=26.464651, Alt.=117.501038m. Speed=0.864000m/h.</desc>
<speed>0.240000</speed>
</trkpt>
<trkpt lat="56.026485" lon="26.464647">
<ele>117.540100</ele>
<time>2010-06-20T10:18:25Z</time>
<desc>lat.=56.026485, lon.=26.464647, Alt.=117.540100m. Speed=0.432000m/h.</desc>
<speed>0.120000</speed>
</trkpt>
<trkpt lat="56.026489" lon="26.464647">
<ele>117.577209</ele>
<time>2010-06-20T10:18:26Z</time>
<desc>lat.=56.026489, lon.=26.464647, Alt.=117.577209m. Speed=0.540000m/h.</desc>
<speed>0.150000</speed>
</trkpt>
<trkpt lat="56.026489" lon="26.464645">
<ele>117.624084</ele>
<time>2010-06-20T10:18:27Z</time>
<desc>lat.=56.026489, lon.=26.464645, Alt.=117.624084m. Speed=0.612000m/h.</desc>
<speed>0.170000</speed>
</trkpt>
<trkpt lat="56.026489" lon="26.464645">
<ele>117.669006</ele>
<time>2010-06-20T10:18:28Z</time>
<desc>lat.=56.026489, lon.=26.464645, Alt.=117.669006m. Speed=0.540000m/h.</desc>
<speed>0.150000</speed>
</trkpt>
<trkpt lat="56.026493" lon="26.464643">
<ele>117.735413</ele>
<time>2010-06-20T10:18:29Z</time>
<desc>lat.=56.026493, lon.=26.464643, Alt.=117.735413m. Speed=0.108000m/h.</desc>
<speed>0.030000</speed>
</trkpt>
<trkpt lat="56.026493" lon="26.464643">
<ele>117.817444</ele>
<time>2010-06-20T10:18:30Z</time>
<desc>lat.=56.026493, lon.=26.464643, Alt.=117.817444m. Speed=0.180000m/h.</desc>
<speed>0.050000</speed>
</trkpt>
<trkpt lat="56.026493" lon="26.464643">
<ele>117.905334</ele>
<time>2010-06-20T10:18:31Z</time>
<desc>lat.=56.026493, lon.=26.464643, Alt.=117.905334m. Speed=0.360000m/h.</desc>
<speed>0.100000</speed>
</trkpt>
<trkpt lat="56.026493" lon="26.464645">
<ele>118.008850</ele>
<time>2010-06-20T10:18:32Z</time>
<desc>lat.=56.026493, lon.=26.464645, Alt.=118.008850m. Speed=0.432000m/h.</desc>
<speed>0.120000</speed>
</trkpt>
<trkpt lat="56.026493" lon="26.464645">
<ele>118.118225</ele>
<time>2010-06-20T10:18:33Z</time>
<desc>lat.=56.026493, lon.=26.464645, Alt.=118.118225m. Speed=0.468000m/h.</desc>
<speed>0.130000</speed>
</trkpt>
<trkpt lat="56.026493" lon="26.464647">
<ele>118.231506</ele>
<time>2010-06-20T10:18:34Z</time>
<desc>lat.=56.026493, lon.=26.464647, Alt.=118.231506m. Speed=0.288000m/h.</desc>
<speed>0.080000</speed>
</trkpt>
<trkpt lat="56.026497" lon="26.464647">
<ele>118.342834</ele>
<time>2010-06-20T10:18:35Z</time>
<desc>lat.=56.026497, lon.=26.464647, Alt.=118.342834m. Speed=0.036000m/h.</desc>
<speed>0.010000</speed>
</trkpt>
<trkpt lat="56.026497" lon="26.464647">
<ele>118.454163</ele>
<time>2010-06-20T10:18:36Z</time>
<desc>lat.=56.026497, lon.=26.464647, Alt.=118.454163m. Speed=0.072000m/h.</desc>
<speed>0.020000</speed>
</trkpt>
<trkpt lat="56.026497" lon="26.464647">
<ele>118.565491</ele>
<time>2010-06-20T10:18:37Z</time>
<desc>lat.=56.026497, lon.=26.464647, Alt.=118.565491m. Speed=0.216000m/h.</desc>
<speed>0.060000</speed>
</trkpt>
<trkpt lat="56.026497" lon="26.464649">
<ele>118.672913</ele>
<time>2010-06-20T10:18:38Z</time>
<desc>lat.=56.026497, lon.=26.464649, Alt.=118.672913m. Speed=0.180000m/h.</desc>
<speed>0.050000</speed>
</trkpt>
<trkpt lat="56.026497" lon="26.464647">
<ele>118.795959</ele>
<time>2010-06-20T10:18:39Z</time>
<desc>lat.=56.026497, lon.=26.464647, Alt.=118.795959m. Speed=0.144000m/h.</desc>
<speed>0.040000</speed>
</trkpt>
<trkpt lat="56.026497" lon="26.464649">
<ele>118.919006</ele>
<time>2010-06-20T10:18:40Z</time>
<desc>lat.=56.026497, lon.=26.464649, Alt.=118.919006m. Speed=0.216000m/h.</desc>
<speed>0.060000</speed>
</trkpt>
<trkpt lat="56.026497" lon="26.464649">
<ele>119.042053</ele>
<time>2010-06-20T10:18:41Z</time>
<desc>lat.=56.026497, lon.=26.464649, Alt.=119.042053m. Speed=0.288000m/h.</desc>
<speed>0.080000</speed>
</trkpt>
<trkpt lat="56.026493" lon="26.464651">
<ele>119.176819</ele>
<time>2010-06-20T10:18:42Z</time>
<desc>lat.=56.026493, lon.=26.464651, Alt.=119.176819m. Speed=0.468000m/h.</desc>
<speed>0.130000</speed>
</trkpt>
<trkpt lat="56.026493" lon="26.464651">
<ele>119.321350</ele>
<time>2010-06-20T10:18:43Z</time>
<desc>lat.=56.026493, lon.=26.464651, Alt.=119.321350m. Speed=0.684000m/h.</desc>
<speed>0.190000</speed>
</trkpt>
<trkpt lat="56.026493" lon="26.464653">
<ele>119.458069</ele>
<time>2010-06-20T10:18:44Z</time>
<desc>lat.=56.026493, lon.=26.464653, Alt.=119.458069m. Speed=0.792000m/h.</desc>
<speed>0.220000</speed>
</trkpt>
<trkpt lat="56.026489" lon="26.464657">
<ele>119.594788</ele>
<time>2010-06-20T10:18:45Z</time>
<desc>lat.=56.026489, lon.=26.464657, Alt.=119.594788m. Speed=1.008000m/h.</desc>
<speed>0.280000</speed>
</trkpt>
<trkpt lat="56.026489" lon="26.464659">
<ele>119.733459</ele>
<time>2010-06-20T10:18:46Z</time>
<desc>lat.=56.026489, lon.=26.464659, Alt.=119.733459m. Speed=0.972000m/h.</desc>
<speed>0.270000</speed>
</trkpt>
<trkpt lat="56.026485" lon="26.464661">
<ele>119.881897</ele>
<time>2010-06-20T10:18:47Z</time>
<desc>lat.=56.026485, lon.=26.464661, Alt.=119.881897m. Speed=1.044000m/h.</desc>
<speed>0.290000</speed>
</trkpt>
<trkpt lat="56.026485" lon="26.464664">
<ele>120.018616</ele>
<time>2010-06-20T10:18:48Z</time>
<desc>lat.=56.026485, lon.=26.464664, Alt.=120.018616m. Speed=1.188000m/h.</desc>
<speed>0.330000</speed>
</trkpt>
<trkpt lat="56.026485" lon="26.464668">
<ele>120.217834</ele>
<time>2010-06-20T10:18:49Z</time>
<desc>lat.=56.026485, lon.=26.464668, Alt.=120.217834m. Speed=1.044000m/h.</desc>
<speed>0.290000</speed>
</trkpt>
<trkpt lat="56.026485" lon="26.464668">
<ele>120.594788</ele>
<time>2010-06-20T10:18:50Z</time>
<desc>lat.=56.026485, lon.=26.464668, Alt.=120.594788m. Speed=0.864000m/h.</desc>
<speed>0.240000</speed>
</trkpt>
<trkpt lat="56.026489" lon="26.464661">
<ele>120.965881</ele>
<time>2010-06-20T10:18:51Z</time>
<desc>lat.=56.026489, lon.=26.464661, Alt.=120.965881m. Speed=0.576000m/h.</desc>
<speed>0.160000</speed>
</trkpt>
<trkpt lat="56.026489" lon="26.464666">
<ele>120.895569</ele>
<time>2010-06-20T10:18:52Z</time>
<desc>lat.=56.026489, lon.=26.464666, Alt.=120.895569m. Speed=0.540000m/h.</desc>
<speed>0.150000</speed>
</trkpt>
<trkpt lat="56.026485" lon="26.464668">
<ele>120.999084</ele>
<time>2010-06-20T10:18:53Z</time>
<desc>lat.=56.026485, lon.=26.464668, Alt.=120.999084m. Speed=0.756000m/h.</desc>
<speed>0.210000</speed>
</trkpt>
<trkpt lat="56.026485" lon="26.464670">
<ele>121.088928</ele>
<time>2010-06-20T10:18:54Z</time>
<desc>lat.=56.026485, lon.=26.464670, Alt.=121.088928m. Speed=0.864000m/h.</desc>
<speed>0.240000</speed>
</trkpt>
<trkpt lat="56.026482" lon="26.464672">
<ele>121.176819</ele>
<time>2010-06-20T10:18:55Z</time>
<desc>lat.=56.026482, lon.=26.464672, Alt.=121.176819m. Speed=0.900000m/h.</desc>
<speed>0.250000</speed>
</trkpt>
<trkpt lat="56.026482" lon="26.464674">
<ele>121.260803</ele>
<time>2010-06-20T10:18:56Z</time>
<desc>lat.=56.026482, lon.=26.464674, Alt.=121.260803m. Speed=0.864000m/h.</desc>
<speed>0.240000</speed>
</trkpt>
<trkpt lat="56.026478" lon="26.464678">
<ele>121.340881</ele>
<time>2010-06-20T10:18:57Z</time>
<desc>lat.=56.026478, lon.=26.464678, Alt.=121.340881m. Speed=0.900000m/h.</desc>
<speed>0.250000</speed>
</trkpt>
<trkpt lat="56.026478" lon="26.464680">
<ele>121.420959</ele>
<time>2010-06-20T10:18:58Z</time>
<desc>lat.=56.026478, lon.=26.464680, Alt.=121.420959m. Speed=0.792000m/h.</desc>
<speed>0.220000</speed>
</trkpt>
<trkpt lat="56.026474" lon="26.464684">
<ele>121.491272</ele>
<time>2010-06-20T10:18:59Z</time>
<desc>lat.=56.026474, lon.=26.464684, Alt.=121.491272m. Speed=0.972000m/h.</desc>
<speed>0.270000</speed>
</trkpt>
<trkpt lat="56.026474" lon="26.464685">
<ele>121.565491</ele>
<time>2010-06-20T10:19:00Z</time>
<desc>lat.=56.026474, lon.=26.464685, Alt.=121.565491m. Speed=0.900000m/h.</desc>
<speed>0.250000</speed>
</trkpt>
<trkpt lat="56.026474" lon="26.464689">
<ele>121.635803</ele>
<time>2010-06-20T10:19:01Z</time>
<desc>lat.=56.026474, lon.=26.464689, Alt.=121.635803m. Speed=1.008000m/h.</desc>
<speed>0.280000</speed>
</trkpt>
<trkpt lat="56.026470" lon="26.464693">
<ele>121.708069</ele>
<time>2010-06-20T10:19:02Z</time>
<desc>lat.=56.026470, lon.=26.464693, Alt.=121.708069m. Speed=0.720000m/h.</desc>
<speed>0.200000</speed>
</trkpt>
<trkpt lat="56.026470" lon="26.464695">
<ele>121.776428</ele>
<time>2010-06-20T10:19:03Z</time>
<desc>lat.=56.026470, lon.=26.464695, Alt.=121.776428m. Speed=0.432000m/h.</desc>
<speed>0.120000</speed>
</trkpt>
<trkpt lat="56.026470" lon="26.464695">
<ele>121.842834</ele>
<time>2010-06-20T10:19:04Z</time>
<desc>lat.=56.026470, lon.=26.464695, Alt.=121.842834m. Speed=0.216000m/h.</desc>
<speed>0.060000</speed>
</trkpt>
<trkpt lat="56.026470" lon="26.464695">
<ele>121.907288</ele>
<time>2010-06-20T10:19:05Z</time>
<desc>lat.=56.026470, lon.=26.464695, Alt.=121.907288m. Speed=0.144000m/h.</desc>
<speed>0.040000</speed>
</trkpt>
<trkpt lat="56.026470" lon="26.464695">
<ele>121.969788</ele>
<time>2010-06-20T10:19:06Z</time>
<desc>lat.=56.026470, lon.=26.464695, Alt.=121.969788m. Speed=0.180000m/h.</desc>
<speed>0.050000</speed>
</trkpt>
<trkpt lat="56.026466" lon="26.464695">
<ele>122.018616</ele>
<time>2010-06-20T10:19:07Z</time>
<desc>lat.=56.026466, lon.=26.464695, Alt.=122.018616m. Speed=0.072000m/h.</desc>
<speed>0.020000</speed>
</trkpt>
<trkpt lat="56.026466" lon="26.464695">
<ele>122.061584</ele>
<time>2010-06-20T10:19:08Z</time>
<desc>lat.=56.026466, lon.=26.464695, Alt.=122.061584m. Speed=0.108000m/h.</desc>
<speed>0.030000</speed>
</trkpt>
<trkpt lat="56.026470" lon="26.464693">
<ele>122.104553</ele>
<time>2010-06-20T10:19:09Z</time>
<desc>lat.=56.026470, lon.=26.464693, Alt.=122.104553m. Speed=0.144000m/h.</desc>
<speed>0.040000</speed>
</trkpt>
<trkpt lat="56.026470" lon="26.464693">
<ele>122.143616</ele>
<time>2010-06-20T10:19:10Z</time>
<desc>lat.=56.026470, lon.=26.464693, Alt.=122.143616m. Speed=0.288000m/h.</desc>
<speed>0.080000</speed>
</trkpt>
<trkpt lat="56.026470" lon="26.464693">
<ele>122.167053</ele>
<time>2010-06-20T10:19:11Z</time>
<desc>lat.=56.026470, lon.=26.464693, Alt.=122.167053m. Speed=0.684000m/h.</desc>
<speed>0.190000</speed>
</trkpt>
<trkpt lat="56.026470" lon="26.464691">
<ele>122.188538</ele>
<time>2010-06-20T10:19:12Z</time>
<desc>lat.=56.026470, lon.=26.464691, Alt.=122.188538m. Speed=0.828000m/h.</desc>
<speed>0.230000</speed>
</trkpt>
<trkpt lat="56.026470" lon="26.464687">
<ele>122.206116</ele>
<time>2010-06-20T10:19:13Z</time>
<desc>lat.=56.026470, lon.=26.464687, Alt.=122.206116m. Speed=0.864000m/h.</desc>
<speed>0.240000</speed>
</trkpt>
<trkpt lat="56.026474" lon="26.464684">
<ele>122.225647</ele>
<time>2010-06-20T10:19:14Z</time>
<desc>lat.=56.026474, lon.=26.464684, Alt.=122.225647m. Speed=0.792000m/h.</desc>
<speed>0.220000</speed>
</trkpt>
<trkpt lat="56.026474" lon="26.464682">
<ele>122.243225</ele>
<time>2010-06-20T10:19:15Z</time>
<desc>lat.=56.026474, lon.=26.464682, Alt.=122.243225m. Speed=0.792000m/h.</desc>
<speed>0.220000</speed>
</trkpt>
<trkpt lat="56.026478" lon="26.464678">
<ele>122.262756</ele>
<time>2010-06-20T10:19:16Z</time>
<desc>lat.=56.026478, lon.=26.464678, Alt.=122.262756m. Speed=0.864000m/h.</desc>
<speed>0.240000</speed>
</trkpt>
<trkpt lat="56.026478" lon="26.464676">
<ele>122.274475</ele>
<time>2010-06-20T10:19:17Z</time>
<desc>lat.=56.026478, lon.=26.464676, Alt.=122.274475m. Speed=0.792000m/h.</desc>
<speed>0.220000</speed>
</trkpt>
<trkpt lat="56.026482" lon="26.464674">
<ele>122.284241</ele>
<time>2010-06-20T10:19:18Z</time>
<desc>lat.=56.026482, lon.=26.464674, Alt.=122.284241m. Speed=0.828000m/h.</desc>
<speed>0.230000</speed>
</trkpt>
<trkpt lat="56.026482" lon="26.464672">
<ele>122.295959</ele>
<time>2010-06-20T10:19:19Z</time>
<desc>lat.=56.026482, lon.=26.464672, Alt.=122.295959m. Speed=0.900000m/h.</desc>
<speed>0.250000</speed>
</trkpt>
<trkpt lat="56.026485" lon="26.464670">
<ele>122.317444</ele>
<time>2010-06-20T10:19:20Z</time>
<desc>lat.=56.026485, lon.=26.464670, Alt.=122.317444m. Speed=0.972000m/h.</desc>
<speed>0.270000</speed>
</trkpt>
<trkpt lat="56.026485" lon="26.464668">
<ele>122.342834</ele>
<time>2010-06-20T10:19:21Z</time>
<desc>lat.=56.026485, lon.=26.464668, Alt.=122.342834m. Speed=0.792000m/h.</desc>
<speed>0.220000</speed>
</trkpt>
<trkpt lat="56.026489" lon="26.464664">
<ele>122.376038</ele>
<time>2010-06-20T10:19:22Z</time>
<desc>lat.=56.026489, lon.=26.464664, Alt.=122.376038m. Speed=0.756000m/h.</desc>
<speed>0.210000</speed>
</trkpt>
<trkpt lat="56.026489" lon="26.464663">
<ele>122.420959</ele>
<time>2010-06-20T10:19:23Z</time>
<desc>lat.=56.026489, lon.=26.464663, Alt.=122.420959m. Speed=0.540000m/h.</desc>
<speed>0.150000</speed>
</trkpt>
<trkpt lat="56.026489" lon="26.464661">
<ele>122.467834</ele>
<time>2010-06-20T10:19:24Z</time>
<desc>lat.=56.026489, lon.=26.464661, Alt.=122.467834m. Speed=0.504000m/h.</desc>
<speed>0.140000</speed>
</trkpt>
<trkpt lat="56.026489" lon="26.464659">
<ele>122.522522</ele>
<time>2010-06-20T10:19:25Z</time>
<desc>lat.=56.026489, lon.=26.464659, Alt.=122.522522m. Speed=0.468000m/h.</desc>
<speed>0.130000</speed>
</trkpt>
<trkpt lat="56.026489" lon="26.464657">
<ele>122.592834</ele>
<time>2010-06-20T10:19:26Z</time>
<desc>lat.=56.026489, lon.=26.464657, Alt.=122.592834m. Speed=0.216000m/h.</desc>
<speed>0.060000</speed>
</trkpt>
<trkpt lat="56.026493" lon="26.464655">
<ele>122.670959</ele>
<time>2010-06-20T10:19:27Z</time>
<desc>lat.=56.026493, lon.=26.464655, Alt.=122.670959m. Speed=0.360000m/h.</desc>
<speed>0.100000</speed>
</trkpt>
<trkpt lat="56.026493" lon="26.464653">
<ele>122.762756</ele>
<time>2010-06-20T10:19:28Z</time>
<desc>lat.=56.026493, lon.=26.464653, Alt.=122.762756m. Speed=0.396000m/h.</desc>
<speed>0.110000</speed>
</trkpt>
<trkpt lat="56.026493" lon="26.464651">
<ele>122.864319</ele>
<time>2010-06-20T10:19:29Z</time>
<desc>lat.=56.026493, lon.=26.464651, Alt.=122.864319m. Speed=0.396000m/h.</desc>
<speed>0.110000</speed>
</trkpt>
<trkpt lat="56.026493" lon="26.464651">
<ele>122.981506</ele>
<time>2010-06-20T10:19:30Z</time>
<desc>lat.=56.026493, lon.=26.464651, Alt.=122.981506m. Speed=0.396000m/h.</desc>
<speed>0.110000</speed>
</trkpt>
<trkpt lat="56.026493" lon="26.464647">
<ele>123.108459</ele>
<time>2010-06-20T10:19:31Z</time>
<desc>lat.=56.026493, lon.=26.464647, Alt.=123.108459m. Speed=0.468000m/h.</desc>
<speed>0.130000</speed>
</trkpt>
<trkpt lat="56.026493" lon="26.464645">
<ele>123.247131</ele>
<time>2010-06-20T10:19:32Z</time>
<desc>lat.=56.026493, lon.=26.464645, Alt.=123.247131m. Speed=0.432000m/h.</desc>
<speed>0.120000</speed>
</trkpt>
<trkpt lat="56.026493" lon="26.464643">
<ele>123.393616</ele>
<time>2010-06-20T10:19:33Z</time>
<desc>lat.=56.026493, lon.=26.464643, Alt.=123.393616m. Speed=0.576000m/h.</desc>
<speed>0.160000</speed>
</trkpt>
<trkpt lat="56.026493" lon="26.464642">
<ele>123.555725</ele>
<time>2010-06-20T10:19:34Z</time>
<desc>lat.=56.026493, lon.=26.464642, Alt.=123.555725m. Speed=0.288000m/h.</desc>
<speed>0.080000</speed>
</trkpt>
<trkpt lat="56.026493" lon="26.464640">
<ele>123.727600</ele>
<time>2010-06-20T10:19:35Z</time>
<desc>lat.=56.026493, lon.=26.464640, Alt.=123.727600m. Speed=0.288000m/h.</desc>
<speed>0.080000</speed>
</trkpt>
<trkpt lat="56.026493" lon="26.464638">
<ele>123.907288</ele>
<time>2010-06-20T10:19:36Z</time>
<desc>lat.=56.026493, lon.=26.464638, Alt.=123.907288m. Speed=0.396000m/h.</desc>
<speed>0.110000</speed>
</trkpt>
<trkpt lat="56.026493" lon="26.464636">
<ele>124.092834</ele>
<time>2010-06-20T10:19:37Z</time>
<desc>lat.=56.026493, lon.=26.464636, Alt.=124.092834m. Speed=0.468000m/h.</desc>
<speed>0.130000</speed>
</trkpt>
<trkpt lat="56.026493" lon="26.464634">
<ele>124.280334</ele>
<time>2010-06-20T10:19:38Z</time>
<desc>lat.=56.026493, lon.=26.464634, Alt.=124.280334m. Speed=0.396000m/h.</desc>
<speed>0.110000</speed>
</trkpt>
<trkpt lat="56.026493" lon="26.464632">
<ele>124.475647</ele>
<time>2010-06-20T10:19:39Z</time>
<desc>lat.=56.026493, lon.=26.464632, Alt.=124.475647m. Speed=0.360000m/h.</desc>
<speed>0.100000</speed>
</trkpt>
<trkpt lat="56.026493" lon="26.464630">
<ele>124.676819</ele>
<time>2010-06-20T10:19:40Z</time>
<desc>lat.=56.026493, lon.=26.464630, Alt.=124.676819m. Speed=0.468000m/h.</desc>
<speed>0.130000</speed>
</trkpt>
<trkpt lat="56.026493" lon="26.464628">
<ele>124.885803</ele>
<time>2010-06-20T10:19:41Z</time>
<desc>lat.=56.026493, lon.=26.464628, Alt.=124.885803m. Speed=0.396000m/h.</desc>
<speed>0.110000</speed>
</trkpt>
<trkpt lat="56.026493" lon="26.464626">
<ele>125.104553</ele>
<time>2010-06-20T10:19:42Z</time>
<desc>lat.=56.026493, lon.=26.464626, Alt.=125.104553m. Speed=0.252000m/h.</desc>
<speed>0.070000</speed>
</trkpt>
<trkpt lat="56.026489" lon="26.464626">
<ele>125.329163</ele>
<time>2010-06-20T10:19:43Z</time>
<desc>lat.=56.026489, lon.=26.464626, Alt.=125.329163m. Speed=0.288000m/h.</desc>
<speed>0.080000</speed>
</trkpt>
<trkpt lat="56.026489" lon="26.464626">
<ele>125.569397</ele>
<time>2010-06-20T10:19:44Z</time>
<desc>lat.=56.026489, lon.=26.464626, Alt.=125.569397m. Speed=0.144000m/h.</desc>
<speed>0.040000</speed>
</trkpt>
<trkpt lat="56.026489" lon="26.464626">
<ele>125.815491</ele>
<time>2010-06-20T10:19:45Z</time>
<desc>lat.=56.026489, lon.=26.464626, Alt.=125.815491m. Speed=0.180000m/h.</desc>
<speed>0.050000</speed>
</trkpt>
<trkpt lat="56.026489" lon="26.464626">
<ele>126.067444</ele>
<time>2010-06-20T10:19:46Z</time>
<desc>lat.=56.026489, lon.=26.464626, Alt.=126.067444m. Speed=0.144000m/h.</desc>
<speed>0.040000</speed>
</trkpt>
<trkpt lat="56.026489" lon="26.464626">
<ele>126.323303</ele>
<time>2010-06-20T10:19:47Z</time>
<desc>lat.=56.026489, lon.=26.464626, Alt.=126.323303m. Speed=0.324000m/h.</desc>
<speed>0.090000</speed>
</trkpt>
<trkpt lat="56.026489" lon="26.464626">
<ele>126.583069</ele>
<time>2010-06-20T10:19:48Z</time>
<desc>lat.=56.026489, lon.=26.464626, Alt.=126.583069m. Speed=0.216000m/h.</desc>
<speed>0.060000</speed>
</trkpt>
<trkpt lat="56.026489" lon="26.464626">
<ele>126.844788</ele>
<time>2010-06-20T10:19:49Z</time>
<desc>lat.=56.026489, lon.=26.464626, Alt.=126.844788m. Speed=0.252000m/h.</desc>
<speed>0.070000</speed>
</trkpt>
<trkpt lat="56.026489" lon="26.464626">
<ele>127.118225</ele>
<time>2010-06-20T10:19:50Z</time>
<desc>lat.=56.026489, lon.=26.464626, Alt.=127.118225m. Speed=0.216000m/h.</desc>
<speed>0.060000</speed>
</trkpt>
<trkpt lat="56.026485" lon="26.464626">
<ele>127.395569</ele>
<time>2010-06-20T10:19:51Z</time>
<desc>lat.=56.026485, lon.=26.464626, Alt.=127.395569m. Speed=0.180000m/h.</desc>
<speed>0.050000</speed>
</trkpt>
<trkpt lat="56.026485" lon="26.464626">
<ele>127.680725</ele>
<time>2010-06-20T10:19:52Z</time>
<desc>lat.=56.026485, lon.=26.464626, Alt.=127.680725m. Speed=0.252000m/h.</desc>
<speed>0.070000</speed>
</trkpt>
<trkpt lat="56.026485" lon="26.464626">
<ele>127.958069</ele>
<time>2010-06-20T10:19:53Z</time>
<desc>lat.=56.026485, lon.=26.464626, Alt.=127.958069m. Speed=0.288000m/h.</desc>
<speed>0.080000</speed>
</trkpt>
<trkpt lat="56.026485" lon="26.464626">
<ele>128.240356</ele>
<time>2010-06-20T10:19:54Z</time>
<desc>lat.=56.026485, lon.=26.464626, Alt.=128.240356m. Speed=0.360000m/h.</desc>
<speed>0.100000</speed>
</trkpt>
<trkpt lat="56.026485" lon="26.464626">
<ele>128.517700</ele>
<time>2010-06-20T10:19:55Z</time>
<desc>lat.=56.026485, lon.=26.464626, Alt.=128.517700m. Speed=0.216000m/h.</desc>
<speed>0.060000</speed>
</trkpt>
<trkpt lat="56.026485" lon="26.464626">
<ele>128.798950</ele>
<time>2010-06-20T10:19:56Z</time>
<desc>lat.=56.026485, lon.=26.464626, Alt.=128.798950m. Speed=0.288000m/h.</desc>
<speed>0.080000</speed>
</trkpt>
<trkpt lat="56.026482" lon="26.464626">
<ele>129.076294</ele>
<time>2010-06-20T10:19:57Z</time>
<desc>lat.=56.026482, lon.=26.464626, Alt.=129.076294m. Speed=0.324000m/h.</desc>
<speed>0.090000</speed>
</trkpt>
<trkpt lat="56.026482" lon="26.464628">
<ele>129.380981</ele>
<time>2010-06-20T10:19:58Z</time>
<desc>lat.=56.026482, lon.=26.464628, Alt.=129.380981m. Speed=0.324000m/h.</desc>
<speed>0.090000</speed>
</trkpt>
<trkpt lat="56.026482" lon="26.464628">
<ele>129.670044</ele>
<time>2010-06-20T10:19:59Z</time>
<desc>lat.=56.026482, lon.=26.464628, Alt.=129.670044m. Speed=0.288000m/h.</desc>
<speed>0.080000</speed>
</trkpt>
<trkpt lat="56.026482" lon="26.464630">
<ele>129.959106</ele>
<time>2010-06-20T10:20:00Z</time>
<desc>lat.=56.026482, lon.=26.464630, Alt.=129.959106m. Speed=0.288000m/h.</desc>
<speed>0.080000</speed>
</trkpt>
<trkpt lat="56.026482" lon="26.464630">
<ele>130.244263</ele>
<time>2010-06-20T10:20:01Z</time>
<desc>lat.=56.026482, lon.=26.464630, Alt.=130.244263m. Speed=0.360000m/h.</desc>
<speed>0.100000</speed>
</trkpt>
<trkpt lat="56.026482" lon="26.464632">
<ele>130.541138</ele>
<time>2010-06-20T10:20:02Z</time>
<desc>lat.=56.026482, lon.=26.464632, Alt.=130.541138m. Speed=0.252000m/h.</desc>
<speed>0.070000</speed>
</trkpt>
<trkpt lat="56.026482" lon="26.464634">
<ele>130.830200</ele>
<time>2010-06-20T10:20:03Z</time>
<desc>lat.=56.026482, lon.=26.464634, Alt.=130.830200m. Speed=0.288000m/h.</desc>
<speed>0.080000</speed>
</trkpt>
<trkpt lat="56.026482" lon="26.464634">
<ele>131.127075</ele>
<time>2010-06-20T10:20:04Z</time>
<desc>lat.=56.026482, lon.=26.464634, Alt.=131.127075m. Speed=0.324000m/h.</desc>
<speed>0.090000</speed>
</trkpt>
<trkpt lat="56.026478" lon="26.464636">
<ele>131.412231</ele>
<time>2010-06-20T10:20:05Z</time>
<desc>lat.=56.026478, lon.=26.464636, Alt.=131.412231m. Speed=0.360000m/h.</desc>
<speed>0.100000</speed>
</trkpt>
<trkpt lat="56.026478" lon="26.464638">
<ele>131.693481</ele>
<time>2010-06-20T10:20:06Z</time>
<desc>lat.=56.026478, lon.=26.464638, Alt.=131.693481m. Speed=0.360000m/h.</desc>
<speed>0.100000</speed>
</trkpt>
<trkpt lat="56.026478" lon="26.464640">
<ele>131.978638</ele>
<time>2010-06-20T10:20:07Z</time>
<desc>lat.=56.026478, lon.=26.464640, Alt.=131.978638m. Speed=0.432000m/h.</desc>
<speed>0.120000</speed>
</trkpt>
<trkpt lat="56.026478" lon="26.464640">
<ele>132.252075</ele>
<time>2010-06-20T10:20:08Z</time>
<desc>lat.=56.026478, lon.=26.464640, Alt.=132.252075m. Speed=0.396000m/h.</desc>
<speed>0.110000</speed>
</trkpt>
<trkpt lat="56.026478" lon="26.464642">
<ele>132.521606</ele>
<time>2010-06-20T10:20:09Z</time>
<desc>lat.=56.026478, lon.=26.464642, Alt.=132.521606m. Speed=0.324000m/h.</desc>
<speed>0.090000</speed>
</trkpt>
<trkpt lat="56.026478" lon="26.464642">
<ele>132.798950</ele>
<time>2010-06-20T10:20:10Z</time>
<desc>lat.=56.026478, lon.=26.464642, Alt.=132.798950m. Speed=0.396000m/h.</desc>
<speed>0.110000</speed>
</trkpt>
<trkpt lat="56.026478" lon="26.464643">
<ele>133.080200</ele>
<time>2010-06-20T10:20:11Z</time>
<desc>lat.=56.026478, lon.=26.464643, Alt.=133.080200m. Speed=0.216000m/h.</desc>
<speed>0.060000</speed>
</trkpt>
<trkpt lat="56.026478" lon="26.464643">
<ele>133.357544</ele>
<time>2010-06-20T10:20:12Z</time>
<desc>lat.=56.026478, lon.=26.464643, Alt.=133.357544m. Speed=0.432000m/h.</desc>
<speed>0.120000</speed>
</trkpt>
<trkpt lat="56.026478" lon="26.464645">
<ele>133.634888</ele>
<time>2010-06-20T10:20:13Z</time>
<desc>lat.=56.026478, lon.=26.464645, Alt.=133.634888m. Speed=0.288000m/h.</desc>
<speed>0.080000</speed>
</trkpt>
<trkpt lat="56.026478" lon="26.464647">
<ele>133.904419</ele>
<time>2010-06-20T10:20:14Z</time>
<desc>lat.=56.026478, lon.=26.464647, Alt.=133.904419m. Speed=0.252000m/h.</desc>
<speed>0.070000</speed>
</trkpt>
<trkpt lat="56.026478" lon="26.464649">
<ele>134.170044</ele>
<time>2010-06-20T10:20:15Z</time>
<desc>lat.=56.026478, lon.=26.464649, Alt.=134.170044m. Speed=0.108000m/h.</desc>
<speed>0.030000</speed>
</trkpt>
<trkpt lat="56.026478" lon="26.464649">
<ele>134.435669</ele>
<time>2010-06-20T10:20:16Z</time>
<desc>lat.=56.026478, lon.=26.464649, Alt.=134.435669m. Speed=0.216000m/h.</desc>
<speed>0.060000</speed>
</trkpt>
<trkpt lat="56.026474" lon="26.464649">
<ele>134.693481</ele>
<time>2010-06-20T10:20:17Z</time>
<desc>lat.=56.026474, lon.=26.464649, Alt.=134.693481m. Speed=0.288000m/h.</desc>
<speed>0.080000</speed>
</trkpt>
<trkpt lat="56.026474" lon="26.464651">
<ele>134.955200</ele>
<time>2010-06-20T10:20:18Z</time>
<desc>lat.=56.026474, lon.=26.464651, Alt.=134.955200m. Speed=0.180000m/h.</desc>
<speed>0.050000</speed>
</trkpt>
<trkpt lat="56.026474" lon="26.464651">
<ele>135.220825</ele>
<time>2010-06-20T10:20:19Z</time>
<desc>lat.=56.026474, lon.=26.464651, Alt.=135.220825m. Speed=0.396000m/h.</desc>
<speed>0.110000</speed>
</trkpt>
<trkpt lat="56.026474" lon="26.464653">
<ele>135.478638</ele>
<time>2010-06-20T10:20:20Z</time>
<desc>lat.=56.026474, lon.=26.464653, Alt.=135.478638m. Speed=0.288000m/h.</desc>
<speed>0.080000</speed>
</trkpt>
<trkpt lat="56.026474" lon="26.464653">
<ele>135.740356</ele>
<time>2010-06-20T10:20:21Z</time>
<desc>lat.=56.026474, lon.=26.464653, Alt.=135.740356m. Speed=0.396000m/h.</desc>
<speed>0.110000</speed>
</trkpt>
<trkpt lat="56.026474" lon="26.464655">
<ele>135.998169</ele>
<time>2010-06-20T10:20:22Z</time>
<desc>lat.=56.026474, lon.=26.464655, Alt.=135.998169m. Speed=0.504000m/h.</desc>
<speed>0.140000</speed>
</trkpt>
<trkpt lat="56.026474" lon="26.464659">
<ele>136.244263</ele>
<time>2010-06-20T10:20:23Z</time>
<desc>lat.=56.026474, lon.=26.464659, Alt.=136.244263m. Speed=0.468000m/h.</desc>
<speed>0.130000</speed>
</trkpt>
<trkpt lat="56.026474" lon="26.464661">
<ele>136.490356</ele>
<time>2010-06-20T10:20:24Z</time>
<desc>lat.=56.026474, lon.=26.464661, Alt.=136.490356m. Speed=0.648000m/h.</desc>
<speed>0.180000</speed>
</trkpt>
<trkpt lat="56.026474" lon="26.464663">
<ele>136.732544</ele>
<time>2010-06-20T10:20:25Z</time>
<desc>lat.=56.026474, lon.=26.464663, Alt.=136.732544m. Speed=0.720000m/h.</desc>
<speed>0.200000</speed>
</trkpt>
<trkpt lat="56.026478" lon="26.464666">
<ele>136.970825</ele>
<time>2010-06-20T10:20:26Z</time>
<desc>lat.=56.026478, lon.=26.464666, Alt.=136.970825m. Speed=0.648000m/h.</desc>
<speed>0.180000</speed>
</trkpt>
<trkpt lat="56.026478" lon="26.464670">
<ele>137.213013</ele>
<time>2010-06-20T10:20:27Z</time>
<desc>lat.=56.026478, lon.=26.464670, Alt.=137.213013m. Speed=0.648000m/h.</desc>
<speed>0.180000</speed>
</trkpt>
<trkpt lat="56.026478" lon="26.464672">
<ele>137.455200</ele>
<time>2010-06-20T10:20:28Z</time>
<desc>lat.=56.026478, lon.=26.464672, Alt.=137.455200m. Speed=0.792000m/h.</desc>
<speed>0.220000</speed>
</trkpt>
<trkpt lat="56.026478" lon="26.464676">
<ele>137.697388</ele>
<time>2010-06-20T10:20:29Z</time>
<desc>lat.=56.026478, lon.=26.464676, Alt.=137.697388m. Speed=0.828000m/h.</desc>
<speed>0.230000</speed>
</trkpt>
<trkpt lat="56.026478" lon="26.464680">
<ele>137.947388</ele>
<time>2010-06-20T10:20:30Z</time>
<desc>lat.=56.026478, lon.=26.464680, Alt.=137.947388m. Speed=0.648000m/h.</desc>
<speed>0.180000</speed>
</trkpt>
<trkpt lat="56.026478" lon="26.464682">
<ele>138.193481</ele>
<time>2010-06-20T10:20:31Z</time>
<desc>lat.=56.026478, lon.=26.464682, Alt.=138.193481m. Speed=0.648000m/h.</desc>
<speed>0.180000</speed>
</trkpt>
<trkpt lat="56.026478" lon="26.464685">
<ele>138.443481</ele>
<time>2010-06-20T10:20:32Z</time>
<desc>lat.=56.026478, lon.=26.464685, Alt.=138.443481m. Speed=0.684000m/h.</desc>
<speed>0.190000</speed>
</trkpt>
<trkpt lat="56.026478" lon="26.464689">
<ele>138.693481</ele>
<time>2010-06-20T10:20:33Z</time>
<desc>lat.=56.026478, lon.=26.464689, Alt.=138.693481m. Speed=0.648000m/h.</desc>
<speed>0.180000</speed>
</trkpt>
<trkpt lat="56.026478" lon="26.464691">
<ele>138.943481</ele>
<time>2010-06-20T10:20:34Z</time>
<desc>lat.=56.026478, lon.=26.464691, Alt.=138.943481m. Speed=0.540000m/h.</desc>
<speed>0.150000</speed>
</trkpt>
<trkpt lat="56.026478" lon="26.464693">
<ele>139.189575</ele>
<time>2010-06-20T10:20:35Z</time>
<desc>lat.=56.026478, lon.=26.464693, Alt.=139.189575m. Speed=0.432000m/h.</desc>
<speed>0.120000</speed>
</trkpt>
<trkpt lat="56.026478" lon="26.464695">
<ele>139.443481</ele>
<time>2010-06-20T10:20:36Z</time>
<desc>lat.=56.026478, lon.=26.464695, Alt.=139.443481m. Speed=0.648000m/h.</desc>
<speed>0.180000</speed>
</trkpt>
<trkpt lat="56.026478" lon="26.464699">
<ele>139.701294</ele>
<time>2010-06-20T10:20:37Z</time>
<desc>lat.=56.026478, lon.=26.464699, Alt.=139.701294m. Speed=0.576000m/h.</desc>
<speed>0.160000</speed>
</trkpt>
<trkpt lat="56.026478" lon="26.464701">
<ele>139.951294</ele>
<time>2010-06-20T10:20:38Z</time>
<desc>lat.=56.026478, lon.=26.464701, Alt.=139.951294m. Speed=0.684000m/h.</desc>
<speed>0.190000</speed>
</trkpt>
<trkpt lat="56.026478" lon="26.464705">
<ele>140.205200</ele>
<time>2010-06-20T10:20:39Z</time>
<desc>lat.=56.026478, lon.=26.464705, Alt.=140.205200m. Speed=0.648000m/h.</desc>
<speed>0.180000</speed>
</trkpt>
<trkpt lat="56.026482" lon="26.464706">
<ele>140.455200</ele>
<time>2010-06-20T10:20:40Z</time>
<desc>lat.=56.026482, lon.=26.464706, Alt.=140.455200m. Speed=0.648000m/h.</desc>
<speed>0.180000</speed>
</trkpt>
<trkpt lat="56.026482" lon="26.464710">
<ele>140.709106</ele>
<time>2010-06-20T10:20:41Z</time>
<desc>lat.=56.026482, lon.=26.464710, Alt.=140.709106m. Speed=0.648000m/h.</desc>
<speed>0.180000</speed>
</trkpt>
<trkpt lat="56.026482" lon="26.464714">
<ele>140.966919</ele>
<time>2010-06-20T10:20:42Z</time>
<desc>lat.=56.026482, lon.=26.464714, Alt.=140.966919m. Speed=0.648000m/h.</desc>
<speed>0.180000</speed>
</trkpt>
<trkpt lat="56.026482" lon="26.464716">
<ele>141.224731</ele>
<time>2010-06-20T10:20:43Z</time>
<desc>lat.=56.026482, lon.=26.464716, Alt.=141.224731m. Speed=0.468000m/h.</desc>
<speed>0.130000</speed>
</trkpt>
<trkpt lat="56.026482" lon="26.464718">
<ele>141.486450</ele>
<time>2010-06-20T10:20:44Z</time>
<desc>lat.=56.026482, lon.=26.464718, Alt.=141.486450m. Speed=0.648000m/h.</desc>
<speed>0.180000</speed>
</trkpt>
<trkpt lat="56.026482" lon="26.464722">
<ele>141.744263</ele>
<time>2010-06-20T10:20:45Z</time>
<desc>lat.=56.026482, lon.=26.464722, Alt.=141.744263m. Speed=0.684000m/h.</desc>
<speed>0.190000</speed>
</trkpt>
<trkpt lat="56.026482" lon="26.464724">
<ele>141.998169</ele>
<time>2010-06-20T10:20:46Z</time>
<desc>lat.=56.026482, lon.=26.464724, Alt.=141.998169m. Speed=0.576000m/h.</desc>
<speed>0.160000</speed>
</trkpt>
<trkpt lat="56.026482" lon="26.464727">
<ele>142.252075</ele>
<time>2010-06-20T10:20:47Z</time>
<desc>lat.=56.026482, lon.=26.464727, Alt.=142.252075m. Speed=0.468000m/h.</desc>
<speed>0.130000</speed>
</trkpt>
<trkpt lat="56.026482" lon="26.464729">
<ele>142.502075</ele>
<time>2010-06-20T10:20:48Z</time>
<desc>lat.=56.026482, lon.=26.464729, Alt.=142.502075m. Speed=0.612000m/h.</desc>
<speed>0.170000</speed>
</trkpt>
<trkpt lat="56.026482" lon="26.464731">
<ele>142.748169</ele>
<time>2010-06-20T10:20:49Z</time>
<desc>lat.=56.026482, lon.=26.464731, Alt.=142.748169m. Speed=0.648000m/h.</desc>
<speed>0.180000</speed>
</trkpt>
<trkpt lat="56.026482" lon="26.464735">
<ele>142.994263</ele>
<time>2010-06-20T10:20:50Z</time>
<desc>lat.=56.026482, lon.=26.464735, Alt.=142.994263m. Speed=0.576000m/h.</desc>
<speed>0.160000</speed>
</trkpt>
<trkpt lat="56.026482" lon="26.464737">
<ele>143.224731</ele>
<time>2010-06-20T10:20:51Z</time>
<desc>lat.=56.026482, lon.=26.464737, Alt.=143.224731m. Speed=0.432000m/h.</desc>
<speed>0.120000</speed>
</trkpt>
<trkpt lat="56.026482" lon="26.464739">
<ele>143.451294</ele>
<time>2010-06-20T10:20:52Z</time>
<desc>lat.=56.026482, lon.=26.464739, Alt.=143.451294m. Speed=0.396000m/h.</desc>
<speed>0.110000</speed>
</trkpt>
<trkpt lat="56.026482" lon="26.464741">
<ele>143.670044</ele>
<time>2010-06-20T10:20:53Z</time>
<desc>lat.=56.026482, lon.=26.464741, Alt.=143.670044m. Speed=0.144000m/h.</desc>
<speed>0.040000</speed>
</trkpt>
<trkpt lat="56.026482" lon="26.464739">
<ele>143.880981</ele>
<time>2010-06-20T10:20:54Z</time>
<desc>lat.=56.026482, lon.=26.464739, Alt.=143.880981m. Speed=0.252000m/h.</desc>
<speed>0.070000</speed>
</trkpt>
<trkpt lat="56.026482" lon="26.464739">
<ele>144.095825</ele>
<time>2010-06-20T10:20:55Z</time>
<desc>lat.=56.026482, lon.=26.464739, Alt.=144.095825m. Speed=0.324000m/h.</desc>
<speed>0.090000</speed>
</trkpt>
<trkpt lat="56.026482" lon="26.464739">
<ele>144.302856</ele>
<time>2010-06-20T10:20:56Z</time>
<desc>lat.=56.026482, lon.=26.464739, Alt.=144.302856m. Speed=0.324000m/h.</desc>
<speed>0.090000</speed>
</trkpt>
<trkpt lat="56.026482" lon="26.464739">
<ele>144.498169</ele>
<time>2010-06-20T10:20:57Z</time>
<desc>lat.=56.026482, lon.=26.464739, Alt.=144.498169m. Speed=0.144000m/h.</desc>
<speed>0.040000</speed>
</trkpt>
<trkpt lat="56.026482" lon="26.464739">
<ele>144.673950</ele>
<time>2010-06-20T10:20:58Z</time>
<desc>lat.=56.026482, lon.=26.464739, Alt.=144.673950m. Speed=0.288000m/h.</desc>
<speed>0.080000</speed>
</trkpt>
<trkpt lat="56.026478" lon="26.464739">
<ele>144.841919</ele>
<time>2010-06-20T10:20:59Z</time>
<desc>lat.=56.026478, lon.=26.464739, Alt.=144.841919m. Speed=0.108000m/h.</desc>
<speed>0.030000</speed>
</trkpt>
<trkpt lat="56.026478" lon="26.464739">
<ele>145.005981</ele>
<time>2010-06-20T10:21:00Z</time>
<desc>lat.=56.026478, lon.=26.464739, Alt.=145.005981m. Speed=0.180000m/h.</desc>
<speed>0.050000</speed>
</trkpt>
<trkpt lat="56.026478" lon="26.464739">
<ele>145.170044</ele>
<time>2010-06-20T10:21:01Z</time>
<desc>lat.=56.026478, lon.=26.464739, Alt.=145.170044m. Speed=0.180000m/h.</desc>
<speed>0.050000</speed>
</trkpt>
<trkpt lat="56.026478" lon="26.464737">
<ele>145.326294</ele>
<time>2010-06-20T10:21:02Z</time>
<desc>lat.=56.026478, lon.=26.464737, Alt.=145.326294m. Speed=0.288000m/h.</desc>
<speed>0.080000</speed>
</trkpt>
<trkpt lat="56.026478" lon="26.464737">
<ele>145.474731</ele>
<time>2010-06-20T10:21:03Z</time>
<desc>lat.=56.026478, lon.=26.464737, Alt.=145.474731m. Speed=0.144000m/h.</desc>
<speed>0.040000</speed>
</trkpt>
<trkpt lat="56.026478" lon="26.464737">
<ele>145.619263</ele>
<time>2010-06-20T10:21:04Z</time>
<desc>lat.=56.026478, lon.=26.464737, Alt.=145.619263m. Speed=0.072000m/h.</desc>
<speed>0.020000</speed>
</trkpt>
<trkpt lat="56.026478" lon="26.464737">
<ele>145.752075</ele>
<time>2010-06-20T10:21:05Z</time>
<desc>lat.=56.026478, lon.=26.464737, Alt.=145.752075m. Speed=0.108000m/h.</desc>
<speed>0.030000</speed>
</trkpt>
<trkpt lat="56.026478" lon="26.464737">
<ele>145.877075</ele>
<time>2010-06-20T10:21:06Z</time>
<desc>lat.=56.026478, lon.=26.464737, Alt.=145.877075m. Speed=0.072000m/h.</desc>
<speed>0.020000</speed>
</trkpt>
<trkpt lat="56.026478" lon="26.464737">
<ele>145.994263</ele>
<time>2010-06-20T10:21:07Z</time>
<desc>lat.=56.026478, lon.=26.464737, Alt.=145.994263m. Speed=0.072000m/h.</desc>
<speed>0.020000</speed>
</trkpt>
<trkpt lat="56.026478" lon="26.464737">
<ele>146.107544</ele>
<time>2010-06-20T10:21:08Z</time>
<desc>lat.=56.026478, lon.=26.464737, Alt.=146.107544m. Speed=0.072000m/h.</desc>
<speed>0.020000</speed>
</trkpt>
<trkpt lat="56.026478" lon="26.464737">
<ele>146.213013</ele>
<time>2010-06-20T10:21:09Z</time>
<desc>lat.=56.026478, lon.=26.464737, Alt.=146.213013m. Speed=0.036000m/h.</desc>
<speed>0.010000</speed>
</trkpt>
<trkpt lat="56.026478" lon="26.464737">
<ele>146.318481</ele>
<time>2010-06-20T10:21:10Z</time>
<desc>lat.=56.026478, lon.=26.464737, Alt.=146.318481m. Speed=0.036000m/h.</desc>
<speed>0.010000</speed>
</trkpt>
<trkpt lat="56.026478" lon="26.464737">
<ele>146.423950</ele>
<time>2010-06-20T10:21:11Z</time>
<desc>lat.=56.026478, lon.=26.464737, Alt.=146.423950m. Speed=0.072000m/h.</desc>
<speed>0.020000</speed>
</trkpt>
<trkpt lat="56.026478" lon="26.464737">
<ele>146.529419</ele>
<time>2010-06-20T10:21:12Z</time>
<desc>lat.=56.026478, lon.=26.464737, Alt.=146.529419m. Speed=0.108000m/h.</desc>
<speed>0.030000</speed>
</trkpt>
<trkpt lat="56.026478" lon="26.464739">
<ele>146.634888</ele>
<time>2010-06-20T10:21:13Z</time>
<desc>lat.=56.026478, lon.=26.464739, Alt.=146.634888m. Speed=0.072000m/h.</desc>
<speed>0.020000</speed>
</trkpt>
<trkpt lat="56.026478" lon="26.464739">
<ele>146.740356</ele>
<time>2010-06-20T10:21:14Z</time>
<desc>lat.=56.026478, lon.=26.464739, Alt.=146.740356m. Speed=0.216000m/h.</desc>
<speed>0.060000</speed>
</trkpt>
<trkpt lat="56.026478" lon="26.464739">
<ele>146.841919</ele>
<time>2010-06-20T10:21:15Z</time>
<desc>lat.=56.026478, lon.=26.464739, Alt.=146.841919m. Speed=0.252000m/h.</desc>
<speed>0.070000</speed>
</trkpt>
<trkpt lat="56.026478" lon="26.464739">
<ele>146.939575</ele>
<time>2010-06-20T10:21:16Z</time>
<desc>lat.=56.026478, lon.=26.464739, Alt.=146.939575m. Speed=0.288000m/h.</desc>
<speed>0.080000</speed>
</trkpt>
<trkpt lat="56.026478" lon="26.464739">
<ele>147.041138</ele>
<time>2010-06-20T10:21:17Z</time>
<desc>lat.=56.026478, lon.=26.464739, Alt.=147.041138m. Speed=0.288000m/h.</desc>
<speed>0.080000</speed>
</trkpt>
<trkpt lat="56.026482" lon="26.464739">
<ele>147.146606</ele>
<time>2010-06-20T10:21:18Z</time>
<desc>lat.=56.026482, lon.=26.464739, Alt.=147.146606m. Speed=0.108000m/h.</desc>
<speed>0.030000</speed>
</trkpt>
<trkpt lat="56.026482" lon="26.464739">
<ele>147.255981</ele>
<time>2010-06-20T10:21:19Z</time>
<desc>lat.=56.026482, lon.=26.464739, Alt.=147.255981m. Speed=0.072000m/h.</desc>
<speed>0.020000</speed>
</trkpt>
<trkpt lat="56.026482" lon="26.464739">
<ele>147.361450</ele>
<time>2010-06-20T10:21:20Z</time>
<desc>lat.=56.026482, lon.=26.464739, Alt.=147.361450m. Speed=0.072000m/h.</desc>
<speed>0.020000</speed>
</trkpt>
<trkpt lat="56.026482" lon="26.464739">
<ele>147.463013</ele>
<time>2010-06-20T10:21:21Z</time>
<desc>lat.=56.026482, lon.=26.464739, Alt.=147.463013m. Speed=0.108000m/h.</desc>
<speed>0.030000</speed>
</trkpt>
<trkpt lat="56.026482" lon="26.464739">
<ele>147.564575</ele>
<time>2010-06-20T10:21:22Z</time>
<desc>lat.=56.026482, lon.=26.464739, Alt.=147.564575m. Speed=0.108000m/h.</desc>
<speed>0.030000</speed>
</trkpt>
<trkpt lat="56.026482" lon="26.464739">
<ele>147.646606</ele>
<time>2010-06-20T10:21:23Z</time>
<desc>lat.=56.026482, lon.=26.464739, Alt.=147.646606m. Speed=0.072000m/h.</desc>
<speed>0.020000</speed>
</trkpt>
<trkpt lat="56.026482" lon="26.464739">
<ele>147.720825</ele>
<time>2010-06-20T10:21:24Z</time>
<desc>lat.=56.026482, lon.=26.464739, Alt.=147.720825m. Speed=0.036000m/h.</desc>
<speed>0.010000</speed>
</trkpt>
<trkpt lat="56.026482" lon="26.464739">
<ele>147.798950</ele>
<time>2010-06-20T10:21:25Z</time>
<desc>lat.=56.026482, lon.=26.464739, Alt.=147.798950m. Speed=0.036000m/h.</desc>
<speed>0.010000</speed>
</trkpt>
<trkpt lat="56.026482" lon="26.464739">
<ele>147.861450</ele>
<time>2010-06-20T10:21:26Z</time>
<desc>lat.=56.026482, lon.=26.464739, Alt.=147.861450m. Speed=0.072000m/h.</desc>
<speed>0.020000</speed>
</trkpt>
<trkpt lat="56.026482" lon="26.464739">
<ele>147.916138</ele>
<time>2010-06-20T10:21:27Z</time>
<desc>lat.=56.026482, lon.=26.464739, Alt.=147.916138m. Speed=0.036000m/h.</desc>
<speed>0.010000</speed>
</trkpt>
<trkpt lat="56.026482" lon="26.464739">
<ele>147.908325</ele>
<time>2010-06-20T10:21:28Z</time>
<desc>lat.=56.026482, lon.=26.464739, Alt.=147.908325m. Speed=0.072000m/h.</desc>
<speed>0.020000</speed>
</trkpt>
<trkpt lat="56.026482" lon="26.464739">
<ele>147.896606</ele>
<time>2010-06-20T10:21:29Z</time>
<desc>lat.=56.026482, lon.=26.464739, Alt.=147.896606m. Speed=0.000000m/h.</desc>
<speed>0.000000</speed>
</trkpt>
<trkpt lat="56.026482" lon="26.464739">
<ele>147.877075</ele>
<time>2010-06-20T10:21:30Z</time>
<desc>lat.=56.026482, lon.=26.464739, Alt.=147.877075m. Speed=0.108000m/h.</desc>
<speed>0.030000</speed>
</trkpt>
<trkpt lat="56.026482" lon="26.464739">
<ele>147.873169</ele>
<time>2010-06-20T10:21:31Z</time>
<desc>lat.=56.026482, lon.=26.464739, Alt.=147.873169m. Speed=0.036000m/h.</desc>
<speed>0.010000</speed>
</trkpt>
<trkpt lat="56.026482" lon="26.464737">
<ele>147.873169</ele>
<time>2010-06-20T10:21:32Z</time>
<desc>lat.=56.026482, lon.=26.464737, Alt.=147.873169m. Speed=0.072000m/h.</desc>
<speed>0.020000</speed>
</trkpt>
<trkpt lat="56.026482" lon="26.464737">
<ele>147.877075</ele>
<time>2010-06-20T10:21:33Z</time>
<desc>lat.=56.026482, lon.=26.464737, Alt.=147.877075m. Speed=0.108000m/h.</desc>
<speed>0.030000</speed>
</trkpt>
<trkpt lat="56.026482" lon="26.464737">
<ele>147.873169</ele>
<time>2010-06-20T10:21:34Z</time>
<desc>lat.=56.026482, lon.=26.464737, Alt.=147.873169m. Speed=0.324000m/h.</desc>
<speed>0.090000</speed>
</trkpt>
<trkpt lat="56.026482" lon="26.464737">
<ele>147.861450</ele>
<time>2010-06-20T10:21:35Z</time>
<desc>lat.=56.026482, lon.=26.464737, Alt.=147.861450m. Speed=0.108000m/h.</desc>
<speed>0.030000</speed>
</trkpt>
<trkpt lat="56.026482" lon="26.464737">
<ele>147.857544</ele>
<time>2010-06-20T10:21:36Z</time>
<desc>lat.=56.026482, lon.=26.464737, Alt.=147.857544m. Speed=0.108000m/h.</desc>
<speed>0.030000</speed>
</trkpt>
<trkpt lat="56.026482" lon="26.464737">
<ele>147.841919</ele>
<time>2010-06-20T10:21:37Z</time>
<desc>lat.=56.026482, lon.=26.464737, Alt.=147.841919m. Speed=0.324000m/h.</desc>
<speed>0.090000</speed>
</trkpt>
<trkpt lat="56.026482" lon="26.464737">
<ele>147.818481</ele>
<time>2010-06-20T10:21:38Z</time>
<desc>lat.=56.026482, lon.=26.464737, Alt.=147.818481m. Speed=0.072000m/h.</desc>
<speed>0.020000</speed>
</trkpt>
<trkpt lat="56.026482" lon="26.464737">
<ele>147.818481</ele>
<time>2010-06-20T10:21:39Z</time>
<desc>lat.=56.026482, lon.=26.464737, Alt.=147.818481m. Speed=0.216000m/h.</desc>
<speed>0.060000</speed>
</trkpt>
<trkpt lat="56.026482" lon="26.464737">
<ele>147.810669</ele>
<time>2010-06-20T10:21:40Z</time>
<desc>lat.=56.026482, lon.=26.464737, Alt.=147.810669m. Speed=0.216000m/h.</desc>
<speed>0.060000</speed>
</trkpt>
<trkpt lat="56.026482" lon="26.464737">
<ele>147.791138</ele>
<time>2010-06-20T10:21:41Z</time>
<desc>lat.=56.026482, lon.=26.464737, Alt.=147.791138m. Speed=0.036000m/h.</desc>
<speed>0.010000</speed>
</trkpt>
<trkpt lat="56.026482" lon="26.464737">
<ele>147.775513</ele>
<time>2010-06-20T10:21:42Z</time>
<desc>lat.=56.026482, lon.=26.464737, Alt.=147.775513m. Speed=0.000000m/h.</desc>
<speed>0.000000</speed>
</trkpt>
<trkpt lat="56.026482" lon="26.464737">
<ele>147.767700</ele>
<time>2010-06-20T10:21:43Z</time>
<desc>lat.=56.026482, lon.=26.464737, Alt.=147.767700m. Speed=0.036000m/h.</desc>
<speed>0.010000</speed>
</trkpt>
<trkpt lat="56.026482" lon="26.464737">
<ele>147.748169</ele>
<time>2010-06-20T10:21:44Z</time>
<desc>lat.=56.026482, lon.=26.464737, Alt.=147.748169m. Speed=0.180000m/h.</desc>
<speed>0.050000</speed>
</trkpt>
<trkpt lat="56.026482" lon="26.464737">
<ele>147.732544</ele>
<time>2010-06-20T10:21:45Z</time>
<desc>lat.=56.026482, lon.=26.464737, Alt.=147.732544m. Speed=0.180000m/h.</desc>
<speed>0.050000</speed>
</trkpt>
<trkpt lat="56.026482" lon="26.464737">
<ele>147.716919</ele>
<time>2010-06-20T10:21:46Z</time>
<desc>lat.=56.026482, lon.=26.464737, Alt.=147.716919m. Speed=0.180000m/h.</desc>
<speed>0.050000</speed>
</trkpt>
<trkpt lat="56.026482" lon="26.464737">
<ele>147.705200</ele>
<time>2010-06-20T10:21:47Z</time>
<desc>lat.=56.026482, lon.=26.464737, Alt.=147.705200m. Speed=0.216000m/h.</desc>
<speed>0.060000</speed>
</trkpt>
<trkpt lat="56.026482" lon="26.464739">
<ele>147.689575</ele>
<time>2010-06-20T10:21:48Z</time>
<desc>lat.=56.026482, lon.=26.464739, Alt.=147.689575m. Speed=0.216000m/h.</desc>
<speed>0.060000</speed>
</trkpt>
<trkpt lat="56.026482" lon="26.464737">
<ele>147.673950</ele>
<time>2010-06-20T10:21:49Z</time>
<desc>lat.=56.026482, lon.=26.464737, Alt.=147.673950m. Speed=0.432000m/h.</desc>
<speed>0.120000</speed>
</trkpt>
<trkpt lat="56.026482" lon="26.464737">
<ele>147.650513</ele>
<time>2010-06-20T10:21:50Z</time>
<desc>lat.=56.026482, lon.=26.464737, Alt.=147.650513m. Speed=1.116000m/h.</desc>
<speed>0.310000</speed>
</trkpt>
<trkpt lat="56.026470" lon="26.464724">
<ele>146.646606</ele>
<time>2010-06-20T10:21:51Z</time>
<desc>lat.=56.026470, lon.=26.464724, Alt.=146.646606m. Speed=3.564000m/h.</desc>
<speed>0.990000</speed>
</trkpt>
<trkpt lat="56.026466" lon="26.464705">
<ele>145.630981</ele>
<time>2010-06-20T10:21:52Z</time>
<desc>lat.=56.026466, lon.=26.464705, Alt.=145.630981m. Speed=4.752000m/h.</desc>
<speed>1.320000</speed>
</trkpt>
<trkpt lat="56.026470" lon="26.464678">
<ele>143.541138</ele>
<time>2010-06-20T10:21:53Z</time>
<desc>lat.=56.026470, lon.=26.464678, Alt.=143.541138m. Speed=4.752000m/h.</desc>
<speed>1.320000</speed>
</trkpt>
<trkpt lat="56.026455" lon="26.464672">
<ele>143.193481</ele>
<time>2010-06-20T10:21:54Z</time>
<desc>lat.=56.026455, lon.=26.464672, Alt.=143.193481m. Speed=6.768000m/h.</desc>
<speed>1.880000</speed>
</trkpt>
<trkpt lat="56.026440" lon="26.464666">
<ele>142.935669</ele>
<time>2010-06-20T10:21:55Z</time>
<desc>lat.=56.026440, lon.=26.464666, Alt.=142.935669m. Speed=6.732000m/h.</desc>
<speed>1.870000</speed>
</trkpt>
<trkpt lat="56.026424" lon="26.464659">
<ele>142.689575</ele>
<time>2010-06-20T10:21:56Z</time>
<desc>lat.=56.026424, lon.=26.464659, Alt.=142.689575m. Speed=7.560000m/h.</desc>
<speed>2.100000</speed>
</trkpt>
<trkpt lat="56.026424" lon="26.464630">
<ele>141.775513</ele>
<time>2010-06-20T10:21:57Z</time>
<desc>lat.=56.026424, lon.=26.464630, Alt.=141.775513m. Speed=6.588000m/h.</desc>
<speed>1.830000</speed>
</trkpt>
<trkpt lat="56.026428" lon="26.464600">
<ele>140.966919</ele>
<time>2010-06-20T10:21:58Z</time>
<desc>lat.=56.026428, lon.=26.464600, Alt.=140.966919m. Speed=4.032000m/h.</desc>
<speed>1.120000</speed>
</trkpt>
<trkpt lat="56.026421" lon="26.464594">
<ele>140.791138</ele>
<time>2010-06-20T10:21:59Z</time>
<desc>lat.=56.026421, lon.=26.464594, Alt.=140.791138m. Speed=1.944000m/h.</desc>
<speed>0.540000</speed>
</trkpt>
<trkpt lat="56.026424" lon="26.464582">
<ele>140.146606</ele>
<time>2010-06-20T10:22:00Z</time>
<desc>lat.=56.026424, lon.=26.464582, Alt.=140.146606m. Speed=1.872000m/h.</desc>
<speed>0.520000</speed>
</trkpt>
<trkpt lat="56.026413" lon="26.464577">
<ele>139.900513</ele>
<time>2010-06-20T10:22:01Z</time>
<desc>lat.=56.026413, lon.=26.464577, Alt.=139.900513m. Speed=2.556000m/h.</desc>
<speed>0.710000</speed>
</trkpt>
<trkpt lat="56.026409" lon="26.464565">
<ele>139.103638</ele>
<time>2010-06-20T10:22:02Z</time>
<desc>lat.=56.026409, lon.=26.464565, Alt.=139.103638m. Speed=2.520000m/h.</desc>
<speed>0.700000</speed>
</trkpt>
<trkpt lat="56.026409" lon="26.464544">
<ele>138.021606</ele>
<time>2010-06-20T10:22:03Z</time>
<desc>lat.=56.026409, lon.=26.464544, Alt.=138.021606m. Speed=3.276000m/h.</desc>
<speed>0.910000</speed>
</trkpt>
<trkpt lat="56.026402" lon="26.464535">
<ele>137.009888</ele>
<time>2010-06-20T10:22:04Z</time>
<desc>lat.=56.026402, lon.=26.464535, Alt.=137.009888m. Speed=3.492000m/h.</desc>
<speed>0.970000</speed>
</trkpt>
<trkpt lat="56.026386" lon="26.464520">
<ele>136.412231</ele>
<time>2010-06-20T10:22:05Z</time>
<desc>lat.=56.026386, lon.=26.464520, Alt.=136.412231m. Speed=5.292000m/h.</desc>
<speed>1.470000</speed>
</trkpt>
<trkpt lat="56.026375" lon="26.464512">
<ele>135.666138</ele>
<time>2010-06-20T10:22:06Z</time>
<desc>lat.=56.026375, lon.=26.464512, Alt.=135.666138m. Speed=7.596000m/h.</desc>
<speed>2.110000</speed>
</trkpt>
<trkpt lat="56.026352" lon="26.464497">
<ele>135.197388</ele>
<time>2010-06-20T10:22:07Z</time>
<desc>lat.=56.026352, lon.=26.464497, Alt.=135.197388m. Speed=8.604000m/h.</desc>
<speed>2.390000</speed>
</trkpt>
<trkpt lat="56.026333" lon="26.464479">
<ele>134.841919</ele>
<time>2010-06-20T10:22:08Z</time>
<desc>lat.=56.026333, lon.=26.464479, Alt.=134.841919m. Speed=6.840000m/h.</desc>
<speed>1.900000</speed>
</trkpt>
<trkpt lat="56.026310" lon="26.464464">
<ele>134.525513</ele>
<time>2010-06-20T10:22:09Z</time>
<desc>lat.=56.026310, lon.=26.464464, Alt.=134.525513m. Speed=6.480000m/h.</desc>
<speed>1.800000</speed>
</trkpt>
<trkpt lat="56.026291" lon="26.464453">
<ele>134.232544</ele>
<time>2010-06-20T10:22:10Z</time>
<desc>lat.=56.026291, lon.=26.464453, Alt.=134.232544m. Speed=4.932000m/h.</desc>
<speed>1.370000</speed>
</trkpt>
<trkpt lat="56.026276" lon="26.464434">
<ele>133.849731</ele>
<time>2010-06-20T10:22:11Z</time>
<desc>lat.=56.026276, lon.=26.464434, Alt.=133.849731m. Speed=3.996000m/h.</desc>
<speed>1.110000</speed>
</trkpt>
<trkpt lat="56.026272" lon="26.464418">
<ele>133.502075</ele>
<time>2010-06-20T10:22:12Z</time>
<desc>lat.=56.026272, lon.=26.464418, Alt.=133.502075m. Speed=2.448000m/h.</desc>
<speed>0.680000</speed>
</trkpt>
<trkpt lat="56.026264" lon="26.464405">
<ele>133.513794</ele>
<time>2010-06-20T10:22:13Z</time>
<desc>lat.=56.026264, lon.=26.464405, Alt.=133.513794m. Speed=2.736000m/h.</desc>
<speed>0.760000</speed>
</trkpt>
<trkpt lat="56.026245" lon="26.464392">
<ele>132.783325</ele>
<time>2010-06-20T10:22:14Z</time>
<desc>lat.=56.026245, lon.=26.464392, Alt.=132.783325m. Speed=2.880000m/h.</desc>
<speed>0.800000</speed>
</trkpt>
<trkpt lat="56.026226" lon="26.464382">
<ele>131.709106</ele>
<time>2010-06-20T10:22:15Z</time>
<desc>lat.=56.026226, lon.=26.464382, Alt.=131.709106m. Speed=2.916000m/h.</desc>
<speed>0.810000</speed>
</trkpt>
<trkpt lat="56.026207" lon="26.464388">
<ele>130.607544</ele>
<time>2010-06-20T10:22:16Z</time>
<desc>lat.=56.026207, lon.=26.464388, Alt.=130.607544m. Speed=3.348000m/h.</desc>
<speed>0.930000</speed>
</trkpt>
<trkpt lat="56.026192" lon="26.464376">
<ele>130.134888</ele>
<time>2010-06-20T10:22:17Z</time>
<desc>lat.=56.026192, lon.=26.464376, Alt.=130.134888m. Speed=3.564000m/h.</desc>
<speed>0.990000</speed>
</trkpt>
<trkpt lat="56.026173" lon="26.464373">
<ele>129.548950</ele>
<time>2010-06-20T10:22:18Z</time>
<desc>lat.=56.026173, lon.=26.464373, Alt.=129.548950m. Speed=3.924000m/h.</desc>
<speed>1.090000</speed>
</trkpt>
<trkpt lat="56.026146" lon="26.464350">
<ele>128.697388</ele>
<time>2010-06-20T10:22:19Z</time>
<desc>lat.=56.026146, lon.=26.464350, Alt.=128.697388m. Speed=4.464000m/h.</desc>
<speed>1.240000</speed>
</trkpt>
<trkpt lat="56.026127" lon="26.464348">
<ele>127.460022</ele>
<time>2010-06-20T10:22:20Z</time>
<desc>lat.=56.026127, lon.=26.464348, Alt.=127.460022m. Speed=4.572000m/h.</desc>
<speed>1.270000</speed>
</trkpt>
<trkpt lat="56.026108" lon="26.464323">
<ele>127.090881</ele>
<time>2010-06-20T10:22:21Z</time>
<desc>lat.=56.026108, lon.=26.464323, Alt.=127.090881m. Speed=5.256000m/h.</desc>
<speed>1.460000</speed>
</trkpt>
<trkpt lat="56.026093" lon="26.464304">
<ele>126.561584</ele>
<time>2010-06-20T10:22:22Z</time>
<desc>lat.=56.026093, lon.=26.464304, Alt.=126.561584m. Speed=5.436000m/h.</desc>
<speed>1.510000</speed>
</trkpt>
<trkpt lat="56.026081" lon="26.464289">
<ele>126.085022</ele>
<time>2010-06-20T10:22:23Z</time>
<desc>lat.=56.026081, lon.=26.464289, Alt.=126.085022m. Speed=2.988000m/h.</desc>
<speed>0.830000</speed>
</trkpt>
<trkpt lat="56.026070" lon="26.464275">
<ele>125.092834</ele>
<time>2010-06-20T10:22:24Z</time>
<desc>lat.=56.026070, lon.=26.464275, Alt.=125.092834m. Speed=2.880000m/h.</desc>
<speed>0.800000</speed>
</trkpt>
<trkpt lat="56.026054" lon="26.464262">
<ele>124.335022</ele>
<time>2010-06-20T10:22:25Z</time>
<desc>lat.=56.026054, lon.=26.464262, Alt.=124.335022m. Speed=2.268000m/h.</desc>
<speed>0.630000</speed>
</trkpt>
<trkpt lat="56.026043" lon="26.464251">
<ele>123.723694</ele>
<time>2010-06-20T10:22:26Z</time>
<desc>lat.=56.026043, lon.=26.464251, Alt.=123.723694m. Speed=2.988000m/h.</desc>
<speed>0.830000</speed>
</trkpt>
<trkpt lat="56.025993" lon="26.464230">
<ele>122.864319</ele>
<time>2010-06-20T10:22:27Z</time>
<desc>lat.=56.025993, lon.=26.464230, Alt.=122.864319m. Speed=6.876000m/h.</desc>
<speed>1.910000</speed>
</trkpt>
<trkpt lat="56.025974" lon="26.464209">
<ele>121.169006</ele>
<time>2010-06-20T10:22:28Z</time>
<desc>lat.=56.025974, lon.=26.464209, Alt.=121.169006m. Speed=5.112000m/h.</desc>
<speed>1.420000</speed>
</trkpt>
<trkpt lat="56.025959" lon="26.464180">
<ele>119.489319</ele>
<time>2010-06-20T10:22:29Z</time>
<desc>lat.=56.025959, lon.=26.464180, Alt.=119.489319m. Speed=4.356000m/h.</desc>
<speed>1.210000</speed>
</trkpt>
<trkpt lat="56.025940" lon="26.464172">
<ele>119.202209</ele>
<time>2010-06-20T10:22:30Z</time>
<desc>lat.=56.025940, lon.=26.464172, Alt.=119.202209m. Speed=3.924000m/h.</desc>
<speed>1.090000</speed>
</trkpt>
<trkpt lat="56.025917" lon="26.464155">
<ele>118.833069</ele>
<time>2010-06-20T10:22:31Z</time>
<desc>lat.=56.025917, lon.=26.464155, Alt.=118.833069m. Speed=6.264000m/h.</desc>
<speed>1.740000</speed>
</trkpt>
<trkpt lat="56.025890" lon="26.464140">
<ele>118.280334</ele>
<time>2010-06-20T10:22:32Z</time>
<desc>lat.=56.025890, lon.=26.464140, Alt.=118.280334m. Speed=5.724000m/h.</desc>
<speed>1.590000</speed>
</trkpt>
<trkpt lat="56.025867" lon="26.464127">
<ele>117.678772</ele>
<time>2010-06-20T10:22:33Z</time>
<desc>lat.=56.025867, lon.=26.464127, Alt.=117.678772m. Speed=5.148000m/h.</desc>
<speed>1.430000</speed>
</trkpt>
<trkpt lat="56.025841" lon="26.464108">
<ele>116.419006</ele>
<time>2010-06-20T10:22:34Z</time>
<desc>lat.=56.025841, lon.=26.464108, Alt.=116.419006m. Speed=4.860000m/h.</desc>
<speed>1.350000</speed>
</trkpt>
<trkpt lat="56.025814" lon="26.464094">
<ele>115.852600</ele>
<time>2010-06-20T10:22:35Z</time>
<desc>lat.=56.025814, lon.=26.464094, Alt.=115.852600m. Speed=9.000000m/h.</desc>
<speed>2.500000</speed>
</trkpt>
<trkpt lat="56.025787" lon="26.464079">
<ele>115.555725</ele>
<time>2010-06-20T10:22:36Z</time>
<desc>lat.=56.025787, lon.=26.464079, Alt.=115.555725m. Speed=8.316000m/h.</desc>
<speed>2.310000</speed>
</trkpt>
<trkpt lat="56.025764" lon="26.464054">
<ele>115.227600</ele>
<time>2010-06-20T10:22:37Z</time>
<desc>lat.=56.025764, lon.=26.464054, Alt.=115.227600m. Speed=7.884000m/h.</desc>
<speed>2.190000</speed>
</trkpt>
<trkpt lat="56.025738" lon="26.464041">
<ele>114.262756</ele>
<time>2010-06-20T10:22:38Z</time>
<desc>lat.=56.025738, lon.=26.464041, Alt.=114.262756m. Speed=6.732000m/h.</desc>
<speed>1.870000</speed>
</trkpt>
<trkpt lat="56.025711" lon="26.464029">
<ele>113.305725</ele>
<time>2010-06-20T10:22:39Z</time>
<desc>lat.=56.025711, lon.=26.464029, Alt.=113.305725m. Speed=7.020000m/h.</desc>
<speed>1.950000</speed>
</trkpt>
<trkpt lat="56.025684" lon="26.464014">
<ele>112.934631</ele>
<time>2010-06-20T10:22:40Z</time>
<desc>lat.=56.025684, lon.=26.464014, Alt.=112.934631m. Speed=5.580000m/h.</desc>
<speed>1.550000</speed>
</trkpt>
<trkpt lat="56.025654" lon="26.463989">
<ele>112.424866</ele>
<time>2010-06-20T10:22:41Z</time>
<desc>lat.=56.025654, lon.=26.463989, Alt.=112.424866m. Speed=5.256000m/h.</desc>
<speed>1.460000</speed>
</trkpt>
<trkpt lat="56.025627" lon="26.463980">
<ele>111.936584</ele>
<time>2010-06-20T10:22:42Z</time>
<desc>lat.=56.025627, lon.=26.463980, Alt.=111.936584m. Speed=6.012000m/h.</desc>
<speed>1.670000</speed>
</trkpt>
<trkpt lat="56.025597" lon="26.463953">
<ele>111.426819</ele>
<time>2010-06-20T10:22:43Z</time>
<desc>lat.=56.025597, lon.=26.463953, Alt.=111.426819m. Speed=7.560000m/h.</desc>
<speed>2.100000</speed>
</trkpt>
<trkpt lat="56.025562" lon="26.463911">
<ele>111.163147</ele>
<time>2010-06-20T10:22:44Z</time>
<desc>lat.=56.025562, lon.=26.463911, Alt.=111.163147m. Speed=9.036000m/h.</desc>
<speed>2.510000</speed>
</trkpt>
<trkpt lat="56.025536" lon="26.463882">
<ele>110.561584</ele>
<time>2010-06-20T10:22:45Z</time>
<desc>lat.=56.025536, lon.=26.463882, Alt.=110.561584m. Speed=5.832000m/h.</desc>
<speed>1.620000</speed>
</trkpt>
<trkpt lat="56.025501" lon="26.463850">
<ele>109.999084</ele>
<time>2010-06-20T10:22:46Z</time>
<desc>lat.=56.025501, lon.=26.463850, Alt.=109.999084m. Speed=7.344000m/h.</desc>
<speed>2.040000</speed>
</trkpt>
<trkpt lat="56.025478" lon="26.463827">
<ele>109.544006</ele>
<time>2010-06-20T10:22:47Z</time>
<desc>lat.=56.025478, lon.=26.463827, Alt.=109.544006m. Speed=5.508000m/h.</desc>
<speed>1.530000</speed>
</trkpt>
<trkpt lat="56.025444" lon="26.463799">
<ele>109.083069</ele>
<time>2010-06-20T10:22:48Z</time>
<desc>lat.=56.025444, lon.=26.463799, Alt.=109.083069m. Speed=6.408000m/h.</desc>
<speed>1.780000</speed>
</trkpt>
<trkpt lat="56.025417" lon="26.463764">
<ele>108.602600</ele>
<time>2010-06-20T10:22:49Z</time>
<desc>lat.=56.025417, lon.=26.463764, Alt.=108.602600m. Speed=6.444000m/h.</desc>
<speed>1.790000</speed>
</trkpt>
<trkpt lat="56.025383" lon="26.463720">
<ele>108.106506</ele>
<time>2010-06-20T10:22:50Z</time>
<desc>lat.=56.025383, lon.=26.463720, Alt.=108.106506m. Speed=7.704000m/h.</desc>
<speed>2.140000</speed>
</trkpt>
<trkpt lat="56.025360" lon="26.463680">
<ele>107.514709</ele>
<time>2010-06-20T10:22:51Z</time>
<desc>lat.=56.025360, lon.=26.463680, Alt.=107.514709m. Speed=6.948000m/h.</desc>
<speed>1.930000</speed>
</trkpt>
<trkpt lat="56.025337" lon="26.463652">
<ele>107.106506</ele>
<time>2010-06-20T10:22:52Z</time>
<desc>lat.=56.025337, lon.=26.463652, Alt.=107.106506m. Speed=6.012000m/h.</desc>
<speed>1.670000</speed>
</trkpt>
<trkpt lat="56.025272" lon="26.463606">
<ele>106.483459</ele>
<time>2010-06-20T10:22:53Z</time>
<desc>lat.=56.025272, lon.=26.463606, Alt.=106.483459m. Speed=9.576000m/h.</desc>
<speed>2.660000</speed>
</trkpt>
<trkpt lat="56.025242" lon="26.463554">
<ele>106.186584</ele>
<time>2010-06-20T10:22:54Z</time>
<desc>lat.=56.025242, lon.=26.463554, Alt.=106.186584m. Speed=9.612000m/h.</desc>
<speed>2.670000</speed>
</trkpt>
<trkpt lat="56.025211" lon="26.463516">
<ele>106.044006</ele>
<time>2010-06-20T10:22:55Z</time>
<desc>lat.=56.025211, lon.=26.463516, Alt.=106.044006m. Speed=8.136000m/h.</desc>
<speed>2.260000</speed>
</trkpt>
<trkpt lat="56.025177" lon="26.463472">
<ele>105.797913</ele>
<time>2010-06-20T10:22:56Z</time>
<desc>lat.=56.025177, lon.=26.463472, Alt.=105.797913m. Speed=7.308000m/h.</desc>
<speed>2.030000</speed>
</trkpt>
<trkpt lat="56.025154" lon="26.463436">
<ele>105.307678</ele>
<time>2010-06-20T10:22:57Z</time>
<desc>lat.=56.025154, lon.=26.463436, Alt.=105.307678m. Speed=5.796000m/h.</desc>
<speed>1.610000</speed>
</trkpt>
<trkpt lat="56.025135" lon="26.463400">
<ele>104.836975</ele>
<time>2010-06-20T10:22:58Z</time>
<desc>lat.=56.025135, lon.=26.463400, Alt.=104.836975m. Speed=5.940000m/h.</desc>
<speed>1.650000</speed>
</trkpt>
<trkpt lat="56.025124" lon="26.463358">
<ele>103.725647</ele>
<time>2010-06-20T10:22:59Z</time>
<desc>lat.=56.025124, lon.=26.463358, Alt.=103.725647m. Speed=3.816000m/h.</desc>
<speed>1.060000</speed>
</trkpt>
<trkpt lat="56.025112" lon="26.463327">
<ele>103.399475</ele>
<time>2010-06-20T10:23:00Z</time>
<desc>lat.=56.025112, lon.=26.463327, Alt.=103.399475m. Speed=3.492000m/h.</desc>
<speed>0.970000</speed>
</trkpt>
<trkpt lat="56.025105" lon="26.463314">
<ele>102.794006</ele>
<time>2010-06-20T10:23:01Z</time>
<desc>lat.=56.025105, lon.=26.463314, Alt.=102.794006m. Speed=1.260000m/h.</desc>
<speed>0.350000</speed>
</trkpt>
<trkpt lat="56.025097" lon="26.463310">
<ele>102.196350</ele>
<time>2010-06-20T10:23:02Z</time>
<desc>lat.=56.025097, lon.=26.463310, Alt.=102.196350m. Speed=1.152000m/h.</desc>
<speed>0.320000</speed>
</trkpt>
<trkpt lat="56.025093" lon="26.463312">
<ele>101.903381</ele>
<time>2010-06-20T10:23:03Z</time>
<desc>lat.=56.025093, lon.=26.463312, Alt.=101.903381m. Speed=0.720000m/h.</desc>
<speed>0.200000</speed>
</trkpt>
<trkpt lat="56.025093" lon="26.463297">
<ele>102.749084</ele>
<time>2010-06-20T10:23:04Z</time>
<desc>lat.=56.025093, lon.=26.463297, Alt.=102.749084m. Speed=0.648000m/h.</desc>
<speed>0.180000</speed>
</trkpt>
<trkpt lat="56.025085" lon="26.463285">
<ele>102.579163</ele>
<time>2010-06-20T10:23:05Z</time>
<desc>lat.=56.025085, lon.=26.463285, Alt.=102.579163m. Speed=0.792000m/h.</desc>
<speed>0.220000</speed>
</trkpt>
<trkpt lat="56.025070" lon="26.463276">
<ele>102.086975</ele>
<time>2010-06-20T10:23:06Z</time>
<desc>lat.=56.025070, lon.=26.463276, Alt.=102.086975m. Speed=0.864000m/h.</desc>
<speed>0.240000</speed>
</trkpt>
<trkpt lat="56.025070" lon="26.463274">
<ele>101.942444</ele>
<time>2010-06-20T10:23:07Z</time>
<desc>lat.=56.025070, lon.=26.463274, Alt.=101.942444m. Speed=0.936000m/h.</desc>
<speed>0.260000</speed>
</trkpt>
<trkpt lat="56.025066" lon="26.463270">
<ele>101.827209</ele>
<time>2010-06-20T10:23:08Z</time>
<desc>lat.=56.025066, lon.=26.463270, Alt.=101.827209m. Speed=0.756000m/h.</desc>
<speed>0.210000</speed>
</trkpt>
<trkpt lat="56.025066" lon="26.463268">
<ele>101.739319</ele>
<time>2010-06-20T10:23:09Z</time>
<desc>lat.=56.025066, lon.=26.463268, Alt.=101.739319m. Speed=0.396000m/h.</desc>
<speed>0.110000</speed>
</trkpt>
<trkpt lat="56.025063" lon="26.463268">
<ele>101.669006</ele>
<time>2010-06-20T10:23:10Z</time>
<desc>lat.=56.025063, lon.=26.463268, Alt.=101.669006m. Speed=0.432000m/h.</desc>
<speed>0.120000</speed>
</trkpt>
<trkpt lat="56.025063" lon="26.463268">
<ele>101.608459</ele>
<time>2010-06-20T10:23:11Z</time>
<desc>lat.=56.025063, lon.=26.463268, Alt.=101.608459m. Speed=0.612000m/h.</desc>
<speed>0.170000</speed>
</trkpt>
<trkpt lat="56.025063" lon="26.463266">
<ele>101.563538</ele>
<time>2010-06-20T10:23:12Z</time>
<desc>lat.=56.025063, lon.=26.463266, Alt.=101.563538m. Speed=0.828000m/h.</desc>
<speed>0.230000</speed>
</trkpt>
<trkpt lat="56.025059" lon="26.463266">
<ele>101.530334</ele>
<time>2010-06-20T10:23:13Z</time>
<desc>lat.=56.025059, lon.=26.463266, Alt.=101.530334m. Speed=0.972000m/h.</desc>
<speed>0.270000</speed>
</trkpt>
<trkpt lat="56.025055" lon="26.463264">
<ele>101.502991</ele>
<time>2010-06-20T10:23:14Z</time>
<desc>lat.=56.025055, lon.=26.463264, Alt.=101.502991m. Speed=0.648000m/h.</desc>
<speed>0.180000</speed>
</trkpt>
<trkpt lat="56.025055" lon="26.463263">
<ele>101.477600</ele>
<time>2010-06-20T10:23:15Z</time>
<desc>lat.=56.025055, lon.=26.463263, Alt.=101.477600m. Speed=1.440000m/h.</desc>
<speed>0.400000</speed>
</trkpt>
<trkpt lat="56.025043" lon="26.463259">
<ele>101.434631</ele>
<time>2010-06-20T10:23:16Z</time>
<desc>lat.=56.025043, lon.=26.463259, Alt.=101.434631m. Speed=1.008000m/h.</desc>
<speed>0.280000</speed>
</trkpt>
<trkpt lat="56.025032" lon="26.463259">
<ele>101.366272</ele>
<time>2010-06-20T10:23:17Z</time>
<desc>lat.=56.025032, lon.=26.463259, Alt.=101.366272m. Speed=1.044000m/h.</desc>
<speed>0.290000</speed>
</trkpt>
<trkpt lat="56.025021" lon="26.463255">
<ele>101.352600</ele>
<time>2010-06-20T10:23:18Z</time>
<desc>lat.=56.025021, lon.=26.463255, Alt.=101.352600m. Speed=1.008000m/h.</desc>
<speed>0.280000</speed>
</trkpt>
<trkpt lat="56.025013" lon="26.463249">
<ele>101.307678</ele>
<time>2010-06-20T10:23:19Z</time>
<desc>lat.=56.025013, lon.=26.463249, Alt.=101.307678m. Speed=1.044000m/h.</desc>
<speed>0.290000</speed>
</trkpt>
<trkpt lat="56.025009" lon="26.463249">
<ele>101.294006</ele>
<time>2010-06-20T10:23:20Z</time>
<desc>lat.=56.025009, lon.=26.463249, Alt.=101.294006m. Speed=0.864000m/h.</desc>
<speed>0.240000</speed>
</trkpt>
<trkpt lat="56.025009" lon="26.463247">
<ele>101.284241</ele>
<time>2010-06-20T10:23:21Z</time>
<desc>lat.=56.025009, lon.=26.463247, Alt.=101.284241m. Speed=0.828000m/h.</desc>
<speed>0.230000</speed>
</trkpt>
<trkpt lat="56.025005" lon="26.463245">
<ele>101.276428</ele>
<time>2010-06-20T10:23:22Z</time>
<desc>lat.=56.025005, lon.=26.463245, Alt.=101.276428m. Speed=0.468000m/h.</desc>
<speed>0.130000</speed>
</trkpt>
<trkpt lat="56.025005" lon="26.463243">
<ele>101.270569</ele>
<time>2010-06-20T10:23:23Z</time>
<desc>lat.=56.025005, lon.=26.463243, Alt.=101.270569m. Speed=0.144000m/h.</desc>
<speed>0.040000</speed>
</trkpt>
<trkpt lat="56.025005" lon="26.463243">
<ele>101.264709</ele>
<time>2010-06-20T10:23:24Z</time>
<desc>lat.=56.025005, lon.=26.463243, Alt.=101.264709m. Speed=0.288000m/h.</desc>
<speed>0.080000</speed>
</trkpt>
<trkpt lat="56.025005" lon="26.463242">
<ele>101.260803</ele>
<time>2010-06-20T10:23:25Z</time>
<desc>lat.=56.025005, lon.=26.463242, Alt.=101.260803m. Speed=0.360000m/h.</desc>
<speed>0.100000</speed>
</trkpt>
<trkpt lat="56.025005" lon="26.463242">
<ele>101.256897</ele>
<time>2010-06-20T10:23:26Z</time>
<desc>lat.=56.025005, lon.=26.463242, Alt.=101.256897m. Speed=0.072000m/h.</desc>
<speed>0.020000</speed>
</trkpt>
<trkpt lat="56.025005" lon="26.463242">
<ele>101.254944</ele>
<time>2010-06-20T10:23:27Z</time>
<desc>lat.=56.025005, lon.=26.463242, Alt.=101.254944m. Speed=0.108000m/h.</desc>
<speed>0.030000</speed>
</trkpt>
<trkpt lat="56.025005" lon="26.463242">
<ele>101.251038</ele>
<time>2010-06-20T10:23:28Z</time>
<desc>lat.=56.025005, lon.=26.463242, Alt.=101.251038m. Speed=0.288000m/h.</desc>
<speed>0.080000</speed>
</trkpt>
<trkpt lat="56.025005" lon="26.463242">
<ele>101.245178</ele>
<time>2010-06-20T10:23:29Z</time>
<desc>lat.=56.025005, lon.=26.463242, Alt.=101.245178m. Speed=0.468000m/h.</desc>
<speed>0.130000</speed>
</trkpt>
<trkpt lat="56.025005" lon="26.463243">
<ele>101.243225</ele>
<time>2010-06-20T10:23:30Z</time>
<desc>lat.=56.025005, lon.=26.463243, Alt.=101.243225m. Speed=0.252000m/h.</desc>
<speed>0.070000</speed>
</trkpt>
<trkpt lat="56.025005" lon="26.463245">
<ele>101.239319</ele>
<time>2010-06-20T10:23:31Z</time>
<desc>lat.=56.025005, lon.=26.463245, Alt.=101.239319m. Speed=0.108000m/h.</desc>
<speed>0.030000</speed>
</trkpt>
<trkpt lat="56.025005" lon="26.463243">
<ele>101.233459</ele>
<time>2010-06-20T10:23:32Z</time>
<desc>lat.=56.025005, lon.=26.463243, Alt.=101.233459m. Speed=0.108000m/h.</desc>
<speed>0.030000</speed>
</trkpt>
<trkpt lat="56.025005" lon="26.463243">
<ele>101.225647</ele>
<time>2010-06-20T10:23:33Z</time>
<desc>lat.=56.025005, lon.=26.463243, Alt.=101.225647m. Speed=0.900000m/h.</desc>
<speed>0.250000</speed>
</trkpt>
<trkpt lat="56.025002" lon="26.463247">
<ele>101.223694</ele>
<time>2010-06-20T10:23:34Z</time>
<desc>lat.=56.025002, lon.=26.463247, Alt.=101.223694m. Speed=1.800000m/h.</desc>
<speed>0.500000</speed>
</trkpt>
<trkpt lat="56.024998" lon="26.463251">
<ele>101.059631</ele>
<time>2010-06-20T10:23:35Z</time>
<desc>lat.=56.024998, lon.=26.463251, Alt.=101.059631m. Speed=1.872000m/h.</desc>
<speed>0.520000</speed>
</trkpt>
<trkpt lat="56.024982" lon="26.463257">
<ele>101.012756</ele>
<time>2010-06-20T10:23:36Z</time>
<desc>lat.=56.024982, lon.=26.463257, Alt.=101.012756m. Speed=2.952000m/h.</desc>
<speed>0.820000</speed>
</trkpt>
<trkpt lat="56.024971" lon="26.463266">
<ele>100.889709</ele>
<time>2010-06-20T10:23:37Z</time>
<desc>lat.=56.024971, lon.=26.463266, Alt.=100.889709m. Speed=3.312000m/h.</desc>
<speed>0.920000</speed>
</trkpt>
<trkpt lat="56.024971" lon="26.463284">
<ele>102.169006</ele>
<time>2010-06-20T10:23:38Z</time>
<desc>lat.=56.024971, lon.=26.463284, Alt.=102.169006m. Speed=2.916000m/h.</desc>
<speed>0.810000</speed>
</trkpt>
<trkpt lat="56.024963" lon="26.463289">
<ele>102.182678</ele>
<time>2010-06-20T10:23:39Z</time>
<desc>lat.=56.024963, lon.=26.463289, Alt.=102.182678m. Speed=2.448000m/h.</desc>
<speed>0.680000</speed>
</trkpt>
<trkpt lat="56.024948" lon="26.463310">
<ele>101.920959</ele>
<time>2010-06-20T10:23:40Z</time>
<desc>lat.=56.024948, lon.=26.463310, Alt.=101.920959m. Speed=3.672000m/h.</desc>
<speed>1.020000</speed>
</trkpt>
<trkpt lat="56.024940" lon="26.463320">
<ele>101.993225</ele>
<time>2010-06-20T10:23:41Z</time>
<desc>lat.=56.024940, lon.=26.463320, Alt.=101.993225m. Speed=3.348000m/h.</desc>
<speed>0.930000</speed>
</trkpt>
<trkpt lat="56.024933" lon="26.463331">
<ele>102.131897</ele>
<time>2010-06-20T10:23:42Z</time>
<desc>lat.=56.024933, lon.=26.463331, Alt.=102.131897m. Speed=3.168000m/h.</desc>
<speed>0.880000</speed>
</trkpt>
<trkpt lat="56.024925" lon="26.463341">
<ele>102.188538</ele>
<time>2010-06-20T10:23:43Z</time>
<desc>lat.=56.024925, lon.=26.463341, Alt.=102.188538m. Speed=3.096000m/h.</desc>
<speed>0.860000</speed>
</trkpt>
<trkpt lat="56.024918" lon="26.463350">
<ele>102.286194</ele>
<time>2010-06-20T10:23:44Z</time>
<desc>lat.=56.024918, lon.=26.463350, Alt.=102.286194m. Speed=3.024000m/h.</desc>
<speed>0.840000</speed>
</trkpt>
<trkpt lat="56.024906" lon="26.463366">
<ele>102.547913</ele>
<time>2010-06-20T10:23:45Z</time>
<desc>lat.=56.024906, lon.=26.463366, Alt.=102.547913m. Speed=3.636000m/h.</desc>
<speed>1.010000</speed>
</trkpt>
<trkpt lat="56.024895" lon="26.463383">
<ele>102.657288</ele>
<time>2010-06-20T10:23:46Z</time>
<desc>lat.=56.024895, lon.=26.463383, Alt.=102.657288m. Speed=4.572000m/h.</desc>
<speed>1.270000</speed>
</trkpt>
<trkpt lat="56.024879" lon="26.463398">
<ele>102.282288</ele>
<time>2010-06-20T10:23:47Z</time>
<desc>lat.=56.024879, lon.=26.463398, Alt.=102.282288m. Speed=5.940000m/h.</desc>
<speed>1.650000</speed>
</trkpt>
<trkpt lat="56.024853" lon="26.463415">
<ele>102.131897</ele>
<time>2010-06-20T10:23:48Z</time>
<desc>lat.=56.024853, lon.=26.463415, Alt.=102.131897m. Speed=7.056000m/h.</desc>
<speed>1.960000</speed>
</trkpt>
<trkpt lat="56.024837" lon="26.463434">
<ele>102.249084</ele>
<time>2010-06-20T10:23:49Z</time>
<desc>lat.=56.024837, lon.=26.463434, Alt.=102.249084m. Speed=7.740000m/h.</desc>
<speed>2.150000</speed>
</trkpt>
<trkpt lat="56.024822" lon="26.463459">
<ele>102.143616</ele>
<time>2010-06-20T10:23:50Z</time>
<desc>lat.=56.024822, lon.=26.463459, Alt.=102.143616m. Speed=6.624000m/h.</desc>
<speed>1.840000</speed>
</trkpt>
<trkpt lat="56.024811" lon="26.463480">
<ele>101.944397</ele>
<time>2010-06-20T10:23:51Z</time>
<desc>lat.=56.024811, lon.=26.463480, Alt.=101.944397m. Speed=4.968000m/h.</desc>
<speed>1.380000</speed>
</trkpt>
<trkpt lat="56.024799" lon="26.463503">
<ele>102.016663</ele>
<time>2010-06-20T10:23:52Z</time>
<desc>lat.=56.024799, lon.=26.463503, Alt.=102.016663m. Speed=6.768000m/h.</desc>
<speed>1.880000</speed>
</trkpt>
<trkpt lat="56.024776" lon="26.463531">
<ele>101.518616</ele>
<time>2010-06-20T10:23:53Z</time>
<desc>lat.=56.024776, lon.=26.463531, Alt.=101.518616m. Speed=5.940000m/h.</desc>
<speed>1.650000</speed>
</trkpt>
<trkpt lat="56.024746" lon="26.463560">
<ele>100.887756</ele>
<time>2010-06-20T10:23:54Z</time>
<desc>lat.=56.024746, lon.=26.463560, Alt.=100.887756m. Speed=6.696000m/h.</desc>
<speed>1.860000</speed>
</trkpt>
<trkpt lat="56.024727" lon="26.463591">
<ele>100.417053</ele>
<time>2010-06-20T10:23:55Z</time>
<desc>lat.=56.024727, lon.=26.463591, Alt.=100.417053m. Speed=7.596000m/h.</desc>
<speed>2.110000</speed>
</trkpt>
<trkpt lat="56.024704" lon="26.463619">
<ele>99.653381</ele>
<time>2010-06-20T10:23:56Z</time>
<desc>lat.=56.024704, lon.=26.463619, Alt.=99.653381m. Speed=5.400000m/h.</desc>
<speed>1.500000</speed>
</trkpt>
<trkpt lat="56.024681" lon="26.463640">
<ele>98.879944</ele>
<time>2010-06-20T10:23:57Z</time>
<desc>lat.=56.024681, lon.=26.463640, Alt.=98.879944m. Speed=5.760000m/h.</desc>
<speed>1.600000</speed>
</trkpt>
<trkpt lat="56.024666" lon="26.463661">
<ele>97.926819</ele>
<time>2010-06-20T10:23:58Z</time>
<desc>lat.=56.024666, lon.=26.463661, Alt.=97.926819m. Speed=6.084000m/h.</desc>
<speed>1.690000</speed>
</trkpt>
<trkpt lat="56.024651" lon="26.463678">
<ele>97.235413</ele>
<time>2010-06-20T10:23:59Z</time>
<desc>lat.=56.024651, lon.=26.463678, Alt.=97.235413m. Speed=5.328000m/h.</desc>
<speed>1.480000</speed>
</trkpt>
<trkpt lat="56.024628" lon="26.463697">
<ele>96.838928</ele>
<time>2010-06-20T10:24:00Z</time>
<desc>lat.=56.024628, lon.=26.463697, Alt.=96.838928m. Speed=4.104000m/h.</desc>
<speed>1.140000</speed>
</trkpt>
<trkpt lat="56.024616" lon="26.463713">
<ele>97.092834</ele>
<time>2010-06-20T10:24:01Z</time>
<desc>lat.=56.024616, lon.=26.463713, Alt.=97.092834m. Speed=2.952000m/h.</desc>
<speed>0.820000</speed>
</trkpt>
<trkpt lat="56.024601" lon="26.463724">
<ele>97.729553</ele>
<time>2010-06-20T10:24:02Z</time>
<desc>lat.=56.024601, lon.=26.463724, Alt.=97.729553m. Speed=3.564000m/h.</desc>
<speed>0.990000</speed>
</trkpt>
<trkpt lat="56.024597" lon="26.463707">
<ele>97.784241</ele>
<time>2010-06-20T10:24:03Z</time>
<desc>lat.=56.024597, lon.=26.463707, Alt.=97.784241m. Speed=3.060000m/h.</desc>
<speed>0.850000</speed>
</trkpt>
<trkpt lat="56.024597" lon="26.463690">
<ele>97.295959</ele>
<time>2010-06-20T10:24:04Z</time>
<desc>lat.=56.024597, lon.=26.463690, Alt.=97.295959m. Speed=3.492000m/h.</desc>
<speed>0.970000</speed>
</trkpt>
<trkpt lat="56.024597" lon="26.463671">
<ele>96.874084</ele>
<time>2010-06-20T10:24:05Z</time>
<desc>lat.=56.024597, lon.=26.463671, Alt.=96.874084m. Speed=4.140000m/h.</desc>
<speed>1.150000</speed>
</trkpt>
<trkpt lat="56.024597" lon="26.463648">
<ele>96.555725</ele>
<time>2010-06-20T10:24:06Z</time>
<desc>lat.=56.024597, lon.=26.463648, Alt.=96.555725m. Speed=6.804000m/h.</desc>
<speed>1.890000</speed>
</trkpt>
<trkpt lat="56.024597" lon="26.463619">
<ele>96.170959</ele>
<time>2010-06-20T10:24:07Z</time>
<desc>lat.=56.024597, lon.=26.463619, Alt.=96.170959m. Speed=6.768000m/h.</desc>
<speed>1.880000</speed>
</trkpt>
<trkpt lat="56.024597" lon="26.463591">
<ele>96.153381</ele>
<time>2010-06-20T10:24:08Z</time>
<desc>lat.=56.024597, lon.=26.463591, Alt.=96.153381m. Speed=7.380000m/h.</desc>
<speed>2.050000</speed>
</trkpt>
<trkpt lat="56.024605" lon="26.463558">
<ele>95.842834</ele>
<time>2010-06-20T10:24:09Z</time>
<desc>lat.=56.024605, lon.=26.463558, Alt.=95.842834m. Speed=8.136000m/h.</desc>
<speed>2.260000</speed>
</trkpt>
<trkpt lat="56.024620" lon="26.463522">
<ele>95.481506</ele>
<time>2010-06-20T10:24:10Z</time>
<desc>lat.=56.024620, lon.=26.463522, Alt.=95.481506m. Speed=9.828000m/h.</desc>
<speed>2.730000</speed>
</trkpt>
<trkpt lat="56.024643" lon="26.463478">
<ele>95.295959</ele>
<time>2010-06-20T10:24:11Z</time>
<desc>lat.=56.024643, lon.=26.463478, Alt.=95.295959m. Speed=11.484000m/h.</desc>
<speed>3.190000</speed>
</trkpt>
<trkpt lat="56.024670" lon="26.463444">
<ele>95.083069</ele>
<time>2010-06-20T10:24:12Z</time>
<desc>lat.=56.024670, lon.=26.463444, Alt.=95.083069m. Speed=12.564000m/h.</desc>
<speed>3.490000</speed>
</trkpt>
<trkpt lat="56.024696" lon="26.463404">
<ele>94.946350</ele>
<time>2010-06-20T10:24:13Z</time>
<desc>lat.=56.024696, lon.=26.463404, Alt.=94.946350m. Speed=12.960000m/h.</desc>
<speed>3.600000</speed>
</trkpt>
<trkpt lat="56.024727" lon="26.463369">
<ele>94.985413</ele>
<time>2010-06-20T10:24:14Z</time>
<desc>lat.=56.024727, lon.=26.463369, Alt.=94.985413m. Speed=13.284000m/h.</desc>
<speed>3.690000</speed>
</trkpt>
<trkpt lat="56.024761" lon="26.463335">
<ele>95.368225</ele>
<time>2010-06-20T10:24:15Z</time>
<desc>lat.=56.024761, lon.=26.463335, Alt.=95.368225m. Speed=13.860000m/h.</desc>
<speed>3.850000</speed>
</trkpt>
<trkpt lat="56.024792" lon="26.463295">
<ele>95.604553</ele>
<time>2010-06-20T10:24:16Z</time>
<desc>lat.=56.024792, lon.=26.463295, Alt.=95.604553m. Speed=13.860000m/h.</desc>
<speed>3.850000</speed>
</trkpt>
<trkpt lat="56.024822" lon="26.463247">
<ele>96.809631</ele>
<time>2010-06-20T10:24:17Z</time>
<desc>lat.=56.024822, lon.=26.463247, Alt.=96.809631m. Speed=14.076000m/h.</desc>
<speed>3.910000</speed>
</trkpt>
<trkpt lat="56.024853" lon="26.463211">
<ele>98.217834</ele>
<time>2010-06-20T10:24:18Z</time>
<desc>lat.=56.024853, lon.=26.463211, Alt.=98.217834m. Speed=14.580000m/h.</desc>
<speed>4.050000</speed>
</trkpt>
<trkpt lat="56.024879" lon="26.463167">
<ele>98.110413</ele>
<time>2010-06-20T10:24:19Z</time>
<desc>lat.=56.024879, lon.=26.463167, Alt.=98.110413m. Speed=14.112000m/h.</desc>
<speed>3.920000</speed>
</trkpt>
<trkpt lat="56.024906" lon="26.463114">
<ele>97.801819</ele>
<time>2010-06-20T10:24:20Z</time>
<desc>lat.=56.024906, lon.=26.463114, Alt.=97.801819m. Speed=16.416000m/h.</desc>
<speed>4.560000</speed>
</trkpt>
<trkpt lat="56.024937" lon="26.463047">
<ele>97.299866</ele>
<time>2010-06-20T10:24:21Z</time>
<desc>lat.=56.024937, lon.=26.463047, Alt.=97.299866m. Speed=16.271999m/h.</desc>
<speed>4.520000</speed>
</trkpt>
<trkpt lat="56.024967" lon="26.462999">
<ele>97.210022</ele>
<time>2010-06-20T10:24:22Z</time>
<desc>lat.=56.024967, lon.=26.462999, Alt.=97.210022m. Speed=15.696000m/h.</desc>
<speed>4.360000</speed>
</trkpt>
<trkpt lat="56.025002" lon="26.462948">
<ele>97.198303</ele>
<time>2010-06-20T10:24:23Z</time>
<desc>lat.=56.025002, lon.=26.462948, Alt.=97.198303m. Speed=15.228000m/h.</desc>
<speed>4.230000</speed>
</trkpt>
<trkpt lat="56.025028" lon="26.462912">
<ele>97.210022</ele>
<time>2010-06-20T10:24:24Z</time>
<desc>lat.=56.025028, lon.=26.462912, Alt.=97.210022m. Speed=12.744000m/h.</desc>
<speed>3.540000</speed>
</trkpt>
<trkpt lat="56.025055" lon="26.462868">
<ele>96.282288</ele>
<time>2010-06-20T10:24:25Z</time>
<desc>lat.=56.025055, lon.=26.462868, Alt.=96.282288m. Speed=16.379999m/h.</desc>
<speed>4.550000</speed>
</trkpt>
<trkpt lat="56.025085" lon="26.462833">
<ele>96.514709</ele>
<time>2010-06-20T10:24:26Z</time>
<desc>lat.=56.025085, lon.=26.462833, Alt.=96.514709m. Speed=14.580000m/h.</desc>
<speed>4.050000</speed>
</trkpt>
<trkpt lat="56.025116" lon="26.462793">
<ele>96.547913</ele>
<time>2010-06-20T10:24:27Z</time>
<desc>lat.=56.025116, lon.=26.462793, Alt.=96.547913m. Speed=14.184000m/h.</desc>
<speed>3.940000</speed>
</trkpt>
<trkpt lat="56.025143" lon="26.462749">
<ele>96.583069</ele>
<time>2010-06-20T10:24:28Z</time>
<desc>lat.=56.025143, lon.=26.462749, Alt.=96.583069m. Speed=13.392000m/h.</desc>
<speed>3.720000</speed>
</trkpt>
<trkpt lat="56.025162" lon="26.462717">
<ele>96.706116</ele>
<time>2010-06-20T10:24:29Z</time>
<desc>lat.=56.025162, lon.=26.462717, Alt.=96.706116m. Speed=11.412000m/h.</desc>
<speed>3.170000</speed>
</trkpt>
<trkpt lat="56.025181" lon="26.462685">
<ele>97.126038</ele>
<time>2010-06-20T10:24:30Z</time>
<desc>lat.=56.025181, lon.=26.462685, Alt.=97.126038m. Speed=11.484000m/h.</desc>
<speed>3.190000</speed>
</trkpt>
<trkpt lat="56.025200" lon="26.462654">
<ele>97.118225</ele>
<time>2010-06-20T10:24:31Z</time>
<desc>lat.=56.025200, lon.=26.462654, Alt.=97.118225m. Speed=11.412000m/h.</desc>
<speed>3.170000</speed>
</trkpt>
<trkpt lat="56.025215" lon="26.462616">
<ele>96.143616</ele>
<time>2010-06-20T10:24:32Z</time>
<desc>lat.=56.025215, lon.=26.462616, Alt.=96.143616m. Speed=9.144000m/h.</desc>
<speed>2.540000</speed>
</trkpt>
<trkpt lat="56.025234" lon="26.462589">
<ele>95.452209</ele>
<time>2010-06-20T10:24:33Z</time>
<desc>lat.=56.025234, lon.=26.462589, Alt.=95.452209m. Speed=8.496000m/h.</desc>
<speed>2.360000</speed>
</trkpt>
<trkpt lat="56.025249" lon="26.462566">
<ele>95.131897</ele>
<time>2010-06-20T10:24:34Z</time>
<desc>lat.=56.025249, lon.=26.462566, Alt.=95.131897m. Speed=6.876000m/h.</desc>
<speed>1.910000</speed>
</trkpt>
<trkpt lat="56.025272" lon="26.462543">
<ele>95.196350</ele>
<time>2010-06-20T10:24:35Z</time>
<desc>lat.=56.025272, lon.=26.462543, Alt.=95.196350m. Speed=5.904000m/h.</desc>
<speed>1.640000</speed>
</trkpt>
<trkpt lat="56.025299" lon="26.462530">
<ele>95.815491</ele>
<time>2010-06-20T10:24:36Z</time>
<desc>lat.=56.025299, lon.=26.462530, Alt.=95.815491m. Speed=6.552000m/h.</desc>
<speed>1.820000</speed>
</trkpt>
<trkpt lat="56.025314" lon="26.462507">
<ele>95.854553</ele>
<time>2010-06-20T10:24:37Z</time>
<desc>lat.=56.025314, lon.=26.462507, Alt.=95.854553m. Speed=7.092000m/h.</desc>
<speed>1.970000</speed>
</trkpt>
<trkpt lat="56.025326" lon="26.462484">
<ele>96.180725</ele>
<time>2010-06-20T10:24:38Z</time>
<desc>lat.=56.025326, lon.=26.462484, Alt.=96.180725m. Speed=6.156000m/h.</desc>
<speed>1.710000</speed>
</trkpt>
<trkpt lat="56.025337" lon="26.462469">
<ele>96.297913</ele>
<time>2010-06-20T10:24:39Z</time>
<desc>lat.=56.025337, lon.=26.462469, Alt.=96.297913m. Speed=5.220000m/h.</desc>
<speed>1.450000</speed>
</trkpt>
<trkpt lat="56.025352" lon="26.462450">
<ele>96.247131</ele>
<time>2010-06-20T10:24:40Z</time>
<desc>lat.=56.025352, lon.=26.462450, Alt.=96.247131m. Speed=3.816000m/h.</desc>
<speed>1.060000</speed>
</trkpt>
<trkpt lat="56.025360" lon="26.462437">
<ele>96.274475</ele>
<time>2010-06-20T10:24:41Z</time>
<desc>lat.=56.025360, lon.=26.462437, Alt.=96.274475m. Speed=3.204000m/h.</desc>
<speed>0.890000</speed>
</trkpt>
<trkpt lat="56.025379" lon="26.462423">
<ele>96.448303</ele>
<time>2010-06-20T10:24:42Z</time>
<desc>lat.=56.025379, lon.=26.462423, Alt.=96.448303m. Speed=4.716000m/h.</desc>
<speed>1.310000</speed>
</trkpt>
<trkpt lat="56.025391" lon="26.462408">
<ele>96.508850</ele>
<time>2010-06-20T10:24:43Z</time>
<desc>lat.=56.025391, lon.=26.462408, Alt.=96.508850m. Speed=5.580000m/h.</desc>
<speed>1.550000</speed>
</trkpt>
<trkpt lat="56.025429" lon="26.462395">
<ele>97.454163</ele>
<time>2010-06-20T10:24:44Z</time>
<desc>lat.=56.025429, lon.=26.462395, Alt.=97.454163m. Speed=7.056000m/h.</desc>
<speed>1.960000</speed>
</trkpt>
<trkpt lat="56.025440" lon="26.462370">
<ele>97.711975</ele>
<time>2010-06-20T10:24:45Z</time>
<desc>lat.=56.025440, lon.=26.462370, Alt.=97.711975m. Speed=8.568000m/h.</desc>
<speed>2.380000</speed>
</trkpt>
<trkpt lat="56.025455" lon="26.462345">
<ele>98.430725</ele>
<time>2010-06-20T10:24:46Z</time>
<desc>lat.=56.025455, lon.=26.462345, Alt.=98.430725m. Speed=8.676000m/h.</desc>
<speed>2.410000</speed>
</trkpt>
<trkpt lat="56.025475" lon="26.462315">
<ele>98.692444</ele>
<time>2010-06-20T10:24:47Z</time>
<desc>lat.=56.025475, lon.=26.462315, Alt.=98.692444m. Speed=9.360000m/h.</desc>
<speed>2.600000</speed>
</trkpt>
<trkpt lat="56.025494" lon="26.462288">
<ele>98.807678</ele>
<time>2010-06-20T10:24:48Z</time>
<desc>lat.=56.025494, lon.=26.462288, Alt.=98.807678m. Speed=9.288000m/h.</desc>
<speed>2.580000</speed>
</trkpt>
<trkpt lat="56.025517" lon="26.462259">
<ele>99.061584</ele>
<time>2010-06-20T10:24:49Z</time>
<desc>lat.=56.025517, lon.=26.462259, Alt.=99.061584m. Speed=8.136000m/h.</desc>
<speed>2.260000</speed>
</trkpt>
<trkpt lat="56.025539" lon="26.462223">
<ele>99.487366</ele>
<time>2010-06-20T10:24:50Z</time>
<desc>lat.=56.025539, lon.=26.462223, Alt.=99.487366m. Speed=9.000000m/h.</desc>
<speed>2.500000</speed>
</trkpt>
<trkpt lat="56.025562" lon="26.462204">
<ele>99.266663</ele>
<time>2010-06-20T10:24:51Z</time>
<desc>lat.=56.025562, lon.=26.462204, Alt.=99.266663m. Speed=8.928000m/h.</desc>
<speed>2.480000</speed>
</trkpt>
<trkpt lat="56.025578" lon="26.462177">
<ele>99.217834</ele>
<time>2010-06-20T10:24:52Z</time>
<desc>lat.=56.025578, lon.=26.462177, Alt.=99.217834m. Speed=8.784000m/h.</desc>
<speed>2.440000</speed>
</trkpt>
<trkpt lat="56.025600" lon="26.462135">
<ele>99.364319</ele>
<time>2010-06-20T10:24:53Z</time>
<desc>lat.=56.025600, lon.=26.462135, Alt.=99.364319m. Speed=8.316000m/h.</desc>
<speed>2.310000</speed>
</trkpt>
<trkpt lat="56.025612" lon="26.462114">
<ele>99.649475</ele>
<time>2010-06-20T10:24:54Z</time>
<desc>lat.=56.025612, lon.=26.462114, Alt.=99.649475m. Speed=8.064000m/h.</desc>
<speed>2.240000</speed>
</trkpt>
<trkpt lat="56.025627" lon="26.462084">
<ele>99.749084</ele>
<time>2010-06-20T10:24:55Z</time>
<desc>lat.=56.025627, lon.=26.462084, Alt.=99.749084m. Speed=8.568000m/h.</desc>
<speed>2.380000</speed>
</trkpt>
<trkpt lat="56.025642" lon="26.462044">
<ele>100.733459</ele>
<time>2010-06-20T10:24:56Z</time>
<desc>lat.=56.025642, lon.=26.462044, Alt.=100.733459m. Speed=10.296000m/h.</desc>
<speed>2.860000</speed>
</trkpt>
<trkpt lat="56.025658" lon="26.462008">
<ele>100.710022</ele>
<time>2010-06-20T10:24:57Z</time>
<desc>lat.=56.025658, lon.=26.462008, Alt.=100.710022m. Speed=10.728000m/h.</desc>
<speed>2.980000</speed>
</trkpt>
<trkpt lat="56.025673" lon="26.461969">
<ele>100.188538</ele>
<time>2010-06-20T10:24:58Z</time>
<desc>lat.=56.025673, lon.=26.461969, Alt.=100.188538m. Speed=10.296000m/h.</desc>
<speed>2.860000</speed>
</trkpt>
<trkpt lat="56.025692" lon="26.461931">
<ele>100.551819</ele>
<time>2010-06-20T10:24:59Z</time>
<desc>lat.=56.025692, lon.=26.461931, Alt.=100.551819m. Speed=11.628000m/h.</desc>
<speed>3.230000</speed>
</trkpt>
<trkpt lat="56.025715" lon="26.461899">
<ele>100.655334</ele>
<time>2010-06-20T10:25:00Z</time>
<desc>lat.=56.025715, lon.=26.461899, Alt.=100.655334m. Speed=10.116000m/h.</desc>
<speed>2.810000</speed>
</trkpt>
<trkpt lat="56.025738" lon="26.461878">
<ele>101.038147</ele>
<time>2010-06-20T10:25:01Z</time>
<desc>lat.=56.025738, lon.=26.461878, Alt.=101.038147m. Speed=9.288000m/h.</desc>
<speed>2.580000</speed>
</trkpt>
<trkpt lat="56.025764" lon="26.461868">
<ele>101.534241</ele>
<time>2010-06-20T10:25:02Z</time>
<desc>lat.=56.025764, lon.=26.461868, Alt.=101.534241m. Speed=8.856000m/h.</desc>
<speed>2.460000</speed>
</trkpt>
<trkpt lat="56.025787" lon="26.461872">
<ele>101.301819</ele>
<time>2010-06-20T10:25:03Z</time>
<desc>lat.=56.025787, lon.=26.461872, Alt.=101.301819m. Speed=9.504000m/h.</desc>
<speed>2.640000</speed>
</trkpt>
<trkpt lat="56.025806" lon="26.461887">
<ele>101.530334</ele>
<time>2010-06-20T10:25:04Z</time>
<desc>lat.=56.025806, lon.=26.461887, Alt.=101.530334m. Speed=6.696000m/h.</desc>
<speed>1.860000</speed>
</trkpt>
<trkpt lat="56.025822" lon="26.461908">
<ele>101.825256</ele>
<time>2010-06-20T10:25:05Z</time>
<desc>lat.=56.025822, lon.=26.461908, Alt.=101.825256m. Speed=6.768000m/h.</desc>
<speed>1.880000</speed>
</trkpt>
<trkpt lat="56.025841" lon="26.461922">
<ele>102.036194</ele>
<time>2010-06-20T10:25:06Z</time>
<desc>lat.=56.025841, lon.=26.461922, Alt.=102.036194m. Speed=8.316000m/h.</desc>
<speed>2.310000</speed>
</trkpt>
<trkpt lat="56.025852" lon="26.461926">
<ele>102.204163</ele>
<time>2010-06-20T10:25:07Z</time>
<desc>lat.=56.025852, lon.=26.461926, Alt.=102.204163m. Speed=5.508000m/h.</desc>
<speed>1.530000</speed>
</trkpt>
<trkpt lat="56.025864" lon="26.461933">
<ele>102.120178</ele>
<time>2010-06-20T10:25:08Z</time>
<desc>lat.=56.025864, lon.=26.461933, Alt.=102.120178m. Speed=5.256000m/h.</desc>
<speed>1.460000</speed>
</trkpt>
<trkpt lat="56.025875" lon="26.461941">
<ele>101.733459</ele>
<time>2010-06-20T10:25:09Z</time>
<desc>lat.=56.025875, lon.=26.461941, Alt.=101.733459m. Speed=5.868000m/h.</desc>
<speed>1.630000</speed>
</trkpt>
<trkpt lat="56.025887" lon="26.461952">
<ele>101.641663</ele>
<time>2010-06-20T10:25:10Z</time>
<desc>lat.=56.025887, lon.=26.461952, Alt.=101.641663m. Speed=7.344000m/h.</desc>
<speed>2.040000</speed>
</trkpt>
<trkpt lat="56.025894" lon="26.461964">
<ele>101.524475</ele>
<time>2010-06-20T10:25:11Z</time>
<desc>lat.=56.025894, lon.=26.461964, Alt.=101.524475m. Speed=5.688000m/h.</desc>
<speed>1.580000</speed>
</trkpt>
<trkpt lat="56.025906" lon="26.461977">
<ele>101.622131</ele>
<time>2010-06-20T10:25:12Z</time>
<desc>lat.=56.025906, lon.=26.461977, Alt.=101.622131m. Speed=5.040000m/h.</desc>
<speed>1.400000</speed>
</trkpt>
<trkpt lat="56.025913" lon="26.461987">
<ele>101.551819</ele>
<time>2010-06-20T10:25:13Z</time>
<desc>lat.=56.025913, lon.=26.461987, Alt.=101.551819m. Speed=5.076000m/h.</desc>
<speed>1.410000</speed>
</trkpt>
<trkpt lat="56.025925" lon="26.462002">
<ele>101.684631</ele>
<time>2010-06-20T10:25:14Z</time>
<desc>lat.=56.025925, lon.=26.462002, Alt.=101.684631m. Speed=5.040000m/h.</desc>
<speed>1.400000</speed>
</trkpt>
<trkpt lat="56.025928" lon="26.462021">
<ele>101.940491</ele>
<time>2010-06-20T10:25:15Z</time>
<desc>lat.=56.025928, lon.=26.462021, Alt.=101.940491m. Speed=3.384000m/h.</desc>
<speed>0.940000</speed>
</trkpt>
<trkpt lat="56.025936" lon="26.462042">
<ele>102.139709</ele>
<time>2010-06-20T10:25:16Z</time>
<desc>lat.=56.025936, lon.=26.462042, Alt.=102.139709m. Speed=4.644000m/h.</desc>
<speed>1.290000</speed>
</trkpt>
<trkpt lat="56.025944" lon="26.462063">
<ele>102.059631</ele>
<time>2010-06-20T10:25:17Z</time>
<desc>lat.=56.025944, lon.=26.462063, Alt.=102.059631m. Speed=5.148000m/h.</desc>
<speed>1.430000</speed>
</trkpt>
<trkpt lat="56.025967" lon="26.462090">
<ele>102.370178</ele>
<time>2010-06-20T10:25:18Z</time>
<desc>lat.=56.025967, lon.=26.462090, Alt.=102.370178m. Speed=6.372000m/h.</desc>
<speed>1.770000</speed>
</trkpt>
<trkpt lat="56.025986" lon="26.462122">
<ele>103.432678</ele>
<time>2010-06-20T10:25:19Z</time>
<desc>lat.=56.025986, lon.=26.462122, Alt.=103.432678m. Speed=6.300000m/h.</desc>
<speed>1.750000</speed>
</trkpt>
<trkpt lat="56.025997" lon="26.462133">
<ele>103.473694</ele>
<time>2010-06-20T10:25:20Z</time>
<desc>lat.=56.025997, lon.=26.462133, Alt.=103.473694m. Speed=2.484000m/h.</desc>
<speed>0.690000</speed>
</trkpt>
<trkpt lat="56.026009" lon="26.462147">
<ele>103.426819</ele>
<time>2010-06-20T10:25:21Z</time>
<desc>lat.=56.026009, lon.=26.462147, Alt.=103.426819m. Speed=3.312000m/h.</desc>
<speed>0.920000</speed>
</trkpt>
<trkpt lat="56.026016" lon="26.462151">
<ele>103.573303</ele>
<time>2010-06-20T10:25:22Z</time>
<desc>lat.=56.026016, lon.=26.462151, Alt.=103.573303m. Speed=2.736000m/h.</desc>
<speed>0.760000</speed>
</trkpt>
<trkpt lat="56.026028" lon="26.462156">
<ele>103.645569</ele>
<time>2010-06-20T10:25:23Z</time>
<desc>lat.=56.026028, lon.=26.462156, Alt.=103.645569m. Speed=2.556000m/h.</desc>
<speed>0.710000</speed>
</trkpt>
<trkpt lat="56.026031" lon="26.462160">
<ele>103.821350</ele>
<time>2010-06-20T10:25:24Z</time>
<desc>lat.=56.026031, lon.=26.462160, Alt.=103.821350m. Speed=2.556000m/h.</desc>
<speed>0.710000</speed>
</trkpt>
<trkpt lat="56.026039" lon="26.462164">
<ele>103.997131</ele>
<time>2010-06-20T10:25:25Z</time>
<desc>lat.=56.026039, lon.=26.462164, Alt.=103.997131m. Speed=3.024000m/h.</desc>
<speed>0.840000</speed>
</trkpt>
<trkpt lat="56.026047" lon="26.462168">
<ele>104.172913</ele>
<time>2010-06-20T10:25:26Z</time>
<desc>lat.=56.026047, lon.=26.462168, Alt.=104.172913m. Speed=4.716000m/h.</desc>
<speed>1.310000</speed>
</trkpt>
<trkpt lat="56.026066" lon="26.462183">
<ele>104.610413</ele>
<time>2010-06-20T10:25:27Z</time>
<desc>lat.=56.026066, lon.=26.462183, Alt.=104.610413m. Speed=5.652000m/h.</desc>
<speed>1.570000</speed>
</trkpt>
<trkpt lat="56.026089" lon="26.462196">
<ele>105.002991</ele>
<time>2010-06-20T10:25:28Z</time>
<desc>lat.=56.026089, lon.=26.462196, Alt.=105.002991m. Speed=5.652000m/h.</desc>
<speed>1.570000</speed>
</trkpt>
<trkpt lat="56.026112" lon="26.462208">
<ele>105.247131</ele>
<time>2010-06-20T10:25:29Z</time>
<desc>lat.=56.026112, lon.=26.462208, Alt.=105.247131m. Speed=5.904000m/h.</desc>
<speed>1.640000</speed>
</trkpt>
<trkpt lat="56.026134" lon="26.462221">
<ele>105.504944</ele>
<time>2010-06-20T10:25:30Z</time>
<desc>lat.=56.026134, lon.=26.462221, Alt.=105.504944m. Speed=5.220000m/h.</desc>
<speed>1.450000</speed>
</trkpt>
<trkpt lat="56.026154" lon="26.462233">
<ele>105.764709</ele>
<time>2010-06-20T10:25:31Z</time>
<desc>lat.=56.026154, lon.=26.462233, Alt.=105.764709m. Speed=3.024000m/h.</desc>
<speed>0.840000</speed>
</trkpt>
<trkpt lat="56.026173" lon="26.462254">
<ele>106.590881</ele>
<time>2010-06-20T10:25:32Z</time>
<desc>lat.=56.026173, lon.=26.462254, Alt.=106.590881m. Speed=3.744000m/h.</desc>
<speed>1.040000</speed>
</trkpt>
<trkpt lat="56.026196" lon="26.462259">
<ele>106.977600</ele>
<time>2010-06-20T10:25:33Z</time>
<desc>lat.=56.026196, lon.=26.462259, Alt.=106.977600m. Speed=3.240000m/h.</desc>
<speed>0.900000</speed>
</trkpt>
<trkpt lat="56.026211" lon="26.462261">
<ele>106.999084</ele>
<time>2010-06-20T10:25:34Z</time>
<desc>lat.=56.026211, lon.=26.462261, Alt.=106.999084m. Speed=3.384000m/h.</desc>
<speed>0.940000</speed>
</trkpt>
<trkpt lat="56.026237" lon="26.462288">
<ele>107.184631</ele>
<time>2010-06-20T10:25:35Z</time>
<desc>lat.=56.026237, lon.=26.462288, Alt.=107.184631m. Speed=3.672000m/h.</desc>
<speed>1.020000</speed>
</trkpt>
<trkpt lat="56.026260" lon="26.462311">
<ele>107.475647</ele>
<time>2010-06-20T10:25:36Z</time>
<desc>lat.=56.026260, lon.=26.462311, Alt.=107.475647m. Speed=5.616000m/h.</desc>
<speed>1.560000</speed>
</trkpt>
<trkpt lat="56.026287" lon="26.462347">
<ele>107.231506</ele>
<time>2010-06-20T10:25:37Z</time>
<desc>lat.=56.026287, lon.=26.462347, Alt.=107.231506m. Speed=6.264000m/h.</desc>
<speed>1.740000</speed>
</trkpt>
<trkpt lat="56.026318" lon="26.462358">
<ele>107.721741</ele>
<time>2010-06-20T10:25:38Z</time>
<desc>lat.=56.026318, lon.=26.462358, Alt.=107.721741m. Speed=5.076000m/h.</desc>
<speed>1.410000</speed>
</trkpt>
<trkpt lat="56.026329" lon="26.462370">
<ele>107.762756</ele>
<time>2010-06-20T10:25:39Z</time>
<desc>lat.=56.026329, lon.=26.462370, Alt.=107.762756m. Speed=1.692000m/h.</desc>
<speed>0.470000</speed>
</trkpt>
<trkpt lat="56.026344" lon="26.462379">
<ele>107.960022</ele>
<time>2010-06-20T10:25:40Z</time>
<desc>lat.=56.026344, lon.=26.462379, Alt.=107.960022m. Speed=2.052000m/h.</desc>
<speed>0.570000</speed>
</trkpt>
<trkpt lat="56.026360" lon="26.462397">
<ele>108.172913</ele>
<time>2010-06-20T10:25:41Z</time>
<desc>lat.=56.026360, lon.=26.462397, Alt.=108.172913m. Speed=2.556000m/h.</desc>
<speed>0.710000</speed>
</trkpt>
<trkpt lat="56.026379" lon="26.462412">
<ele>108.372131</ele>
<time>2010-06-20T10:25:42Z</time>
<desc>lat.=56.026379, lon.=26.462412, Alt.=108.372131m. Speed=3.240000m/h.</desc>
<speed>0.900000</speed>
</trkpt>
<trkpt lat="56.026405" lon="26.462437">
<ele>108.797913</ele>
<time>2010-06-20T10:25:43Z</time>
<desc>lat.=56.026405, lon.=26.462437, Alt.=108.797913m. Speed=4.140000m/h.</desc>
<speed>1.150000</speed>
</trkpt>
<trkpt lat="56.026447" lon="26.462475">
<ele>108.958069</ele>
<time>2010-06-20T10:25:44Z</time>
<desc>lat.=56.026447, lon.=26.462475, Alt.=108.958069m. Speed=5.760000m/h.</desc>
<speed>1.600000</speed>
</trkpt>
<trkpt lat="56.026478" lon="26.462502">
<ele>108.944397</ele>
<time>2010-06-20T10:25:45Z</time>
<desc>lat.=56.026478, lon.=26.462502, Alt.=108.944397m. Speed=6.984000m/h.</desc>
<speed>1.940000</speed>
</trkpt>
<trkpt lat="56.026508" lon="26.462536">
<ele>109.014709</ele>
<time>2010-06-20T10:25:46Z</time>
<desc>lat.=56.026508, lon.=26.462536, Alt.=109.014709m. Speed=9.684000m/h.</desc>
<speed>2.690000</speed>
</trkpt>
<trkpt lat="56.026539" lon="26.462564">
<ele>109.040100</ele>
<time>2010-06-20T10:25:47Z</time>
<desc>lat.=56.026539, lon.=26.462564, Alt.=109.040100m. Speed=8.136000m/h.</desc>
<speed>2.260000</speed>
</trkpt>
<trkpt lat="56.026562" lon="26.462591">
<ele>109.118225</ele>
<time>2010-06-20T10:25:48Z</time>
<desc>lat.=56.026562, lon.=26.462591, Alt.=109.118225m. Speed=8.028000m/h.</desc>
<speed>2.230000</speed>
</trkpt>
<trkpt lat="56.026588" lon="26.462618">
<ele>109.264709</ele>
<time>2010-06-20T10:25:49Z</time>
<desc>lat.=56.026588, lon.=26.462618, Alt.=109.264709m. Speed=6.156000m/h.</desc>
<speed>1.710000</speed>
</trkpt>
<trkpt lat="56.026611" lon="26.462643">
<ele>109.313538</ele>
<time>2010-06-20T10:25:50Z</time>
<desc>lat.=56.026611, lon.=26.462643, Alt.=109.313538m. Speed=6.408000m/h.</desc>
<speed>1.780000</speed>
</trkpt>
<trkpt lat="56.026638" lon="26.462667">
<ele>109.458069</ele>
<time>2010-06-20T10:25:51Z</time>
<desc>lat.=56.026638, lon.=26.462667, Alt.=109.458069m. Speed=7.092000m/h.</desc>
<speed>1.970000</speed>
</trkpt>
<trkpt lat="56.026669" lon="26.462696">
<ele>109.702209</ele>
<time>2010-06-20T10:25:52Z</time>
<desc>lat.=56.026669, lon.=26.462696, Alt.=109.702209m. Speed=8.136000m/h.</desc>
<speed>2.260000</speed>
</trkpt>
<trkpt lat="56.026703" lon="26.462719">
<ele>109.952209</ele>
<time>2010-06-20T10:25:53Z</time>
<desc>lat.=56.026703, lon.=26.462719, Alt.=109.952209m. Speed=5.796000m/h.</desc>
<speed>1.610000</speed>
</trkpt>
<trkpt lat="56.026741" lon="26.462749">
<ele>110.211975</ele>
<time>2010-06-20T10:25:54Z</time>
<desc>lat.=56.026741, lon.=26.462749, Alt.=110.211975m. Speed=6.300000m/h.</desc>
<speed>1.750000</speed>
</trkpt>
<trkpt lat="56.026772" lon="26.462786">
<ele>110.409241</ele>
<time>2010-06-20T10:25:55Z</time>
<desc>lat.=56.026772, lon.=26.462786, Alt.=110.409241m. Speed=5.976000m/h.</desc>
<speed>1.660000</speed>
</trkpt>
<trkpt lat="56.026802" lon="26.462811">
<ele>110.690491</ele>
<time>2010-06-20T10:25:56Z</time>
<desc>lat.=56.026802, lon.=26.462811, Alt.=110.690491m. Speed=7.164000m/h.</desc>
<speed>1.990000</speed>
</trkpt>
<trkpt lat="56.026833" lon="26.462841">
<ele>110.868225</ele>
<time>2010-06-20T10:25:57Z</time>
<desc>lat.=56.026833, lon.=26.462841, Alt.=110.868225m. Speed=5.688000m/h.</desc>
<speed>1.580000</speed>
</trkpt>
<trkpt lat="56.026875" lon="26.462872">
<ele>111.170959</ele>
<time>2010-06-20T10:25:58Z</time>
<desc>lat.=56.026875, lon.=26.462872, Alt.=111.170959m. Speed=5.832000m/h.</desc>
<speed>1.620000</speed>
</trkpt>
<trkpt lat="56.026905" lon="26.462898">
<ele>111.415100</ele>
<time>2010-06-20T10:25:59Z</time>
<desc>lat.=56.026905, lon.=26.462898, Alt.=111.415100m. Speed=7.776000m/h.</desc>
<speed>2.160000</speed>
</trkpt>
<trkpt lat="56.026951" lon="26.462912">
<ele>111.485413</ele>
<time>2010-06-20T10:26:00Z</time>
<desc>lat.=56.026951, lon.=26.462912, Alt.=111.485413m. Speed=7.704000m/h.</desc>
<speed>2.140000</speed>
</trkpt>
<trkpt lat="56.026989" lon="26.462925">
<ele>111.420959</ele>
<time>2010-06-20T10:26:01Z</time>
<desc>lat.=56.026989, lon.=26.462925, Alt.=111.420959m. Speed=7.488000m/h.</desc>
<speed>2.080000</speed>
</trkpt>
<trkpt lat="56.027031" lon="26.462940">
<ele>111.747131</ele>
<time>2010-06-20T10:26:02Z</time>
<desc>lat.=56.027031, lon.=26.462940, Alt.=111.747131m. Speed=7.668000m/h.</desc>
<speed>2.130000</speed>
</trkpt>
<trkpt lat="56.027061" lon="26.462963">
<ele>112.057678</ele>
<time>2010-06-20T10:26:03Z</time>
<desc>lat.=56.027061, lon.=26.462963, Alt.=112.057678m. Speed=6.984000m/h.</desc>
<speed>1.940000</speed>
</trkpt>
<trkpt lat="56.027092" lon="26.462980">
<ele>112.067444</ele>
<time>2010-06-20T10:26:04Z</time>
<desc>lat.=56.027092, lon.=26.462980, Alt.=112.067444m. Speed=9.000000m/h.</desc>
<speed>2.500000</speed>
</trkpt>
<trkpt lat="56.027119" lon="26.463011">
<ele>112.626038</ele>
<time>2010-06-20T10:26:05Z</time>
<desc>lat.=56.027119, lon.=26.463011, Alt.=112.626038m. Speed=7.956000m/h.</desc>
<speed>2.210000</speed>
</trkpt>
<trkpt lat="56.027153" lon="26.463047">
<ele>113.028381</ele>
<time>2010-06-20T10:26:06Z</time>
<desc>lat.=56.027153, lon.=26.463047, Alt.=113.028381m. Speed=7.956000m/h.</desc>
<speed>2.210000</speed>
</trkpt>
<trkpt lat="56.027187" lon="26.463079">
<ele>113.153381</ele>
<time>2010-06-20T10:26:07Z</time>
<desc>lat.=56.027187, lon.=26.463079, Alt.=113.153381m. Speed=7.452000m/h.</desc>
<speed>2.070000</speed>
</trkpt>
<trkpt lat="56.027222" lon="26.463095">
<ele>113.485413</ele>
<time>2010-06-20T10:26:08Z</time>
<desc>lat.=56.027222, lon.=26.463095, Alt.=113.485413m. Speed=9.000000m/h.</desc>
<speed>2.500000</speed>
</trkpt>
<trkpt lat="56.027264" lon="26.463131">
<ele>113.870178</ele>
<time>2010-06-20T10:26:09Z</time>
<desc>lat.=56.027264, lon.=26.463131, Alt.=113.870178m. Speed=8.244000m/h.</desc>
<speed>2.290000</speed>
</trkpt>
<trkpt lat="56.027298" lon="26.463160">
<ele>114.264709</ele>
<time>2010-06-20T10:26:10Z</time>
<desc>lat.=56.027298, lon.=26.463160, Alt.=114.264709m. Speed=7.632000m/h.</desc>
<speed>2.120000</speed>
</trkpt>
<trkpt lat="56.027328" lon="26.463188">
<ele>114.848694</ele>
<time>2010-06-20T10:26:11Z</time>
<desc>lat.=56.027328, lon.=26.463188, Alt.=114.848694m. Speed=8.388000m/h.</desc>
<speed>2.330000</speed>
</trkpt>
<trkpt lat="56.027359" lon="26.463221">
<ele>115.116272</ele>
<time>2010-06-20T10:26:12Z</time>
<desc>lat.=56.027359, lon.=26.463221, Alt.=115.116272m. Speed=8.784000m/h.</desc>
<speed>2.440000</speed>
</trkpt>
<trkpt lat="56.027390" lon="26.463249">
<ele>114.772522</ele>
<time>2010-06-20T10:26:13Z</time>
<desc>lat.=56.027390, lon.=26.463249, Alt.=114.772522m. Speed=8.748000m/h.</desc>
<speed>2.430000</speed>
</trkpt>
<trkpt lat="56.027416" lon="26.463272">
<ele>114.938538</ele>
<time>2010-06-20T10:26:14Z</time>
<desc>lat.=56.027416, lon.=26.463272, Alt.=114.938538m. Speed=9.324000m/h.</desc>
<speed>2.590000</speed>
</trkpt>
<trkpt lat="56.027451" lon="26.463303">
<ele>115.051819</ele>
<time>2010-06-20T10:26:15Z</time>
<desc>lat.=56.027451, lon.=26.463303, Alt.=115.051819m. Speed=8.568000m/h.</desc>
<speed>2.380000</speed>
</trkpt>
<trkpt lat="56.027481" lon="26.463339">
<ele>115.897522</ele>
<time>2010-06-20T10:26:16Z</time>
<desc>lat.=56.027481, lon.=26.463339, Alt.=115.897522m. Speed=7.704000m/h.</desc>
<speed>2.140000</speed>
</trkpt>
<trkpt lat="56.027515" lon="26.463371">
<ele>115.596741</ele>
<time>2010-06-20T10:26:17Z</time>
<desc>lat.=56.027515, lon.=26.463371, Alt.=115.596741m. Speed=7.524000m/h.</desc>
<speed>2.090000</speed>
</trkpt>
<trkpt lat="56.027554" lon="26.463409">
<ele>116.346741</ele>
<time>2010-06-20T10:26:18Z</time>
<desc>lat.=56.027554, lon.=26.463409, Alt.=116.346741m. Speed=6.984000m/h.</desc>
<speed>1.940000</speed>
</trkpt>
<trkpt lat="56.027584" lon="26.463446">
<ele>116.401428</ele>
<time>2010-06-20T10:26:19Z</time>
<desc>lat.=56.027584, lon.=26.463446, Alt.=116.401428m. Speed=6.336000m/h.</desc>
<speed>1.760000</speed>
</trkpt>
<trkpt lat="56.027603" lon="26.463434">
<ele>116.719788</ele>
<time>2010-06-20T10:26:20Z</time>
<desc>lat.=56.027603, lon.=26.463434, Alt.=116.719788m. Speed=6.264000m/h.</desc>
<speed>1.740000</speed>
</trkpt>
<trkpt lat="56.027626" lon="26.463425">
<ele>117.204163</ele>
<time>2010-06-20T10:26:21Z</time>
<desc>lat.=56.027626, lon.=26.463425, Alt.=117.204163m. Speed=8.388000m/h.</desc>
<speed>2.330000</speed>
</trkpt>
<trkpt lat="56.027653" lon="26.463415">
<ele>117.428772</ele>
<time>2010-06-20T10:26:22Z</time>
<desc>lat.=56.027653, lon.=26.463415, Alt.=117.428772m. Speed=8.604000m/h.</desc>
<speed>2.390000</speed>
</trkpt>
<trkpt lat="56.027683" lon="26.463413">
<ele>117.577209</ele>
<time>2010-06-20T10:26:23Z</time>
<desc>lat.=56.027683, lon.=26.463413, Alt.=117.577209m. Speed=8.640000m/h.</desc>
<speed>2.400000</speed>
</trkpt>
<trkpt lat="56.027714" lon="26.463417">
<ele>115.620178</ele>
<time>2010-06-20T10:26:24Z</time>
<desc>lat.=56.027714, lon.=26.463417, Alt.=115.620178m. Speed=11.808000m/h.</desc>
<speed>3.280000</speed>
</trkpt>
<trkpt lat="56.027737" lon="26.463408">
<ele>115.126038</ele>
<time>2010-06-20T10:26:25Z</time>
<desc>lat.=56.027737, lon.=26.463408, Alt.=115.126038m. Speed=7.812000m/h.</desc>
<speed>2.170000</speed>
</trkpt>
<trkpt lat="56.027763" lon="26.463406">
<ele>114.465881</ele>
<time>2010-06-20T10:26:26Z</time>
<desc>lat.=56.027763, lon.=26.463406, Alt.=114.465881m. Speed=9.144000m/h.</desc>
<speed>2.540000</speed>
</trkpt>
<trkpt lat="56.027798" lon="26.463398">
<ele>113.870178</ele>
<time>2010-06-20T10:26:27Z</time>
<desc>lat.=56.027798, lon.=26.463398, Alt.=113.870178m. Speed=9.324000m/h.</desc>
<speed>2.590000</speed>
</trkpt>
<trkpt lat="56.027817" lon="26.463406">
<ele>112.348694</ele>
<time>2010-06-20T10:26:28Z</time>
<desc>lat.=56.027817, lon.=26.463406, Alt.=112.348694m. Speed=7.092000m/h.</desc>
<speed>1.970000</speed>
</trkpt>
<trkpt lat="56.027828" lon="26.463411">
<ele>109.711975</ele>
<time>2010-06-20T10:26:29Z</time>
<desc>lat.=56.027828, lon.=26.463411, Alt.=109.711975m. Speed=8.856000m/h.</desc>
<speed>2.460000</speed>
</trkpt>
<trkpt lat="56.027859" lon="26.463409">
<ele>109.276428</ele>
<time>2010-06-20T10:26:30Z</time>
<desc>lat.=56.027859, lon.=26.463409, Alt.=109.276428m. Speed=8.208000m/h.</desc>
<speed>2.280000</speed>
</trkpt>
<trkpt lat="56.027897" lon="26.463390">
<ele>110.516663</ele>
<time>2010-06-20T10:26:31Z</time>
<desc>lat.=56.027897, lon.=26.463390, Alt.=110.516663m. Speed=10.260000m/h.</desc>
<speed>2.850000</speed>
</trkpt>
<trkpt lat="56.027935" lon="26.463354">
<ele>111.540100</ele>
<time>2010-06-20T10:26:32Z</time>
<desc>lat.=56.027935, lon.=26.463354, Alt.=111.540100m. Speed=12.564000m/h.</desc>
<speed>3.490000</speed>
</trkpt>
<trkpt lat="56.027966" lon="26.463310">
<ele>111.567444</ele>
<time>2010-06-20T10:26:33Z</time>
<desc>lat.=56.027966, lon.=26.463310, Alt.=111.567444m. Speed=12.276000m/h.</desc>
<speed>3.410000</speed>
</trkpt>
<trkpt lat="56.027992" lon="26.463261">
<ele>110.999084</ele>
<time>2010-06-20T10:26:34Z</time>
<desc>lat.=56.027992, lon.=26.463261, Alt.=110.999084m. Speed=14.436000m/h.</desc>
<speed>4.010000</speed>
</trkpt>
<trkpt lat="56.028015" lon="26.463207">
<ele>110.657288</ele>
<time>2010-06-20T10:26:35Z</time>
<desc>lat.=56.028015, lon.=26.463207, Alt.=110.657288m. Speed=14.220000m/h.</desc>
<speed>3.950000</speed>
</trkpt>
<trkpt lat="56.028034" lon="26.463158">
<ele>109.540100</ele>
<time>2010-06-20T10:26:36Z</time>
<desc>lat.=56.028034, lon.=26.463158, Alt.=109.540100m. Speed=13.248000m/h.</desc>
<speed>3.680000</speed>
</trkpt>
<trkpt lat="56.028057" lon="26.463099">
<ele>108.932678</ele>
<time>2010-06-20T10:26:37Z</time>
<desc>lat.=56.028057, lon.=26.463099, Alt.=108.932678m. Speed=13.284000m/h.</desc>
<speed>3.690000</speed>
</trkpt>
<trkpt lat="56.028076" lon="26.463045">
<ele>108.317444</ele>
<time>2010-06-20T10:26:38Z</time>
<desc>lat.=56.028076, lon.=26.463045, Alt.=108.317444m. Speed=13.248000m/h.</desc>
<speed>3.680000</speed>
</trkpt>
<trkpt lat="56.028103" lon="26.462992">
<ele>108.284241</ele>
<time>2010-06-20T10:26:39Z</time>
<desc>lat.=56.028103, lon.=26.462992, Alt.=108.284241m. Speed=13.392000m/h.</desc>
<speed>3.720000</speed>
</trkpt>
<trkpt lat="56.028126" lon="26.462942">
<ele>108.149475</ele>
<time>2010-06-20T10:26:40Z</time>
<desc>lat.=56.028126, lon.=26.462942, Alt.=108.149475m. Speed=12.924000m/h.</desc>
<speed>3.590000</speed>
</trkpt>
<trkpt lat="56.028149" lon="26.462891">
<ele>107.874084</ele>
<time>2010-06-20T10:26:41Z</time>
<desc>lat.=56.028149, lon.=26.462891, Alt.=107.874084m. Speed=12.960000m/h.</desc>
<speed>3.600000</speed>
</trkpt>
<trkpt lat="56.028164" lon="26.462835">
<ele>107.268616</ele>
<time>2010-06-20T10:26:42Z</time>
<desc>lat.=56.028164, lon.=26.462835, Alt.=107.268616m. Speed=15.984000m/h.</desc>
<speed>4.440000</speed>
</trkpt>
<trkpt lat="56.028187" lon="26.462774">
<ele>107.176819</ele>
<time>2010-06-20T10:26:43Z</time>
<desc>lat.=56.028187, lon.=26.462774, Alt.=107.176819m. Speed=13.932000m/h.</desc>
<speed>3.870000</speed>
</trkpt>
<trkpt lat="56.028206" lon="26.462723">
<ele>107.079163</ele>
<time>2010-06-20T10:26:44Z</time>
<desc>lat.=56.028206, lon.=26.462723, Alt.=107.079163m. Speed=13.248000m/h.</desc>
<speed>3.680000</speed>
</trkpt>
<trkpt lat="56.028225" lon="26.462679">
<ele>107.063538</ele>
<time>2010-06-20T10:26:45Z</time>
<desc>lat.=56.028225, lon.=26.462679, Alt.=107.063538m. Speed=11.520000m/h.</desc>
<speed>3.200000</speed>
</trkpt>
<trkpt lat="56.028240" lon="26.462624">
<ele>106.452209</ele>
<time>2010-06-20T10:26:46Z</time>
<desc>lat.=56.028240, lon.=26.462624, Alt.=106.452209m. Speed=13.068000m/h.</desc>
<speed>3.630000</speed>
</trkpt>
<trkpt lat="56.028259" lon="26.462563">
<ele>105.493225</ele>
<time>2010-06-20T10:26:47Z</time>
<desc>lat.=56.028259, lon.=26.462563, Alt.=105.493225m. Speed=14.868000m/h.</desc>
<speed>4.130000</speed>
</trkpt>
<trkpt lat="56.028278" lon="26.462500">
<ele>104.708069</ele>
<time>2010-06-20T10:26:48Z</time>
<desc>lat.=56.028278, lon.=26.462500, Alt.=104.708069m. Speed=15.516000m/h.</desc>
<speed>4.310000</speed>
</trkpt>
<trkpt lat="56.028294" lon="26.462437">
<ele>103.626038</ele>
<time>2010-06-20T10:26:49Z</time>
<desc>lat.=56.028294, lon.=26.462437, Alt.=103.626038m. Speed=14.652000m/h.</desc>
<speed>4.070000</speed>
</trkpt>
<trkpt lat="56.028309" lon="26.462385">
<ele>102.825256</ele>
<time>2010-06-20T10:26:50Z</time>
<desc>lat.=56.028309, lon.=26.462385, Alt.=102.825256m. Speed=13.788000m/h.</desc>
<speed>3.830000</speed>
</trkpt>
<trkpt lat="56.028324" lon="26.462339">
<ele>102.385803</ele>
<time>2010-06-20T10:26:51Z</time>
<desc>lat.=56.028324, lon.=26.462339, Alt.=102.385803m. Speed=13.248000m/h.</desc>
<speed>3.680000</speed>
</trkpt>
<trkpt lat="56.028343" lon="26.462290">
<ele>102.311584</ele>
<time>2010-06-20T10:26:52Z</time>
<desc>lat.=56.028343, lon.=26.462290, Alt.=102.311584m. Speed=12.384000m/h.</desc>
<speed>3.440000</speed>
</trkpt>
<trkpt lat="56.028366" lon="26.462246">
<ele>100.801819</ele>
<time>2010-06-20T10:26:53Z</time>
<desc>lat.=56.028366, lon.=26.462246, Alt.=100.801819m. Speed=11.484000m/h.</desc>
<speed>3.190000</speed>
</trkpt>
<trkpt lat="56.028397" lon="26.462225">
<ele>100.686584</ele>
<time>2010-06-20T10:26:54Z</time>
<desc>lat.=56.028397, lon.=26.462225, Alt.=100.686584m. Speed=11.880000m/h.</desc>
<speed>3.300000</speed>
</trkpt>
<trkpt lat="56.028442" lon="26.462219">
<ele>103.458069</ele>
<time>2010-06-20T10:26:55Z</time>
<desc>lat.=56.028442, lon.=26.462219, Alt.=103.458069m. Speed=11.448000m/h.</desc>
<speed>3.180000</speed>
</trkpt>
<trkpt lat="56.028473" lon="26.462227">
<ele>103.151428</ele>
<time>2010-06-20T10:26:56Z</time>
<desc>lat.=56.028473, lon.=26.462227, Alt.=103.151428m. Speed=10.872000m/h.</desc>
<speed>3.020000</speed>
</trkpt>
<trkpt lat="56.028507" lon="26.462244">
<ele>103.797913</ele>
<time>2010-06-20T10:26:57Z</time>
<desc>lat.=56.028507, lon.=26.462244, Alt.=103.797913m. Speed=12.240000m/h.</desc>
<speed>3.400000</speed>
</trkpt>
<trkpt lat="56.028538" lon="26.462261">
<ele>103.354553</ele>
<time>2010-06-20T10:26:58Z</time>
<desc>lat.=56.028538, lon.=26.462261, Alt.=103.354553m. Speed=11.736000m/h.</desc>
<speed>3.260000</speed>
</trkpt>
<trkpt lat="56.028564" lon="26.462267">
<ele>103.276428</ele>
<time>2010-06-20T10:26:59Z</time>
<desc>lat.=56.028564, lon.=26.462267, Alt.=103.276428m. Speed=11.232000m/h.</desc>
<speed>3.120000</speed>
</trkpt>
<trkpt lat="56.028595" lon="26.462271">
<ele>103.817444</ele>
<time>2010-06-20T10:27:00Z</time>
<desc>lat.=56.028595, lon.=26.462271, Alt.=103.817444m. Speed=10.764000m/h.</desc>
<speed>2.990000</speed>
</trkpt>
<trkpt lat="56.028622" lon="26.462284">
<ele>104.001038</ele>
<time>2010-06-20T10:27:01Z</time>
<desc>lat.=56.028622, lon.=26.462284, Alt.=104.001038m. Speed=8.856000m/h.</desc>
<speed>2.460000</speed>
</trkpt>
<trkpt lat="56.028641" lon="26.462301">
<ele>103.477600</ele>
<time>2010-06-20T10:27:02Z</time>
<desc>lat.=56.028641, lon.=26.462301, Alt.=103.477600m. Speed=6.624000m/h.</desc>
<speed>1.840000</speed>
</trkpt>
<trkpt lat="56.028656" lon="26.462320">
<ele>103.747131</ele>
<time>2010-06-20T10:27:03Z</time>
<desc>lat.=56.028656, lon.=26.462320, Alt.=103.747131m. Speed=5.076000m/h.</desc>
<speed>1.410000</speed>
</trkpt>
<trkpt lat="56.028660" lon="26.462349">
<ele>103.776428</ele>
<time>2010-06-20T10:27:04Z</time>
<desc>lat.=56.028660, lon.=26.462349, Alt.=103.776428m. Speed=4.572000m/h.</desc>
<speed>1.270000</speed>
</trkpt>
<trkpt lat="56.028664" lon="26.462370">
<ele>104.067444</ele>
<time>2010-06-20T10:27:05Z</time>
<desc>lat.=56.028664, lon.=26.462370, Alt.=104.067444m. Speed=2.880000m/h.</desc>
<speed>0.800000</speed>
</trkpt>
<trkpt lat="56.028660" lon="26.462383">
<ele>103.920959</ele>
<time>2010-06-20T10:27:06Z</time>
<desc>lat.=56.028660, lon.=26.462383, Alt.=103.920959m. Speed=2.340000m/h.</desc>
<speed>0.650000</speed>
</trkpt>
<trkpt lat="56.028660" lon="26.462397">
<ele>103.794006</ele>
<time>2010-06-20T10:27:07Z</time>
<desc>lat.=56.028660, lon.=26.462397, Alt.=103.794006m. Speed=2.160000m/h.</desc>
<speed>0.600000</speed>
</trkpt>
<trkpt lat="56.028656" lon="26.462397">
<ele>103.756897</ele>
<time>2010-06-20T10:27:08Z</time>
<desc>lat.=56.028656, lon.=26.462397, Alt.=103.756897m. Speed=1.080000m/h.</desc>
<speed>0.300000</speed>
</trkpt>
<trkpt lat="56.028656" lon="26.462399">
<ele>103.745178</ele>
<time>2010-06-20T10:27:09Z</time>
<desc>lat.=56.028656, lon.=26.462399, Alt.=103.745178m. Speed=0.576000m/h.</desc>
<speed>0.160000</speed>
</trkpt>
<trkpt lat="56.028656" lon="26.462400">
<ele>103.729553</ele>
<time>2010-06-20T10:27:10Z</time>
<desc>lat.=56.028656, lon.=26.462400, Alt.=103.729553m. Speed=1.080000m/h.</desc>
<speed>0.300000</speed>
</trkpt>
<trkpt lat="56.028656" lon="26.462404">
<ele>103.715881</ele>
<time>2010-06-20T10:27:11Z</time>
<desc>lat.=56.028656, lon.=26.462404, Alt.=103.715881m. Speed=0.432000m/h.</desc>
<speed>0.120000</speed>
</trkpt>
<trkpt lat="56.028656" lon="26.462404">
<ele>103.700256</ele>
<time>2010-06-20T10:27:12Z</time>
<desc>lat.=56.028656, lon.=26.462404, Alt.=103.700256m. Speed=0.612000m/h.</desc>
<speed>0.170000</speed>
</trkpt>
<trkpt lat="56.028660" lon="26.462408">
<ele>103.690491</ele>
<time>2010-06-20T10:27:13Z</time>
<desc>lat.=56.028660, lon.=26.462408, Alt.=103.690491m. Speed=0.792000m/h.</desc>
<speed>0.220000</speed>
</trkpt>
<trkpt lat="56.028660" lon="26.462410">
<ele>103.682678</ele>
<time>2010-06-20T10:27:14Z</time>
<desc>lat.=56.028660, lon.=26.462410, Alt.=103.682678m. Speed=0.864000m/h.</desc>
<speed>0.240000</speed>
</trkpt>
<trkpt lat="56.028660" lon="26.462414">
<ele>103.678772</ele>
<time>2010-06-20T10:27:15Z</time>
<desc>lat.=56.028660, lon.=26.462414, Alt.=103.678772m. Speed=0.864000m/h.</desc>
<speed>0.240000</speed>
</trkpt>
<trkpt lat="56.028660" lon="26.462418">
<ele>103.676819</ele>
<time>2010-06-20T10:27:16Z</time>
<desc>lat.=56.028660, lon.=26.462418, Alt.=103.676819m. Speed=0.828000m/h.</desc>
<speed>0.230000</speed>
</trkpt>
<trkpt lat="56.028660" lon="26.462421">
<ele>103.674866</ele>
<time>2010-06-20T10:27:17Z</time>
<desc>lat.=56.028660, lon.=26.462421, Alt.=103.674866m. Speed=1.116000m/h.</desc>
<speed>0.310000</speed>
</trkpt>
<trkpt lat="56.028664" lon="26.462423">
<ele>103.672913</ele>
<time>2010-06-20T10:27:18Z</time>
<desc>lat.=56.028664, lon.=26.462423, Alt.=103.672913m. Speed=1.332000m/h.</desc>
<speed>0.370000</speed>
</trkpt>
<trkpt lat="56.028667" lon="26.462425">
<ele>103.672913</ele>
<time>2010-06-20T10:27:19Z</time>
<desc>lat.=56.028667, lon.=26.462425, Alt.=103.672913m. Speed=1.872000m/h.</desc>
<speed>0.520000</speed>
</trkpt>
<trkpt lat="56.028671" lon="26.462427">
<ele>103.674866</ele>
<time>2010-06-20T10:27:20Z</time>
<desc>lat.=56.028671, lon.=26.462427, Alt.=103.674866m. Speed=2.088000m/h.</desc>
<speed>0.580000</speed>
</trkpt>
<trkpt lat="56.028679" lon="26.462429">
<ele>103.672913</ele>
<time>2010-06-20T10:27:21Z</time>
<desc>lat.=56.028679, lon.=26.462429, Alt.=103.672913m. Speed=2.196000m/h.</desc>
<speed>0.610000</speed>
</trkpt>
<trkpt lat="56.028683" lon="26.462429">
<ele>103.669006</ele>
<time>2010-06-20T10:27:22Z</time>
<desc>lat.=56.028683, lon.=26.462429, Alt.=103.669006m. Speed=1.548000m/h.</desc>
<speed>0.430000</speed>
</trkpt>
<trkpt lat="56.028687" lon="26.462429">
<ele>103.667053</ele>
<time>2010-06-20T10:27:23Z</time>
<desc>lat.=56.028687, lon.=26.462429, Alt.=103.667053m. Speed=1.188000m/h.</desc>
<speed>0.330000</speed>
</trkpt>
<trkpt lat="56.028690" lon="26.462431">
<ele>103.667053</ele>
<time>2010-06-20T10:27:24Z</time>
<desc>lat.=56.028690, lon.=26.462431, Alt.=103.667053m. Speed=1.476000m/h.</desc>
<speed>0.410000</speed>
</trkpt>
<trkpt lat="56.028694" lon="26.462431">
<ele>103.667053</ele>
<time>2010-06-20T10:27:25Z</time>
<desc>lat.=56.028694, lon.=26.462431, Alt.=103.667053m. Speed=1.476000m/h.</desc>
<speed>0.410000</speed>
</trkpt>
<trkpt lat="56.028698" lon="26.462433">
<ele>103.667053</ele>
<time>2010-06-20T10:27:26Z</time>
<desc>lat.=56.028698, lon.=26.462433, Alt.=103.667053m. Speed=1.512000m/h.</desc>
<speed>0.420000</speed>
</trkpt>
<trkpt lat="56.028702" lon="26.462435">
<ele>103.667053</ele>
<time>2010-06-20T10:27:27Z</time>
<desc>lat.=56.028702, lon.=26.462435, Alt.=103.667053m. Speed=1.800000m/h.</desc>
<speed>0.500000</speed>
</trkpt>
<trkpt lat="56.028706" lon="26.462439">
<ele>103.669006</ele>
<time>2010-06-20T10:27:28Z</time>
<desc>lat.=56.028706, lon.=26.462439, Alt.=103.669006m. Speed=1.836000m/h.</desc>
<speed>0.510000</speed>
</trkpt>
<trkpt lat="56.028709" lon="26.462442">
<ele>103.672913</ele>
<time>2010-06-20T10:27:29Z</time>
<desc>lat.=56.028709, lon.=26.462442, Alt.=103.672913m. Speed=1.764000m/h.</desc>
<speed>0.490000</speed>
</trkpt>
<trkpt lat="56.028713" lon="26.462448">
<ele>103.676819</ele>
<time>2010-06-20T10:27:30Z</time>
<desc>lat.=56.028713, lon.=26.462448, Alt.=103.676819m. Speed=1.620000m/h.</desc>
<speed>0.450000</speed>
</trkpt>
<trkpt lat="56.028717" lon="26.462452">
<ele>103.678772</ele>
<time>2010-06-20T10:27:31Z</time>
<desc>lat.=56.028717, lon.=26.462452, Alt.=103.678772m. Speed=1.728000m/h.</desc>
<speed>0.480000</speed>
</trkpt>
<trkpt lat="56.028721" lon="26.462454">
<ele>103.680725</ele>
<time>2010-06-20T10:27:32Z</time>
<desc>lat.=56.028721, lon.=26.462454, Alt.=103.680725m. Speed=1.404000m/h.</desc>
<speed>0.390000</speed>
</trkpt>
<trkpt lat="56.028725" lon="26.462456">
<ele>103.682678</ele>
<time>2010-06-20T10:27:33Z</time>
<desc>lat.=56.028725, lon.=26.462456, Alt.=103.682678m. Speed=0.504000m/h.</desc>
<speed>0.140000</speed>
</trkpt>
<trkpt lat="56.028725" lon="26.462456">
<ele>103.688538</ele>
<time>2010-06-20T10:27:34Z</time>
<desc>lat.=56.028725, lon.=26.462456, Alt.=103.688538m. Speed=2.088000m/h.</desc>
<speed>0.580000</speed>
</trkpt>
<trkpt lat="56.028728" lon="26.462458">
<ele>103.692444</ele>
<time>2010-06-20T10:27:35Z</time>
<desc>lat.=56.028728, lon.=26.462458, Alt.=103.692444m. Speed=2.196000m/h.</desc>
<speed>0.610000</speed>
</trkpt>
<trkpt lat="56.028736" lon="26.462461">
<ele>103.698303</ele>
<time>2010-06-20T10:27:36Z</time>
<desc>lat.=56.028736, lon.=26.462461, Alt.=103.698303m. Speed=2.916000m/h.</desc>
<speed>0.810000</speed>
</trkpt>
<trkpt lat="56.028740" lon="26.462467">
<ele>103.706116</ele>
<time>2010-06-20T10:27:37Z</time>
<desc>lat.=56.028740, lon.=26.462467, Alt.=103.706116m. Speed=1.224000m/h.</desc>
<speed>0.340000</speed>
</trkpt>
<trkpt lat="56.028744" lon="26.462469">
<ele>103.711975</ele>
<time>2010-06-20T10:27:38Z</time>
<desc>lat.=56.028744, lon.=26.462469, Alt.=103.711975m. Speed=0.864000m/h.</desc>
<speed>0.240000</speed>
</trkpt>
<trkpt lat="56.028748" lon="26.462469">
<ele>103.715881</ele>
<time>2010-06-20T10:27:39Z</time>
<desc>lat.=56.028748, lon.=26.462469, Alt.=103.715881m. Speed=0.576000m/h.</desc>
<speed>0.160000</speed>
</trkpt>
<trkpt lat="56.028748" lon="26.462469">
<ele>103.719788</ele>
<time>2010-06-20T10:27:40Z</time>
<desc>lat.=56.028748, lon.=26.462469, Alt.=103.719788m. Speed=0.684000m/h.</desc>
<speed>0.190000</speed>
</trkpt>
<trkpt lat="56.028748" lon="26.462473">
<ele>103.723694</ele>
<time>2010-06-20T10:27:41Z</time>
<desc>lat.=56.028748, lon.=26.462473, Alt.=103.723694m. Speed=1.224000m/h.</desc>
<speed>0.340000</speed>
</trkpt>
<trkpt lat="56.028748" lon="26.462479">
<ele>103.723694</ele>
<time>2010-06-20T10:27:42Z</time>
<desc>lat.=56.028748, lon.=26.462479, Alt.=103.723694m. Speed=0.756000m/h.</desc>
<speed>0.210000</speed>
</trkpt>
<trkpt lat="56.028751" lon="26.462479">
<ele>103.725647</ele>
<time>2010-06-20T10:27:43Z</time>
<desc>lat.=56.028751, lon.=26.462479, Alt.=103.725647m. Speed=0.360000m/h.</desc>
<speed>0.100000</speed>
</trkpt>
<trkpt lat="56.028751" lon="26.462479">
<ele>103.727600</ele>
<time>2010-06-20T10:27:44Z</time>
<desc>lat.=56.028751, lon.=26.462479, Alt.=103.727600m. Speed=0.432000m/h.</desc>
<speed>0.120000</speed>
</trkpt>
<trkpt lat="56.028751" lon="26.462477">
<ele>103.723694</ele>
<time>2010-06-20T10:27:45Z</time>
<desc>lat.=56.028751, lon.=26.462477, Alt.=103.723694m. Speed=0.684000m/h.</desc>
<speed>0.190000</speed>
</trkpt>
<trkpt lat="56.028748" lon="26.462477">
<ele>103.727600</ele>
<time>2010-06-20T10:27:46Z</time>
<desc>lat.=56.028748, lon.=26.462477, Alt.=103.727600m. Speed=0.360000m/h.</desc>
<speed>0.100000</speed>
</trkpt>
<trkpt lat="56.028748" lon="26.462475">
<ele>103.737366</ele>
<time>2010-06-20T10:27:47Z</time>
<desc>lat.=56.028748, lon.=26.462475, Alt.=103.737366m. Speed=0.504000m/h.</desc>
<speed>0.140000</speed>
</trkpt>
<trkpt lat="56.028748" lon="26.462475">
<ele>103.751038</ele>
<time>2010-06-20T10:27:48Z</time>
<desc>lat.=56.028748, lon.=26.462475, Alt.=103.751038m. Speed=0.612000m/h.</desc>
<speed>0.170000</speed>
</trkpt>
<trkpt lat="56.028744" lon="26.462475">
<ele>103.762756</ele>
<time>2010-06-20T10:27:49Z</time>
<desc>lat.=56.028744, lon.=26.462475, Alt.=103.762756m. Speed=0.540000m/h.</desc>
<speed>0.150000</speed>
</trkpt>
<trkpt lat="56.028744" lon="26.462475">
<ele>103.774475</ele>
<time>2010-06-20T10:27:50Z</time>
<desc>lat.=56.028744, lon.=26.462475, Alt.=103.774475m. Speed=0.396000m/h.</desc>
<speed>0.110000</speed>
</trkpt>
<trkpt lat="56.028744" lon="26.462477">
<ele>103.786194</ele>
<time>2010-06-20T10:27:51Z</time>
<desc>lat.=56.028744, lon.=26.462477, Alt.=103.786194m. Speed=0.720000m/h.</desc>
<speed>0.200000</speed>
</trkpt>
<trkpt lat="56.028740" lon="26.462477">
<ele>103.786194</ele>
<time>2010-06-20T10:27:52Z</time>
<desc>lat.=56.028740, lon.=26.462477, Alt.=103.786194m. Speed=0.828000m/h.</desc>
<speed>0.230000</speed>
</trkpt>
<trkpt lat="56.028740" lon="26.462479">
<ele>103.792053</ele>
<time>2010-06-20T10:27:53Z</time>
<desc>lat.=56.028740, lon.=26.462479, Alt.=103.792053m. Speed=0.396000m/h.</desc>
<speed>0.110000</speed>
</trkpt>
<trkpt lat="56.028736" lon="26.462479">
<ele>103.803772</ele>
<time>2010-06-20T10:27:54Z</time>
<desc>lat.=56.028736, lon.=26.462479, Alt.=103.803772m. Speed=0.216000m/h.</desc>
<speed>0.060000</speed>
</trkpt>
<trkpt lat="56.028736" lon="26.462479">
<ele>103.801819</ele>
<time>2010-06-20T10:27:55Z</time>
<desc>lat.=56.028736, lon.=26.462479, Alt.=103.801819m. Speed=0.432000m/h.</desc>
<speed>0.120000</speed>
</trkpt>
<trkpt lat="56.028736" lon="26.462481">
<ele>103.797913</ele>
<time>2010-06-20T10:27:56Z</time>
<desc>lat.=56.028736, lon.=26.462481, Alt.=103.797913m. Speed=0.432000m/h.</desc>
<speed>0.120000</speed>
</trkpt>
<trkpt lat="56.028736" lon="26.462479">
<ele>103.795959</ele>
<time>2010-06-20T10:27:57Z</time>
<desc>lat.=56.028736, lon.=26.462479, Alt.=103.795959m. Speed=0.360000m/h.</desc>
<speed>0.100000</speed>
</trkpt>
<trkpt lat="56.028732" lon="26.462479">
<ele>103.792053</ele>
<time>2010-06-20T10:27:58Z</time>
<desc>lat.=56.028732, lon.=26.462479, Alt.=103.792053m. Speed=0.180000m/h.</desc>
<speed>0.050000</speed>
</trkpt>
<trkpt lat="56.028732" lon="26.462479">
<ele>103.792053</ele>
<time>2010-06-20T10:27:59Z</time>
<desc>lat.=56.028732, lon.=26.462479, Alt.=103.792053m. Speed=0.108000m/h.</desc>
<speed>0.030000</speed>
</trkpt>
<trkpt lat="56.028732" lon="26.462479">
<ele>103.786194</ele>
<time>2010-06-20T10:28:00Z</time>
<desc>lat.=56.028732, lon.=26.462479, Alt.=103.786194m. Speed=0.036000m/h.</desc>
<speed>0.010000</speed>
</trkpt>
<trkpt lat="56.028732" lon="26.462479">
<ele>103.782288</ele>
<time>2010-06-20T10:28:01Z</time>
<desc>lat.=56.028732, lon.=26.462479, Alt.=103.782288m. Speed=0.396000m/h.</desc>
<speed>0.110000</speed>
</trkpt>
<trkpt lat="56.028736" lon="26.462479">
<ele>103.776428</ele>
<time>2010-06-20T10:28:02Z</time>
<desc>lat.=56.028736, lon.=26.462479, Alt.=103.776428m. Speed=0.108000m/h.</desc>
<speed>0.030000</speed>
</trkpt>
<trkpt lat="56.028732" lon="26.462479">
<ele>103.768616</ele>
<time>2010-06-20T10:28:03Z</time>
<desc>lat.=56.028732, lon.=26.462479, Alt.=103.768616m. Speed=0.036000m/h.</desc>
<speed>0.010000</speed>
</trkpt>
<trkpt lat="56.028732" lon="26.462477">
<ele>103.762756</ele>
<time>2010-06-20T10:28:04Z</time>
<desc>lat.=56.028732, lon.=26.462477, Alt.=103.762756m. Speed=0.072000m/h.</desc>
<speed>0.020000</speed>
</trkpt>
<trkpt lat="56.028732" lon="26.462477">
<ele>103.756897</ele>
<time>2010-06-20T10:28:05Z</time>
<desc>lat.=56.028732, lon.=26.462477, Alt.=103.756897m. Speed=0.036000m/h.</desc>
<speed>0.010000</speed>
</trkpt>
<trkpt lat="56.028732" lon="26.462477">
<ele>103.743225</ele>
<time>2010-06-20T10:28:06Z</time>
<desc>lat.=56.028732, lon.=26.462477, Alt.=103.743225m. Speed=0.216000m/h.</desc>
<speed>0.060000</speed>
</trkpt>
<trkpt lat="56.028732" lon="26.462479">
<ele>103.733459</ele>
<time>2010-06-20T10:28:07Z</time>
<desc>lat.=56.028732, lon.=26.462479, Alt.=103.733459m. Speed=0.144000m/h.</desc>
<speed>0.040000</speed>
</trkpt>
<trkpt lat="56.028732" lon="26.462479">
<ele>103.721741</ele>
<time>2010-06-20T10:28:08Z</time>
<desc>lat.=56.028732, lon.=26.462479, Alt.=103.721741m. Speed=0.072000m/h.</desc>
<speed>0.020000</speed>
</trkpt>
<trkpt lat="56.028732" lon="26.462479">
<ele>103.710022</ele>
<time>2010-06-20T10:28:09Z</time>
<desc>lat.=56.028732, lon.=26.462479, Alt.=103.710022m. Speed=0.000000m/h.</desc>
<speed>0.000000</speed>
</trkpt>
<trkpt lat="56.028732" lon="26.462479">
<ele>103.704163</ele>
<time>2010-06-20T10:28:10Z</time>
<desc>lat.=56.028732, lon.=26.462479, Alt.=103.704163m. Speed=0.000000m/h.</desc>
<speed>0.000000</speed>
</trkpt>
<trkpt lat="56.028732" lon="26.462479">
<ele>103.700256</ele>
<time>2010-06-20T10:28:11Z</time>
<desc>lat.=56.028732, lon.=26.462479, Alt.=103.700256m. Speed=0.036000m/h.</desc>
<speed>0.010000</speed>
</trkpt>
<trkpt lat="56.028732" lon="26.462479">
<ele>103.696350</ele>
<time>2010-06-20T10:28:12Z</time>
<desc>lat.=56.028732, lon.=26.462479, Alt.=103.696350m. Speed=0.000000m/h.</desc>
<speed>0.000000</speed>
</trkpt>
<trkpt lat="56.028732" lon="26.462479">
<ele>103.688538</ele>
<time>2010-06-20T10:28:13Z</time>
<desc>lat.=56.028732, lon.=26.462479, Alt.=103.688538m. Speed=0.072000m/h.</desc>
<speed>0.020000</speed>
</trkpt>
<trkpt lat="56.028732" lon="26.462479">
<ele>103.688538</ele>
<time>2010-06-20T10:28:14Z</time>
<desc>lat.=56.028732, lon.=26.462479, Alt.=103.688538m. Speed=0.108000m/h.</desc>
<speed>0.030000</speed>
</trkpt>
<trkpt lat="56.028732" lon="26.462477">
<ele>103.692444</ele>
<time>2010-06-20T10:28:15Z</time>
<desc>lat.=56.028732, lon.=26.462477, Alt.=103.692444m. Speed=0.000000m/h.</desc>
<speed>0.000000</speed>
</trkpt>
<trkpt lat="56.028732" lon="26.462477">
<ele>103.698303</ele>
<time>2010-06-20T10:28:16Z</time>
<desc>lat.=56.028732, lon.=26.462477, Alt.=103.698303m. Speed=0.036000m/h.</desc>
<speed>0.010000</speed>
</trkpt>
<trkpt lat="56.028732" lon="26.462477">
<ele>103.698303</ele>
<time>2010-06-20T10:28:17Z</time>
<desc>lat.=56.028732, lon.=26.462477, Alt.=103.698303m. Speed=0.000000m/h.</desc>
<speed>0.000000</speed>
</trkpt>
<trkpt lat="56.028732" lon="26.462477">
<ele>103.698303</ele>
<time>2010-06-20T10:28:18Z</time>
<desc>lat.=56.028732, lon.=26.462477, Alt.=103.698303m. Speed=0.000000m/h.</desc>
<speed>0.000000</speed>
</trkpt>
<trkpt lat="56.028732" lon="26.462477">
<ele>103.700256</ele>
<time>2010-06-20T10:28:19Z</time>
<desc>lat.=56.028732, lon.=26.462477, Alt.=103.700256m. Speed=0.036000m/h.</desc>
<speed>0.010000</speed>
</trkpt>
<trkpt lat="56.028732" lon="26.462477">
<ele>103.700256</ele>
<time>2010-06-20T10:28:20Z</time>
<desc>lat.=56.028732, lon.=26.462477, Alt.=103.700256m. Speed=0.000000m/h.</desc>
<speed>0.000000</speed>
</trkpt>
<trkpt lat="56.028732" lon="26.462477">
<ele>103.702209</ele>
<time>2010-06-20T10:28:21Z</time>
<desc>lat.=56.028732, lon.=26.462477, Alt.=103.702209m. Speed=0.036000m/h.</desc>
<speed>0.010000</speed>
</trkpt>
<trkpt lat="56.028732" lon="26.462477">
<ele>103.704163</ele>
<time>2010-06-20T10:28:22Z</time>
<desc>lat.=56.028732, lon.=26.462477, Alt.=103.704163m. Speed=0.000000m/h.</desc>
<speed>0.000000</speed>
</trkpt>
<trkpt lat="56.028732" lon="26.462477">
<ele>103.704163</ele>
<time>2010-06-20T10:28:23Z</time>
<desc>lat.=56.028732, lon.=26.462477, Alt.=103.704163m. Speed=0.000000m/h.</desc>
<speed>0.000000</speed>
</trkpt>
<trkpt lat="56.028732" lon="26.462477">
<ele>103.704163</ele>
<time>2010-06-20T10:28:24Z</time>
<desc>lat.=56.028732, lon.=26.462477, Alt.=103.704163m. Speed=0.036000m/h.</desc>
<speed>0.010000</speed>
</trkpt>
<trkpt lat="56.028732" lon="26.462477">
<ele>103.708069</ele>
<time>2010-06-20T10:28:25Z</time>
<desc>lat.=56.028732, lon.=26.462477, Alt.=103.708069m. Speed=0.000000m/h.</desc>
<speed>0.000000</speed>
</trkpt>
<trkpt lat="56.028732" lon="26.462477">
<ele>103.708069</ele>
<time>2010-06-20T10:28:26Z</time>
<desc>lat.=56.028732, lon.=26.462477, Alt.=103.708069m. Speed=0.000000m/h.</desc>
<speed>0.000000</speed>
</trkpt>
<trkpt lat="56.028732" lon="26.462477">
<ele>103.704163</ele>
<time>2010-06-20T10:28:27Z</time>
<desc>lat.=56.028732, lon.=26.462477, Alt.=103.704163m. Speed=0.036000m/h.</desc>
<speed>0.010000</speed>
</trkpt>
<trkpt lat="56.028732" lon="26.462477">
<ele>103.708069</ele>
<time>2010-06-20T10:28:28Z</time>
<desc>lat.=56.028732, lon.=26.462477, Alt.=103.708069m. Speed=0.000000m/h.</desc>
<speed>0.000000</speed>
</trkpt>
<trkpt lat="56.028732" lon="26.462477">
<ele>103.715881</ele>
<time>2010-06-20T10:28:29Z</time>
<desc>lat.=56.028732, lon.=26.462477, Alt.=103.715881m. Speed=0.036000m/h.</desc>
<speed>0.010000</speed>
</trkpt>
<trkpt lat="56.028732" lon="26.462477">
<ele>103.721741</ele>
<time>2010-06-20T10:28:30Z</time>
<desc>lat.=56.028732, lon.=26.462477, Alt.=103.721741m. Speed=0.072000m/h.</desc>
<speed>0.020000</speed>
</trkpt>
<trkpt lat="56.028732" lon="26.462477">
<ele>103.725647</ele>
<time>2010-06-20T10:28:31Z</time>
<desc>lat.=56.028732, lon.=26.462477, Alt.=103.725647m. Speed=0.072000m/h.</desc>
<speed>0.020000</speed>
</trkpt>
<trkpt lat="56.028732" lon="26.462477">
<ele>103.733459</ele>
<time>2010-06-20T10:28:32Z</time>
<desc>lat.=56.028732, lon.=26.462477, Alt.=103.733459m. Speed=0.000000m/h.</desc>
<speed>0.000000</speed>
</trkpt>
<trkpt lat="56.028732" lon="26.462477">
<ele>103.739319</ele>
<time>2010-06-20T10:28:33Z</time>
<desc>lat.=56.028732, lon.=26.462477, Alt.=103.739319m. Speed=0.036000m/h.</desc>
<speed>0.010000</speed>
</trkpt>
<trkpt lat="56.028732" lon="26.462477">
<ele>103.745178</ele>
<time>2010-06-20T10:28:34Z</time>
<desc>lat.=56.028732, lon.=26.462477, Alt.=103.745178m. Speed=0.324000m/h.</desc>
<speed>0.090000</speed>
</trkpt>
<trkpt lat="56.028732" lon="26.462477">
<ele>103.760803</ele>
<time>2010-06-20T10:28:35Z</time>
<desc>lat.=56.028732, lon.=26.462477, Alt.=103.760803m. Speed=0.216000m/h.</desc>
<speed>0.060000</speed>
</trkpt>
<trkpt lat="56.028732" lon="26.462477">
<ele>103.764709</ele>
<time>2010-06-20T10:28:36Z</time>
<desc>lat.=56.028732, lon.=26.462477, Alt.=103.764709m. Speed=0.072000m/h.</desc>
<speed>0.020000</speed>
</trkpt>
<trkpt lat="56.028732" lon="26.462477">
<ele>103.766663</ele>
<time>2010-06-20T10:28:37Z</time>
<desc>lat.=56.028732, lon.=26.462477, Alt.=103.766663m. Speed=0.000000m/h.</desc>
<speed>0.000000</speed>
</trkpt>
<trkpt lat="56.028732" lon="26.462477">
<ele>103.772522</ele>
<time>2010-06-20T10:28:38Z</time>
<desc>lat.=56.028732, lon.=26.462477, Alt.=103.772522m. Speed=0.036000m/h.</desc>
<speed>0.010000</speed>
</trkpt>
<trkpt lat="56.028732" lon="26.462477">
<ele>103.776428</ele>
<time>2010-06-20T10:28:39Z</time>
<desc>lat.=56.028732, lon.=26.462477, Alt.=103.776428m. Speed=0.000000m/h.</desc>
<speed>0.000000</speed>
</trkpt>
<trkpt lat="56.028732" lon="26.462477">
<ele>103.772522</ele>
<time>2010-06-20T10:28:40Z</time>
<desc>lat.=56.028732, lon.=26.462477, Alt.=103.772522m. Speed=0.000000m/h.</desc>
<speed>0.000000</speed>
</trkpt>
<trkpt lat="56.028732" lon="26.462477">
<ele>103.770569</ele>
<time>2010-06-20T10:28:41Z</time>
<desc>lat.=56.028732, lon.=26.462477, Alt.=103.770569m. Speed=0.072000m/h.</desc>
<speed>0.020000</speed>
</trkpt>
<trkpt lat="56.028732" lon="26.462477">
<ele>103.766663</ele>
<time>2010-06-20T10:28:42Z</time>
<desc>lat.=56.028732, lon.=26.462477, Alt.=103.766663m. Speed=0.072000m/h.</desc>
<speed>0.020000</speed>
</trkpt>
<trkpt lat="56.028732" lon="26.462477">
<ele>103.766663</ele>
<time>2010-06-20T10:28:43Z</time>
<desc>lat.=56.028732, lon.=26.462477, Alt.=103.766663m. Speed=0.000000m/h.</desc>
<speed>0.000000</speed>
</trkpt>
<trkpt lat="56.028732" lon="26.462477">
<ele>103.766663</ele>
<time>2010-06-20T10:28:44Z</time>
<desc>lat.=56.028732, lon.=26.462477, Alt.=103.766663m. Speed=0.036000m/h.</desc>
<speed>0.010000</speed>
</trkpt>
<trkpt lat="56.028732" lon="26.462477">
<ele>103.768616</ele>
<time>2010-06-20T10:28:45Z</time>
<desc>lat.=56.028732, lon.=26.462477, Alt.=103.768616m. Speed=0.072000m/h.</desc>
<speed>0.020000</speed>
</trkpt>
<trkpt lat="56.028732" lon="26.462477">
<ele>103.766663</ele>
<time>2010-06-20T10:28:46Z</time>
<desc>lat.=56.028732, lon.=26.462477, Alt.=103.766663m. Speed=0.036000m/h.</desc>
<speed>0.010000</speed>
</trkpt>
<trkpt lat="56.028732" lon="26.462475">
<ele>103.766663</ele>
<time>2010-06-20T10:28:47Z</time>
<desc>lat.=56.028732, lon.=26.462475, Alt.=103.766663m. Speed=0.072000m/h.</desc>
<speed>0.020000</speed>
</trkpt>
<trkpt lat="56.028732" lon="26.462475">
<ele>103.762756</ele>
<time>2010-06-20T10:28:48Z</time>
<desc>lat.=56.028732, lon.=26.462475, Alt.=103.762756m. Speed=0.000000m/h.</desc>
<speed>0.000000</speed>
</trkpt>
<trkpt lat="56.028732" lon="26.462475">
<ele>103.762756</ele>
<time>2010-06-20T10:28:49Z</time>
<desc>lat.=56.028732, lon.=26.462475, Alt.=103.762756m. Speed=0.072000m/h.</desc>
<speed>0.020000</speed>
</trkpt>
<trkpt lat="56.028732" lon="26.462475">
<ele>103.760803</ele>
<time>2010-06-20T10:28:50Z</time>
<desc>lat.=56.028732, lon.=26.462475, Alt.=103.760803m. Speed=0.036000m/h.</desc>
<speed>0.010000</speed>
</trkpt>
<trkpt lat="56.028732" lon="26.462475">
<ele>103.760803</ele>
<time>2010-06-20T10:28:51Z</time>
<desc>lat.=56.028732, lon.=26.462475, Alt.=103.760803m. Speed=0.036000m/h.</desc>
<speed>0.010000</speed>
</trkpt>
<trkpt lat="56.028732" lon="26.462475">
<ele>103.756897</ele>
<time>2010-06-20T10:28:52Z</time>
<desc>lat.=56.028732, lon.=26.462475, Alt.=103.756897m. Speed=0.036000m/h.</desc>
<speed>0.010000</speed>
</trkpt>
<trkpt lat="56.028732" lon="26.462475">
<ele>103.752991</ele>
<time>2010-06-20T10:28:53Z</time>
<desc>lat.=56.028732, lon.=26.462475, Alt.=103.752991m. Speed=0.000000m/h.</desc>
<speed>0.000000</speed>
</trkpt>
<trkpt lat="56.028732" lon="26.462475">
<ele>103.747131</ele>
<time>2010-06-20T10:28:54Z</time>
<desc>lat.=56.028732, lon.=26.462475, Alt.=103.747131m. Speed=0.072000m/h.</desc>
<speed>0.020000</speed>
</trkpt>
<trkpt lat="56.028732" lon="26.462475">
<ele>103.743225</ele>
<time>2010-06-20T10:28:55Z</time>
<desc>lat.=56.028732, lon.=26.462475, Alt.=103.743225m. Speed=0.036000m/h.</desc>
<speed>0.010000</speed>
</trkpt>
<trkpt lat="56.028732" lon="26.462475">
<ele>103.731506</ele>
<time>2010-06-20T10:28:56Z</time>
<desc>lat.=56.028732, lon.=26.462475, Alt.=103.731506m. Speed=0.072000m/h.</desc>
<speed>0.020000</speed>
</trkpt>
<trkpt lat="56.028732" lon="26.462475">
<ele>103.717834</ele>
<time>2010-06-20T10:28:57Z</time>
<desc>lat.=56.028732, lon.=26.462475, Alt.=103.717834m. Speed=0.072000m/h.</desc>
<speed>0.020000</speed>
</trkpt>
<trkpt lat="56.028732" lon="26.462475">
<ele>103.710022</ele>
<time>2010-06-20T10:28:58Z</time>
<desc>lat.=56.028732, lon.=26.462475, Alt.=103.710022m. Speed=0.036000m/h.</desc>
<speed>0.010000</speed>
</trkpt>
<trkpt lat="56.028732" lon="26.462475">
<ele>103.710022</ele>
<time>2010-06-20T10:28:59Z</time>
<desc>lat.=56.028732, lon.=26.462475, Alt.=103.710022m. Speed=0.036000m/h.</desc>
<speed>0.010000</speed>
</trkpt>
<trkpt lat="56.028732" lon="26.462475">
<ele>103.702209</ele>
<time>2010-06-20T10:29:00Z</time>
<desc>lat.=56.028732, lon.=26.462475, Alt.=103.702209m. Speed=0.036000m/h.</desc>
<speed>0.010000</speed>
</trkpt>
<trkpt lat="56.028732" lon="26.462475">
<ele>103.688538</ele>
<time>2010-06-20T10:29:01Z</time>
<desc>lat.=56.028732, lon.=26.462475, Alt.=103.688538m. Speed=0.036000m/h.</desc>
<speed>0.010000</speed>
</trkpt>
<trkpt lat="56.028732" lon="26.462475">
<ele>103.663147</ele>
<time>2010-06-20T10:29:02Z</time>
<desc>lat.=56.028732, lon.=26.462475, Alt.=103.663147m. Speed=0.216000m/h.</desc>
<speed>0.060000</speed>
</trkpt>
<trkpt lat="56.028732" lon="26.462475">
<ele>103.655334</ele>
<time>2010-06-20T10:29:03Z</time>
<desc>lat.=56.028732, lon.=26.462475, Alt.=103.655334m. Speed=0.036000m/h.</desc>
<speed>0.010000</speed>
</trkpt>
<trkpt lat="56.028732" lon="26.462475">
<ele>103.653381</ele>
<time>2010-06-20T10:29:04Z</time>
<desc>lat.=56.028732, lon.=26.462475, Alt.=103.653381m. Speed=0.072000m/h.</desc>
<speed>0.020000</speed>
</trkpt>
<trkpt lat="56.028732" lon="26.462475">
<ele>103.659241</ele>
<time>2010-06-20T10:29:05Z</time>
<desc>lat.=56.028732, lon.=26.462475, Alt.=103.659241m. Speed=0.144000m/h.</desc>
<speed>0.040000</speed>
</trkpt>
<trkpt lat="56.028732" lon="26.462475">
<ele>103.657288</ele>
<time>2010-06-20T10:29:06Z</time>
<desc>lat.=56.028732, lon.=26.462475, Alt.=103.657288m. Speed=0.000000m/h.</desc>
<speed>0.000000</speed>
</trkpt>
<trkpt lat="56.028732" lon="26.462475">
<ele>103.657288</ele>
<time>2010-06-20T10:29:07Z</time>
<desc>lat.=56.028732, lon.=26.462475, Alt.=103.657288m. Speed=0.072000m/h.</desc>
<speed>0.020000</speed>
</trkpt>
<trkpt lat="56.028732" lon="26.462475">
<ele>103.657288</ele>
<time>2010-06-20T10:29:08Z</time>
<desc>lat.=56.028732, lon.=26.462475, Alt.=103.657288m. Speed=0.108000m/h.</desc>
<speed>0.030000</speed>
</trkpt>
<trkpt lat="56.028732" lon="26.462475">
<ele>103.649475</ele>
<time>2010-06-20T10:29:09Z</time>
<desc>lat.=56.028732, lon.=26.462475, Alt.=103.649475m. Speed=0.036000m/h.</desc>
<speed>0.010000</speed>
</trkpt>
<trkpt lat="56.028732" lon="26.462475">
<ele>103.643616</ele>
<time>2010-06-20T10:29:10Z</time>
<desc>lat.=56.028732, lon.=26.462475, Alt.=103.643616m. Speed=0.072000m/h.</desc>
<speed>0.020000</speed>
</trkpt>
<trkpt lat="56.028732" lon="26.462475">
<ele>103.637756</ele>
<time>2010-06-20T10:29:11Z</time>
<desc>lat.=56.028732, lon.=26.462475, Alt.=103.637756m. Speed=0.108000m/h.</desc>
<speed>0.030000</speed>
</trkpt>
<trkpt lat="56.028732" lon="26.462475">
<ele>103.631897</ele>
<time>2010-06-20T10:29:12Z</time>
<desc>lat.=56.028732, lon.=26.462475, Alt.=103.631897m. Speed=0.036000m/h.</desc>
<speed>0.010000</speed>
</trkpt>
<trkpt lat="56.028732" lon="26.462475">
<ele>103.633850</ele>
<time>2010-06-20T10:29:13Z</time>
<desc>lat.=56.028732, lon.=26.462475, Alt.=103.633850m. Speed=0.108000m/h.</desc>
<speed>0.030000</speed>
</trkpt>
<trkpt lat="56.028732" lon="26.462475">
<ele>103.631897</ele>
<time>2010-06-20T10:29:14Z</time>
<desc>lat.=56.028732, lon.=26.462475, Alt.=103.631897m. Speed=0.072000m/h.</desc>
<speed>0.020000</speed>
</trkpt>
<trkpt lat="56.028732" lon="26.462475">
<ele>103.627991</ele>
<time>2010-06-20T10:29:15Z</time>
<desc>lat.=56.028732, lon.=26.462475, Alt.=103.627991m. Speed=0.000000m/h.</desc>
<speed>0.000000</speed>
</trkpt>
<trkpt lat="56.028732" lon="26.462475">
<ele>103.622131</ele>
<time>2010-06-20T10:29:16Z</time>
<desc>lat.=56.028732, lon.=26.462475, Alt.=103.622131m. Speed=0.036000m/h.</desc>
<speed>0.010000</speed>
</trkpt>
<trkpt lat="56.028732" lon="26.462475">
<ele>103.614319</ele>
<time>2010-06-20T10:29:17Z</time>
<desc>lat.=56.028732, lon.=26.462475, Alt.=103.614319m. Speed=0.036000m/h.</desc>
<speed>0.010000</speed>
</trkpt>
<trkpt lat="56.028732" lon="26.462475">
<ele>103.614319</ele>
<time>2010-06-20T10:29:18Z</time>
<desc>lat.=56.028732, lon.=26.462475, Alt.=103.614319m. Speed=0.108000m/h.</desc>
<speed>0.030000</speed>
</trkpt>
<trkpt lat="56.028732" lon="26.462475">
<ele>103.610413</ele>
<time>2010-06-20T10:29:19Z</time>
<desc>lat.=56.028732, lon.=26.462475, Alt.=103.610413m. Speed=0.000000m/h.</desc>
<speed>0.000000</speed>
</trkpt>
<trkpt lat="56.028732" lon="26.462475">
<ele>103.610413</ele>
<time>2010-06-20T10:29:20Z</time>
<desc>lat.=56.028732, lon.=26.462475, Alt.=103.610413m. Speed=0.000000m/h.</desc>
<speed>0.000000</speed>
</trkpt>
<trkpt lat="56.028732" lon="26.462473">
<ele>103.604553</ele>
<time>2010-06-20T10:29:21Z</time>
<desc>lat.=56.028732, lon.=26.462473, Alt.=103.604553m. Speed=0.072000m/h.</desc>
<speed>0.020000</speed>
</trkpt>
<trkpt lat="56.028732" lon="26.462473">
<ele>103.608459</ele>
<time>2010-06-20T10:29:22Z</time>
<desc>lat.=56.028732, lon.=26.462473, Alt.=103.608459m. Speed=0.036000m/h.</desc>
<speed>0.010000</speed>
</trkpt>
<trkpt lat="56.028732" lon="26.462473">
<ele>103.608459</ele>
<time>2010-06-20T10:29:23Z</time>
<desc>lat.=56.028732, lon.=26.462473, Alt.=103.608459m. Speed=0.000000m/h.</desc>
<speed>0.000000</speed>
</trkpt>
<trkpt lat="56.028732" lon="26.462473">
<ele>103.600647</ele>
<time>2010-06-20T10:29:24Z</time>
<desc>lat.=56.028732, lon.=26.462473, Alt.=103.600647m. Speed=0.000000m/h.</desc>
<speed>0.000000</speed>
</trkpt>
<trkpt lat="56.028732" lon="26.462473">
<ele>103.590881</ele>
<time>2010-06-20T10:29:25Z</time>
<desc>lat.=56.028732, lon.=26.462473, Alt.=103.590881m. Speed=0.000000m/h.</desc>
<speed>0.000000</speed>
</trkpt>
<trkpt lat="56.028732" lon="26.462473">
<ele>103.590881</ele>
<time>2010-06-20T10:29:26Z</time>
<desc>lat.=56.028732, lon.=26.462473, Alt.=103.590881m. Speed=0.036000m/h.</desc>
<speed>0.010000</speed>
</trkpt>
<trkpt lat="56.028732" lon="26.462473">
<ele>103.594788</ele>
<time>2010-06-20T10:29:27Z</time>
<desc>lat.=56.028732, lon.=26.462473, Alt.=103.594788m. Speed=0.036000m/h.</desc>
<speed>0.010000</speed>
</trkpt>
<trkpt lat="56.028732" lon="26.462473">
<ele>103.594788</ele>
<time>2010-06-20T10:29:28Z</time>
<desc>lat.=56.028732, lon.=26.462473, Alt.=103.594788m. Speed=0.144000m/h.</desc>
<speed>0.040000</speed>
</trkpt>
<trkpt lat="56.028732" lon="26.462473">
<ele>103.610413</ele>
<time>2010-06-20T10:29:29Z</time>
<desc>lat.=56.028732, lon.=26.462473, Alt.=103.610413m. Speed=0.108000m/h.</desc>
<speed>0.030000</speed>
</trkpt>
<trkpt lat="56.028732" lon="26.462473">
<ele>103.624084</ele>
<time>2010-06-20T10:29:30Z</time>
<desc>lat.=56.028732, lon.=26.462473, Alt.=103.624084m. Speed=0.216000m/h.</desc>
<speed>0.060000</speed>
</trkpt>
<trkpt lat="56.028732" lon="26.462473">
<ele>103.633850</ele>
<time>2010-06-20T10:29:31Z</time>
<desc>lat.=56.028732, lon.=26.462473, Alt.=103.633850m. Speed=0.072000m/h.</desc>
<speed>0.020000</speed>
</trkpt>
<trkpt lat="56.028732" lon="26.462473">
<ele>103.653381</ele>
<time>2010-06-20T10:29:32Z</time>
<desc>lat.=56.028732, lon.=26.462473, Alt.=103.653381m. Speed=0.144000m/h.</desc>
<speed>0.040000</speed>
</trkpt>
<trkpt lat="56.028732" lon="26.462473">
<ele>103.670959</ele>
<time>2010-06-20T10:29:33Z</time>
<desc>lat.=56.028732, lon.=26.462473, Alt.=103.670959m. Speed=0.036000m/h.</desc>
<speed>0.010000</speed>
</trkpt>
<trkpt lat="56.028732" lon="26.462473">
<ele>103.680725</ele>
<time>2010-06-20T10:29:34Z</time>
<desc>lat.=56.028732, lon.=26.462473, Alt.=103.680725m. Speed=0.036000m/h.</desc>
<speed>0.010000</speed>
</trkpt>
<trkpt lat="56.028732" lon="26.462473">
<ele>103.678772</ele>
<time>2010-06-20T10:29:35Z</time>
<desc>lat.=56.028732, lon.=26.462473, Alt.=103.678772m. Speed=0.072000m/h.</desc>
<speed>0.020000</speed>
</trkpt>
<trkpt lat="56.028732" lon="26.462473">
<ele>103.676819</ele>
<time>2010-06-20T10:29:36Z</time>
<desc>lat.=56.028732, lon.=26.462473, Alt.=103.676819m. Speed=0.000000m/h.</desc>
<speed>0.000000</speed>
</trkpt>
<trkpt lat="56.028732" lon="26.462473">
<ele>103.684631</ele>
<time>2010-06-20T10:29:37Z</time>
<desc>lat.=56.028732, lon.=26.462473, Alt.=103.684631m. Speed=0.108000m/h.</desc>
<speed>0.030000</speed>
</trkpt>
<trkpt lat="56.028732" lon="26.462473">
<ele>103.694397</ele>
<time>2010-06-20T10:29:38Z</time>
<desc>lat.=56.028732, lon.=26.462473, Alt.=103.694397m. Speed=0.036000m/h.</desc>
<speed>0.010000</speed>
</trkpt>
<trkpt lat="56.028732" lon="26.462473">
<ele>103.704163</ele>
<time>2010-06-20T10:29:39Z</time>
<desc>lat.=56.028732, lon.=26.462473, Alt.=103.704163m. Speed=0.072000m/h.</desc>
<speed>0.020000</speed>
</trkpt>
<trkpt lat="56.028732" lon="26.462473">
<ele>103.721741</ele>
<time>2010-06-20T10:29:40Z</time>
<desc>lat.=56.028732, lon.=26.462473, Alt.=103.721741m. Speed=0.072000m/h.</desc>
<speed>0.020000</speed>
</trkpt>
<trkpt lat="56.028732" lon="26.462473">
<ele>103.729553</ele>
<time>2010-06-20T10:29:41Z</time>
<desc>lat.=56.028732, lon.=26.462473, Alt.=103.729553m. Speed=0.000000m/h.</desc>
<speed>0.000000</speed>
</trkpt>
<trkpt lat="56.028732" lon="26.462473">
<ele>103.756897</ele>
<time>2010-06-20T10:29:42Z</time>
<desc>lat.=56.028732, lon.=26.462473, Alt.=103.756897m. Speed=0.000000m/h.</desc>
<speed>0.000000</speed>
</trkpt>
<trkpt lat="56.028732" lon="26.462473">
<ele>103.778381</ele>
<time>2010-06-20T10:29:43Z</time>
<desc>lat.=56.028732, lon.=26.462473, Alt.=103.778381m. Speed=0.036000m/h.</desc>
<speed>0.010000</speed>
</trkpt>
<trkpt lat="56.028732" lon="26.462473">
<ele>103.799866</ele>
<time>2010-06-20T10:29:44Z</time>
<desc>lat.=56.028732, lon.=26.462473, Alt.=103.799866m. Speed=0.036000m/h.</desc>
<speed>0.010000</speed>
</trkpt>
<trkpt lat="56.028732" lon="26.462473">
<ele>103.819397</ele>
<time>2010-06-20T10:29:45Z</time>
<desc>lat.=56.028732, lon.=26.462473, Alt.=103.819397m. Speed=0.072000m/h.</desc>
<speed>0.020000</speed>
</trkpt>
<trkpt lat="56.028732" lon="26.462473">
<ele>103.835022</ele>
<time>2010-06-20T10:29:46Z</time>
<desc>lat.=56.028732, lon.=26.462473, Alt.=103.835022m. Speed=0.072000m/h.</desc>
<speed>0.020000</speed>
</trkpt>
<trkpt lat="56.028732" lon="26.462473">
<ele>103.846741</ele>
<time>2010-06-20T10:29:47Z</time>
<desc>lat.=56.028732, lon.=26.462473, Alt.=103.846741m. Speed=0.072000m/h.</desc>
<speed>0.020000</speed>
</trkpt>
<trkpt lat="56.028732" lon="26.462473">
<ele>103.864319</ele>
<time>2010-06-20T10:29:48Z</time>
<desc>lat.=56.028732, lon.=26.462473, Alt.=103.864319m. Speed=0.072000m/h.</desc>
<speed>0.020000</speed>
</trkpt>
<trkpt lat="56.028732" lon="26.462473">
<ele>103.872131</ele>
<time>2010-06-20T10:29:49Z</time>
<desc>lat.=56.028732, lon.=26.462473, Alt.=103.872131m. Speed=0.108000m/h.</desc>
<speed>0.030000</speed>
</trkpt>
<trkpt lat="56.028732" lon="26.462473">
<ele>103.872131</ele>
<time>2010-06-20T10:29:50Z</time>
<desc>lat.=56.028732, lon.=26.462473, Alt.=103.872131m. Speed=0.036000m/h.</desc>
<speed>0.010000</speed>
</trkpt>
<trkpt lat="56.028732" lon="26.462473">
<ele>103.872131</ele>
<time>2010-06-20T10:29:51Z</time>
<desc>lat.=56.028732, lon.=26.462473, Alt.=103.872131m. Speed=0.036000m/h.</desc>
<speed>0.010000</speed>
</trkpt>
<trkpt lat="56.028732" lon="26.462473">
<ele>103.872131</ele>
<time>2010-06-20T10:29:52Z</time>
<desc>lat.=56.028732, lon.=26.462473, Alt.=103.872131m. Speed=0.036000m/h.</desc>
<speed>0.010000</speed>
</trkpt>
<trkpt lat="56.028732" lon="26.462473">
<ele>103.874084</ele>
<time>2010-06-20T10:29:53Z</time>
<desc>lat.=56.028732, lon.=26.462473, Alt.=103.874084m. Speed=0.000000m/h.</desc>
<speed>0.000000</speed>
</trkpt>
<trkpt lat="56.028732" lon="26.462473">
<ele>103.879944</ele>
<time>2010-06-20T10:29:54Z</time>
<desc>lat.=56.028732, lon.=26.462473, Alt.=103.879944m. Speed=0.036000m/h.</desc>
<speed>0.010000</speed>
</trkpt>
<trkpt lat="56.028732" lon="26.462473">
<ele>103.881897</ele>
<time>2010-06-20T10:29:55Z</time>
<desc>lat.=56.028732, lon.=26.462473, Alt.=103.881897m. Speed=0.072000m/h.</desc>
<speed>0.020000</speed>
</trkpt>
<trkpt lat="56.028732" lon="26.462473">
<ele>103.883850</ele>
<time>2010-06-20T10:29:56Z</time>
<desc>lat.=56.028732, lon.=26.462473, Alt.=103.883850m. Speed=0.036000m/h.</desc>
<speed>0.010000</speed>
</trkpt>
<trkpt lat="56.028732" lon="26.462473">
<ele>103.891663</ele>
<time>2010-06-20T10:29:57Z</time>
<desc>lat.=56.028732, lon.=26.462473, Alt.=103.891663m. Speed=0.036000m/h.</desc>
<speed>0.010000</speed>
</trkpt>
<trkpt lat="56.028732" lon="26.462473">
<ele>103.895569</ele>
<time>2010-06-20T10:29:58Z</time>
<desc>lat.=56.028732, lon.=26.462473, Alt.=103.895569m. Speed=0.036000m/h.</desc>
<speed>0.010000</speed>
</trkpt>
<trkpt lat="56.028732" lon="26.462473">
<ele>103.903381</ele>
<time>2010-06-20T10:29:59Z</time>
<desc>lat.=56.028732, lon.=26.462473, Alt.=103.903381m. Speed=0.072000m/h.</desc>
<speed>0.020000</speed>
</trkpt>
<trkpt lat="56.028736" lon="26.462473">
<ele>103.913147</ele>
<time>2010-06-20T10:30:00Z</time>
<desc>lat.=56.028736, lon.=26.462473, Alt.=103.913147m. Speed=0.144000m/h.</desc>
<speed>0.040000</speed>
</trkpt>
<trkpt lat="56.028736" lon="26.462473">
<ele>103.919006</ele>
<time>2010-06-20T10:30:01Z</time>
<desc>lat.=56.028736, lon.=26.462473, Alt.=103.919006m. Speed=0.468000m/h.</desc>
<speed>0.130000</speed>
</trkpt>
<trkpt lat="56.028736" lon="26.462473">
<ele>103.922913</ele>
<time>2010-06-20T10:30:02Z</time>
<desc>lat.=56.028736, lon.=26.462473, Alt.=103.922913m. Speed=0.540000m/h.</desc>
<speed>0.150000</speed>
</trkpt>
<trkpt lat="56.028736" lon="26.462473">
<ele>103.928772</ele>
<time>2010-06-20T10:30:03Z</time>
<desc>lat.=56.028736, lon.=26.462473, Alt.=103.928772m. Speed=0.648000m/h.</desc>
<speed>0.180000</speed>
</trkpt>
<trkpt lat="56.028740" lon="26.462475">
<ele>103.934631</ele>
<time>2010-06-20T10:30:04Z</time>
<desc>lat.=56.028740, lon.=26.462475, Alt.=103.934631m. Speed=1.008000m/h.</desc>
<speed>0.280000</speed>
</trkpt>
<trkpt lat="56.028740" lon="26.462479">
<ele>103.940491</ele>
<time>2010-06-20T10:30:05Z</time>
<desc>lat.=56.028740, lon.=26.462479, Alt.=103.940491m. Speed=0.936000m/h.</desc>
<speed>0.260000</speed>
</trkpt>
<trkpt lat="56.028736" lon="26.462482">
<ele>103.946350</ele>
<time>2010-06-20T10:30:06Z</time>
<desc>lat.=56.028736, lon.=26.462482, Alt.=103.946350m. Speed=0.756000m/h.</desc>
<speed>0.210000</speed>
</trkpt>
<trkpt lat="56.028736" lon="26.462486">
<ele>103.975647</ele>
<time>2010-06-20T10:30:07Z</time>
<desc>lat.=56.028736, lon.=26.462486, Alt.=103.975647m. Speed=0.864000m/h.</desc>
<speed>0.240000</speed>
</trkpt>
<trkpt lat="56.028740" lon="26.462486">
<ele>104.001038</ele>
<time>2010-06-20T10:30:08Z</time>
<desc>lat.=56.028740, lon.=26.462486, Alt.=104.001038m. Speed=0.540000m/h.</desc>
<speed>0.150000</speed>
</trkpt>
<trkpt lat="56.028740" lon="26.462486">
<ele>104.030334</ele>
<time>2010-06-20T10:30:09Z</time>
<desc>lat.=56.028740, lon.=26.462486, Alt.=104.030334m. Speed=0.324000m/h.</desc>
<speed>0.090000</speed>
</trkpt>
<trkpt lat="56.028740" lon="26.462488">
<ele>104.059631</ele>
<time>2010-06-20T10:30:10Z</time>
<desc>lat.=56.028740, lon.=26.462488, Alt.=104.059631m. Speed=0.288000m/h.</desc>
<speed>0.080000</speed>
</trkpt>
<trkpt lat="56.028740" lon="26.462488">
<ele>104.094788</ele>
<time>2010-06-20T10:30:11Z</time>
<desc>lat.=56.028740, lon.=26.462488, Alt.=104.094788m. Speed=0.324000m/h.</desc>
<speed>0.090000</speed>
</trkpt>
<trkpt lat="56.028744" lon="26.462488">
<ele>104.131897</ele>
<time>2010-06-20T10:30:12Z</time>
<desc>lat.=56.028744, lon.=26.462488, Alt.=104.131897m. Speed=0.180000m/h.</desc>
<speed>0.050000</speed>
</trkpt>
<trkpt lat="56.028744" lon="26.462488">
<ele>104.178772</ele>
<time>2010-06-20T10:30:13Z</time>
<desc>lat.=56.028744, lon.=26.462488, Alt.=104.178772m. Speed=0.036000m/h.</desc>
<speed>0.010000</speed>
</trkpt>
<trkpt lat="56.028744" lon="26.462488">
<ele>104.227600</ele>
<time>2010-06-20T10:30:14Z</time>
<desc>lat.=56.028744, lon.=26.462488, Alt.=104.227600m. Speed=0.000000m/h.</desc>
<speed>0.000000</speed>
</trkpt>
<trkpt lat="56.028744" lon="26.462488">
<ele>104.282288</ele>
<time>2010-06-20T10:30:15Z</time>
<desc>lat.=56.028744, lon.=26.462488, Alt.=104.282288m. Speed=0.108000m/h.</desc>
<speed>0.030000</speed>
</trkpt>
<trkpt lat="56.028744" lon="26.462488">
<ele>104.352600</ele>
<time>2010-06-20T10:30:16Z</time>
<desc>lat.=56.028744, lon.=26.462488, Alt.=104.352600m. Speed=0.036000m/h.</desc>
<speed>0.010000</speed>
</trkpt>
<trkpt lat="56.028744" lon="26.462488">
<ele>104.422913</ele>
<time>2010-06-20T10:30:17Z</time>
<desc>lat.=56.028744, lon.=26.462488, Alt.=104.422913m. Speed=0.072000m/h.</desc>
<speed>0.020000</speed>
</trkpt>
<trkpt lat="56.028744" lon="26.462488">
<ele>104.497131</ele>
<time>2010-06-20T10:30:18Z</time>
<desc>lat.=56.028744, lon.=26.462488, Alt.=104.497131m. Speed=0.036000m/h.</desc>
<speed>0.010000</speed>
</trkpt>
<trkpt lat="56.028744" lon="26.462488">
<ele>104.585022</ele>
<time>2010-06-20T10:30:19Z</time>
<desc>lat.=56.028744, lon.=26.462488, Alt.=104.585022m. Speed=0.072000m/h.</desc>
<speed>0.020000</speed>
</trkpt>
<trkpt lat="56.028744" lon="26.462488">
<ele>104.667053</ele>
<time>2010-06-20T10:30:20Z</time>
<desc>lat.=56.028744, lon.=26.462488, Alt.=104.667053m. Speed=0.072000m/h.</desc>
<speed>0.020000</speed>
</trkpt>
<trkpt lat="56.028744" lon="26.462488">
<ele>104.758850</ele>
<time>2010-06-20T10:30:21Z</time>
<desc>lat.=56.028744, lon.=26.462488, Alt.=104.758850m. Speed=0.072000m/h.</desc>
<speed>0.020000</speed>
</trkpt>
<trkpt lat="56.028744" lon="26.462490">
<ele>104.850647</ele>
<time>2010-06-20T10:30:22Z</time>
<desc>lat.=56.028744, lon.=26.462490, Alt.=104.850647m. Speed=0.108000m/h.</desc>
<speed>0.030000</speed>
</trkpt>
<trkpt lat="56.028744" lon="26.462490">
<ele>104.950256</ele>
<time>2010-06-20T10:30:23Z</time>
<desc>lat.=56.028744, lon.=26.462490, Alt.=104.950256m. Speed=0.108000m/h.</desc>
<speed>0.030000</speed>
</trkpt>
<trkpt lat="56.028744" lon="26.462490">
<ele>105.047913</ele>
<time>2010-06-20T10:30:24Z</time>
<desc>lat.=56.028744, lon.=26.462490, Alt.=105.047913m. Speed=0.036000m/h.</desc>
<speed>0.010000</speed>
</trkpt>
<trkpt lat="56.028744" lon="26.462490">
<ele>105.141663</ele>
<time>2010-06-20T10:30:25Z</time>
<desc>lat.=56.028744, lon.=26.462490, Alt.=105.141663m. Speed=0.036000m/h.</desc>
<speed>0.010000</speed>
</trkpt>
<trkpt lat="56.028744" lon="26.462490">
<ele>105.237366</ele>
<time>2010-06-20T10:30:26Z</time>
<desc>lat.=56.028744, lon.=26.462490, Alt.=105.237366m. Speed=0.072000m/h.</desc>
<speed>0.020000</speed>
</trkpt>
<trkpt lat="56.028744" lon="26.462490">
<ele>105.333069</ele>
<time>2010-06-20T10:30:27Z</time>
<desc>lat.=56.028744, lon.=26.462490, Alt.=105.333069m. Speed=0.216000m/h.</desc>
<speed>0.060000</speed>
</trkpt>
<trkpt lat="56.028744" lon="26.462490">
<ele>105.432678</ele>
<time>2010-06-20T10:30:28Z</time>
<desc>lat.=56.028744, lon.=26.462490, Alt.=105.432678m. Speed=0.288000m/h.</desc>
<speed>0.080000</speed>
</trkpt>
<trkpt lat="56.028744" lon="26.462490">
<ele>105.532288</ele>
<time>2010-06-20T10:30:29Z</time>
<desc>lat.=56.028744, lon.=26.462490, Alt.=105.532288m. Speed=0.108000m/h.</desc>
<speed>0.030000</speed>
</trkpt>
<trkpt lat="56.028744" lon="26.462488">
<ele>105.639709</ele>
<time>2010-06-20T10:30:30Z</time>
<desc>lat.=56.028744, lon.=26.462488, Alt.=105.639709m. Speed=0.144000m/h.</desc>
<speed>0.040000</speed>
</trkpt>
<trkpt lat="56.028748" lon="26.462488">
<ele>105.731506</ele>
<time>2010-06-20T10:30:31Z</time>
<desc>lat.=56.028748, lon.=26.462488, Alt.=105.731506m. Speed=0.252000m/h.</desc>
<speed>0.070000</speed>
</trkpt>
<trkpt lat="56.028748" lon="26.462488">
<ele>105.821350</ele>
<time>2010-06-20T10:30:32Z</time>
<desc>lat.=56.028748, lon.=26.462488, Alt.=105.821350m. Speed=0.216000m/h.</desc>
<speed>0.060000</speed>
</trkpt>
<trkpt lat="56.028748" lon="26.462488">
<ele>105.911194</ele>
<time>2010-06-20T10:30:33Z</time>
<desc>lat.=56.028748, lon.=26.462488, Alt.=105.911194m. Speed=0.216000m/h.</desc>
<speed>0.060000</speed>
</trkpt>
<trkpt lat="56.028748" lon="26.462488">
<ele>105.993225</ele>
<time>2010-06-20T10:30:34Z</time>
<desc>lat.=56.028748, lon.=26.462488, Alt.=105.993225m. Speed=0.180000m/h.</desc>
<speed>0.050000</speed>
</trkpt>
<trkpt lat="56.028748" lon="26.462488">
<ele>106.077209</ele>
<time>2010-06-20T10:30:35Z</time>
<desc>lat.=56.028748, lon.=26.462488, Alt.=106.077209m. Speed=0.072000m/h.</desc>
<speed>0.020000</speed>
</trkpt>
<trkpt lat="56.028748" lon="26.462488">
<ele>106.165100</ele>
<time>2010-06-20T10:30:36Z</time>
<desc>lat.=56.028748, lon.=26.462488, Alt.=106.165100m. Speed=0.108000m/h.</desc>
<speed>0.030000</speed>
</trkpt>
<trkpt lat="56.028748" lon="26.462488">
<ele>106.249084</ele>
<time>2010-06-20T10:30:37Z</time>
<desc>lat.=56.028748, lon.=26.462488, Alt.=106.249084m. Speed=0.144000m/h.</desc>
<speed>0.040000</speed>
</trkpt>
<trkpt lat="56.028748" lon="26.462488">
<ele>106.333069</ele>
<time>2010-06-20T10:30:38Z</time>
<desc>lat.=56.028748, lon.=26.462488, Alt.=106.333069m. Speed=0.036000m/h.</desc>
<speed>0.010000</speed>
</trkpt>
<trkpt lat="56.028748" lon="26.462488">
<ele>106.422913</ele>
<time>2010-06-20T10:30:39Z</time>
<desc>lat.=56.028748, lon.=26.462488, Alt.=106.422913m. Speed=0.036000m/h.</desc>
<speed>0.010000</speed>
</trkpt>
<trkpt lat="56.028748" lon="26.462488">
<ele>106.514709</ele>
<time>2010-06-20T10:30:40Z</time>
<desc>lat.=56.028748, lon.=26.462488, Alt.=106.514709m. Speed=0.108000m/h.</desc>
<speed>0.030000</speed>
</trkpt>
<trkpt lat="56.028748" lon="26.462488">
<ele>106.604553</ele>
<time>2010-06-20T10:30:41Z</time>
<desc>lat.=56.028748, lon.=26.462488, Alt.=106.604553m. Speed=0.072000m/h.</desc>
<speed>0.020000</speed>
</trkpt>
<trkpt lat="56.028748" lon="26.462488">
<ele>106.696350</ele>
<time>2010-06-20T10:30:42Z</time>
<desc>lat.=56.028748, lon.=26.462488, Alt.=106.696350m. Speed=0.252000m/h.</desc>
<speed>0.070000</speed>
</trkpt>
<trkpt lat="56.028748" lon="26.462488">
<ele>106.788147</ele>
<time>2010-06-20T10:30:43Z</time>
<desc>lat.=56.028748, lon.=26.462488, Alt.=106.788147m. Speed=0.216000m/h.</desc>
<speed>0.060000</speed>
</trkpt>
<trkpt lat="56.028748" lon="26.462490">
<ele>106.881897</ele>
<time>2010-06-20T10:30:44Z</time>
<desc>lat.=56.028748, lon.=26.462490, Alt.=106.881897m. Speed=0.324000m/h.</desc>
<speed>0.090000</speed>
</trkpt>
<trkpt lat="56.028748" lon="26.462492">
<ele>106.973694</ele>
<time>2010-06-20T10:30:45Z</time>
<desc>lat.=56.028748, lon.=26.462492, Alt.=106.973694m. Speed=0.468000m/h.</desc>
<speed>0.130000</speed>
</trkpt>
<trkpt lat="56.028751" lon="26.462492">
<ele>107.063538</ele>
<time>2010-06-20T10:30:46Z</time>
<desc>lat.=56.028751, lon.=26.462492, Alt.=107.063538m. Speed=0.504000m/h.</desc>
<speed>0.140000</speed>
</trkpt>
<trkpt lat="56.028751" lon="26.462492">
<ele>107.135803</ele>
<time>2010-06-20T10:30:47Z</time>
<desc>lat.=56.028751, lon.=26.462492, Alt.=107.135803m. Speed=0.504000m/h.</desc>
<speed>0.140000</speed>
</trkpt>
<trkpt lat="56.028751" lon="26.462494">
<ele>107.219788</ele>
<time>2010-06-20T10:30:48Z</time>
<desc>lat.=56.028751, lon.=26.462494, Alt.=107.219788m. Speed=0.432000m/h.</desc>
<speed>0.120000</speed>
</trkpt>
<trkpt lat="56.028755" lon="26.462494">
<ele>107.325256</ele>
<time>2010-06-20T10:30:49Z</time>
<desc>lat.=56.028755, lon.=26.462494, Alt.=107.325256m. Speed=0.396000m/h.</desc>
<speed>0.110000</speed>
</trkpt>
<trkpt lat="56.028755" lon="26.462496">
<ele>107.417053</ele>
<time>2010-06-20T10:30:50Z</time>
<desc>lat.=56.028755, lon.=26.462496, Alt.=107.417053m. Speed=0.360000m/h.</desc>
<speed>0.100000</speed>
</trkpt>
<trkpt lat="56.028755" lon="26.462496">
<ele>107.514709</ele>
<time>2010-06-20T10:30:51Z</time>
<desc>lat.=56.028755, lon.=26.462496, Alt.=107.514709m. Speed=0.252000m/h.</desc>
<speed>0.070000</speed>
</trkpt>
<trkpt lat="56.028755" lon="26.462496">
<ele>107.604553</ele>
<time>2010-06-20T10:30:52Z</time>
<desc>lat.=56.028755, lon.=26.462496, Alt.=107.604553m. Speed=0.324000m/h.</desc>
<speed>0.090000</speed>
</trkpt>
<trkpt lat="56.028759" lon="26.462498">
<ele>107.698303</ele>
<time>2010-06-20T10:30:53Z</time>
<desc>lat.=56.028759, lon.=26.462498, Alt.=107.698303m. Speed=0.468000m/h.</desc>
<speed>0.130000</speed>
</trkpt>
<trkpt lat="56.028759" lon="26.462498">
<ele>107.792053</ele>
<time>2010-06-20T10:30:54Z</time>
<desc>lat.=56.028759, lon.=26.462498, Alt.=107.792053m. Speed=0.504000m/h.</desc>
<speed>0.140000</speed>
</trkpt>
<trkpt lat="56.028759" lon="26.462498">
<ele>107.885803</ele>
<time>2010-06-20T10:30:55Z</time>
<desc>lat.=56.028759, lon.=26.462498, Alt.=107.885803m. Speed=0.540000m/h.</desc>
<speed>0.150000</speed>
</trkpt>
<trkpt lat="56.028763" lon="26.462500">
<ele>107.981506</ele>
<time>2010-06-20T10:30:56Z</time>
<desc>lat.=56.028763, lon.=26.462500, Alt.=107.981506m. Speed=0.540000m/h.</desc>
<speed>0.150000</speed>
</trkpt>
<trkpt lat="56.028763" lon="26.462500">
<ele>108.077209</ele>
<time>2010-06-20T10:30:57Z</time>
<desc>lat.=56.028763, lon.=26.462500, Alt.=108.077209m. Speed=0.540000m/h.</desc>
<speed>0.150000</speed>
</trkpt>
<trkpt lat="56.028763" lon="26.462500">
<ele>108.167053</ele>
<time>2010-06-20T10:30:58Z</time>
<desc>lat.=56.028763, lon.=26.462500, Alt.=108.167053m. Speed=2.196000m/h.</desc>
<speed>0.610000</speed>
</trkpt>
<trkpt lat="56.028770" lon="26.462498">
<ele>108.256897</ele>
<time>2010-06-20T10:30:59Z</time>
<desc>lat.=56.028770, lon.=26.462498, Alt.=108.256897m. Speed=4.104000m/h.</desc>
<speed>1.140000</speed>
</trkpt>
<trkpt lat="56.028782" lon="26.462481">
<ele>108.278381</ele>
<time>2010-06-20T10:31:00Z</time>
<desc>lat.=56.028782, lon.=26.462481, Alt.=108.278381m. Speed=6.804000m/h.</desc>
<speed>1.890000</speed>
</trkpt>
<trkpt lat="56.028793" lon="26.462460">
<ele>108.307678</ele>
<time>2010-06-20T10:31:01Z</time>
<desc>lat.=56.028793, lon.=26.462460, Alt.=108.307678m. Speed=6.732000m/h.</desc>
<speed>1.870000</speed>
</trkpt>
<trkpt lat="56.028809" lon="26.462439">
<ele>108.358459</ele>
<time>2010-06-20T10:31:02Z</time>
<desc>lat.=56.028809, lon.=26.462439, Alt.=108.358459m. Speed=6.624000m/h.</desc>
<speed>1.840000</speed>
</trkpt>
<trkpt lat="56.028828" lon="26.462433">
<ele>108.491272</ele>
<time>2010-06-20T10:31:03Z</time>
<desc>lat.=56.028828, lon.=26.462433, Alt.=108.491272m. Speed=6.948000m/h.</desc>
<speed>1.930000</speed>
</trkpt>
<trkpt lat="56.028854" lon="26.462433">
<ele>108.559631</ele>
<time>2010-06-20T10:31:04Z</time>
<desc>lat.=56.028854, lon.=26.462433, Alt.=108.559631m. Speed=7.740000m/h.</desc>
<speed>2.150000</speed>
</trkpt>
<trkpt lat="56.028873" lon="26.462444">
<ele>108.487366</ele>
<time>2010-06-20T10:31:05Z</time>
<desc>lat.=56.028873, lon.=26.462444, Alt.=108.487366m. Speed=6.840000m/h.</desc>
<speed>1.900000</speed>
</trkpt>
<trkpt lat="56.028889" lon="26.462456">
<ele>108.426819</ele>
<time>2010-06-20T10:31:06Z</time>
<desc>lat.=56.028889, lon.=26.462456, Alt.=108.426819m. Speed=6.552000m/h.</desc>
<speed>1.820000</speed>
</trkpt>
<trkpt lat="56.028904" lon="26.462471">
<ele>108.237366</ele>
<time>2010-06-20T10:31:07Z</time>
<desc>lat.=56.028904, lon.=26.462471, Alt.=108.237366m. Speed=6.156000m/h.</desc>
<speed>1.710000</speed>
</trkpt>
<trkpt lat="56.028912" lon="26.462488">
<ele>107.497131</ele>
<time>2010-06-20T10:31:08Z</time>
<desc>lat.=56.028912, lon.=26.462488, Alt.=107.497131m. Speed=5.580000m/h.</desc>
<speed>1.550000</speed>
</trkpt>
<trkpt lat="56.028923" lon="26.462507">
<ele>106.631897</ele>
<time>2010-06-20T10:31:09Z</time>
<desc>lat.=56.028923, lon.=26.462507, Alt.=106.631897m. Speed=6.048000m/h.</desc>
<speed>1.680000</speed>
</trkpt>
<trkpt lat="56.028942" lon="26.462515">
<ele>106.571350</ele>
<time>2010-06-20T10:31:10Z</time>
<desc>lat.=56.028942, lon.=26.462515, Alt.=106.571350m. Speed=7.128000m/h.</desc>
<speed>1.980000</speed>
</trkpt>
<trkpt lat="56.028957" lon="26.462517">
<ele>105.985413</ele>
<time>2010-06-20T10:31:11Z</time>
<desc>lat.=56.028957, lon.=26.462517, Alt.=105.985413m. Speed=5.724000m/h.</desc>
<speed>1.590000</speed>
</trkpt>
<trkpt lat="56.028980" lon="26.462521">
<ele>106.030334</ele>
<time>2010-06-20T10:31:12Z</time>
<desc>lat.=56.028980, lon.=26.462521, Alt.=106.030334m. Speed=8.856000m/h.</desc>
<speed>2.460000</speed>
</trkpt>
<trkpt lat="56.029003" lon="26.462526">
<ele>105.823303</ele>
<time>2010-06-20T10:31:13Z</time>
<desc>lat.=56.029003, lon.=26.462526, Alt.=105.823303m. Speed=9.216000m/h.</desc>
<speed>2.560000</speed>
</trkpt>
<trkpt lat="56.029030" lon="26.462538">
<ele>106.116272</ele>
<time>2010-06-20T10:31:14Z</time>
<desc>lat.=56.029030, lon.=26.462538, Alt.=106.116272m. Speed=9.216000m/h.</desc>
<speed>2.560000</speed>
</trkpt>
<trkpt lat="56.029049" lon="26.462553">
<ele>106.112366</ele>
<time>2010-06-20T10:31:15Z</time>
<desc>lat.=56.029049, lon.=26.462553, Alt.=106.112366m. Speed=9.648000m/h.</desc>
<speed>2.680000</speed>
</trkpt>
<trkpt lat="56.029076" lon="26.462570">
<ele>106.235413</ele>
<time>2010-06-20T10:31:16Z</time>
<desc>lat.=56.029076, lon.=26.462570, Alt.=106.235413m. Speed=10.440000m/h.</desc>
<speed>2.900000</speed>
</trkpt>
<trkpt lat="56.029095" lon="26.462593">
<ele>106.520569</ele>
<time>2010-06-20T10:31:17Z</time>
<desc>lat.=56.029095, lon.=26.462593, Alt.=106.520569m. Speed=11.520000m/h.</desc>
<speed>3.200000</speed>
</trkpt>
<trkpt lat="56.029125" lon="26.462612">
<ele>106.670959</ele>
<time>2010-06-20T10:31:18Z</time>
<desc>lat.=56.029125, lon.=26.462612, Alt.=106.670959m. Speed=12.996000m/h.</desc>
<speed>3.610000</speed>
</trkpt>
<trkpt lat="56.029160" lon="26.462627">
<ele>106.936584</ele>
<time>2010-06-20T10:31:19Z</time>
<desc>lat.=56.029160, lon.=26.462627, Alt.=106.936584m. Speed=13.860000m/h.</desc>
<speed>3.850000</speed>
</trkpt>
<trkpt lat="56.029194" lon="26.462654">
<ele>107.100647</ele>
<time>2010-06-20T10:31:20Z</time>
<desc>lat.=56.029194, lon.=26.462654, Alt.=107.100647m. Speed=14.472000m/h.</desc>
<speed>4.020000</speed>
</trkpt>
<trkpt lat="56.029224" lon="26.462692">
<ele>107.260803</ele>
<time>2010-06-20T10:31:21Z</time>
<desc>lat.=56.029224, lon.=26.462692, Alt.=107.260803m. Speed=14.652000m/h.</desc>
<speed>4.070000</speed>
</trkpt>
<trkpt lat="56.029255" lon="26.462723">
<ele>107.534241</ele>
<time>2010-06-20T10:31:22Z</time>
<desc>lat.=56.029255, lon.=26.462723, Alt.=107.534241m. Speed=11.268000m/h.</desc>
<speed>3.130000</speed>
</trkpt>
<trkpt lat="56.029282" lon="26.462744">
<ele>107.823303</ele>
<time>2010-06-20T10:31:23Z</time>
<desc>lat.=56.029282, lon.=26.462744, Alt.=107.823303m. Speed=12.204000m/h.</desc>
<speed>3.390000</speed>
</trkpt>
<trkpt lat="56.029308" lon="26.462767">
<ele>107.608459</ele>
<time>2010-06-20T10:31:24Z</time>
<desc>lat.=56.029308, lon.=26.462767, Alt.=107.608459m. Speed=12.564000m/h.</desc>
<speed>3.490000</speed>
</trkpt>
<trkpt lat="56.029335" lon="26.462778">
<ele>107.409241</ele>
<time>2010-06-20T10:31:25Z</time>
<desc>lat.=56.029335, lon.=26.462778, Alt.=107.409241m. Speed=11.232000m/h.</desc>
<speed>3.120000</speed>
</trkpt>
<trkpt lat="56.029358" lon="26.462797">
<ele>106.856506</ele>
<time>2010-06-20T10:31:26Z</time>
<desc>lat.=56.029358, lon.=26.462797, Alt.=106.856506m. Speed=11.772000m/h.</desc>
<speed>3.270000</speed>
</trkpt>
<trkpt lat="56.029385" lon="26.462818">
<ele>106.766663</ele>
<time>2010-06-20T10:31:27Z</time>
<desc>lat.=56.029385, lon.=26.462818, Alt.=106.766663m. Speed=11.376000m/h.</desc>
<speed>3.160000</speed>
</trkpt>
<trkpt lat="56.029411" lon="26.462841">
<ele>106.647522</ele>
<time>2010-06-20T10:31:28Z</time>
<desc>lat.=56.029411, lon.=26.462841, Alt.=106.647522m. Speed=10.692000m/h.</desc>
<speed>2.970000</speed>
</trkpt>
<trkpt lat="56.029438" lon="26.462860">
<ele>106.633850</ele>
<time>2010-06-20T10:31:29Z</time>
<desc>lat.=56.029438, lon.=26.462860, Alt.=106.633850m. Speed=11.340000m/h.</desc>
<speed>3.150000</speed>
</trkpt>
<trkpt lat="56.029465" lon="26.462881">
<ele>106.497131</ele>
<time>2010-06-20T10:31:30Z</time>
<desc>lat.=56.029465, lon.=26.462881, Alt.=106.497131m. Speed=11.808000m/h.</desc>
<speed>3.280000</speed>
</trkpt>
<trkpt lat="56.029495" lon="26.462906">
<ele>105.721741</ele>
<time>2010-06-20T10:31:31Z</time>
<desc>lat.=56.029495, lon.=26.462906, Alt.=105.721741m. Speed=13.536000m/h.</desc>
<speed>3.760000</speed>
</trkpt>
<trkpt lat="56.029530" lon="26.462934">
<ele>105.424866</ele>
<time>2010-06-20T10:31:32Z</time>
<desc>lat.=56.029530, lon.=26.462934, Alt.=105.424866m. Speed=14.940000m/h.</desc>
<speed>4.150000</speed>
</trkpt>
<trkpt lat="56.029560" lon="26.462957">
<ele>105.272522</ele>
<time>2010-06-20T10:31:33Z</time>
<desc>lat.=56.029560, lon.=26.462957, Alt.=105.272522m. Speed=15.192000m/h.</desc>
<speed>4.220000</speed>
</trkpt>
<trkpt lat="56.029598" lon="26.462980">
<ele>105.094788</ele>
<time>2010-06-20T10:31:34Z</time>
<desc>lat.=56.029598, lon.=26.462980, Alt.=105.094788m. Speed=14.868000m/h.</desc>
<speed>4.130000</speed>
</trkpt>
<trkpt lat="56.029633" lon="26.463007">
<ele>104.936584</ele>
<time>2010-06-20T10:31:35Z</time>
<desc>lat.=56.029633, lon.=26.463007, Alt.=104.936584m. Speed=14.616000m/h.</desc>
<speed>4.060000</speed>
</trkpt>
<trkpt lat="56.029663" lon="26.463034">
<ele>103.210022</ele>
<time>2010-06-20T10:31:36Z</time>
<desc>lat.=56.029663, lon.=26.463034, Alt.=103.210022m. Speed=15.480000m/h.</desc>
<speed>4.300000</speed>
</trkpt>
<trkpt lat="56.029701" lon="26.463064">
<ele>103.303772</ele>
<time>2010-06-20T10:31:37Z</time>
<desc>lat.=56.029701, lon.=26.463064, Alt.=103.303772m. Speed=16.884001m/h.</desc>
<speed>4.690000</speed>
</trkpt>
<trkpt lat="56.029739" lon="26.463097">
<ele>103.333069</ele>
<time>2010-06-20T10:31:38Z</time>
<desc>lat.=56.029739, lon.=26.463097, Alt.=103.333069m. Speed=16.559999m/h.</desc>
<speed>4.600000</speed>
</trkpt>
<trkpt lat="56.029778" lon="26.463139">
<ele>103.659241</ele>
<time>2010-06-20T10:31:39Z</time>
<desc>lat.=56.029778, lon.=26.463139, Alt.=103.659241m. Speed=17.639999m/h.</desc>
<speed>4.900000</speed>
</trkpt>
<trkpt lat="56.029812" lon="26.463177">
<ele>103.624084</ele>
<time>2010-06-20T10:31:40Z</time>
<desc>lat.=56.029812, lon.=26.463177, Alt.=103.624084m. Speed=15.588000m/h.</desc>
<speed>4.330000</speed>
</trkpt>
<trkpt lat="56.029850" lon="26.463205">
<ele>103.635803</ele>
<time>2010-06-20T10:31:41Z</time>
<desc>lat.=56.029850, lon.=26.463205, Alt.=103.635803m. Speed=16.740000m/h.</desc>
<speed>4.650000</speed>
</trkpt>
<trkpt lat="56.029892" lon="26.463243">
<ele>103.979553</ele>
<time>2010-06-20T10:31:42Z</time>
<desc>lat.=56.029892, lon.=26.463243, Alt.=103.979553m. Speed=20.052000m/h.</desc>
<speed>5.570000</speed>
</trkpt>
<trkpt lat="56.029942" lon="26.463280">
<ele>103.995178</ele>
<time>2010-06-20T10:31:43Z</time>
<desc>lat.=56.029942, lon.=26.463280, Alt.=103.995178m. Speed=21.312000m/h.</desc>
<speed>5.920000</speed>
</trkpt>
<trkpt lat="56.029999" lon="26.463308">
<ele>105.188538</ele>
<time>2010-06-20T10:31:44Z</time>
<desc>lat.=56.029999, lon.=26.463308, Alt.=105.188538m. Speed=17.243999m/h.</desc>
<speed>4.790000</speed>
</trkpt>
<trkpt lat="56.030048" lon="26.463343">
<ele>106.147522</ele>
<time>2010-06-20T10:31:45Z</time>
<desc>lat.=56.030048, lon.=26.463343, Alt.=106.147522m. Speed=21.384001m/h.</desc>
<speed>5.940000</speed>
</trkpt>
<trkpt lat="56.030102" lon="26.463377">
<ele>106.258850</ele>
<time>2010-06-20T10:31:46Z</time>
<desc>lat.=56.030102, lon.=26.463377, Alt.=106.258850m. Speed=18.612000m/h.</desc>
<speed>5.170000</speed>
</trkpt>
<trkpt lat="56.030148" lon="26.463409">
<ele>106.100647</ele>
<time>2010-06-20T10:31:47Z</time>
<desc>lat.=56.030148, lon.=26.463409, Alt.=106.100647m. Speed=20.375999m/h.</desc>
<speed>5.660000</speed>
</trkpt>
<trkpt lat="56.030197" lon="26.463444">
<ele>106.143616</ele>
<time>2010-06-20T10:31:48Z</time>
<desc>lat.=56.030197, lon.=26.463444, Alt.=106.143616m. Speed=20.052000m/h.</desc>
<speed>5.570000</speed>
</trkpt>
<trkpt lat="56.030239" lon="26.463476">
<ele>106.151428</ele>
<time>2010-06-20T10:31:49Z</time>
<desc>lat.=56.030239, lon.=26.463476, Alt.=106.151428m. Speed=20.771999m/h.</desc>
<speed>5.770000</speed>
</trkpt>
<trkpt lat="56.030293" lon="26.463516">
<ele>106.670959</ele>
<time>2010-06-20T10:31:50Z</time>
<desc>lat.=56.030293, lon.=26.463516, Alt.=106.670959m. Speed=20.988001m/h.</desc>
<speed>5.830000</speed>
</trkpt>
<trkpt lat="56.030346" lon="26.463562">
<ele>106.795959</ele>
<time>2010-06-20T10:31:51Z</time>
<desc>lat.=56.030346, lon.=26.463562, Alt.=106.795959m. Speed=19.908001m/h.</desc>
<speed>5.530000</speed>
</trkpt>
<trkpt lat="56.030392" lon="26.463602">
<ele>106.620178</ele>
<time>2010-06-20T10:31:52Z</time>
<desc>lat.=56.030392, lon.=26.463602, Alt.=106.620178m. Speed=19.188000m/h.</desc>
<speed>5.330000</speed>
</trkpt>
<trkpt lat="56.030434" lon="26.463640">
<ele>106.094788</ele>
<time>2010-06-20T10:31:53Z</time>
<desc>lat.=56.030434, lon.=26.463640, Alt.=106.094788m. Speed=18.000000m/h.</desc>
<speed>5.000000</speed>
</trkpt>
<trkpt lat="56.030479" lon="26.463684">
<ele>105.547913</ele>
<time>2010-06-20T10:31:54Z</time>
<desc>lat.=56.030479, lon.=26.463684, Alt.=105.547913m. Speed=20.375999m/h.</desc>
<speed>5.660000</speed>
</trkpt>
<trkpt lat="56.030529" lon="26.463718">
<ele>105.465881</ele>
<time>2010-06-20T10:31:55Z</time>
<desc>lat.=56.030529, lon.=26.463718, Alt.=105.465881m. Speed=19.584000m/h.</desc>
<speed>5.440000</speed>
</trkpt>
<trkpt lat="56.030586" lon="26.463753">
<ele>107.602600</ele>
<time>2010-06-20T10:31:56Z</time>
<desc>lat.=56.030586, lon.=26.463753, Alt.=107.602600m. Speed=19.944000m/h.</desc>
<speed>5.540000</speed>
</trkpt>
<trkpt lat="56.030636" lon="26.463789">
<ele>107.739319</ele>
<time>2010-06-20T10:31:57Z</time>
<desc>lat.=56.030636, lon.=26.463789, Alt.=107.739319m. Speed=18.827999m/h.</desc>
<speed>5.230000</speed>
</trkpt>
<trkpt lat="56.030685" lon="26.463823">
<ele>107.651428</ele>
<time>2010-06-20T10:31:58Z</time>
<desc>lat.=56.030685, lon.=26.463823, Alt.=107.651428m. Speed=19.511999m/h.</desc>
<speed>5.420000</speed>
</trkpt>
<trkpt lat="56.030731" lon="26.463854">
<ele>107.756897</ele>
<time>2010-06-20T10:31:59Z</time>
<desc>lat.=56.030731, lon.=26.463854, Alt.=107.756897m. Speed=18.035999m/h.</desc>
<speed>5.010000</speed>
</trkpt>
<trkpt lat="56.030773" lon="26.463873">
<ele>107.303772</ele>
<time>2010-06-20T10:32:00Z</time>
<desc>lat.=56.030773, lon.=26.463873, Alt.=107.303772m. Speed=18.576000m/h.</desc>
<speed>5.160000</speed>
</trkpt>
<trkpt lat="56.030819" lon="26.463903">
<ele>107.573303</ele>
<time>2010-06-20T10:32:01Z</time>
<desc>lat.=56.030819, lon.=26.463903, Alt.=107.573303m. Speed=17.784000m/h.</desc>
<speed>4.940000</speed>
</trkpt>
<trkpt lat="56.030861" lon="26.463932">
<ele>107.674866</ele>
<time>2010-06-20T10:32:02Z</time>
<desc>lat.=56.030861, lon.=26.463932, Alt.=107.674866m. Speed=18.936001m/h.</desc>
<speed>5.260000</speed>
</trkpt>
<trkpt lat="56.030903" lon="26.463963">
<ele>107.127991</ele>
<time>2010-06-20T10:32:03Z</time>
<desc>lat.=56.030903, lon.=26.463963, Alt.=107.127991m. Speed=18.252001m/h.</desc>
<speed>5.070000</speed>
</trkpt>
<trkpt lat="56.030949" lon="26.463997">
<ele>107.063538</ele>
<time>2010-06-20T10:32:04Z</time>
<desc>lat.=56.030949, lon.=26.463997, Alt.=107.063538m. Speed=20.160000m/h.</desc>
<speed>5.600000</speed>
</trkpt>
<trkpt lat="56.030994" lon="26.464035">
<ele>106.930725</ele>
<time>2010-06-20T10:32:05Z</time>
<desc>lat.=56.030994, lon.=26.464035, Alt.=106.930725m. Speed=18.612000m/h.</desc>
<speed>5.170000</speed>
</trkpt>
<trkpt lat="56.031040" lon="26.464069">
<ele>106.741272</ele>
<time>2010-06-20T10:32:06Z</time>
<desc>lat.=56.031040, lon.=26.464069, Alt.=106.741272m. Speed=18.540001m/h.</desc>
<speed>5.150000</speed>
</trkpt>
<trkpt lat="56.031086" lon="26.464109">
<ele>106.583069</ele>
<time>2010-06-20T10:32:07Z</time>
<desc>lat.=56.031086, lon.=26.464109, Alt.=106.583069m. Speed=18.072001m/h.</desc>
<speed>5.020000</speed>
</trkpt>
<trkpt lat="56.031132" lon="26.464136">
<ele>107.461975</ele>
<time>2010-06-20T10:32:08Z</time>
<desc>lat.=56.031132, lon.=26.464136, Alt.=107.461975m. Speed=17.063999m/h.</desc>
<speed>4.740000</speed>
</trkpt>
<trkpt lat="56.031170" lon="26.464161">
<ele>107.272522</ele>
<time>2010-06-20T10:32:09Z</time>
<desc>lat.=56.031170, lon.=26.464161, Alt.=107.272522m. Speed=16.884001m/h.</desc>
<speed>4.690000</speed>
</trkpt>
<trkpt lat="56.031208" lon="26.464182">
<ele>107.321350</ele>
<time>2010-06-20T10:32:10Z</time>
<desc>lat.=56.031208, lon.=26.464182, Alt.=107.321350m. Speed=15.948000m/h.</desc>
<speed>4.430000</speed>
</trkpt>
<trkpt lat="56.031246" lon="26.464207">
<ele>107.294006</ele>
<time>2010-06-20T10:32:11Z</time>
<desc>lat.=56.031246, lon.=26.464207, Alt.=107.294006m. Speed=15.696000m/h.</desc>
<speed>4.360000</speed>
</trkpt>
<trkpt lat="56.031288" lon="26.464237">
<ele>107.729553</ele>
<time>2010-06-20T10:32:12Z</time>
<desc>lat.=56.031288, lon.=26.464237, Alt.=107.729553m. Speed=15.732000m/h.</desc>
<speed>4.370000</speed>
</trkpt>
<trkpt lat="56.031326" lon="26.464266">
<ele>107.676819</ele>
<time>2010-06-20T10:32:13Z</time>
<desc>lat.=56.031326, lon.=26.464266, Alt.=107.676819m. Speed=16.056000m/h.</desc>
<speed>4.460000</speed>
</trkpt>
<trkpt lat="56.031368" lon="26.464300">
<ele>107.840881</ele>
<time>2010-06-20T10:32:14Z</time>
<desc>lat.=56.031368, lon.=26.464300, Alt.=107.840881m. Speed=15.588000m/h.</desc>
<speed>4.330000</speed>
</trkpt>
<trkpt lat="56.031406" lon="26.464333">
<ele>108.991272</ele>
<time>2010-06-20T10:32:15Z</time>
<desc>lat.=56.031406, lon.=26.464333, Alt.=108.991272m. Speed=13.968000m/h.</desc>
<speed>3.880000</speed>
</trkpt>
<trkpt lat="56.031441" lon="26.464355">
<ele>109.163147</ele>
<time>2010-06-20T10:32:16Z</time>
<desc>lat.=56.031441, lon.=26.464355, Alt.=109.163147m. Speed=12.420000m/h.</desc>
<speed>3.450000</speed>
</trkpt>
<trkpt lat="56.031467" lon="26.464375">
<ele>108.667053</ele>
<time>2010-06-20T10:32:17Z</time>
<desc>lat.=56.031467, lon.=26.464375, Alt.=108.667053m. Speed=11.988000m/h.</desc>
<speed>3.330000</speed>
</trkpt>
<trkpt lat="56.031490" lon="26.464396">
<ele>108.206116</ele>
<time>2010-06-20T10:32:18Z</time>
<desc>lat.=56.031490, lon.=26.464396, Alt.=108.206116m. Speed=11.808000m/h.</desc>
<speed>3.280000</speed>
</trkpt>
<trkpt lat="56.031517" lon="26.464418">
<ele>107.934631</ele>
<time>2010-06-20T10:32:19Z</time>
<desc>lat.=56.031517, lon.=26.464418, Alt.=107.934631m. Speed=10.944000m/h.</desc>
<speed>3.040000</speed>
</trkpt>
<trkpt lat="56.031536" lon="26.464443">
<ele>107.098694</ele>
<time>2010-06-20T10:32:20Z</time>
<desc>lat.=56.031536, lon.=26.464443, Alt.=107.098694m. Speed=9.864000m/h.</desc>
<speed>2.740000</speed>
</trkpt>
<trkpt lat="56.031555" lon="26.464466">
<ele>106.752991</ele>
<time>2010-06-20T10:32:21Z</time>
<desc>lat.=56.031555, lon.=26.464466, Alt.=106.752991m. Speed=9.108000m/h.</desc>
<speed>2.530000</speed>
</trkpt>
<trkpt lat="56.031574" lon="26.464487">
<ele>106.430725</ele>
<time>2010-06-20T10:32:22Z</time>
<desc>lat.=56.031574, lon.=26.464487, Alt.=106.430725m. Speed=8.640000m/h.</desc>
<speed>2.400000</speed>
</trkpt>
<trkpt lat="56.031597" lon="26.464499">
<ele>105.309631</ele>
<time>2010-06-20T10:32:23Z</time>
<desc>lat.=56.031597, lon.=26.464499, Alt.=105.309631m. Speed=8.676000m/h.</desc>
<speed>2.410000</speed>
</trkpt>
<trkpt lat="56.031616" lon="26.464506">
<ele>102.756897</ele>
<time>2010-06-20T10:32:24Z</time>
<desc>lat.=56.031616, lon.=26.464506, Alt.=102.756897m. Speed=8.460000m/h.</desc>
<speed>2.350000</speed>
</trkpt>
<trkpt lat="56.031639" lon="26.464518">
<ele>101.348694</ele>
<time>2010-06-20T10:32:25Z</time>
<desc>lat.=56.031639, lon.=26.464518, Alt.=101.348694m. Speed=8.496000m/h.</desc>
<speed>2.360000</speed>
</trkpt>
<trkpt lat="56.031662" lon="26.464533">
<ele>101.350647</ele>
<time>2010-06-20T10:32:26Z</time>
<desc>lat.=56.031662, lon.=26.464533, Alt.=101.350647m. Speed=8.892000m/h.</desc>
<speed>2.470000</speed>
</trkpt>
<trkpt lat="56.031681" lon="26.464542">
<ele>100.407288</ele>
<time>2010-06-20T10:32:27Z</time>
<desc>lat.=56.031681, lon.=26.464542, Alt.=100.407288m. Speed=8.928000m/h.</desc>
<speed>2.480000</speed>
</trkpt>
<trkpt lat="56.031700" lon="26.464560">
<ele>99.358459</ele>
<time>2010-06-20T10:32:28Z</time>
<desc>lat.=56.031700, lon.=26.464560, Alt.=99.358459m. Speed=9.288000m/h.</desc>
<speed>2.580000</speed>
</trkpt>
<trkpt lat="56.031719" lon="26.464579">
<ele>99.280334</ele>
<time>2010-06-20T10:32:29Z</time>
<desc>lat.=56.031719, lon.=26.464579, Alt.=99.280334m. Speed=9.360000m/h.</desc>
<speed>2.600000</speed>
</trkpt>
<trkpt lat="56.031742" lon="26.464592">
<ele>99.153381</ele>
<time>2010-06-20T10:32:30Z</time>
<desc>lat.=56.031742, lon.=26.464592, Alt.=99.153381m. Speed=9.036000m/h.</desc>
<speed>2.510000</speed>
</trkpt>
<trkpt lat="56.031761" lon="26.464605">
<ele>98.301819</ele>
<time>2010-06-20T10:32:31Z</time>
<desc>lat.=56.031761, lon.=26.464605, Alt.=98.301819m. Speed=9.468000m/h.</desc>
<speed>2.630000</speed>
</trkpt>
<trkpt lat="56.031784" lon="26.464621">
<ele>97.831116</ele>
<time>2010-06-20T10:32:32Z</time>
<desc>lat.=56.031784, lon.=26.464621, Alt.=97.831116m. Speed=9.684000m/h.</desc>
<speed>2.690000</speed>
</trkpt>
<trkpt lat="56.031803" lon="26.464636">
<ele>97.635803</ele>
<time>2010-06-20T10:32:33Z</time>
<desc>lat.=56.031803, lon.=26.464636, Alt.=97.635803m. Speed=9.720000m/h.</desc>
<speed>2.700000</speed>
</trkpt>
<trkpt lat="56.031826" lon="26.464649">
<ele>97.262756</ele>
<time>2010-06-20T10:32:34Z</time>
<desc>lat.=56.031826, lon.=26.464649, Alt.=97.262756m. Speed=9.684000m/h.</desc>
<speed>2.690000</speed>
</trkpt>
<trkpt lat="56.031853" lon="26.464661">
<ele>97.721741</ele>
<time>2010-06-20T10:32:35Z</time>
<desc>lat.=56.031853, lon.=26.464661, Alt.=97.721741m. Speed=10.224000m/h.</desc>
<speed>2.840000</speed>
</trkpt>
<trkpt lat="56.031879" lon="26.464678">
<ele>97.870178</ele>
<time>2010-06-20T10:32:36Z</time>
<desc>lat.=56.031879, lon.=26.464678, Alt.=97.870178m. Speed=10.548000m/h.</desc>
<speed>2.930000</speed>
</trkpt>
<trkpt lat="56.031898" lon="26.464695">
<ele>97.309631</ele>
<time>2010-06-20T10:32:37Z</time>
<desc>lat.=56.031898, lon.=26.464695, Alt.=97.309631m. Speed=9.684000m/h.</desc>
<speed>2.690000</speed>
</trkpt>
<trkpt lat="56.031918" lon="26.464714">
<ele>97.512756</ele>
<time>2010-06-20T10:32:38Z</time>
<desc>lat.=56.031918, lon.=26.464714, Alt.=97.512756m. Speed=8.676000m/h.</desc>
<speed>2.410000</speed>
</trkpt>
<trkpt lat="56.031937" lon="26.464731">
<ele>97.317444</ele>
<time>2010-06-20T10:32:39Z</time>
<desc>lat.=56.031937, lon.=26.464731, Alt.=97.317444m. Speed=7.992000m/h.</desc>
<speed>2.220000</speed>
</trkpt>
<trkpt lat="56.031952" lon="26.464748">
<ele>96.713928</ele>
<time>2010-06-20T10:32:40Z</time>
<desc>lat.=56.031952, lon.=26.464748, Alt.=96.713928m. Speed=7.560000m/h.</desc>
<speed>2.100000</speed>
</trkpt>
<trkpt lat="56.031971" lon="26.464762">
<ele>96.702209</ele>
<time>2010-06-20T10:32:41Z</time>
<desc>lat.=56.031971, lon.=26.464762, Alt.=96.702209m. Speed=6.768000m/h.</desc>
<speed>1.880000</speed>
</trkpt>
<trkpt lat="56.031986" lon="26.464769">
<ele>96.647522</ele>
<time>2010-06-20T10:32:42Z</time>
<desc>lat.=56.031986, lon.=26.464769, Alt.=96.647522m. Speed=5.724000m/h.</desc>
<speed>1.590000</speed>
</trkpt>
<trkpt lat="56.031994" lon="26.464762">
<ele>96.350647</ele>
<time>2010-06-20T10:32:43Z</time>
<desc>lat.=56.031994, lon.=26.464762, Alt.=96.350647m. Speed=4.644000m/h.</desc>
<speed>1.290000</speed>
</trkpt>
<trkpt lat="56.031998" lon="26.464758">
<ele>96.444397</ele>
<time>2010-06-20T10:32:44Z</time>
<desc>lat.=56.031998, lon.=26.464758, Alt.=96.444397m. Speed=2.340000m/h.</desc>
<speed>0.650000</speed>
</trkpt>
<trkpt lat="56.032001" lon="26.464762">
<ele>96.413147</ele>
<time>2010-06-20T10:32:45Z</time>
<desc>lat.=56.032001, lon.=26.464762, Alt.=96.413147m. Speed=0.108000m/h.</desc>
<speed>0.030000</speed>
</trkpt>
<trkpt lat="56.031998" lon="26.464766">
<ele>96.526428</ele>
<time>2010-06-20T10:32:46Z</time>
<desc>lat.=56.031998, lon.=26.464766, Alt.=96.526428m. Speed=0.108000m/h.</desc>
<speed>0.030000</speed>
</trkpt>
<trkpt lat="56.031998" lon="26.464769">
<ele>96.600647</ele>
<time>2010-06-20T10:32:47Z</time>
<desc>lat.=56.031998, lon.=26.464769, Alt.=96.600647m. Speed=0.036000m/h.</desc>
<speed>0.010000</speed>
</trkpt>
<trkpt lat="56.031998" lon="26.464769">
<ele>96.618225</ele>
<time>2010-06-20T10:32:48Z</time>
<desc>lat.=56.031998, lon.=26.464769, Alt.=96.618225m. Speed=0.000000m/h.</desc>
<speed>0.000000</speed>
</trkpt>
<trkpt lat="56.031998" lon="26.464769">
<ele>96.627991</ele>
<time>2010-06-20T10:32:49Z</time>
<desc>lat.=56.031998, lon.=26.464769, Alt.=96.627991m. Speed=0.000000m/h.</desc>
<speed>0.000000</speed>
</trkpt>
<trkpt lat="56.031998" lon="26.464769">
<ele>96.629944</ele>
<time>2010-06-20T10:32:50Z</time>
<desc>lat.=56.031998, lon.=26.464769, Alt.=96.629944m. Speed=0.000000m/h.</desc>
<speed>0.000000</speed>
</trkpt>
<trkpt lat="56.031998" lon="26.464769">
<ele>96.616272</ele>
<time>2010-06-20T10:32:51Z</time>
<desc>lat.=56.031998, lon.=26.464769, Alt.=96.616272m. Speed=0.000000m/h.</desc>
<speed>0.000000</speed>
</trkpt>
<trkpt lat="56.031998" lon="26.464769">
<ele>96.614319</ele>
<time>2010-06-20T10:32:52Z</time>
<desc>lat.=56.031998, lon.=26.464769, Alt.=96.614319m. Speed=0.000000m/h.</desc>
<speed>0.000000</speed>
</trkpt>
<trkpt lat="56.031998" lon="26.464769">
<ele>96.610413</ele>
<time>2010-06-20T10:32:53Z</time>
<desc>lat.=56.031998, lon.=26.464769, Alt.=96.610413m. Speed=0.036000m/h.</desc>
<speed>0.010000</speed>
</trkpt>
<trkpt lat="56.031998" lon="26.464769">
<ele>96.600647</ele>
<time>2010-06-20T10:32:54Z</time>
<desc>lat.=56.031998, lon.=26.464769, Alt.=96.600647m. Speed=0.000000m/h.</desc>
<speed>0.000000</speed>
</trkpt>
<trkpt lat="56.031998" lon="26.464769">
<ele>96.592834</ele>
<time>2010-06-20T10:32:55Z</time>
<desc>lat.=56.031998, lon.=26.464769, Alt.=96.592834m. Speed=0.000000m/h.</desc>
<speed>0.000000</speed>
</trkpt>
<trkpt lat="56.031998" lon="26.464769">
<ele>96.590881</ele>
<time>2010-06-20T10:32:56Z</time>
<desc>lat.=56.031998, lon.=26.464769, Alt.=96.590881m. Speed=0.000000m/h.</desc>
<speed>0.000000</speed>
</trkpt>
<trkpt lat="56.031998" lon="26.464769">
<ele>96.577209</ele>
<time>2010-06-20T10:32:57Z</time>
<desc>lat.=56.031998, lon.=26.464769, Alt.=96.577209m. Speed=0.000000m/h.</desc>
<speed>0.000000</speed>
</trkpt>
<trkpt lat="56.031998" lon="26.464769">
<ele>96.575256</ele>
<time>2010-06-20T10:32:58Z</time>
<desc>lat.=56.031998, lon.=26.464769, Alt.=96.575256m. Speed=0.000000m/h.</desc>
<speed>0.000000</speed>
</trkpt>
<trkpt lat="56.031998" lon="26.464769">
<ele>96.577209</ele>
<time>2010-06-20T10:32:59Z</time>
<desc>lat.=56.031998, lon.=26.464769, Alt.=96.577209m. Speed=0.000000m/h.</desc>
<speed>0.000000</speed>
</trkpt>
<trkpt lat="56.031998" lon="26.464769">
<ele>96.583069</ele>
<time>2010-06-20T10:33:00Z</time>
<desc>lat.=56.031998, lon.=26.464769, Alt.=96.583069m. Speed=0.000000m/h.</desc>
<speed>0.000000</speed>
</trkpt>
<trkpt lat="56.031998" lon="26.464769">
<ele>96.583069</ele>
<time>2010-06-20T10:33:01Z</time>
<desc>lat.=56.031998, lon.=26.464769, Alt.=96.583069m. Speed=0.036000m/h.</desc>
<speed>0.010000</speed>
</trkpt>
<trkpt lat="56.031998" lon="26.464769">
<ele>96.585022</ele>
<time>2010-06-20T10:33:02Z</time>
<desc>lat.=56.031998, lon.=26.464769, Alt.=96.585022m. Speed=0.072000m/h.</desc>
<speed>0.020000</speed>
</trkpt>
<trkpt lat="56.031998" lon="26.464771">
<ele>96.618225</ele>
<time>2010-06-20T10:33:03Z</time>
<desc>lat.=56.031998, lon.=26.464771, Alt.=96.618225m. Speed=0.684000m/h.</desc>
<speed>0.190000</speed>
</trkpt>
<trkpt lat="56.031998" lon="26.464773">
<ele>96.647522</ele>
<time>2010-06-20T10:33:04Z</time>
<desc>lat.=56.031998, lon.=26.464773, Alt.=96.647522m. Speed=0.720000m/h.</desc>
<speed>0.200000</speed>
</trkpt>
<trkpt lat="56.031998" lon="26.464777">
<ele>96.669006</ele>
<time>2010-06-20T10:33:05Z</time>
<desc>lat.=56.031998, lon.=26.464777, Alt.=96.669006m. Speed=0.576000m/h.</desc>
<speed>0.160000</speed>
</trkpt>
<trkpt lat="56.032001" lon="26.464775">
<ele>96.678772</ele>
<time>2010-06-20T10:33:06Z</time>
<desc>lat.=56.032001, lon.=26.464775, Alt.=96.678772m. Speed=3.168000m/h.</desc>
<speed>0.880000</speed>
</trkpt>
<trkpt lat="56.032001" lon="26.464760">
<ele>96.686584</ele>
<time>2010-06-20T10:33:07Z</time>
<desc>lat.=56.032001, lon.=26.464760, Alt.=96.686584m. Speed=6.516000m/h.</desc>
<speed>1.810000</speed>
</trkpt>
<trkpt lat="56.031998" lon="26.464731">
<ele>96.768616</ele>
<time>2010-06-20T10:33:08Z</time>
<desc>lat.=56.031998, lon.=26.464731, Alt.=96.768616m. Speed=6.840000m/h.</desc>
<speed>1.900000</speed>
</trkpt>
<trkpt lat="56.031994" lon="26.464708">
<ele>96.924866</ele>
<time>2010-06-20T10:33:09Z</time>
<desc>lat.=56.031994, lon.=26.464708, Alt.=96.924866m. Speed=5.724000m/h.</desc>
<speed>1.590000</speed>
</trkpt>
<trkpt lat="56.031990" lon="26.464685">
<ele>97.100647</ele>
<time>2010-06-20T10:33:10Z</time>
<desc>lat.=56.031990, lon.=26.464685, Alt.=97.100647m. Speed=5.328000m/h.</desc>
<speed>1.480000</speed>
</trkpt>
<trkpt lat="56.031990" lon="26.464663">
<ele>97.288147</ele>
<time>2010-06-20T10:33:11Z</time>
<desc>lat.=56.031990, lon.=26.464663, Alt.=97.288147m. Speed=5.940000m/h.</desc>
<speed>1.650000</speed>
</trkpt>
<trkpt lat="56.031986" lon="26.464636">
<ele>97.411194</ele>
<time>2010-06-20T10:33:12Z</time>
<desc>lat.=56.031986, lon.=26.464636, Alt.=97.411194m. Speed=5.724000m/h.</desc>
<speed>1.590000</speed>
</trkpt>
<trkpt lat="56.031990" lon="26.464607">
<ele>97.667053</ele>
<time>2010-06-20T10:33:13Z</time>
<desc>lat.=56.031990, lon.=26.464607, Alt.=97.667053m. Speed=7.308000m/h.</desc>
<speed>2.030000</speed>
</trkpt>
<trkpt lat="56.031994" lon="26.464575">
<ele>97.844788</ele>
<time>2010-06-20T10:33:14Z</time>
<desc>lat.=56.031994, lon.=26.464575, Alt.=97.844788m. Speed=8.208000m/h.</desc>
<speed>2.280000</speed>
</trkpt>
<trkpt lat="56.032005" lon="26.464544">
<ele>97.993225</ele>
<time>2010-06-20T10:33:15Z</time>
<desc>lat.=56.032005, lon.=26.464544, Alt.=97.993225m. Speed=9.144000m/h.</desc>
<speed>2.540000</speed>
</trkpt>
<trkpt lat="56.032017" lon="26.464510">
<ele>98.040100</ele>
<time>2010-06-20T10:33:16Z</time>
<desc>lat.=56.032017, lon.=26.464510, Alt.=98.040100m. Speed=10.548000m/h.</desc>
<speed>2.930000</speed>
</trkpt>
<trkpt lat="56.032032" lon="26.464464">
<ele>98.432678</ele>
<time>2010-06-20T10:33:17Z</time>
<desc>lat.=56.032032, lon.=26.464464, Alt.=98.432678m. Speed=11.844000m/h.</desc>
<speed>3.290000</speed>
</trkpt>
<trkpt lat="56.032047" lon="26.464424">
<ele>98.534241</ele>
<time>2010-06-20T10:33:18Z</time>
<desc>lat.=56.032047, lon.=26.464424, Alt.=98.534241m. Speed=11.088000m/h.</desc>
<speed>3.080000</speed>
</trkpt>
<trkpt lat="56.032059" lon="26.464375">
<ele>99.467834</ele>
<time>2010-06-20T10:33:19Z</time>
<desc>lat.=56.032059, lon.=26.464375, Alt.=99.467834m. Speed=10.332000m/h.</desc>
<speed>2.870000</speed>
</trkpt>
<trkpt lat="56.032066" lon="26.464331">
<ele>100.086975</ele>
<time>2010-06-20T10:33:20Z</time>
<desc>lat.=56.032066, lon.=26.464331, Alt.=100.086975m. Speed=9.252000m/h.</desc>
<speed>2.570000</speed>
</trkpt>
<trkpt lat="56.032078" lon="26.464291">
<ele>100.446350</ele>
<time>2010-06-20T10:33:21Z</time>
<desc>lat.=56.032078, lon.=26.464291, Alt.=100.446350m. Speed=10.728000m/h.</desc>
<speed>2.980000</speed>
</trkpt>
<trkpt lat="56.032101" lon="26.464251">
<ele>102.719788</ele>
<time>2010-06-20T10:33:22Z</time>
<desc>lat.=56.032101, lon.=26.464251, Alt.=102.719788m. Speed=10.260000m/h.</desc>
<speed>2.850000</speed>
</trkpt>
<trkpt lat="56.032120" lon="26.464228">
<ele>102.692444</ele>
<time>2010-06-20T10:33:23Z</time>
<desc>lat.=56.032120, lon.=26.464228, Alt.=102.692444m. Speed=8.028000m/h.</desc>
<speed>2.230000</speed>
</trkpt>
<trkpt lat="56.032146" lon="26.464222">
<ele>102.887756</ele>
<time>2010-06-20T10:33:24Z</time>
<desc>lat.=56.032146, lon.=26.464222, Alt.=102.887756m. Speed=10.692000m/h.</desc>
<speed>2.970000</speed>
</trkpt>
<trkpt lat="56.032177" lon="26.464230">
<ele>103.754944</ele>
<time>2010-06-20T10:33:25Z</time>
<desc>lat.=56.032177, lon.=26.464230, Alt.=103.754944m. Speed=13.284000m/h.</desc>
<speed>3.690000</speed>
</trkpt>
<trkpt lat="56.032211" lon="26.464241">
<ele>103.874084</ele>
<time>2010-06-20T10:33:26Z</time>
<desc>lat.=56.032211, lon.=26.464241, Alt.=103.874084m. Speed=14.832000m/h.</desc>
<speed>4.120000</speed>
</trkpt>
<trkpt lat="56.032253" lon="26.464245">
<ele>104.073303</ele>
<time>2010-06-20T10:33:27Z</time>
<desc>lat.=56.032253, lon.=26.464245, Alt.=104.073303m. Speed=17.028000m/h.</desc>
<speed>4.730000</speed>
</trkpt>
<trkpt lat="56.032299" lon="26.464249">
<ele>103.465881</ele>
<time>2010-06-20T10:33:28Z</time>
<desc>lat.=56.032299, lon.=26.464249, Alt.=103.465881m. Speed=17.100000m/h.</desc>
<speed>4.750000</speed>
</trkpt>
<trkpt lat="56.032341" lon="26.464252">
<ele>103.323303</ele>
<time>2010-06-20T10:33:29Z</time>
<desc>lat.=56.032341, lon.=26.464252, Alt.=103.323303m. Speed=17.712000m/h.</desc>
<speed>4.920000</speed>
</trkpt>
<trkpt lat="56.032387" lon="26.464264">
<ele>103.178772</ele>
<time>2010-06-20T10:33:30Z</time>
<desc>lat.=56.032387, lon.=26.464264, Alt.=103.178772m. Speed=17.459999m/h.</desc>
<speed>4.850000</speed>
</trkpt>
<trkpt lat="56.032433" lon="26.464275">
<ele>103.313538</ele>
<time>2010-06-20T10:33:31Z</time>
<desc>lat.=56.032433, lon.=26.464275, Alt.=103.313538m. Speed=17.568001m/h.</desc>
<speed>4.880000</speed>
</trkpt>
<trkpt lat="56.032478" lon="26.464291">
<ele>103.133850</ele>
<time>2010-06-20T10:33:32Z</time>
<desc>lat.=56.032478, lon.=26.464291, Alt.=103.133850m. Speed=18.000000m/h.</desc>
<speed>5.000000</speed>
</trkpt>
<trkpt lat="56.032516" lon="26.464302">
<ele>102.909241</ele>
<time>2010-06-20T10:33:33Z</time>
<desc>lat.=56.032516, lon.=26.464302, Alt.=102.909241m. Speed=17.892000m/h.</desc>
<speed>4.970000</speed>
</trkpt>
<trkpt lat="56.032562" lon="26.464312">
<ele>102.969788</ele>
<time>2010-06-20T10:33:34Z</time>
<desc>lat.=56.032562, lon.=26.464312, Alt.=102.969788m. Speed=17.856001m/h.</desc>
<speed>4.960000</speed>
</trkpt>
<trkpt lat="56.032604" lon="26.464319">
<ele>102.497131</ele>
<time>2010-06-20T10:33:35Z</time>
<desc>lat.=56.032604, lon.=26.464319, Alt.=102.497131m. Speed=17.964001m/h.</desc>
<speed>4.990000</speed>
</trkpt>
<trkpt lat="56.032646" lon="26.464319">
<ele>102.463928</ele>
<time>2010-06-20T10:33:36Z</time>
<desc>lat.=56.032646, lon.=26.464319, Alt.=102.463928m. Speed=17.784000m/h.</desc>
<speed>4.940000</speed>
</trkpt>
<trkpt lat="56.032692" lon="26.464321">
<ele>102.973694</ele>
<time>2010-06-20T10:33:37Z</time>
<desc>lat.=56.032692, lon.=26.464321, Alt.=102.973694m. Speed=17.424000m/h.</desc>
<speed>4.840000</speed>
</trkpt>
<trkpt lat="56.032734" lon="26.464329">
<ele>102.985413</ele>
<time>2010-06-20T10:33:38Z</time>
<desc>lat.=56.032734, lon.=26.464329, Alt.=102.985413m. Speed=17.532000m/h.</desc>
<speed>4.870000</speed>
</trkpt>
<trkpt lat="56.032776" lon="26.464338">
<ele>102.981506</ele>
<time>2010-06-20T10:33:39Z</time>
<desc>lat.=56.032776, lon.=26.464338, Alt.=102.981506m. Speed=17.136000m/h.</desc>
<speed>4.760000</speed>
</trkpt>
<trkpt lat="56.032818" lon="26.464340">
<ele>102.688538</ele>
<time>2010-06-20T10:33:40Z</time>
<desc>lat.=56.032818, lon.=26.464340, Alt.=102.688538m. Speed=16.632000m/h.</desc>
<speed>4.620000</speed>
</trkpt>
<trkpt lat="56.032856" lon="26.464334">
<ele>102.129944</ele>
<time>2010-06-20T10:33:41Z</time>
<desc>lat.=56.032856, lon.=26.464334, Alt.=102.129944m. Speed=16.379999m/h.</desc>
<speed>4.550000</speed>
</trkpt>
<trkpt lat="56.032894" lon="26.464325">
<ele>101.794006</ele>
<time>2010-06-20T10:33:42Z</time>
<desc>lat.=56.032894, lon.=26.464325, Alt.=101.794006m. Speed=16.236000m/h.</desc>
<speed>4.510000</speed>
</trkpt>
<trkpt lat="56.032928" lon="26.464314">
<ele>101.153381</ele>
<time>2010-06-20T10:33:43Z</time>
<desc>lat.=56.032928, lon.=26.464314, Alt.=101.153381m. Speed=16.020000m/h.</desc>
<speed>4.450000</speed>
</trkpt>
<trkpt lat="56.032967" lon="26.464304">
<ele>100.706116</ele>
<time>2010-06-20T10:33:44Z</time>
<desc>lat.=56.032967, lon.=26.464304, Alt.=100.706116m. Speed=15.696000m/h.</desc>
<speed>4.360000</speed>
</trkpt>
<trkpt lat="56.033005" lon="26.464304">
<ele>100.911194</ele>
<time>2010-06-20T10:33:45Z</time>
<desc>lat.=56.033005, lon.=26.464304, Alt.=100.911194m. Speed=15.444000m/h.</desc>
<speed>4.290000</speed>
</trkpt>
<trkpt lat="56.033047" lon="26.464294">
<ele>101.051819</ele>
<time>2010-06-20T10:33:46Z</time>
<desc>lat.=56.033047, lon.=26.464294, Alt.=101.051819m. Speed=15.804000m/h.</desc>
<speed>4.390000</speed>
</trkpt>
<trkpt lat="56.033081" lon="26.464279">
<ele>100.987366</ele>
<time>2010-06-20T10:33:47Z</time>
<desc>lat.=56.033081, lon.=26.464279, Alt.=100.987366m. Speed=14.292000m/h.</desc>
<speed>3.970000</speed>
</trkpt>
<trkpt lat="56.033112" lon="26.464258">
<ele>100.797913</ele>
<time>2010-06-20T10:33:48Z</time>
<desc>lat.=56.033112, lon.=26.464258, Alt.=100.797913m. Speed=15.300000m/h.</desc>
<speed>4.250000</speed>
</trkpt>
<trkpt lat="56.033150" lon="26.464233">
<ele>100.512756</ele>
<time>2010-06-20T10:33:49Z</time>
<desc>lat.=56.033150, lon.=26.464233, Alt.=100.512756m. Speed=15.372000m/h.</desc>
<speed>4.270000</speed>
</trkpt>
<trkpt lat="56.033184" lon="26.464209">
<ele>100.643616</ele>
<time>2010-06-20T10:33:50Z</time>
<desc>lat.=56.033184, lon.=26.464209, Alt.=100.643616m. Speed=15.876000m/h.</desc>
<speed>4.410000</speed>
</trkpt>
<trkpt lat="56.033222" lon="26.464186">
<ele>100.442444</ele>
<time>2010-06-20T10:33:51Z</time>
<desc>lat.=56.033222, lon.=26.464186, Alt.=100.442444m. Speed=15.516000m/h.</desc>
<speed>4.310000</speed>
</trkpt>
<trkpt lat="56.033260" lon="26.464163">
<ele>100.479553</ele>
<time>2010-06-20T10:33:52Z</time>
<desc>lat.=56.033260, lon.=26.464163, Alt.=100.479553m. Speed=15.192000m/h.</desc>
<speed>4.220000</speed>
</trkpt>
<trkpt lat="56.033295" lon="26.464144">
<ele>100.631897</ele>
<time>2010-06-20T10:33:53Z</time>
<desc>lat.=56.033295, lon.=26.464144, Alt.=100.631897m. Speed=15.012000m/h.</desc>
<speed>4.170000</speed>
</trkpt>
<trkpt lat="56.033333" lon="26.464117">
<ele>100.805725</ele>
<time>2010-06-20T10:33:54Z</time>
<desc>lat.=56.033333, lon.=26.464117, Alt.=100.805725m. Speed=14.364000m/h.</desc>
<speed>3.990000</speed>
</trkpt>
<trkpt lat="56.033367" lon="26.464088">
<ele>100.799866</ele>
<time>2010-06-20T10:33:55Z</time>
<desc>lat.=56.033367, lon.=26.464088, Alt.=100.799866m. Speed=13.572000m/h.</desc>
<speed>3.770000</speed>
</trkpt>
<trkpt lat="56.033398" lon="26.464058">
<ele>101.055725</ele>
<time>2010-06-20T10:33:56Z</time>
<desc>lat.=56.033398, lon.=26.464058, Alt.=101.055725m. Speed=13.788000m/h.</desc>
<speed>3.830000</speed>
</trkpt>
<trkpt lat="56.033436" lon="26.464027">
<ele>102.393616</ele>
<time>2010-06-20T10:33:57Z</time>
<desc>lat.=56.033436, lon.=26.464027, Alt.=102.393616m. Speed=13.572000m/h.</desc>
<speed>3.770000</speed>
</trkpt>
<trkpt lat="56.033470" lon="26.464001">
<ele>102.751038</ele>
<time>2010-06-20T10:33:58Z</time>
<desc>lat.=56.033470, lon.=26.464001, Alt.=102.751038m. Speed=13.068000m/h.</desc>
<speed>3.630000</speed>
</trkpt>
<trkpt lat="56.033501" lon="26.463974">
<ele>103.290100</ele>
<time>2010-06-20T10:33:59Z</time>
<desc>lat.=56.033501, lon.=26.463974, Alt.=103.290100m. Speed=12.780000m/h.</desc>
<speed>3.550000</speed>
</trkpt>
<trkpt lat="56.033527" lon="26.463951">
<ele>103.243225</ele>
<time>2010-06-20T10:34:00Z</time>
<desc>lat.=56.033527, lon.=26.463951, Alt.=103.243225m. Speed=12.312000m/h.</desc>
<speed>3.420000</speed>
</trkpt>
<trkpt lat="56.033554" lon="26.463932">
<ele>103.176819</ele>
<time>2010-06-20T10:34:01Z</time>
<desc>lat.=56.033554, lon.=26.463932, Alt.=103.176819m. Speed=11.196000m/h.</desc>
<speed>3.110000</speed>
</trkpt>
<trkpt lat="56.033577" lon="26.463917">
<ele>103.319397</ele>
<time>2010-06-20T10:34:02Z</time>
<desc>lat.=56.033577, lon.=26.463917, Alt.=103.319397m. Speed=9.180000m/h.</desc>
<speed>2.550000</speed>
</trkpt>
<trkpt lat="56.033592" lon="26.463896">
<ele>103.163147</ele>
<time>2010-06-20T10:34:03Z</time>
<desc>lat.=56.033592, lon.=26.463896, Alt.=103.163147m. Speed=10.656000m/h.</desc>
<speed>2.960000</speed>
</trkpt>
<trkpt lat="56.033619" lon="26.463877">
<ele>103.631897</ele>
<time>2010-06-20T10:34:04Z</time>
<desc>lat.=56.033619, lon.=26.463877, Alt.=103.631897m. Speed=11.016000m/h.</desc>
<speed>3.060000</speed>
</trkpt>
<trkpt lat="56.033646" lon="26.463850">
<ele>104.327209</ele>
<time>2010-06-20T10:34:05Z</time>
<desc>lat.=56.033646, lon.=26.463850, Alt.=104.327209m. Speed=11.412000m/h.</desc>
<speed>3.170000</speed>
</trkpt>
<trkpt lat="56.033669" lon="26.463820">
<ele>104.239319</ele>
<time>2010-06-20T10:34:06Z</time>
<desc>lat.=56.033669, lon.=26.463820, Alt.=104.239319m. Speed=12.276000m/h.</desc>
<speed>3.410000</speed>
</trkpt>
<trkpt lat="56.033695" lon="26.463789">
<ele>104.645569</ele>
<time>2010-06-20T10:34:07Z</time>
<desc>lat.=56.033695, lon.=26.463789, Alt.=104.645569m. Speed=11.412000m/h.</desc>
<speed>3.170000</speed>
</trkpt>
<trkpt lat="56.033718" lon="26.463762">
<ele>104.608459</ele>
<time>2010-06-20T10:34:08Z</time>
<desc>lat.=56.033718, lon.=26.463762, Alt.=104.608459m. Speed=12.276000m/h.</desc>
<speed>3.410000</speed>
</trkpt>
<trkpt lat="56.033749" lon="26.463739">
<ele>104.727600</ele>
<time>2010-06-20T10:34:09Z</time>
<desc>lat.=56.033749, lon.=26.463739, Alt.=104.727600m. Speed=11.592000m/h.</desc>
<speed>3.220000</speed>
</trkpt>
<trkpt lat="56.033779" lon="26.463717">
<ele>104.858459</ele>
<time>2010-06-20T10:34:10Z</time>
<desc>lat.=56.033779, lon.=26.463717, Alt.=104.858459m. Speed=14.760000m/h.</desc>
<speed>4.100000</speed>
</trkpt>
<trkpt lat="56.033817" lon="26.463690">
<ele>105.741272</ele>
<time>2010-06-20T10:34:11Z</time>
<desc>lat.=56.033817, lon.=26.463690, Alt.=105.741272m. Speed=15.012000m/h.</desc>
<speed>4.170000</speed>
</trkpt>
<trkpt lat="56.033855" lon="26.463661">
<ele>105.770569</ele>
<time>2010-06-20T10:34:12Z</time>
<desc>lat.=56.033855, lon.=26.463661, Alt.=105.770569m. Speed=15.768000m/h.</desc>
<speed>4.380000</speed>
</trkpt>
<trkpt lat="56.033890" lon="26.463631">
<ele>106.426819</ele>
<time>2010-06-20T10:34:13Z</time>
<desc>lat.=56.033890, lon.=26.463631, Alt.=106.426819m. Speed=14.292000m/h.</desc>
<speed>3.970000</speed>
</trkpt>
<trkpt lat="56.033924" lon="26.463598">
<ele>106.461975</ele>
<time>2010-06-20T10:34:14Z</time>
<desc>lat.=56.033924, lon.=26.463598, Alt.=106.461975m. Speed=14.796000m/h.</desc>
<speed>4.110000</speed>
</trkpt>
<trkpt lat="56.033958" lon="26.463558">
<ele>106.639709</ele>
<time>2010-06-20T10:34:15Z</time>
<desc>lat.=56.033958, lon.=26.463558, Alt.=106.639709m. Speed=13.536000m/h.</desc>
<speed>3.760000</speed>
</trkpt>
<trkpt lat="56.033985" lon="26.463522">
<ele>106.690491</ele>
<time>2010-06-20T10:34:16Z</time>
<desc>lat.=56.033985, lon.=26.463522, Alt.=106.690491m. Speed=12.168000m/h.</desc>
<speed>3.380000</speed>
</trkpt>
<trkpt lat="56.034016" lon="26.463497">
<ele>106.399475</ele>
<time>2010-06-20T10:34:17Z</time>
<desc>lat.=56.034016, lon.=26.463497, Alt.=106.399475m. Speed=12.348000m/h.</desc>
<speed>3.430000</speed>
</trkpt>
<trkpt lat="56.034042" lon="26.463480">
<ele>106.249084</ele>
<time>2010-06-20T10:34:18Z</time>
<desc>lat.=56.034042, lon.=26.463480, Alt.=106.249084m. Speed=11.520000m/h.</desc>
<speed>3.200000</speed>
</trkpt>
<trkpt lat="56.034069" lon="26.463453">
<ele>106.551819</ele>
<time>2010-06-20T10:34:19Z</time>
<desc>lat.=56.034069, lon.=26.463453, Alt.=106.551819m. Speed=9.576000m/h.</desc>
<speed>2.660000</speed>
</trkpt>
<trkpt lat="56.034088" lon="26.463434">
<ele>105.950256</ele>
<time>2010-06-20T10:34:20Z</time>
<desc>lat.=56.034088, lon.=26.463434, Alt.=105.950256m. Speed=8.496000m/h.</desc>
<speed>2.360000</speed>
</trkpt>
<trkpt lat="56.034111" lon="26.463421">
<ele>105.635803</ele>
<time>2010-06-20T10:34:21Z</time>
<desc>lat.=56.034111, lon.=26.463421, Alt.=105.635803m. Speed=9.540000m/h.</desc>
<speed>2.650000</speed>
</trkpt>
<trkpt lat="56.034134" lon="26.463402">
<ele>104.971741</ele>
<time>2010-06-20T10:34:22Z</time>
<desc>lat.=56.034134, lon.=26.463402, Alt.=104.971741m. Speed=9.252000m/h.</desc>
<speed>2.570000</speed>
</trkpt>
<trkpt lat="56.034157" lon="26.463385">
<ele>103.735413</ele>
<time>2010-06-20T10:34:23Z</time>
<desc>lat.=56.034157, lon.=26.463385, Alt.=103.735413m. Speed=10.944000m/h.</desc>
<speed>3.040000</speed>
</trkpt>
<trkpt lat="56.034187" lon="26.463358">
<ele>102.260803</ele>
<time>2010-06-20T10:34:24Z</time>
<desc>lat.=56.034187, lon.=26.463358, Alt.=102.260803m. Speed=11.016000m/h.</desc>
<speed>3.060000</speed>
</trkpt>
<trkpt lat="56.034210" lon="26.463337">
<ele>100.327209</ele>
<time>2010-06-20T10:34:25Z</time>
<desc>lat.=56.034210, lon.=26.463337, Alt.=100.327209m. Speed=9.972000m/h.</desc>
<speed>2.770000</speed>
</trkpt>
<trkpt lat="56.034237" lon="26.463310">
<ele>99.479553</ele>
<time>2010-06-20T10:34:26Z</time>
<desc>lat.=56.034237, lon.=26.463310, Alt.=99.479553m. Speed=9.180000m/h.</desc>
<speed>2.550000</speed>
</trkpt>
<trkpt lat="56.034260" lon="26.463276">
<ele>97.663147</ele>
<time>2010-06-20T10:34:27Z</time>
<desc>lat.=56.034260, lon.=26.463276, Alt.=97.663147m. Speed=10.404000m/h.</desc>
<speed>2.890000</speed>
</trkpt>
<trkpt lat="56.034275" lon="26.463251">
<ele>96.469788</ele>
<time>2010-06-20T10:34:28Z</time>
<desc>lat.=56.034275, lon.=26.463251, Alt.=96.469788m. Speed=8.172000m/h.</desc>
<speed>2.270000</speed>
</trkpt>
<trkpt lat="56.034298" lon="26.463232">
<ele>96.108459</ele>
<time>2010-06-20T10:34:29Z</time>
<desc>lat.=56.034298, lon.=26.463232, Alt.=96.108459m. Speed=7.524000m/h.</desc>
<speed>2.090000</speed>
</trkpt>
<trkpt lat="56.034313" lon="26.463202">
<ele>95.376038</ele>
<time>2010-06-20T10:34:30Z</time>
<desc>lat.=56.034313, lon.=26.463202, Alt.=95.376038m. Speed=9.144000m/h.</desc>
<speed>2.540000</speed>
</trkpt>
<trkpt lat="56.034328" lon="26.463177">
<ele>94.479553</ele>
<time>2010-06-20T10:34:31Z</time>
<desc>lat.=56.034328, lon.=26.463177, Alt.=94.479553m. Speed=8.100000m/h.</desc>
<speed>2.250000</speed>
</trkpt>
<trkpt lat="56.034355" lon="26.463154">
<ele>92.620178</ele>
<time>2010-06-20T10:34:32Z</time>
<desc>lat.=56.034355, lon.=26.463154, Alt.=92.620178m. Speed=10.044000m/h.</desc>
<speed>2.790000</speed>
</trkpt>
<trkpt lat="56.034386" lon="26.463127">
<ele>92.120178</ele>
<time>2010-06-20T10:34:33Z</time>
<desc>lat.=56.034386, lon.=26.463127, Alt.=92.120178m. Speed=8.388000m/h.</desc>
<speed>2.330000</speed>
</trkpt>
<trkpt lat="56.034416" lon="26.463100">
<ele>90.913147</ele>
<time>2010-06-20T10:34:34Z</time>
<desc>lat.=56.034416, lon.=26.463100, Alt.=90.913147m. Speed=10.116000m/h.</desc>
<speed>2.810000</speed>
</trkpt>
<trkpt lat="56.034451" lon="26.463058">
<ele>89.670959</ele>
<time>2010-06-20T10:34:35Z</time>
<desc>lat.=56.034451, lon.=26.463058, Alt.=89.670959m. Speed=11.520000m/h.</desc>
<speed>3.200000</speed>
</trkpt>
<trkpt lat="56.034477" lon="26.463022">
<ele>88.622131</ele>
<time>2010-06-20T10:34:36Z</time>
<desc>lat.=56.034477, lon.=26.463022, Alt.=88.622131m. Speed=8.208000m/h.</desc>
<speed>2.280000</speed>
</trkpt>
<trkpt lat="56.034508" lon="26.462976">
<ele>88.575256</ele>
<time>2010-06-20T10:34:37Z</time>
<desc>lat.=56.034508, lon.=26.462976, Alt.=88.575256m. Speed=12.204000m/h.</desc>
<speed>3.390000</speed>
</trkpt>
<trkpt lat="56.034534" lon="26.462940">
<ele>87.833069</ele>
<time>2010-06-20T10:34:38Z</time>
<desc>lat.=56.034534, lon.=26.462940, Alt.=87.833069m. Speed=10.944000m/h.</desc>
<speed>3.040000</speed>
</trkpt>
<trkpt lat="56.034561" lon="26.462908">
<ele>87.139709</ele>
<time>2010-06-20T10:34:39Z</time>
<desc>lat.=56.034561, lon.=26.462908, Alt.=87.139709m. Speed=11.808000m/h.</desc>
<speed>3.280000</speed>
</trkpt>
<trkpt lat="56.034588" lon="26.462879">
<ele>86.409241</ele>
<time>2010-06-20T10:34:40Z</time>
<desc>lat.=56.034588, lon.=26.462879, Alt.=86.409241m. Speed=9.504000m/h.</desc>
<speed>2.640000</speed>
</trkpt>
<trkpt lat="56.034626" lon="26.462858">
<ele>86.268616</ele>
<time>2010-06-20T10:34:41Z</time>
<desc>lat.=56.034626, lon.=26.462858, Alt.=86.268616m. Speed=9.540000m/h.</desc>
<speed>2.650000</speed>
</trkpt>
<trkpt lat="56.034664" lon="26.462831">
<ele>85.461975</ele>
<time>2010-06-20T10:34:42Z</time>
<desc>lat.=56.034664, lon.=26.462831, Alt.=85.461975m. Speed=13.428000m/h.</desc>
<speed>3.730000</speed>
</trkpt>
<trkpt lat="56.034706" lon="26.462799">
<ele>84.864319</ele>
<time>2010-06-20T10:34:43Z</time>
<desc>lat.=56.034706, lon.=26.462799, Alt.=84.864319m. Speed=12.744000m/h.</desc>
<speed>3.540000</speed>
</trkpt>
<trkpt lat="56.034744" lon="26.462774">
<ele>84.444397</ele>
<time>2010-06-20T10:34:44Z</time>
<desc>lat.=56.034744, lon.=26.462774, Alt.=84.444397m. Speed=12.960000m/h.</desc>
<speed>3.600000</speed>
</trkpt>
<trkpt lat="56.034782" lon="26.462744">
<ele>84.444397</ele>
<time>2010-06-20T10:34:45Z</time>
<desc>lat.=56.034782, lon.=26.462744, Alt.=84.444397m. Speed=13.032000m/h.</desc>
<speed>3.620000</speed>
</trkpt>
<trkpt lat="56.034824" lon="26.462713">
<ele>84.604553</ele>
<time>2010-06-20T10:34:46Z</time>
<desc>lat.=56.034824, lon.=26.462713, Alt.=84.604553m. Speed=13.860000m/h.</desc>
<speed>3.850000</speed>
</trkpt>
<trkpt lat="56.034863" lon="26.462687">
<ele>84.883850</ele>
<time>2010-06-20T10:34:47Z</time>
<desc>lat.=56.034863, lon.=26.462687, Alt.=84.883850m. Speed=12.780000m/h.</desc>
<speed>3.550000</speed>
</trkpt>
<trkpt lat="56.034893" lon="26.462664">
<ele>84.413147</ele>
<time>2010-06-20T10:34:48Z</time>
<desc>lat.=56.034893, lon.=26.462664, Alt.=84.413147m. Speed=13.212000m/h.</desc>
<speed>3.670000</speed>
</trkpt>
<trkpt lat="56.034927" lon="26.462635">
<ele>83.325256</ele>
<time>2010-06-20T10:34:49Z</time>
<desc>lat.=56.034927, lon.=26.462635, Alt.=83.325256m. Speed=11.628000m/h.</desc>
<speed>3.230000</speed>
</trkpt>
<trkpt lat="56.034966" lon="26.462612">
<ele>82.762756</ele>
<time>2010-06-20T10:34:50Z</time>
<desc>lat.=56.034966, lon.=26.462612, Alt.=82.762756m. Speed=12.384000m/h.</desc>
<speed>3.440000</speed>
</trkpt>
<trkpt lat="56.035015" lon="26.462580">
<ele>82.733459</ele>
<time>2010-06-20T10:34:51Z</time>
<desc>lat.=56.035015, lon.=26.462580, Alt.=82.733459m. Speed=15.444000m/h.</desc>
<speed>4.290000</speed>
</trkpt>
<trkpt lat="56.035049" lon="26.462536">
<ele>83.260803</ele>
<time>2010-06-20T10:34:52Z</time>
<desc>lat.=56.035049, lon.=26.462536, Alt.=83.260803m. Speed=12.600000m/h.</desc>
<speed>3.500000</speed>
</trkpt>
<trkpt lat="56.035084" lon="26.462500">
<ele>83.333069</ele>
<time>2010-06-20T10:34:53Z</time>
<desc>lat.=56.035084, lon.=26.462500, Alt.=83.333069m. Speed=12.600000m/h.</desc>
<speed>3.500000</speed>
</trkpt>
<trkpt lat="56.035114" lon="26.462465">
<ele>83.170959</ele>
<time>2010-06-20T10:34:54Z</time>
<desc>lat.=56.035114, lon.=26.462465, Alt.=83.170959m. Speed=13.356000m/h.</desc>
<speed>3.710000</speed>
</trkpt>
<trkpt lat="56.035152" lon="26.462431">
<ele>82.483459</ele>
<time>2010-06-20T10:34:55Z</time>
<desc>lat.=56.035152, lon.=26.462431, Alt.=82.483459m. Speed=13.392000m/h.</desc>
<speed>3.720000</speed>
</trkpt>
<trkpt lat="56.035191" lon="26.462395">
<ele>81.946350</ele>
<time>2010-06-20T10:34:56Z</time>
<desc>lat.=56.035191, lon.=26.462395, Alt.=81.946350m. Speed=14.220000m/h.</desc>
<speed>3.950000</speed>
</trkpt>
<trkpt lat="56.035240" lon="26.462362">
<ele>84.340881</ele>
<time>2010-06-20T10:34:57Z</time>
<desc>lat.=56.035240, lon.=26.462362, Alt.=84.340881m. Speed=15.048000m/h.</desc>
<speed>4.180000</speed>
</trkpt>
<trkpt lat="56.035297" lon="26.462322">
<ele>87.241272</ele>
<time>2010-06-20T10:34:58Z</time>
<desc>lat.=56.035297, lon.=26.462322, Alt.=87.241272m. Speed=15.732000m/h.</desc>
<speed>4.370000</speed>
</trkpt>
<trkpt lat="56.035343" lon="26.462286">
<ele>88.731506</ele>
<time>2010-06-20T10:34:59Z</time>
<desc>lat.=56.035343, lon.=26.462286, Alt.=88.731506m. Speed=15.840000m/h.</desc>
<speed>4.400000</speed>
</trkpt>
<trkpt lat="56.035385" lon="26.462254">
<ele>89.702209</ele>
<time>2010-06-20T10:35:00Z</time>
<desc>lat.=56.035385, lon.=26.462254, Alt.=89.702209m. Speed=15.372000m/h.</desc>
<speed>4.270000</speed>
</trkpt>
<trkpt lat="56.035431" lon="26.462219">
<ele>90.122131</ele>
<time>2010-06-20T10:35:01Z</time>
<desc>lat.=56.035431, lon.=26.462219, Alt.=90.122131m. Speed=15.876000m/h.</desc>
<speed>4.410000</speed>
</trkpt>
<trkpt lat="56.035473" lon="26.462187">
<ele>90.784241</ele>
<time>2010-06-20T10:35:02Z</time>
<desc>lat.=56.035473, lon.=26.462187, Alt.=90.784241m. Speed=15.912000m/h.</desc>
<speed>4.420000</speed>
</trkpt>
<trkpt lat="56.035530" lon="26.462151">
<ele>94.239319</ele>
<time>2010-06-20T10:35:03Z</time>
<desc>lat.=56.035530, lon.=26.462151, Alt.=94.239319m. Speed=15.300000m/h.</desc>
<speed>4.250000</speed>
</trkpt>
<trkpt lat="56.035564" lon="26.462116">
<ele>94.163147</ele>
<time>2010-06-20T10:35:04Z</time>
<desc>lat.=56.035564, lon.=26.462116, Alt.=94.163147m. Speed=14.328000m/h.</desc>
<speed>3.980000</speed>
</trkpt>
<trkpt lat="56.035606" lon="26.462086">
<ele>96.100647</ele>
<time>2010-06-20T10:35:05Z</time>
<desc>lat.=56.035606, lon.=26.462086, Alt.=96.100647m. Speed=13.752000m/h.</desc>
<speed>3.820000</speed>
</trkpt>
<trkpt lat="56.035645" lon="26.462055">
<ele>97.395569</ele>
<time>2010-06-20T10:35:06Z</time>
<desc>lat.=56.035645, lon.=26.462055, Alt.=97.395569m. Speed=14.292000m/h.</desc>
<speed>3.970000</speed>
</trkpt>
<trkpt lat="56.035686" lon="26.462025">
<ele>98.956116</ele>
<time>2010-06-20T10:35:07Z</time>
<desc>lat.=56.035686, lon.=26.462025, Alt.=98.956116m. Speed=15.012000m/h.</desc>
<speed>4.170000</speed>
</trkpt>
<trkpt lat="56.035725" lon="26.461998">
<ele>99.631897</ele>
<time>2010-06-20T10:35:08Z</time>
<desc>lat.=56.035725, lon.=26.461998, Alt.=99.631897m. Speed=15.444000m/h.</desc>
<speed>4.290000</speed>
</trkpt>
<trkpt lat="56.035759" lon="26.461971">
<ele>99.745178</ele>
<time>2010-06-20T10:35:09Z</time>
<desc>lat.=56.035759, lon.=26.461971, Alt.=99.745178m. Speed=15.120000m/h.</desc>
<speed>4.200000</speed>
</trkpt>
<trkpt lat="56.035797" lon="26.461943">
<ele>100.254944</ele>
<time>2010-06-20T10:35:10Z</time>
<desc>lat.=56.035797, lon.=26.461943, Alt.=100.254944m. Speed=15.444000m/h.</desc>
<speed>4.290000</speed>
</trkpt>
<trkpt lat="56.035839" lon="26.461912">
<ele>100.544006</ele>
<time>2010-06-20T10:35:11Z</time>
<desc>lat.=56.035839, lon.=26.461912, Alt.=100.544006m. Speed=15.948000m/h.</desc>
<speed>4.430000</speed>
</trkpt>
<trkpt lat="56.035873" lon="26.461884">
<ele>101.049866</ele>
<time>2010-06-20T10:35:12Z</time>
<desc>lat.=56.035873, lon.=26.461884, Alt.=101.049866m. Speed=14.904000m/h.</desc>
<speed>4.140000</speed>
</trkpt>
<trkpt lat="56.035912" lon="26.461849">
<ele>101.116272</ele>
<time>2010-06-20T10:35:13Z</time>
<desc>lat.=56.035912, lon.=26.461849, Alt.=101.116272m. Speed=16.236000m/h.</desc>
<speed>4.510000</speed>
</trkpt>
<trkpt lat="56.035946" lon="26.461811">
<ele>100.987366</ele>
<time>2010-06-20T10:35:14Z</time>
<desc>lat.=56.035946, lon.=26.461811, Alt.=100.987366m. Speed=16.559999m/h.</desc>
<speed>4.600000</speed>
</trkpt>
<trkpt lat="56.035984" lon="26.461781">
<ele>101.258850</ele>
<time>2010-06-20T10:35:15Z</time>
<desc>lat.=56.035984, lon.=26.461781, Alt.=101.258850m. Speed=16.740000m/h.</desc>
<speed>4.650000</speed>
</trkpt>
<trkpt lat="56.036022" lon="26.461750">
<ele>101.317444</ele>
<time>2010-06-20T10:35:16Z</time>
<desc>lat.=56.036022, lon.=26.461750, Alt.=101.317444m. Speed=17.028000m/h.</desc>
<speed>4.730000</speed>
</trkpt>
<trkpt lat="56.036060" lon="26.461716">
<ele>101.381897</ele>
<time>2010-06-20T10:35:17Z</time>
<desc>lat.=56.036060, lon.=26.461716, Alt.=101.381897m. Speed=17.136000m/h.</desc>
<speed>4.760000</speed>
</trkpt>
<trkpt lat="56.036102" lon="26.461679">
<ele>101.508850</ele>
<time>2010-06-20T10:35:18Z</time>
<desc>lat.=56.036102, lon.=26.461679, Alt.=101.508850m. Speed=17.388000m/h.</desc>
<speed>4.830000</speed>
</trkpt>
<trkpt lat="56.036140" lon="26.461641">
<ele>101.504944</ele>
<time>2010-06-20T10:35:19Z</time>
<desc>lat.=56.036140, lon.=26.461641, Alt.=101.504944m. Speed=17.100000m/h.</desc>
<speed>4.750000</speed>
</trkpt>
<trkpt lat="56.036179" lon="26.461607">
<ele>101.889709</ele>
<time>2010-06-20T10:35:20Z</time>
<desc>lat.=56.036179, lon.=26.461607, Alt.=101.889709m. Speed=16.632000m/h.</desc>
<speed>4.620000</speed>
</trkpt>
<trkpt lat="56.036213" lon="26.461571">
<ele>101.956116</ele>
<time>2010-06-20T10:35:21Z</time>
<desc>lat.=56.036213, lon.=26.461571, Alt.=101.956116m. Speed=15.732000m/h.</desc>
<speed>4.370000</speed>
</trkpt>
<trkpt lat="56.036251" lon="26.461536">
<ele>102.233459</ele>
<time>2010-06-20T10:35:22Z</time>
<desc>lat.=56.036251, lon.=26.461536, Alt.=102.233459m. Speed=15.048000m/h.</desc>
<speed>4.180000</speed>
</trkpt>
<trkpt lat="56.036278" lon="26.461506">
<ele>101.776428</ele>
<time>2010-06-20T10:35:23Z</time>
<desc>lat.=56.036278, lon.=26.461506, Alt.=101.776428m. Speed=13.968000m/h.</desc>
<speed>3.880000</speed>
</trkpt>
<trkpt lat="56.036312" lon="26.461483">
<ele>102.036194</ele>
<time>2010-06-20T10:35:24Z</time>
<desc>lat.=56.036312, lon.=26.461483, Alt.=102.036194m. Speed=13.752000m/h.</desc>
<speed>3.820000</speed>
</trkpt>
<trkpt lat="56.036346" lon="26.461458">
<ele>102.395569</ele>
<time>2010-06-20T10:35:25Z</time>
<desc>lat.=56.036346, lon.=26.461458, Alt.=102.395569m. Speed=14.436000m/h.</desc>
<speed>4.010000</speed>
</trkpt>
<trkpt lat="56.036377" lon="26.461428">
<ele>102.676819</ele>
<time>2010-06-20T10:35:26Z</time>
<desc>lat.=56.036377, lon.=26.461428, Alt.=102.676819m. Speed=14.040000m/h.</desc>
<speed>3.900000</speed>
</trkpt>
<trkpt lat="56.036407" lon="26.461399">
<ele>103.184631</ele>
<time>2010-06-20T10:35:27Z</time>
<desc>lat.=56.036407, lon.=26.461399, Alt.=103.184631m. Speed=12.924000m/h.</desc>
<speed>3.590000</speed>
</trkpt>
<trkpt lat="56.036434" lon="26.461370">
<ele>103.454163</ele>
<time>2010-06-20T10:35:28Z</time>
<desc>lat.=56.036434, lon.=26.461370, Alt.=103.454163m. Speed=12.096000m/h.</desc>
<speed>3.360000</speed>
</trkpt>
<trkpt lat="56.036457" lon="26.461342">
<ele>103.545959</ele>
<time>2010-06-20T10:35:29Z</time>
<desc>lat.=56.036457, lon.=26.461342, Alt.=103.545959m. Speed=10.656000m/h.</desc>
<speed>2.960000</speed>
</trkpt>
<trkpt lat="56.036480" lon="26.461317">
<ele>103.723694</ele>
<time>2010-06-20T10:35:30Z</time>
<desc>lat.=56.036480, lon.=26.461317, Alt.=103.723694m. Speed=10.620000m/h.</desc>
<speed>2.950000</speed>
</trkpt>
<trkpt lat="56.036503" lon="26.461285">
<ele>103.723694</ele>
<time>2010-06-20T10:35:31Z</time>
<desc>lat.=56.036503, lon.=26.461285, Alt.=103.723694m. Speed=11.376000m/h.</desc>
<speed>3.160000</speed>
</trkpt>
<trkpt lat="56.036533" lon="26.461248">
<ele>104.883850</ele>
<time>2010-06-20T10:35:32Z</time>
<desc>lat.=56.036533, lon.=26.461248, Alt.=104.883850m. Speed=12.024000m/h.</desc>
<speed>3.340000</speed>
</trkpt>
<trkpt lat="56.036560" lon="26.461222">
<ele>104.881897</ele>
<time>2010-06-20T10:35:33Z</time>
<desc>lat.=56.036560, lon.=26.461222, Alt.=104.881897m. Speed=12.276000m/h.</desc>
<speed>3.410000</speed>
</trkpt>
<trkpt lat="56.036587" lon="26.461203">
<ele>104.954163</ele>
<time>2010-06-20T10:35:34Z</time>
<desc>lat.=56.036587, lon.=26.461203, Alt.=104.954163m. Speed=12.816000m/h.</desc>
<speed>3.560000</speed>
</trkpt>
<trkpt lat="56.036617" lon="26.461178">
<ele>105.372131</ele>
<time>2010-06-20T10:35:35Z</time>
<desc>lat.=56.036617, lon.=26.461178, Alt.=105.372131m. Speed=12.420000m/h.</desc>
<speed>3.450000</speed>
</trkpt>
<trkpt lat="56.036648" lon="26.461153">
<ele>105.897522</ele>
<time>2010-06-20T10:35:36Z</time>
<desc>lat.=56.036648, lon.=26.461153, Alt.=105.897522m. Speed=12.096000m/h.</desc>
<speed>3.360000</speed>
</trkpt>
<trkpt lat="56.036667" lon="26.461134">
<ele>105.213928</ele>
<time>2010-06-20T10:35:37Z</time>
<desc>lat.=56.036667, lon.=26.461134, Alt.=105.213928m. Speed=11.376000m/h.</desc>
<speed>3.160000</speed>
</trkpt>
<trkpt lat="56.036694" lon="26.461119">
<ele>105.161194</ele>
<time>2010-06-20T10:35:38Z</time>
<desc>lat.=56.036694, lon.=26.461119, Alt.=105.161194m. Speed=10.836000m/h.</desc>
<speed>3.010000</speed>
</trkpt>
<trkpt lat="56.036716" lon="26.461100">
<ele>104.661194</ele>
<time>2010-06-20T10:35:39Z</time>
<desc>lat.=56.036716, lon.=26.461100, Alt.=104.661194m. Speed=10.152000m/h.</desc>
<speed>2.820000</speed>
</trkpt>
<trkpt lat="56.036739" lon="26.461088">
<ele>104.557678</ele>
<time>2010-06-20T10:35:40Z</time>
<desc>lat.=56.036739, lon.=26.461088, Alt.=104.557678m. Speed=9.972000m/h.</desc>
<speed>2.770000</speed>
</trkpt>
<trkpt lat="56.036766" lon="26.461069">
<ele>104.889709</ele>
<time>2010-06-20T10:35:41Z</time>
<desc>lat.=56.036766, lon.=26.461069, Alt.=104.889709m. Speed=10.908000m/h.</desc>
<speed>3.030000</speed>
</trkpt>
<trkpt lat="56.036793" lon="26.461046">
<ele>105.501038</ele>
<time>2010-06-20T10:35:42Z</time>
<desc>lat.=56.036793, lon.=26.461046, Alt.=105.501038m. Speed=10.404000m/h.</desc>
<speed>2.890000</speed>
</trkpt>
<trkpt lat="56.036816" lon="26.461029">
<ele>105.588928</ele>
<time>2010-06-20T10:35:43Z</time>
<desc>lat.=56.036816, lon.=26.461029, Alt.=105.588928m. Speed=10.620000m/h.</desc>
<speed>2.950000</speed>
</trkpt>
<trkpt lat="56.036842" lon="26.461014">
<ele>105.854553</ele>
<time>2010-06-20T10:35:44Z</time>
<desc>lat.=56.036842, lon.=26.461014, Alt.=105.854553m. Speed=11.484000m/h.</desc>
<speed>3.190000</speed>
</trkpt>
<trkpt lat="56.036873" lon="26.460991">
<ele>106.272522</ele>
<time>2010-06-20T10:35:45Z</time>
<desc>lat.=56.036873, lon.=26.460991, Alt.=106.272522m. Speed=14.796000m/h.</desc>
<speed>4.110000</speed>
</trkpt>
<trkpt lat="56.036907" lon="26.460964">
<ele>106.479553</ele>
<time>2010-06-20T10:35:46Z</time>
<desc>lat.=56.036907, lon.=26.460964, Alt.=106.479553m. Speed=12.960000m/h.</desc>
<speed>3.600000</speed>
</trkpt>
<trkpt lat="56.036938" lon="26.460926">
<ele>107.028381</ele>
<time>2010-06-20T10:35:47Z</time>
<desc>lat.=56.036938, lon.=26.460926, Alt.=107.028381m. Speed=13.500000m/h.</desc>
<speed>3.750000</speed>
</trkpt>
<trkpt lat="56.036964" lon="26.460896">
<ele>107.040100</ele>
<time>2010-06-20T10:35:48Z</time>
<desc>lat.=56.036964, lon.=26.460896, Alt.=107.040100m. Speed=13.572000m/h.</desc>
<speed>3.770000</speed>
</trkpt>
<trkpt lat="56.036995" lon="26.460863">
<ele>106.967834</ele>
<time>2010-06-20T10:35:49Z</time>
<desc>lat.=56.036995, lon.=26.460863, Alt.=106.967834m. Speed=13.824000m/h.</desc>
<speed>3.840000</speed>
</trkpt>
<trkpt lat="56.037025" lon="26.460831">
<ele>107.118225</ele>
<time>2010-06-20T10:35:50Z</time>
<desc>lat.=56.037025, lon.=26.460831, Alt.=107.118225m. Speed=14.220000m/h.</desc>
<speed>3.950000</speed>
</trkpt>
<trkpt lat="56.037060" lon="26.460798">
<ele>108.202209</ele>
<time>2010-06-20T10:35:51Z</time>
<desc>lat.=56.037060, lon.=26.460798, Alt.=108.202209m. Speed=14.616000m/h.</desc>
<speed>4.060000</speed>
</trkpt>
<trkpt lat="56.037094" lon="26.460770">
<ele>108.393616</ele>
<time>2010-06-20T10:35:52Z</time>
<desc>lat.=56.037094, lon.=26.460770, Alt.=108.393616m. Speed=14.472000m/h.</desc>
<speed>4.020000</speed>
</trkpt>
<trkpt lat="56.037128" lon="26.460741">
<ele>108.575256</ele>
<time>2010-06-20T10:35:53Z</time>
<desc>lat.=56.037128, lon.=26.460741, Alt.=108.575256m. Speed=15.012000m/h.</desc>
<speed>4.170000</speed>
</trkpt>
<trkpt lat="56.037163" lon="26.460701">
<ele>108.780334</ele>
<time>2010-06-20T10:35:54Z</time>
<desc>lat.=56.037163, lon.=26.460701, Alt.=108.780334m. Speed=15.804000m/h.</desc>
<speed>4.390000</speed>
</trkpt>
<trkpt lat="56.037197" lon="26.460672">
<ele>108.795959</ele>
<time>2010-06-20T10:35:55Z</time>
<desc>lat.=56.037197, lon.=26.460672, Alt.=108.795959m. Speed=16.704000m/h.</desc>
<speed>4.640000</speed>
</trkpt>
<trkpt lat="56.037231" lon="26.460636">
<ele>109.049866</ele>
<time>2010-06-20T10:35:56Z</time>
<desc>lat.=56.037231, lon.=26.460636, Alt.=109.049866m. Speed=16.884001m/h.</desc>
<speed>4.690000</speed>
</trkpt>
<trkpt lat="56.037270" lon="26.460608">
<ele>109.020569</ele>
<time>2010-06-20T10:35:57Z</time>
<desc>lat.=56.037270, lon.=26.460608, Alt.=109.020569m. Speed=15.912000m/h.</desc>
<speed>4.420000</speed>
</trkpt>
<trkpt lat="56.037312" lon="26.460592">
<ele>109.194397</ele>
<time>2010-06-20T10:35:58Z</time>
<desc>lat.=56.037312, lon.=26.460592, Alt.=109.194397m. Speed=18.360001m/h.</desc>
<speed>5.100000</speed>
</trkpt>
<trkpt lat="56.037350" lon="26.460581">
<ele>108.428772</ele>
<time>2010-06-20T10:35:59Z</time>
<desc>lat.=56.037350, lon.=26.460581, Alt.=108.428772m. Speed=15.768000m/h.</desc>
<speed>4.380000</speed>
</trkpt>
<trkpt lat="56.037380" lon="26.460554">
<ele>107.987366</ele>
<time>2010-06-20T10:36:00Z</time>
<desc>lat.=56.037380, lon.=26.460554, Alt.=107.987366m. Speed=15.156000m/h.</desc>
<speed>4.210000</speed>
</trkpt>
<trkpt lat="56.037415" lon="26.460529">
<ele>107.827209</ele>
<time>2010-06-20T10:36:01Z</time>
<desc>lat.=56.037415, lon.=26.460529, Alt.=107.827209m. Speed=14.760000m/h.</desc>
<speed>4.100000</speed>
</trkpt>
<trkpt lat="56.037449" lon="26.460505">
<ele>108.053772</ele>
<time>2010-06-20T10:36:02Z</time>
<desc>lat.=56.037449, lon.=26.460505, Alt.=108.053772m. Speed=14.184000m/h.</desc>
<speed>3.940000</speed>
</trkpt>
<trkpt lat="56.037479" lon="26.460478">
<ele>108.118225</ele>
<time>2010-06-20T10:36:03Z</time>
<desc>lat.=56.037479, lon.=26.460478, Alt.=108.118225m. Speed=14.184000m/h.</desc>
<speed>3.940000</speed>
</trkpt>
<trkpt lat="56.037510" lon="26.460449">
<ele>108.169006</ele>
<time>2010-06-20T10:36:04Z</time>
<desc>lat.=56.037510, lon.=26.460449, Alt.=108.169006m. Speed=13.752000m/h.</desc>
<speed>3.820000</speed>
</trkpt>
<trkpt lat="56.037540" lon="26.460426">
<ele>108.213928</ele>
<time>2010-06-20T10:36:05Z</time>
<desc>lat.=56.037540, lon.=26.460426, Alt.=108.213928m. Speed=13.680000m/h.</desc>
<speed>3.800000</speed>
</trkpt>
<trkpt lat="56.037571" lon="26.460402">
<ele>107.930725</ele>
<time>2010-06-20T10:36:06Z</time>
<desc>lat.=56.037571, lon.=26.460402, Alt.=107.930725m. Speed=13.356000m/h.</desc>
<speed>3.710000</speed>
</trkpt>
<trkpt lat="56.037598" lon="26.460373">
<ele>107.788147</ele>
<time>2010-06-20T10:36:07Z</time>
<desc>lat.=56.037598, lon.=26.460373, Alt.=107.788147m. Speed=12.744000m/h.</desc>
<speed>3.540000</speed>
</trkpt>
<trkpt lat="56.037628" lon="26.460350">
<ele>107.319397</ele>
<time>2010-06-20T10:36:08Z</time>
<desc>lat.=56.037628, lon.=26.460350, Alt.=107.319397m. Speed=12.816000m/h.</desc>
<speed>3.560000</speed>
</trkpt>
<trkpt lat="56.037655" lon="26.460327">
<ele>107.116272</ele>
<time>2010-06-20T10:36:09Z</time>
<desc>lat.=56.037655, lon.=26.460327, Alt.=107.116272m. Speed=13.248000m/h.</desc>
<speed>3.680000</speed>
</trkpt>
<trkpt lat="56.037689" lon="26.460300">
<ele>107.024475</ele>
<time>2010-06-20T10:36:10Z</time>
<desc>lat.=56.037689, lon.=26.460300, Alt.=107.024475m. Speed=14.004000m/h.</desc>
<speed>3.890000</speed>
</trkpt>
<trkpt lat="56.037720" lon="26.460276">
<ele>106.698303</ele>
<time>2010-06-20T10:36:11Z</time>
<desc>lat.=56.037720, lon.=26.460276, Alt.=106.698303m. Speed=14.832000m/h.</desc>
<speed>4.120000</speed>
</trkpt>
<trkpt lat="56.037758" lon="26.460251">
<ele>106.495178</ele>
<time>2010-06-20T10:36:12Z</time>
<desc>lat.=56.037758, lon.=26.460251, Alt.=106.495178m. Speed=15.156000m/h.</desc>
<speed>4.210000</speed>
</trkpt>
<trkpt lat="56.037792" lon="26.460224">
<ele>106.358459</ele>
<time>2010-06-20T10:36:13Z</time>
<desc>lat.=56.037792, lon.=26.460224, Alt.=106.358459m. Speed=15.084000m/h.</desc>
<speed>4.190000</speed>
</trkpt>
<trkpt lat="56.037827" lon="26.460199">
<ele>106.307678</ele>
<time>2010-06-20T10:36:14Z</time>
<desc>lat.=56.037827, lon.=26.460199, Alt.=106.307678m. Speed=14.400000m/h.</desc>
<speed>4.000000</speed>
</trkpt>
<trkpt lat="56.037857" lon="26.460176">
<ele>106.286194</ele>
<time>2010-06-20T10:36:15Z</time>
<desc>lat.=56.037857, lon.=26.460176, Alt.=106.286194m. Speed=13.608000m/h.</desc>
<speed>3.780000</speed>
</trkpt>
<trkpt lat="56.037888" lon="26.460154">
<ele>106.581116</ele>
<time>2010-06-20T10:36:16Z</time>
<desc>lat.=56.037888, lon.=26.460154, Alt.=106.581116m. Speed=13.068000m/h.</desc>
<speed>3.630000</speed>
</trkpt>
<trkpt lat="56.037918" lon="26.460135">
<ele>106.438538</ele>
<time>2010-06-20T10:36:17Z</time>
<desc>lat.=56.037918, lon.=26.460135, Alt.=106.438538m. Speed=12.204000m/h.</desc>
<speed>3.390000</speed>
</trkpt>
<trkpt lat="56.037945" lon="26.460117">
<ele>106.659241</ele>
<time>2010-06-20T10:36:18Z</time>
<desc>lat.=56.037945, lon.=26.460117, Alt.=106.659241m. Speed=11.376000m/h.</desc>
<speed>3.160000</speed>
</trkpt>
<trkpt lat="56.037971" lon="26.460100">
<ele>106.815491</ele>
<time>2010-06-20T10:36:19Z</time>
<desc>lat.=56.037971, lon.=26.460100, Alt.=106.815491m. Speed=11.808000m/h.</desc>
<speed>3.280000</speed>
</trkpt>
<trkpt lat="56.038002" lon="26.460085">
<ele>107.045959</ele>
<time>2010-06-20T10:36:20Z</time>
<desc>lat.=56.038002, lon.=26.460085, Alt.=107.045959m. Speed=12.204000m/h.</desc>
<speed>3.390000</speed>
</trkpt>
<trkpt lat="56.038029" lon="26.460070">
<ele>107.157288</ele>
<time>2010-06-20T10:36:21Z</time>
<desc>lat.=56.038029, lon.=26.460070, Alt.=107.157288m. Speed=12.240000m/h.</desc>
<speed>3.400000</speed>
</trkpt>
<trkpt lat="56.038059" lon="26.460051">
<ele>107.012756</ele>
<time>2010-06-20T10:36:22Z</time>
<desc>lat.=56.038059, lon.=26.460051, Alt.=107.012756m. Speed=11.952000m/h.</desc>
<speed>3.320000</speed>
</trkpt>
<trkpt lat="56.038086" lon="26.460033">
<ele>107.245178</ele>
<time>2010-06-20T10:36:23Z</time>
<desc>lat.=56.038086, lon.=26.460033, Alt.=107.245178m. Speed=11.160000m/h.</desc>
<speed>3.100000</speed>
</trkpt>
<trkpt lat="56.038113" lon="26.460020">
<ele>107.352600</ele>
<time>2010-06-20T10:36:24Z</time>
<desc>lat.=56.038113, lon.=26.460020, Alt.=107.352600m. Speed=11.196000m/h.</desc>
<speed>3.110000</speed>
</trkpt>
<trkpt lat="56.038139" lon="26.460005">
<ele>107.653381</ele>
<time>2010-06-20T10:36:25Z</time>
<desc>lat.=56.038139, lon.=26.460005, Alt.=107.653381m. Speed=11.556000m/h.</desc>
<speed>3.210000</speed>
</trkpt>
<trkpt lat="56.038166" lon="26.459988">
<ele>108.210022</ele>
<time>2010-06-20T10:36:26Z</time>
<desc>lat.=56.038166, lon.=26.459988, Alt.=108.210022m. Speed=10.656000m/h.</desc>
<speed>2.960000</speed>
</trkpt>
<trkpt lat="56.038185" lon="26.459972">
<ele>107.514709</ele>
<time>2010-06-20T10:36:27Z</time>
<desc>lat.=56.038185, lon.=26.459972, Alt.=107.514709m. Speed=9.684000m/h.</desc>
<speed>2.690000</speed>
</trkpt>
<trkpt lat="56.038208" lon="26.459957">
<ele>107.813538</ele>
<time>2010-06-20T10:36:28Z</time>
<desc>lat.=56.038208, lon.=26.459957, Alt.=107.813538m. Speed=8.856000m/h.</desc>
<speed>2.460000</speed>
</trkpt>
<trkpt lat="56.038227" lon="26.459944">
<ele>108.116272</ele>
<time>2010-06-20T10:36:29Z</time>
<desc>lat.=56.038227, lon.=26.459944, Alt.=108.116272m. Speed=8.640000m/h.</desc>
<speed>2.400000</speed>
</trkpt>
<trkpt lat="56.038254" lon="26.459936">
<ele>108.840881</ele>
<time>2010-06-20T10:36:30Z</time>
<desc>lat.=56.038254, lon.=26.459936, Alt.=108.840881m. Speed=10.260000m/h.</desc>
<speed>2.850000</speed>
</trkpt>
<trkpt lat="56.038273" lon="26.459925">
<ele>109.604553</ele>
<time>2010-06-20T10:36:31Z</time>
<desc>lat.=56.038273, lon.=26.459925, Alt.=109.604553m. Speed=9.720000m/h.</desc>
<speed>2.700000</speed>
</trkpt>
<trkpt lat="56.038292" lon="26.459904">
<ele>109.399475</ele>
<time>2010-06-20T10:36:32Z</time>
<desc>lat.=56.038292, lon.=26.459904, Alt.=109.399475m. Speed=8.460000m/h.</desc>
<speed>2.350000</speed>
</trkpt>
<trkpt lat="56.038311" lon="26.459881">
<ele>109.819397</ele>
<time>2010-06-20T10:36:33Z</time>
<desc>lat.=56.038311, lon.=26.459881, Alt.=109.819397m. Speed=9.612000m/h.</desc>
<speed>2.670000</speed>
</trkpt>
<trkpt lat="56.038330" lon="26.459860">
<ele>109.835022</ele>
<time>2010-06-20T10:36:34Z</time>
<desc>lat.=56.038330, lon.=26.459860, Alt.=109.835022m. Speed=7.992000m/h.</desc>
<speed>2.220000</speed>
</trkpt>
<trkpt lat="56.038349" lon="26.459839">
<ele>109.684631</ele>
<time>2010-06-20T10:36:35Z</time>
<desc>lat.=56.038349, lon.=26.459839, Alt.=109.684631m. Speed=8.208000m/h.</desc>
<speed>2.280000</speed>
</trkpt>
<trkpt lat="56.038364" lon="26.459826">
<ele>109.725647</ele>
<time>2010-06-20T10:36:36Z</time>
<desc>lat.=56.038364, lon.=26.459826, Alt.=109.725647m. Speed=6.984000m/h.</desc>
<speed>1.940000</speed>
</trkpt>
<trkpt lat="56.038376" lon="26.459820">
<ele>109.295959</ele>
<time>2010-06-20T10:36:37Z</time>
<desc>lat.=56.038376, lon.=26.459820, Alt.=109.295959m. Speed=6.300000m/h.</desc>
<speed>1.750000</speed>
</trkpt>
<trkpt lat="56.038387" lon="26.459805">
<ele>109.278381</ele>
<time>2010-06-20T10:36:38Z</time>
<desc>lat.=56.038387, lon.=26.459805, Alt.=109.278381m. Speed=6.588000m/h.</desc>
<speed>1.830000</speed>
</trkpt>
<trkpt lat="56.038403" lon="26.459791">
<ele>109.178772</ele>
<time>2010-06-20T10:36:39Z</time>
<desc>lat.=56.038403, lon.=26.459791, Alt.=109.178772m. Speed=6.048000m/h.</desc>
<speed>1.680000</speed>
</trkpt>
<trkpt lat="56.038414" lon="26.459784">
<ele>108.942444</ele>
<time>2010-06-20T10:36:40Z</time>
<desc>lat.=56.038414, lon.=26.459784, Alt.=108.942444m. Speed=5.760000m/h.</desc>
<speed>1.600000</speed>
</trkpt>
<trkpt lat="56.038433" lon="26.459776">
<ele>109.184631</ele>
<time>2010-06-20T10:36:41Z</time>
<desc>lat.=56.038433, lon.=26.459776, Alt.=109.184631m. Speed=6.408000m/h.</desc>
<speed>1.780000</speed>
</trkpt>
<trkpt lat="56.038448" lon="26.459768">
<ele>109.167053</ele>
<time>2010-06-20T10:36:42Z</time>
<desc>lat.=56.038448, lon.=26.459768, Alt.=109.167053m. Speed=8.100000m/h.</desc>
<speed>2.250000</speed>
</trkpt>
<trkpt lat="56.038471" lon="26.459753">
<ele>109.409241</ele>
<time>2010-06-20T10:36:43Z</time>
<desc>lat.=56.038471, lon.=26.459753, Alt.=109.409241m. Speed=9.612000m/h.</desc>
<speed>2.670000</speed>
</trkpt>
<trkpt lat="56.038498" lon="26.459747">
<ele>109.643616</ele>
<time>2010-06-20T10:36:44Z</time>
<desc>lat.=56.038498, lon.=26.459747, Alt.=109.643616m. Speed=9.936000m/h.</desc>
<speed>2.760000</speed>
</trkpt>
<trkpt lat="56.038521" lon="26.459736">
<ele>109.684631</ele>
<time>2010-06-20T10:36:45Z</time>
<desc>lat.=56.038521, lon.=26.459736, Alt.=109.684631m. Speed=10.440000m/h.</desc>
<speed>2.900000</speed>
</trkpt>
<trkpt lat="56.038548" lon="26.459715">
<ele>109.905334</ele>
<time>2010-06-20T10:36:46Z</time>
<desc>lat.=56.038548, lon.=26.459715, Alt.=109.905334m. Speed=10.296000m/h.</desc>
<speed>2.860000</speed>
</trkpt>
<trkpt lat="56.038574" lon="26.459690">
<ele>109.956116</ele>
<time>2010-06-20T10:36:47Z</time>
<desc>lat.=56.038574, lon.=26.459690, Alt.=109.956116m. Speed=11.052000m/h.</desc>
<speed>3.070000</speed>
</trkpt>
<trkpt lat="56.038597" lon="26.459663">
<ele>110.038147</ele>
<time>2010-06-20T10:36:48Z</time>
<desc>lat.=56.038597, lon.=26.459663, Alt.=110.038147m. Speed=11.664000m/h.</desc>
<speed>3.240000</speed>
</trkpt>
<trkpt lat="56.038624" lon="26.459650">
<ele>109.907288</ele>
<time>2010-06-20T10:36:49Z</time>
<desc>lat.=56.038624, lon.=26.459650, Alt.=109.907288m. Speed=12.132000m/h.</desc>
<speed>3.370000</speed>
</trkpt>
<trkpt lat="56.038654" lon="26.459633">
<ele>109.940491</ele>
<time>2010-06-20T10:36:50Z</time>
<desc>lat.=56.038654, lon.=26.459633, Alt.=109.940491m. Speed=12.564000m/h.</desc>
<speed>3.490000</speed>
</trkpt>
<trkpt lat="56.038685" lon="26.459616">
<ele>110.303772</ele>
<time>2010-06-20T10:36:51Z</time>
<desc>lat.=56.038685, lon.=26.459616, Alt.=110.303772m. Speed=12.780000m/h.</desc>
<speed>3.550000</speed>
</trkpt>
<trkpt lat="56.038715" lon="26.459606">
<ele>110.081116</ele>
<time>2010-06-20T10:36:52Z</time>
<desc>lat.=56.038715, lon.=26.459606, Alt.=110.081116m. Speed=12.384000m/h.</desc>
<speed>3.440000</speed>
</trkpt>
<trkpt lat="56.038742" lon="26.459587">
<ele>109.860413</ele>
<time>2010-06-20T10:36:53Z</time>
<desc>lat.=56.038742, lon.=26.459587, Alt.=109.860413m. Speed=13.032000m/h.</desc>
<speed>3.620000</speed>
</trkpt>
<trkpt lat="56.038773" lon="26.459564">
<ele>111.417053</ele>
<time>2010-06-20T10:36:54Z</time>
<desc>lat.=56.038773, lon.=26.459564, Alt.=111.417053m. Speed=12.492000m/h.</desc>
<speed>3.470000</speed>
</trkpt>
<trkpt lat="56.038799" lon="26.459543">
<ele>111.030334</ele>
<time>2010-06-20T10:36:55Z</time>
<desc>lat.=56.038799, lon.=26.459543, Alt.=111.030334m. Speed=12.168000m/h.</desc>
<speed>3.380000</speed>
</trkpt>
<trkpt lat="56.038818" lon="26.459526">
<ele>109.866272</ele>
<time>2010-06-20T10:36:56Z</time>
<desc>lat.=56.038818, lon.=26.459526, Alt.=109.866272m. Speed=11.700000m/h.</desc>
<speed>3.250000</speed>
</trkpt>
<trkpt lat="56.038849" lon="26.459501">
<ele>109.852600</ele>
<time>2010-06-20T10:36:57Z</time>
<desc>lat.=56.038849, lon.=26.459501, Alt.=109.852600m. Speed=13.176000m/h.</desc>
<speed>3.660000</speed>
</trkpt>
<trkpt lat="56.038879" lon="26.459480">
<ele>109.924866</ele>
<time>2010-06-20T10:36:58Z</time>
<desc>lat.=56.038879, lon.=26.459480, Alt.=109.924866m. Speed=13.824000m/h.</desc>
<speed>3.840000</speed>
</trkpt>
<trkpt lat="56.038910" lon="26.459457">
<ele>109.545959</ele>
<time>2010-06-20T10:36:59Z</time>
<desc>lat.=56.038910, lon.=26.459457, Alt.=109.545959m. Speed=13.932000m/h.</desc>
<speed>3.870000</speed>
</trkpt>
<trkpt lat="56.038940" lon="26.459427">
<ele>109.836975</ele>
<time>2010-06-20T10:37:00Z</time>
<desc>lat.=56.038940, lon.=26.459427, Alt.=109.836975m. Speed=12.744000m/h.</desc>
<speed>3.540000</speed>
</trkpt>
<trkpt lat="56.038975" lon="26.459400">
<ele>109.004944</ele>
<time>2010-06-20T10:37:01Z</time>
<desc>lat.=56.038975, lon.=26.459400, Alt.=109.004944m. Speed=15.084000m/h.</desc>
<speed>4.190000</speed>
</trkpt>
<trkpt lat="56.039009" lon="26.459377">
<ele>109.321350</ele>
<time>2010-06-20T10:37:02Z</time>
<desc>lat.=56.039009, lon.=26.459377, Alt.=109.321350m. Speed=14.220000m/h.</desc>
<speed>3.950000</speed>
</trkpt>
<trkpt lat="56.039036" lon="26.459354">
<ele>109.198303</ele>
<time>2010-06-20T10:37:03Z</time>
<desc>lat.=56.039036, lon.=26.459354, Alt.=109.198303m. Speed=12.924000m/h.</desc>
<speed>3.590000</speed>
</trkpt>
<trkpt lat="56.039066" lon="26.459324">
<ele>109.504944</ele>
<time>2010-06-20T10:37:04Z</time>
<desc>lat.=56.039066, lon.=26.459324, Alt.=109.504944m. Speed=13.320000m/h.</desc>
<speed>3.700000</speed>
</trkpt>
<trkpt lat="56.039101" lon="26.459295">
<ele>109.549866</ele>
<time>2010-06-20T10:37:05Z</time>
<desc>lat.=56.039101, lon.=26.459295, Alt.=109.549866m. Speed=14.112000m/h.</desc>
<speed>3.920000</speed>
</trkpt>
<trkpt lat="56.039135" lon="26.459272">
<ele>109.292053</ele>
<time>2010-06-20T10:37:06Z</time>
<desc>lat.=56.039135, lon.=26.459272, Alt.=109.292053m. Speed=15.408000m/h.</desc>
<speed>4.280000</speed>
</trkpt>
<trkpt lat="56.039177" lon="26.459238">
<ele>109.792053</ele>
<time>2010-06-20T10:37:07Z</time>
<desc>lat.=56.039177, lon.=26.459238, Alt.=109.792053m. Speed=15.372000m/h.</desc>
<speed>4.270000</speed>
</trkpt>
<trkpt lat="56.039211" lon="26.459206">
<ele>109.768616</ele>
<time>2010-06-20T10:37:08Z</time>
<desc>lat.=56.039211, lon.=26.459206, Alt.=109.768616m. Speed=16.200001m/h.</desc>
<speed>4.500000</speed>
</trkpt>
<trkpt lat="56.039246" lon="26.459166">
<ele>109.235413</ele>
<time>2010-06-20T10:37:09Z</time>
<desc>lat.=56.039246, lon.=26.459166, Alt.=109.235413m. Speed=17.568001m/h.</desc>
<speed>4.880000</speed>
</trkpt>
<trkpt lat="56.039288" lon="26.459137">
<ele>109.233459</ele>
<time>2010-06-20T10:37:10Z</time>
<desc>lat.=56.039288, lon.=26.459137, Alt.=109.233459m. Speed=16.488001m/h.</desc>
<speed>4.580000</speed>
</trkpt>
<trkpt lat="56.039330" lon="26.459105">
<ele>109.649475</ele>
<time>2010-06-20T10:37:11Z</time>
<desc>lat.=56.039330, lon.=26.459105, Alt.=109.649475m. Speed=15.696000m/h.</desc>
<speed>4.360000</speed>
</trkpt>
<trkpt lat="56.039364" lon="26.459080">
<ele>109.313538</ele>
<time>2010-06-20T10:37:12Z</time>
<desc>lat.=56.039364, lon.=26.459080, Alt.=109.313538m. Speed=15.264000m/h.</desc>
<speed>4.240000</speed>
</trkpt>
<trkpt lat="56.039398" lon="26.459049">
<ele>109.674866</ele>
<time>2010-06-20T10:37:13Z</time>
<desc>lat.=56.039398, lon.=26.459049, Alt.=109.674866m. Speed=14.796000m/h.</desc>
<speed>4.110000</speed>
</trkpt>
<trkpt lat="56.039440" lon="26.459017">
<ele>112.057678</ele>
<time>2010-06-20T10:37:14Z</time>
<desc>lat.=56.039440, lon.=26.459017, Alt.=112.057678m. Speed=14.364000m/h.</desc>
<speed>3.990000</speed>
</trkpt>
<trkpt lat="56.039471" lon="26.459002">
<ele>111.952209</ele>
<time>2010-06-20T10:37:15Z</time>
<desc>lat.=56.039471, lon.=26.459002, Alt.=111.952209m. Speed=12.996000m/h.</desc>
<speed>3.610000</speed>
</trkpt>
<trkpt lat="56.039505" lon="26.458992">
<ele>112.581116</ele>
<time>2010-06-20T10:37:16Z</time>
<desc>lat.=56.039505, lon.=26.458992, Alt.=112.581116m. Speed=13.140000m/h.</desc>
<speed>3.650000</speed>
</trkpt>
<trkpt lat="56.039536" lon="26.458977">
<ele>112.440491</ele>
<time>2010-06-20T10:37:17Z</time>
<desc>lat.=56.039536, lon.=26.458977, Alt.=112.440491m. Speed=13.968000m/h.</desc>
<speed>3.880000</speed>
</trkpt>
<trkpt lat="56.039566" lon="26.458954">
<ele>112.350647</ele>
<time>2010-06-20T10:37:18Z</time>
<desc>lat.=56.039566, lon.=26.458954, Alt.=112.350647m. Speed=14.184000m/h.</desc>
<speed>3.940000</speed>
</trkpt>
<trkpt lat="56.039600" lon="26.458927">
<ele>112.565491</ele>
<time>2010-06-20T10:37:19Z</time>
<desc>lat.=56.039600, lon.=26.458927, Alt.=112.565491m. Speed=14.616000m/h.</desc>
<speed>4.060000</speed>
</trkpt>
<trkpt lat="56.039627" lon="26.458900">
<ele>111.508850</ele>
<time>2010-06-20T10:37:20Z</time>
<desc>lat.=56.039627, lon.=26.458900, Alt.=111.508850m. Speed=14.436000m/h.</desc>
<speed>4.010000</speed>
</trkpt>
<trkpt lat="56.039658" lon="26.458874">
<ele>111.108459</ele>
<time>2010-06-20T10:37:21Z</time>
<desc>lat.=56.039658, lon.=26.458874, Alt.=111.108459m. Speed=14.436000m/h.</desc>
<speed>4.010000</speed>
</trkpt>
<trkpt lat="56.039692" lon="26.458847">
<ele>110.752991</ele>
<time>2010-06-20T10:37:22Z</time>
<desc>lat.=56.039692, lon.=26.458847, Alt.=110.752991m. Speed=14.760000m/h.</desc>
<speed>4.100000</speed>
</trkpt>
<trkpt lat="56.039722" lon="26.458818">
<ele>110.303772</ele>
<time>2010-06-20T10:37:23Z</time>
<desc>lat.=56.039722, lon.=26.458818, Alt.=110.303772m. Speed=14.868000m/h.</desc>
<speed>4.130000</speed>
</trkpt>
<trkpt lat="56.039757" lon="26.458788">
<ele>109.672913</ele>
<time>2010-06-20T10:37:24Z</time>
<desc>lat.=56.039757, lon.=26.458788, Alt.=109.672913m. Speed=15.156000m/h.</desc>
<speed>4.210000</speed>
</trkpt>
<trkpt lat="56.039787" lon="26.458755">
<ele>109.754944</ele>
<time>2010-06-20T10:37:25Z</time>
<desc>lat.=56.039787, lon.=26.458755, Alt.=109.754944m. Speed=15.012000m/h.</desc>
<speed>4.170000</speed>
</trkpt>
<trkpt lat="56.039822" lon="26.458727">
<ele>109.729553</ele>
<time>2010-06-20T10:37:26Z</time>
<desc>lat.=56.039822, lon.=26.458727, Alt.=109.729553m. Speed=15.084000m/h.</desc>
<speed>4.190000</speed>
</trkpt>
<trkpt lat="56.039860" lon="26.458698">
<ele>110.110413</ele>
<time>2010-06-20T10:37:27Z</time>
<desc>lat.=56.039860, lon.=26.458698, Alt.=110.110413m. Speed=15.120000m/h.</desc>
<speed>4.200000</speed>
</trkpt>
<trkpt lat="56.039898" lon="26.458673">
<ele>110.586975</ele>
<time>2010-06-20T10:37:28Z</time>
<desc>lat.=56.039898, lon.=26.458673, Alt.=110.586975m. Speed=14.940000m/h.</desc>
<speed>4.150000</speed>
</trkpt>
<trkpt lat="56.039928" lon="26.458656">
<ele>110.512756</ele>
<time>2010-06-20T10:37:29Z</time>
<desc>lat.=56.039928, lon.=26.458656, Alt.=110.512756m. Speed=14.040000m/h.</desc>
<speed>3.900000</speed>
</trkpt>
<trkpt lat="56.039963" lon="26.458635">
<ele>110.770569</ele>
<time>2010-06-20T10:37:30Z</time>
<desc>lat.=56.039963, lon.=26.458635, Alt.=110.770569m. Speed=13.680000m/h.</desc>
<speed>3.800000</speed>
</trkpt>
<trkpt lat="56.039997" lon="26.458616">
<ele>111.135803</ele>
<time>2010-06-20T10:37:31Z</time>
<desc>lat.=56.039997, lon.=26.458616, Alt.=111.135803m. Speed=14.076000m/h.</desc>
<speed>3.910000</speed>
</trkpt>
<trkpt lat="56.040028" lon="26.458593">
<ele>110.835022</ele>
<time>2010-06-20T10:37:32Z</time>
<desc>lat.=56.040028, lon.=26.458593, Alt.=110.835022m. Speed=13.752000m/h.</desc>
<speed>3.820000</speed>
</trkpt>
<trkpt lat="56.040062" lon="26.458569">
<ele>110.702209</ele>
<time>2010-06-20T10:37:33Z</time>
<desc>lat.=56.040062, lon.=26.458569, Alt.=110.702209m. Speed=14.364000m/h.</desc>
<speed>3.990000</speed>
</trkpt>
<trkpt lat="56.040092" lon="26.458546">
<ele>110.649475</ele>
<time>2010-06-20T10:37:34Z</time>
<desc>lat.=56.040092, lon.=26.458546, Alt.=110.649475m. Speed=14.724000m/h.</desc>
<speed>4.090000</speed>
</trkpt>
<trkpt lat="56.040131" lon="26.458525">
<ele>111.301819</ele>
<time>2010-06-20T10:37:35Z</time>
<desc>lat.=56.040131, lon.=26.458525, Alt.=111.301819m. Speed=14.220000m/h.</desc>
<speed>3.950000</speed>
</trkpt>
<trkpt lat="56.040165" lon="26.458509">
<ele>111.557678</ele>
<time>2010-06-20T10:37:36Z</time>
<desc>lat.=56.040165, lon.=26.458509, Alt.=111.557678m. Speed=15.516000m/h.</desc>
<speed>4.310000</speed>
</trkpt>
<trkpt lat="56.040203" lon="26.458494">
<ele>112.032288</ele>
<time>2010-06-20T10:37:37Z</time>
<desc>lat.=56.040203, lon.=26.458494, Alt.=112.032288m. Speed=14.868000m/h.</desc>
<speed>4.130000</speed>
</trkpt>
<trkpt lat="56.040241" lon="26.458481">
<ele>112.227600</ele>
<time>2010-06-20T10:37:38Z</time>
<desc>lat.=56.040241, lon.=26.458481, Alt.=112.227600m. Speed=15.984000m/h.</desc>
<speed>4.440000</speed>
</trkpt>
<trkpt lat="56.040279" lon="26.458471">
<ele>112.377991</ele>
<time>2010-06-20T10:37:39Z</time>
<desc>lat.=56.040279, lon.=26.458471, Alt.=112.377991m. Speed=16.308001m/h.</desc>
<speed>4.530000</speed>
</trkpt>
<trkpt lat="56.040321" lon="26.458458">
<ele>112.471741</ele>
<time>2010-06-20T10:37:40Z</time>
<desc>lat.=56.040321, lon.=26.458458, Alt.=112.471741m. Speed=16.596001m/h.</desc>
<speed>4.610000</speed>
</trkpt>
<trkpt lat="56.040359" lon="26.458448">
<ele>112.780334</ele>
<time>2010-06-20T10:37:41Z</time>
<desc>lat.=56.040359, lon.=26.458448, Alt.=112.780334m. Speed=15.948000m/h.</desc>
<speed>4.430000</speed>
</trkpt>
<trkpt lat="56.040394" lon="26.458443">
<ele>112.899475</ele>
<time>2010-06-20T10:37:42Z</time>
<desc>lat.=56.040394, lon.=26.458443, Alt.=112.899475m. Speed=14.580000m/h.</desc>
<speed>4.050000</speed>
</trkpt>
<trkpt lat="56.040432" lon="26.458443">
<ele>113.186584</ele>
<time>2010-06-20T10:37:43Z</time>
<desc>lat.=56.040432, lon.=26.458443, Alt.=113.186584m. Speed=15.372000m/h.</desc>
<speed>4.270000</speed>
</trkpt>
<trkpt lat="56.040470" lon="26.458447">
<ele>113.344788</ele>
<time>2010-06-20T10:37:44Z</time>
<desc>lat.=56.040470, lon.=26.458447, Alt.=113.344788m. Speed=15.732000m/h.</desc>
<speed>4.370000</speed>
</trkpt>
<trkpt lat="56.040508" lon="26.458450">
<ele>113.213928</ele>
<time>2010-06-20T10:37:45Z</time>
<desc>lat.=56.040508, lon.=26.458450, Alt.=113.213928m. Speed=15.840000m/h.</desc>
<speed>4.400000</speed>
</trkpt>
<trkpt lat="56.040543" lon="26.458456">
<ele>113.846741</ele>
<time>2010-06-20T10:37:46Z</time>
<desc>lat.=56.040543, lon.=26.458456, Alt.=113.846741m. Speed=14.976000m/h.</desc>
<speed>4.160000</speed>
</trkpt>
<trkpt lat="56.040573" lon="26.458464">
<ele>114.008850</ele>
<time>2010-06-20T10:37:47Z</time>
<desc>lat.=56.040573, lon.=26.458464, Alt.=114.008850m. Speed=14.724000m/h.</desc>
<speed>4.090000</speed>
</trkpt>
<trkpt lat="56.040604" lon="26.458477">
<ele>114.292053</ele>
<time>2010-06-20T10:37:48Z</time>
<desc>lat.=56.040604, lon.=26.458477, Alt.=114.292053m. Speed=13.932000m/h.</desc>
<speed>3.870000</speed>
</trkpt>
<trkpt lat="56.040634" lon="26.458487">
<ele>114.758850</ele>
<time>2010-06-20T10:37:49Z</time>
<desc>lat.=56.040634, lon.=26.458487, Alt.=114.758850m. Speed=14.760000m/h.</desc>
<speed>4.100000</speed>
</trkpt>
<trkpt lat="56.040672" lon="26.458498">
<ele>115.075256</ele>
<time>2010-06-20T10:37:50Z</time>
<desc>lat.=56.040672, lon.=26.458498, Alt.=115.075256m. Speed=15.192000m/h.</desc>
<speed>4.220000</speed>
</trkpt>
<trkpt lat="56.040714" lon="26.458511">
<ele>115.360413</ele>
<time>2010-06-20T10:37:51Z</time>
<desc>lat.=56.040714, lon.=26.458511, Alt.=115.360413m. Speed=15.444000m/h.</desc>
<speed>4.290000</speed>
</trkpt>
<trkpt lat="56.040752" lon="26.458521">
<ele>115.499084</ele>
<time>2010-06-20T10:37:52Z</time>
<desc>lat.=56.040752, lon.=26.458521, Alt.=115.499084m. Speed=16.236000m/h.</desc>
<speed>4.510000</speed>
</trkpt>
<trkpt lat="56.040798" lon="26.458532">
<ele>115.727600</ele>
<time>2010-06-20T10:37:53Z</time>
<desc>lat.=56.040798, lon.=26.458532, Alt.=115.727600m. Speed=16.524000m/h.</desc>
<speed>4.590000</speed>
</trkpt>
<trkpt lat="56.040836" lon="26.458542">
<ele>115.127991</ele>
<time>2010-06-20T10:37:54Z</time>
<desc>lat.=56.040836, lon.=26.458542, Alt.=115.127991m. Speed=16.344000m/h.</desc>
<speed>4.540000</speed>
</trkpt>
<trkpt lat="56.040882" lon="26.458551">
<ele>115.094788</ele>
<time>2010-06-20T10:37:55Z</time>
<desc>lat.=56.040882, lon.=26.458551, Alt.=115.094788m. Speed=15.660000m/h.</desc>
<speed>4.350000</speed>
</trkpt>
<trkpt lat="56.040920" lon="26.458559">
<ele>115.294006</ele>
<time>2010-06-20T10:37:56Z</time>
<desc>lat.=56.040920, lon.=26.458559, Alt.=115.294006m. Speed=14.796000m/h.</desc>
<speed>4.110000</speed>
</trkpt>
<trkpt lat="56.040962" lon="26.458569">
<ele>115.547913</ele>
<time>2010-06-20T10:37:57Z</time>
<desc>lat.=56.040962, lon.=26.458569, Alt.=115.547913m. Speed=14.256000m/h.</desc>
<speed>3.960000</speed>
</trkpt>
<trkpt lat="56.041008" lon="26.458576">
<ele>115.122131</ele>
<time>2010-06-20T10:37:58Z</time>
<desc>lat.=56.041008, lon.=26.458576, Alt.=115.122131m. Speed=15.480000m/h.</desc>
<speed>4.300000</speed>
</trkpt>
<trkpt lat="56.041046" lon="26.458584">
<ele>114.868225</ele>
<time>2010-06-20T10:37:59Z</time>
<desc>lat.=56.041046, lon.=26.458584, Alt.=114.868225m. Speed=15.840000m/h.</desc>
<speed>4.400000</speed>
</trkpt>
<trkpt lat="56.041084" lon="26.458593">
<ele>114.686584</ele>
<time>2010-06-20T10:38:00Z</time>
<desc>lat.=56.041084, lon.=26.458593, Alt.=114.686584m. Speed=16.164000m/h.</desc>
<speed>4.490000</speed>
</trkpt>
<trkpt lat="56.041126" lon="26.458601">
<ele>114.485413</ele>
<time>2010-06-20T10:38:01Z</time>
<desc>lat.=56.041126, lon.=26.458601, Alt.=114.485413m. Speed=16.812000m/h.</desc>
<speed>4.670000</speed>
</trkpt>
<trkpt lat="56.041172" lon="26.458609">
<ele>114.835022</ele>
<time>2010-06-20T10:38:02Z</time>
<desc>lat.=56.041172, lon.=26.458609, Alt.=114.835022m. Speed=17.028000m/h.</desc>
<speed>4.730000</speed>
</trkpt>
<trkpt lat="56.041214" lon="26.458618">
<ele>115.100647</ele>
<time>2010-06-20T10:38:03Z</time>
<desc>lat.=56.041214, lon.=26.458618, Alt.=115.100647m. Speed=17.676001m/h.</desc>
<speed>4.910000</speed>
</trkpt>
<trkpt lat="56.041260" lon="26.458632">
<ele>115.735413</ele>
<time>2010-06-20T10:38:04Z</time>
<desc>lat.=56.041260, lon.=26.458632, Alt.=115.735413m. Speed=18.108000m/h.</desc>
<speed>5.030000</speed>
</trkpt>
<trkpt lat="56.041309" lon="26.458637">
<ele>115.850647</ele>
<time>2010-06-20T10:38:05Z</time>
<desc>lat.=56.041309, lon.=26.458637, Alt.=115.850647m. Speed=18.216000m/h.</desc>
<speed>5.060000</speed>
</trkpt>
<trkpt lat="56.041355" lon="26.458645">
<ele>115.135803</ele>
<time>2010-06-20T10:38:06Z</time>
<desc>lat.=56.041355, lon.=26.458645, Alt.=115.135803m. Speed=18.540001m/h.</desc>
<speed>5.150000</speed>
</trkpt>
<trkpt lat="56.041405" lon="26.458654">
<ele>115.585022</ele>
<time>2010-06-20T10:38:07Z</time>
<desc>lat.=56.041405, lon.=26.458654, Alt.=115.585022m. Speed=18.612000m/h.</desc>
<speed>5.170000</speed>
</trkpt>
<trkpt lat="56.041447" lon="26.458662">
<ele>114.930725</ele>
<time>2010-06-20T10:38:08Z</time>
<desc>lat.=56.041447, lon.=26.458662, Alt.=114.930725m. Speed=17.496000m/h.</desc>
<speed>4.860000</speed>
</trkpt>
<trkpt lat="56.041485" lon="26.458673">
<ele>114.090881</ele>
<time>2010-06-20T10:38:09Z</time>
<desc>lat.=56.041485, lon.=26.458673, Alt.=114.090881m. Speed=16.379999m/h.</desc>
<speed>4.550000</speed>
</trkpt>
<trkpt lat="56.041523" lon="26.458685">
<ele>112.641663</ele>
<time>2010-06-20T10:38:10Z</time>
<desc>lat.=56.041523, lon.=26.458685, Alt.=112.641663m. Speed=16.164000m/h.</desc>
<speed>4.490000</speed>
</trkpt>
<trkpt lat="56.041561" lon="26.458698">
<ele>112.495178</ele>
<time>2010-06-20T10:38:11Z</time>
<desc>lat.=56.041561, lon.=26.458698, Alt.=112.495178m. Speed=17.028000m/h.</desc>
<speed>4.730000</speed>
</trkpt>
<trkpt lat="56.041603" lon="26.458714">
<ele>112.225647</ele>
<time>2010-06-20T10:38:12Z</time>
<desc>lat.=56.041603, lon.=26.458714, Alt.=112.225647m. Speed=17.243999m/h.</desc>
<speed>4.790000</speed>
</trkpt>
<trkpt lat="56.041641" lon="26.458733">
<ele>112.036194</ele>
<time>2010-06-20T10:38:13Z</time>
<desc>lat.=56.041641, lon.=26.458733, Alt.=112.036194m. Speed=16.920000m/h.</desc>
<speed>4.700000</speed>
</trkpt>
<trkpt lat="56.041683" lon="26.458752">
<ele>111.993225</ele>
<time>2010-06-20T10:38:14Z</time>
<desc>lat.=56.041683, lon.=26.458752, Alt.=111.993225m. Speed=16.271999m/h.</desc>
<speed>4.520000</speed>
</trkpt>
<trkpt lat="56.041721" lon="26.458769">
<ele>112.001038</ele>
<time>2010-06-20T10:38:15Z</time>
<desc>lat.=56.041721, lon.=26.458769, Alt.=112.001038m. Speed=15.732000m/h.</desc>
<speed>4.370000</speed>
</trkpt>
<trkpt lat="56.041759" lon="26.458792">
<ele>111.805725</ele>
<time>2010-06-20T10:38:16Z</time>
<desc>lat.=56.041759, lon.=26.458792, Alt.=111.805725m. Speed=15.192000m/h.</desc>
<speed>4.220000</speed>
</trkpt>
<trkpt lat="56.041794" lon="26.458811">
<ele>111.729553</ele>
<time>2010-06-20T10:38:17Z</time>
<desc>lat.=56.041794, lon.=26.458811, Alt.=111.729553m. Speed=14.652000m/h.</desc>
<speed>4.070000</speed>
</trkpt>
<trkpt lat="56.041824" lon="26.458826">
<ele>110.760803</ele>
<time>2010-06-20T10:38:18Z</time>
<desc>lat.=56.041824, lon.=26.458826, Alt.=110.760803m. Speed=13.608000m/h.</desc>
<speed>3.780000</speed>
</trkpt>
<trkpt lat="56.041859" lon="26.458845">
<ele>110.850647</ele>
<time>2010-06-20T10:38:19Z</time>
<desc>lat.=56.041859, lon.=26.458845, Alt.=110.850647m. Speed=13.644000m/h.</desc>
<speed>3.790000</speed>
</trkpt>
<trkpt lat="56.041893" lon="26.458864">
<ele>110.669006</ele>
<time>2010-06-20T10:38:20Z</time>
<desc>lat.=56.041893, lon.=26.458864, Alt.=110.669006m. Speed=15.948000m/h.</desc>
<speed>4.430000</speed>
</trkpt>
<trkpt lat="56.041931" lon="26.458883">
<ele>110.645569</ele>
<time>2010-06-20T10:38:21Z</time>
<desc>lat.=56.041931, lon.=26.458883, Alt.=110.645569m. Speed=15.084000m/h.</desc>
<speed>4.190000</speed>
</trkpt>
<trkpt lat="56.041965" lon="26.458906">
<ele>110.963928</ele>
<time>2010-06-20T10:38:22Z</time>
<desc>lat.=56.041965, lon.=26.458906, Alt.=110.963928m. Speed=15.300000m/h.</desc>
<speed>4.250000</speed>
</trkpt>
<trkpt lat="56.042004" lon="26.458927">
<ele>110.958069</ele>
<time>2010-06-20T10:38:23Z</time>
<desc>lat.=56.042004, lon.=26.458927, Alt.=110.958069m. Speed=14.832000m/h.</desc>
<speed>4.120000</speed>
</trkpt>
<trkpt lat="56.042038" lon="26.458944">
<ele>111.051819</ele>
<time>2010-06-20T10:38:24Z</time>
<desc>lat.=56.042038, lon.=26.458944, Alt.=111.051819m. Speed=14.652000m/h.</desc>
<speed>4.070000</speed>
</trkpt>
<trkpt lat="56.042076" lon="26.458963">
<ele>111.307678</ele>
<time>2010-06-20T10:38:25Z</time>
<desc>lat.=56.042076, lon.=26.458963, Alt.=111.307678m. Speed=14.724000m/h.</desc>
<speed>4.090000</speed>
</trkpt>
<trkpt lat="56.042110" lon="26.458981">
<ele>111.170959</ele>
<time>2010-06-20T10:38:26Z</time>
<desc>lat.=56.042110, lon.=26.458981, Alt.=111.170959m. Speed=14.652000m/h.</desc>
<speed>4.070000</speed>
</trkpt>
<trkpt lat="56.042145" lon="26.459002">
<ele>111.055725</ele>
<time>2010-06-20T10:38:27Z</time>
<desc>lat.=56.042145, lon.=26.459002, Alt.=111.055725m. Speed=13.896000m/h.</desc>
<speed>3.860000</speed>
</trkpt>
<trkpt lat="56.042175" lon="26.459021">
<ele>111.096741</ele>
<time>2010-06-20T10:38:28Z</time>
<desc>lat.=56.042175, lon.=26.459021, Alt.=111.096741m. Speed=12.420000m/h.</desc>
<speed>3.450000</speed>
</trkpt>
<trkpt lat="56.042206" lon="26.459036">
<ele>110.502991</ele>
<time>2010-06-20T10:38:29Z</time>
<desc>lat.=56.042206, lon.=26.459036, Alt.=110.502991m. Speed=13.176000m/h.</desc>
<speed>3.660000</speed>
</trkpt>
<trkpt lat="56.042240" lon="26.459057">
<ele>110.557678</ele>
<time>2010-06-20T10:38:30Z</time>
<desc>lat.=56.042240, lon.=26.459057, Alt.=110.557678m. Speed=13.248000m/h.</desc>
<speed>3.680000</speed>
</trkpt>
<trkpt lat="56.042271" lon="26.459076">
<ele>110.952209</ele>
<time>2010-06-20T10:38:31Z</time>
<desc>lat.=56.042271, lon.=26.459076, Alt.=110.952209m. Speed=14.004000m/h.</desc>
<speed>3.890000</speed>
</trkpt>
<trkpt lat="56.042309" lon="26.459097">
<ele>111.067444</ele>
<time>2010-06-20T10:38:32Z</time>
<desc>lat.=56.042309, lon.=26.459097, Alt.=111.067444m. Speed=14.256000m/h.</desc>
<speed>3.960000</speed>
</trkpt>
<trkpt lat="56.042339" lon="26.459116">
<ele>111.092834</ele>
<time>2010-06-20T10:38:33Z</time>
<desc>lat.=56.042339, lon.=26.459116, Alt.=111.092834m. Speed=13.680000m/h.</desc>
<speed>3.800000</speed>
</trkpt>
<trkpt lat="56.042370" lon="26.459131">
<ele>110.711975</ele>
<time>2010-06-20T10:38:34Z</time>
<desc>lat.=56.042370, lon.=26.459131, Alt.=110.711975m. Speed=14.328000m/h.</desc>
<speed>3.980000</speed>
</trkpt>
<trkpt lat="56.042400" lon="26.459154">
<ele>110.807678</ele>
<time>2010-06-20T10:38:35Z</time>
<desc>lat.=56.042400, lon.=26.459154, Alt.=110.807678m. Speed=13.752000m/h.</desc>
<speed>3.820000</speed>
</trkpt>
<trkpt lat="56.042435" lon="26.459175">
<ele>110.881897</ele>
<time>2010-06-20T10:38:36Z</time>
<desc>lat.=56.042435, lon.=26.459175, Alt.=110.881897m. Speed=14.760000m/h.</desc>
<speed>4.100000</speed>
</trkpt>
<trkpt lat="56.042465" lon="26.459198">
<ele>110.473694</ele>
<time>2010-06-20T10:38:37Z</time>
<desc>lat.=56.042465, lon.=26.459198, Alt.=110.473694m. Speed=15.084000m/h.</desc>
<speed>4.190000</speed>
</trkpt>
<trkpt lat="56.042496" lon="26.459225">
<ele>110.657288</ele>
<time>2010-06-20T10:38:38Z</time>
<desc>lat.=56.042496, lon.=26.459225, Alt.=110.657288m. Speed=15.264000m/h.</desc>
<speed>4.240000</speed>
</trkpt>
<trkpt lat="56.042530" lon="26.459259">
<ele>110.182678</ele>
<time>2010-06-20T10:38:39Z</time>
<desc>lat.=56.042530, lon.=26.459259, Alt.=110.182678m. Speed=16.416000m/h.</desc>
<speed>4.560000</speed>
</trkpt>
<trkpt lat="56.042580" lon="26.459293">
<ele>108.792053</ele>
<time>2010-06-20T10:38:40Z</time>
<desc>lat.=56.042580, lon.=26.459293, Alt.=108.792053m. Speed=20.591999m/h.</desc>
<speed>5.720000</speed>
</trkpt>
<trkpt lat="56.042633" lon="26.459326">
<ele>108.012756</ele>
<time>2010-06-20T10:38:41Z</time>
<desc>lat.=56.042633, lon.=26.459326, Alt.=108.012756m. Speed=22.896000m/h.</desc>
<speed>6.360000</speed>
</trkpt>
<trkpt lat="56.042683" lon="26.459358">
<ele>107.430725</ele>
<time>2010-06-20T10:38:42Z</time>
<desc>lat.=56.042683, lon.=26.459358, Alt.=107.430725m. Speed=20.160000m/h.</desc>
<speed>5.600000</speed>
</trkpt>
<trkpt lat="56.042732" lon="26.459391">
<ele>107.989319</ele>
<time>2010-06-20T10:38:43Z</time>
<desc>lat.=56.042732, lon.=26.459391, Alt.=107.989319m. Speed=21.816000m/h.</desc>
<speed>6.060000</speed>
</trkpt>
<trkpt lat="56.042789" lon="26.459417">
<ele>107.215881</ele>
<time>2010-06-20T10:38:44Z</time>
<desc>lat.=56.042789, lon.=26.459417, Alt.=107.215881m. Speed=22.608000m/h.</desc>
<speed>6.280000</speed>
</trkpt>
<trkpt lat="56.042847" lon="26.459440">
<ele>106.758850</ele>
<time>2010-06-20T10:38:45Z</time>
<desc>lat.=56.042847, lon.=26.459440, Alt.=106.758850m. Speed=23.472000m/h.</desc>
<speed>6.520000</speed>
</trkpt>
<trkpt lat="56.042912" lon="26.459467">
<ele>107.145569</ele>
<time>2010-06-20T10:38:46Z</time>
<desc>lat.=56.042912, lon.=26.459467, Alt.=107.145569m. Speed=24.804001m/h.</desc>
<speed>6.890000</speed>
</trkpt>
<trkpt lat="56.042969" lon="26.459492">
<ele>106.797913</ele>
<time>2010-06-20T10:38:47Z</time>
<desc>lat.=56.042969, lon.=26.459492, Alt.=106.797913m. Speed=24.120001m/h.</desc>
<speed>6.700000</speed>
</trkpt>
<trkpt lat="56.043026" lon="26.459518">
<ele>106.389709</ele>
<time>2010-06-20T10:38:48Z</time>
<desc>lat.=56.043026, lon.=26.459518, Alt.=106.389709m. Speed=23.436001m/h.</desc>
<speed>6.510000</speed>
</trkpt>
<trkpt lat="56.043087" lon="26.459547">
<ele>106.085022</ele>
<time>2010-06-20T10:38:49Z</time>
<desc>lat.=56.043087, lon.=26.459547, Alt.=106.085022m. Speed=23.219999m/h.</desc>
<speed>6.450000</speed>
</trkpt>
<trkpt lat="56.043140" lon="26.459574">
<ele>106.374084</ele>
<time>2010-06-20T10:38:50Z</time>
<desc>lat.=56.043140, lon.=26.459574, Alt.=106.374084m. Speed=21.528000m/h.</desc>
<speed>5.980000</speed>
</trkpt>
<trkpt lat="56.043194" lon="26.459599">
<ele>106.877991</ele>
<time>2010-06-20T10:38:51Z</time>
<desc>lat.=56.043194, lon.=26.459599, Alt.=106.877991m. Speed=20.304001m/h.</desc>
<speed>5.640000</speed>
</trkpt>
<trkpt lat="56.043240" lon="26.459620">
<ele>106.270569</ele>
<time>2010-06-20T10:38:52Z</time>
<desc>lat.=56.043240, lon.=26.459620, Alt.=106.270569m. Speed=19.511999m/h.</desc>
<speed>5.420000</speed>
</trkpt>
<trkpt lat="56.043289" lon="26.459644">
<ele>105.819397</ele>
<time>2010-06-20T10:38:53Z</time>
<desc>lat.=56.043289, lon.=26.459644, Alt.=105.819397m. Speed=19.332001m/h.</desc>
<speed>5.370000</speed>
</trkpt>
<trkpt lat="56.043343" lon="26.459669">
<ele>105.813538</ele>
<time>2010-06-20T10:38:54Z</time>
<desc>lat.=56.043343, lon.=26.459669, Alt.=105.813538m. Speed=18.827999m/h.</desc>
<speed>5.230000</speed>
</trkpt>
<trkpt lat="56.043400" lon="26.459688">
<ele>106.835022</ele>
<time>2010-06-20T10:38:55Z</time>
<desc>lat.=56.043400, lon.=26.459688, Alt.=106.835022m. Speed=18.540001m/h.</desc>
<speed>5.150000</speed>
</trkpt>
<trkpt lat="56.043438" lon="26.459707">
<ele>106.364319</ele>
<time>2010-06-20T10:38:56Z</time>
<desc>lat.=56.043438, lon.=26.459707, Alt.=106.364319m. Speed=17.172001m/h.</desc>
<speed>4.770000</speed>
</trkpt>
<trkpt lat="56.043480" lon="26.459728">
<ele>105.854553</ele>
<time>2010-06-20T10:38:57Z</time>
<desc>lat.=56.043480, lon.=26.459728, Alt.=105.854553m. Speed=16.452000m/h.</desc>
<speed>4.570000</speed>
</trkpt>
<trkpt lat="56.043510" lon="26.459749">
<ele>104.678772</ele>
<time>2010-06-20T10:38:58Z</time>
<desc>lat.=56.043510, lon.=26.459749, Alt.=104.678772m. Speed=15.696000m/h.</desc>
<speed>4.360000</speed>
</trkpt>
<trkpt lat="56.043545" lon="26.459772">
<ele>104.321350</ele>
<time>2010-06-20T10:38:59Z</time>
<desc>lat.=56.043545, lon.=26.459772, Alt.=104.321350m. Speed=14.868000m/h.</desc>
<speed>4.130000</speed>
</trkpt>
<trkpt lat="56.043579" lon="26.459789">
<ele>104.598694</ele>
<time>2010-06-20T10:39:00Z</time>
<desc>lat.=56.043579, lon.=26.459789, Alt.=104.598694m. Speed=14.400000m/h.</desc>
<speed>4.000000</speed>
</trkpt>
<trkpt lat="56.043617" lon="26.459808">
<ele>104.631897</ele>
<time>2010-06-20T10:39:01Z</time>
<desc>lat.=56.043617, lon.=26.459808, Alt.=104.631897m. Speed=16.452000m/h.</desc>
<speed>4.570000</speed>
</trkpt>
<trkpt lat="56.043655" lon="26.459824">
<ele>104.510803</ele>
<time>2010-06-20T10:39:02Z</time>
<desc>lat.=56.043655, lon.=26.459824, Alt.=104.510803m. Speed=14.256000m/h.</desc>
<speed>3.960000</speed>
</trkpt>
<trkpt lat="56.043686" lon="26.459835">
<ele>102.676819</ele>
<time>2010-06-20T10:39:03Z</time>
<desc>lat.=56.043686, lon.=26.459835, Alt.=102.676819m. Speed=13.032000m/h.</desc>
<speed>3.620000</speed>
</trkpt>
<trkpt lat="56.043720" lon="26.459852">
<ele>102.815491</ele>
<time>2010-06-20T10:39:04Z</time>
<desc>lat.=56.043720, lon.=26.459852, Alt.=102.815491m. Speed=14.004000m/h.</desc>
<speed>3.890000</speed>
</trkpt>
<trkpt lat="56.043755" lon="26.459873">
<ele>103.575256</ele>
<time>2010-06-20T10:39:05Z</time>
<desc>lat.=56.043755, lon.=26.459873, Alt.=103.575256m. Speed=13.680000m/h.</desc>
<speed>3.800000</speed>
</trkpt>
<trkpt lat="56.043793" lon="26.459888">
<ele>104.241272</ele>
<time>2010-06-20T10:39:06Z</time>
<desc>lat.=56.043793, lon.=26.459888, Alt.=104.241272m. Speed=13.320000m/h.</desc>
<speed>3.700000</speed>
</trkpt>
<trkpt lat="56.043827" lon="26.459908">
<ele>104.692444</ele>
<time>2010-06-20T10:39:07Z</time>
<desc>lat.=56.043827, lon.=26.459908, Alt.=104.692444m. Speed=13.032000m/h.</desc>
<speed>3.620000</speed>
</trkpt>
<trkpt lat="56.043861" lon="26.459921">
<ele>104.862366</ele>
<time>2010-06-20T10:39:08Z</time>
<desc>lat.=56.043861, lon.=26.459921, Alt.=104.862366m. Speed=12.816000m/h.</desc>
<speed>3.560000</speed>
</trkpt>
<trkpt lat="56.043896" lon="26.459930">
<ele>105.225647</ele>
<time>2010-06-20T10:39:09Z</time>
<desc>lat.=56.043896, lon.=26.459930, Alt.=105.225647m. Speed=13.752000m/h.</desc>
<speed>3.820000</speed>
</trkpt>
<trkpt lat="56.043934" lon="26.459944">
<ele>105.522522</ele>
<time>2010-06-20T10:39:10Z</time>
<desc>lat.=56.043934, lon.=26.459944, Alt.=105.522522m. Speed=14.940000m/h.</desc>
<speed>4.150000</speed>
</trkpt>
<trkpt lat="56.043968" lon="26.459963">
<ele>105.600647</ele>
<time>2010-06-20T10:39:11Z</time>
<desc>lat.=56.043968, lon.=26.459963, Alt.=105.600647m. Speed=13.572000m/h.</desc>
<speed>3.770000</speed>
</trkpt>
<trkpt lat="56.044006" lon="26.459984">
<ele>105.936584</ele>
<time>2010-06-20T10:39:12Z</time>
<desc>lat.=56.044006, lon.=26.459984, Alt.=105.936584m. Speed=14.004000m/h.</desc>
<speed>3.890000</speed>
</trkpt>
<trkpt lat="56.044041" lon="26.459997">
<ele>105.967834</ele>
<time>2010-06-20T10:39:13Z</time>
<desc>lat.=56.044041, lon.=26.459997, Alt.=105.967834m. Speed=14.292000m/h.</desc>
<speed>3.970000</speed>
</trkpt>
<trkpt lat="56.044075" lon="26.459999">
<ele>106.270569</ele>
<time>2010-06-20T10:39:14Z</time>
<desc>lat.=56.044075, lon.=26.459999, Alt.=106.270569m. Speed=14.004000m/h.</desc>
<speed>3.890000</speed>
</trkpt>
<trkpt lat="56.044109" lon="26.459999">
<ele>106.229553</ele>
<time>2010-06-20T10:39:15Z</time>
<desc>lat.=56.044109, lon.=26.459999, Alt.=106.229553m. Speed=12.780000m/h.</desc>
<speed>3.550000</speed>
</trkpt>
<trkpt lat="56.044136" lon="26.459999">
<ele>105.563538</ele>
<time>2010-06-20T10:39:16Z</time>
<desc>lat.=56.044136, lon.=26.459999, Alt.=105.563538m. Speed=11.304000m/h.</desc>
<speed>3.140000</speed>
</trkpt>
<trkpt lat="56.044167" lon="26.459991">
<ele>105.971741</ele>
<time>2010-06-20T10:39:17Z</time>
<desc>lat.=56.044167, lon.=26.459991, Alt.=105.971741m. Speed=11.592000m/h.</desc>
<speed>3.220000</speed>
</trkpt>
<trkpt lat="56.044193" lon="26.459980">
<ele>106.055725</ele>
<time>2010-06-20T10:39:18Z</time>
<desc>lat.=56.044193, lon.=26.459980, Alt.=106.055725m. Speed=11.520000m/h.</desc>
<speed>3.200000</speed>
</trkpt>
<trkpt lat="56.044231" lon="26.459970">
<ele>106.817444</ele>
<time>2010-06-20T10:39:19Z</time>
<desc>lat.=56.044231, lon.=26.459970, Alt.=106.817444m. Speed=12.384000m/h.</desc>
<speed>3.440000</speed>
</trkpt>
<trkpt lat="56.044258" lon="26.459953">
<ele>107.174866</ele>
<time>2010-06-20T10:39:20Z</time>
<desc>lat.=56.044258, lon.=26.459953, Alt.=107.174866m. Speed=12.312000m/h.</desc>
<speed>3.420000</speed>
</trkpt>
<trkpt lat="56.044292" lon="26.459936">
<ele>107.428772</ele>
<time>2010-06-20T10:39:21Z</time>
<desc>lat.=56.044292, lon.=26.459936, Alt.=107.428772m. Speed=12.528000m/h.</desc>
<speed>3.480000</speed>
</trkpt>
<trkpt lat="56.044323" lon="26.459915">
<ele>107.583069</ele>
<time>2010-06-20T10:39:22Z</time>
<desc>lat.=56.044323, lon.=26.459915, Alt.=107.583069m. Speed=12.024000m/h.</desc>
<speed>3.340000</speed>
</trkpt>
<trkpt lat="56.044353" lon="26.459896">
<ele>106.913147</ele>
<time>2010-06-20T10:39:23Z</time>
<desc>lat.=56.044353, lon.=26.459896, Alt.=106.913147m. Speed=12.600000m/h.</desc>
<speed>3.500000</speed>
</trkpt>
<trkpt lat="56.044388" lon="26.459873">
<ele>106.547913</ele>
<time>2010-06-20T10:39:24Z</time>
<desc>lat.=56.044388, lon.=26.459873, Alt.=106.547913m. Speed=14.688000m/h.</desc>
<speed>4.080000</speed>
</trkpt>
<trkpt lat="56.044418" lon="26.459852">
<ele>106.020569</ele>
<time>2010-06-20T10:39:25Z</time>
<desc>lat.=56.044418, lon.=26.459852, Alt.=106.020569m. Speed=13.608000m/h.</desc>
<speed>3.780000</speed>
</trkpt>
<trkpt lat="56.044441" lon="26.459826">
<ele>105.065491</ele>
<time>2010-06-20T10:39:26Z</time>
<desc>lat.=56.044441, lon.=26.459826, Alt.=105.065491m. Speed=12.168000m/h.</desc>
<speed>3.380000</speed>
</trkpt>
<trkpt lat="56.044476" lon="26.459799">
<ele>106.067444</ele>
<time>2010-06-20T10:39:27Z</time>
<desc>lat.=56.044476, lon.=26.459799, Alt.=106.067444m. Speed=11.952000m/h.</desc>
<speed>3.320000</speed>
</trkpt>
<trkpt lat="56.044502" lon="26.459774">
<ele>106.083069</ele>
<time>2010-06-20T10:39:28Z</time>
<desc>lat.=56.044502, lon.=26.459774, Alt.=106.083069m. Speed=12.276000m/h.</desc>
<speed>3.410000</speed>
</trkpt>
<trkpt lat="56.044525" lon="26.459749">
<ele>105.823303</ele>
<time>2010-06-20T10:39:29Z</time>
<desc>lat.=56.044525, lon.=26.459749, Alt.=105.823303m. Speed=10.008000m/h.</desc>
<speed>2.780000</speed>
</trkpt>
<trkpt lat="56.044548" lon="26.459730">
<ele>105.545959</ele>
<time>2010-06-20T10:39:30Z</time>
<desc>lat.=56.044548, lon.=26.459730, Alt.=105.545959m. Speed=10.800000m/h.</desc>
<speed>3.000000</speed>
</trkpt>
<trkpt lat="56.044571" lon="26.459703">
<ele>105.645569</ele>
<time>2010-06-20T10:39:31Z</time>
<desc>lat.=56.044571, lon.=26.459703, Alt.=105.645569m. Speed=12.816000m/h.</desc>
<speed>3.560000</speed>
</trkpt>
<trkpt lat="56.044609" lon="26.459667">
<ele>107.180725</ele>
<time>2010-06-20T10:39:32Z</time>
<desc>lat.=56.044609, lon.=26.459667, Alt.=107.180725m. Speed=13.716000m/h.</desc>
<speed>3.810000</speed>
</trkpt>
<trkpt lat="56.044640" lon="26.459633">
<ele>107.833069</ele>
<time>2010-06-20T10:39:33Z</time>
<desc>lat.=56.044640, lon.=26.459633, Alt.=107.833069m. Speed=13.392000m/h.</desc>
<speed>3.720000</speed>
</trkpt>
<trkpt lat="56.044670" lon="26.459600">
<ele>107.776428</ele>
<time>2010-06-20T10:39:34Z</time>
<desc>lat.=56.044670, lon.=26.459600, Alt.=107.776428m. Speed=14.004000m/h.</desc>
<speed>3.890000</speed>
</trkpt>
<trkpt lat="56.044701" lon="26.459572">
<ele>108.532288</ele>
<time>2010-06-20T10:39:35Z</time>
<desc>lat.=56.044701, lon.=26.459572, Alt.=108.532288m. Speed=12.204000m/h.</desc>
<speed>3.390000</speed>
</trkpt>
<trkpt lat="56.044731" lon="26.459538">
<ele>108.172913</ele>
<time>2010-06-20T10:39:36Z</time>
<desc>lat.=56.044731, lon.=26.459538, Alt.=108.172913m. Speed=14.400000m/h.</desc>
<speed>4.000000</speed>
</trkpt>
<trkpt lat="56.044765" lon="26.459505">
<ele>108.936584</ele>
<time>2010-06-20T10:39:37Z</time>
<desc>lat.=56.044765, lon.=26.459505, Alt.=108.936584m. Speed=14.004000m/h.</desc>
<speed>3.890000</speed>
</trkpt>
<trkpt lat="56.044800" lon="26.459475">
<ele>109.260803</ele>
<time>2010-06-20T10:39:38Z</time>
<desc>lat.=56.044800, lon.=26.459475, Alt.=109.260803m. Speed=13.824000m/h.</desc>
<speed>3.840000</speed>
</trkpt>
<trkpt lat="56.044830" lon="26.459442">
<ele>109.538147</ele>
<time>2010-06-20T10:39:39Z</time>
<desc>lat.=56.044830, lon.=26.459442, Alt.=109.538147m. Speed=14.004000m/h.</desc>
<speed>3.890000</speed>
</trkpt>
<trkpt lat="56.044861" lon="26.459410">
<ele>109.665100</ele>
<time>2010-06-20T10:39:40Z</time>
<desc>lat.=56.044861, lon.=26.459410, Alt.=109.665100m. Speed=13.932000m/h.</desc>
<speed>3.870000</speed>
</trkpt>
<trkpt lat="56.044891" lon="26.459377">
<ele>110.001038</ele>
<time>2010-06-20T10:39:41Z</time>
<desc>lat.=56.044891, lon.=26.459377, Alt.=110.001038m. Speed=13.752000m/h.</desc>
<speed>3.820000</speed>
</trkpt>
<trkpt lat="56.044922" lon="26.459349">
<ele>109.231506</ele>
<time>2010-06-20T10:39:42Z</time>
<desc>lat.=56.044922, lon.=26.459349, Alt.=109.231506m. Speed=13.680000m/h.</desc>
<speed>3.800000</speed>
</trkpt>
<trkpt lat="56.044952" lon="26.459316">
<ele>109.272522</ele>
<time>2010-06-20T10:39:43Z</time>
<desc>lat.=56.044952, lon.=26.459316, Alt.=109.272522m. Speed=13.176000m/h.</desc>
<speed>3.660000</speed>
</trkpt>
<trkpt lat="56.044975" lon="26.459284">
<ele>110.256897</ele>
<time>2010-06-20T10:39:44Z</time>
<desc>lat.=56.044975, lon.=26.459284, Alt.=110.256897m. Speed=11.412000m/h.</desc>
<speed>3.170000</speed>
</trkpt>
<trkpt lat="56.044994" lon="26.459251">
<ele>109.901428</ele>
<time>2010-06-20T10:39:45Z</time>
<desc>lat.=56.044994, lon.=26.459251, Alt.=109.901428m. Speed=11.232000m/h.</desc>
<speed>3.120000</speed>
</trkpt>
<trkpt lat="56.045025" lon="26.459217">
<ele>111.131897</ele>
<time>2010-06-20T10:39:46Z</time>
<desc>lat.=56.045025, lon.=26.459217, Alt.=111.131897m. Speed=11.808000m/h.</desc>
<speed>3.280000</speed>
</trkpt>
<trkpt lat="56.045052" lon="26.459185">
<ele>111.272522</ele>
<time>2010-06-20T10:39:47Z</time>
<desc>lat.=56.045052, lon.=26.459185, Alt.=111.272522m. Speed=12.096000m/h.</desc>
<speed>3.360000</speed>
</trkpt>
<trkpt lat="56.045082" lon="26.459154">
<ele>112.401428</ele>
<time>2010-06-20T10:39:48Z</time>
<desc>lat.=56.045082, lon.=26.459154, Alt.=112.401428m. Speed=11.916000m/h.</desc>
<speed>3.310000</speed>
</trkpt>
<trkpt lat="56.045105" lon="26.459126">
<ele>112.460022</ele>
<time>2010-06-20T10:39:49Z</time>
<desc>lat.=56.045105, lon.=26.459126, Alt.=112.460022m. Speed=10.368000m/h.</desc>
<speed>2.880000</speed>
</trkpt>
<trkpt lat="56.045124" lon="26.459087">
<ele>111.555725</ele>
<time>2010-06-20T10:39:50Z</time>
<desc>lat.=56.045124, lon.=26.459087, Alt.=111.555725m. Speed=11.340000m/h.</desc>
<speed>3.150000</speed>
</trkpt>
<trkpt lat="56.045151" lon="26.459068">
<ele>111.299866</ele>
<time>2010-06-20T10:39:51Z</time>
<desc>lat.=56.045151, lon.=26.459068, Alt.=111.299866m. Speed=12.168000m/h.</desc>
<speed>3.380000</speed>
</trkpt>
<trkpt lat="56.045177" lon="26.459045">
<ele>111.641663</ele>
<time>2010-06-20T10:39:52Z</time>
<desc>lat.=56.045177, lon.=26.459045, Alt.=111.641663m. Speed=11.160000m/h.</desc>
<speed>3.100000</speed>
</trkpt>
<trkpt lat="56.045208" lon="26.459017">
<ele>112.932678</ele>
<time>2010-06-20T10:39:53Z</time>
<desc>lat.=56.045208, lon.=26.459017, Alt.=112.932678m. Speed=13.536000m/h.</desc>
<speed>3.760000</speed>
</trkpt>
<trkpt lat="56.045231" lon="26.458996">
<ele>113.063538</ele>
<time>2010-06-20T10:39:54Z</time>
<desc>lat.=56.045231, lon.=26.458996, Alt.=113.063538m. Speed=12.420000m/h.</desc>
<speed>3.450000</speed>
</trkpt>
<trkpt lat="56.045261" lon="26.458967">
<ele>114.268616</ele>
<time>2010-06-20T10:39:55Z</time>
<desc>lat.=56.045261, lon.=26.458967, Alt.=114.268616m. Speed=12.600000m/h.</desc>
<speed>3.500000</speed>
</trkpt>
<trkpt lat="56.045292" lon="26.458933">
<ele>114.190491</ele>
<time>2010-06-20T10:39:56Z</time>
<desc>lat.=56.045292, lon.=26.458933, Alt.=114.190491m. Speed=12.456000m/h.</desc>
<speed>3.460000</speed>
</trkpt>
<trkpt lat="56.045322" lon="26.458904">
<ele>114.055725</ele>
<time>2010-06-20T10:39:57Z</time>
<desc>lat.=56.045322, lon.=26.458904, Alt.=114.055725m. Speed=10.836000m/h.</desc>
<speed>3.010000</speed>
</trkpt>
<trkpt lat="56.045349" lon="26.458876">
<ele>113.516663</ele>
<time>2010-06-20T10:39:58Z</time>
<desc>lat.=56.045349, lon.=26.458876, Alt.=113.516663m. Speed=10.836000m/h.</desc>
<speed>3.010000</speed>
</trkpt>
<trkpt lat="56.045376" lon="26.458860">
<ele>113.479553</ele>
<time>2010-06-20T10:39:59Z</time>
<desc>lat.=56.045376, lon.=26.458860, Alt.=113.479553m. Speed=10.188000m/h.</desc>
<speed>2.830000</speed>
</trkpt>
<trkpt lat="56.045403" lon="26.458838">
<ele>113.577209</ele>
<time>2010-06-20T10:40:00Z</time>
<desc>lat.=56.045403, lon.=26.458838, Alt.=113.577209m. Speed=11.268000m/h.</desc>
<speed>3.130000</speed>
</trkpt>
<trkpt lat="56.045429" lon="26.458809">
<ele>114.629944</ele>
<time>2010-06-20T10:40:01Z</time>
<desc>lat.=56.045429, lon.=26.458809, Alt.=114.629944m. Speed=11.736000m/h.</desc>
<speed>3.260000</speed>
</trkpt>
<trkpt lat="56.045460" lon="26.458778">
<ele>116.754944</ele>
<time>2010-06-20T10:40:02Z</time>
<desc>lat.=56.045460, lon.=26.458778, Alt.=116.754944m. Speed=11.700000m/h.</desc>
<speed>3.250000</speed>
</trkpt>
<trkpt lat="56.045486" lon="26.458746">
<ele>116.661194</ele>
<time>2010-06-20T10:40:03Z</time>
<desc>lat.=56.045486, lon.=26.458746, Alt.=116.661194m. Speed=12.600000m/h.</desc>
<speed>3.500000</speed>
</trkpt>
<trkpt lat="56.045517" lon="26.458725">
<ele>116.610413</ele>
<time>2010-06-20T10:40:04Z</time>
<desc>lat.=56.045517, lon.=26.458725, Alt.=116.610413m. Speed=12.600000m/h.</desc>
<speed>3.500000</speed>
</trkpt>
<trkpt lat="56.045547" lon="26.458704">
<ele>117.047913</ele>
<time>2010-06-20T10:40:05Z</time>
<desc>lat.=56.045547, lon.=26.458704, Alt.=117.047913m. Speed=12.312000m/h.</desc>
<speed>3.420000</speed>
</trkpt>
<trkpt lat="56.045582" lon="26.458679">
<ele>118.795959</ele>
<time>2010-06-20T10:40:06Z</time>
<desc>lat.=56.045582, lon.=26.458679, Alt.=118.795959m. Speed=12.240000m/h.</desc>
<speed>3.400000</speed>
</trkpt>
<trkpt lat="56.045612" lon="26.458651">
<ele>120.202209</ele>
<time>2010-06-20T10:40:07Z</time>
<desc>lat.=56.045612, lon.=26.458651, Alt.=120.202209m. Speed=13.392000m/h.</desc>
<speed>3.720000</speed>
</trkpt>
<trkpt lat="56.045643" lon="26.458628">
<ele>120.485413</ele>
<time>2010-06-20T10:40:08Z</time>
<desc>lat.=56.045643, lon.=26.458628, Alt.=120.485413m. Speed=13.464000m/h.</desc>
<speed>3.740000</speed>
</trkpt>
<trkpt lat="56.045666" lon="26.458599">
<ele>119.977600</ele>
<time>2010-06-20T10:40:09Z</time>
<desc>lat.=56.045666, lon.=26.458599, Alt.=119.977600m. Speed=10.548000m/h.</desc>
<speed>2.930000</speed>
</trkpt>
<trkpt lat="56.045689" lon="26.458569">
<ele>119.942444</ele>
<time>2010-06-20T10:40:10Z</time>
<desc>lat.=56.045689, lon.=26.458569, Alt.=119.942444m. Speed=11.880000m/h.</desc>
<speed>3.300000</speed>
</trkpt>
<trkpt lat="56.045708" lon="26.458540">
<ele>119.151428</ele>
<time>2010-06-20T10:40:11Z</time>
<desc>lat.=56.045708, lon.=26.458540, Alt.=119.151428m. Speed=10.260000m/h.</desc>
<speed>2.850000</speed>
</trkpt>
<trkpt lat="56.045723" lon="26.458513">
<ele>118.606506</ele>
<time>2010-06-20T10:40:12Z</time>
<desc>lat.=56.045723, lon.=26.458513, Alt.=118.606506m. Speed=11.304000m/h.</desc>
<speed>3.140000</speed>
</trkpt>
<trkpt lat="56.045753" lon="26.458481">
<ele>118.586975</ele>
<time>2010-06-20T10:40:13Z</time>
<desc>lat.=56.045753, lon.=26.458481, Alt.=118.586975m. Speed=12.492000m/h.</desc>
<speed>3.470000</speed>
</trkpt>
<trkpt lat="56.045780" lon="26.458450">
<ele>118.801819</ele>
<time>2010-06-20T10:40:14Z</time>
<desc>lat.=56.045780, lon.=26.458450, Alt.=118.801819m. Speed=12.528000m/h.</desc>
<speed>3.480000</speed>
</trkpt>
<trkpt lat="56.045807" lon="26.458426">
<ele>118.700256</ele>
<time>2010-06-20T10:40:15Z</time>
<desc>lat.=56.045807, lon.=26.458426, Alt.=118.700256m. Speed=11.808000m/h.</desc>
<speed>3.280000</speed>
</trkpt>
<trkpt lat="56.045826" lon="26.458401">
<ele>117.258850</ele>
<time>2010-06-20T10:40:16Z</time>
<desc>lat.=56.045826, lon.=26.458401, Alt.=117.258850m. Speed=11.268000m/h.</desc>
<speed>3.130000</speed>
</trkpt>
<trkpt lat="56.045853" lon="26.458380">
<ele>117.292053</ele>
<time>2010-06-20T10:40:17Z</time>
<desc>lat.=56.045853, lon.=26.458380, Alt.=117.292053m. Speed=12.096000m/h.</desc>
<speed>3.360000</speed>
</trkpt>
<trkpt lat="56.045879" lon="26.458351">
<ele>118.151428</ele>
<time>2010-06-20T10:40:18Z</time>
<desc>lat.=56.045879, lon.=26.458351, Alt.=118.151428m. Speed=12.060000m/h.</desc>
<speed>3.350000</speed>
</trkpt>
<trkpt lat="56.045902" lon="26.458321">
<ele>117.169006</ele>
<time>2010-06-20T10:40:19Z</time>
<desc>lat.=56.045902, lon.=26.458321, Alt.=117.169006m. Speed=12.564000m/h.</desc>
<speed>3.490000</speed>
</trkpt>
<trkpt lat="56.045929" lon="26.458292">
<ele>115.819397</ele>
<time>2010-06-20T10:40:20Z</time>
<desc>lat.=56.045929, lon.=26.458292, Alt.=115.819397m. Speed=12.492000m/h.</desc>
<speed>3.470000</speed>
</trkpt>
<trkpt lat="56.045959" lon="26.458258">
<ele>118.114319</ele>
<time>2010-06-20T10:40:21Z</time>
<desc>lat.=56.045959, lon.=26.458258, Alt.=118.114319m. Speed=11.916000m/h.</desc>
<speed>3.310000</speed>
</trkpt>
<trkpt lat="56.045982" lon="26.458229">
<ele>117.448303</ele>
<time>2010-06-20T10:40:22Z</time>
<desc>lat.=56.045982, lon.=26.458229, Alt.=117.448303m. Speed=11.052000m/h.</desc>
<speed>3.070000</speed>
</trkpt>
<trkpt lat="56.046001" lon="26.458202">
<ele>117.403381</ele>
<time>2010-06-20T10:40:23Z</time>
<desc>lat.=56.046001, lon.=26.458202, Alt.=117.403381m. Speed=10.260000m/h.</desc>
<speed>2.850000</speed>
</trkpt>
<trkpt lat="56.046024" lon="26.458179">
<ele>117.684631</ele>
<time>2010-06-20T10:40:24Z</time>
<desc>lat.=56.046024, lon.=26.458179, Alt.=117.684631m. Speed=10.296000m/h.</desc>
<speed>2.860000</speed>
</trkpt>
<trkpt lat="56.046043" lon="26.458160">
<ele>117.911194</ele>
<time>2010-06-20T10:40:25Z</time>
<desc>lat.=56.046043, lon.=26.458160, Alt.=117.911194m. Speed=8.640000m/h.</desc>
<speed>2.400000</speed>
</trkpt>
<trkpt lat="56.046062" lon="26.458145">
<ele>117.106506</ele>
<time>2010-06-20T10:40:26Z</time>
<desc>lat.=56.046062, lon.=26.458145, Alt.=117.106506m. Speed=8.676000m/h.</desc>
<speed>2.410000</speed>
</trkpt>
<trkpt lat="56.046085" lon="26.458132">
<ele>117.690491</ele>
<time>2010-06-20T10:40:27Z</time>
<desc>lat.=56.046085, lon.=26.458132, Alt.=117.690491m. Speed=7.992000m/h.</desc>
<speed>2.220000</speed>
</trkpt>
<trkpt lat="56.046108" lon="26.458118">
<ele>117.801819</ele>
<time>2010-06-20T10:40:28Z</time>
<desc>lat.=56.046108, lon.=26.458118, Alt.=117.801819m. Speed=10.152000m/h.</desc>
<speed>2.820000</speed>
</trkpt>
<trkpt lat="56.046131" lon="26.458086">
<ele>115.251038</ele>
<time>2010-06-20T10:40:29Z</time>
<desc>lat.=56.046131, lon.=26.458086, Alt.=115.251038m. Speed=11.124000m/h.</desc>
<speed>3.090000</speed>
</trkpt>
<trkpt lat="56.046162" lon="26.458057">
<ele>115.993225</ele>
<time>2010-06-20T10:40:30Z</time>
<desc>lat.=56.046162, lon.=26.458057, Alt.=115.993225m. Speed=12.456000m/h.</desc>
<speed>3.460000</speed>
</trkpt>
<trkpt lat="56.046188" lon="26.458029">
<ele>116.491272</ele>
<time>2010-06-20T10:40:31Z</time>
<desc>lat.=56.046188, lon.=26.458029, Alt.=116.491272m. Speed=13.212000m/h.</desc>
<speed>3.670000</speed>
</trkpt>
<trkpt lat="56.046207" lon="26.457998">
<ele>113.508850</ele>
<time>2010-06-20T10:40:32Z</time>
<desc>lat.=56.046207, lon.=26.457998, Alt.=113.508850m. Speed=12.600000m/h.</desc>
<speed>3.500000</speed>
</trkpt>
<trkpt lat="56.046238" lon="26.457972">
<ele>113.975647</ele>
<time>2010-06-20T10:40:33Z</time>
<desc>lat.=56.046238, lon.=26.457972, Alt.=113.975647m. Speed=11.808000m/h.</desc>
<speed>3.280000</speed>
</trkpt>
<trkpt lat="56.046261" lon="26.457951">
<ele>114.420959</ele>
<time>2010-06-20T10:40:34Z</time>
<desc>lat.=56.046261, lon.=26.457951, Alt.=114.420959m. Speed=12.204000m/h.</desc>
<speed>3.390000</speed>
</trkpt>
<trkpt lat="56.046288" lon="26.457924">
<ele>114.524475</ele>
<time>2010-06-20T10:40:35Z</time>
<desc>lat.=56.046288, lon.=26.457924, Alt.=114.524475m. Speed=13.644000m/h.</desc>
<speed>3.790000</speed>
</trkpt>
<trkpt lat="56.046322" lon="26.457886">
<ele>115.792053</ele>
<time>2010-06-20T10:40:36Z</time>
<desc>lat.=56.046322, lon.=26.457886, Alt.=115.792053m. Speed=13.968000m/h.</desc>
<speed>3.880000</speed>
</trkpt>
<trkpt lat="56.046349" lon="26.457851">
<ele>116.458069</ele>
<time>2010-06-20T10:40:37Z</time>
<desc>lat.=56.046349, lon.=26.457851, Alt.=116.458069m. Speed=14.004000m/h.</desc>
<speed>3.890000</speed>
</trkpt>
<trkpt lat="56.046379" lon="26.457815">
<ele>116.366272</ele>
<time>2010-06-20T10:40:38Z</time>
<desc>lat.=56.046379, lon.=26.457815, Alt.=116.366272m. Speed=14.472000m/h.</desc>
<speed>4.020000</speed>
</trkpt>
<trkpt lat="56.046410" lon="26.457777">
<ele>116.608459</ele>
<time>2010-06-20T10:40:39Z</time>
<desc>lat.=56.046410, lon.=26.457777, Alt.=116.608459m. Speed=14.436000m/h.</desc>
<speed>4.010000</speed>
</trkpt>
<trkpt lat="56.046444" lon="26.457745">
<ele>116.532288</ele>
<time>2010-06-20T10:40:40Z</time>
<desc>lat.=56.046444, lon.=26.457745, Alt.=116.532288m. Speed=12.816000m/h.</desc>
<speed>3.560000</speed>
</trkpt>
<trkpt lat="56.046474" lon="26.457716">
<ele>116.659241</ele>
<time>2010-06-20T10:40:41Z</time>
<desc>lat.=56.046474, lon.=26.457716, Alt.=116.659241m. Speed=15.372000m/h.</desc>
<speed>4.270000</speed>
</trkpt>
<trkpt lat="56.046505" lon="26.457676">
<ele>116.627991</ele>
<time>2010-06-20T10:40:42Z</time>
<desc>lat.=56.046505, lon.=26.457676, Alt.=116.627991m. Speed=13.680000m/h.</desc>
<speed>3.800000</speed>
</trkpt>
<trkpt lat="56.046532" lon="26.457640">
<ele>117.012756</ele>
<time>2010-06-20T10:40:43Z</time>
<desc>lat.=56.046532, lon.=26.457640, Alt.=117.012756m. Speed=13.860000m/h.</desc>
<speed>3.850000</speed>
</trkpt>
<trkpt lat="56.046562" lon="26.457603">
<ele>116.676819</ele>
<time>2010-06-20T10:40:44Z</time>
<desc>lat.=56.046562, lon.=26.457603, Alt.=116.676819m. Speed=14.760000m/h.</desc>
<speed>4.100000</speed>
</trkpt>
<trkpt lat="56.046593" lon="26.457571">
<ele>116.973694</ele>
<time>2010-06-20T10:40:45Z</time>
<desc>lat.=56.046593, lon.=26.457571, Alt.=116.973694m. Speed=14.292000m/h.</desc>
<speed>3.970000</speed>
</trkpt>
<trkpt lat="56.046619" lon="26.457546">
<ele>117.282288</ele>
<time>2010-06-20T10:40:46Z</time>
<desc>lat.=56.046619, lon.=26.457546, Alt.=117.282288m. Speed=11.484000m/h.</desc>
<speed>3.190000</speed>
</trkpt>
<trkpt lat="56.046642" lon="26.457516">
<ele>116.997131</ele>
<time>2010-06-20T10:40:47Z</time>
<desc>lat.=56.046642, lon.=26.457516, Alt.=116.997131m. Speed=12.420000m/h.</desc>
<speed>3.450000</speed>
</trkpt>
<trkpt lat="56.046669" lon="26.457479">
<ele>115.719788</ele>
<time>2010-06-20T10:40:48Z</time>
<desc>lat.=56.046669, lon.=26.457479, Alt.=115.719788m. Speed=14.112000m/h.</desc>
<speed>3.920000</speed>
</trkpt>
<trkpt lat="56.046696" lon="26.457443">
<ele>115.194397</ele>
<time>2010-06-20T10:40:49Z</time>
<desc>lat.=56.046696, lon.=26.457443, Alt.=115.194397m. Speed=15.696000m/h.</desc>
<speed>4.360000</speed>
</trkpt>
<trkpt lat="56.046726" lon="26.457407">
<ele>115.094788</ele>
<time>2010-06-20T10:40:50Z</time>
<desc>lat.=56.046726, lon.=26.457407, Alt.=115.094788m. Speed=14.148000m/h.</desc>
<speed>3.930000</speed>
</trkpt>
<trkpt lat="56.046761" lon="26.457373">
<ele>116.165100</ele>
<time>2010-06-20T10:40:51Z</time>
<desc>lat.=56.046761, lon.=26.457373, Alt.=116.165100m. Speed=14.292000m/h.</desc>
<speed>3.970000</speed>
</trkpt>
<trkpt lat="56.046791" lon="26.457335">
<ele>116.702209</ele>
<time>2010-06-20T10:40:52Z</time>
<desc>lat.=56.046791, lon.=26.457335, Alt.=116.702209m. Speed=15.336000m/h.</desc>
<speed>4.260000</speed>
</trkpt>
<trkpt lat="56.046825" lon="26.457302">
<ele>117.137756</ele>
<time>2010-06-20T10:40:53Z</time>
<desc>lat.=56.046825, lon.=26.457302, Alt.=117.137756m. Speed=14.436000m/h.</desc>
<speed>4.010000</speed>
</trkpt>
<trkpt lat="56.046852" lon="26.457275">
<ele>117.575256</ele>
<time>2010-06-20T10:40:54Z</time>
<desc>lat.=56.046852, lon.=26.457275, Alt.=117.575256m. Speed=11.988000m/h.</desc>
<speed>3.330000</speed>
</trkpt>
<trkpt lat="56.046879" lon="26.457251">
<ele>118.471741</ele>
<time>2010-06-20T10:40:55Z</time>
<desc>lat.=56.046879, lon.=26.457251, Alt.=118.471741m. Speed=10.728000m/h.</desc>
<speed>2.980000</speed>
</trkpt>
<trkpt lat="56.046906" lon="26.457214">
<ele>118.487366</ele>
<time>2010-06-20T10:40:56Z</time>
<desc>lat.=56.046906, lon.=26.457214, Alt.=118.487366m. Speed=14.184000m/h.</desc>
<speed>3.940000</speed>
</trkpt>
<trkpt lat="56.046940" lon="26.457178">
<ele>118.942444</ele>
<time>2010-06-20T10:40:57Z</time>
<desc>lat.=56.046940, lon.=26.457178, Alt.=118.942444m. Speed=13.608000m/h.</desc>
<speed>3.780000</speed>
</trkpt>
<trkpt lat="56.046967" lon="26.457148">
<ele>118.538147</ele>
<time>2010-06-20T10:40:58Z</time>
<desc>lat.=56.046967, lon.=26.457148, Alt.=118.538147m. Speed=12.996000m/h.</desc>
<speed>3.610000</speed>
</trkpt>
<trkpt lat="56.047001" lon="26.457115">
<ele>119.883850</ele>
<time>2010-06-20T10:40:59Z</time>
<desc>lat.=56.047001, lon.=26.457115, Alt.=119.883850m. Speed=12.348000m/h.</desc>
<speed>3.430000</speed>
</trkpt>
<trkpt lat="56.047028" lon="26.457087">
<ele>119.670959</ele>
<time>2010-06-20T10:41:00Z</time>
<desc>lat.=56.047028, lon.=26.457087, Alt.=119.670959m. Speed=12.492000m/h.</desc>
<speed>3.470000</speed>
</trkpt>
<trkpt lat="56.047050" lon="26.457056">
<ele>119.135803</ele>
<time>2010-06-20T10:41:01Z</time>
<desc>lat.=56.047050, lon.=26.457056, Alt.=119.135803m. Speed=11.628000m/h.</desc>
<speed>3.230000</speed>
</trkpt>
<trkpt lat="56.047073" lon="26.457037">
<ele>119.274475</ele>
<time>2010-06-20T10:41:02Z</time>
<desc>lat.=56.047073, lon.=26.457037, Alt.=119.274475m. Speed=9.648000m/h.</desc>
<speed>2.680000</speed>
</trkpt>
<trkpt lat="56.047092" lon="26.457022">
<ele>119.383850</ele>
<time>2010-06-20T10:41:03Z</time>
<desc>lat.=56.047092, lon.=26.457022, Alt.=119.383850m. Speed=9.792000m/h.</desc>
<speed>2.720000</speed>
</trkpt>
<trkpt lat="56.047115" lon="26.456993">
<ele>119.321350</ele>
<time>2010-06-20T10:41:04Z</time>
<desc>lat.=56.047115, lon.=26.456993, Alt.=119.321350m. Speed=11.844000m/h.</desc>
<speed>3.290000</speed>
</trkpt>
<trkpt lat="56.047138" lon="26.456966">
<ele>119.180725</ele>
<time>2010-06-20T10:41:05Z</time>
<desc>lat.=56.047138, lon.=26.456966, Alt.=119.180725m. Speed=9.540000m/h.</desc>
<speed>2.650000</speed>
</trkpt>
<trkpt lat="56.047165" lon="26.456936">
<ele>118.774475</ele>
<time>2010-06-20T10:41:06Z</time>
<desc>lat.=56.047165, lon.=26.456936, Alt.=118.774475m. Speed=13.572000m/h.</desc>
<speed>3.770000</speed>
</trkpt>
<trkpt lat="56.047203" lon="26.456896">
<ele>119.526428</ele>
<time>2010-06-20T10:41:07Z</time>
<desc>lat.=56.047203, lon.=26.456896, Alt.=119.526428m. Speed=14.436000m/h.</desc>
<speed>4.010000</speed>
</trkpt>
<trkpt lat="56.047237" lon="26.456858">
<ele>119.860413</ele>
<time>2010-06-20T10:41:08Z</time>
<desc>lat.=56.047237, lon.=26.456858, Alt.=119.860413m. Speed=12.636000m/h.</desc>
<speed>3.510000</speed>
</trkpt>
<trkpt lat="56.047264" lon="26.456833">
<ele>119.913147</ele>
<time>2010-06-20T10:41:09Z</time>
<desc>lat.=56.047264, lon.=26.456833, Alt.=119.913147m. Speed=11.124000m/h.</desc>
<speed>3.090000</speed>
</trkpt>
<trkpt lat="56.047295" lon="26.456808">
<ele>121.026428</ele>
<time>2010-06-20T10:41:10Z</time>
<desc>lat.=56.047295, lon.=26.456808, Alt.=121.026428m. Speed=12.312000m/h.</desc>
<speed>3.420000</speed>
</trkpt>
<trkpt lat="56.047329" lon="26.456776">
<ele>121.002991</ele>
<time>2010-06-20T10:41:11Z</time>
<desc>lat.=56.047329, lon.=26.456776, Alt.=121.002991m. Speed=11.124000m/h.</desc>
<speed>3.090000</speed>
</trkpt>
<trkpt lat="56.047363" lon="26.456751">
<ele>122.286194</ele>
<time>2010-06-20T10:41:12Z</time>
<desc>lat.=56.047363, lon.=26.456751, Alt.=122.286194m. Speed=11.412000m/h.</desc>
<speed>3.170000</speed>
</trkpt>
<trkpt lat="56.047390" lon="26.456732">
<ele>122.852600</ele>
<time>2010-06-20T10:41:13Z</time>
<desc>lat.=56.047390, lon.=26.456732, Alt.=122.852600m. Speed=10.800000m/h.</desc>
<speed>3.000000</speed>
</trkpt>
<trkpt lat="56.047424" lon="26.456705">
<ele>122.948303</ele>
<time>2010-06-20T10:41:14Z</time>
<desc>lat.=56.047424, lon.=26.456705, Alt.=122.948303m. Speed=12.420000m/h.</desc>
<speed>3.450000</speed>
</trkpt>
<trkpt lat="56.047455" lon="26.456669">
<ele>123.030334</ele>
<time>2010-06-20T10:41:15Z</time>
<desc>lat.=56.047455, lon.=26.456669, Alt.=123.030334m. Speed=11.628000m/h.</desc>
<speed>3.230000</speed>
</trkpt>
<trkpt lat="56.047478" lon="26.456636">
<ele>122.219788</ele>
<time>2010-06-20T10:41:16Z</time>
<desc>lat.=56.047478, lon.=26.456636, Alt.=122.219788m. Speed=11.628000m/h.</desc>
<speed>3.230000</speed>
</trkpt>
<trkpt lat="56.047501" lon="26.456612">
<ele>122.483459</ele>
<time>2010-06-20T10:41:17Z</time>
<desc>lat.=56.047501, lon.=26.456612, Alt.=122.483459m. Speed=8.784000m/h.</desc>
<speed>2.440000</speed>
</trkpt>
<trkpt lat="56.047531" lon="26.456585">
<ele>124.315491</ele>
<time>2010-06-20T10:41:18Z</time>
<desc>lat.=56.047531, lon.=26.456585, Alt.=124.315491m. Speed=11.232000m/h.</desc>
<speed>3.120000</speed>
</trkpt>
<trkpt lat="56.047554" lon="26.456554">
<ele>123.811584</ele>
<time>2010-06-20T10:41:19Z</time>
<desc>lat.=56.047554, lon.=26.456554, Alt.=123.811584m. Speed=10.656000m/h.</desc>
<speed>2.960000</speed>
</trkpt>
<trkpt lat="56.047577" lon="26.456526">
<ele>123.833069</ele>
<time>2010-06-20T10:41:20Z</time>
<desc>lat.=56.047577, lon.=26.456526, Alt.=123.833069m. Speed=11.736000m/h.</desc>
<speed>3.260000</speed>
</trkpt>
<trkpt lat="56.047604" lon="26.456499">
<ele>122.387756</ele>
<time>2010-06-20T10:41:21Z</time>
<desc>lat.=56.047604, lon.=26.456499, Alt.=122.387756m. Speed=11.556000m/h.</desc>
<speed>3.210000</speed>
</trkpt>
<trkpt lat="56.047626" lon="26.456465">
<ele>121.211975</ele>
<time>2010-06-20T10:41:22Z</time>
<desc>lat.=56.047626, lon.=26.456465, Alt.=121.211975m. Speed=11.376000m/h.</desc>
<speed>3.160000</speed>
</trkpt>
<trkpt lat="56.047649" lon="26.456440">
<ele>120.846741</ele>
<time>2010-06-20T10:41:23Z</time>
<desc>lat.=56.047649, lon.=26.456440, Alt.=120.846741m. Speed=9.684000m/h.</desc>
<speed>2.690000</speed>
</trkpt>
<trkpt lat="56.047672" lon="26.456411">
<ele>120.524475</ele>
<time>2010-06-20T10:41:24Z</time>
<desc>lat.=56.047672, lon.=26.456411, Alt.=120.524475m. Speed=9.324000m/h.</desc>
<speed>2.590000</speed>
</trkpt>
<trkpt lat="56.047695" lon="26.456379">
<ele>119.747131</ele>
<time>2010-06-20T10:41:25Z</time>
<desc>lat.=56.047695, lon.=26.456379, Alt.=119.747131m. Speed=9.000000m/h.</desc>
<speed>2.500000</speed>
</trkpt>
<trkpt lat="56.047718" lon="26.456335">
<ele>118.960022</ele>
<time>2010-06-20T10:41:26Z</time>
<desc>lat.=56.047718, lon.=26.456335, Alt.=118.960022m. Speed=12.348000m/h.</desc>
<speed>3.430000</speed>
</trkpt>
<trkpt lat="56.047741" lon="26.456305">
<ele>119.006897</ele>
<time>2010-06-20T10:41:27Z</time>
<desc>lat.=56.047741, lon.=26.456305, Alt.=119.006897m. Speed=10.116000m/h.</desc>
<speed>2.810000</speed>
</trkpt>
<trkpt lat="56.047768" lon="26.456280">
<ele>118.036194</ele>
<time>2010-06-20T10:41:28Z</time>
<desc>lat.=56.047768, lon.=26.456280, Alt.=118.036194m. Speed=11.376000m/h.</desc>
<speed>3.160000</speed>
</trkpt>
<trkpt lat="56.047787" lon="26.456253">
<ele>117.555725</ele>
<time>2010-06-20T10:41:29Z</time>
<desc>lat.=56.047787, lon.=26.456253, Alt.=117.555725m. Speed=9.288000m/h.</desc>
<speed>2.580000</speed>
</trkpt>
<trkpt lat="56.047806" lon="26.456230">
<ele>117.235413</ele>
<time>2010-06-20T10:41:30Z</time>
<desc>lat.=56.047806, lon.=26.456230, Alt.=117.235413m. Speed=7.380000m/h.</desc>
<speed>2.050000</speed>
</trkpt>
<trkpt lat="56.047821" lon="26.456203">
<ele>116.835022</ele>
<time>2010-06-20T10:41:31Z</time>
<desc>lat.=56.047821, lon.=26.456203, Alt.=116.835022m. Speed=9.252000m/h.</desc>
<speed>2.570000</speed>
</trkpt>
<trkpt lat="56.047859" lon="26.456167">
<ele>115.555725</ele>
<time>2010-06-20T10:41:32Z</time>
<desc>lat.=56.047859, lon.=26.456167, Alt.=115.555725m. Speed=12.744000m/h.</desc>
<speed>3.540000</speed>
</trkpt>
<trkpt lat="56.047905" lon="26.456121">
<ele>114.790100</ele>
<time>2010-06-20T10:41:33Z</time>
<desc>lat.=56.047905, lon.=26.456121, Alt.=114.790100m. Speed=12.780000m/h.</desc>
<speed>3.550000</speed>
</trkpt>
<trkpt lat="56.047939" lon="26.456095">
<ele>113.067444</ele>
<time>2010-06-20T10:41:34Z</time>
<desc>lat.=56.047939, lon.=26.456095, Alt.=113.067444m. Speed=12.312000m/h.</desc>
<speed>3.420000</speed>
</trkpt>
<trkpt lat="56.047977" lon="26.456062">
<ele>112.317444</ele>
<time>2010-06-20T10:41:35Z</time>
<desc>lat.=56.047977, lon.=26.456062, Alt.=112.317444m. Speed=12.528000m/h.</desc>
<speed>3.480000</speed>
</trkpt>
<trkpt lat="56.048019" lon="26.456032">
<ele>112.934631</ele>
<time>2010-06-20T10:41:36Z</time>
<desc>lat.=56.048019, lon.=26.456032, Alt.=112.934631m. Speed=12.816000m/h.</desc>
<speed>3.560000</speed>
</trkpt>
<trkpt lat="56.048054" lon="26.456003">
<ele>112.717834</ele>
<time>2010-06-20T10:41:37Z</time>
<desc>lat.=56.048054, lon.=26.456003, Alt.=112.717834m. Speed=13.068000m/h.</desc>
<speed>3.630000</speed>
</trkpt>
<trkpt lat="56.048092" lon="26.455963">
<ele>113.026428</ele>
<time>2010-06-20T10:41:38Z</time>
<desc>lat.=56.048092, lon.=26.455963, Alt.=113.026428m. Speed=13.104000m/h.</desc>
<speed>3.640000</speed>
</trkpt>
<trkpt lat="56.048126" lon="26.455923">
<ele>113.055725</ele>
<time>2010-06-20T10:41:39Z</time>
<desc>lat.=56.048126, lon.=26.455923, Alt.=113.055725m. Speed=11.772000m/h.</desc>
<speed>3.270000</speed>
</trkpt>
<trkpt lat="56.048157" lon="26.455893">
<ele>112.299866</ele>
<time>2010-06-20T10:41:40Z</time>
<desc>lat.=56.048157, lon.=26.455893, Alt.=112.299866m. Speed=11.592000m/h.</desc>
<speed>3.220000</speed>
</trkpt>
<trkpt lat="56.048183" lon="26.455870">
<ele>111.290100</ele>
<time>2010-06-20T10:41:41Z</time>
<desc>lat.=56.048183, lon.=26.455870, Alt.=111.290100m. Speed=12.852000m/h.</desc>
<speed>3.570000</speed>
</trkpt>
<trkpt lat="56.048210" lon="26.455841">
<ele>110.674866</ele>
<time>2010-06-20T10:41:42Z</time>
<desc>lat.=56.048210, lon.=26.455841, Alt.=110.674866m. Speed=12.888000m/h.</desc>
<speed>3.580000</speed>
</trkpt>
<trkpt lat="56.048237" lon="26.455816">
<ele>110.415100</ele>
<time>2010-06-20T10:41:43Z</time>
<desc>lat.=56.048237, lon.=26.455816, Alt.=110.415100m. Speed=11.268000m/h.</desc>
<speed>3.130000</speed>
</trkpt>
<trkpt lat="56.048264" lon="26.455793">
<ele>110.172913</ele>
<time>2010-06-20T10:41:44Z</time>
<desc>lat.=56.048264, lon.=26.455793, Alt.=110.172913m. Speed=12.636000m/h.</desc>
<speed>3.510000</speed>
</trkpt>
<trkpt lat="56.048298" lon="26.455757">
<ele>111.088928</ele>
<time>2010-06-20T10:41:45Z</time>
<desc>lat.=56.048298, lon.=26.455757, Alt.=111.088928m. Speed=13.248000m/h.</desc>
<speed>3.680000</speed>
</trkpt>
<trkpt lat="56.048325" lon="26.455719">
<ele>111.325256</ele>
<time>2010-06-20T10:41:46Z</time>
<desc>lat.=56.048325, lon.=26.455719, Alt.=111.325256m. Speed=13.464000m/h.</desc>
<speed>3.740000</speed>
</trkpt>
<trkpt lat="56.048355" lon="26.455685">
<ele>111.573303</ele>
<time>2010-06-20T10:41:47Z</time>
<desc>lat.=56.048355, lon.=26.455685, Alt.=111.573303m. Speed=12.528000m/h.</desc>
<speed>3.480000</speed>
</trkpt>
<trkpt lat="56.048382" lon="26.455656">
<ele>110.508850</ele>
<time>2010-06-20T10:41:48Z</time>
<desc>lat.=56.048382, lon.=26.455656, Alt.=110.508850m. Speed=12.420000m/h.</desc>
<speed>3.450000</speed>
</trkpt>
<trkpt lat="56.048412" lon="26.455631">
<ele>110.088928</ele>
<time>2010-06-20T10:41:49Z</time>
<desc>lat.=56.048412, lon.=26.455631, Alt.=110.088928m. Speed=13.500000m/h.</desc>
<speed>3.750000</speed>
</trkpt>
<trkpt lat="56.048443" lon="26.455603">
<ele>110.092834</ele>
<time>2010-06-20T10:41:50Z</time>
<desc>lat.=56.048443, lon.=26.455603, Alt.=110.092834m. Speed=13.536000m/h.</desc>
<speed>3.760000</speed>
</trkpt>
<trkpt lat="56.048473" lon="26.455576">
<ele>109.817444</ele>
<time>2010-06-20T10:41:51Z</time>
<desc>lat.=56.048473, lon.=26.455576, Alt.=109.817444m. Speed=12.816000m/h.</desc>
<speed>3.560000</speed>
</trkpt>
<trkpt lat="56.048512" lon="26.455553">
<ele>110.815491</ele>
<time>2010-06-20T10:41:52Z</time>
<desc>lat.=56.048512, lon.=26.455553, Alt.=110.815491m. Speed=12.096000m/h.</desc>
<speed>3.360000</speed>
</trkpt>
<trkpt lat="56.048542" lon="26.455534">
<ele>110.514709</ele>
<time>2010-06-20T10:41:53Z</time>
<desc>lat.=56.048542, lon.=26.455534, Alt.=110.514709m. Speed=12.996000m/h.</desc>
<speed>3.610000</speed>
</trkpt>
<trkpt lat="56.048573" lon="26.455507">
<ele>109.792053</ele>
<time>2010-06-20T10:41:54Z</time>
<desc>lat.=56.048573, lon.=26.455507, Alt.=109.792053m. Speed=13.968000m/h.</desc>
<speed>3.880000</speed>
</trkpt>
<trkpt lat="56.048603" lon="26.455486">
<ele>109.717834</ele>
<time>2010-06-20T10:41:55Z</time>
<desc>lat.=56.048603, lon.=26.455486, Alt.=109.717834m. Speed=12.960000m/h.</desc>
<speed>3.600000</speed>
</trkpt>
<trkpt lat="56.048634" lon="26.455471">
<ele>108.928772</ele>
<time>2010-06-20T10:41:56Z</time>
<desc>lat.=56.048634, lon.=26.455471, Alt.=108.928772m. Speed=13.644000m/h.</desc>
<speed>3.790000</speed>
</trkpt>
<trkpt lat="56.048664" lon="26.455452">
<ele>107.856506</ele>
<time>2010-06-20T10:41:57Z</time>
<desc>lat.=56.048664, lon.=26.455452, Alt.=107.856506m. Speed=14.796000m/h.</desc>
<speed>4.110000</speed>
</trkpt>
<trkpt lat="56.048698" lon="26.455437">
<ele>107.710022</ele>
<time>2010-06-20T10:41:58Z</time>
<desc>lat.=56.048698, lon.=26.455437, Alt.=107.710022m. Speed=12.024000m/h.</desc>
<speed>3.340000</speed>
</trkpt>
<trkpt lat="56.048725" lon="26.455431">
<ele>106.891663</ele>
<time>2010-06-20T10:41:59Z</time>
<desc>lat.=56.048725, lon.=26.455431, Alt.=106.891663m. Speed=13.068000m/h.</desc>
<speed>3.630000</speed>
</trkpt>
<trkpt lat="56.048756" lon="26.455416">
<ele>106.467834</ele>
<time>2010-06-20T10:42:00Z</time>
<desc>lat.=56.048756, lon.=26.455416, Alt.=106.467834m. Speed=12.780000m/h.</desc>
<speed>3.550000</speed>
</trkpt>
<trkpt lat="56.048786" lon="26.455400">
<ele>105.483459</ele>
<time>2010-06-20T10:42:01Z</time>
<desc>lat.=56.048786, lon.=26.455400, Alt.=105.483459m. Speed=12.924000m/h.</desc>
<speed>3.590000</speed>
</trkpt>
<trkpt lat="56.048820" lon="26.455381">
<ele>105.786194</ele>
<time>2010-06-20T10:42:02Z</time>
<desc>lat.=56.048820, lon.=26.455381, Alt.=105.786194m. Speed=14.148000m/h.</desc>
<speed>3.930000</speed>
</trkpt>
<trkpt lat="56.048862" lon="26.455359">
<ele>105.590881</ele>
<time>2010-06-20T10:42:03Z</time>
<desc>lat.=56.048862, lon.=26.455359, Alt.=105.590881m. Speed=15.120000m/h.</desc>
<speed>4.200000</speed>
</trkpt>
<trkpt lat="56.048901" lon="26.455339">
<ele>105.149475</ele>
<time>2010-06-20T10:42:04Z</time>
<desc>lat.=56.048901, lon.=26.455339, Alt.=105.149475m. Speed=13.644000m/h.</desc>
<speed>3.790000</speed>
</trkpt>
<trkpt lat="56.048931" lon="26.455328">
<ele>104.598694</ele>
<time>2010-06-20T10:42:05Z</time>
<desc>lat.=56.048931, lon.=26.455328, Alt.=104.598694m. Speed=13.032000m/h.</desc>
<speed>3.620000</speed>
</trkpt>
<trkpt lat="56.048965" lon="26.455317">
<ele>104.538147</ele>
<time>2010-06-20T10:42:06Z</time>
<desc>lat.=56.048965, lon.=26.455317, Alt.=104.538147m. Speed=11.916000m/h.</desc>
<speed>3.310000</speed>
</trkpt>
<trkpt lat="56.048992" lon="26.455305">
<ele>104.592834</ele>
<time>2010-06-20T10:42:07Z</time>
<desc>lat.=56.048992, lon.=26.455305, Alt.=104.592834m. Speed=11.736000m/h.</desc>
<speed>3.260000</speed>
</trkpt>
<trkpt lat="56.049023" lon="26.455292">
<ele>104.639709</ele>
<time>2010-06-20T10:42:08Z</time>
<desc>lat.=56.049023, lon.=26.455292, Alt.=104.639709m. Speed=12.600000m/h.</desc>
<speed>3.500000</speed>
</trkpt>
<trkpt lat="56.049076" lon="26.455284">
<ele>106.694397</ele>
<time>2010-06-20T10:42:09Z</time>
<desc>lat.=56.049076, lon.=26.455284, Alt.=106.694397m. Speed=12.060000m/h.</desc>
<speed>3.350000</speed>
</trkpt>
<trkpt lat="56.049114" lon="26.455271">
<ele>108.585022</ele>
<time>2010-06-20T10:42:10Z</time>
<desc>lat.=56.049114, lon.=26.455271, Alt.=108.585022m. Speed=12.960000m/h.</desc>
<speed>3.600000</speed>
</trkpt>
<trkpt lat="56.049149" lon="26.455265">
<ele>108.788147</ele>
<time>2010-06-20T10:42:11Z</time>
<desc>lat.=56.049149, lon.=26.455265, Alt.=108.788147m. Speed=13.860000m/h.</desc>
<speed>3.850000</speed>
</trkpt>
<trkpt lat="56.049187" lon="26.455244">
<ele>107.086975</ele>
<time>2010-06-20T10:42:12Z</time>
<desc>lat.=56.049187, lon.=26.455244, Alt.=107.086975m. Speed=13.788000m/h.</desc>
<speed>3.830000</speed>
</trkpt>
<trkpt lat="56.049225" lon="26.455231">
<ele>107.276428</ele>
<time>2010-06-20T10:42:13Z</time>
<desc>lat.=56.049225, lon.=26.455231, Alt.=107.276428m. Speed=13.284000m/h.</desc>
<speed>3.690000</speed>
</trkpt>
<trkpt lat="56.049259" lon="26.455210">
<ele>107.335022</ele>
<time>2010-06-20T10:42:14Z</time>
<desc>lat.=56.049259, lon.=26.455210, Alt.=107.335022m. Speed=14.472000m/h.</desc>
<speed>4.020000</speed>
</trkpt>
<trkpt lat="56.049297" lon="26.455194">
<ele>107.669006</ele>
<time>2010-06-20T10:42:15Z</time>
<desc>lat.=56.049297, lon.=26.455194, Alt.=107.669006m. Speed=13.356000m/h.</desc>
<speed>3.710000</speed>
</trkpt>
<trkpt lat="56.049332" lon="26.455175">
<ele>107.502991</ele>
<time>2010-06-20T10:42:16Z</time>
<desc>lat.=56.049332, lon.=26.455175, Alt.=107.502991m. Speed=14.760000m/h.</desc>
<speed>4.100000</speed>
</trkpt>
<trkpt lat="56.049362" lon="26.455162">
<ele>106.723694</ele>
<time>2010-06-20T10:42:17Z</time>
<desc>lat.=56.049362, lon.=26.455162, Alt.=106.723694m. Speed=13.212000m/h.</desc>
<speed>3.670000</speed>
</trkpt>
<trkpt lat="56.049393" lon="26.455145">
<ele>106.995178</ele>
<time>2010-06-20T10:42:18Z</time>
<desc>lat.=56.049393, lon.=26.455145, Alt.=106.995178m. Speed=11.952000m/h.</desc>
<speed>3.320000</speed>
</trkpt>
<trkpt lat="56.049427" lon="26.455135">
<ele>107.331116</ele>
<time>2010-06-20T10:42:19Z</time>
<desc>lat.=56.049427, lon.=26.455135, Alt.=107.331116m. Speed=11.988000m/h.</desc>
<speed>3.330000</speed>
</trkpt>
<trkpt lat="56.049450" lon="26.455130">
<ele>107.083069</ele>
<time>2010-06-20T10:42:20Z</time>
<desc>lat.=56.049450, lon.=26.455130, Alt.=107.083069m. Speed=9.396000m/h.</desc>
<speed>2.610000</speed>
</trkpt>
<trkpt lat="56.049477" lon="26.455126">
<ele>107.108459</ele>
<time>2010-06-20T10:42:21Z</time>
<desc>lat.=56.049477, lon.=26.455126, Alt.=107.108459m. Speed=11.304000m/h.</desc>
<speed>3.140000</speed>
</trkpt>
<trkpt lat="56.049515" lon="26.455111">
<ele>108.424866</ele>
<time>2010-06-20T10:42:22Z</time>
<desc>lat.=56.049515, lon.=26.455111, Alt.=108.424866m. Speed=11.700000m/h.</desc>
<speed>3.250000</speed>
</trkpt>
<trkpt lat="56.049545" lon="26.455107">
<ele>109.473694</ele>
<time>2010-06-20T10:42:23Z</time>
<desc>lat.=56.049545, lon.=26.455107, Alt.=109.473694m. Speed=11.592000m/h.</desc>
<speed>3.220000</speed>
</trkpt>
<trkpt lat="56.049587" lon="26.455097">
<ele>112.272522</ele>
<time>2010-06-20T10:42:24Z</time>
<desc>lat.=56.049587, lon.=26.455097, Alt.=112.272522m. Speed=9.432000m/h.</desc>
<speed>2.620000</speed>
</trkpt>
<trkpt lat="56.049644" lon="26.455088">
<ele>116.985413</ele>
<time>2010-06-20T10:42:25Z</time>
<desc>lat.=56.049644, lon.=26.455088, Alt.=116.985413m. Speed=9.864000m/h.</desc>
<speed>2.740000</speed>
</trkpt>
<trkpt lat="56.049686" lon="26.455069">
<ele>119.155334</ele>
<time>2010-06-20T10:42:26Z</time>
<desc>lat.=56.049686, lon.=26.455069, Alt.=119.155334m. Speed=11.808000m/h.</desc>
<speed>3.280000</speed>
</trkpt>
<trkpt lat="56.049717" lon="26.455053">
<ele>119.268616</ele>
<time>2010-06-20T10:42:27Z</time>
<desc>lat.=56.049717, lon.=26.455053, Alt.=119.268616m. Speed=12.600000m/h.</desc>
<speed>3.500000</speed>
</trkpt>
<trkpt lat="56.049755" lon="26.455038">
<ele>120.461975</ele>
<time>2010-06-20T10:42:28Z</time>
<desc>lat.=56.049755, lon.=26.455038, Alt.=120.461975m. Speed=12.744000m/h.</desc>
<speed>3.540000</speed>
</trkpt>
<trkpt lat="56.049793" lon="26.455023">
<ele>120.710022</ele>
<time>2010-06-20T10:42:29Z</time>
<desc>lat.=56.049793, lon.=26.455023, Alt.=120.710022m. Speed=14.724000m/h.</desc>
<speed>4.090000</speed>
</trkpt>
<trkpt lat="56.049835" lon="26.455013">
<ele>120.627991</ele>
<time>2010-06-20T10:42:30Z</time>
<desc>lat.=56.049835, lon.=26.455013, Alt.=120.627991m. Speed=15.768000m/h.</desc>
<speed>4.380000</speed>
</trkpt>
<trkpt lat="56.049877" lon="26.455002">
<ele>121.620178</ele>
<time>2010-06-20T10:42:31Z</time>
<desc>lat.=56.049877, lon.=26.455002, Alt.=121.620178m. Speed=13.644000m/h.</desc>
<speed>3.790000</speed>
</trkpt>
<trkpt lat="56.049911" lon="26.454987">
<ele>120.979553</ele>
<time>2010-06-20T10:42:32Z</time>
<desc>lat.=56.049911, lon.=26.454987, Alt.=120.979553m. Speed=13.716000m/h.</desc>
<speed>3.810000</speed>
</trkpt>
<trkpt lat="56.049950" lon="26.454967">
<ele>122.102600</ele>
<time>2010-06-20T10:42:33Z</time>
<desc>lat.=56.049950, lon.=26.454967, Alt.=122.102600m. Speed=11.952000m/h.</desc>
<speed>3.320000</speed>
</trkpt>
<trkpt lat="56.049984" lon="26.454952">
<ele>122.426819</ele>
<time>2010-06-20T10:42:34Z</time>
<desc>lat.=56.049984, lon.=26.454952, Alt.=122.426819m. Speed=12.600000m/h.</desc>
<speed>3.500000</speed>
</trkpt>
<trkpt lat="56.050014" lon="26.454941">
<ele>121.542053</ele>
<time>2010-06-20T10:42:35Z</time>
<desc>lat.=56.050014, lon.=26.454941, Alt.=121.542053m. Speed=12.204000m/h.</desc>
<speed>3.390000</speed>
</trkpt>
<trkpt lat="56.050049" lon="26.454933">
<ele>119.350647</ele>
<time>2010-06-20T10:42:36Z</time>
<desc>lat.=56.050049, lon.=26.454933, Alt.=119.350647m. Speed=14.040000m/h.</desc>
<speed>3.900000</speed>
</trkpt>
<trkpt lat="56.050087" lon="26.454926">
<ele>117.836975</ele>
<time>2010-06-20T10:42:37Z</time>
<desc>lat.=56.050087, lon.=26.454926, Alt.=117.836975m. Speed=15.084000m/h.</desc>
<speed>4.190000</speed>
</trkpt>
<trkpt lat="56.050129" lon="26.454918">
<ele>116.967834</ele>
<time>2010-06-20T10:42:38Z</time>
<desc>lat.=56.050129, lon.=26.454918, Alt.=116.967834m. Speed=14.616000m/h.</desc>
<speed>4.060000</speed>
</trkpt>
<trkpt lat="56.050163" lon="26.454901">
<ele>113.792053</ele>
<time>2010-06-20T10:42:39Z</time>
<desc>lat.=56.050163, lon.=26.454901, Alt.=113.792053m. Speed=16.164000m/h.</desc>
<speed>4.490000</speed>
</trkpt>
<trkpt lat="56.050205" lon="26.454887">
<ele>112.692444</ele>
<time>2010-06-20T10:42:40Z</time>
<desc>lat.=56.050205, lon.=26.454887, Alt.=112.692444m. Speed=15.192000m/h.</desc>
<speed>4.220000</speed>
</trkpt>
<trkpt lat="56.050240" lon="26.454882">
<ele>111.237366</ele>
<time>2010-06-20T10:42:41Z</time>
<desc>lat.=56.050240, lon.=26.454882, Alt.=111.237366m. Speed=13.680000m/h.</desc>
<speed>3.800000</speed>
</trkpt>
<trkpt lat="56.050278" lon="26.454874">
<ele>111.135803</ele>
<time>2010-06-20T10:42:42Z</time>
<desc>lat.=56.050278, lon.=26.454874, Alt.=111.135803m. Speed=13.680000m/h.</desc>
<speed>3.800000</speed>
</trkpt>
<trkpt lat="56.050308" lon="26.454859">
<ele>110.305725</ele>
<time>2010-06-20T10:42:43Z</time>
<desc>lat.=56.050308, lon.=26.454859, Alt.=110.305725m. Speed=13.284000m/h.</desc>
<speed>3.690000</speed>
</trkpt>
<trkpt lat="56.050346" lon="26.454845">
<ele>108.229553</ele>
<time>2010-06-20T10:42:44Z</time>
<desc>lat.=56.050346, lon.=26.454845, Alt.=108.229553m. Speed=13.248000m/h.</desc>
<speed>3.680000</speed>
</trkpt>
<trkpt lat="56.050392" lon="26.454828">
<ele>108.909241</ele>
<time>2010-06-20T10:42:45Z</time>
<desc>lat.=56.050392, lon.=26.454828, Alt.=108.909241m. Speed=14.940000m/h.</desc>
<speed>4.150000</speed>
</trkpt>
<trkpt lat="56.050434" lon="26.454805">
<ele>108.971741</ele>
<time>2010-06-20T10:42:46Z</time>
<desc>lat.=56.050434, lon.=26.454805, Alt.=108.971741m. Speed=15.408000m/h.</desc>
<speed>4.280000</speed>
</trkpt>
<trkpt lat="56.050484" lon="26.454792">
<ele>109.481506</ele>
<time>2010-06-20T10:42:47Z</time>
<desc>lat.=56.050484, lon.=26.454792, Alt.=109.481506m. Speed=14.976000m/h.</desc>
<speed>4.160000</speed>
</trkpt>
<trkpt lat="56.050522" lon="26.454775">
<ele>109.311584</ele>
<time>2010-06-20T10:42:48Z</time>
<desc>lat.=56.050522, lon.=26.454775, Alt.=109.311584m. Speed=14.508000m/h.</desc>
<speed>4.030000</speed>
</trkpt>
<trkpt lat="56.050560" lon="26.454765">
<ele>109.342834</ele>
<time>2010-06-20T10:42:49Z</time>
<desc>lat.=56.050560, lon.=26.454765, Alt.=109.342834m. Speed=14.220000m/h.</desc>
<speed>3.950000</speed>
</trkpt>
<trkpt lat="56.050594" lon="26.454752">
<ele>108.856506</ele>
<time>2010-06-20T10:42:50Z</time>
<desc>lat.=56.050594, lon.=26.454752, Alt.=108.856506m. Speed=13.860000m/h.</desc>
<speed>3.850000</speed>
</trkpt>
<trkpt lat="56.050625" lon="26.454737">
<ele>108.247131</ele>
<time>2010-06-20T10:42:51Z</time>
<desc>lat.=56.050625, lon.=26.454737, Alt.=108.247131m. Speed=12.780000m/h.</desc>
<speed>3.550000</speed>
</trkpt>
<trkpt lat="56.050655" lon="26.454727">
<ele>107.876038</ele>
<time>2010-06-20T10:42:52Z</time>
<desc>lat.=56.050655, lon.=26.454727, Alt.=107.876038m. Speed=12.132000m/h.</desc>
<speed>3.370000</speed>
</trkpt>
<trkpt lat="56.050694" lon="26.454716">
<ele>107.127991</ele>
<time>2010-06-20T10:42:53Z</time>
<desc>lat.=56.050694, lon.=26.454716, Alt.=107.127991m. Speed=12.492000m/h.</desc>
<speed>3.470000</speed>
</trkpt>
<trkpt lat="56.050728" lon="26.454702">
<ele>106.493225</ele>
<time>2010-06-20T10:42:54Z</time>
<desc>lat.=56.050728, lon.=26.454702, Alt.=106.493225m. Speed=12.276000m/h.</desc>
<speed>3.410000</speed>
</trkpt>
<trkpt lat="56.050762" lon="26.454693">
<ele>106.483459</ele>
<time>2010-06-20T10:42:55Z</time>
<desc>lat.=56.050762, lon.=26.454693, Alt.=106.483459m. Speed=11.016000m/h.</desc>
<speed>3.060000</speed>
</trkpt>
<trkpt lat="56.050789" lon="26.454689">
<ele>105.594788</ele>
<time>2010-06-20T10:42:56Z</time>
<desc>lat.=56.050789, lon.=26.454689, Alt.=105.594788m. Speed=10.944000m/h.</desc>
<speed>3.040000</speed>
</trkpt>
<trkpt lat="56.050823" lon="26.454678">
<ele>104.979553</ele>
<time>2010-06-20T10:42:57Z</time>
<desc>lat.=56.050823, lon.=26.454678, Alt.=104.979553m. Speed=11.988000m/h.</desc>
<speed>3.330000</speed>
</trkpt>
<trkpt lat="56.050865" lon="26.454668">
<ele>104.637756</ele>
<time>2010-06-20T10:42:58Z</time>
<desc>lat.=56.050865, lon.=26.454668, Alt.=104.637756m. Speed=12.492000m/h.</desc>
<speed>3.470000</speed>
</trkpt>
<trkpt lat="56.050900" lon="26.454660">
<ele>102.938538</ele>
<time>2010-06-20T10:42:59Z</time>
<desc>lat.=56.050900, lon.=26.454660, Alt.=102.938538m. Speed=11.952000m/h.</desc>
<speed>3.320000</speed>
</trkpt>
<trkpt lat="56.050934" lon="26.454657">
<ele>103.321350</ele>
<time>2010-06-20T10:43:00Z</time>
<desc>lat.=56.050934, lon.=26.454657, Alt.=103.321350m. Speed=10.692000m/h.</desc>
<speed>2.970000</speed>
</trkpt>
<trkpt lat="56.050964" lon="26.454636">
<ele>103.795959</ele>
<time>2010-06-20T10:43:01Z</time>
<desc>lat.=56.050964, lon.=26.454636, Alt.=103.795959m. Speed=11.664000m/h.</desc>
<speed>3.240000</speed>
</trkpt>
<trkpt lat="56.050999" lon="26.454626">
<ele>103.881897</ele>
<time>2010-06-20T10:43:02Z</time>
<desc>lat.=56.050999, lon.=26.454626, Alt.=103.881897m. Speed=12.132000m/h.</desc>
<speed>3.370000</speed>
</trkpt>
<trkpt lat="56.051033" lon="26.454617">
<ele>103.997131</ele>
<time>2010-06-20T10:43:03Z</time>
<desc>lat.=56.051033, lon.=26.454617, Alt.=103.997131m. Speed=13.320000m/h.</desc>
<speed>3.700000</speed>
</trkpt>
<trkpt lat="56.051064" lon="26.454603">
<ele>102.950256</ele>
<time>2010-06-20T10:43:04Z</time>
<desc>lat.=56.051064, lon.=26.454603, Alt.=102.950256m. Speed=13.536000m/h.</desc>
<speed>3.760000</speed>
</trkpt>
<trkpt lat="56.051098" lon="26.454590">
<ele>103.504944</ele>
<time>2010-06-20T10:43:05Z</time>
<desc>lat.=56.051098, lon.=26.454590, Alt.=103.504944m. Speed=12.708000m/h.</desc>
<speed>3.530000</speed>
</trkpt>
<trkpt lat="56.051132" lon="26.454582">
<ele>103.403381</ele>
<time>2010-06-20T10:43:06Z</time>
<desc>lat.=56.051132, lon.=26.454582, Alt.=103.403381m. Speed=13.464000m/h.</desc>
<speed>3.740000</speed>
</trkpt>
<trkpt lat="56.051167" lon="26.454575">
<ele>103.430725</ele>
<time>2010-06-20T10:43:07Z</time>
<desc>lat.=56.051167, lon.=26.454575, Alt.=103.430725m. Speed=13.104000m/h.</desc>
<speed>3.640000</speed>
</trkpt>
<trkpt lat="56.051189" lon="26.454575">
<ele>98.713928</ele>
<time>2010-06-20T10:43:08Z</time>
<desc>lat.=56.051189, lon.=26.454575, Alt.=98.713928m. Speed=12.996000m/h.</desc>
<speed>3.610000</speed>
</trkpt>
<trkpt lat="56.051224" lon="26.454573">
<ele>99.239319</ele>
<time>2010-06-20T10:43:09Z</time>
<desc>lat.=56.051224, lon.=26.454573, Alt.=99.239319m. Speed=13.104000m/h.</desc>
<speed>3.640000</speed>
</trkpt>
<trkpt lat="56.051270" lon="26.454571">
<ele>100.520569</ele>
<time>2010-06-20T10:43:10Z</time>
<desc>lat.=56.051270, lon.=26.454571, Alt.=100.520569m. Speed=15.192000m/h.</desc>
<speed>4.220000</speed>
</trkpt>
<trkpt lat="56.051315" lon="26.454571">
<ele>100.934631</ele>
<time>2010-06-20T10:43:11Z</time>
<desc>lat.=56.051315, lon.=26.454571, Alt.=100.934631m. Speed=14.364000m/h.</desc>
<speed>3.990000</speed>
</trkpt>
<trkpt lat="56.051361" lon="26.454575">
<ele>101.547913</ele>
<time>2010-06-20T10:43:12Z</time>
<desc>lat.=56.051361, lon.=26.454575, Alt.=101.547913m. Speed=16.884001m/h.</desc>
<speed>4.690000</speed>
</trkpt>
<trkpt lat="56.051411" lon="26.454586">
<ele>102.086975</ele>
<time>2010-06-20T10:43:13Z</time>
<desc>lat.=56.051411, lon.=26.454586, Alt.=102.086975m. Speed=17.856001m/h.</desc>
<speed>4.960000</speed>
</trkpt>
<trkpt lat="56.051464" lon="26.454601">
<ele>102.292053</ele>
<time>2010-06-20T10:43:14Z</time>
<desc>lat.=56.051464, lon.=26.454601, Alt.=102.292053m. Speed=18.684000m/h.</desc>
<speed>5.190000</speed>
</trkpt>
<trkpt lat="56.051514" lon="26.454617">
<ele>103.362366</ele>
<time>2010-06-20T10:43:15Z</time>
<desc>lat.=56.051514, lon.=26.454617, Alt.=103.362366m. Speed=18.756001m/h.</desc>
<speed>5.210000</speed>
</trkpt>
<trkpt lat="56.051567" lon="26.454622">
<ele>103.913147</ele>
<time>2010-06-20T10:43:16Z</time>
<desc>lat.=56.051567, lon.=26.454622, Alt.=103.913147m. Speed=18.396000m/h.</desc>
<speed>5.110000</speed>
</trkpt>
<trkpt lat="56.051620" lon="26.454638">
<ele>104.321350</ele>
<time>2010-06-20T10:43:17Z</time>
<desc>lat.=56.051620, lon.=26.454638, Alt.=104.321350m. Speed=19.188000m/h.</desc>
<speed>5.330000</speed>
</trkpt>
<trkpt lat="56.051678" lon="26.454659">
<ele>105.374084</ele>
<time>2010-06-20T10:43:18Z</time>
<desc>lat.=56.051678, lon.=26.454659, Alt.=105.374084m. Speed=19.548000m/h.</desc>
<speed>5.430000</speed>
</trkpt>
<trkpt lat="56.051735" lon="26.454683">
<ele>106.108459</ele>
<time>2010-06-20T10:43:19Z</time>
<desc>lat.=56.051735, lon.=26.454683, Alt.=106.108459m. Speed=19.115999m/h.</desc>
<speed>5.310000</speed>
</trkpt>
<trkpt lat="56.051781" lon="26.454710">
<ele>106.358459</ele>
<time>2010-06-20T10:43:20Z</time>
<desc>lat.=56.051781, lon.=26.454710, Alt.=106.358459m. Speed=19.224001m/h.</desc>
<speed>5.340000</speed>
</trkpt>
<trkpt lat="56.051826" lon="26.454744">
<ele>107.379944</ele>
<time>2010-06-20T10:43:21Z</time>
<desc>lat.=56.051826, lon.=26.454744, Alt.=107.379944m. Speed=18.684000m/h.</desc>
<speed>5.190000</speed>
</trkpt>
<trkpt lat="56.051872" lon="26.454769">
<ele>108.311584</ele>
<time>2010-06-20T10:43:22Z</time>
<desc>lat.=56.051872, lon.=26.454769, Alt.=108.311584m. Speed=18.360001m/h.</desc>
<speed>5.100000</speed>
</trkpt>
<trkpt lat="56.051914" lon="26.454792">
<ele>108.829163</ele>
<time>2010-06-20T10:43:23Z</time>
<desc>lat.=56.051914, lon.=26.454792, Alt.=108.829163m. Speed=18.143999m/h.</desc>
<speed>5.040000</speed>
</trkpt>
<trkpt lat="56.051960" lon="26.454823">
<ele>109.178772</ele>
<time>2010-06-20T10:43:24Z</time>
<desc>lat.=56.051960, lon.=26.454823, Alt.=109.178772m. Speed=19.115999m/h.</desc>
<speed>5.310000</speed>
</trkpt>
<trkpt lat="56.052006" lon="26.454851">
<ele>109.551819</ele>
<time>2010-06-20T10:43:25Z</time>
<desc>lat.=56.052006, lon.=26.454851, Alt.=109.551819m. Speed=19.440001m/h.</desc>
<speed>5.400000</speed>
</trkpt>
<trkpt lat="56.052052" lon="26.454882">
<ele>109.874084</ele>
<time>2010-06-20T10:43:26Z</time>
<desc>lat.=56.052052, lon.=26.454882, Alt.=109.874084m. Speed=18.900000m/h.</desc>
<speed>5.250000</speed>
</trkpt>
<trkpt lat="56.052094" lon="26.454912">
<ele>109.848694</ele>
<time>2010-06-20T10:43:27Z</time>
<desc>lat.=56.052094, lon.=26.454912, Alt.=109.848694m. Speed=17.568001m/h.</desc>
<speed>4.880000</speed>
</trkpt>
<trkpt lat="56.052135" lon="26.454943">
<ele>110.116272</ele>
<time>2010-06-20T10:43:28Z</time>
<desc>lat.=56.052135, lon.=26.454943, Alt.=110.116272m. Speed=18.431999m/h.</desc>
<speed>5.120000</speed>
</trkpt>
<trkpt lat="56.052177" lon="26.454977">
<ele>110.133850</ele>
<time>2010-06-20T10:43:29Z</time>
<desc>lat.=56.052177, lon.=26.454977, Alt.=110.133850m. Speed=18.827999m/h.</desc>
<speed>5.230000</speed>
</trkpt>
<trkpt lat="56.052219" lon="26.455008">
<ele>110.325256</ele>
<time>2010-06-20T10:43:30Z</time>
<desc>lat.=56.052219, lon.=26.455008, Alt.=110.325256m. Speed=18.035999m/h.</desc>
<speed>5.010000</speed>
</trkpt>
<trkpt lat="56.052265" lon="26.455034">
<ele>111.569397</ele>
<time>2010-06-20T10:43:31Z</time>
<desc>lat.=56.052265, lon.=26.455034, Alt.=111.569397m. Speed=18.252001m/h.</desc>
<speed>5.070000</speed>
</trkpt>
<trkpt lat="56.052303" lon="26.455055">
<ele>110.784241</ele>
<time>2010-06-20T10:43:32Z</time>
<desc>lat.=56.052303, lon.=26.455055, Alt.=110.784241m. Speed=17.388000m/h.</desc>
<speed>4.830000</speed>
</trkpt>
<trkpt lat="56.052341" lon="26.455074">
<ele>110.106506</ele>
<time>2010-06-20T10:43:33Z</time>
<desc>lat.=56.052341, lon.=26.455074, Alt.=110.106506m. Speed=17.063999m/h.</desc>
<speed>4.740000</speed>
</trkpt>
<trkpt lat="56.052376" lon="26.455095">
<ele>109.958069</ele>
<time>2010-06-20T10:43:34Z</time>
<desc>lat.=56.052376, lon.=26.455095, Alt.=109.958069m. Speed=15.588000m/h.</desc>
<speed>4.330000</speed>
</trkpt>
<trkpt lat="56.052418" lon="26.455120">
<ele>110.083069</ele>
<time>2010-06-20T10:43:35Z</time>
<desc>lat.=56.052418, lon.=26.455120, Alt.=110.083069m. Speed=16.488001m/h.</desc>
<speed>4.580000</speed>
</trkpt>
<trkpt lat="56.052456" lon="26.455147">
<ele>109.749084</ele>
<time>2010-06-20T10:43:36Z</time>
<desc>lat.=56.052456, lon.=26.455147, Alt.=109.749084m. Speed=15.948000m/h.</desc>
<speed>4.430000</speed>
</trkpt>
<trkpt lat="56.052494" lon="26.455166">
<ele>109.678772</ele>
<time>2010-06-20T10:43:37Z</time>
<desc>lat.=56.052494, lon.=26.455166, Alt.=109.678772m. Speed=14.328000m/h.</desc>
<speed>3.980000</speed>
</trkpt>
<trkpt lat="56.052536" lon="26.455187">
<ele>109.704163</ele>
<time>2010-06-20T10:43:38Z</time>
<desc>lat.=56.052536, lon.=26.455187, Alt.=109.704163m. Speed=15.768000m/h.</desc>
<speed>4.380000</speed>
</trkpt>
<trkpt lat="56.052574" lon="26.455210">
<ele>109.524475</ele>
<time>2010-06-20T10:43:39Z</time>
<desc>lat.=56.052574, lon.=26.455210, Alt.=109.524475m. Speed=14.472000m/h.</desc>
<speed>4.020000</speed>
</trkpt>
<trkpt lat="56.052612" lon="26.455227">
<ele>109.295959</ele>
<time>2010-06-20T10:43:40Z</time>
<desc>lat.=56.052612, lon.=26.455227, Alt.=109.295959m. Speed=13.824000m/h.</desc>
<speed>3.840000</speed>
</trkpt>
<trkpt lat="56.052654" lon="26.455248">
<ele>109.376038</ele>
<time>2010-06-20T10:43:41Z</time>
<desc>lat.=56.052654, lon.=26.455248, Alt.=109.376038m. Speed=16.667999m/h.</desc>
<speed>4.630000</speed>
</trkpt>
<trkpt lat="56.052696" lon="26.455273">
<ele>109.254944</ele>
<time>2010-06-20T10:43:42Z</time>
<desc>lat.=56.052696, lon.=26.455273, Alt.=109.254944m. Speed=16.848000m/h.</desc>
<speed>4.680000</speed>
</trkpt>
<trkpt lat="56.052738" lon="26.455296">
<ele>108.956116</ele>
<time>2010-06-20T10:43:43Z</time>
<desc>lat.=56.052738, lon.=26.455296, Alt.=108.956116m. Speed=18.396000m/h.</desc>
<speed>5.110000</speed>
</trkpt>
<trkpt lat="56.052788" lon="26.455320">
<ele>109.393616</ele>
<time>2010-06-20T10:43:44Z</time>
<desc>lat.=56.052788, lon.=26.455320, Alt.=109.393616m. Speed=18.396000m/h.</desc>
<speed>5.110000</speed>
</trkpt>
<trkpt lat="56.052834" lon="26.455353">
<ele>109.942444</ele>
<time>2010-06-20T10:43:45Z</time>
<desc>lat.=56.052834, lon.=26.455353, Alt.=109.942444m. Speed=19.440001m/h.</desc>
<speed>5.400000</speed>
</trkpt>
<trkpt lat="56.052879" lon="26.455389">
<ele>110.432678</ele>
<time>2010-06-20T10:43:46Z</time>
<desc>lat.=56.052879, lon.=26.455389, Alt.=110.432678m. Speed=19.440001m/h.</desc>
<speed>5.400000</speed>
</trkpt>
<trkpt lat="56.052921" lon="26.455425">
<ele>109.565491</ele>
<time>2010-06-20T10:43:47Z</time>
<desc>lat.=56.052921, lon.=26.455425, Alt.=109.565491m. Speed=18.684000m/h.</desc>
<speed>5.190000</speed>
</trkpt>
<trkpt lat="56.052963" lon="26.455452">
<ele>109.790100</ele>
<time>2010-06-20T10:43:48Z</time>
<desc>lat.=56.052963, lon.=26.455452, Alt.=109.790100m. Speed=14.688000m/h.</desc>
<speed>4.080000</speed>
</trkpt>
<trkpt lat="56.053001" lon="26.455471">
<ele>110.430725</ele>
<time>2010-06-20T10:43:49Z</time>
<desc>lat.=56.053001, lon.=26.455471, Alt.=110.430725m. Speed=14.652000m/h.</desc>
<speed>4.070000</speed>
</trkpt>
<trkpt lat="56.053043" lon="26.455490">
<ele>111.096741</ele>
<time>2010-06-20T10:43:50Z</time>
<desc>lat.=56.053043, lon.=26.455490, Alt.=111.096741m. Speed=15.732000m/h.</desc>
<speed>4.370000</speed>
</trkpt>
<trkpt lat="56.053082" lon="26.455511">
<ele>111.081116</ele>
<time>2010-06-20T10:43:51Z</time>
<desc>lat.=56.053082, lon.=26.455511, Alt.=111.081116m. Speed=13.824000m/h.</desc>
<speed>3.840000</speed>
</trkpt>
<trkpt lat="56.053116" lon="26.455526">
<ele>111.018616</ele>
<time>2010-06-20T10:43:52Z</time>
<desc>lat.=56.053116, lon.=26.455526, Alt.=111.018616m. Speed=12.348000m/h.</desc>
<speed>3.430000</speed>
</trkpt>
<trkpt lat="56.053146" lon="26.455538">
<ele>111.200256</ele>
<time>2010-06-20T10:43:53Z</time>
<desc>lat.=56.053146, lon.=26.455538, Alt.=111.200256m. Speed=11.592000m/h.</desc>
<speed>3.220000</speed>
</trkpt>
<trkpt lat="56.053177" lon="26.455559">
<ele>111.376038</ele>
<time>2010-06-20T10:43:54Z</time>
<desc>lat.=56.053177, lon.=26.455559, Alt.=111.376038m. Speed=13.032000m/h.</desc>
<speed>3.620000</speed>
</trkpt>
<trkpt lat="56.053219" lon="26.455584">
<ele>112.044006</ele>
<time>2010-06-20T10:43:55Z</time>
<desc>lat.=56.053219, lon.=26.455584, Alt.=112.044006m. Speed=14.832000m/h.</desc>
<speed>4.120000</speed>
</trkpt>
<trkpt lat="56.053257" lon="26.455605">
<ele>112.251038</ele>
<time>2010-06-20T10:43:56Z</time>
<desc>lat.=56.053257, lon.=26.455605, Alt.=112.251038m. Speed=13.500000m/h.</desc>
<speed>3.750000</speed>
</trkpt>
<trkpt lat="56.053295" lon="26.455629">
<ele>112.129944</ele>
<time>2010-06-20T10:43:57Z</time>
<desc>lat.=56.053295, lon.=26.455629, Alt.=112.129944m. Speed=13.104000m/h.</desc>
<speed>3.640000</speed>
</trkpt>
<trkpt lat="56.053329" lon="26.455654">
<ele>112.686584</ele>
<time>2010-06-20T10:43:58Z</time>
<desc>lat.=56.053329, lon.=26.455654, Alt.=112.686584m. Speed=11.592000m/h.</desc>
<speed>3.220000</speed>
</trkpt>
<trkpt lat="56.053360" lon="26.455679">
<ele>113.547913</ele>
<time>2010-06-20T10:43:59Z</time>
<desc>lat.=56.053360, lon.=26.455679, Alt.=113.547913m. Speed=10.692000m/h.</desc>
<speed>2.970000</speed>
</trkpt>
<trkpt lat="56.053387" lon="26.455704">
<ele>114.073303</ele>
<time>2010-06-20T10:44:00Z</time>
<desc>lat.=56.053387, lon.=26.455704, Alt.=114.073303m. Speed=9.756000m/h.</desc>
<speed>2.710000</speed>
</trkpt>
<trkpt lat="56.053410" lon="26.455721">
<ele>114.204163</ele>
<time>2010-06-20T10:44:01Z</time>
<desc>lat.=56.053410, lon.=26.455721, Alt.=114.204163m. Speed=8.208000m/h.</desc>
<speed>2.280000</speed>
</trkpt>
<trkpt lat="56.053432" lon="26.455732">
<ele>112.846741</ele>
<time>2010-06-20T10:44:02Z</time>
<desc>lat.=56.053432, lon.=26.455732, Alt.=112.846741m. Speed=8.496000m/h.</desc>
<speed>2.360000</speed>
</trkpt>
<trkpt lat="56.053463" lon="26.455753">
<ele>112.372131</ele>
<time>2010-06-20T10:44:03Z</time>
<desc>lat.=56.053463, lon.=26.455753, Alt.=112.372131m. Speed=10.404000m/h.</desc>
<speed>2.890000</speed>
</trkpt>
<trkpt lat="56.053493" lon="26.455774">
<ele>112.106506</ele>
<time>2010-06-20T10:44:04Z</time>
<desc>lat.=56.053493, lon.=26.455774, Alt.=112.106506m. Speed=8.208000m/h.</desc>
<speed>2.280000</speed>
</trkpt>
<trkpt lat="56.053516" lon="26.455799">
<ele>111.635803</ele>
<time>2010-06-20T10:44:05Z</time>
<desc>lat.=56.053516, lon.=26.455799, Alt.=111.635803m. Speed=8.964000m/h.</desc>
<speed>2.490000</speed>
</trkpt>
<trkpt lat="56.053543" lon="26.455814">
<ele>112.440491</ele>
<time>2010-06-20T10:44:06Z</time>
<desc>lat.=56.053543, lon.=26.455814, Alt.=112.440491m. Speed=7.632000m/h.</desc>
<speed>2.120000</speed>
</trkpt>
<trkpt lat="56.053566" lon="26.455818">
<ele>112.629944</ele>
<time>2010-06-20T10:44:07Z</time>
<desc>lat.=56.053566, lon.=26.455818, Alt.=112.629944m. Speed=9.108000m/h.</desc>
<speed>2.530000</speed>
</trkpt>
<trkpt lat="56.053593" lon="26.455830">
<ele>113.083069</ele>
<time>2010-06-20T10:44:08Z</time>
<desc>lat.=56.053593, lon.=26.455830, Alt.=113.083069m. Speed=9.468000m/h.</desc>
<speed>2.630000</speed>
</trkpt>
<trkpt lat="56.053616" lon="26.455854">
<ele>112.139709</ele>
<time>2010-06-20T10:44:09Z</time>
<desc>lat.=56.053616, lon.=26.455854, Alt.=112.139709m. Speed=9.432000m/h.</desc>
<speed>2.620000</speed>
</trkpt>
<trkpt lat="56.053638" lon="26.455875">
<ele>111.766663</ele>
<time>2010-06-20T10:44:10Z</time>
<desc>lat.=56.053638, lon.=26.455875, Alt.=111.766663m. Speed=9.864000m/h.</desc>
<speed>2.740000</speed>
</trkpt>
<trkpt lat="56.053669" lon="26.455894">
<ele>112.329163</ele>
<time>2010-06-20T10:44:11Z</time>
<desc>lat.=56.053669, lon.=26.455894, Alt.=112.329163m. Speed=10.080000m/h.</desc>
<speed>2.800000</speed>
</trkpt>
<trkpt lat="56.053696" lon="26.455923">
<ele>111.883850</ele>
<time>2010-06-20T10:44:12Z</time>
<desc>lat.=56.053696, lon.=26.455923, Alt.=111.883850m. Speed=11.052000m/h.</desc>
<speed>3.070000</speed>
</trkpt>
<trkpt lat="56.053726" lon="26.455950">
<ele>110.913147</ele>
<time>2010-06-20T10:44:13Z</time>
<desc>lat.=56.053726, lon.=26.455950, Alt.=110.913147m. Speed=11.808000m/h.</desc>
<speed>3.280000</speed>
</trkpt>
<trkpt lat="56.053757" lon="26.455973">
<ele>109.370178</ele>
<time>2010-06-20T10:44:14Z</time>
<desc>lat.=56.053757, lon.=26.455973, Alt.=109.370178m. Speed=11.520000m/h.</desc>
<speed>3.200000</speed>
</trkpt>
<trkpt lat="56.053787" lon="26.455997">
<ele>109.200256</ele>
<time>2010-06-20T10:44:15Z</time>
<desc>lat.=56.053787, lon.=26.455997, Alt.=109.200256m. Speed=11.016000m/h.</desc>
<speed>3.060000</speed>
</trkpt>
<trkpt lat="56.053822" lon="26.456017">
<ele>108.065491</ele>
<time>2010-06-20T10:44:16Z</time>
<desc>lat.=56.053822, lon.=26.456017, Alt.=108.065491m. Speed=11.664000m/h.</desc>
<speed>3.240000</speed>
</trkpt>
<trkpt lat="56.053875" lon="26.456038">
<ele>111.094788</ele>
<time>2010-06-20T10:44:17Z</time>
<desc>lat.=56.053875, lon.=26.456038, Alt.=111.094788m. Speed=11.700000m/h.</desc>
<speed>3.250000</speed>
</trkpt>
<trkpt lat="56.053898" lon="26.456057">
<ele>108.583069</ele>
<time>2010-06-20T10:44:18Z</time>
<desc>lat.=56.053898, lon.=26.456057, Alt.=108.583069m. Speed=12.132000m/h.</desc>
<speed>3.370000</speed>
</trkpt>
<trkpt lat="56.053928" lon="26.456079">
<ele>108.661194</ele>
<time>2010-06-20T10:44:19Z</time>
<desc>lat.=56.053928, lon.=26.456079, Alt.=108.661194m. Speed=11.412000m/h.</desc>
<speed>3.170000</speed>
</trkpt>
<trkpt lat="56.053959" lon="26.456095">
<ele>108.356506</ele>
<time>2010-06-20T10:44:20Z</time>
<desc>lat.=56.053959, lon.=26.456095, Alt.=108.356506m. Speed=10.728000m/h.</desc>
<speed>2.980000</speed>
</trkpt>
<trkpt lat="56.053982" lon="26.456110">
<ele>107.866272</ele>
<time>2010-06-20T10:44:21Z</time>
<desc>lat.=56.053982, lon.=26.456110, Alt.=107.866272m. Speed=10.404000m/h.</desc>
<speed>2.890000</speed>
</trkpt>
<trkpt lat="56.054012" lon="26.456125">
<ele>108.319397</ele>
<time>2010-06-20T10:44:22Z</time>
<desc>lat.=56.054012, lon.=26.456125, Alt.=108.319397m. Speed=10.584000m/h.</desc>
<speed>2.940000</speed>
</trkpt>
<trkpt lat="56.054039" lon="26.456141">
<ele>108.544006</ele>
<time>2010-06-20T10:44:23Z</time>
<desc>lat.=56.054039, lon.=26.456141, Alt.=108.544006m. Speed=10.548000m/h.</desc>
<speed>2.930000</speed>
</trkpt>
<trkpt lat="56.054066" lon="26.456158">
<ele>108.831116</ele>
<time>2010-06-20T10:44:24Z</time>
<desc>lat.=56.054066, lon.=26.456158, Alt.=108.831116m. Speed=10.728000m/h.</desc>
<speed>2.980000</speed>
</trkpt>
<trkpt lat="56.054092" lon="26.456175">
<ele>109.352600</ele>
<time>2010-06-20T10:44:25Z</time>
<desc>lat.=56.054092, lon.=26.456175, Alt.=109.352600m. Speed=11.376000m/h.</desc>
<speed>3.160000</speed>
</trkpt>
<trkpt lat="56.054123" lon="26.456188">
<ele>109.454163</ele>
<time>2010-06-20T10:44:26Z</time>
<desc>lat.=56.054123, lon.=26.456188, Alt.=109.454163m. Speed=11.808000m/h.</desc>
<speed>3.280000</speed>
</trkpt>
<trkpt lat="56.054153" lon="26.456200">
<ele>109.290100</ele>
<time>2010-06-20T10:44:27Z</time>
<desc>lat.=56.054153, lon.=26.456200, Alt.=109.290100m. Speed=11.376000m/h.</desc>
<speed>3.160000</speed>
</trkpt>
<trkpt lat="56.054184" lon="26.456213">
<ele>110.020569</ele>
<time>2010-06-20T10:44:28Z</time>
<desc>lat.=56.054184, lon.=26.456213, Alt.=110.020569m. Speed=11.376000m/h.</desc>
<speed>3.160000</speed>
</trkpt>
<trkpt lat="56.054214" lon="26.456224">
<ele>110.581116</ele>
<time>2010-06-20T10:44:29Z</time>
<desc>lat.=56.054214, lon.=26.456224, Alt.=110.581116m. Speed=12.096000m/h.</desc>
<speed>3.360000</speed>
</trkpt>
<trkpt lat="56.054241" lon="26.456242">
<ele>110.284241</ele>
<time>2010-06-20T10:44:30Z</time>
<desc>lat.=56.054241, lon.=26.456242, Alt.=110.284241m. Speed=10.872000m/h.</desc>
<speed>3.020000</speed>
</trkpt>
<trkpt lat="56.054268" lon="26.456259">
<ele>110.704163</ele>
<time>2010-06-20T10:44:31Z</time>
<desc>lat.=56.054268, lon.=26.456259, Alt.=110.704163m. Speed=10.800000m/h.</desc>
<speed>3.000000</speed>
</trkpt>
<trkpt lat="56.054291" lon="26.456276">
<ele>111.053772</ele>
<time>2010-06-20T10:44:32Z</time>
<desc>lat.=56.054291, lon.=26.456276, Alt.=111.053772m. Speed=11.700000m/h.</desc>
<speed>3.250000</speed>
</trkpt>
<trkpt lat="56.054321" lon="26.456297">
<ele>111.502991</ele>
<time>2010-06-20T10:44:33Z</time>
<desc>lat.=56.054321, lon.=26.456297, Alt.=111.502991m. Speed=12.024000m/h.</desc>
<speed>3.340000</speed>
</trkpt>
<trkpt lat="56.054352" lon="26.456318">
<ele>111.715881</ele>
<time>2010-06-20T10:44:34Z</time>
<desc>lat.=56.054352, lon.=26.456318, Alt.=111.715881m. Speed=12.744000m/h.</desc>
<speed>3.540000</speed>
</trkpt>
<trkpt lat="56.054379" lon="26.456345">
<ele>110.795959</ele>
<time>2010-06-20T10:44:35Z</time>
<desc>lat.=56.054379, lon.=26.456345, Alt.=110.795959m. Speed=11.628000m/h.</desc>
<speed>3.230000</speed>
</trkpt>
<trkpt lat="56.054409" lon="26.456366">
<ele>110.754944</ele>
<time>2010-06-20T10:44:36Z</time>
<desc>lat.=56.054409, lon.=26.456366, Alt.=110.754944m. Speed=12.096000m/h.</desc>
<speed>3.360000</speed>
</trkpt>
<trkpt lat="56.054443" lon="26.456387">
<ele>110.442444</ele>
<time>2010-06-20T10:44:37Z</time>
<desc>lat.=56.054443, lon.=26.456387, Alt.=110.442444m. Speed=13.176000m/h.</desc>
<speed>3.660000</speed>
</trkpt>
<trkpt lat="56.054474" lon="26.456406">
<ele>110.633850</ele>
<time>2010-06-20T10:44:38Z</time>
<desc>lat.=56.054474, lon.=26.456406, Alt.=110.633850m. Speed=11.700000m/h.</desc>
<speed>3.250000</speed>
</trkpt>
<trkpt lat="56.054508" lon="26.456423">
<ele>111.208069</ele>
<time>2010-06-20T10:44:39Z</time>
<desc>lat.=56.054508, lon.=26.456423, Alt.=111.208069m. Speed=11.484000m/h.</desc>
<speed>3.190000</speed>
</trkpt>
<trkpt lat="56.054535" lon="26.456440">
<ele>112.284241</ele>
<time>2010-06-20T10:44:40Z</time>
<desc>lat.=56.054535, lon.=26.456440, Alt.=112.284241m. Speed=9.540000m/h.</desc>
<speed>2.650000</speed>
</trkpt>
<trkpt lat="56.054569" lon="26.456463">
<ele>113.436584</ele>
<time>2010-06-20T10:44:41Z</time>
<desc>lat.=56.054569, lon.=26.456463, Alt.=113.436584m. Speed=11.196000m/h.</desc>
<speed>3.110000</speed>
</trkpt>
<trkpt lat="56.054607" lon="26.456488">
<ele>113.770569</ele>
<time>2010-06-20T10:44:42Z</time>
<desc>lat.=56.054607, lon.=26.456488, Alt.=113.770569m. Speed=11.880000m/h.</desc>
<speed>3.300000</speed>
</trkpt>
<trkpt lat="56.054646" lon="26.456507">
<ele>112.538147</ele>
<time>2010-06-20T10:44:43Z</time>
<desc>lat.=56.054646, lon.=26.456507, Alt.=112.538147m. Speed=13.644000m/h.</desc>
<speed>3.790000</speed>
</trkpt>
<trkpt lat="56.054676" lon="26.456524">
<ele>112.530334</ele>
<time>2010-06-20T10:44:44Z</time>
<desc>lat.=56.054676, lon.=26.456524, Alt.=112.530334m. Speed=12.960000m/h.</desc>
<speed>3.600000</speed>
</trkpt>
<trkpt lat="56.054710" lon="26.456551">
<ele>111.850647</ele>
<time>2010-06-20T10:44:45Z</time>
<desc>lat.=56.054710, lon.=26.456551, Alt.=111.850647m. Speed=12.276000m/h.</desc>
<speed>3.410000</speed>
</trkpt>
<trkpt lat="56.054745" lon="26.456568">
<ele>112.178772</ele>
<time>2010-06-20T10:44:46Z</time>
<desc>lat.=56.054745, lon.=26.456568, Alt.=112.178772m. Speed=11.592000m/h.</desc>
<speed>3.220000</speed>
</trkpt>
<trkpt lat="56.054783" lon="26.456587">
<ele>111.024475</ele>
<time>2010-06-20T10:44:47Z</time>
<desc>lat.=56.054783, lon.=26.456587, Alt.=111.024475m. Speed=11.736000m/h.</desc>
<speed>3.260000</speed>
</trkpt>
<trkpt lat="56.054817" lon="26.456600">
<ele>110.600647</ele>
<time>2010-06-20T10:44:48Z</time>
<desc>lat.=56.054817, lon.=26.456600, Alt.=110.600647m. Speed=12.456000m/h.</desc>
<speed>3.460000</speed>
</trkpt>
<trkpt lat="56.054852" lon="26.456614">
<ele>111.448303</ele>
<time>2010-06-20T10:44:49Z</time>
<desc>lat.=56.054852, lon.=26.456614, Alt.=111.448303m. Speed=11.304000m/h.</desc>
<speed>3.140000</speed>
</trkpt>
<trkpt lat="56.054890" lon="26.456627">
<ele>112.461975</ele>
<time>2010-06-20T10:44:50Z</time>
<desc>lat.=56.054890, lon.=26.456627, Alt.=112.461975m. Speed=12.276000m/h.</desc>
<speed>3.410000</speed>
</trkpt>
<trkpt lat="56.054924" lon="26.456635">
<ele>114.149475</ele>
<time>2010-06-20T10:44:51Z</time>
<desc>lat.=56.054924, lon.=26.456635, Alt.=114.149475m. Speed=11.160000m/h.</desc>
<speed>3.100000</speed>
</trkpt>
<trkpt lat="56.054966" lon="26.456646">
<ele>115.184631</ele>
<time>2010-06-20T10:44:52Z</time>
<desc>lat.=56.054966, lon.=26.456646, Alt.=115.184631m. Speed=11.484000m/h.</desc>
<speed>3.190000</speed>
</trkpt>
<trkpt lat="56.054993" lon="26.456654">
<ele>115.879944</ele>
<time>2010-06-20T10:44:53Z</time>
<desc>lat.=56.054993, lon.=26.456654, Alt.=115.879944m. Speed=11.124000m/h.</desc>
<speed>3.090000</speed>
</trkpt>
<trkpt lat="56.055019" lon="26.456665">
<ele>116.377991</ele>
<time>2010-06-20T10:44:54Z</time>
<desc>lat.=56.055019, lon.=26.456665, Alt.=116.377991m. Speed=10.260000m/h.</desc>
<speed>2.850000</speed>
</trkpt>
<trkpt lat="56.055046" lon="26.456676">
<ele>117.331116</ele>
<time>2010-06-20T10:44:55Z</time>
<desc>lat.=56.055046, lon.=26.456676, Alt.=117.331116m. Speed=10.296000m/h.</desc>
<speed>2.860000</speed>
</trkpt>
<trkpt lat="56.055077" lon="26.456697">
<ele>118.295959</ele>
<time>2010-06-20T10:44:56Z</time>
<desc>lat.=56.055077, lon.=26.456697, Alt.=118.295959m. Speed=9.324000m/h.</desc>
<speed>2.590000</speed>
</trkpt>
<trkpt lat="56.055107" lon="26.456715">
<ele>118.452209</ele>
<time>2010-06-20T10:44:57Z</time>
<desc>lat.=56.055107, lon.=26.456715, Alt.=118.452209m. Speed=11.376000m/h.</desc>
<speed>3.160000</speed>
</trkpt>
<trkpt lat="56.055141" lon="26.456738">
<ele>118.547913</ele>
<time>2010-06-20T10:44:58Z</time>
<desc>lat.=56.055141, lon.=26.456738, Alt.=118.547913m. Speed=12.816000m/h.</desc>
<speed>3.560000</speed>
</trkpt>
<trkpt lat="56.055176" lon="26.456760">
<ele>118.626038</ele>
<time>2010-06-20T10:44:59Z</time>
<desc>lat.=56.055176, lon.=26.456760, Alt.=118.626038m. Speed=12.744000m/h.</desc>
<speed>3.540000</speed>
</trkpt>
<trkpt lat="56.055210" lon="26.456783">
<ele>118.325256</ele>
<time>2010-06-20T10:45:00Z</time>
<desc>lat.=56.055210, lon.=26.456783, Alt.=118.325256m. Speed=13.176000m/h.</desc>
<speed>3.660000</speed>
</trkpt>
<trkpt lat="56.055237" lon="26.456802">
<ele>118.633850</ele>
<time>2010-06-20T10:45:01Z</time>
<desc>lat.=56.055237, lon.=26.456802, Alt.=118.633850m. Speed=13.104000m/h.</desc>
<speed>3.640000</speed>
</trkpt>
<trkpt lat="56.055271" lon="26.456825">
<ele>118.075256</ele>
<time>2010-06-20T10:45:02Z</time>
<desc>lat.=56.055271, lon.=26.456825, Alt.=118.075256m. Speed=13.320000m/h.</desc>
<speed>3.700000</speed>
</trkpt>
<trkpt lat="56.055305" lon="26.456848">
<ele>118.157288</ele>
<time>2010-06-20T10:45:03Z</time>
<desc>lat.=56.055305, lon.=26.456848, Alt.=118.157288m. Speed=14.580000m/h.</desc>
<speed>4.050000</speed>
</trkpt>
<trkpt lat="56.055344" lon="26.456869">
<ele>117.627991</ele>
<time>2010-06-20T10:45:04Z</time>
<desc>lat.=56.055344, lon.=26.456869, Alt.=117.627991m. Speed=14.724000m/h.</desc>
<speed>4.090000</speed>
</trkpt>
<trkpt lat="56.055378" lon="26.456890">
<ele>117.161194</ele>
<time>2010-06-20T10:45:05Z</time>
<desc>lat.=56.055378, lon.=26.456890, Alt.=117.161194m. Speed=14.184000m/h.</desc>
<speed>3.940000</speed>
</trkpt>
<trkpt lat="56.055412" lon="26.456911">
<ele>116.030334</ele>
<time>2010-06-20T10:45:06Z</time>
<desc>lat.=56.055412, lon.=26.456911, Alt.=116.030334m. Speed=15.228000m/h.</desc>
<speed>4.230000</speed>
</trkpt>
<trkpt lat="56.055447" lon="26.456932">
<ele>115.680725</ele>
<time>2010-06-20T10:45:07Z</time>
<desc>lat.=56.055447, lon.=26.456932, Alt.=115.680725m. Speed=15.300000m/h.</desc>
<speed>4.250000</speed>
</trkpt>
<trkpt lat="56.055485" lon="26.456955">
<ele>114.909241</ele>
<time>2010-06-20T10:45:08Z</time>
<desc>lat.=56.055485, lon.=26.456955, Alt.=114.909241m. Speed=15.768000m/h.</desc>
<speed>4.380000</speed>
</trkpt>
<trkpt lat="56.055523" lon="26.456974">
<ele>114.930725</ele>
<time>2010-06-20T10:45:09Z</time>
<desc>lat.=56.055523, lon.=26.456974, Alt.=114.930725m. Speed=16.128000m/h.</desc>
<speed>4.480000</speed>
</trkpt>
<trkpt lat="56.055561" lon="26.456997">
<ele>114.922913</ele>
<time>2010-06-20T10:45:10Z</time>
<desc>lat.=56.055561, lon.=26.456997, Alt.=114.922913m. Speed=16.920000m/h.</desc>
<speed>4.700000</speed>
</trkpt>
<trkpt lat="56.055599" lon="26.457020">
<ele>114.786194</ele>
<time>2010-06-20T10:45:11Z</time>
<desc>lat.=56.055599, lon.=26.457020, Alt.=114.786194m. Speed=17.136000m/h.</desc>
<speed>4.760000</speed>
</trkpt>
<trkpt lat="56.055649" lon="26.457041">
<ele>114.967834</ele>
<time>2010-06-20T10:45:12Z</time>
<desc>lat.=56.055649, lon.=26.457041, Alt.=114.967834m. Speed=18.504000m/h.</desc>
<speed>5.140000</speed>
</trkpt>
<trkpt lat="56.055691" lon="26.457062">
<ele>115.010803</ele>
<time>2010-06-20T10:45:13Z</time>
<desc>lat.=56.055691, lon.=26.457062, Alt.=115.010803m. Speed=18.864000m/h.</desc>
<speed>5.240000</speed>
</trkpt>
<trkpt lat="56.055737" lon="26.457090">
<ele>115.292053</ele>
<time>2010-06-20T10:45:14Z</time>
<desc>lat.=56.055737, lon.=26.457090, Alt.=115.292053m. Speed=17.459999m/h.</desc>
<speed>4.850000</speed>
</trkpt>
<trkpt lat="56.055782" lon="26.457119">
<ele>115.272522</ele>
<time>2010-06-20T10:45:15Z</time>
<desc>lat.=56.055782, lon.=26.457119, Alt.=115.272522m. Speed=18.540001m/h.</desc>
<speed>5.150000</speed>
</trkpt>
<trkpt lat="56.055828" lon="26.457140">
<ele>115.930725</ele>
<time>2010-06-20T10:45:16Z</time>
<desc>lat.=56.055828, lon.=26.457140, Alt.=115.930725m. Speed=17.712000m/h.</desc>
<speed>4.920000</speed>
</trkpt>
<trkpt lat="56.055870" lon="26.457167">
<ele>115.284241</ele>
<time>2010-06-20T10:45:17Z</time>
<desc>lat.=56.055870, lon.=26.457167, Alt.=115.284241m. Speed=17.604000m/h.</desc>
<speed>4.890000</speed>
</trkpt>
<trkpt lat="56.055908" lon="26.457201">
<ele>112.903381</ele>
<time>2010-06-20T10:45:18Z</time>
<desc>lat.=56.055908, lon.=26.457201, Alt.=112.903381m. Speed=16.271999m/h.</desc>
<speed>4.520000</speed>
</trkpt>
<trkpt lat="56.055950" lon="26.457226">
<ele>112.196350</ele>
<time>2010-06-20T10:45:19Z</time>
<desc>lat.=56.055950, lon.=26.457226, Alt.=112.196350m. Speed=14.832000m/h.</desc>
<speed>4.120000</speed>
</trkpt>
<trkpt lat="56.055984" lon="26.457245">
<ele>112.585022</ele>
<time>2010-06-20T10:45:20Z</time>
<desc>lat.=56.055984, lon.=26.457245, Alt.=112.585022m. Speed=13.428000m/h.</desc>
<speed>3.730000</speed>
</trkpt>
<trkpt lat="56.056034" lon="26.457270">
<ele>112.575256</ele>
<time>2010-06-20T10:45:21Z</time>
<desc>lat.=56.056034, lon.=26.457270, Alt.=112.575256m. Speed=13.140000m/h.</desc>
<speed>3.650000</speed>
</trkpt>
<trkpt lat="56.056072" lon="26.457293">
<ele>112.333069</ele>
<time>2010-06-20T10:45:22Z</time>
<desc>lat.=56.056072, lon.=26.457293, Alt.=112.333069m. Speed=12.528000m/h.</desc>
<speed>3.480000</speed>
</trkpt>
<trkpt lat="56.056114" lon="26.457323">
<ele>112.768616</ele>
<time>2010-06-20T10:45:23Z</time>
<desc>lat.=56.056114, lon.=26.457323, Alt.=112.768616m. Speed=11.664000m/h.</desc>
<speed>3.240000</speed>
</trkpt>
<trkpt lat="56.056145" lon="26.457344">
<ele>113.364319</ele>
<time>2010-06-20T10:45:24Z</time>
<desc>lat.=56.056145, lon.=26.457344, Alt.=113.364319m. Speed=10.800000m/h.</desc>
<speed>3.000000</speed>
</trkpt>
<trkpt lat="56.056175" lon="26.457359">
<ele>113.731506</ele>
<time>2010-06-20T10:45:25Z</time>
<desc>lat.=56.056175, lon.=26.457359, Alt.=113.731506m. Speed=10.296000m/h.</desc>
<speed>2.860000</speed>
</trkpt>
<trkpt lat="56.056194" lon="26.457375">
<ele>112.885803</ele>
<time>2010-06-20T10:45:26Z</time>
<desc>lat.=56.056194, lon.=26.457375, Alt.=112.885803m. Speed=9.684000m/h.</desc>
<speed>2.690000</speed>
</trkpt>
<trkpt lat="56.056217" lon="26.457392">
<ele>112.846741</ele>
<time>2010-06-20T10:45:27Z</time>
<desc>lat.=56.056217, lon.=26.457392, Alt.=112.846741m. Speed=9.324000m/h.</desc>
<speed>2.590000</speed>
</trkpt>
<trkpt lat="56.056240" lon="26.457405">
<ele>113.116272</ele>
<time>2010-06-20T10:45:28Z</time>
<desc>lat.=56.056240, lon.=26.457405, Alt.=113.116272m. Speed=9.180000m/h.</desc>
<speed>2.550000</speed>
</trkpt>
<trkpt lat="56.056259" lon="26.457415">
<ele>113.514709</ele>
<time>2010-06-20T10:45:29Z</time>
<desc>lat.=56.056259, lon.=26.457415, Alt.=113.514709m. Speed=8.964000m/h.</desc>
<speed>2.490000</speed>
</trkpt>
<trkpt lat="56.056278" lon="26.457428">
<ele>112.506897</ele>
<time>2010-06-20T10:45:30Z</time>
<desc>lat.=56.056278, lon.=26.457428, Alt.=112.506897m. Speed=8.460000m/h.</desc>
<speed>2.350000</speed>
</trkpt>
<trkpt lat="56.056297" lon="26.457443">
<ele>112.073303</ele>
<time>2010-06-20T10:45:31Z</time>
<desc>lat.=56.056297, lon.=26.457443, Alt.=112.073303m. Speed=8.172000m/h.</desc>
<speed>2.270000</speed>
</trkpt>
<trkpt lat="56.056316" lon="26.457455">
<ele>111.950256</ele>
<time>2010-06-20T10:45:32Z</time>
<desc>lat.=56.056316, lon.=26.457455, Alt.=111.950256m. Speed=7.776000m/h.</desc>
<speed>2.160000</speed>
</trkpt>
<trkpt lat="56.056335" lon="26.457466">
<ele>111.708069</ele>
<time>2010-06-20T10:45:33Z</time>
<desc>lat.=56.056335, lon.=26.457466, Alt.=111.708069m. Speed=7.560000m/h.</desc>
<speed>2.100000</speed>
</trkpt>
<trkpt lat="56.056351" lon="26.457472">
<ele>110.813538</ele>
<time>2010-06-20T10:45:34Z</time>
<desc>lat.=56.056351, lon.=26.457472, Alt.=110.813538m. Speed=6.840000m/h.</desc>
<speed>1.900000</speed>
</trkpt>
<trkpt lat="56.056366" lon="26.457481">
<ele>110.526428</ele>
<time>2010-06-20T10:45:35Z</time>
<desc>lat.=56.056366, lon.=26.457481, Alt.=110.526428m. Speed=6.480000m/h.</desc>
<speed>1.800000</speed>
</trkpt>
<trkpt lat="56.056377" lon="26.457487">
<ele>110.420959</ele>
<time>2010-06-20T10:45:36Z</time>
<desc>lat.=56.056377, lon.=26.457487, Alt.=110.420959m. Speed=5.796000m/h.</desc>
<speed>1.610000</speed>
</trkpt>
<trkpt lat="56.056396" lon="26.457493">
<ele>110.067444</ele>
<time>2010-06-20T10:45:37Z</time>
<desc>lat.=56.056396, lon.=26.457493, Alt.=110.067444m. Speed=6.048000m/h.</desc>
<speed>1.680000</speed>
</trkpt>
<trkpt lat="56.056408" lon="26.457499">
<ele>110.047913</ele>
<time>2010-06-20T10:45:38Z</time>
<desc>lat.=56.056408, lon.=26.457499, Alt.=110.047913m. Speed=7.092000m/h.</desc>
<speed>1.970000</speed>
</trkpt>
<trkpt lat="56.056423" lon="26.457504">
<ele>110.172913</ele>
<time>2010-06-20T10:45:39Z</time>
<desc>lat.=56.056423, lon.=26.457504, Alt.=110.172913m. Speed=6.768000m/h.</desc>
<speed>1.880000</speed>
</trkpt>
<trkpt lat="56.056438" lon="26.457512">
<ele>109.975647</ele>
<time>2010-06-20T10:45:40Z</time>
<desc>lat.=56.056438, lon.=26.457512, Alt.=109.975647m. Speed=6.228000m/h.</desc>
<speed>1.730000</speed>
</trkpt>
<trkpt lat="56.056450" lon="26.457520">
<ele>109.817444</ele>
<time>2010-06-20T10:45:41Z</time>
<desc>lat.=56.056450, lon.=26.457520, Alt.=109.817444m. Speed=5.796000m/h.</desc>
<speed>1.610000</speed>
</trkpt>
<trkpt lat="56.056458" lon="26.457525">
<ele>107.272522</ele>
<time>2010-06-20T10:45:42Z</time>
<desc>lat.=56.056458, lon.=26.457525, Alt.=107.272522m. Speed=5.544000m/h.</desc>
<speed>1.540000</speed>
</trkpt>
<trkpt lat="56.056469" lon="26.457533">
<ele>107.381897</ele>
<time>2010-06-20T10:45:43Z</time>
<desc>lat.=56.056469, lon.=26.457533, Alt.=107.381897m. Speed=5.184000m/h.</desc>
<speed>1.440000</speed>
</trkpt>
<trkpt lat="56.056480" lon="26.457533">
<ele>107.489319</ele>
<time>2010-06-20T10:45:44Z</time>
<desc>lat.=56.056480, lon.=26.457533, Alt.=107.489319m. Speed=5.004000m/h.</desc>
<speed>1.390000</speed>
</trkpt>
<trkpt lat="56.056499" lon="26.457544">
<ele>107.190491</ele>
<time>2010-06-20T10:45:45Z</time>
<desc>lat.=56.056499, lon.=26.457544, Alt.=107.190491m. Speed=5.148000m/h.</desc>
<speed>1.430000</speed>
</trkpt>
<trkpt lat="56.056507" lon="26.457552">
<ele>106.534241</ele>
<time>2010-06-20T10:45:46Z</time>
<desc>lat.=56.056507, lon.=26.457552, Alt.=106.534241m. Speed=4.968000m/h.</desc>
<speed>1.380000</speed>
</trkpt>
<trkpt lat="56.056519" lon="26.457554">
<ele>106.213928</ele>
<time>2010-06-20T10:45:47Z</time>
<desc>lat.=56.056519, lon.=26.457554, Alt.=106.213928m. Speed=4.464000m/h.</desc>
<speed>1.240000</speed>
</trkpt>
<trkpt lat="56.056526" lon="26.457567">
<ele>106.174866</ele>
<time>2010-06-20T10:45:48Z</time>
<desc>lat.=56.056526, lon.=26.457567, Alt.=106.174866m. Speed=4.536000m/h.</desc>
<speed>1.260000</speed>
</trkpt>
<trkpt lat="56.056538" lon="26.457577">
<ele>106.153381</ele>
<time>2010-06-20T10:45:49Z</time>
<desc>lat.=56.056538, lon.=26.457577, Alt.=106.153381m. Speed=4.176000m/h.</desc>
<speed>1.160000</speed>
</trkpt>
<trkpt lat="56.056553" lon="26.457586">
<ele>106.627991</ele>
<time>2010-06-20T10:45:50Z</time>
<desc>lat.=56.056553, lon.=26.457586, Alt.=106.627991m. Speed=4.824000m/h.</desc>
<speed>1.340000</speed>
</trkpt>
<trkpt lat="56.056564" lon="26.457598">
<ele>106.590881</ele>
<time>2010-06-20T10:45:51Z</time>
<desc>lat.=56.056564, lon.=26.457598, Alt.=106.590881m. Speed=4.608000m/h.</desc>
<speed>1.280000</speed>
</trkpt>
<trkpt lat="56.056576" lon="26.457607">
<ele>106.510803</ele>
<time>2010-06-20T10:45:52Z</time>
<desc>lat.=56.056576, lon.=26.457607, Alt.=106.510803m. Speed=4.860000m/h.</desc>
<speed>1.350000</speed>
</trkpt>
<trkpt lat="56.056587" lon="26.457611">
<ele>106.413147</ele>
<time>2010-06-20T10:45:53Z</time>
<desc>lat.=56.056587, lon.=26.457611, Alt.=106.413147m. Speed=7.128000m/h.</desc>
<speed>1.980000</speed>
</trkpt>
<trkpt lat="56.056606" lon="26.457619">
<ele>106.335022</ele>
<time>2010-06-20T10:45:54Z</time>
<desc>lat.=56.056606, lon.=26.457619, Alt.=106.335022m. Speed=7.884000m/h.</desc>
<speed>2.190000</speed>
</trkpt>
<trkpt lat="56.056625" lon="26.457634">
<ele>106.485413</ele>
<time>2010-06-20T10:45:55Z</time>
<desc>lat.=56.056625, lon.=26.457634, Alt.=106.485413m. Speed=9.684000m/h.</desc>
<speed>2.690000</speed>
</trkpt>
<trkpt lat="56.056652" lon="26.457647">
<ele>106.624084</ele>
<time>2010-06-20T10:45:56Z</time>
<desc>lat.=56.056652, lon.=26.457647, Alt.=106.624084m. Speed=11.088000m/h.</desc>
<speed>3.080000</speed>
</trkpt>
<trkpt lat="56.056679" lon="26.457668">
<ele>106.126038</ele>
<time>2010-06-20T10:45:57Z</time>
<desc>lat.=56.056679, lon.=26.457668, Alt.=106.126038m. Speed=12.708000m/h.</desc>
<speed>3.530000</speed>
</trkpt>
<trkpt lat="56.056709" lon="26.457695">
<ele>106.323303</ele>
<time>2010-06-20T10:45:58Z</time>
<desc>lat.=56.056709, lon.=26.457695, Alt.=106.323303m. Speed=14.040000m/h.</desc>
<speed>3.900000</speed>
</trkpt>
<trkpt lat="56.056744" lon="26.457722">
<ele>106.348694</ele>
<time>2010-06-20T10:45:59Z</time>
<desc>lat.=56.056744, lon.=26.457722, Alt.=106.348694m. Speed=15.228000m/h.</desc>
<speed>4.230000</speed>
</trkpt>
<trkpt lat="56.056778" lon="26.457745">
<ele>106.211975</ele>
<time>2010-06-20T10:46:00Z</time>
<desc>lat.=56.056778, lon.=26.457745, Alt.=106.211975m. Speed=15.660000m/h.</desc>
<speed>4.350000</speed>
</trkpt>
<trkpt lat="56.056824" lon="26.457762">
<ele>106.583069</ele>
<time>2010-06-20T10:46:01Z</time>
<desc>lat.=56.056824, lon.=26.457762, Alt.=106.583069m. Speed=15.300000m/h.</desc>
<speed>4.250000</speed>
</trkpt>
<trkpt lat="56.056862" lon="26.457783">
<ele>106.909241</ele>
<time>2010-06-20T10:46:02Z</time>
<desc>lat.=56.056862, lon.=26.457783, Alt.=106.909241m. Speed=14.796000m/h.</desc>
<speed>4.110000</speed>
</trkpt>
<trkpt lat="56.056896" lon="26.457806">
<ele>107.315491</ele>
<time>2010-06-20T10:46:03Z</time>
<desc>lat.=56.056896, lon.=26.457806, Alt.=107.315491m. Speed=14.580000m/h.</desc>
<speed>4.050000</speed>
</trkpt>
<trkpt lat="56.056931" lon="26.457830">
<ele>107.606506</ele>
<time>2010-06-20T10:46:04Z</time>
<desc>lat.=56.056931, lon.=26.457830, Alt.=107.606506m. Speed=14.148000m/h.</desc>
<speed>3.930000</speed>
</trkpt>
<trkpt lat="56.056957" lon="26.457853">
<ele>107.901428</ele>
<time>2010-06-20T10:46:05Z</time>
<desc>lat.=56.056957, lon.=26.457853, Alt.=107.901428m. Speed=13.968000m/h.</desc>
<speed>3.880000</speed>
</trkpt>
<trkpt lat="56.056988" lon="26.457869">
<ele>108.590881</ele>
<time>2010-06-20T10:46:06Z</time>
<desc>lat.=56.056988, lon.=26.457869, Alt.=108.590881m. Speed=13.356000m/h.</desc>
<speed>3.710000</speed>
</trkpt>
<trkpt lat="56.057022" lon="26.457886">
<ele>109.034241</ele>
<time>2010-06-20T10:46:07Z</time>
<desc>lat.=56.057022, lon.=26.457886, Alt.=109.034241m. Speed=14.292000m/h.</desc>
<speed>3.970000</speed>
</trkpt>
<trkpt lat="56.057053" lon="26.457905">
<ele>109.085022</ele>
<time>2010-06-20T10:46:08Z</time>
<desc>lat.=56.057053, lon.=26.457905, Alt.=109.085022m. Speed=14.616000m/h.</desc>
<speed>4.060000</speed>
</trkpt>
<trkpt lat="56.057091" lon="26.457922">
<ele>109.387756</ele>
<time>2010-06-20T10:46:09Z</time>
<desc>lat.=56.057091, lon.=26.457922, Alt.=109.387756m. Speed=14.796000m/h.</desc>
<speed>4.110000</speed>
</trkpt>
<trkpt lat="56.057125" lon="26.457947">
<ele>109.215881</ele>
<time>2010-06-20T10:46:10Z</time>
<desc>lat.=56.057125, lon.=26.457947, Alt.=109.215881m. Speed=13.860000m/h.</desc>
<speed>3.850000</speed>
</trkpt>
<trkpt lat="56.057159" lon="26.457964">
<ele>108.997131</ele>
<time>2010-06-20T10:46:11Z</time>
<desc>lat.=56.057159, lon.=26.457964, Alt.=108.997131m. Speed=14.472000m/h.</desc>
<speed>4.020000</speed>
</trkpt>
<trkpt lat="56.057194" lon="26.457979">
<ele>109.274475</ele>
<time>2010-06-20T10:46:12Z</time>
<desc>lat.=56.057194, lon.=26.457979, Alt.=109.274475m. Speed=15.012000m/h.</desc>
<speed>4.170000</speed>
</trkpt>
<trkpt lat="56.057232" lon="26.458002">
<ele>109.469788</ele>
<time>2010-06-20T10:46:13Z</time>
<desc>lat.=56.057232, lon.=26.458002, Alt.=109.469788m. Speed=14.940000m/h.</desc>
<speed>4.150000</speed>
</trkpt>
<trkpt lat="56.057266" lon="26.458023">
<ele>109.643616</ele>
<time>2010-06-20T10:46:14Z</time>
<desc>lat.=56.057266, lon.=26.458023, Alt.=109.643616m. Speed=14.436000m/h.</desc>
<speed>4.010000</speed>
</trkpt>
<trkpt lat="56.057301" lon="26.458046">
<ele>109.833069</ele>
<time>2010-06-20T10:46:15Z</time>
<desc>lat.=56.057301, lon.=26.458046, Alt.=109.833069m. Speed=13.608000m/h.</desc>
<speed>3.780000</speed>
</trkpt>
<trkpt lat="56.057335" lon="26.458065">
<ele>109.885803</ele>
<time>2010-06-20T10:46:16Z</time>
<desc>lat.=56.057335, lon.=26.458065, Alt.=109.885803m. Speed=13.356000m/h.</desc>
<speed>3.710000</speed>
</trkpt>
<trkpt lat="56.057365" lon="26.458086">
<ele>110.153381</ele>
<time>2010-06-20T10:46:17Z</time>
<desc>lat.=56.057365, lon.=26.458086, Alt.=110.153381m. Speed=14.004000m/h.</desc>
<speed>3.890000</speed>
</trkpt>
<trkpt lat="56.057396" lon="26.458107">
<ele>110.120178</ele>
<time>2010-06-20T10:46:18Z</time>
<desc>lat.=56.057396, lon.=26.458107, Alt.=110.120178m. Speed=15.048000m/h.</desc>
<speed>4.180000</speed>
</trkpt>
<trkpt lat="56.057434" lon="26.458134">
<ele>110.301819</ele>
<time>2010-06-20T10:46:19Z</time>
<desc>lat.=56.057434, lon.=26.458134, Alt.=110.301819m. Speed=16.236000m/h.</desc>
<speed>4.510000</speed>
</trkpt>
<trkpt lat="56.057472" lon="26.458162">
<ele>110.151428</ele>
<time>2010-06-20T10:46:20Z</time>
<desc>lat.=56.057472, lon.=26.458162, Alt.=110.151428m. Speed=16.955999m/h.</desc>
<speed>4.710000</speed>
</trkpt>
<trkpt lat="56.057514" lon="26.458187">
<ele>111.085022</ele>
<time>2010-06-20T10:46:21Z</time>
<desc>lat.=56.057514, lon.=26.458187, Alt.=111.085022m. Speed=17.532000m/h.</desc>
<speed>4.870000</speed>
</trkpt>
<trkpt lat="56.057560" lon="26.458216">
<ele>111.538147</ele>
<time>2010-06-20T10:46:22Z</time>
<desc>lat.=56.057560, lon.=26.458216, Alt.=111.538147m. Speed=17.784000m/h.</desc>
<speed>4.940000</speed>
</trkpt>
<trkpt lat="56.057602" lon="26.458241">
<ele>112.057678</ele>
<time>2010-06-20T10:46:23Z</time>
<desc>lat.=56.057602, lon.=26.458241, Alt.=112.057678m. Speed=16.632000m/h.</desc>
<speed>4.620000</speed>
</trkpt>
<trkpt lat="56.057644" lon="26.458260">
<ele>112.754944</ele>
<time>2010-06-20T10:46:24Z</time>
<desc>lat.=56.057644, lon.=26.458260, Alt.=112.754944m. Speed=15.840000m/h.</desc>
<speed>4.400000</speed>
</trkpt>
<trkpt lat="56.057682" lon="26.458281">
<ele>113.206116</ele>
<time>2010-06-20T10:46:25Z</time>
<desc>lat.=56.057682, lon.=26.458281, Alt.=113.206116m. Speed=15.876000m/h.</desc>
<speed>4.410000</speed>
</trkpt>
<trkpt lat="56.057716" lon="26.458302">
<ele>113.532288</ele>
<time>2010-06-20T10:46:26Z</time>
<desc>lat.=56.057716, lon.=26.458302, Alt.=113.532288m. Speed=14.688000m/h.</desc>
<speed>4.080000</speed>
</trkpt>
<trkpt lat="56.057755" lon="26.458321">
<ele>113.655334</ele>
<time>2010-06-20T10:46:27Z</time>
<desc>lat.=56.057755, lon.=26.458321, Alt.=113.655334m. Speed=14.796000m/h.</desc>
<speed>4.110000</speed>
</trkpt>
<trkpt lat="56.057789" lon="26.458344">
<ele>114.006897</ele>
<time>2010-06-20T10:46:28Z</time>
<desc>lat.=56.057789, lon.=26.458344, Alt.=114.006897m. Speed=15.084000m/h.</desc>
<speed>4.190000</speed>
</trkpt>
<trkpt lat="56.057823" lon="26.458364">
<ele>113.967834</ele>
<time>2010-06-20T10:46:29Z</time>
<desc>lat.=56.057823, lon.=26.458364, Alt.=113.967834m. Speed=16.271999m/h.</desc>
<speed>4.520000</speed>
</trkpt>
<trkpt lat="56.057861" lon="26.458385">
<ele>113.870178</ele>
<time>2010-06-20T10:46:30Z</time>
<desc>lat.=56.057861, lon.=26.458385, Alt.=113.870178m. Speed=16.236000m/h.</desc>
<speed>4.510000</speed>
</trkpt>
<trkpt lat="56.057899" lon="26.458406">
<ele>113.821350</ele>
<time>2010-06-20T10:46:31Z</time>
<desc>lat.=56.057899, lon.=26.458406, Alt.=113.821350m. Speed=15.948000m/h.</desc>
<speed>4.430000</speed>
</trkpt>
<trkpt lat="56.057938" lon="26.458427">
<ele>114.237366</ele>
<time>2010-06-20T10:46:32Z</time>
<desc>lat.=56.057938, lon.=26.458427, Alt.=114.237366m. Speed=14.976000m/h.</desc>
<speed>4.160000</speed>
</trkpt>
<trkpt lat="56.057972" lon="26.458445">
<ele>114.012756</ele>
<time>2010-06-20T10:46:33Z</time>
<desc>lat.=56.057972, lon.=26.458445, Alt.=114.012756m. Speed=13.860000m/h.</desc>
<speed>3.850000</speed>
</trkpt>
<trkpt lat="56.058002" lon="26.458464">
<ele>114.401428</ele>
<time>2010-06-20T10:46:34Z</time>
<desc>lat.=56.058002, lon.=26.458464, Alt.=114.401428m. Speed=14.148000m/h.</desc>
<speed>3.930000</speed>
</trkpt>
<trkpt lat="56.058037" lon="26.458479">
<ele>114.249084</ele>
<time>2010-06-20T10:46:35Z</time>
<desc>lat.=56.058037, lon.=26.458479, Alt.=114.249084m. Speed=14.832000m/h.</desc>
<speed>4.120000</speed>
</trkpt>
<trkpt lat="56.058071" lon="26.458496">
<ele>114.557678</ele>
<time>2010-06-20T10:46:36Z</time>
<desc>lat.=56.058071, lon.=26.458496, Alt.=114.557678m. Speed=12.780000m/h.</desc>
<speed>3.550000</speed>
</trkpt>
<trkpt lat="56.058102" lon="26.458515">
<ele>114.487366</ele>
<time>2010-06-20T10:46:37Z</time>
<desc>lat.=56.058102, lon.=26.458515, Alt.=114.487366m. Speed=13.860000m/h.</desc>
<speed>3.850000</speed>
</trkpt>
<trkpt lat="56.058140" lon="26.458529">
<ele>114.930725</ele>
<time>2010-06-20T10:46:38Z</time>
<desc>lat.=56.058140, lon.=26.458529, Alt.=114.930725m. Speed=15.372000m/h.</desc>
<speed>4.270000</speed>
</trkpt>
<trkpt lat="56.058178" lon="26.458548">
<ele>115.604553</ele>
<time>2010-06-20T10:46:39Z</time>
<desc>lat.=56.058178, lon.=26.458548, Alt.=115.604553m. Speed=14.148000m/h.</desc>
<speed>3.930000</speed>
</trkpt>
<trkpt lat="56.058216" lon="26.458567">
<ele>116.362366</ele>
<time>2010-06-20T10:46:40Z</time>
<desc>lat.=56.058216, lon.=26.458567, Alt.=116.362366m. Speed=15.372000m/h.</desc>
<speed>4.270000</speed>
</trkpt>
<trkpt lat="56.058250" lon="26.458582">
<ele>116.991272</ele>
<time>2010-06-20T10:46:41Z</time>
<desc>lat.=56.058250, lon.=26.458582, Alt.=116.991272m. Speed=14.688000m/h.</desc>
<speed>4.080000</speed>
</trkpt>
<trkpt lat="56.058285" lon="26.458603">
<ele>117.026428</ele>
<time>2010-06-20T10:46:42Z</time>
<desc>lat.=56.058285, lon.=26.458603, Alt.=117.026428m. Speed=14.220000m/h.</desc>
<speed>3.950000</speed>
</trkpt>
<trkpt lat="56.058323" lon="26.458624">
<ele>117.436584</ele>
<time>2010-06-20T10:46:43Z</time>
<desc>lat.=56.058323, lon.=26.458624, Alt.=117.436584m. Speed=15.624000m/h.</desc>
<speed>4.340000</speed>
</trkpt>
<trkpt lat="56.058357" lon="26.458645">
<ele>115.909241</ele>
<time>2010-06-20T10:46:44Z</time>
<desc>lat.=56.058357, lon.=26.458645, Alt.=115.909241m. Speed=15.948000m/h.</desc>
<speed>4.430000</speed>
</trkpt>
<trkpt lat="56.058407" lon="26.458666">
<ele>117.737366</ele>
<time>2010-06-20T10:46:45Z</time>
<desc>lat.=56.058407, lon.=26.458666, Alt.=117.737366m. Speed=15.588000m/h.</desc>
<speed>4.330000</speed>
</trkpt>
<trkpt lat="56.058445" lon="26.458693">
<ele>116.952209</ele>
<time>2010-06-20T10:46:46Z</time>
<desc>lat.=56.058445, lon.=26.458693, Alt.=116.952209m. Speed=15.948000m/h.</desc>
<speed>4.430000</speed>
</trkpt>
<trkpt lat="56.058483" lon="26.458715">
<ele>117.020569</ele>
<time>2010-06-20T10:46:47Z</time>
<desc>lat.=56.058483, lon.=26.458715, Alt.=117.020569m. Speed=16.704000m/h.</desc>
<speed>4.640000</speed>
</trkpt>
<trkpt lat="56.058517" lon="26.458740">
<ele>116.844788</ele>
<time>2010-06-20T10:46:48Z</time>
<desc>lat.=56.058517, lon.=26.458740, Alt.=116.844788m. Speed=17.676001m/h.</desc>
<speed>4.910000</speed>
</trkpt>
<trkpt lat="56.058563" lon="26.458767">
<ele>116.836975</ele>
<time>2010-06-20T10:46:49Z</time>
<desc>lat.=56.058563, lon.=26.458767, Alt.=116.836975m. Speed=18.252001m/h.</desc>
<speed>5.070000</speed>
</trkpt>
<trkpt lat="56.058605" lon="26.458794">
<ele>116.975647</ele>
<time>2010-06-20T10:46:50Z</time>
<desc>lat.=56.058605, lon.=26.458794, Alt.=116.975647m. Speed=16.812000m/h.</desc>
<speed>4.670000</speed>
</trkpt>
<trkpt lat="56.058643" lon="26.458817">
<ele>116.877991</ele>
<time>2010-06-20T10:46:51Z</time>
<desc>lat.=56.058643, lon.=26.458817, Alt.=116.877991m. Speed=16.775999m/h.</desc>
<speed>4.660000</speed>
</trkpt>
<trkpt lat="56.058670" lon="26.458839">
<ele>115.362366</ele>
<time>2010-06-20T10:46:52Z</time>
<desc>lat.=56.058670, lon.=26.458839, Alt.=115.362366m. Speed=14.832000m/h.</desc>
<speed>4.120000</speed>
</trkpt>
<trkpt lat="56.058708" lon="26.458868">
<ele>115.608459</ele>
<time>2010-06-20T10:46:53Z</time>
<desc>lat.=56.058708, lon.=26.458868, Alt.=115.608459m. Speed=16.164000m/h.</desc>
<speed>4.490000</speed>
</trkpt>
<trkpt lat="56.058746" lon="26.458895">
<ele>115.397522</ele>
<time>2010-06-20T10:46:54Z</time>
<desc>lat.=56.058746, lon.=26.458895, Alt.=115.397522m. Speed=17.459999m/h.</desc>
<speed>4.850000</speed>
</trkpt>
<trkpt lat="56.058788" lon="26.458923">
<ele>115.399475</ele>
<time>2010-06-20T10:46:55Z</time>
<desc>lat.=56.058788, lon.=26.458923, Alt.=115.399475m. Speed=16.848000m/h.</desc>
<speed>4.680000</speed>
</trkpt>
<trkpt lat="56.058826" lon="26.458954">
<ele>114.967834</ele>
<time>2010-06-20T10:46:56Z</time>
<desc>lat.=56.058826, lon.=26.458954, Alt.=114.967834m. Speed=14.220000m/h.</desc>
<speed>3.950000</speed>
</trkpt>
<trkpt lat="56.058861" lon="26.458979">
<ele>115.340881</ele>
<time>2010-06-20T10:46:57Z</time>
<desc>lat.=56.058861, lon.=26.458979, Alt.=115.340881m. Speed=14.328000m/h.</desc>
<speed>3.980000</speed>
</trkpt>
<trkpt lat="56.058895" lon="26.458996">
<ele>114.301819</ele>
<time>2010-06-20T10:46:58Z</time>
<desc>lat.=56.058895, lon.=26.458996, Alt.=114.301819m. Speed=15.012000m/h.</desc>
<speed>4.170000</speed>
</trkpt>
<trkpt lat="56.058937" lon="26.459015">
<ele>114.862366</ele>
<time>2010-06-20T10:46:59Z</time>
<desc>lat.=56.058937, lon.=26.459015, Alt.=114.862366m. Speed=15.084000m/h.</desc>
<speed>4.190000</speed>
</trkpt>
<trkpt lat="56.058983" lon="26.459036">
<ele>114.874084</ele>
<time>2010-06-20T10:47:00Z</time>
<desc>lat.=56.058983, lon.=26.459036, Alt.=114.874084m. Speed=15.264000m/h.</desc>
<speed>4.240000</speed>
</trkpt>
<trkpt lat="56.059021" lon="26.459053">
<ele>114.606506</ele>
<time>2010-06-20T10:47:01Z</time>
<desc>lat.=56.059021, lon.=26.459053, Alt.=114.606506m. Speed=13.824000m/h.</desc>
<speed>3.840000</speed>
</trkpt>
<trkpt lat="56.059059" lon="26.459072">
<ele>114.469788</ele>
<time>2010-06-20T10:47:02Z</time>
<desc>lat.=56.059059, lon.=26.459072, Alt.=114.469788m. Speed=13.536000m/h.</desc>
<speed>3.760000</speed>
</trkpt>
<trkpt lat="56.059090" lon="26.459089">
<ele>113.948303</ele>
<time>2010-06-20T10:47:03Z</time>
<desc>lat.=56.059090, lon.=26.459089, Alt.=113.948303m. Speed=14.472000m/h.</desc>
<speed>4.020000</speed>
</trkpt>
<trkpt lat="56.059128" lon="26.459106">
<ele>114.049866</ele>
<time>2010-06-20T10:47:04Z</time>
<desc>lat.=56.059128, lon.=26.459106, Alt.=114.049866m. Speed=15.228000m/h.</desc>
<speed>4.230000</speed>
</trkpt>
<trkpt lat="56.059162" lon="26.459126">
<ele>113.276428</ele>
<time>2010-06-20T10:47:05Z</time>
<desc>lat.=56.059162, lon.=26.459126, Alt.=113.276428m. Speed=15.660000m/h.</desc>
<speed>4.350000</speed>
</trkpt>
<trkpt lat="56.059200" lon="26.459150">
<ele>113.600647</ele>
<time>2010-06-20T10:47:06Z</time>
<desc>lat.=56.059200, lon.=26.459150, Alt.=113.600647m. Speed=16.236000m/h.</desc>
<speed>4.510000</speed>
</trkpt>
<trkpt lat="56.059238" lon="26.459173">
<ele>113.547913</ele>
<time>2010-06-20T10:47:07Z</time>
<desc>lat.=56.059238, lon.=26.459173, Alt.=113.547913m. Speed=15.264000m/h.</desc>
<speed>4.240000</speed>
</trkpt>
<trkpt lat="56.059273" lon="26.459198">
<ele>113.465881</ele>
<time>2010-06-20T10:47:08Z</time>
<desc>lat.=56.059273, lon.=26.459198, Alt.=113.465881m. Speed=14.364000m/h.</desc>
<speed>3.990000</speed>
</trkpt>
<trkpt lat="56.059326" lon="26.459230">
<ele>117.596741</ele>
<time>2010-06-20T10:47:09Z</time>
<desc>lat.=56.059326, lon.=26.459230, Alt.=117.596741m. Speed=20.195999m/h.</desc>
<speed>5.610000</speed>
</trkpt>
<trkpt lat="56.059368" lon="26.459261">
<ele>118.956116</ele>
<time>2010-06-20T10:47:10Z</time>
<desc>lat.=56.059368, lon.=26.459261, Alt.=118.956116m. Speed=18.792000m/h.</desc>
<speed>5.220000</speed>
</trkpt>
<trkpt lat="56.059410" lon="26.459276">
<ele>119.952209</ele>
<time>2010-06-20T10:47:11Z</time>
<desc>lat.=56.059410, lon.=26.459276, Alt.=119.952209m. Speed=16.812000m/h.</desc>
<speed>4.670000</speed>
</trkpt>
<trkpt lat="56.059448" lon="26.459295">
<ele>120.188538</ele>
<time>2010-06-20T10:47:12Z</time>
<desc>lat.=56.059448, lon.=26.459295, Alt.=120.188538m. Speed=18.576000m/h.</desc>
<speed>5.160000</speed>
</trkpt>
<trkpt lat="56.059490" lon="26.459316">
<ele>119.993225</ele>
<time>2010-06-20T10:47:13Z</time>
<desc>lat.=56.059490, lon.=26.459316, Alt.=119.993225m. Speed=19.476000m/h.</desc>
<speed>5.410000</speed>
</trkpt>
<trkpt lat="56.059540" lon="26.459341">
<ele>121.536194</ele>
<time>2010-06-20T10:47:14Z</time>
<desc>lat.=56.059540, lon.=26.459341, Alt.=121.536194m. Speed=19.115999m/h.</desc>
<speed>5.310000</speed>
</trkpt>
<trkpt lat="56.059578" lon="26.459362">
<ele>121.530334</ele>
<time>2010-06-20T10:47:15Z</time>
<desc>lat.=56.059578, lon.=26.459362, Alt.=121.530334m. Speed=16.812000m/h.</desc>
<speed>4.670000</speed>
</trkpt>
<trkpt lat="56.059616" lon="26.459381">
<ele>121.721741</ele>
<time>2010-06-20T10:47:16Z</time>
<desc>lat.=56.059616, lon.=26.459381, Alt.=121.721741m. Speed=16.667999m/h.</desc>
<speed>4.630000</speed>
</trkpt>
<trkpt lat="56.059658" lon="26.459406">
<ele>121.706116</ele>
<time>2010-06-20T10:47:17Z</time>
<desc>lat.=56.059658, lon.=26.459406, Alt.=121.706116m. Speed=17.172001m/h.</desc>
<speed>4.770000</speed>
</trkpt>
<trkpt lat="56.059700" lon="26.459431">
<ele>122.245178</ele>
<time>2010-06-20T10:47:18Z</time>
<desc>lat.=56.059700, lon.=26.459431, Alt.=122.245178m. Speed=19.368000m/h.</desc>
<speed>5.380000</speed>
</trkpt>
<trkpt lat="56.059738" lon="26.459459">
<ele>122.100647</ele>
<time>2010-06-20T10:47:19Z</time>
<desc>lat.=56.059738, lon.=26.459459, Alt.=122.100647m. Speed=18.792000m/h.</desc>
<speed>5.220000</speed>
</trkpt>
<trkpt lat="56.059769" lon="26.459484">
<ele>121.586975</ele>
<time>2010-06-20T10:47:20Z</time>
<desc>lat.=56.059769, lon.=26.459484, Alt.=121.586975m. Speed=16.955999m/h.</desc>
<speed>4.710000</speed>
</trkpt>
<trkpt lat="56.059803" lon="26.459503">
<ele>121.702209</ele>
<time>2010-06-20T10:47:21Z</time>
<desc>lat.=56.059803, lon.=26.459503, Alt.=121.702209m. Speed=15.696000m/h.</desc>
<speed>4.360000</speed>
</trkpt>
<trkpt lat="56.059834" lon="26.459524">
<ele>122.133850</ele>
<time>2010-06-20T10:47:22Z</time>
<desc>lat.=56.059834, lon.=26.459524, Alt.=122.133850m. Speed=14.652000m/h.</desc>
<speed>4.070000</speed>
</trkpt>
<trkpt lat="56.059864" lon="26.459543">
<ele>122.077209</ele>
<time>2010-06-20T10:47:23Z</time>
<desc>lat.=56.059864, lon.=26.459543, Alt.=122.077209m. Speed=10.764000m/h.</desc>
<speed>2.990000</speed>
</trkpt>
<trkpt lat="56.059891" lon="26.459557">
<ele>122.217834</ele>
<time>2010-06-20T10:47:24Z</time>
<desc>lat.=56.059891, lon.=26.459557, Alt.=122.217834m. Speed=12.744000m/h.</desc>
<speed>3.540000</speed>
</trkpt>
<trkpt lat="56.059914" lon="26.459578">
<ele>122.292053</ele>
<time>2010-06-20T10:47:25Z</time>
<desc>lat.=56.059914, lon.=26.459578, Alt.=122.292053m. Speed=12.024000m/h.</desc>
<speed>3.340000</speed>
</trkpt>
<trkpt lat="56.059940" lon="26.459595">
<ele>122.247131</ele>
<time>2010-06-20T10:47:26Z</time>
<desc>lat.=56.059940, lon.=26.459595, Alt.=122.247131m. Speed=13.464000m/h.</desc>
<speed>3.740000</speed>
</trkpt>
<trkpt lat="56.059971" lon="26.459618">
<ele>122.172913</ele>
<time>2010-06-20T10:47:27Z</time>
<desc>lat.=56.059971, lon.=26.459618, Alt.=122.172913m. Speed=13.752000m/h.</desc>
<speed>3.820000</speed>
</trkpt>
<trkpt lat="56.060001" lon="26.459639">
<ele>122.208069</ele>
<time>2010-06-20T10:47:28Z</time>
<desc>lat.=56.060001, lon.=26.459639, Alt.=122.208069m. Speed=14.364000m/h.</desc>
<speed>3.990000</speed>
</trkpt>
<trkpt lat="56.060036" lon="26.459658">
<ele>122.186584</ele>
<time>2010-06-20T10:47:29Z</time>
<desc>lat.=56.060036, lon.=26.459658, Alt.=122.186584m. Speed=14.724000m/h.</desc>
<speed>4.090000</speed>
</trkpt>
<trkpt lat="56.060070" lon="26.459682">
<ele>121.688538</ele>
<time>2010-06-20T10:47:30Z</time>
<desc>lat.=56.060070, lon.=26.459682, Alt.=121.688538m. Speed=14.832000m/h.</desc>
<speed>4.120000</speed>
</trkpt>
<trkpt lat="56.060108" lon="26.459709">
<ele>121.165100</ele>
<time>2010-06-20T10:47:31Z</time>
<desc>lat.=56.060108, lon.=26.459709, Alt.=121.165100m. Speed=13.644000m/h.</desc>
<speed>3.790000</speed>
</trkpt>
<trkpt lat="56.060139" lon="26.459723">
<ele>120.881897</ele>
<time>2010-06-20T10:47:32Z</time>
<desc>lat.=56.060139, lon.=26.459723, Alt.=120.881897m. Speed=13.068000m/h.</desc>
<speed>3.630000</speed>
</trkpt>
<trkpt lat="56.060173" lon="26.459734">
<ele>120.280334</ele>
<time>2010-06-20T10:47:33Z</time>
<desc>lat.=56.060173, lon.=26.459734, Alt.=120.280334m. Speed=14.364000m/h.</desc>
<speed>3.990000</speed>
</trkpt>
<trkpt lat="56.060215" lon="26.459753">
<ele>121.204163</ele>
<time>2010-06-20T10:47:34Z</time>
<desc>lat.=56.060215, lon.=26.459753, Alt.=121.204163m. Speed=15.048000m/h.</desc>
<speed>4.180000</speed>
</trkpt>
<trkpt lat="56.060249" lon="26.459776">
<ele>121.436584</ele>
<time>2010-06-20T10:47:35Z</time>
<desc>lat.=56.060249, lon.=26.459776, Alt.=121.436584m. Speed=15.336000m/h.</desc>
<speed>4.260000</speed>
</trkpt>
<trkpt lat="56.060287" lon="26.459801">
<ele>121.547913</ele>
<time>2010-06-20T10:47:36Z</time>
<desc>lat.=56.060287, lon.=26.459801, Alt.=121.547913m. Speed=15.192000m/h.</desc>
<speed>4.220000</speed>
</trkpt>
<trkpt lat="56.060326" lon="26.459822">
<ele>121.477600</ele>
<time>2010-06-20T10:47:37Z</time>
<desc>lat.=56.060326, lon.=26.459822, Alt.=121.477600m. Speed=15.120000m/h.</desc>
<speed>4.200000</speed>
</trkpt>
<trkpt lat="56.060364" lon="26.459841">
<ele>121.569397</ele>
<time>2010-06-20T10:47:38Z</time>
<desc>lat.=56.060364, lon.=26.459841, Alt.=121.569397m. Speed=16.091999m/h.</desc>
<speed>4.470000</speed>
</trkpt>
<trkpt lat="56.060402" lon="26.459858">
<ele>121.975647</ele>
<time>2010-06-20T10:47:39Z</time>
<desc>lat.=56.060402, lon.=26.459858, Alt.=121.975647m. Speed=15.660000m/h.</desc>
<speed>4.350000</speed>
</trkpt>
<trkpt lat="56.060440" lon="26.459881">
<ele>121.616272</ele>
<time>2010-06-20T10:47:40Z</time>
<desc>lat.=56.060440, lon.=26.459881, Alt.=121.616272m. Speed=16.200001m/h.</desc>
<speed>4.500000</speed>
</trkpt>
<trkpt lat="56.060478" lon="26.459898">
<ele>121.583069</ele>
<time>2010-06-20T10:47:41Z</time>
<desc>lat.=56.060478, lon.=26.459898, Alt.=121.583069m. Speed=16.667999m/h.</desc>
<speed>4.630000</speed>
</trkpt>
<trkpt lat="56.060516" lon="26.459921">
<ele>121.711975</ele>
<time>2010-06-20T10:47:42Z</time>
<desc>lat.=56.060516, lon.=26.459921, Alt.=121.711975m. Speed=15.804000m/h.</desc>
<speed>4.390000</speed>
</trkpt>
<trkpt lat="56.060555" lon="26.459948">
<ele>121.813538</ele>
<time>2010-06-20T10:47:43Z</time>
<desc>lat.=56.060555, lon.=26.459948, Alt.=121.813538m. Speed=15.588000m/h.</desc>
<speed>4.330000</speed>
</trkpt>
<trkpt lat="56.060593" lon="26.459965">
<ele>122.042053</ele>
<time>2010-06-20T10:47:44Z</time>
<desc>lat.=56.060593, lon.=26.459965, Alt.=122.042053m. Speed=15.660000m/h.</desc>
<speed>4.350000</speed>
</trkpt>
<trkpt lat="56.060631" lon="26.459986">
<ele>122.100647</ele>
<time>2010-06-20T10:47:45Z</time>
<desc>lat.=56.060631, lon.=26.459986, Alt.=122.100647m. Speed=15.552000m/h.</desc>
<speed>4.320000</speed>
</trkpt>
<trkpt lat="56.060669" lon="26.460007">
<ele>122.200256</ele>
<time>2010-06-20T10:47:46Z</time>
<desc>lat.=56.060669, lon.=26.460007, Alt.=122.200256m. Speed=16.056000m/h.</desc>
<speed>4.460000</speed>
</trkpt>
<trkpt lat="56.060711" lon="26.460032">
<ele>122.436584</ele>
<time>2010-06-20T10:47:47Z</time>
<desc>lat.=56.060711, lon.=26.460032, Alt.=122.436584m. Speed=16.884001m/h.</desc>
<speed>4.690000</speed>
</trkpt>
<trkpt lat="56.060749" lon="26.460054">
<ele>122.262756</ele>
<time>2010-06-20T10:47:48Z</time>
<desc>lat.=56.060749, lon.=26.460054, Alt.=122.262756m. Speed=17.208000m/h.</desc>
<speed>4.780000</speed>
</trkpt>
<trkpt lat="56.060791" lon="26.460073">
<ele>122.141663</ele>
<time>2010-06-20T10:47:49Z</time>
<desc>lat.=56.060791, lon.=26.460073, Alt.=122.141663m. Speed=17.676001m/h.</desc>
<speed>4.910000</speed>
</trkpt>
<trkpt lat="56.060833" lon="26.460100">
<ele>122.297913</ele>
<time>2010-06-20T10:47:50Z</time>
<desc>lat.=56.060833, lon.=26.460100, Alt.=122.297913m. Speed=17.459999m/h.</desc>
<speed>4.850000</speed>
</trkpt>
<trkpt lat="56.060871" lon="26.460131">
<ele>122.557678</ele>
<time>2010-06-20T10:47:51Z</time>
<desc>lat.=56.060871, lon.=26.460131, Alt.=122.557678m. Speed=18.072001m/h.</desc>
<speed>5.020000</speed>
</trkpt>
<trkpt lat="56.060913" lon="26.460161">
<ele>122.454163</ele>
<time>2010-06-20T10:47:52Z</time>
<desc>lat.=56.060913, lon.=26.460161, Alt.=122.454163m. Speed=18.108000m/h.</desc>
<speed>5.030000</speed>
</trkpt>
<trkpt lat="56.060959" lon="26.460188">
<ele>121.516663</ele>
<time>2010-06-20T10:47:53Z</time>
<desc>lat.=56.060959, lon.=26.460188, Alt.=121.516663m. Speed=18.216000m/h.</desc>
<speed>5.060000</speed>
</trkpt>
<trkpt lat="56.061001" lon="26.460217">
<ele>122.196350</ele>
<time>2010-06-20T10:47:54Z</time>
<desc>lat.=56.061001, lon.=26.460217, Alt.=122.196350m. Speed=18.252001m/h.</desc>
<speed>5.070000</speed>
</trkpt>
<trkpt lat="56.061043" lon="26.460243">
<ele>122.542053</ele>
<time>2010-06-20T10:47:55Z</time>
<desc>lat.=56.061043, lon.=26.460243, Alt.=122.542053m. Speed=17.856001m/h.</desc>
<speed>4.960000</speed>
</trkpt>
<trkpt lat="56.061085" lon="26.460268">
<ele>122.883850</ele>
<time>2010-06-20T10:47:56Z</time>
<desc>lat.=56.061085, lon.=26.460268, Alt.=122.883850m. Speed=16.488001m/h.</desc>
<speed>4.580000</speed>
</trkpt>
<trkpt lat="56.061123" lon="26.460287">
<ele>123.026428</ele>
<time>2010-06-20T10:47:57Z</time>
<desc>lat.=56.061123, lon.=26.460287, Alt.=123.026428m. Speed=16.632000m/h.</desc>
<speed>4.620000</speed>
</trkpt>
<trkpt lat="56.061161" lon="26.460304">
<ele>123.237366</ele>
<time>2010-06-20T10:47:58Z</time>
<desc>lat.=56.061161, lon.=26.460304, Alt.=123.237366m. Speed=15.732000m/h.</desc>
<speed>4.370000</speed>
</trkpt>
<trkpt lat="56.061195" lon="26.460323">
<ele>123.045959</ele>
<time>2010-06-20T10:47:59Z</time>
<desc>lat.=56.061195, lon.=26.460323, Alt.=123.045959m. Speed=15.624000m/h.</desc>
<speed>4.340000</speed>
</trkpt>
<trkpt lat="56.061237" lon="26.460342">
<ele>123.202209</ele>
<time>2010-06-20T10:48:00Z</time>
<desc>lat.=56.061237, lon.=26.460342, Alt.=123.202209m. Speed=16.236000m/h.</desc>
<speed>4.510000</speed>
</trkpt>
<trkpt lat="56.061275" lon="26.460361">
<ele>123.327209</ele>
<time>2010-06-20T10:48:01Z</time>
<desc>lat.=56.061275, lon.=26.460361, Alt.=123.327209m. Speed=16.452000m/h.</desc>
<speed>4.570000</speed>
</trkpt>
<trkpt lat="56.061314" lon="26.460390">
<ele>123.483459</ele>
<time>2010-06-20T10:48:02Z</time>
<desc>lat.=56.061314, lon.=26.460390, Alt.=123.483459m. Speed=16.524000m/h.</desc>
<speed>4.590000</speed>
</trkpt>
<trkpt lat="56.061352" lon="26.460415">
<ele>123.465881</ele>
<time>2010-06-20T10:48:03Z</time>
<desc>lat.=56.061352, lon.=26.460415, Alt.=123.465881m. Speed=16.524000m/h.</desc>
<speed>4.590000</speed>
</trkpt>
<trkpt lat="56.061394" lon="26.460438">
<ele>123.502991</ele>
<time>2010-06-20T10:48:04Z</time>
<desc>lat.=56.061394, lon.=26.460438, Alt.=123.502991m. Speed=16.667999m/h.</desc>
<speed>4.630000</speed>
</trkpt>
<trkpt lat="56.061436" lon="26.460461">
<ele>123.344788</ele>
<time>2010-06-20T10:48:05Z</time>
<desc>lat.=56.061436, lon.=26.460461, Alt.=123.344788m. Speed=17.712000m/h.</desc>
<speed>4.920000</speed>
</trkpt>
<trkpt lat="56.061474" lon="26.460485">
<ele>122.456116</ele>
<time>2010-06-20T10:48:06Z</time>
<desc>lat.=56.061474, lon.=26.460485, Alt.=122.456116m. Speed=17.459999m/h.</desc>
<speed>4.850000</speed>
</trkpt>
<trkpt lat="56.061516" lon="26.460512">
<ele>123.129944</ele>
<time>2010-06-20T10:48:07Z</time>
<desc>lat.=56.061516, lon.=26.460512, Alt.=123.129944m. Speed=17.172001m/h.</desc>
<speed>4.770000</speed>
</trkpt>
<trkpt lat="56.061554" lon="26.460537">
<ele>122.547913</ele>
<time>2010-06-20T10:48:08Z</time>
<desc>lat.=56.061554, lon.=26.460537, Alt.=122.547913m. Speed=16.091999m/h.</desc>
<speed>4.470000</speed>
</trkpt>
<trkpt lat="56.061592" lon="26.460560">
<ele>122.268616</ele>
<time>2010-06-20T10:48:09Z</time>
<desc>lat.=56.061592, lon.=26.460560, Alt.=122.268616m. Speed=16.632000m/h.</desc>
<speed>4.620000</speed>
</trkpt>
<trkpt lat="56.061634" lon="26.460579">
<ele>122.223694</ele>
<time>2010-06-20T10:48:10Z</time>
<desc>lat.=56.061634, lon.=26.460579, Alt.=122.223694m. Speed=18.000000m/h.</desc>
<speed>5.000000</speed>
</trkpt>
<trkpt lat="56.061672" lon="26.460604">
<ele>121.999084</ele>
<time>2010-06-20T10:48:11Z</time>
<desc>lat.=56.061672, lon.=26.460604, Alt.=121.999084m. Speed=16.955999m/h.</desc>
<speed>4.710000</speed>
</trkpt>
<trkpt lat="56.061718" lon="26.460623">
<ele>122.522522</ele>
<time>2010-06-20T10:48:12Z</time>
<desc>lat.=56.061718, lon.=26.460623, Alt.=122.522522m. Speed=18.396000m/h.</desc>
<speed>5.110000</speed>
</trkpt>
<trkpt lat="56.061764" lon="26.460649">
<ele>122.711975</ele>
<time>2010-06-20T10:48:13Z</time>
<desc>lat.=56.061764, lon.=26.460649, Alt.=122.711975m. Speed=19.152000m/h.</desc>
<speed>5.320000</speed>
</trkpt>
<trkpt lat="56.061810" lon="26.460678">
<ele>122.198303</ele>
<time>2010-06-20T10:48:14Z</time>
<desc>lat.=56.061810, lon.=26.460678, Alt.=122.198303m. Speed=19.728001m/h.</desc>
<speed>5.480000</speed>
</trkpt>
<trkpt lat="56.061852" lon="26.460707">
<ele>122.788147</ele>
<time>2010-06-20T10:48:15Z</time>
<desc>lat.=56.061852, lon.=26.460707, Alt.=122.788147m. Speed=18.504000m/h.</desc>
<speed>5.140000</speed>
</trkpt>
<trkpt lat="56.061893" lon="26.460732">
<ele>122.762756</ele>
<time>2010-06-20T10:48:16Z</time>
<desc>lat.=56.061893, lon.=26.460732, Alt.=122.762756m. Speed=17.604000m/h.</desc>
<speed>4.890000</speed>
</trkpt>
<trkpt lat="56.061935" lon="26.460749">
<ele>122.717834</ele>
<time>2010-06-20T10:48:17Z</time>
<desc>lat.=56.061935, lon.=26.460749, Alt.=122.717834m. Speed=17.280001m/h.</desc>
<speed>4.800000</speed>
</trkpt>
<trkpt lat="56.061977" lon="26.460768">
<ele>122.883850</ele>
<time>2010-06-20T10:48:18Z</time>
<desc>lat.=56.061977, lon.=26.460768, Alt.=122.883850m. Speed=18.288000m/h.</desc>
<speed>5.080000</speed>
</trkpt>
<trkpt lat="56.062023" lon="26.460791">
<ele>122.717834</ele>
<time>2010-06-20T10:48:19Z</time>
<desc>lat.=56.062023, lon.=26.460791, Alt.=122.717834m. Speed=19.332001m/h.</desc>
<speed>5.370000</speed>
</trkpt>
<trkpt lat="56.062065" lon="26.460815">
<ele>122.643616</ele>
<time>2010-06-20T10:48:20Z</time>
<desc>lat.=56.062065, lon.=26.460815, Alt.=122.643616m. Speed=18.504000m/h.</desc>
<speed>5.140000</speed>
</trkpt>
<trkpt lat="56.062107" lon="26.460840">
<ele>122.153381</ele>
<time>2010-06-20T10:48:21Z</time>
<desc>lat.=56.062107, lon.=26.460840, Alt.=122.153381m. Speed=18.143999m/h.</desc>
<speed>5.040000</speed>
</trkpt>
<trkpt lat="56.062153" lon="26.460863">
<ele>121.504944</ele>
<time>2010-06-20T10:48:22Z</time>
<desc>lat.=56.062153, lon.=26.460863, Alt.=121.504944m. Speed=17.532000m/h.</desc>
<speed>4.870000</speed>
</trkpt>
<trkpt lat="56.062191" lon="26.460888">
<ele>121.452209</ele>
<time>2010-06-20T10:48:23Z</time>
<desc>lat.=56.062191, lon.=26.460888, Alt.=121.452209m. Speed=17.100000m/h.</desc>
<speed>4.750000</speed>
</trkpt>
<trkpt lat="56.062233" lon="26.460913">
<ele>121.383850</ele>
<time>2010-06-20T10:48:24Z</time>
<desc>lat.=56.062233, lon.=26.460913, Alt.=121.383850m. Speed=16.704000m/h.</desc>
<speed>4.640000</speed>
</trkpt>
<trkpt lat="56.062271" lon="26.460938">
<ele>121.329163</ele>
<time>2010-06-20T10:48:25Z</time>
<desc>lat.=56.062271, lon.=26.460938, Alt.=121.329163m. Speed=16.020000m/h.</desc>
<speed>4.450000</speed>
</trkpt>
<trkpt lat="56.062309" lon="26.460964">
<ele>121.352600</ele>
<time>2010-06-20T10:48:26Z</time>
<desc>lat.=56.062309, lon.=26.460964, Alt.=121.352600m. Speed=15.444000m/h.</desc>
<speed>4.290000</speed>
</trkpt>
<trkpt lat="56.062344" lon="26.460985">
<ele>121.506897</ele>
<time>2010-06-20T10:48:27Z</time>
<desc>lat.=56.062344, lon.=26.460985, Alt.=121.506897m. Speed=14.328000m/h.</desc>
<speed>3.980000</speed>
</trkpt>
<trkpt lat="56.062378" lon="26.461008">
<ele>121.721741</ele>
<time>2010-06-20T10:48:28Z</time>
<desc>lat.=56.062378, lon.=26.461008, Alt.=121.721741m. Speed=14.832000m/h.</desc>
<speed>4.120000</speed>
</trkpt>
<trkpt lat="56.062408" lon="26.461033">
<ele>121.567444</ele>
<time>2010-06-20T10:48:29Z</time>
<desc>lat.=56.062408, lon.=26.461033, Alt.=121.567444m. Speed=14.760000m/h.</desc>
<speed>4.100000</speed>
</trkpt>
<trkpt lat="56.062443" lon="26.461052">
<ele>121.338928</ele>
<time>2010-06-20T10:48:30Z</time>
<desc>lat.=56.062443, lon.=26.461052, Alt.=121.338928m. Speed=15.480000m/h.</desc>
<speed>4.300000</speed>
</trkpt>
<trkpt lat="56.062481" lon="26.461075">
<ele>121.227600</ele>
<time>2010-06-20T10:48:31Z</time>
<desc>lat.=56.062481, lon.=26.461075, Alt.=121.227600m. Speed=15.768000m/h.</desc>
<speed>4.380000</speed>
</trkpt>
<trkpt lat="56.062519" lon="26.461098">
<ele>120.967834</ele>
<time>2010-06-20T10:48:32Z</time>
<desc>lat.=56.062519, lon.=26.461098, Alt.=120.967834m. Speed=14.220000m/h.</desc>
<speed>3.950000</speed>
</trkpt>
<trkpt lat="56.062550" lon="26.461121">
<ele>120.797913</ele>
<time>2010-06-20T10:48:33Z</time>
<desc>lat.=56.062550, lon.=26.461121, Alt.=120.797913m. Speed=13.572000m/h.</desc>
<speed>3.770000</speed>
</trkpt>
<trkpt lat="56.062580" lon="26.461142">
<ele>120.626038</ele>
<time>2010-06-20T10:48:34Z</time>
<desc>lat.=56.062580, lon.=26.461142, Alt.=120.626038m. Speed=13.104000m/h.</desc>
<speed>3.640000</speed>
</trkpt>
<trkpt lat="56.062611" lon="26.461155">
<ele>120.420959</ele>
<time>2010-06-20T10:48:35Z</time>
<desc>lat.=56.062611, lon.=26.461155, Alt.=120.420959m. Speed=12.708000m/h.</desc>
<speed>3.530000</speed>
</trkpt>
<trkpt lat="56.062645" lon="26.461168">
<ele>120.370178</ele>
<time>2010-06-20T10:48:36Z</time>
<desc>lat.=56.062645, lon.=26.461168, Alt.=120.370178m. Speed=13.536000m/h.</desc>
<speed>3.760000</speed>
</trkpt>
<trkpt lat="56.062675" lon="26.461182">
<ele>120.237366</ele>
<time>2010-06-20T10:48:37Z</time>
<desc>lat.=56.062675, lon.=26.461182, Alt.=120.237366m. Speed=13.896000m/h.</desc>
<speed>3.860000</speed>
</trkpt>
<trkpt lat="56.062706" lon="26.461195">
<ele>120.221741</ele>
<time>2010-06-20T10:48:38Z</time>
<desc>lat.=56.062706, lon.=26.461195, Alt.=120.221741m. Speed=12.600000m/h.</desc>
<speed>3.500000</speed>
</trkpt>
<trkpt lat="56.062744" lon="26.461216">
<ele>120.377991</ele>
<time>2010-06-20T10:48:39Z</time>
<desc>lat.=56.062744, lon.=26.461216, Alt.=120.377991m. Speed=12.960000m/h.</desc>
<speed>3.600000</speed>
</trkpt>
<trkpt lat="56.062771" lon="26.461237">
<ele>120.602600</ele>
<time>2010-06-20T10:48:40Z</time>
<desc>lat.=56.062771, lon.=26.461237, Alt.=120.602600m. Speed=12.348000m/h.</desc>
<speed>3.430000</speed>
</trkpt>
<trkpt lat="56.062801" lon="26.461258">
<ele>120.385803</ele>
<time>2010-06-20T10:48:41Z</time>
<desc>lat.=56.062801, lon.=26.461258, Alt.=120.385803m. Speed=12.312000m/h.</desc>
<speed>3.420000</speed>
</trkpt>
<trkpt lat="56.062832" lon="26.461273">
<ele>119.922913</ele>
<time>2010-06-20T10:48:42Z</time>
<desc>lat.=56.062832, lon.=26.461273, Alt.=119.922913m. Speed=13.140000m/h.</desc>
<speed>3.650000</speed>
</trkpt>
<trkpt lat="56.062866" lon="26.461296">
<ele>120.053772</ele>
<time>2010-06-20T10:48:43Z</time>
<desc>lat.=56.062866, lon.=26.461296, Alt.=120.053772m. Speed=13.608000m/h.</desc>
<speed>3.780000</speed>
</trkpt>
<trkpt lat="56.062897" lon="26.461321">
<ele>119.760803</ele>
<time>2010-06-20T10:48:44Z</time>
<desc>lat.=56.062897, lon.=26.461321, Alt.=119.760803m. Speed=12.924000m/h.</desc>
<speed>3.590000</speed>
</trkpt>
<trkpt lat="56.062927" lon="26.461344">
<ele>119.522522</ele>
<time>2010-06-20T10:48:45Z</time>
<desc>lat.=56.062927, lon.=26.461344, Alt.=119.522522m. Speed=12.996000m/h.</desc>
<speed>3.610000</speed>
</trkpt>
<trkpt lat="56.062954" lon="26.461359">
<ele>119.227600</ele>
<time>2010-06-20T10:48:46Z</time>
<desc>lat.=56.062954, lon.=26.461359, Alt.=119.227600m. Speed=12.204000m/h.</desc>
<speed>3.390000</speed>
</trkpt>
<trkpt lat="56.062981" lon="26.461369">
<ele>119.204163</ele>
<time>2010-06-20T10:48:47Z</time>
<desc>lat.=56.062981, lon.=26.461369, Alt.=119.204163m. Speed=13.068000m/h.</desc>
<speed>3.630000</speed>
</trkpt>
<trkpt lat="56.063015" lon="26.461388">
<ele>119.192444</ele>
<time>2010-06-20T10:48:48Z</time>
<desc>lat.=56.063015, lon.=26.461388, Alt.=119.192444m. Speed=13.680000m/h.</desc>
<speed>3.800000</speed>
</trkpt>
<trkpt lat="56.063049" lon="26.461411">
<ele>119.127991</ele>
<time>2010-06-20T10:48:49Z</time>
<desc>lat.=56.063049, lon.=26.461411, Alt.=119.127991m. Speed=13.428000m/h.</desc>
<speed>3.730000</speed>
</trkpt>
<trkpt lat="56.063080" lon="26.461426">
<ele>118.989319</ele>
<time>2010-06-20T10:48:50Z</time>
<desc>lat.=56.063080, lon.=26.461426, Alt.=118.989319m. Speed=12.816000m/h.</desc>
<speed>3.560000</speed>
</trkpt>
<trkpt lat="56.063118" lon="26.461447">
<ele>118.749084</ele>
<time>2010-06-20T10:48:51Z</time>
<desc>lat.=56.063118, lon.=26.461447, Alt.=118.749084m. Speed=13.932000m/h.</desc>
<speed>3.870000</speed>
</trkpt>
<trkpt lat="56.063152" lon="26.461468">
<ele>118.692444</ele>
<time>2010-06-20T10:48:52Z</time>
<desc>lat.=56.063152, lon.=26.461468, Alt.=118.692444m. Speed=14.796000m/h.</desc>
<speed>4.110000</speed>
</trkpt>
<trkpt lat="56.063187" lon="26.461487">
<ele>118.319397</ele>
<time>2010-06-20T10:48:53Z</time>
<desc>lat.=56.063187, lon.=26.461487, Alt.=118.319397m. Speed=14.292000m/h.</desc>
<speed>3.970000</speed>
</trkpt>
<trkpt lat="56.063221" lon="26.461504">
<ele>117.854553</ele>
<time>2010-06-20T10:48:54Z</time>
<desc>lat.=56.063221, lon.=26.461504, Alt.=117.854553m. Speed=14.868000m/h.</desc>
<speed>4.130000</speed>
</trkpt>
<trkpt lat="56.063255" lon="26.461521">
<ele>117.639709</ele>
<time>2010-06-20T10:48:55Z</time>
<desc>lat.=56.063255, lon.=26.461521, Alt.=117.639709m. Speed=14.652000m/h.</desc>
<speed>4.070000</speed>
</trkpt>
<trkpt lat="56.063293" lon="26.461548">
<ele>117.573303</ele>
<time>2010-06-20T10:48:56Z</time>
<desc>lat.=56.063293, lon.=26.461548, Alt.=117.573303m. Speed=15.264000m/h.</desc>
<speed>4.240000</speed>
</trkpt>
<trkpt lat="56.063332" lon="26.461578">
<ele>117.395569</ele>
<time>2010-06-20T10:48:57Z</time>
<desc>lat.=56.063332, lon.=26.461578, Alt.=117.395569m. Speed=15.552000m/h.</desc>
<speed>4.320000</speed>
</trkpt>
<trkpt lat="56.063370" lon="26.461603">
<ele>117.561584</ele>
<time>2010-06-20T10:48:58Z</time>
<desc>lat.=56.063370, lon.=26.461603, Alt.=117.561584m. Speed=15.552000m/h.</desc>
<speed>4.320000</speed>
</trkpt>
<trkpt lat="56.063408" lon="26.461622">
<ele>117.266663</ele>
<time>2010-06-20T10:48:59Z</time>
<desc>lat.=56.063408, lon.=26.461622, Alt.=117.266663m. Speed=15.336000m/h.</desc>
<speed>4.260000</speed>
</trkpt>
<trkpt lat="56.063446" lon="26.461639">
<ele>117.317444</ele>
<time>2010-06-20T10:49:00Z</time>
<desc>lat.=56.063446, lon.=26.461639, Alt.=117.317444m. Speed=14.472000m/h.</desc>
<speed>4.020000</speed>
</trkpt>
<trkpt lat="56.063480" lon="26.461666">
<ele>116.286194</ele>
<time>2010-06-20T10:49:01Z</time>
<desc>lat.=56.063480, lon.=26.461666, Alt.=116.286194m. Speed=16.308001m/h.</desc>
<speed>4.530000</speed>
</trkpt>
<trkpt lat="56.063519" lon="26.461683">
<ele>115.971741</ele>
<time>2010-06-20T10:49:02Z</time>
<desc>lat.=56.063519, lon.=26.461683, Alt.=115.971741m. Speed=15.336000m/h.</desc>
<speed>4.260000</speed>
</trkpt>
<trkpt lat="56.063549" lon="26.461702">
<ele>115.508850</ele>
<time>2010-06-20T10:49:03Z</time>
<desc>lat.=56.063549, lon.=26.461702, Alt.=115.508850m. Speed=14.148000m/h.</desc>
<speed>3.930000</speed>
</trkpt>
<trkpt lat="56.063580" lon="26.461729">
<ele>115.352600</ele>
<time>2010-06-20T10:49:04Z</time>
<desc>lat.=56.063580, lon.=26.461729, Alt.=115.352600m. Speed=13.464000m/h.</desc>
<speed>3.740000</speed>
</trkpt>
<trkpt lat="56.063610" lon="26.461750">
<ele>115.368225</ele>
<time>2010-06-20T10:49:05Z</time>
<desc>lat.=56.063610, lon.=26.461750, Alt.=115.368225m. Speed=13.500000m/h.</desc>
<speed>3.750000</speed>
</trkpt>
<trkpt lat="56.063641" lon="26.461773">
<ele>115.358459</ele>
<time>2010-06-20T10:49:06Z</time>
<desc>lat.=56.063641, lon.=26.461773, Alt.=115.358459m. Speed=13.068000m/h.</desc>
<speed>3.630000</speed>
</trkpt>
<trkpt lat="56.063667" lon="26.461788">
<ele>115.137756</ele>
<time>2010-06-20T10:49:07Z</time>
<desc>lat.=56.063667, lon.=26.461788, Alt.=115.137756m. Speed=12.132000m/h.</desc>
<speed>3.370000</speed>
</trkpt>
<trkpt lat="56.063694" lon="26.461803">
<ele>114.969788</ele>
<time>2010-06-20T10:49:08Z</time>
<desc>lat.=56.063694, lon.=26.461803, Alt.=114.969788m. Speed=11.844000m/h.</desc>
<speed>3.290000</speed>
</trkpt>
<trkpt lat="56.063721" lon="26.461826">
<ele>114.790100</ele>
<time>2010-06-20T10:49:09Z</time>
<desc>lat.=56.063721, lon.=26.461826, Alt.=114.790100m. Speed=10.836000m/h.</desc>
<speed>3.010000</speed>
</trkpt>
<trkpt lat="56.063744" lon="26.461843">
<ele>114.245178</ele>
<time>2010-06-20T10:49:10Z</time>
<desc>lat.=56.063744, lon.=26.461843, Alt.=114.245178m. Speed=11.556000m/h.</desc>
<speed>3.210000</speed>
</trkpt>
<trkpt lat="56.063774" lon="26.461847">
<ele>113.557678</ele>
<time>2010-06-20T10:49:11Z</time>
<desc>lat.=56.063774, lon.=26.461847, Alt.=113.557678m. Speed=11.844000m/h.</desc>
<speed>3.290000</speed>
</trkpt>
<trkpt lat="56.063801" lon="26.461857">
<ele>113.514709</ele>
<time>2010-06-20T10:49:12Z</time>
<desc>lat.=56.063801, lon.=26.461857, Alt.=113.514709m. Speed=12.420000m/h.</desc>
<speed>3.450000</speed>
</trkpt>
<trkpt lat="56.063835" lon="26.461863">
<ele>114.069397</ele>
<time>2010-06-20T10:49:13Z</time>
<desc>lat.=56.063835, lon.=26.461863, Alt.=114.069397m. Speed=12.204000m/h.</desc>
<speed>3.390000</speed>
</trkpt>
<trkpt lat="56.063862" lon="26.461880">
<ele>114.290100</ele>
<time>2010-06-20T10:49:14Z</time>
<desc>lat.=56.063862, lon.=26.461880, Alt.=114.290100m. Speed=12.744000m/h.</desc>
<speed>3.540000</speed>
</trkpt>
<trkpt lat="56.063896" lon="26.461895">
<ele>114.069397</ele>
<time>2010-06-20T10:49:15Z</time>
<desc>lat.=56.063896, lon.=26.461895, Alt.=114.069397m. Speed=14.652000m/h.</desc>
<speed>4.070000</speed>
</trkpt>
<trkpt lat="56.063931" lon="26.461922">
<ele>115.932678</ele>
<time>2010-06-20T10:49:16Z</time>
<desc>lat.=56.063931, lon.=26.461922, Alt.=115.932678m. Speed=13.212000m/h.</desc>
<speed>3.670000</speed>
</trkpt>
<trkpt lat="56.063961" lon="26.461946">
<ele>115.836975</ele>
<time>2010-06-20T10:49:17Z</time>
<desc>lat.=56.063961, lon.=26.461946, Alt.=115.836975m. Speed=15.048000m/h.</desc>
<speed>4.180000</speed>
</trkpt>
<trkpt lat="56.063992" lon="26.461960">
<ele>116.530334</ele>
<time>2010-06-20T10:49:18Z</time>
<desc>lat.=56.063992, lon.=26.461960, Alt.=116.530334m. Speed=12.240000m/h.</desc>
<speed>3.400000</speed>
</trkpt>
<trkpt lat="56.064026" lon="26.461981">
<ele>115.670959</ele>
<time>2010-06-20T10:49:19Z</time>
<desc>lat.=56.064026, lon.=26.461981, Alt.=115.670959m. Speed=13.752000m/h.</desc>
<speed>3.820000</speed>
</trkpt>
<trkpt lat="56.064056" lon="26.461992">
<ele>114.030334</ele>
<time>2010-06-20T10:49:20Z</time>
<desc>lat.=56.064056, lon.=26.461992, Alt.=114.030334m. Speed=13.464000m/h.</desc>
<speed>3.740000</speed>
</trkpt>
<trkpt lat="56.064091" lon="26.462008">
<ele>113.426819</ele>
<time>2010-06-20T10:49:21Z</time>
<desc>lat.=56.064091, lon.=26.462008, Alt.=113.426819m. Speed=13.068000m/h.</desc>
<speed>3.630000</speed>
</trkpt>
<trkpt lat="56.064129" lon="26.462027">
<ele>114.516663</ele>
<time>2010-06-20T10:49:22Z</time>
<desc>lat.=56.064129, lon.=26.462027, Alt.=114.516663m. Speed=12.996000m/h.</desc>
<speed>3.610000</speed>
</trkpt>
<trkpt lat="56.064156" lon="26.462048">
<ele>114.206116</ele>
<time>2010-06-20T10:49:23Z</time>
<desc>lat.=56.064156, lon.=26.462048, Alt.=114.206116m. Speed=13.212000m/h.</desc>
<speed>3.670000</speed>
</trkpt>
<trkpt lat="56.064190" lon="26.462063">
<ele>114.885803</ele>
<time>2010-06-20T10:49:24Z</time>
<desc>lat.=56.064190, lon.=26.462063, Alt.=114.885803m. Speed=12.492000m/h.</desc>
<speed>3.470000</speed>
</trkpt>
<trkpt lat="56.064220" lon="26.462078">
<ele>114.469788</ele>
<time>2010-06-20T10:49:25Z</time>
<desc>lat.=56.064220, lon.=26.462078, Alt.=114.469788m. Speed=14.436000m/h.</desc>
<speed>4.010000</speed>
</trkpt>
<trkpt lat="56.064255" lon="26.462105">
<ele>114.637756</ele>
<time>2010-06-20T10:49:26Z</time>
<desc>lat.=56.064255, lon.=26.462105, Alt.=114.637756m. Speed=14.184000m/h.</desc>
<speed>3.940000</speed>
</trkpt>
<trkpt lat="56.064289" lon="26.462132">
<ele>114.475647</ele>
<time>2010-06-20T10:49:27Z</time>
<desc>lat.=56.064289, lon.=26.462132, Alt.=114.475647m. Speed=12.960000m/h.</desc>
<speed>3.600000</speed>
</trkpt>
<trkpt lat="56.064320" lon="26.462145">
<ele>114.786194</ele>
<time>2010-06-20T10:49:28Z</time>
<desc>lat.=56.064320, lon.=26.462145, Alt.=114.786194m. Speed=12.312000m/h.</desc>
<speed>3.420000</speed>
</trkpt>
<trkpt lat="56.064354" lon="26.462162">
<ele>114.340881</ele>
<time>2010-06-20T10:49:29Z</time>
<desc>lat.=56.064354, lon.=26.462162, Alt.=114.340881m. Speed=15.912000m/h.</desc>
<speed>4.420000</speed>
</trkpt>
<trkpt lat="56.064392" lon="26.462183">
<ele>114.770569</ele>
<time>2010-06-20T10:49:30Z</time>
<desc>lat.=56.064392, lon.=26.462183, Alt.=114.770569m. Speed=15.408000m/h.</desc>
<speed>4.280000</speed>
</trkpt>
<trkpt lat="56.064430" lon="26.462204">
<ele>115.055725</ele>
<time>2010-06-20T10:49:31Z</time>
<desc>lat.=56.064430, lon.=26.462204, Alt.=115.055725m. Speed=15.912000m/h.</desc>
<speed>4.420000</speed>
</trkpt>
<trkpt lat="56.064472" lon="26.462231">
<ele>115.442444</ele>
<time>2010-06-20T10:49:32Z</time>
<desc>lat.=56.064472, lon.=26.462231, Alt.=115.442444m. Speed=17.280001m/h.</desc>
<speed>4.800000</speed>
</trkpt>
<trkpt lat="56.064518" lon="26.462259">
<ele>115.817444</ele>
<time>2010-06-20T10:49:33Z</time>
<desc>lat.=56.064518, lon.=26.462259, Alt.=115.817444m. Speed=16.632000m/h.</desc>
<speed>4.620000</speed>
</trkpt>
<trkpt lat="56.064564" lon="26.462288">
<ele>115.946350</ele>
<time>2010-06-20T10:49:34Z</time>
<desc>lat.=56.064564, lon.=26.462288, Alt.=115.946350m. Speed=17.280001m/h.</desc>
<speed>4.800000</speed>
</trkpt>
<trkpt lat="56.064606" lon="26.462309">
<ele>116.331116</ele>
<time>2010-06-20T10:49:35Z</time>
<desc>lat.=56.064606, lon.=26.462309, Alt.=116.331116m. Speed=16.775999m/h.</desc>
<speed>4.660000</speed>
</trkpt>
<trkpt lat="56.064651" lon="26.462330">
<ele>116.194397</ele>
<time>2010-06-20T10:49:36Z</time>
<desc>lat.=56.064651, lon.=26.462330, Alt.=116.194397m. Speed=15.588000m/h.</desc>
<speed>4.330000</speed>
</trkpt>
<trkpt lat="56.064693" lon="26.462355">
<ele>116.141663</ele>
<time>2010-06-20T10:49:37Z</time>
<desc>lat.=56.064693, lon.=26.462355, Alt.=116.141663m. Speed=15.876000m/h.</desc>
<speed>4.410000</speed>
</trkpt>
<trkpt lat="56.064732" lon="26.462378">
<ele>116.331116</ele>
<time>2010-06-20T10:49:38Z</time>
<desc>lat.=56.064732, lon.=26.462378, Alt.=116.331116m. Speed=14.616000m/h.</desc>
<speed>4.060000</speed>
</trkpt>
<trkpt lat="56.064762" lon="26.462397">
<ele>116.520569</ele>
<time>2010-06-20T10:49:39Z</time>
<desc>lat.=56.064762, lon.=26.462397, Alt.=116.520569m. Speed=13.896000m/h.</desc>
<speed>3.860000</speed>
</trkpt>
<trkpt lat="56.064804" lon="26.462416">
<ele>116.659241</ele>
<time>2010-06-20T10:49:40Z</time>
<desc>lat.=56.064804, lon.=26.462416, Alt.=116.659241m. Speed=16.559999m/h.</desc>
<speed>4.600000</speed>
</trkpt>
<trkpt lat="56.064838" lon="26.462444">
<ele>116.540100</ele>
<time>2010-06-20T10:49:41Z</time>
<desc>lat.=56.064838, lon.=26.462444, Alt.=116.540100m. Speed=14.580000m/h.</desc>
<speed>4.050000</speed>
</trkpt>
<trkpt lat="56.064877" lon="26.462469">
<ele>116.387756</ele>
<time>2010-06-20T10:49:42Z</time>
<desc>lat.=56.064877, lon.=26.462469, Alt.=116.387756m. Speed=14.400000m/h.</desc>
<speed>4.000000</speed>
</trkpt>
<trkpt lat="56.064907" lon="26.462492">
<ele>115.922913</ele>
<time>2010-06-20T10:49:43Z</time>
<desc>lat.=56.064907, lon.=26.462492, Alt.=115.922913m. Speed=14.076000m/h.</desc>
<speed>3.910000</speed>
</trkpt>
<trkpt lat="56.064941" lon="26.462519">
<ele>115.868225</ele>
<time>2010-06-20T10:49:44Z</time>
<desc>lat.=56.064941, lon.=26.462519, Alt.=115.868225m. Speed=13.500000m/h.</desc>
<speed>3.750000</speed>
</trkpt>
<trkpt lat="56.064972" lon="26.462540">
<ele>115.690491</ele>
<time>2010-06-20T10:49:45Z</time>
<desc>lat.=56.064972, lon.=26.462540, Alt.=115.690491m. Speed=13.140000m/h.</desc>
<speed>3.650000</speed>
</trkpt>
<trkpt lat="56.065014" lon="26.462563">
<ele>115.877991</ele>
<time>2010-06-20T10:49:46Z</time>
<desc>lat.=56.065014, lon.=26.462563, Alt.=115.877991m. Speed=17.459999m/h.</desc>
<speed>4.850000</speed>
</trkpt>
<trkpt lat="56.065056" lon="26.462582">
<ele>116.061584</ele>
<time>2010-06-20T10:49:47Z</time>
<desc>lat.=56.065056, lon.=26.462582, Alt.=116.061584m. Speed=16.271999m/h.</desc>
<speed>4.520000</speed>
</trkpt>
<trkpt lat="56.065094" lon="26.462595">
<ele>115.979553</ele>
<time>2010-06-20T10:49:48Z</time>
<desc>lat.=56.065094, lon.=26.462595, Alt.=115.979553m. Speed=14.508000m/h.</desc>
<speed>4.030000</speed>
</trkpt>
<trkpt lat="56.065128" lon="26.462605">
<ele>116.010803</ele>
<time>2010-06-20T10:49:49Z</time>
<desc>lat.=56.065128, lon.=26.462605, Alt.=116.010803m. Speed=13.572000m/h.</desc>
<speed>3.770000</speed>
</trkpt>
<trkpt lat="56.065163" lon="26.462612">
<ele>115.719788</ele>
<time>2010-06-20T10:49:50Z</time>
<desc>lat.=56.065163, lon.=26.462612, Alt.=115.719788m. Speed=12.924000m/h.</desc>
<speed>3.590000</speed>
</trkpt>
<trkpt lat="56.065197" lon="26.462627">
<ele>115.497131</ele>
<time>2010-06-20T10:49:51Z</time>
<desc>lat.=56.065197, lon.=26.462627, Alt.=115.497131m. Speed=13.824000m/h.</desc>
<speed>3.840000</speed>
</trkpt>
<trkpt lat="56.065235" lon="26.462641">
<ele>115.372131</ele>
<time>2010-06-20T10:49:52Z</time>
<desc>lat.=56.065235, lon.=26.462641, Alt.=115.372131m. Speed=14.256000m/h.</desc>
<speed>3.960000</speed>
</trkpt>
<trkpt lat="56.065266" lon="26.462652">
<ele>115.405334</ele>
<time>2010-06-20T10:49:53Z</time>
<desc>lat.=56.065266, lon.=26.462652, Alt.=115.405334m. Speed=13.284000m/h.</desc>
<speed>3.690000</speed>
</trkpt>
<trkpt lat="56.065296" lon="26.462673">
<ele>115.424866</ele>
<time>2010-06-20T10:49:54Z</time>
<desc>lat.=56.065296, lon.=26.462673, Alt.=115.424866m. Speed=11.484000m/h.</desc>
<speed>3.190000</speed>
</trkpt>
<trkpt lat="56.065323" lon="26.462687">
<ele>115.237366</ele>
<time>2010-06-20T10:49:55Z</time>
<desc>lat.=56.065323, lon.=26.462687, Alt.=115.237366m. Speed=11.520000m/h.</desc>
<speed>3.200000</speed>
</trkpt>
<trkpt lat="56.065353" lon="26.462692">
<ele>115.294006</ele>
<time>2010-06-20T10:49:56Z</time>
<desc>lat.=56.065353, lon.=26.462692, Alt.=115.294006m. Speed=11.268000m/h.</desc>
<speed>3.130000</speed>
</trkpt>
<trkpt lat="56.065388" lon="26.462694">
<ele>115.420959</ele>
<time>2010-06-20T10:49:57Z</time>
<desc>lat.=56.065388, lon.=26.462694, Alt.=115.420959m. Speed=12.060000m/h.</desc>
<speed>3.350000</speed>
</trkpt>
<trkpt lat="56.065418" lon="26.462702">
<ele>115.450256</ele>
<time>2010-06-20T10:49:58Z</time>
<desc>lat.=56.065418, lon.=26.462702, Alt.=115.450256m. Speed=12.456000m/h.</desc>
<speed>3.460000</speed>
</trkpt>
<trkpt lat="56.065449" lon="26.462708">
<ele>115.542053</ele>
<time>2010-06-20T10:49:59Z</time>
<desc>lat.=56.065449, lon.=26.462708, Alt.=115.542053m. Speed=12.888000m/h.</desc>
<speed>3.580000</speed>
</trkpt>
<trkpt lat="56.065475" lon="26.462727">
<ele>115.606506</ele>
<time>2010-06-20T10:50:00Z</time>
<desc>lat.=56.065475, lon.=26.462727, Alt.=115.606506m. Speed=10.008000m/h.</desc>
<speed>2.780000</speed>
</trkpt>
<trkpt lat="56.065506" lon="26.462751">
<ele>115.663147</ele>
<time>2010-06-20T10:50:01Z</time>
<desc>lat.=56.065506, lon.=26.462751, Alt.=115.663147m. Speed=11.664000m/h.</desc>
<speed>3.240000</speed>
</trkpt>
<trkpt lat="56.065536" lon="26.462774">
<ele>115.799866</ele>
<time>2010-06-20T10:50:02Z</time>
<desc>lat.=56.065536, lon.=26.462774, Alt.=115.799866m. Speed=11.304000m/h.</desc>
<speed>3.140000</speed>
</trkpt>
<trkpt lat="56.065567" lon="26.462795">
<ele>115.708069</ele>
<time>2010-06-20T10:50:03Z</time>
<desc>lat.=56.065567, lon.=26.462795, Alt.=115.708069m. Speed=10.872000m/h.</desc>
<speed>3.020000</speed>
</trkpt>
<trkpt lat="56.065609" lon="26.462818">
<ele>115.438538</ele>
<time>2010-06-20T10:50:04Z</time>
<desc>lat.=56.065609, lon.=26.462818, Alt.=115.438538m. Speed=12.384000m/h.</desc>
<speed>3.440000</speed>
</trkpt>
<trkpt lat="56.065639" lon="26.462835">
<ele>115.670959</ele>
<time>2010-06-20T10:50:05Z</time>
<desc>lat.=56.065639, lon.=26.462835, Alt.=115.670959m. Speed=10.476000m/h.</desc>
<speed>2.910000</speed>
</trkpt>
<trkpt lat="56.065674" lon="26.462849">
<ele>115.797913</ele>
<time>2010-06-20T10:50:06Z</time>
<desc>lat.=56.065674, lon.=26.462849, Alt.=115.797913m. Speed=12.384000m/h.</desc>
<speed>3.440000</speed>
</trkpt>
<trkpt lat="56.065712" lon="26.462860">
<ele>116.215881</ele>
<time>2010-06-20T10:50:07Z</time>
<desc>lat.=56.065712, lon.=26.462860, Alt.=116.215881m. Speed=12.240000m/h.</desc>
<speed>3.400000</speed>
</trkpt>
<trkpt lat="56.065746" lon="26.462870">
<ele>116.487366</ele>
<time>2010-06-20T10:50:08Z</time>
<desc>lat.=56.065746, lon.=26.462870, Alt.=116.487366m. Speed=13.572000m/h.</desc>
<speed>3.770000</speed>
</trkpt>
<trkpt lat="56.065807" lon="26.462872">
<ele>117.864319</ele>
<time>2010-06-20T10:50:09Z</time>
<desc>lat.=56.065807, lon.=26.462872, Alt.=117.864319m. Speed=15.480000m/h.</desc>
<speed>4.300000</speed>
</trkpt>
<trkpt lat="56.065857" lon="26.462885">
<ele>118.872131</ele>
<time>2010-06-20T10:50:10Z</time>
<desc>lat.=56.065857, lon.=26.462885, Alt.=118.872131m. Speed=11.700000m/h.</desc>
<speed>3.250000</speed>
</trkpt>
<trkpt lat="56.065895" lon="26.462908">
<ele>119.458069</ele>
<time>2010-06-20T10:50:11Z</time>
<desc>lat.=56.065895, lon.=26.462908, Alt.=119.458069m. Speed=14.436000m/h.</desc>
<speed>4.010000</speed>
</trkpt>
<trkpt lat="56.065933" lon="26.462973">
<ele>120.678772</ele>
<time>2010-06-20T10:50:12Z</time>
<desc>lat.=56.065933, lon.=26.462973, Alt.=120.678772m. Speed=14.580000m/h.</desc>
<speed>4.050000</speed>
</trkpt>
<trkpt lat="56.065975" lon="26.462997">
<ele>120.823303</ele>
<time>2010-06-20T10:50:13Z</time>
<desc>lat.=56.065975, lon.=26.462997, Alt.=120.823303m. Speed=14.184000m/h.</desc>
<speed>3.940000</speed>
</trkpt>
<trkpt lat="56.066010" lon="26.463011">
<ele>121.395569</ele>
<time>2010-06-20T10:50:14Z</time>
<desc>lat.=56.066010, lon.=26.463011, Alt.=121.395569m. Speed=14.760000m/h.</desc>
<speed>4.100000</speed>
</trkpt>
<trkpt lat="56.066048" lon="26.463036">
<ele>121.876038</ele>
<time>2010-06-20T10:50:15Z</time>
<desc>lat.=56.066048, lon.=26.463036, Alt.=121.876038m. Speed=14.940000m/h.</desc>
<speed>4.150000</speed>
</trkpt>
<trkpt lat="56.066086" lon="26.463070">
<ele>122.469788</ele>
<time>2010-06-20T10:50:16Z</time>
<desc>lat.=56.066086, lon.=26.463070, Alt.=122.469788m. Speed=14.436000m/h.</desc>
<speed>4.010000</speed>
</trkpt>
<trkpt lat="56.066132" lon="26.463079">
<ele>124.778381</ele>
<time>2010-06-20T10:50:17Z</time>
<desc>lat.=56.066132, lon.=26.463079, Alt.=124.778381m. Speed=14.292000m/h.</desc>
<speed>3.970000</speed>
</trkpt>
<trkpt lat="56.066177" lon="26.463097">
<ele>126.417053</ele>
<time>2010-06-20T10:50:18Z</time>
<desc>lat.=56.066177, lon.=26.463097, Alt.=126.417053m. Speed=12.636000m/h.</desc>
<speed>3.510000</speed>
</trkpt>
<trkpt lat="56.066212" lon="26.463102">
<ele>126.381897</ele>
<time>2010-06-20T10:50:19Z</time>
<desc>lat.=56.066212, lon.=26.463102, Alt.=126.381897m. Speed=15.048000m/h.</desc>
<speed>4.180000</speed>
</trkpt>
<trkpt lat="56.066250" lon="26.463102">
<ele>124.139709</ele>
<time>2010-06-20T10:50:20Z</time>
<desc>lat.=56.066250, lon.=26.463102, Alt.=124.139709m. Speed=12.996000m/h.</desc>
<speed>3.610000</speed>
</trkpt>
<trkpt lat="56.066284" lon="26.463112">
<ele>123.877991</ele>
<time>2010-06-20T10:50:21Z</time>
<desc>lat.=56.066284, lon.=26.463112, Alt.=123.877991m. Speed=13.752000m/h.</desc>
<speed>3.820000</speed>
</trkpt>
<trkpt lat="56.066315" lon="26.463125">
<ele>122.940491</ele>
<time>2010-06-20T10:50:22Z</time>
<desc>lat.=56.066315, lon.=26.463125, Alt.=122.940491m. Speed=14.040000m/h.</desc>
<speed>3.900000</speed>
</trkpt>
<trkpt lat="56.066349" lon="26.463144">
<ele>122.323303</ele>
<time>2010-06-20T10:50:23Z</time>
<desc>lat.=56.066349, lon.=26.463144, Alt.=122.323303m. Speed=13.788000m/h.</desc>
<speed>3.830000</speed>
</trkpt>
<trkpt lat="56.066387" lon="26.463161">
<ele>122.493225</ele>
<time>2010-06-20T10:50:24Z</time>
<desc>lat.=56.066387, lon.=26.463161, Alt.=122.493225m. Speed=13.212000m/h.</desc>
<speed>3.670000</speed>
</trkpt>
<trkpt lat="56.066418" lon="26.463175">
<ele>122.393616</ele>
<time>2010-06-20T10:50:25Z</time>
<desc>lat.=56.066418, lon.=26.463175, Alt.=122.393616m. Speed=12.780000m/h.</desc>
<speed>3.550000</speed>
</trkpt>
<trkpt lat="56.066452" lon="26.463190">
<ele>122.641663</ele>
<time>2010-06-20T10:50:26Z</time>
<desc>lat.=56.066452, lon.=26.463190, Alt.=122.641663m. Speed=13.356000m/h.</desc>
<speed>3.710000</speed>
</trkpt>
<trkpt lat="56.066486" lon="26.463202">
<ele>122.481506</ele>
<time>2010-06-20T10:50:27Z</time>
<desc>lat.=56.066486, lon.=26.463202, Alt.=122.481506m. Speed=12.132000m/h.</desc>
<speed>3.370000</speed>
</trkpt>
<trkpt lat="56.066517" lon="26.463215">
<ele>122.770569</ele>
<time>2010-06-20T10:50:28Z</time>
<desc>lat.=56.066517, lon.=26.463215, Alt.=122.770569m. Speed=14.292000m/h.</desc>
<speed>3.970000</speed>
</trkpt>
<trkpt lat="56.066555" lon="26.463228">
<ele>123.110413</ele>
<time>2010-06-20T10:50:29Z</time>
<desc>lat.=56.066555, lon.=26.463228, Alt.=123.110413m. Speed=14.220000m/h.</desc>
<speed>3.950000</speed>
</trkpt>
<trkpt lat="56.066589" lon="26.463243">
<ele>123.081116</ele>
<time>2010-06-20T10:50:30Z</time>
<desc>lat.=56.066589, lon.=26.463243, Alt.=123.081116m. Speed=13.140000m/h.</desc>
<speed>3.650000</speed>
</trkpt>
<trkpt lat="56.066624" lon="26.463272">
<ele>122.577209</ele>
<time>2010-06-20T10:50:31Z</time>
<desc>lat.=56.066624, lon.=26.463272, Alt.=122.577209m. Speed=12.852000m/h.</desc>
<speed>3.570000</speed>
</trkpt>
<trkpt lat="56.066662" lon="26.463278">
<ele>122.944397</ele>
<time>2010-06-20T10:50:32Z</time>
<desc>lat.=56.066662, lon.=26.463278, Alt.=122.944397m. Speed=14.652000m/h.</desc>
<speed>4.070000</speed>
</trkpt>
<trkpt lat="56.066696" lon="26.463295">
<ele>123.774475</ele>
<time>2010-06-20T10:50:33Z</time>
<desc>lat.=56.066696, lon.=26.463295, Alt.=123.774475m. Speed=12.528000m/h.</desc>
<speed>3.480000</speed>
</trkpt>
<trkpt lat="56.066727" lon="26.463314">
<ele>124.157288</ele>
<time>2010-06-20T10:50:34Z</time>
<desc>lat.=56.066727, lon.=26.463314, Alt.=124.157288m. Speed=12.276000m/h.</desc>
<speed>3.410000</speed>
</trkpt>
<trkpt lat="56.066757" lon="26.463335">
<ele>124.381897</ele>
<time>2010-06-20T10:50:35Z</time>
<desc>lat.=56.066757, lon.=26.463335, Alt.=124.381897m. Speed=12.132000m/h.</desc>
<speed>3.370000</speed>
</trkpt>
<trkpt lat="56.066792" lon="26.463364">
<ele>124.254944</ele>
<time>2010-06-20T10:50:36Z</time>
<desc>lat.=56.066792, lon.=26.463364, Alt.=124.254944m. Speed=13.824000m/h.</desc>
<speed>3.840000</speed>
</trkpt>
<trkpt lat="56.066830" lon="26.463408">
<ele>122.579163</ele>
<time>2010-06-20T10:50:37Z</time>
<desc>lat.=56.066830, lon.=26.463408, Alt.=122.579163m. Speed=12.708000m/h.</desc>
<speed>3.530000</speed>
</trkpt>
<trkpt lat="56.066860" lon="26.463442">
<ele>120.182678</ele>
<time>2010-06-20T10:50:38Z</time>
<desc>lat.=56.066860, lon.=26.463442, Alt.=120.182678m. Speed=13.032000m/h.</desc>
<speed>3.620000</speed>
</trkpt>
<trkpt lat="56.066898" lon="26.463461">
<ele>119.471741</ele>
<time>2010-06-20T10:50:39Z</time>
<desc>lat.=56.066898, lon.=26.463461, Alt.=119.471741m. Speed=14.112000m/h.</desc>
<speed>3.920000</speed>
</trkpt>
<trkpt lat="56.066936" lon="26.463476">
<ele>119.360413</ele>
<time>2010-06-20T10:50:40Z</time>
<desc>lat.=56.066936, lon.=26.463476, Alt.=119.360413m. Speed=14.400000m/h.</desc>
<speed>4.000000</speed>
</trkpt>
<trkpt lat="56.066982" lon="26.463539">
<ele>118.256897</ele>
<time>2010-06-20T10:50:41Z</time>
<desc>lat.=56.066982, lon.=26.463539, Alt.=118.256897m. Speed=13.860000m/h.</desc>
<speed>3.850000</speed>
</trkpt>
<trkpt lat="56.067020" lon="26.463572">
<ele>118.108459</ele>
<time>2010-06-20T10:50:42Z</time>
<desc>lat.=56.067020, lon.=26.463572, Alt.=118.108459m. Speed=13.572000m/h.</desc>
<speed>3.770000</speed>
</trkpt>
<trkpt lat="56.067066" lon="26.463608">
<ele>117.881897</ele>
<time>2010-06-20T10:50:43Z</time>
<desc>lat.=56.067066, lon.=26.463608, Alt.=117.881897m. Speed=15.408000m/h.</desc>
<speed>4.280000</speed>
</trkpt>
<trkpt lat="56.067112" lon="26.463646">
<ele>118.085022</ele>
<time>2010-06-20T10:50:44Z</time>
<desc>lat.=56.067112, lon.=26.463646, Alt.=118.085022m. Speed=14.796000m/h.</desc>
<speed>4.110000</speed>
</trkpt>
<trkpt lat="56.067150" lon="26.463684">
<ele>117.692444</ele>
<time>2010-06-20T10:50:45Z</time>
<desc>lat.=56.067150, lon.=26.463684, Alt.=117.692444m. Speed=14.832000m/h.</desc>
<speed>4.120000</speed>
</trkpt>
<trkpt lat="56.067196" lon="26.463730">
<ele>117.887756</ele>
<time>2010-06-20T10:50:46Z</time>
<desc>lat.=56.067196, lon.=26.463730, Alt.=117.887756m. Speed=15.048000m/h.</desc>
<speed>4.180000</speed>
</trkpt>
<trkpt lat="56.067230" lon="26.463755">
<ele>117.018616</ele>
<time>2010-06-20T10:50:47Z</time>
<desc>lat.=56.067230, lon.=26.463755, Alt.=117.018616m. Speed=12.852000m/h.</desc>
<speed>3.570000</speed>
</trkpt>
<trkpt lat="56.067257" lon="26.463781">
<ele>116.161194</ele>
<time>2010-06-20T10:50:48Z</time>
<desc>lat.=56.067257, lon.=26.463781, Alt.=116.161194m. Speed=12.060000m/h.</desc>
<speed>3.350000</speed>
</trkpt>
<trkpt lat="56.067284" lon="26.463818">
<ele>115.883850</ele>
<time>2010-06-20T10:50:49Z</time>
<desc>lat.=56.067284, lon.=26.463818, Alt.=115.883850m. Speed=13.284000m/h.</desc>
<speed>3.690000</speed>
</trkpt>
<trkpt lat="56.067314" lon="26.463879">
<ele>116.317444</ele>
<time>2010-06-20T10:50:50Z</time>
<desc>lat.=56.067314, lon.=26.463879, Alt.=116.317444m. Speed=14.616000m/h.</desc>
<speed>4.060000</speed>
</trkpt>
<trkpt lat="56.067345" lon="26.463943">
<ele>116.987366</ele>
<time>2010-06-20T10:50:51Z</time>
<desc>lat.=56.067345, lon.=26.463943, Alt.=116.987366m. Speed=14.472000m/h.</desc>
<speed>4.020000</speed>
</trkpt>
<trkpt lat="56.067364" lon="26.464003">
<ele>116.870178</ele>
<time>2010-06-20T10:50:52Z</time>
<desc>lat.=56.067364, lon.=26.464003, Alt.=116.870178m. Speed=13.320000m/h.</desc>
<speed>3.700000</speed>
</trkpt>
<trkpt lat="56.067387" lon="26.464062">
<ele>116.481506</ele>
<time>2010-06-20T10:50:53Z</time>
<desc>lat.=56.067387, lon.=26.464062, Alt.=116.481506m. Speed=13.068000m/h.</desc>
<speed>3.630000</speed>
</trkpt>
<trkpt lat="56.067406" lon="26.464132">
<ele>115.286194</ele>
<time>2010-06-20T10:50:54Z</time>
<desc>lat.=56.067406, lon.=26.464132, Alt.=115.286194m. Speed=14.724000m/h.</desc>
<speed>4.090000</speed>
</trkpt>
<trkpt lat="56.067429" lon="26.464197">
<ele>113.460022</ele>
<time>2010-06-20T10:50:55Z</time>
<desc>lat.=56.067429, lon.=26.464197, Alt.=113.460022m. Speed=14.364000m/h.</desc>
<speed>3.990000</speed>
</trkpt>
<trkpt lat="56.067440" lon="26.464251">
<ele>112.674866</ele>
<time>2010-06-20T10:50:56Z</time>
<desc>lat.=56.067440, lon.=26.464251, Alt.=112.674866m. Speed=9.108000m/h.</desc>
<speed>2.530000</speed>
</trkpt>
<trkpt lat="56.067448" lon="26.464304">
<ele>113.364319</ele>
<time>2010-06-20T10:50:57Z</time>
<desc>lat.=56.067448, lon.=26.464304, Alt.=113.364319m. Speed=13.068000m/h.</desc>
<speed>3.630000</speed>
</trkpt>
<trkpt lat="56.067459" lon="26.464369">
<ele>114.022522</ele>
<time>2010-06-20T10:50:58Z</time>
<desc>lat.=56.067459, lon.=26.464369, Alt.=114.022522m. Speed=13.464000m/h.</desc>
<speed>3.740000</speed>
</trkpt>
<trkpt lat="56.067463" lon="26.464449">
<ele>113.294006</ele>
<time>2010-06-20T10:50:59Z</time>
<desc>lat.=56.067463, lon.=26.464449, Alt.=113.294006m. Speed=15.480000m/h.</desc>
<speed>4.300000</speed>
</trkpt>
<trkpt lat="56.067471" lon="26.464531">
<ele>113.940491</ele>
<time>2010-06-20T10:51:00Z</time>
<desc>lat.=56.067471, lon.=26.464531, Alt.=113.940491m. Speed=16.416000m/h.</desc>
<speed>4.560000</speed>
</trkpt>
<trkpt lat="56.067467" lon="26.464613">
<ele>113.010803</ele>
<time>2010-06-20T10:51:01Z</time>
<desc>lat.=56.067467, lon.=26.464613, Alt.=113.010803m. Speed=16.056000m/h.</desc>
<speed>4.460000</speed>
</trkpt>
<trkpt lat="56.067474" lon="26.464689">
<ele>113.592834</ele>
<time>2010-06-20T10:51:02Z</time>
<desc>lat.=56.067474, lon.=26.464689, Alt.=113.592834m. Speed=15.048000m/h.</desc>
<speed>4.180000</speed>
</trkpt>
<trkpt lat="56.067474" lon="26.464764">
<ele>113.135803</ele>
<time>2010-06-20T10:51:03Z</time>
<desc>lat.=56.067474, lon.=26.464764, Alt.=113.135803m. Speed=14.328000m/h.</desc>
<speed>3.980000</speed>
</trkpt>
<trkpt lat="56.067459" lon="26.464836">
<ele>109.262756</ele>
<time>2010-06-20T10:51:04Z</time>
<desc>lat.=56.067459, lon.=26.464836, Alt.=109.262756m. Speed=15.048000m/h.</desc>
<speed>4.180000</speed>
</trkpt>
<trkpt lat="56.067451" lon="26.464922">
<ele>107.446350</ele>
<time>2010-06-20T10:51:05Z</time>
<desc>lat.=56.067451, lon.=26.464922, Alt.=107.446350m. Speed=15.732000m/h.</desc>
<speed>4.370000</speed>
</trkpt>
<trkpt lat="56.067451" lon="26.465000">
<ele>106.407288</ele>
<time>2010-06-20T10:51:06Z</time>
<desc>lat.=56.067451, lon.=26.465000, Alt.=106.407288m. Speed=16.128000m/h.</desc>
<speed>4.480000</speed>
</trkpt>
<trkpt lat="56.067451" lon="26.465076">
<ele>106.522522</ele>
<time>2010-06-20T10:51:07Z</time>
<desc>lat.=56.067451, lon.=26.465076, Alt.=106.522522m. Speed=15.660000m/h.</desc>
<speed>4.350000</speed>
</trkpt>
<trkpt lat="56.067448" lon="26.465143">
<ele>105.801819</ele>
<time>2010-06-20T10:51:08Z</time>
<desc>lat.=56.067448, lon.=26.465143, Alt.=105.801819m. Speed=14.436000m/h.</desc>
<speed>4.010000</speed>
</trkpt>
<trkpt lat="56.067448" lon="26.465208">
<ele>105.461975</ele>
<time>2010-06-20T10:51:09Z</time>
<desc>lat.=56.067448, lon.=26.465208, Alt.=105.461975m. Speed=13.428000m/h.</desc>
<speed>3.730000</speed>
</trkpt>
<trkpt lat="56.067444" lon="26.465273">
<ele>104.942444</ele>
<time>2010-06-20T10:51:10Z</time>
<desc>lat.=56.067444, lon.=26.465273, Alt.=104.942444m. Speed=12.888000m/h.</desc>
<speed>3.580000</speed>
</trkpt>
<trkpt lat="56.067448" lon="26.465330">
<ele>104.889709</ele>
<time>2010-06-20T10:51:11Z</time>
<desc>lat.=56.067448, lon.=26.465330, Alt.=104.889709m. Speed=12.528000m/h.</desc>
<speed>3.480000</speed>
</trkpt>
<trkpt lat="56.067455" lon="26.465382">
<ele>105.393616</ele>
<time>2010-06-20T10:51:12Z</time>
<desc>lat.=56.067455, lon.=26.465382, Alt.=105.393616m. Speed=12.132000m/h.</desc>
<speed>3.370000</speed>
</trkpt>
<trkpt lat="56.067459" lon="26.465435">
<ele>105.809631</ele>
<time>2010-06-20T10:51:13Z</time>
<desc>lat.=56.067459, lon.=26.465435, Alt.=105.809631m. Speed=11.736000m/h.</desc>
<speed>3.260000</speed>
</trkpt>
<trkpt lat="56.067467" lon="26.465496">
<ele>107.085022</ele>
<time>2010-06-20T10:51:14Z</time>
<desc>lat.=56.067467, lon.=26.465496, Alt.=107.085022m. Speed=11.448000m/h.</desc>
<speed>3.180000</speed>
</trkpt>
<trkpt lat="56.067467" lon="26.465551">
<ele>107.333069</ele>
<time>2010-06-20T10:51:15Z</time>
<desc>lat.=56.067467, lon.=26.465551, Alt.=107.333069m. Speed=12.168000m/h.</desc>
<speed>3.380000</speed>
</trkpt>
<trkpt lat="56.067467" lon="26.465611">
<ele>107.319397</ele>
<time>2010-06-20T10:51:16Z</time>
<desc>lat.=56.067467, lon.=26.465611, Alt.=107.319397m. Speed=13.284000m/h.</desc>
<speed>3.690000</speed>
</trkpt>
<trkpt lat="56.067474" lon="26.465668">
<ele>108.516663</ele>
<time>2010-06-20T10:51:17Z</time>
<desc>lat.=56.067474, lon.=26.465668, Alt.=108.516663m. Speed=12.744000m/h.</desc>
<speed>3.540000</speed>
</trkpt>
<trkpt lat="56.067474" lon="26.465731">
<ele>108.635803</ele>
<time>2010-06-20T10:51:18Z</time>
<desc>lat.=56.067474, lon.=26.465731, Alt.=108.635803m. Speed=13.572000m/h.</desc>
<speed>3.770000</speed>
</trkpt>
<trkpt lat="56.067482" lon="26.465794">
<ele>109.307678</ele>
<time>2010-06-20T10:51:19Z</time>
<desc>lat.=56.067482, lon.=26.465794, Alt.=109.307678m. Speed=14.004000m/h.</desc>
<speed>3.890000</speed>
</trkpt>
<trkpt lat="56.067478" lon="26.465858">
<ele>108.575256</ele>
<time>2010-06-20T10:51:20Z</time>
<desc>lat.=56.067478, lon.=26.465858, Alt.=108.575256m. Speed=13.644000m/h.</desc>
<speed>3.790000</speed>
</trkpt>
<trkpt lat="56.067482" lon="26.465919">
<ele>108.762756</ele>
<time>2010-06-20T10:51:21Z</time>
<desc>lat.=56.067482, lon.=26.465919, Alt.=108.762756m. Speed=14.364000m/h.</desc>
<speed>3.990000</speed>
</trkpt>
<trkpt lat="56.067490" lon="26.465981">
<ele>109.071350</ele>
<time>2010-06-20T10:51:22Z</time>
<desc>lat.=56.067490, lon.=26.465981, Alt.=109.071350m. Speed=13.392000m/h.</desc>
<speed>3.720000</speed>
</trkpt>
<trkpt lat="56.067501" lon="26.466042">
<ele>110.258850</ele>
<time>2010-06-20T10:51:23Z</time>
<desc>lat.=56.067501, lon.=26.466042, Alt.=110.258850m. Speed=13.680000m/h.</desc>
<speed>3.800000</speed>
</trkpt>
<trkpt lat="56.067505" lon="26.466103">
<ele>111.483459</ele>
<time>2010-06-20T10:51:24Z</time>
<desc>lat.=56.067505, lon.=26.466103, Alt.=111.483459m. Speed=14.796000m/h.</desc>
<speed>4.110000</speed>
</trkpt>
<trkpt lat="56.067516" lon="26.466173">
<ele>114.631897</ele>
<time>2010-06-20T10:51:25Z</time>
<desc>lat.=56.067516, lon.=26.466173, Alt.=114.631897m. Speed=17.136000m/h.</desc>
<speed>4.760000</speed>
</trkpt>
<trkpt lat="56.067520" lon="26.466248">
<ele>115.422913</ele>
<time>2010-06-20T10:51:26Z</time>
<desc>lat.=56.067520, lon.=26.466248, Alt.=115.422913m. Speed=15.372000m/h.</desc>
<speed>4.270000</speed>
</trkpt>
<trkpt lat="56.067524" lon="26.466320">
<ele>114.919006</ele>
<time>2010-06-20T10:51:27Z</time>
<desc>lat.=56.067524, lon.=26.466320, Alt.=114.919006m. Speed=15.336000m/h.</desc>
<speed>4.260000</speed>
</trkpt>
<trkpt lat="56.067528" lon="26.466391">
<ele>114.198303</ele>
<time>2010-06-20T10:51:28Z</time>
<desc>lat.=56.067528, lon.=26.466391, Alt.=114.198303m. Speed=15.048000m/h.</desc>
<speed>4.180000</speed>
</trkpt>
<trkpt lat="56.067532" lon="26.466465">
<ele>113.405334</ele>
<time>2010-06-20T10:51:29Z</time>
<desc>lat.=56.067532, lon.=26.466465, Alt.=113.405334m. Speed=14.688000m/h.</desc>
<speed>4.080000</speed>
</trkpt>
<trkpt lat="56.067539" lon="26.466536">
<ele>113.057678</ele>
<time>2010-06-20T10:51:30Z</time>
<desc>lat.=56.067539, lon.=26.466536, Alt.=113.057678m. Speed=14.940000m/h.</desc>
<speed>4.150000</speed>
</trkpt>
<trkpt lat="56.067543" lon="26.466604">
<ele>112.563538</ele>
<time>2010-06-20T10:51:31Z</time>
<desc>lat.=56.067543, lon.=26.466604, Alt.=112.563538m. Speed=16.775999m/h.</desc>
<speed>4.660000</speed>
</trkpt>
<trkpt lat="56.067551" lon="26.466679">
<ele>111.856506</ele>
<time>2010-06-20T10:51:32Z</time>
<desc>lat.=56.067551, lon.=26.466679, Alt.=111.856506m. Speed=17.388000m/h.</desc>
<speed>4.830000</speed>
</trkpt>
<trkpt lat="56.067558" lon="26.466755">
<ele>111.631897</ele>
<time>2010-06-20T10:51:33Z</time>
<desc>lat.=56.067558, lon.=26.466755, Alt.=111.631897m. Speed=17.136000m/h.</desc>
<speed>4.760000</speed>
</trkpt>
<trkpt lat="56.067566" lon="26.466829">
<ele>111.458069</ele>
<time>2010-06-20T10:51:34Z</time>
<desc>lat.=56.067566, lon.=26.466829, Alt.=111.458069m. Speed=15.912000m/h.</desc>
<speed>4.420000</speed>
</trkpt>
<trkpt lat="56.067574" lon="26.466898">
<ele>111.180725</ele>
<time>2010-06-20T10:51:35Z</time>
<desc>lat.=56.067574, lon.=26.466898, Alt.=111.180725m. Speed=15.120000m/h.</desc>
<speed>4.200000</speed>
</trkpt>
<trkpt lat="56.067581" lon="26.466963">
<ele>111.872131</ele>
<time>2010-06-20T10:51:36Z</time>
<desc>lat.=56.067581, lon.=26.466963, Alt.=111.872131m. Speed=15.480000m/h.</desc>
<speed>4.300000</speed>
</trkpt>
<trkpt lat="56.067593" lon="26.467026">
<ele>112.446350</ele>
<time>2010-06-20T10:51:37Z</time>
<desc>lat.=56.067593, lon.=26.467026, Alt.=112.446350m. Speed=15.588000m/h.</desc>
<speed>4.330000</speed>
</trkpt>
<trkpt lat="56.067612" lon="26.467094">
<ele>113.008850</ele>
<time>2010-06-20T10:51:38Z</time>
<desc>lat.=56.067612, lon.=26.467094, Alt.=113.008850m. Speed=16.020000m/h.</desc>
<speed>4.450000</speed>
</trkpt>
<trkpt lat="56.067623" lon="26.467161">
<ele>113.174866</ele>
<time>2010-06-20T10:51:39Z</time>
<desc>lat.=56.067623, lon.=26.467161, Alt.=113.174866m. Speed=15.696000m/h.</desc>
<speed>4.360000</speed>
</trkpt>
<trkpt lat="56.067635" lon="26.467222">
<ele>113.288147</ele>
<time>2010-06-20T10:51:40Z</time>
<desc>lat.=56.067635, lon.=26.467222, Alt.=113.288147m. Speed=14.652000m/h.</desc>
<speed>4.070000</speed>
</trkpt>
<trkpt lat="56.067650" lon="26.467285">
<ele>113.403381</ele>
<time>2010-06-20T10:51:41Z</time>
<desc>lat.=56.067650, lon.=26.467285, Alt.=113.403381m. Speed=14.004000m/h.</desc>
<speed>3.890000</speed>
</trkpt>
<trkpt lat="56.067669" lon="26.467340">
<ele>113.592834</ele>
<time>2010-06-20T10:51:42Z</time>
<desc>lat.=56.067669, lon.=26.467340, Alt.=113.592834m. Speed=15.660000m/h.</desc>
<speed>4.350000</speed>
</trkpt>
<trkpt lat="56.067684" lon="26.467402">
<ele>113.338928</ele>
<time>2010-06-20T10:51:43Z</time>
<desc>lat.=56.067684, lon.=26.467402, Alt.=113.338928m. Speed=15.084000m/h.</desc>
<speed>4.190000</speed>
</trkpt>
<trkpt lat="56.067707" lon="26.467461">
<ele>113.711975</ele>
<time>2010-06-20T10:51:44Z</time>
<desc>lat.=56.067707, lon.=26.467461, Alt.=113.711975m. Speed=15.516000m/h.</desc>
<speed>4.310000</speed>
</trkpt>
<trkpt lat="56.067722" lon="26.467524">
<ele>114.311584</ele>
<time>2010-06-20T10:51:45Z</time>
<desc>lat.=56.067722, lon.=26.467524, Alt.=114.311584m. Speed=15.480000m/h.</desc>
<speed>4.300000</speed>
</trkpt>
<trkpt lat="56.067741" lon="26.467583">
<ele>114.889709</ele>
<time>2010-06-20T10:51:46Z</time>
<desc>lat.=56.067741, lon.=26.467583, Alt.=114.889709m. Speed=14.220000m/h.</desc>
<speed>3.950000</speed>
</trkpt>
<trkpt lat="56.067757" lon="26.467634">
<ele>114.850647</ele>
<time>2010-06-20T10:51:47Z</time>
<desc>lat.=56.067757, lon.=26.467634, Alt.=114.850647m. Speed=12.744000m/h.</desc>
<speed>3.540000</speed>
</trkpt>
<trkpt lat="56.067768" lon="26.467672">
<ele>115.004944</ele>
<time>2010-06-20T10:51:48Z</time>
<desc>lat.=56.067768, lon.=26.467672, Alt.=115.004944m. Speed=9.000000m/h.</desc>
<speed>2.500000</speed>
</trkpt>
<trkpt lat="56.067783" lon="26.467707">
<ele>115.645569</ele>
<time>2010-06-20T10:51:49Z</time>
<desc>lat.=56.067783, lon.=26.467707, Alt.=115.645569m. Speed=12.276000m/h.</desc>
<speed>3.410000</speed>
</trkpt>
<trkpt lat="56.067795" lon="26.467752">
<ele>115.911194</ele>
<time>2010-06-20T10:51:50Z</time>
<desc>lat.=56.067795, lon.=26.467752, Alt.=115.911194m. Speed=12.204000m/h.</desc>
<speed>3.390000</speed>
</trkpt>
<trkpt lat="56.067802" lon="26.467798">
<ele>115.573303</ele>
<time>2010-06-20T10:51:51Z</time>
<desc>lat.=56.067802, lon.=26.467798, Alt.=115.573303m. Speed=11.016000m/h.</desc>
<speed>3.060000</speed>
</trkpt>
<trkpt lat="56.067814" lon="26.467844">
<ele>115.801819</ele>
<time>2010-06-20T10:51:52Z</time>
<desc>lat.=56.067814, lon.=26.467844, Alt.=115.801819m. Speed=11.592000m/h.</desc>
<speed>3.220000</speed>
</trkpt>
<trkpt lat="56.067822" lon="26.467892">
<ele>115.223694</ele>
<time>2010-06-20T10:51:53Z</time>
<desc>lat.=56.067822, lon.=26.467892, Alt.=115.223694m. Speed=10.440000m/h.</desc>
<speed>2.900000</speed>
</trkpt>
<trkpt lat="56.067833" lon="26.467932">
<ele>114.504944</ele>
<time>2010-06-20T10:51:54Z</time>
<desc>lat.=56.067833, lon.=26.467932, Alt.=114.504944m. Speed=10.620000m/h.</desc>
<speed>2.950000</speed>
</trkpt>
<trkpt lat="56.067848" lon="26.467966">
<ele>114.604553</ele>
<time>2010-06-20T10:51:55Z</time>
<desc>lat.=56.067848, lon.=26.467966, Alt.=114.604553m. Speed=9.144000m/h.</desc>
<speed>2.540000</speed>
</trkpt>
<trkpt lat="56.067860" lon="26.467995">
<ele>114.950256</ele>
<time>2010-06-20T10:51:56Z</time>
<desc>lat.=56.067860, lon.=26.467995, Alt.=114.950256m. Speed=7.884000m/h.</desc>
<speed>2.190000</speed>
</trkpt>
<trkpt lat="56.067871" lon="26.468016">
<ele>115.174866</ele>
<time>2010-06-20T10:51:57Z</time>
<desc>lat.=56.067871, lon.=26.468016, Alt.=115.174866m. Speed=7.200000m/h.</desc>
<speed>2.000000</speed>
</trkpt>
<trkpt lat="56.067879" lon="26.468044">
<ele>114.102600</ele>
<time>2010-06-20T10:51:58Z</time>
<desc>lat.=56.067879, lon.=26.468044, Alt.=114.102600m. Speed=7.560000m/h.</desc>
<speed>2.100000</speed>
</trkpt>
<trkpt lat="56.067886" lon="26.468077">
<ele>114.047913</ele>
<time>2010-06-20T10:51:59Z</time>
<desc>lat.=56.067886, lon.=26.468077, Alt.=114.047913m. Speed=7.236000m/h.</desc>
<speed>2.010000</speed>
</trkpt>
<trkpt lat="56.067894" lon="26.468109">
<ele>115.872131</ele>
<time>2010-06-20T10:52:00Z</time>
<desc>lat.=56.067894, lon.=26.468109, Alt.=115.872131m. Speed=7.380000m/h.</desc>
<speed>2.050000</speed>
</trkpt>
<trkpt lat="56.067902" lon="26.468143">
<ele>115.752991</ele>
<time>2010-06-20T10:52:01Z</time>
<desc>lat.=56.067902, lon.=26.468143, Alt.=115.752991m. Speed=8.568000m/h.</desc>
<speed>2.380000</speed>
</trkpt>
<trkpt lat="56.067913" lon="26.468176">
<ele>115.825256</ele>
<time>2010-06-20T10:52:02Z</time>
<desc>lat.=56.067913, lon.=26.468176, Alt.=115.825256m. Speed=8.604000m/h.</desc>
<speed>2.390000</speed>
</trkpt>
<trkpt lat="56.067924" lon="26.468210">
<ele>115.165100</ele>
<time>2010-06-20T10:52:03Z</time>
<desc>lat.=56.067924, lon.=26.468210, Alt.=115.165100m. Speed=8.820000m/h.</desc>
<speed>2.450000</speed>
</trkpt>
<trkpt lat="56.067928" lon="26.468252">
<ele>115.092834</ele>
<time>2010-06-20T10:52:04Z</time>
<desc>lat.=56.067928, lon.=26.468252, Alt.=115.092834m. Speed=9.972000m/h.</desc>
<speed>2.770000</speed>
</trkpt>
<trkpt lat="56.067932" lon="26.468296">
<ele>114.600647</ele>
<time>2010-06-20T10:52:05Z</time>
<desc>lat.=56.067932, lon.=26.468296, Alt.=114.600647m. Speed=10.872000m/h.</desc>
<speed>3.020000</speed>
</trkpt>
<trkpt lat="56.067944" lon="26.468349">
<ele>114.467834</ele>
<time>2010-06-20T10:52:06Z</time>
<desc>lat.=56.067944, lon.=26.468349, Alt.=114.467834m. Speed=12.600000m/h.</desc>
<speed>3.500000</speed>
</trkpt>
<trkpt lat="56.067959" lon="26.468403">
<ele>114.344788</ele>
<time>2010-06-20T10:52:07Z</time>
<desc>lat.=56.067959, lon.=26.468403, Alt.=114.344788m. Speed=12.564000m/h.</desc>
<speed>3.490000</speed>
</trkpt>
<trkpt lat="56.067974" lon="26.468456">
<ele>113.983459</ele>
<time>2010-06-20T10:52:08Z</time>
<desc>lat.=56.067974, lon.=26.468456, Alt.=113.983459m. Speed=12.744000m/h.</desc>
<speed>3.540000</speed>
</trkpt>
<trkpt lat="56.067989" lon="26.468500">
<ele>111.833069</ele>
<time>2010-06-20T10:52:09Z</time>
<desc>lat.=56.067989, lon.=26.468500, Alt.=111.833069m. Speed=12.960000m/h.</desc>
<speed>3.600000</speed>
</trkpt>
<trkpt lat="56.068001" lon="26.468555">
<ele>111.254944</ele>
<time>2010-06-20T10:52:10Z</time>
<desc>lat.=56.068001, lon.=26.468555, Alt.=111.254944m. Speed=13.356000m/h.</desc>
<speed>3.710000</speed>
</trkpt>
<trkpt lat="56.068016" lon="26.468613">
<ele>111.612366</ele>
<time>2010-06-20T10:52:11Z</time>
<desc>lat.=56.068016, lon.=26.468613, Alt.=111.612366m. Speed=13.536000m/h.</desc>
<speed>3.760000</speed>
</trkpt>
<trkpt lat="56.068031" lon="26.468670">
<ele>112.440491</ele>
<time>2010-06-20T10:52:12Z</time>
<desc>lat.=56.068031, lon.=26.468670, Alt.=112.440491m. Speed=12.240000m/h.</desc>
<speed>3.400000</speed>
</trkpt>
<trkpt lat="56.068050" lon="26.468725">
<ele>112.469788</ele>
<time>2010-06-20T10:52:13Z</time>
<desc>lat.=56.068050, lon.=26.468725, Alt.=112.469788m. Speed=14.616000m/h.</desc>
<speed>4.060000</speed>
</trkpt>
<trkpt lat="56.068066" lon="26.468784">
<ele>112.559631</ele>
<time>2010-06-20T10:52:14Z</time>
<desc>lat.=56.068066, lon.=26.468784, Alt.=112.559631m. Speed=15.264000m/h.</desc>
<speed>4.240000</speed>
</trkpt>
<trkpt lat="56.068085" lon="26.468843">
<ele>112.473694</ele>
<time>2010-06-20T10:52:15Z</time>
<desc>lat.=56.068085, lon.=26.468843, Alt.=112.473694m. Speed=15.696000m/h.</desc>
<speed>4.360000</speed>
</trkpt>
<trkpt lat="56.068104" lon="26.468906">
<ele>112.247131</ele>
<time>2010-06-20T10:52:16Z</time>
<desc>lat.=56.068104, lon.=26.468906, Alt.=112.247131m. Speed=16.020000m/h.</desc>
<speed>4.450000</speed>
</trkpt>
<trkpt lat="56.068123" lon="26.468971">
<ele>112.188538</ele>
<time>2010-06-20T10:52:17Z</time>
<desc>lat.=56.068123, lon.=26.468971, Alt.=112.188538m. Speed=16.632000m/h.</desc>
<speed>4.620000</speed>
</trkpt>
<trkpt lat="56.068142" lon="26.469038">
<ele>111.963928</ele>
<time>2010-06-20T10:52:18Z</time>
<desc>lat.=56.068142, lon.=26.469038, Alt.=111.963928m. Speed=17.243999m/h.</desc>
<speed>4.790000</speed>
</trkpt>
<trkpt lat="56.068161" lon="26.469114">
<ele>111.881897</ele>
<time>2010-06-20T10:52:19Z</time>
<desc>lat.=56.068161, lon.=26.469114, Alt.=111.881897m. Speed=17.712000m/h.</desc>
<speed>4.920000</speed>
</trkpt>
<trkpt lat="56.068180" lon="26.469191">
<ele>111.838928</ele>
<time>2010-06-20T10:52:20Z</time>
<desc>lat.=56.068180, lon.=26.469191, Alt.=111.838928m. Speed=18.216000m/h.</desc>
<speed>5.060000</speed>
</trkpt>
<trkpt lat="56.068203" lon="26.469259">
<ele>111.368225</ele>
<time>2010-06-20T10:52:21Z</time>
<desc>lat.=56.068203, lon.=26.469259, Alt.=111.368225m. Speed=18.288000m/h.</desc>
<speed>5.080000</speed>
</trkpt>
<trkpt lat="56.068222" lon="26.469328">
<ele>111.163147</ele>
<time>2010-06-20T10:52:22Z</time>
<desc>lat.=56.068222, lon.=26.469328, Alt.=111.163147m. Speed=18.431999m/h.</desc>
<speed>5.120000</speed>
</trkpt>
<trkpt lat="56.068245" lon="26.469402">
<ele>111.284241</ele>
<time>2010-06-20T10:52:23Z</time>
<desc>lat.=56.068245, lon.=26.469402, Alt.=111.284241m. Speed=18.540001m/h.</desc>
<speed>5.150000</speed>
</trkpt>
<trkpt lat="56.068260" lon="26.469484">
<ele>111.329163</ele>
<time>2010-06-20T10:52:24Z</time>
<desc>lat.=56.068260, lon.=26.469484, Alt.=111.329163m. Speed=18.072001m/h.</desc>
<speed>5.020000</speed>
</trkpt>
<trkpt lat="56.068279" lon="26.469555">
<ele>111.596741</ele>
<time>2010-06-20T10:52:25Z</time>
<desc>lat.=56.068279, lon.=26.469555, Alt.=111.596741m. Speed=16.884001m/h.</desc>
<speed>4.690000</speed>
</trkpt>
<trkpt lat="56.068295" lon="26.469622">
<ele>111.452209</ele>
<time>2010-06-20T10:52:26Z</time>
<desc>lat.=56.068295, lon.=26.469622, Alt.=111.452209m. Speed=16.200001m/h.</desc>
<speed>4.500000</speed>
</trkpt>
<trkpt lat="56.068317" lon="26.469687">
<ele>111.604553</ele>
<time>2010-06-20T10:52:27Z</time>
<desc>lat.=56.068317, lon.=26.469687, Alt.=111.604553m. Speed=15.912000m/h.</desc>
<speed>4.420000</speed>
</trkpt>
<trkpt lat="56.068333" lon="26.469744">
<ele>111.450256</ele>
<time>2010-06-20T10:52:28Z</time>
<desc>lat.=56.068333, lon.=26.469744, Alt.=111.450256m. Speed=15.660000m/h.</desc>
<speed>4.350000</speed>
</trkpt>
<trkpt lat="56.068348" lon="26.469814">
<ele>111.340881</ele>
<time>2010-06-20T10:52:29Z</time>
<desc>lat.=56.068348, lon.=26.469814, Alt.=111.340881m. Speed=16.164000m/h.</desc>
<speed>4.490000</speed>
</trkpt>
<trkpt lat="56.068371" lon="26.469881">
<ele>112.379944</ele>
<time>2010-06-20T10:52:30Z</time>
<desc>lat.=56.068371, lon.=26.469881, Alt.=112.379944m. Speed=16.848000m/h.</desc>
<speed>4.680000</speed>
</trkpt>
<trkpt lat="56.068394" lon="26.469952">
<ele>113.012756</ele>
<time>2010-06-20T10:52:31Z</time>
<desc>lat.=56.068394, lon.=26.469952, Alt.=113.012756m. Speed=17.639999m/h.</desc>
<speed>4.900000</speed>
</trkpt>
<trkpt lat="56.068413" lon="26.470018">
<ele>112.940491</ele>
<time>2010-06-20T10:52:32Z</time>
<desc>lat.=56.068413, lon.=26.470018, Alt.=112.940491m. Speed=16.812000m/h.</desc>
<speed>4.670000</speed>
</trkpt>
<trkpt lat="56.068428" lon="26.470083">
<ele>112.876038</ele>
<time>2010-06-20T10:52:33Z</time>
<desc>lat.=56.068428, lon.=26.470083, Alt.=112.876038m. Speed=15.660000m/h.</desc>
<speed>4.350000</speed>
</trkpt>
<trkpt lat="56.068443" lon="26.470144">
<ele>113.061584</ele>
<time>2010-06-20T10:52:34Z</time>
<desc>lat.=56.068443, lon.=26.470144, Alt.=113.061584m. Speed=14.472000m/h.</desc>
<speed>4.020000</speed>
</trkpt>
<trkpt lat="56.068462" lon="26.470200">
<ele>113.663147</ele>
<time>2010-06-20T10:52:35Z</time>
<desc>lat.=56.068462, lon.=26.470200, Alt.=113.663147m. Speed=13.320000m/h.</desc>
<speed>3.700000</speed>
</trkpt>
<trkpt lat="56.068474" lon="26.470249">
<ele>113.393616</ele>
<time>2010-06-20T10:52:36Z</time>
<desc>lat.=56.068474, lon.=26.470249, Alt.=113.393616m. Speed=11.916000m/h.</desc>
<speed>3.310000</speed>
</trkpt>
<trkpt lat="56.068478" lon="26.470293">
<ele>111.419006</ele>
<time>2010-06-20T10:52:37Z</time>
<desc>lat.=56.068478, lon.=26.470293, Alt.=111.419006m. Speed=10.980000m/h.</desc>
<speed>3.050000</speed>
</trkpt>
<trkpt lat="56.068493" lon="26.470335">
<ele>111.305725</ele>
<time>2010-06-20T10:52:38Z</time>
<desc>lat.=56.068493, lon.=26.470335, Alt.=111.305725m. Speed=10.944000m/h.</desc>
<speed>3.040000</speed>
</trkpt>
<trkpt lat="56.068504" lon="26.470381">
<ele>110.854553</ele>
<time>2010-06-20T10:52:39Z</time>
<desc>lat.=56.068504, lon.=26.470381, Alt.=110.854553m. Speed=11.124000m/h.</desc>
<speed>3.090000</speed>
</trkpt>
<trkpt lat="56.068516" lon="26.470427">
<ele>111.440491</ele>
<time>2010-06-20T10:52:40Z</time>
<desc>lat.=56.068516, lon.=26.470427, Alt.=111.440491m. Speed=10.332000m/h.</desc>
<speed>2.870000</speed>
</trkpt>
<trkpt lat="56.068531" lon="26.470461">
<ele>110.889709</ele>
<time>2010-06-20T10:52:41Z</time>
<desc>lat.=56.068531, lon.=26.470461, Alt.=110.889709m. Speed=10.728000m/h.</desc>
<speed>2.980000</speed>
</trkpt>
<trkpt lat="56.068542" lon="26.470499">
<ele>110.678772</ele>
<time>2010-06-20T10:52:42Z</time>
<desc>lat.=56.068542, lon.=26.470499, Alt.=110.678772m. Speed=10.548000m/h.</desc>
<speed>2.930000</speed>
</trkpt>
<trkpt lat="56.068546" lon="26.470541">
<ele>109.760803</ele>
<time>2010-06-20T10:52:43Z</time>
<desc>lat.=56.068546, lon.=26.470541, Alt.=109.760803m. Speed=10.440000m/h.</desc>
<speed>2.900000</speed>
</trkpt>
<trkpt lat="56.068554" lon="26.470587">
<ele>109.499084</ele>
<time>2010-06-20T10:52:44Z</time>
<desc>lat.=56.068554, lon.=26.470587, Alt.=109.499084m. Speed=10.656000m/h.</desc>
<speed>2.960000</speed>
</trkpt>
<trkpt lat="56.068554" lon="26.470631">
<ele>109.842834</ele>
<time>2010-06-20T10:52:45Z</time>
<desc>lat.=56.068554, lon.=26.470631, Alt.=109.842834m. Speed=10.908000m/h.</desc>
<speed>3.030000</speed>
</trkpt>
<trkpt lat="56.068558" lon="26.470671">
<ele>109.731506</ele>
<time>2010-06-20T10:52:46Z</time>
<desc>lat.=56.068558, lon.=26.470671, Alt.=109.731506m. Speed=10.044000m/h.</desc>
<speed>2.790000</speed>
</trkpt>
<trkpt lat="56.068558" lon="26.470711">
<ele>109.805725</ele>
<time>2010-06-20T10:52:47Z</time>
<desc>lat.=56.068558, lon.=26.470711, Alt.=109.805725m. Speed=9.252000m/h.</desc>
<speed>2.570000</speed>
</trkpt>
<trkpt lat="56.068562" lon="26.470745">
<ele>111.551819</ele>
<time>2010-06-20T10:52:48Z</time>
<desc>lat.=56.068562, lon.=26.470745, Alt.=111.551819m. Speed=7.524000m/h.</desc>
<speed>2.090000</speed>
</trkpt>
<trkpt lat="56.068562" lon="26.470783">
<ele>111.952209</ele>
<time>2010-06-20T10:52:49Z</time>
<desc>lat.=56.068562, lon.=26.470783, Alt.=111.952209m. Speed=8.028000m/h.</desc>
<speed>2.230000</speed>
</trkpt>
<trkpt lat="56.068562" lon="26.470818">
<ele>112.397522</ele>
<time>2010-06-20T10:52:50Z</time>
<desc>lat.=56.068562, lon.=26.470818, Alt.=112.397522m. Speed=8.532000m/h.</desc>
<speed>2.370000</speed>
</trkpt>
<trkpt lat="56.068550" lon="26.470856">
<ele>112.813538</ele>
<time>2010-06-20T10:52:51Z</time>
<desc>lat.=56.068550, lon.=26.470856, Alt.=112.813538m. Speed=8.568000m/h.</desc>
<speed>2.380000</speed>
</trkpt>
<trkpt lat="56.068535" lon="26.470888">
<ele>113.229553</ele>
<time>2010-06-20T10:52:52Z</time>
<desc>lat.=56.068535, lon.=26.470888, Alt.=113.229553m. Speed=8.928000m/h.</desc>
<speed>2.480000</speed>
</trkpt>
<trkpt lat="56.068523" lon="26.470932">
<ele>113.737366</ele>
<time>2010-06-20T10:52:53Z</time>
<desc>lat.=56.068523, lon.=26.470932, Alt.=113.737366m. Speed=9.864000m/h.</desc>
<speed>2.740000</speed>
</trkpt>
<trkpt lat="56.068508" lon="26.470972">
<ele>114.106506</ele>
<time>2010-06-20T10:52:54Z</time>
<desc>lat.=56.068508, lon.=26.470972, Alt.=114.106506m. Speed=9.684000m/h.</desc>
<speed>2.690000</speed>
</trkpt>
<trkpt lat="56.068489" lon="26.471006">
<ele>114.573303</ele>
<time>2010-06-20T10:52:55Z</time>
<desc>lat.=56.068489, lon.=26.471006, Alt.=114.573303m. Speed=9.000000m/h.</desc>
<speed>2.500000</speed>
</trkpt>
<trkpt lat="56.068474" lon="26.471037">
<ele>115.100647</ele>
<time>2010-06-20T10:52:56Z</time>
<desc>lat.=56.068474, lon.=26.471037, Alt.=115.100647m. Speed=9.324000m/h.</desc>
<speed>2.590000</speed>
</trkpt>
<trkpt lat="56.068455" lon="26.471073">
<ele>115.864319</ele>
<time>2010-06-20T10:52:57Z</time>
<desc>lat.=56.068455, lon.=26.471073, Alt.=115.864319m. Speed=10.908000m/h.</desc>
<speed>3.030000</speed>
</trkpt>
<trkpt lat="56.068439" lon="26.471100">
<ele>116.483459</ele>
<time>2010-06-20T10:52:58Z</time>
<desc>lat.=56.068439, lon.=26.471100, Alt.=116.483459m. Speed=8.784000m/h.</desc>
<speed>2.440000</speed>
</trkpt>
<trkpt lat="56.068420" lon="26.471125">
<ele>117.309631</ele>
<time>2010-06-20T10:52:59Z</time>
<desc>lat.=56.068420, lon.=26.471125, Alt.=117.309631m. Speed=10.188000m/h.</desc>
<speed>2.830000</speed>
</trkpt>
<trkpt lat="56.068398" lon="26.471157">
<ele>117.704163</ele>
<time>2010-06-20T10:53:00Z</time>
<desc>lat.=56.068398, lon.=26.471157, Alt.=117.704163m. Speed=13.752000m/h.</desc>
<speed>3.820000</speed>
</trkpt>
<trkpt lat="56.068371" lon="26.471193">
<ele>118.387756</ele>
<time>2010-06-20T10:53:01Z</time>
<desc>lat.=56.068371, lon.=26.471193, Alt.=118.387756m. Speed=11.556000m/h.</desc>
<speed>3.210000</speed>
</trkpt>
<trkpt lat="56.068352" lon="26.471216">
<ele>118.461975</ele>
<time>2010-06-20T10:53:02Z</time>
<desc>lat.=56.068352, lon.=26.471216, Alt.=118.461975m. Speed=11.052000m/h.</desc>
<speed>3.070000</speed>
</trkpt>
<trkpt lat="56.068325" lon="26.471254">
<ele>118.493225</ele>
<time>2010-06-20T10:53:03Z</time>
<desc>lat.=56.068325, lon.=26.471254, Alt.=118.493225m. Speed=11.592000m/h.</desc>
<speed>3.220000</speed>
</trkpt>
<trkpt lat="56.068298" lon="26.471289">
<ele>118.721741</ele>
<time>2010-06-20T10:53:04Z</time>
<desc>lat.=56.068298, lon.=26.471289, Alt.=118.721741m. Speed=11.952000m/h.</desc>
<speed>3.320000</speed>
</trkpt>
<trkpt lat="56.068272" lon="26.471319">
<ele>119.094788</ele>
<time>2010-06-20T10:53:05Z</time>
<desc>lat.=56.068272, lon.=26.471319, Alt.=119.094788m. Speed=11.772000m/h.</desc>
<speed>3.270000</speed>
</trkpt>
<trkpt lat="56.068245" lon="26.471348">
<ele>119.096741</ele>
<time>2010-06-20T10:53:06Z</time>
<desc>lat.=56.068245, lon.=26.471348, Alt.=119.096741m. Speed=12.420000m/h.</desc>
<speed>3.450000</speed>
</trkpt>
<trkpt lat="56.068214" lon="26.471382">
<ele>118.807678</ele>
<time>2010-06-20T10:53:07Z</time>
<desc>lat.=56.068214, lon.=26.471382, Alt.=118.807678m. Speed=12.132000m/h.</desc>
<speed>3.370000</speed>
</trkpt>
<trkpt lat="56.068188" lon="26.471411">
<ele>119.260803</ele>
<time>2010-06-20T10:53:08Z</time>
<desc>lat.=56.068188, lon.=26.471411, Alt.=119.260803m. Speed=12.240000m/h.</desc>
<speed>3.400000</speed>
</trkpt>
<trkpt lat="56.068161" lon="26.471437">
<ele>119.381897</ele>
<time>2010-06-20T10:53:09Z</time>
<desc>lat.=56.068161, lon.=26.471437, Alt.=119.381897m. Speed=12.240000m/h.</desc>
<speed>3.400000</speed>
</trkpt>
<trkpt lat="56.068127" lon="26.471481">
<ele>118.379944</ele>
<time>2010-06-20T10:53:10Z</time>
<desc>lat.=56.068127, lon.=26.471481, Alt.=118.379944m. Speed=12.348000m/h.</desc>
<speed>3.430000</speed>
</trkpt>
<trkpt lat="56.068100" lon="26.471508">
<ele>118.247131</ele>
<time>2010-06-20T10:53:11Z</time>
<desc>lat.=56.068100, lon.=26.471508, Alt.=118.247131m. Speed=12.276000m/h.</desc>
<speed>3.410000</speed>
</trkpt>
<trkpt lat="56.068073" lon="26.471539">
<ele>118.559631</ele>
<time>2010-06-20T10:53:12Z</time>
<desc>lat.=56.068073, lon.=26.471539, Alt.=118.559631m. Speed=13.356000m/h.</desc>
<speed>3.710000</speed>
</trkpt>
<trkpt lat="56.068043" lon="26.471581">
<ele>118.411194</ele>
<time>2010-06-20T10:53:13Z</time>
<desc>lat.=56.068043, lon.=26.471581, Alt.=118.411194m. Speed=13.644000m/h.</desc>
<speed>3.790000</speed>
</trkpt>
<trkpt lat="56.068012" lon="26.471619">
<ele>118.008850</ele>
<time>2010-06-20T10:53:14Z</time>
<desc>lat.=56.068012, lon.=26.471619, Alt.=118.008850m. Speed=12.636000m/h.</desc>
<speed>3.510000</speed>
</trkpt>
<trkpt lat="56.067986" lon="26.471642">
<ele>118.032288</ele>
<time>2010-06-20T10:53:15Z</time>
<desc>lat.=56.067986, lon.=26.471642, Alt.=118.032288m. Speed=10.764000m/h.</desc>
<speed>2.990000</speed>
</trkpt>
<trkpt lat="56.067959" lon="26.471672">
<ele>118.395569</ele>
<time>2010-06-20T10:53:16Z</time>
<desc>lat.=56.067959, lon.=26.471672, Alt.=118.395569m. Speed=11.448000m/h.</desc>
<speed>3.180000</speed>
</trkpt>
<trkpt lat="56.067928" lon="26.471716">
<ele>118.133850</ele>
<time>2010-06-20T10:53:17Z</time>
<desc>lat.=56.067928, lon.=26.471716, Alt.=118.133850m. Speed=12.132000m/h.</desc>
<speed>3.370000</speed>
</trkpt>
<trkpt lat="56.067902" lon="26.471752">
<ele>118.237366</ele>
<time>2010-06-20T10:53:18Z</time>
<desc>lat.=56.067902, lon.=26.471752, Alt.=118.237366m. Speed=14.184000m/h.</desc>
<speed>3.940000</speed>
</trkpt>
<trkpt lat="56.067860" lon="26.471804">
<ele>117.360413</ele>
<time>2010-06-20T10:53:19Z</time>
<desc>lat.=56.067860, lon.=26.471804, Alt.=117.360413m. Speed=16.848000m/h.</desc>
<speed>4.680000</speed>
</trkpt>
<trkpt lat="56.067822" lon="26.471853">
<ele>116.874084</ele>
<time>2010-06-20T10:53:20Z</time>
<desc>lat.=56.067822, lon.=26.471853, Alt.=116.874084m. Speed=15.480000m/h.</desc>
<speed>4.300000</speed>
</trkpt>
<trkpt lat="56.067787" lon="26.471895">
<ele>116.838928</ele>
<time>2010-06-20T10:53:21Z</time>
<desc>lat.=56.067787, lon.=26.471895, Alt.=116.838928m. Speed=15.912000m/h.</desc>
<speed>4.420000</speed>
</trkpt>
<trkpt lat="56.067757" lon="26.471935">
<ele>116.549866</ele>
<time>2010-06-20T10:53:22Z</time>
<desc>lat.=56.067757, lon.=26.471935, Alt.=116.549866m. Speed=14.472000m/h.</desc>
<speed>4.020000</speed>
</trkpt>
<trkpt lat="56.067722" lon="26.471975">
<ele>116.127991</ele>
<time>2010-06-20T10:53:23Z</time>
<desc>lat.=56.067722, lon.=26.471975, Alt.=116.127991m. Speed=15.804000m/h.</desc>
<speed>4.390000</speed>
</trkpt>
<trkpt lat="56.067692" lon="26.472013">
<ele>115.866272</ele>
<time>2010-06-20T10:53:24Z</time>
<desc>lat.=56.067692, lon.=26.472013, Alt.=115.866272m. Speed=15.264000m/h.</desc>
<speed>4.240000</speed>
</trkpt>
<trkpt lat="56.067661" lon="26.472054">
<ele>115.639709</ele>
<time>2010-06-20T10:53:25Z</time>
<desc>lat.=56.067661, lon.=26.472054, Alt.=115.639709m. Speed=14.940000m/h.</desc>
<speed>4.150000</speed>
</trkpt>
<trkpt lat="56.067627" lon="26.472101">
<ele>114.950256</ele>
<time>2010-06-20T10:53:26Z</time>
<desc>lat.=56.067627, lon.=26.472101, Alt.=114.950256m. Speed=16.596001m/h.</desc>
<speed>4.610000</speed>
</trkpt>
<trkpt lat="56.067593" lon="26.472136">
<ele>114.469788</ele>
<time>2010-06-20T10:53:27Z</time>
<desc>lat.=56.067593, lon.=26.472136, Alt.=114.469788m. Speed=16.236000m/h.</desc>
<speed>4.510000</speed>
</trkpt>
<trkpt lat="56.067554" lon="26.472174">
<ele>114.340881</ele>
<time>2010-06-20T10:53:28Z</time>
<desc>lat.=56.067554, lon.=26.472174, Alt.=114.340881m. Speed=16.236000m/h.</desc>
<speed>4.510000</speed>
</trkpt>
<trkpt lat="56.067520" lon="26.472214">
<ele>114.344788</ele>
<time>2010-06-20T10:53:29Z</time>
<desc>lat.=56.067520, lon.=26.472214, Alt.=114.344788m. Speed=16.128000m/h.</desc>
<speed>4.480000</speed>
</trkpt>
<trkpt lat="56.067482" lon="26.472254">
<ele>114.491272</ele>
<time>2010-06-20T10:53:30Z</time>
<desc>lat.=56.067482, lon.=26.472254, Alt.=114.491272m. Speed=15.516000m/h.</desc>
<speed>4.310000</speed>
</trkpt>
<trkpt lat="56.067448" lon="26.472290">
<ele>114.616272</ele>
<time>2010-06-20T10:53:31Z</time>
<desc>lat.=56.067448, lon.=26.472290, Alt.=114.616272m. Speed=15.264000m/h.</desc>
<speed>4.240000</speed>
</trkpt>
<trkpt lat="56.067413" lon="26.472319">
<ele>114.795959</ele>
<time>2010-06-20T10:53:32Z</time>
<desc>lat.=56.067413, lon.=26.472319, Alt.=114.795959m. Speed=14.436000m/h.</desc>
<speed>4.010000</speed>
</trkpt>
<trkpt lat="56.067383" lon="26.472353">
<ele>114.696350</ele>
<time>2010-06-20T10:53:33Z</time>
<desc>lat.=56.067383, lon.=26.472353, Alt.=114.696350m. Speed=13.464000m/h.</desc>
<speed>3.740000</speed>
</trkpt>
<trkpt lat="56.067352" lon="26.472378">
<ele>114.499084</ele>
<time>2010-06-20T10:53:34Z</time>
<desc>lat.=56.067352, lon.=26.472378, Alt.=114.499084m. Speed=13.788000m/h.</desc>
<speed>3.830000</speed>
</trkpt>
<trkpt lat="56.067322" lon="26.472403">
<ele>114.790100</ele>
<time>2010-06-20T10:53:35Z</time>
<desc>lat.=56.067322, lon.=26.472403, Alt.=114.790100m. Speed=13.824000m/h.</desc>
<speed>3.840000</speed>
</trkpt>
<trkpt lat="56.067284" lon="26.472433">
<ele>115.077209</ele>
<time>2010-06-20T10:53:36Z</time>
<desc>lat.=56.067284, lon.=26.472433, Alt.=115.077209m. Speed=13.896000m/h.</desc>
<speed>3.860000</speed>
</trkpt>
<trkpt lat="56.067249" lon="26.472469">
<ele>114.340881</ele>
<time>2010-06-20T10:53:37Z</time>
<desc>lat.=56.067249, lon.=26.472469, Alt.=114.340881m. Speed=14.112000m/h.</desc>
<speed>3.920000</speed>
</trkpt>
<trkpt lat="56.067223" lon="26.472500">
<ele>114.157288</ele>
<time>2010-06-20T10:53:38Z</time>
<desc>lat.=56.067223, lon.=26.472500, Alt.=114.157288m. Speed=11.880000m/h.</desc>
<speed>3.300000</speed>
</trkpt>
<trkpt lat="56.067200" lon="26.472540">
<ele>114.186584</ele>
<time>2010-06-20T10:53:39Z</time>
<desc>lat.=56.067200, lon.=26.472540, Alt.=114.186584m. Speed=12.276000m/h.</desc>
<speed>3.410000</speed>
</trkpt>
<trkpt lat="56.067177" lon="26.472584">
<ele>114.071350</ele>
<time>2010-06-20T10:53:40Z</time>
<desc>lat.=56.067177, lon.=26.472584, Alt.=114.071350m. Speed=12.636000m/h.</desc>
<speed>3.510000</speed>
</trkpt>
<trkpt lat="56.067146" lon="26.472620">
<ele>113.544006</ele>
<time>2010-06-20T10:53:41Z</time>
<desc>lat.=56.067146, lon.=26.472620, Alt.=113.544006m. Speed=14.256000m/h.</desc>
<speed>3.960000</speed>
</trkpt>
<trkpt lat="56.067116" lon="26.472649">
<ele>113.180725</ele>
<time>2010-06-20T10:53:42Z</time>
<desc>lat.=56.067116, lon.=26.472649, Alt.=113.180725m. Speed=14.832000m/h.</desc>
<speed>4.120000</speed>
</trkpt>
<trkpt lat="56.067078" lon="26.472679">
<ele>113.376038</ele>
<time>2010-06-20T10:53:43Z</time>
<desc>lat.=56.067078, lon.=26.472679, Alt.=113.376038m. Speed=15.552000m/h.</desc>
<speed>4.320000</speed>
</trkpt>
<trkpt lat="56.067039" lon="26.472708">
<ele>113.360413</ele>
<time>2010-06-20T10:53:44Z</time>
<desc>lat.=56.067039, lon.=26.472708, Alt.=113.360413m. Speed=15.516000m/h.</desc>
<speed>4.310000</speed>
</trkpt>
<trkpt lat="56.067005" lon="26.472742">
<ele>113.147522</ele>
<time>2010-06-20T10:53:45Z</time>
<desc>lat.=56.067005, lon.=26.472742, Alt.=113.147522m. Speed=16.596001m/h.</desc>
<speed>4.610000</speed>
</trkpt>
<trkpt lat="56.066978" lon="26.472761">
<ele>115.592834</ele>
<time>2010-06-20T10:53:46Z</time>
<desc>lat.=56.066978, lon.=26.472761, Alt.=115.592834m. Speed=15.696000m/h.</desc>
<speed>4.360000</speed>
</trkpt>
<trkpt lat="56.066940" lon="26.472801">
<ele>115.502991</ele>
<time>2010-06-20T10:53:47Z</time>
<desc>lat.=56.066940, lon.=26.472801, Alt.=115.502991m. Speed=14.940000m/h.</desc>
<speed>4.150000</speed>
</trkpt>
<trkpt lat="56.066906" lon="26.472836">
<ele>115.868225</ele>
<time>2010-06-20T10:53:48Z</time>
<desc>lat.=56.066906, lon.=26.472836, Alt.=115.868225m. Speed=14.364000m/h.</desc>
<speed>3.990000</speed>
</trkpt>
<trkpt lat="56.066875" lon="26.472874">
<ele>115.501038</ele>
<time>2010-06-20T10:53:49Z</time>
<desc>lat.=56.066875, lon.=26.472874, Alt.=115.501038m. Speed=13.104000m/h.</desc>
<speed>3.640000</speed>
</trkpt>
<trkpt lat="56.066849" lon="26.472904">
<ele>115.858459</ele>
<time>2010-06-20T10:53:50Z</time>
<desc>lat.=56.066849, lon.=26.472904, Alt.=115.858459m. Speed=13.752000m/h.</desc>
<speed>3.820000</speed>
</trkpt>
<trkpt lat="56.066814" lon="26.472939">
<ele>115.932678</ele>
<time>2010-06-20T10:53:51Z</time>
<desc>lat.=56.066814, lon.=26.472939, Alt.=115.932678m. Speed=14.184000m/h.</desc>
<speed>3.940000</speed>
</trkpt>
<trkpt lat="56.066784" lon="26.472975">
<ele>115.942444</ele>
<time>2010-06-20T10:53:52Z</time>
<desc>lat.=56.066784, lon.=26.472975, Alt.=115.942444m. Speed=13.968000m/h.</desc>
<speed>3.880000</speed>
</trkpt>
<trkpt lat="56.066753" lon="26.473011">
<ele>116.145569</ele>
<time>2010-06-20T10:53:53Z</time>
<desc>lat.=56.066753, lon.=26.473011, Alt.=116.145569m. Speed=12.276000m/h.</desc>
<speed>3.410000</speed>
</trkpt>
<trkpt lat="56.066730" lon="26.473047">
<ele>116.243225</ele>
<time>2010-06-20T10:53:54Z</time>
<desc>lat.=56.066730, lon.=26.473047, Alt.=116.243225m. Speed=12.240000m/h.</desc>
<speed>3.400000</speed>
</trkpt>
<trkpt lat="56.066704" lon="26.473082">
<ele>116.223694</ele>
<time>2010-06-20T10:53:55Z</time>
<desc>lat.=56.066704, lon.=26.473082, Alt.=116.223694m. Speed=11.772000m/h.</desc>
<speed>3.270000</speed>
</trkpt>
<trkpt lat="56.066677" lon="26.473114">
<ele>116.614319</ele>
<time>2010-06-20T10:53:56Z</time>
<desc>lat.=56.066677, lon.=26.473114, Alt.=116.614319m. Speed=11.844000m/h.</desc>
<speed>3.290000</speed>
</trkpt>
<trkpt lat="56.066647" lon="26.473152">
<ele>115.821350</ele>
<time>2010-06-20T10:53:57Z</time>
<desc>lat.=56.066647, lon.=26.473152, Alt.=115.821350m. Speed=11.628000m/h.</desc>
<speed>3.230000</speed>
</trkpt>
<trkpt lat="56.066620" lon="26.473175">
<ele>115.860413</ele>
<time>2010-06-20T10:53:58Z</time>
<desc>lat.=56.066620, lon.=26.473175, Alt.=115.860413m. Speed=12.528000m/h.</desc>
<speed>3.480000</speed>
</trkpt>
<trkpt lat="56.066597" lon="26.473204">
<ele>116.114319</ele>
<time>2010-06-20T10:53:59Z</time>
<desc>lat.=56.066597, lon.=26.473204, Alt.=116.114319m. Speed=12.996000m/h.</desc>
<speed>3.610000</speed>
</trkpt>
<trkpt lat="56.066570" lon="26.473242">
<ele>115.926819</ele>
<time>2010-06-20T10:54:00Z</time>
<desc>lat.=56.066570, lon.=26.473242, Alt.=115.926819m. Speed=12.924000m/h.</desc>
<speed>3.590000</speed>
</trkpt>
<trkpt lat="56.066547" lon="26.473282">
<ele>115.889709</ele>
<time>2010-06-20T10:54:01Z</time>
<desc>lat.=56.066547, lon.=26.473282, Alt.=115.889709m. Speed=14.004000m/h.</desc>
<speed>3.890000</speed>
</trkpt>
<trkpt lat="56.066521" lon="26.473324">
<ele>115.510803</ele>
<time>2010-06-20T10:54:02Z</time>
<desc>lat.=56.066521, lon.=26.473324, Alt.=115.510803m. Speed=13.680000m/h.</desc>
<speed>3.800000</speed>
</trkpt>
<trkpt lat="56.066490" lon="26.473364">
<ele>114.725647</ele>
<time>2010-06-20T10:54:03Z</time>
<desc>lat.=56.066490, lon.=26.473364, Alt.=114.725647m. Speed=14.040000m/h.</desc>
<speed>3.900000</speed>
</trkpt>
<trkpt lat="56.066456" lon="26.473402">
<ele>114.053772</ele>
<time>2010-06-20T10:54:04Z</time>
<desc>lat.=56.066456, lon.=26.473402, Alt.=114.053772m. Speed=13.464000m/h.</desc>
<speed>3.740000</speed>
</trkpt>
<trkpt lat="56.066422" lon="26.473436">
<ele>113.827209</ele>
<time>2010-06-20T10:54:05Z</time>
<desc>lat.=56.066422, lon.=26.473436, Alt.=113.827209m. Speed=14.040000m/h.</desc>
<speed>3.900000</speed>
</trkpt>
<trkpt lat="56.066391" lon="26.473476">
<ele>113.432678</ele>
<time>2010-06-20T10:54:06Z</time>
<desc>lat.=56.066391, lon.=26.473476, Alt.=113.432678m. Speed=14.436000m/h.</desc>
<speed>4.010000</speed>
</trkpt>
<trkpt lat="56.066357" lon="26.473513">
<ele>113.221741</ele>
<time>2010-06-20T10:54:07Z</time>
<desc>lat.=56.066357, lon.=26.473513, Alt.=113.221741m. Speed=15.048000m/h.</desc>
<speed>4.180000</speed>
</trkpt>
<trkpt lat="56.066326" lon="26.473547">
<ele>112.917053</ele>
<time>2010-06-20T10:54:08Z</time>
<desc>lat.=56.066326, lon.=26.473547, Alt.=112.917053m. Speed=15.732000m/h.</desc>
<speed>4.370000</speed>
</trkpt>
<trkpt lat="56.066296" lon="26.473581">
<ele>112.485413</ele>
<time>2010-06-20T10:54:09Z</time>
<desc>lat.=56.066296, lon.=26.473581, Alt.=112.485413m. Speed=15.804000m/h.</desc>
<speed>4.390000</speed>
</trkpt>
<trkpt lat="56.066261" lon="26.473619">
<ele>112.135803</ele>
<time>2010-06-20T10:54:10Z</time>
<desc>lat.=56.066261, lon.=26.473619, Alt.=112.135803m. Speed=14.544000m/h.</desc>
<speed>4.040000</speed>
</trkpt>
<trkpt lat="56.066235" lon="26.473656">
<ele>112.100647</ele>
<time>2010-06-20T10:54:11Z</time>
<desc>lat.=56.066235, lon.=26.473656, Alt.=112.100647m. Speed=14.976000m/h.</desc>
<speed>4.160000</speed>
</trkpt>
<trkpt lat="56.066204" lon="26.473692">
<ele>112.256897</ele>
<time>2010-06-20T10:54:12Z</time>
<desc>lat.=56.066204, lon.=26.473692, Alt.=112.256897m. Speed=16.236000m/h.</desc>
<speed>4.510000</speed>
</trkpt>
<trkpt lat="56.066170" lon="26.473732">
<ele>111.920959</ele>
<time>2010-06-20T10:54:13Z</time>
<desc>lat.=56.066170, lon.=26.473732, Alt.=111.920959m. Speed=16.524000m/h.</desc>
<speed>4.590000</speed>
</trkpt>
<trkpt lat="56.066132" lon="26.473776">
<ele>111.495178</ele>
<time>2010-06-20T10:54:14Z</time>
<desc>lat.=56.066132, lon.=26.473776, Alt.=111.495178m. Speed=15.984000m/h.</desc>
<speed>4.440000</speed>
</trkpt>
<trkpt lat="56.066101" lon="26.473814">
<ele>111.469788</ele>
<time>2010-06-20T10:54:15Z</time>
<desc>lat.=56.066101, lon.=26.473814, Alt.=111.469788m. Speed=15.552000m/h.</desc>
<speed>4.320000</speed>
</trkpt>
<trkpt lat="56.066067" lon="26.473854">
<ele>111.374084</ele>
<time>2010-06-20T10:54:16Z</time>
<desc>lat.=56.066067, lon.=26.473854, Alt.=111.374084m. Speed=15.696000m/h.</desc>
<speed>4.360000</speed>
</trkpt>
<trkpt lat="56.066036" lon="26.473886">
<ele>111.792053</ele>
<time>2010-06-20T10:54:17Z</time>
<desc>lat.=56.066036, lon.=26.473886, Alt.=111.792053m. Speed=13.428000m/h.</desc>
<speed>3.730000</speed>
</trkpt>
<trkpt lat="56.066006" lon="26.473921">
<ele>111.866272</ele>
<time>2010-06-20T10:54:18Z</time>
<desc>lat.=56.066006, lon.=26.473921, Alt.=111.866272m. Speed=14.400000m/h.</desc>
<speed>4.000000</speed>
</trkpt>
<trkpt lat="56.065971" lon="26.473959">
<ele>112.178772</ele>
<time>2010-06-20T10:54:19Z</time>
<desc>lat.=56.065971, lon.=26.473959, Alt.=112.178772m. Speed=15.192000m/h.</desc>
<speed>4.220000</speed>
</trkpt>
<trkpt lat="56.065941" lon="26.473995">
<ele>112.655334</ele>
<time>2010-06-20T10:54:20Z</time>
<desc>lat.=56.065941, lon.=26.473995, Alt.=112.655334m. Speed=15.732000m/h.</desc>
<speed>4.370000</speed>
</trkpt>
<trkpt lat="56.065903" lon="26.474039">
<ele>112.655334</ele>
<time>2010-06-20T10:54:21Z</time>
<desc>lat.=56.065903, lon.=26.474039, Alt.=112.655334m. Speed=17.496000m/h.</desc>
<speed>4.860000</speed>
</trkpt>
<trkpt lat="56.065861" lon="26.474106">
<ele>110.036194</ele>
<time>2010-06-20T10:54:22Z</time>
<desc>lat.=56.065861, lon.=26.474106, Alt.=110.036194m. Speed=20.195999m/h.</desc>
<speed>5.610000</speed>
</trkpt>
<trkpt lat="56.065823" lon="26.474148">
<ele>109.764709</ele>
<time>2010-06-20T10:54:23Z</time>
<desc>lat.=56.065823, lon.=26.474148, Alt.=109.764709m. Speed=18.180000m/h.</desc>
<speed>5.050000</speed>
</trkpt>
<trkpt lat="56.065788" lon="26.474186">
<ele>109.825256</ele>
<time>2010-06-20T10:54:24Z</time>
<desc>lat.=56.065788, lon.=26.474186, Alt.=109.825256m. Speed=16.559999m/h.</desc>
<speed>4.600000</speed>
</trkpt>
<trkpt lat="56.065754" lon="26.474224">
<ele>109.715881</ele>
<time>2010-06-20T10:54:25Z</time>
<desc>lat.=56.065754, lon.=26.474224, Alt.=109.715881m. Speed=15.084000m/h.</desc>
<speed>4.190000</speed>
</trkpt>
<trkpt lat="56.065723" lon="26.474258">
<ele>109.585022</ele>
<time>2010-06-20T10:54:26Z</time>
<desc>lat.=56.065723, lon.=26.474258, Alt.=109.585022m. Speed=14.724000m/h.</desc>
<speed>4.090000</speed>
</trkpt>
<trkpt lat="56.065693" lon="26.474293">
<ele>109.540100</ele>
<time>2010-06-20T10:54:27Z</time>
<desc>lat.=56.065693, lon.=26.474293, Alt.=109.540100m. Speed=13.500000m/h.</desc>
<speed>3.750000</speed>
</trkpt>
<trkpt lat="56.065662" lon="26.474329">
<ele>109.739319</ele>
<time>2010-06-20T10:54:28Z</time>
<desc>lat.=56.065662, lon.=26.474329, Alt.=109.739319m. Speed=15.228000m/h.</desc>
<speed>4.230000</speed>
</trkpt>
<trkpt lat="56.065628" lon="26.474363">
<ele>109.891663</ele>
<time>2010-06-20T10:54:29Z</time>
<desc>lat.=56.065628, lon.=26.474363, Alt.=109.891663m. Speed=14.724000m/h.</desc>
<speed>4.090000</speed>
</trkpt>
<trkpt lat="56.065594" lon="26.474400">
<ele>109.393616</ele>
<time>2010-06-20T10:54:30Z</time>
<desc>lat.=56.065594, lon.=26.474400, Alt.=109.393616m. Speed=14.616000m/h.</desc>
<speed>4.060000</speed>
</trkpt>
<trkpt lat="56.065559" lon="26.474430">
<ele>109.376038</ele>
<time>2010-06-20T10:54:31Z</time>
<desc>lat.=56.065559, lon.=26.474430, Alt.=109.376038m. Speed=16.308001m/h.</desc>
<speed>4.530000</speed>
</trkpt>
<trkpt lat="56.065525" lon="26.474464">
<ele>109.260803</ele>
<time>2010-06-20T10:54:32Z</time>
<desc>lat.=56.065525, lon.=26.474464, Alt.=109.260803m. Speed=16.308001m/h.</desc>
<speed>4.530000</speed>
</trkpt>
<trkpt lat="56.065487" lon="26.474503">
<ele>109.241272</ele>
<time>2010-06-20T10:54:33Z</time>
<desc>lat.=56.065487, lon.=26.474503, Alt.=109.241272m. Speed=16.344000m/h.</desc>
<speed>4.540000</speed>
</trkpt>
<trkpt lat="56.065456" lon="26.474535">
<ele>109.206116</ele>
<time>2010-06-20T10:54:34Z</time>
<desc>lat.=56.065456, lon.=26.474535, Alt.=109.206116m. Speed=15.264000m/h.</desc>
<speed>4.240000</speed>
</trkpt>
<trkpt lat="56.065422" lon="26.474569">
<ele>109.112366</ele>
<time>2010-06-20T10:54:35Z</time>
<desc>lat.=56.065422, lon.=26.474569, Alt.=109.112366m. Speed=15.048000m/h.</desc>
<speed>4.180000</speed>
</trkpt>
<trkpt lat="56.065392" lon="26.474602">
<ele>109.172913</ele>
<time>2010-06-20T10:54:36Z</time>
<desc>lat.=56.065392, lon.=26.474602, Alt.=109.172913m. Speed=14.400000m/h.</desc>
<speed>4.000000</speed>
</trkpt>
<trkpt lat="56.065357" lon="26.474630">
<ele>109.258850</ele>
<time>2010-06-20T10:54:37Z</time>
<desc>lat.=56.065357, lon.=26.474630, Alt.=109.258850m. Speed=13.608000m/h.</desc>
<speed>3.780000</speed>
</trkpt>
<trkpt lat="56.065331" lon="26.474657">
<ele>109.512756</ele>
<time>2010-06-20T10:54:38Z</time>
<desc>lat.=56.065331, lon.=26.474657, Alt.=109.512756m. Speed=12.636000m/h.</desc>
<speed>3.510000</speed>
</trkpt>
<trkpt lat="56.065300" lon="26.474688">
<ele>109.524475</ele>
<time>2010-06-20T10:54:39Z</time>
<desc>lat.=56.065300, lon.=26.474688, Alt.=109.524475m. Speed=12.924000m/h.</desc>
<speed>3.590000</speed>
</trkpt>
<trkpt lat="56.065273" lon="26.474722">
<ele>109.426819</ele>
<time>2010-06-20T10:54:40Z</time>
<desc>lat.=56.065273, lon.=26.474722, Alt.=109.426819m. Speed=13.896000m/h.</desc>
<speed>3.860000</speed>
</trkpt>
<trkpt lat="56.065247" lon="26.474758">
<ele>109.381897</ele>
<time>2010-06-20T10:54:41Z</time>
<desc>lat.=56.065247, lon.=26.474758, Alt.=109.381897m. Speed=12.564000m/h.</desc>
<speed>3.490000</speed>
</trkpt>
<trkpt lat="56.065224" lon="26.474792">
<ele>109.424866</ele>
<time>2010-06-20T10:54:42Z</time>
<desc>lat.=56.065224, lon.=26.474792, Alt.=109.424866m. Speed=11.520000m/h.</desc>
<speed>3.200000</speed>
</trkpt>
<trkpt lat="56.065201" lon="26.474823">
<ele>108.979553</ele>
<time>2010-06-20T10:54:43Z</time>
<desc>lat.=56.065201, lon.=26.474823, Alt.=108.979553m. Speed=13.176000m/h.</desc>
<speed>3.660000</speed>
</trkpt>
<trkpt lat="56.065174" lon="26.474857">
<ele>109.008850</ele>
<time>2010-06-20T10:54:44Z</time>
<desc>lat.=56.065174, lon.=26.474857, Alt.=109.008850m. Speed=11.880000m/h.</desc>
<speed>3.300000</speed>
</trkpt>
<trkpt lat="56.065151" lon="26.474880">
<ele>108.581116</ele>
<time>2010-06-20T10:54:45Z</time>
<desc>lat.=56.065151, lon.=26.474880, Alt.=108.581116m. Speed=8.784000m/h.</desc>
<speed>2.440000</speed>
</trkpt>
<trkpt lat="56.065125" lon="26.474922">
<ele>108.219788</ele>
<time>2010-06-20T10:54:46Z</time>
<desc>lat.=56.065125, lon.=26.474922, Alt.=108.219788m. Speed=11.556000m/h.</desc>
<speed>3.210000</speed>
</trkpt>
<trkpt lat="56.065102" lon="26.474958">
<ele>108.303772</ele>
<time>2010-06-20T10:54:47Z</time>
<desc>lat.=56.065102, lon.=26.474958, Alt.=108.303772m. Speed=13.176000m/h.</desc>
<speed>3.660000</speed>
</trkpt>
<trkpt lat="56.065075" lon="26.474997">
<ele>108.559631</ele>
<time>2010-06-20T10:54:48Z</time>
<desc>lat.=56.065075, lon.=26.474997, Alt.=108.559631m. Speed=11.736000m/h.</desc>
<speed>3.260000</speed>
</trkpt>
<trkpt lat="56.065048" lon="26.475029">
<ele>108.200256</ele>
<time>2010-06-20T10:54:49Z</time>
<desc>lat.=56.065048, lon.=26.475029, Alt.=108.200256m. Speed=11.448000m/h.</desc>
<speed>3.180000</speed>
</trkpt>
<trkpt lat="56.065025" lon="26.475063">
<ele>108.508850</ele>
<time>2010-06-20T10:54:50Z</time>
<desc>lat.=56.065025, lon.=26.475063, Alt.=108.508850m. Speed=12.852000m/h.</desc>
<speed>3.570000</speed>
</trkpt>
<trkpt lat="56.064999" lon="26.475094">
<ele>109.323303</ele>
<time>2010-06-20T10:54:51Z</time>
<desc>lat.=56.064999, lon.=26.475094, Alt.=109.323303m. Speed=11.988000m/h.</desc>
<speed>3.330000</speed>
</trkpt>
<trkpt lat="56.064972" lon="26.475121">
<ele>110.454163</ele>
<time>2010-06-20T10:54:52Z</time>
<desc>lat.=56.064972, lon.=26.475121, Alt.=110.454163m. Speed=12.204000m/h.</desc>
<speed>3.390000</speed>
</trkpt>
<trkpt lat="56.064949" lon="26.475164">
<ele>110.807678</ele>
<time>2010-06-20T10:54:53Z</time>
<desc>lat.=56.064949, lon.=26.475164, Alt.=110.807678m. Speed=13.464000m/h.</desc>
<speed>3.740000</speed>
</trkpt>
<trkpt lat="56.064919" lon="26.475206">
<ele>111.268616</ele>
<time>2010-06-20T10:54:54Z</time>
<desc>lat.=56.064919, lon.=26.475206, Alt.=111.268616m. Speed=14.004000m/h.</desc>
<speed>3.890000</speed>
</trkpt>
<trkpt lat="56.064884" lon="26.475266">
<ele>109.295959</ele>
<time>2010-06-20T10:54:55Z</time>
<desc>lat.=56.064884, lon.=26.475266, Alt.=109.295959m. Speed=13.536000m/h.</desc>
<speed>3.760000</speed>
</trkpt>
<trkpt lat="56.064854" lon="26.475309">
<ele>109.053772</ele>
<time>2010-06-20T10:54:56Z</time>
<desc>lat.=56.064854, lon.=26.475309, Alt.=109.053772m. Speed=16.667999m/h.</desc>
<speed>4.630000</speed>
</trkpt>
<trkpt lat="56.064823" lon="26.475344">
<ele>108.651428</ele>
<time>2010-06-20T10:54:57Z</time>
<desc>lat.=56.064823, lon.=26.475344, Alt.=108.651428m. Speed=9.432000m/h.</desc>
<speed>2.620000</speed>
</trkpt>
<trkpt lat="56.064804" lon="26.475382">
<ele>108.389709</ele>
<time>2010-06-20T10:54:58Z</time>
<desc>lat.=56.064804, lon.=26.475382, Alt.=108.389709m. Speed=11.268000m/h.</desc>
<speed>3.130000</speed>
</trkpt>
<trkpt lat="56.064766" lon="26.475428">
<ele>108.413147</ele>
<time>2010-06-20T10:54:59Z</time>
<desc>lat.=56.064766, lon.=26.475428, Alt.=108.413147m. Speed=23.472000m/h.</desc>
<speed>6.520000</speed>
</trkpt>
<trkpt lat="56.064732" lon="26.475481">
<ele>108.169006</ele>
<time>2010-06-20T10:55:00Z</time>
<desc>lat.=56.064732, lon.=26.475481, Alt.=108.169006m. Speed=14.580000m/h.</desc>
<speed>4.050000</speed>
</trkpt>
<trkpt lat="56.064705" lon="26.475527">
<ele>107.948303</ele>
<time>2010-06-20T10:55:01Z</time>
<desc>lat.=56.064705, lon.=26.475527, Alt.=107.948303m. Speed=15.444000m/h.</desc>
<speed>4.290000</speed>
</trkpt>
<trkpt lat="56.064674" lon="26.475576">
<ele>107.669006</ele>
<time>2010-06-20T10:55:02Z</time>
<desc>lat.=56.064674, lon.=26.475576, Alt.=107.669006m. Speed=15.048000m/h.</desc>
<speed>4.180000</speed>
</trkpt>
<trkpt lat="56.064648" lon="26.475622">
<ele>107.297913</ele>
<time>2010-06-20T10:55:03Z</time>
<desc>lat.=56.064648, lon.=26.475622, Alt.=107.297913m. Speed=15.372000m/h.</desc>
<speed>4.270000</speed>
</trkpt>
<trkpt lat="56.064617" lon="26.475662">
<ele>107.032288</ele>
<time>2010-06-20T10:55:04Z</time>
<desc>lat.=56.064617, lon.=26.475662, Alt.=107.032288m. Speed=14.364000m/h.</desc>
<speed>3.990000</speed>
</trkpt>
<trkpt lat="56.064590" lon="26.475706">
<ele>107.159241</ele>
<time>2010-06-20T10:55:05Z</time>
<desc>lat.=56.064590, lon.=26.475706, Alt.=107.159241m. Speed=15.912000m/h.</desc>
<speed>4.420000</speed>
</trkpt>
<trkpt lat="56.064564" lon="26.475756">
<ele>107.465881</ele>
<time>2010-06-20T10:55:06Z</time>
<desc>lat.=56.064564, lon.=26.475756, Alt.=107.465881m. Speed=15.876000m/h.</desc>
<speed>4.410000</speed>
</trkpt>
<trkpt lat="56.064537" lon="26.475809">
<ele>107.864319</ele>
<time>2010-06-20T10:55:07Z</time>
<desc>lat.=56.064537, lon.=26.475809, Alt.=107.864319m. Speed=15.192000m/h.</desc>
<speed>4.220000</speed>
</trkpt>
<trkpt lat="56.064510" lon="26.475861">
<ele>108.217834</ele>
<time>2010-06-20T10:55:08Z</time>
<desc>lat.=56.064510, lon.=26.475861, Alt.=108.217834m. Speed=14.436000m/h.</desc>
<speed>4.010000</speed>
</trkpt>
<trkpt lat="56.064484" lon="26.475910">
<ele>108.127991</ele>
<time>2010-06-20T10:55:09Z</time>
<desc>lat.=56.064484, lon.=26.475910, Alt.=108.127991m. Speed=14.904000m/h.</desc>
<speed>4.140000</speed>
</trkpt>
<trkpt lat="56.064457" lon="26.475950">
<ele>107.905334</ele>
<time>2010-06-20T10:55:10Z</time>
<desc>lat.=56.064457, lon.=26.475950, Alt.=107.905334m. Speed=13.428000m/h.</desc>
<speed>3.730000</speed>
</trkpt>
<trkpt lat="56.064438" lon="26.475990">
<ele>108.434631</ele>
<time>2010-06-20T10:55:11Z</time>
<desc>lat.=56.064438, lon.=26.475990, Alt.=108.434631m. Speed=14.184000m/h.</desc>
<speed>3.940000</speed>
</trkpt>
<trkpt lat="56.064415" lon="26.476023">
<ele>108.911194</ele>
<time>2010-06-20T10:55:12Z</time>
<desc>lat.=56.064415, lon.=26.476023, Alt.=108.911194m. Speed=11.628000m/h.</desc>
<speed>3.230000</speed>
</trkpt>
<trkpt lat="56.064400" lon="26.476057">
<ele>109.811584</ele>
<time>2010-06-20T10:55:13Z</time>
<desc>lat.=56.064400, lon.=26.476057, Alt.=109.811584m. Speed=12.240000m/h.</desc>
<speed>3.400000</speed>
</trkpt>
<trkpt lat="56.064381" lon="26.476088">
<ele>111.354553</ele>
<time>2010-06-20T10:55:14Z</time>
<desc>lat.=56.064381, lon.=26.476088, Alt.=111.354553m. Speed=12.024000m/h.</desc>
<speed>3.340000</speed>
</trkpt>
<trkpt lat="56.064358" lon="26.476118">
<ele>111.893616</ele>
<time>2010-06-20T10:55:15Z</time>
<desc>lat.=56.064358, lon.=26.476118, Alt.=111.893616m. Speed=9.504000m/h.</desc>
<speed>2.640000</speed>
</trkpt>
<trkpt lat="56.064339" lon="26.476152">
<ele>112.958069</ele>
<time>2010-06-20T10:55:16Z</time>
<desc>lat.=56.064339, lon.=26.476152, Alt.=112.958069m. Speed=12.420000m/h.</desc>
<speed>3.450000</speed>
</trkpt>
<trkpt lat="56.064316" lon="26.476191">
<ele>113.545959</ele>
<time>2010-06-20T10:55:17Z</time>
<desc>lat.=56.064316, lon.=26.476191, Alt.=113.545959m. Speed=11.340000m/h.</desc>
<speed>3.150000</speed>
</trkpt>
<trkpt lat="56.064293" lon="26.476227">
<ele>114.215881</ele>
<time>2010-06-20T10:55:18Z</time>
<desc>lat.=56.064293, lon.=26.476227, Alt.=114.215881m. Speed=11.880000m/h.</desc>
<speed>3.300000</speed>
</trkpt>
<trkpt lat="56.064270" lon="26.476274">
<ele>114.354553</ele>
<time>2010-06-20T10:55:19Z</time>
<desc>lat.=56.064270, lon.=26.476274, Alt.=114.354553m. Speed=14.400000m/h.</desc>
<speed>4.000000</speed>
</trkpt>
<trkpt lat="56.064243" lon="26.476313">
<ele>114.549866</ele>
<time>2010-06-20T10:55:20Z</time>
<desc>lat.=56.064243, lon.=26.476313, Alt.=114.549866m. Speed=12.024000m/h.</desc>
<speed>3.340000</speed>
</trkpt>
<trkpt lat="56.064213" lon="26.476355">
<ele>113.602600</ele>
<time>2010-06-20T10:55:21Z</time>
<desc>lat.=56.064213, lon.=26.476355, Alt.=113.602600m. Speed=13.032000m/h.</desc>
<speed>3.620000</speed>
</trkpt>
<trkpt lat="56.064186" lon="26.476395">
<ele>113.235413</ele>
<time>2010-06-20T10:55:22Z</time>
<desc>lat.=56.064186, lon.=26.476395, Alt.=113.235413m. Speed=12.312000m/h.</desc>
<speed>3.420000</speed>
</trkpt>
<trkpt lat="56.064163" lon="26.476437">
<ele>113.112366</ele>
<time>2010-06-20T10:55:23Z</time>
<desc>lat.=56.064163, lon.=26.476437, Alt.=113.112366m. Speed=13.968000m/h.</desc>
<speed>3.880000</speed>
</trkpt>
<trkpt lat="56.064137" lon="26.476479">
<ele>113.522522</ele>
<time>2010-06-20T10:55:24Z</time>
<desc>lat.=56.064137, lon.=26.476479, Alt.=113.522522m. Speed=13.104000m/h.</desc>
<speed>3.640000</speed>
</trkpt>
<trkpt lat="56.064110" lon="26.476526">
<ele>113.960022</ele>
<time>2010-06-20T10:55:25Z</time>
<desc>lat.=56.064110, lon.=26.476526, Alt.=113.960022m. Speed=13.752000m/h.</desc>
<speed>3.820000</speed>
</trkpt>
<trkpt lat="56.064079" lon="26.476570">
<ele>113.491272</ele>
<time>2010-06-20T10:55:26Z</time>
<desc>lat.=56.064079, lon.=26.476570, Alt.=113.491272m. Speed=13.572000m/h.</desc>
<speed>3.770000</speed>
</trkpt>
<trkpt lat="56.064060" lon="26.476612">
<ele>113.827209</ele>
<time>2010-06-20T10:55:27Z</time>
<desc>lat.=56.064060, lon.=26.476612, Alt.=113.827209m. Speed=11.628000m/h.</desc>
<speed>3.230000</speed>
</trkpt>
<trkpt lat="56.064037" lon="26.476654">
<ele>113.870178</ele>
<time>2010-06-20T10:55:28Z</time>
<desc>lat.=56.064037, lon.=26.476654, Alt.=113.870178m. Speed=13.428000m/h.</desc>
<speed>3.730000</speed>
</trkpt>
<trkpt lat="56.064011" lon="26.476698">
<ele>113.821350</ele>
<time>2010-06-20T10:55:29Z</time>
<desc>lat.=56.064011, lon.=26.476698, Alt.=113.821350m. Speed=12.672000m/h.</desc>
<speed>3.520000</speed>
</trkpt>
<trkpt lat="56.063984" lon="26.476742">
<ele>112.999084</ele>
<time>2010-06-20T10:55:30Z</time>
<desc>lat.=56.063984, lon.=26.476742, Alt.=112.999084m. Speed=15.840000m/h.</desc>
<speed>4.400000</speed>
</trkpt>
<trkpt lat="56.063957" lon="26.476782">
<ele>112.715881</ele>
<time>2010-06-20T10:55:31Z</time>
<desc>lat.=56.063957, lon.=26.476782, Alt.=112.715881m. Speed=10.800000m/h.</desc>
<speed>3.000000</speed>
</trkpt>
<trkpt lat="56.063934" lon="26.476814">
<ele>113.286194</ele>
<time>2010-06-20T10:55:32Z</time>
<desc>lat.=56.063934, lon.=26.476814, Alt.=113.286194m. Speed=13.968000m/h.</desc>
<speed>3.880000</speed>
</trkpt>
<trkpt lat="56.063904" lon="26.476860">
<ele>113.210022</ele>
<time>2010-06-20T10:55:33Z</time>
<desc>lat.=56.063904, lon.=26.476860, Alt.=113.210022m. Speed=13.500000m/h.</desc>
<speed>3.750000</speed>
</trkpt>
<trkpt lat="56.063873" lon="26.476910">
<ele>113.030334</ele>
<time>2010-06-20T10:55:34Z</time>
<desc>lat.=56.063873, lon.=26.476910, Alt.=113.030334m. Speed=14.544000m/h.</desc>
<speed>4.040000</speed>
</trkpt>
<trkpt lat="56.063843" lon="26.476961">
<ele>112.686584</ele>
<time>2010-06-20T10:55:35Z</time>
<desc>lat.=56.063843, lon.=26.476961, Alt.=112.686584m. Speed=15.120000m/h.</desc>
<speed>4.200000</speed>
</trkpt>
<trkpt lat="56.063812" lon="26.477011">
<ele>113.571350</ele>
<time>2010-06-20T10:55:36Z</time>
<desc>lat.=56.063812, lon.=26.477011, Alt.=113.571350m. Speed=13.284000m/h.</desc>
<speed>3.690000</speed>
</trkpt>
<trkpt lat="56.063789" lon="26.477053">
<ele>113.126038</ele>
<time>2010-06-20T10:55:37Z</time>
<desc>lat.=56.063789, lon.=26.477053, Alt.=113.126038m. Speed=11.520000m/h.</desc>
<speed>3.200000</speed>
</trkpt>
<trkpt lat="56.063759" lon="26.477098">
<ele>111.913147</ele>
<time>2010-06-20T10:55:38Z</time>
<desc>lat.=56.063759, lon.=26.477098, Alt.=111.913147m. Speed=14.868000m/h.</desc>
<speed>4.130000</speed>
</trkpt>
<trkpt lat="56.063740" lon="26.477140">
<ele>110.434631</ele>
<time>2010-06-20T10:55:39Z</time>
<desc>lat.=56.063740, lon.=26.477140, Alt.=110.434631m. Speed=9.576000m/h.</desc>
<speed>2.660000</speed>
</trkpt>
<trkpt lat="56.063725" lon="26.477180">
<ele>110.723694</ele>
<time>2010-06-20T10:55:40Z</time>
<desc>lat.=56.063725, lon.=26.477180, Alt.=110.723694m. Speed=12.780000m/h.</desc>
<speed>3.550000</speed>
</trkpt>
<trkpt lat="56.063690" lon="26.477222">
<ele>109.899475</ele>
<time>2010-06-20T10:55:41Z</time>
<desc>lat.=56.063690, lon.=26.477222, Alt.=109.899475m. Speed=13.716000m/h.</desc>
<speed>3.810000</speed>
</trkpt>
<trkpt lat="56.063652" lon="26.477274">
<ele>109.731506</ele>
<time>2010-06-20T10:55:42Z</time>
<desc>lat.=56.063652, lon.=26.477274, Alt.=109.731506m. Speed=14.472000m/h.</desc>
<speed>4.020000</speed>
</trkpt>
<trkpt lat="56.063625" lon="26.477325">
<ele>109.639709</ele>
<time>2010-06-20T10:55:43Z</time>
<desc>lat.=56.063625, lon.=26.477325, Alt.=109.639709m. Speed=14.328000m/h.</desc>
<speed>3.980000</speed>
</trkpt>
<trkpt lat="56.063599" lon="26.477364">
<ele>109.235413</ele>
<time>2010-06-20T10:55:44Z</time>
<desc>lat.=56.063599, lon.=26.477364, Alt.=109.235413m. Speed=14.076000m/h.</desc>
<speed>3.910000</speed>
</trkpt>
<trkpt lat="56.063568" lon="26.477404">
<ele>109.938538</ele>
<time>2010-06-20T10:55:45Z</time>
<desc>lat.=56.063568, lon.=26.477404, Alt.=109.938538m. Speed=13.752000m/h.</desc>
<speed>3.820000</speed>
</trkpt>
<trkpt lat="56.063538" lon="26.477448">
<ele>109.588928</ele>
<time>2010-06-20T10:55:46Z</time>
<desc>lat.=56.063538, lon.=26.477448, Alt.=109.588928m. Speed=14.688000m/h.</desc>
<speed>4.080000</speed>
</trkpt>
<trkpt lat="56.063507" lon="26.477499">
<ele>110.018616</ele>
<time>2010-06-20T10:55:47Z</time>
<desc>lat.=56.063507, lon.=26.477499, Alt.=110.018616m. Speed=14.292000m/h.</desc>
<speed>3.970000</speed>
</trkpt>
<trkpt lat="56.063484" lon="26.477547">
<ele>110.803772</ele>
<time>2010-06-20T10:55:48Z</time>
<desc>lat.=56.063484, lon.=26.477547, Alt.=110.803772m. Speed=13.500000m/h.</desc>
<speed>3.750000</speed>
</trkpt>
<trkpt lat="56.063450" lon="26.477596">
<ele>110.598694</ele>
<time>2010-06-20T10:55:49Z</time>
<desc>lat.=56.063450, lon.=26.477596, Alt.=110.598694m. Speed=14.904000m/h.</desc>
<speed>4.140000</speed>
</trkpt>
<trkpt lat="56.063419" lon="26.477642">
<ele>112.301819</ele>
<time>2010-06-20T10:55:50Z</time>
<desc>lat.=56.063419, lon.=26.477642, Alt.=112.301819m. Speed=14.832000m/h.</desc>
<speed>4.120000</speed>
</trkpt>
<trkpt lat="56.063385" lon="26.477699">
<ele>114.379944</ele>
<time>2010-06-20T10:55:51Z</time>
<desc>lat.=56.063385, lon.=26.477699, Alt.=114.379944m. Speed=14.292000m/h.</desc>
<speed>3.970000</speed>
</trkpt>
<trkpt lat="56.063354" lon="26.477745">
<ele>115.626038</ele>
<time>2010-06-20T10:55:52Z</time>
<desc>lat.=56.063354, lon.=26.477745, Alt.=115.626038m. Speed=14.220000m/h.</desc>
<speed>3.950000</speed>
</trkpt>
<trkpt lat="56.063328" lon="26.477791">
<ele>115.938538</ele>
<time>2010-06-20T10:55:53Z</time>
<desc>lat.=56.063328, lon.=26.477791, Alt.=115.938538m. Speed=13.176000m/h.</desc>
<speed>3.660000</speed>
</trkpt>
<trkpt lat="56.063301" lon="26.477839">
<ele>117.254944</ele>
<time>2010-06-20T10:55:54Z</time>
<desc>lat.=56.063301, lon.=26.477839, Alt.=117.254944m. Speed=14.184000m/h.</desc>
<speed>3.940000</speed>
</trkpt>
<trkpt lat="56.063274" lon="26.477888">
<ele>118.288147</ele>
<time>2010-06-20T10:55:55Z</time>
<desc>lat.=56.063274, lon.=26.477888, Alt.=118.288147m. Speed=15.948000m/h.</desc>
<speed>4.430000</speed>
</trkpt>
<trkpt lat="56.063244" lon="26.477936">
<ele>118.301819</ele>
<time>2010-06-20T10:55:56Z</time>
<desc>lat.=56.063244, lon.=26.477936, Alt.=118.301819m. Speed=15.588000m/h.</desc>
<speed>4.330000</speed>
</trkpt>
<trkpt lat="56.063213" lon="26.477983">
<ele>118.403381</ele>
<time>2010-06-20T10:55:57Z</time>
<desc>lat.=56.063213, lon.=26.477983, Alt.=118.403381m. Speed=15.192000m/h.</desc>
<speed>4.220000</speed>
</trkpt>
<trkpt lat="56.063183" lon="26.478035">
<ele>118.708069</ele>
<time>2010-06-20T10:55:58Z</time>
<desc>lat.=56.063183, lon.=26.478035, Alt.=118.708069m. Speed=15.552000m/h.</desc>
<speed>4.320000</speed>
</trkpt>
<trkpt lat="56.063152" lon="26.478081">
<ele>119.200256</ele>
<time>2010-06-20T10:55:59Z</time>
<desc>lat.=56.063152, lon.=26.478081, Alt.=119.200256m. Speed=15.408000m/h.</desc>
<speed>4.280000</speed>
</trkpt>
<trkpt lat="56.063118" lon="26.478127">
<ele>119.030334</ele>
<time>2010-06-20T10:56:00Z</time>
<desc>lat.=56.063118, lon.=26.478127, Alt.=119.030334m. Speed=14.436000m/h.</desc>
<speed>4.010000</speed>
</trkpt>
<trkpt lat="56.063087" lon="26.478167">
<ele>119.042053</ele>
<time>2010-06-20T10:56:01Z</time>
<desc>lat.=56.063087, lon.=26.478167, Alt.=119.042053m. Speed=13.500000m/h.</desc>
<speed>3.750000</speed>
</trkpt>
<trkpt lat="56.063061" lon="26.478205">
<ele>118.862366</ele>
<time>2010-06-20T10:56:02Z</time>
<desc>lat.=56.063061, lon.=26.478205, Alt.=118.862366m. Speed=12.888000m/h.</desc>
<speed>3.580000</speed>
</trkpt>
<trkpt lat="56.063034" lon="26.478239">
<ele>118.506897</ele>
<time>2010-06-20T10:56:03Z</time>
<desc>lat.=56.063034, lon.=26.478239, Alt.=118.506897m. Speed=11.484000m/h.</desc>
<speed>3.190000</speed>
</trkpt>
<trkpt lat="56.063004" lon="26.478289">
<ele>117.336975</ele>
<time>2010-06-20T10:56:04Z</time>
<desc>lat.=56.063004, lon.=26.478289, Alt.=117.336975m. Speed=15.084000m/h.</desc>
<speed>4.190000</speed>
</trkpt>
<trkpt lat="56.062973" lon="26.478340">
<ele>117.831116</ele>
<time>2010-06-20T10:56:05Z</time>
<desc>lat.=56.062973, lon.=26.478340, Alt.=117.831116m. Speed=15.876000m/h.</desc>
<speed>4.410000</speed>
</trkpt>
<trkpt lat="56.062943" lon="26.478395">
<ele>117.836975</ele>
<time>2010-06-20T10:56:06Z</time>
<desc>lat.=56.062943, lon.=26.478395, Alt.=117.836975m. Speed=16.416000m/h.</desc>
<speed>4.560000</speed>
</trkpt>
<trkpt lat="56.062912" lon="26.478443">
<ele>117.831116</ele>
<time>2010-06-20T10:56:07Z</time>
<desc>lat.=56.062912, lon.=26.478443, Alt.=117.831116m. Speed=15.588000m/h.</desc>
<speed>4.330000</speed>
</trkpt>
<trkpt lat="56.062885" lon="26.478485">
<ele>117.928772</ele>
<time>2010-06-20T10:56:08Z</time>
<desc>lat.=56.062885, lon.=26.478485, Alt.=117.928772m. Speed=15.048000m/h.</desc>
<speed>4.180000</speed>
</trkpt>
<trkpt lat="56.062859" lon="26.478525">
<ele>118.448303</ele>
<time>2010-06-20T10:56:09Z</time>
<desc>lat.=56.062859, lon.=26.478525, Alt.=118.448303m. Speed=14.004000m/h.</desc>
<speed>3.890000</speed>
</trkpt>
<trkpt lat="56.062832" lon="26.478571">
<ele>118.678772</ele>
<time>2010-06-20T10:56:10Z</time>
<desc>lat.=56.062832, lon.=26.478571, Alt.=118.678772m. Speed=14.256000m/h.</desc>
<speed>3.960000</speed>
</trkpt>
<trkpt lat="56.062809" lon="26.478611">
<ele>119.594788</ele>
<time>2010-06-20T10:56:11Z</time>
<desc>lat.=56.062809, lon.=26.478611, Alt.=119.594788m. Speed=15.840000m/h.</desc>
<speed>4.400000</speed>
</trkpt>
<trkpt lat="56.062778" lon="26.478664">
<ele>120.348694</ele>
<time>2010-06-20T10:56:12Z</time>
<desc>lat.=56.062778, lon.=26.478664, Alt.=120.348694m. Speed=17.063999m/h.</desc>
<speed>4.740000</speed>
</trkpt>
<trkpt lat="56.062752" lon="26.478722">
<ele>120.700256</ele>
<time>2010-06-20T10:56:13Z</time>
<desc>lat.=56.062752, lon.=26.478722, Alt.=120.700256m. Speed=18.576000m/h.</desc>
<speed>5.160000</speed>
</trkpt>
<trkpt lat="56.062717" lon="26.478781">
<ele>120.823303</ele>
<time>2010-06-20T10:56:14Z</time>
<desc>lat.=56.062717, lon.=26.478781, Alt.=120.823303m. Speed=17.712000m/h.</desc>
<speed>4.920000</speed>
</trkpt>
<trkpt lat="56.062687" lon="26.478836">
<ele>120.928772</ele>
<time>2010-06-20T10:56:15Z</time>
<desc>lat.=56.062687, lon.=26.478836, Alt.=120.928772m. Speed=16.812000m/h.</desc>
<speed>4.670000</speed>
</trkpt>
<trkpt lat="56.062656" lon="26.478888">
<ele>120.844788</ele>
<time>2010-06-20T10:56:16Z</time>
<desc>lat.=56.062656, lon.=26.478888, Alt.=120.844788m. Speed=16.667999m/h.</desc>
<speed>4.630000</speed>
</trkpt>
<trkpt lat="56.062626" lon="26.478933">
<ele>120.975647</ele>
<time>2010-06-20T10:56:17Z</time>
<desc>lat.=56.062626, lon.=26.478933, Alt.=120.975647m. Speed=15.444000m/h.</desc>
<speed>4.290000</speed>
</trkpt>
<trkpt lat="56.062595" lon="26.478981">
<ele>121.036194</ele>
<time>2010-06-20T10:56:18Z</time>
<desc>lat.=56.062595, lon.=26.478981, Alt.=121.036194m. Speed=15.768000m/h.</desc>
<speed>4.380000</speed>
</trkpt>
<trkpt lat="56.062565" lon="26.479029">
<ele>120.653381</ele>
<time>2010-06-20T10:56:19Z</time>
<desc>lat.=56.062565, lon.=26.479029, Alt.=120.653381m. Speed=16.128000m/h.</desc>
<speed>4.480000</speed>
</trkpt>
<trkpt lat="56.062531" lon="26.479078">
<ele>120.719788</ele>
<time>2010-06-20T10:56:20Z</time>
<desc>lat.=56.062531, lon.=26.479078, Alt.=120.719788m. Speed=16.344000m/h.</desc>
<speed>4.540000</speed>
</trkpt>
<trkpt lat="56.062504" lon="26.479132">
<ele>121.430725</ele>
<time>2010-06-20T10:56:21Z</time>
<desc>lat.=56.062504, lon.=26.479132, Alt.=121.430725m. Speed=16.524000m/h.</desc>
<speed>4.590000</speed>
</trkpt>
<trkpt lat="56.062469" lon="26.479183">
<ele>121.616272</ele>
<time>2010-06-20T10:56:22Z</time>
<desc>lat.=56.062469, lon.=26.479183, Alt.=121.616272m. Speed=17.028000m/h.</desc>
<speed>4.730000</speed>
</trkpt>
<trkpt lat="56.062435" lon="26.479239">
<ele>121.844788</ele>
<time>2010-06-20T10:56:23Z</time>
<desc>lat.=56.062435, lon.=26.479239, Alt.=121.844788m. Speed=17.388000m/h.</desc>
<speed>4.830000</speed>
</trkpt>
<trkpt lat="56.062401" lon="26.479292">
<ele>122.030334</ele>
<time>2010-06-20T10:56:24Z</time>
<desc>lat.=56.062401, lon.=26.479292, Alt.=122.030334m. Speed=17.459999m/h.</desc>
<speed>4.850000</speed>
</trkpt>
<trkpt lat="56.062370" lon="26.479343">
<ele>122.266663</ele>
<time>2010-06-20T10:56:25Z</time>
<desc>lat.=56.062370, lon.=26.479343, Alt.=122.266663m. Speed=16.056000m/h.</desc>
<speed>4.460000</speed>
</trkpt>
<trkpt lat="56.062336" lon="26.479387">
<ele>122.702209</ele>
<time>2010-06-20T10:56:26Z</time>
<desc>lat.=56.062336, lon.=26.479387, Alt.=122.702209m. Speed=14.760000m/h.</desc>
<speed>4.100000</speed>
</trkpt>
<trkpt lat="56.062309" lon="26.479429">
<ele>123.002991</ele>
<time>2010-06-20T10:56:27Z</time>
<desc>lat.=56.062309, lon.=26.479429, Alt.=123.002991m. Speed=13.284000m/h.</desc>
<speed>3.690000</speed>
</trkpt>
<trkpt lat="56.062279" lon="26.479471">
<ele>122.747131</ele>
<time>2010-06-20T10:56:28Z</time>
<desc>lat.=56.062279, lon.=26.479471, Alt.=122.747131m. Speed=13.248000m/h.</desc>
<speed>3.680000</speed>
</trkpt>
<trkpt lat="56.062252" lon="26.479506">
<ele>122.508850</ele>
<time>2010-06-20T10:56:29Z</time>
<desc>lat.=56.062252, lon.=26.479506, Alt.=122.508850m. Speed=13.824000m/h.</desc>
<speed>3.840000</speed>
</trkpt>
<trkpt lat="56.062222" lon="26.479548">
<ele>122.721741</ele>
<time>2010-06-20T10:56:30Z</time>
<desc>lat.=56.062222, lon.=26.479548, Alt.=122.721741m. Speed=14.940000m/h.</desc>
<speed>4.150000</speed>
</trkpt>
<trkpt lat="56.062191" lon="26.479588">
<ele>123.133850</ele>
<time>2010-06-20T10:56:31Z</time>
<desc>lat.=56.062191, lon.=26.479588, Alt.=123.133850m. Speed=15.228000m/h.</desc>
<speed>4.230000</speed>
</trkpt>
<trkpt lat="56.062160" lon="26.479628">
<ele>123.331116</ele>
<time>2010-06-20T10:56:32Z</time>
<desc>lat.=56.062160, lon.=26.479628, Alt.=123.331116m. Speed=15.480000m/h.</desc>
<speed>4.300000</speed>
</trkpt>
<trkpt lat="56.062134" lon="26.479675">
<ele>123.825256</ele>
<time>2010-06-20T10:56:33Z</time>
<desc>lat.=56.062134, lon.=26.479675, Alt.=123.825256m. Speed=16.488001m/h.</desc>
<speed>4.580000</speed>
</trkpt>
<trkpt lat="56.062099" lon="26.479723">
<ele>123.280334</ele>
<time>2010-06-20T10:56:34Z</time>
<desc>lat.=56.062099, lon.=26.479723, Alt.=123.280334m. Speed=17.351999m/h.</desc>
<speed>4.820000</speed>
</trkpt>
<trkpt lat="56.062065" lon="26.479773">
<ele>123.127991</ele>
<time>2010-06-20T10:56:35Z</time>
<desc>lat.=56.062065, lon.=26.479773, Alt.=123.127991m. Speed=16.667999m/h.</desc>
<speed>4.630000</speed>
</trkpt>
<trkpt lat="56.062027" lon="26.479824">
<ele>122.221741</ele>
<time>2010-06-20T10:56:36Z</time>
<desc>lat.=56.062027, lon.=26.479824, Alt.=122.221741m. Speed=17.532000m/h.</desc>
<speed>4.870000</speed>
</trkpt>
<trkpt lat="56.061989" lon="26.479877">
<ele>121.715881</ele>
<time>2010-06-20T10:56:37Z</time>
<desc>lat.=56.061989, lon.=26.479877, Alt.=121.715881m. Speed=17.532000m/h.</desc>
<speed>4.870000</speed>
</trkpt>
<trkpt lat="56.061954" lon="26.479923">
<ele>121.708069</ele>
<time>2010-06-20T10:56:38Z</time>
<desc>lat.=56.061954, lon.=26.479923, Alt.=121.708069m. Speed=16.308001m/h.</desc>
<speed>4.530000</speed>
</trkpt>
<trkpt lat="56.061916" lon="26.479977">
<ele>120.463928</ele>
<time>2010-06-20T10:56:39Z</time>
<desc>lat.=56.061916, lon.=26.479977, Alt.=120.463928m. Speed=16.271999m/h.</desc>
<speed>4.520000</speed>
</trkpt>
<trkpt lat="56.061882" lon="26.480028">
<ele>119.905334</ele>
<time>2010-06-20T10:56:40Z</time>
<desc>lat.=56.061882, lon.=26.480028, Alt.=119.905334m. Speed=15.660000m/h.</desc>
<speed>4.350000</speed>
</trkpt>
<trkpt lat="56.061855" lon="26.480076">
<ele>119.657288</ele>
<time>2010-06-20T10:56:41Z</time>
<desc>lat.=56.061855, lon.=26.480076, Alt.=119.657288m. Speed=15.084000m/h.</desc>
<speed>4.190000</speed>
</trkpt>
<trkpt lat="56.061829" lon="26.480120">
<ele>119.592834</ele>
<time>2010-06-20T10:56:42Z</time>
<desc>lat.=56.061829, lon.=26.480120, Alt.=119.592834m. Speed=16.091999m/h.</desc>
<speed>4.470000</speed>
</trkpt>
<trkpt lat="56.061794" lon="26.480164">
<ele>119.419006</ele>
<time>2010-06-20T10:56:43Z</time>
<desc>lat.=56.061794, lon.=26.480164, Alt.=119.419006m. Speed=17.280001m/h.</desc>
<speed>4.800000</speed>
</trkpt>
<trkpt lat="56.061756" lon="26.480209">
<ele>119.346741</ele>
<time>2010-06-20T10:56:44Z</time>
<desc>lat.=56.061756, lon.=26.480209, Alt.=119.346741m. Speed=18.108000m/h.</desc>
<speed>5.030000</speed>
</trkpt>
<trkpt lat="56.061726" lon="26.480257">
<ele>119.741272</ele>
<time>2010-06-20T10:56:45Z</time>
<desc>lat.=56.061726, lon.=26.480257, Alt.=119.741272m. Speed=18.180000m/h.</desc>
<speed>5.050000</speed>
</trkpt>
<trkpt lat="56.061691" lon="26.480309">
<ele>119.995178</ele>
<time>2010-06-20T10:56:46Z</time>
<desc>lat.=56.061691, lon.=26.480309, Alt.=119.995178m. Speed=17.172001m/h.</desc>
<speed>4.770000</speed>
</trkpt>
<trkpt lat="56.061665" lon="26.480356">
<ele>119.819397</ele>
<time>2010-06-20T10:56:47Z</time>
<desc>lat.=56.061665, lon.=26.480356, Alt.=119.819397m. Speed=15.876000m/h.</desc>
<speed>4.410000</speed>
</trkpt>
<trkpt lat="56.061638" lon="26.480396">
<ele>119.766663</ele>
<time>2010-06-20T10:56:48Z</time>
<desc>lat.=56.061638, lon.=26.480396, Alt.=119.766663m. Speed=14.292000m/h.</desc>
<speed>3.970000</speed>
</trkpt>
<trkpt lat="56.061611" lon="26.480433">
<ele>119.919006</ele>
<time>2010-06-20T10:56:49Z</time>
<desc>lat.=56.061611, lon.=26.480433, Alt.=119.919006m. Speed=14.436000m/h.</desc>
<speed>4.010000</speed>
</trkpt>
<trkpt lat="56.061577" lon="26.480473">
<ele>119.862366</ele>
<time>2010-06-20T10:56:50Z</time>
<desc>lat.=56.061577, lon.=26.480473, Alt.=119.862366m. Speed=15.984000m/h.</desc>
<speed>4.440000</speed>
</trkpt>
<trkpt lat="56.061543" lon="26.480513">
<ele>119.633850</ele>
<time>2010-06-20T10:56:51Z</time>
<desc>lat.=56.061543, lon.=26.480513, Alt.=119.633850m. Speed=16.812000m/h.</desc>
<speed>4.670000</speed>
</trkpt>
<trkpt lat="56.061504" lon="26.480556">
<ele>119.489319</ele>
<time>2010-06-20T10:56:52Z</time>
<desc>lat.=56.061504, lon.=26.480556, Alt.=119.489319m. Speed=17.927999m/h.</desc>
<speed>4.980000</speed>
</trkpt>
<trkpt lat="56.061466" lon="26.480598">
<ele>119.247131</ele>
<time>2010-06-20T10:56:53Z</time>
<desc>lat.=56.061466, lon.=26.480598, Alt.=119.247131m. Speed=15.444000m/h.</desc>
<speed>4.290000</speed>
</trkpt>
<trkpt lat="56.061432" lon="26.480637">
<ele>119.631897</ele>
<time>2010-06-20T10:56:54Z</time>
<desc>lat.=56.061432, lon.=26.480637, Alt.=119.631897m. Speed=14.760000m/h.</desc>
<speed>4.100000</speed>
</trkpt>
<trkpt lat="56.061401" lon="26.480671">
<ele>119.821350</ele>
<time>2010-06-20T10:56:55Z</time>
<desc>lat.=56.061401, lon.=26.480671, Alt.=119.821350m. Speed=15.876000m/h.</desc>
<speed>4.410000</speed>
</trkpt>
<trkpt lat="56.061363" lon="26.480703">
<ele>120.120178</ele>
<time>2010-06-20T10:56:56Z</time>
<desc>lat.=56.061363, lon.=26.480703, Alt.=120.120178m. Speed=16.344000m/h.</desc>
<speed>4.540000</speed>
</trkpt>
<trkpt lat="56.061329" lon="26.480740">
<ele>120.479553</ele>
<time>2010-06-20T10:56:57Z</time>
<desc>lat.=56.061329, lon.=26.480740, Alt.=120.479553m. Speed=16.091999m/h.</desc>
<speed>4.470000</speed>
</trkpt>
<trkpt lat="56.061295" lon="26.480778">
<ele>120.534241</ele>
<time>2010-06-20T10:56:58Z</time>
<desc>lat.=56.061295, lon.=26.480778, Alt.=120.534241m. Speed=15.768000m/h.</desc>
<speed>4.380000</speed>
</trkpt>
<trkpt lat="56.061264" lon="26.480822">
<ele>120.575256</ele>
<time>2010-06-20T10:56:59Z</time>
<desc>lat.=56.061264, lon.=26.480822, Alt.=120.575256m. Speed=15.120000m/h.</desc>
<speed>4.200000</speed>
</trkpt>
<trkpt lat="56.061230" lon="26.480865">
<ele>120.274475</ele>
<time>2010-06-20T10:57:00Z</time>
<desc>lat.=56.061230, lon.=26.480865, Alt.=120.274475m. Speed=16.524000m/h.</desc>
<speed>4.590000</speed>
</trkpt>
<trkpt lat="56.061195" lon="26.480902">
<ele>120.385803</ele>
<time>2010-06-20T10:57:01Z</time>
<desc>lat.=56.061195, lon.=26.480902, Alt.=120.385803m. Speed=16.416000m/h.</desc>
<speed>4.560000</speed>
</trkpt>
<trkpt lat="56.061153" lon="26.480940">
<ele>120.022522</ele>
<time>2010-06-20T10:57:02Z</time>
<desc>lat.=56.061153, lon.=26.480940, Alt.=120.022522m. Speed=16.271999m/h.</desc>
<speed>4.520000</speed>
</trkpt>
<trkpt lat="56.061123" lon="26.480980">
<ele>119.952209</ele>
<time>2010-06-20T10:57:03Z</time>
<desc>lat.=56.061123, lon.=26.480980, Alt.=119.952209m. Speed=15.624000m/h.</desc>
<speed>4.340000</speed>
</trkpt>
<trkpt lat="56.061089" lon="26.481028">
<ele>119.018616</ele>
<time>2010-06-20T10:57:04Z</time>
<desc>lat.=56.061089, lon.=26.481028, Alt.=119.018616m. Speed=16.884001m/h.</desc>
<speed>4.690000</speed>
</trkpt>
<trkpt lat="56.061050" lon="26.481071">
<ele>118.461975</ele>
<time>2010-06-20T10:57:05Z</time>
<desc>lat.=56.061050, lon.=26.481071, Alt.=118.461975m. Speed=15.804000m/h.</desc>
<speed>4.390000</speed>
</trkpt>
<trkpt lat="56.061020" lon="26.481112">
<ele>118.126038</ele>
<time>2010-06-20T10:57:06Z</time>
<desc>lat.=56.061020, lon.=26.481112, Alt.=118.126038m. Speed=13.428000m/h.</desc>
<speed>3.730000</speed>
</trkpt>
<trkpt lat="56.060993" lon="26.481142">
<ele>117.766663</ele>
<time>2010-06-20T10:57:07Z</time>
<desc>lat.=56.060993, lon.=26.481142, Alt.=117.766663m. Speed=11.304000m/h.</desc>
<speed>3.140000</speed>
</trkpt>
<trkpt lat="56.060970" lon="26.481163">
<ele>117.909241</ele>
<time>2010-06-20T10:57:08Z</time>
<desc>lat.=56.060970, lon.=26.481163, Alt.=117.909241m. Speed=12.096000m/h.</desc>
<speed>3.360000</speed>
</trkpt>
<trkpt lat="56.060940" lon="26.481194">
<ele>117.204163</ele>
<time>2010-06-20T10:57:09Z</time>
<desc>lat.=56.060940, lon.=26.481194, Alt.=117.204163m. Speed=11.664000m/h.</desc>
<speed>3.240000</speed>
</trkpt>
<trkpt lat="56.060913" lon="26.481213">
<ele>117.194397</ele>
<time>2010-06-20T10:57:10Z</time>
<desc>lat.=56.060913, lon.=26.481213, Alt.=117.194397m. Speed=11.088000m/h.</desc>
<speed>3.080000</speed>
</trkpt>
<trkpt lat="56.060890" lon="26.481236">
<ele>117.321350</ele>
<time>2010-06-20T10:57:11Z</time>
<desc>lat.=56.060890, lon.=26.481236, Alt.=117.321350m. Speed=9.252000m/h.</desc>
<speed>2.570000</speed>
</trkpt>
<trkpt lat="56.060867" lon="26.481262">
<ele>116.864319</ele>
<time>2010-06-20T10:57:12Z</time>
<desc>lat.=56.060867, lon.=26.481262, Alt.=116.864319m. Speed=9.756000m/h.</desc>
<speed>2.710000</speed>
</trkpt>
<trkpt lat="56.060844" lon="26.481283">
<ele>116.696350</ele>
<time>2010-06-20T10:57:13Z</time>
<desc>lat.=56.060844, lon.=26.481283, Alt.=116.696350m. Speed=10.476000m/h.</desc>
<speed>2.910000</speed>
</trkpt>
<trkpt lat="56.060822" lon="26.481306">
<ele>116.727600</ele>
<time>2010-06-20T10:57:14Z</time>
<desc>lat.=56.060822, lon.=26.481306, Alt.=116.727600m. Speed=10.512000m/h.</desc>
<speed>2.920000</speed>
</trkpt>
<trkpt lat="56.060799" lon="26.481331">
<ele>116.344788</ele>
<time>2010-06-20T10:57:15Z</time>
<desc>lat.=56.060799, lon.=26.481331, Alt.=116.344788m. Speed=10.512000m/h.</desc>
<speed>2.920000</speed>
</trkpt>
<trkpt lat="56.060780" lon="26.481342">
<ele>116.725647</ele>
<time>2010-06-20T10:57:16Z</time>
<desc>lat.=56.060780, lon.=26.481342, Alt.=116.725647m. Speed=9.828000m/h.</desc>
<speed>2.730000</speed>
</trkpt>
<trkpt lat="56.060753" lon="26.481354">
<ele>116.141663</ele>
<time>2010-06-20T10:57:17Z</time>
<desc>lat.=56.060753, lon.=26.481354, Alt.=116.141663m. Speed=9.936000m/h.</desc>
<speed>2.760000</speed>
</trkpt>
<trkpt lat="56.060734" lon="26.481377">
<ele>115.919006</ele>
<time>2010-06-20T10:57:18Z</time>
<desc>lat.=56.060734, lon.=26.481377, Alt.=115.919006m. Speed=11.340000m/h.</desc>
<speed>3.150000</speed>
</trkpt>
<trkpt lat="56.060707" lon="26.481396">
<ele>115.776428</ele>
<time>2010-06-20T10:57:19Z</time>
<desc>lat.=56.060707, lon.=26.481396, Alt.=115.776428m. Speed=13.284000m/h.</desc>
<speed>3.690000</speed>
</trkpt>
<trkpt lat="56.060673" lon="26.481422">
<ele>115.776428</ele>
<time>2010-06-20T10:57:20Z</time>
<desc>lat.=56.060673, lon.=26.481422, Alt.=115.776428m. Speed=13.428000m/h.</desc>
<speed>3.730000</speed>
</trkpt>
<trkpt lat="56.060646" lon="26.481443">
<ele>115.522522</ele>
<time>2010-06-20T10:57:21Z</time>
<desc>lat.=56.060646, lon.=26.481443, Alt.=115.522522m. Speed=11.088000m/h.</desc>
<speed>3.080000</speed>
</trkpt>
<trkpt lat="56.060604" lon="26.481459">
<ele>113.026428</ele>
<time>2010-06-20T10:57:22Z</time>
<desc>lat.=56.060604, lon.=26.481459, Alt.=113.026428m. Speed=11.700000m/h.</desc>
<speed>3.250000</speed>
</trkpt>
<trkpt lat="56.060577" lon="26.481470">
<ele>113.477600</ele>
<time>2010-06-20T10:57:23Z</time>
<desc>lat.=56.060577, lon.=26.481470, Alt.=113.477600m. Speed=12.348000m/h.</desc>
<speed>3.430000</speed>
</trkpt>
<trkpt lat="56.060535" lon="26.481482">
<ele>111.717834</ele>
<time>2010-06-20T10:57:24Z</time>
<desc>lat.=56.060535, lon.=26.481482, Alt.=111.717834m. Speed=12.168000m/h.</desc>
<speed>3.380000</speed>
</trkpt>
<trkpt lat="56.060509" lon="26.481499">
<ele>111.206116</ele>
<time>2010-06-20T10:57:25Z</time>
<desc>lat.=56.060509, lon.=26.481499, Alt.=111.206116m. Speed=9.936000m/h.</desc>
<speed>2.760000</speed>
</trkpt>
<trkpt lat="56.060482" lon="26.481514">
<ele>111.024475</ele>
<time>2010-06-20T10:57:26Z</time>
<desc>lat.=56.060482, lon.=26.481514, Alt.=111.024475m. Speed=9.936000m/h.</desc>
<speed>2.760000</speed>
</trkpt>
<trkpt lat="56.060455" lon="26.481527">
<ele>110.346741</ele>
<time>2010-06-20T10:57:27Z</time>
<desc>lat.=56.060455, lon.=26.481527, Alt.=110.346741m. Speed=9.576000m/h.</desc>
<speed>2.660000</speed>
</trkpt>
<trkpt lat="56.060429" lon="26.481554">
<ele>110.581116</ele>
<time>2010-06-20T10:57:28Z</time>
<desc>lat.=56.060429, lon.=26.481554, Alt.=110.581116m. Speed=10.656000m/h.</desc>
<speed>2.960000</speed>
</trkpt>
<trkpt lat="56.060406" lon="26.481577">
<ele>110.948303</ele>
<time>2010-06-20T10:57:29Z</time>
<desc>lat.=56.060406, lon.=26.481577, Alt.=110.948303m. Speed=8.640000m/h.</desc>
<speed>2.400000</speed>
</trkpt>
<trkpt lat="56.060394" lon="26.481585">
<ele>112.889709</ele>
<time>2010-06-20T10:57:30Z</time>
<desc>lat.=56.060394, lon.=26.481585, Alt.=112.889709m. Speed=6.264000m/h.</desc>
<speed>1.740000</speed>
</trkpt>
<trkpt lat="56.060383" lon="26.481590">
<ele>113.167053</ele>
<time>2010-06-20T10:57:31Z</time>
<desc>lat.=56.060383, lon.=26.481590, Alt.=113.167053m. Speed=0.756000m/h.</desc>
<speed>0.210000</speed>
</trkpt>
<trkpt lat="56.060383" lon="26.481596">
<ele>113.163147</ele>
<time>2010-06-20T10:57:32Z</time>
<desc>lat.=56.060383, lon.=26.481596, Alt.=113.163147m. Speed=0.720000m/h.</desc>
<speed>0.200000</speed>
</trkpt>
<trkpt lat="56.060379" lon="26.481594">
<ele>113.542053</ele>
<time>2010-06-20T10:57:33Z</time>
<desc>lat.=56.060379, lon.=26.481594, Alt.=113.542053m. Speed=0.360000m/h.</desc>
<speed>0.100000</speed>
</trkpt>
<trkpt lat="56.060375" lon="26.481590">
<ele>113.729553</ele>
<time>2010-06-20T10:57:34Z</time>
<desc>lat.=56.060375, lon.=26.481590, Alt.=113.729553m. Speed=0.468000m/h.</desc>
<speed>0.130000</speed>
</trkpt>
<trkpt lat="56.060375" lon="26.481588">
<ele>113.807678</ele>
<time>2010-06-20T10:57:35Z</time>
<desc>lat.=56.060375, lon.=26.481588, Alt.=113.807678m. Speed=0.360000m/h.</desc>
<speed>0.100000</speed>
</trkpt>
<trkpt lat="56.060375" lon="26.481586">
<ele>113.858459</ele>
<time>2010-06-20T10:57:36Z</time>
<desc>lat.=56.060375, lon.=26.481586, Alt.=113.858459m. Speed=0.288000m/h.</desc>
<speed>0.080000</speed>
</trkpt>
<trkpt lat="56.060375" lon="26.481586">
<ele>113.891663</ele>
<time>2010-06-20T10:57:37Z</time>
<desc>lat.=56.060375, lon.=26.481586, Alt.=113.891663m. Speed=0.072000m/h.</desc>
<speed>0.020000</speed>
</trkpt>
<trkpt lat="56.060375" lon="26.481586">
<ele>113.924866</ele>
<time>2010-06-20T10:57:38Z</time>
<desc>lat.=56.060375, lon.=26.481586, Alt.=113.924866m. Speed=0.072000m/h.</desc>
<speed>0.020000</speed>
</trkpt>
<trkpt lat="56.060375" lon="26.481586">
<ele>113.940491</ele>
<time>2010-06-20T10:57:39Z</time>
<desc>lat.=56.060375, lon.=26.481586, Alt.=113.940491m. Speed=0.000000m/h.</desc>
<speed>0.000000</speed>
</trkpt>
<trkpt lat="56.060375" lon="26.481586">
<ele>113.963928</ele>
<time>2010-06-20T10:57:40Z</time>
<desc>lat.=56.060375, lon.=26.481586, Alt.=113.963928m. Speed=0.036000m/h.</desc>
<speed>0.010000</speed>
</trkpt>
<trkpt lat="56.060375" lon="26.481586">
<ele>113.969788</ele>
<time>2010-06-20T10:57:41Z</time>
<desc>lat.=56.060375, lon.=26.481586, Alt.=113.969788m. Speed=0.036000m/h.</desc>
<speed>0.010000</speed>
</trkpt>
<trkpt lat="56.060375" lon="26.481585">
<ele>113.983459</ele>
<time>2010-06-20T10:57:42Z</time>
<desc>lat.=56.060375, lon.=26.481585, Alt.=113.983459m. Speed=0.036000m/h.</desc>
<speed>0.010000</speed>
</trkpt>
<trkpt lat="56.060375" lon="26.481585">
<ele>114.001038</ele>
<time>2010-06-20T10:57:43Z</time>
<desc>lat.=56.060375, lon.=26.481585, Alt.=114.001038m. Speed=0.000000m/h.</desc>
<speed>0.000000</speed>
</trkpt>
<trkpt lat="56.060375" lon="26.481585">
<ele>114.012756</ele>
<time>2010-06-20T10:57:44Z</time>
<desc>lat.=56.060375, lon.=26.481585, Alt.=114.012756m. Speed=0.036000m/h.</desc>
<speed>0.010000</speed>
</trkpt>
<trkpt lat="56.060375" lon="26.481585">
<ele>114.028381</ele>
<time>2010-06-20T10:57:45Z</time>
<desc>lat.=56.060375, lon.=26.481585, Alt.=114.028381m. Speed=0.072000m/h.</desc>
<speed>0.020000</speed>
</trkpt>
<trkpt lat="56.060375" lon="26.481585">
<ele>114.053772</ele>
<time>2010-06-20T10:57:46Z</time>
<desc>lat.=56.060375, lon.=26.481585, Alt.=114.053772m. Speed=0.000000m/h.</desc>
<speed>0.000000</speed>
</trkpt>
<trkpt lat="56.060375" lon="26.481585">
<ele>114.067444</ele>
<time>2010-06-20T10:57:47Z</time>
<desc>lat.=56.060375, lon.=26.481585, Alt.=114.067444m. Speed=0.036000m/h.</desc>
<speed>0.010000</speed>
</trkpt>
<trkpt lat="56.060375" lon="26.481585">
<ele>114.092834</ele>
<time>2010-06-20T10:57:48Z</time>
<desc>lat.=56.060375, lon.=26.481585, Alt.=114.092834m. Speed=0.072000m/h.</desc>
<speed>0.020000</speed>
</trkpt>
<trkpt lat="56.060375" lon="26.481585">
<ele>114.120178</ele>
<time>2010-06-20T10:57:49Z</time>
<desc>lat.=56.060375, lon.=26.481585, Alt.=114.120178m. Speed=0.036000m/h.</desc>
<speed>0.010000</speed>
</trkpt>
<trkpt lat="56.060375" lon="26.481585">
<ele>114.118225</ele>
<time>2010-06-20T10:57:50Z</time>
<desc>lat.=56.060375, lon.=26.481585, Alt.=114.118225m. Speed=0.000000m/h.</desc>
<speed>0.000000</speed>
</trkpt>
<trkpt lat="56.060375" lon="26.481585">
<ele>114.120178</ele>
<time>2010-06-20T10:57:51Z</time>
<desc>lat.=56.060375, lon.=26.481585, Alt.=114.120178m. Speed=0.108000m/h.</desc>
<speed>0.030000</speed>
</trkpt>
<trkpt lat="56.060375" lon="26.481585">
<ele>114.135803</ele>
<time>2010-06-20T10:57:52Z</time>
<desc>lat.=56.060375, lon.=26.481585, Alt.=114.135803m. Speed=0.180000m/h.</desc>
<speed>0.050000</speed>
</trkpt>
<trkpt lat="56.060375" lon="26.481585">
<ele>114.151428</ele>
<time>2010-06-20T10:57:53Z</time>
<desc>lat.=56.060375, lon.=26.481585, Alt.=114.151428m. Speed=0.288000m/h.</desc>
<speed>0.080000</speed>
</trkpt>
<trkpt lat="56.060375" lon="26.481585">
<ele>114.167053</ele>
<time>2010-06-20T10:57:54Z</time>
<desc>lat.=56.060375, lon.=26.481585, Alt.=114.167053m. Speed=0.504000m/h.</desc>
<speed>0.140000</speed>
</trkpt>
<trkpt lat="56.060375" lon="26.481585">
<ele>114.186584</ele>
<time>2010-06-20T10:57:55Z</time>
<desc>lat.=56.060375, lon.=26.481585, Alt.=114.186584m. Speed=0.072000m/h.</desc>
<speed>0.020000</speed>
</trkpt>
<trkpt lat="56.060375" lon="26.481585">
<ele>114.198303</ele>
<time>2010-06-20T10:57:56Z</time>
<desc>lat.=56.060375, lon.=26.481585, Alt.=114.198303m. Speed=0.396000m/h.</desc>
<speed>0.110000</speed>
</trkpt>
<trkpt lat="56.060371" lon="26.481585">
<ele>114.208069</ele>
<time>2010-06-20T10:57:57Z</time>
<desc>lat.=56.060371, lon.=26.481585, Alt.=114.208069m. Speed=0.468000m/h.</desc>
<speed>0.130000</speed>
</trkpt>
<trkpt lat="56.060371" lon="26.481585">
<ele>114.217834</ele>
<time>2010-06-20T10:57:58Z</time>
<desc>lat.=56.060371, lon.=26.481585, Alt.=114.217834m. Speed=0.072000m/h.</desc>
<speed>0.020000</speed>
</trkpt>
<trkpt lat="56.060371" lon="26.481585">
<ele>114.247131</ele>
<time>2010-06-20T10:57:59Z</time>
<desc>lat.=56.060371, lon.=26.481585, Alt.=114.247131m. Speed=0.072000m/h.</desc>
<speed>0.020000</speed>
</trkpt>
<trkpt lat="56.060371" lon="26.481583">
<ele>114.268616</ele>
<time>2010-06-20T10:58:00Z</time>
<desc>lat.=56.060371, lon.=26.481583, Alt.=114.268616m. Speed=0.108000m/h.</desc>
<speed>0.030000</speed>
</trkpt>
<trkpt lat="56.060371" lon="26.481583">
<ele>114.286194</ele>
<time>2010-06-20T10:58:01Z</time>
<desc>lat.=56.060371, lon.=26.481583, Alt.=114.286194m. Speed=0.216000m/h.</desc>
<speed>0.060000</speed>
</trkpt>
<trkpt lat="56.060371" lon="26.481583">
<ele>114.309631</ele>
<time>2010-06-20T10:58:02Z</time>
<desc>lat.=56.060371, lon.=26.481583, Alt.=114.309631m. Speed=0.504000m/h.</desc>
<speed>0.140000</speed>
</trkpt>
<trkpt lat="56.060371" lon="26.481583">
<ele>114.329163</ele>
<time>2010-06-20T10:58:03Z</time>
<desc>lat.=56.060371, lon.=26.481583, Alt.=114.329163m. Speed=0.468000m/h.</desc>
<speed>0.130000</speed>
</trkpt>
<trkpt lat="56.060368" lon="26.481583">
<ele>114.348694</ele>
<time>2010-06-20T10:58:04Z</time>
<desc>lat.=56.060368, lon.=26.481583, Alt.=114.348694m. Speed=0.396000m/h.</desc>
<speed>0.110000</speed>
</trkpt>
<trkpt lat="56.060368" lon="26.481583">
<ele>114.368225</ele>
<time>2010-06-20T10:58:05Z</time>
<desc>lat.=56.060368, lon.=26.481583, Alt.=114.368225m. Speed=0.216000m/h.</desc>
<speed>0.060000</speed>
</trkpt>
<trkpt lat="56.060368" lon="26.481583">
<ele>114.383850</ele>
<time>2010-06-20T10:58:06Z</time>
<desc>lat.=56.060368, lon.=26.481583, Alt.=114.383850m. Speed=0.432000m/h.</desc>
<speed>0.120000</speed>
</trkpt>
<trkpt lat="56.060368" lon="26.481583">
<ele>114.401428</ele>
<time>2010-06-20T10:58:07Z</time>
<desc>lat.=56.060368, lon.=26.481583, Alt.=114.401428m. Speed=0.504000m/h.</desc>
<speed>0.140000</speed>
</trkpt>
<trkpt lat="56.060364" lon="26.481585">
<ele>114.428772</ele>
<time>2010-06-20T10:58:08Z</time>
<desc>lat.=56.060364, lon.=26.481585, Alt.=114.428772m. Speed=0.504000m/h.</desc>
<speed>0.140000</speed>
</trkpt>
<trkpt lat="56.060364" lon="26.481585">
<ele>114.450256</ele>
<time>2010-06-20T10:58:09Z</time>
<desc>lat.=56.060364, lon.=26.481585, Alt.=114.450256m. Speed=0.828000m/h.</desc>
<speed>0.230000</speed>
</trkpt>
<trkpt lat="56.060364" lon="26.481583">
<ele>114.454163</ele>
<time>2010-06-20T10:58:10Z</time>
<desc>lat.=56.060364, lon.=26.481583, Alt.=114.454163m. Speed=1.368000m/h.</desc>
<speed>0.380000</speed>
</trkpt>
<trkpt lat="56.060364" lon="26.481577">
<ele>114.467834</ele>
<time>2010-06-20T10:58:11Z</time>
<desc>lat.=56.060364, lon.=26.481577, Alt.=114.467834m. Speed=2.484000m/h.</desc>
<speed>0.690000</speed>
</trkpt>
<trkpt lat="56.060356" lon="26.481571">
<ele>114.487366</ele>
<time>2010-06-20T10:58:12Z</time>
<desc>lat.=56.060356, lon.=26.481571, Alt.=114.487366m. Speed=4.248000m/h.</desc>
<speed>1.180000</speed>
</trkpt>
<trkpt lat="56.060345" lon="26.481571">
<ele>114.377991</ele>
<time>2010-06-20T10:58:13Z</time>
<desc>lat.=56.060345, lon.=26.481571, Alt.=114.377991m. Speed=5.076000m/h.</desc>
<speed>1.410000</speed>
</trkpt>
<trkpt lat="56.060329" lon="26.481577">
<ele>114.079163</ele>
<time>2010-06-20T10:58:14Z</time>
<desc>lat.=56.060329, lon.=26.481577, Alt.=114.079163m. Speed=5.220000m/h.</desc>
<speed>1.450000</speed>
</trkpt>
<trkpt lat="56.060314" lon="26.481579">
<ele>113.858459</ele>
<time>2010-06-20T10:58:15Z</time>
<desc>lat.=56.060314, lon.=26.481579, Alt.=113.858459m. Speed=4.464000m/h.</desc>
<speed>1.240000</speed>
</trkpt>
<trkpt lat="56.060303" lon="26.481583">
<ele>113.956116</ele>
<time>2010-06-20T10:58:16Z</time>
<desc>lat.=56.060303, lon.=26.481583, Alt.=113.956116m. Speed=4.932000m/h.</desc>
<speed>1.370000</speed>
</trkpt>
<trkpt lat="56.060291" lon="26.481588">
<ele>114.274475</ele>
<time>2010-06-20T10:58:17Z</time>
<desc>lat.=56.060291, lon.=26.481588, Alt.=114.274475m. Speed=4.392000m/h.</desc>
<speed>1.220000</speed>
</trkpt>
<trkpt lat="56.060276" lon="26.481590">
<ele>114.376038</ele>
<time>2010-06-20T10:58:18Z</time>
<desc>lat.=56.060276, lon.=26.481590, Alt.=114.376038m. Speed=5.004000m/h.</desc>
<speed>1.390000</speed>
</trkpt>
<trkpt lat="56.060261" lon="26.481596">
<ele>113.963928</ele>
<time>2010-06-20T10:58:19Z</time>
<desc>lat.=56.060261, lon.=26.481596, Alt.=113.963928m. Speed=4.356000m/h.</desc>
<speed>1.210000</speed>
</trkpt>
<trkpt lat="56.060249" lon="26.481602">
<ele>113.616272</ele>
<time>2010-06-20T10:58:20Z</time>
<desc>lat.=56.060249, lon.=26.481602, Alt.=113.616272m. Speed=2.160000m/h.</desc>
<speed>0.600000</speed>
</trkpt>
<trkpt lat="56.060246" lon="26.481607">
<ele>113.741272</ele>
<time>2010-06-20T10:58:21Z</time>
<desc>lat.=56.060246, lon.=26.481607, Alt.=113.741272m. Speed=1.476000m/h.</desc>
<speed>0.410000</speed>
</trkpt>
<trkpt lat="56.060242" lon="26.481613">
<ele>113.553772</ele>
<time>2010-06-20T10:58:22Z</time>
<desc>lat.=56.060242, lon.=26.481613, Alt.=113.553772m. Speed=1.044000m/h.</desc>
<speed>0.290000</speed>
</trkpt>
<trkpt lat="56.060242" lon="26.481617">
<ele>113.639709</ele>
<time>2010-06-20T10:58:23Z</time>
<desc>lat.=56.060242, lon.=26.481617, Alt.=113.639709m. Speed=0.900000m/h.</desc>
<speed>0.250000</speed>
</trkpt>
<trkpt lat="56.060242" lon="26.481621">
<ele>114.210022</ele>
<time>2010-06-20T10:58:24Z</time>
<desc>lat.=56.060242, lon.=26.481621, Alt.=114.210022m. Speed=0.612000m/h.</desc>
<speed>0.170000</speed>
</trkpt>
<trkpt lat="56.060246" lon="26.481623">
<ele>114.751038</ele>
<time>2010-06-20T10:58:25Z</time>
<desc>lat.=56.060246, lon.=26.481623, Alt.=114.751038m. Speed=0.576000m/h.</desc>
<speed>0.160000</speed>
</trkpt>
<trkpt lat="56.060246" lon="26.481627">
<ele>114.754944</ele>
<time>2010-06-20T10:58:26Z</time>
<desc>lat.=56.060246, lon.=26.481627, Alt.=114.754944m. Speed=0.612000m/h.</desc>
<speed>0.170000</speed>
</trkpt>
<trkpt lat="56.060246" lon="26.481628">
<ele>114.758850</ele>
<time>2010-06-20T10:58:27Z</time>
<desc>lat.=56.060246, lon.=26.481628, Alt.=114.758850m. Speed=0.504000m/h.</desc>
<speed>0.140000</speed>
</trkpt>
<trkpt lat="56.060242" lon="26.481630">
<ele>114.764709</ele>
<time>2010-06-20T10:58:28Z</time>
<desc>lat.=56.060242, lon.=26.481630, Alt.=114.764709m. Speed=0.396000m/h.</desc>
<speed>0.110000</speed>
</trkpt>
<trkpt lat="56.060242" lon="26.481628">
<ele>114.772522</ele>
<time>2010-06-20T10:58:29Z</time>
<desc>lat.=56.060242, lon.=26.481628, Alt.=114.772522m. Speed=0.252000m/h.</desc>
<speed>0.070000</speed>
</trkpt>
<trkpt lat="56.060242" lon="26.481628">
<ele>114.776428</ele>
<time>2010-06-20T10:58:30Z</time>
<desc>lat.=56.060242, lon.=26.481628, Alt.=114.776428m. Speed=0.108000m/h.</desc>
<speed>0.030000</speed>
</trkpt>
<trkpt lat="56.060242" lon="26.481628">
<ele>114.780334</ele>
<time>2010-06-20T10:58:31Z</time>
<desc>lat.=56.060242, lon.=26.481628, Alt.=114.780334m. Speed=0.144000m/h.</desc>
<speed>0.040000</speed>
</trkpt>
<trkpt lat="56.060242" lon="26.481628">
<ele>114.788147</ele>
<time>2010-06-20T10:58:32Z</time>
<desc>lat.=56.060242, lon.=26.481628, Alt.=114.788147m. Speed=0.252000m/h.</desc>
<speed>0.070000</speed>
</trkpt>
<trkpt lat="56.060242" lon="26.481630">
<ele>114.799866</ele>
<time>2010-06-20T10:58:33Z</time>
<desc>lat.=56.060242, lon.=26.481630, Alt.=114.799866m. Speed=0.288000m/h.</desc>
<speed>0.080000</speed>
</trkpt>
<trkpt lat="56.060242" lon="26.481630">
<ele>114.805725</ele>
<time>2010-06-20T10:58:34Z</time>
<desc>lat.=56.060242, lon.=26.481630, Alt.=114.805725m. Speed=0.180000m/h.</desc>
<speed>0.050000</speed>
</trkpt>
<trkpt lat="56.060242" lon="26.481630">
<ele>114.801819</ele>
<time>2010-06-20T10:58:35Z</time>
<desc>lat.=56.060242, lon.=26.481630, Alt.=114.801819m. Speed=0.288000m/h.</desc>
<speed>0.080000</speed>
</trkpt>
<trkpt lat="56.060242" lon="26.481628">
<ele>114.786194</ele>
<time>2010-06-20T10:58:36Z</time>
<desc>lat.=56.060242, lon.=26.481628, Alt.=114.786194m. Speed=0.252000m/h.</desc>
<speed>0.070000</speed>
</trkpt>
<trkpt lat="56.060238" lon="26.481628">
<ele>114.768616</ele>
<time>2010-06-20T10:58:37Z</time>
<desc>lat.=56.060238, lon.=26.481628, Alt.=114.768616m. Speed=0.144000m/h.</desc>
<speed>0.040000</speed>
</trkpt>
<trkpt lat="56.060238" lon="26.481628">
<ele>114.760803</ele>
<time>2010-06-20T10:58:38Z</time>
<desc>lat.=56.060238, lon.=26.481628, Alt.=114.760803m. Speed=0.108000m/h.</desc>
<speed>0.030000</speed>
</trkpt>
<trkpt lat="56.060238" lon="26.481628">
<ele>114.754944</ele>
<time>2010-06-20T10:58:39Z</time>
<desc>lat.=56.060238, lon.=26.481628, Alt.=114.754944m. Speed=0.108000m/h.</desc>
<speed>0.030000</speed>
</trkpt>
<trkpt lat="56.060238" lon="26.481628">
<ele>114.749084</ele>
<time>2010-06-20T10:58:40Z</time>
<desc>lat.=56.060238, lon.=26.481628, Alt.=114.749084m. Speed=0.144000m/h.</desc>
<speed>0.040000</speed>
</trkpt>
<trkpt lat="56.060238" lon="26.481628">
<ele>114.737366</ele>
<time>2010-06-20T10:58:41Z</time>
<desc>lat.=56.060238, lon.=26.481628, Alt.=114.737366m. Speed=0.036000m/h.</desc>
<speed>0.010000</speed>
</trkpt>
<trkpt lat="56.060238" lon="26.481628">
<ele>114.725647</ele>
<time>2010-06-20T10:58:42Z</time>
<desc>lat.=56.060238, lon.=26.481628, Alt.=114.725647m. Speed=0.180000m/h.</desc>
<speed>0.050000</speed>
</trkpt>
<trkpt lat="56.060238" lon="26.481628">
<ele>114.696350</ele>
<time>2010-06-20T10:58:43Z</time>
<desc>lat.=56.060238, lon.=26.481628, Alt.=114.696350m. Speed=0.036000m/h.</desc>
<speed>0.010000</speed>
</trkpt>
<trkpt lat="56.060238" lon="26.481628">
<ele>114.669006</ele>
<time>2010-06-20T10:58:44Z</time>
<desc>lat.=56.060238, lon.=26.481628, Alt.=114.669006m. Speed=0.108000m/h.</desc>
<speed>0.030000</speed>
</trkpt>
<trkpt lat="56.060238" lon="26.481628">
<ele>114.665100</ele>
<time>2010-06-20T10:58:45Z</time>
<desc>lat.=56.060238, lon.=26.481628, Alt.=114.665100m. Speed=0.000000m/h.</desc>
<speed>0.000000</speed>
</trkpt>
<trkpt lat="56.060238" lon="26.481628">
<ele>114.661194</ele>
<time>2010-06-20T10:58:46Z</time>
<desc>lat.=56.060238, lon.=26.481628, Alt.=114.661194m. Speed=0.000000m/h.</desc>
<speed>0.000000</speed>
</trkpt>
<trkpt lat="56.060238" lon="26.481628">
<ele>114.661194</ele>
<time>2010-06-20T10:58:47Z</time>
<desc>lat.=56.060238, lon.=26.481628, Alt.=114.661194m. Speed=0.000000m/h.</desc>
<speed>0.000000</speed>
</trkpt>
<trkpt lat="56.060238" lon="26.481628">
<ele>114.665100</ele>
<time>2010-06-20T10:58:48Z</time>
<desc>lat.=56.060238, lon.=26.481628, Alt.=114.665100m. Speed=0.108000m/h.</desc>
<speed>0.030000</speed>
</trkpt>
<trkpt lat="56.060238" lon="26.481628">
<ele>114.655334</ele>
<time>2010-06-20T10:58:49Z</time>
<desc>lat.=56.060238, lon.=26.481628, Alt.=114.655334m. Speed=0.036000m/h.</desc>
<speed>0.010000</speed>
</trkpt>
<trkpt lat="56.060238" lon="26.481628">
<ele>114.639709</ele>
<time>2010-06-20T10:58:50Z</time>
<desc>lat.=56.060238, lon.=26.481628, Alt.=114.639709m. Speed=0.036000m/h.</desc>
<speed>0.010000</speed>
</trkpt>
<trkpt lat="56.060238" lon="26.481628">
<ele>114.624084</ele>
<time>2010-06-20T10:58:51Z</time>
<desc>lat.=56.060238, lon.=26.481628, Alt.=114.624084m. Speed=0.072000m/h.</desc>
<speed>0.020000</speed>
</trkpt>
<trkpt lat="56.060238" lon="26.481628">
<ele>114.616272</ele>
<time>2010-06-20T10:58:52Z</time>
<desc>lat.=56.060238, lon.=26.481628, Alt.=114.616272m. Speed=0.036000m/h.</desc>
<speed>0.010000</speed>
</trkpt>
<trkpt lat="56.060238" lon="26.481628">
<ele>114.608459</ele>
<time>2010-06-20T10:58:53Z</time>
<desc>lat.=56.060238, lon.=26.481628, Alt.=114.608459m. Speed=0.000000m/h.</desc>
<speed>0.000000</speed>
</trkpt>
<trkpt lat="56.060238" lon="26.481628">
<ele>114.596741</ele>
<time>2010-06-20T10:58:54Z</time>
<desc>lat.=56.060238, lon.=26.481628, Alt.=114.596741m. Speed=0.036000m/h.</desc>
<speed>0.010000</speed>
</trkpt>
<trkpt lat="56.060238" lon="26.481628">
<ele>114.581116</ele>
<time>2010-06-20T10:58:55Z</time>
<desc>lat.=56.060238, lon.=26.481628, Alt.=114.581116m. Speed=0.000000m/h.</desc>
<speed>0.000000</speed>
</trkpt>
<trkpt lat="56.060238" lon="26.481628">
<ele>114.575256</ele>
<time>2010-06-20T10:58:56Z</time>
<desc>lat.=56.060238, lon.=26.481628, Alt.=114.575256m. Speed=0.000000m/h.</desc>
<speed>0.000000</speed>
</trkpt>
<trkpt lat="56.060238" lon="26.481628">
<ele>114.569397</ele>
<time>2010-06-20T10:58:57Z</time>
<desc>lat.=56.060238, lon.=26.481628, Alt.=114.569397m. Speed=0.000000m/h.</desc>
<speed>0.000000</speed>
</trkpt>
<trkpt lat="56.060238" lon="26.481628">
<ele>114.567444</ele>
<time>2010-06-20T10:58:58Z</time>
<desc>lat.=56.060238, lon.=26.481628, Alt.=114.567444m. Speed=0.000000m/h.</desc>
<speed>0.000000</speed>
</trkpt>
<trkpt lat="56.060238" lon="26.481628">
<ele>114.559631</ele>
<time>2010-06-20T10:58:59Z</time>
<desc>lat.=56.060238, lon.=26.481628, Alt.=114.559631m. Speed=0.000000m/h.</desc>
<speed>0.000000</speed>
</trkpt>
<trkpt lat="56.060238" lon="26.481628">
<ele>114.557678</ele>
<time>2010-06-20T10:59:00Z</time>
<desc>lat.=56.060238, lon.=26.481628, Alt.=114.557678m. Speed=0.000000m/h.</desc>
<speed>0.000000</speed>
</trkpt>
<trkpt lat="56.060238" lon="26.481628">
<ele>114.555725</ele>
<time>2010-06-20T10:59:01Z</time>
<desc>lat.=56.060238, lon.=26.481628, Alt.=114.555725m. Speed=0.036000m/h.</desc>
<speed>0.010000</speed>
</trkpt>
<trkpt lat="56.060238" lon="26.481628">
<ele>114.545959</ele>
<time>2010-06-20T10:59:02Z</time>
<desc>lat.=56.060238, lon.=26.481628, Alt.=114.545959m. Speed=0.036000m/h.</desc>
<speed>0.010000</speed>
</trkpt>
<trkpt lat="56.060238" lon="26.481630">
<ele>114.540100</ele>
<time>2010-06-20T10:59:03Z</time>
<desc>lat.=56.060238, lon.=26.481630, Alt.=114.540100m. Speed=0.000000m/h.</desc>
<speed>0.000000</speed>
</trkpt>
<trkpt lat="56.060238" lon="26.481628">
<ele>114.538147</ele>
<time>2010-06-20T10:59:04Z</time>
<desc>lat.=56.060238, lon.=26.481628, Alt.=114.538147m. Speed=0.000000m/h.</desc>
<speed>0.000000</speed>
</trkpt>
<trkpt lat="56.060238" lon="26.481628">
<ele>114.536194</ele>
<time>2010-06-20T10:59:05Z</time>
<desc>lat.=56.060238, lon.=26.481628, Alt.=114.536194m. Speed=0.036000m/h.</desc>
<speed>0.010000</speed>
</trkpt>
<trkpt lat="56.060238" lon="26.481628">
<ele>114.534241</ele>
<time>2010-06-20T10:59:06Z</time>
<desc>lat.=56.060238, lon.=26.481628, Alt.=114.534241m. Speed=0.108000m/h.</desc>
<speed>0.030000</speed>
</trkpt>
<trkpt lat="56.060238" lon="26.481628">
<ele>114.528381</ele>
<time>2010-06-20T10:59:07Z</time>
<desc>lat.=56.060238, lon.=26.481628, Alt.=114.528381m. Speed=0.036000m/h.</desc>
<speed>0.010000</speed>
</trkpt>
<trkpt lat="56.060238" lon="26.481628">
<ele>114.524475</ele>
<time>2010-06-20T10:59:08Z</time>
<desc>lat.=56.060238, lon.=26.481628, Alt.=114.524475m. Speed=0.000000m/h.</desc>
<speed>0.000000</speed>
</trkpt>
<trkpt lat="56.060238" lon="26.481628">
<ele>114.518616</ele>
<time>2010-06-20T10:59:09Z</time>
<desc>lat.=56.060238, lon.=26.481628, Alt.=114.518616m. Speed=0.036000m/h.</desc>
<speed>0.010000</speed>
</trkpt>
<trkpt lat="56.060238" lon="26.481628">
<ele>114.516663</ele>
<time>2010-06-20T10:59:10Z</time>
<desc>lat.=56.060238, lon.=26.481628, Alt.=114.516663m. Speed=0.000000m/h.</desc>
<speed>0.000000</speed>
</trkpt>
<trkpt lat="56.060238" lon="26.481628">
<ele>114.508850</ele>
<time>2010-06-20T10:59:11Z</time>
<desc>lat.=56.060238, lon.=26.481628, Alt.=114.508850m. Speed=0.000000m/h.</desc>
<speed>0.000000</speed>
</trkpt>
<trkpt lat="56.060238" lon="26.481628">
<ele>114.502991</ele>
<time>2010-06-20T10:59:12Z</time>
<desc>lat.=56.060238, lon.=26.481628, Alt.=114.502991m. Speed=0.072000m/h.</desc>
<speed>0.020000</speed>
</trkpt>
<trkpt lat="56.060238" lon="26.481628">
<ele>114.495178</ele>
<time>2010-06-20T10:59:13Z</time>
<desc>lat.=56.060238, lon.=26.481628, Alt.=114.495178m. Speed=0.000000m/h.</desc>
<speed>0.000000</speed>
</trkpt>
<trkpt lat="56.060238" lon="26.481628">
<ele>114.485413</ele>
<time>2010-06-20T10:59:14Z</time>
<desc>lat.=56.060238, lon.=26.481628, Alt.=114.485413m. Speed=0.036000m/h.</desc>
<speed>0.010000</speed>
</trkpt>
<trkpt lat="56.060238" lon="26.481630">
<ele>114.477600</ele>
<time>2010-06-20T10:59:15Z</time>
<desc>lat.=56.060238, lon.=26.481630, Alt.=114.477600m. Speed=0.000000m/h.</desc>
<speed>0.000000</speed>
</trkpt>
<trkpt lat="56.060238" lon="26.481630">
<ele>114.473694</ele>
<time>2010-06-20T10:59:16Z</time>
<desc>lat.=56.060238, lon.=26.481630, Alt.=114.473694m. Speed=0.072000m/h.</desc>
<speed>0.020000</speed>
</trkpt>
<trkpt lat="56.060238" lon="26.481630">
<ele>114.465881</ele>
<time>2010-06-20T10:59:17Z</time>
<desc>lat.=56.060238, lon.=26.481630, Alt.=114.465881m. Speed=0.036000m/h.</desc>
<speed>0.010000</speed>
</trkpt>
<trkpt lat="56.060238" lon="26.481630">
<ele>114.460022</ele>
<time>2010-06-20T10:59:18Z</time>
<desc>lat.=56.060238, lon.=26.481630, Alt.=114.460022m. Speed=0.000000m/h.</desc>
<speed>0.000000</speed>
</trkpt>
<trkpt lat="56.060238" lon="26.481630">
<ele>114.456116</ele>
<time>2010-06-20T10:59:19Z</time>
<desc>lat.=56.060238, lon.=26.481630, Alt.=114.456116m. Speed=0.036000m/h.</desc>
<speed>0.010000</speed>
</trkpt>
<trkpt lat="56.060238" lon="26.481630">
<ele>114.454163</ele>
<time>2010-06-20T10:59:20Z</time>
<desc>lat.=56.060238, lon.=26.481630, Alt.=114.454163m. Speed=0.000000m/h.</desc>
<speed>0.000000</speed>
</trkpt>
<trkpt lat="56.060238" lon="26.481630">
<ele>114.448303</ele>
<time>2010-06-20T10:59:21Z</time>
<desc>lat.=56.060238, lon.=26.481630, Alt.=114.448303m. Speed=0.036000m/h.</desc>
<speed>0.010000</speed>
</trkpt>
<trkpt lat="56.060238" lon="26.481630">
<ele>114.446350</ele>
<time>2010-06-20T10:59:22Z</time>
<desc>lat.=56.060238, lon.=26.481630, Alt.=114.446350m. Speed=0.000000m/h.</desc>
<speed>0.000000</speed>
</trkpt>
<trkpt lat="56.060238" lon="26.481630">
<ele>114.440491</ele>
<time>2010-06-20T10:59:23Z</time>
<desc>lat.=56.060238, lon.=26.481630, Alt.=114.440491m. Speed=0.036000m/h.</desc>
<speed>0.010000</speed>
</trkpt>
<trkpt lat="56.060238" lon="26.481630">
<ele>114.432678</ele>
<time>2010-06-20T10:59:24Z</time>
<desc>lat.=56.060238, lon.=26.481630, Alt.=114.432678m. Speed=0.072000m/h.</desc>
<speed>0.020000</speed>
</trkpt>
<trkpt lat="56.060238" lon="26.481630">
<ele>114.428772</ele>
<time>2010-06-20T10:59:25Z</time>
<desc>lat.=56.060238, lon.=26.481630, Alt.=114.428772m. Speed=0.000000m/h.</desc>
<speed>0.000000</speed>
</trkpt>
<trkpt lat="56.060238" lon="26.481630">
<ele>114.424866</ele>
<time>2010-06-20T10:59:26Z</time>
<desc>lat.=56.060238, lon.=26.481630, Alt.=114.424866m. Speed=0.000000m/h.</desc>
<speed>0.000000</speed>
</trkpt>
<trkpt lat="56.060238" lon="26.481630">
<ele>114.426819</ele>
<time>2010-06-20T10:59:27Z</time>
<desc>lat.=56.060238, lon.=26.481630, Alt.=114.426819m. Speed=0.036000m/h.</desc>
<speed>0.010000</speed>
</trkpt>
<trkpt lat="56.060238" lon="26.481630">
<ele>114.424866</ele>
<time>2010-06-20T10:59:28Z</time>
<desc>lat.=56.060238, lon.=26.481630, Alt.=114.424866m. Speed=0.072000m/h.</desc>
<speed>0.020000</speed>
</trkpt>
<trkpt lat="56.060238" lon="26.481630">
<ele>114.420959</ele>
<time>2010-06-20T10:59:29Z</time>
<desc>lat.=56.060238, lon.=26.481630, Alt.=114.420959m. Speed=0.036000m/h.</desc>
<speed>0.010000</speed>
</trkpt>
<trkpt lat="56.060238" lon="26.481630">
<ele>114.409241</ele>
<time>2010-06-20T10:59:30Z</time>
<desc>lat.=56.060238, lon.=26.481630, Alt.=114.409241m. Speed=0.072000m/h.</desc>
<speed>0.020000</speed>
</trkpt>
<trkpt lat="56.060238" lon="26.481630">
<ele>114.399475</ele>
<time>2010-06-20T10:59:31Z</time>
<desc>lat.=56.060238, lon.=26.481630, Alt.=114.399475m. Speed=0.072000m/h.</desc>
<speed>0.020000</speed>
</trkpt>
<trkpt lat="56.060238" lon="26.481630">
<ele>114.393616</ele>
<time>2010-06-20T10:59:32Z</time>
<desc>lat.=56.060238, lon.=26.481630, Alt.=114.393616m. Speed=0.036000m/h.</desc>
<speed>0.010000</speed>
</trkpt>
<trkpt lat="56.060238" lon="26.481630">
<ele>114.393616</ele>
<time>2010-06-20T10:59:33Z</time>
<desc>lat.=56.060238, lon.=26.481630, Alt.=114.393616m. Speed=0.000000m/h.</desc>
<speed>0.000000</speed>
</trkpt>
<trkpt lat="56.060238" lon="26.481630">
<ele>114.397522</ele>
<time>2010-06-20T10:59:34Z</time>
<desc>lat.=56.060238, lon.=26.481630, Alt.=114.397522m. Speed=0.000000m/h.</desc>
<speed>0.000000</speed>
</trkpt>
<trkpt lat="56.060238" lon="26.481630">
<ele>114.403381</ele>
<time>2010-06-20T10:59:35Z</time>
<desc>lat.=56.060238, lon.=26.481630, Alt.=114.403381m. Speed=0.000000m/h.</desc>
<speed>0.000000</speed>
</trkpt>
<trkpt lat="56.060238" lon="26.481630">
<ele>114.409241</ele>
<time>2010-06-20T10:59:36Z</time>
<desc>lat.=56.060238, lon.=26.481630, Alt.=114.409241m. Speed=0.000000m/h.</desc>
<speed>0.000000</speed>
</trkpt>
<trkpt lat="56.060238" lon="26.481630">
<ele>114.409241</ele>
<time>2010-06-20T10:59:37Z</time>
<desc>lat.=56.060238, lon.=26.481630, Alt.=114.409241m. Speed=0.036000m/h.</desc>
<speed>0.010000</speed>
</trkpt>
<trkpt lat="56.060238" lon="26.481630">
<ele>114.411194</ele>
<time>2010-06-20T10:59:38Z</time>
<desc>lat.=56.060238, lon.=26.481630, Alt.=114.411194m. Speed=0.036000m/h.</desc>
<speed>0.010000</speed>
</trkpt>
<trkpt lat="56.060238" lon="26.481630">
<ele>114.415100</ele>
<time>2010-06-20T10:59:39Z</time>
<desc>lat.=56.060238, lon.=26.481630, Alt.=114.415100m. Speed=0.000000m/h.</desc>
<speed>0.000000</speed>
</trkpt>
<trkpt lat="56.060238" lon="26.481630">
<ele>114.415100</ele>
<time>2010-06-20T10:59:40Z</time>
<desc>lat.=56.060238, lon.=26.481630, Alt.=114.415100m. Speed=0.036000m/h.</desc>
<speed>0.010000</speed>
</trkpt>
<trkpt lat="56.060238" lon="26.481630">
<ele>114.413147</ele>
<time>2010-06-20T10:59:41Z</time>
<desc>lat.=56.060238, lon.=26.481630, Alt.=114.413147m. Speed=0.072000m/h.</desc>
<speed>0.020000</speed>
</trkpt>
<trkpt lat="56.060238" lon="26.481630">
<ele>114.405334</ele>
<time>2010-06-20T10:59:42Z</time>
<desc>lat.=56.060238, lon.=26.481630, Alt.=114.405334m. Speed=0.072000m/h.</desc>
<speed>0.020000</speed>
</trkpt>
<trkpt lat="56.060238" lon="26.481630">
<ele>114.399475</ele>
<time>2010-06-20T10:59:43Z</time>
<desc>lat.=56.060238, lon.=26.481630, Alt.=114.399475m. Speed=0.036000m/h.</desc>
<speed>0.010000</speed>
</trkpt>
<trkpt lat="56.060238" lon="26.481630">
<ele>114.395569</ele>
<time>2010-06-20T10:59:44Z</time>
<desc>lat.=56.060238, lon.=26.481630, Alt.=114.395569m. Speed=0.000000m/h.</desc>
<speed>0.000000</speed>
</trkpt>
<trkpt lat="56.060238" lon="26.481630">
<ele>114.395569</ele>
<time>2010-06-20T10:59:45Z</time>
<desc>lat.=56.060238, lon.=26.481630, Alt.=114.395569m. Speed=0.000000m/h.</desc>
<speed>0.000000</speed>
</trkpt>
<trkpt lat="56.060238" lon="26.481630">
<ele>114.397522</ele>
<time>2010-06-20T10:59:46Z</time>
<desc>lat.=56.060238, lon.=26.481630, Alt.=114.397522m. Speed=0.000000m/h.</desc>
<speed>0.000000</speed>
</trkpt>
<trkpt lat="56.060238" lon="26.481630">
<ele>114.401428</ele>
<time>2010-06-20T10:59:47Z</time>
<desc>lat.=56.060238, lon.=26.481630, Alt.=114.401428m. Speed=0.072000m/h.</desc>
<speed>0.020000</speed>
</trkpt>
<trkpt lat="56.060238" lon="26.481630">
<ele>114.403381</ele>
<time>2010-06-20T10:59:48Z</time>
<desc>lat.=56.060238, lon.=26.481630, Alt.=114.403381m. Speed=0.000000m/h.</desc>
<speed>0.000000</speed>
</trkpt>
<trkpt lat="56.060238" lon="26.481630">
<ele>114.403381</ele>
<time>2010-06-20T10:59:49Z</time>
<desc>lat.=56.060238, lon.=26.481630, Alt.=114.403381m. Speed=0.036000m/h.</desc>
<speed>0.010000</speed>
</trkpt>
<trkpt lat="56.060238" lon="26.481630">
<ele>114.411194</ele>
<time>2010-06-20T10:59:50Z</time>
<desc>lat.=56.060238, lon.=26.481630, Alt.=114.411194m. Speed=0.036000m/h.</desc>
<speed>0.010000</speed>
</trkpt>
<trkpt lat="56.060238" lon="26.481630">
<ele>114.419006</ele>
<time>2010-06-20T10:59:51Z</time>
<desc>lat.=56.060238, lon.=26.481630, Alt.=114.419006m. Speed=0.000000m/h.</desc>
<speed>0.000000</speed>
</trkpt>
<trkpt lat="56.060238" lon="26.481630">
<ele>114.426819</ele>
<time>2010-06-20T10:59:52Z</time>
<desc>lat.=56.060238, lon.=26.481630, Alt.=114.426819m. Speed=0.000000m/h.</desc>
<speed>0.000000</speed>
</trkpt>
<trkpt lat="56.060238" lon="26.481628">
<ele>114.426819</ele>
<time>2010-06-20T10:59:53Z</time>
<desc>lat.=56.060238, lon.=26.481628, Alt.=114.426819m. Speed=0.000000m/h.</desc>
<speed>0.000000</speed>
</trkpt>
<trkpt lat="56.060238" lon="26.481628">
<ele>114.430725</ele>
<time>2010-06-20T10:59:54Z</time>
<desc>lat.=56.060238, lon.=26.481628, Alt.=114.430725m. Speed=0.036000m/h.</desc>
<speed>0.010000</speed>
</trkpt>
<trkpt lat="56.060238" lon="26.481628">
<ele>114.434631</ele>
<time>2010-06-20T10:59:55Z</time>
<desc>lat.=56.060238, lon.=26.481628, Alt.=114.434631m. Speed=0.036000m/h.</desc>
<speed>0.010000</speed>
</trkpt>
<trkpt lat="56.060238" lon="26.481628">
<ele>114.432678</ele>
<time>2010-06-20T10:59:56Z</time>
<desc>lat.=56.060238, lon.=26.481628, Alt.=114.432678m. Speed=0.000000m/h.</desc>
<speed>0.000000</speed>
</trkpt>
<trkpt lat="56.060238" lon="26.481628">
<ele>114.432678</ele>
<time>2010-06-20T10:59:57Z</time>
<desc>lat.=56.060238, lon.=26.481628, Alt.=114.432678m. Speed=0.000000m/h.</desc>
<speed>0.000000</speed>
</trkpt>
<trkpt lat="56.060238" lon="26.481628">
<ele>114.428772</ele>
<time>2010-06-20T10:59:58Z</time>
<desc>lat.=56.060238, lon.=26.481628, Alt.=114.428772m. Speed=0.000000m/h.</desc>
<speed>0.000000</speed>
</trkpt>
<trkpt lat="56.060238" lon="26.481628">
<ele>114.422913</ele>
<time>2010-06-20T10:59:59Z</time>
<desc>lat.=56.060238, lon.=26.481628, Alt.=114.422913m. Speed=0.000000m/h.</desc>
<speed>0.000000</speed>
</trkpt>
<trkpt lat="56.060238" lon="26.481628">
<ele>114.417053</ele>
<time>2010-06-20T11:00:00Z</time>
<desc>lat.=56.060238, lon.=26.481628, Alt.=114.417053m. Speed=0.036000m/h.</desc>
<speed>0.010000</speed>
</trkpt>
<trkpt lat="56.060238" lon="26.481628">
<ele>114.401428</ele>
<time>2010-06-20T11:00:01Z</time>
<desc>lat.=56.060238, lon.=26.481628, Alt.=114.401428m. Speed=0.000000m/h.</desc>
<speed>0.000000</speed>
</trkpt>
<trkpt lat="56.060238" lon="26.481628">
<ele>114.395569</ele>
<time>2010-06-20T11:00:02Z</time>
<desc>lat.=56.060238, lon.=26.481628, Alt.=114.395569m. Speed=0.000000m/h.</desc>
<speed>0.000000</speed>
</trkpt>
<trkpt lat="56.060238" lon="26.481628">
<ele>114.385803</ele>
<time>2010-06-20T11:00:03Z</time>
<desc>lat.=56.060238, lon.=26.481628, Alt.=114.385803m. Speed=0.000000m/h.</desc>
<speed>0.000000</speed>
</trkpt>
<trkpt lat="56.060238" lon="26.481628">
<ele>114.368225</ele>
<time>2010-06-20T11:00:04Z</time>
<desc>lat.=56.060238, lon.=26.481628, Alt.=114.368225m. Speed=0.036000m/h.</desc>
<speed>0.010000</speed>
</trkpt>
<trkpt lat="56.060238" lon="26.481628">
<ele>114.342834</ele>
<time>2010-06-20T11:00:05Z</time>
<desc>lat.=56.060238, lon.=26.481628, Alt.=114.342834m. Speed=0.000000m/h.</desc>
<speed>0.000000</speed>
</trkpt>
<trkpt lat="56.060238" lon="26.481628">
<ele>114.335022</ele>
<time>2010-06-20T11:00:06Z</time>
<desc>lat.=56.060238, lon.=26.481628, Alt.=114.335022m. Speed=0.000000m/h.</desc>
<speed>0.000000</speed>
</trkpt>
<trkpt lat="56.060238" lon="26.481628">
<ele>114.327209</ele>
<time>2010-06-20T11:00:07Z</time>
<desc>lat.=56.060238, lon.=26.481628, Alt.=114.327209m. Speed=0.036000m/h.</desc>
<speed>0.010000</speed>
</trkpt>
<trkpt lat="56.060238" lon="26.481628">
<ele>114.311584</ele>
<time>2010-06-20T11:00:08Z</time>
<desc>lat.=56.060238, lon.=26.481628, Alt.=114.311584m. Speed=0.000000m/h.</desc>
<speed>0.000000</speed>
</trkpt>
<trkpt lat="56.060238" lon="26.481628">
<ele>114.294006</ele>
<time>2010-06-20T11:00:09Z</time>
<desc>lat.=56.060238, lon.=26.481628, Alt.=114.294006m. Speed=0.000000m/h.</desc>
<speed>0.000000</speed>
</trkpt>
<trkpt lat="56.060238" lon="26.481628">
<ele>114.278381</ele>
<time>2010-06-20T11:00:10Z</time>
<desc>lat.=56.060238, lon.=26.481628, Alt.=114.278381m. Speed=0.036000m/h.</desc>
<speed>0.010000</speed>
</trkpt>
<trkpt lat="56.060238" lon="26.481628">
<ele>114.266663</ele>
<time>2010-06-20T11:00:11Z</time>
<desc>lat.=56.060238, lon.=26.481628, Alt.=114.266663m. Speed=0.036000m/h.</desc>
<speed>0.010000</speed>
</trkpt>
<trkpt lat="56.060238" lon="26.481628">
<ele>114.258850</ele>
<time>2010-06-20T11:00:12Z</time>
<desc>lat.=56.060238, lon.=26.481628, Alt.=114.258850m. Speed=0.000000m/h.</desc>
<speed>0.000000</speed>
</trkpt>
<trkpt lat="56.060238" lon="26.481628">
<ele>114.256897</ele>
<time>2010-06-20T11:00:13Z</time>
<desc>lat.=56.060238, lon.=26.481628, Alt.=114.256897m. Speed=0.036000m/h.</desc>
<speed>0.010000</speed>
</trkpt>
<trkpt lat="56.060238" lon="26.481628">
<ele>114.245178</ele>
<time>2010-06-20T11:00:14Z</time>
<desc>lat.=56.060238, lon.=26.481628, Alt.=114.245178m. Speed=0.000000m/h.</desc>
<speed>0.000000</speed>
</trkpt>
<trkpt lat="56.060238" lon="26.481628">
<ele>114.237366</ele>
<time>2010-06-20T11:00:15Z</time>
<desc>lat.=56.060238, lon.=26.481628, Alt.=114.237366m. Speed=0.036000m/h.</desc>
<speed>0.010000</speed>
</trkpt>
<trkpt lat="56.060238" lon="26.481628">
<ele>114.233459</ele>
<time>2010-06-20T11:00:16Z</time>
<desc>lat.=56.060238, lon.=26.481628, Alt.=114.233459m. Speed=0.072000m/h.</desc>
<speed>0.020000</speed>
</trkpt>
<trkpt lat="56.060238" lon="26.481628">
<ele>114.227600</ele>
<time>2010-06-20T11:00:17Z</time>
<desc>lat.=56.060238, lon.=26.481628, Alt.=114.227600m. Speed=0.036000m/h.</desc>
<speed>0.010000</speed>
</trkpt>
<trkpt lat="56.060238" lon="26.481628">
<ele>114.217834</ele>
<time>2010-06-20T11:00:18Z</time>
<desc>lat.=56.060238, lon.=26.481628, Alt.=114.217834m. Speed=0.036000m/h.</desc>
<speed>0.010000</speed>
</trkpt>
<trkpt lat="56.060234" lon="26.481628">
<ele>114.211975</ele>
<time>2010-06-20T11:00:19Z</time>
<desc>lat.=56.060234, lon.=26.481628, Alt.=114.211975m. Speed=0.072000m/h.</desc>
<speed>0.020000</speed>
</trkpt>
<trkpt lat="56.060234" lon="26.481628">
<ele>114.194397</ele>
<time>2010-06-20T11:00:20Z</time>
<desc>lat.=56.060234, lon.=26.481628, Alt.=114.194397m. Speed=0.036000m/h.</desc>
<speed>0.010000</speed>
</trkpt>
<trkpt lat="56.060234" lon="26.481628">
<ele>114.188538</ele>
<time>2010-06-20T11:00:21Z</time>
<desc>lat.=56.060234, lon.=26.481628, Alt.=114.188538m. Speed=0.000000m/h.</desc>
<speed>0.000000</speed>
</trkpt>
<trkpt lat="56.060234" lon="26.481628">
<ele>114.174866</ele>
<time>2010-06-20T11:00:22Z</time>
<desc>lat.=56.060234, lon.=26.481628, Alt.=114.174866m. Speed=0.000000m/h.</desc>
<speed>0.000000</speed>
</trkpt>
<trkpt lat="56.060234" lon="26.481628">
<ele>114.163147</ele>
<time>2010-06-20T11:00:23Z</time>
<desc>lat.=56.060234, lon.=26.481628, Alt.=114.163147m. Speed=0.036000m/h.</desc>
<speed>0.010000</speed>
</trkpt>
<trkpt lat="56.060234" lon="26.481628">
<ele>114.157288</ele>
<time>2010-06-20T11:00:24Z</time>
<desc>lat.=56.060234, lon.=26.481628, Alt.=114.157288m. Speed=0.000000m/h.</desc>
<speed>0.000000</speed>
</trkpt>
<trkpt lat="56.060234" lon="26.481628">
<ele>114.157288</ele>
<time>2010-06-20T11:00:25Z</time>
<desc>lat.=56.060234, lon.=26.481628, Alt.=114.157288m. Speed=0.072000m/h.</desc>
<speed>0.020000</speed>
</trkpt>
<trkpt lat="56.060234" lon="26.481628">
<ele>114.159241</ele>
<time>2010-06-20T11:00:26Z</time>
<desc>lat.=56.060234, lon.=26.481628, Alt.=114.159241m. Speed=0.036000m/h.</desc>
<speed>0.010000</speed>
</trkpt>
<trkpt lat="56.060234" lon="26.481628">
<ele>114.159241</ele>
<time>2010-06-20T11:00:27Z</time>
<desc>lat.=56.060234, lon.=26.481628, Alt.=114.159241m. Speed=0.000000m/h.</desc>
<speed>0.000000</speed>
</trkpt>
<trkpt lat="56.060234" lon="26.481628">
<ele>114.145569</ele>
<time>2010-06-20T11:00:28Z</time>
<desc>lat.=56.060234, lon.=26.481628, Alt.=114.145569m. Speed=0.000000m/h.</desc>
<speed>0.000000</speed>
</trkpt>
<trkpt lat="56.060234" lon="26.481628">
<ele>114.139709</ele>
<time>2010-06-20T11:00:29Z</time>
<desc>lat.=56.060234, lon.=26.481628, Alt.=114.139709m. Speed=0.000000m/h.</desc>
<speed>0.000000</speed>
</trkpt>
<trkpt lat="56.060234" lon="26.481628">
<ele>114.139709</ele>
<time>2010-06-20T11:00:30Z</time>
<desc>lat.=56.060234, lon.=26.481628, Alt.=114.139709m. Speed=0.000000m/h.</desc>
<speed>0.000000</speed>
</trkpt>
<trkpt lat="56.060234" lon="26.481628">
<ele>114.141663</ele>
<time>2010-06-20T11:00:31Z</time>
<desc>lat.=56.060234, lon.=26.481628, Alt.=114.141663m. Speed=0.036000m/h.</desc>
<speed>0.010000</speed>
</trkpt>
<trkpt lat="56.060234" lon="26.481628">
<ele>114.133850</ele>
<time>2010-06-20T11:00:32Z</time>
<desc>lat.=56.060234, lon.=26.481628, Alt.=114.133850m. Speed=0.108000m/h.</desc>
<speed>0.030000</speed>
</trkpt>
<trkpt lat="56.060234" lon="26.481628">
<ele>114.135803</ele>
<time>2010-06-20T11:00:33Z</time>
<desc>lat.=56.060234, lon.=26.481628, Alt.=114.135803m. Speed=0.036000m/h.</desc>
<speed>0.010000</speed>
</trkpt>
<trkpt lat="56.060234" lon="26.481628">
<ele>114.135803</ele>
<time>2010-06-20T11:00:34Z</time>
<desc>lat.=56.060234, lon.=26.481628, Alt.=114.135803m. Speed=0.000000m/h.</desc>
<speed>0.000000</speed>
</trkpt>
<trkpt lat="56.060234" lon="26.481628">
<ele>114.135803</ele>
<time>2010-06-20T11:00:35Z</time>
<desc>lat.=56.060234, lon.=26.481628, Alt.=114.135803m. Speed=0.036000m/h.</desc>
<speed>0.010000</speed>
</trkpt>
<trkpt lat="56.060234" lon="26.481628">
<ele>114.139709</ele>
<time>2010-06-20T11:00:36Z</time>
<desc>lat.=56.060234, lon.=26.481628, Alt.=114.139709m. Speed=0.180000m/h.</desc>
<speed>0.050000</speed>
</trkpt>
<trkpt lat="56.060234" lon="26.481628">
<ele>114.139709</ele>
<time>2010-06-20T11:00:37Z</time>
<desc>lat.=56.060234, lon.=26.481628, Alt.=114.139709m. Speed=0.000000m/h.</desc>
<speed>0.000000</speed>
</trkpt>
<trkpt lat="56.060234" lon="26.481628">
<ele>114.149475</ele>
<time>2010-06-20T11:00:38Z</time>
<desc>lat.=56.060234, lon.=26.481628, Alt.=114.149475m. Speed=0.036000m/h.</desc>
<speed>0.010000</speed>
</trkpt>
<trkpt lat="56.060234" lon="26.481628">
<ele>114.151428</ele>
<time>2010-06-20T11:00:39Z</time>
<desc>lat.=56.060234, lon.=26.481628, Alt.=114.151428m. Speed=0.036000m/h.</desc>
<speed>0.010000</speed>
</trkpt>
<trkpt lat="56.060234" lon="26.481628">
<ele>114.153381</ele>
<time>2010-06-20T11:00:40Z</time>
<desc>lat.=56.060234, lon.=26.481628, Alt.=114.153381m. Speed=0.252000m/h.</desc>
<speed>0.070000</speed>
</trkpt>
<trkpt lat="56.060234" lon="26.481628">
<ele>114.155334</ele>
<time>2010-06-20T11:00:41Z</time>
<desc>lat.=56.060234, lon.=26.481628, Alt.=114.155334m. Speed=0.468000m/h.</desc>
<speed>0.130000</speed>
</trkpt>
<trkpt lat="56.060234" lon="26.481628">
<ele>114.147522</ele>
<time>2010-06-20T11:00:42Z</time>
<desc>lat.=56.060234, lon.=26.481628, Alt.=114.147522m. Speed=0.972000m/h.</desc>
<speed>0.270000</speed>
</trkpt>
<trkpt lat="56.060234" lon="26.481630">
<ele>114.145569</ele>
<time>2010-06-20T11:00:43Z</time>
<desc>lat.=56.060234, lon.=26.481630, Alt.=114.145569m. Speed=0.900000m/h.</desc>
<speed>0.250000</speed>
</trkpt>
<trkpt lat="56.060230" lon="26.481634">
<ele>114.141663</ele>
<time>2010-06-20T11:00:44Z</time>
<desc>lat.=56.060230, lon.=26.481634, Alt.=114.141663m. Speed=0.828000m/h.</desc>
<speed>0.230000</speed>
</trkpt>
<trkpt lat="56.060230" lon="26.481636">
<ele>114.133850</ele>
<time>2010-06-20T11:00:45Z</time>
<desc>lat.=56.060230, lon.=26.481636, Alt.=114.133850m. Speed=0.504000m/h.</desc>
<speed>0.140000</speed>
</trkpt>
<trkpt lat="56.060226" lon="26.481636">
<ele>114.120178</ele>
<time>2010-06-20T11:00:46Z</time>
<desc>lat.=56.060226, lon.=26.481636, Alt.=114.120178m. Speed=0.540000m/h.</desc>
<speed>0.150000</speed>
</trkpt>
<trkpt lat="56.060226" lon="26.481638">
<ele>114.106506</ele>
<time>2010-06-20T11:00:47Z</time>
<desc>lat.=56.060226, lon.=26.481638, Alt.=114.106506m. Speed=0.432000m/h.</desc>
<speed>0.120000</speed>
</trkpt>
<trkpt lat="56.060226" lon="26.481638">
<ele>114.096741</ele>
<time>2010-06-20T11:00:48Z</time>
<desc>lat.=56.060226, lon.=26.481638, Alt.=114.096741m. Speed=0.504000m/h.</desc>
<speed>0.140000</speed>
</trkpt>
<trkpt lat="56.060223" lon="26.481640">
<ele>114.083069</ele>
<time>2010-06-20T11:00:49Z</time>
<desc>lat.=56.060223, lon.=26.481640, Alt.=114.083069m. Speed=0.468000m/h.</desc>
<speed>0.130000</speed>
</trkpt>
<trkpt lat="56.060223" lon="26.481640">
<ele>114.067444</ele>
<time>2010-06-20T11:00:50Z</time>
<desc>lat.=56.060223, lon.=26.481640, Alt.=114.067444m. Speed=0.540000m/h.</desc>
<speed>0.150000</speed>
</trkpt>
<trkpt lat="56.060223" lon="26.481638">
<ele>114.044006</ele>
<time>2010-06-20T11:00:51Z</time>
<desc>lat.=56.060223, lon.=26.481638, Alt.=114.044006m. Speed=0.540000m/h.</desc>
<speed>0.150000</speed>
</trkpt>
<trkpt lat="56.060219" lon="26.481638">
<ele>114.020569</ele>
<time>2010-06-20T11:00:52Z</time>
<desc>lat.=56.060219, lon.=26.481638, Alt.=114.020569m. Speed=0.432000m/h.</desc>
<speed>0.120000</speed>
</trkpt>
<trkpt lat="56.060219" lon="26.481638">
<ele>114.001038</ele>
<time>2010-06-20T11:00:53Z</time>
<desc>lat.=56.060219, lon.=26.481638, Alt.=114.001038m. Speed=0.792000m/h.</desc>
<speed>0.220000</speed>
</trkpt>
<trkpt lat="56.060219" lon="26.481636">
<ele>113.975647</ele>
<time>2010-06-20T11:00:54Z</time>
<desc>lat.=56.060219, lon.=26.481636, Alt.=113.975647m. Speed=2.124000m/h.</desc>
<speed>0.590000</speed>
</trkpt>
<trkpt lat="56.060204" lon="26.481636">
<ele>113.428772</ele>
<time>2010-06-20T11:00:55Z</time>
<desc>lat.=56.060204, lon.=26.481636, Alt.=113.428772m. Speed=2.592000m/h.</desc>
<speed>0.720000</speed>
</trkpt>
<trkpt lat="56.060192" lon="26.481640">
<ele>113.522522</ele>
<time>2010-06-20T11:00:56Z</time>
<desc>lat.=56.060192, lon.=26.481640, Alt.=113.522522m. Speed=3.528000m/h.</desc>
<speed>0.980000</speed>
</trkpt>
<trkpt lat="56.060173" lon="26.481657">
<ele>113.288147</ele>
<time>2010-06-20T11:00:57Z</time>
<desc>lat.=56.060173, lon.=26.481657, Alt.=113.288147m. Speed=4.716000m/h.</desc>
<speed>1.310000</speed>
</trkpt>
<trkpt lat="56.060150" lon="26.481674">
<ele>112.922913</ele>
<time>2010-06-20T11:00:58Z</time>
<desc>lat.=56.060150, lon.=26.481674, Alt.=112.922913m. Speed=8.316000m/h.</desc>
<speed>2.310000</speed>
</trkpt>
<trkpt lat="56.060131" lon="26.481680">
<ele>112.817444</ele>
<time>2010-06-20T11:00:59Z</time>
<desc>lat.=56.060131, lon.=26.481680, Alt.=112.817444m. Speed=6.732000m/h.</desc>
<speed>1.870000</speed>
</trkpt>
<trkpt lat="56.060108" lon="26.481689">
<ele>112.305725</ele>
<time>2010-06-20T11:01:00Z</time>
<desc>lat.=56.060108, lon.=26.481689, Alt.=112.305725m. Speed=7.416000m/h.</desc>
<speed>2.060000</speed>
</trkpt>
<trkpt lat="56.060085" lon="26.481686">
<ele>112.301819</ele>
<time>2010-06-20T11:01:01Z</time>
<desc>lat.=56.060085, lon.=26.481686, Alt.=112.301819m. Speed=10.980000m/h.</desc>
<speed>3.050000</speed>
</trkpt>
<trkpt lat="56.060062" lon="26.481691">
<ele>112.055725</ele>
<time>2010-06-20T11:01:02Z</time>
<desc>lat.=56.060062, lon.=26.481691, Alt.=112.055725m. Speed=4.500000m/h.</desc>
<speed>1.250000</speed>
</trkpt>
<trkpt lat="56.060051" lon="26.481695">
<ele>111.956116</ele>
<time>2010-06-20T11:01:03Z</time>
<desc>lat.=56.060051, lon.=26.481695, Alt.=111.956116m. Speed=3.888000m/h.</desc>
<speed>1.080000</speed>
</trkpt>
<trkpt lat="56.060036" lon="26.481699">
<ele>111.803772</ele>
<time>2010-06-20T11:01:04Z</time>
<desc>lat.=56.060036, lon.=26.481699, Alt.=111.803772m. Speed=4.500000m/h.</desc>
<speed>1.250000</speed>
</trkpt>
<trkpt lat="56.060020" lon="26.481707">
<ele>111.725647</ele>
<time>2010-06-20T11:01:05Z</time>
<desc>lat.=56.060020, lon.=26.481707, Alt.=111.725647m. Speed=3.744000m/h.</desc>
<speed>1.040000</speed>
</trkpt>
<trkpt lat="56.060005" lon="26.481709">
<ele>111.954163</ele>
<time>2010-06-20T11:01:06Z</time>
<desc>lat.=56.060005, lon.=26.481709, Alt.=111.954163m. Speed=4.464000m/h.</desc>
<speed>1.240000</speed>
</trkpt>
<trkpt lat="56.059990" lon="26.481707">
<ele>111.891663</ele>
<time>2010-06-20T11:01:07Z</time>
<desc>lat.=56.059990, lon.=26.481707, Alt.=111.891663m. Speed=4.032000m/h.</desc>
<speed>1.120000</speed>
</trkpt>
<trkpt lat="56.059978" lon="26.481703">
<ele>111.813538</ele>
<time>2010-06-20T11:01:08Z</time>
<desc>lat.=56.059978, lon.=26.481703, Alt.=111.813538m. Speed=3.240000m/h.</desc>
<speed>0.900000</speed>
</trkpt>
<trkpt lat="56.059967" lon="26.481693">
<ele>110.897522</ele>
<time>2010-06-20T11:01:09Z</time>
<desc>lat.=56.059967, lon.=26.481693, Alt.=110.897522m. Speed=2.772000m/h.</desc>
<speed>0.770000</speed>
</trkpt>
<trkpt lat="56.059956" lon="26.481697">
<ele>110.731506</ele>
<time>2010-06-20T11:01:10Z</time>
<desc>lat.=56.059956, lon.=26.481697, Alt.=110.731506m. Speed=2.988000m/h.</desc>
<speed>0.830000</speed>
</trkpt>
<trkpt lat="56.059940" lon="26.481697">
<ele>110.514709</ele>
<time>2010-06-20T11:01:11Z</time>
<desc>lat.=56.059940, lon.=26.481697, Alt.=110.514709m. Speed=5.004000m/h.</desc>
<speed>1.390000</speed>
</trkpt>
<trkpt lat="56.059921" lon="26.481699">
<ele>109.366272</ele>
<time>2010-06-20T11:01:12Z</time>
<desc>lat.=56.059921, lon.=26.481699, Alt.=109.366272m. Speed=4.572000m/h.</desc>
<speed>1.270000</speed>
</trkpt>
<trkpt lat="56.059895" lon="26.481712">
<ele>107.708069</ele>
<time>2010-06-20T11:01:13Z</time>
<desc>lat.=56.059895, lon.=26.481712, Alt.=107.708069m. Speed=5.400000m/h.</desc>
<speed>1.500000</speed>
</trkpt>
<trkpt lat="56.059879" lon="26.481731">
<ele>107.155334</ele>
<time>2010-06-20T11:01:14Z</time>
<desc>lat.=56.059879, lon.=26.481731, Alt.=107.155334m. Speed=4.428000m/h.</desc>
<speed>1.230000</speed>
</trkpt>
<trkpt lat="56.059864" lon="26.481747">
<ele>106.594788</ele>
<time>2010-06-20T11:01:15Z</time>
<desc>lat.=56.059864, lon.=26.481747, Alt.=106.594788m. Speed=4.212000m/h.</desc>
<speed>1.170000</speed>
</trkpt>
<trkpt lat="56.059845" lon="26.481745">
<ele>105.975647</ele>
<time>2010-06-20T11:01:16Z</time>
<desc>lat.=56.059845, lon.=26.481745, Alt.=105.975647m. Speed=5.436000m/h.</desc>
<speed>1.510000</speed>
</trkpt>
<trkpt lat="56.059830" lon="26.481741">
<ele>105.586975</ele>
<time>2010-06-20T11:01:17Z</time>
<desc>lat.=56.059830, lon.=26.481741, Alt.=105.586975m. Speed=3.312000m/h.</desc>
<speed>0.920000</speed>
</trkpt>
<trkpt lat="56.059814" lon="26.481745">
<ele>104.245178</ele>
<time>2010-06-20T11:01:18Z</time>
<desc>lat.=56.059814, lon.=26.481745, Alt.=104.245178m. Speed=4.860000m/h.</desc>
<speed>1.350000</speed>
</trkpt>
<trkpt lat="56.059795" lon="26.481745">
<ele>103.967834</ele>
<time>2010-06-20T11:01:19Z</time>
<desc>lat.=56.059795, lon.=26.481745, Alt.=103.967834m. Speed=4.104000m/h.</desc>
<speed>1.140000</speed>
</trkpt>
<trkpt lat="56.059780" lon="26.481747">
<ele>103.504944</ele>
<time>2010-06-20T11:01:20Z</time>
<desc>lat.=56.059780, lon.=26.481747, Alt.=103.504944m. Speed=5.472000m/h.</desc>
<speed>1.520000</speed>
</trkpt>
<trkpt lat="56.059757" lon="26.481749">
<ele>103.206116</ele>
<time>2010-06-20T11:01:21Z</time>
<desc>lat.=56.059757, lon.=26.481749, Alt.=103.206116m. Speed=3.600000m/h.</desc>
<speed>1.000000</speed>
</trkpt>
<trkpt lat="56.059734" lon="26.481766">
<ele>103.034241</ele>
<time>2010-06-20T11:01:22Z</time>
<desc>lat.=56.059734, lon.=26.481766, Alt.=103.034241m. Speed=5.040000m/h.</desc>
<speed>1.400000</speed>
</trkpt>
<trkpt lat="56.059708" lon="26.481770">
<ele>102.860413</ele>
<time>2010-06-20T11:01:23Z</time>
<desc>lat.=56.059708, lon.=26.481770, Alt.=102.860413m. Speed=4.860000m/h.</desc>
<speed>1.350000</speed>
</trkpt>
<trkpt lat="56.059681" lon="26.481777">
<ele>102.379944</ele>
<time>2010-06-20T11:01:24Z</time>
<desc>lat.=56.059681, lon.=26.481777, Alt.=102.379944m. Speed=6.552000m/h.</desc>
<speed>1.820000</speed>
</trkpt>
<trkpt lat="56.059654" lon="26.481781">
<ele>102.100647</ele>
<time>2010-06-20T11:01:25Z</time>
<desc>lat.=56.059654, lon.=26.481781, Alt.=102.100647m. Speed=6.588000m/h.</desc>
<speed>1.830000</speed>
</trkpt>
<trkpt lat="56.059628" lon="26.481785">
<ele>101.936584</ele>
<time>2010-06-20T11:01:26Z</time>
<desc>lat.=56.059628, lon.=26.481785, Alt.=101.936584m. Speed=7.452000m/h.</desc>
<speed>2.070000</speed>
</trkpt>
<trkpt lat="56.059605" lon="26.481787">
<ele>101.555725</ele>
<time>2010-06-20T11:01:27Z</time>
<desc>lat.=56.059605, lon.=26.481787, Alt.=101.555725m. Speed=7.416000m/h.</desc>
<speed>2.060000</speed>
</trkpt>
<trkpt lat="56.059586" lon="26.481800">
<ele>101.210022</ele>
<time>2010-06-20T11:01:28Z</time>
<desc>lat.=56.059586, lon.=26.481800, Alt.=101.210022m. Speed=8.856000m/h.</desc>
<speed>2.460000</speed>
</trkpt>
<trkpt lat="56.059563" lon="26.481806">
<ele>101.294006</ele>
<time>2010-06-20T11:01:29Z</time>
<desc>lat.=56.059563, lon.=26.481806, Alt.=101.294006m. Speed=8.388000m/h.</desc>
<speed>2.330000</speed>
</trkpt>
<trkpt lat="56.059540" lon="26.481810">
<ele>101.262756</ele>
<time>2010-06-20T11:01:30Z</time>
<desc>lat.=56.059540, lon.=26.481810, Alt.=101.262756m. Speed=8.208000m/h.</desc>
<speed>2.280000</speed>
</trkpt>
<trkpt lat="56.059521" lon="26.481819">
<ele>101.104553</ele>
<time>2010-06-20T11:01:31Z</time>
<desc>lat.=56.059521, lon.=26.481819, Alt.=101.104553m. Speed=6.408000m/h.</desc>
<speed>1.780000</speed>
</trkpt>
<trkpt lat="56.059494" lon="26.481829">
<ele>101.336975</ele>
<time>2010-06-20T11:01:32Z</time>
<desc>lat.=56.059494, lon.=26.481829, Alt.=101.336975m. Speed=8.712000m/h.</desc>
<speed>2.420000</speed>
</trkpt>
<trkpt lat="56.059471" lon="26.481833">
<ele>101.120178</ele>
<time>2010-06-20T11:01:33Z</time>
<desc>lat.=56.059471, lon.=26.481833, Alt.=101.120178m. Speed=7.236000m/h.</desc>
<speed>2.010000</speed>
</trkpt>
<trkpt lat="56.059456" lon="26.481834">
<ele>100.616272</ele>
<time>2010-06-20T11:01:34Z</time>
<desc>lat.=56.059456, lon.=26.481834, Alt.=100.616272m. Speed=6.660000m/h.</desc>
<speed>1.850000</speed>
</trkpt>
<trkpt lat="56.059429" lon="26.481844">
<ele>100.032288</ele>
<time>2010-06-20T11:01:35Z</time>
<desc>lat.=56.059429, lon.=26.481844, Alt.=100.032288m. Speed=10.584000m/h.</desc>
<speed>2.940000</speed>
</trkpt>
<trkpt lat="56.059399" lon="26.481857">
<ele>100.797913</ele>
<time>2010-06-20T11:01:36Z</time>
<desc>lat.=56.059399, lon.=26.481857, Alt.=100.797913m. Speed=10.656000m/h.</desc>
<speed>2.960000</speed>
</trkpt>
<trkpt lat="56.059368" lon="26.481865">
<ele>100.114319</ele>
<time>2010-06-20T11:01:37Z</time>
<desc>lat.=56.059368, lon.=26.481865, Alt.=100.114319m. Speed=9.648000m/h.</desc>
<speed>2.680000</speed>
</trkpt>
<trkpt lat="56.059338" lon="26.481884">
<ele>99.745178</ele>
<time>2010-06-20T11:01:38Z</time>
<desc>lat.=56.059338, lon.=26.481884, Alt.=99.745178m. Speed=11.772000m/h.</desc>
<speed>3.270000</speed>
</trkpt>
<trkpt lat="56.059307" lon="26.481895">
<ele>99.198303</ele>
<time>2010-06-20T11:01:39Z</time>
<desc>lat.=56.059307, lon.=26.481895, Alt.=99.198303m. Speed=7.560000m/h.</desc>
<speed>2.100000</speed>
</trkpt>
<trkpt lat="56.059284" lon="26.481903">
<ele>98.733459</ele>
<time>2010-06-20T11:01:40Z</time>
<desc>lat.=56.059284, lon.=26.481903, Alt.=98.733459m. Speed=7.956000m/h.</desc>
<speed>2.210000</speed>
</trkpt>
<trkpt lat="56.059254" lon="26.481899">
<ele>98.815491</ele>
<time>2010-06-20T11:01:41Z</time>
<desc>lat.=56.059254, lon.=26.481899, Alt.=98.815491m. Speed=8.604000m/h.</desc>
<speed>2.390000</speed>
</trkpt>
<trkpt lat="56.059227" lon="26.481903">
<ele>98.405334</ele>
<time>2010-06-20T11:01:42Z</time>
<desc>lat.=56.059227, lon.=26.481903, Alt.=98.405334m. Speed=7.632000m/h.</desc>
<speed>2.120000</speed>
</trkpt>
<trkpt lat="56.059200" lon="26.481905">
<ele>98.249084</ele>
<time>2010-06-20T11:01:43Z</time>
<desc>lat.=56.059200, lon.=26.481905, Alt.=98.249084m. Speed=8.388000m/h.</desc>
<speed>2.330000</speed>
</trkpt>
<trkpt lat="56.059181" lon="26.481911">
<ele>97.731506</ele>
<time>2010-06-20T11:01:44Z</time>
<desc>lat.=56.059181, lon.=26.481911, Alt.=97.731506m. Speed=7.200000m/h.</desc>
<speed>2.000000</speed>
</trkpt>
<trkpt lat="56.059158" lon="26.481907">
<ele>97.290100</ele>
<time>2010-06-20T11:01:45Z</time>
<desc>lat.=56.059158, lon.=26.481907, Alt.=97.290100m. Speed=6.768000m/h.</desc>
<speed>1.880000</speed>
</trkpt>
<trkpt lat="56.059132" lon="26.481895">
<ele>97.051819</ele>
<time>2010-06-20T11:01:46Z</time>
<desc>lat.=56.059132, lon.=26.481895, Alt.=97.051819m. Speed=6.984000m/h.</desc>
<speed>1.940000</speed>
</trkpt>
<trkpt lat="56.059105" lon="26.481895">
<ele>96.620178</ele>
<time>2010-06-20T11:01:47Z</time>
<desc>lat.=56.059105, lon.=26.481895, Alt.=96.620178m. Speed=3.816000m/h.</desc>
<speed>1.060000</speed>
</trkpt>
<trkpt lat="56.059078" lon="26.481907">
<ele>96.102600</ele>
<time>2010-06-20T11:01:48Z</time>
<desc>lat.=56.059078, lon.=26.481907, Alt.=96.102600m. Speed=6.948000m/h.</desc>
<speed>1.930000</speed>
</trkpt>
<trkpt lat="56.059055" lon="26.481916">
<ele>95.075256</ele>
<time>2010-06-20T11:01:49Z</time>
<desc>lat.=56.059055, lon.=26.481916, Alt.=95.075256m. Speed=8.640000m/h.</desc>
<speed>2.400000</speed>
</trkpt>
<trkpt lat="56.059032" lon="26.481926">
<ele>94.211975</ele>
<time>2010-06-20T11:01:50Z</time>
<desc>lat.=56.059032, lon.=26.481926, Alt.=94.211975m. Speed=4.284000m/h.</desc>
<speed>1.190000</speed>
</trkpt>
<trkpt lat="56.059006" lon="26.481937">
<ele>93.950256</ele>
<time>2010-06-20T11:01:51Z</time>
<desc>lat.=56.059006, lon.=26.481937, Alt.=93.950256m. Speed=10.872000m/h.</desc>
<speed>3.020000</speed>
</trkpt>
<trkpt lat="56.058979" lon="26.481956">
<ele>93.165100</ele>
<time>2010-06-20T11:01:52Z</time>
<desc>lat.=56.058979, lon.=26.481956, Alt.=93.165100m. Speed=8.784000m/h.</desc>
<speed>2.440000</speed>
</trkpt>
<trkpt lat="56.058945" lon="26.481981">
<ele>92.676819</ele>
<time>2010-06-20T11:01:53Z</time>
<desc>lat.=56.058945, lon.=26.481981, Alt.=92.676819m. Speed=10.944000m/h.</desc>
<speed>3.040000</speed>
</trkpt>
<trkpt lat="56.058910" lon="26.481995">
<ele>92.151428</ele>
<time>2010-06-20T11:01:54Z</time>
<desc>lat.=56.058910, lon.=26.481995, Alt.=92.151428m. Speed=10.008000m/h.</desc>
<speed>2.780000</speed>
</trkpt>
<trkpt lat="56.058884" lon="26.482002">
<ele>92.102600</ele>
<time>2010-06-20T11:01:55Z</time>
<desc>lat.=56.058884, lon.=26.482002, Alt.=92.102600m. Speed=7.956000m/h.</desc>
<speed>2.210000</speed>
</trkpt>
<trkpt lat="56.058861" lon="26.482010">
<ele>91.930725</ele>
<time>2010-06-20T11:01:56Z</time>
<desc>lat.=56.058861, lon.=26.482010, Alt.=91.930725m. Speed=7.776000m/h.</desc>
<speed>2.160000</speed>
</trkpt>
<trkpt lat="56.058838" lon="26.482018">
<ele>91.926819</ele>
<time>2010-06-20T11:01:57Z</time>
<desc>lat.=56.058838, lon.=26.482018, Alt.=91.926819m. Speed=6.876000m/h.</desc>
<speed>1.910000</speed>
</trkpt>
<trkpt lat="56.058819" lon="26.482027">
<ele>91.643616</ele>
<time>2010-06-20T11:01:58Z</time>
<desc>lat.=56.058819, lon.=26.482027, Alt.=91.643616m. Speed=7.560000m/h.</desc>
<speed>2.100000</speed>
</trkpt>
<trkpt lat="56.058792" lon="26.482037">
<ele>91.143616</ele>
<time>2010-06-20T11:01:59Z</time>
<desc>lat.=56.058792, lon.=26.482037, Alt.=91.143616m. Speed=8.028000m/h.</desc>
<speed>2.230000</speed>
</trkpt>
<trkpt lat="56.058773" lon="26.482050">
<ele>90.690491</ele>
<time>2010-06-20T11:02:00Z</time>
<desc>lat.=56.058773, lon.=26.482050, Alt.=90.690491m. Speed=7.236000m/h.</desc>
<speed>2.010000</speed>
</trkpt>
<trkpt lat="56.058754" lon="26.482063">
<ele>89.891663</ele>
<time>2010-06-20T11:02:01Z</time>
<desc>lat.=56.058754, lon.=26.482063, Alt.=89.891663m. Speed=5.868000m/h.</desc>
<speed>1.630000</speed>
</trkpt>
<trkpt lat="56.058731" lon="26.482069">
<ele>90.335022</ele>
<time>2010-06-20T11:02:02Z</time>
<desc>lat.=56.058731, lon.=26.482069, Alt.=90.335022m. Speed=6.840000m/h.</desc>
<speed>1.900000</speed>
</trkpt>
<trkpt lat="56.058712" lon="26.482077">
<ele>90.659241</ele>
<time>2010-06-20T11:02:03Z</time>
<desc>lat.=56.058712, lon.=26.482077, Alt.=90.659241m. Speed=7.056000m/h.</desc>
<speed>1.960000</speed>
</trkpt>
<trkpt lat="56.058689" lon="26.482096">
<ele>91.049866</ele>
<time>2010-06-20T11:02:04Z</time>
<desc>lat.=56.058689, lon.=26.482096, Alt.=91.049866m. Speed=7.776000m/h.</desc>
<speed>2.160000</speed>
</trkpt>
<trkpt lat="56.058659" lon="26.482119">
<ele>91.616272</ele>
<time>2010-06-20T11:02:05Z</time>
<desc>lat.=56.058659, lon.=26.482119, Alt.=91.616272m. Speed=8.280000m/h.</desc>
<speed>2.300000</speed>
</trkpt>
<trkpt lat="56.058640" lon="26.482145">
<ele>92.469788</ele>
<time>2010-06-20T11:02:06Z</time>
<desc>lat.=56.058640, lon.=26.482145, Alt.=92.469788m. Speed=7.416000m/h.</desc>
<speed>2.060000</speed>
</trkpt>
<trkpt lat="56.058609" lon="26.482189">
<ele>96.106506</ele>
<time>2010-06-20T11:02:07Z</time>
<desc>lat.=56.058609, lon.=26.482189, Alt.=96.106506m. Speed=8.388000m/h.</desc>
<speed>2.330000</speed>
</trkpt>
<trkpt lat="56.058582" lon="26.482225">
<ele>96.366272</ele>
<time>2010-06-20T11:02:08Z</time>
<desc>lat.=56.058582, lon.=26.482225, Alt.=96.366272m. Speed=8.280000m/h.</desc>
<speed>2.300000</speed>
</trkpt>
<trkpt lat="56.058559" lon="26.482250">
<ele>96.559631</ele>
<time>2010-06-20T11:02:09Z</time>
<desc>lat.=56.058559, lon.=26.482250, Alt.=96.559631m. Speed=9.612000m/h.</desc>
<speed>2.670000</speed>
</trkpt>
<trkpt lat="56.058533" lon="26.482281">
<ele>96.903381</ele>
<time>2010-06-20T11:02:10Z</time>
<desc>lat.=56.058533, lon.=26.482281, Alt.=96.903381m. Speed=8.928000m/h.</desc>
<speed>2.480000</speed>
</trkpt>
<trkpt lat="56.058506" lon="26.482319">
<ele>97.649475</ele>
<time>2010-06-20T11:02:11Z</time>
<desc>lat.=56.058506, lon.=26.482319, Alt.=97.649475m. Speed=11.124000m/h.</desc>
<speed>3.090000</speed>
</trkpt>
<trkpt lat="56.058483" lon="26.482344">
<ele>98.647522</ele>
<time>2010-06-20T11:02:12Z</time>
<desc>lat.=56.058483, lon.=26.482344, Alt.=98.647522m. Speed=7.632000m/h.</desc>
<speed>2.120000</speed>
</trkpt>
<trkpt lat="56.058460" lon="26.482374">
<ele>99.264709</ele>
<time>2010-06-20T11:02:13Z</time>
<desc>lat.=56.058460, lon.=26.482374, Alt.=99.264709m. Speed=9.360000m/h.</desc>
<speed>2.600000</speed>
</trkpt>
<trkpt lat="56.058437" lon="26.482409">
<ele>99.909241</ele>
<time>2010-06-20T11:02:14Z</time>
<desc>lat.=56.058437, lon.=26.482409, Alt.=99.909241m. Speed=8.496000m/h.</desc>
<speed>2.360000</speed>
</trkpt>
<trkpt lat="56.058418" lon="26.482433">
<ele>100.588928</ele>
<time>2010-06-20T11:02:15Z</time>
<desc>lat.=56.058418, lon.=26.482433, Alt.=100.588928m. Speed=8.028000m/h.</desc>
<speed>2.230000</speed>
</trkpt>
<trkpt lat="56.058403" lon="26.482456">
<ele>101.159241</ele>
<time>2010-06-20T11:02:16Z</time>
<desc>lat.=56.058403, lon.=26.482456, Alt.=101.159241m. Speed=8.136000m/h.</desc>
<speed>2.260000</speed>
</trkpt>
<trkpt lat="56.058380" lon="26.482489">
<ele>101.690491</ele>
<time>2010-06-20T11:02:17Z</time>
<desc>lat.=56.058380, lon.=26.482489, Alt.=101.690491m. Speed=9.684000m/h.</desc>
<speed>2.690000</speed>
</trkpt>
<trkpt lat="56.058361" lon="26.482519">
<ele>101.510803</ele>
<time>2010-06-20T11:02:18Z</time>
<desc>lat.=56.058361, lon.=26.482519, Alt.=101.510803m. Speed=7.812000m/h.</desc>
<speed>2.170000</speed>
</trkpt>
<trkpt lat="56.058342" lon="26.482542">
<ele>101.956116</ele>
<time>2010-06-20T11:02:19Z</time>
<desc>lat.=56.058342, lon.=26.482542, Alt.=101.956116m. Speed=7.668000m/h.</desc>
<speed>2.130000</speed>
</trkpt>
<trkpt lat="56.058327" lon="26.482563">
<ele>102.065491</ele>
<time>2010-06-20T11:02:20Z</time>
<desc>lat.=56.058327, lon.=26.482563, Alt.=102.065491m. Speed=6.516000m/h.</desc>
<speed>1.810000</speed>
</trkpt>
<trkpt lat="56.058311" lon="26.482588">
<ele>100.993225</ele>
<time>2010-06-20T11:02:21Z</time>
<desc>lat.=56.058311, lon.=26.482588, Alt.=100.993225m. Speed=8.352000m/h.</desc>
<speed>2.320000</speed>
</trkpt>
<trkpt lat="56.058292" lon="26.482618">
<ele>101.098694</ele>
<time>2010-06-20T11:02:22Z</time>
<desc>lat.=56.058292, lon.=26.482618, Alt.=101.098694m. Speed=10.512000m/h.</desc>
<speed>2.920000</speed>
</trkpt>
<trkpt lat="56.058262" lon="26.482649">
<ele>101.129944</ele>
<time>2010-06-20T11:02:23Z</time>
<desc>lat.=56.058262, lon.=26.482649, Alt.=101.129944m. Speed=9.792000m/h.</desc>
<speed>2.720000</speed>
</trkpt>
<trkpt lat="56.058239" lon="26.482672">
<ele>100.225647</ele>
<time>2010-06-20T11:02:24Z</time>
<desc>lat.=56.058239, lon.=26.482672, Alt.=100.225647m. Speed=10.008000m/h.</desc>
<speed>2.780000</speed>
</trkpt>
<trkpt lat="56.058212" lon="26.482706">
<ele>99.407288</ele>
<time>2010-06-20T11:02:25Z</time>
<desc>lat.=56.058212, lon.=26.482706, Alt.=99.407288m. Speed=12.168000m/h.</desc>
<speed>3.380000</speed>
</trkpt>
<trkpt lat="56.058178" lon="26.482746">
<ele>100.458069</ele>
<time>2010-06-20T11:02:26Z</time>
<desc>lat.=56.058178, lon.=26.482746, Alt.=100.458069m. Speed=14.148000m/h.</desc>
<speed>3.930000</speed>
</trkpt>
<trkpt lat="56.058144" lon="26.482786">
<ele>100.932678</ele>
<time>2010-06-20T11:02:27Z</time>
<desc>lat.=56.058144, lon.=26.482786, Alt.=100.932678m. Speed=12.996000m/h.</desc>
<speed>3.610000</speed>
</trkpt>
<trkpt lat="56.058105" lon="26.482832">
<ele>100.877991</ele>
<time>2010-06-20T11:02:28Z</time>
<desc>lat.=56.058105, lon.=26.482832, Alt.=100.877991m. Speed=12.528000m/h.</desc>
<speed>3.480000</speed>
</trkpt>
<trkpt lat="56.058071" lon="26.482853">
<ele>101.331116</ele>
<time>2010-06-20T11:02:29Z</time>
<desc>lat.=56.058071, lon.=26.482853, Alt.=101.331116m. Speed=11.664000m/h.</desc>
<speed>3.240000</speed>
</trkpt>
<trkpt lat="56.058041" lon="26.482866">
<ele>101.631897</ele>
<time>2010-06-20T11:02:30Z</time>
<desc>lat.=56.058041, lon.=26.482866, Alt.=101.631897m. Speed=11.376000m/h.</desc>
<speed>3.160000</speed>
</trkpt>
<trkpt lat="56.058006" lon="26.482878">
<ele>102.731506</ele>
<time>2010-06-20T11:02:31Z</time>
<desc>lat.=56.058006, lon.=26.482878, Alt.=102.731506m. Speed=10.620000m/h.</desc>
<speed>2.950000</speed>
</trkpt>
<trkpt lat="56.057976" lon="26.482893">
<ele>102.676819</ele>
<time>2010-06-20T11:02:32Z</time>
<desc>lat.=56.057976, lon.=26.482893, Alt.=102.676819m. Speed=9.504000m/h.</desc>
<speed>2.640000</speed>
</trkpt>
<trkpt lat="56.057945" lon="26.482897">
<ele>103.098694</ele>
<time>2010-06-20T11:02:33Z</time>
<desc>lat.=56.057945, lon.=26.482897, Alt.=103.098694m. Speed=9.000000m/h.</desc>
<speed>2.500000</speed>
</trkpt>
<trkpt lat="56.057922" lon="26.482897">
<ele>103.440491</ele>
<time>2010-06-20T11:02:34Z</time>
<desc>lat.=56.057922, lon.=26.482897, Alt.=103.440491m. Speed=7.740000m/h.</desc>
<speed>2.150000</speed>
</trkpt>
<trkpt lat="56.057903" lon="26.482889">
<ele>104.042053</ele>
<time>2010-06-20T11:02:35Z</time>
<desc>lat.=56.057903, lon.=26.482889, Alt.=104.042053m. Speed=7.560000m/h.</desc>
<speed>2.100000</speed>
</trkpt>
<trkpt lat="56.057888" lon="26.482874">
<ele>103.180725</ele>
<time>2010-06-20T11:02:36Z</time>
<desc>lat.=56.057888, lon.=26.482874, Alt.=103.180725m. Speed=7.164000m/h.</desc>
<speed>1.990000</speed>
</trkpt>
<trkpt lat="56.057869" lon="26.482855">
<ele>103.053772</ele>
<time>2010-06-20T11:02:37Z</time>
<desc>lat.=56.057869, lon.=26.482855, Alt.=103.053772m. Speed=7.560000m/h.</desc>
<speed>2.100000</speed>
</trkpt>
<trkpt lat="56.057846" lon="26.482832">
<ele>101.311584</ele>
<time>2010-06-20T11:02:38Z</time>
<desc>lat.=56.057846, lon.=26.482832, Alt.=101.311584m. Speed=7.164000m/h.</desc>
<speed>1.990000</speed>
</trkpt>
<trkpt lat="56.057831" lon="26.482807">
<ele>100.538147</ele>
<time>2010-06-20T11:02:39Z</time>
<desc>lat.=56.057831, lon.=26.482807, Alt.=100.538147m. Speed=7.812000m/h.</desc>
<speed>2.170000</speed>
</trkpt>
<trkpt lat="56.057816" lon="26.482780">
<ele>100.530334</ele>
<time>2010-06-20T11:02:40Z</time>
<desc>lat.=56.057816, lon.=26.482780, Alt.=100.530334m. Speed=7.380000m/h.</desc>
<speed>2.050000</speed>
</trkpt>
<trkpt lat="56.057800" lon="26.482750">
<ele>100.776428</ele>
<time>2010-06-20T11:02:41Z</time>
<desc>lat.=56.057800, lon.=26.482750, Alt.=100.776428m. Speed=7.956000m/h.</desc>
<speed>2.210000</speed>
</trkpt>
<trkpt lat="56.057785" lon="26.482727">
<ele>100.752991</ele>
<time>2010-06-20T11:02:42Z</time>
<desc>lat.=56.057785, lon.=26.482727, Alt.=100.752991m. Speed=8.208000m/h.</desc>
<speed>2.280000</speed>
</trkpt>
<trkpt lat="56.057770" lon="26.482706">
<ele>100.272522</ele>
<time>2010-06-20T11:02:43Z</time>
<desc>lat.=56.057770, lon.=26.482706, Alt.=100.272522m. Speed=7.452000m/h.</desc>
<speed>2.070000</speed>
</trkpt>
<trkpt lat="56.057755" lon="26.482683">
<ele>100.374084</ele>
<time>2010-06-20T11:02:44Z</time>
<desc>lat.=56.057755, lon.=26.482683, Alt.=100.374084m. Speed=4.356000m/h.</desc>
<speed>1.210000</speed>
</trkpt>
<trkpt lat="56.057751" lon="26.482670">
<ele>100.956116</ele>
<time>2010-06-20T11:02:45Z</time>
<desc>lat.=56.057751, lon.=26.482670, Alt.=100.956116m. Speed=0.576000m/h.</desc>
<speed>0.160000</speed>
</trkpt>
<trkpt lat="56.057751" lon="26.482666">
<ele>101.092834</ele>
<time>2010-06-20T11:02:46Z</time>
<desc>lat.=56.057751, lon.=26.482666, Alt.=101.092834m. Speed=0.540000m/h.</desc>
<speed>0.150000</speed>
</trkpt>
<trkpt lat="56.057751" lon="26.482666">
<ele>101.182678</ele>
<time>2010-06-20T11:02:47Z</time>
<desc>lat.=56.057751, lon.=26.482666, Alt.=101.182678m. Speed=0.072000m/h.</desc>
<speed>0.020000</speed>
</trkpt>
<trkpt lat="56.057751" lon="26.482662">
<ele>101.422913</ele>
<time>2010-06-20T11:02:48Z</time>
<desc>lat.=56.057751, lon.=26.482662, Alt.=101.422913m. Speed=0.036000m/h.</desc>
<speed>0.010000</speed>
</trkpt>
<trkpt lat="56.057751" lon="26.482662">
<ele>101.465881</ele>
<time>2010-06-20T11:02:49Z</time>
<desc>lat.=56.057751, lon.=26.482662, Alt.=101.465881m. Speed=0.252000m/h.</desc>
<speed>0.070000</speed>
</trkpt>
<trkpt lat="56.057751" lon="26.482662">
<ele>101.501038</ele>
<time>2010-06-20T11:02:50Z</time>
<desc>lat.=56.057751, lon.=26.482662, Alt.=101.501038m. Speed=0.108000m/h.</desc>
<speed>0.030000</speed>
</trkpt>
<trkpt lat="56.057751" lon="26.482662">
<ele>101.524475</ele>
<time>2010-06-20T11:02:51Z</time>
<desc>lat.=56.057751, lon.=26.482662, Alt.=101.524475m. Speed=0.036000m/h.</desc>
<speed>0.010000</speed>
</trkpt>
<trkpt lat="56.057751" lon="26.482662">
<ele>101.544006</ele>
<time>2010-06-20T11:02:52Z</time>
<desc>lat.=56.057751, lon.=26.482662, Alt.=101.544006m. Speed=0.036000m/h.</desc>
<speed>0.010000</speed>
</trkpt>
<trkpt lat="56.057751" lon="26.482660">
<ele>101.559631</ele>
<time>2010-06-20T11:02:53Z</time>
<desc>lat.=56.057751, lon.=26.482660, Alt.=101.559631m. Speed=0.216000m/h.</desc>
<speed>0.060000</speed>
</trkpt>
<trkpt lat="56.057751" lon="26.482660">
<ele>101.573303</ele>
<time>2010-06-20T11:02:54Z</time>
<desc>lat.=56.057751, lon.=26.482660, Alt.=101.573303m. Speed=0.036000m/h.</desc>
<speed>0.010000</speed>
</trkpt>
<trkpt lat="56.057751" lon="26.482660">
<ele>101.586975</ele>
<time>2010-06-20T11:02:55Z</time>
<desc>lat.=56.057751, lon.=26.482660, Alt.=101.586975m. Speed=0.108000m/h.</desc>
<speed>0.030000</speed>
</trkpt>
<trkpt lat="56.057751" lon="26.482660">
<ele>101.596741</ele>
<time>2010-06-20T11:02:56Z</time>
<desc>lat.=56.057751, lon.=26.482660, Alt.=101.596741m. Speed=0.180000m/h.</desc>
<speed>0.050000</speed>
</trkpt>
<trkpt lat="56.057751" lon="26.482660">
<ele>101.606506</ele>
<time>2010-06-20T11:02:57Z</time>
<desc>lat.=56.057751, lon.=26.482660, Alt.=101.606506m. Speed=0.432000m/h.</desc>
<speed>0.120000</speed>
</trkpt>
<trkpt lat="56.057751" lon="26.482658">
<ele>101.616272</ele>
<time>2010-06-20T11:02:58Z</time>
<desc>lat.=56.057751, lon.=26.482658, Alt.=101.616272m. Speed=0.252000m/h.</desc>
<speed>0.070000</speed>
</trkpt>
<trkpt lat="56.057751" lon="26.482658">
<ele>101.622131</ele>
<time>2010-06-20T11:02:59Z</time>
<desc>lat.=56.057751, lon.=26.482658, Alt.=101.622131m. Speed=0.432000m/h.</desc>
<speed>0.120000</speed>
</trkpt>
<trkpt lat="56.057755" lon="26.482656">
<ele>101.633850</ele>
<time>2010-06-20T11:03:00Z</time>
<desc>lat.=56.057755, lon.=26.482656, Alt.=101.633850m. Speed=0.216000m/h.</desc>
<speed>0.060000</speed>
</trkpt>
<trkpt lat="56.057755" lon="26.482656">
<ele>101.647522</ele>
<time>2010-06-20T11:03:01Z</time>
<desc>lat.=56.057755, lon.=26.482656, Alt.=101.647522m. Speed=1.512000m/h.</desc>
<speed>0.420000</speed>
</trkpt>
<trkpt lat="56.057758" lon="26.482655">
<ele>101.622131</ele>
<time>2010-06-20T11:03:02Z</time>
<desc>lat.=56.057758, lon.=26.482655, Alt.=101.622131m. Speed=1.440000m/h.</desc>
<speed>0.400000</speed>
</trkpt>
<trkpt lat="56.057758" lon="26.482653">
<ele>101.598694</ele>
<time>2010-06-20T11:03:03Z</time>
<desc>lat.=56.057758, lon.=26.482653, Alt.=101.598694m. Speed=2.808000m/h.</desc>
<speed>0.780000</speed>
</trkpt>
<trkpt lat="56.057766" lon="26.482643">
<ele>101.583069</ele>
<time>2010-06-20T11:03:04Z</time>
<desc>lat.=56.057766, lon.=26.482643, Alt.=101.583069m. Speed=3.168000m/h.</desc>
<speed>0.880000</speed>
</trkpt>
<trkpt lat="56.057774" lon="26.482647">
<ele>101.606506</ele>
<time>2010-06-20T11:03:05Z</time>
<desc>lat.=56.057774, lon.=26.482647, Alt.=101.606506m. Speed=4.572000m/h.</desc>
<speed>1.270000</speed>
</trkpt>
<trkpt lat="56.057777" lon="26.482676">
<ele>101.840881</ele>
<time>2010-06-20T11:03:06Z</time>
<desc>lat.=56.057777, lon.=26.482676, Alt.=101.840881m. Speed=5.940000m/h.</desc>
<speed>1.650000</speed>
</trkpt>
<trkpt lat="56.057789" lon="26.482712">
<ele>101.751038</ele>
<time>2010-06-20T11:03:07Z</time>
<desc>lat.=56.057789, lon.=26.482712, Alt.=101.751038m. Speed=8.496000m/h.</desc>
<speed>2.360000</speed>
</trkpt>
<trkpt lat="56.057796" lon="26.482744">
<ele>101.463928</ele>
<time>2010-06-20T11:03:08Z</time>
<desc>lat.=56.057796, lon.=26.482744, Alt.=101.463928m. Speed=8.172000m/h.</desc>
<speed>2.270000</speed>
</trkpt>
<trkpt lat="56.057804" lon="26.482786">
<ele>101.669006</ele>
<time>2010-06-20T11:03:09Z</time>
<desc>lat.=56.057804, lon.=26.482786, Alt.=101.669006m. Speed=9.144000m/h.</desc>
<speed>2.540000</speed>
</trkpt>
<trkpt lat="56.057812" lon="26.482822">
<ele>101.766663</ele>
<time>2010-06-20T11:03:10Z</time>
<desc>lat.=56.057812, lon.=26.482822, Alt.=101.766663m. Speed=10.476000m/h.</desc>
<speed>2.910000</speed>
</trkpt>
<trkpt lat="56.057827" lon="26.482857">
<ele>101.670959</ele>
<time>2010-06-20T11:03:11Z</time>
<desc>lat.=56.057827, lon.=26.482857, Alt.=101.670959m. Speed=10.404000m/h.</desc>
<speed>2.890000</speed>
</trkpt>
<trkpt lat="56.057846" lon="26.482891">
<ele>101.735413</ele>
<time>2010-06-20T11:03:12Z</time>
<desc>lat.=56.057846, lon.=26.482891, Alt.=101.735413m. Speed=10.728000m/h.</desc>
<speed>2.980000</speed>
</trkpt>
<trkpt lat="56.057861" lon="26.482931">
<ele>101.733459</ele>
<time>2010-06-20T11:03:13Z</time>
<desc>lat.=56.057861, lon.=26.482931, Alt.=101.733459m. Speed=9.828000m/h.</desc>
<speed>2.730000</speed>
</trkpt>
<trkpt lat="56.057877" lon="26.482962">
<ele>101.743225</ele>
<time>2010-06-20T11:03:14Z</time>
<desc>lat.=56.057877, lon.=26.482962, Alt.=101.743225m. Speed=10.908000m/h.</desc>
<speed>3.030000</speed>
</trkpt>
<trkpt lat="56.057892" lon="26.483004">
<ele>101.518616</ele>
<time>2010-06-20T11:03:15Z</time>
<desc>lat.=56.057892, lon.=26.483004, Alt.=101.518616m. Speed=10.548000m/h.</desc>
<speed>2.930000</speed>
</trkpt>
<trkpt lat="56.057907" lon="26.483051">
<ele>101.731506</ele>
<time>2010-06-20T11:03:16Z</time>
<desc>lat.=56.057907, lon.=26.483051, Alt.=101.731506m. Speed=10.692000m/h.</desc>
<speed>2.970000</speed>
</trkpt>
<trkpt lat="56.057926" lon="26.483093">
<ele>102.311584</ele>
<time>2010-06-20T11:03:17Z</time>
<desc>lat.=56.057926, lon.=26.483093, Alt.=102.311584m. Speed=10.764000m/h.</desc>
<speed>2.990000</speed>
</trkpt>
<trkpt lat="56.057945" lon="26.483126">
<ele>102.610413</ele>
<time>2010-06-20T11:03:18Z</time>
<desc>lat.=56.057945, lon.=26.483126, Alt.=102.610413m. Speed=10.872000m/h.</desc>
<speed>3.020000</speed>
</trkpt>
<trkpt lat="56.057976" lon="26.483166">
<ele>104.122131</ele>
<time>2010-06-20T11:03:19Z</time>
<desc>lat.=56.057976, lon.=26.483166, Alt.=104.122131m. Speed=11.088000m/h.</desc>
<speed>3.080000</speed>
</trkpt>
<trkpt lat="56.057999" lon="26.483217">
<ele>105.172913</ele>
<time>2010-06-20T11:03:20Z</time>
<desc>lat.=56.057999, lon.=26.483217, Alt.=105.172913m. Speed=11.160000m/h.</desc>
<speed>3.100000</speed>
</trkpt>
<trkpt lat="56.058014" lon="26.483261">
<ele>105.383850</ele>
<time>2010-06-20T11:03:21Z</time>
<desc>lat.=56.058014, lon.=26.483261, Alt.=105.383850m. Speed=11.232000m/h.</desc>
<speed>3.120000</speed>
</trkpt>
<trkpt lat="56.058029" lon="26.483301">
<ele>105.426819</ele>
<time>2010-06-20T11:03:22Z</time>
<desc>lat.=56.058029, lon.=26.483301, Alt.=105.426819m. Speed=11.052000m/h.</desc>
<speed>3.070000</speed>
</trkpt>
<trkpt lat="56.058041" lon="26.483345">
<ele>105.710022</ele>
<time>2010-06-20T11:03:23Z</time>
<desc>lat.=56.058041, lon.=26.483345, Alt.=105.710022m. Speed=10.764000m/h.</desc>
<speed>2.990000</speed>
</trkpt>
<trkpt lat="56.058052" lon="26.483395">
<ele>105.922913</ele>
<time>2010-06-20T11:03:24Z</time>
<desc>lat.=56.058052, lon.=26.483395, Alt.=105.922913m. Speed=11.016000m/h.</desc>
<speed>3.060000</speed>
</trkpt>
<trkpt lat="56.058064" lon="26.483442">
<ele>106.133850</ele>
<time>2010-06-20T11:03:25Z</time>
<desc>lat.=56.058064, lon.=26.483442, Alt.=106.133850m. Speed=10.944000m/h.</desc>
<speed>3.040000</speed>
</trkpt>
<trkpt lat="56.058079" lon="26.483482">
<ele>106.502991</ele>
<time>2010-06-20T11:03:26Z</time>
<desc>lat.=56.058079, lon.=26.483482, Alt.=106.502991m. Speed=10.980000m/h.</desc>
<speed>3.050000</speed>
</trkpt>
<trkpt lat="56.058086" lon="26.483526">
<ele>106.295959</ele>
<time>2010-06-20T11:03:27Z</time>
<desc>lat.=56.058086, lon.=26.483526, Alt.=106.295959m. Speed=10.440000m/h.</desc>
<speed>2.900000</speed>
</trkpt>
<trkpt lat="56.058102" lon="26.483568">
<ele>106.479553</ele>
<time>2010-06-20T11:03:28Z</time>
<desc>lat.=56.058102, lon.=26.483568, Alt.=106.479553m. Speed=9.684000m/h.</desc>
<speed>2.690000</speed>
</trkpt>
<trkpt lat="56.058117" lon="26.483614">
<ele>106.211975</ele>
<time>2010-06-20T11:03:29Z</time>
<desc>lat.=56.058117, lon.=26.483614, Alt.=106.211975m. Speed=11.232000m/h.</desc>
<speed>3.120000</speed>
</trkpt>
<trkpt lat="56.058136" lon="26.483652">
<ele>106.524475</ele>
<time>2010-06-20T11:03:30Z</time>
<desc>lat.=56.058136, lon.=26.483652, Alt.=106.524475m. Speed=13.068000m/h.</desc>
<speed>3.630000</speed>
</trkpt>
<trkpt lat="56.058155" lon="26.483704">
<ele>106.829163</ele>
<time>2010-06-20T11:03:31Z</time>
<desc>lat.=56.058155, lon.=26.483704, Alt.=106.829163m. Speed=13.392000m/h.</desc>
<speed>3.720000</speed>
</trkpt>
<trkpt lat="56.058174" lon="26.483767">
<ele>106.920959</ele>
<time>2010-06-20T11:03:32Z</time>
<desc>lat.=56.058174, lon.=26.483767, Alt.=106.920959m. Speed=13.680000m/h.</desc>
<speed>3.800000</speed>
</trkpt>
<trkpt lat="56.058197" lon="26.483822">
<ele>107.237366</ele>
<time>2010-06-20T11:03:33Z</time>
<desc>lat.=56.058197, lon.=26.483822, Alt.=107.237366m. Speed=13.968000m/h.</desc>
<speed>3.880000</speed>
</trkpt>
<trkpt lat="56.058216" lon="26.483877">
<ele>107.276428</ele>
<time>2010-06-20T11:03:34Z</time>
<desc>lat.=56.058216, lon.=26.483877, Alt.=107.276428m. Speed=13.680000m/h.</desc>
<speed>3.800000</speed>
</trkpt>
<trkpt lat="56.058228" lon="26.483921">
<ele>107.311584</ele>
<time>2010-06-20T11:03:35Z</time>
<desc>lat.=56.058228, lon.=26.483921, Alt.=107.311584m. Speed=12.708000m/h.</desc>
<speed>3.530000</speed>
</trkpt>
<trkpt lat="56.058243" lon="26.483978">
<ele>107.561584</ele>
<time>2010-06-20T11:03:36Z</time>
<desc>lat.=56.058243, lon.=26.483978, Alt.=107.561584m. Speed=12.636000m/h.</desc>
<speed>3.510000</speed>
</trkpt>
<trkpt lat="56.058262" lon="26.484028">
<ele>108.338928</ele>
<time>2010-06-20T11:03:37Z</time>
<desc>lat.=56.058262, lon.=26.484028, Alt.=108.338928m. Speed=14.112000m/h.</desc>
<speed>3.920000</speed>
</trkpt>
<trkpt lat="56.058281" lon="26.484079">
<ele>107.897522</ele>
<time>2010-06-20T11:03:38Z</time>
<desc>lat.=56.058281, lon.=26.484079, Alt.=107.897522m. Speed=15.336000m/h.</desc>
<speed>4.260000</speed>
</trkpt>
<trkpt lat="56.058300" lon="26.484135">
<ele>108.208069</ele>
<time>2010-06-20T11:03:39Z</time>
<desc>lat.=56.058300, lon.=26.484135, Alt.=108.208069m. Speed=14.004000m/h.</desc>
<speed>3.890000</speed>
</trkpt>
<trkpt lat="56.058319" lon="26.484194">
<ele>108.602600</ele>
<time>2010-06-20T11:03:40Z</time>
<desc>lat.=56.058319, lon.=26.484194, Alt.=108.602600m. Speed=14.112000m/h.</desc>
<speed>3.920000</speed>
</trkpt>
<trkpt lat="56.058334" lon="26.484251">
<ele>108.961975</ele>
<time>2010-06-20T11:03:41Z</time>
<desc>lat.=56.058334, lon.=26.484251, Alt.=108.961975m. Speed=14.760000m/h.</desc>
<speed>4.100000</speed>
</trkpt>
<trkpt lat="56.058350" lon="26.484308">
<ele>109.077209</ele>
<time>2010-06-20T11:03:42Z</time>
<desc>lat.=56.058350, lon.=26.484308, Alt.=109.077209m. Speed=15.804000m/h.</desc>
<speed>4.390000</speed>
</trkpt>
<trkpt lat="56.058372" lon="26.484367">
<ele>109.303772</ele>
<time>2010-06-20T11:03:43Z</time>
<desc>lat.=56.058372, lon.=26.484367, Alt.=109.303772m. Speed=15.408000m/h.</desc>
<speed>4.280000</speed>
</trkpt>
<trkpt lat="56.058392" lon="26.484428">
<ele>109.641663</ele>
<time>2010-06-20T11:03:44Z</time>
<desc>lat.=56.058392, lon.=26.484428, Alt.=109.641663m. Speed=14.832000m/h.</desc>
<speed>4.120000</speed>
</trkpt>
<trkpt lat="56.058411" lon="26.484488">
<ele>110.313538</ele>
<time>2010-06-20T11:03:45Z</time>
<desc>lat.=56.058411, lon.=26.484488, Alt.=110.313538m. Speed=14.400000m/h.</desc>
<speed>4.000000</speed>
</trkpt>
<trkpt lat="56.058426" lon="26.484543">
<ele>110.711975</ele>
<time>2010-06-20T11:03:46Z</time>
<desc>lat.=56.058426, lon.=26.484543, Alt.=110.711975m. Speed=13.788000m/h.</desc>
<speed>3.830000</speed>
</trkpt>
<trkpt lat="56.058445" lon="26.484598">
<ele>111.022522</ele>
<time>2010-06-20T11:03:47Z</time>
<desc>lat.=56.058445, lon.=26.484598, Alt.=111.022522m. Speed=13.968000m/h.</desc>
<speed>3.880000</speed>
</trkpt>
<trkpt lat="56.058460" lon="26.484652">
<ele>111.338928</ele>
<time>2010-06-20T11:03:48Z</time>
<desc>lat.=56.058460, lon.=26.484652, Alt.=111.338928m. Speed=13.572000m/h.</desc>
<speed>3.770000</speed>
</trkpt>
<trkpt lat="56.058472" lon="26.484715">
<ele>111.618225</ele>
<time>2010-06-20T11:03:49Z</time>
<desc>lat.=56.058472, lon.=26.484715, Alt.=111.618225m. Speed=13.536000m/h.</desc>
<speed>3.760000</speed>
</trkpt>
<trkpt lat="56.058483" lon="26.484772">
<ele>111.926819</ele>
<time>2010-06-20T11:03:50Z</time>
<desc>lat.=56.058483, lon.=26.484772, Alt.=111.926819m. Speed=13.572000m/h.</desc>
<speed>3.770000</speed>
</trkpt>
<trkpt lat="56.058491" lon="26.484825">
<ele>112.010803</ele>
<time>2010-06-20T11:03:51Z</time>
<desc>lat.=56.058491, lon.=26.484825, Alt.=112.010803m. Speed=12.816000m/h.</desc>
<speed>3.560000</speed>
</trkpt>
<trkpt lat="56.058502" lon="26.484880">
<ele>112.336975</ele>
<time>2010-06-20T11:03:52Z</time>
<desc>lat.=56.058502, lon.=26.484880, Alt.=112.336975m. Speed=12.960000m/h.</desc>
<speed>3.600000</speed>
</trkpt>
<trkpt lat="56.058517" lon="26.484936">
<ele>111.924866</ele>
<time>2010-06-20T11:03:53Z</time>
<desc>lat.=56.058517, lon.=26.484936, Alt.=111.924866m. Speed=13.320000m/h.</desc>
<speed>3.700000</speed>
</trkpt>
<trkpt lat="56.058525" lon="26.484999">
<ele>111.674866</ele>
<time>2010-06-20T11:03:54Z</time>
<desc>lat.=56.058525, lon.=26.484999, Alt.=111.674866m. Speed=14.652000m/h.</desc>
<speed>4.070000</speed>
</trkpt>
<trkpt lat="56.058537" lon="26.485060">
<ele>111.413147</ele>
<time>2010-06-20T11:03:55Z</time>
<desc>lat.=56.058537, lon.=26.485060, Alt.=111.413147m. Speed=14.724000m/h.</desc>
<speed>4.090000</speed>
</trkpt>
<trkpt lat="56.058540" lon="26.485117">
<ele>111.350647</ele>
<time>2010-06-20T11:03:56Z</time>
<desc>lat.=56.058540, lon.=26.485117, Alt.=111.350647m. Speed=14.256000m/h.</desc>
<speed>3.960000</speed>
</trkpt>
<trkpt lat="56.058552" lon="26.485168">
<ele>111.688538</ele>
<time>2010-06-20T11:03:57Z</time>
<desc>lat.=56.058552, lon.=26.485168, Alt.=111.688538m. Speed=12.780000m/h.</desc>
<speed>3.550000</speed>
</trkpt>
<trkpt lat="56.058559" lon="26.485228">
<ele>111.434631</ele>
<time>2010-06-20T11:03:58Z</time>
<desc>lat.=56.058559, lon.=26.485228, Alt.=111.434631m. Speed=13.860000m/h.</desc>
<speed>3.850000</speed>
</trkpt>
<trkpt lat="56.058567" lon="26.485289">
<ele>111.688538</ele>
<time>2010-06-20T11:03:59Z</time>
<desc>lat.=56.058567, lon.=26.485289, Alt.=111.688538m. Speed=14.292000m/h.</desc>
<speed>3.970000</speed>
</trkpt>
<trkpt lat="56.058575" lon="26.485346">
<ele>111.239319</ele>
<time>2010-06-20T11:04:00Z</time>
<desc>lat.=56.058575, lon.=26.485346, Alt.=111.239319m. Speed=13.716000m/h.</desc>
<speed>3.810000</speed>
</trkpt>
<trkpt lat="56.058582" lon="26.485397">
<ele>111.297913</ele>
<time>2010-06-20T11:04:01Z</time>
<desc>lat.=56.058582, lon.=26.485397, Alt.=111.297913m. Speed=12.852000m/h.</desc>
<speed>3.570000</speed>
</trkpt>
<trkpt lat="56.058586" lon="26.485441">
<ele>110.499084</ele>
<time>2010-06-20T11:04:02Z</time>
<desc>lat.=56.058586, lon.=26.485441, Alt.=110.499084m. Speed=8.892000m/h.</desc>
<speed>2.470000</speed>
</trkpt>
<trkpt lat="56.058594" lon="26.485493">
<ele>110.278381</ele>
<time>2010-06-20T11:04:03Z</time>
<desc>lat.=56.058594, lon.=26.485493, Alt.=110.278381m. Speed=13.212000m/h.</desc>
<speed>3.670000</speed>
</trkpt>
<trkpt lat="56.058601" lon="26.485550">
<ele>109.711975</ele>
<time>2010-06-20T11:04:04Z</time>
<desc>lat.=56.058601, lon.=26.485550, Alt.=109.711975m. Speed=13.536000m/h.</desc>
<speed>3.760000</speed>
</trkpt>
<trkpt lat="56.058613" lon="26.485598">
<ele>110.026428</ele>
<time>2010-06-20T11:04:05Z</time>
<desc>lat.=56.058613, lon.=26.485598, Alt.=110.026428m. Speed=13.356000m/h.</desc>
<speed>3.710000</speed>
</trkpt>
<trkpt lat="56.058620" lon="26.485647">
<ele>109.963928</ele>
<time>2010-06-20T11:04:06Z</time>
<desc>lat.=56.058620, lon.=26.485647, Alt.=109.963928m. Speed=12.744000m/h.</desc>
<speed>3.540000</speed>
</trkpt>
<trkpt lat="56.058620" lon="26.485699">
<ele>108.360413</ele>
<time>2010-06-20T11:04:07Z</time>
<desc>lat.=56.058620, lon.=26.485699, Alt.=108.360413m. Speed=12.384000m/h.</desc>
<speed>3.440000</speed>
</trkpt>
<trkpt lat="56.058624" lon="26.485758">
<ele>107.719788</ele>
<time>2010-06-20T11:04:08Z</time>
<desc>lat.=56.058624, lon.=26.485758, Alt.=107.719788m. Speed=12.024000m/h.</desc>
<speed>3.340000</speed>
</trkpt>
<trkpt lat="56.058632" lon="26.485811">
<ele>107.014709</ele>
<time>2010-06-20T11:04:09Z</time>
<desc>lat.=56.058632, lon.=26.485811, Alt.=107.014709m. Speed=13.032000m/h.</desc>
<speed>3.620000</speed>
</trkpt>
<trkpt lat="56.058640" lon="26.485865">
<ele>106.090881</ele>
<time>2010-06-20T11:04:10Z</time>
<desc>lat.=56.058640, lon.=26.485865, Alt.=106.090881m. Speed=11.124000m/h.</desc>
<speed>3.090000</speed>
</trkpt>
<trkpt lat="56.058647" lon="26.485914">
<ele>105.766663</ele>
<time>2010-06-20T11:04:11Z</time>
<desc>lat.=56.058647, lon.=26.485914, Alt.=105.766663m. Speed=10.512000m/h.</desc>
<speed>2.920000</speed>
</trkpt>
<trkpt lat="56.058651" lon="26.485956">
<ele>105.305725</ele>
<time>2010-06-20T11:04:12Z</time>
<desc>lat.=56.058651, lon.=26.485956, Alt.=105.305725m. Speed=8.748000m/h.</desc>
<speed>2.430000</speed>
</trkpt>
<trkpt lat="56.058655" lon="26.485994">
<ele>104.563538</ele>
<time>2010-06-20T11:04:13Z</time>
<desc>lat.=56.058655, lon.=26.485994, Alt.=104.563538m. Speed=8.748000m/h.</desc>
<speed>2.430000</speed>
</trkpt>
<trkpt lat="56.058659" lon="26.486044">
<ele>104.993225</ele>
<time>2010-06-20T11:04:14Z</time>
<desc>lat.=56.058659, lon.=26.486044, Alt.=104.993225m. Speed=9.180000m/h.</desc>
<speed>2.550000</speed>
</trkpt>
<trkpt lat="56.058666" lon="26.486090">
<ele>105.206116</ele>
<time>2010-06-20T11:04:15Z</time>
<desc>lat.=56.058666, lon.=26.486090, Alt.=105.206116m. Speed=7.704000m/h.</desc>
<speed>2.140000</speed>
</trkpt>
<trkpt lat="56.058674" lon="26.486128">
<ele>105.678772</ele>
<time>2010-06-20T11:04:16Z</time>
<desc>lat.=56.058674, lon.=26.486128, Alt.=105.678772m. Speed=8.244000m/h.</desc>
<speed>2.290000</speed>
</trkpt>
<trkpt lat="56.058685" lon="26.486164">
<ele>106.840881</ele>
<time>2010-06-20T11:04:17Z</time>
<desc>lat.=56.058685, lon.=26.486164, Alt.=106.840881m. Speed=7.020000m/h.</desc>
<speed>1.950000</speed>
</trkpt>
<trkpt lat="56.058697" lon="26.486193">
<ele>107.618225</ele>
<time>2010-06-20T11:04:18Z</time>
<desc>lat.=56.058697, lon.=26.486193, Alt.=107.618225m. Speed=5.976000m/h.</desc>
<speed>1.660000</speed>
</trkpt>
<trkpt lat="56.058704" lon="26.486231">
<ele>107.999084</ele>
<time>2010-06-20T11:04:19Z</time>
<desc>lat.=56.058704, lon.=26.486231, Alt.=107.999084m. Speed=7.956000m/h.</desc>
<speed>2.210000</speed>
</trkpt>
<trkpt lat="56.058712" lon="26.486269">
<ele>108.184631</ele>
<time>2010-06-20T11:04:20Z</time>
<desc>lat.=56.058712, lon.=26.486269, Alt.=108.184631m. Speed=5.724000m/h.</desc>
<speed>1.590000</speed>
</trkpt>
<trkpt lat="56.058720" lon="26.486303">
<ele>109.096741</ele>
<time>2010-06-20T11:04:21Z</time>
<desc>lat.=56.058720, lon.=26.486303, Alt.=109.096741m. Speed=7.488000m/h.</desc>
<speed>2.080000</speed>
</trkpt>
<trkpt lat="56.058727" lon="26.486359">
<ele>110.204163</ele>
<time>2010-06-20T11:04:22Z</time>
<desc>lat.=56.058727, lon.=26.486359, Alt.=110.204163m. Speed=8.028000m/h.</desc>
<speed>2.230000</speed>
</trkpt>
<trkpt lat="56.058743" lon="26.486403">
<ele>110.788147</ele>
<time>2010-06-20T11:04:23Z</time>
<desc>lat.=56.058743, lon.=26.486403, Alt.=110.788147m. Speed=7.416000m/h.</desc>
<speed>2.060000</speed>
</trkpt>
<trkpt lat="56.058743" lon="26.486458">
<ele>110.176819</ele>
<time>2010-06-20T11:04:24Z</time>
<desc>lat.=56.058743, lon.=26.486458, Alt.=110.176819m. Speed=11.304000m/h.</desc>
<speed>3.140000</speed>
</trkpt>
<trkpt lat="56.058746" lon="26.486523">
<ele>110.034241</ele>
<time>2010-06-20T11:04:25Z</time>
<desc>lat.=56.058746, lon.=26.486523, Alt.=110.034241m. Speed=12.384000m/h.</desc>
<speed>3.440000</speed>
</trkpt>
<trkpt lat="56.058750" lon="26.486601">
<ele>108.172913</ele>
<time>2010-06-20T11:04:26Z</time>
<desc>lat.=56.058750, lon.=26.486601, Alt.=108.172913m. Speed=12.564000m/h.</desc>
<speed>3.490000</speed>
</trkpt>
<trkpt lat="56.058773" lon="26.486685">
<ele>108.901428</ele>
<time>2010-06-20T11:04:27Z</time>
<desc>lat.=56.058773, lon.=26.486685, Alt.=108.901428m. Speed=12.312000m/h.</desc>
<speed>3.420000</speed>
</trkpt>
<trkpt lat="56.058800" lon="26.486763">
<ele>111.883850</ele>
<time>2010-06-20T11:04:28Z</time>
<desc>lat.=56.058800, lon.=26.486763, Alt.=111.883850m. Speed=12.060000m/h.</desc>
<speed>3.350000</speed>
</trkpt>
<trkpt lat="56.058819" lon="26.486820">
<ele>113.653381</ele>
<time>2010-06-20T11:04:29Z</time>
<desc>lat.=56.058819, lon.=26.486820, Alt.=113.653381m. Speed=11.664000m/h.</desc>
<speed>3.240000</speed>
</trkpt>
<trkpt lat="56.058823" lon="26.486872">
<ele>113.245178</ele>
<time>2010-06-20T11:04:30Z</time>
<desc>lat.=56.058823, lon.=26.486872, Alt.=113.245178m. Speed=11.052000m/h.</desc>
<speed>3.070000</speed>
</trkpt>
<trkpt lat="56.058830" lon="26.486914">
<ele>113.022522</ele>
<time>2010-06-20T11:04:31Z</time>
<desc>lat.=56.058830, lon.=26.486914, Alt.=113.022522m. Speed=10.944000m/h.</desc>
<speed>3.040000</speed>
</trkpt>
<trkpt lat="56.058846" lon="26.486956">
<ele>113.526428</ele>
<time>2010-06-20T11:04:32Z</time>
<desc>lat.=56.058846, lon.=26.486956, Alt.=113.526428m. Speed=9.828000m/h.</desc>
<speed>2.730000</speed>
</trkpt>
<trkpt lat="56.058849" lon="26.487000">
<ele>113.571350</ele>
<time>2010-06-20T11:04:33Z</time>
<desc>lat.=56.058849, lon.=26.487000, Alt.=113.571350m. Speed=10.656000m/h.</desc>
<speed>2.960000</speed>
</trkpt>
<trkpt lat="56.058861" lon="26.487055">
<ele>113.659241</ele>
<time>2010-06-20T11:04:34Z</time>
<desc>lat.=56.058861, lon.=26.487055, Alt.=113.659241m. Speed=10.404000m/h.</desc>
<speed>2.890000</speed>
</trkpt>
<trkpt lat="56.058872" lon="26.487106">
<ele>114.903381</ele>
<time>2010-06-20T11:04:35Z</time>
<desc>lat.=56.058872, lon.=26.487106, Alt.=114.903381m. Speed=9.324000m/h.</desc>
<speed>2.590000</speed>
</trkpt>
<trkpt lat="56.058876" lon="26.487150">
<ele>114.858459</ele>
<time>2010-06-20T11:04:36Z</time>
<desc>lat.=56.058876, lon.=26.487150, Alt.=114.858459m. Speed=10.116000m/h.</desc>
<speed>2.810000</speed>
</trkpt>
<trkpt lat="56.058884" lon="26.487198">
<ele>114.407288</ele>
<time>2010-06-20T11:04:37Z</time>
<desc>lat.=56.058884, lon.=26.487198, Alt.=114.407288m. Speed=10.800000m/h.</desc>
<speed>3.000000</speed>
</trkpt>
<trkpt lat="56.058891" lon="26.487246">
<ele>113.942444</ele>
<time>2010-06-20T11:04:38Z</time>
<desc>lat.=56.058891, lon.=26.487246, Alt.=113.942444m. Speed=11.160000m/h.</desc>
<speed>3.100000</speed>
</trkpt>
<trkpt lat="56.058903" lon="26.487289">
<ele>114.042053</ele>
<time>2010-06-20T11:04:39Z</time>
<desc>lat.=56.058903, lon.=26.487289, Alt.=114.042053m. Speed=10.836000m/h.</desc>
<speed>3.010000</speed>
</trkpt>
<trkpt lat="56.058910" lon="26.487337">
<ele>114.331116</ele>
<time>2010-06-20T11:04:40Z</time>
<desc>lat.=56.058910, lon.=26.487337, Alt.=114.331116m. Speed=10.116000m/h.</desc>
<speed>2.810000</speed>
</trkpt>
<trkpt lat="56.058918" lon="26.487377">
<ele>114.333069</ele>
<time>2010-06-20T11:04:41Z</time>
<desc>lat.=56.058918, lon.=26.487377, Alt.=114.333069m. Speed=9.000000m/h.</desc>
<speed>2.500000</speed>
</trkpt>
<trkpt lat="56.058929" lon="26.487423">
<ele>115.079163</ele>
<time>2010-06-20T11:04:42Z</time>
<desc>lat.=56.058929, lon.=26.487423, Alt.=115.079163m. Speed=11.088000m/h.</desc>
<speed>3.080000</speed>
</trkpt>
<trkpt lat="56.058933" lon="26.487478">
<ele>115.569397</ele>
<time>2010-06-20T11:04:43Z</time>
<desc>lat.=56.058933, lon.=26.487478, Alt.=115.569397m. Speed=9.936000m/h.</desc>
<speed>2.760000</speed>
</trkpt>
<trkpt lat="56.058945" lon="26.487526">
<ele>116.155334</ele>
<time>2010-06-20T11:04:44Z</time>
<desc>lat.=56.058945, lon.=26.487526, Alt.=116.155334m. Speed=10.800000m/h.</desc>
<speed>3.000000</speed>
</trkpt>
<trkpt lat="56.058952" lon="26.487574">
<ele>116.700256</ele>
<time>2010-06-20T11:04:45Z</time>
<desc>lat.=56.058952, lon.=26.487574, Alt.=116.700256m. Speed=11.952000m/h.</desc>
<speed>3.320000</speed>
</trkpt>
<trkpt lat="56.058960" lon="26.487617">
<ele>116.893616</ele>
<time>2010-06-20T11:04:46Z</time>
<desc>lat.=56.058960, lon.=26.487617, Alt.=116.893616m. Speed=12.132000m/h.</desc>
<speed>3.370000</speed>
</trkpt>
<trkpt lat="56.058968" lon="26.487665">
<ele>116.473694</ele>
<time>2010-06-20T11:04:47Z</time>
<desc>lat.=56.058968, lon.=26.487665, Alt.=116.473694m. Speed=11.664000m/h.</desc>
<speed>3.240000</speed>
</trkpt>
<trkpt lat="56.058983" lon="26.487713">
<ele>118.489319</ele>
<time>2010-06-20T11:04:48Z</time>
<desc>lat.=56.058983, lon.=26.487713, Alt.=118.489319m. Speed=11.772000m/h.</desc>
<speed>3.270000</speed>
</trkpt>
<trkpt lat="56.058994" lon="26.487762">
<ele>118.600647</ele>
<time>2010-06-20T11:04:49Z</time>
<desc>lat.=56.058994, lon.=26.487762, Alt.=118.600647m. Speed=12.564000m/h.</desc>
<speed>3.490000</speed>
</trkpt>
<trkpt lat="56.059002" lon="26.487822">
<ele>118.624084</ele>
<time>2010-06-20T11:04:50Z</time>
<desc>lat.=56.059002, lon.=26.487822, Alt.=118.624084m. Speed=13.176000m/h.</desc>
<speed>3.660000</speed>
</trkpt>
<trkpt lat="56.059010" lon="26.487881">
<ele>119.055725</ele>
<time>2010-06-20T11:04:51Z</time>
<desc>lat.=56.059010, lon.=26.487881, Alt.=119.055725m. Speed=13.608000m/h.</desc>
<speed>3.780000</speed>
</trkpt>
<trkpt lat="56.059006" lon="26.487940">
<ele>117.555725</ele>
<time>2010-06-20T11:04:52Z</time>
<desc>lat.=56.059006, lon.=26.487940, Alt.=117.555725m. Speed=11.736000m/h.</desc>
<speed>3.260000</speed>
</trkpt>
<trkpt lat="56.059013" lon="26.487997">
<ele>117.635803</ele>
<time>2010-06-20T11:04:53Z</time>
<desc>lat.=56.059013, lon.=26.487997, Alt.=117.635803m. Speed=11.736000m/h.</desc>
<speed>3.260000</speed>
</trkpt>
<trkpt lat="56.059017" lon="26.488047">
<ele>117.469788</ele>
<time>2010-06-20T11:04:54Z</time>
<desc>lat.=56.059017, lon.=26.488047, Alt.=117.469788m. Speed=11.124000m/h.</desc>
<speed>3.090000</speed>
</trkpt>
<trkpt lat="56.059025" lon="26.488092">
<ele>116.942444</ele>
<time>2010-06-20T11:04:55Z</time>
<desc>lat.=56.059025, lon.=26.488092, Alt.=116.942444m. Speed=11.412000m/h.</desc>
<speed>3.170000</speed>
</trkpt>
<trkpt lat="56.059032" lon="26.488134">
<ele>116.807678</ele>
<time>2010-06-20T11:04:56Z</time>
<desc>lat.=56.059032, lon.=26.488134, Alt.=116.807678m. Speed=10.584000m/h.</desc>
<speed>2.940000</speed>
</trkpt>
<trkpt lat="56.059036" lon="26.488176">
<ele>116.655334</ele>
<time>2010-06-20T11:04:57Z</time>
<desc>lat.=56.059036, lon.=26.488176, Alt.=116.655334m. Speed=10.548000m/h.</desc>
<speed>2.930000</speed>
</trkpt>
<trkpt lat="56.059044" lon="26.488216">
<ele>116.182678</ele>
<time>2010-06-20T11:04:58Z</time>
<desc>lat.=56.059044, lon.=26.488216, Alt.=116.182678m. Speed=10.512000m/h.</desc>
<speed>2.920000</speed>
</trkpt>
<trkpt lat="56.059055" lon="26.488256">
<ele>116.184631</ele>
<time>2010-06-20T11:04:59Z</time>
<desc>lat.=56.059055, lon.=26.488256, Alt.=116.184631m. Speed=10.512000m/h.</desc>
<speed>2.920000</speed>
</trkpt>
<trkpt lat="56.059059" lon="26.488304">
<ele>115.690491</ele>
<time>2010-06-20T11:05:00Z</time>
<desc>lat.=56.059059, lon.=26.488304, Alt.=115.690491m. Speed=10.584000m/h.</desc>
<speed>2.940000</speed>
</trkpt>
<trkpt lat="56.059067" lon="26.488352">
<ele>115.792053</ele>
<time>2010-06-20T11:05:01Z</time>
<desc>lat.=56.059067, lon.=26.488352, Alt.=115.792053m. Speed=10.836000m/h.</desc>
<speed>3.010000</speed>
</trkpt>
<trkpt lat="56.059078" lon="26.488405">
<ele>116.163147</ele>
<time>2010-06-20T11:05:02Z</time>
<desc>lat.=56.059078, lon.=26.488405, Alt.=116.163147m. Speed=10.656000m/h.</desc>
<speed>2.960000</speed>
</trkpt>
<trkpt lat="56.059086" lon="26.488455">
<ele>116.217834</ele>
<time>2010-06-20T11:05:03Z</time>
<desc>lat.=56.059086, lon.=26.488455, Alt.=116.217834m. Speed=10.620000m/h.</desc>
<speed>2.950000</speed>
</trkpt>
<trkpt lat="56.059093" lon="26.488504">
<ele>116.200256</ele>
<time>2010-06-20T11:05:04Z</time>
<desc>lat.=56.059093, lon.=26.488504, Alt.=116.200256m. Speed=10.584000m/h.</desc>
<speed>2.940000</speed>
</trkpt>
<trkpt lat="56.059097" lon="26.488550">
<ele>115.754944</ele>
<time>2010-06-20T11:05:05Z</time>
<desc>lat.=56.059097, lon.=26.488550, Alt.=115.754944m. Speed=10.512000m/h.</desc>
<speed>2.920000</speed>
</trkpt>
<trkpt lat="56.059105" lon="26.488592">
<ele>115.786194</ele>
<time>2010-06-20T11:05:06Z</time>
<desc>lat.=56.059105, lon.=26.488592, Alt.=115.786194m. Speed=10.656000m/h.</desc>
<speed>2.960000</speed>
</trkpt>
<trkpt lat="56.059116" lon="26.488636">
<ele>115.790100</ele>
<time>2010-06-20T11:05:07Z</time>
<desc>lat.=56.059116, lon.=26.488636, Alt.=115.790100m. Speed=11.088000m/h.</desc>
<speed>3.080000</speed>
</trkpt>
<trkpt lat="56.059124" lon="26.488680">
<ele>115.612366</ele>
<time>2010-06-20T11:05:08Z</time>
<desc>lat.=56.059124, lon.=26.488680, Alt.=115.612366m. Speed=11.304000m/h.</desc>
<speed>3.140000</speed>
</trkpt>
<trkpt lat="56.059132" lon="26.488724">
<ele>115.557678</ele>
<time>2010-06-20T11:05:09Z</time>
<desc>lat.=56.059132, lon.=26.488724, Alt.=115.557678m. Speed=11.052000m/h.</desc>
<speed>3.070000</speed>
</trkpt>
<trkpt lat="56.059135" lon="26.488775">
<ele>114.713928</ele>
<time>2010-06-20T11:05:10Z</time>
<desc>lat.=56.059135, lon.=26.488775, Alt.=114.713928m. Speed=11.880000m/h.</desc>
<speed>3.300000</speed>
</trkpt>
<trkpt lat="56.059143" lon="26.488825">
<ele>113.999084</ele>
<time>2010-06-20T11:05:11Z</time>
<desc>lat.=56.059143, lon.=26.488825, Alt.=113.999084m. Speed=11.268000m/h.</desc>
<speed>3.130000</speed>
</trkpt>
<trkpt lat="56.059155" lon="26.488873">
<ele>113.696350</ele>
<time>2010-06-20T11:05:12Z</time>
<desc>lat.=56.059155, lon.=26.488873, Alt.=113.696350m. Speed=11.412000m/h.</desc>
<speed>3.170000</speed>
</trkpt>
<trkpt lat="56.059166" lon="26.488918">
<ele>113.124084</ele>
<time>2010-06-20T11:05:13Z</time>
<desc>lat.=56.059166, lon.=26.488918, Alt.=113.124084m. Speed=11.988000m/h.</desc>
<speed>3.330000</speed>
</trkpt>
<trkpt lat="56.059177" lon="26.488964">
<ele>113.510803</ele>
<time>2010-06-20T11:05:14Z</time>
<desc>lat.=56.059177, lon.=26.488964, Alt.=113.510803m. Speed=11.412000m/h.</desc>
<speed>3.170000</speed>
</trkpt>
<trkpt lat="56.059189" lon="26.489017">
<ele>113.917053</ele>
<time>2010-06-20T11:05:15Z</time>
<desc>lat.=56.059189, lon.=26.489017, Alt.=113.917053m. Speed=10.872000m/h.</desc>
<speed>3.020000</speed>
</trkpt>
<trkpt lat="56.059200" lon="26.489069">
<ele>113.938538</ele>
<time>2010-06-20T11:05:16Z</time>
<desc>lat.=56.059200, lon.=26.489069, Alt.=113.938538m. Speed=10.548000m/h.</desc>
<speed>2.930000</speed>
</trkpt>
<trkpt lat="56.059208" lon="26.489120">
<ele>113.776428</ele>
<time>2010-06-20T11:05:17Z</time>
<desc>lat.=56.059208, lon.=26.489120, Alt.=113.776428m. Speed=11.160000m/h.</desc>
<speed>3.100000</speed>
</trkpt>
<trkpt lat="56.059216" lon="26.489178">
<ele>113.686584</ele>
<time>2010-06-20T11:05:18Z</time>
<desc>lat.=56.059216, lon.=26.489178, Alt.=113.686584m. Speed=11.484000m/h.</desc>
<speed>3.190000</speed>
</trkpt>
<trkpt lat="56.059227" lon="26.489231">
<ele>113.549866</ele>
<time>2010-06-20T11:05:19Z</time>
<desc>lat.=56.059227, lon.=26.489231, Alt.=113.549866m. Speed=11.556000m/h.</desc>
<speed>3.210000</speed>
</trkpt>
<trkpt lat="56.059231" lon="26.489290">
<ele>113.372131</ele>
<time>2010-06-20T11:05:20Z</time>
<desc>lat.=56.059231, lon.=26.489290, Alt.=113.372131m. Speed=12.132000m/h.</desc>
<speed>3.370000</speed>
</trkpt>
<trkpt lat="56.059231" lon="26.489357">
<ele>112.745178</ele>
<time>2010-06-20T11:05:21Z</time>
<desc>lat.=56.059231, lon.=26.489357, Alt.=112.745178m. Speed=13.176000m/h.</desc>
<speed>3.660000</speed>
</trkpt>
<trkpt lat="56.059238" lon="26.489416">
<ele>112.159241</ele>
<time>2010-06-20T11:05:22Z</time>
<desc>lat.=56.059238, lon.=26.489416, Alt.=112.159241m. Speed=14.184000m/h.</desc>
<speed>3.940000</speed>
</trkpt>
<trkpt lat="56.059246" lon="26.489470">
<ele>112.008850</ele>
<time>2010-06-20T11:05:23Z</time>
<desc>lat.=56.059246, lon.=26.489470, Alt.=112.008850m. Speed=14.004000m/h.</desc>
<speed>3.890000</speed>
</trkpt>
<trkpt lat="56.059258" lon="26.489525">
<ele>111.542053</ele>
<time>2010-06-20T11:05:24Z</time>
<desc>lat.=56.059258, lon.=26.489525, Alt.=111.542053m. Speed=14.868000m/h.</desc>
<speed>4.130000</speed>
</trkpt>
<trkpt lat="56.059265" lon="26.489586">
<ele>111.432678</ele>
<time>2010-06-20T11:05:25Z</time>
<desc>lat.=56.059265, lon.=26.489586, Alt.=111.432678m. Speed=15.660000m/h.</desc>
<speed>4.350000</speed>
</trkpt>
<trkpt lat="56.059277" lon="26.489649">
<ele>111.446350</ele>
<time>2010-06-20T11:05:26Z</time>
<desc>lat.=56.059277, lon.=26.489649, Alt.=111.446350m. Speed=15.876000m/h.</desc>
<speed>4.410000</speed>
</trkpt>
<trkpt lat="56.059288" lon="26.489716">
<ele>111.290100</ele>
<time>2010-06-20T11:05:27Z</time>
<desc>lat.=56.059288, lon.=26.489716, Alt.=111.290100m. Speed=15.732000m/h.</desc>
<speed>4.370000</speed>
</trkpt>
<trkpt lat="56.059299" lon="26.489784">
<ele>111.336975</ele>
<time>2010-06-20T11:05:28Z</time>
<desc>lat.=56.059299, lon.=26.489784, Alt.=111.336975m. Speed=15.552000m/h.</desc>
<speed>4.320000</speed>
</trkpt>
<trkpt lat="56.059311" lon="26.489851">
<ele>111.294006</ele>
<time>2010-06-20T11:05:29Z</time>
<desc>lat.=56.059311, lon.=26.489851, Alt.=111.294006m. Speed=15.156000m/h.</desc>
<speed>4.210000</speed>
</trkpt>
<trkpt lat="56.059326" lon="26.489914">
<ele>111.295959</ele>
<time>2010-06-20T11:05:30Z</time>
<desc>lat.=56.059326, lon.=26.489914, Alt.=111.295959m. Speed=14.616000m/h.</desc>
<speed>4.060000</speed>
</trkpt>
<trkpt lat="56.059345" lon="26.489973">
<ele>111.542053</ele>
<time>2010-06-20T11:05:31Z</time>
<desc>lat.=56.059345, lon.=26.489973, Alt.=111.542053m. Speed=14.796000m/h.</desc>
<speed>4.110000</speed>
</trkpt>
<trkpt lat="56.059368" lon="26.490026">
<ele>111.770569</ele>
<time>2010-06-20T11:05:32Z</time>
<desc>lat.=56.059368, lon.=26.490026, Alt.=111.770569m. Speed=14.616000m/h.</desc>
<speed>4.060000</speed>
</trkpt>
<trkpt lat="56.059391" lon="26.490076">
<ele>111.899475</ele>
<time>2010-06-20T11:05:33Z</time>
<desc>lat.=56.059391, lon.=26.490076, Alt.=111.899475m. Speed=14.652000m/h.</desc>
<speed>4.070000</speed>
</trkpt>
<trkpt lat="56.059418" lon="26.490122">
<ele>111.710022</ele>
<time>2010-06-20T11:05:34Z</time>
<desc>lat.=56.059418, lon.=26.490122, Alt.=111.710022m. Speed=14.364000m/h.</desc>
<speed>3.990000</speed>
</trkpt>
<trkpt lat="56.059444" lon="26.490164">
<ele>111.575256</ele>
<time>2010-06-20T11:05:35Z</time>
<desc>lat.=56.059444, lon.=26.490164, Alt.=111.575256m. Speed=14.400000m/h.</desc>
<speed>4.000000</speed>
</trkpt>
<trkpt lat="56.059471" lon="26.490206">
<ele>111.618225</ele>
<time>2010-06-20T11:05:36Z</time>
<desc>lat.=56.059471, lon.=26.490206, Alt.=111.618225m. Speed=13.824000m/h.</desc>
<speed>3.840000</speed>
</trkpt>
<trkpt lat="56.059498" lon="26.490248">
<ele>111.370178</ele>
<time>2010-06-20T11:05:37Z</time>
<desc>lat.=56.059498, lon.=26.490248, Alt.=111.370178m. Speed=13.680000m/h.</desc>
<speed>3.800000</speed>
</trkpt>
<trkpt lat="56.059525" lon="26.490284">
<ele>111.243225</ele>
<time>2010-06-20T11:05:38Z</time>
<desc>lat.=56.059525, lon.=26.490284, Alt.=111.243225m. Speed=13.356000m/h.</desc>
<speed>3.710000</speed>
</trkpt>
<trkpt lat="56.059551" lon="26.490314">
<ele>111.100647</ele>
<time>2010-06-20T11:05:39Z</time>
<desc>lat.=56.059551, lon.=26.490314, Alt.=111.100647m. Speed=12.348000m/h.</desc>
<speed>3.430000</speed>
</trkpt>
<trkpt lat="56.059582" lon="26.490353">
<ele>111.028381</ele>
<time>2010-06-20T11:05:40Z</time>
<desc>lat.=56.059582, lon.=26.490353, Alt.=111.028381m. Speed=12.816000m/h.</desc>
<speed>3.560000</speed>
</trkpt>
<trkpt lat="56.059605" lon="26.490385">
<ele>111.237366</ele>
<time>2010-06-20T11:05:41Z</time>
<desc>lat.=56.059605, lon.=26.490385, Alt.=111.237366m. Speed=10.728000m/h.</desc>
<speed>2.980000</speed>
</trkpt>
<trkpt lat="56.059624" lon="26.490417">
<ele>111.530334</ele>
<time>2010-06-20T11:05:42Z</time>
<desc>lat.=56.059624, lon.=26.490417, Alt.=111.530334m. Speed=9.936000m/h.</desc>
<speed>2.760000</speed>
</trkpt>
<trkpt lat="56.059639" lon="26.490452">
<ele>111.694397</ele>
<time>2010-06-20T11:05:43Z</time>
<desc>lat.=56.059639, lon.=26.490452, Alt.=111.694397m. Speed=10.152000m/h.</desc>
<speed>2.820000</speed>
</trkpt>
<trkpt lat="56.059658" lon="26.490484">
<ele>111.850647</ele>
<time>2010-06-20T11:05:44Z</time>
<desc>lat.=56.059658, lon.=26.490484, Alt.=111.850647m. Speed=11.412000m/h.</desc>
<speed>3.170000</speed>
</trkpt>
<trkpt lat="56.059681" lon="26.490524">
<ele>112.036194</ele>
<time>2010-06-20T11:05:45Z</time>
<desc>lat.=56.059681, lon.=26.490524, Alt.=112.036194m. Speed=11.592000m/h.</desc>
<speed>3.220000</speed>
</trkpt>
<trkpt lat="56.059700" lon="26.490570">
<ele>112.335022</ele>
<time>2010-06-20T11:05:46Z</time>
<desc>lat.=56.059700, lon.=26.490570, Alt.=112.335022m. Speed=13.680000m/h.</desc>
<speed>3.800000</speed>
</trkpt>
<trkpt lat="56.059723" lon="26.490614">
<ele>112.608459</ele>
<time>2010-06-20T11:05:47Z</time>
<desc>lat.=56.059723, lon.=26.490614, Alt.=112.608459m. Speed=11.376000m/h.</desc>
<speed>3.160000</speed>
</trkpt>
<trkpt lat="56.059746" lon="26.490654">
<ele>112.038147</ele>
<time>2010-06-20T11:05:48Z</time>
<desc>lat.=56.059746, lon.=26.490654, Alt.=112.038147m. Speed=11.592000m/h.</desc>
<speed>3.220000</speed>
</trkpt>
<trkpt lat="56.059772" lon="26.490692">
<ele>112.038147</ele>
<time>2010-06-20T11:05:49Z</time>
<desc>lat.=56.059772, lon.=26.490692, Alt.=112.038147m. Speed=13.104000m/h.</desc>
<speed>3.640000</speed>
</trkpt>
<trkpt lat="56.059799" lon="26.490736">
<ele>112.010803</ele>
<time>2010-06-20T11:05:50Z</time>
<desc>lat.=56.059799, lon.=26.490736, Alt.=112.010803m. Speed=13.392000m/h.</desc>
<speed>3.720000</speed>
</trkpt>
<trkpt lat="56.059834" lon="26.490774">
<ele>112.522522</ele>
<time>2010-06-20T11:05:51Z</time>
<desc>lat.=56.059834, lon.=26.490774, Alt.=112.522522m. Speed=14.076000m/h.</desc>
<speed>3.910000</speed>
</trkpt>
<trkpt lat="56.059864" lon="26.490814">
<ele>113.083069</ele>
<time>2010-06-20T11:05:52Z</time>
<desc>lat.=56.059864, lon.=26.490814, Alt.=113.083069m. Speed=13.608000m/h.</desc>
<speed>3.780000</speed>
</trkpt>
<trkpt lat="56.059887" lon="26.490847">
<ele>112.827209</ele>
<time>2010-06-20T11:05:53Z</time>
<desc>lat.=56.059887, lon.=26.490847, Alt.=112.827209m. Speed=13.284000m/h.</desc>
<speed>3.690000</speed>
</trkpt>
<trkpt lat="56.059917" lon="26.490883">
<ele>113.085022</ele>
<time>2010-06-20T11:05:54Z</time>
<desc>lat.=56.059917, lon.=26.490883, Alt.=113.085022m. Speed=14.436000m/h.</desc>
<speed>4.010000</speed>
</trkpt>
<trkpt lat="56.059940" lon="26.490927">
<ele>113.141663</ele>
<time>2010-06-20T11:05:55Z</time>
<desc>lat.=56.059940, lon.=26.490927, Alt.=113.141663m. Speed=15.192000m/h.</desc>
<speed>4.220000</speed>
</trkpt>
<trkpt lat="56.059967" lon="26.490974">
<ele>113.335022</ele>
<time>2010-06-20T11:05:56Z</time>
<desc>lat.=56.059967, lon.=26.490974, Alt.=113.335022m. Speed=14.940000m/h.</desc>
<speed>4.150000</speed>
</trkpt>
<trkpt lat="56.059986" lon="26.491018">
<ele>111.997131</ele>
<time>2010-06-20T11:05:57Z</time>
<desc>lat.=56.059986, lon.=26.491018, Alt.=111.997131m. Speed=15.552000m/h.</desc>
<speed>4.320000</speed>
</trkpt>
<trkpt lat="56.060017" lon="26.491045">
<ele>111.663147</ele>
<time>2010-06-20T11:05:58Z</time>
<desc>lat.=56.060017, lon.=26.491045, Alt.=111.663147m. Speed=15.336000m/h.</desc>
<speed>4.260000</speed>
</trkpt>
<trkpt lat="56.060043" lon="26.491085">
<ele>110.725647</ele>
<time>2010-06-20T11:05:59Z</time>
<desc>lat.=56.060043, lon.=26.491085, Alt.=110.725647m. Speed=16.524000m/h.</desc>
<speed>4.590000</speed>
</trkpt>
<trkpt lat="56.060074" lon="26.491137">
<ele>110.458069</ele>
<time>2010-06-20T11:06:00Z</time>
<desc>lat.=56.060074, lon.=26.491137, Alt.=110.458069m. Speed=16.667999m/h.</desc>
<speed>4.630000</speed>
</trkpt>
<trkpt lat="56.060104" lon="26.491190">
<ele>110.686584</ele>
<time>2010-06-20T11:06:01Z</time>
<desc>lat.=56.060104, lon.=26.491190, Alt.=110.686584m. Speed=16.488001m/h.</desc>
<speed>4.580000</speed>
</trkpt>
<trkpt lat="56.060143" lon="26.491245">
<ele>111.768616</ele>
<time>2010-06-20T11:06:02Z</time>
<desc>lat.=56.060143, lon.=26.491245, Alt.=111.768616m. Speed=16.596001m/h.</desc>
<speed>4.610000</speed>
</trkpt>
<trkpt lat="56.060165" lon="26.491302">
<ele>112.034241</ele>
<time>2010-06-20T11:06:03Z</time>
<desc>lat.=56.060165, lon.=26.491302, Alt.=112.034241m. Speed=16.056000m/h.</desc>
<speed>4.460000</speed>
</trkpt>
<trkpt lat="56.060188" lon="26.491358">
<ele>112.180725</ele>
<time>2010-06-20T11:06:04Z</time>
<desc>lat.=56.060188, lon.=26.491358, Alt.=112.180725m. Speed=14.292000m/h.</desc>
<speed>3.970000</speed>
</trkpt>
<trkpt lat="56.060204" lon="26.491417">
<ele>111.981506</ele>
<time>2010-06-20T11:06:05Z</time>
<desc>lat.=56.060204, lon.=26.491417, Alt.=111.981506m. Speed=14.112000m/h.</desc>
<speed>3.920000</speed>
</trkpt>
<trkpt lat="56.060223" lon="26.491478">
<ele>111.780334</ele>
<time>2010-06-20T11:06:06Z</time>
<desc>lat.=56.060223, lon.=26.491478, Alt.=111.780334m. Speed=15.012000m/h.</desc>
<speed>4.170000</speed>
</trkpt>
<trkpt lat="56.060242" lon="26.491543">
<ele>111.842834</ele>
<time>2010-06-20T11:06:07Z</time>
<desc>lat.=56.060242, lon.=26.491543, Alt.=111.842834m. Speed=15.660000m/h.</desc>
<speed>4.350000</speed>
</trkpt>
<trkpt lat="56.060257" lon="26.491602">
<ele>111.889709</ele>
<time>2010-06-20T11:06:08Z</time>
<desc>lat.=56.060257, lon.=26.491602, Alt.=111.889709m. Speed=15.480000m/h.</desc>
<speed>4.300000</speed>
</trkpt>
<trkpt lat="56.060268" lon="26.491667">
<ele>111.821350</ele>
<time>2010-06-20T11:06:09Z</time>
<desc>lat.=56.060268, lon.=26.491667, Alt.=111.821350m. Speed=14.688000m/h.</desc>
<speed>4.080000</speed>
</trkpt>
<trkpt lat="56.060276" lon="26.491735">
<ele>112.411194</ele>
<time>2010-06-20T11:06:10Z</time>
<desc>lat.=56.060276, lon.=26.491735, Alt.=112.411194m. Speed=14.616000m/h.</desc>
<speed>4.060000</speed>
</trkpt>
<trkpt lat="56.060280" lon="26.491800">
<ele>111.536194</ele>
<time>2010-06-20T11:06:11Z</time>
<desc>lat.=56.060280, lon.=26.491800, Alt.=111.536194m. Speed=14.724000m/h.</desc>
<speed>4.090000</speed>
</trkpt>
<trkpt lat="56.060284" lon="26.491861">
<ele>110.920959</ele>
<time>2010-06-20T11:06:12Z</time>
<desc>lat.=56.060284, lon.=26.491861, Alt.=110.920959m. Speed=14.544000m/h.</desc>
<speed>4.040000</speed>
</trkpt>
<trkpt lat="56.060291" lon="26.491926">
<ele>110.647522</ele>
<time>2010-06-20T11:06:13Z</time>
<desc>lat.=56.060291, lon.=26.491926, Alt.=110.647522m. Speed=14.220000m/h.</desc>
<speed>3.950000</speed>
</trkpt>
<trkpt lat="56.060295" lon="26.491989">
<ele>110.635803</ele>
<time>2010-06-20T11:06:14Z</time>
<desc>lat.=56.060295, lon.=26.491989, Alt.=110.635803m. Speed=14.184000m/h.</desc>
<speed>3.940000</speed>
</trkpt>
<trkpt lat="56.060303" lon="26.492054">
<ele>110.657288</ele>
<time>2010-06-20T11:06:15Z</time>
<desc>lat.=56.060303, lon.=26.492054, Alt.=110.657288m. Speed=14.256000m/h.</desc>
<speed>3.960000</speed>
</trkpt>
<trkpt lat="56.060310" lon="26.492121">
<ele>110.782288</ele>
<time>2010-06-20T11:06:16Z</time>
<desc>lat.=56.060310, lon.=26.492121, Alt.=110.782288m. Speed=14.256000m/h.</desc>
<speed>3.960000</speed>
</trkpt>
<trkpt lat="56.060314" lon="26.492188">
<ele>110.424866</ele>
<time>2010-06-20T11:06:17Z</time>
<desc>lat.=56.060314, lon.=26.492188, Alt.=110.424866m. Speed=14.436000m/h.</desc>
<speed>4.010000</speed>
</trkpt>
<trkpt lat="56.060337" lon="26.492250">
<ele>112.008850</ele>
<time>2010-06-20T11:06:18Z</time>
<desc>lat.=56.060337, lon.=26.492250, Alt.=112.008850m. Speed=15.228000m/h.</desc>
<speed>4.230000</speed>
</trkpt>
<trkpt lat="56.060349" lon="26.492317">
<ele>112.092834</ele>
<time>2010-06-20T11:06:19Z</time>
<desc>lat.=56.060349, lon.=26.492317, Alt.=112.092834m. Speed=14.580000m/h.</desc>
<speed>4.050000</speed>
</trkpt>
<trkpt lat="56.060360" lon="26.492386">
<ele>112.272522</ele>
<time>2010-06-20T11:06:20Z</time>
<desc>lat.=56.060360, lon.=26.492386, Alt.=112.272522m. Speed=14.760000m/h.</desc>
<speed>4.100000</speed>
</trkpt>
<trkpt lat="56.060368" lon="26.492455">
<ele>112.282288</ele>
<time>2010-06-20T11:06:21Z</time>
<desc>lat.=56.060368, lon.=26.492455, Alt.=112.282288m. Speed=14.112000m/h.</desc>
<speed>3.920000</speed>
</trkpt>
<trkpt lat="56.060379" lon="26.492516">
<ele>112.708069</ele>
<time>2010-06-20T11:06:22Z</time>
<desc>lat.=56.060379, lon.=26.492516, Alt.=112.708069m. Speed=13.392000m/h.</desc>
<speed>3.720000</speed>
</trkpt>
<trkpt lat="56.060390" lon="26.492579">
<ele>112.997131</ele>
<time>2010-06-20T11:06:23Z</time>
<desc>lat.=56.060390, lon.=26.492579, Alt.=112.997131m. Speed=13.032000m/h.</desc>
<speed>3.620000</speed>
</trkpt>
<trkpt lat="56.060402" lon="26.492641">
<ele>113.395569</ele>
<time>2010-06-20T11:06:24Z</time>
<desc>lat.=56.060402, lon.=26.492641, Alt.=113.395569m. Speed=14.040000m/h.</desc>
<speed>3.900000</speed>
</trkpt>
<trkpt lat="56.060417" lon="26.492706">
<ele>113.571350</ele>
<time>2010-06-20T11:06:25Z</time>
<desc>lat.=56.060417, lon.=26.492706, Alt.=113.571350m. Speed=14.904000m/h.</desc>
<speed>4.140000</speed>
</trkpt>
<trkpt lat="56.060436" lon="26.492775">
<ele>113.393616</ele>
<time>2010-06-20T11:06:26Z</time>
<desc>lat.=56.060436, lon.=26.492775, Alt.=113.393616m. Speed=15.732000m/h.</desc>
<speed>4.370000</speed>
</trkpt>
<trkpt lat="56.060452" lon="26.492840">
<ele>113.153381</ele>
<time>2010-06-20T11:06:27Z</time>
<desc>lat.=56.060452, lon.=26.492840, Alt.=113.153381m. Speed=16.091999m/h.</desc>
<speed>4.470000</speed>
</trkpt>
<trkpt lat="56.060474" lon="26.492903">
<ele>112.557678</ele>
<time>2010-06-20T11:06:28Z</time>
<desc>lat.=56.060474, lon.=26.492903, Alt.=112.557678m. Speed=16.848000m/h.</desc>
<speed>4.680000</speed>
</trkpt>
<trkpt lat="56.060497" lon="26.492968">
<ele>112.254944</ele>
<time>2010-06-20T11:06:29Z</time>
<desc>lat.=56.060497, lon.=26.492968, Alt.=112.254944m. Speed=17.784000m/h.</desc>
<speed>4.940000</speed>
</trkpt>
<trkpt lat="56.060520" lon="26.493027">
<ele>111.864319</ele>
<time>2010-06-20T11:06:30Z</time>
<desc>lat.=56.060520, lon.=26.493027, Alt.=111.864319m. Speed=18.108000m/h.</desc>
<speed>5.030000</speed>
</trkpt>
<trkpt lat="56.060551" lon="26.493095">
<ele>111.879944</ele>
<time>2010-06-20T11:06:31Z</time>
<desc>lat.=56.060551, lon.=26.493095, Alt.=111.879944m. Speed=18.900000m/h.</desc>
<speed>5.250000</speed>
</trkpt>
<trkpt lat="56.060577" lon="26.493172">
<ele>110.778381</ele>
<time>2010-06-20T11:06:32Z</time>
<desc>lat.=56.060577, lon.=26.493172, Alt.=110.778381m. Speed=20.124001m/h.</desc>
<speed>5.590000</speed>
</trkpt>
<trkpt lat="56.060608" lon="26.493244">
<ele>110.467834</ele>
<time>2010-06-20T11:06:33Z</time>
<desc>lat.=56.060608, lon.=26.493244, Alt.=110.467834m. Speed=20.340000m/h.</desc>
<speed>5.650000</speed>
</trkpt>
<trkpt lat="56.060646" lon="26.493315">
<ele>110.889709</ele>
<time>2010-06-20T11:06:34Z</time>
<desc>lat.=56.060646, lon.=26.493315, Alt.=110.889709m. Speed=20.879999m/h.</desc>
<speed>5.800000</speed>
</trkpt>
<trkpt lat="56.060680" lon="26.493382">
<ele>110.419006</ele>
<time>2010-06-20T11:06:35Z</time>
<desc>lat.=56.060680, lon.=26.493382, Alt.=110.419006m. Speed=20.879999m/h.</desc>
<speed>5.800000</speed>
</trkpt>
<trkpt lat="56.060715" lon="26.493450">
<ele>109.831116</ele>
<time>2010-06-20T11:06:36Z</time>
<desc>lat.=56.060715, lon.=26.493450, Alt.=109.831116m. Speed=20.988001m/h.</desc>
<speed>5.830000</speed>
</trkpt>
<trkpt lat="56.060749" lon="26.493517">
<ele>109.317444</ele>
<time>2010-06-20T11:06:37Z</time>
<desc>lat.=56.060749, lon.=26.493517, Alt.=109.317444m. Speed=20.844000m/h.</desc>
<speed>5.790000</speed>
</trkpt>
<trkpt lat="56.060787" lon="26.493586">
<ele>109.743225</ele>
<time>2010-06-20T11:06:38Z</time>
<desc>lat.=56.060787, lon.=26.493586, Alt.=109.743225m. Speed=20.412001m/h.</desc>
<speed>5.670000</speed>
</trkpt>
<trkpt lat="56.060822" lon="26.493652">
<ele>109.542053</ele>
<time>2010-06-20T11:06:39Z</time>
<desc>lat.=56.060822, lon.=26.493652, Alt.=109.542053m. Speed=19.980000m/h.</desc>
<speed>5.550000</speed>
</trkpt>
<trkpt lat="56.060856" lon="26.493711">
<ele>109.704163</ele>
<time>2010-06-20T11:06:40Z</time>
<desc>lat.=56.060856, lon.=26.493711, Alt.=109.704163m. Speed=18.936001m/h.</desc>
<speed>5.260000</speed>
</trkpt>
<trkpt lat="56.060890" lon="26.493773">
<ele>109.245178</ele>
<time>2010-06-20T11:06:41Z</time>
<desc>lat.=56.060890, lon.=26.493773, Alt.=109.245178m. Speed=18.540001m/h.</desc>
<speed>5.150000</speed>
</trkpt>
<trkpt lat="56.060921" lon="26.493839">
<ele>109.036194</ele>
<time>2010-06-20T11:06:42Z</time>
<desc>lat.=56.060921, lon.=26.493839, Alt.=109.036194m. Speed=18.000000m/h.</desc>
<speed>5.000000</speed>
</trkpt>
<trkpt lat="56.060951" lon="26.493893">
<ele>108.995178</ele>
<time>2010-06-20T11:06:43Z</time>
<desc>lat.=56.060951, lon.=26.493893, Alt.=108.995178m. Speed=17.172001m/h.</desc>
<speed>4.770000</speed>
</trkpt>
<trkpt lat="56.060978" lon="26.493952">
<ele>108.924866</ele>
<time>2010-06-20T11:06:44Z</time>
<desc>lat.=56.060978, lon.=26.493952, Alt.=108.924866m. Speed=16.524000m/h.</desc>
<speed>4.590000</speed>
</trkpt>
<trkpt lat="56.061012" lon="26.494009">
<ele>108.985413</ele>
<time>2010-06-20T11:06:45Z</time>
<desc>lat.=56.061012, lon.=26.494009, Alt.=108.985413m. Speed=17.280001m/h.</desc>
<speed>4.800000</speed>
</trkpt>
<trkpt lat="56.061043" lon="26.494068">
<ele>108.954163</ele>
<time>2010-06-20T11:06:46Z</time>
<desc>lat.=56.061043, lon.=26.494068, Alt.=108.954163m. Speed=17.532000m/h.</desc>
<speed>4.870000</speed>
</trkpt>
<trkpt lat="56.061073" lon="26.494129">
<ele>108.860413</ele>
<time>2010-06-20T11:06:47Z</time>
<desc>lat.=56.061073, lon.=26.494129, Alt.=108.860413m. Speed=16.955999m/h.</desc>
<speed>4.710000</speed>
</trkpt>
<trkpt lat="56.061096" lon="26.494186">
<ele>108.198303</ele>
<time>2010-06-20T11:06:48Z</time>
<desc>lat.=56.061096, lon.=26.494186, Alt.=108.198303m. Speed=17.063999m/h.</desc>
<speed>4.740000</speed>
</trkpt>
<trkpt lat="56.061127" lon="26.494242">
<ele>108.016663</ele>
<time>2010-06-20T11:06:49Z</time>
<desc>lat.=56.061127, lon.=26.494242, Alt.=108.016663m. Speed=17.676001m/h.</desc>
<speed>4.910000</speed>
</trkpt>
<trkpt lat="56.061157" lon="26.494299">
<ele>107.858459</ele>
<time>2010-06-20T11:06:50Z</time>
<desc>lat.=56.061157, lon.=26.494299, Alt.=107.858459m. Speed=17.424000m/h.</desc>
<speed>4.840000</speed>
</trkpt>
<trkpt lat="56.061184" lon="26.494350">
<ele>107.495178</ele>
<time>2010-06-20T11:06:51Z</time>
<desc>lat.=56.061184, lon.=26.494350, Alt.=107.495178m. Speed=16.200001m/h.</desc>
<speed>4.500000</speed>
</trkpt>
<trkpt lat="56.061211" lon="26.494392">
<ele>107.704163</ele>
<time>2010-06-20T11:06:52Z</time>
<desc>lat.=56.061211, lon.=26.494392, Alt.=107.704163m. Speed=14.796000m/h.</desc>
<speed>4.110000</speed>
</trkpt>
<trkpt lat="56.061234" lon="26.494444">
<ele>107.276428</ele>
<time>2010-06-20T11:06:53Z</time>
<desc>lat.=56.061234, lon.=26.494444, Alt.=107.276428m. Speed=14.400000m/h.</desc>
<speed>4.000000</speed>
</trkpt>
<trkpt lat="56.061253" lon="26.494482">
<ele>107.143616</ele>
<time>2010-06-20T11:06:54Z</time>
<desc>lat.=56.061253, lon.=26.494482, Alt.=107.143616m. Speed=9.828000m/h.</desc>
<speed>2.730000</speed>
</trkpt>
<trkpt lat="56.061260" lon="26.494513">
<ele>106.928772</ele>
<time>2010-06-20T11:06:55Z</time>
<desc>lat.=56.061260, lon.=26.494513, Alt.=106.928772m. Speed=6.768000m/h.</desc>
<speed>1.880000</speed>
</trkpt>
<trkpt lat="56.061268" lon="26.494551">
<ele>107.419006</ele>
<time>2010-06-20T11:06:56Z</time>
<desc>lat.=56.061268, lon.=26.494551, Alt.=107.419006m. Speed=7.056000m/h.</desc>
<speed>1.960000</speed>
</trkpt>
<trkpt lat="56.061283" lon="26.494577">
<ele>107.516663</ele>
<time>2010-06-20T11:06:57Z</time>
<desc>lat.=56.061283, lon.=26.494577, Alt.=107.516663m. Speed=9.468000m/h.</desc>
<speed>2.630000</speed>
</trkpt>
<trkpt lat="56.061298" lon="26.494606">
<ele>107.581116</ele>
<time>2010-06-20T11:06:58Z</time>
<desc>lat.=56.061298, lon.=26.494606, Alt.=107.581116m. Speed=10.188000m/h.</desc>
<speed>2.830000</speed>
</trkpt>
<trkpt lat="56.061314" lon="26.494642">
<ele>106.883850</ele>
<time>2010-06-20T11:06:59Z</time>
<desc>lat.=56.061314, lon.=26.494642, Alt.=106.883850m. Speed=10.080000m/h.</desc>
<speed>2.800000</speed>
</trkpt>
<trkpt lat="56.061333" lon="26.494675">
<ele>106.323303</ele>
<time>2010-06-20T11:07:00Z</time>
<desc>lat.=56.061333, lon.=26.494675, Alt.=106.323303m. Speed=9.504000m/h.</desc>
<speed>2.640000</speed>
</trkpt>
<trkpt lat="56.061356" lon="26.494694">
<ele>106.622131</ele>
<time>2010-06-20T11:07:01Z</time>
<desc>lat.=56.061356, lon.=26.494694, Alt.=106.622131m. Speed=9.216000m/h.</desc>
<speed>2.560000</speed>
</trkpt>
<trkpt lat="56.061371" lon="26.494713">
<ele>106.251038</ele>
<time>2010-06-20T11:07:02Z</time>
<desc>lat.=56.061371, lon.=26.494713, Alt.=106.251038m. Speed=9.288000m/h.</desc>
<speed>2.580000</speed>
</trkpt>
<trkpt lat="56.061390" lon="26.494740">
<ele>105.801819</ele>
<time>2010-06-20T11:07:03Z</time>
<desc>lat.=56.061390, lon.=26.494740, Alt.=105.801819m. Speed=9.792000m/h.</desc>
<speed>2.720000</speed>
</trkpt>
<trkpt lat="56.061409" lon="26.494770">
<ele>105.833069</ele>
<time>2010-06-20T11:07:04Z</time>
<desc>lat.=56.061409, lon.=26.494770, Alt.=105.833069m. Speed=9.792000m/h.</desc>
<speed>2.720000</speed>
</trkpt>
<trkpt lat="56.061428" lon="26.494799">
<ele>106.206116</ele>
<time>2010-06-20T11:07:05Z</time>
<desc>lat.=56.061428, lon.=26.494799, Alt.=106.206116m. Speed=10.332000m/h.</desc>
<speed>2.870000</speed>
</trkpt>
<trkpt lat="56.061451" lon="26.494827">
<ele>106.340881</ele>
<time>2010-06-20T11:07:06Z</time>
<desc>lat.=56.061451, lon.=26.494827, Alt.=106.340881m. Speed=10.440000m/h.</desc>
<speed>2.900000</speed>
</trkpt>
<trkpt lat="56.061474" lon="26.494862">
<ele>107.249084</ele>
<time>2010-06-20T11:07:07Z</time>
<desc>lat.=56.061474, lon.=26.494862, Alt.=107.249084m. Speed=11.196000m/h.</desc>
<speed>3.110000</speed>
</trkpt>
<trkpt lat="56.061501" lon="26.494884">
<ele>106.770569</ele>
<time>2010-06-20T11:07:08Z</time>
<desc>lat.=56.061501, lon.=26.494884, Alt.=106.770569m. Speed=12.024000m/h.</desc>
<speed>3.340000</speed>
</trkpt>
<trkpt lat="56.061527" lon="26.494923">
<ele>108.354553</ele>
<time>2010-06-20T11:07:09Z</time>
<desc>lat.=56.061527, lon.=26.494923, Alt.=108.354553m. Speed=11.340000m/h.</desc>
<speed>3.150000</speed>
</trkpt>
<trkpt lat="56.061546" lon="26.494955">
<ele>108.342834</ele>
<time>2010-06-20T11:07:10Z</time>
<desc>lat.=56.061546, lon.=26.494955, Alt.=108.342834m. Speed=11.196000m/h.</desc>
<speed>3.110000</speed>
</trkpt>
<trkpt lat="56.061562" lon="26.494991">
<ele>107.247131</ele>
<time>2010-06-20T11:07:11Z</time>
<desc>lat.=56.061562, lon.=26.494991, Alt.=107.247131m. Speed=11.592000m/h.</desc>
<speed>3.220000</speed>
</trkpt>
<trkpt lat="56.061577" lon="26.495035">
<ele>106.473694</ele>
<time>2010-06-20T11:07:12Z</time>
<desc>lat.=56.061577, lon.=26.495035, Alt.=106.473694m. Speed=11.988000m/h.</desc>
<speed>3.330000</speed>
</trkpt>
<trkpt lat="56.061592" lon="26.495079">
<ele>105.922913</ele>
<time>2010-06-20T11:07:13Z</time>
<desc>lat.=56.061592, lon.=26.495079, Alt.=105.922913m. Speed=11.772000m/h.</desc>
<speed>3.270000</speed>
</trkpt>
<trkpt lat="56.061623" lon="26.495119">
<ele>107.073303</ele>
<time>2010-06-20T11:07:14Z</time>
<desc>lat.=56.061623, lon.=26.495119, Alt.=107.073303m. Speed=12.348000m/h.</desc>
<speed>3.430000</speed>
</trkpt>
<trkpt lat="56.061646" lon="26.495159">
<ele>107.768616</ele>
<time>2010-06-20T11:07:15Z</time>
<desc>lat.=56.061646, lon.=26.495159, Alt.=107.768616m. Speed=12.348000m/h.</desc>
<speed>3.430000</speed>
</trkpt>
<trkpt lat="56.061672" lon="26.495197">
<ele>108.063538</ele>
<time>2010-06-20T11:07:16Z</time>
<desc>lat.=56.061672, lon.=26.495197, Alt.=108.063538m. Speed=13.428000m/h.</desc>
<speed>3.730000</speed>
</trkpt>
<trkpt lat="56.061691" lon="26.495237">
<ele>107.981506</ele>
<time>2010-06-20T11:07:17Z</time>
<desc>lat.=56.061691, lon.=26.495237, Alt.=107.981506m. Speed=12.528000m/h.</desc>
<speed>3.480000</speed>
</trkpt>
<trkpt lat="56.061710" lon="26.495277">
<ele>107.540100</ele>
<time>2010-06-20T11:07:18Z</time>
<desc>lat.=56.061710, lon.=26.495277, Alt.=107.540100m. Speed=12.456000m/h.</desc>
<speed>3.460000</speed>
</trkpt>
<trkpt lat="56.061729" lon="26.495319">
<ele>107.403381</ele>
<time>2010-06-20T11:07:19Z</time>
<desc>lat.=56.061729, lon.=26.495319, Alt.=107.403381m. Speed=12.996000m/h.</desc>
<speed>3.610000</speed>
</trkpt>
<trkpt lat="56.061752" lon="26.495363">
<ele>107.895569</ele>
<time>2010-06-20T11:07:20Z</time>
<desc>lat.=56.061752, lon.=26.495363, Alt.=107.895569m. Speed=13.500000m/h.</desc>
<speed>3.750000</speed>
</trkpt>
<trkpt lat="56.061775" lon="26.495403">
<ele>108.317444</ele>
<time>2010-06-20T11:07:21Z</time>
<desc>lat.=56.061775, lon.=26.495403, Alt.=108.317444m. Speed=12.672000m/h.</desc>
<speed>3.520000</speed>
</trkpt>
<trkpt lat="56.061798" lon="26.495438">
<ele>108.403381</ele>
<time>2010-06-20T11:07:22Z</time>
<desc>lat.=56.061798, lon.=26.495438, Alt.=108.403381m. Speed=11.664000m/h.</desc>
<speed>3.240000</speed>
</trkpt>
<trkpt lat="56.061817" lon="26.495483">
<ele>108.352600</ele>
<time>2010-06-20T11:07:23Z</time>
<desc>lat.=56.061817, lon.=26.495483, Alt.=108.352600m. Speed=12.168000m/h.</desc>
<speed>3.380000</speed>
</trkpt>
<trkpt lat="56.061836" lon="26.495523">
<ele>108.174866</ele>
<time>2010-06-20T11:07:24Z</time>
<desc>lat.=56.061836, lon.=26.495523, Alt.=108.174866m. Speed=12.816000m/h.</desc>
<speed>3.560000</speed>
</trkpt>
<trkpt lat="56.061859" lon="26.495564">
<ele>108.544006</ele>
<time>2010-06-20T11:07:25Z</time>
<desc>lat.=56.061859, lon.=26.495564, Alt.=108.544006m. Speed=12.852000m/h.</desc>
<speed>3.570000</speed>
</trkpt>
<trkpt lat="56.061878" lon="26.495604">
<ele>108.419006</ele>
<time>2010-06-20T11:07:26Z</time>
<desc>lat.=56.061878, lon.=26.495604, Alt.=108.419006m. Speed=11.412000m/h.</desc>
<speed>3.170000</speed>
</trkpt>
<trkpt lat="56.061897" lon="26.495644">
<ele>108.313538</ele>
<time>2010-06-20T11:07:27Z</time>
<desc>lat.=56.061897, lon.=26.495644, Alt.=108.313538m. Speed=10.692000m/h.</desc>
<speed>2.970000</speed>
</trkpt>
<trkpt lat="56.061916" lon="26.495687">
<ele>108.583069</ele>
<time>2010-06-20T11:07:28Z</time>
<desc>lat.=56.061916, lon.=26.495687, Alt.=108.583069m. Speed=11.340000m/h.</desc>
<speed>3.150000</speed>
</trkpt>
<trkpt lat="56.061943" lon="26.495722">
<ele>108.653381</ele>
<time>2010-06-20T11:07:29Z</time>
<desc>lat.=56.061943, lon.=26.495722, Alt.=108.653381m. Speed=12.312000m/h.</desc>
<speed>3.420000</speed>
</trkpt>
<trkpt lat="56.061970" lon="26.495762">
<ele>109.649475</ele>
<time>2010-06-20T11:07:30Z</time>
<desc>lat.=56.061970, lon.=26.495762, Alt.=109.649475m. Speed=13.212000m/h.</desc>
<speed>3.670000</speed>
</trkpt>
<trkpt lat="56.061989" lon="26.495804">
<ele>109.254944</ele>
<time>2010-06-20T11:07:31Z</time>
<desc>lat.=56.061989, lon.=26.495804, Alt.=109.254944m. Speed=12.780000m/h.</desc>
<speed>3.550000</speed>
</trkpt>
<trkpt lat="56.062016" lon="26.495842">
<ele>109.479553</ele>
<time>2010-06-20T11:07:32Z</time>
<desc>lat.=56.062016, lon.=26.495842, Alt.=109.479553m. Speed=12.600000m/h.</desc>
<speed>3.500000</speed>
</trkpt>
<trkpt lat="56.062038" lon="26.495893">
<ele>109.977600</ele>
<time>2010-06-20T11:07:33Z</time>
<desc>lat.=56.062038, lon.=26.495893, Alt.=109.977600m. Speed=12.996000m/h.</desc>
<speed>3.610000</speed>
</trkpt>
<trkpt lat="56.062061" lon="26.495937">
<ele>110.116272</ele>
<time>2010-06-20T11:07:34Z</time>
<desc>lat.=56.062061, lon.=26.495937, Alt.=110.116272m. Speed=12.564000m/h.</desc>
<speed>3.490000</speed>
</trkpt>
<trkpt lat="56.062084" lon="26.495983">
<ele>110.497131</ele>
<time>2010-06-20T11:07:35Z</time>
<desc>lat.=56.062084, lon.=26.495983, Alt.=110.497131m. Speed=12.240000m/h.</desc>
<speed>3.400000</speed>
</trkpt>
<trkpt lat="56.062115" lon="26.496017">
<ele>111.112366</ele>
<time>2010-06-20T11:07:36Z</time>
<desc>lat.=56.062115, lon.=26.496017, Alt.=111.112366m. Speed=11.340000m/h.</desc>
<speed>3.150000</speed>
</trkpt>
<trkpt lat="56.062138" lon="26.496052">
<ele>111.198303</ele>
<time>2010-06-20T11:07:37Z</time>
<desc>lat.=56.062138, lon.=26.496052, Alt.=111.198303m. Speed=12.744000m/h.</desc>
<speed>3.540000</speed>
</trkpt>
<trkpt lat="56.062164" lon="26.496092">
<ele>111.465881</ele>
<time>2010-06-20T11:07:38Z</time>
<desc>lat.=56.062164, lon.=26.496092, Alt.=111.465881m. Speed=12.780000m/h.</desc>
<speed>3.550000</speed>
</trkpt>
<trkpt lat="56.062183" lon="26.496138">
<ele>111.227600</ele>
<time>2010-06-20T11:07:39Z</time>
<desc>lat.=56.062183, lon.=26.496138, Alt.=111.227600m. Speed=12.816000m/h.</desc>
<speed>3.560000</speed>
</trkpt>
<trkpt lat="56.062206" lon="26.496181">
<ele>110.991272</ele>
<time>2010-06-20T11:07:40Z</time>
<desc>lat.=56.062206, lon.=26.496181, Alt.=110.991272m. Speed=11.304000m/h.</desc>
<speed>3.140000</speed>
</trkpt>
<trkpt lat="56.062225" lon="26.496214">
<ele>110.762756</ele>
<time>2010-06-20T11:07:41Z</time>
<desc>lat.=56.062225, lon.=26.496214, Alt.=110.762756m. Speed=11.916000m/h.</desc>
<speed>3.310000</speed>
</trkpt>
<trkpt lat="56.062248" lon="26.496250">
<ele>110.891663</ele>
<time>2010-06-20T11:07:42Z</time>
<desc>lat.=56.062248, lon.=26.496250, Alt.=110.891663m. Speed=11.844000m/h.</desc>
<speed>3.290000</speed>
</trkpt>
<trkpt lat="56.062267" lon="26.496292">
<ele>110.590881</ele>
<time>2010-06-20T11:07:43Z</time>
<desc>lat.=56.062267, lon.=26.496292, Alt.=110.590881m. Speed=12.348000m/h.</desc>
<speed>3.430000</speed>
</trkpt>
<trkpt lat="56.062294" lon="26.496336">
<ele>110.883850</ele>
<time>2010-06-20T11:07:44Z</time>
<desc>lat.=56.062294, lon.=26.496336, Alt.=110.883850m. Speed=13.140000m/h.</desc>
<speed>3.650000</speed>
</trkpt>
<trkpt lat="56.062313" lon="26.496378">
<ele>110.551819</ele>
<time>2010-06-20T11:07:45Z</time>
<desc>lat.=56.062313, lon.=26.496378, Alt.=110.551819m. Speed=13.644000m/h.</desc>
<speed>3.790000</speed>
</trkpt>
<trkpt lat="56.062332" lon="26.496405">
<ele>109.590881</ele>
<time>2010-06-20T11:07:46Z</time>
<desc>lat.=56.062332, lon.=26.496405, Alt.=109.590881m. Speed=12.564000m/h.</desc>
<speed>3.490000</speed>
</trkpt>
<trkpt lat="56.062359" lon="26.496441">
<ele>109.133850</ele>
<time>2010-06-20T11:07:47Z</time>
<desc>lat.=56.062359, lon.=26.496441, Alt.=109.133850m. Speed=14.004000m/h.</desc>
<speed>3.890000</speed>
</trkpt>
<trkpt lat="56.062382" lon="26.496481">
<ele>108.153381</ele>
<time>2010-06-20T11:07:48Z</time>
<desc>lat.=56.062382, lon.=26.496481, Alt.=108.153381m. Speed=13.932000m/h.</desc>
<speed>3.870000</speed>
</trkpt>
<trkpt lat="56.062405" lon="26.496529">
<ele>108.055725</ele>
<time>2010-06-20T11:07:49Z</time>
<desc>lat.=56.062405, lon.=26.496529, Alt.=108.055725m. Speed=13.968000m/h.</desc>
<speed>3.880000</speed>
</trkpt>
<trkpt lat="56.062439" lon="26.496576">
<ele>109.424866</ele>
<time>2010-06-20T11:07:50Z</time>
<desc>lat.=56.062439, lon.=26.496576, Alt.=109.424866m. Speed=13.896000m/h.</desc>
<speed>3.860000</speed>
</trkpt>
<trkpt lat="56.062469" lon="26.496620">
<ele>109.971741</ele>
<time>2010-06-20T11:07:51Z</time>
<desc>lat.=56.062469, lon.=26.496620, Alt.=109.971741m. Speed=15.372000m/h.</desc>
<speed>4.270000</speed>
</trkpt>
<trkpt lat="56.062492" lon="26.496672">
<ele>109.667053</ele>
<time>2010-06-20T11:07:52Z</time>
<desc>lat.=56.062492, lon.=26.496672, Alt.=109.667053m. Speed=15.228000m/h.</desc>
<speed>4.230000</speed>
</trkpt>
<trkpt lat="56.062511" lon="26.496716">
<ele>109.260803</ele>
<time>2010-06-20T11:07:53Z</time>
<desc>lat.=56.062511, lon.=26.496716, Alt.=109.260803m. Speed=14.220000m/h.</desc>
<speed>3.950000</speed>
</trkpt>
<trkpt lat="56.062534" lon="26.496769">
<ele>108.915100</ele>
<time>2010-06-20T11:07:54Z</time>
<desc>lat.=56.062534, lon.=26.496769, Alt.=108.915100m. Speed=13.824000m/h.</desc>
<speed>3.840000</speed>
</trkpt>
<trkpt lat="56.062561" lon="26.496820">
<ele>108.838928</ele>
<time>2010-06-20T11:07:55Z</time>
<desc>lat.=56.062561, lon.=26.496820, Alt.=108.838928m. Speed=14.112000m/h.</desc>
<speed>3.920000</speed>
</trkpt>
<trkpt lat="56.062584" lon="26.496876">
<ele>108.754944</ele>
<time>2010-06-20T11:07:56Z</time>
<desc>lat.=56.062584, lon.=26.496876, Alt.=108.754944m. Speed=15.012000m/h.</desc>
<speed>4.170000</speed>
</trkpt>
<trkpt lat="56.062611" lon="26.496920">
<ele>108.770569</ele>
<time>2010-06-20T11:07:57Z</time>
<desc>lat.=56.062611, lon.=26.496920, Alt.=108.770569m. Speed=14.688000m/h.</desc>
<speed>4.080000</speed>
</trkpt>
<trkpt lat="56.062637" lon="26.496969">
<ele>108.737366</ele>
<time>2010-06-20T11:07:58Z</time>
<desc>lat.=56.062637, lon.=26.496969, Alt.=108.737366m. Speed=15.444000m/h.</desc>
<speed>4.290000</speed>
</trkpt>
<trkpt lat="56.062660" lon="26.497019">
<ele>109.161194</ele>
<time>2010-06-20T11:07:59Z</time>
<desc>lat.=56.062660, lon.=26.497019, Alt.=109.161194m. Speed=15.336000m/h.</desc>
<speed>4.260000</speed>
</trkpt>
<trkpt lat="56.062691" lon="26.497065">
<ele>109.735413</ele>
<time>2010-06-20T11:08:00Z</time>
<desc>lat.=56.062691, lon.=26.497065, Alt.=109.735413m. Speed=14.472000m/h.</desc>
<speed>4.020000</speed>
</trkpt>
<trkpt lat="56.062725" lon="26.497118">
<ele>111.221741</ele>
<time>2010-06-20T11:08:01Z</time>
<desc>lat.=56.062725, lon.=26.497118, Alt.=111.221741m. Speed=14.904000m/h.</desc>
<speed>4.140000</speed>
</trkpt>
<trkpt lat="56.062752" lon="26.497164">
<ele>111.891663</ele>
<time>2010-06-20T11:08:02Z</time>
<desc>lat.=56.062752, lon.=26.497164, Alt.=111.891663m. Speed=14.940000m/h.</desc>
<speed>4.150000</speed>
</trkpt>
<trkpt lat="56.062778" lon="26.497211">
<ele>112.225647</ele>
<time>2010-06-20T11:08:03Z</time>
<desc>lat.=56.062778, lon.=26.497211, Alt.=112.225647m. Speed=15.804000m/h.</desc>
<speed>4.390000</speed>
</trkpt>
<trkpt lat="56.062809" lon="26.497261">
<ele>112.530334</ele>
<time>2010-06-20T11:08:04Z</time>
<desc>lat.=56.062809, lon.=26.497261, Alt.=112.530334m. Speed=16.308001m/h.</desc>
<speed>4.530000</speed>
</trkpt>
<trkpt lat="56.062832" lon="26.497314">
<ele>112.706116</ele>
<time>2010-06-20T11:08:05Z</time>
<desc>lat.=56.062832, lon.=26.497314, Alt.=112.706116m. Speed=15.336000m/h.</desc>
<speed>4.260000</speed>
</trkpt>
<trkpt lat="56.062855" lon="26.497364">
<ele>112.858459</ele>
<time>2010-06-20T11:08:06Z</time>
<desc>lat.=56.062855, lon.=26.497364, Alt.=112.858459m. Speed=14.112000m/h.</desc>
<speed>3.920000</speed>
</trkpt>
<trkpt lat="56.062878" lon="26.497416">
<ele>113.294006</ele>
<time>2010-06-20T11:08:07Z</time>
<desc>lat.=56.062878, lon.=26.497416, Alt.=113.294006m. Speed=14.004000m/h.</desc>
<speed>3.890000</speed>
</trkpt>
<trkpt lat="56.062912" lon="26.497469">
<ele>114.833069</ele>
<time>2010-06-20T11:08:08Z</time>
<desc>lat.=56.062912, lon.=26.497469, Alt.=114.833069m. Speed=14.148000m/h.</desc>
<speed>3.930000</speed>
</trkpt>
<trkpt lat="56.062931" lon="26.497522">
<ele>115.053772</ele>
<time>2010-06-20T11:08:09Z</time>
<desc>lat.=56.062931, lon.=26.497522, Alt.=115.053772m. Speed=14.400000m/h.</desc>
<speed>4.000000</speed>
</trkpt>
<trkpt lat="56.062950" lon="26.497576">
<ele>115.274475</ele>
<time>2010-06-20T11:08:10Z</time>
<desc>lat.=56.062950, lon.=26.497576, Alt.=115.274475m. Speed=12.276000m/h.</desc>
<speed>3.410000</speed>
</trkpt>
<trkpt lat="56.062965" lon="26.497625">
<ele>115.631897</ele>
<time>2010-06-20T11:08:11Z</time>
<desc>lat.=56.062965, lon.=26.497625, Alt.=115.631897m. Speed=13.428000m/h.</desc>
<speed>3.730000</speed>
</trkpt>
<trkpt lat="56.062981" lon="26.497675">
<ele>115.745178</ele>
<time>2010-06-20T11:08:12Z</time>
<desc>lat.=56.062981, lon.=26.497675, Alt.=115.745178m. Speed=12.888000m/h.</desc>
<speed>3.580000</speed>
</trkpt>
<trkpt lat="56.062996" lon="26.497719">
<ele>116.219788</ele>
<time>2010-06-20T11:08:13Z</time>
<desc>lat.=56.062996, lon.=26.497719, Alt.=116.219788m. Speed=12.168000m/h.</desc>
<speed>3.380000</speed>
</trkpt>
<trkpt lat="56.063000" lon="26.497761">
<ele>115.565491</ele>
<time>2010-06-20T11:08:14Z</time>
<desc>lat.=56.063000, lon.=26.497761, Alt.=115.565491m. Speed=11.556000m/h.</desc>
<speed>3.210000</speed>
</trkpt>
<trkpt lat="56.063015" lon="26.497803">
<ele>115.415100</ele>
<time>2010-06-20T11:08:15Z</time>
<desc>lat.=56.063015, lon.=26.497803, Alt.=115.415100m. Speed=11.340000m/h.</desc>
<speed>3.150000</speed>
</trkpt>
<trkpt lat="56.063023" lon="26.497841">
<ele>114.204163</ele>
<time>2010-06-20T11:08:16Z</time>
<desc>lat.=56.063023, lon.=26.497841, Alt.=114.204163m. Speed=11.268000m/h.</desc>
<speed>3.130000</speed>
</trkpt>
<trkpt lat="56.063030" lon="26.497883">
<ele>114.282288</ele>
<time>2010-06-20T11:08:17Z</time>
<desc>lat.=56.063030, lon.=26.497883, Alt.=114.282288m. Speed=9.864000m/h.</desc>
<speed>2.740000</speed>
</trkpt>
<trkpt lat="56.063038" lon="26.497921">
<ele>113.885803</ele>
<time>2010-06-20T11:08:18Z</time>
<desc>lat.=56.063038, lon.=26.497921, Alt.=113.885803m. Speed=9.468000m/h.</desc>
<speed>2.630000</speed>
</trkpt>
<trkpt lat="56.063046" lon="26.497957">
<ele>113.965881</ele>
<time>2010-06-20T11:08:19Z</time>
<desc>lat.=56.063046, lon.=26.497957, Alt.=113.965881m. Speed=9.900000m/h.</desc>
<speed>2.750000</speed>
</trkpt>
<trkpt lat="56.063057" lon="26.498003">
<ele>113.856506</ele>
<time>2010-06-20T11:08:20Z</time>
<desc>lat.=56.063057, lon.=26.498003, Alt.=113.856506m. Speed=14.076000m/h.</desc>
<speed>3.910000</speed>
</trkpt>
<trkpt lat="56.063080" lon="26.498062">
<ele>114.379944</ele>
<time>2010-06-20T11:08:21Z</time>
<desc>lat.=56.063080, lon.=26.498062, Alt.=114.379944m. Speed=14.904000m/h.</desc>
<speed>4.140000</speed>
</trkpt>
<trkpt lat="56.063099" lon="26.498129">
<ele>114.809631</ele>
<time>2010-06-20T11:08:22Z</time>
<desc>lat.=56.063099, lon.=26.498129, Alt.=114.809631m. Speed=15.156000m/h.</desc>
<speed>4.210000</speed>
</trkpt>
<trkpt lat="56.063114" lon="26.498196">
<ele>115.540100</ele>
<time>2010-06-20T11:08:23Z</time>
<desc>lat.=56.063114, lon.=26.498196, Alt.=115.540100m. Speed=16.200001m/h.</desc>
<speed>4.500000</speed>
</trkpt>
<trkpt lat="56.063129" lon="26.498260">
<ele>115.876038</ele>
<time>2010-06-20T11:08:24Z</time>
<desc>lat.=56.063129, lon.=26.498260, Alt.=115.876038m. Speed=16.955999m/h.</desc>
<speed>4.710000</speed>
</trkpt>
<trkpt lat="56.063145" lon="26.498348">
<ele>116.965881</ele>
<time>2010-06-20T11:08:25Z</time>
<desc>lat.=56.063145, lon.=26.498348, Alt.=116.965881m. Speed=18.323999m/h.</desc>
<speed>5.090000</speed>
</trkpt>
<trkpt lat="56.063164" lon="26.498438">
<ele>116.489319</ele>
<time>2010-06-20T11:08:26Z</time>
<desc>lat.=56.063164, lon.=26.498438, Alt.=116.489319m. Speed=20.664000m/h.</desc>
<speed>5.740000</speed>
</trkpt>
<trkpt lat="56.063190" lon="26.498529">
<ele>116.196350</ele>
<time>2010-06-20T11:08:27Z</time>
<desc>lat.=56.063190, lon.=26.498529, Alt.=116.196350m. Speed=22.032000m/h.</desc>
<speed>6.120000</speed>
</trkpt>
<trkpt lat="56.063213" lon="26.498619">
<ele>115.961975</ele>
<time>2010-06-20T11:08:28Z</time>
<desc>lat.=56.063213, lon.=26.498619, Alt.=115.961975m. Speed=23.364000m/h.</desc>
<speed>6.490000</speed>
</trkpt>
<trkpt lat="56.063236" lon="26.498718">
<ele>115.588928</ele>
<time>2010-06-20T11:08:29Z</time>
<desc>lat.=56.063236, lon.=26.498718, Alt.=115.588928m. Speed=24.120001m/h.</desc>
<speed>6.700000</speed>
</trkpt>
<trkpt lat="56.063263" lon="26.498827">
<ele>115.495178</ele>
<time>2010-06-20T11:08:30Z</time>
<desc>lat.=56.063263, lon.=26.498827, Alt.=115.495178m. Speed=24.372000m/h.</desc>
<speed>6.770000</speed>
</trkpt>
<trkpt lat="56.063293" lon="26.498928">
<ele>115.647522</ele>
<time>2010-06-20T11:08:31Z</time>
<desc>lat.=56.063293, lon.=26.498928, Alt.=115.647522m. Speed=24.299999m/h.</desc>
<speed>6.750000</speed>
</trkpt>
<trkpt lat="56.063316" lon="26.499029">
<ele>115.190491</ele>
<time>2010-06-20T11:08:32Z</time>
<desc>lat.=56.063316, lon.=26.499029, Alt.=115.190491m. Speed=24.191999m/h.</desc>
<speed>6.720000</speed>
</trkpt>
<trkpt lat="56.063335" lon="26.499125">
<ele>114.711975</ele>
<time>2010-06-20T11:08:33Z</time>
<desc>lat.=56.063335, lon.=26.499125, Alt.=114.711975m. Speed=23.724001m/h.</desc>
<speed>6.590000</speed>
</trkpt>
<trkpt lat="56.063358" lon="26.499229">
<ele>114.915100</ele>
<time>2010-06-20T11:08:34Z</time>
<desc>lat.=56.063358, lon.=26.499229, Alt.=114.915100m. Speed=23.076000m/h.</desc>
<speed>6.410000</speed>
</trkpt>
<trkpt lat="56.063385" lon="26.499325">
<ele>114.899475</ele>
<time>2010-06-20T11:08:35Z</time>
<desc>lat.=56.063385, lon.=26.499325, Alt.=114.899475m. Speed=22.032000m/h.</desc>
<speed>6.120000</speed>
</trkpt>
<trkpt lat="56.063412" lon="26.499413">
<ele>114.616272</ele>
<time>2010-06-20T11:08:36Z</time>
<desc>lat.=56.063412, lon.=26.499413, Alt.=114.616272m. Speed=21.167999m/h.</desc>
<speed>5.880000</speed>
</trkpt>
<trkpt lat="56.063438" lon="26.499493">
<ele>114.502991</ele>
<time>2010-06-20T11:08:37Z</time>
<desc>lat.=56.063438, lon.=26.499493, Alt.=114.502991m. Speed=19.548000m/h.</desc>
<speed>5.430000</speed>
</trkpt>
<trkpt lat="56.063465" lon="26.499561">
<ele>114.510803</ele>
<time>2010-06-20T11:08:38Z</time>
<desc>lat.=56.063465, lon.=26.499561, Alt.=114.510803m. Speed=18.288000m/h.</desc>
<speed>5.080000</speed>
</trkpt>
<trkpt lat="56.063488" lon="26.499620">
<ele>114.598694</ele>
<time>2010-06-20T11:08:39Z</time>
<desc>lat.=56.063488, lon.=26.499620, Alt.=114.598694m. Speed=17.028000m/h.</desc>
<speed>4.730000</speed>
</trkpt>
<trkpt lat="56.063511" lon="26.499678">
<ele>114.647522</ele>
<time>2010-06-20T11:08:40Z</time>
<desc>lat.=56.063511, lon.=26.499678, Alt.=114.647522m. Speed=15.372000m/h.</desc>
<speed>4.270000</speed>
</trkpt>
<trkpt lat="56.063534" lon="26.499733">
<ele>114.864319</ele>
<time>2010-06-20T11:08:41Z</time>
<desc>lat.=56.063534, lon.=26.499733, Alt.=114.864319m. Speed=13.968000m/h.</desc>
<speed>3.880000</speed>
</trkpt>
<trkpt lat="56.063553" lon="26.499783">
<ele>114.899475</ele>
<time>2010-06-20T11:08:42Z</time>
<desc>lat.=56.063553, lon.=26.499783, Alt.=114.899475m. Speed=12.564000m/h.</desc>
<speed>3.490000</speed>
</trkpt>
<trkpt lat="56.063564" lon="26.499823">
<ele>114.131897</ele>
<time>2010-06-20T11:08:43Z</time>
<desc>lat.=56.063564, lon.=26.499823, Alt.=114.131897m. Speed=10.332000m/h.</desc>
<speed>2.870000</speed>
</trkpt>
<trkpt lat="56.063576" lon="26.499861">
<ele>112.028381</ele>
<time>2010-06-20T11:08:44Z</time>
<desc>lat.=56.063576, lon.=26.499861, Alt.=112.028381m. Speed=9.324000m/h.</desc>
<speed>2.590000</speed>
</trkpt>
<trkpt lat="56.063587" lon="26.499901">
<ele>111.438538</ele>
<time>2010-06-20T11:08:45Z</time>
<desc>lat.=56.063587, lon.=26.499901, Alt.=111.438538m. Speed=10.008000m/h.</desc>
<speed>2.780000</speed>
</trkpt>
<trkpt lat="56.063602" lon="26.499933">
<ele>111.770569</ele>
<time>2010-06-20T11:08:46Z</time>
<desc>lat.=56.063602, lon.=26.499933, Alt.=111.770569m. Speed=10.224000m/h.</desc>
<speed>2.840000</speed>
</trkpt>
<trkpt lat="56.063618" lon="26.499971">
<ele>111.422913</ele>
<time>2010-06-20T11:08:47Z</time>
<desc>lat.=56.063618, lon.=26.499971, Alt.=111.422913m. Speed=11.088000m/h.</desc>
<speed>3.080000</speed>
</trkpt>
<trkpt lat="56.063633" lon="26.500008">
<ele>111.977600</ele>
<time>2010-06-20T11:08:48Z</time>
<desc>lat.=56.063633, lon.=26.500008, Alt.=111.977600m. Speed=10.980000m/h.</desc>
<speed>3.050000</speed>
</trkpt>
<trkpt lat="56.063648" lon="26.500046">
<ele>112.387756</ele>
<time>2010-06-20T11:08:49Z</time>
<desc>lat.=56.063648, lon.=26.500046, Alt.=112.387756m. Speed=11.160000m/h.</desc>
<speed>3.100000</speed>
</trkpt>
<trkpt lat="56.063667" lon="26.500078">
<ele>113.061584</ele>
<time>2010-06-20T11:08:50Z</time>
<desc>lat.=56.063667, lon.=26.500078, Alt.=113.061584m. Speed=10.656000m/h.</desc>
<speed>2.960000</speed>
</trkpt>
<trkpt lat="56.063686" lon="26.500111">
<ele>112.821350</ele>
<time>2010-06-20T11:08:51Z</time>
<desc>lat.=56.063686, lon.=26.500111, Alt.=112.821350m. Speed=10.188000m/h.</desc>
<speed>2.830000</speed>
</trkpt>
<trkpt lat="56.063702" lon="26.500141">
<ele>112.905334</ele>
<time>2010-06-20T11:08:52Z</time>
<desc>lat.=56.063702, lon.=26.500141, Alt.=112.905334m. Speed=9.612000m/h.</desc>
<speed>2.670000</speed>
</trkpt>
<trkpt lat="56.063713" lon="26.500177">
<ele>112.553772</ele>
<time>2010-06-20T11:08:53Z</time>
<desc>lat.=56.063713, lon.=26.500177, Alt.=112.553772m. Speed=9.252000m/h.</desc>
<speed>2.570000</speed>
</trkpt>
<trkpt lat="56.063709" lon="26.500217">
<ele>110.901428</ele>
<time>2010-06-20T11:08:54Z</time>
<desc>lat.=56.063709, lon.=26.500217, Alt.=110.901428m. Speed=9.540000m/h.</desc>
<speed>2.650000</speed>
</trkpt>
<trkpt lat="56.063725" lon="26.500250">
<ele>111.752991</ele>
<time>2010-06-20T11:08:55Z</time>
<desc>lat.=56.063725, lon.=26.500250, Alt.=111.752991m. Speed=9.864000m/h.</desc>
<speed>2.740000</speed>
</trkpt>
<trkpt lat="56.063740" lon="26.500286">
<ele>112.051819</ele>
<time>2010-06-20T11:08:56Z</time>
<desc>lat.=56.063740, lon.=26.500286, Alt.=112.051819m. Speed=10.152000m/h.</desc>
<speed>2.820000</speed>
</trkpt>
<trkpt lat="56.063759" lon="26.500322">
<ele>112.213928</ele>
<time>2010-06-20T11:08:57Z</time>
<desc>lat.=56.063759, lon.=26.500322, Alt.=112.213928m. Speed=10.440000m/h.</desc>
<speed>2.900000</speed>
</trkpt>
<trkpt lat="56.063774" lon="26.500359">
<ele>112.071350</ele>
<time>2010-06-20T11:08:58Z</time>
<desc>lat.=56.063774, lon.=26.500359, Alt.=112.071350m. Speed=9.864000m/h.</desc>
<speed>2.740000</speed>
</trkpt>
<trkpt lat="56.063789" lon="26.500397">
<ele>112.036194</ele>
<time>2010-06-20T11:08:59Z</time>
<desc>lat.=56.063789, lon.=26.500397, Alt.=112.036194m. Speed=10.404000m/h.</desc>
<speed>2.890000</speed>
</trkpt>
<trkpt lat="56.063808" lon="26.500431">
<ele>111.770569</ele>
<time>2010-06-20T11:09:00Z</time>
<desc>lat.=56.063808, lon.=26.500431, Alt.=111.770569m. Speed=10.836000m/h.</desc>
<speed>3.010000</speed>
</trkpt>
<trkpt lat="56.063824" lon="26.500467">
<ele>111.635803</ele>
<time>2010-06-20T11:09:01Z</time>
<desc>lat.=56.063824, lon.=26.500467, Alt.=111.635803m. Speed=11.124000m/h.</desc>
<speed>3.090000</speed>
</trkpt>
<trkpt lat="56.063843" lon="26.500507">
<ele>111.514709</ele>
<time>2010-06-20T11:09:02Z</time>
<desc>lat.=56.063843, lon.=26.500507, Alt.=111.514709m. Speed=11.628000m/h.</desc>
<speed>3.230000</speed>
</trkpt>
<trkpt lat="56.063862" lon="26.500547">
<ele>110.977600</ele>
<time>2010-06-20T11:09:03Z</time>
<desc>lat.=56.063862, lon.=26.500547, Alt.=110.977600m. Speed=12.636000m/h.</desc>
<speed>3.510000</speed>
</trkpt>
<trkpt lat="56.063881" lon="26.500595">
<ele>110.973694</ele>
<time>2010-06-20T11:09:04Z</time>
<desc>lat.=56.063881, lon.=26.500595, Alt.=110.973694m. Speed=12.744000m/h.</desc>
<speed>3.540000</speed>
</trkpt>
<trkpt lat="56.063900" lon="26.500648">
<ele>111.108459</ele>
<time>2010-06-20T11:09:05Z</time>
<desc>lat.=56.063900, lon.=26.500648, Alt.=111.108459m. Speed=13.392000m/h.</desc>
<speed>3.720000</speed>
</trkpt>
<trkpt lat="56.063919" lon="26.500696">
<ele>111.229553</ele>
<time>2010-06-20T11:09:06Z</time>
<desc>lat.=56.063919, lon.=26.500696, Alt.=111.229553m. Speed=12.924000m/h.</desc>
<speed>3.590000</speed>
</trkpt>
<trkpt lat="56.063938" lon="26.500738">
<ele>111.444397</ele>
<time>2010-06-20T11:09:07Z</time>
<desc>lat.=56.063938, lon.=26.500738, Alt.=111.444397m. Speed=12.168000m/h.</desc>
<speed>3.380000</speed>
</trkpt>
<trkpt lat="56.063961" lon="26.500780">
<ele>111.436584</ele>
<time>2010-06-20T11:09:08Z</time>
<desc>lat.=56.063961, lon.=26.500780, Alt.=111.436584m. Speed=11.916000m/h.</desc>
<speed>3.310000</speed>
</trkpt>
<trkpt lat="56.063984" lon="26.500820">
<ele>111.737366</ele>
<time>2010-06-20T11:09:09Z</time>
<desc>lat.=56.063984, lon.=26.500820, Alt.=111.737366m. Speed=12.384000m/h.</desc>
<speed>3.440000</speed>
</trkpt>
<trkpt lat="56.064003" lon="26.500866">
<ele>111.956116</ele>
<time>2010-06-20T11:09:10Z</time>
<desc>lat.=56.064003, lon.=26.500866, Alt.=111.956116m. Speed=12.996000m/h.</desc>
<speed>3.610000</speed>
</trkpt>
<trkpt lat="56.064026" lon="26.500914">
<ele>112.604553</ele>
<time>2010-06-20T11:09:11Z</time>
<desc>lat.=56.064026, lon.=26.500914, Alt.=112.604553m. Speed=12.420000m/h.</desc>
<speed>3.450000</speed>
</trkpt>
<trkpt lat="56.064045" lon="26.500950">
<ele>112.985413</ele>
<time>2010-06-20T11:09:12Z</time>
<desc>lat.=56.064045, lon.=26.500950, Alt.=112.985413m. Speed=11.268000m/h.</desc>
<speed>3.130000</speed>
</trkpt>
<trkpt lat="56.064064" lon="26.500988">
<ele>113.104553</ele>
<time>2010-06-20T11:09:13Z</time>
<desc>lat.=56.064064, lon.=26.500988, Alt.=113.104553m. Speed=11.448000m/h.</desc>
<speed>3.180000</speed>
</trkpt>
<trkpt lat="56.064083" lon="26.501032">
<ele>112.922913</ele>
<time>2010-06-20T11:09:14Z</time>
<desc>lat.=56.064083, lon.=26.501032, Alt.=112.922913m. Speed=11.988000m/h.</desc>
<speed>3.330000</speed>
</trkpt>
<trkpt lat="56.064102" lon="26.501072">
<ele>112.823303</ele>
<time>2010-06-20T11:09:15Z</time>
<desc>lat.=56.064102, lon.=26.501072, Alt.=112.823303m. Speed=12.456000m/h.</desc>
<speed>3.460000</speed>
</trkpt>
<trkpt lat="56.064121" lon="26.501114">
<ele>112.819397</ele>
<time>2010-06-20T11:09:16Z</time>
<desc>lat.=56.064121, lon.=26.501114, Alt.=112.819397m. Speed=12.852000m/h.</desc>
<speed>3.570000</speed>
</trkpt>
<trkpt lat="56.064144" lon="26.501160">
<ele>112.739319</ele>
<time>2010-06-20T11:09:17Z</time>
<desc>lat.=56.064144, lon.=26.501160, Alt.=112.739319m. Speed=12.960000m/h.</desc>
<speed>3.600000</speed>
</trkpt>
<trkpt lat="56.064163" lon="26.501205">
<ele>112.864319</ele>
<time>2010-06-20T11:09:18Z</time>
<desc>lat.=56.064163, lon.=26.501205, Alt.=112.864319m. Speed=13.212000m/h.</desc>
<speed>3.670000</speed>
</trkpt>
<trkpt lat="56.064182" lon="26.501251">
<ele>113.067444</ele>
<time>2010-06-20T11:09:19Z</time>
<desc>lat.=56.064182, lon.=26.501251, Alt.=113.067444m. Speed=13.320000m/h.</desc>
<speed>3.700000</speed>
</trkpt>
<trkpt lat="56.064205" lon="26.501291">
<ele>113.186584</ele>
<time>2010-06-20T11:09:20Z</time>
<desc>lat.=56.064205, lon.=26.501291, Alt.=113.186584m. Speed=11.844000m/h.</desc>
<speed>3.290000</speed>
</trkpt>
<trkpt lat="56.064224" lon="26.501331">
<ele>113.278381</ele>
<time>2010-06-20T11:09:21Z</time>
<desc>lat.=56.064224, lon.=26.501331, Alt.=113.278381m. Speed=12.492000m/h.</desc>
<speed>3.470000</speed>
</trkpt>
<trkpt lat="56.064243" lon="26.501379">
<ele>113.081116</ele>
<time>2010-06-20T11:09:22Z</time>
<desc>lat.=56.064243, lon.=26.501379, Alt.=113.081116m. Speed=13.716000m/h.</desc>
<speed>3.810000</speed>
</trkpt>
<trkpt lat="56.064266" lon="26.501427">
<ele>113.204163</ele>
<time>2010-06-20T11:09:23Z</time>
<desc>lat.=56.064266, lon.=26.501427, Alt.=113.204163m. Speed=12.888000m/h.</desc>
<speed>3.580000</speed>
</trkpt>
<trkpt lat="56.064285" lon="26.501471">
<ele>113.256897</ele>
<time>2010-06-20T11:09:24Z</time>
<desc>lat.=56.064285, lon.=26.501471, Alt.=113.256897m. Speed=12.960000m/h.</desc>
<speed>3.600000</speed>
</trkpt>
<trkpt lat="56.064301" lon="26.501518">
<ele>113.577209</ele>
<time>2010-06-20T11:09:25Z</time>
<desc>lat.=56.064301, lon.=26.501518, Alt.=113.577209m. Speed=11.052000m/h.</desc>
<speed>3.070000</speed>
</trkpt>
<trkpt lat="56.064323" lon="26.501568">
<ele>113.409241</ele>
<time>2010-06-20T11:09:26Z</time>
<desc>lat.=56.064323, lon.=26.501568, Alt.=113.409241m. Speed=13.176000m/h.</desc>
<speed>3.660000</speed>
</trkpt>
<trkpt lat="56.064342" lon="26.501617">
<ele>113.544006</ele>
<time>2010-06-20T11:09:27Z</time>
<desc>lat.=56.064342, lon.=26.501617, Alt.=113.544006m. Speed=14.508000m/h.</desc>
<speed>4.030000</speed>
</trkpt>
<trkpt lat="56.064365" lon="26.501667">
<ele>113.627991</ele>
<time>2010-06-20T11:09:28Z</time>
<desc>lat.=56.064365, lon.=26.501667, Alt.=113.627991m. Speed=12.672000m/h.</desc>
<speed>3.520000</speed>
</trkpt>
<trkpt lat="56.064392" lon="26.501717">
<ele>114.165100</ele>
<time>2010-06-20T11:09:29Z</time>
<desc>lat.=56.064392, lon.=26.501717, Alt.=114.165100m. Speed=13.896000m/h.</desc>
<speed>3.860000</speed>
</trkpt>
<trkpt lat="56.064419" lon="26.501770">
<ele>114.577209</ele>
<time>2010-06-20T11:09:30Z</time>
<desc>lat.=56.064419, lon.=26.501770, Alt.=114.577209m. Speed=13.716000m/h.</desc>
<speed>3.810000</speed>
</trkpt>
<trkpt lat="56.064434" lon="26.501823">
<ele>114.036194</ele>
<time>2010-06-20T11:09:31Z</time>
<desc>lat.=56.064434, lon.=26.501823, Alt.=114.036194m. Speed=11.448000m/h.</desc>
<speed>3.180000</speed>
</trkpt>
<trkpt lat="56.064453" lon="26.501862">
<ele>114.278381</ele>
<time>2010-06-20T11:09:32Z</time>
<desc>lat.=56.064453, lon.=26.501862, Alt.=114.278381m. Speed=11.484000m/h.</desc>
<speed>3.190000</speed>
</trkpt>
<trkpt lat="56.064472" lon="26.501904">
<ele>114.006897</ele>
<time>2010-06-20T11:09:33Z</time>
<desc>lat.=56.064472, lon.=26.501904, Alt.=114.006897m. Speed=13.176000m/h.</desc>
<speed>3.660000</speed>
</trkpt>
<trkpt lat="56.064491" lon="26.501951">
<ele>114.190491</ele>
<time>2010-06-20T11:09:34Z</time>
<desc>lat.=56.064491, lon.=26.501951, Alt.=114.190491m. Speed=11.772000m/h.</desc>
<speed>3.270000</speed>
</trkpt>
<trkpt lat="56.064522" lon="26.502001">
<ele>113.885803</ele>
<time>2010-06-20T11:09:35Z</time>
<desc>lat.=56.064522, lon.=26.502001, Alt.=113.885803m. Speed=12.960000m/h.</desc>
<speed>3.600000</speed>
</trkpt>
<trkpt lat="56.064537" lon="26.502047">
<ele>113.721741</ele>
<time>2010-06-20T11:09:36Z</time>
<desc>lat.=56.064537, lon.=26.502047, Alt.=113.721741m. Speed=11.484000m/h.</desc>
<speed>3.190000</speed>
</trkpt>
<trkpt lat="56.064552" lon="26.502090">
<ele>112.836975</ele>
<time>2010-06-20T11:09:37Z</time>
<desc>lat.=56.064552, lon.=26.502090, Alt.=112.836975m. Speed=11.592000m/h.</desc>
<speed>3.220000</speed>
</trkpt>
<trkpt lat="56.064568" lon="26.502138">
<ele>111.985413</ele>
<time>2010-06-20T11:09:38Z</time>
<desc>lat.=56.064568, lon.=26.502138, Alt.=111.985413m. Speed=12.852000m/h.</desc>
<speed>3.570000</speed>
</trkpt>
<trkpt lat="56.064583" lon="26.502199">
<ele>110.877991</ele>
<time>2010-06-20T11:09:39Z</time>
<desc>lat.=56.064583, lon.=26.502199, Alt.=110.877991m. Speed=15.012000m/h.</desc>
<speed>4.170000</speed>
</trkpt>
<trkpt lat="56.064598" lon="26.502254">
<ele>109.999084</ele>
<time>2010-06-20T11:09:40Z</time>
<desc>lat.=56.064598, lon.=26.502254, Alt.=109.999084m. Speed=14.436000m/h.</desc>
<speed>4.010000</speed>
</trkpt>
<trkpt lat="56.064613" lon="26.502321">
<ele>107.928772</ele>
<time>2010-06-20T11:09:41Z</time>
<desc>lat.=56.064613, lon.=26.502321, Alt.=107.928772m. Speed=13.896000m/h.</desc>
<speed>3.860000</speed>
</trkpt>
<trkpt lat="56.064636" lon="26.502375">
<ele>107.585022</ele>
<time>2010-06-20T11:09:42Z</time>
<desc>lat.=56.064636, lon.=26.502375, Alt.=107.585022m. Speed=12.420000m/h.</desc>
<speed>3.450000</speed>
</trkpt>
<trkpt lat="56.064651" lon="26.502426">
<ele>107.653381</ele>
<time>2010-06-20T11:09:43Z</time>
<desc>lat.=56.064651, lon.=26.502426, Alt.=107.653381m. Speed=12.456000m/h.</desc>
<speed>3.460000</speed>
</trkpt>
<trkpt lat="56.064667" lon="26.502489">
<ele>107.901428</ele>
<time>2010-06-20T11:09:44Z</time>
<desc>lat.=56.064667, lon.=26.502489, Alt.=107.901428m. Speed=12.312000m/h.</desc>
<speed>3.420000</speed>
</trkpt>
<trkpt lat="56.064686" lon="26.502537">
<ele>107.454163</ele>
<time>2010-06-20T11:09:45Z</time>
<desc>lat.=56.064686, lon.=26.502537, Alt.=107.454163m. Speed=12.204000m/h.</desc>
<speed>3.390000</speed>
</trkpt>
<trkpt lat="56.064693" lon="26.502592">
<ele>107.686584</ele>
<time>2010-06-20T11:09:46Z</time>
<desc>lat.=56.064693, lon.=26.502592, Alt.=107.686584m. Speed=12.168000m/h.</desc>
<speed>3.380000</speed>
</trkpt>
<trkpt lat="56.064693" lon="26.502651">
<ele>106.336975</ele>
<time>2010-06-20T11:09:47Z</time>
<desc>lat.=56.064693, lon.=26.502651, Alt.=106.336975m. Speed=13.608000m/h.</desc>
<speed>3.780000</speed>
</trkpt>
<trkpt lat="56.064686" lon="26.502714">
<ele>105.450256</ele>
<time>2010-06-20T11:09:48Z</time>
<desc>lat.=56.064686, lon.=26.502714, Alt.=105.450256m. Speed=15.732000m/h.</desc>
<speed>4.370000</speed>
</trkpt>
<trkpt lat="56.064671" lon="26.502789">
<ele>105.276428</ele>
<time>2010-06-20T11:09:49Z</time>
<desc>lat.=56.064671, lon.=26.502789, Alt.=105.276428m. Speed=17.532000m/h.</desc>
<speed>4.870000</speed>
</trkpt>
<trkpt lat="56.064644" lon="26.502853">
<ele>104.821350</ele>
<time>2010-06-20T11:09:50Z</time>
<desc>lat.=56.064644, lon.=26.502853, Alt.=104.821350m. Speed=17.604000m/h.</desc>
<speed>4.890000</speed>
</trkpt>
<trkpt lat="56.064606" lon="26.502907">
<ele>104.504944</ele>
<time>2010-06-20T11:09:51Z</time>
<desc>lat.=56.064606, lon.=26.502907, Alt.=104.504944m. Speed=17.747999m/h.</desc>
<speed>4.930000</speed>
</trkpt>
<trkpt lat="56.064560" lon="26.502949">
<ele>104.344788</ele>
<time>2010-06-20T11:09:52Z</time>
<desc>lat.=56.064560, lon.=26.502949, Alt.=104.344788m. Speed=18.035999m/h.</desc>
<speed>5.010000</speed>
</trkpt>
<trkpt lat="56.064514" lon="26.502985">
<ele>104.147522</ele>
<time>2010-06-20T11:09:53Z</time>
<desc>lat.=56.064514, lon.=26.502985, Alt.=104.147522m. Speed=18.180000m/h.</desc>
<speed>5.050000</speed>
</trkpt>
<trkpt lat="56.064468" lon="26.503019">
<ele>104.196350</ele>
<time>2010-06-20T11:09:54Z</time>
<desc>lat.=56.064468, lon.=26.503019, Alt.=104.196350m. Speed=18.000000m/h.</desc>
<speed>5.000000</speed>
</trkpt>
<trkpt lat="56.064430" lon="26.503052">
<ele>104.391663</ele>
<time>2010-06-20T11:09:55Z</time>
<desc>lat.=56.064430, lon.=26.503052, Alt.=104.391663m. Speed=17.496000m/h.</desc>
<speed>4.860000</speed>
</trkpt>
<trkpt lat="56.064392" lon="26.503084">
<ele>104.788147</ele>
<time>2010-06-20T11:09:56Z</time>
<desc>lat.=56.064392, lon.=26.503084, Alt.=104.788147m. Speed=17.028000m/h.</desc>
<speed>4.730000</speed>
</trkpt>
<trkpt lat="56.064354" lon="26.503113">
<ele>105.278381</ele>
<time>2010-06-20T11:09:57Z</time>
<desc>lat.=56.064354, lon.=26.503113, Alt.=105.278381m. Speed=16.740000m/h.</desc>
<speed>4.650000</speed>
</trkpt>
<trkpt lat="56.064316" lon="26.503138">
<ele>105.520569</ele>
<time>2010-06-20T11:09:58Z</time>
<desc>lat.=56.064316, lon.=26.503138, Alt.=105.520569m. Speed=16.200001m/h.</desc>
<speed>4.500000</speed>
</trkpt>
<trkpt lat="56.064278" lon="26.503159">
<ele>105.702209</ele>
<time>2010-06-20T11:09:59Z</time>
<desc>lat.=56.064278, lon.=26.503159, Alt.=105.702209m. Speed=15.408000m/h.</desc>
<speed>4.280000</speed>
</trkpt>
<trkpt lat="56.064243" lon="26.503178">
<ele>105.797913</ele>
<time>2010-06-20T11:10:00Z</time>
<desc>lat.=56.064243, lon.=26.503178, Alt.=105.797913m. Speed=14.652000m/h.</desc>
<speed>4.070000</speed>
</trkpt>
<trkpt lat="56.064209" lon="26.503199">
<ele>105.950256</ele>
<time>2010-06-20T11:10:01Z</time>
<desc>lat.=56.064209, lon.=26.503199, Alt.=105.950256m. Speed=13.896000m/h.</desc>
<speed>3.860000</speed>
</trkpt>
<trkpt lat="56.064175" lon="26.503220">
<ele>105.733459</ele>
<time>2010-06-20T11:10:02Z</time>
<desc>lat.=56.064175, lon.=26.503220, Alt.=105.733459m. Speed=12.780000m/h.</desc>
<speed>3.550000</speed>
</trkpt>
<trkpt lat="56.064144" lon="26.503235">
<ele>105.739319</ele>
<time>2010-06-20T11:10:03Z</time>
<desc>lat.=56.064144, lon.=26.503235, Alt.=105.739319m. Speed=12.240000m/h.</desc>
<speed>3.400000</speed>
</trkpt>
<trkpt lat="56.064117" lon="26.503252">
<ele>105.643616</ele>
<time>2010-06-20T11:10:04Z</time>
<desc>lat.=56.064117, lon.=26.503252, Alt.=105.643616m. Speed=11.448000m/h.</desc>
<speed>3.180000</speed>
</trkpt>
<trkpt lat="56.064087" lon="26.503267">
<ele>105.598694</ele>
<time>2010-06-20T11:10:05Z</time>
<desc>lat.=56.064087, lon.=26.503267, Alt.=105.598694m. Speed=10.836000m/h.</desc>
<speed>3.010000</speed>
</trkpt>
<trkpt lat="56.064060" lon="26.503279">
<ele>105.631897</ele>
<time>2010-06-20T11:10:06Z</time>
<desc>lat.=56.064060, lon.=26.503279, Alt.=105.631897m. Speed=10.224000m/h.</desc>
<speed>2.840000</speed>
</trkpt>
<trkpt lat="56.064037" lon="26.503290">
<ele>105.657288</ele>
<time>2010-06-20T11:10:07Z</time>
<desc>lat.=56.064037, lon.=26.503290, Alt.=105.657288m. Speed=9.720000m/h.</desc>
<speed>2.700000</speed>
</trkpt>
<trkpt lat="56.064014" lon="26.503300">
<ele>105.614319</ele>
<time>2010-06-20T11:10:08Z</time>
<desc>lat.=56.064014, lon.=26.503300, Alt.=105.614319m. Speed=9.180000m/h.</desc>
<speed>2.550000</speed>
</trkpt>
<trkpt lat="56.063992" lon="26.503309">
<ele>105.458069</ele>
<time>2010-06-20T11:10:09Z</time>
<desc>lat.=56.063992, lon.=26.503309, Alt.=105.458069m. Speed=8.604000m/h.</desc>
<speed>2.390000</speed>
</trkpt>
<trkpt lat="56.063969" lon="26.503321">
<ele>105.430725</ele>
<time>2010-06-20T11:10:10Z</time>
<desc>lat.=56.063969, lon.=26.503321, Alt.=105.430725m. Speed=8.208000m/h.</desc>
<speed>2.280000</speed>
</trkpt>
<trkpt lat="56.063953" lon="26.503330">
<ele>105.454163</ele>
<time>2010-06-20T11:10:11Z</time>
<desc>lat.=56.063953, lon.=26.503330, Alt.=105.454163m. Speed=7.632000m/h.</desc>
<speed>2.120000</speed>
</trkpt>
<trkpt lat="56.063938" lon="26.503340">
<ele>105.545959</ele>
<time>2010-06-20T11:10:12Z</time>
<desc>lat.=56.063938, lon.=26.503340, Alt.=105.545959m. Speed=6.912000m/h.</desc>
<speed>1.920000</speed>
</trkpt>
<trkpt lat="56.063923" lon="26.503349">
<ele>105.559631</ele>
<time>2010-06-20T11:10:13Z</time>
<desc>lat.=56.063923, lon.=26.503349, Alt.=105.559631m. Speed=4.068000m/h.</desc>
<speed>1.130000</speed>
</trkpt>
<trkpt lat="56.063919" lon="26.503357">
<ele>105.665100</ele>
<time>2010-06-20T11:10:14Z</time>
<desc>lat.=56.063919, lon.=26.503357, Alt.=105.665100m. Speed=1.116000m/h.</desc>
<speed>0.310000</speed>
</trkpt>
<trkpt lat="56.063919" lon="26.503359">
<ele>105.905334</ele>
<time>2010-06-20T11:10:15Z</time>
<desc>lat.=56.063919, lon.=26.503359, Alt.=105.905334m. Speed=0.612000m/h.</desc>
<speed>0.170000</speed>
</trkpt>
<trkpt lat="56.063919" lon="26.503363">
<ele>106.098694</ele>
<time>2010-06-20T11:10:16Z</time>
<desc>lat.=56.063919, lon.=26.503363, Alt.=106.098694m. Speed=0.432000m/h.</desc>
<speed>0.120000</speed>
</trkpt>
<trkpt lat="56.063923" lon="26.503372">
<ele>106.155334</ele>
<time>2010-06-20T11:10:17Z</time>
<desc>lat.=56.063923, lon.=26.503372, Alt.=106.155334m. Speed=0.792000m/h.</desc>
<speed>0.220000</speed>
</trkpt>
<trkpt lat="56.063923" lon="26.503376">
<ele>106.235413</ele>
<time>2010-06-20T11:10:18Z</time>
<desc>lat.=56.063923, lon.=26.503376, Alt.=106.235413m. Speed=0.756000m/h.</desc>
<speed>0.210000</speed>
</trkpt>
<trkpt lat="56.063919" lon="26.503380">
<ele>106.305725</ele>
<time>2010-06-20T11:10:19Z</time>
<desc>lat.=56.063919, lon.=26.503380, Alt.=106.305725m. Speed=1.116000m/h.</desc>
<speed>0.310000</speed>
</trkpt>
<trkpt lat="56.063919" lon="26.503382">
<ele>106.358459</ele>
<time>2010-06-20T11:10:20Z</time>
<desc>lat.=56.063919, lon.=26.503382, Alt.=106.358459m. Speed=0.396000m/h.</desc>
<speed>0.110000</speed>
</trkpt>
<trkpt lat="56.063919" lon="26.503384">
<ele>106.407288</ele>
<time>2010-06-20T11:10:21Z</time>
<desc>lat.=56.063919, lon.=26.503384, Alt.=106.407288m. Speed=1.008000m/h.</desc>
<speed>0.280000</speed>
</trkpt>
<trkpt lat="56.063915" lon="26.503387">
<ele>106.407288</ele>
<time>2010-06-20T11:10:22Z</time>
<desc>lat.=56.063915, lon.=26.503387, Alt.=106.407288m. Speed=0.468000m/h.</desc>
<speed>0.130000</speed>
</trkpt>
<trkpt lat="56.063915" lon="26.503389">
<ele>106.440491</ele>
<time>2010-06-20T11:10:23Z</time>
<desc>lat.=56.063915, lon.=26.503389, Alt.=106.440491m. Speed=0.144000m/h.</desc>
<speed>0.040000</speed>
</trkpt>
<trkpt lat="56.063915" lon="26.503389">
<ele>106.434631</ele>
<time>2010-06-20T11:10:24Z</time>
<desc>lat.=56.063915, lon.=26.503389, Alt.=106.434631m. Speed=0.324000m/h.</desc>
<speed>0.090000</speed>
</trkpt>
<trkpt lat="56.063915" lon="26.503389">
<ele>106.420959</ele>
<time>2010-06-20T11:10:25Z</time>
<desc>lat.=56.063915, lon.=26.503389, Alt.=106.420959m. Speed=0.792000m/h.</desc>
<speed>0.220000</speed>
</trkpt>
<trkpt lat="56.063911" lon="26.503393">
<ele>106.405334</ele>
<time>2010-06-20T11:10:26Z</time>
<desc>lat.=56.063911, lon.=26.503393, Alt.=106.405334m. Speed=0.036000m/h.</desc>
<speed>0.010000</speed>
</trkpt>
<trkpt lat="56.063911" lon="26.503393">
<ele>106.407288</ele>
<time>2010-06-20T11:10:27Z</time>
<desc>lat.=56.063911, lon.=26.503393, Alt.=106.407288m. Speed=0.072000m/h.</desc>
<speed>0.020000</speed>
</trkpt>
<trkpt lat="56.063911" lon="26.503393">
<ele>106.417053</ele>
<time>2010-06-20T11:10:28Z</time>
<desc>lat.=56.063911, lon.=26.503393, Alt.=106.417053m. Speed=0.036000m/h.</desc>
<speed>0.010000</speed>
</trkpt>
<trkpt lat="56.063911" lon="26.503393">
<ele>106.411194</ele>
<time>2010-06-20T11:10:29Z</time>
<desc>lat.=56.063911, lon.=26.503393, Alt.=106.411194m. Speed=0.072000m/h.</desc>
<speed>0.020000</speed>
</trkpt>
<trkpt lat="56.063911" lon="26.503393">
<ele>106.401428</ele>
<time>2010-06-20T11:10:30Z</time>
<desc>lat.=56.063911, lon.=26.503393, Alt.=106.401428m. Speed=0.072000m/h.</desc>
<speed>0.020000</speed>
</trkpt>
<trkpt lat="56.063911" lon="26.503393">
<ele>106.391663</ele>
<time>2010-06-20T11:10:31Z</time>
<desc>lat.=56.063911, lon.=26.503393, Alt.=106.391663m. Speed=0.072000m/h.</desc>
<speed>0.020000</speed>
</trkpt>
<trkpt lat="56.063911" lon="26.503393">
<ele>106.393616</ele>
<time>2010-06-20T11:10:32Z</time>
<desc>lat.=56.063911, lon.=26.503393, Alt.=106.393616m. Speed=0.036000m/h.</desc>
<speed>0.010000</speed>
</trkpt>
<trkpt lat="56.063911" lon="26.503393">
<ele>106.399475</ele>
<time>2010-06-20T11:10:33Z</time>
<desc>lat.=56.063911, lon.=26.503393, Alt.=106.399475m. Speed=0.000000m/h.</desc>
<speed>0.000000</speed>
</trkpt>
<trkpt lat="56.063911" lon="26.503393">
<ele>106.387756</ele>
<time>2010-06-20T11:10:34Z</time>
<desc>lat.=56.063911, lon.=26.503393, Alt.=106.387756m. Speed=0.072000m/h.</desc>
<speed>0.020000</speed>
</trkpt>
<trkpt lat="56.063911" lon="26.503393">
<ele>106.397522</ele>
<time>2010-06-20T11:10:35Z</time>
<desc>lat.=56.063911, lon.=26.503393, Alt.=106.397522m. Speed=0.036000m/h.</desc>
<speed>0.010000</speed>
</trkpt>
<trkpt lat="56.063911" lon="26.503393">
<ele>106.401428</ele>
<time>2010-06-20T11:10:36Z</time>
<desc>lat.=56.063911, lon.=26.503393, Alt.=106.401428m. Speed=0.396000m/h.</desc>
<speed>0.110000</speed>
</trkpt>
<trkpt lat="56.063911" lon="26.503393">
<ele>106.331116</ele>
<time>2010-06-20T11:10:37Z</time>
<desc>lat.=56.063911, lon.=26.503393, Alt.=106.331116m. Speed=0.288000m/h.</desc>
<speed>0.080000</speed>
</trkpt>
<trkpt lat="56.063911" lon="26.503395">
<ele>106.266663</ele>
<time>2010-06-20T11:10:38Z</time>
<desc>lat.=56.063911, lon.=26.503395, Alt.=106.266663m. Speed=0.144000m/h.</desc>
<speed>0.040000</speed>
</trkpt>
<trkpt lat="56.063911" lon="26.503393">
<ele>106.204163</ele>
<time>2010-06-20T11:10:39Z</time>
<desc>lat.=56.063911, lon.=26.503393, Alt.=106.204163m. Speed=0.036000m/h.</desc>
<speed>0.010000</speed>
</trkpt>
<trkpt lat="56.063911" lon="26.503393">
<ele>106.147522</ele>
<time>2010-06-20T11:10:40Z</time>
<desc>lat.=56.063911, lon.=26.503393, Alt.=106.147522m. Speed=0.108000m/h.</desc>
<speed>0.030000</speed>
</trkpt>
<trkpt lat="56.063911" lon="26.503393">
<ele>106.100647</ele>
<time>2010-06-20T11:10:41Z</time>
<desc>lat.=56.063911, lon.=26.503393, Alt.=106.100647m. Speed=0.036000m/h.</desc>
<speed>0.010000</speed>
</trkpt>
<trkpt lat="56.063911" lon="26.503393">
<ele>106.069397</ele>
<time>2010-06-20T11:10:42Z</time>
<desc>lat.=56.063911, lon.=26.503393, Alt.=106.069397m. Speed=0.072000m/h.</desc>
<speed>0.020000</speed>
</trkpt>
<trkpt lat="56.063911" lon="26.503393">
<ele>106.067444</ele>
<time>2010-06-20T11:10:43Z</time>
<desc>lat.=56.063911, lon.=26.503393, Alt.=106.067444m. Speed=0.180000m/h.</desc>
<speed>0.050000</speed>
</trkpt>
<trkpt lat="56.063911" lon="26.503393">
<ele>106.067444</ele>
<time>2010-06-20T11:10:44Z</time>
<desc>lat.=56.063911, lon.=26.503393, Alt.=106.067444m. Speed=0.036000m/h.</desc>
<speed>0.010000</speed>
</trkpt>
<trkpt lat="56.063911" lon="26.503393">
<ele>106.059631</ele>
<time>2010-06-20T11:10:45Z</time>
<desc>lat.=56.063911, lon.=26.503393, Alt.=106.059631m. Speed=0.036000m/h.</desc>
<speed>0.010000</speed>
</trkpt>
<trkpt lat="56.063911" lon="26.503393">
<ele>106.075256</ele>
<time>2010-06-20T11:10:46Z</time>
<desc>lat.=56.063911, lon.=26.503393, Alt.=106.075256m. Speed=0.072000m/h.</desc>
<speed>0.020000</speed>
</trkpt>
<trkpt lat="56.063911" lon="26.503393">
<ele>106.075256</ele>
<time>2010-06-20T11:10:47Z</time>
<desc>lat.=56.063911, lon.=26.503393, Alt.=106.075256m. Speed=0.108000m/h.</desc>
<speed>0.030000</speed>
</trkpt>
<trkpt lat="56.063911" lon="26.503393">
<ele>106.088928</ele>
<time>2010-06-20T11:10:48Z</time>
<desc>lat.=56.063911, lon.=26.503393, Alt.=106.088928m. Speed=0.036000m/h.</desc>
<speed>0.010000</speed>
</trkpt>
<trkpt lat="56.063911" lon="26.503393">
<ele>106.094788</ele>
<time>2010-06-20T11:10:49Z</time>
<desc>lat.=56.063911, lon.=26.503393, Alt.=106.094788m. Speed=0.216000m/h.</desc>
<speed>0.060000</speed>
</trkpt>
<trkpt lat="56.063911" lon="26.503393">
<ele>106.098694</ele>
<time>2010-06-20T11:10:50Z</time>
<desc>lat.=56.063911, lon.=26.503393, Alt.=106.098694m. Speed=0.000000m/h.</desc>
<speed>0.000000</speed>
</trkpt>
<trkpt lat="56.063911" lon="26.503393">
<ele>106.098694</ele>
<time>2010-06-20T11:10:51Z</time>
<desc>lat.=56.063911, lon.=26.503393, Alt.=106.098694m. Speed=0.036000m/h.</desc>
<speed>0.010000</speed>
</trkpt>
<trkpt lat="56.063911" lon="26.503393">
<ele>106.098694</ele>
<time>2010-06-20T11:10:52Z</time>
<desc>lat.=56.063911, lon.=26.503393, Alt.=106.098694m. Speed=0.036000m/h.</desc>
<speed>0.010000</speed>
</trkpt>
<trkpt lat="56.063911" lon="26.503393">
<ele>106.098694</ele>
<time>2010-06-20T11:10:53Z</time>
<desc>lat.=56.063911, lon.=26.503393, Alt.=106.098694m. Speed=0.000000m/h.</desc>
<speed>0.000000</speed>
</trkpt>
<trkpt lat="56.063911" lon="26.503395">
<ele>106.096741</ele>
<time>2010-06-20T11:10:54Z</time>
<desc>lat.=56.063911, lon.=26.503395, Alt.=106.096741m. Speed=0.036000m/h.</desc>
<speed>0.010000</speed>
</trkpt>
<trkpt lat="56.063911" lon="26.503393">
<ele>106.088928</ele>
<time>2010-06-20T11:10:55Z</time>
<desc>lat.=56.063911, lon.=26.503393, Alt.=106.088928m. Speed=0.036000m/h.</desc>
<speed>0.010000</speed>
</trkpt>
<trkpt lat="56.063911" lon="26.503393">
<ele>106.081116</ele>
<time>2010-06-20T11:10:56Z</time>
<desc>lat.=56.063911, lon.=26.503393, Alt.=106.081116m. Speed=0.000000m/h.</desc>
<speed>0.000000</speed>
</trkpt>
<trkpt lat="56.063911" lon="26.503393">
<ele>106.073303</ele>
<time>2010-06-20T11:10:57Z</time>
<desc>lat.=56.063911, lon.=26.503393, Alt.=106.073303m. Speed=0.000000m/h.</desc>
<speed>0.000000</speed>
</trkpt>
<trkpt lat="56.063911" lon="26.503393">
<ele>106.067444</ele>
<time>2010-06-20T11:10:58Z</time>
<desc>lat.=56.063911, lon.=26.503393, Alt.=106.067444m. Speed=0.000000m/h.</desc>
<speed>0.000000</speed>
</trkpt>
<trkpt lat="56.063911" lon="26.503393">
<ele>106.061584</ele>
<time>2010-06-20T11:10:59Z</time>
<desc>lat.=56.063911, lon.=26.503393, Alt.=106.061584m. Speed=0.000000m/h.</desc>
<speed>0.000000</speed>
</trkpt>
<trkpt lat="56.063911" lon="26.503393">
<ele>106.055725</ele>
<time>2010-06-20T11:11:00Z</time>
<desc>lat.=56.063911, lon.=26.503393, Alt.=106.055725m. Speed=0.036000m/h.</desc>
<speed>0.010000</speed>
</trkpt>
<trkpt lat="56.063911" lon="26.503393">
<ele>106.051819</ele>
<time>2010-06-20T11:11:01Z</time>
<desc>lat.=56.063911, lon.=26.503393, Alt.=106.051819m. Speed=0.000000m/h.</desc>
<speed>0.000000</speed>
</trkpt>
<trkpt lat="56.063911" lon="26.503393">
<ele>106.047913</ele>
<time>2010-06-20T11:11:02Z</time>
<desc>lat.=56.063911, lon.=26.503393, Alt.=106.047913m. Speed=0.000000m/h.</desc>
<speed>0.000000</speed>
</trkpt>
<trkpt lat="56.063911" lon="26.503393">
<ele>106.044006</ele>
<time>2010-06-20T11:11:03Z</time>
<desc>lat.=56.063911, lon.=26.503393, Alt.=106.044006m. Speed=0.000000m/h.</desc>
<speed>0.000000</speed>
</trkpt>
<trkpt lat="56.063911" lon="26.503393">
<ele>106.044006</ele>
<time>2010-06-20T11:11:04Z</time>
<desc>lat.=56.063911, lon.=26.503393, Alt.=106.044006m. Speed=0.000000m/h.</desc>
<speed>0.000000</speed>
</trkpt>
<trkpt lat="56.063911" lon="26.503393">
<ele>106.036194</ele>
<time>2010-06-20T11:11:05Z</time>
<desc>lat.=56.063911, lon.=26.503393, Alt.=106.036194m. Speed=0.000000m/h.</desc>
<speed>0.000000</speed>
</trkpt>
<trkpt lat="56.063911" lon="26.503393">
<ele>106.030334</ele>
<time>2010-06-20T11:11:06Z</time>
<desc>lat.=56.063911, lon.=26.503393, Alt.=106.030334m. Speed=0.000000m/h.</desc>
<speed>0.000000</speed>
</trkpt>
<trkpt lat="56.063911" lon="26.503393">
<ele>106.016663</ele>
<time>2010-06-20T11:11:07Z</time>
<desc>lat.=56.063911, lon.=26.503393, Alt.=106.016663m. Speed=0.000000m/h.</desc>
<speed>0.000000</speed>
</trkpt>
<trkpt lat="56.063911" lon="26.503393">
<ele>106.010803</ele>
<time>2010-06-20T11:11:08Z</time>
<desc>lat.=56.063911, lon.=26.503393, Alt.=106.010803m. Speed=0.000000m/h.</desc>
<speed>0.000000</speed>
</trkpt>
<trkpt lat="56.063911" lon="26.503393">
<ele>106.002991</ele>
<time>2010-06-20T11:11:09Z</time>
<desc>lat.=56.063911, lon.=26.503393, Alt.=106.002991m. Speed=0.000000m/h.</desc>
<speed>0.000000</speed>
</trkpt>
<trkpt lat="56.063911" lon="26.503393">
<ele>105.995178</ele>
<time>2010-06-20T11:11:10Z</time>
<desc>lat.=56.063911, lon.=26.503393, Alt.=105.995178m. Speed=0.108000m/h.</desc>
<speed>0.030000</speed>
</trkpt>
<trkpt lat="56.063911" lon="26.503393">
<ele>105.989319</ele>
<time>2010-06-20T11:11:11Z</time>
<desc>lat.=56.063911, lon.=26.503393, Alt.=105.989319m. Speed=0.072000m/h.</desc>
<speed>0.020000</speed>
</trkpt>
<trkpt lat="56.063911" lon="26.503393">
<ele>105.989319</ele>
<time>2010-06-20T11:11:12Z</time>
<desc>lat.=56.063911, lon.=26.503393, Alt.=105.989319m. Speed=0.036000m/h.</desc>
<speed>0.010000</speed>
</trkpt>
<trkpt lat="56.063911" lon="26.503393">
<ele>105.985413</ele>
<time>2010-06-20T11:11:13Z</time>
<desc>lat.=56.063911, lon.=26.503393, Alt.=105.985413m. Speed=0.000000m/h.</desc>
<speed>0.000000</speed>
</trkpt>
<trkpt lat="56.063911" lon="26.503393">
<ele>105.983459</ele>
<time>2010-06-20T11:11:14Z</time>
<desc>lat.=56.063911, lon.=26.503393, Alt.=105.983459m. Speed=0.036000m/h.</desc>
<speed>0.010000</speed>
</trkpt>
<trkpt lat="56.063911" lon="26.503393">
<ele>105.979553</ele>
<time>2010-06-20T11:11:15Z</time>
<desc>lat.=56.063911, lon.=26.503393, Alt.=105.979553m. Speed=0.144000m/h.</desc>
<speed>0.040000</speed>
</trkpt>
<trkpt lat="56.063911" lon="26.503393">
<ele>105.973694</ele>
<time>2010-06-20T11:11:16Z</time>
<desc>lat.=56.063911, lon.=26.503393, Alt.=105.973694m. Speed=0.072000m/h.</desc>
<speed>0.020000</speed>
</trkpt>
<trkpt lat="56.063911" lon="26.503393">
<ele>105.960022</ele>
<time>2010-06-20T11:11:17Z</time>
<desc>lat.=56.063911, lon.=26.503393, Alt.=105.960022m. Speed=0.144000m/h.</desc>
<speed>0.040000</speed>
</trkpt>
<trkpt lat="56.063911" lon="26.503393">
<ele>105.958069</ele>
<time>2010-06-20T11:11:18Z</time>
<desc>lat.=56.063911, lon.=26.503393, Alt.=105.958069m. Speed=0.036000m/h.</desc>
<speed>0.010000</speed>
</trkpt>
<trkpt lat="56.063911" lon="26.503393">
<ele>105.956116</ele>
<time>2010-06-20T11:11:19Z</time>
<desc>lat.=56.063911, lon.=26.503393, Alt.=105.956116m. Speed=0.036000m/h.</desc>
<speed>0.010000</speed>
</trkpt>
<trkpt lat="56.063911" lon="26.503393">
<ele>105.956116</ele>
<time>2010-06-20T11:11:20Z</time>
<desc>lat.=56.063911, lon.=26.503393, Alt.=105.956116m. Speed=0.036000m/h.</desc>
<speed>0.010000</speed>
</trkpt>
<trkpt lat="56.063911" lon="26.503393">
<ele>105.952209</ele>
<time>2010-06-20T11:11:21Z</time>
<desc>lat.=56.063911, lon.=26.503393, Alt.=105.952209m. Speed=0.072000m/h.</desc>
<speed>0.020000</speed>
</trkpt>
<trkpt lat="56.063911" lon="26.503393">
<ele>105.950256</ele>
<time>2010-06-20T11:11:22Z</time>
<desc>lat.=56.063911, lon.=26.503393, Alt.=105.950256m. Speed=0.036000m/h.</desc>
<speed>0.010000</speed>
</trkpt>
<trkpt lat="56.063911" lon="26.503393">
<ele>105.952209</ele>
<time>2010-06-20T11:11:23Z</time>
<desc>lat.=56.063911, lon.=26.503393, Alt.=105.952209m. Speed=0.144000m/h.</desc>
<speed>0.040000</speed>
</trkpt>
<trkpt lat="56.063911" lon="26.503393">
<ele>105.950256</ele>
<time>2010-06-20T11:11:24Z</time>
<desc>lat.=56.063911, lon.=26.503393, Alt.=105.950256m. Speed=0.180000m/h.</desc>
<speed>0.050000</speed>
</trkpt>
<trkpt lat="56.063911" lon="26.503393">
<ele>105.948303</ele>
<time>2010-06-20T11:11:25Z</time>
<desc>lat.=56.063911, lon.=26.503393, Alt.=105.948303m. Speed=0.072000m/h.</desc>
<speed>0.020000</speed>
</trkpt>
<trkpt lat="56.063911" lon="26.503393">
<ele>105.946350</ele>
<time>2010-06-20T11:11:26Z</time>
<desc>lat.=56.063911, lon.=26.503393, Alt.=105.946350m. Speed=0.000000m/h.</desc>
<speed>0.000000</speed>
</trkpt>
<trkpt lat="56.063911" lon="26.503393">
<ele>105.942444</ele>
<time>2010-06-20T11:11:27Z</time>
<desc>lat.=56.063911, lon.=26.503393, Alt.=105.942444m. Speed=0.036000m/h.</desc>
<speed>0.010000</speed>
</trkpt>
<trkpt lat="56.063911" lon="26.503393">
<ele>105.940491</ele>
<time>2010-06-20T11:11:28Z</time>
<desc>lat.=56.063911, lon.=26.503393, Alt.=105.940491m. Speed=0.072000m/h.</desc>
<speed>0.020000</speed>
</trkpt>
<trkpt lat="56.063911" lon="26.503393">
<ele>105.938538</ele>
<time>2010-06-20T11:11:29Z</time>
<desc>lat.=56.063911, lon.=26.503393, Alt.=105.938538m. Speed=0.072000m/h.</desc>
<speed>0.020000</speed>
</trkpt>
<trkpt lat="56.063911" lon="26.503393">
<ele>105.938538</ele>
<time>2010-06-20T11:11:30Z</time>
<desc>lat.=56.063911, lon.=26.503393, Alt.=105.938538m. Speed=0.036000m/h.</desc>
<speed>0.010000</speed>
</trkpt>
<trkpt lat="56.063911" lon="26.503393">
<ele>105.934631</ele>
<time>2010-06-20T11:11:31Z</time>
<desc>lat.=56.063911, lon.=26.503393, Alt.=105.934631m. Speed=0.036000m/h.</desc>
<speed>0.010000</speed>
</trkpt>
<trkpt lat="56.063911" lon="26.503393">
<ele>105.930725</ele>
<time>2010-06-20T11:11:32Z</time>
<desc>lat.=56.063911, lon.=26.503393, Alt.=105.930725m. Speed=0.072000m/h.</desc>
<speed>0.020000</speed>
</trkpt>
<trkpt lat="56.063911" lon="26.503393">
<ele>105.928772</ele>
<time>2010-06-20T11:11:33Z</time>
<desc>lat.=56.063911, lon.=26.503393, Alt.=105.928772m. Speed=0.144000m/h.</desc>
<speed>0.040000</speed>
</trkpt>
<trkpt lat="56.063911" lon="26.503393">
<ele>105.928772</ele>
<time>2010-06-20T11:11:34Z</time>
<desc>lat.=56.063911, lon.=26.503393, Alt.=105.928772m. Speed=0.072000m/h.</desc>
<speed>0.020000</speed>
</trkpt>
<trkpt lat="56.063911" lon="26.503393">
<ele>105.926819</ele>
<time>2010-06-20T11:11:35Z</time>
<desc>lat.=56.063911, lon.=26.503393, Alt.=105.926819m. Speed=0.108000m/h.</desc>
<speed>0.030000</speed>
</trkpt>
<trkpt lat="56.063911" lon="26.503393">
<ele>105.926819</ele>
<time>2010-06-20T11:11:36Z</time>
<desc>lat.=56.063911, lon.=26.503393, Alt.=105.926819m. Speed=0.036000m/h.</desc>
<speed>0.010000</speed>
</trkpt>
<trkpt lat="56.063911" lon="26.503393">
<ele>105.928772</ele>
<time>2010-06-20T11:11:37Z</time>
<desc>lat.=56.063911, lon.=26.503393, Alt.=105.928772m. Speed=0.252000m/h.</desc>
<speed>0.070000</speed>
</trkpt>
<trkpt lat="56.063911" lon="26.503393">
<ele>105.928772</ele>
<time>2010-06-20T11:11:38Z</time>
<desc>lat.=56.063911, lon.=26.503393, Alt.=105.928772m. Speed=0.144000m/h.</desc>
<speed>0.040000</speed>
</trkpt>
<trkpt lat="56.063911" lon="26.503393">
<ele>105.926819</ele>
<time>2010-06-20T11:11:39Z</time>
<desc>lat.=56.063911, lon.=26.503393, Alt.=105.926819m. Speed=0.072000m/h.</desc>
<speed>0.020000</speed>
</trkpt>
<trkpt lat="56.063911" lon="26.503393">
<ele>105.924866</ele>
<time>2010-06-20T11:11:40Z</time>
<desc>lat.=56.063911, lon.=26.503393, Alt.=105.924866m. Speed=0.072000m/h.</desc>
<speed>0.020000</speed>
</trkpt>
<trkpt lat="56.063911" lon="26.503393">
<ele>105.922913</ele>
<time>2010-06-20T11:11:41Z</time>
<desc>lat.=56.063911, lon.=26.503393, Alt.=105.922913m. Speed=0.108000m/h.</desc>
<speed>0.030000</speed>
</trkpt>
<trkpt lat="56.063911" lon="26.503393">
<ele>105.919006</ele>
<time>2010-06-20T11:11:42Z</time>
<desc>lat.=56.063911, lon.=26.503393, Alt.=105.919006m. Speed=0.036000m/h.</desc>
<speed>0.010000</speed>
</trkpt>
<trkpt lat="56.063911" lon="26.503393">
<ele>105.915100</ele>
<time>2010-06-20T11:11:43Z</time>
<desc>lat.=56.063911, lon.=26.503393, Alt.=105.915100m. Speed=0.000000m/h.</desc>
<speed>0.000000</speed>
</trkpt>
<trkpt lat="56.063911" lon="26.503393">
<ele>105.915100</ele>
<time>2010-06-20T11:11:44Z</time>
<desc>lat.=56.063911, lon.=26.503393, Alt.=105.915100m. Speed=0.072000m/h.</desc>
<speed>0.020000</speed>
</trkpt>
<trkpt lat="56.063911" lon="26.503393">
<ele>105.911194</ele>
<time>2010-06-20T11:11:45Z</time>
<desc>lat.=56.063911, lon.=26.503393, Alt.=105.911194m. Speed=0.000000m/h.</desc>
<speed>0.000000</speed>
</trkpt>
<trkpt lat="56.063911" lon="26.503393">
<ele>105.911194</ele>
<time>2010-06-20T11:11:46Z</time>
<desc>lat.=56.063911, lon.=26.503393, Alt.=105.911194m. Speed=0.072000m/h.</desc>
<speed>0.020000</speed>
</trkpt>
<trkpt lat="56.063911" lon="26.503393">
<ele>105.911194</ele>
<time>2010-06-20T11:11:47Z</time>
<desc>lat.=56.063911, lon.=26.503393, Alt.=105.911194m. Speed=0.036000m/h.</desc>
<speed>0.010000</speed>
</trkpt>
<trkpt lat="56.063911" lon="26.503393">
<ele>105.913147</ele>
<time>2010-06-20T11:11:48Z</time>
<desc>lat.=56.063911, lon.=26.503393, Alt.=105.913147m. Speed=0.288000m/h.</desc>
<speed>0.080000</speed>
</trkpt>
<trkpt lat="56.063911" lon="26.503393">
<ele>105.913147</ele>
<time>2010-06-20T11:11:49Z</time>
<desc>lat.=56.063911, lon.=26.503393, Alt.=105.913147m. Speed=0.360000m/h.</desc>
<speed>0.100000</speed>
</trkpt>
<trkpt lat="56.063911" lon="26.503393">
<ele>105.909241</ele>
<time>2010-06-20T11:11:50Z</time>
<desc>lat.=56.063911, lon.=26.503393, Alt.=105.909241m. Speed=0.180000m/h.</desc>
<speed>0.050000</speed>
</trkpt>
<trkpt lat="56.063911" lon="26.503393">
<ele>105.909241</ele>
<time>2010-06-20T11:11:51Z</time>
<desc>lat.=56.063911, lon.=26.503393, Alt.=105.909241m. Speed=0.180000m/h.</desc>
<speed>0.050000</speed>
</trkpt>
<trkpt lat="56.063911" lon="26.503393">
<ele>105.911194</ele>
<time>2010-06-20T11:11:52Z</time>
<desc>lat.=56.063911, lon.=26.503393, Alt.=105.911194m. Speed=0.036000m/h.</desc>
<speed>0.010000</speed>
</trkpt>
<trkpt lat="56.063911" lon="26.503393">
<ele>105.911194</ele>
<time>2010-06-20T11:11:53Z</time>
<desc>lat.=56.063911, lon.=26.503393, Alt.=105.911194m. Speed=0.036000m/h.</desc>
<speed>0.010000</speed>
</trkpt>
<trkpt lat="56.063911" lon="26.503393">
<ele>105.911194</ele>
<time>2010-06-20T11:11:54Z</time>
<desc>lat.=56.063911, lon.=26.503393, Alt.=105.911194m. Speed=0.108000m/h.</desc>
<speed>0.030000</speed>
</trkpt>
<trkpt lat="56.063911" lon="26.503393">
<ele>105.913147</ele>
<time>2010-06-20T11:11:55Z</time>
<desc>lat.=56.063911, lon.=26.503393, Alt.=105.913147m. Speed=0.324000m/h.</desc>
<speed>0.090000</speed>
</trkpt>
<trkpt lat="56.063911" lon="26.503393">
<ele>105.915100</ele>
<time>2010-06-20T11:11:56Z</time>
<desc>lat.=56.063911, lon.=26.503393, Alt.=105.915100m. Speed=0.288000m/h.</desc>
<speed>0.080000</speed>
</trkpt>
<trkpt lat="56.063911" lon="26.503393">
<ele>105.907288</ele>
<time>2010-06-20T11:11:57Z</time>
<desc>lat.=56.063911, lon.=26.503393, Alt.=105.907288m. Speed=0.036000m/h.</desc>
<speed>0.010000</speed>
</trkpt>
<trkpt lat="56.063911" lon="26.503393">
<ele>105.907288</ele>
<time>2010-06-20T11:11:58Z</time>
<desc>lat.=56.063911, lon.=26.503393, Alt.=105.907288m. Speed=0.036000m/h.</desc>
<speed>0.010000</speed>
</trkpt>
<trkpt lat="56.063911" lon="26.503393">
<ele>105.907288</ele>
<time>2010-06-20T11:11:59Z</time>
<desc>lat.=56.063911, lon.=26.503393, Alt.=105.907288m. Speed=0.108000m/h.</desc>
<speed>0.030000</speed>
</trkpt>
<trkpt lat="56.063911" lon="26.503393">
<ele>105.907288</ele>
<time>2010-06-20T11:12:00Z</time>
<desc>lat.=56.063911, lon.=26.503393, Alt.=105.907288m. Speed=0.036000m/h.</desc>
<speed>0.010000</speed>
</trkpt>
<trkpt lat="56.063911" lon="26.503393">
<ele>105.905334</ele>
<time>2010-06-20T11:12:01Z</time>
<desc>lat.=56.063911, lon.=26.503393, Alt.=105.905334m. Speed=0.000000m/h.</desc>
<speed>0.000000</speed>
</trkpt>
<trkpt lat="56.063911" lon="26.503393">
<ele>105.905334</ele>
<time>2010-06-20T11:12:02Z</time>
<desc>lat.=56.063911, lon.=26.503393, Alt.=105.905334m. Speed=0.000000m/h.</desc>
<speed>0.000000</speed>
</trkpt>
<trkpt lat="56.063911" lon="26.503393">
<ele>105.903381</ele>
<time>2010-06-20T11:12:03Z</time>
<desc>lat.=56.063911, lon.=26.503393, Alt.=105.903381m. Speed=0.072000m/h.</desc>
<speed>0.020000</speed>
</trkpt>
<trkpt lat="56.063911" lon="26.503393">
<ele>105.903381</ele>
<time>2010-06-20T11:12:04Z</time>
<desc>lat.=56.063911, lon.=26.503393, Alt.=105.903381m. Speed=0.000000m/h.</desc>
<speed>0.000000</speed>
</trkpt>
<trkpt lat="56.063911" lon="26.503393">
<ele>105.903381</ele>
<time>2010-06-20T11:12:05Z</time>
<desc>lat.=56.063911, lon.=26.503393, Alt.=105.903381m. Speed=0.036000m/h.</desc>
<speed>0.010000</speed>
</trkpt>
<trkpt lat="56.063911" lon="26.503391">
<ele>105.903381</ele>
<time>2010-06-20T11:12:06Z</time>
<desc>lat.=56.063911, lon.=26.503391, Alt.=105.903381m. Speed=0.108000m/h.</desc>
<speed>0.030000</speed>
</trkpt>
<trkpt lat="56.063911" lon="26.503391">
<ele>105.905334</ele>
<time>2010-06-20T11:12:07Z</time>
<desc>lat.=56.063911, lon.=26.503391, Alt.=105.905334m. Speed=0.072000m/h.</desc>
<speed>0.020000</speed>
</trkpt>
<trkpt lat="56.063911" lon="26.503391">
<ele>105.905334</ele>
<time>2010-06-20T11:12:08Z</time>
<desc>lat.=56.063911, lon.=26.503391, Alt.=105.905334m. Speed=0.072000m/h.</desc>
<speed>0.020000</speed>
</trkpt>
<trkpt lat="56.063911" lon="26.503391">
<ele>105.905334</ele>
<time>2010-06-20T11:12:09Z</time>
<desc>lat.=56.063911, lon.=26.503391, Alt.=105.905334m. Speed=0.036000m/h.</desc>
<speed>0.010000</speed>
</trkpt>
<trkpt lat="56.063911" lon="26.503391">
<ele>105.907288</ele>
<time>2010-06-20T11:12:10Z</time>
<desc>lat.=56.063911, lon.=26.503391, Alt.=105.907288m. Speed=0.000000m/h.</desc>
<speed>0.000000</speed>
</trkpt>
<trkpt lat="56.063911" lon="26.503391">
<ele>105.907288</ele>
<time>2010-06-20T11:12:11Z</time>
<desc>lat.=56.063911, lon.=26.503391, Alt.=105.907288m. Speed=0.000000m/h.</desc>
<speed>0.000000</speed>
</trkpt>
<trkpt lat="56.063911" lon="26.503391">
<ele>105.907288</ele>
<time>2010-06-20T11:12:12Z</time>
<desc>lat.=56.063911, lon.=26.503391, Alt.=105.907288m. Speed=0.000000m/h.</desc>
<speed>0.000000</speed>
</trkpt>
<trkpt lat="56.063911" lon="26.503391">
<ele>105.905334</ele>
<time>2010-06-20T11:12:13Z</time>
<desc>lat.=56.063911, lon.=26.503391, Alt.=105.905334m. Speed=0.000000m/h.</desc>
<speed>0.000000</speed>
</trkpt>
<trkpt lat="56.063911" lon="26.503393">
<ele>105.905334</ele>
<time>2010-06-20T11:12:14Z</time>
<desc>lat.=56.063911, lon.=26.503393, Alt.=105.905334m. Speed=0.036000m/h.</desc>
<speed>0.010000</speed>
</trkpt>
<trkpt lat="56.063911" lon="26.503391">
<ele>105.905334</ele>
<time>2010-06-20T11:12:15Z</time>
<desc>lat.=56.063911, lon.=26.503391, Alt.=105.905334m. Speed=0.072000m/h.</desc>
<speed>0.020000</speed>
</trkpt>
<trkpt lat="56.063911" lon="26.503393">
<ele>105.905334</ele>
<time>2010-06-20T11:12:16Z</time>
<desc>lat.=56.063911, lon.=26.503393, Alt.=105.905334m. Speed=0.108000m/h.</desc>
<speed>0.030000</speed>
</trkpt>
<trkpt lat="56.063911" lon="26.503393">
<ele>105.905334</ele>
<time>2010-06-20T11:12:17Z</time>
<desc>lat.=56.063911, lon.=26.503393, Alt.=105.905334m. Speed=0.000000m/h.</desc>
<speed>0.000000</speed>
</trkpt>
<trkpt lat="56.063911" lon="26.503393">
<ele>105.907288</ele>
<time>2010-06-20T11:12:18Z</time>
<desc>lat.=56.063911, lon.=26.503393, Alt.=105.907288m. Speed=0.036000m/h.</desc>
<speed>0.010000</speed>
</trkpt>
<trkpt lat="56.063911" lon="26.503393">
<ele>105.909241</ele>
<time>2010-06-20T11:12:19Z</time>
<desc>lat.=56.063911, lon.=26.503393, Alt.=105.909241m. Speed=0.036000m/h.</desc>
<speed>0.010000</speed>
</trkpt>
<trkpt lat="56.063911" lon="26.503393">
<ele>105.911194</ele>
<time>2010-06-20T11:12:20Z</time>
<desc>lat.=56.063911, lon.=26.503393, Alt.=105.911194m. Speed=0.072000m/h.</desc>
<speed>0.020000</speed>
</trkpt>
<trkpt lat="56.063911" lon="26.503393">
<ele>105.909241</ele>
<time>2010-06-20T11:12:21Z</time>
<desc>lat.=56.063911, lon.=26.503393, Alt.=105.909241m. Speed=0.360000m/h.</desc>
<speed>0.100000</speed>
</trkpt>
<trkpt lat="56.063911" lon="26.503393">
<ele>105.909241</ele>
<time>2010-06-20T11:12:22Z</time>
<desc>lat.=56.063911, lon.=26.503393, Alt.=105.909241m. Speed=1.152000m/h.</desc>
<speed>0.320000</speed>
</trkpt>
<trkpt lat="56.063908" lon="26.503391">
<ele>105.877991</ele>
<time>2010-06-20T11:12:23Z</time>
<desc>lat.=56.063908, lon.=26.503391, Alt.=105.877991m. Speed=0.936000m/h.</desc>
<speed>0.260000</speed>
</trkpt>
<trkpt lat="56.063908" lon="26.503395">
<ele>105.887756</ele>
<time>2010-06-20T11:12:24Z</time>
<desc>lat.=56.063908, lon.=26.503395, Alt.=105.887756m. Speed=2.196000m/h.</desc>
<speed>0.610000</speed>
</trkpt>
<trkpt lat="56.063904" lon="26.503401">
<ele>105.971741</ele>
<time>2010-06-20T11:12:25Z</time>
<desc>lat.=56.063904, lon.=26.503401, Alt.=105.971741m. Speed=3.348000m/h.</desc>
<speed>0.930000</speed>
</trkpt>
<trkpt lat="56.063892" lon="26.503405">
<ele>106.051819</ele>
<time>2010-06-20T11:12:26Z</time>
<desc>lat.=56.063892, lon.=26.503405, Alt.=106.051819m. Speed=4.680000m/h.</desc>
<speed>1.300000</speed>
</trkpt>
<trkpt lat="56.063885" lon="26.503407">
<ele>106.069397</ele>
<time>2010-06-20T11:12:27Z</time>
<desc>lat.=56.063885, lon.=26.503407, Alt.=106.069397m. Speed=5.544000m/h.</desc>
<speed>1.540000</speed>
</trkpt>
<trkpt lat="56.063873" lon="26.503407">
<ele>105.870178</ele>
<time>2010-06-20T11:12:28Z</time>
<desc>lat.=56.063873, lon.=26.503407, Alt.=105.870178m. Speed=5.796000m/h.</desc>
<speed>1.610000</speed>
</trkpt>
<trkpt lat="56.063858" lon="26.503410">
<ele>105.844788</ele>
<time>2010-06-20T11:12:29Z</time>
<desc>lat.=56.063858, lon.=26.503410, Alt.=105.844788m. Speed=5.328000m/h.</desc>
<speed>1.480000</speed>
</trkpt>
<trkpt lat="56.063843" lon="26.503418">
<ele>105.682678</ele>
<time>2010-06-20T11:12:30Z</time>
<desc>lat.=56.063843, lon.=26.503418, Alt.=105.682678m. Speed=7.308000m/h.</desc>
<speed>2.030000</speed>
</trkpt>
<trkpt lat="56.063824" lon="26.503429">
<ele>105.657288</ele>
<time>2010-06-20T11:12:31Z</time>
<desc>lat.=56.063824, lon.=26.503429, Alt.=105.657288m. Speed=7.272000m/h.</desc>
<speed>2.020000</speed>
</trkpt>
<trkpt lat="56.063801" lon="26.503441">
<ele>105.604553</ele>
<time>2010-06-20T11:12:32Z</time>
<desc>lat.=56.063801, lon.=26.503441, Alt.=105.604553m. Speed=7.632000m/h.</desc>
<speed>2.120000</speed>
</trkpt>
<trkpt lat="56.063782" lon="26.503447">
<ele>105.327209</ele>
<time>2010-06-20T11:12:33Z</time>
<desc>lat.=56.063782, lon.=26.503447, Alt.=105.327209m. Speed=8.244000m/h.</desc>
<speed>2.290000</speed>
</trkpt>
<trkpt lat="56.063759" lon="26.503452">
<ele>105.063538</ele>
<time>2010-06-20T11:12:34Z</time>
<desc>lat.=56.063759, lon.=26.503452, Alt.=105.063538m. Speed=8.928000m/h.</desc>
<speed>2.480000</speed>
</trkpt>
<trkpt lat="56.063736" lon="26.503468">
<ele>104.786194</ele>
<time>2010-06-20T11:12:35Z</time>
<desc>lat.=56.063736, lon.=26.503468, Alt.=104.786194m. Speed=9.144000m/h.</desc>
<speed>2.540000</speed>
</trkpt>
<trkpt lat="56.063709" lon="26.503481">
<ele>105.225647</ele>
<time>2010-06-20T11:12:36Z</time>
<desc>lat.=56.063709, lon.=26.503481, Alt.=105.225647m. Speed=8.640000m/h.</desc>
<speed>2.400000</speed>
</trkpt>
<trkpt lat="56.063686" lon="26.503490">
<ele>105.251038</ele>
<time>2010-06-20T11:12:37Z</time>
<desc>lat.=56.063686, lon.=26.503490, Alt.=105.251038m. Speed=8.172000m/h.</desc>
<speed>2.270000</speed>
</trkpt>
<trkpt lat="56.063667" lon="26.503502">
<ele>104.899475</ele>
<time>2010-06-20T11:12:38Z</time>
<desc>lat.=56.063667, lon.=26.503502, Alt.=104.899475m. Speed=8.172000m/h.</desc>
<speed>2.270000</speed>
</trkpt>
<trkpt lat="56.063648" lon="26.503511">
<ele>104.672913</ele>
<time>2010-06-20T11:12:39Z</time>
<desc>lat.=56.063648, lon.=26.503511, Alt.=104.672913m. Speed=7.380000m/h.</desc>
<speed>2.050000</speed>
</trkpt>
<trkpt lat="56.063629" lon="26.503521">
<ele>104.446350</ele>
<time>2010-06-20T11:12:40Z</time>
<desc>lat.=56.063629, lon.=26.503521, Alt.=104.446350m. Speed=7.452000m/h.</desc>
<speed>2.070000</speed>
</trkpt>
<trkpt lat="56.063610" lon="26.503529">
<ele>104.030334</ele>
<time>2010-06-20T11:12:41Z</time>
<desc>lat.=56.063610, lon.=26.503529, Alt.=104.030334m. Speed=6.912000m/h.</desc>
<speed>1.920000</speed>
</trkpt>
<trkpt lat="56.063595" lon="26.503534">
<ele>103.614319</ele>
<time>2010-06-20T11:12:42Z</time>
<desc>lat.=56.063595, lon.=26.503534, Alt.=103.614319m. Speed=7.056000m/h.</desc>
<speed>1.960000</speed>
</trkpt>
<trkpt lat="56.063580" lon="26.503542">
<ele>103.524475</ele>
<time>2010-06-20T11:12:43Z</time>
<desc>lat.=56.063580, lon.=26.503542, Alt.=103.524475m. Speed=7.812000m/h.</desc>
<speed>2.170000</speed>
</trkpt>
<trkpt lat="56.063560" lon="26.503553">
<ele>103.422913</ele>
<time>2010-06-20T11:12:44Z</time>
<desc>lat.=56.063560, lon.=26.503553, Alt.=103.422913m. Speed=8.064000m/h.</desc>
<speed>2.240000</speed>
</trkpt>
<trkpt lat="56.063541" lon="26.503571">
<ele>103.206116</ele>
<time>2010-06-20T11:12:45Z</time>
<desc>lat.=56.063541, lon.=26.503571, Alt.=103.206116m. Speed=8.712000m/h.</desc>
<speed>2.420000</speed>
</trkpt>
<trkpt lat="56.063526" lon="26.503584">
<ele>102.379944</ele>
<time>2010-06-20T11:12:46Z</time>
<desc>lat.=56.063526, lon.=26.503584, Alt.=102.379944m. Speed=8.172000m/h.</desc>
<speed>2.270000</speed>
</trkpt>
<trkpt lat="56.063499" lon="26.503586">
<ele>103.231506</ele>
<time>2010-06-20T11:12:47Z</time>
<desc>lat.=56.063499, lon.=26.503586, Alt.=103.231506m. Speed=8.352000m/h.</desc>
<speed>2.320000</speed>
</trkpt>
<trkpt lat="56.063480" lon="26.503595">
<ele>103.426819</ele>
<time>2010-06-20T11:12:48Z</time>
<desc>lat.=56.063480, lon.=26.503595, Alt.=103.426819m. Speed=6.660000m/h.</desc>
<speed>1.850000</speed>
</trkpt>
<trkpt lat="56.063465" lon="26.503599">
<ele>103.323303</ele>
<time>2010-06-20T11:12:49Z</time>
<desc>lat.=56.063465, lon.=26.503599, Alt.=103.323303m. Speed=6.804000m/h.</desc>
<speed>1.890000</speed>
</trkpt>
<trkpt lat="56.063450" lon="26.503609">
<ele>103.211975</ele>
<time>2010-06-20T11:12:50Z</time>
<desc>lat.=56.063450, lon.=26.503609, Alt.=103.211975m. Speed=7.560000m/h.</desc>
<speed>2.100000</speed>
</trkpt>
<trkpt lat="56.063431" lon="26.503622">
<ele>103.204163</ele>
<time>2010-06-20T11:12:51Z</time>
<desc>lat.=56.063431, lon.=26.503622, Alt.=103.204163m. Speed=8.820000m/h.</desc>
<speed>2.450000</speed>
</trkpt>
<trkpt lat="56.063404" lon="26.503637">
<ele>102.952209</ele>
<time>2010-06-20T11:12:52Z</time>
<desc>lat.=56.063404, lon.=26.503637, Alt.=102.952209m. Speed=9.108000m/h.</desc>
<speed>2.530000</speed>
</trkpt>
<trkpt lat="56.063377" lon="26.503647">
<ele>103.329163</ele>
<time>2010-06-20T11:12:53Z</time>
<desc>lat.=56.063377, lon.=26.503647, Alt.=103.329163m. Speed=10.044000m/h.</desc>
<speed>2.790000</speed>
</trkpt>
<trkpt lat="56.063354" lon="26.503660">
<ele>103.042053</ele>
<time>2010-06-20T11:12:54Z</time>
<desc>lat.=56.063354, lon.=26.503660, Alt.=103.042053m. Speed=9.036000m/h.</desc>
<speed>2.510000</speed>
</trkpt>
<trkpt lat="56.063332" lon="26.503677">
<ele>104.081116</ele>
<time>2010-06-20T11:12:55Z</time>
<desc>lat.=56.063332, lon.=26.503677, Alt.=104.081116m. Speed=9.288000m/h.</desc>
<speed>2.580000</speed>
</trkpt>
<trkpt lat="56.063309" lon="26.503689">
<ele>103.829163</ele>
<time>2010-06-20T11:12:56Z</time>
<desc>lat.=56.063309, lon.=26.503689, Alt.=103.829163m. Speed=7.596000m/h.</desc>
<speed>2.110000</speed>
</trkpt>
<trkpt lat="56.063290" lon="26.503689">
<ele>103.764709</ele>
<time>2010-06-20T11:12:57Z</time>
<desc>lat.=56.063290, lon.=26.503689, Alt.=103.764709m. Speed=8.748000m/h.</desc>
<speed>2.430000</speed>
</trkpt>
<trkpt lat="56.063267" lon="26.503698">
<ele>103.739319</ele>
<time>2010-06-20T11:12:58Z</time>
<desc>lat.=56.063267, lon.=26.503698, Alt.=103.739319m. Speed=9.396000m/h.</desc>
<speed>2.610000</speed>
</trkpt>
<trkpt lat="56.063248" lon="26.503714">
<ele>103.460022</ele>
<time>2010-06-20T11:12:59Z</time>
<desc>lat.=56.063248, lon.=26.503714, Alt.=103.460022m. Speed=9.504000m/h.</desc>
<speed>2.640000</speed>
</trkpt>
<trkpt lat="56.063221" lon="26.503729">
<ele>103.362366</ele>
<time>2010-06-20T11:13:00Z</time>
<desc>lat.=56.063221, lon.=26.503729, Alt.=103.362366m. Speed=10.440000m/h.</desc>
<speed>2.900000</speed>
</trkpt>
<trkpt lat="56.063194" lon="26.503740">
<ele>103.667053</ele>
<time>2010-06-20T11:13:01Z</time>
<desc>lat.=56.063194, lon.=26.503740, Alt.=103.667053m. Speed=9.828000m/h.</desc>
<speed>2.730000</speed>
</trkpt>
<trkpt lat="56.063171" lon="26.503757">
<ele>103.450256</ele>
<time>2010-06-20T11:13:02Z</time>
<desc>lat.=56.063171, lon.=26.503757, Alt.=103.450256m. Speed=9.576000m/h.</desc>
<speed>2.660000</speed>
</trkpt>
<trkpt lat="56.063148" lon="26.503773">
<ele>103.379944</ele>
<time>2010-06-20T11:13:03Z</time>
<desc>lat.=56.063148, lon.=26.503773, Alt.=103.379944m. Speed=11.520000m/h.</desc>
<speed>3.200000</speed>
</trkpt>
<trkpt lat="56.063114" lon="26.503794">
<ele>103.792053</ele>
<time>2010-06-20T11:13:04Z</time>
<desc>lat.=56.063114, lon.=26.503794, Alt.=103.792053m. Speed=12.132000m/h.</desc>
<speed>3.370000</speed>
</trkpt>
<trkpt lat="56.063084" lon="26.503807">
<ele>103.938538</ele>
<time>2010-06-20T11:13:05Z</time>
<desc>lat.=56.063084, lon.=26.503807, Alt.=103.938538m. Speed=11.088000m/h.</desc>
<speed>3.080000</speed>
</trkpt>
<trkpt lat="56.063057" lon="26.503820">
<ele>104.116272</ele>
<time>2010-06-20T11:13:06Z</time>
<desc>lat.=56.063057, lon.=26.503820, Alt.=104.116272m. Speed=10.332000m/h.</desc>
<speed>2.870000</speed>
</trkpt>
<trkpt lat="56.063034" lon="26.503830">
<ele>104.190491</ele>
<time>2010-06-20T11:13:07Z</time>
<desc>lat.=56.063034, lon.=26.503830, Alt.=104.190491m. Speed=10.296000m/h.</desc>
<speed>2.860000</speed>
</trkpt>
<trkpt lat="56.063007" lon="26.503838">
<ele>104.590881</ele>
<time>2010-06-20T11:13:08Z</time>
<desc>lat.=56.063007, lon.=26.503838, Alt.=104.590881m. Speed=11.484000m/h.</desc>
<speed>3.190000</speed>
</trkpt>
<trkpt lat="56.062977" lon="26.503849">
<ele>104.604553</ele>
<time>2010-06-20T11:13:09Z</time>
<desc>lat.=56.062977, lon.=26.503849, Alt.=104.604553m. Speed=11.484000m/h.</desc>
<speed>3.190000</speed>
</trkpt>
<trkpt lat="56.062946" lon="26.503859">
<ele>104.651428</ele>
<time>2010-06-20T11:13:10Z</time>
<desc>lat.=56.062946, lon.=26.503859, Alt.=104.651428m. Speed=12.636000m/h.</desc>
<speed>3.510000</speed>
</trkpt>
<trkpt lat="56.062912" lon="26.503870">
<ele>104.856506</ele>
<time>2010-06-20T11:13:11Z</time>
<desc>lat.=56.062912, lon.=26.503870, Alt.=104.856506m. Speed=12.600000m/h.</desc>
<speed>3.500000</speed>
</trkpt>
<trkpt lat="56.062881" lon="26.503881">
<ele>105.065491</ele>
<time>2010-06-20T11:13:12Z</time>
<desc>lat.=56.062881, lon.=26.503881, Alt.=105.065491m. Speed=13.140000m/h.</desc>
<speed>3.650000</speed>
</trkpt>
<trkpt lat="56.062847" lon="26.503887">
<ele>105.149475</ele>
<time>2010-06-20T11:13:13Z</time>
<desc>lat.=56.062847, lon.=26.503887, Alt.=105.149475m. Speed=13.644000m/h.</desc>
<speed>3.790000</speed>
</trkpt>
<trkpt lat="56.062813" lon="26.503891">
<ele>105.409241</ele>
<time>2010-06-20T11:13:14Z</time>
<desc>lat.=56.062813, lon.=26.503891, Alt.=105.409241m. Speed=12.888000m/h.</desc>
<speed>3.580000</speed>
</trkpt>
<trkpt lat="56.062778" lon="26.503891">
<ele>105.301819</ele>
<time>2010-06-20T11:13:15Z</time>
<desc>lat.=56.062778, lon.=26.503891, Alt.=105.301819m. Speed=13.464000m/h.</desc>
<speed>3.740000</speed>
</trkpt>
<trkpt lat="56.062748" lon="26.503891">
<ele>105.221741</ele>
<time>2010-06-20T11:13:16Z</time>
<desc>lat.=56.062748, lon.=26.503891, Alt.=105.221741m. Speed=12.960000m/h.</desc>
<speed>3.600000</speed>
</trkpt>
<trkpt lat="56.062714" lon="26.503887">
<ele>105.190491</ele>
<time>2010-06-20T11:13:17Z</time>
<desc>lat.=56.062714, lon.=26.503887, Alt.=105.190491m. Speed=12.600000m/h.</desc>
<speed>3.500000</speed>
</trkpt>
<trkpt lat="56.062687" lon="26.503885">
<ele>105.077209</ele>
<time>2010-06-20T11:13:18Z</time>
<desc>lat.=56.062687, lon.=26.503885, Alt.=105.077209m. Speed=13.176000m/h.</desc>
<speed>3.660000</speed>
</trkpt>
<trkpt lat="56.062653" lon="26.503881">
<ele>105.030334</ele>
<time>2010-06-20T11:13:19Z</time>
<desc>lat.=56.062653, lon.=26.503881, Alt.=105.030334m. Speed=12.888000m/h.</desc>
<speed>3.580000</speed>
</trkpt>
<trkpt lat="56.062622" lon="26.503878">
<ele>105.096741</ele>
<time>2010-06-20T11:13:20Z</time>
<desc>lat.=56.062622, lon.=26.503878, Alt.=105.096741m. Speed=12.060000m/h.</desc>
<speed>3.350000</speed>
</trkpt>
<trkpt lat="56.062592" lon="26.503866">
<ele>105.231506</ele>
<time>2010-06-20T11:13:21Z</time>
<desc>lat.=56.062592, lon.=26.503866, Alt.=105.231506m. Speed=11.592000m/h.</desc>
<speed>3.220000</speed>
</trkpt>
<trkpt lat="56.062561" lon="26.503860">
<ele>105.149475</ele>
<time>2010-06-20T11:13:22Z</time>
<desc>lat.=56.062561, lon.=26.503860, Alt.=105.149475m. Speed=11.520000m/h.</desc>
<speed>3.200000</speed>
</trkpt>
<trkpt lat="56.062534" lon="26.503857">
<ele>105.290100</ele>
<time>2010-06-20T11:13:23Z</time>
<desc>lat.=56.062534, lon.=26.503857, Alt.=105.290100m. Speed=10.764000m/h.</desc>
<speed>2.990000</speed>
</trkpt>
<trkpt lat="56.062511" lon="26.503847">
<ele>105.364319</ele>
<time>2010-06-20T11:13:24Z</time>
<desc>lat.=56.062511, lon.=26.503847, Alt.=105.364319m. Speed=10.368000m/h.</desc>
<speed>2.880000</speed>
</trkpt>
<trkpt lat="56.062485" lon="26.503839">
<ele>105.471741</ele>
<time>2010-06-20T11:13:25Z</time>
<desc>lat.=56.062485, lon.=26.503839, Alt.=105.471741m. Speed=10.368000m/h.</desc>
<speed>2.880000</speed>
</trkpt>
<trkpt lat="56.062458" lon="26.503832">
<ele>105.729553</ele>
<time>2010-06-20T11:13:26Z</time>
<desc>lat.=56.062458, lon.=26.503832, Alt.=105.729553m. Speed=10.584000m/h.</desc>
<speed>2.940000</speed>
</trkpt>
<trkpt lat="56.062431" lon="26.503826">
<ele>106.090881</ele>
<time>2010-06-20T11:13:27Z</time>
<desc>lat.=56.062431, lon.=26.503826, Alt.=106.090881m. Speed=10.368000m/h.</desc>
<speed>2.880000</speed>
</trkpt>
<trkpt lat="56.062401" lon="26.503822">
<ele>105.805725</ele>
<time>2010-06-20T11:13:28Z</time>
<desc>lat.=56.062401, lon.=26.503822, Alt.=105.805725m. Speed=11.304000m/h.</desc>
<speed>3.140000</speed>
</trkpt>
<trkpt lat="56.062370" lon="26.503820">
<ele>105.465881</ele>
<time>2010-06-20T11:13:29Z</time>
<desc>lat.=56.062370, lon.=26.503820, Alt.=105.465881m. Speed=11.592000m/h.</desc>
<speed>3.220000</speed>
</trkpt>
<trkpt lat="56.062344" lon="26.503826">
<ele>105.245178</ele>
<time>2010-06-20T11:13:30Z</time>
<desc>lat.=56.062344, lon.=26.503826, Alt.=105.245178m. Speed=11.844000m/h.</desc>
<speed>3.290000</speed>
</trkpt>
<trkpt lat="56.062309" lon="26.503826">
<ele>105.038147</ele>
<time>2010-06-20T11:13:31Z</time>
<desc>lat.=56.062309, lon.=26.503826, Alt.=105.038147m. Speed=11.844000m/h.</desc>
<speed>3.290000</speed>
</trkpt>
<trkpt lat="56.062279" lon="26.503822">
<ele>104.817444</ele>
<time>2010-06-20T11:13:32Z</time>
<desc>lat.=56.062279, lon.=26.503822, Alt.=104.817444m. Speed=12.312000m/h.</desc>
<speed>3.420000</speed>
</trkpt>
<trkpt lat="56.062248" lon="26.503817">
<ele>104.622131</ele>
<time>2010-06-20T11:13:33Z</time>
<desc>lat.=56.062248, lon.=26.503817, Alt.=104.622131m. Speed=12.024000m/h.</desc>
<speed>3.340000</speed>
</trkpt>
<trkpt lat="56.062214" lon="26.503809">
<ele>104.501038</ele>
<time>2010-06-20T11:13:34Z</time>
<desc>lat.=56.062214, lon.=26.503809, Alt.=104.501038m. Speed=12.564000m/h.</desc>
<speed>3.490000</speed>
</trkpt>
<trkpt lat="56.062180" lon="26.503805">
<ele>104.491272</ele>
<time>2010-06-20T11:13:35Z</time>
<desc>lat.=56.062180, lon.=26.503805, Alt.=104.491272m. Speed=12.492000m/h.</desc>
<speed>3.470000</speed>
</trkpt>
<trkpt lat="56.062149" lon="26.503796">
<ele>104.227600</ele>
<time>2010-06-20T11:13:36Z</time>
<desc>lat.=56.062149, lon.=26.503796, Alt.=104.227600m. Speed=12.816000m/h.</desc>
<speed>3.560000</speed>
</trkpt>
<trkpt lat="56.062119" lon="26.503786">
<ele>104.077209</ele>
<time>2010-06-20T11:13:37Z</time>
<desc>lat.=56.062119, lon.=26.503786, Alt.=104.077209m. Speed=12.816000m/h.</desc>
<speed>3.560000</speed>
</trkpt>
<trkpt lat="56.062088" lon="26.503780">
<ele>103.600647</ele>
<time>2010-06-20T11:13:38Z</time>
<desc>lat.=56.062088, lon.=26.503780, Alt.=103.600647m. Speed=12.780000m/h.</desc>
<speed>3.550000</speed>
</trkpt>
<trkpt lat="56.062057" lon="26.503778">
<ele>102.965881</ele>
<time>2010-06-20T11:13:39Z</time>
<desc>lat.=56.062057, lon.=26.503778, Alt.=102.965881m. Speed=12.816000m/h.</desc>
<speed>3.560000</speed>
</trkpt>
<trkpt lat="56.062027" lon="26.503777">
<ele>102.694397</ele>
<time>2010-06-20T11:13:40Z</time>
<desc>lat.=56.062027, lon.=26.503777, Alt.=102.694397m. Speed=12.780000m/h.</desc>
<speed>3.550000</speed>
</trkpt>
<trkpt lat="56.061993" lon="26.503767">
<ele>101.458069</ele>
<time>2010-06-20T11:13:41Z</time>
<desc>lat.=56.061993, lon.=26.503767, Alt.=101.458069m. Speed=13.032000m/h.</desc>
<speed>3.620000</speed>
</trkpt>
<trkpt lat="56.061958" lon="26.503756">
<ele>100.954163</ele>
<time>2010-06-20T11:13:42Z</time>
<desc>lat.=56.061958, lon.=26.503756, Alt.=100.954163m. Speed=12.816000m/h.</desc>
<speed>3.560000</speed>
</trkpt>
<trkpt lat="56.061928" lon="26.503750">
<ele>101.221741</ele>
<time>2010-06-20T11:13:43Z</time>
<desc>lat.=56.061928, lon.=26.503750, Alt.=101.221741m. Speed=12.492000m/h.</desc>
<speed>3.470000</speed>
</trkpt>
<trkpt lat="56.061897" lon="26.503744">
<ele>102.268616</ele>
<time>2010-06-20T11:13:44Z</time>
<desc>lat.=56.061897, lon.=26.503744, Alt.=102.268616m. Speed=11.772000m/h.</desc>
<speed>3.270000</speed>
</trkpt>
<trkpt lat="56.061867" lon="26.503746">
<ele>101.108459</ele>
<time>2010-06-20T11:13:45Z</time>
<desc>lat.=56.061867, lon.=26.503746, Alt.=101.108459m. Speed=11.268000m/h.</desc>
<speed>3.130000</speed>
</trkpt>
<trkpt lat="56.061836" lon="26.503744">
<ele>101.270569</ele>
<time>2010-06-20T11:13:46Z</time>
<desc>lat.=56.061836, lon.=26.503744, Alt.=101.270569m. Speed=10.512000m/h.</desc>
<speed>2.920000</speed>
</trkpt>
<trkpt lat="56.061810" lon="26.503744">
<ele>100.965881</ele>
<time>2010-06-20T11:13:47Z</time>
<desc>lat.=56.061810, lon.=26.503744, Alt.=100.965881m. Speed=10.260000m/h.</desc>
<speed>2.850000</speed>
</trkpt>
<trkpt lat="56.061779" lon="26.503738">
<ele>101.805725</ele>
<time>2010-06-20T11:13:48Z</time>
<desc>lat.=56.061779, lon.=26.503738, Alt.=101.805725m. Speed=10.872000m/h.</desc>
<speed>3.020000</speed>
</trkpt>
<trkpt lat="56.061752" lon="26.503733">
<ele>101.870178</ele>
<time>2010-06-20T11:13:49Z</time>
<desc>lat.=56.061752, lon.=26.503733, Alt.=101.870178m. Speed=11.124000m/h.</desc>
<speed>3.090000</speed>
</trkpt>
<trkpt lat="56.061722" lon="26.503725">
<ele>102.288147</ele>
<time>2010-06-20T11:13:50Z</time>
<desc>lat.=56.061722, lon.=26.503725, Alt.=102.288147m. Speed=11.772000m/h.</desc>
<speed>3.270000</speed>
</trkpt>
<trkpt lat="56.061687" lon="26.503719">
<ele>103.018616</ele>
<time>2010-06-20T11:13:51Z</time>
<desc>lat.=56.061687, lon.=26.503719, Alt.=103.018616m. Speed=12.312000m/h.</desc>
<speed>3.420000</speed>
</trkpt>
<trkpt lat="56.061657" lon="26.503716">
<ele>104.598694</ele>
<time>2010-06-20T11:13:52Z</time>
<desc>lat.=56.061657, lon.=26.503716, Alt.=104.598694m. Speed=12.924000m/h.</desc>
<speed>3.590000</speed>
</trkpt>
<trkpt lat="56.061623" lon="26.503717">
<ele>105.038147</ele>
<time>2010-06-20T11:13:53Z</time>
<desc>lat.=56.061623, lon.=26.503717, Alt.=105.038147m. Speed=13.752000m/h.</desc>
<speed>3.820000</speed>
</trkpt>
<trkpt lat="56.061588" lon="26.503719">
<ele>105.190491</ele>
<time>2010-06-20T11:13:54Z</time>
<desc>lat.=56.061588, lon.=26.503719, Alt.=105.190491m. Speed=14.040000m/h.</desc>
<speed>3.900000</speed>
</trkpt>
<trkpt lat="56.061550" lon="26.503727">
<ele>105.706116</ele>
<time>2010-06-20T11:13:55Z</time>
<desc>lat.=56.061550, lon.=26.503727, Alt.=105.706116m. Speed=14.292000m/h.</desc>
<speed>3.970000</speed>
</trkpt>
<trkpt lat="56.061520" lon="26.503742">
<ele>104.596741</ele>
<time>2010-06-20T11:13:56Z</time>
<desc>lat.=56.061520, lon.=26.503742, Alt.=104.596741m. Speed=14.040000m/h.</desc>
<speed>3.900000</speed>
</trkpt>
<trkpt lat="56.061485" lon="26.503757">
<ele>104.145569</ele>
<time>2010-06-20T11:13:57Z</time>
<desc>lat.=56.061485, lon.=26.503757, Alt.=104.145569m. Speed=14.472000m/h.</desc>
<speed>4.020000</speed>
</trkpt>
<trkpt lat="56.061447" lon="26.503778">
<ele>104.104553</ele>
<time>2010-06-20T11:13:58Z</time>
<desc>lat.=56.061447, lon.=26.503778, Alt.=104.104553m. Speed=14.328000m/h.</desc>
<speed>3.980000</speed>
</trkpt>
<trkpt lat="56.061413" lon="26.503796">
<ele>103.952209</ele>
<time>2010-06-20T11:13:59Z</time>
<desc>lat.=56.061413, lon.=26.503796, Alt.=103.952209m. Speed=13.932000m/h.</desc>
<speed>3.870000</speed>
</trkpt>
<trkpt lat="56.061378" lon="26.503820">
<ele>103.510803</ele>
<time>2010-06-20T11:14:00Z</time>
<desc>lat.=56.061378, lon.=26.503820, Alt.=103.510803m. Speed=14.076000m/h.</desc>
<speed>3.910000</speed>
</trkpt>
<trkpt lat="56.061348" lon="26.503841">
<ele>103.075256</ele>
<time>2010-06-20T11:14:01Z</time>
<desc>lat.=56.061348, lon.=26.503841, Alt.=103.075256m. Speed=13.608000m/h.</desc>
<speed>3.780000</speed>
</trkpt>
<trkpt lat="56.061314" lon="26.503862">
<ele>101.811584</ele>
<time>2010-06-20T11:14:02Z</time>
<desc>lat.=56.061314, lon.=26.503862, Alt.=101.811584m. Speed=13.176000m/h.</desc>
<speed>3.660000</speed>
</trkpt>
<trkpt lat="56.061287" lon="26.503893">
<ele>101.348694</ele>
<time>2010-06-20T11:14:03Z</time>
<desc>lat.=56.061287, lon.=26.503893, Alt.=101.348694m. Speed=11.808000m/h.</desc>
<speed>3.280000</speed>
</trkpt>
<trkpt lat="56.061264" lon="26.503918">
<ele>101.352600</ele>
<time>2010-06-20T11:14:04Z</time>
<desc>lat.=56.061264, lon.=26.503918, Alt.=101.352600m. Speed=11.196000m/h.</desc>
<speed>3.110000</speed>
</trkpt>
<trkpt lat="56.061237" lon="26.503944">
<ele>100.551819</ele>
<time>2010-06-20T11:14:05Z</time>
<desc>lat.=56.061237, lon.=26.503944, Alt.=100.551819m. Speed=10.332000m/h.</desc>
<speed>2.870000</speed>
</trkpt>
<trkpt lat="56.061214" lon="26.503958">
<ele>100.557678</ele>
<time>2010-06-20T11:14:06Z</time>
<desc>lat.=56.061214, lon.=26.503958, Alt.=100.557678m. Speed=10.152000m/h.</desc>
<speed>2.820000</speed>
</trkpt>
<trkpt lat="56.061195" lon="26.503967">
<ele>101.038147</ele>
<time>2010-06-20T11:14:07Z</time>
<desc>lat.=56.061195, lon.=26.503967, Alt.=101.038147m. Speed=9.252000m/h.</desc>
<speed>2.570000</speed>
</trkpt>
<trkpt lat="56.061176" lon="26.503986">
<ele>101.106506</ele>
<time>2010-06-20T11:14:08Z</time>
<desc>lat.=56.061176, lon.=26.503986, Alt.=101.106506m. Speed=9.000000m/h.</desc>
<speed>2.500000</speed>
</trkpt>
<trkpt lat="56.061153" lon="26.503998">
<ele>100.846741</ele>
<time>2010-06-20T11:14:09Z</time>
<desc>lat.=56.061153, lon.=26.503998, Alt.=100.846741m. Speed=8.064000m/h.</desc>
<speed>2.240000</speed>
</trkpt>
<trkpt lat="56.061134" lon="26.504011">
<ele>100.831116</ele>
<time>2010-06-20T11:14:10Z</time>
<desc>lat.=56.061134, lon.=26.504011, Alt.=100.831116m. Speed=8.532000m/h.</desc>
<speed>2.370000</speed>
</trkpt>
<trkpt lat="56.061119" lon="26.504023">
<ele>100.950256</ele>
<time>2010-06-20T11:14:11Z</time>
<desc>lat.=56.061119, lon.=26.504023, Alt.=100.950256m. Speed=6.984000m/h.</desc>
<speed>1.940000</speed>
</trkpt>
<trkpt lat="56.061100" lon="26.504028">
<ele>100.948303</ele>
<time>2010-06-20T11:14:12Z</time>
<desc>lat.=56.061100, lon.=26.504028, Alt.=100.948303m. Speed=6.552000m/h.</desc>
<speed>1.820000</speed>
</trkpt>
<trkpt lat="56.061085" lon="26.504032">
<ele>101.151428</ele>
<time>2010-06-20T11:14:13Z</time>
<desc>lat.=56.061085, lon.=26.504032, Alt.=101.151428m. Speed=5.904000m/h.</desc>
<speed>1.640000</speed>
</trkpt>
<trkpt lat="56.061069" lon="26.504036">
<ele>100.528381</ele>
<time>2010-06-20T11:14:14Z</time>
<desc>lat.=56.061069, lon.=26.504036, Alt.=100.528381m. Speed=6.660000m/h.</desc>
<speed>1.850000</speed>
</trkpt>
<trkpt lat="56.061050" lon="26.504036">
<ele>100.350647</ele>
<time>2010-06-20T11:14:15Z</time>
<desc>lat.=56.061050, lon.=26.504036, Alt.=100.350647m. Speed=5.364000m/h.</desc>
<speed>1.490000</speed>
</trkpt>
<trkpt lat="56.061035" lon="26.504025">
<ele>100.524475</ele>
<time>2010-06-20T11:14:16Z</time>
<desc>lat.=56.061035, lon.=26.504025, Alt.=100.524475m. Speed=3.780000m/h.</desc>
<speed>1.050000</speed>
</trkpt>
<trkpt lat="56.061024" lon="26.504019">
<ele>100.721741</ele>
<time>2010-06-20T11:14:17Z</time>
<desc>lat.=56.061024, lon.=26.504019, Alt.=100.721741m. Speed=2.880000m/h.</desc>
<speed>0.800000</speed>
</trkpt>
<trkpt lat="56.061016" lon="26.504021">
<ele>100.333069</ele>
<time>2010-06-20T11:14:18Z</time>
<desc>lat.=56.061016, lon.=26.504021, Alt.=100.333069m. Speed=3.852000m/h.</desc>
<speed>1.070000</speed>
</trkpt>
<trkpt lat="56.061008" lon="26.504007">
<ele>100.477600</ele>
<time>2010-06-20T11:14:19Z</time>
<desc>lat.=56.061008, lon.=26.504007, Alt.=100.477600m. Speed=5.220000m/h.</desc>
<speed>1.450000</speed>
</trkpt>
<trkpt lat="56.061001" lon="26.503992">
<ele>100.553772</ele>
<time>2010-06-20T11:14:20Z</time>
<desc>lat.=56.061001, lon.=26.503992, Alt.=100.553772m. Speed=4.356000m/h.</desc>
<speed>1.210000</speed>
</trkpt>
<trkpt lat="56.060997" lon="26.503973">
<ele>100.596741</ele>
<time>2010-06-20T11:14:21Z</time>
<desc>lat.=56.060997, lon.=26.503973, Alt.=100.596741m. Speed=5.076000m/h.</desc>
<speed>1.410000</speed>
</trkpt>
<trkpt lat="56.060997" lon="26.503958">
<ele>100.524475</ele>
<time>2010-06-20T11:14:22Z</time>
<desc>lat.=56.060997, lon.=26.503958, Alt.=100.524475m. Speed=3.456000m/h.</desc>
<speed>0.960000</speed>
</trkpt>
<trkpt lat="56.060997" lon="26.503946">
<ele>100.752991</ele>
<time>2010-06-20T11:14:23Z</time>
<desc>lat.=56.060997, lon.=26.503946, Alt.=100.752991m. Speed=0.972000m/h.</desc>
<speed>0.270000</speed>
</trkpt>
<trkpt lat="56.061001" lon="26.503939">
<ele>100.891663</ele>
<time>2010-06-20T11:14:24Z</time>
<desc>lat.=56.061001, lon.=26.503939, Alt.=100.891663m. Speed=0.216000m/h.</desc>
<speed>0.060000</speed>
</trkpt>
<trkpt lat="56.061001" lon="26.503939">
<ele>101.223694</ele>
<time>2010-06-20T11:14:25Z</time>
<desc>lat.=56.061001, lon.=26.503939, Alt.=101.223694m. Speed=0.144000m/h.</desc>
<speed>0.040000</speed>
</trkpt>
<trkpt lat="56.061005" lon="26.503939">
<ele>101.221741</ele>
<time>2010-06-20T11:14:26Z</time>
<desc>lat.=56.061005, lon.=26.503939, Alt.=101.221741m. Speed=0.144000m/h.</desc>
<speed>0.040000</speed>
</trkpt>
<trkpt lat="56.061005" lon="26.503937">
<ele>101.223694</ele>
<time>2010-06-20T11:14:27Z</time>
<desc>lat.=56.061005, lon.=26.503937, Alt.=101.223694m. Speed=0.396000m/h.</desc>
<speed>0.110000</speed>
</trkpt>
<trkpt lat="56.061001" lon="26.503939">
<ele>101.219788</ele>
<time>2010-06-20T11:14:28Z</time>
<desc>lat.=56.061001, lon.=26.503939, Alt.=101.219788m. Speed=0.504000m/h.</desc>
<speed>0.140000</speed>
</trkpt>
<trkpt lat="56.061005" lon="26.503941">
<ele>101.213928</ele>
<time>2010-06-20T11:14:29Z</time>
<desc>lat.=56.061005, lon.=26.503941, Alt.=101.213928m. Speed=0.036000m/h.</desc>
<speed>0.010000</speed>
</trkpt>
<trkpt lat="56.061005" lon="26.503941">
<ele>101.221741</ele>
<time>2010-06-20T11:14:30Z</time>
<desc>lat.=56.061005, lon.=26.503941, Alt.=101.221741m. Speed=0.000000m/h.</desc>
<speed>0.000000</speed>
</trkpt>
<trkpt lat="56.061005" lon="26.503941">
<ele>101.196350</ele>
<time>2010-06-20T11:14:31Z</time>
<desc>lat.=56.061005, lon.=26.503941, Alt.=101.196350m. Speed=0.000000m/h.</desc>
<speed>0.000000</speed>
</trkpt>
<trkpt lat="56.061005" lon="26.503941">
<ele>101.172913</ele>
<time>2010-06-20T11:14:32Z</time>
<desc>lat.=56.061005, lon.=26.503941, Alt.=101.172913m. Speed=0.000000m/h.</desc>
<speed>0.000000</speed>
</trkpt>
<trkpt lat="56.061005" lon="26.503941">
<ele>101.153381</ele>
<time>2010-06-20T11:14:33Z</time>
<desc>lat.=56.061005, lon.=26.503941, Alt.=101.153381m. Speed=0.000000m/h.</desc>
<speed>0.000000</speed>
</trkpt>
<trkpt lat="56.061005" lon="26.503941">
<ele>101.127991</ele>
<time>2010-06-20T11:14:34Z</time>
<desc>lat.=56.061005, lon.=26.503941, Alt.=101.127991m. Speed=0.000000m/h.</desc>
<speed>0.000000</speed>
</trkpt>
<trkpt lat="56.061005" lon="26.503941">
<ele>101.116272</ele>
<time>2010-06-20T11:14:35Z</time>
<desc>lat.=56.061005, lon.=26.503941, Alt.=101.116272m. Speed=0.000000m/h.</desc>
<speed>0.000000</speed>
</trkpt>
<trkpt lat="56.061005" lon="26.503941">
<ele>101.102600</ele>
<time>2010-06-20T11:14:36Z</time>
<desc>lat.=56.061005, lon.=26.503941, Alt.=101.102600m. Speed=0.000000m/h.</desc>
<speed>0.000000</speed>
</trkpt>
<trkpt lat="56.061005" lon="26.503941">
<ele>101.100647</ele>
<time>2010-06-20T11:14:37Z</time>
<desc>lat.=56.061005, lon.=26.503941, Alt.=101.100647m. Speed=0.000000m/h.</desc>
<speed>0.000000</speed>
</trkpt>
<trkpt lat="56.061005" lon="26.503941">
<ele>101.094788</ele>
<time>2010-06-20T11:14:38Z</time>
<desc>lat.=56.061005, lon.=26.503941, Alt.=101.094788m. Speed=0.036000m/h.</desc>
<speed>0.010000</speed>
</trkpt>
<trkpt lat="56.061005" lon="26.503941">
<ele>101.085022</ele>
<time>2010-06-20T11:14:39Z</time>
<desc>lat.=56.061005, lon.=26.503941, Alt.=101.085022m. Speed=0.036000m/h.</desc>
<speed>0.010000</speed>
</trkpt>
<trkpt lat="56.061005" lon="26.503941">
<ele>101.079163</ele>
<time>2010-06-20T11:14:40Z</time>
<desc>lat.=56.061005, lon.=26.503941, Alt.=101.079163m. Speed=0.036000m/h.</desc>
<speed>0.010000</speed>
</trkpt>
<trkpt lat="56.061005" lon="26.503941">
<ele>101.065491</ele>
<time>2010-06-20T11:14:41Z</time>
<desc>lat.=56.061005, lon.=26.503941, Alt.=101.065491m. Speed=0.108000m/h.</desc>
<speed>0.030000</speed>
</trkpt>
<trkpt lat="56.061005" lon="26.503941">
<ele>101.053772</ele>
<time>2010-06-20T11:14:42Z</time>
<desc>lat.=56.061005, lon.=26.503941, Alt.=101.053772m. Speed=0.864000m/h.</desc>
<speed>0.240000</speed>
</trkpt>
<trkpt lat="56.061001" lon="26.503941">
<ele>101.127991</ele>
<time>2010-06-20T11:14:43Z</time>
<desc>lat.=56.061001, lon.=26.503941, Alt.=101.127991m. Speed=0.288000m/h.</desc>
<speed>0.080000</speed>
</trkpt>
<trkpt lat="56.061001" lon="26.503941">
<ele>101.186584</ele>
<time>2010-06-20T11:14:44Z</time>
<desc>lat.=56.061001, lon.=26.503941, Alt.=101.186584m. Speed=0.288000m/h.</desc>
<speed>0.080000</speed>
</trkpt>
<trkpt lat="56.061001" lon="26.503941">
<ele>101.213928</ele>
<time>2010-06-20T11:14:45Z</time>
<desc>lat.=56.061001, lon.=26.503941, Alt.=101.213928m. Speed=0.504000m/h.</desc>
<speed>0.140000</speed>
</trkpt>
<trkpt lat="56.061001" lon="26.503939">
<ele>101.213928</ele>
<time>2010-06-20T11:14:46Z</time>
<desc>lat.=56.061001, lon.=26.503939, Alt.=101.213928m. Speed=0.504000m/h.</desc>
<speed>0.140000</speed>
</trkpt>
<trkpt lat="56.061001" lon="26.503937">
<ele>101.204163</ele>
<time>2010-06-20T11:14:47Z</time>
<desc>lat.=56.061001, lon.=26.503937, Alt.=101.204163m. Speed=0.288000m/h.</desc>
<speed>0.080000</speed>
</trkpt>
<trkpt lat="56.060997" lon="26.503935">
<ele>101.161194</ele>
<time>2010-06-20T11:14:48Z</time>
<desc>lat.=56.060997, lon.=26.503935, Alt.=101.161194m. Speed=0.000000m/h.</desc>
<speed>0.000000</speed>
</trkpt>
<trkpt lat="56.060997" lon="26.503935">
<ele>101.153381</ele>
<time>2010-06-20T11:14:49Z</time>
<desc>lat.=56.060997, lon.=26.503935, Alt.=101.153381m. Speed=0.000000m/h.</desc>
<speed>0.000000</speed>
</trkpt>
<trkpt lat="56.060997" lon="26.503935">
<ele>101.139709</ele>
<time>2010-06-20T11:14:50Z</time>
<desc>lat.=56.060997, lon.=26.503935, Alt.=101.139709m. Speed=0.000000m/h.</desc>
<speed>0.000000</speed>
</trkpt>
<trkpt lat="56.060997" lon="26.503935">
<ele>101.137756</ele>
<time>2010-06-20T11:14:51Z</time>
<desc>lat.=56.060997, lon.=26.503935, Alt.=101.137756m. Speed=0.036000m/h.</desc>
<speed>0.010000</speed>
</trkpt>
<trkpt lat="56.060997" lon="26.503935">
<ele>101.118225</ele>
<time>2010-06-20T11:14:52Z</time>
<desc>lat.=56.060997, lon.=26.503935, Alt.=101.118225m. Speed=0.000000m/h.</desc>
<speed>0.000000</speed>
</trkpt>
<trkpt lat="56.060997" lon="26.503935">
<ele>101.118225</ele>
<time>2010-06-20T11:14:53Z</time>
<desc>lat.=56.060997, lon.=26.503935, Alt.=101.118225m. Speed=0.036000m/h.</desc>
<speed>0.010000</speed>
</trkpt>
<trkpt lat="56.060997" lon="26.503935">
<ele>101.112366</ele>
<time>2010-06-20T11:14:54Z</time>
<desc>lat.=56.060997, lon.=26.503935, Alt.=101.112366m. Speed=0.000000m/h.</desc>
<speed>0.000000</speed>
</trkpt>
<trkpt lat="56.060997" lon="26.503935">
<ele>101.094788</ele>
<time>2010-06-20T11:14:55Z</time>
<desc>lat.=56.060997, lon.=26.503935, Alt.=101.094788m. Speed=0.000000m/h.</desc>
<speed>0.000000</speed>
</trkpt>
<trkpt lat="56.060997" lon="26.503935">
<ele>101.085022</ele>
<time>2010-06-20T11:14:56Z</time>
<desc>lat.=56.060997, lon.=26.503935, Alt.=101.085022m. Speed=0.036000m/h.</desc>
<speed>0.010000</speed>
</trkpt>
<trkpt lat="56.060997" lon="26.503935">
<ele>101.055725</ele>
<time>2010-06-20T11:14:57Z</time>
<desc>lat.=56.060997, lon.=26.503935, Alt.=101.055725m. Speed=0.036000m/h.</desc>
<speed>0.010000</speed>
</trkpt>
<trkpt lat="56.060997" lon="26.503935">
<ele>101.034241</ele>
<time>2010-06-20T11:14:58Z</time>
<desc>lat.=56.060997, lon.=26.503935, Alt.=101.034241m. Speed=0.036000m/h.</desc>
<speed>0.010000</speed>
</trkpt>
<trkpt lat="56.060997" lon="26.503935">
<ele>101.032288</ele>
<time>2010-06-20T11:14:59Z</time>
<desc>lat.=56.060997, lon.=26.503935, Alt.=101.032288m. Speed=0.252000m/h.</desc>
<speed>0.070000</speed>
</trkpt>
<trkpt lat="56.060997" lon="26.503935">
<ele>101.030334</ele>
<time>2010-06-20T11:15:00Z</time>
<desc>lat.=56.060997, lon.=26.503935, Alt.=101.030334m. Speed=0.036000m/h.</desc>
<speed>0.010000</speed>
</trkpt>
<trkpt lat="56.060997" lon="26.503935">
<ele>101.030334</ele>
<time>2010-06-20T11:15:01Z</time>
<desc>lat.=56.060997, lon.=26.503935, Alt.=101.030334m. Speed=0.000000m/h.</desc>
<speed>0.000000</speed>
</trkpt>
<trkpt lat="56.060997" lon="26.503935">
<ele>101.030334</ele>
<time>2010-06-20T11:15:02Z</time>
<desc>lat.=56.060997, lon.=26.503935, Alt.=101.030334m. Speed=0.036000m/h.</desc>
<speed>0.010000</speed>
</trkpt>
<trkpt lat="56.060997" lon="26.503935">
<ele>101.028381</ele>
<time>2010-06-20T11:15:03Z</time>
<desc>lat.=56.060997, lon.=26.503935, Alt.=101.028381m. Speed=0.036000m/h.</desc>
<speed>0.010000</speed>
</trkpt>
<trkpt lat="56.060997" lon="26.503935">
<ele>101.030334</ele>
<time>2010-06-20T11:15:04Z</time>
<desc>lat.=56.060997, lon.=26.503935, Alt.=101.030334m. Speed=0.036000m/h.</desc>
<speed>0.010000</speed>
</trkpt>
<trkpt lat="56.060997" lon="26.503935">
<ele>101.030334</ele>
<time>2010-06-20T11:15:05Z</time>
<desc>lat.=56.060997, lon.=26.503935, Alt.=101.030334m. Speed=0.000000m/h.</desc>
<speed>0.000000</speed>
</trkpt>
<trkpt lat="56.060997" lon="26.503935">
<ele>101.032288</ele>
<time>2010-06-20T11:15:06Z</time>
<desc>lat.=56.060997, lon.=26.503935, Alt.=101.032288m. Speed=0.036000m/h.</desc>
<speed>0.010000</speed>
</trkpt>
<trkpt lat="56.060997" lon="26.503935">
<ele>101.032288</ele>
<time>2010-06-20T11:15:07Z</time>
<desc>lat.=56.060997, lon.=26.503935, Alt.=101.032288m. Speed=0.000000m/h.</desc>
<speed>0.000000</speed>
</trkpt>
<trkpt lat="56.060997" lon="26.503935">
<ele>101.032288</ele>
<time>2010-06-20T11:15:08Z</time>
<desc>lat.=56.060997, lon.=26.503935, Alt.=101.032288m. Speed=0.000000m/h.</desc>
<speed>0.000000</speed>
</trkpt>
<trkpt lat="56.060997" lon="26.503935">
<ele>101.034241</ele>
<time>2010-06-20T11:15:09Z</time>
<desc>lat.=56.060997, lon.=26.503935, Alt.=101.034241m. Speed=0.000000m/h.</desc>
<speed>0.000000</speed>
</trkpt>
<trkpt lat="56.060997" lon="26.503935">
<ele>101.034241</ele>
<time>2010-06-20T11:15:10Z</time>
<desc>lat.=56.060997, lon.=26.503935, Alt.=101.034241m. Speed=0.000000m/h.</desc>
<speed>0.000000</speed>
</trkpt>
<trkpt lat="56.060997" lon="26.503935">
<ele>101.036194</ele>
<time>2010-06-20T11:15:11Z</time>
<desc>lat.=56.060997, lon.=26.503935, Alt.=101.036194m. Speed=0.036000m/h.</desc>
<speed>0.010000</speed>
</trkpt>
<trkpt lat="56.060997" lon="26.503935">
<ele>101.038147</ele>
<time>2010-06-20T11:15:12Z</time>
<desc>lat.=56.060997, lon.=26.503935, Alt.=101.038147m. Speed=0.000000m/h.</desc>
<speed>0.000000</speed>
</trkpt>
<trkpt lat="56.060997" lon="26.503935">
<ele>101.040100</ele>
<time>2010-06-20T11:15:13Z</time>
<desc>lat.=56.060997, lon.=26.503935, Alt.=101.040100m. Speed=0.000000m/h.</desc>
<speed>0.000000</speed>
</trkpt>
<trkpt lat="56.060997" lon="26.503935">
<ele>101.045959</ele>
<time>2010-06-20T11:15:14Z</time>
<desc>lat.=56.060997, lon.=26.503935, Alt.=101.045959m. Speed=0.036000m/h.</desc>
<speed>0.010000</speed>
</trkpt>
<trkpt lat="56.060997" lon="26.503935">
<ele>101.051819</ele>
<time>2010-06-20T11:15:15Z</time>
<desc>lat.=56.060997, lon.=26.503935, Alt.=101.051819m. Speed=0.036000m/h.</desc>
<speed>0.010000</speed>
</trkpt>
<trkpt lat="56.060997" lon="26.503935">
<ele>101.057678</ele>
<time>2010-06-20T11:15:16Z</time>
<desc>lat.=56.060997, lon.=26.503935, Alt.=101.057678m. Speed=0.000000m/h.</desc>
<speed>0.000000</speed>
</trkpt>
<trkpt lat="56.060997" lon="26.503935">
<ele>101.061584</ele>
<time>2010-06-20T11:15:17Z</time>
<desc>lat.=56.060997, lon.=26.503935, Alt.=101.061584m. Speed=0.036000m/h.</desc>
<speed>0.010000</speed>
</trkpt>
<trkpt lat="56.060997" lon="26.503935">
<ele>101.069397</ele>
<time>2010-06-20T11:15:18Z</time>
<desc>lat.=56.060997, lon.=26.503935, Alt.=101.069397m. Speed=0.036000m/h.</desc>
<speed>0.010000</speed>
</trkpt>
<trkpt lat="56.060997" lon="26.503935">
<ele>101.073303</ele>
<time>2010-06-20T11:15:19Z</time>
<desc>lat.=56.060997, lon.=26.503935, Alt.=101.073303m. Speed=0.000000m/h.</desc>
<speed>0.000000</speed>
</trkpt>
<trkpt lat="56.060997" lon="26.503935">
<ele>101.079163</ele>
<time>2010-06-20T11:15:20Z</time>
<desc>lat.=56.060997, lon.=26.503935, Alt.=101.079163m. Speed=0.000000m/h.</desc>
<speed>0.000000</speed>
</trkpt>
<trkpt lat="56.060997" lon="26.503935">
<ele>101.086975</ele>
<time>2010-06-20T11:15:21Z</time>
<desc>lat.=56.060997, lon.=26.503935, Alt.=101.086975m. Speed=0.000000m/h.</desc>
<speed>0.000000</speed>
</trkpt>
<trkpt lat="56.060997" lon="26.503935">
<ele>101.094788</ele>
<time>2010-06-20T11:15:22Z</time>
<desc>lat.=56.060997, lon.=26.503935, Alt.=101.094788m. Speed=0.036000m/h.</desc>
<speed>0.010000</speed>
</trkpt>
<trkpt lat="56.060997" lon="26.503935">
<ele>101.098694</ele>
<time>2010-06-20T11:15:23Z</time>
<desc>lat.=56.060997, lon.=26.503935, Alt.=101.098694m. Speed=0.000000m/h.</desc>
<speed>0.000000</speed>
</trkpt>
<trkpt lat="56.060997" lon="26.503935">
<ele>101.102600</ele>
<time>2010-06-20T11:15:24Z</time>
<desc>lat.=56.060997, lon.=26.503935, Alt.=101.102600m. Speed=0.072000m/h.</desc>
<speed>0.020000</speed>
</trkpt>
<trkpt lat="56.060997" lon="26.503935">
<ele>101.106506</ele>
<time>2010-06-20T11:15:25Z</time>
<desc>lat.=56.060997, lon.=26.503935, Alt.=101.106506m. Speed=0.000000m/h.</desc>
<speed>0.000000</speed>
</trkpt>
<trkpt lat="56.060997" lon="26.503935">
<ele>101.108459</ele>
<time>2010-06-20T11:15:26Z</time>
<desc>lat.=56.060997, lon.=26.503935, Alt.=101.108459m. Speed=0.504000m/h.</desc>
<speed>0.140000</speed>
</trkpt>
<trkpt lat="56.060997" lon="26.503935">
<ele>101.108459</ele>
<time>2010-06-20T11:15:27Z</time>
<desc>lat.=56.060997, lon.=26.503935, Alt.=101.108459m. Speed=0.504000m/h.</desc>
<speed>0.140000</speed>
</trkpt>
<trkpt lat="56.060997" lon="26.503935">
<ele>101.067444</ele>
<time>2010-06-20T11:15:28Z</time>
<desc>lat.=56.060997, lon.=26.503935, Alt.=101.067444m. Speed=0.540000m/h.</desc>
<speed>0.150000</speed>
</trkpt>
<trkpt lat="56.061001" lon="26.503937">
<ele>101.030334</ele>
<time>2010-06-20T11:15:29Z</time>
<desc>lat.=56.061001, lon.=26.503937, Alt.=101.030334m. Speed=0.576000m/h.</desc>
<speed>0.160000</speed>
</trkpt>
<trkpt lat="56.061001" lon="26.503939">
<ele>100.995178</ele>
<time>2010-06-20T11:15:30Z</time>
<desc>lat.=56.061001, lon.=26.503939, Alt.=100.995178m. Speed=0.576000m/h.</desc>
<speed>0.160000</speed>
</trkpt>
<trkpt lat="56.061001" lon="26.503941">
<ele>100.960022</ele>
<time>2010-06-20T11:15:31Z</time>
<desc>lat.=56.061001, lon.=26.503941, Alt.=100.960022m. Speed=0.576000m/h.</desc>
<speed>0.160000</speed>
</trkpt>
<trkpt lat="56.061001" lon="26.503944">
<ele>100.924866</ele>
<time>2010-06-20T11:15:32Z</time>
<desc>lat.=56.061001, lon.=26.503944, Alt.=100.924866m. Speed=0.540000m/h.</desc>
<speed>0.150000</speed>
</trkpt>
<trkpt lat="56.061005" lon="26.503946">
<ele>100.885803</ele>
<time>2010-06-20T11:15:33Z</time>
<desc>lat.=56.061005, lon.=26.503946, Alt.=100.885803m. Speed=0.504000m/h.</desc>
<speed>0.140000</speed>
</trkpt>
<trkpt lat="56.061005" lon="26.503948">
<ele>100.844788</ele>
<time>2010-06-20T11:15:34Z</time>
<desc>lat.=56.061005, lon.=26.503948, Alt.=100.844788m. Speed=0.072000m/h.</desc>
<speed>0.020000</speed>
</trkpt>
<trkpt lat="56.061005" lon="26.503948">
<ele>100.784241</ele>
<time>2010-06-20T11:15:35Z</time>
<desc>lat.=56.061005, lon.=26.503948, Alt.=100.784241m. Speed=0.000000m/h.</desc>
<speed>0.000000</speed>
</trkpt>
<trkpt lat="56.061005" lon="26.503948">
<ele>100.727600</ele>
<time>2010-06-20T11:15:36Z</time>
<desc>lat.=56.061005, lon.=26.503948, Alt.=100.727600m. Speed=0.072000m/h.</desc>
<speed>0.020000</speed>
</trkpt>
<trkpt lat="56.061005" lon="26.503948">
<ele>100.676819</ele>
<time>2010-06-20T11:15:37Z</time>
<desc>lat.=56.061005, lon.=26.503948, Alt.=100.676819m. Speed=0.072000m/h.</desc>
<speed>0.020000</speed>
</trkpt>
<trkpt lat="56.061005" lon="26.503946">
<ele>100.629944</ele>
<time>2010-06-20T11:15:38Z</time>
<desc>lat.=56.061005, lon.=26.503946, Alt.=100.629944m. Speed=0.072000m/h.</desc>
<speed>0.020000</speed>
</trkpt>
<trkpt lat="56.061005" lon="26.503946">
<ele>100.585022</ele>
<time>2010-06-20T11:15:39Z</time>
<desc>lat.=56.061005, lon.=26.503946, Alt.=100.585022m. Speed=0.072000m/h.</desc>
<speed>0.020000</speed>
</trkpt>
<trkpt lat="56.061005" lon="26.503946">
<ele>100.581116</ele>
<time>2010-06-20T11:15:40Z</time>
<desc>lat.=56.061005, lon.=26.503946, Alt.=100.581116m. Speed=0.072000m/h.</desc>
<speed>0.020000</speed>
</trkpt>
<trkpt lat="56.061005" lon="26.503946">
<ele>100.575256</ele>
<time>2010-06-20T11:15:41Z</time>
<desc>lat.=56.061005, lon.=26.503946, Alt.=100.575256m. Speed=0.360000m/h.</desc>
<speed>0.100000</speed>
</trkpt>
<trkpt lat="56.061005" lon="26.503946">
<ele>100.586975</ele>
<time>2010-06-20T11:15:42Z</time>
<desc>lat.=56.061005, lon.=26.503946, Alt.=100.586975m. Speed=0.648000m/h.</desc>
<speed>0.180000</speed>
</trkpt>
<trkpt lat="56.061005" lon="26.503946">
<ele>100.590881</ele>
<time>2010-06-20T11:15:43Z</time>
<desc>lat.=56.061005, lon.=26.503946, Alt.=100.590881m. Speed=0.036000m/h.</desc>
<speed>0.010000</speed>
</trkpt>
<trkpt lat="56.061005" lon="26.503946">
<ele>100.596741</ele>
<time>2010-06-20T11:15:44Z</time>
<desc>lat.=56.061005, lon.=26.503946, Alt.=100.596741m. Speed=0.360000m/h.</desc>
<speed>0.100000</speed>
</trkpt>
<trkpt lat="56.061005" lon="26.503944">
<ele>100.612366</ele>
<time>2010-06-20T11:15:45Z</time>
<desc>lat.=56.061005, lon.=26.503944, Alt.=100.612366m. Speed=0.324000m/h.</desc>
<speed>0.090000</speed>
</trkpt>
<trkpt lat="56.061001" lon="26.503946">
<ele>100.639709</ele>
<time>2010-06-20T11:15:46Z</time>
<desc>lat.=56.061001, lon.=26.503946, Alt.=100.639709m. Speed=0.720000m/h.</desc>
<speed>0.200000</speed>
</trkpt>
<trkpt lat="56.061001" lon="26.503946">
<ele>100.665100</ele>
<time>2010-06-20T11:15:47Z</time>
<desc>lat.=56.061001, lon.=26.503946, Alt.=100.665100m. Speed=3.528000m/h.</desc>
<speed>0.980000</speed>
</trkpt>
<trkpt lat="56.060993" lon="26.503960">
<ele>100.694397</ele>
<time>2010-06-20T11:15:48Z</time>
<desc>lat.=56.060993, lon.=26.503960, Alt.=100.694397m. Speed=4.500000m/h.</desc>
<speed>1.250000</speed>
</trkpt>
<trkpt lat="56.060989" lon="26.503977">
<ele>100.622131</ele>
<time>2010-06-20T11:15:49Z</time>
<desc>lat.=56.060989, lon.=26.503977, Alt.=100.622131m. Speed=3.924000m/h.</desc>
<speed>1.090000</speed>
</trkpt>
<trkpt lat="56.060989" lon="26.503992">
<ele>100.563538</ele>
<time>2010-06-20T11:15:50Z</time>
<desc>lat.=56.060989, lon.=26.503992, Alt.=100.563538m. Speed=2.808000m/h.</desc>
<speed>0.780000</speed>
</trkpt>
<trkpt lat="56.060989" lon="26.503998">
<ele>100.239319</ele>
<time>2010-06-20T11:15:51Z</time>
<desc>lat.=56.060989, lon.=26.503998, Alt.=100.239319m. Speed=2.160000m/h.</desc>
<speed>0.600000</speed>
</trkpt>
<trkpt lat="56.060993" lon="26.504017">
<ele>100.313538</ele>
<time>2010-06-20T11:15:52Z</time>
<desc>lat.=56.060993, lon.=26.504017, Alt.=100.313538m. Speed=4.896000m/h.</desc>
<speed>1.360000</speed>
</trkpt>
<trkpt lat="56.061005" lon="26.504023">
<ele>100.196350</ele>
<time>2010-06-20T11:15:53Z</time>
<desc>lat.=56.061005, lon.=26.504023, Alt.=100.196350m. Speed=3.348000m/h.</desc>
<speed>0.930000</speed>
</trkpt>
<trkpt lat="56.061012" lon="26.504047">
<ele>100.174866</ele>
<time>2010-06-20T11:15:54Z</time>
<desc>lat.=56.061012, lon.=26.504047, Alt.=100.174866m. Speed=5.544000m/h.</desc>
<speed>1.540000</speed>
</trkpt>
<trkpt lat="56.061024" lon="26.504059">
<ele>100.188538</ele>
<time>2010-06-20T11:15:55Z</time>
<desc>lat.=56.061024, lon.=26.504059, Alt.=100.188538m. Speed=6.300000m/h.</desc>
<speed>1.750000</speed>
</trkpt>
<trkpt lat="56.061031" lon="26.504076">
<ele>100.143616</ele>
<time>2010-06-20T11:15:56Z</time>
<desc>lat.=56.061031, lon.=26.504076, Alt.=100.143616m. Speed=6.156000m/h.</desc>
<speed>1.710000</speed>
</trkpt>
<trkpt lat="56.061050" lon="26.504095">
<ele>99.891663</ele>
<time>2010-06-20T11:15:57Z</time>
<desc>lat.=56.061050, lon.=26.504095, Alt.=99.891663m. Speed=7.308000m/h.</desc>
<speed>2.030000</speed>
</trkpt>
<trkpt lat="56.061062" lon="26.504116">
<ele>99.858459</ele>
<time>2010-06-20T11:15:58Z</time>
<desc>lat.=56.061062, lon.=26.504116, Alt.=99.858459m. Speed=8.064000m/h.</desc>
<speed>2.240000</speed>
</trkpt>
<trkpt lat="56.061069" lon="26.504139">
<ele>100.042053</ele>
<time>2010-06-20T11:15:59Z</time>
<desc>lat.=56.061069, lon.=26.504139, Alt.=100.042053m. Speed=6.840000m/h.</desc>
<speed>1.900000</speed>
</trkpt>
<trkpt lat="56.061081" lon="26.504158">
<ele>100.204163</ele>
<time>2010-06-20T11:16:00Z</time>
<desc>lat.=56.061081, lon.=26.504158, Alt.=100.204163m. Speed=5.652000m/h.</desc>
<speed>1.570000</speed>
</trkpt>
<trkpt lat="56.061089" lon="26.504166">
<ele>100.495178</ele>
<time>2010-06-20T11:16:01Z</time>
<desc>lat.=56.061089, lon.=26.504166, Alt.=100.495178m. Speed=4.752000m/h.</desc>
<speed>1.320000</speed>
</trkpt>
<trkpt lat="56.061096" lon="26.504187">
<ele>100.479553</ele>
<time>2010-06-20T11:16:02Z</time>
<desc>lat.=56.061096, lon.=26.504187, Alt.=100.479553m. Speed=4.896000m/h.</desc>
<speed>1.360000</speed>
</trkpt>
<trkpt lat="56.061096" lon="26.504206">
<ele>100.079163</ele>
<time>2010-06-20T11:16:03Z</time>
<desc>lat.=56.061096, lon.=26.504206, Alt.=100.079163m. Speed=4.572000m/h.</desc>
<speed>1.270000</speed>
</trkpt>
<trkpt lat="56.061100" lon="26.504232">
<ele>99.245178</ele>
<time>2010-06-20T11:16:04Z</time>
<desc>lat.=56.061100, lon.=26.504232, Alt.=99.245178m. Speed=4.464000m/h.</desc>
<speed>1.240000</speed>
</trkpt>
<trkpt lat="56.061100" lon="26.504253">
<ele>98.721741</ele>
<time>2010-06-20T11:16:05Z</time>
<desc>lat.=56.061100, lon.=26.504253, Alt.=98.721741m. Speed=3.492000m/h.</desc>
<speed>0.970000</speed>
</trkpt>
<trkpt lat="56.061100" lon="26.504276">
<ele>98.352600</ele>
<time>2010-06-20T11:16:06Z</time>
<desc>lat.=56.061100, lon.=26.504276, Alt.=98.352600m. Speed=3.564000m/h.</desc>
<speed>0.990000</speed>
</trkpt>
<trkpt lat="56.061108" lon="26.504297">
<ele>98.362366</ele>
<time>2010-06-20T11:16:07Z</time>
<desc>lat.=56.061108, lon.=26.504297, Alt.=98.362366m. Speed=3.996000m/h.</desc>
<speed>1.110000</speed>
</trkpt>
<trkpt lat="56.061108" lon="26.504318">
<ele>97.942444</ele>
<time>2010-06-20T11:16:08Z</time>
<desc>lat.=56.061108, lon.=26.504318, Alt.=97.942444m. Speed=5.580000m/h.</desc>
<speed>1.550000</speed>
</trkpt>
<trkpt lat="56.061115" lon="26.504343">
<ele>97.536194</ele>
<time>2010-06-20T11:16:09Z</time>
<desc>lat.=56.061115, lon.=26.504343, Alt.=97.536194m. Speed=5.688000m/h.</desc>
<speed>1.580000</speed>
</trkpt>
<trkpt lat="56.061123" lon="26.504362">
<ele>97.381897</ele>
<time>2010-06-20T11:16:10Z</time>
<desc>lat.=56.061123, lon.=26.504362, Alt.=97.381897m. Speed=4.824000m/h.</desc>
<speed>1.340000</speed>
</trkpt>
<trkpt lat="56.061127" lon="26.504377">
<ele>97.294006</ele>
<time>2010-06-20T11:16:11Z</time>
<desc>lat.=56.061127, lon.=26.504377, Alt.=97.294006m. Speed=5.076000m/h.</desc>
<speed>1.410000</speed>
</trkpt>
<trkpt lat="56.061138" lon="26.504398">
<ele>97.391663</ele>
<time>2010-06-20T11:16:12Z</time>
<desc>lat.=56.061138, lon.=26.504398, Alt.=97.391663m. Speed=6.372000m/h.</desc>
<speed>1.770000</speed>
</trkpt>
<trkpt lat="56.061150" lon="26.504425">
<ele>97.249084</ele>
<time>2010-06-20T11:16:13Z</time>
<desc>lat.=56.061150, lon.=26.504425, Alt.=97.249084m. Speed=7.020000m/h.</desc>
<speed>1.950000</speed>
</trkpt>
<trkpt lat="56.061161" lon="26.504448">
<ele>97.241272</ele>
<time>2010-06-20T11:16:14Z</time>
<desc>lat.=56.061161, lon.=26.504448, Alt.=97.241272m. Speed=5.868000m/h.</desc>
<speed>1.630000</speed>
</trkpt>
<trkpt lat="56.061172" lon="26.504473">
<ele>97.114319</ele>
<time>2010-06-20T11:16:15Z</time>
<desc>lat.=56.061172, lon.=26.504473, Alt.=97.114319m. Speed=6.408000m/h.</desc>
<speed>1.780000</speed>
</trkpt>
<trkpt lat="56.061192" lon="26.504494">
<ele>97.081116</ele>
<time>2010-06-20T11:16:16Z</time>
<desc>lat.=56.061192, lon.=26.504494, Alt.=97.081116m. Speed=7.092000m/h.</desc>
<speed>1.970000</speed>
</trkpt>
<trkpt lat="56.061199" lon="26.504522">
<ele>96.745178</ele>
<time>2010-06-20T11:16:17Z</time>
<desc>lat.=56.061199, lon.=26.504522, Alt.=96.745178m. Speed=9.036000m/h.</desc>
<speed>2.510000</speed>
</trkpt>
<trkpt lat="56.061218" lon="26.504557">
<ele>96.778381</ele>
<time>2010-06-20T11:16:18Z</time>
<desc>lat.=56.061218, lon.=26.504557, Alt.=96.778381m. Speed=8.172000m/h.</desc>
<speed>2.270000</speed>
</trkpt>
<trkpt lat="56.061237" lon="26.504585">
<ele>97.432678</ele>
<time>2010-06-20T11:16:19Z</time>
<desc>lat.=56.061237, lon.=26.504585, Alt.=97.432678m. Speed=7.956000m/h.</desc>
<speed>2.210000</speed>
</trkpt>
<trkpt lat="56.061249" lon="26.504610">
<ele>97.711975</ele>
<time>2010-06-20T11:16:20Z</time>
<desc>lat.=56.061249, lon.=26.504610, Alt.=97.711975m. Speed=7.416000m/h.</desc>
<speed>2.060000</speed>
</trkpt>
<trkpt lat="56.061253" lon="26.504637">
<ele>98.252991</ele>
<time>2010-06-20T11:16:21Z</time>
<desc>lat.=56.061253, lon.=26.504637, Alt.=98.252991m. Speed=7.056000m/h.</desc>
<speed>1.960000</speed>
</trkpt>
<trkpt lat="56.061268" lon="26.504669">
<ele>98.786194</ele>
<time>2010-06-20T11:16:22Z</time>
<desc>lat.=56.061268, lon.=26.504669, Alt.=98.786194m. Speed=8.136000m/h.</desc>
<speed>2.260000</speed>
</trkpt>
<trkpt lat="56.061291" lon="26.504692">
<ele>99.350647</ele>
<time>2010-06-20T11:16:23Z</time>
<desc>lat.=56.061291, lon.=26.504692, Alt.=99.350647m. Speed=8.388000m/h.</desc>
<speed>2.330000</speed>
</trkpt>
<trkpt lat="56.061310" lon="26.504725">
<ele>100.444397</ele>
<time>2010-06-20T11:16:24Z</time>
<desc>lat.=56.061310, lon.=26.504725, Alt.=100.444397m. Speed=8.460000m/h.</desc>
<speed>2.350000</speed>
</trkpt>
<trkpt lat="56.061317" lon="26.504761">
<ele>100.553772</ele>
<time>2010-06-20T11:16:25Z</time>
<desc>lat.=56.061317, lon.=26.504761, Alt.=100.553772m. Speed=8.856000m/h.</desc>
<speed>2.460000</speed>
</trkpt>
<trkpt lat="56.061333" lon="26.504799">
<ele>100.608459</ele>
<time>2010-06-20T11:16:26Z</time>
<desc>lat.=56.061333, lon.=26.504799, Alt.=100.608459m. Speed=10.044000m/h.</desc>
<speed>2.790000</speed>
</trkpt>
<trkpt lat="56.061344" lon="26.504843">
<ele>101.571350</ele>
<time>2010-06-20T11:16:27Z</time>
<desc>lat.=56.061344, lon.=26.504843, Alt.=101.571350m. Speed=10.260000m/h.</desc>
<speed>2.850000</speed>
</trkpt>
<trkpt lat="56.061356" lon="26.504883">
<ele>101.840881</ele>
<time>2010-06-20T11:16:28Z</time>
<desc>lat.=56.061356, lon.=26.504883, Alt.=101.840881m. Speed=10.188000m/h.</desc>
<speed>2.830000</speed>
</trkpt>
<trkpt lat="56.061367" lon="26.504925">
<ele>102.180725</ele>
<time>2010-06-20T11:16:29Z</time>
<desc>lat.=56.061367, lon.=26.504925, Alt.=102.180725m. Speed=10.116000m/h.</desc>
<speed>2.810000</speed>
</trkpt>
<trkpt lat="56.061382" lon="26.504965">
<ele>102.870178</ele>
<time>2010-06-20T11:16:30Z</time>
<desc>lat.=56.061382, lon.=26.504965, Alt.=102.870178m. Speed=11.124000m/h.</desc>
<speed>3.090000</speed>
</trkpt>
<trkpt lat="56.061398" lon="26.505007">
<ele>103.194397</ele>
<time>2010-06-20T11:16:31Z</time>
<desc>lat.=56.061398, lon.=26.505007, Alt.=103.194397m. Speed=11.088000m/h.</desc>
<speed>3.080000</speed>
</trkpt>
<trkpt lat="56.061409" lon="26.505051">
<ele>103.446350</ele>
<time>2010-06-20T11:16:32Z</time>
<desc>lat.=56.061409, lon.=26.505051, Alt.=103.446350m. Speed=10.260000m/h.</desc>
<speed>2.850000</speed>
</trkpt>
<trkpt lat="56.061420" lon="26.505098">
<ele>103.313538</ele>
<time>2010-06-20T11:16:33Z</time>
<desc>lat.=56.061420, lon.=26.505098, Alt.=103.313538m. Speed=11.520000m/h.</desc>
<speed>3.200000</speed>
</trkpt>
<trkpt lat="56.061440" lon="26.505148">
<ele>104.210022</ele>
<time>2010-06-20T11:16:34Z</time>
<desc>lat.=56.061440, lon.=26.505148, Alt.=104.210022m. Speed=12.240000m/h.</desc>
<speed>3.400000</speed>
</trkpt>
<trkpt lat="56.061455" lon="26.505203">
<ele>104.319397</ele>
<time>2010-06-20T11:16:35Z</time>
<desc>lat.=56.061455, lon.=26.505203, Alt.=104.319397m. Speed=11.988000m/h.</desc>
<speed>3.330000</speed>
</trkpt>
<trkpt lat="56.061466" lon="26.505251">
<ele>104.963928</ele>
<time>2010-06-20T11:16:36Z</time>
<desc>lat.=56.061466, lon.=26.505251, Alt.=104.963928m. Speed=12.744000m/h.</desc>
<speed>3.540000</speed>
</trkpt>
<trkpt lat="56.061485" lon="26.505304">
<ele>106.020569</ele>
<time>2010-06-20T11:16:37Z</time>
<desc>lat.=56.061485, lon.=26.505304, Alt.=106.020569m. Speed=13.608000m/h.</desc>
<speed>3.780000</speed>
</trkpt>
<trkpt lat="56.061504" lon="26.505358">
<ele>106.596741</ele>
<time>2010-06-20T11:16:38Z</time>
<desc>lat.=56.061504, lon.=26.505358, Alt.=106.596741m. Speed=14.436000m/h.</desc>
<speed>4.010000</speed>
</trkpt>
<trkpt lat="56.061523" lon="26.505411">
<ele>107.327209</ele>
<time>2010-06-20T11:16:39Z</time>
<desc>lat.=56.061523, lon.=26.505411, Alt.=107.327209m. Speed=13.788000m/h.</desc>
<speed>3.830000</speed>
</trkpt>
<trkpt lat="56.061539" lon="26.505470">
<ele>108.088928</ele>
<time>2010-06-20T11:16:40Z</time>
<desc>lat.=56.061539, lon.=26.505470, Alt.=108.088928m. Speed=13.716000m/h.</desc>
<speed>3.810000</speed>
</trkpt>
<trkpt lat="56.061550" lon="26.505522">
<ele>106.278381</ele>
<time>2010-06-20T11:16:41Z</time>
<desc>lat.=56.061550, lon.=26.505522, Alt.=106.278381m. Speed=14.688000m/h.</desc>
<speed>4.080000</speed>
</trkpt>
<trkpt lat="56.061565" lon="26.505579">
<ele>105.995178</ele>
<time>2010-06-20T11:16:42Z</time>
<desc>lat.=56.061565, lon.=26.505579, Alt.=105.995178m. Speed=14.472000m/h.</desc>
<speed>4.020000</speed>
</trkpt>
<trkpt lat="56.061577" lon="26.505636">
<ele>105.868225</ele>
<time>2010-06-20T11:16:43Z</time>
<desc>lat.=56.061577, lon.=26.505636, Alt.=105.868225m. Speed=13.788000m/h.</desc>
<speed>3.830000</speed>
</trkpt>
<trkpt lat="56.061596" lon="26.505690">
<ele>105.553772</ele>
<time>2010-06-20T11:16:44Z</time>
<desc>lat.=56.061596, lon.=26.505690, Alt.=105.553772m. Speed=13.608000m/h.</desc>
<speed>3.780000</speed>
</trkpt>
<trkpt lat="56.061615" lon="26.505749">
<ele>105.315491</ele>
<time>2010-06-20T11:16:45Z</time>
<desc>lat.=56.061615, lon.=26.505749, Alt.=105.315491m. Speed=15.516000m/h.</desc>
<speed>4.310000</speed>
</trkpt>
<trkpt lat="56.061634" lon="26.505810">
<ele>105.047913</ele>
<time>2010-06-20T11:16:46Z</time>
<desc>lat.=56.061634, lon.=26.505810, Alt.=105.047913m. Speed=14.184000m/h.</desc>
<speed>3.940000</speed>
</trkpt>
<trkpt lat="56.061653" lon="26.505863">
<ele>104.795959</ele>
<time>2010-06-20T11:16:47Z</time>
<desc>lat.=56.061653, lon.=26.505863, Alt.=104.795959m. Speed=12.996000m/h.</desc>
<speed>3.610000</speed>
</trkpt>
<trkpt lat="56.061668" lon="26.505909">
<ele>104.301819</ele>
<time>2010-06-20T11:16:48Z</time>
<desc>lat.=56.061668, lon.=26.505909, Alt.=104.301819m. Speed=11.700000m/h.</desc>
<speed>3.250000</speed>
</trkpt>
<trkpt lat="56.061687" lon="26.505959">
<ele>104.194397</ele>
<time>2010-06-20T11:16:49Z</time>
<desc>lat.=56.061687, lon.=26.505959, Alt.=104.194397m. Speed=12.816000m/h.</desc>
<speed>3.560000</speed>
</trkpt>
<trkpt lat="56.061703" lon="26.506010">
<ele>104.110413</ele>
<time>2010-06-20T11:16:50Z</time>
<desc>lat.=56.061703, lon.=26.506010, Alt.=104.110413m. Speed=12.384000m/h.</desc>
<speed>3.440000</speed>
</trkpt>
<trkpt lat="56.061718" lon="26.506069">
<ele>104.126038</ele>
<time>2010-06-20T11:16:51Z</time>
<desc>lat.=56.061718, lon.=26.506069, Alt.=104.126038m. Speed=14.004000m/h.</desc>
<speed>3.890000</speed>
</trkpt>
<trkpt lat="56.061733" lon="26.506126">
<ele>104.239319</ele>
<time>2010-06-20T11:16:52Z</time>
<desc>lat.=56.061733, lon.=26.506126, Alt.=104.239319m. Speed=15.084000m/h.</desc>
<speed>4.190000</speed>
</trkpt>
<trkpt lat="56.061749" lon="26.506187">
<ele>104.471741</ele>
<time>2010-06-20T11:16:53Z</time>
<desc>lat.=56.061749, lon.=26.506187, Alt.=104.471741m. Speed=14.508000m/h.</desc>
<speed>4.030000</speed>
</trkpt>
<trkpt lat="56.061764" lon="26.506245">
<ele>104.815491</ele>
<time>2010-06-20T11:16:54Z</time>
<desc>lat.=56.061764, lon.=26.506245, Alt.=104.815491m. Speed=14.292000m/h.</desc>
<speed>3.970000</speed>
</trkpt>
<trkpt lat="56.061779" lon="26.506306">
<ele>104.868225</ele>
<time>2010-06-20T11:16:55Z</time>
<desc>lat.=56.061779, lon.=26.506306, Alt.=104.868225m. Speed=15.120000m/h.</desc>
<speed>4.200000</speed>
</trkpt>
<trkpt lat="56.061798" lon="26.506365">
<ele>104.842834</ele>
<time>2010-06-20T11:16:56Z</time>
<desc>lat.=56.061798, lon.=26.506365, Alt.=104.842834m. Speed=14.688000m/h.</desc>
<speed>4.080000</speed>
</trkpt>
<trkpt lat="56.061813" lon="26.506422">
<ele>104.276428</ele>
<time>2010-06-20T11:16:57Z</time>
<desc>lat.=56.061813, lon.=26.506422, Alt.=104.276428m. Speed=13.788000m/h.</desc>
<speed>3.830000</speed>
</trkpt>
<trkpt lat="56.061832" lon="26.506477">
<ele>106.211975</ele>
<time>2010-06-20T11:16:58Z</time>
<desc>lat.=56.061832, lon.=26.506477, Alt.=106.211975m. Speed=11.952000m/h.</desc>
<speed>3.320000</speed>
</trkpt>
<trkpt lat="56.061844" lon="26.506533">
<ele>106.581116</ele>
<time>2010-06-20T11:16:59Z</time>
<desc>lat.=56.061844, lon.=26.506533, Alt.=106.581116m. Speed=13.248000m/h.</desc>
<speed>3.680000</speed>
</trkpt>
<trkpt lat="56.061867" lon="26.506588">
<ele>107.020569</ele>
<time>2010-06-20T11:17:00Z</time>
<desc>lat.=56.061867, lon.=26.506588, Alt.=107.020569m. Speed=12.528000m/h.</desc>
<speed>3.480000</speed>
</trkpt>
<trkpt lat="56.061882" lon="26.506636">
<ele>107.198303</ele>
<time>2010-06-20T11:17:01Z</time>
<desc>lat.=56.061882, lon.=26.506636, Alt.=107.198303m. Speed=11.268000m/h.</desc>
<speed>3.130000</speed>
</trkpt>
<trkpt lat="56.061897" lon="26.506676">
<ele>107.399475</ele>
<time>2010-06-20T11:17:02Z</time>
<desc>lat.=56.061897, lon.=26.506676, Alt.=107.399475m. Speed=10.008000m/h.</desc>
<speed>2.780000</speed>
</trkpt>
<trkpt lat="56.061913" lon="26.506714">
<ele>107.780334</ele>
<time>2010-06-20T11:17:03Z</time>
<desc>lat.=56.061913, lon.=26.506714, Alt.=107.780334m. Speed=10.440000m/h.</desc>
<speed>2.900000</speed>
</trkpt>
<trkpt lat="56.061932" lon="26.506756">
<ele>108.626038</ele>
<time>2010-06-20T11:17:04Z</time>
<desc>lat.=56.061932, lon.=26.506756, Alt.=108.626038m. Speed=10.368000m/h.</desc>
<speed>2.880000</speed>
</trkpt>
<trkpt lat="56.061943" lon="26.506798">
<ele>109.110413</ele>
<time>2010-06-20T11:17:05Z</time>
<desc>lat.=56.061943, lon.=26.506798, Alt.=109.110413m. Speed=10.908000m/h.</desc>
<speed>3.030000</speed>
</trkpt>
<trkpt lat="56.061954" lon="26.506849">
<ele>109.356506</ele>
<time>2010-06-20T11:17:06Z</time>
<desc>lat.=56.061954, lon.=26.506849, Alt.=109.356506m. Speed=11.520000m/h.</desc>
<speed>3.200000</speed>
</trkpt>
<trkpt lat="56.061966" lon="26.506901">
<ele>109.362366</ele>
<time>2010-06-20T11:17:07Z</time>
<desc>lat.=56.061966, lon.=26.506901, Alt.=109.362366m. Speed=12.528000m/h.</desc>
<speed>3.480000</speed>
</trkpt>
<trkpt lat="56.061970" lon="26.506960">
<ele>109.581116</ele>
<time>2010-06-20T11:17:08Z</time>
<desc>lat.=56.061970, lon.=26.506960, Alt.=109.581116m. Speed=12.024000m/h.</desc>
<speed>3.340000</speed>
</trkpt>
<trkpt lat="56.061977" lon="26.507015">
<ele>109.768616</ele>
<time>2010-06-20T11:17:09Z</time>
<desc>lat.=56.061977, lon.=26.507015, Alt.=109.768616m. Speed=12.348000m/h.</desc>
<speed>3.430000</speed>
</trkpt>
<trkpt lat="56.061985" lon="26.507072">
<ele>109.243225</ele>
<time>2010-06-20T11:17:10Z</time>
<desc>lat.=56.061985, lon.=26.507072, Alt.=109.243225m. Speed=13.104000m/h.</desc>
<speed>3.640000</speed>
</trkpt>
<trkpt lat="56.061996" lon="26.507126">
<ele>109.245178</ele>
<time>2010-06-20T11:17:11Z</time>
<desc>lat.=56.061996, lon.=26.507126, Alt.=109.245178m. Speed=13.176000m/h.</desc>
<speed>3.660000</speed>
</trkpt>
<trkpt lat="56.062012" lon="26.507179">
<ele>109.338928</ele>
<time>2010-06-20T11:17:12Z</time>
<desc>lat.=56.062012, lon.=26.507179, Alt.=109.338928m. Speed=14.436000m/h.</desc>
<speed>4.010000</speed>
</trkpt>
<trkpt lat="56.062023" lon="26.507233">
<ele>109.614319</ele>
<time>2010-06-20T11:17:13Z</time>
<desc>lat.=56.062023, lon.=26.507233, Alt.=109.614319m. Speed=14.256000m/h.</desc>
<speed>3.960000</speed>
</trkpt>
<trkpt lat="56.062042" lon="26.507282">
<ele>111.213928</ele>
<time>2010-06-20T11:17:14Z</time>
<desc>lat.=56.062042, lon.=26.507282, Alt.=111.213928m. Speed=14.616000m/h.</desc>
<speed>4.060000</speed>
</trkpt>
<trkpt lat="56.062065" lon="26.507332">
<ele>112.741272</ele>
<time>2010-06-20T11:17:15Z</time>
<desc>lat.=56.062065, lon.=26.507332, Alt.=112.741272m. Speed=14.760000m/h.</desc>
<speed>4.100000</speed>
</trkpt>
<trkpt lat="56.062084" lon="26.507389">
<ele>113.856506</ele>
<time>2010-06-20T11:17:16Z</time>
<desc>lat.=56.062084, lon.=26.507389, Alt.=113.856506m. Speed=15.516000m/h.</desc>
<speed>4.310000</speed>
</trkpt>
<trkpt lat="56.062107" lon="26.507448">
<ele>114.297913</ele>
<time>2010-06-20T11:17:17Z</time>
<desc>lat.=56.062107, lon.=26.507448, Alt.=114.297913m. Speed=14.400000m/h.</desc>
<speed>4.000000</speed>
</trkpt>
<trkpt lat="56.062126" lon="26.507509">
<ele>115.276428</ele>
<time>2010-06-20T11:17:18Z</time>
<desc>lat.=56.062126, lon.=26.507509, Alt.=115.276428m. Speed=12.996000m/h.</desc>
<speed>3.610000</speed>
</trkpt>
<trkpt lat="56.062138" lon="26.507563">
<ele>115.657288</ele>
<time>2010-06-20T11:17:19Z</time>
<desc>lat.=56.062138, lon.=26.507563, Alt.=115.657288m. Speed=13.356000m/h.</desc>
<speed>3.710000</speed>
</trkpt>
<trkpt lat="56.062145" lon="26.507612">
<ele>117.731506</ele>
<time>2010-06-20T11:17:20Z</time>
<desc>lat.=56.062145, lon.=26.507612, Alt.=117.731506m. Speed=13.500000m/h.</desc>
<speed>3.750000</speed>
</trkpt>
<trkpt lat="56.062160" lon="26.507671">
<ele>118.088928</ele>
<time>2010-06-20T11:17:21Z</time>
<desc>lat.=56.062160, lon.=26.507671, Alt.=118.088928m. Speed=14.112000m/h.</desc>
<speed>3.920000</speed>
</trkpt>
<trkpt lat="56.062180" lon="26.507730">
<ele>118.233459</ele>
<time>2010-06-20T11:17:22Z</time>
<desc>lat.=56.062180, lon.=26.507730, Alt.=118.233459m. Speed=14.940000m/h.</desc>
<speed>4.150000</speed>
</trkpt>
<trkpt lat="56.062206" lon="26.507784">
<ele>118.833069</ele>
<time>2010-06-20T11:17:23Z</time>
<desc>lat.=56.062206, lon.=26.507784, Alt.=118.833069m. Speed=15.048000m/h.</desc>
<speed>4.180000</speed>
</trkpt>
<trkpt lat="56.062225" lon="26.507843">
<ele>119.596741</ele>
<time>2010-06-20T11:17:24Z</time>
<desc>lat.=56.062225, lon.=26.507843, Alt.=119.596741m. Speed=14.868000m/h.</desc>
<speed>4.130000</speed>
</trkpt>
<trkpt lat="56.062244" lon="26.507895">
<ele>119.874084</ele>
<time>2010-06-20T11:17:25Z</time>
<desc>lat.=56.062244, lon.=26.507895, Alt.=119.874084m. Speed=13.392000m/h.</desc>
<speed>3.720000</speed>
</trkpt>
<trkpt lat="56.062263" lon="26.507944">
<ele>119.538147</ele>
<time>2010-06-20T11:17:26Z</time>
<desc>lat.=56.062263, lon.=26.507944, Alt.=119.538147m. Speed=11.484000m/h.</desc>
<speed>3.190000</speed>
</trkpt>
<trkpt lat="56.062283" lon="26.507986">
<ele>120.151428</ele>
<time>2010-06-20T11:17:27Z</time>
<desc>lat.=56.062283, lon.=26.507986, Alt.=120.151428m. Speed=10.368000m/h.</desc>
<speed>2.880000</speed>
</trkpt>
<trkpt lat="56.062298" lon="26.508022">
<ele>119.346741</ele>
<time>2010-06-20T11:17:28Z</time>
<desc>lat.=56.062298, lon.=26.508022, Alt.=119.346741m. Speed=9.540000m/h.</desc>
<speed>2.650000</speed>
</trkpt>
<trkpt lat="56.062317" lon="26.508057">
<ele>120.116272</ele>
<time>2010-06-20T11:17:29Z</time>
<desc>lat.=56.062317, lon.=26.508057, Alt.=120.116272m. Speed=10.548000m/h.</desc>
<speed>2.930000</speed>
</trkpt>
<trkpt lat="56.062336" lon="26.508093">
<ele>120.471741</ele>
<time>2010-06-20T11:17:30Z</time>
<desc>lat.=56.062336, lon.=26.508093, Alt.=120.471741m. Speed=11.592000m/h.</desc>
<speed>3.220000</speed>
</trkpt>
<trkpt lat="56.062355" lon="26.508139">
<ele>120.424866</ele>
<time>2010-06-20T11:17:31Z</time>
<desc>lat.=56.062355, lon.=26.508139, Alt.=120.424866m. Speed=12.492000m/h.</desc>
<speed>3.470000</speed>
</trkpt>
<trkpt lat="56.062378" lon="26.508188">
<ele>120.241272</ele>
<time>2010-06-20T11:17:32Z</time>
<desc>lat.=56.062378, lon.=26.508188, Alt.=120.241272m. Speed=12.888000m/h.</desc>
<speed>3.580000</speed>
</trkpt>
<trkpt lat="56.062397" lon="26.508244">
<ele>120.137756</ele>
<time>2010-06-20T11:17:33Z</time>
<desc>lat.=56.062397, lon.=26.508244, Alt.=120.137756m. Speed=13.284000m/h.</desc>
<speed>3.690000</speed>
</trkpt>
<trkpt lat="56.062412" lon="26.508295">
<ele>119.989319</ele>
<time>2010-06-20T11:17:34Z</time>
<desc>lat.=56.062412, lon.=26.508295, Alt.=119.989319m. Speed=12.312000m/h.</desc>
<speed>3.420000</speed>
</trkpt>
<trkpt lat="56.062428" lon="26.508345">
<ele>119.393616</ele>
<time>2010-06-20T11:17:35Z</time>
<desc>lat.=56.062428, lon.=26.508345, Alt.=119.393616m. Speed=11.880000m/h.</desc>
<speed>3.300000</speed>
</trkpt>
<trkpt lat="56.062447" lon="26.508390">
<ele>119.045959</ele>
<time>2010-06-20T11:17:36Z</time>
<desc>lat.=56.062447, lon.=26.508390, Alt.=119.045959m. Speed=12.204000m/h.</desc>
<speed>3.390000</speed>
</trkpt>
<trkpt lat="56.062462" lon="26.508442">
<ele>118.536194</ele>
<time>2010-06-20T11:17:37Z</time>
<desc>lat.=56.062462, lon.=26.508442, Alt.=118.536194m. Speed=12.816000m/h.</desc>
<speed>3.560000</speed>
</trkpt>
<trkpt lat="56.062481" lon="26.508492">
<ele>118.782288</ele>
<time>2010-06-20T11:17:38Z</time>
<desc>lat.=56.062481, lon.=26.508492, Alt.=118.782288m. Speed=13.356000m/h.</desc>
<speed>3.710000</speed>
</trkpt>
<trkpt lat="56.062500" lon="26.508539">
<ele>118.420959</ele>
<time>2010-06-20T11:17:39Z</time>
<desc>lat.=56.062500, lon.=26.508539, Alt.=118.420959m. Speed=12.132000m/h.</desc>
<speed>3.370000</speed>
</trkpt>
<trkpt lat="56.062519" lon="26.508587">
<ele>118.790100</ele>
<time>2010-06-20T11:17:40Z</time>
<desc>lat.=56.062519, lon.=26.508587, Alt.=118.790100m. Speed=11.664000m/h.</desc>
<speed>3.240000</speed>
</trkpt>
<trkpt lat="56.062538" lon="26.508629">
<ele>118.569397</ele>
<time>2010-06-20T11:17:41Z</time>
<desc>lat.=56.062538, lon.=26.508629, Alt.=118.569397m. Speed=10.800000m/h.</desc>
<speed>3.000000</speed>
</trkpt>
<trkpt lat="56.062553" lon="26.508663">
<ele>118.420959</ele>
<time>2010-06-20T11:17:42Z</time>
<desc>lat.=56.062553, lon.=26.508663, Alt.=118.420959m. Speed=10.476000m/h.</desc>
<speed>2.910000</speed>
</trkpt>
<trkpt lat="56.062572" lon="26.508696">
<ele>118.438538</ele>
<time>2010-06-20T11:17:43Z</time>
<desc>lat.=56.062572, lon.=26.508696, Alt.=118.438538m. Speed=11.484000m/h.</desc>
<speed>3.190000</speed>
</trkpt>
<trkpt lat="56.062592" lon="26.508736">
<ele>118.401428</ele>
<time>2010-06-20T11:17:44Z</time>
<desc>lat.=56.062592, lon.=26.508736, Alt.=118.401428m. Speed=12.276000m/h.</desc>
<speed>3.410000</speed>
</trkpt>
<trkpt lat="56.062614" lon="26.508781">
<ele>118.036194</ele>
<time>2010-06-20T11:17:45Z</time>
<desc>lat.=56.062614, lon.=26.508781, Alt.=118.036194m. Speed=13.428000m/h.</desc>
<speed>3.730000</speed>
</trkpt>
<trkpt lat="56.062634" lon="26.508833">
<ele>118.055725</ele>
<time>2010-06-20T11:17:46Z</time>
<desc>lat.=56.062634, lon.=26.508833, Alt.=118.055725m. Speed=14.076000m/h.</desc>
<speed>3.910000</speed>
</trkpt>
<trkpt lat="56.062656" lon="26.508883">
<ele>118.493225</ele>
<time>2010-06-20T11:17:47Z</time>
<desc>lat.=56.062656, lon.=26.508883, Alt.=118.493225m. Speed=13.608000m/h.</desc>
<speed>3.780000</speed>
</trkpt>
<trkpt lat="56.062679" lon="26.508924">
<ele>119.122131</ele>
<time>2010-06-20T11:17:48Z</time>
<desc>lat.=56.062679, lon.=26.508924, Alt.=119.122131m. Speed=14.184000m/h.</desc>
<speed>3.940000</speed>
</trkpt>
<trkpt lat="56.062706" lon="26.508966">
<ele>119.327209</ele>
<time>2010-06-20T11:17:49Z</time>
<desc>lat.=56.062706, lon.=26.508966, Alt.=119.327209m. Speed=13.032000m/h.</desc>
<speed>3.620000</speed>
</trkpt>
<trkpt lat="56.062729" lon="26.509007">
<ele>119.239319</ele>
<time>2010-06-20T11:17:50Z</time>
<desc>lat.=56.062729, lon.=26.509007, Alt.=119.239319m. Speed=12.708000m/h.</desc>
<speed>3.530000</speed>
</trkpt>
<trkpt lat="56.062748" lon="26.509052">
<ele>119.172913</ele>
<time>2010-06-20T11:17:51Z</time>
<desc>lat.=56.062748, lon.=26.509052, Alt.=119.172913m. Speed=12.924000m/h.</desc>
<speed>3.590000</speed>
</trkpt>
<trkpt lat="56.062771" lon="26.509096">
<ele>119.508850</ele>
<time>2010-06-20T11:17:52Z</time>
<desc>lat.=56.062771, lon.=26.509096, Alt.=119.508850m. Speed=13.284000m/h.</desc>
<speed>3.690000</speed>
</trkpt>
<trkpt lat="56.062794" lon="26.509136">
<ele>119.883850</ele>
<time>2010-06-20T11:17:53Z</time>
<desc>lat.=56.062794, lon.=26.509136, Alt.=119.883850m. Speed=12.492000m/h.</desc>
<speed>3.470000</speed>
</trkpt>
<trkpt lat="56.062813" lon="26.509171">
<ele>119.372131</ele>
<time>2010-06-20T11:17:54Z</time>
<desc>lat.=56.062813, lon.=26.509171, Alt.=119.372131m. Speed=11.088000m/h.</desc>
<speed>3.080000</speed>
</trkpt>
<trkpt lat="56.062832" lon="26.509201">
<ele>118.544006</ele>
<time>2010-06-20T11:17:55Z</time>
<desc>lat.=56.062832, lon.=26.509201, Alt.=118.544006m. Speed=9.360000m/h.</desc>
<speed>2.600000</speed>
</trkpt>
<trkpt lat="56.062843" lon="26.509228">
<ele>117.149475</ele>
<time>2010-06-20T11:17:56Z</time>
<desc>lat.=56.062843, lon.=26.509228, Alt.=117.149475m. Speed=8.352000m/h.</desc>
<speed>2.320000</speed>
</trkpt>
<trkpt lat="56.062855" lon="26.509253">
<ele>117.211975</ele>
<time>2010-06-20T11:17:57Z</time>
<desc>lat.=56.062855, lon.=26.509253, Alt.=117.211975m. Speed=7.920000m/h.</desc>
<speed>2.200000</speed>
</trkpt>
<trkpt lat="56.062862" lon="26.509277">
<ele>115.370178</ele>
<time>2010-06-20T11:17:58Z</time>
<desc>lat.=56.062862, lon.=26.509277, Alt.=115.370178m. Speed=8.352000m/h.</desc>
<speed>2.320000</speed>
</trkpt>
<trkpt lat="56.062878" lon="26.509300">
<ele>114.379944</ele>
<time>2010-06-20T11:17:59Z</time>
<desc>lat.=56.062878, lon.=26.509300, Alt.=114.379944m. Speed=8.496000m/h.</desc>
<speed>2.360000</speed>
</trkpt>
<trkpt lat="56.062893" lon="26.509325">
<ele>114.360413</ele>
<time>2010-06-20T11:18:00Z</time>
<desc>lat.=56.062893, lon.=26.509325, Alt.=114.360413m. Speed=8.064000m/h.</desc>
<speed>2.240000</speed>
</trkpt>
<trkpt lat="56.062904" lon="26.509348">
<ele>114.063538</ele>
<time>2010-06-20T11:18:01Z</time>
<desc>lat.=56.062904, lon.=26.509348, Alt.=114.063538m. Speed=7.848000m/h.</desc>
<speed>2.180000</speed>
</trkpt>
<trkpt lat="56.062923" lon="26.509371">
<ele>114.649475</ele>
<time>2010-06-20T11:18:02Z</time>
<desc>lat.=56.062923, lon.=26.509371, Alt.=114.649475m. Speed=7.848000m/h.</desc>
<speed>2.180000</speed>
</trkpt>
<trkpt lat="56.062931" lon="26.509394">
<ele>114.596741</ele>
<time>2010-06-20T11:18:03Z</time>
<desc>lat.=56.062931, lon.=26.509394, Alt.=114.596741m. Speed=5.472000m/h.</desc>
<speed>1.520000</speed>
</trkpt>
<trkpt lat="56.062939" lon="26.509417">
<ele>114.493225</ele>
<time>2010-06-20T11:18:04Z</time>
<desc>lat.=56.062939, lon.=26.509417, Alt.=114.493225m. Speed=5.904000m/h.</desc>
<speed>1.640000</speed>
</trkpt>
<trkpt lat="56.062946" lon="26.509434">
<ele>114.372131</ele>
<time>2010-06-20T11:18:05Z</time>
<desc>lat.=56.062946, lon.=26.509434, Alt.=114.372131m. Speed=5.508000m/h.</desc>
<speed>1.530000</speed>
</trkpt>
<trkpt lat="56.062958" lon="26.509453">
<ele>114.413147</ele>
<time>2010-06-20T11:18:06Z</time>
<desc>lat.=56.062958, lon.=26.509453, Alt.=114.413147m. Speed=6.336000m/h.</desc>
<speed>1.760000</speed>
</trkpt>
<trkpt lat="56.062965" lon="26.509478">
<ele>114.483459</ele>
<time>2010-06-20T11:18:07Z</time>
<desc>lat.=56.062965, lon.=26.509478, Alt.=114.483459m. Speed=7.092000m/h.</desc>
<speed>1.970000</speed>
</trkpt>
<trkpt lat="56.062973" lon="26.509510">
<ele>114.348694</ele>
<time>2010-06-20T11:18:08Z</time>
<desc>lat.=56.062973, lon.=26.509510, Alt.=114.348694m. Speed=9.720000m/h.</desc>
<speed>2.700000</speed>
</trkpt>
<trkpt lat="56.062984" lon="26.509546">
<ele>114.227600</ele>
<time>2010-06-20T11:18:09Z</time>
<desc>lat.=56.062984, lon.=26.509546, Alt.=114.227600m. Speed=9.216000m/h.</desc>
<speed>2.560000</speed>
</trkpt>
<trkpt lat="56.063000" lon="26.509579">
<ele>114.458069</ele>
<time>2010-06-20T11:18:10Z</time>
<desc>lat.=56.063000, lon.=26.509579, Alt.=114.458069m. Speed=10.332000m/h.</desc>
<speed>2.870000</speed>
</trkpt>
<trkpt lat="56.063015" lon="26.509615">
<ele>114.403381</ele>
<time>2010-06-20T11:18:11Z</time>
<desc>lat.=56.063015, lon.=26.509615, Alt.=114.403381m. Speed=11.304000m/h.</desc>
<speed>3.140000</speed>
</trkpt>
<trkpt lat="56.063034" lon="26.509663">
<ele>113.932678</ele>
<time>2010-06-20T11:18:12Z</time>
<desc>lat.=56.063034, lon.=26.509663, Alt.=113.932678m. Speed=12.672000m/h.</desc>
<speed>3.520000</speed>
</trkpt>
<trkpt lat="56.063057" lon="26.509710">
<ele>113.983459</ele>
<time>2010-06-20T11:18:13Z</time>
<desc>lat.=56.063057, lon.=26.509710, Alt.=113.983459m. Speed=13.860000m/h.</desc>
<speed>3.850000</speed>
</trkpt>
<trkpt lat="56.063080" lon="26.509756">
<ele>113.946350</ele>
<time>2010-06-20T11:18:14Z</time>
<desc>lat.=56.063080, lon.=26.509756, Alt.=113.946350m. Speed=14.472000m/h.</desc>
<speed>4.020000</speed>
</trkpt>
<trkpt lat="56.063107" lon="26.509804">
<ele>114.204163</ele>
<time>2010-06-20T11:18:15Z</time>
<desc>lat.=56.063107, lon.=26.509804, Alt.=114.204163m. Speed=15.516000m/h.</desc>
<speed>4.310000</speed>
</trkpt>
<trkpt lat="56.063133" lon="26.509859">
<ele>113.909241</ele>
<time>2010-06-20T11:18:16Z</time>
<desc>lat.=56.063133, lon.=26.509859, Alt.=113.909241m. Speed=15.264000m/h.</desc>
<speed>4.240000</speed>
</trkpt>
<trkpt lat="56.063156" lon="26.509911">
<ele>113.670959</ele>
<time>2010-06-20T11:18:17Z</time>
<desc>lat.=56.063156, lon.=26.509911, Alt.=113.670959m. Speed=14.184000m/h.</desc>
<speed>3.940000</speed>
</trkpt>
<trkpt lat="56.063183" lon="26.509953">
<ele>113.686584</ele>
<time>2010-06-20T11:18:18Z</time>
<desc>lat.=56.063183, lon.=26.509953, Alt.=113.686584m. Speed=12.924000m/h.</desc>
<speed>3.590000</speed>
</trkpt>
<trkpt lat="56.063213" lon="26.509996">
<ele>114.604553</ele>
<time>2010-06-20T11:18:19Z</time>
<desc>lat.=56.063213, lon.=26.509996, Alt.=114.604553m. Speed=13.644000m/h.</desc>
<speed>3.790000</speed>
</trkpt>
<trkpt lat="56.063240" lon="26.510046">
<ele>114.467834</ele>
<time>2010-06-20T11:18:20Z</time>
<desc>lat.=56.063240, lon.=26.510046, Alt.=114.467834m. Speed=14.220000m/h.</desc>
<speed>3.950000</speed>
</trkpt>
<trkpt lat="56.063263" lon="26.510090">
<ele>114.432678</ele>
<time>2010-06-20T11:18:21Z</time>
<desc>lat.=56.063263, lon.=26.510090, Alt.=114.432678m. Speed=14.292000m/h.</desc>
<speed>3.970000</speed>
</trkpt>
<trkpt lat="56.063286" lon="26.510132">
<ele>114.137756</ele>
<time>2010-06-20T11:18:22Z</time>
<desc>lat.=56.063286, lon.=26.510132, Alt.=114.137756m. Speed=13.140000m/h.</desc>
<speed>3.650000</speed>
</trkpt>
<trkpt lat="56.063309" lon="26.510178">
<ele>113.864319</ele>
<time>2010-06-20T11:18:23Z</time>
<desc>lat.=56.063309, lon.=26.510178, Alt.=113.864319m. Speed=13.140000m/h.</desc>
<speed>3.650000</speed>
</trkpt>
<trkpt lat="56.063332" lon="26.510227">
<ele>113.934631</ele>
<time>2010-06-20T11:18:24Z</time>
<desc>lat.=56.063332, lon.=26.510227, Alt.=113.934631m. Speed=13.788000m/h.</desc>
<speed>3.830000</speed>
</trkpt>
<trkpt lat="56.063354" lon="26.510283">
<ele>113.502991</ele>
<time>2010-06-20T11:18:25Z</time>
<desc>lat.=56.063354, lon.=26.510283, Alt.=113.502991m. Speed=14.832000m/h.</desc>
<speed>4.120000</speed>
</trkpt>
<trkpt lat="56.063377" lon="26.510330">
<ele>113.127991</ele>
<time>2010-06-20T11:18:26Z</time>
<desc>lat.=56.063377, lon.=26.510330, Alt.=113.127991m. Speed=14.184000m/h.</desc>
<speed>3.940000</speed>
</trkpt>
<trkpt lat="56.063404" lon="26.510370">
<ele>113.295959</ele>
<time>2010-06-20T11:18:27Z</time>
<desc>lat.=56.063404, lon.=26.510370, Alt.=113.295959m. Speed=13.320000m/h.</desc>
<speed>3.700000</speed>
</trkpt>
<trkpt lat="56.063427" lon="26.510412">
<ele>113.374084</ele>
<time>2010-06-20T11:18:28Z</time>
<desc>lat.=56.063427, lon.=26.510412, Alt.=113.374084m. Speed=12.240000m/h.</desc>
<speed>3.400000</speed>
</trkpt>
<trkpt lat="56.063454" lon="26.510450">
<ele>113.920959</ele>
<time>2010-06-20T11:18:29Z</time>
<desc>lat.=56.063454, lon.=26.510450, Alt.=113.920959m. Speed=11.592000m/h.</desc>
<speed>3.220000</speed>
</trkpt>
<trkpt lat="56.063477" lon="26.510489">
<ele>114.649475</ele>
<time>2010-06-20T11:18:30Z</time>
<desc>lat.=56.063477, lon.=26.510489, Alt.=114.649475m. Speed=12.348000m/h.</desc>
<speed>3.430000</speed>
</trkpt>
<trkpt lat="56.063499" lon="26.510529">
<ele>114.631897</ele>
<time>2010-06-20T11:18:31Z</time>
<desc>lat.=56.063499, lon.=26.510529, Alt.=114.631897m. Speed=13.428000m/h.</desc>
<speed>3.730000</speed>
</trkpt>
<trkpt lat="56.063526" lon="26.510567">
<ele>114.631897</ele>
<time>2010-06-20T11:18:32Z</time>
<desc>lat.=56.063526, lon.=26.510567, Alt.=114.631897m. Speed=13.572000m/h.</desc>
<speed>3.770000</speed>
</trkpt>
<trkpt lat="56.063557" lon="26.510605">
<ele>115.659241</ele>
<time>2010-06-20T11:18:33Z</time>
<desc>lat.=56.063557, lon.=26.510605, Alt.=115.659241m. Speed=13.824000m/h.</desc>
<speed>3.840000</speed>
</trkpt>
<trkpt lat="56.063580" lon="26.510643">
<ele>115.381897</ele>
<time>2010-06-20T11:18:34Z</time>
<desc>lat.=56.063580, lon.=26.510643, Alt.=115.381897m. Speed=12.600000m/h.</desc>
<speed>3.500000</speed>
</trkpt>
<trkpt lat="56.063614" lon="26.510677">
<ele>116.065491</ele>
<time>2010-06-20T11:18:35Z</time>
<desc>lat.=56.063614, lon.=26.510677, Alt.=116.065491m. Speed=12.024000m/h.</desc>
<speed>3.340000</speed>
</trkpt>
<trkpt lat="56.063652" lon="26.510712">
<ele>118.784241</ele>
<time>2010-06-20T11:18:36Z</time>
<desc>lat.=56.063652, lon.=26.510712, Alt.=118.784241m. Speed=13.356000m/h.</desc>
<speed>3.710000</speed>
</trkpt>
<trkpt lat="56.063675" lon="26.510744">
<ele>119.471741</ele>
<time>2010-06-20T11:18:37Z</time>
<desc>lat.=56.063675, lon.=26.510744, Alt.=119.471741m. Speed=14.220000m/h.</desc>
<speed>3.950000</speed>
</trkpt>
<trkpt lat="56.063702" lon="26.510780">
<ele>119.565491</ele>
<time>2010-06-20T11:18:38Z</time>
<desc>lat.=56.063702, lon.=26.510780, Alt.=119.565491m. Speed=14.580000m/h.</desc>
<speed>4.050000</speed>
</trkpt>
<trkpt lat="56.063728" lon="26.510811">
<ele>119.454163</ele>
<time>2010-06-20T11:18:39Z</time>
<desc>lat.=56.063728, lon.=26.510811, Alt.=119.454163m. Speed=14.364000m/h.</desc>
<speed>3.990000</speed>
</trkpt>
<trkpt lat="56.063751" lon="26.510847">
<ele>118.862366</ele>
<time>2010-06-20T11:18:40Z</time>
<desc>lat.=56.063751, lon.=26.510847, Alt.=118.862366m. Speed=14.580000m/h.</desc>
<speed>4.050000</speed>
</trkpt>
<trkpt lat="56.063774" lon="26.510883">
<ele>118.377991</ele>
<time>2010-06-20T11:18:41Z</time>
<desc>lat.=56.063774, lon.=26.510883, Alt.=118.377991m. Speed=14.364000m/h.</desc>
<speed>3.990000</speed>
</trkpt>
<trkpt lat="56.063801" lon="26.510925">
<ele>118.376038</ele>
<time>2010-06-20T11:18:42Z</time>
<desc>lat.=56.063801, lon.=26.510925, Alt.=118.376038m. Speed=14.400000m/h.</desc>
<speed>4.000000</speed>
</trkpt>
<trkpt lat="56.063828" lon="26.510967">
<ele>118.127991</ele>
<time>2010-06-20T11:18:43Z</time>
<desc>lat.=56.063828, lon.=26.510967, Alt.=118.127991m. Speed=14.796000m/h.</desc>
<speed>4.110000</speed>
</trkpt>
<trkpt lat="56.063858" lon="26.511007">
<ele>117.985413</ele>
<time>2010-06-20T11:18:44Z</time>
<desc>lat.=56.063858, lon.=26.511007, Alt.=117.985413m. Speed=15.336000m/h.</desc>
<speed>4.260000</speed>
</trkpt>
<trkpt lat="56.063889" lon="26.511044">
<ele>117.663147</ele>
<time>2010-06-20T11:18:45Z</time>
<desc>lat.=56.063889, lon.=26.511044, Alt.=117.663147m. Speed=15.156000m/h.</desc>
<speed>4.210000</speed>
</trkpt>
<trkpt lat="56.063915" lon="26.511078">
<ele>117.532288</ele>
<time>2010-06-20T11:18:46Z</time>
<desc>lat.=56.063915, lon.=26.511078, Alt.=117.532288m. Speed=13.644000m/h.</desc>
<speed>3.790000</speed>
</trkpt>
<trkpt lat="56.063938" lon="26.511114">
<ele>117.612366</ele>
<time>2010-06-20T11:18:47Z</time>
<desc>lat.=56.063938, lon.=26.511114, Alt.=117.612366m. Speed=12.852000m/h.</desc>
<speed>3.570000</speed>
</trkpt>
<trkpt lat="56.063961" lon="26.511150">
<ele>117.323303</ele>
<time>2010-06-20T11:18:48Z</time>
<desc>lat.=56.063961, lon.=26.511150, Alt.=117.323303m. Speed=12.348000m/h.</desc>
<speed>3.430000</speed>
</trkpt>
<trkpt lat="56.063984" lon="26.511185">
<ele>117.085022</ele>
<time>2010-06-20T11:18:49Z</time>
<desc>lat.=56.063984, lon.=26.511185, Alt.=117.085022m. Speed=13.716000m/h.</desc>
<speed>3.810000</speed>
</trkpt>
<trkpt lat="56.064011" lon="26.511229">
<ele>116.571350</ele>
<time>2010-06-20T11:18:50Z</time>
<desc>lat.=56.064011, lon.=26.511229, Alt.=116.571350m. Speed=14.796000m/h.</desc>
<speed>4.110000</speed>
</trkpt>
<trkpt lat="56.064037" lon="26.511272">
<ele>115.573303</ele>
<time>2010-06-20T11:18:51Z</time>
<desc>lat.=56.064037, lon.=26.511272, Alt.=115.573303m. Speed=14.040000m/h.</desc>
<speed>3.900000</speed>
</trkpt>
<trkpt lat="56.064068" lon="26.511312">
<ele>115.557678</ele>
<time>2010-06-20T11:18:52Z</time>
<desc>lat.=56.064068, lon.=26.511312, Alt.=115.557678m. Speed=15.912000m/h.</desc>
<speed>4.420000</speed>
</trkpt>
<trkpt lat="56.064098" lon="26.511356">
<ele>115.581116</ele>
<time>2010-06-20T11:18:53Z</time>
<desc>lat.=56.064098, lon.=26.511356, Alt.=115.581116m. Speed=16.775999m/h.</desc>
<speed>4.660000</speed>
</trkpt>
<trkpt lat="56.064133" lon="26.511404">
<ele>115.047913</ele>
<time>2010-06-20T11:18:54Z</time>
<desc>lat.=56.064133, lon.=26.511404, Alt.=115.047913m. Speed=17.316000m/h.</desc>
<speed>4.810000</speed>
</trkpt>
<trkpt lat="56.064171" lon="26.511450">
<ele>114.864319</ele>
<time>2010-06-20T11:18:55Z</time>
<desc>lat.=56.064171, lon.=26.511450, Alt.=114.864319m. Speed=17.927999m/h.</desc>
<speed>4.980000</speed>
</trkpt>
<trkpt lat="56.064209" lon="26.511494">
<ele>114.307678</ele>
<time>2010-06-20T11:18:56Z</time>
<desc>lat.=56.064209, lon.=26.511494, Alt.=114.307678m. Speed=18.504000m/h.</desc>
<speed>5.140000</speed>
</trkpt>
<trkpt lat="56.064243" lon="26.511538">
<ele>113.934631</ele>
<time>2010-06-20T11:18:57Z</time>
<desc>lat.=56.064243, lon.=26.511538, Alt.=113.934631m. Speed=17.351999m/h.</desc>
<speed>4.820000</speed>
</trkpt>
<trkpt lat="56.064270" lon="26.511580">
<ele>113.233459</ele>
<time>2010-06-20T11:18:58Z</time>
<desc>lat.=56.064270, lon.=26.511580, Alt.=113.233459m. Speed=16.056000m/h.</desc>
<speed>4.460000</speed>
</trkpt>
<trkpt lat="56.064301" lon="26.511614">
<ele>112.877991</ele>
<time>2010-06-20T11:18:59Z</time>
<desc>lat.=56.064301, lon.=26.511614, Alt.=112.877991m. Speed=15.444000m/h.</desc>
<speed>4.290000</speed>
</trkpt>
<trkpt lat="56.064331" lon="26.511650">
<ele>112.639709</ele>
<time>2010-06-20T11:19:00Z</time>
<desc>lat.=56.064331, lon.=26.511650, Alt.=112.639709m. Speed=15.408000m/h.</desc>
<speed>4.280000</speed>
</trkpt>
<trkpt lat="56.064369" lon="26.511692">
<ele>112.729553</ele>
<time>2010-06-20T11:19:01Z</time>
<desc>lat.=56.064369, lon.=26.511692, Alt.=112.729553m. Speed=16.740000m/h.</desc>
<speed>4.650000</speed>
</trkpt>
<trkpt lat="56.064407" lon="26.511736">
<ele>112.870178</ele>
<time>2010-06-20T11:19:02Z</time>
<desc>lat.=56.064407, lon.=26.511736, Alt.=112.870178m. Speed=16.020000m/h.</desc>
<speed>4.450000</speed>
</trkpt>
<trkpt lat="56.064442" lon="26.511774">
<ele>113.131897</ele>
<time>2010-06-20T11:19:03Z</time>
<desc>lat.=56.064442, lon.=26.511774, Alt.=113.131897m. Speed=15.048000m/h.</desc>
<speed>4.180000</speed>
</trkpt>
<trkpt lat="56.064472" lon="26.511810">
<ele>113.145569</ele>
<time>2010-06-20T11:19:04Z</time>
<desc>lat.=56.064472, lon.=26.511810, Alt.=113.145569m. Speed=14.688000m/h.</desc>
<speed>4.080000</speed>
</trkpt>
<trkpt lat="56.064503" lon="26.511848">
<ele>112.960022</ele>
<time>2010-06-20T11:19:05Z</time>
<desc>lat.=56.064503, lon.=26.511848, Alt.=112.960022m. Speed=15.552000m/h.</desc>
<speed>4.320000</speed>
</trkpt>
<trkpt lat="56.064537" lon="26.511887">
<ele>112.473694</ele>
<time>2010-06-20T11:19:06Z</time>
<desc>lat.=56.064537, lon.=26.511887, Alt.=112.473694m. Speed=16.884001m/h.</desc>
<speed>4.690000</speed>
</trkpt>
<trkpt lat="56.064571" lon="26.511925">
<ele>112.282288</ele>
<time>2010-06-20T11:19:07Z</time>
<desc>lat.=56.064571, lon.=26.511925, Alt.=112.282288m. Speed=16.524000m/h.</desc>
<speed>4.590000</speed>
</trkpt>
<trkpt lat="56.064606" lon="26.511965">
<ele>112.178772</ele>
<time>2010-06-20T11:19:08Z</time>
<desc>lat.=56.064606, lon.=26.511965, Alt.=112.178772m. Speed=15.912000m/h.</desc>
<speed>4.420000</speed>
</trkpt>
<trkpt lat="56.064636" lon="26.512011">
<ele>111.942444</ele>
<time>2010-06-20T11:19:09Z</time>
<desc>lat.=56.064636, lon.=26.512011, Alt.=111.942444m. Speed=16.308001m/h.</desc>
<speed>4.530000</speed>
</trkpt>
<trkpt lat="56.064671" lon="26.512051">
<ele>111.741272</ele>
<time>2010-06-20T11:19:10Z</time>
<desc>lat.=56.064671, lon.=26.512051, Alt.=111.741272m. Speed=16.920000m/h.</desc>
<speed>4.700000</speed>
</trkpt>
<trkpt lat="56.064709" lon="26.512089">
<ele>111.581116</ele>
<time>2010-06-20T11:19:11Z</time>
<desc>lat.=56.064709, lon.=26.512089, Alt.=111.581116m. Speed=16.236000m/h.</desc>
<speed>4.510000</speed>
</trkpt>
<trkpt lat="56.064743" lon="26.512127">
<ele>111.514709</ele>
<time>2010-06-20T11:19:12Z</time>
<desc>lat.=56.064743, lon.=26.512127, Alt.=111.514709m. Speed=16.020000m/h.</desc>
<speed>4.450000</speed>
</trkpt>
<trkpt lat="56.064777" lon="26.512163">
<ele>111.579163</ele>
<time>2010-06-20T11:19:13Z</time>
<desc>lat.=56.064777, lon.=26.512163, Alt.=111.579163m. Speed=15.660000m/h.</desc>
<speed>4.350000</speed>
</trkpt>
<trkpt lat="56.064812" lon="26.512199">
<ele>111.831116</ele>
<time>2010-06-20T11:19:14Z</time>
<desc>lat.=56.064812, lon.=26.512199, Alt.=111.831116m. Speed=15.768000m/h.</desc>
<speed>4.380000</speed>
</trkpt>
<trkpt lat="56.064846" lon="26.512232">
<ele>111.754944</ele>
<time>2010-06-20T11:19:15Z</time>
<desc>lat.=56.064846, lon.=26.512232, Alt.=111.754944m. Speed=15.156000m/h.</desc>
<speed>4.210000</speed>
</trkpt>
<trkpt lat="56.064877" lon="26.512262">
<ele>111.487366</ele>
<time>2010-06-20T11:19:16Z</time>
<desc>lat.=56.064877, lon.=26.512262, Alt.=111.487366m. Speed=15.264000m/h.</desc>
<speed>4.240000</speed>
</trkpt>
<trkpt lat="56.064907" lon="26.512300">
<ele>111.114319</ele>
<time>2010-06-20T11:19:17Z</time>
<desc>lat.=56.064907, lon.=26.512300, Alt.=111.114319m. Speed=15.444000m/h.</desc>
<speed>4.290000</speed>
</trkpt>
<trkpt lat="56.064949" lon="26.512335">
<ele>111.784241</ele>
<time>2010-06-20T11:19:18Z</time>
<desc>lat.=56.064949, lon.=26.512335, Alt.=111.784241m. Speed=17.028000m/h.</desc>
<speed>4.730000</speed>
</trkpt>
<trkpt lat="56.064983" lon="26.512365">
<ele>111.961975</ele>
<time>2010-06-20T11:19:19Z</time>
<desc>lat.=56.064983, lon.=26.512365, Alt.=111.961975m. Speed=15.084000m/h.</desc>
<speed>4.190000</speed>
</trkpt>
<trkpt lat="56.065014" lon="26.512396">
<ele>111.790100</ele>
<time>2010-06-20T11:19:20Z</time>
<desc>lat.=56.065014, lon.=26.512396, Alt.=111.790100m. Speed=14.688000m/h.</desc>
<speed>4.080000</speed>
</trkpt>
<trkpt lat="56.065044" lon="26.512423">
<ele>111.713928</ele>
<time>2010-06-20T11:19:21Z</time>
<desc>lat.=56.065044, lon.=26.512423, Alt.=111.713928m. Speed=14.292000m/h.</desc>
<speed>3.970000</speed>
</trkpt>
<trkpt lat="56.065075" lon="26.512451">
<ele>111.417053</ele>
<time>2010-06-20T11:19:22Z</time>
<desc>lat.=56.065075, lon.=26.512451, Alt.=111.417053m. Speed=14.616000m/h.</desc>
<speed>4.060000</speed>
</trkpt>
<trkpt lat="56.065105" lon="26.512484">
<ele>111.059631</ele>
<time>2010-06-20T11:19:23Z</time>
<desc>lat.=56.065105, lon.=26.512484, Alt.=111.059631m. Speed=15.696000m/h.</desc>
<speed>4.360000</speed>
</trkpt>
<trkpt lat="56.065140" lon="26.512520">
<ele>111.120178</ele>
<time>2010-06-20T11:19:24Z</time>
<desc>lat.=56.065140, lon.=26.512520, Alt.=111.120178m. Speed=16.308001m/h.</desc>
<speed>4.530000</speed>
</trkpt>
<trkpt lat="56.065174" lon="26.512558">
<ele>110.866272</ele>
<time>2010-06-20T11:19:25Z</time>
<desc>lat.=56.065174, lon.=26.512558, Alt.=110.866272m. Speed=17.063999m/h.</desc>
<speed>4.740000</speed>
</trkpt>
<trkpt lat="56.065208" lon="26.512596">
<ele>110.590881</ele>
<time>2010-06-20T11:19:26Z</time>
<desc>lat.=56.065208, lon.=26.512596, Alt.=110.590881m. Speed=17.496000m/h.</desc>
<speed>4.860000</speed>
</trkpt>
<trkpt lat="56.065243" lon="26.512640">
<ele>110.415100</ele>
<time>2010-06-20T11:19:27Z</time>
<desc>lat.=56.065243, lon.=26.512640, Alt.=110.415100m. Speed=17.424000m/h.</desc>
<speed>4.840000</speed>
</trkpt>
<trkpt lat="56.065281" lon="26.512678">
<ele>110.301819</ele>
<time>2010-06-20T11:19:28Z</time>
<desc>lat.=56.065281, lon.=26.512678, Alt.=110.301819m. Speed=17.316000m/h.</desc>
<speed>4.810000</speed>
</trkpt>
<trkpt lat="56.065315" lon="26.512714">
<ele>110.112366</ele>
<time>2010-06-20T11:19:29Z</time>
<desc>lat.=56.065315, lon.=26.512714, Alt.=110.112366m. Speed=17.172001m/h.</desc>
<speed>4.770000</speed>
</trkpt>
<trkpt lat="56.065353" lon="26.512749">
<ele>109.772522</ele>
<time>2010-06-20T11:19:30Z</time>
<desc>lat.=56.065353, lon.=26.512749, Alt.=109.772522m. Speed=16.920000m/h.</desc>
<speed>4.700000</speed>
</trkpt>
<trkpt lat="56.065392" lon="26.512781">
<ele>110.221741</ele>
<time>2010-06-20T11:19:31Z</time>
<desc>lat.=56.065392, lon.=26.512781, Alt.=110.221741m. Speed=17.172001m/h.</desc>
<speed>4.770000</speed>
</trkpt>
<trkpt lat="56.065426" lon="26.512817">
<ele>110.057678</ele>
<time>2010-06-20T11:19:32Z</time>
<desc>lat.=56.065426, lon.=26.512817, Alt.=110.057678m. Speed=16.920000m/h.</desc>
<speed>4.700000</speed>
</trkpt>
<trkpt lat="56.065464" lon="26.512854">
<ele>109.710022</ele>
<time>2010-06-20T11:19:33Z</time>
<desc>lat.=56.065464, lon.=26.512854, Alt.=109.710022m. Speed=16.271999m/h.</desc>
<speed>4.520000</speed>
</trkpt>
<trkpt lat="56.065498" lon="26.512886">
<ele>109.672913</ele>
<time>2010-06-20T11:19:34Z</time>
<desc>lat.=56.065498, lon.=26.512886, Alt.=109.672913m. Speed=15.696000m/h.</desc>
<speed>4.360000</speed>
</trkpt>
<trkpt lat="56.065529" lon="26.512920">
<ele>109.544006</ele>
<time>2010-06-20T11:19:35Z</time>
<desc>lat.=56.065529, lon.=26.512920, Alt.=109.544006m. Speed=15.768000m/h.</desc>
<speed>4.380000</speed>
</trkpt>
<trkpt lat="56.065563" lon="26.512957">
<ele>108.961975</ele>
<time>2010-06-20T11:19:36Z</time>
<desc>lat.=56.065563, lon.=26.512957, Alt.=108.961975m. Speed=15.624000m/h.</desc>
<speed>4.340000</speed>
</trkpt>
<trkpt lat="56.065598" lon="26.512991">
<ele>108.831116</ele>
<time>2010-06-20T11:19:37Z</time>
<desc>lat.=56.065598, lon.=26.512991, Alt.=108.831116m. Speed=16.164000m/h.</desc>
<speed>4.490000</speed>
</trkpt>
<trkpt lat="56.065632" lon="26.513025">
<ele>108.920959</ele>
<time>2010-06-20T11:19:38Z</time>
<desc>lat.=56.065632, lon.=26.513025, Alt.=108.920959m. Speed=15.876000m/h.</desc>
<speed>4.410000</speed>
</trkpt>
<trkpt lat="56.065659" lon="26.513058">
<ele>108.545959</ele>
<time>2010-06-20T11:19:39Z</time>
<desc>lat.=56.065659, lon.=26.513058, Alt.=108.545959m. Speed=15.156000m/h.</desc>
<speed>4.210000</speed>
</trkpt>
<trkpt lat="56.065693" lon="26.513092">
<ele>108.116272</ele>
<time>2010-06-20T11:19:40Z</time>
<desc>lat.=56.065693, lon.=26.513092, Alt.=108.116272m. Speed=15.300000m/h.</desc>
<speed>4.250000</speed>
</trkpt>
<trkpt lat="56.065727" lon="26.513130">
<ele>108.088928</ele>
<time>2010-06-20T11:19:41Z</time>
<desc>lat.=56.065727, lon.=26.513130, Alt.=108.088928m. Speed=15.300000m/h.</desc>
<speed>4.250000</speed>
</trkpt>
<trkpt lat="56.065762" lon="26.513168">
<ele>108.428772</ele>
<time>2010-06-20T11:19:42Z</time>
<desc>lat.=56.065762, lon.=26.513168, Alt.=108.428772m. Speed=14.004000m/h.</desc>
<speed>3.890000</speed>
</trkpt>
<trkpt lat="56.065796" lon="26.513197">
<ele>107.971741</ele>
<time>2010-06-20T11:19:43Z</time>
<desc>lat.=56.065796, lon.=26.513197, Alt.=107.971741m. Speed=15.156000m/h.</desc>
<speed>4.210000</speed>
</trkpt>
<trkpt lat="56.065826" lon="26.513229">
<ele>107.586975</ele>
<time>2010-06-20T11:19:44Z</time>
<desc>lat.=56.065826, lon.=26.513229, Alt.=107.586975m. Speed=15.984000m/h.</desc>
<speed>4.440000</speed>
</trkpt>
<trkpt lat="56.065857" lon="26.513264">
<ele>107.112366</ele>
<time>2010-06-20T11:19:45Z</time>
<desc>lat.=56.065857, lon.=26.513264, Alt.=107.112366m. Speed=16.020000m/h.</desc>
<speed>4.450000</speed>
</trkpt>
<trkpt lat="56.065891" lon="26.513292">
<ele>106.596741</ele>
<time>2010-06-20T11:19:46Z</time>
<desc>lat.=56.065891, lon.=26.513292, Alt.=106.596741m. Speed=15.336000m/h.</desc>
<speed>4.260000</speed>
</trkpt>
<trkpt lat="56.065926" lon="26.513321">
<ele>106.057678</ele>
<time>2010-06-20T11:19:47Z</time>
<desc>lat.=56.065926, lon.=26.513321, Alt.=106.057678m. Speed=14.256000m/h.</desc>
<speed>3.960000</speed>
</trkpt>
<trkpt lat="56.065956" lon="26.513355">
<ele>105.829163</ele>
<time>2010-06-20T11:19:48Z</time>
<desc>lat.=56.065956, lon.=26.513355, Alt.=105.829163m. Speed=14.328000m/h.</desc>
<speed>3.980000</speed>
</trkpt>
<trkpt lat="56.065987" lon="26.513393">
<ele>105.501038</ele>
<time>2010-06-20T11:19:49Z</time>
<desc>lat.=56.065987, lon.=26.513393, Alt.=105.501038m. Speed=15.624000m/h.</desc>
<speed>4.340000</speed>
</trkpt>
<trkpt lat="56.066025" lon="26.513433">
<ele>105.585022</ele>
<time>2010-06-20T11:19:50Z</time>
<desc>lat.=56.066025, lon.=26.513433, Alt.=105.585022m. Speed=16.488001m/h.</desc>
<speed>4.580000</speed>
</trkpt>
<trkpt lat="56.066059" lon="26.513479">
<ele>105.211975</ele>
<time>2010-06-20T11:19:51Z</time>
<desc>lat.=56.066059, lon.=26.513479, Alt.=105.211975m. Speed=17.388000m/h.</desc>
<speed>4.830000</speed>
</trkpt>
<trkpt lat="56.066097" lon="26.513523">
<ele>105.176819</ele>
<time>2010-06-20T11:19:52Z</time>
<desc>lat.=56.066097, lon.=26.513523, Alt.=105.176819m. Speed=18.000000m/h.</desc>
<speed>5.000000</speed>
</trkpt>
<trkpt lat="56.066135" lon="26.513565">
<ele>105.169006</ele>
<time>2010-06-20T11:19:53Z</time>
<desc>lat.=56.066135, lon.=26.513565, Alt.=105.169006m. Speed=18.252001m/h.</desc>
<speed>5.070000</speed>
</trkpt>
<trkpt lat="56.066177" lon="26.513613">
<ele>105.387756</ele>
<time>2010-06-20T11:19:54Z</time>
<desc>lat.=56.066177, lon.=26.513613, Alt.=105.387756m. Speed=18.540001m/h.</desc>
<speed>5.150000</speed>
</trkpt>
<trkpt lat="56.066219" lon="26.513655">
<ele>105.526428</ele>
<time>2010-06-20T11:19:55Z</time>
<desc>lat.=56.066219, lon.=26.513655, Alt.=105.526428m. Speed=19.296000m/h.</desc>
<speed>5.360000</speed>
</trkpt>
<trkpt lat="56.066261" lon="26.513700">
<ele>105.389709</ele>
<time>2010-06-20T11:19:56Z</time>
<desc>lat.=56.066261, lon.=26.513700, Alt.=105.389709m. Speed=19.080000m/h.</desc>
<speed>5.300000</speed>
</trkpt>
<trkpt lat="56.066299" lon="26.513744">
<ele>105.036194</ele>
<time>2010-06-20T11:19:57Z</time>
<desc>lat.=56.066299, lon.=26.513744, Alt.=105.036194m. Speed=17.532000m/h.</desc>
<speed>4.870000</speed>
</trkpt>
<trkpt lat="56.066345" lon="26.513792">
<ele>105.088928</ele>
<time>2010-06-20T11:19:58Z</time>
<desc>lat.=56.066345, lon.=26.513792, Alt.=105.088928m. Speed=19.764000m/h.</desc>
<speed>5.490000</speed>
</trkpt>
<trkpt lat="56.066387" lon="26.513840">
<ele>105.335022</ele>
<time>2010-06-20T11:19:59Z</time>
<desc>lat.=56.066387, lon.=26.513840, Alt.=105.335022m. Speed=18.756001m/h.</desc>
<speed>5.210000</speed>
</trkpt>
<trkpt lat="56.066429" lon="26.513882">
<ele>105.383850</ele>
<time>2010-06-20T11:20:00Z</time>
<desc>lat.=56.066429, lon.=26.513882, Alt.=105.383850m. Speed=17.388000m/h.</desc>
<speed>4.830000</speed>
</trkpt>
<trkpt lat="56.066463" lon="26.513918">
<ele>104.911194</ele>
<time>2010-06-20T11:20:01Z</time>
<desc>lat.=56.066463, lon.=26.513918, Alt.=104.911194m. Speed=15.912000m/h.</desc>
<speed>4.420000</speed>
</trkpt>
<trkpt lat="56.066498" lon="26.513948">
<ele>104.686584</ele>
<time>2010-06-20T11:20:02Z</time>
<desc>lat.=56.066498, lon.=26.513948, Alt.=104.686584m. Speed=14.256000m/h.</desc>
<speed>3.960000</speed>
</trkpt>
<trkpt lat="56.066525" lon="26.513971">
<ele>104.100647</ele>
<time>2010-06-20T11:20:03Z</time>
<desc>lat.=56.066525, lon.=26.513971, Alt.=104.100647m. Speed=14.220000m/h.</desc>
<speed>3.950000</speed>
</trkpt>
<trkpt lat="56.066555" lon="26.514008">
<ele>104.135803</ele>
<time>2010-06-20T11:20:04Z</time>
<desc>lat.=56.066555, lon.=26.514008, Alt.=104.135803m. Speed=14.760000m/h.</desc>
<speed>4.100000</speed>
</trkpt>
<trkpt lat="56.066589" lon="26.514040">
<ele>104.399475</ele>
<time>2010-06-20T11:20:05Z</time>
<desc>lat.=56.066589, lon.=26.514040, Alt.=104.399475m. Speed=14.580000m/h.</desc>
<speed>4.050000</speed>
</trkpt>
<trkpt lat="56.066624" lon="26.514074">
<ele>104.463928</ele>
<time>2010-06-20T11:20:06Z</time>
<desc>lat.=56.066624, lon.=26.514074, Alt.=104.463928m. Speed=14.256000m/h.</desc>
<speed>3.960000</speed>
</trkpt>
<trkpt lat="56.066654" lon="26.514105">
<ele>104.276428</ele>
<time>2010-06-20T11:20:07Z</time>
<desc>lat.=56.066654, lon.=26.514105, Alt.=104.276428m. Speed=13.032000m/h.</desc>
<speed>3.620000</speed>
</trkpt>
<trkpt lat="56.066689" lon="26.514130">
<ele>104.237366</ele>
<time>2010-06-20T11:20:08Z</time>
<desc>lat.=56.066689, lon.=26.514130, Alt.=104.237366m. Speed=12.672000m/h.</desc>
<speed>3.520000</speed>
</trkpt>
<trkpt lat="56.066719" lon="26.514158">
<ele>104.719788</ele>
<time>2010-06-20T11:20:09Z</time>
<desc>lat.=56.066719, lon.=26.514158, Alt.=104.719788m. Speed=13.320000m/h.</desc>
<speed>3.700000</speed>
</trkpt>
<trkpt lat="56.066750" lon="26.514193">
<ele>104.633850</ele>
<time>2010-06-20T11:20:10Z</time>
<desc>lat.=56.066750, lon.=26.514193, Alt.=104.633850m. Speed=13.788000m/h.</desc>
<speed>3.830000</speed>
</trkpt>
<trkpt lat="56.066780" lon="26.514229">
<ele>105.071350</ele>
<time>2010-06-20T11:20:11Z</time>
<desc>lat.=56.066780, lon.=26.514229, Alt.=105.071350m. Speed=14.004000m/h.</desc>
<speed>3.890000</speed>
</trkpt>
<trkpt lat="56.066814" lon="26.514265">
<ele>105.395569</ele>
<time>2010-06-20T11:20:12Z</time>
<desc>lat.=56.066814, lon.=26.514265, Alt.=105.395569m. Speed=14.292000m/h.</desc>
<speed>3.970000</speed>
</trkpt>
<trkpt lat="56.066849" lon="26.514296">
<ele>105.520569</ele>
<time>2010-06-20T11:20:13Z</time>
<desc>lat.=56.066849, lon.=26.514296, Alt.=105.520569m. Speed=14.688000m/h.</desc>
<speed>4.080000</speed>
</trkpt>
<trkpt lat="56.066883" lon="26.514330">
<ele>105.518616</ele>
<time>2010-06-20T11:20:14Z</time>
<desc>lat.=56.066883, lon.=26.514330, Alt.=105.518616m. Speed=14.940000m/h.</desc>
<speed>4.150000</speed>
</trkpt>
<trkpt lat="56.066921" lon="26.514362">
<ele>105.717834</ele>
<time>2010-06-20T11:20:15Z</time>
<desc>lat.=56.066921, lon.=26.514362, Alt.=105.717834m. Speed=15.588000m/h.</desc>
<speed>4.330000</speed>
</trkpt>
<trkpt lat="56.066959" lon="26.514399">
<ele>105.897522</ele>
<time>2010-06-20T11:20:16Z</time>
<desc>lat.=56.066959, lon.=26.514399, Alt.=105.897522m. Speed=15.588000m/h.</desc>
<speed>4.330000</speed>
</trkpt>
<trkpt lat="56.066990" lon="26.514437">
<ele>106.149475</ele>
<time>2010-06-20T11:20:17Z</time>
<desc>lat.=56.066990, lon.=26.514437, Alt.=106.149475m. Speed=15.840000m/h.</desc>
<speed>4.400000</speed>
</trkpt>
<trkpt lat="56.067024" lon="26.514471">
<ele>105.661194</ele>
<time>2010-06-20T11:20:18Z</time>
<desc>lat.=56.067024, lon.=26.514471, Alt.=105.661194m. Speed=15.660000m/h.</desc>
<speed>4.350000</speed>
</trkpt>
<trkpt lat="56.067059" lon="26.514505">
<ele>105.417053</ele>
<time>2010-06-20T11:20:19Z</time>
<desc>lat.=56.067059, lon.=26.514505, Alt.=105.417053m. Speed=15.912000m/h.</desc>
<speed>4.420000</speed>
</trkpt>
<trkpt lat="56.067093" lon="26.514542">
<ele>105.483459</ele>
<time>2010-06-20T11:20:20Z</time>
<desc>lat.=56.067093, lon.=26.514542, Alt.=105.483459m. Speed=15.732000m/h.</desc>
<speed>4.370000</speed>
</trkpt>
<trkpt lat="56.067127" lon="26.514578">
<ele>105.180725</ele>
<time>2010-06-20T11:20:21Z</time>
<desc>lat.=56.067127, lon.=26.514578, Alt.=105.180725m. Speed=15.804000m/h.</desc>
<speed>4.390000</speed>
</trkpt>
<trkpt lat="56.067158" lon="26.514608">
<ele>105.215881</ele>
<time>2010-06-20T11:20:22Z</time>
<desc>lat.=56.067158, lon.=26.514608, Alt.=105.215881m. Speed=14.220000m/h.</desc>
<speed>3.950000</speed>
</trkpt>
<trkpt lat="56.067188" lon="26.514633">
<ele>104.995178</ele>
<time>2010-06-20T11:20:23Z</time>
<desc>lat.=56.067188, lon.=26.514633, Alt.=104.995178m. Speed=12.276000m/h.</desc>
<speed>3.410000</speed>
</trkpt>
<trkpt lat="56.067215" lon="26.514658">
<ele>105.239319</ele>
<time>2010-06-20T11:20:24Z</time>
<desc>lat.=56.067215, lon.=26.514658, Alt.=105.239319m. Speed=12.204000m/h.</desc>
<speed>3.390000</speed>
</trkpt>
<trkpt lat="56.067245" lon="26.514685">
<ele>105.282288</ele>
<time>2010-06-20T11:20:25Z</time>
<desc>lat.=56.067245, lon.=26.514685, Alt.=105.282288m. Speed=12.492000m/h.</desc>
<speed>3.470000</speed>
</trkpt>
<trkpt lat="56.067272" lon="26.514711">
<ele>105.141663</ele>
<time>2010-06-20T11:20:26Z</time>
<desc>lat.=56.067272, lon.=26.514711, Alt.=105.141663m. Speed=13.248000m/h.</desc>
<speed>3.680000</speed>
</trkpt>
<trkpt lat="56.067307" lon="26.514738">
<ele>105.260803</ele>
<time>2010-06-20T11:20:27Z</time>
<desc>lat.=56.067307, lon.=26.514738, Alt.=105.260803m. Speed=13.320000m/h.</desc>
<speed>3.700000</speed>
</trkpt>
<trkpt lat="56.067337" lon="26.514765">
<ele>105.034241</ele>
<time>2010-06-20T11:20:28Z</time>
<desc>lat.=56.067337, lon.=26.514765, Alt.=105.034241m. Speed=15.012000m/h.</desc>
<speed>4.170000</speed>
</trkpt>
<trkpt lat="56.067375" lon="26.514795">
<ele>105.249084</ele>
<time>2010-06-20T11:20:29Z</time>
<desc>lat.=56.067375, lon.=26.514795, Alt.=105.249084m. Speed=14.292000m/h.</desc>
<speed>3.970000</speed>
</trkpt>
<trkpt lat="56.067406" lon="26.514828">
<ele>105.208069</ele>
<time>2010-06-20T11:20:30Z</time>
<desc>lat.=56.067406, lon.=26.514828, Alt.=105.208069m. Speed=14.364000m/h.</desc>
<speed>3.990000</speed>
</trkpt>
<trkpt lat="56.067429" lon="26.514860">
<ele>105.040100</ele>
<time>2010-06-20T11:20:31Z</time>
<desc>lat.=56.067429, lon.=26.514860, Alt.=105.040100m. Speed=13.536000m/h.</desc>
<speed>3.760000</speed>
</trkpt>
<trkpt lat="56.067463" lon="26.514893">
<ele>105.419006</ele>
<time>2010-06-20T11:20:32Z</time>
<desc>lat.=56.067463, lon.=26.514893, Alt.=105.419006m. Speed=12.600000m/h.</desc>
<speed>3.500000</speed>
</trkpt>
<trkpt lat="56.067493" lon="26.514921">
<ele>105.635803</ele>
<time>2010-06-20T11:20:33Z</time>
<desc>lat.=56.067493, lon.=26.514921, Alt.=105.635803m. Speed=12.420000m/h.</desc>
<speed>3.450000</speed>
</trkpt>
<trkpt lat="56.067520" lon="26.514954">
<ele>106.153381</ele>
<time>2010-06-20T11:20:34Z</time>
<desc>lat.=56.067520, lon.=26.514954, Alt.=106.153381m. Speed=13.356000m/h.</desc>
<speed>3.710000</speed>
</trkpt>
<trkpt lat="56.067547" lon="26.514988">
<ele>106.227600</ele>
<time>2010-06-20T11:20:35Z</time>
<desc>lat.=56.067547, lon.=26.514988, Alt.=106.227600m. Speed=12.888000m/h.</desc>
<speed>3.580000</speed>
</trkpt>
<trkpt lat="56.067574" lon="26.515017">
<ele>106.506897</ele>
<time>2010-06-20T11:20:36Z</time>
<desc>lat.=56.067574, lon.=26.515017, Alt.=106.506897m. Speed=12.672000m/h.</desc>
<speed>3.520000</speed>
</trkpt>
<trkpt lat="56.067604" lon="26.515043">
<ele>106.733459</ele>
<time>2010-06-20T11:20:37Z</time>
<desc>lat.=56.067604, lon.=26.515043, Alt.=106.733459m. Speed=12.600000m/h.</desc>
<speed>3.500000</speed>
</trkpt>
<trkpt lat="56.067631" lon="26.515068">
<ele>107.008850</ele>
<time>2010-06-20T11:20:38Z</time>
<desc>lat.=56.067631, lon.=26.515068, Alt.=107.008850m. Speed=12.492000m/h.</desc>
<speed>3.470000</speed>
</trkpt>
<trkpt lat="56.067654" lon="26.515089">
<ele>107.047913</ele>
<time>2010-06-20T11:20:39Z</time>
<desc>lat.=56.067654, lon.=26.515089, Alt.=107.047913m. Speed=11.952000m/h.</desc>
<speed>3.320000</speed>
</trkpt>
<trkpt lat="56.067692" lon="26.515120">
<ele>108.477600</ele>
<time>2010-06-20T11:20:40Z</time>
<desc>lat.=56.067692, lon.=26.515120, Alt.=108.477600m. Speed=15.444000m/h.</desc>
<speed>4.290000</speed>
</trkpt>
<trkpt lat="56.067722" lon="26.515150">
<ele>108.434631</ele>
<time>2010-06-20T11:20:41Z</time>
<desc>lat.=56.067722, lon.=26.515150, Alt.=108.434631m. Speed=13.788000m/h.</desc>
<speed>3.830000</speed>
</trkpt>
<trkpt lat="56.067749" lon="26.515179">
<ele>108.161194</ele>
<time>2010-06-20T11:20:42Z</time>
<desc>lat.=56.067749, lon.=26.515179, Alt.=108.161194m. Speed=14.148000m/h.</desc>
<speed>3.930000</speed>
</trkpt>
<trkpt lat="56.067776" lon="26.515211">
<ele>108.034241</ele>
<time>2010-06-20T11:20:43Z</time>
<desc>lat.=56.067776, lon.=26.515211, Alt.=108.034241m. Speed=13.608000m/h.</desc>
<speed>3.780000</speed>
</trkpt>
<trkpt lat="56.067802" lon="26.515232">
<ele>107.624084</ele>
<time>2010-06-20T11:20:44Z</time>
<desc>lat.=56.067802, lon.=26.515232, Alt.=107.624084m. Speed=13.680000m/h.</desc>
<speed>3.800000</speed>
</trkpt>
<trkpt lat="56.067829" lon="26.515257">
<ele>107.204163</ele>
<time>2010-06-20T11:20:45Z</time>
<desc>lat.=56.067829, lon.=26.515257, Alt.=107.204163m. Speed=13.428000m/h.</desc>
<speed>3.730000</speed>
</trkpt>
<trkpt lat="56.067852" lon="26.515293">
<ele>107.553772</ele>
<time>2010-06-20T11:20:46Z</time>
<desc>lat.=56.067852, lon.=26.515293, Alt.=107.553772m. Speed=13.500000m/h.</desc>
<speed>3.750000</speed>
</trkpt>
<trkpt lat="56.067883" lon="26.515329">
<ele>107.905334</ele>
<time>2010-06-20T11:20:47Z</time>
<desc>lat.=56.067883, lon.=26.515329, Alt.=107.905334m. Speed=13.752000m/h.</desc>
<speed>3.820000</speed>
</trkpt>
<trkpt lat="56.067909" lon="26.515358">
<ele>108.010803</ele>
<time>2010-06-20T11:20:48Z</time>
<desc>lat.=56.067909, lon.=26.515358, Alt.=108.010803m. Speed=13.320000m/h.</desc>
<speed>3.700000</speed>
</trkpt>
<trkpt lat="56.067940" lon="26.515383">
<ele>107.985413</ele>
<time>2010-06-20T11:20:49Z</time>
<desc>lat.=56.067940, lon.=26.515383, Alt.=107.985413m. Speed=11.952000m/h.</desc>
<speed>3.320000</speed>
</trkpt>
<trkpt lat="56.067970" lon="26.515406">
<ele>107.440491</ele>
<time>2010-06-20T11:20:50Z</time>
<desc>lat.=56.067970, lon.=26.515406, Alt.=107.440491m. Speed=12.420000m/h.</desc>
<speed>3.450000</speed>
</trkpt>
<trkpt lat="56.067993" lon="26.515432">
<ele>107.108459</ele>
<time>2010-06-20T11:20:51Z</time>
<desc>lat.=56.067993, lon.=26.515432, Alt.=107.108459m. Speed=11.628000m/h.</desc>
<speed>3.230000</speed>
</trkpt>
<trkpt lat="56.068024" lon="26.515459">
<ele>106.186584</ele>
<time>2010-06-20T11:20:52Z</time>
<desc>lat.=56.068024, lon.=26.515459, Alt.=106.186584m. Speed=14.724000m/h.</desc>
<speed>4.090000</speed>
</trkpt>
<trkpt lat="56.068050" lon="26.515491">
<ele>105.518616</ele>
<time>2010-06-20T11:20:53Z</time>
<desc>lat.=56.068050, lon.=26.515491, Alt.=105.518616m. Speed=14.256000m/h.</desc>
<speed>3.960000</speed>
</trkpt>
<trkpt lat="56.068077" lon="26.515514">
<ele>105.088928</ele>
<time>2010-06-20T11:20:54Z</time>
<desc>lat.=56.068077, lon.=26.515514, Alt.=105.088928m. Speed=13.104000m/h.</desc>
<speed>3.640000</speed>
</trkpt>
<trkpt lat="56.068108" lon="26.515539">
<ele>104.829163</ele>
<time>2010-06-20T11:20:55Z</time>
<desc>lat.=56.068108, lon.=26.515539, Alt.=104.829163m. Speed=14.220000m/h.</desc>
<speed>3.950000</speed>
</trkpt>
<trkpt lat="56.068134" lon="26.515570">
<ele>104.292053</ele>
<time>2010-06-20T11:20:56Z</time>
<desc>lat.=56.068134, lon.=26.515570, Alt.=104.292053m. Speed=14.400000m/h.</desc>
<speed>4.000000</speed>
</trkpt>
<trkpt lat="56.068165" lon="26.515602">
<ele>103.778381</ele>
<time>2010-06-20T11:20:57Z</time>
<desc>lat.=56.068165, lon.=26.515602, Alt.=103.778381m. Speed=13.860000m/h.</desc>
<speed>3.850000</speed>
</trkpt>
<trkpt lat="56.068192" lon="26.515636">
<ele>103.553772</ele>
<time>2010-06-20T11:20:58Z</time>
<desc>lat.=56.068192, lon.=26.515636, Alt.=103.553772m. Speed=12.672000m/h.</desc>
<speed>3.520000</speed>
</trkpt>
<trkpt lat="56.068218" lon="26.515671">
<ele>102.821350</ele>
<time>2010-06-20T11:20:59Z</time>
<desc>lat.=56.068218, lon.=26.515671, Alt.=102.821350m. Speed=12.852000m/h.</desc>
<speed>3.570000</speed>
</trkpt>
<trkpt lat="56.068245" lon="26.515697">
<ele>102.135803</ele>
<time>2010-06-20T11:21:00Z</time>
<desc>lat.=56.068245, lon.=26.515697, Alt.=102.135803m. Speed=13.104000m/h.</desc>
<speed>3.640000</speed>
</trkpt>
<trkpt lat="56.068275" lon="26.515730">
<ele>103.100647</ele>
<time>2010-06-20T11:21:01Z</time>
<desc>lat.=56.068275, lon.=26.515730, Alt.=103.100647m. Speed=12.420000m/h.</desc>
<speed>3.450000</speed>
</trkpt>
<trkpt lat="56.068306" lon="26.515766">
<ele>103.575256</ele>
<time>2010-06-20T11:21:02Z</time>
<desc>lat.=56.068306, lon.=26.515766, Alt.=103.575256m. Speed=12.780000m/h.</desc>
<speed>3.550000</speed>
</trkpt>
<trkpt lat="56.068340" lon="26.515806">
<ele>105.501038</ele>
<time>2010-06-20T11:21:03Z</time>
<desc>lat.=56.068340, lon.=26.515806, Alt.=105.501038m. Speed=13.428000m/h.</desc>
<speed>3.730000</speed>
</trkpt>
<trkpt lat="56.068371" lon="26.515831">
<ele>105.284241</ele>
<time>2010-06-20T11:21:04Z</time>
<desc>lat.=56.068371, lon.=26.515831, Alt.=105.284241m. Speed=12.960000m/h.</desc>
<speed>3.600000</speed>
</trkpt>
<trkpt lat="56.068405" lon="26.515862">
<ele>106.831116</ele>
<time>2010-06-20T11:21:05Z</time>
<desc>lat.=56.068405, lon.=26.515862, Alt.=106.831116m. Speed=13.392000m/h.</desc>
<speed>3.720000</speed>
</trkpt>
<trkpt lat="56.068436" lon="26.515898">
<ele>107.223694</ele>
<time>2010-06-20T11:21:06Z</time>
<desc>lat.=56.068436, lon.=26.515898, Alt.=107.223694m. Speed=13.896000m/h.</desc>
<speed>3.860000</speed>
</trkpt>
<trkpt lat="56.068462" lon="26.515930">
<ele>107.891663</ele>
<time>2010-06-20T11:21:07Z</time>
<desc>lat.=56.068462, lon.=26.515930, Alt.=107.891663m. Speed=13.464000m/h.</desc>
<speed>3.740000</speed>
</trkpt>
<trkpt lat="56.068497" lon="26.515966">
<ele>109.061584</ele>
<time>2010-06-20T11:21:08Z</time>
<desc>lat.=56.068497, lon.=26.515966, Alt.=109.061584m. Speed=13.932000m/h.</desc>
<speed>3.870000</speed>
</trkpt>
<trkpt lat="56.068527" lon="26.515995">
<ele>108.440491</ele>
<time>2010-06-20T11:21:09Z</time>
<desc>lat.=56.068527, lon.=26.515995, Alt.=108.440491m. Speed=14.436000m/h.</desc>
<speed>4.010000</speed>
</trkpt>
<trkpt lat="56.068558" lon="26.516029">
<ele>108.768616</ele>
<time>2010-06-20T11:21:10Z</time>
<desc>lat.=56.068558, lon.=26.516029, Alt.=108.768616m. Speed=14.076000m/h.</desc>
<speed>3.910000</speed>
</trkpt>
<trkpt lat="56.068588" lon="26.516064">
<ele>109.051819</ele>
<time>2010-06-20T11:21:11Z</time>
<desc>lat.=56.068588, lon.=26.516064, Alt.=109.051819m. Speed=14.004000m/h.</desc>
<speed>3.890000</speed>
</trkpt>
<trkpt lat="56.068619" lon="26.516102">
<ele>109.065491</ele>
<time>2010-06-20T11:21:12Z</time>
<desc>lat.=56.068619, lon.=26.516102, Alt.=109.065491m. Speed=14.076000m/h.</desc>
<speed>3.910000</speed>
</trkpt>
<trkpt lat="56.068649" lon="26.516136">
<ele>108.788147</ele>
<time>2010-06-20T11:21:13Z</time>
<desc>lat.=56.068649, lon.=26.516136, Alt.=108.788147m. Speed=13.680000m/h.</desc>
<speed>3.800000</speed>
</trkpt>
<trkpt lat="56.068680" lon="26.516174">
<ele>108.768616</ele>
<time>2010-06-20T11:21:14Z</time>
<desc>lat.=56.068680, lon.=26.516174, Alt.=108.768616m. Speed=16.884001m/h.</desc>
<speed>4.690000</speed>
</trkpt>
<trkpt lat="56.068714" lon="26.516216">
<ele>109.108459</ele>
<time>2010-06-20T11:21:15Z</time>
<desc>lat.=56.068714, lon.=26.516216, Alt.=109.108459m. Speed=13.068000m/h.</desc>
<speed>3.630000</speed>
</trkpt>
<trkpt lat="56.068737" lon="26.516247">
<ele>109.170959</ele>
<time>2010-06-20T11:21:16Z</time>
<desc>lat.=56.068737, lon.=26.516247, Alt.=109.170959m. Speed=12.132000m/h.</desc>
<speed>3.370000</speed>
</trkpt>
<trkpt lat="56.068768" lon="26.516277">
<ele>109.710022</ele>
<time>2010-06-20T11:21:17Z</time>
<desc>lat.=56.068768, lon.=26.516277, Alt.=109.710022m. Speed=13.572000m/h.</desc>
<speed>3.770000</speed>
</trkpt>
<trkpt lat="56.068794" lon="26.516315">
<ele>109.672913</ele>
<time>2010-06-20T11:21:18Z</time>
<desc>lat.=56.068794, lon.=26.516315, Alt.=109.672913m. Speed=12.456000m/h.</desc>
<speed>3.460000</speed>
</trkpt>
<trkpt lat="56.068813" lon="26.516356">
<ele>108.139709</ele>
<time>2010-06-20T11:21:19Z</time>
<desc>lat.=56.068813, lon.=26.516356, Alt.=108.139709m. Speed=12.276000m/h.</desc>
<speed>3.410000</speed>
</trkpt>
<trkpt lat="56.068836" lon="26.516394">
<ele>107.102600</ele>
<time>2010-06-20T11:21:20Z</time>
<desc>lat.=56.068836, lon.=26.516394, Alt.=107.102600m. Speed=12.816000m/h.</desc>
<speed>3.560000</speed>
</trkpt>
<trkpt lat="56.068855" lon="26.516436">
<ele>106.303772</ele>
<time>2010-06-20T11:21:21Z</time>
<desc>lat.=56.068855, lon.=26.516436, Alt.=106.303772m. Speed=13.176000m/h.</desc>
<speed>3.660000</speed>
</trkpt>
<trkpt lat="56.068878" lon="26.516479">
<ele>105.813538</ele>
<time>2010-06-20T11:21:22Z</time>
<desc>lat.=56.068878, lon.=26.516479, Alt.=105.813538m. Speed=13.176000m/h.</desc>
<speed>3.660000</speed>
</trkpt>
<trkpt lat="56.068905" lon="26.516514">
<ele>105.325256</ele>
<time>2010-06-20T11:21:23Z</time>
<desc>lat.=56.068905, lon.=26.516514, Alt.=105.325256m. Speed=12.600000m/h.</desc>
<speed>3.500000</speed>
</trkpt>
<trkpt lat="56.068928" lon="26.516546">
<ele>104.116272</ele>
<time>2010-06-20T11:21:24Z</time>
<desc>lat.=56.068928, lon.=26.516546, Alt.=104.116272m. Speed=13.104000m/h.</desc>
<speed>3.640000</speed>
</trkpt>
<trkpt lat="56.068958" lon="26.516584">
<ele>102.965881</ele>
<time>2010-06-20T11:21:25Z</time>
<desc>lat.=56.068958, lon.=26.516584, Alt.=102.965881m. Speed=13.536000m/h.</desc>
<speed>3.760000</speed>
</trkpt>
<trkpt lat="56.068989" lon="26.516624">
<ele>102.397522</ele>
<time>2010-06-20T11:21:26Z</time>
<desc>lat.=56.068989, lon.=26.516624, Alt.=102.397522m. Speed=13.788000m/h.</desc>
<speed>3.830000</speed>
</trkpt>
<trkpt lat="56.069016" lon="26.516666">
<ele>102.069397</ele>
<time>2010-06-20T11:21:27Z</time>
<desc>lat.=56.069016, lon.=26.516666, Alt.=102.069397m. Speed=13.932000m/h.</desc>
<speed>3.870000</speed>
</trkpt>
<trkpt lat="56.069046" lon="26.516705">
<ele>102.303772</ele>
<time>2010-06-20T11:21:28Z</time>
<desc>lat.=56.069046, lon.=26.516705, Alt.=102.303772m. Speed=14.076000m/h.</desc>
<speed>3.910000</speed>
</trkpt>
<trkpt lat="56.069073" lon="26.516745">
<ele>102.268616</ele>
<time>2010-06-20T11:21:29Z</time>
<desc>lat.=56.069073, lon.=26.516745, Alt.=102.268616m. Speed=14.112000m/h.</desc>
<speed>3.920000</speed>
</trkpt>
<trkpt lat="56.069099" lon="26.516787">
<ele>102.124084</ele>
<time>2010-06-20T11:21:30Z</time>
<desc>lat.=56.069099, lon.=26.516787, Alt.=102.124084m. Speed=14.112000m/h.</desc>
<speed>3.920000</speed>
</trkpt>
<trkpt lat="56.069126" lon="26.516829">
<ele>102.026428</ele>
<time>2010-06-20T11:21:31Z</time>
<desc>lat.=56.069126, lon.=26.516829, Alt.=102.026428m. Speed=13.572000m/h.</desc>
<speed>3.770000</speed>
</trkpt>
<trkpt lat="56.069153" lon="26.516870">
<ele>101.501038</ele>
<time>2010-06-20T11:21:32Z</time>
<desc>lat.=56.069153, lon.=26.516870, Alt.=101.501038m. Speed=15.048000m/h.</desc>
<speed>4.180000</speed>
</trkpt>
<trkpt lat="56.069176" lon="26.516918">
<ele>101.081116</ele>
<time>2010-06-20T11:21:33Z</time>
<desc>lat.=56.069176, lon.=26.516918, Alt.=101.081116m. Speed=14.508000m/h.</desc>
<speed>4.030000</speed>
</trkpt>
<trkpt lat="56.069199" lon="26.516964">
<ele>101.016663</ele>
<time>2010-06-20T11:21:34Z</time>
<desc>lat.=56.069199, lon.=26.516964, Alt.=101.016663m. Speed=14.400000m/h.</desc>
<speed>4.000000</speed>
</trkpt>
<trkpt lat="56.069229" lon="26.516998">
<ele>101.157288</ele>
<time>2010-06-20T11:21:35Z</time>
<desc>lat.=56.069229, lon.=26.516998, Alt.=101.157288m. Speed=14.148000m/h.</desc>
<speed>3.930000</speed>
</trkpt>
<trkpt lat="56.069256" lon="26.517040">
<ele>100.903381</ele>
<time>2010-06-20T11:21:36Z</time>
<desc>lat.=56.069256, lon.=26.517040, Alt.=100.903381m. Speed=14.904000m/h.</desc>
<speed>4.140000</speed>
</trkpt>
<trkpt lat="56.069286" lon="26.517088">
<ele>100.465881</ele>
<time>2010-06-20T11:21:37Z</time>
<desc>lat.=56.069286, lon.=26.517088, Alt.=100.465881m. Speed=16.128000m/h.</desc>
<speed>4.480000</speed>
</trkpt>
<trkpt lat="56.069317" lon="26.517139">
<ele>100.627991</ele>
<time>2010-06-20T11:21:38Z</time>
<desc>lat.=56.069317, lon.=26.517139, Alt.=100.627991m. Speed=16.308001m/h.</desc>
<speed>4.530000</speed>
</trkpt>
<trkpt lat="56.069347" lon="26.517199">
<ele>100.657288</ele>
<time>2010-06-20T11:21:39Z</time>
<desc>lat.=56.069347, lon.=26.517199, Alt.=100.657288m. Speed=16.524000m/h.</desc>
<speed>4.590000</speed>
</trkpt>
<trkpt lat="56.069378" lon="26.517252">
<ele>100.430725</ele>
<time>2010-06-20T11:21:40Z</time>
<desc>lat.=56.069378, lon.=26.517252, Alt.=100.430725m. Speed=16.128000m/h.</desc>
<speed>4.480000</speed>
</trkpt>
<trkpt lat="56.069408" lon="26.517296">
<ele>99.842834</ele>
<time>2010-06-20T11:21:41Z</time>
<desc>lat.=56.069408, lon.=26.517296, Alt.=99.842834m. Speed=16.020000m/h.</desc>
<speed>4.450000</speed>
</trkpt>
<trkpt lat="56.069439" lon="26.517338">
<ele>99.809631</ele>
<time>2010-06-20T11:21:42Z</time>
<desc>lat.=56.069439, lon.=26.517338, Alt.=99.809631m. Speed=15.912000m/h.</desc>
<speed>4.420000</speed>
</trkpt>
<trkpt lat="56.069466" lon="26.517391">
<ele>99.680725</ele>
<time>2010-06-20T11:21:43Z</time>
<desc>lat.=56.069466, lon.=26.517391, Alt.=99.680725m. Speed=15.552000m/h.</desc>
<speed>4.320000</speed>
</trkpt>
<trkpt lat="56.069492" lon="26.517443">
<ele>99.409241</ele>
<time>2010-06-20T11:21:44Z</time>
<desc>lat.=56.069492, lon.=26.517443, Alt.=99.409241m. Speed=15.408000m/h.</desc>
<speed>4.280000</speed>
</trkpt>
<trkpt lat="56.069519" lon="26.517494">
<ele>99.473694</ele>
<time>2010-06-20T11:21:45Z</time>
<desc>lat.=56.069519, lon.=26.517494, Alt.=99.473694m. Speed=15.300000m/h.</desc>
<speed>4.250000</speed>
</trkpt>
<trkpt lat="56.069550" lon="26.517532">
<ele>101.286194</ele>
<time>2010-06-20T11:21:46Z</time>
<desc>lat.=56.069550, lon.=26.517532, Alt.=101.286194m. Speed=15.732000m/h.</desc>
<speed>4.370000</speed>
</trkpt>
<trkpt lat="56.069584" lon="26.517580">
<ele>102.288147</ele>
<time>2010-06-20T11:21:47Z</time>
<desc>lat.=56.069584, lon.=26.517580, Alt.=102.288147m. Speed=17.316000m/h.</desc>
<speed>4.810000</speed>
</trkpt>
<trkpt lat="56.069614" lon="26.517639">
<ele>102.172913</ele>
<time>2010-06-20T11:21:48Z</time>
<desc>lat.=56.069614, lon.=26.517639, Alt.=102.172913m. Speed=17.388000m/h.</desc>
<speed>4.830000</speed>
</trkpt>
<trkpt lat="56.069653" lon="26.517696">
<ele>102.938538</ele>
<time>2010-06-20T11:21:49Z</time>
<desc>lat.=56.069653, lon.=26.517696, Alt.=102.938538m. Speed=17.100000m/h.</desc>
<speed>4.750000</speed>
</trkpt>
<trkpt lat="56.069683" lon="26.517757">
<ele>103.682678</ele>
<time>2010-06-20T11:21:50Z</time>
<desc>lat.=56.069683, lon.=26.517757, Alt.=103.682678m. Speed=16.704000m/h.</desc>
<speed>4.640000</speed>
</trkpt>
<trkpt lat="56.069714" lon="26.517818">
<ele>104.387756</ele>
<time>2010-06-20T11:21:51Z</time>
<desc>lat.=56.069714, lon.=26.517818, Alt.=104.387756m. Speed=15.732000m/h.</desc>
<speed>4.370000</speed>
</trkpt>
<trkpt lat="56.069736" lon="26.517874">
<ele>104.688538</ele>
<time>2010-06-20T11:21:52Z</time>
<desc>lat.=56.069736, lon.=26.517874, Alt.=104.688538m. Speed=15.912000m/h.</desc>
<speed>4.420000</speed>
</trkpt>
<trkpt lat="56.069767" lon="26.517929">
<ele>105.002991</ele>
<time>2010-06-20T11:21:53Z</time>
<desc>lat.=56.069767, lon.=26.517929, Alt.=105.002991m. Speed=16.416000m/h.</desc>
<speed>4.560000</speed>
</trkpt>
<trkpt lat="56.069790" lon="26.517981">
<ele>105.196350</ele>
<time>2010-06-20T11:21:54Z</time>
<desc>lat.=56.069790, lon.=26.517981, Alt.=105.196350m. Speed=14.832000m/h.</desc>
<speed>4.120000</speed>
</trkpt>
<trkpt lat="56.069817" lon="26.518038">
<ele>105.376038</ele>
<time>2010-06-20T11:21:55Z</time>
<desc>lat.=56.069817, lon.=26.518038, Alt.=105.376038m. Speed=16.704000m/h.</desc>
<speed>4.640000</speed>
</trkpt>
<trkpt lat="56.069843" lon="26.518089">
<ele>105.272522</ele>
<time>2010-06-20T11:21:56Z</time>
<desc>lat.=56.069843, lon.=26.518089, Alt.=105.272522m. Speed=17.100000m/h.</desc>
<speed>4.750000</speed>
</trkpt>
<trkpt lat="56.069870" lon="26.518148">
<ele>105.169006</ele>
<time>2010-06-20T11:21:57Z</time>
<desc>lat.=56.069870, lon.=26.518148, Alt.=105.169006m. Speed=17.028000m/h.</desc>
<speed>4.730000</speed>
</trkpt>
<trkpt lat="56.069897" lon="26.518217">
<ele>105.190491</ele>
<time>2010-06-20T11:21:58Z</time>
<desc>lat.=56.069897, lon.=26.518217, Alt.=105.190491m. Speed=17.316000m/h.</desc>
<speed>4.810000</speed>
</trkpt>
<trkpt lat="56.069920" lon="26.518278">
<ele>104.811584</ele>
<time>2010-06-20T11:21:59Z</time>
<desc>lat.=56.069920, lon.=26.518278, Alt.=104.811584m. Speed=17.028000m/h.</desc>
<speed>4.730000</speed>
</trkpt>
<trkpt lat="56.069950" lon="26.518335">
<ele>105.038147</ele>
<time>2010-06-20T11:22:00Z</time>
<desc>lat.=56.069950, lon.=26.518335, Alt.=105.038147m. Speed=17.243999m/h.</desc>
<speed>4.790000</speed>
</trkpt>
<trkpt lat="56.069977" lon="26.518400">
<ele>105.137756</ele>
<time>2010-06-20T11:22:01Z</time>
<desc>lat.=56.069977, lon.=26.518400, Alt.=105.137756m. Speed=17.747999m/h.</desc>
<speed>4.930000</speed>
</trkpt>
<trkpt lat="56.070004" lon="26.518461">
<ele>105.249084</ele>
<time>2010-06-20T11:22:02Z</time>
<desc>lat.=56.070004, lon.=26.518461, Alt.=105.249084m. Speed=17.280001m/h.</desc>
<speed>4.800000</speed>
</trkpt>
<trkpt lat="56.070034" lon="26.518522">
<ele>105.772522</ele>
<time>2010-06-20T11:22:03Z</time>
<desc>lat.=56.070034, lon.=26.518522, Alt.=105.772522m. Speed=15.876000m/h.</desc>
<speed>4.410000</speed>
</trkpt>
<trkpt lat="56.070057" lon="26.518578">
<ele>106.079163</ele>
<time>2010-06-20T11:22:04Z</time>
<desc>lat.=56.070057, lon.=26.518578, Alt.=106.079163m. Speed=15.408000m/h.</desc>
<speed>4.280000</speed>
</trkpt>
<trkpt lat="56.070087" lon="26.518641">
<ele>106.815491</ele>
<time>2010-06-20T11:22:05Z</time>
<desc>lat.=56.070087, lon.=26.518641, Alt.=106.815491m. Speed=16.379999m/h.</desc>
<speed>4.550000</speed>
</trkpt>
<trkpt lat="56.070110" lon="26.518698">
<ele>107.071350</ele>
<time>2010-06-20T11:22:06Z</time>
<desc>lat.=56.070110, lon.=26.518698, Alt.=107.071350m. Speed=16.596001m/h.</desc>
<speed>4.610000</speed>
</trkpt>
<trkpt lat="56.070137" lon="26.518759">
<ele>107.233459</ele>
<time>2010-06-20T11:22:07Z</time>
<desc>lat.=56.070137, lon.=26.518759, Alt.=107.233459m. Speed=16.775999m/h.</desc>
<speed>4.660000</speed>
</trkpt>
<trkpt lat="56.070164" lon="26.518822">
<ele>107.795959</ele>
<time>2010-06-20T11:22:08Z</time>
<desc>lat.=56.070164, lon.=26.518822, Alt.=107.795959m. Speed=15.660000m/h.</desc>
<speed>4.350000</speed>
</trkpt>
<trkpt lat="56.070183" lon="26.518883">
<ele>108.163147</ele>
<time>2010-06-20T11:22:09Z</time>
<desc>lat.=56.070183, lon.=26.518883, Alt.=108.163147m. Speed=16.128000m/h.</desc>
<speed>4.480000</speed>
</trkpt>
<trkpt lat="56.070210" lon="26.518938">
<ele>108.694397</ele>
<time>2010-06-20T11:22:10Z</time>
<desc>lat.=56.070210, lon.=26.518938, Alt.=108.694397m. Speed=15.624000m/h.</desc>
<speed>4.340000</speed>
</trkpt>
<trkpt lat="56.070232" lon="26.518991">
<ele>108.811584</ele>
<time>2010-06-20T11:22:11Z</time>
<desc>lat.=56.070232, lon.=26.518991, Alt.=108.811584m. Speed=14.472000m/h.</desc>
<speed>4.020000</speed>
</trkpt>
<trkpt lat="56.070255" lon="26.519043">
<ele>108.985413</ele>
<time>2010-06-20T11:22:12Z</time>
<desc>lat.=56.070255, lon.=26.519043, Alt.=108.985413m. Speed=14.292000m/h.</desc>
<speed>3.970000</speed>
</trkpt>
<trkpt lat="56.070278" lon="26.519096">
<ele>108.842834</ele>
<time>2010-06-20T11:22:13Z</time>
<desc>lat.=56.070278, lon.=26.519096, Alt.=108.842834m. Speed=15.732000m/h.</desc>
<speed>4.370000</speed>
</trkpt>
<trkpt lat="56.070301" lon="26.519157">
<ele>108.670959</ele>
<time>2010-06-20T11:22:14Z</time>
<desc>lat.=56.070301, lon.=26.519157, Alt.=108.670959m. Speed=15.804000m/h.</desc>
<speed>4.390000</speed>
</trkpt>
<trkpt lat="56.070320" lon="26.519218">
<ele>108.311584</ele>
<time>2010-06-20T11:22:15Z</time>
<desc>lat.=56.070320, lon.=26.519218, Alt.=108.311584m. Speed=15.876000m/h.</desc>
<speed>4.410000</speed>
</trkpt>
<trkpt lat="56.070343" lon="26.519279">
<ele>108.245178</ele>
<time>2010-06-20T11:22:16Z</time>
<desc>lat.=56.070343, lon.=26.519279, Alt.=108.245178m. Speed=15.804000m/h.</desc>
<speed>4.390000</speed>
</trkpt>
<trkpt lat="56.070366" lon="26.519341">
<ele>108.258850</ele>
<time>2010-06-20T11:22:17Z</time>
<desc>lat.=56.070366, lon.=26.519341, Alt.=108.258850m. Speed=15.840000m/h.</desc>
<speed>4.400000</speed>
</trkpt>
<trkpt lat="56.070393" lon="26.519398">
<ele>108.710022</ele>
<time>2010-06-20T11:22:18Z</time>
<desc>lat.=56.070393, lon.=26.519398, Alt.=108.710022m. Speed=15.804000m/h.</desc>
<speed>4.390000</speed>
</trkpt>
<trkpt lat="56.070412" lon="26.519457">
<ele>109.110413</ele>
<time>2010-06-20T11:22:19Z</time>
<desc>lat.=56.070412, lon.=26.519457, Alt.=109.110413m. Speed=14.436000m/h.</desc>
<speed>4.010000</speed>
</trkpt>
<trkpt lat="56.070431" lon="26.519516">
<ele>109.090881</ele>
<time>2010-06-20T11:22:20Z</time>
<desc>lat.=56.070431, lon.=26.519516, Alt.=109.090881m. Speed=14.148000m/h.</desc>
<speed>3.930000</speed>
</trkpt>
<trkpt lat="56.070454" lon="26.519562">
<ele>109.299866</ele>
<time>2010-06-20T11:22:21Z</time>
<desc>lat.=56.070454, lon.=26.519562, Alt.=109.299866m. Speed=13.788000m/h.</desc>
<speed>3.830000</speed>
</trkpt>
<trkpt lat="56.070473" lon="26.519611">
<ele>109.487366</ele>
<time>2010-06-20T11:22:22Z</time>
<desc>lat.=56.070473, lon.=26.519611, Alt.=109.487366m. Speed=14.400000m/h.</desc>
<speed>4.000000</speed>
</trkpt>
<trkpt lat="56.070496" lon="26.519663">
<ele>109.473694</ele>
<time>2010-06-20T11:22:23Z</time>
<desc>lat.=56.070496, lon.=26.519663, Alt.=109.473694m. Speed=15.336000m/h.</desc>
<speed>4.260000</speed>
</trkpt>
<trkpt lat="56.070515" lon="26.519716">
<ele>109.452209</ele>
<time>2010-06-20T11:22:24Z</time>
<desc>lat.=56.070515, lon.=26.519716, Alt.=109.452209m. Speed=14.112000m/h.</desc>
<speed>3.920000</speed>
</trkpt>
<trkpt lat="56.070534" lon="26.519766">
<ele>108.098694</ele>
<time>2010-06-20T11:22:25Z</time>
<desc>lat.=56.070534, lon.=26.519766, Alt.=108.098694m. Speed=13.896000m/h.</desc>
<speed>3.860000</speed>
</trkpt>
<trkpt lat="56.070557" lon="26.519812">
<ele>107.749084</ele>
<time>2010-06-20T11:22:26Z</time>
<desc>lat.=56.070557, lon.=26.519812, Alt.=107.749084m. Speed=14.004000m/h.</desc>
<speed>3.890000</speed>
</trkpt>
<trkpt lat="56.070572" lon="26.519857">
<ele>107.387756</ele>
<time>2010-06-20T11:22:27Z</time>
<desc>lat.=56.070572, lon.=26.519857, Alt.=107.387756m. Speed=13.356000m/h.</desc>
<speed>3.710000</speed>
</trkpt>
<trkpt lat="56.070591" lon="26.519905">
<ele>107.118225</ele>
<time>2010-06-20T11:22:28Z</time>
<desc>lat.=56.070591, lon.=26.519905, Alt.=107.118225m. Speed=12.564000m/h.</desc>
<speed>3.490000</speed>
</trkpt>
<trkpt lat="56.070610" lon="26.519947">
<ele>107.393616</ele>
<time>2010-06-20T11:22:29Z</time>
<desc>lat.=56.070610, lon.=26.519947, Alt.=107.393616m. Speed=11.484000m/h.</desc>
<speed>3.190000</speed>
</trkpt>
<trkpt lat="56.070625" lon="26.519981">
<ele>106.893616</ele>
<time>2010-06-20T11:22:30Z</time>
<desc>lat.=56.070625, lon.=26.519981, Alt.=106.893616m. Speed=9.648000m/h.</desc>
<speed>2.680000</speed>
</trkpt>
<trkpt lat="56.070644" lon="26.520008">
<ele>107.006897</ele>
<time>2010-06-20T11:22:31Z</time>
<desc>lat.=56.070644, lon.=26.520008, Alt.=107.006897m. Speed=8.712000m/h.</desc>
<speed>2.420000</speed>
</trkpt>
<trkpt lat="56.070656" lon="26.520035">
<ele>106.627991</ele>
<time>2010-06-20T11:22:32Z</time>
<desc>lat.=56.070656, lon.=26.520035, Alt.=106.627991m. Speed=7.884000m/h.</desc>
<speed>2.190000</speed>
</trkpt>
<trkpt lat="56.070663" lon="26.520061">
<ele>106.295959</ele>
<time>2010-06-20T11:22:33Z</time>
<desc>lat.=56.070663, lon.=26.520061, Alt.=106.295959m. Speed=7.596000m/h.</desc>
<speed>2.110000</speed>
</trkpt>
<trkpt lat="56.070667" lon="26.520090">
<ele>106.104553</ele>
<time>2010-06-20T11:22:34Z</time>
<desc>lat.=56.070667, lon.=26.520090, Alt.=106.104553m. Speed=7.920000m/h.</desc>
<speed>2.200000</speed>
</trkpt>
<trkpt lat="56.070671" lon="26.520117">
<ele>104.907288</ele>
<time>2010-06-20T11:22:35Z</time>
<desc>lat.=56.070671, lon.=26.520117, Alt.=104.907288m. Speed=6.660000m/h.</desc>
<speed>1.850000</speed>
</trkpt>
<trkpt lat="56.070671" lon="26.520136">
<ele>104.852600</ele>
<time>2010-06-20T11:22:36Z</time>
<desc>lat.=56.070671, lon.=26.520136, Alt.=104.852600m. Speed=6.156000m/h.</desc>
<speed>1.710000</speed>
</trkpt>
<trkpt lat="56.070683" lon="26.520155">
<ele>105.944397</ele>
<time>2010-06-20T11:22:37Z</time>
<desc>lat.=56.070683, lon.=26.520155, Alt.=105.944397m. Speed=7.380000m/h.</desc>
<speed>2.050000</speed>
</trkpt>
<trkpt lat="56.070694" lon="26.520182">
<ele>105.913147</ele>
<time>2010-06-20T11:22:38Z</time>
<desc>lat.=56.070694, lon.=26.520182, Alt.=105.913147m. Speed=9.000000m/h.</desc>
<speed>2.500000</speed>
</trkpt>
<trkpt lat="56.070709" lon="26.520214">
<ele>106.077209</ele>
<time>2010-06-20T11:22:39Z</time>
<desc>lat.=56.070709, lon.=26.520214, Alt.=106.077209m. Speed=9.144000m/h.</desc>
<speed>2.540000</speed>
</trkpt>
<trkpt lat="56.070721" lon="26.520254">
<ele>106.211975</ele>
<time>2010-06-20T11:22:40Z</time>
<desc>lat.=56.070721, lon.=26.520254, Alt.=106.211975m. Speed=9.504000m/h.</desc>
<speed>2.640000</speed>
</trkpt>
<trkpt lat="56.070740" lon="26.520287">
<ele>106.065491</ele>
<time>2010-06-20T11:22:41Z</time>
<desc>lat.=56.070740, lon.=26.520287, Alt.=106.065491m. Speed=10.332000m/h.</desc>
<speed>2.870000</speed>
</trkpt>
<trkpt lat="56.070759" lon="26.520319">
<ele>106.036194</ele>
<time>2010-06-20T11:22:42Z</time>
<desc>lat.=56.070759, lon.=26.520319, Alt.=106.036194m. Speed=10.692000m/h.</desc>
<speed>2.970000</speed>
</trkpt>
<trkpt lat="56.070774" lon="26.520348">
<ele>106.348694</ele>
<time>2010-06-20T11:22:43Z</time>
<desc>lat.=56.070774, lon.=26.520348, Alt.=106.348694m. Speed=8.568000m/h.</desc>
<speed>2.380000</speed>
</trkpt>
<trkpt lat="56.070789" lon="26.520374">
<ele>106.643616</ele>
<time>2010-06-20T11:22:44Z</time>
<desc>lat.=56.070789, lon.=26.520374, Alt.=106.643616m. Speed=8.064000m/h.</desc>
<speed>2.240000</speed>
</trkpt>
<trkpt lat="56.070805" lon="26.520401">
<ele>106.889709</ele>
<time>2010-06-20T11:22:45Z</time>
<desc>lat.=56.070805, lon.=26.520401, Alt.=106.889709m. Speed=9.000000m/h.</desc>
<speed>2.500000</speed>
</trkpt>
<trkpt lat="56.070820" lon="26.520437">
<ele>106.542053</ele>
<time>2010-06-20T11:22:46Z</time>
<desc>lat.=56.070820, lon.=26.520437, Alt.=106.542053m. Speed=10.188000m/h.</desc>
<speed>2.830000</speed>
</trkpt>
<trkpt lat="56.070835" lon="26.520472">
<ele>106.706116</ele>
<time>2010-06-20T11:22:47Z</time>
<desc>lat.=56.070835, lon.=26.520472, Alt.=106.706116m. Speed=9.612000m/h.</desc>
<speed>2.670000</speed>
</trkpt>
<trkpt lat="56.070854" lon="26.520500">
<ele>106.475647</ele>
<time>2010-06-20T11:22:48Z</time>
<desc>lat.=56.070854, lon.=26.520500, Alt.=106.475647m. Speed=8.712000m/h.</desc>
<speed>2.420000</speed>
</trkpt>
<trkpt lat="56.070869" lon="26.520531">
<ele>106.317444</ele>
<time>2010-06-20T11:22:49Z</time>
<desc>lat.=56.070869, lon.=26.520531, Alt.=106.317444m. Speed=8.784000m/h.</desc>
<speed>2.440000</speed>
</trkpt>
<trkpt lat="56.070885" lon="26.520563">
<ele>105.842834</ele>
<time>2010-06-20T11:22:50Z</time>
<desc>lat.=56.070885, lon.=26.520563, Alt.=105.842834m. Speed=8.928000m/h.</desc>
<speed>2.480000</speed>
</trkpt>
<trkpt lat="56.070900" lon="26.520592">
<ele>105.549866</ele>
<time>2010-06-20T11:22:51Z</time>
<desc>lat.=56.070900, lon.=26.520592, Alt.=105.549866m. Speed=8.604000m/h.</desc>
<speed>2.390000</speed>
</trkpt>
<trkpt lat="56.070911" lon="26.520618">
<ele>105.323303</ele>
<time>2010-06-20T11:22:52Z</time>
<desc>lat.=56.070911, lon.=26.520618, Alt.=105.323303m. Speed=7.164000m/h.</desc>
<speed>1.990000</speed>
</trkpt>
<trkpt lat="56.070919" lon="26.520649">
<ele>104.872131</ele>
<time>2010-06-20T11:22:53Z</time>
<desc>lat.=56.070919, lon.=26.520649, Alt.=104.872131m. Speed=9.360000m/h.</desc>
<speed>2.600000</speed>
</trkpt>
<trkpt lat="56.070934" lon="26.520683">
<ele>104.751038</ele>
<time>2010-06-20T11:22:54Z</time>
<desc>lat.=56.070934, lon.=26.520683, Alt.=104.751038m. Speed=9.504000m/h.</desc>
<speed>2.640000</speed>
</trkpt>
<trkpt lat="56.070946" lon="26.520718">
<ele>104.674866</ele>
<time>2010-06-20T11:22:55Z</time>
<desc>lat.=56.070946, lon.=26.520718, Alt.=104.674866m. Speed=8.604000m/h.</desc>
<speed>2.390000</speed>
</trkpt>
<trkpt lat="56.070961" lon="26.520750">
<ele>104.731506</ele>
<time>2010-06-20T11:22:56Z</time>
<desc>lat.=56.070961, lon.=26.520750, Alt.=104.731506m. Speed=8.172000m/h.</desc>
<speed>2.270000</speed>
</trkpt>
<trkpt lat="56.070972" lon="26.520779">
<ele>104.770569</ele>
<time>2010-06-20T11:22:57Z</time>
<desc>lat.=56.070972, lon.=26.520779, Alt.=104.770569m. Speed=8.388000m/h.</desc>
<speed>2.330000</speed>
</trkpt>
<trkpt lat="56.070980" lon="26.520813">
<ele>104.745178</ele>
<time>2010-06-20T11:22:58Z</time>
<desc>lat.=56.070980, lon.=26.520813, Alt.=104.745178m. Speed=10.152000m/h.</desc>
<speed>2.820000</speed>
</trkpt>
<trkpt lat="56.070995" lon="26.520853">
<ele>104.514709</ele>
<time>2010-06-20T11:22:59Z</time>
<desc>lat.=56.070995, lon.=26.520853, Alt.=104.514709m. Speed=10.512000m/h.</desc>
<speed>2.920000</speed>
</trkpt>
<trkpt lat="56.071011" lon="26.520891">
<ele>103.653381</ele>
<time>2010-06-20T11:23:00Z</time>
<desc>lat.=56.071011, lon.=26.520891, Alt.=103.653381m. Speed=10.800000m/h.</desc>
<speed>3.000000</speed>
</trkpt>
<trkpt lat="56.071026" lon="26.520929">
<ele>103.534241</ele>
<time>2010-06-20T11:23:01Z</time>
<desc>lat.=56.071026, lon.=26.520929, Alt.=103.534241m. Speed=10.548000m/h.</desc>
<speed>2.930000</speed>
</trkpt>
<trkpt lat="56.071037" lon="26.520969">
<ele>103.534241</ele>
<time>2010-06-20T11:23:02Z</time>
<desc>lat.=56.071037, lon.=26.520969, Alt.=103.534241m. Speed=9.792000m/h.</desc>
<speed>2.720000</speed>
</trkpt>
<trkpt lat="56.071060" lon="26.520998">
<ele>104.530334</ele>
<time>2010-06-20T11:23:03Z</time>
<desc>lat.=56.071060, lon.=26.520998, Alt.=104.530334m. Speed=9.972000m/h.</desc>
<speed>2.770000</speed>
</trkpt>
<trkpt lat="56.071079" lon="26.521036">
<ele>105.124084</ele>
<time>2010-06-20T11:23:04Z</time>
<desc>lat.=56.071079, lon.=26.521036, Alt.=105.124084m. Speed=10.548000m/h.</desc>
<speed>2.930000</speed>
</trkpt>
<trkpt lat="56.071106" lon="26.521065">
<ele>107.010803</ele>
<time>2010-06-20T11:23:05Z</time>
<desc>lat.=56.071106, lon.=26.521065, Alt.=107.010803m. Speed=10.116000m/h.</desc>
<speed>2.810000</speed>
</trkpt>
<trkpt lat="56.071125" lon="26.521107">
<ele>106.907288</ele>
<time>2010-06-20T11:23:06Z</time>
<desc>lat.=56.071125, lon.=26.521107, Alt.=106.907288m. Speed=10.188000m/h.</desc>
<speed>2.830000</speed>
</trkpt>
<trkpt lat="56.071140" lon="26.521154">
<ele>107.012756</ele>
<time>2010-06-20T11:23:07Z</time>
<desc>lat.=56.071140, lon.=26.521154, Alt.=107.012756m. Speed=9.612000m/h.</desc>
<speed>2.670000</speed>
</trkpt>
<trkpt lat="56.071152" lon="26.521193">
<ele>107.338928</ele>
<time>2010-06-20T11:23:08Z</time>
<desc>lat.=56.071152, lon.=26.521193, Alt.=107.338928m. Speed=10.188000m/h.</desc>
<speed>2.830000</speed>
</trkpt>
<trkpt lat="56.071167" lon="26.521235">
<ele>106.977600</ele>
<time>2010-06-20T11:23:09Z</time>
<desc>lat.=56.071167, lon.=26.521235, Alt.=106.977600m. Speed=11.628000m/h.</desc>
<speed>3.230000</speed>
</trkpt>
<trkpt lat="56.071182" lon="26.521282">
<ele>106.303772</ele>
<time>2010-06-20T11:23:10Z</time>
<desc>lat.=56.071182, lon.=26.521282, Alt.=106.303772m. Speed=12.600000m/h.</desc>
<speed>3.500000</speed>
</trkpt>
<trkpt lat="56.071198" lon="26.521332">
<ele>106.952209</ele>
<time>2010-06-20T11:23:11Z</time>
<desc>lat.=56.071198, lon.=26.521332, Alt.=106.952209m. Speed=12.168000m/h.</desc>
<speed>3.380000</speed>
</trkpt>
<trkpt lat="56.071213" lon="26.521378">
<ele>107.286194</ele>
<time>2010-06-20T11:23:12Z</time>
<desc>lat.=56.071213, lon.=26.521378, Alt.=107.286194m. Speed=11.412000m/h.</desc>
<speed>3.170000</speed>
</trkpt>
<trkpt lat="56.071228" lon="26.521423">
<ele>107.311584</ele>
<time>2010-06-20T11:23:13Z</time>
<desc>lat.=56.071228, lon.=26.521423, Alt.=107.311584m. Speed=11.952000m/h.</desc>
<speed>3.320000</speed>
</trkpt>
<trkpt lat="56.071247" lon="26.521469">
<ele>107.278381</ele>
<time>2010-06-20T11:23:14Z</time>
<desc>lat.=56.071247, lon.=26.521469, Alt.=107.278381m. Speed=12.420000m/h.</desc>
<speed>3.450000</speed>
</trkpt>
<trkpt lat="56.071262" lon="26.521515">
<ele>107.200256</ele>
<time>2010-06-20T11:23:15Z</time>
<desc>lat.=56.071262, lon.=26.521515, Alt.=107.200256m. Speed=12.096000m/h.</desc>
<speed>3.360000</speed>
</trkpt>
<trkpt lat="56.071281" lon="26.521564">
<ele>107.336975</ele>
<time>2010-06-20T11:23:16Z</time>
<desc>lat.=56.071281, lon.=26.521564, Alt.=107.336975m. Speed=12.528000m/h.</desc>
<speed>3.480000</speed>
</trkpt>
<trkpt lat="56.071297" lon="26.521612">
<ele>107.366272</ele>
<time>2010-06-20T11:23:17Z</time>
<desc>lat.=56.071297, lon.=26.521612, Alt.=107.366272m. Speed=12.960000m/h.</desc>
<speed>3.600000</speed>
</trkpt>
<trkpt lat="56.071316" lon="26.521662">
<ele>107.456116</ele>
<time>2010-06-20T11:23:18Z</time>
<desc>lat.=56.071316, lon.=26.521662, Alt.=107.456116m. Speed=12.564000m/h.</desc>
<speed>3.490000</speed>
</trkpt>
<trkpt lat="56.071331" lon="26.521708">
<ele>107.608459</ele>
<time>2010-06-20T11:23:19Z</time>
<desc>lat.=56.071331, lon.=26.521708, Alt.=107.608459m. Speed=12.528000m/h.</desc>
<speed>3.480000</speed>
</trkpt>
<trkpt lat="56.071350" lon="26.521757">
<ele>107.260803</ele>
<time>2010-06-20T11:23:20Z</time>
<desc>lat.=56.071350, lon.=26.521757, Alt.=107.260803m. Speed=13.248000m/h.</desc>
<speed>3.680000</speed>
</trkpt>
<trkpt lat="56.071369" lon="26.521811">
<ele>107.288147</ele>
<time>2010-06-20T11:23:21Z</time>
<desc>lat.=56.071369, lon.=26.521811, Alt.=107.288147m. Speed=13.068000m/h.</desc>
<speed>3.630000</speed>
</trkpt>
<trkpt lat="56.071388" lon="26.521862">
<ele>107.426819</ele>
<time>2010-06-20T11:23:22Z</time>
<desc>lat.=56.071388, lon.=26.521862, Alt.=107.426819m. Speed=13.032000m/h.</desc>
<speed>3.620000</speed>
</trkpt>
<trkpt lat="56.071407" lon="26.521908">
<ele>107.061584</ele>
<time>2010-06-20T11:23:23Z</time>
<desc>lat.=56.071407, lon.=26.521908, Alt.=107.061584m. Speed=13.248000m/h.</desc>
<speed>3.680000</speed>
</trkpt>
<trkpt lat="56.071423" lon="26.521957">
<ele>106.842834</ele>
<time>2010-06-20T11:23:24Z</time>
<desc>lat.=56.071423, lon.=26.521957, Alt.=106.842834m. Speed=12.492000m/h.</desc>
<speed>3.470000</speed>
</trkpt>
<trkpt lat="56.071442" lon="26.522001">
<ele>107.116272</ele>
<time>2010-06-20T11:23:25Z</time>
<desc>lat.=56.071442, lon.=26.522001, Alt.=107.116272m. Speed=11.916000m/h.</desc>
<speed>3.310000</speed>
</trkpt>
<trkpt lat="56.071461" lon="26.522045">
<ele>107.131897</ele>
<time>2010-06-20T11:23:26Z</time>
<desc>lat.=56.071461, lon.=26.522045, Alt.=107.131897m. Speed=11.772000m/h.</desc>
<speed>3.270000</speed>
</trkpt>
<trkpt lat="56.071484" lon="26.522093">
<ele>107.356506</ele>
<time>2010-06-20T11:23:27Z</time>
<desc>lat.=56.071484, lon.=26.522093, Alt.=107.356506m. Speed=13.104000m/h.</desc>
<speed>3.640000</speed>
</trkpt>
<trkpt lat="56.071503" lon="26.522141">
<ele>107.469788</ele>
<time>2010-06-20T11:23:28Z</time>
<desc>lat.=56.071503, lon.=26.522141, Alt.=107.469788m. Speed=13.608000m/h.</desc>
<speed>3.780000</speed>
</trkpt>
<trkpt lat="56.071522" lon="26.522184">
<ele>107.383850</ele>
<time>2010-06-20T11:23:29Z</time>
<desc>lat.=56.071522, lon.=26.522184, Alt.=107.383850m. Speed=13.104000m/h.</desc>
<speed>3.640000</speed>
</trkpt>
<trkpt lat="56.071541" lon="26.522232">
<ele>107.460022</ele>
<time>2010-06-20T11:23:30Z</time>
<desc>lat.=56.071541, lon.=26.522232, Alt.=107.460022m. Speed=12.888000m/h.</desc>
<speed>3.580000</speed>
</trkpt>
<trkpt lat="56.071564" lon="26.522280">
<ele>107.678772</ele>
<time>2010-06-20T11:23:31Z</time>
<desc>lat.=56.071564, lon.=26.522280, Alt.=107.678772m. Speed=12.384000m/h.</desc>
<speed>3.440000</speed>
</trkpt>
<trkpt lat="56.071579" lon="26.522339">
<ele>107.926819</ele>
<time>2010-06-20T11:23:32Z</time>
<desc>lat.=56.071579, lon.=26.522339, Alt.=107.926819m. Speed=13.176000m/h.</desc>
<speed>3.660000</speed>
</trkpt>
<trkpt lat="56.071598" lon="26.522383">
<ele>107.844788</ele>
<time>2010-06-20T11:23:33Z</time>
<desc>lat.=56.071598, lon.=26.522383, Alt.=107.844788m. Speed=13.248000m/h.</desc>
<speed>3.680000</speed>
</trkpt>
<trkpt lat="56.071621" lon="26.522429">
<ele>107.807678</ele>
<time>2010-06-20T11:23:34Z</time>
<desc>lat.=56.071621, lon.=26.522429, Alt.=107.807678m. Speed=12.888000m/h.</desc>
<speed>3.580000</speed>
</trkpt>
<trkpt lat="56.071640" lon="26.522474">
<ele>108.047913</ele>
<time>2010-06-20T11:23:35Z</time>
<desc>lat.=56.071640, lon.=26.522474, Alt.=108.047913m. Speed=13.212000m/h.</desc>
<speed>3.670000</speed>
</trkpt>
<trkpt lat="56.071663" lon="26.522520">
<ele>108.233459</ele>
<time>2010-06-20T11:23:36Z</time>
<desc>lat.=56.071663, lon.=26.522520, Alt.=108.233459m. Speed=12.996000m/h.</desc>
<speed>3.610000</speed>
</trkpt>
<trkpt lat="56.071682" lon="26.522564">
<ele>108.288147</ele>
<time>2010-06-20T11:23:37Z</time>
<desc>lat.=56.071682, lon.=26.522564, Alt.=108.288147m. Speed=12.816000m/h.</desc>
<speed>3.560000</speed>
</trkpt>
<trkpt lat="56.071701" lon="26.522608">
<ele>108.213928</ele>
<time>2010-06-20T11:23:38Z</time>
<desc>lat.=56.071701, lon.=26.522608, Alt.=108.213928m. Speed=12.564000m/h.</desc>
<speed>3.490000</speed>
</trkpt>
<trkpt lat="56.071720" lon="26.522650">
<ele>108.184631</ele>
<time>2010-06-20T11:23:39Z</time>
<desc>lat.=56.071720, lon.=26.522650, Alt.=108.184631m. Speed=12.564000m/h.</desc>
<speed>3.490000</speed>
</trkpt>
<trkpt lat="56.071735" lon="26.522694">
<ele>107.979553</ele>
<time>2010-06-20T11:23:40Z</time>
<desc>lat.=56.071735, lon.=26.522694, Alt.=107.979553m. Speed=12.024000m/h.</desc>
<speed>3.340000</speed>
</trkpt>
<trkpt lat="56.071754" lon="26.522732">
<ele>107.975647</ele>
<time>2010-06-20T11:23:41Z</time>
<desc>lat.=56.071754, lon.=26.522732, Alt.=107.975647m. Speed=11.736000m/h.</desc>
<speed>3.260000</speed>
</trkpt>
<trkpt lat="56.071770" lon="26.522768">
<ele>108.196350</ele>
<time>2010-06-20T11:23:42Z</time>
<desc>lat.=56.071770, lon.=26.522768, Alt.=108.196350m. Speed=11.268000m/h.</desc>
<speed>3.130000</speed>
</trkpt>
<trkpt lat="56.071785" lon="26.522804">
<ele>108.172913</ele>
<time>2010-06-20T11:23:43Z</time>
<desc>lat.=56.071785, lon.=26.522804, Alt.=108.172913m. Speed=11.196000m/h.</desc>
<speed>3.110000</speed>
</trkpt>
<trkpt lat="56.071804" lon="26.522848">
<ele>108.149475</ele>
<time>2010-06-20T11:23:44Z</time>
<desc>lat.=56.071804, lon.=26.522848, Alt.=108.149475m. Speed=11.124000m/h.</desc>
<speed>3.090000</speed>
</trkpt>
<trkpt lat="56.071819" lon="26.522892">
<ele>107.936584</ele>
<time>2010-06-20T11:23:45Z</time>
<desc>lat.=56.071819, lon.=26.522892, Alt.=107.936584m. Speed=11.916000m/h.</desc>
<speed>3.310000</speed>
</trkpt>
<trkpt lat="56.071838" lon="26.522936">
<ele>108.081116</ele>
<time>2010-06-20T11:23:46Z</time>
<desc>lat.=56.071838, lon.=26.522936, Alt.=108.081116m. Speed=12.276000m/h.</desc>
<speed>3.410000</speed>
</trkpt>
<trkpt lat="56.071854" lon="26.522985">
<ele>107.901428</ele>
<time>2010-06-20T11:23:47Z</time>
<desc>lat.=56.071854, lon.=26.522985, Alt.=107.901428m. Speed=12.456000m/h.</desc>
<speed>3.460000</speed>
</trkpt>
<trkpt lat="56.071873" lon="26.523035">
<ele>107.499084</ele>
<time>2010-06-20T11:23:48Z</time>
<desc>lat.=56.071873, lon.=26.523035, Alt.=107.499084m. Speed=13.104000m/h.</desc>
<speed>3.640000</speed>
</trkpt>
<trkpt lat="56.071892" lon="26.523085">
<ele>107.374084</ele>
<time>2010-06-20T11:23:49Z</time>
<desc>lat.=56.071892, lon.=26.523085, Alt.=107.374084m. Speed=12.744000m/h.</desc>
<speed>3.540000</speed>
</trkpt>
<trkpt lat="56.071907" lon="26.523132">
<ele>107.254944</ele>
<time>2010-06-20T11:23:50Z</time>
<desc>lat.=56.071907, lon.=26.523132, Alt.=107.254944m. Speed=12.528000m/h.</desc>
<speed>3.480000</speed>
</trkpt>
<trkpt lat="56.071926" lon="26.523176">
<ele>107.700256</ele>
<time>2010-06-20T11:23:51Z</time>
<desc>lat.=56.071926, lon.=26.523176, Alt.=107.700256m. Speed=12.672000m/h.</desc>
<speed>3.520000</speed>
</trkpt>
<trkpt lat="56.071945" lon="26.523224">
<ele>108.260803</ele>
<time>2010-06-20T11:23:52Z</time>
<desc>lat.=56.071945, lon.=26.523224, Alt.=108.260803m. Speed=13.896000m/h.</desc>
<speed>3.860000</speed>
</trkpt>
<trkpt lat="56.071968" lon="26.523275">
<ele>108.340881</ele>
<time>2010-06-20T11:23:53Z</time>
<desc>lat.=56.071968, lon.=26.523275, Alt.=108.340881m. Speed=15.840000m/h.</desc>
<speed>4.400000</speed>
</trkpt>
<trkpt lat="56.071991" lon="26.523323">
<ele>108.075256</ele>
<time>2010-06-20T11:23:54Z</time>
<desc>lat.=56.071991, lon.=26.523323, Alt.=108.075256m. Speed=13.752000m/h.</desc>
<speed>3.820000</speed>
</trkpt>
<trkpt lat="56.072014" lon="26.523371">
<ele>108.077209</ele>
<time>2010-06-20T11:23:55Z</time>
<desc>lat.=56.072014, lon.=26.523371, Alt.=108.077209m. Speed=13.284000m/h.</desc>
<speed>3.690000</speed>
</trkpt>
<trkpt lat="56.072029" lon="26.523422">
<ele>108.071350</ele>
<time>2010-06-20T11:23:56Z</time>
<desc>lat.=56.072029, lon.=26.523422, Alt.=108.071350m. Speed=13.536000m/h.</desc>
<speed>3.760000</speed>
</trkpt>
<trkpt lat="56.072052" lon="26.523479">
<ele>107.950256</ele>
<time>2010-06-20T11:23:57Z</time>
<desc>lat.=56.072052, lon.=26.523479, Alt.=107.950256m. Speed=14.508000m/h.</desc>
<speed>4.030000</speed>
</trkpt>
<trkpt lat="56.072071" lon="26.523535">
<ele>107.565491</ele>
<time>2010-06-20T11:23:58Z</time>
<desc>lat.=56.072071, lon.=26.523535, Alt.=107.565491m. Speed=14.040000m/h.</desc>
<speed>3.900000</speed>
</trkpt>
<trkpt lat="56.072090" lon="26.523582">
<ele>107.504944</ele>
<time>2010-06-20T11:23:59Z</time>
<desc>lat.=56.072090, lon.=26.523582, Alt.=107.504944m. Speed=13.752000m/h.</desc>
<speed>3.820000</speed>
</trkpt>
<trkpt lat="56.072105" lon="26.523632">
<ele>107.346741</ele>
<time>2010-06-20T11:24:00Z</time>
<desc>lat.=56.072105, lon.=26.523632, Alt.=107.346741m. Speed=13.464000m/h.</desc>
<speed>3.740000</speed>
</trkpt>
<trkpt lat="56.072121" lon="26.523687">
<ele>107.170959</ele>
<time>2010-06-20T11:24:01Z</time>
<desc>lat.=56.072121, lon.=26.523687, Alt.=107.170959m. Speed=12.492000m/h.</desc>
<speed>3.470000</speed>
</trkpt>
<trkpt lat="56.072140" lon="26.523735">
<ele>106.885803</ele>
<time>2010-06-20T11:24:02Z</time>
<desc>lat.=56.072140, lon.=26.523735, Alt.=106.885803m. Speed=13.212000m/h.</desc>
<speed>3.670000</speed>
</trkpt>
<trkpt lat="56.072159" lon="26.523787">
<ele>106.159241</ele>
<time>2010-06-20T11:24:03Z</time>
<desc>lat.=56.072159, lon.=26.523787, Alt.=106.159241m. Speed=13.068000m/h.</desc>
<speed>3.630000</speed>
</trkpt>
<trkpt lat="56.072174" lon="26.523834">
<ele>105.602600</ele>
<time>2010-06-20T11:24:04Z</time>
<desc>lat.=56.072174, lon.=26.523834, Alt.=105.602600m. Speed=11.988000m/h.</desc>
<speed>3.330000</speed>
</trkpt>
<trkpt lat="56.072193" lon="26.523876">
<ele>105.897522</ele>
<time>2010-06-20T11:24:05Z</time>
<desc>lat.=56.072193, lon.=26.523876, Alt.=105.897522m. Speed=11.844000m/h.</desc>
<speed>3.290000</speed>
</trkpt>
<trkpt lat="56.072205" lon="26.523920">
<ele>105.860413</ele>
<time>2010-06-20T11:24:06Z</time>
<desc>lat.=56.072205, lon.=26.523920, Alt.=105.860413m. Speed=11.232000m/h.</desc>
<speed>3.120000</speed>
</trkpt>
<trkpt lat="56.072216" lon="26.523966">
<ele>105.622131</ele>
<time>2010-06-20T11:24:07Z</time>
<desc>lat.=56.072216, lon.=26.523966, Alt.=105.622131m. Speed=11.268000m/h.</desc>
<speed>3.130000</speed>
</trkpt>
<trkpt lat="56.072231" lon="26.524017">
<ele>105.522522</ele>
<time>2010-06-20T11:24:08Z</time>
<desc>lat.=56.072231, lon.=26.524017, Alt.=105.522522m. Speed=14.256000m/h.</desc>
<speed>3.960000</speed>
</trkpt>
<trkpt lat="56.072247" lon="26.524065">
<ele>105.239319</ele>
<time>2010-06-20T11:24:09Z</time>
<desc>lat.=56.072247, lon.=26.524065, Alt.=105.239319m. Speed=11.268000m/h.</desc>
<speed>3.130000</speed>
</trkpt>
<trkpt lat="56.072262" lon="26.524103">
<ele>104.899475</ele>
<time>2010-06-20T11:24:10Z</time>
<desc>lat.=56.072262, lon.=26.524103, Alt.=104.899475m. Speed=11.196000m/h.</desc>
<speed>3.110000</speed>
</trkpt>
<trkpt lat="56.072277" lon="26.524137">
<ele>104.835022</ele>
<time>2010-06-20T11:24:11Z</time>
<desc>lat.=56.072277, lon.=26.524137, Alt.=104.835022m. Speed=11.124000m/h.</desc>
<speed>3.090000</speed>
</trkpt>
<trkpt lat="56.072296" lon="26.524168">
<ele>104.678772</ele>
<time>2010-06-20T11:24:12Z</time>
<desc>lat.=56.072296, lon.=26.524168, Alt.=104.678772m. Speed=11.304000m/h.</desc>
<speed>3.140000</speed>
</trkpt>
<trkpt lat="56.072308" lon="26.524206">
<ele>104.516663</ele>
<time>2010-06-20T11:24:13Z</time>
<desc>lat.=56.072308, lon.=26.524206, Alt.=104.516663m. Speed=12.276000m/h.</desc>
<speed>3.410000</speed>
</trkpt>
<trkpt lat="56.072327" lon="26.524250">
<ele>104.413147</ele>
<time>2010-06-20T11:24:14Z</time>
<desc>lat.=56.072327, lon.=26.524250, Alt.=104.413147m. Speed=12.564000m/h.</desc>
<speed>3.490000</speed>
</trkpt>
<trkpt lat="56.072346" lon="26.524292">
<ele>104.469788</ele>
<time>2010-06-20T11:24:15Z</time>
<desc>lat.=56.072346, lon.=26.524292, Alt.=104.469788m. Speed=12.816000m/h.</desc>
<speed>3.560000</speed>
</trkpt>
<trkpt lat="56.072369" lon="26.524332">
<ele>104.764709</ele>
<time>2010-06-20T11:24:16Z</time>
<desc>lat.=56.072369, lon.=26.524332, Alt.=104.764709m. Speed=12.060000m/h.</desc>
<speed>3.350000</speed>
</trkpt>
<trkpt lat="56.072384" lon="26.524376">
<ele>104.819397</ele>
<time>2010-06-20T11:24:17Z</time>
<desc>lat.=56.072384, lon.=26.524376, Alt.=104.819397m. Speed=11.304000m/h.</desc>
<speed>3.140000</speed>
</trkpt>
<trkpt lat="56.072395" lon="26.524416">
<ele>104.725647</ele>
<time>2010-06-20T11:24:18Z</time>
<desc>lat.=56.072395, lon.=26.524416, Alt.=104.725647m. Speed=11.484000m/h.</desc>
<speed>3.190000</speed>
</trkpt>
<trkpt lat="56.072414" lon="26.524454">
<ele>104.590881</ele>
<time>2010-06-20T11:24:19Z</time>
<desc>lat.=56.072414, lon.=26.524454, Alt.=104.590881m. Speed=11.520000m/h.</desc>
<speed>3.200000</speed>
</trkpt>
<trkpt lat="56.072433" lon="26.524487">
<ele>104.487366</ele>
<time>2010-06-20T11:24:20Z</time>
<desc>lat.=56.072433, lon.=26.524487, Alt.=104.487366m. Speed=12.492000m/h.</desc>
<speed>3.470000</speed>
</trkpt>
<trkpt lat="56.072453" lon="26.524532">
<ele>104.860413</ele>
<time>2010-06-20T11:24:21Z</time>
<desc>lat.=56.072453, lon.=26.524532, Alt.=104.860413m. Speed=13.356000m/h.</desc>
<speed>3.710000</speed>
</trkpt>
<trkpt lat="56.072475" lon="26.524580">
<ele>104.881897</ele>
<time>2010-06-20T11:24:22Z</time>
<desc>lat.=56.072475, lon.=26.524580, Alt.=104.881897m. Speed=14.436000m/h.</desc>
<speed>4.010000</speed>
</trkpt>
<trkpt lat="56.072495" lon="26.524637">
<ele>104.864319</ele>
<time>2010-06-20T11:24:23Z</time>
<desc>lat.=56.072495, lon.=26.524637, Alt.=104.864319m. Speed=15.012000m/h.</desc>
<speed>4.170000</speed>
</trkpt>
<trkpt lat="56.072514" lon="26.524693">
<ele>104.872131</ele>
<time>2010-06-20T11:24:24Z</time>
<desc>lat.=56.072514, lon.=26.524693, Alt.=104.872131m. Speed=14.364000m/h.</desc>
<speed>3.990000</speed>
</trkpt>
<trkpt lat="56.072536" lon="26.524748">
<ele>104.897522</ele>
<time>2010-06-20T11:24:25Z</time>
<desc>lat.=56.072536, lon.=26.524748, Alt.=104.897522m. Speed=14.724000m/h.</desc>
<speed>4.090000</speed>
</trkpt>
<trkpt lat="56.072559" lon="26.524803">
<ele>104.850647</ele>
<time>2010-06-20T11:24:26Z</time>
<desc>lat.=56.072559, lon.=26.524803, Alt.=104.850647m. Speed=14.256000m/h.</desc>
<speed>3.960000</speed>
</trkpt>
<trkpt lat="56.072582" lon="26.524862">
<ele>104.991272</ele>
<time>2010-06-20T11:24:27Z</time>
<desc>lat.=56.072582, lon.=26.524862, Alt.=104.991272m. Speed=14.760000m/h.</desc>
<speed>4.100000</speed>
</trkpt>
<trkpt lat="56.072605" lon="26.524916">
<ele>105.001038</ele>
<time>2010-06-20T11:24:28Z</time>
<desc>lat.=56.072605, lon.=26.524916, Alt.=105.001038m. Speed=13.968000m/h.</desc>
<speed>3.880000</speed>
</trkpt>
<trkpt lat="56.072624" lon="26.524965">
<ele>105.155334</ele>
<time>2010-06-20T11:24:29Z</time>
<desc>lat.=56.072624, lon.=26.524965, Alt.=105.155334m. Speed=13.932000m/h.</desc>
<speed>3.870000</speed>
</trkpt>
<trkpt lat="56.072643" lon="26.525015">
<ele>105.239319</ele>
<time>2010-06-20T11:24:30Z</time>
<desc>lat.=56.072643, lon.=26.525015, Alt.=105.239319m. Speed=14.868000m/h.</desc>
<speed>4.130000</speed>
</trkpt>
<trkpt lat="56.072666" lon="26.525074">
<ele>105.417053</ele>
<time>2010-06-20T11:24:31Z</time>
<desc>lat.=56.072666, lon.=26.525074, Alt.=105.417053m. Speed=15.840000m/h.</desc>
<speed>4.400000</speed>
</trkpt>
<trkpt lat="56.072689" lon="26.525133">
<ele>105.475647</ele>
<time>2010-06-20T11:24:32Z</time>
<desc>lat.=56.072689, lon.=26.525133, Alt.=105.475647m. Speed=15.264000m/h.</desc>
<speed>4.240000</speed>
</trkpt>
<trkpt lat="56.072716" lon="26.525190">
<ele>105.278381</ele>
<time>2010-06-20T11:24:33Z</time>
<desc>lat.=56.072716, lon.=26.525190, Alt.=105.278381m. Speed=16.271999m/h.</desc>
<speed>4.520000</speed>
</trkpt>
<trkpt lat="56.072742" lon="26.525248">
<ele>105.004944</ele>
<time>2010-06-20T11:24:34Z</time>
<desc>lat.=56.072742, lon.=26.525248, Alt.=105.004944m. Speed=16.667999m/h.</desc>
<speed>4.630000</speed>
</trkpt>
<trkpt lat="56.072762" lon="26.525316">
<ele>104.979553</ele>
<time>2010-06-20T11:24:35Z</time>
<desc>lat.=56.072762, lon.=26.525316, Alt.=104.979553m. Speed=16.740000m/h.</desc>
<speed>4.650000</speed>
</trkpt>
<trkpt lat="56.072788" lon="26.525375">
<ele>104.961975</ele>
<time>2010-06-20T11:24:36Z</time>
<desc>lat.=56.072788, lon.=26.525375, Alt.=104.961975m. Speed=17.351999m/h.</desc>
<speed>4.820000</speed>
</trkpt>
<trkpt lat="56.072807" lon="26.525438">
<ele>105.098694</ele>
<time>2010-06-20T11:24:37Z</time>
<desc>lat.=56.072807, lon.=26.525438, Alt.=105.098694m. Speed=16.812000m/h.</desc>
<speed>4.670000</speed>
</trkpt>
<trkpt lat="56.072830" lon="26.525497">
<ele>105.161194</ele>
<time>2010-06-20T11:24:38Z</time>
<desc>lat.=56.072830, lon.=26.525497, Alt.=105.161194m. Speed=16.416000m/h.</desc>
<speed>4.560000</speed>
</trkpt>
<trkpt lat="56.072849" lon="26.525562">
<ele>104.895569</ele>
<time>2010-06-20T11:24:39Z</time>
<desc>lat.=56.072849, lon.=26.525562, Alt.=104.895569m. Speed=16.200001m/h.</desc>
<speed>4.500000</speed>
</trkpt>
<trkpt lat="56.072876" lon="26.525620">
<ele>104.747131</ele>
<time>2010-06-20T11:24:40Z</time>
<desc>lat.=56.072876, lon.=26.525620, Alt.=104.747131m. Speed=17.028000m/h.</desc>
<speed>4.730000</speed>
</trkpt>
<trkpt lat="56.072903" lon="26.525681">
<ele>104.661194</ele>
<time>2010-06-20T11:24:41Z</time>
<desc>lat.=56.072903, lon.=26.525681, Alt.=104.661194m. Speed=16.740000m/h.</desc>
<speed>4.650000</speed>
</trkpt>
<trkpt lat="56.072926" lon="26.525738">
<ele>104.536194</ele>
<time>2010-06-20T11:24:42Z</time>
<desc>lat.=56.072926, lon.=26.525738, Alt.=104.536194m. Speed=15.984000m/h.</desc>
<speed>4.440000</speed>
</trkpt>
<trkpt lat="56.072952" lon="26.525799">
<ele>104.458069</ele>
<time>2010-06-20T11:24:43Z</time>
<desc>lat.=56.072952, lon.=26.525799, Alt.=104.458069m. Speed=15.372000m/h.</desc>
<speed>4.270000</speed>
</trkpt>
<trkpt lat="56.072971" lon="26.525858">
<ele>104.374084</ele>
<time>2010-06-20T11:24:44Z</time>
<desc>lat.=56.072971, lon.=26.525858, Alt.=104.374084m. Speed=15.876000m/h.</desc>
<speed>4.410000</speed>
</trkpt>
<trkpt lat="56.072994" lon="26.525915">
<ele>104.243225</ele>
<time>2010-06-20T11:24:45Z</time>
<desc>lat.=56.072994, lon.=26.525915, Alt.=104.243225m. Speed=16.452000m/h.</desc>
<speed>4.570000</speed>
</trkpt>
<trkpt lat="56.073017" lon="26.525976">
<ele>104.151428</ele>
<time>2010-06-20T11:24:46Z</time>
<desc>lat.=56.073017, lon.=26.525976, Alt.=104.151428m. Speed=16.020000m/h.</desc>
<speed>4.450000</speed>
</trkpt>
<trkpt lat="56.073040" lon="26.526030">
<ele>104.022522</ele>
<time>2010-06-20T11:24:47Z</time>
<desc>lat.=56.073040, lon.=26.526030, Alt.=104.022522m. Speed=16.308001m/h.</desc>
<speed>4.530000</speed>
</trkpt>
<trkpt lat="56.073067" lon="26.526085">
<ele>103.838928</ele>
<time>2010-06-20T11:24:48Z</time>
<desc>lat.=56.073067, lon.=26.526085, Alt.=103.838928m. Speed=16.379999m/h.</desc>
<speed>4.550000</speed>
</trkpt>
<trkpt lat="56.073090" lon="26.526146">
<ele>103.602600</ele>
<time>2010-06-20T11:24:49Z</time>
<desc>lat.=56.073090, lon.=26.526146, Alt.=103.602600m. Speed=17.100000m/h.</desc>
<speed>4.750000</speed>
</trkpt>
<trkpt lat="56.073116" lon="26.526205">
<ele>103.604553</ele>
<time>2010-06-20T11:24:50Z</time>
<desc>lat.=56.073116, lon.=26.526205, Alt.=103.604553m. Speed=16.488001m/h.</desc>
<speed>4.580000</speed>
</trkpt>
<trkpt lat="56.073139" lon="26.526264">
<ele>103.426819</ele>
<time>2010-06-20T11:24:51Z</time>
<desc>lat.=56.073139, lon.=26.526264, Alt.=103.426819m. Speed=15.588000m/h.</desc>
<speed>4.330000</speed>
</trkpt>
<trkpt lat="56.073162" lon="26.526316">
<ele>103.432678</ele>
<time>2010-06-20T11:24:52Z</time>
<desc>lat.=56.073162, lon.=26.526316, Alt.=103.432678m. Speed=14.904000m/h.</desc>
<speed>4.140000</speed>
</trkpt>
<trkpt lat="56.073185" lon="26.526365">
<ele>103.305725</ele>
<time>2010-06-20T11:24:53Z</time>
<desc>lat.=56.073185, lon.=26.526365, Alt.=103.305725m. Speed=14.760000m/h.</desc>
<speed>4.100000</speed>
</trkpt>
<trkpt lat="56.073212" lon="26.526415">
<ele>103.106506</ele>
<time>2010-06-20T11:24:54Z</time>
<desc>lat.=56.073212, lon.=26.526415, Alt.=103.106506m. Speed=16.128000m/h.</desc>
<speed>4.480000</speed>
</trkpt>
<trkpt lat="56.073235" lon="26.526472">
<ele>102.602600</ele>
<time>2010-06-20T11:24:55Z</time>
<desc>lat.=56.073235, lon.=26.526472, Alt.=102.602600m. Speed=16.740000m/h.</desc>
<speed>4.650000</speed>
</trkpt>
<trkpt lat="56.073261" lon="26.526537">
<ele>102.903381</ele>
<time>2010-06-20T11:24:56Z</time>
<desc>lat.=56.073261, lon.=26.526537, Alt.=102.903381m. Speed=17.351999m/h.</desc>
<speed>4.820000</speed>
</trkpt>
<trkpt lat="56.073284" lon="26.526602">
<ele>102.926819</ele>
<time>2010-06-20T11:24:57Z</time>
<desc>lat.=56.073284, lon.=26.526602, Alt.=102.926819m. Speed=18.288000m/h.</desc>
<speed>5.080000</speed>
</trkpt>
<trkpt lat="56.073311" lon="26.526665">
<ele>102.893616</ele>
<time>2010-06-20T11:24:58Z</time>
<desc>lat.=56.073311, lon.=26.526665, Alt.=102.893616m. Speed=17.820000m/h.</desc>
<speed>4.950000</speed>
</trkpt>
<trkpt lat="56.073338" lon="26.526728">
<ele>102.354553</ele>
<time>2010-06-20T11:24:59Z</time>
<desc>lat.=56.073338, lon.=26.526728, Alt.=102.354553m. Speed=17.712000m/h.</desc>
<speed>4.920000</speed>
</trkpt>
<trkpt lat="56.073360" lon="26.526802">
<ele>100.963928</ele>
<time>2010-06-20T11:25:00Z</time>
<desc>lat.=56.073360, lon.=26.526802, Alt.=100.963928m. Speed=19.368000m/h.</desc>
<speed>5.380000</speed>
</trkpt>
<trkpt lat="56.073395" lon="26.526869">
<ele>101.127991</ele>
<time>2010-06-20T11:25:01Z</time>
<desc>lat.=56.073395, lon.=26.526869, Alt.=101.127991m. Speed=18.792000m/h.</desc>
<speed>5.220000</speed>
</trkpt>
<trkpt lat="56.073421" lon="26.526939">
<ele>101.047913</ele>
<time>2010-06-20T11:25:02Z</time>
<desc>lat.=56.073421, lon.=26.526939, Alt.=101.047913m. Speed=18.323999m/h.</desc>
<speed>5.090000</speed>
</trkpt>
<trkpt lat="56.073452" lon="26.527006">
<ele>101.065491</ele>
<time>2010-06-20T11:25:03Z</time>
<desc>lat.=56.073452, lon.=26.527006, Alt.=101.065491m. Speed=17.892000m/h.</desc>
<speed>4.970000</speed>
</trkpt>
<trkpt lat="56.073479" lon="26.527073">
<ele>101.030334</ele>
<time>2010-06-20T11:25:04Z</time>
<desc>lat.=56.073479, lon.=26.527073, Alt.=101.030334m. Speed=18.612000m/h.</desc>
<speed>5.170000</speed>
</trkpt>
<trkpt lat="56.073505" lon="26.527136">
<ele>101.297913</ele>
<time>2010-06-20T11:25:05Z</time>
<desc>lat.=56.073505, lon.=26.527136, Alt.=101.297913m. Speed=18.576000m/h.</desc>
<speed>5.160000</speed>
</trkpt>
<trkpt lat="56.073532" lon="26.527199">
<ele>101.377991</ele>
<time>2010-06-20T11:25:06Z</time>
<desc>lat.=56.073532, lon.=26.527199, Alt.=101.377991m. Speed=17.784000m/h.</desc>
<speed>4.940000</speed>
</trkpt>
<trkpt lat="56.073555" lon="26.527266">
<ele>101.313538</ele>
<time>2010-06-20T11:25:07Z</time>
<desc>lat.=56.073555, lon.=26.527266, Alt.=101.313538m. Speed=17.243999m/h.</desc>
<speed>4.790000</speed>
</trkpt>
<trkpt lat="56.073578" lon="26.527328">
<ele>101.721741</ele>
<time>2010-06-20T11:25:08Z</time>
<desc>lat.=56.073578, lon.=26.527328, Alt.=101.721741m. Speed=17.784000m/h.</desc>
<speed>4.940000</speed>
</trkpt>
<trkpt lat="56.073605" lon="26.527391">
<ele>101.809631</ele>
<time>2010-06-20T11:25:09Z</time>
<desc>lat.=56.073605, lon.=26.527391, Alt.=101.809631m. Speed=18.468000m/h.</desc>
<speed>5.130000</speed>
</trkpt>
<trkpt lat="56.073631" lon="26.527452">
<ele>101.889709</ele>
<time>2010-06-20T11:25:10Z</time>
<desc>lat.=56.073631, lon.=26.527452, Alt.=101.889709m. Speed=19.044001m/h.</desc>
<speed>5.290000</speed>
</trkpt>
<trkpt lat="56.073658" lon="26.527519">
<ele>101.860413</ele>
<time>2010-06-20T11:25:11Z</time>
<desc>lat.=56.073658, lon.=26.527519, Alt.=101.860413m. Speed=18.143999m/h.</desc>
<speed>5.040000</speed>
</trkpt>
<trkpt lat="56.073685" lon="26.527580">
<ele>102.077209</ele>
<time>2010-06-20T11:25:12Z</time>
<desc>lat.=56.073685, lon.=26.527580, Alt.=102.077209m. Speed=17.856001m/h.</desc>
<speed>4.960000</speed>
</trkpt>
<trkpt lat="56.073708" lon="26.527643">
<ele>101.717834</ele>
<time>2010-06-20T11:25:13Z</time>
<desc>lat.=56.073708, lon.=26.527643, Alt.=101.717834m. Speed=18.000000m/h.</desc>
<speed>5.000000</speed>
</trkpt>
<trkpt lat="56.073730" lon="26.527710">
<ele>101.485413</ele>
<time>2010-06-20T11:25:14Z</time>
<desc>lat.=56.073730, lon.=26.527710, Alt.=101.485413m. Speed=19.548000m/h.</desc>
<speed>5.430000</speed>
</trkpt>
<trkpt lat="56.073761" lon="26.527775">
<ele>101.844788</ele>
<time>2010-06-20T11:25:15Z</time>
<desc>lat.=56.073761, lon.=26.527775, Alt.=101.844788m. Speed=19.980000m/h.</desc>
<speed>5.550000</speed>
</trkpt>
<trkpt lat="56.073792" lon="26.527842">
<ele>102.305725</ele>
<time>2010-06-20T11:25:16Z</time>
<desc>lat.=56.073792, lon.=26.527842, Alt.=102.305725m. Speed=18.719999m/h.</desc>
<speed>5.200000</speed>
</trkpt>
<trkpt lat="56.073818" lon="26.527906">
<ele>102.481506</ele>
<time>2010-06-20T11:25:17Z</time>
<desc>lat.=56.073818, lon.=26.527906, Alt.=102.481506m. Speed=18.936001m/h.</desc>
<speed>5.260000</speed>
</trkpt>
<trkpt lat="56.073845" lon="26.527973">
<ele>102.809631</ele>
<time>2010-06-20T11:25:18Z</time>
<desc>lat.=56.073845, lon.=26.527973, Alt.=102.809631m. Speed=19.440001m/h.</desc>
<speed>5.400000</speed>
</trkpt>
<trkpt lat="56.073875" lon="26.528038">
<ele>102.926819</ele>
<time>2010-06-20T11:25:19Z</time>
<desc>lat.=56.073875, lon.=26.528038, Alt.=102.926819m. Speed=18.180000m/h.</desc>
<speed>5.050000</speed>
</trkpt>
<trkpt lat="56.073902" lon="26.528099">
<ele>103.200256</ele>
<time>2010-06-20T11:25:20Z</time>
<desc>lat.=56.073902, lon.=26.528099, Alt.=103.200256m. Speed=17.316000m/h.</desc>
<speed>4.810000</speed>
</trkpt>
<trkpt lat="56.073929" lon="26.528160">
<ele>103.362366</ele>
<time>2010-06-20T11:25:21Z</time>
<desc>lat.=56.073929, lon.=26.528160, Alt.=103.362366m. Speed=17.351999m/h.</desc>
<speed>4.820000</speed>
</trkpt>
<trkpt lat="56.073956" lon="26.528225">
<ele>103.926819</ele>
<time>2010-06-20T11:25:22Z</time>
<desc>lat.=56.073956, lon.=26.528225, Alt.=103.926819m. Speed=17.280001m/h.</desc>
<speed>4.800000</speed>
</trkpt>
<trkpt lat="56.073982" lon="26.528292">
<ele>104.403381</ele>
<time>2010-06-20T11:25:23Z</time>
<desc>lat.=56.073982, lon.=26.528292, Alt.=104.403381m. Speed=17.892000m/h.</desc>
<speed>4.970000</speed>
</trkpt>
<trkpt lat="56.074005" lon="26.528353">
<ele>104.340881</ele>
<time>2010-06-20T11:25:24Z</time>
<desc>lat.=56.074005, lon.=26.528353, Alt.=104.340881m. Speed=17.532000m/h.</desc>
<speed>4.870000</speed>
</trkpt>
<trkpt lat="56.074032" lon="26.528408">
<ele>104.360413</ele>
<time>2010-06-20T11:25:25Z</time>
<desc>lat.=56.074032, lon.=26.528408, Alt.=104.360413m. Speed=16.128000m/h.</desc>
<speed>4.480000</speed>
</trkpt>
<trkpt lat="56.074055" lon="26.528456">
<ele>104.276428</ele>
<time>2010-06-20T11:25:26Z</time>
<desc>lat.=56.074055, lon.=26.528456, Alt.=104.276428m. Speed=15.156000m/h.</desc>
<speed>4.210000</speed>
</trkpt>
<trkpt lat="56.074078" lon="26.528503">
<ele>104.235413</ele>
<time>2010-06-20T11:25:27Z</time>
<desc>lat.=56.074078, lon.=26.528503, Alt.=104.235413m. Speed=14.040000m/h.</desc>
<speed>3.900000</speed>
</trkpt>
<trkpt lat="56.074097" lon="26.528557">
<ele>104.188538</ele>
<time>2010-06-20T11:25:28Z</time>
<desc>lat.=56.074097, lon.=26.528557, Alt.=104.188538m. Speed=14.580000m/h.</desc>
<speed>4.050000</speed>
</trkpt>
<trkpt lat="56.074112" lon="26.528620">
<ele>103.223694</ele>
<time>2010-06-20T11:25:29Z</time>
<desc>lat.=56.074112, lon.=26.528620, Alt.=103.223694m. Speed=15.732000m/h.</desc>
<speed>4.370000</speed>
</trkpt>
<trkpt lat="56.074135" lon="26.528675">
<ele>103.440491</ele>
<time>2010-06-20T11:25:30Z</time>
<desc>lat.=56.074135, lon.=26.528675, Alt.=103.440491m. Speed=15.084000m/h.</desc>
<speed>4.190000</speed>
</trkpt>
<trkpt lat="56.074162" lon="26.528715">
<ele>103.915100</ele>
<time>2010-06-20T11:25:31Z</time>
<desc>lat.=56.074162, lon.=26.528715, Alt.=103.915100m. Speed=13.716000m/h.</desc>
<speed>3.810000</speed>
</trkpt>
<trkpt lat="56.074184" lon="26.528763">
<ele>104.120178</ele>
<time>2010-06-20T11:25:32Z</time>
<desc>lat.=56.074184, lon.=26.528763, Alt.=104.120178m. Speed=14.256000m/h.</desc>
<speed>3.960000</speed>
</trkpt>
<trkpt lat="56.074207" lon="26.528811">
<ele>104.309631</ele>
<time>2010-06-20T11:25:33Z</time>
<desc>lat.=56.074207, lon.=26.528811, Alt.=104.309631m. Speed=14.760000m/h.</desc>
<speed>4.100000</speed>
</trkpt>
<trkpt lat="56.074234" lon="26.528854">
<ele>104.456116</ele>
<time>2010-06-20T11:25:34Z</time>
<desc>lat.=56.074234, lon.=26.528854, Alt.=104.456116m. Speed=14.580000m/h.</desc>
<speed>4.050000</speed>
</trkpt>
<trkpt lat="56.074257" lon="26.528904">
<ele>104.725647</ele>
<time>2010-06-20T11:25:35Z</time>
<desc>lat.=56.074257, lon.=26.528904, Alt.=104.725647m. Speed=14.544000m/h.</desc>
<speed>4.040000</speed>
</trkpt>
<trkpt lat="56.074280" lon="26.528942">
<ele>104.475647</ele>
<time>2010-06-20T11:25:36Z</time>
<desc>lat.=56.074280, lon.=26.528942, Alt.=104.475647m. Speed=13.860000m/h.</desc>
<speed>3.850000</speed>
</trkpt>
<trkpt lat="56.074303" lon="26.528996">
<ele>103.993225</ele>
<time>2010-06-20T11:25:37Z</time>
<desc>lat.=56.074303, lon.=26.528996, Alt.=103.993225m. Speed=13.860000m/h.</desc>
<speed>3.850000</speed>
</trkpt>
<trkpt lat="56.074326" lon="26.529047">
<ele>104.442444</ele>
<time>2010-06-20T11:25:38Z</time>
<desc>lat.=56.074326, lon.=26.529047, Alt.=104.442444m. Speed=13.428000m/h.</desc>
<speed>3.730000</speed>
</trkpt>
<trkpt lat="56.074348" lon="26.529095">
<ele>104.659241</ele>
<time>2010-06-20T11:25:39Z</time>
<desc>lat.=56.074348, lon.=26.529095, Alt.=104.659241m. Speed=13.140000m/h.</desc>
<speed>3.650000</speed>
</trkpt>
<trkpt lat="56.074371" lon="26.529146">
<ele>105.094788</ele>
<time>2010-06-20T11:25:40Z</time>
<desc>lat.=56.074371, lon.=26.529146, Alt.=105.094788m. Speed=14.040000m/h.</desc>
<speed>3.900000</speed>
</trkpt>
<trkpt lat="56.074390" lon="26.529188">
<ele>105.260803</ele>
<time>2010-06-20T11:25:41Z</time>
<desc>lat.=56.074390, lon.=26.529188, Alt.=105.260803m. Speed=11.628000m/h.</desc>
<speed>3.230000</speed>
</trkpt>
<trkpt lat="56.074406" lon="26.529222">
<ele>105.579163</ele>
<time>2010-06-20T11:25:42Z</time>
<desc>lat.=56.074406, lon.=26.529222, Alt.=105.579163m. Speed=9.324000m/h.</desc>
<speed>2.590000</speed>
</trkpt>
<trkpt lat="56.074421" lon="26.529257">
<ele>105.276428</ele>
<time>2010-06-20T11:25:43Z</time>
<desc>lat.=56.074421, lon.=26.529257, Alt.=105.276428m. Speed=11.088000m/h.</desc>
<speed>3.080000</speed>
</trkpt>
<trkpt lat="56.074436" lon="26.529297">
<ele>103.493225</ele>
<time>2010-06-20T11:25:44Z</time>
<desc>lat.=56.074436, lon.=26.529297, Alt.=103.493225m. Speed=9.108000m/h.</desc>
<speed>2.530000</speed>
</trkpt>
<trkpt lat="56.074451" lon="26.529331">
<ele>103.336975</ele>
<time>2010-06-20T11:25:45Z</time>
<desc>lat.=56.074451, lon.=26.529331, Alt.=103.336975m. Speed=9.864000m/h.</desc>
<speed>2.740000</speed>
</trkpt>
<trkpt lat="56.074467" lon="26.529367">
<ele>102.624084</ele>
<time>2010-06-20T11:25:46Z</time>
<desc>lat.=56.074467, lon.=26.529367, Alt.=102.624084m. Speed=9.360000m/h.</desc>
<speed>2.600000</speed>
</trkpt>
<trkpt lat="56.074486" lon="26.529409">
<ele>103.249084</ele>
<time>2010-06-20T11:25:47Z</time>
<desc>lat.=56.074486, lon.=26.529409, Alt.=103.249084m. Speed=10.296000m/h.</desc>
<speed>2.860000</speed>
</trkpt>
<trkpt lat="56.074512" lon="26.529461">
<ele>103.958069</ele>
<time>2010-06-20T11:25:48Z</time>
<desc>lat.=56.074512, lon.=26.529461, Alt.=103.958069m. Speed=13.500000m/h.</desc>
<speed>3.750000</speed>
</trkpt>
<trkpt lat="56.074535" lon="26.529510">
<ele>103.862366</ele>
<time>2010-06-20T11:25:49Z</time>
<desc>lat.=56.074535, lon.=26.529510, Alt.=103.862366m. Speed=10.800000m/h.</desc>
<speed>3.000000</speed>
</trkpt>
<trkpt lat="56.074554" lon="26.529554">
<ele>103.719788</ele>
<time>2010-06-20T11:25:50Z</time>
<desc>lat.=56.074554, lon.=26.529554, Alt.=103.719788m. Speed=12.528000m/h.</desc>
<speed>3.480000</speed>
</trkpt>
<trkpt lat="56.074570" lon="26.529612">
<ele>101.342834</ele>
<time>2010-06-20T11:25:51Z</time>
<desc>lat.=56.074570, lon.=26.529612, Alt.=101.342834m. Speed=11.484000m/h.</desc>
<speed>3.190000</speed>
</trkpt>
<trkpt lat="56.074589" lon="26.529650">
<ele>101.522522</ele>
<time>2010-06-20T11:25:52Z</time>
<desc>lat.=56.074589, lon.=26.529650, Alt.=101.522522m. Speed=10.980000m/h.</desc>
<speed>3.050000</speed>
</trkpt>
<trkpt lat="56.074608" lon="26.529703">
<ele>101.897522</ele>
<time>2010-06-20T11:25:53Z</time>
<desc>lat.=56.074608, lon.=26.529703, Alt.=101.897522m. Speed=11.952000m/h.</desc>
<speed>3.320000</speed>
</trkpt>
<trkpt lat="56.074635" lon="26.529739">
<ele>102.008850</ele>
<time>2010-06-20T11:25:54Z</time>
<desc>lat.=56.074635, lon.=26.529739, Alt.=102.008850m. Speed=10.908000m/h.</desc>
<speed>3.030000</speed>
</trkpt>
<trkpt lat="56.074650" lon="26.529774">
<ele>102.063538</ele>
<time>2010-06-20T11:25:55Z</time>
<desc>lat.=56.074650, lon.=26.529774, Alt.=102.063538m. Speed=9.180000m/h.</desc>
<speed>2.550000</speed>
</trkpt>
<trkpt lat="56.074669" lon="26.529821">
<ele>102.282288</ele>
<time>2010-06-20T11:25:56Z</time>
<desc>lat.=56.074669, lon.=26.529821, Alt.=102.282288m. Speed=11.196000m/h.</desc>
<speed>3.110000</speed>
</trkpt>
<trkpt lat="56.074684" lon="26.529867">
<ele>102.518616</ele>
<time>2010-06-20T11:25:57Z</time>
<desc>lat.=56.074684, lon.=26.529867, Alt.=102.518616m. Speed=11.664000m/h.</desc>
<speed>3.240000</speed>
</trkpt>
<trkpt lat="56.074703" lon="26.529915">
<ele>102.606506</ele>
<time>2010-06-20T11:25:58Z</time>
<desc>lat.=56.074703, lon.=26.529915, Alt.=102.606506m. Speed=11.916000m/h.</desc>
<speed>3.310000</speed>
</trkpt>
<trkpt lat="56.074715" lon="26.529978">
<ele>101.877991</ele>
<time>2010-06-20T11:25:59Z</time>
<desc>lat.=56.074715, lon.=26.529978, Alt.=101.877991m. Speed=12.312000m/h.</desc>
<speed>3.420000</speed>
</trkpt>
<trkpt lat="56.074718" lon="26.530069">
<ele>97.694397</ele>
<time>2010-06-20T11:26:00Z</time>
<desc>lat.=56.074718, lon.=26.530069, Alt.=97.694397m. Speed=12.312000m/h.</desc>
<speed>3.420000</speed>
</trkpt>
<trkpt lat="56.074745" lon="26.530127">
<ele>96.508850</ele>
<time>2010-06-20T11:26:01Z</time>
<desc>lat.=56.074745, lon.=26.530127, Alt.=96.508850m. Speed=12.168000m/h.</desc>
<speed>3.380000</speed>
</trkpt>
<trkpt lat="56.074760" lon="26.530186">
<ele>96.624084</ele>
<time>2010-06-20T11:26:02Z</time>
<desc>lat.=56.074760, lon.=26.530186, Alt.=96.624084m. Speed=9.540000m/h.</desc>
<speed>2.650000</speed>
</trkpt>
<trkpt lat="56.074776" lon="26.530228">
<ele>96.704163</ele>
<time>2010-06-20T11:26:03Z</time>
<desc>lat.=56.074776, lon.=26.530228, Alt.=96.704163m. Speed=9.432000m/h.</desc>
<speed>2.620000</speed>
</trkpt>
<trkpt lat="56.074791" lon="26.530283">
<ele>95.085022</ele>
<time>2010-06-20T11:26:04Z</time>
<desc>lat.=56.074791, lon.=26.530283, Alt.=95.085022m. Speed=11.736000m/h.</desc>
<speed>3.260000</speed>
</trkpt>
<trkpt lat="56.074810" lon="26.530325">
<ele>95.100647</ele>
<time>2010-06-20T11:26:05Z</time>
<desc>lat.=56.074810, lon.=26.530325, Alt.=95.100647m. Speed=9.792000m/h.</desc>
<speed>2.720000</speed>
</trkpt>
<trkpt lat="56.074825" lon="26.530369">
<ele>96.198303</ele>
<time>2010-06-20T11:26:06Z</time>
<desc>lat.=56.074825, lon.=26.530369, Alt.=96.198303m. Speed=10.656000m/h.</desc>
<speed>2.960000</speed>
</trkpt>
<trkpt lat="56.074848" lon="26.530420">
<ele>96.665100</ele>
<time>2010-06-20T11:26:07Z</time>
<desc>lat.=56.074848, lon.=26.530420, Alt.=96.665100m. Speed=12.888000m/h.</desc>
<speed>3.580000</speed>
</trkpt>
<trkpt lat="56.074871" lon="26.530476">
<ele>96.965881</ele>
<time>2010-06-20T11:26:08Z</time>
<desc>lat.=56.074871, lon.=26.530476, Alt.=96.965881m. Speed=12.564000m/h.</desc>
<speed>3.490000</speed>
</trkpt>
<trkpt lat="56.074867" lon="26.530521">
<ele>95.139709</ele>
<time>2010-06-20T11:26:09Z</time>
<desc>lat.=56.074867, lon.=26.530521, Alt.=95.139709m. Speed=6.660000m/h.</desc>
<speed>1.850000</speed>
</trkpt>
<trkpt lat="56.074886" lon="26.530575">
<ele>93.743225</ele>
<time>2010-06-20T11:26:10Z</time>
<desc>lat.=56.074886, lon.=26.530575, Alt.=93.743225m. Speed=14.148000m/h.</desc>
<speed>3.930000</speed>
</trkpt>
<trkpt lat="56.074921" lon="26.530651">
<ele>94.719788</ele>
<time>2010-06-20T11:26:11Z</time>
<desc>lat.=56.074921, lon.=26.530651, Alt.=94.719788m. Speed=13.896000m/h.</desc>
<speed>3.860000</speed>
</trkpt>
<trkpt lat="56.074947" lon="26.530710">
<ele>95.487366</ele>
<time>2010-06-20T11:26:12Z</time>
<desc>lat.=56.074947, lon.=26.530710, Alt.=95.487366m. Speed=13.104000m/h.</desc>
<speed>3.640000</speed>
</trkpt>
<trkpt lat="56.074982" lon="26.530777">
<ele>97.512756</ele>
<time>2010-06-20T11:26:13Z</time>
<desc>lat.=56.074982, lon.=26.530777, Alt.=97.512756m. Speed=13.392000m/h.</desc>
<speed>3.720000</speed>
</trkpt>
<trkpt lat="56.075012" lon="26.530844">
<ele>99.624084</ele>
<time>2010-06-20T11:26:14Z</time>
<desc>lat.=56.075012, lon.=26.530844, Alt.=99.624084m. Speed=13.104000m/h.</desc>
<speed>3.640000</speed>
</trkpt>
<trkpt lat="56.075031" lon="26.530905">
<ele>100.403381</ele>
<time>2010-06-20T11:26:15Z</time>
<desc>lat.=56.075031, lon.=26.530905, Alt.=100.403381m. Speed=14.472000m/h.</desc>
<speed>4.020000</speed>
</trkpt>
<trkpt lat="56.075054" lon="26.530962">
<ele>100.932678</ele>
<time>2010-06-20T11:26:16Z</time>
<desc>lat.=56.075054, lon.=26.530962, Alt.=100.932678m. Speed=13.752000m/h.</desc>
<speed>3.820000</speed>
</trkpt>
<trkpt lat="56.075077" lon="26.531017">
<ele>102.176819</ele>
<time>2010-06-20T11:26:17Z</time>
<desc>lat.=56.075077, lon.=26.531017, Alt.=102.176819m. Speed=14.436000m/h.</desc>
<speed>4.010000</speed>
</trkpt>
<trkpt lat="56.075111" lon="26.531069">
<ele>103.747131</ele>
<time>2010-06-20T11:26:18Z</time>
<desc>lat.=56.075111, lon.=26.531069, Alt.=103.747131m. Speed=12.888000m/h.</desc>
<speed>3.580000</speed>
</trkpt>
<trkpt lat="56.075130" lon="26.531120">
<ele>104.102600</ele>
<time>2010-06-20T11:26:19Z</time>
<desc>lat.=56.075130, lon.=26.531120, Alt.=104.102600m. Speed=13.068000m/h.</desc>
<speed>3.630000</speed>
</trkpt>
<trkpt lat="56.075153" lon="26.531164">
<ele>104.231506</ele>
<time>2010-06-20T11:26:20Z</time>
<desc>lat.=56.075153, lon.=26.531164, Alt.=104.231506m. Speed=13.752000m/h.</desc>
<speed>3.820000</speed>
</trkpt>
<trkpt lat="56.075176" lon="26.531214">
<ele>104.887756</ele>
<time>2010-06-20T11:26:21Z</time>
<desc>lat.=56.075176, lon.=26.531214, Alt.=104.887756m. Speed=14.148000m/h.</desc>
<speed>3.930000</speed>
</trkpt>
<trkpt lat="56.075203" lon="26.531265">
<ele>105.610413</ele>
<time>2010-06-20T11:26:22Z</time>
<desc>lat.=56.075203, lon.=26.531265, Alt.=105.610413m. Speed=14.400000m/h.</desc>
<speed>4.000000</speed>
</trkpt>
<trkpt lat="56.075233" lon="26.531313">
<ele>106.481506</ele>
<time>2010-06-20T11:26:23Z</time>
<desc>lat.=56.075233, lon.=26.531313, Alt.=106.481506m. Speed=14.616000m/h.</desc>
<speed>4.060000</speed>
</trkpt>
<trkpt lat="56.075260" lon="26.531364">
<ele>107.096741</ele>
<time>2010-06-20T11:26:24Z</time>
<desc>lat.=56.075260, lon.=26.531364, Alt.=107.096741m. Speed=14.940000m/h.</desc>
<speed>4.150000</speed>
</trkpt>
<trkpt lat="56.075283" lon="26.531414">
<ele>107.551819</ele>
<time>2010-06-20T11:26:25Z</time>
<desc>lat.=56.075283, lon.=26.531414, Alt.=107.551819m. Speed=12.708000m/h.</desc>
<speed>3.530000</speed>
</trkpt>
<trkpt lat="56.075302" lon="26.531466">
<ele>108.157288</ele>
<time>2010-06-20T11:26:26Z</time>
<desc>lat.=56.075302, lon.=26.531466, Alt.=108.157288m. Speed=12.024000m/h.</desc>
<speed>3.340000</speed>
</trkpt>
<trkpt lat="56.075321" lon="26.531513">
<ele>107.735413</ele>
<time>2010-06-20T11:26:27Z</time>
<desc>lat.=56.075321, lon.=26.531513, Alt.=107.735413m. Speed=12.852000m/h.</desc>
<speed>3.570000</speed>
</trkpt>
<trkpt lat="56.075336" lon="26.531565">
<ele>107.493225</ele>
<time>2010-06-20T11:26:28Z</time>
<desc>lat.=56.075336, lon.=26.531565, Alt.=107.493225m. Speed=13.392000m/h.</desc>
<speed>3.720000</speed>
</trkpt>
<trkpt lat="56.075352" lon="26.531620">
<ele>107.383850</ele>
<time>2010-06-20T11:26:29Z</time>
<desc>lat.=56.075352, lon.=26.531620, Alt.=107.383850m. Speed=13.572000m/h.</desc>
<speed>3.770000</speed>
</trkpt>
<trkpt lat="56.075371" lon="26.531672">
<ele>106.846741</ele>
<time>2010-06-20T11:26:30Z</time>
<desc>lat.=56.075371, lon.=26.531672, Alt.=106.846741m. Speed=13.140000m/h.</desc>
<speed>3.650000</speed>
</trkpt>
<trkpt lat="56.075390" lon="26.531723">
<ele>106.784241</ele>
<time>2010-06-20T11:26:31Z</time>
<desc>lat.=56.075390, lon.=26.531723, Alt.=106.784241m. Speed=13.284000m/h.</desc>
<speed>3.690000</speed>
</trkpt>
<trkpt lat="56.075405" lon="26.531775">
<ele>106.420959</ele>
<time>2010-06-20T11:26:32Z</time>
<desc>lat.=56.075405, lon.=26.531775, Alt.=106.420959m. Speed=14.040000m/h.</desc>
<speed>3.900000</speed>
</trkpt>
<trkpt lat="56.075424" lon="26.531830">
<ele>106.333069</ele>
<time>2010-06-20T11:26:33Z</time>
<desc>lat.=56.075424, lon.=26.531830, Alt.=106.333069m. Speed=14.508000m/h.</desc>
<speed>4.030000</speed>
</trkpt>
<trkpt lat="56.075443" lon="26.531883">
<ele>106.512756</ele>
<time>2010-06-20T11:26:34Z</time>
<desc>lat.=56.075443, lon.=26.531883, Alt.=106.512756m. Speed=14.976000m/h.</desc>
<speed>4.160000</speed>
</trkpt>
<trkpt lat="56.075470" lon="26.531933">
<ele>107.092834</ele>
<time>2010-06-20T11:26:35Z</time>
<desc>lat.=56.075470, lon.=26.531933, Alt.=107.092834m. Speed=15.444000m/h.</desc>
<speed>4.290000</speed>
</trkpt>
<trkpt lat="56.075493" lon="26.531986">
<ele>107.467834</ele>
<time>2010-06-20T11:26:36Z</time>
<desc>lat.=56.075493, lon.=26.531986, Alt.=107.467834m. Speed=15.660000m/h.</desc>
<speed>4.350000</speed>
</trkpt>
<trkpt lat="56.075516" lon="26.532036">
<ele>107.702209</ele>
<time>2010-06-20T11:26:37Z</time>
<desc>lat.=56.075516, lon.=26.532036, Alt.=107.702209m. Speed=14.184000m/h.</desc>
<speed>3.940000</speed>
</trkpt>
<trkpt lat="56.075535" lon="26.532080">
<ele>107.688538</ele>
<time>2010-06-20T11:26:38Z</time>
<desc>lat.=56.075535, lon.=26.532080, Alt.=107.688538m. Speed=13.140000m/h.</desc>
<speed>3.650000</speed>
</trkpt>
<trkpt lat="56.075554" lon="26.532133">
<ele>107.284241</ele>
<time>2010-06-20T11:26:39Z</time>
<desc>lat.=56.075554, lon.=26.532133, Alt.=107.284241m. Speed=14.004000m/h.</desc>
<speed>3.890000</speed>
</trkpt>
<trkpt lat="56.075569" lon="26.532188">
<ele>107.020569</ele>
<time>2010-06-20T11:26:40Z</time>
<desc>lat.=56.075569, lon.=26.532188, Alt.=107.020569m. Speed=14.112000m/h.</desc>
<speed>3.920000</speed>
</trkpt>
<trkpt lat="56.075592" lon="26.532242">
<ele>106.493225</ele>
<time>2010-06-20T11:26:41Z</time>
<desc>lat.=56.075592, lon.=26.532242, Alt.=106.493225m. Speed=15.048000m/h.</desc>
<speed>4.180000</speed>
</trkpt>
<trkpt lat="56.075615" lon="26.532293">
<ele>106.081116</ele>
<time>2010-06-20T11:26:42Z</time>
<desc>lat.=56.075615, lon.=26.532293, Alt.=106.081116m. Speed=15.228000m/h.</desc>
<speed>4.230000</speed>
</trkpt>
<trkpt lat="56.075634" lon="26.532345">
<ele>105.893616</ele>
<time>2010-06-20T11:26:43Z</time>
<desc>lat.=56.075634, lon.=26.532345, Alt.=105.893616m. Speed=13.860000m/h.</desc>
<speed>3.850000</speed>
</trkpt>
<trkpt lat="56.075657" lon="26.532396">
<ele>106.004944</ele>
<time>2010-06-20T11:26:44Z</time>
<desc>lat.=56.075657, lon.=26.532396, Alt.=106.004944m. Speed=14.940000m/h.</desc>
<speed>4.150000</speed>
</trkpt>
<trkpt lat="56.075680" lon="26.532450">
<ele>105.993225</ele>
<time>2010-06-20T11:26:45Z</time>
<desc>lat.=56.075680, lon.=26.532450, Alt.=105.993225m. Speed=14.724000m/h.</desc>
<speed>4.090000</speed>
</trkpt>
<trkpt lat="56.075703" lon="26.532495">
<ele>106.108459</ele>
<time>2010-06-20T11:26:46Z</time>
<desc>lat.=56.075703, lon.=26.532495, Alt.=106.108459m. Speed=13.824000m/h.</desc>
<speed>3.840000</speed>
</trkpt>
<trkpt lat="56.075729" lon="26.532545">
<ele>106.460022</ele>
<time>2010-06-20T11:26:47Z</time>
<desc>lat.=56.075729, lon.=26.532545, Alt.=106.460022m. Speed=13.140000m/h.</desc>
<speed>3.650000</speed>
</trkpt>
<trkpt lat="56.075748" lon="26.532591">
<ele>106.508850</ele>
<time>2010-06-20T11:26:48Z</time>
<desc>lat.=56.075748, lon.=26.532591, Alt.=106.508850m. Speed=11.124000m/h.</desc>
<speed>3.090000</speed>
</trkpt>
<trkpt lat="56.075760" lon="26.532631">
<ele>106.688538</ele>
<time>2010-06-20T11:26:49Z</time>
<desc>lat.=56.075760, lon.=26.532631, Alt.=106.688538m. Speed=10.440000m/h.</desc>
<speed>2.900000</speed>
</trkpt>
<trkpt lat="56.075771" lon="26.532667">
<ele>106.627991</ele>
<time>2010-06-20T11:26:50Z</time>
<desc>lat.=56.075771, lon.=26.532667, Alt.=106.627991m. Speed=8.676000m/h.</desc>
<speed>2.410000</speed>
</trkpt>
<trkpt lat="56.075783" lon="26.532703">
<ele>106.756897</ele>
<time>2010-06-20T11:26:51Z</time>
<desc>lat.=56.075783, lon.=26.532703, Alt.=106.756897m. Speed=8.388000m/h.</desc>
<speed>2.330000</speed>
</trkpt>
<trkpt lat="56.075794" lon="26.532730">
<ele>106.211975</ele>
<time>2010-06-20T11:26:52Z</time>
<desc>lat.=56.075794, lon.=26.532730, Alt.=106.211975m. Speed=8.172000m/h.</desc>
<speed>2.270000</speed>
</trkpt>
<trkpt lat="56.075806" lon="26.532757">
<ele>106.419006</ele>
<time>2010-06-20T11:26:53Z</time>
<desc>lat.=56.075806, lon.=26.532757, Alt.=106.419006m. Speed=8.388000m/h.</desc>
<speed>2.330000</speed>
</trkpt>
<trkpt lat="56.075829" lon="26.532782">
<ele>107.520569</ele>
<time>2010-06-20T11:26:54Z</time>
<desc>lat.=56.075829, lon.=26.532782, Alt.=107.520569m. Speed=8.676000m/h.</desc>
<speed>2.410000</speed>
</trkpt>
<trkpt lat="56.075840" lon="26.532812">
<ele>107.975647</ele>
<time>2010-06-20T11:26:55Z</time>
<desc>lat.=56.075840, lon.=26.532812, Alt.=107.975647m. Speed=9.612000m/h.</desc>
<speed>2.670000</speed>
</trkpt>
<trkpt lat="56.075848" lon="26.532846">
<ele>107.282288</ele>
<time>2010-06-20T11:26:56Z</time>
<desc>lat.=56.075848, lon.=26.532846, Alt.=107.282288m. Speed=10.008000m/h.</desc>
<speed>2.780000</speed>
</trkpt>
<trkpt lat="56.075863" lon="26.532881">
<ele>107.387756</ele>
<time>2010-06-20T11:26:57Z</time>
<desc>lat.=56.075863, lon.=26.532881, Alt.=107.387756m. Speed=9.756000m/h.</desc>
<speed>2.710000</speed>
</trkpt>
<trkpt lat="56.075874" lon="26.532913">
<ele>107.317444</ele>
<time>2010-06-20T11:26:58Z</time>
<desc>lat.=56.075874, lon.=26.532913, Alt.=107.317444m. Speed=9.864000m/h.</desc>
<speed>2.740000</speed>
</trkpt>
<trkpt lat="56.075886" lon="26.532955">
<ele>107.104553</ele>
<time>2010-06-20T11:26:59Z</time>
<desc>lat.=56.075886, lon.=26.532955, Alt.=107.104553m. Speed=9.612000m/h.</desc>
<speed>2.670000</speed>
</trkpt>
<trkpt lat="56.075905" lon="26.532991">
<ele>107.819397</ele>
<time>2010-06-20T11:27:00Z</time>
<desc>lat.=56.075905, lon.=26.532991, Alt.=107.819397m. Speed=8.964000m/h.</desc>
<speed>2.490000</speed>
</trkpt>
<trkpt lat="56.075920" lon="26.533024">
<ele>108.305725</ele>
<time>2010-06-20T11:27:01Z</time>
<desc>lat.=56.075920, lon.=26.533024, Alt.=108.305725m. Speed=10.152000m/h.</desc>
<speed>2.820000</speed>
</trkpt>
<trkpt lat="56.075935" lon="26.533054">
<ele>109.219788</ele>
<time>2010-06-20T11:27:02Z</time>
<desc>lat.=56.075935, lon.=26.533054, Alt.=109.219788m. Speed=10.656000m/h.</desc>
<speed>2.960000</speed>
</trkpt>
<trkpt lat="56.075951" lon="26.533081">
<ele>109.348694</ele>
<time>2010-06-20T11:27:03Z</time>
<desc>lat.=56.075951, lon.=26.533081, Alt.=109.348694m. Speed=9.972000m/h.</desc>
<speed>2.770000</speed>
</trkpt>
<trkpt lat="56.075970" lon="26.533112">
<ele>109.563538</ele>
<time>2010-06-20T11:27:04Z</time>
<desc>lat.=56.075970, lon.=26.533112, Alt.=109.563538m. Speed=10.800000m/h.</desc>
<speed>3.000000</speed>
</trkpt>
<trkpt lat="56.075989" lon="26.533134">
<ele>109.487366</ele>
<time>2010-06-20T11:27:05Z</time>
<desc>lat.=56.075989, lon.=26.533134, Alt.=109.487366m. Speed=10.152000m/h.</desc>
<speed>2.820000</speed>
</trkpt>
<trkpt lat="56.076008" lon="26.533159">
<ele>109.094788</ele>
<time>2010-06-20T11:27:06Z</time>
<desc>lat.=56.076008, lon.=26.533159, Alt.=109.094788m. Speed=11.952000m/h.</desc>
<speed>3.320000</speed>
</trkpt>
<trkpt lat="56.076027" lon="26.533199">
<ele>108.694397</ele>
<time>2010-06-20T11:27:07Z</time>
<desc>lat.=56.076027, lon.=26.533199, Alt.=108.694397m. Speed=11.232000m/h.</desc>
<speed>3.120000</speed>
</trkpt>
<trkpt lat="56.076046" lon="26.533237">
<ele>108.608459</ele>
<time>2010-06-20T11:27:08Z</time>
<desc>lat.=56.076046, lon.=26.533237, Alt.=108.608459m. Speed=11.592000m/h.</desc>
<speed>3.220000</speed>
</trkpt>
<trkpt lat="56.076065" lon="26.533272">
<ele>108.579163</ele>
<time>2010-06-20T11:27:09Z</time>
<desc>lat.=56.076065, lon.=26.533272, Alt.=108.579163m. Speed=11.196000m/h.</desc>
<speed>3.110000</speed>
</trkpt>
<trkpt lat="56.076084" lon="26.533312">
<ele>108.629944</ele>
<time>2010-06-20T11:27:10Z</time>
<desc>lat.=56.076084, lon.=26.533312, Alt.=108.629944m. Speed=11.556000m/h.</desc>
<speed>3.210000</speed>
</trkpt>
<trkpt lat="56.076099" lon="26.533348">
<ele>108.256897</ele>
<time>2010-06-20T11:27:11Z</time>
<desc>lat.=56.076099, lon.=26.533348, Alt.=108.256897m. Speed=11.520000m/h.</desc>
<speed>3.200000</speed>
</trkpt>
<trkpt lat="56.076118" lon="26.533388">
<ele>108.362366</ele>
<time>2010-06-20T11:27:12Z</time>
<desc>lat.=56.076118, lon.=26.533388, Alt.=108.362366m. Speed=10.908000m/h.</desc>
<speed>3.030000</speed>
</trkpt>
<trkpt lat="56.076134" lon="26.533424">
<ele>108.260803</ele>
<time>2010-06-20T11:27:13Z</time>
<desc>lat.=56.076134, lon.=26.533424, Alt.=108.260803m. Speed=9.144000m/h.</desc>
<speed>2.540000</speed>
</trkpt>
<trkpt lat="56.076149" lon="26.533453">
<ele>107.879944</ele>
<time>2010-06-20T11:27:14Z</time>
<desc>lat.=56.076149, lon.=26.533453, Alt.=107.879944m. Speed=8.244000m/h.</desc>
<speed>2.290000</speed>
</trkpt>
<trkpt lat="56.076164" lon="26.533482">
<ele>106.944397</ele>
<time>2010-06-20T11:27:15Z</time>
<desc>lat.=56.076164, lon.=26.533482, Alt.=106.944397m. Speed=7.596000m/h.</desc>
<speed>2.110000</speed>
</trkpt>
<trkpt lat="56.076176" lon="26.533506">
<ele>105.993225</ele>
<time>2010-06-20T11:27:16Z</time>
<desc>lat.=56.076176, lon.=26.533506, Alt.=105.993225m. Speed=8.496000m/h.</desc>
<speed>2.360000</speed>
</trkpt>
<trkpt lat="56.076195" lon="26.533531">
<ele>105.747131</ele>
<time>2010-06-20T11:27:17Z</time>
<desc>lat.=56.076195, lon.=26.533531, Alt.=105.747131m. Speed=8.136000m/h.</desc>
<speed>2.260000</speed>
</trkpt>
<trkpt lat="56.076210" lon="26.533562">
<ele>105.266663</ele>
<time>2010-06-20T11:27:18Z</time>
<desc>lat.=56.076210, lon.=26.533562, Alt.=105.266663m. Speed=8.244000m/h.</desc>
<speed>2.290000</speed>
</trkpt>
<trkpt lat="56.076225" lon="26.533602">
<ele>104.928772</ele>
<time>2010-06-20T11:27:19Z</time>
<desc>lat.=56.076225, lon.=26.533602, Alt.=104.928772m. Speed=9.828000m/h.</desc>
<speed>2.730000</speed>
</trkpt>
<trkpt lat="56.076252" lon="26.533642">
<ele>105.358459</ele>
<time>2010-06-20T11:27:20Z</time>
<desc>lat.=56.076252, lon.=26.533642, Alt.=105.358459m. Speed=10.512000m/h.</desc>
<speed>2.920000</speed>
</trkpt>
<trkpt lat="56.076275" lon="26.533680">
<ele>107.292053</ele>
<time>2010-06-20T11:27:21Z</time>
<desc>lat.=56.076275, lon.=26.533680, Alt.=107.292053m. Speed=10.116000m/h.</desc>
<speed>2.810000</speed>
</trkpt>
<trkpt lat="56.076294" lon="26.533720">
<ele>107.313538</ele>
<time>2010-06-20T11:27:22Z</time>
<desc>lat.=56.076294, lon.=26.533720, Alt.=107.313538m. Speed=11.916000m/h.</desc>
<speed>3.310000</speed>
</trkpt>
<trkpt lat="56.076313" lon="26.533772">
<ele>107.737366</ele>
<time>2010-06-20T11:27:23Z</time>
<desc>lat.=56.076313, lon.=26.533772, Alt.=107.737366m. Speed=13.320000m/h.</desc>
<speed>3.700000</speed>
</trkpt>
<trkpt lat="56.076336" lon="26.533808">
<ele>106.760803</ele>
<time>2010-06-20T11:27:24Z</time>
<desc>lat.=56.076336, lon.=26.533808, Alt.=106.760803m. Speed=11.340000m/h.</desc>
<speed>3.150000</speed>
</trkpt>
<trkpt lat="56.076359" lon="26.533855">
<ele>106.245178</ele>
<time>2010-06-20T11:27:25Z</time>
<desc>lat.=56.076359, lon.=26.533855, Alt.=106.245178m. Speed=13.104000m/h.</desc>
<speed>3.640000</speed>
</trkpt>
<trkpt lat="56.076382" lon="26.533907">
<ele>105.973694</ele>
<time>2010-06-20T11:27:26Z</time>
<desc>lat.=56.076382, lon.=26.533907, Alt.=105.973694m. Speed=13.860000m/h.</desc>
<speed>3.850000</speed>
</trkpt>
<trkpt lat="56.076408" lon="26.533951">
<ele>105.555725</ele>
<time>2010-06-20T11:27:27Z</time>
<desc>lat.=56.076408, lon.=26.533951, Alt.=105.555725m. Speed=14.112000m/h.</desc>
<speed>3.920000</speed>
</trkpt>
<trkpt lat="56.076431" lon="26.533995">
<ele>105.198303</ele>
<time>2010-06-20T11:27:28Z</time>
<desc>lat.=56.076431, lon.=26.533995, Alt.=105.198303m. Speed=12.348000m/h.</desc>
<speed>3.430000</speed>
</trkpt>
<trkpt lat="56.076450" lon="26.534031">
<ele>104.710022</ele>
<time>2010-06-20T11:27:29Z</time>
<desc>lat.=56.076450, lon.=26.534031, Alt.=104.710022m. Speed=12.240000m/h.</desc>
<speed>3.400000</speed>
</trkpt>
<trkpt lat="56.076477" lon="26.534067">
<ele>104.231506</ele>
<time>2010-06-20T11:27:30Z</time>
<desc>lat.=56.076477, lon.=26.534067, Alt.=104.231506m. Speed=13.824000m/h.</desc>
<speed>3.840000</speed>
</trkpt>
<trkpt lat="56.076504" lon="26.534105">
<ele>103.475647</ele>
<time>2010-06-20T11:27:31Z</time>
<desc>lat.=56.076504, lon.=26.534105, Alt.=103.475647m. Speed=13.356000m/h.</desc>
<speed>3.710000</speed>
</trkpt>
<trkpt lat="56.076530" lon="26.534151">
<ele>102.958069</ele>
<time>2010-06-20T11:27:32Z</time>
<desc>lat.=56.076530, lon.=26.534151, Alt.=102.958069m. Speed=14.544000m/h.</desc>
<speed>4.040000</speed>
</trkpt>
<trkpt lat="56.076557" lon="26.534197">
<ele>102.471741</ele>
<time>2010-06-20T11:27:33Z</time>
<desc>lat.=56.076557, lon.=26.534197, Alt.=102.471741m. Speed=13.176000m/h.</desc>
<speed>3.660000</speed>
</trkpt>
<trkpt lat="56.076584" lon="26.534235">
<ele>101.733459</ele>
<time>2010-06-20T11:27:34Z</time>
<desc>lat.=56.076584, lon.=26.534235, Alt.=101.733459m. Speed=11.772000m/h.</desc>
<speed>3.270000</speed>
</trkpt>
<trkpt lat="56.076614" lon="26.534266">
<ele>101.544006</ele>
<time>2010-06-20T11:27:35Z</time>
<desc>lat.=56.076614, lon.=26.534266, Alt.=101.544006m. Speed=13.788000m/h.</desc>
<speed>3.830000</speed>
</trkpt>
<trkpt lat="56.076649" lon="26.534298">
<ele>101.194397</ele>
<time>2010-06-20T11:27:36Z</time>
<desc>lat.=56.076649, lon.=26.534298, Alt.=101.194397m. Speed=13.032000m/h.</desc>
<speed>3.620000</speed>
</trkpt>
<trkpt lat="56.076675" lon="26.534332">
<ele>100.393616</ele>
<time>2010-06-20T11:27:37Z</time>
<desc>lat.=56.076675, lon.=26.534332, Alt.=100.393616m. Speed=13.464000m/h.</desc>
<speed>3.740000</speed>
</trkpt>
<trkpt lat="56.076702" lon="26.534378">
<ele>99.967834</ele>
<time>2010-06-20T11:27:38Z</time>
<desc>lat.=56.076702, lon.=26.534378, Alt.=99.967834m. Speed=14.724000m/h.</desc>
<speed>4.090000</speed>
</trkpt>
<trkpt lat="56.076733" lon="26.534437">
<ele>100.270569</ele>
<time>2010-06-20T11:27:39Z</time>
<desc>lat.=56.076733, lon.=26.534437, Alt.=100.270569m. Speed=14.508000m/h.</desc>
<speed>4.030000</speed>
</trkpt>
<trkpt lat="56.076767" lon="26.534491">
<ele>100.473694</ele>
<time>2010-06-20T11:27:40Z</time>
<desc>lat.=56.076767, lon.=26.534491, Alt.=100.473694m. Speed=13.716000m/h.</desc>
<speed>3.810000</speed>
</trkpt>
<trkpt lat="56.076794" lon="26.534538">
<ele>101.598694</ele>
<time>2010-06-20T11:27:41Z</time>
<desc>lat.=56.076794, lon.=26.534538, Alt.=101.598694m. Speed=12.924000m/h.</desc>
<speed>3.590000</speed>
</trkpt>
<trkpt lat="56.076824" lon="26.534573">
<ele>101.659241</ele>
<time>2010-06-20T11:27:42Z</time>
<desc>lat.=56.076824, lon.=26.534573, Alt.=101.659241m. Speed=12.456000m/h.</desc>
<speed>3.460000</speed>
</trkpt>
<trkpt lat="56.076851" lon="26.534611">
<ele>102.126038</ele>
<time>2010-06-20T11:27:43Z</time>
<desc>lat.=56.076851, lon.=26.534611, Alt.=102.126038m. Speed=11.808000m/h.</desc>
<speed>3.280000</speed>
</trkpt>
<trkpt lat="56.076878" lon="26.534645">
<ele>103.383850</ele>
<time>2010-06-20T11:27:44Z</time>
<desc>lat.=56.076878, lon.=26.534645, Alt.=103.383850m. Speed=12.384000m/h.</desc>
<speed>3.440000</speed>
</trkpt>
<trkpt lat="56.076908" lon="26.534679">
<ele>103.518616</ele>
<time>2010-06-20T11:27:45Z</time>
<desc>lat.=56.076908, lon.=26.534679, Alt.=103.518616m. Speed=14.544000m/h.</desc>
<speed>4.040000</speed>
</trkpt>
<trkpt lat="56.076939" lon="26.534716">
<ele>104.461975</ele>
<time>2010-06-20T11:27:46Z</time>
<desc>lat.=56.076939, lon.=26.534716, Alt.=104.461975m. Speed=15.372000m/h.</desc>
<speed>4.270000</speed>
</trkpt>
<trkpt lat="56.076969" lon="26.534758">
<ele>105.102600</ele>
<time>2010-06-20T11:27:47Z</time>
<desc>lat.=56.076969, lon.=26.534758, Alt.=105.102600m. Speed=13.968000m/h.</desc>
<speed>3.880000</speed>
</trkpt>
<trkpt lat="56.076996" lon="26.534796">
<ele>105.571350</ele>
<time>2010-06-20T11:27:48Z</time>
<desc>lat.=56.076996, lon.=26.534796, Alt.=105.571350m. Speed=13.464000m/h.</desc>
<speed>3.740000</speed>
</trkpt>
<trkpt lat="56.077023" lon="26.534834">
<ele>105.665100</ele>
<time>2010-06-20T11:27:49Z</time>
<desc>lat.=56.077023, lon.=26.534834, Alt.=105.665100m. Speed=13.788000m/h.</desc>
<speed>3.830000</speed>
</trkpt>
<trkpt lat="56.077053" lon="26.534866">
<ele>105.696350</ele>
<time>2010-06-20T11:27:50Z</time>
<desc>lat.=56.077053, lon.=26.534866, Alt.=105.696350m. Speed=15.120000m/h.</desc>
<speed>4.200000</speed>
</trkpt>
<trkpt lat="56.077084" lon="26.534903">
<ele>105.409241</ele>
<time>2010-06-20T11:27:51Z</time>
<desc>lat.=56.077084, lon.=26.534903, Alt.=105.409241m. Speed=14.760000m/h.</desc>
<speed>4.100000</speed>
</trkpt>
<trkpt lat="56.077114" lon="26.534941">
<ele>105.129944</ele>
<time>2010-06-20T11:27:52Z</time>
<desc>lat.=56.077114, lon.=26.534941, Alt.=105.129944m. Speed=13.860000m/h.</desc>
<speed>3.850000</speed>
</trkpt>
<trkpt lat="56.077141" lon="26.534975">
<ele>105.393616</ele>
<time>2010-06-20T11:27:53Z</time>
<desc>lat.=56.077141, lon.=26.534975, Alt.=105.393616m. Speed=14.040000m/h.</desc>
<speed>3.900000</speed>
</trkpt>
<trkpt lat="56.077171" lon="26.535013">
<ele>105.633850</ele>
<time>2010-06-20T11:27:54Z</time>
<desc>lat.=56.077171, lon.=26.535013, Alt.=105.633850m. Speed=13.572000m/h.</desc>
<speed>3.770000</speed>
</trkpt>
<trkpt lat="56.077202" lon="26.535048">
<ele>105.487366</ele>
<time>2010-06-20T11:27:55Z</time>
<desc>lat.=56.077202, lon.=26.535048, Alt.=105.487366m. Speed=12.996000m/h.</desc>
<speed>3.610000</speed>
</trkpt>
<trkpt lat="56.077229" lon="26.535080">
<ele>105.538147</ele>
<time>2010-06-20T11:27:56Z</time>
<desc>lat.=56.077229, lon.=26.535080, Alt.=105.538147m. Speed=12.708000m/h.</desc>
<speed>3.530000</speed>
</trkpt>
<trkpt lat="56.077259" lon="26.535114">
<ele>105.491272</ele>
<time>2010-06-20T11:27:57Z</time>
<desc>lat.=56.077259, lon.=26.535114, Alt.=105.491272m. Speed=13.680000m/h.</desc>
<speed>3.800000</speed>
</trkpt>
<trkpt lat="56.077290" lon="26.535151">
<ele>105.444397</ele>
<time>2010-06-20T11:27:58Z</time>
<desc>lat.=56.077290, lon.=26.535151, Alt.=105.444397m. Speed=14.508000m/h.</desc>
<speed>4.030000</speed>
</trkpt>
<trkpt lat="56.077324" lon="26.535183">
<ele>105.325256</ele>
<time>2010-06-20T11:27:59Z</time>
<desc>lat.=56.077324, lon.=26.535183, Alt.=105.325256m. Speed=15.696000m/h.</desc>
<speed>4.360000</speed>
</trkpt>
<trkpt lat="56.077358" lon="26.535221">
<ele>105.252991</ele>
<time>2010-06-20T11:28:00Z</time>
<desc>lat.=56.077358, lon.=26.535221, Alt.=105.252991m. Speed=15.480000m/h.</desc>
<speed>4.300000</speed>
</trkpt>
<trkpt lat="56.077389" lon="26.535255">
<ele>105.090881</ele>
<time>2010-06-20T11:28:01Z</time>
<desc>lat.=56.077389, lon.=26.535255, Alt.=105.090881m. Speed=14.580000m/h.</desc>
<speed>4.050000</speed>
</trkpt>
<trkpt lat="56.077419" lon="26.535286">
<ele>104.983459</ele>
<time>2010-06-20T11:28:02Z</time>
<desc>lat.=56.077419, lon.=26.535286, Alt.=104.983459m. Speed=14.004000m/h.</desc>
<speed>3.890000</speed>
</trkpt>
<trkpt lat="56.077450" lon="26.535320">
<ele>104.276428</ele>
<time>2010-06-20T11:28:03Z</time>
<desc>lat.=56.077450, lon.=26.535320, Alt.=104.276428m. Speed=14.112000m/h.</desc>
<speed>3.920000</speed>
</trkpt>
<trkpt lat="56.077484" lon="26.535355">
<ele>104.274475</ele>
<time>2010-06-20T11:28:04Z</time>
<desc>lat.=56.077484, lon.=26.535355, Alt.=104.274475m. Speed=14.832000m/h.</desc>
<speed>4.120000</speed>
</trkpt>
<trkpt lat="56.077515" lon="26.535389">
<ele>103.950256</ele>
<time>2010-06-20T11:28:05Z</time>
<desc>lat.=56.077515, lon.=26.535389, Alt.=103.950256m. Speed=14.040000m/h.</desc>
<speed>3.900000</speed>
</trkpt>
<trkpt lat="56.077545" lon="26.535414">
<ele>103.836975</ele>
<time>2010-06-20T11:28:06Z</time>
<desc>lat.=56.077545, lon.=26.535414, Alt.=103.836975m. Speed=14.112000m/h.</desc>
<speed>3.920000</speed>
</trkpt>
<trkpt lat="56.077576" lon="26.535440">
<ele>103.667053</ele>
<time>2010-06-20T11:28:07Z</time>
<desc>lat.=56.077576, lon.=26.535440, Alt.=103.667053m. Speed=13.932000m/h.</desc>
<speed>3.870000</speed>
</trkpt>
<trkpt lat="56.077610" lon="26.535471">
<ele>103.583069</ele>
<time>2010-06-20T11:28:08Z</time>
<desc>lat.=56.077610, lon.=26.535471, Alt.=103.583069m. Speed=14.832000m/h.</desc>
<speed>4.120000</speed>
</trkpt>
<trkpt lat="56.077644" lon="26.535509">
<ele>103.983459</ele>
<time>2010-06-20T11:28:09Z</time>
<desc>lat.=56.077644, lon.=26.535509, Alt.=103.983459m. Speed=14.904000m/h.</desc>
<speed>4.140000</speed>
</trkpt>
<trkpt lat="56.077675" lon="26.535542">
<ele>103.950256</ele>
<time>2010-06-20T11:28:10Z</time>
<desc>lat.=56.077675, lon.=26.535542, Alt.=103.950256m. Speed=14.004000m/h.</desc>
<speed>3.890000</speed>
</trkpt>
<trkpt lat="56.077705" lon="26.535570">
<ele>103.821350</ele>
<time>2010-06-20T11:28:11Z</time>
<desc>lat.=56.077705, lon.=26.535570, Alt.=103.821350m. Speed=13.536000m/h.</desc>
<speed>3.760000</speed>
</trkpt>
<trkpt lat="56.077732" lon="26.535595">
<ele>104.198303</ele>
<time>2010-06-20T11:28:12Z</time>
<desc>lat.=56.077732, lon.=26.535595, Alt.=104.198303m. Speed=12.348000m/h.</desc>
<speed>3.430000</speed>
</trkpt>
<trkpt lat="56.077759" lon="26.535624">
<ele>104.448303</ele>
<time>2010-06-20T11:28:13Z</time>
<desc>lat.=56.077759, lon.=26.535624, Alt.=104.448303m. Speed=11.880000m/h.</desc>
<speed>3.300000</speed>
</trkpt>
<trkpt lat="56.077785" lon="26.535646">
<ele>104.645569</ele>
<time>2010-06-20T11:28:14Z</time>
<desc>lat.=56.077785, lon.=26.535646, Alt.=104.645569m. Speed=12.096000m/h.</desc>
<speed>3.360000</speed>
</trkpt>
<trkpt lat="56.077816" lon="26.535666">
<ele>104.794006</ele>
<time>2010-06-20T11:28:15Z</time>
<desc>lat.=56.077816, lon.=26.535666, Alt.=104.794006m. Speed=11.916000m/h.</desc>
<speed>3.310000</speed>
</trkpt>
<trkpt lat="56.077843" lon="26.535688">
<ele>104.514709</ele>
<time>2010-06-20T11:28:16Z</time>
<desc>lat.=56.077843, lon.=26.535688, Alt.=104.514709m. Speed=11.988000m/h.</desc>
<speed>3.330000</speed>
</trkpt>
<trkpt lat="56.077869" lon="26.535717">
<ele>104.336975</ele>
<time>2010-06-20T11:28:17Z</time>
<desc>lat.=56.077869, lon.=26.535717, Alt.=104.336975m. Speed=12.276000m/h.</desc>
<speed>3.410000</speed>
</trkpt>
<trkpt lat="56.077892" lon="26.535746">
<ele>104.108459</ele>
<time>2010-06-20T11:28:18Z</time>
<desc>lat.=56.077892, lon.=26.535746, Alt.=104.108459m. Speed=12.888000m/h.</desc>
<speed>3.580000</speed>
</trkpt>
<trkpt lat="56.077923" lon="26.535786">
<ele>104.194397</ele>
<time>2010-06-20T11:28:19Z</time>
<desc>lat.=56.077923, lon.=26.535786, Alt.=104.194397m. Speed=15.660000m/h.</desc>
<speed>4.350000</speed>
</trkpt>
<trkpt lat="56.077950" lon="26.535826">
<ele>103.813538</ele>
<time>2010-06-20T11:28:20Z</time>
<desc>lat.=56.077950, lon.=26.535826, Alt.=103.813538m. Speed=12.240000m/h.</desc>
<speed>3.400000</speed>
</trkpt>
<trkpt lat="56.077976" lon="26.535858">
<ele>104.284241</ele>
<time>2010-06-20T11:28:21Z</time>
<desc>lat.=56.077976, lon.=26.535858, Alt.=104.284241m. Speed=12.708000m/h.</desc>
<speed>3.530000</speed>
</trkpt>
<trkpt lat="56.078007" lon="26.535889">
<ele>104.335022</ele>
<time>2010-06-20T11:28:22Z</time>
<desc>lat.=56.078007, lon.=26.535889, Alt.=104.335022m. Speed=13.248000m/h.</desc>
<speed>3.680000</speed>
</trkpt>
<trkpt lat="56.078033" lon="26.535913">
<ele>104.251038</ele>
<time>2010-06-20T11:28:23Z</time>
<desc>lat.=56.078033, lon.=26.535913, Alt.=104.251038m. Speed=13.932000m/h.</desc>
<speed>3.870000</speed>
</trkpt>
<trkpt lat="56.078064" lon="26.535944">
<ele>104.362366</ele>
<time>2010-06-20T11:28:24Z</time>
<desc>lat.=56.078064, lon.=26.535944, Alt.=104.362366m. Speed=14.148000m/h.</desc>
<speed>3.930000</speed>
</trkpt>
<trkpt lat="56.078094" lon="26.535975">
<ele>104.545959</ele>
<time>2010-06-20T11:28:25Z</time>
<desc>lat.=56.078094, lon.=26.535975, Alt.=104.545959m. Speed=12.816000m/h.</desc>
<speed>3.560000</speed>
</trkpt>
<trkpt lat="56.078121" lon="26.536007">
<ele>104.702209</ele>
<time>2010-06-20T11:28:26Z</time>
<desc>lat.=56.078121, lon.=26.536007, Alt.=104.702209m. Speed=12.024000m/h.</desc>
<speed>3.340000</speed>
</trkpt>
<trkpt lat="56.078144" lon="26.536032">
<ele>104.329163</ele>
<time>2010-06-20T11:28:27Z</time>
<desc>lat.=56.078144, lon.=26.536032, Alt.=104.329163m. Speed=11.412000m/h.</desc>
<speed>3.170000</speed>
</trkpt>
<trkpt lat="56.078175" lon="26.536057">
<ele>104.196350</ele>
<time>2010-06-20T11:28:28Z</time>
<desc>lat.=56.078175, lon.=26.536057, Alt.=104.196350m. Speed=12.276000m/h.</desc>
<speed>3.410000</speed>
</trkpt>
<trkpt lat="56.078197" lon="26.536087">
<ele>104.032288</ele>
<time>2010-06-20T11:28:29Z</time>
<desc>lat.=56.078197, lon.=26.536087, Alt.=104.032288m. Speed=12.852000m/h.</desc>
<speed>3.570000</speed>
</trkpt>
<trkpt lat="56.078224" lon="26.536116">
<ele>103.754944</ele>
<time>2010-06-20T11:28:30Z</time>
<desc>lat.=56.078224, lon.=26.536116, Alt.=103.754944m. Speed=12.168000m/h.</desc>
<speed>3.380000</speed>
</trkpt>
<trkpt lat="56.078251" lon="26.536139">
<ele>103.381897</ele>
<time>2010-06-20T11:28:31Z</time>
<desc>lat.=56.078251, lon.=26.536139, Alt.=103.381897m. Speed=11.160000m/h.</desc>
<speed>3.100000</speed>
</trkpt>
<trkpt lat="56.078278" lon="26.536165">
<ele>103.178772</ele>
<time>2010-06-20T11:28:32Z</time>
<desc>lat.=56.078278, lon.=26.536165, Alt.=103.178772m. Speed=12.132000m/h.</desc>
<speed>3.370000</speed>
</trkpt>
<trkpt lat="56.078304" lon="26.536196">
<ele>103.022522</ele>
<time>2010-06-20T11:28:33Z</time>
<desc>lat.=56.078304, lon.=26.536196, Alt.=103.022522m. Speed=12.600000m/h.</desc>
<speed>3.500000</speed>
</trkpt>
<trkpt lat="56.078331" lon="26.536222">
<ele>102.596741</ele>
<time>2010-06-20T11:28:34Z</time>
<desc>lat.=56.078331, lon.=26.536222, Alt.=102.596741m. Speed=13.428000m/h.</desc>
<speed>3.730000</speed>
</trkpt>
<trkpt lat="56.078362" lon="26.536253">
<ele>102.368225</ele>
<time>2010-06-20T11:28:35Z</time>
<desc>lat.=56.078362, lon.=26.536253, Alt.=102.368225m. Speed=13.752000m/h.</desc>
<speed>3.820000</speed>
</trkpt>
<trkpt lat="56.078388" lon="26.536283">
<ele>102.139709</ele>
<time>2010-06-20T11:28:36Z</time>
<desc>lat.=56.078388, lon.=26.536283, Alt.=102.139709m. Speed=13.320000m/h.</desc>
<speed>3.700000</speed>
</trkpt>
<trkpt lat="56.078419" lon="26.536310">
<ele>102.102600</ele>
<time>2010-06-20T11:28:37Z</time>
<desc>lat.=56.078419, lon.=26.536310, Alt.=102.102600m. Speed=12.384000m/h.</desc>
<speed>3.440000</speed>
</trkpt>
<trkpt lat="56.078449" lon="26.536331">
<ele>102.020569</ele>
<time>2010-06-20T11:28:38Z</time>
<desc>lat.=56.078449, lon.=26.536331, Alt.=102.020569m. Speed=12.528000m/h.</desc>
<speed>3.480000</speed>
</trkpt>
<trkpt lat="56.078480" lon="26.536360">
<ele>101.960022</ele>
<time>2010-06-20T11:28:39Z</time>
<desc>lat.=56.078480, lon.=26.536360, Alt.=101.960022m. Speed=13.140000m/h.</desc>
<speed>3.650000</speed>
</trkpt>
<trkpt lat="56.078510" lon="26.536385">
<ele>101.954163</ele>
<time>2010-06-20T11:28:40Z</time>
<desc>lat.=56.078510, lon.=26.536385, Alt.=101.954163m. Speed=13.212000m/h.</desc>
<speed>3.670000</speed>
</trkpt>
<trkpt lat="56.078541" lon="26.536411">
<ele>102.182678</ele>
<time>2010-06-20T11:28:41Z</time>
<desc>lat.=56.078541, lon.=26.536411, Alt.=102.182678m. Speed=12.348000m/h.</desc>
<speed>3.430000</speed>
</trkpt>
<trkpt lat="56.078564" lon="26.536436">
<ele>102.231506</ele>
<time>2010-06-20T11:28:42Z</time>
<desc>lat.=56.078564, lon.=26.536436, Alt.=102.231506m. Speed=11.700000m/h.</desc>
<speed>3.250000</speed>
</trkpt>
<trkpt lat="56.078590" lon="26.536455">
<ele>102.176819</ele>
<time>2010-06-20T11:28:43Z</time>
<desc>lat.=56.078590, lon.=26.536455, Alt.=102.176819m. Speed=11.268000m/h.</desc>
<speed>3.130000</speed>
</trkpt>
<trkpt lat="56.078617" lon="26.536482">
<ele>102.024475</ele>
<time>2010-06-20T11:28:44Z</time>
<desc>lat.=56.078617, lon.=26.536482, Alt.=102.024475m. Speed=12.636000m/h.</desc>
<speed>3.510000</speed>
</trkpt>
<trkpt lat="56.078640" lon="26.536510">
<ele>102.569397</ele>
<time>2010-06-20T11:28:45Z</time>
<desc>lat.=56.078640, lon.=26.536510, Alt.=102.569397m. Speed=10.152000m/h.</desc>
<speed>2.820000</speed>
</trkpt>
<trkpt lat="56.078663" lon="26.536543">
<ele>103.124084</ele>
<time>2010-06-20T11:28:46Z</time>
<desc>lat.=56.078663, lon.=26.536543, Alt.=103.124084m. Speed=10.080000m/h.</desc>
<speed>2.800000</speed>
</trkpt>
<trkpt lat="56.078682" lon="26.536570">
<ele>103.663147</ele>
<time>2010-06-20T11:28:47Z</time>
<desc>lat.=56.078682, lon.=26.536570, Alt.=103.663147m. Speed=10.440000m/h.</desc>
<speed>2.900000</speed>
</trkpt>
<trkpt lat="56.078705" lon="26.536591">
<ele>103.169006</ele>
<time>2010-06-20T11:28:48Z</time>
<desc>lat.=56.078705, lon.=26.536591, Alt.=103.169006m. Speed=11.448000m/h.</desc>
<speed>3.180000</speed>
</trkpt>
<trkpt lat="56.078732" lon="26.536608">
<ele>102.643616</ele>
<time>2010-06-20T11:28:49Z</time>
<desc>lat.=56.078732, lon.=26.536608, Alt.=102.643616m. Speed=11.628000m/h.</desc>
<speed>3.230000</speed>
</trkpt>
<trkpt lat="56.078758" lon="26.536619">
<ele>102.563538</ele>
<time>2010-06-20T11:28:50Z</time>
<desc>lat.=56.078758, lon.=26.536619, Alt.=102.563538m. Speed=12.168000m/h.</desc>
<speed>3.380000</speed>
</trkpt>
<trkpt lat="56.078785" lon="26.536638">
<ele>102.641663</ele>
<time>2010-06-20T11:28:51Z</time>
<desc>lat.=56.078785, lon.=26.536638, Alt.=102.641663m. Speed=9.720000m/h.</desc>
<speed>2.700000</speed>
</trkpt>
<trkpt lat="56.078812" lon="26.536663">
<ele>102.686584</ele>
<time>2010-06-20T11:28:52Z</time>
<desc>lat.=56.078812, lon.=26.536663, Alt.=102.686584m. Speed=10.404000m/h.</desc>
<speed>2.890000</speed>
</trkpt>
<trkpt lat="56.078835" lon="26.536692">
<ele>102.694397</ele>
<time>2010-06-20T11:28:53Z</time>
<desc>lat.=56.078835, lon.=26.536692, Alt.=102.694397m. Speed=11.052000m/h.</desc>
<speed>3.070000</speed>
</trkpt>
<trkpt lat="56.078854" lon="26.536716">
<ele>102.665100</ele>
<time>2010-06-20T11:28:54Z</time>
<desc>lat.=56.078854, lon.=26.536716, Alt.=102.665100m. Speed=8.964000m/h.</desc>
<speed>2.490000</speed>
</trkpt>
<trkpt lat="56.078873" lon="26.536737">
<ele>102.889709</ele>
<time>2010-06-20T11:28:55Z</time>
<desc>lat.=56.078873, lon.=26.536737, Alt.=102.889709m. Speed=10.476000m/h.</desc>
<speed>2.910000</speed>
</trkpt>
<trkpt lat="56.078896" lon="26.536755">
<ele>102.715881</ele>
<time>2010-06-20T11:28:56Z</time>
<desc>lat.=56.078896, lon.=26.536755, Alt.=102.715881m. Speed=10.116000m/h.</desc>
<speed>2.810000</speed>
</trkpt>
<trkpt lat="56.078922" lon="26.536774">
<ele>102.780334</ele>
<time>2010-06-20T11:28:57Z</time>
<desc>lat.=56.078922, lon.=26.536774, Alt.=102.780334m. Speed=10.476000m/h.</desc>
<speed>2.910000</speed>
</trkpt>
<trkpt lat="56.078945" lon="26.536797">
<ele>102.899475</ele>
<time>2010-06-20T11:28:58Z</time>
<desc>lat.=56.078945, lon.=26.536797, Alt.=102.899475m. Speed=11.160000m/h.</desc>
<speed>3.100000</speed>
</trkpt>
<trkpt lat="56.078972" lon="26.536829">
<ele>103.094788</ele>
<time>2010-06-20T11:28:59Z</time>
<desc>lat.=56.078972, lon.=26.536829, Alt.=103.094788m. Speed=12.888000m/h.</desc>
<speed>3.580000</speed>
</trkpt>
<trkpt lat="56.078999" lon="26.536860">
<ele>103.335022</ele>
<time>2010-06-20T11:29:00Z</time>
<desc>lat.=56.078999, lon.=26.536860, Alt.=103.335022m. Speed=12.816000m/h.</desc>
<speed>3.560000</speed>
</trkpt>
<trkpt lat="56.079033" lon="26.536890">
<ele>103.131897</ele>
<time>2010-06-20T11:29:01Z</time>
<desc>lat.=56.079033, lon.=26.536890, Alt.=103.131897m. Speed=13.104000m/h.</desc>
<speed>3.640000</speed>
</trkpt>
<trkpt lat="56.079063" lon="26.536924">
<ele>102.876038</ele>
<time>2010-06-20T11:29:02Z</time>
<desc>lat.=56.079063, lon.=26.536924, Alt.=102.876038m. Speed=13.716000m/h.</desc>
<speed>3.810000</speed>
</trkpt>
<trkpt lat="56.079090" lon="26.536951">
<ele>102.516663</ele>
<time>2010-06-20T11:29:03Z</time>
<desc>lat.=56.079090, lon.=26.536951, Alt.=102.516663m. Speed=12.348000m/h.</desc>
<speed>3.430000</speed>
</trkpt>
<trkpt lat="56.079117" lon="26.536976">
<ele>102.096741</ele>
<time>2010-06-20T11:29:04Z</time>
<desc>lat.=56.079117, lon.=26.536976, Alt.=102.096741m. Speed=13.644000m/h.</desc>
<speed>3.790000</speed>
</trkpt>
<trkpt lat="56.079151" lon="26.537004">
<ele>102.461975</ele>
<time>2010-06-20T11:29:05Z</time>
<desc>lat.=56.079151, lon.=26.537004, Alt.=102.461975m. Speed=13.212000m/h.</desc>
<speed>3.670000</speed>
</trkpt>
<trkpt lat="56.079182" lon="26.537033">
<ele>102.442444</ele>
<time>2010-06-20T11:29:06Z</time>
<desc>lat.=56.079182, lon.=26.537033, Alt.=102.442444m. Speed=13.572000m/h.</desc>
<speed>3.770000</speed>
</trkpt>
<trkpt lat="56.079212" lon="26.537066">
<ele>102.485413</ele>
<time>2010-06-20T11:29:07Z</time>
<desc>lat.=56.079212, lon.=26.537066, Alt.=102.485413m. Speed=13.824000m/h.</desc>
<speed>3.840000</speed>
</trkpt>
<trkpt lat="56.079243" lon="26.537098">
<ele>102.551819</ele>
<time>2010-06-20T11:29:08Z</time>
<desc>lat.=56.079243, lon.=26.537098, Alt.=102.551819m. Speed=12.636000m/h.</desc>
<speed>3.510000</speed>
</trkpt>
<trkpt lat="56.079277" lon="26.537134">
<ele>102.600647</ele>
<time>2010-06-20T11:29:09Z</time>
<desc>lat.=56.079277, lon.=26.537134, Alt.=102.600647m. Speed=13.572000m/h.</desc>
<speed>3.770000</speed>
</trkpt>
<trkpt lat="56.079308" lon="26.537170">
<ele>102.563538</ele>
<time>2010-06-20T11:29:10Z</time>
<desc>lat.=56.079308, lon.=26.537170, Alt.=102.563538m. Speed=14.508000m/h.</desc>
<speed>4.030000</speed>
</trkpt>
<trkpt lat="56.079342" lon="26.537209">
<ele>102.442444</ele>
<time>2010-06-20T11:29:11Z</time>
<desc>lat.=56.079342, lon.=26.537209, Alt.=102.442444m. Speed=14.256000m/h.</desc>
<speed>3.960000</speed>
</trkpt>
<trkpt lat="56.079376" lon="26.537243">
<ele>102.692444</ele>
<time>2010-06-20T11:29:12Z</time>
<desc>lat.=56.079376, lon.=26.537243, Alt.=102.692444m. Speed=14.796000m/h.</desc>
<speed>4.110000</speed>
</trkpt>
<trkpt lat="56.079407" lon="26.537277">
<ele>102.860413</ele>
<time>2010-06-20T11:29:13Z</time>
<desc>lat.=56.079407, lon.=26.537277, Alt.=102.860413m. Speed=14.724000m/h.</desc>
<speed>4.090000</speed>
</trkpt>
<trkpt lat="56.079441" lon="26.537313">
<ele>103.059631</ele>
<time>2010-06-20T11:29:14Z</time>
<desc>lat.=56.079441, lon.=26.537313, Alt.=103.059631m. Speed=14.364000m/h.</desc>
<speed>3.990000</speed>
</trkpt>
<trkpt lat="56.079472" lon="26.537346">
<ele>103.604553</ele>
<time>2010-06-20T11:29:15Z</time>
<desc>lat.=56.079472, lon.=26.537346, Alt.=103.604553m. Speed=15.084000m/h.</desc>
<speed>4.190000</speed>
</trkpt>
<trkpt lat="56.079506" lon="26.537378">
<ele>103.758850</ele>
<time>2010-06-20T11:29:16Z</time>
<desc>lat.=56.079506, lon.=26.537378, Alt.=103.758850m. Speed=15.012000m/h.</desc>
<speed>4.170000</speed>
</trkpt>
<trkpt lat="56.079536" lon="26.537411">
<ele>102.946350</ele>
<time>2010-06-20T11:29:17Z</time>
<desc>lat.=56.079536, lon.=26.537411, Alt.=102.946350m. Speed=15.264000m/h.</desc>
<speed>4.240000</speed>
</trkpt>
<trkpt lat="56.079567" lon="26.537437">
<ele>102.897522</ele>
<time>2010-06-20T11:29:18Z</time>
<desc>lat.=56.079567, lon.=26.537437, Alt.=102.897522m. Speed=13.824000m/h.</desc>
<speed>3.840000</speed>
</trkpt>
<trkpt lat="56.079597" lon="26.537474">
<ele>103.026428</ele>
<time>2010-06-20T11:29:19Z</time>
<desc>lat.=56.079597, lon.=26.537474, Alt.=103.026428m. Speed=13.680000m/h.</desc>
<speed>3.800000</speed>
</trkpt>
<trkpt lat="56.079628" lon="26.537502">
<ele>103.840881</ele>
<time>2010-06-20T11:29:20Z</time>
<desc>lat.=56.079628, lon.=26.537502, Alt.=103.840881m. Speed=12.744000m/h.</desc>
<speed>3.540000</speed>
</trkpt>
<trkpt lat="56.079655" lon="26.537531">
<ele>103.817444</ele>
<time>2010-06-20T11:29:21Z</time>
<desc>lat.=56.079655, lon.=26.537531, Alt.=103.817444m. Speed=12.708000m/h.</desc>
<speed>3.530000</speed>
</trkpt>
<trkpt lat="56.079685" lon="26.537552">
<ele>103.663147</ele>
<time>2010-06-20T11:29:22Z</time>
<desc>lat.=56.079685, lon.=26.537552, Alt.=103.663147m. Speed=13.680000m/h.</desc>
<speed>3.800000</speed>
</trkpt>
<trkpt lat="56.079716" lon="26.537582">
<ele>103.319397</ele>
<time>2010-06-20T11:29:23Z</time>
<desc>lat.=56.079716, lon.=26.537582, Alt.=103.319397m. Speed=13.284000m/h.</desc>
<speed>3.690000</speed>
</trkpt>
<trkpt lat="56.079742" lon="26.537603">
<ele>103.106506</ele>
<time>2010-06-20T11:29:24Z</time>
<desc>lat.=56.079742, lon.=26.537603, Alt.=103.106506m. Speed=12.960000m/h.</desc>
<speed>3.600000</speed>
</trkpt>
<trkpt lat="56.079769" lon="26.537624">
<ele>103.047913</ele>
<time>2010-06-20T11:29:25Z</time>
<desc>lat.=56.079769, lon.=26.537624, Alt.=103.047913m. Speed=11.808000m/h.</desc>
<speed>3.280000</speed>
</trkpt>
<trkpt lat="56.079800" lon="26.537645">
<ele>103.251038</ele>
<time>2010-06-20T11:29:26Z</time>
<desc>lat.=56.079800, lon.=26.537645, Alt.=103.251038m. Speed=13.356000m/h.</desc>
<speed>3.710000</speed>
</trkpt>
<trkpt lat="56.079830" lon="26.537670">
<ele>102.960022</ele>
<time>2010-06-20T11:29:27Z</time>
<desc>lat.=56.079830, lon.=26.537670, Alt.=102.960022m. Speed=13.860000m/h.</desc>
<speed>3.850000</speed>
</trkpt>
<trkpt lat="56.079857" lon="26.537693">
<ele>102.338928</ele>
<time>2010-06-20T11:29:28Z</time>
<desc>lat.=56.079857, lon.=26.537693, Alt.=102.338928m. Speed=13.320000m/h.</desc>
<speed>3.700000</speed>
</trkpt>
<trkpt lat="56.079884" lon="26.537716">
<ele>102.256897</ele>
<time>2010-06-20T11:29:29Z</time>
<desc>lat.=56.079884, lon.=26.537716, Alt.=102.256897m. Speed=13.320000m/h.</desc>
<speed>3.700000</speed>
</trkpt>
<trkpt lat="56.079914" lon="26.537746">
<ele>102.327209</ele>
<time>2010-06-20T11:29:30Z</time>
<desc>lat.=56.079914, lon.=26.537746, Alt.=102.327209m. Speed=13.032000m/h.</desc>
<speed>3.620000</speed>
</trkpt>
<trkpt lat="56.079941" lon="26.537773">
<ele>102.198303</ele>
<time>2010-06-20T11:29:31Z</time>
<desc>lat.=56.079941, lon.=26.537773, Alt.=102.198303m. Speed=12.924000m/h.</desc>
<speed>3.590000</speed>
</trkpt>
<trkpt lat="56.079971" lon="26.537802">
<ele>102.270569</ele>
<time>2010-06-20T11:29:32Z</time>
<desc>lat.=56.079971, lon.=26.537802, Alt.=102.270569m. Speed=12.240000m/h.</desc>
<speed>3.400000</speed>
</trkpt>
<trkpt lat="56.079998" lon="26.537830">
<ele>102.424866</ele>
<time>2010-06-20T11:29:33Z</time>
<desc>lat.=56.079998, lon.=26.537830, Alt.=102.424866m. Speed=12.924000m/h.</desc>
<speed>3.590000</speed>
</trkpt>
<trkpt lat="56.080029" lon="26.537859">
<ele>102.114319</ele>
<time>2010-06-20T11:29:34Z</time>
<desc>lat.=56.080029, lon.=26.537859, Alt.=102.114319m. Speed=13.320000m/h.</desc>
<speed>3.700000</speed>
</trkpt>
<trkpt lat="56.080055" lon="26.537884">
<ele>101.827209</ele>
<time>2010-06-20T11:29:35Z</time>
<desc>lat.=56.080055, lon.=26.537884, Alt.=101.827209m. Speed=13.032000m/h.</desc>
<speed>3.620000</speed>
</trkpt>
<trkpt lat="56.080082" lon="26.537907">
<ele>101.614319</ele>
<time>2010-06-20T11:29:36Z</time>
<desc>lat.=56.080082, lon.=26.537907, Alt.=101.614319m. Speed=12.816000m/h.</desc>
<speed>3.560000</speed>
</trkpt>
<trkpt lat="56.080109" lon="26.537937">
<ele>101.024475</ele>
<time>2010-06-20T11:29:37Z</time>
<desc>lat.=56.080109, lon.=26.537937, Alt.=101.024475m. Speed=12.708000m/h.</desc>
<speed>3.530000</speed>
</trkpt>
<trkpt lat="56.080139" lon="26.537971">
<ele>101.034241</ele>
<time>2010-06-20T11:29:38Z</time>
<desc>lat.=56.080139, lon.=26.537971, Alt.=101.034241m. Speed=13.644000m/h.</desc>
<speed>3.790000</speed>
</trkpt>
<trkpt lat="56.080170" lon="26.538008">
<ele>100.965881</ele>
<time>2010-06-20T11:29:39Z</time>
<desc>lat.=56.080170, lon.=26.538008, Alt.=100.965881m. Speed=14.940000m/h.</desc>
<speed>4.150000</speed>
</trkpt>
<trkpt lat="56.080200" lon="26.538042">
<ele>101.045959</ele>
<time>2010-06-20T11:29:40Z</time>
<desc>lat.=56.080200, lon.=26.538042, Alt.=101.045959m. Speed=14.616000m/h.</desc>
<speed>4.060000</speed>
</trkpt>
<trkpt lat="56.080231" lon="26.538078">
<ele>101.169006</ele>
<time>2010-06-20T11:29:41Z</time>
<desc>lat.=56.080231, lon.=26.538078, Alt.=101.169006m. Speed=14.400000m/h.</desc>
<speed>4.000000</speed>
</trkpt>
<trkpt lat="56.080265" lon="26.538111">
<ele>101.186584</ele>
<time>2010-06-20T11:29:42Z</time>
<desc>lat.=56.080265, lon.=26.538111, Alt.=101.186584m. Speed=14.292000m/h.</desc>
<speed>3.970000</speed>
</trkpt>
<trkpt lat="56.080296" lon="26.538141">
<ele>101.372131</ele>
<time>2010-06-20T11:29:43Z</time>
<desc>lat.=56.080296, lon.=26.538141, Alt.=101.372131m. Speed=13.608000m/h.</desc>
<speed>3.780000</speed>
</trkpt>
<trkpt lat="56.080322" lon="26.538164">
<ele>101.317444</ele>
<time>2010-06-20T11:29:44Z</time>
<desc>lat.=56.080322, lon.=26.538164, Alt.=101.317444m. Speed=13.104000m/h.</desc>
<speed>3.640000</speed>
</trkpt>
<trkpt lat="56.080349" lon="26.538185">
<ele>101.139709</ele>
<time>2010-06-20T11:29:45Z</time>
<desc>lat.=56.080349, lon.=26.538185, Alt.=101.139709m. Speed=12.204000m/h.</desc>
<speed>3.390000</speed>
</trkpt>
<trkpt lat="56.080372" lon="26.538208">
<ele>101.454163</ele>
<time>2010-06-20T11:29:46Z</time>
<desc>lat.=56.080372, lon.=26.538208, Alt.=101.454163m. Speed=11.772000m/h.</desc>
<speed>3.270000</speed>
</trkpt>
<trkpt lat="56.080395" lon="26.538237">
<ele>101.938538</ele>
<time>2010-06-20T11:29:47Z</time>
<desc>lat.=56.080395, lon.=26.538237, Alt.=101.938538m. Speed=10.332000m/h.</desc>
<speed>2.870000</speed>
</trkpt>
<trkpt lat="56.080418" lon="26.538261">
<ele>102.292053</ele>
<time>2010-06-20T11:29:48Z</time>
<desc>lat.=56.080418, lon.=26.538261, Alt.=102.292053m. Speed=11.160000m/h.</desc>
<speed>3.100000</speed>
</trkpt>
<trkpt lat="56.080444" lon="26.538279">
<ele>102.170959</ele>
<time>2010-06-20T11:29:49Z</time>
<desc>lat.=56.080444, lon.=26.538279, Alt.=102.170959m. Speed=10.800000m/h.</desc>
<speed>3.000000</speed>
</trkpt>
<trkpt lat="56.080467" lon="26.538301">
<ele>102.217834</ele>
<time>2010-06-20T11:29:50Z</time>
<desc>lat.=56.080467, lon.=26.538301, Alt.=102.217834m. Speed=11.700000m/h.</desc>
<speed>3.250000</speed>
</trkpt>
<trkpt lat="56.080490" lon="26.538330">
<ele>102.075256</ele>
<time>2010-06-20T11:29:51Z</time>
<desc>lat.=56.080490, lon.=26.538330, Alt.=102.075256m. Speed=12.024000m/h.</desc>
<speed>3.340000</speed>
</trkpt>
<trkpt lat="56.080517" lon="26.538361">
<ele>102.254944</ele>
<time>2010-06-20T11:29:52Z</time>
<desc>lat.=56.080517, lon.=26.538361, Alt.=102.254944m. Speed=12.024000m/h.</desc>
<speed>3.340000</speed>
</trkpt>
<trkpt lat="56.080544" lon="26.538395">
<ele>102.288147</ele>
<time>2010-06-20T11:29:53Z</time>
<desc>lat.=56.080544, lon.=26.538395, Alt.=102.288147m. Speed=13.104000m/h.</desc>
<speed>3.640000</speed>
</trkpt>
<trkpt lat="56.080570" lon="26.538425">
<ele>102.448303</ele>
<time>2010-06-20T11:29:54Z</time>
<desc>lat.=56.080570, lon.=26.538425, Alt.=102.448303m. Speed=12.312000m/h.</desc>
<speed>3.420000</speed>
</trkpt>
<trkpt lat="56.080593" lon="26.538452">
<ele>102.450256</ele>
<time>2010-06-20T11:29:55Z</time>
<desc>lat.=56.080593, lon.=26.538452, Alt.=102.450256m. Speed=11.088000m/h.</desc>
<speed>3.080000</speed>
</trkpt>
<trkpt lat="56.080624" lon="26.538473">
<ele>102.542053</ele>
<time>2010-06-20T11:29:56Z</time>
<desc>lat.=56.080624, lon.=26.538473, Alt.=102.542053m. Speed=10.872000m/h.</desc>
<speed>3.020000</speed>
</trkpt>
<trkpt lat="56.080647" lon="26.538483">
<ele>102.391663</ele>
<time>2010-06-20T11:29:57Z</time>
<desc>lat.=56.080647, lon.=26.538483, Alt.=102.391663m. Speed=11.304000m/h.</desc>
<speed>3.140000</speed>
</trkpt>
<trkpt lat="56.080673" lon="26.538498">
<ele>102.139709</ele>
<time>2010-06-20T11:29:58Z</time>
<desc>lat.=56.080673, lon.=26.538498, Alt.=102.139709m. Speed=11.664000m/h.</desc>
<speed>3.240000</speed>
</trkpt>
<trkpt lat="56.080700" lon="26.538525">
<ele>101.768616</ele>
<time>2010-06-20T11:29:59Z</time>
<desc>lat.=56.080700, lon.=26.538525, Alt.=101.768616m. Speed=13.464000m/h.</desc>
<speed>3.740000</speed>
</trkpt>
<trkpt lat="56.080730" lon="26.538553">
<ele>101.335022</ele>
<time>2010-06-20T11:30:00Z</time>
<desc>lat.=56.080730, lon.=26.538553, Alt.=101.335022m. Speed=12.780000m/h.</desc>
<speed>3.550000</speed>
</trkpt>
<trkpt lat="56.080757" lon="26.538578">
<ele>100.788147</ele>
<time>2010-06-20T11:30:01Z</time>
<desc>lat.=56.080757, lon.=26.538578, Alt.=100.788147m. Speed=12.744000m/h.</desc>
<speed>3.540000</speed>
</trkpt>
<trkpt lat="56.080784" lon="26.538599">
<ele>100.485413</ele>
<time>2010-06-20T11:30:02Z</time>
<desc>lat.=56.080784, lon.=26.538599, Alt.=100.485413m. Speed=11.556000m/h.</desc>
<speed>3.210000</speed>
</trkpt>
<trkpt lat="56.080814" lon="26.538628">
<ele>100.377991</ele>
<time>2010-06-20T11:30:03Z</time>
<desc>lat.=56.080814, lon.=26.538628, Alt.=100.377991m. Speed=13.356000m/h.</desc>
<speed>3.710000</speed>
</trkpt>
<trkpt lat="56.080845" lon="26.538656">
<ele>100.461975</ele>
<time>2010-06-20T11:30:04Z</time>
<desc>lat.=56.080845, lon.=26.538656, Alt.=100.461975m. Speed=13.320000m/h.</desc>
<speed>3.700000</speed>
</trkpt>
<trkpt lat="56.080872" lon="26.538687">
<ele>100.338928</ele>
<time>2010-06-20T11:30:05Z</time>
<desc>lat.=56.080872, lon.=26.538687, Alt.=100.338928m. Speed=13.500000m/h.</desc>
<speed>3.750000</speed>
</trkpt>
<trkpt lat="56.080902" lon="26.538715">
<ele>100.836975</ele>
<time>2010-06-20T11:30:06Z</time>
<desc>lat.=56.080902, lon.=26.538715, Alt.=100.836975m. Speed=13.536000m/h.</desc>
<speed>3.760000</speed>
</trkpt>
<trkpt lat="56.080933" lon="26.538746">
<ele>100.555725</ele>
<time>2010-06-20T11:30:07Z</time>
<desc>lat.=56.080933, lon.=26.538746, Alt.=100.555725m. Speed=13.464000m/h.</desc>
<speed>3.740000</speed>
</trkpt>
<trkpt lat="56.080963" lon="26.538778">
<ele>100.620178</ele>
<time>2010-06-20T11:30:08Z</time>
<desc>lat.=56.080963, lon.=26.538778, Alt.=100.620178m. Speed=13.572000m/h.</desc>
<speed>3.770000</speed>
</trkpt>
<trkpt lat="56.080990" lon="26.538803">
<ele>100.114319</ele>
<time>2010-06-20T11:30:09Z</time>
<desc>lat.=56.080990, lon.=26.538803, Alt.=100.114319m. Speed=12.600000m/h.</desc>
<speed>3.500000</speed>
</trkpt>
<trkpt lat="56.081020" lon="26.538830">
<ele>99.958069</ele>
<time>2010-06-20T11:30:10Z</time>
<desc>lat.=56.081020, lon.=26.538830, Alt.=99.958069m. Speed=12.996000m/h.</desc>
<speed>3.610000</speed>
</trkpt>
<trkpt lat="56.081047" lon="26.538853">
<ele>99.696350</ele>
<time>2010-06-20T11:30:11Z</time>
<desc>lat.=56.081047, lon.=26.538853, Alt.=99.696350m. Speed=13.176000m/h.</desc>
<speed>3.660000</speed>
</trkpt>
<trkpt lat="56.081078" lon="26.538889">
<ele>100.010803</ele>
<time>2010-06-20T11:30:12Z</time>
<desc>lat.=56.081078, lon.=26.538889, Alt.=100.010803m. Speed=13.608000m/h.</desc>
<speed>3.780000</speed>
</trkpt>
<trkpt lat="56.081112" lon="26.538923">
<ele>100.262756</ele>
<time>2010-06-20T11:30:13Z</time>
<desc>lat.=56.081112, lon.=26.538923, Alt.=100.262756m. Speed=13.068000m/h.</desc>
<speed>3.630000</speed>
</trkpt>
<trkpt lat="56.081139" lon="26.538958">
<ele>100.317444</ele>
<time>2010-06-20T11:30:14Z</time>
<desc>lat.=56.081139, lon.=26.538958, Alt.=100.317444m. Speed=12.240000m/h.</desc>
<speed>3.400000</speed>
</trkpt>
<trkpt lat="56.081173" lon="26.538980">
<ele>100.799866</ele>
<time>2010-06-20T11:30:15Z</time>
<desc>lat.=56.081173, lon.=26.538980, Alt.=100.799866m. Speed=12.780000m/h.</desc>
<speed>3.550000</speed>
</trkpt>
<trkpt lat="56.081200" lon="26.539009">
<ele>101.032288</ele>
<time>2010-06-20T11:30:16Z</time>
<desc>lat.=56.081200, lon.=26.539009, Alt.=101.032288m. Speed=12.672000m/h.</desc>
<speed>3.520000</speed>
</trkpt>
<trkpt lat="56.081230" lon="26.539040">
<ele>101.319397</ele>
<time>2010-06-20T11:30:17Z</time>
<desc>lat.=56.081230, lon.=26.539040, Alt.=101.319397m. Speed=13.428000m/h.</desc>
<speed>3.730000</speed>
</trkpt>
<trkpt lat="56.081261" lon="26.539078">
<ele>101.450256</ele>
<time>2010-06-20T11:30:18Z</time>
<desc>lat.=56.081261, lon.=26.539078, Alt.=101.450256m. Speed=13.536000m/h.</desc>
<speed>3.760000</speed>
</trkpt>
<trkpt lat="56.081287" lon="26.539112">
<ele>101.555725</ele>
<time>2010-06-20T11:30:19Z</time>
<desc>lat.=56.081287, lon.=26.539112, Alt.=101.555725m. Speed=13.140000m/h.</desc>
<speed>3.650000</speed>
</trkpt>
<trkpt lat="56.081314" lon="26.539141">
<ele>101.608459</ele>
<time>2010-06-20T11:30:20Z</time>
<desc>lat.=56.081314, lon.=26.539141, Alt.=101.608459m. Speed=13.032000m/h.</desc>
<speed>3.620000</speed>
</trkpt>
<trkpt lat="56.081345" lon="26.539171">
<ele>102.038147</ele>
<time>2010-06-20T11:30:21Z</time>
<desc>lat.=56.081345, lon.=26.539171, Alt.=102.038147m. Speed=13.392000m/h.</desc>
<speed>3.720000</speed>
</trkpt>
<trkpt lat="56.081367" lon="26.539206">
<ele>102.520569</ele>
<time>2010-06-20T11:30:22Z</time>
<desc>lat.=56.081367, lon.=26.539206, Alt.=102.520569m. Speed=13.644000m/h.</desc>
<speed>3.790000</speed>
</trkpt>
<trkpt lat="56.081394" lon="26.539248">
<ele>102.905334</ele>
<time>2010-06-20T11:30:23Z</time>
<desc>lat.=56.081394, lon.=26.539248, Alt.=102.905334m. Speed=13.896000m/h.</desc>
<speed>3.860000</speed>
</trkpt>
<trkpt lat="56.081425" lon="26.539282">
<ele>102.741272</ele>
<time>2010-06-20T11:30:24Z</time>
<desc>lat.=56.081425, lon.=26.539282, Alt.=102.741272m. Speed=13.788000m/h.</desc>
<speed>3.830000</speed>
</trkpt>
<trkpt lat="56.081455" lon="26.539322">
<ele>102.909241</ele>
<time>2010-06-20T11:30:25Z</time>
<desc>lat.=56.081455, lon.=26.539322, Alt.=102.909241m. Speed=13.896000m/h.</desc>
<speed>3.860000</speed>
</trkpt>
<trkpt lat="56.081486" lon="26.539362">
<ele>103.163147</ele>
<time>2010-06-20T11:30:26Z</time>
<desc>lat.=56.081486, lon.=26.539362, Alt.=103.163147m. Speed=14.076000m/h.</desc>
<speed>3.910000</speed>
</trkpt>
<trkpt lat="56.081516" lon="26.539396">
<ele>103.778381</ele>
<time>2010-06-20T11:30:27Z</time>
<desc>lat.=56.081516, lon.=26.539396, Alt.=103.778381m. Speed=14.472000m/h.</desc>
<speed>4.020000</speed>
</trkpt>
<trkpt lat="56.081547" lon="26.539427">
<ele>104.108459</ele>
<time>2010-06-20T11:30:28Z</time>
<desc>lat.=56.081547, lon.=26.539427, Alt.=104.108459m. Speed=14.508000m/h.</desc>
<speed>4.030000</speed>
</trkpt>
<trkpt lat="56.081577" lon="26.539457">
<ele>104.530334</ele>
<time>2010-06-20T11:30:29Z</time>
<desc>lat.=56.081577, lon.=26.539457, Alt.=104.530334m. Speed=14.652000m/h.</desc>
<speed>4.070000</speed>
</trkpt>
<trkpt lat="56.081608" lon="26.539484">
<ele>105.067444</ele>
<time>2010-06-20T11:30:30Z</time>
<desc>lat.=56.081608, lon.=26.539484, Alt.=105.067444m. Speed=14.472000m/h.</desc>
<speed>4.020000</speed>
</trkpt>
<trkpt lat="56.081642" lon="26.539522">
<ele>105.479553</ele>
<time>2010-06-20T11:30:31Z</time>
<desc>lat.=56.081642, lon.=26.539522, Alt.=105.479553m. Speed=14.976000m/h.</desc>
<speed>4.160000</speed>
</trkpt>
<trkpt lat="56.081673" lon="26.539557">
<ele>105.674866</ele>
<time>2010-06-20T11:30:32Z</time>
<desc>lat.=56.081673, lon.=26.539557, Alt.=105.674866m. Speed=14.400000m/h.</desc>
<speed>4.000000</speed>
</trkpt>
<trkpt lat="56.081707" lon="26.539589">
<ele>105.192444</ele>
<time>2010-06-20T11:30:33Z</time>
<desc>lat.=56.081707, lon.=26.539589, Alt.=105.192444m. Speed=15.336000m/h.</desc>
<speed>4.260000</speed>
</trkpt>
<trkpt lat="56.081741" lon="26.539625">
<ele>104.993225</ele>
<time>2010-06-20T11:30:34Z</time>
<desc>lat.=56.081741, lon.=26.539625, Alt.=104.993225m. Speed=15.732000m/h.</desc>
<speed>4.370000</speed>
</trkpt>
<trkpt lat="56.081779" lon="26.539652">
<ele>105.040100</ele>
<time>2010-06-20T11:30:35Z</time>
<desc>lat.=56.081779, lon.=26.539652, Alt.=105.040100m. Speed=15.588000m/h.</desc>
<speed>4.330000</speed>
</trkpt>
<trkpt lat="56.081814" lon="26.539680">
<ele>104.901428</ele>
<time>2010-06-20T11:30:36Z</time>
<desc>lat.=56.081814, lon.=26.539680, Alt.=104.901428m. Speed=15.480000m/h.</desc>
<speed>4.300000</speed>
</trkpt>
<trkpt lat="56.081848" lon="26.539707">
<ele>104.637756</ele>
<time>2010-06-20T11:30:37Z</time>
<desc>lat.=56.081848, lon.=26.539707, Alt.=104.637756m. Speed=14.976000m/h.</desc>
<speed>4.160000</speed>
</trkpt>
<trkpt lat="56.081886" lon="26.539734">
<ele>104.960022</ele>
<time>2010-06-20T11:30:38Z</time>
<desc>lat.=56.081886, lon.=26.539734, Alt.=104.960022m. Speed=14.832000m/h.</desc>
<speed>4.120000</speed>
</trkpt>
<trkpt lat="56.081917" lon="26.539761">
<ele>103.694397</ele>
<time>2010-06-20T11:30:39Z</time>
<desc>lat.=56.081917, lon.=26.539761, Alt.=103.694397m. Speed=14.364000m/h.</desc>
<speed>3.990000</speed>
</trkpt>
<trkpt lat="56.081947" lon="26.539789">
<ele>103.366272</ele>
<time>2010-06-20T11:30:40Z</time>
<desc>lat.=56.081947, lon.=26.539789, Alt.=103.366272m. Speed=13.788000m/h.</desc>
<speed>3.830000</speed>
</trkpt>
<trkpt lat="56.081978" lon="26.539822">
<ele>103.907288</ele>
<time>2010-06-20T11:30:41Z</time>
<desc>lat.=56.081978, lon.=26.539822, Alt.=103.907288m. Speed=13.428000m/h.</desc>
<speed>3.730000</speed>
</trkpt>
<trkpt lat="56.082005" lon="26.539860">
<ele>104.288147</ele>
<time>2010-06-20T11:30:42Z</time>
<desc>lat.=56.082005, lon.=26.539860, Alt.=104.288147m. Speed=12.996000m/h.</desc>
<speed>3.610000</speed>
</trkpt>
<trkpt lat="56.082031" lon="26.539896">
<ele>104.196350</ele>
<time>2010-06-20T11:30:43Z</time>
<desc>lat.=56.082031, lon.=26.539896, Alt.=104.196350m. Speed=13.428000m/h.</desc>
<speed>3.730000</speed>
</trkpt>
<trkpt lat="56.082062" lon="26.539919">
<ele>104.258850</ele>
<time>2010-06-20T11:30:44Z</time>
<desc>lat.=56.082062, lon.=26.539919, Alt.=104.258850m. Speed=13.680000m/h.</desc>
<speed>3.800000</speed>
</trkpt>
<trkpt lat="56.082092" lon="26.539951">
<ele>104.317444</ele>
<time>2010-06-20T11:30:45Z</time>
<desc>lat.=56.082092, lon.=26.539951, Alt.=104.317444m. Speed=13.680000m/h.</desc>
<speed>3.800000</speed>
</trkpt>
<trkpt lat="56.082119" lon="26.539980">
<ele>103.303772</ele>
<time>2010-06-20T11:30:46Z</time>
<desc>lat.=56.082119, lon.=26.539980, Alt.=103.303772m. Speed=13.104000m/h.</desc>
<speed>3.640000</speed>
</trkpt>
<trkpt lat="56.082146" lon="26.540009">
<ele>102.833069</ele>
<time>2010-06-20T11:30:47Z</time>
<desc>lat.=56.082146, lon.=26.540009, Alt.=102.833069m. Speed=13.140000m/h.</desc>
<speed>3.650000</speed>
</trkpt>
<trkpt lat="56.082180" lon="26.540037">
<ele>101.903381</ele>
<time>2010-06-20T11:30:48Z</time>
<desc>lat.=56.082180, lon.=26.540037, Alt.=101.903381m. Speed=13.824000m/h.</desc>
<speed>3.840000</speed>
</trkpt>
<trkpt lat="56.082211" lon="26.540070">
<ele>101.713928</ele>
<time>2010-06-20T11:30:49Z</time>
<desc>lat.=56.082211, lon.=26.540070, Alt.=101.713928m. Speed=14.508000m/h.</desc>
<speed>4.030000</speed>
</trkpt>
<trkpt lat="56.082241" lon="26.540100">
<ele>101.547913</ele>
<time>2010-06-20T11:30:50Z</time>
<desc>lat.=56.082241, lon.=26.540100, Alt.=101.547913m. Speed=13.896000m/h.</desc>
<speed>3.860000</speed>
</trkpt>
<trkpt lat="56.082268" lon="26.540138">
<ele>100.807678</ele>
<time>2010-06-20T11:30:51Z</time>
<desc>lat.=56.082268, lon.=26.540138, Alt.=100.807678m. Speed=13.284000m/h.</desc>
<speed>3.690000</speed>
</trkpt>
<trkpt lat="56.082298" lon="26.540161">
<ele>100.346741</ele>
<time>2010-06-20T11:30:52Z</time>
<desc>lat.=56.082298, lon.=26.540161, Alt.=100.346741m. Speed=13.572000m/h.</desc>
<speed>3.770000</speed>
</trkpt>
<trkpt lat="56.082329" lon="26.540184">
<ele>100.032288</ele>
<time>2010-06-20T11:30:53Z</time>
<desc>lat.=56.082329, lon.=26.540184, Alt.=100.032288m. Speed=14.508000m/h.</desc>
<speed>4.030000</speed>
</trkpt>
<trkpt lat="56.082363" lon="26.540216">
<ele>100.194397</ele>
<time>2010-06-20T11:30:54Z</time>
<desc>lat.=56.082363, lon.=26.540216, Alt.=100.194397m. Speed=14.400000m/h.</desc>
<speed>4.000000</speed>
</trkpt>
<trkpt lat="56.082397" lon="26.540249">
<ele>100.491272</ele>
<time>2010-06-20T11:30:55Z</time>
<desc>lat.=56.082397, lon.=26.540249, Alt.=100.491272m. Speed=13.608000m/h.</desc>
<speed>3.780000</speed>
</trkpt>
<trkpt lat="56.082432" lon="26.540279">
<ele>100.444397</ele>
<time>2010-06-20T11:30:56Z</time>
<desc>lat.=56.082432, lon.=26.540279, Alt.=100.444397m. Speed=14.580000m/h.</desc>
<speed>4.050000</speed>
</trkpt>
<trkpt lat="56.082462" lon="26.540314">
<ele>100.249084</ele>
<time>2010-06-20T11:30:57Z</time>
<desc>lat.=56.082462, lon.=26.540314, Alt.=100.249084m. Speed=15.552000m/h.</desc>
<speed>4.320000</speed>
</trkpt>
<trkpt lat="56.082493" lon="26.540350">
<ele>99.669006</ele>
<time>2010-06-20T11:30:58Z</time>
<desc>lat.=56.082493, lon.=26.540350, Alt.=99.669006m. Speed=15.048000m/h.</desc>
<speed>4.180000</speed>
</trkpt>
<trkpt lat="56.082523" lon="26.540386">
<ele>99.098694</ele>
<time>2010-06-20T11:30:59Z</time>
<desc>lat.=56.082523, lon.=26.540386, Alt.=99.098694m. Speed=15.588000m/h.</desc>
<speed>4.330000</speed>
</trkpt>
<trkpt lat="56.082558" lon="26.540421">
<ele>98.344788</ele>
<time>2010-06-20T11:31:00Z</time>
<desc>lat.=56.082558, lon.=26.540421, Alt.=98.344788m. Speed=16.704000m/h.</desc>
<speed>4.640000</speed>
</trkpt>
<trkpt lat="56.082596" lon="26.540457">
<ele>98.424866</ele>
<time>2010-06-20T11:31:01Z</time>
<desc>lat.=56.082596, lon.=26.540457, Alt.=98.424866m. Speed=16.524000m/h.</desc>
<speed>4.590000</speed>
</trkpt>
<trkpt lat="56.082630" lon="26.540493">
<ele>98.924866</ele>
<time>2010-06-20T11:31:02Z</time>
<desc>lat.=56.082630, lon.=26.540493, Alt.=98.924866m. Speed=15.588000m/h.</desc>
<speed>4.330000</speed>
</trkpt>
<trkpt lat="56.082664" lon="26.540529">
<ele>98.385803</ele>
<time>2010-06-20T11:31:03Z</time>
<desc>lat.=56.082664, lon.=26.540529, Alt.=98.385803m. Speed=15.372000m/h.</desc>
<speed>4.270000</speed>
</trkpt>
<trkpt lat="56.082699" lon="26.540564">
<ele>98.239319</ele>
<time>2010-06-20T11:31:04Z</time>
<desc>lat.=56.082699, lon.=26.540564, Alt.=98.239319m. Speed=16.200001m/h.</desc>
<speed>4.500000</speed>
</trkpt>
<trkpt lat="56.082733" lon="26.540596">
<ele>98.159241</ele>
<time>2010-06-20T11:31:05Z</time>
<desc>lat.=56.082733, lon.=26.540596, Alt.=98.159241m. Speed=15.984000m/h.</desc>
<speed>4.440000</speed>
</trkpt>
<trkpt lat="56.082775" lon="26.540627">
<ele>97.946350</ele>
<time>2010-06-20T11:31:06Z</time>
<desc>lat.=56.082775, lon.=26.540627, Alt.=97.946350m. Speed=15.228000m/h.</desc>
<speed>4.230000</speed>
</trkpt>
<trkpt lat="56.082806" lon="26.540661">
<ele>97.680725</ele>
<time>2010-06-20T11:31:07Z</time>
<desc>lat.=56.082806, lon.=26.540661, Alt.=97.680725m. Speed=14.040000m/h.</desc>
<speed>3.900000</speed>
</trkpt>
<trkpt lat="56.082840" lon="26.540686">
<ele>97.495178</ele>
<time>2010-06-20T11:31:08Z</time>
<desc>lat.=56.082840, lon.=26.540686, Alt.=97.495178m. Speed=13.968000m/h.</desc>
<speed>3.880000</speed>
</trkpt>
<trkpt lat="56.082874" lon="26.540712">
<ele>97.192444</ele>
<time>2010-06-20T11:31:09Z</time>
<desc>lat.=56.082874, lon.=26.540712, Alt.=97.192444m. Speed=13.284000m/h.</desc>
<speed>3.690000</speed>
</trkpt>
<trkpt lat="56.082897" lon="26.540741">
<ele>96.766663</ele>
<time>2010-06-20T11:31:10Z</time>
<desc>lat.=56.082897, lon.=26.540741, Alt.=96.766663m. Speed=12.528000m/h.</desc>
<speed>3.480000</speed>
</trkpt>
<trkpt lat="56.082924" lon="26.540762">
<ele>96.475647</ele>
<time>2010-06-20T11:31:11Z</time>
<desc>lat.=56.082924, lon.=26.540762, Alt.=96.475647m. Speed=11.916000m/h.</desc>
<speed>3.310000</speed>
</trkpt>
<trkpt lat="56.082954" lon="26.540787">
<ele>96.264709</ele>
<time>2010-06-20T11:31:12Z</time>
<desc>lat.=56.082954, lon.=26.540787, Alt.=96.264709m. Speed=11.916000m/h.</desc>
<speed>3.310000</speed>
</trkpt>
<trkpt lat="56.082981" lon="26.540812">
<ele>95.788147</ele>
<time>2010-06-20T11:31:13Z</time>
<desc>lat.=56.082981, lon.=26.540812, Alt.=95.788147m. Speed=11.988000m/h.</desc>
<speed>3.330000</speed>
</trkpt>
<trkpt lat="56.083012" lon="26.540842">
<ele>95.610413</ele>
<time>2010-06-20T11:31:14Z</time>
<desc>lat.=56.083012, lon.=26.540842, Alt.=95.610413m. Speed=12.312000m/h.</desc>
<speed>3.420000</speed>
</trkpt>
<trkpt lat="56.083038" lon="26.540874">
<ele>95.473694</ele>
<time>2010-06-20T11:31:15Z</time>
<desc>lat.=56.083038, lon.=26.540874, Alt.=95.473694m. Speed=11.772000m/h.</desc>
<speed>3.270000</speed>
</trkpt>
<trkpt lat="56.083065" lon="26.540907">
<ele>95.106506</ele>
<time>2010-06-20T11:31:16Z</time>
<desc>lat.=56.083065, lon.=26.540907, Alt.=95.106506m. Speed=11.952000m/h.</desc>
<speed>3.320000</speed>
</trkpt>
<trkpt lat="56.083088" lon="26.540937">
<ele>95.504944</ele>
<time>2010-06-20T11:31:17Z</time>
<desc>lat.=56.083088, lon.=26.540937, Alt.=95.504944m. Speed=11.988000m/h.</desc>
<speed>3.330000</speed>
</trkpt>
<trkpt lat="56.083115" lon="26.540964">
<ele>95.969788</ele>
<time>2010-06-20T11:31:18Z</time>
<desc>lat.=56.083115, lon.=26.540964, Alt.=95.969788m. Speed=13.356000m/h.</desc>
<speed>3.710000</speed>
</trkpt>
<trkpt lat="56.083141" lon="26.540997">
<ele>95.958069</ele>
<time>2010-06-20T11:31:19Z</time>
<desc>lat.=56.083141, lon.=26.540997, Alt.=95.958069m. Speed=13.500000m/h.</desc>
<speed>3.750000</speed>
</trkpt>
<trkpt lat="56.083168" lon="26.541023">
<ele>95.874084</ele>
<time>2010-06-20T11:31:20Z</time>
<desc>lat.=56.083168, lon.=26.541023, Alt.=95.874084m. Speed=13.500000m/h.</desc>
<speed>3.750000</speed>
</trkpt>
<trkpt lat="56.083195" lon="26.541056">
<ele>96.002991</ele>
<time>2010-06-20T11:31:21Z</time>
<desc>lat.=56.083195, lon.=26.541056, Alt.=96.002991m. Speed=13.788000m/h.</desc>
<speed>3.830000</speed>
</trkpt>
<trkpt lat="56.083221" lon="26.541088">
<ele>96.571350</ele>
<time>2010-06-20T11:31:22Z</time>
<desc>lat.=56.083221, lon.=26.541088, Alt.=96.571350m. Speed=12.384000m/h.</desc>
<speed>3.440000</speed>
</trkpt>
<trkpt lat="56.083248" lon="26.541111">
<ele>96.872131</ele>
<time>2010-06-20T11:31:23Z</time>
<desc>lat.=56.083248, lon.=26.541111, Alt.=96.872131m. Speed=13.032000m/h.</desc>
<speed>3.620000</speed>
</trkpt>
<trkpt lat="56.083279" lon="26.541138">
<ele>96.868225</ele>
<time>2010-06-20T11:31:24Z</time>
<desc>lat.=56.083279, lon.=26.541138, Alt.=96.868225m. Speed=13.752000m/h.</desc>
<speed>3.820000</speed>
</trkpt>
<trkpt lat="56.083309" lon="26.541159">
<ele>96.563538</ele>
<time>2010-06-20T11:31:25Z</time>
<desc>lat.=56.083309, lon.=26.541159, Alt.=96.563538m. Speed=13.608000m/h.</desc>
<speed>3.780000</speed>
</trkpt>
<trkpt lat="56.083340" lon="26.541182">
<ele>96.342834</ele>
<time>2010-06-20T11:31:26Z</time>
<desc>lat.=56.083340, lon.=26.541182, Alt.=96.342834m. Speed=14.040000m/h.</desc>
<speed>3.900000</speed>
</trkpt>
<trkpt lat="56.083374" lon="26.541212">
<ele>96.516663</ele>
<time>2010-06-20T11:31:27Z</time>
<desc>lat.=56.083374, lon.=26.541212, Alt.=96.516663m. Speed=13.716000m/h.</desc>
<speed>3.810000</speed>
</trkpt>
<trkpt lat="56.083408" lon="26.541246">
<ele>96.545959</ele>
<time>2010-06-20T11:31:28Z</time>
<desc>lat.=56.083408, lon.=26.541246, Alt.=96.545959m. Speed=13.608000m/h.</desc>
<speed>3.780000</speed>
</trkpt>
<trkpt lat="56.083439" lon="26.541279">
<ele>96.379944</ele>
<time>2010-06-20T11:31:29Z</time>
<desc>lat.=56.083439, lon.=26.541279, Alt.=96.379944m. Speed=14.616000m/h.</desc>
<speed>4.060000</speed>
</trkpt>
<trkpt lat="56.083473" lon="26.541315">
<ele>96.200256</ele>
<time>2010-06-20T11:31:30Z</time>
<desc>lat.=56.083473, lon.=26.541315, Alt.=96.200256m. Speed=14.256000m/h.</desc>
<speed>3.960000</speed>
</trkpt>
<trkpt lat="56.083511" lon="26.541349">
<ele>96.047913</ele>
<time>2010-06-20T11:31:31Z</time>
<desc>lat.=56.083511, lon.=26.541349, Alt.=96.047913m. Speed=15.264000m/h.</desc>
<speed>4.240000</speed>
</trkpt>
<trkpt lat="56.083542" lon="26.541384">
<ele>96.022522</ele>
<time>2010-06-20T11:31:32Z</time>
<desc>lat.=56.083542, lon.=26.541384, Alt.=96.022522m. Speed=14.868000m/h.</desc>
<speed>4.130000</speed>
</trkpt>
<trkpt lat="56.083576" lon="26.541418">
<ele>95.741272</ele>
<time>2010-06-20T11:31:33Z</time>
<desc>lat.=56.083576, lon.=26.541418, Alt.=95.741272m. Speed=14.580000m/h.</desc>
<speed>4.050000</speed>
</trkpt>
<trkpt lat="56.083607" lon="26.541451">
<ele>95.547913</ele>
<time>2010-06-20T11:31:34Z</time>
<desc>lat.=56.083607, lon.=26.541451, Alt.=95.547913m. Speed=14.040000m/h.</desc>
<speed>3.900000</speed>
</trkpt>
<trkpt lat="56.083637" lon="26.541477">
<ele>95.083069</ele>
<time>2010-06-20T11:31:35Z</time>
<desc>lat.=56.083637, lon.=26.541477, Alt.=95.083069m. Speed=13.464000m/h.</desc>
<speed>3.740000</speed>
</trkpt>
<trkpt lat="56.083668" lon="26.541500">
<ele>95.294006</ele>
<time>2010-06-20T11:31:36Z</time>
<desc>lat.=56.083668, lon.=26.541500, Alt.=95.294006m. Speed=13.860000m/h.</desc>
<speed>3.850000</speed>
</trkpt>
<trkpt lat="56.083698" lon="26.541523">
<ele>94.913147</ele>
<time>2010-06-20T11:31:37Z</time>
<desc>lat.=56.083698, lon.=26.541523, Alt.=94.913147m. Speed=13.968000m/h.</desc>
<speed>3.880000</speed>
</trkpt>
<trkpt lat="56.083729" lon="26.541548">
<ele>94.614319</ele>
<time>2010-06-20T11:31:38Z</time>
<desc>lat.=56.083729, lon.=26.541548, Alt.=94.614319m. Speed=13.536000m/h.</desc>
<speed>3.760000</speed>
</trkpt>
<trkpt lat="56.083755" lon="26.541567">
<ele>94.217834</ele>
<time>2010-06-20T11:31:39Z</time>
<desc>lat.=56.083755, lon.=26.541567, Alt.=94.217834m. Speed=11.052000m/h.</desc>
<speed>3.070000</speed>
</trkpt>
<trkpt lat="56.083778" lon="26.541588">
<ele>93.881897</ele>
<time>2010-06-20T11:31:40Z</time>
<desc>lat.=56.083778, lon.=26.541588, Alt.=93.881897m. Speed=11.664000m/h.</desc>
<speed>3.240000</speed>
</trkpt>
<trkpt lat="56.083809" lon="26.541615">
<ele>93.575256</ele>
<time>2010-06-20T11:31:41Z</time>
<desc>lat.=56.083809, lon.=26.541615, Alt.=93.575256m. Speed=12.096000m/h.</desc>
<speed>3.360000</speed>
</trkpt>
<trkpt lat="56.083836" lon="26.541641">
<ele>93.979553</ele>
<time>2010-06-20T11:31:42Z</time>
<desc>lat.=56.083836, lon.=26.541641, Alt.=93.979553m. Speed=12.456000m/h.</desc>
<speed>3.460000</speed>
</trkpt>
<trkpt lat="56.083862" lon="26.541676">
<ele>94.473694</ele>
<time>2010-06-20T11:31:43Z</time>
<desc>lat.=56.083862, lon.=26.541676, Alt.=94.473694m. Speed=12.024000m/h.</desc>
<speed>3.340000</speed>
</trkpt>
<trkpt lat="56.083885" lon="26.541708">
<ele>95.135803</ele>
<time>2010-06-20T11:31:44Z</time>
<desc>lat.=56.083885, lon.=26.541708, Alt.=95.135803m. Speed=11.772000m/h.</desc>
<speed>3.270000</speed>
</trkpt>
<trkpt lat="56.083908" lon="26.541750">
<ele>95.405334</ele>
<time>2010-06-20T11:31:45Z</time>
<desc>lat.=56.083908, lon.=26.541750, Alt.=95.405334m. Speed=12.204000m/h.</desc>
<speed>3.390000</speed>
</trkpt>
<trkpt lat="56.083931" lon="26.541790">
<ele>95.622131</ele>
<time>2010-06-20T11:31:46Z</time>
<desc>lat.=56.083931, lon.=26.541790, Alt.=95.622131m. Speed=11.484000m/h.</desc>
<speed>3.190000</speed>
</trkpt>
<trkpt lat="56.083950" lon="26.541817">
<ele>95.555725</ele>
<time>2010-06-20T11:31:47Z</time>
<desc>lat.=56.083950, lon.=26.541817, Alt.=95.555725m. Speed=11.628000m/h.</desc>
<speed>3.230000</speed>
</trkpt>
<trkpt lat="56.083981" lon="26.541842">
<ele>95.958069</ele>
<time>2010-06-20T11:31:48Z</time>
<desc>lat.=56.083981, lon.=26.541842, Alt.=95.958069m. Speed=13.140000m/h.</desc>
<speed>3.650000</speed>
</trkpt>
<trkpt lat="56.084011" lon="26.541868">
<ele>95.958069</ele>
<time>2010-06-20T11:31:49Z</time>
<desc>lat.=56.084011, lon.=26.541868, Alt.=95.958069m. Speed=12.672000m/h.</desc>
<speed>3.520000</speed>
</trkpt>
<trkpt lat="56.084042" lon="26.541895">
<ele>96.047913</ele>
<time>2010-06-20T11:31:50Z</time>
<desc>lat.=56.084042, lon.=26.541895, Alt.=96.047913m. Speed=13.608000m/h.</desc>
<speed>3.780000</speed>
</trkpt>
<trkpt lat="56.084076" lon="26.541924">
<ele>96.161194</ele>
<time>2010-06-20T11:31:51Z</time>
<desc>lat.=56.084076, lon.=26.541924, Alt.=96.161194m. Speed=14.184000m/h.</desc>
<speed>3.940000</speed>
</trkpt>
<trkpt lat="56.084103" lon="26.541954">
<ele>96.229553</ele>
<time>2010-06-20T11:31:52Z</time>
<desc>lat.=56.084103, lon.=26.541954, Alt.=96.229553m. Speed=11.448000m/h.</desc>
<speed>3.180000</speed>
</trkpt>
<trkpt lat="56.084129" lon="26.541979">
<ele>96.221741</ele>
<time>2010-06-20T11:31:53Z</time>
<desc>lat.=56.084129, lon.=26.541979, Alt.=96.221741m. Speed=11.952000m/h.</desc>
<speed>3.320000</speed>
</trkpt>
<trkpt lat="56.084156" lon="26.542004">
<ele>96.165100</ele>
<time>2010-06-20T11:31:54Z</time>
<desc>lat.=56.084156, lon.=26.542004, Alt.=96.165100m. Speed=11.916000m/h.</desc>
<speed>3.310000</speed>
</trkpt>
<trkpt lat="56.084179" lon="26.542025">
<ele>96.155334</ele>
<time>2010-06-20T11:31:55Z</time>
<desc>lat.=56.084179, lon.=26.542025, Alt.=96.155334m. Speed=11.772000m/h.</desc>
<speed>3.270000</speed>
</trkpt>
<trkpt lat="56.084206" lon="26.542046">
<ele>96.157288</ele>
<time>2010-06-20T11:31:56Z</time>
<desc>lat.=56.084206, lon.=26.542046, Alt.=96.157288m. Speed=11.484000m/h.</desc>
<speed>3.190000</speed>
</trkpt>
<trkpt lat="56.084232" lon="26.542070">
<ele>96.153381</ele>
<time>2010-06-20T11:31:57Z</time>
<desc>lat.=56.084232, lon.=26.542070, Alt.=96.153381m. Speed=11.304000m/h.</desc>
<speed>3.140000</speed>
</trkpt>
<trkpt lat="56.084255" lon="26.542093">
<ele>96.014709</ele>
<time>2010-06-20T11:31:58Z</time>
<desc>lat.=56.084255, lon.=26.542093, Alt.=96.014709m. Speed=11.304000m/h.</desc>
<speed>3.140000</speed>
</trkpt>
<trkpt lat="56.084282" lon="26.542118">
<ele>96.085022</ele>
<time>2010-06-20T11:31:59Z</time>
<desc>lat.=56.084282, lon.=26.542118, Alt.=96.085022m. Speed=11.700000m/h.</desc>
<speed>3.250000</speed>
</trkpt>
<trkpt lat="56.084305" lon="26.542143">
<ele>96.086975</ele>
<time>2010-06-20T11:32:00Z</time>
<desc>lat.=56.084305, lon.=26.542143, Alt.=96.086975m. Speed=11.412000m/h.</desc>
<speed>3.170000</speed>
</trkpt>
<trkpt lat="56.084332" lon="26.542164">
<ele>95.969788</ele>
<time>2010-06-20T11:32:01Z</time>
<desc>lat.=56.084332, lon.=26.542164, Alt.=95.969788m. Speed=12.024000m/h.</desc>
<speed>3.340000</speed>
</trkpt>
<trkpt lat="56.084354" lon="26.542185">
<ele>96.038147</ele>
<time>2010-06-20T11:32:02Z</time>
<desc>lat.=56.084354, lon.=26.542185, Alt.=96.038147m. Speed=11.628000m/h.</desc>
<speed>3.230000</speed>
</trkpt>
<trkpt lat="56.084381" lon="26.542204">
<ele>96.051819</ele>
<time>2010-06-20T11:32:03Z</time>
<desc>lat.=56.084381, lon.=26.542204, Alt.=96.051819m. Speed=11.196000m/h.</desc>
<speed>3.110000</speed>
</trkpt>
<trkpt lat="56.084408" lon="26.542225">
<ele>96.022522</ele>
<time>2010-06-20T11:32:04Z</time>
<desc>lat.=56.084408, lon.=26.542225, Alt.=96.022522m. Speed=13.032000m/h.</desc>
<speed>3.620000</speed>
</trkpt>
<trkpt lat="56.084435" lon="26.542250">
<ele>96.030334</ele>
<time>2010-06-20T11:32:05Z</time>
<desc>lat.=56.084435, lon.=26.542250, Alt.=96.030334m. Speed=12.348000m/h.</desc>
<speed>3.430000</speed>
</trkpt>
<trkpt lat="56.084465" lon="26.542271">
<ele>96.085022</ele>
<time>2010-06-20T11:32:06Z</time>
<desc>lat.=56.084465, lon.=26.542271, Alt.=96.085022m. Speed=12.024000m/h.</desc>
<speed>3.340000</speed>
</trkpt>
<trkpt lat="56.084488" lon="26.542290">
<ele>95.995178</ele>
<time>2010-06-20T11:32:07Z</time>
<desc>lat.=56.084488, lon.=26.542290, Alt.=95.995178m. Speed=11.916000m/h.</desc>
<speed>3.310000</speed>
</trkpt>
<trkpt lat="56.084515" lon="26.542307">
<ele>95.684631</ele>
<time>2010-06-20T11:32:08Z</time>
<desc>lat.=56.084515, lon.=26.542307, Alt.=95.684631m. Speed=11.592000m/h.</desc>
<speed>3.220000</speed>
</trkpt>
<trkpt lat="56.084541" lon="26.542334">
<ele>95.893616</ele>
<time>2010-06-20T11:32:09Z</time>
<desc>lat.=56.084541, lon.=26.542334, Alt.=95.893616m. Speed=11.340000m/h.</desc>
<speed>3.150000</speed>
</trkpt>
<trkpt lat="56.084564" lon="26.542364">
<ele>96.001038</ele>
<time>2010-06-20T11:32:10Z</time>
<desc>lat.=56.084564, lon.=26.542364, Alt.=96.001038m. Speed=11.484000m/h.</desc>
<speed>3.190000</speed>
</trkpt>
<trkpt lat="56.084587" lon="26.542393">
<ele>96.120178</ele>
<time>2010-06-20T11:32:11Z</time>
<desc>lat.=56.084587, lon.=26.542393, Alt.=96.120178m. Speed=11.340000m/h.</desc>
<speed>3.150000</speed>
</trkpt>
<trkpt lat="56.084610" lon="26.542416">
<ele>96.213928</ele>
<time>2010-06-20T11:32:12Z</time>
<desc>lat.=56.084610, lon.=26.542416, Alt.=96.213928m. Speed=10.764000m/h.</desc>
<speed>2.990000</speed>
</trkpt>
<trkpt lat="56.084637" lon="26.542439">
<ele>96.139709</ele>
<time>2010-06-20T11:32:13Z</time>
<desc>lat.=56.084637, lon.=26.542439, Alt.=96.139709m. Speed=10.800000m/h.</desc>
<speed>3.000000</speed>
</trkpt>
<trkpt lat="56.084660" lon="26.542456">
<ele>95.754944</ele>
<time>2010-06-20T11:32:14Z</time>
<desc>lat.=56.084660, lon.=26.542456, Alt.=95.754944m. Speed=9.684000m/h.</desc>
<speed>2.690000</speed>
</trkpt>
<trkpt lat="56.084682" lon="26.542475">
<ele>95.545959</ele>
<time>2010-06-20T11:32:15Z</time>
<desc>lat.=56.084682, lon.=26.542475, Alt.=95.545959m. Speed=10.332000m/h.</desc>
<speed>2.870000</speed>
</trkpt>
<trkpt lat="56.084709" lon="26.542500">
<ele>95.448303</ele>
<time>2010-06-20T11:32:16Z</time>
<desc>lat.=56.084709, lon.=26.542500, Alt.=95.448303m. Speed=11.556000m/h.</desc>
<speed>3.210000</speed>
</trkpt>
<trkpt lat="56.084740" lon="26.542521">
<ele>95.252991</ele>
<time>2010-06-20T11:32:17Z</time>
<desc>lat.=56.084740, lon.=26.542521, Alt.=95.252991m. Speed=12.024000m/h.</desc>
<speed>3.340000</speed>
</trkpt>
<trkpt lat="56.084770" lon="26.542545">
<ele>95.881897</ele>
<time>2010-06-20T11:32:18Z</time>
<desc>lat.=56.084770, lon.=26.542545, Alt.=95.881897m. Speed=12.456000m/h.</desc>
<speed>3.460000</speed>
</trkpt>
<trkpt lat="56.084801" lon="26.542572">
<ele>95.979553</ele>
<time>2010-06-20T11:32:19Z</time>
<desc>lat.=56.084801, lon.=26.542572, Alt.=95.979553m. Speed=14.292000m/h.</desc>
<speed>3.970000</speed>
</trkpt>
<trkpt lat="56.084831" lon="26.542595">
<ele>96.211975</ele>
<time>2010-06-20T11:32:20Z</time>
<desc>lat.=56.084831, lon.=26.542595, Alt.=96.211975m. Speed=13.140000m/h.</desc>
<speed>3.650000</speed>
</trkpt>
<trkpt lat="56.084862" lon="26.542616">
<ele>96.321350</ele>
<time>2010-06-20T11:32:21Z</time>
<desc>lat.=56.084862, lon.=26.542616, Alt.=96.321350m. Speed=12.924000m/h.</desc>
<speed>3.590000</speed>
</trkpt>
<trkpt lat="56.084892" lon="26.542637">
<ele>96.725647</ele>
<time>2010-06-20T11:32:22Z</time>
<desc>lat.=56.084892, lon.=26.542637, Alt.=96.725647m. Speed=12.348000m/h.</desc>
<speed>3.430000</speed>
</trkpt>
<trkpt lat="56.084923" lon="26.542656">
<ele>96.842834</ele>
<time>2010-06-20T11:32:23Z</time>
<desc>lat.=56.084923, lon.=26.542656, Alt.=96.842834m. Speed=12.456000m/h.</desc>
<speed>3.460000</speed>
</trkpt>
<trkpt lat="56.084946" lon="26.542673">
<ele>96.161194</ele>
<time>2010-06-20T11:32:24Z</time>
<desc>lat.=56.084946, lon.=26.542673, Alt.=96.161194m. Speed=12.348000m/h.</desc>
<speed>3.430000</speed>
</trkpt>
<trkpt lat="56.084976" lon="26.542698">
<ele>96.350647</ele>
<time>2010-06-20T11:32:25Z</time>
<desc>lat.=56.084976, lon.=26.542698, Alt.=96.350647m. Speed=12.708000m/h.</desc>
<speed>3.530000</speed>
</trkpt>
<trkpt lat="56.085007" lon="26.542719">
<ele>96.303772</ele>
<time>2010-06-20T11:32:26Z</time>
<desc>lat.=56.085007, lon.=26.542719, Alt.=96.303772m. Speed=11.808000m/h.</desc>
<speed>3.280000</speed>
</trkpt>
<trkpt lat="56.085030" lon="26.542738">
<ele>96.210022</ele>
<time>2010-06-20T11:32:27Z</time>
<desc>lat.=56.085030, lon.=26.542738, Alt.=96.210022m. Speed=10.980000m/h.</desc>
<speed>3.050000</speed>
</trkpt>
<trkpt lat="56.085052" lon="26.542755">
<ele>96.264709</ele>
<time>2010-06-20T11:32:28Z</time>
<desc>lat.=56.085052, lon.=26.542755, Alt.=96.264709m. Speed=11.160000m/h.</desc>
<speed>3.100000</speed>
</trkpt>
<trkpt lat="56.085079" lon="26.542770">
<ele>96.342834</ele>
<time>2010-06-20T11:32:29Z</time>
<desc>lat.=56.085079, lon.=26.542770, Alt.=96.342834m. Speed=10.332000m/h.</desc>
<speed>2.870000</speed>
</trkpt>
<trkpt lat="56.085102" lon="26.542786">
<ele>96.348694</ele>
<time>2010-06-20T11:32:30Z</time>
<desc>lat.=56.085102, lon.=26.542786, Alt.=96.348694m. Speed=10.872000m/h.</desc>
<speed>3.020000</speed>
</trkpt>
<trkpt lat="56.085125" lon="26.542799">
<ele>96.215881</ele>
<time>2010-06-20T11:32:31Z</time>
<desc>lat.=56.085125, lon.=26.542799, Alt.=96.215881m. Speed=10.656000m/h.</desc>
<speed>2.960000</speed>
</trkpt>
<trkpt lat="56.085152" lon="26.542810">
<ele>95.288147</ele>
<time>2010-06-20T11:32:32Z</time>
<desc>lat.=56.085152, lon.=26.542810, Alt.=95.288147m. Speed=11.844000m/h.</desc>
<speed>3.290000</speed>
</trkpt>
<trkpt lat="56.085182" lon="26.542826">
<ele>95.108459</ele>
<time>2010-06-20T11:32:33Z</time>
<desc>lat.=56.085182, lon.=26.542826, Alt.=95.108459m. Speed=11.160000m/h.</desc>
<speed>3.100000</speed>
</trkpt>
<trkpt lat="56.085209" lon="26.542843">
<ele>95.026428</ele>
<time>2010-06-20T11:32:34Z</time>
<desc>lat.=56.085209, lon.=26.542843, Alt.=95.026428m. Speed=12.060000m/h.</desc>
<speed>3.350000</speed>
</trkpt>
<trkpt lat="56.085236" lon="26.542858">
<ele>95.002991</ele>
<time>2010-06-20T11:32:35Z</time>
<desc>lat.=56.085236, lon.=26.542858, Alt.=95.002991m. Speed=11.484000m/h.</desc>
<speed>3.190000</speed>
</trkpt>
<trkpt lat="56.085262" lon="26.542875">
<ele>95.044006</ele>
<time>2010-06-20T11:32:36Z</time>
<desc>lat.=56.085262, lon.=26.542875, Alt.=95.044006m. Speed=10.944000m/h.</desc>
<speed>3.040000</speed>
</trkpt>
<trkpt lat="56.085285" lon="26.542889">
<ele>95.038147</ele>
<time>2010-06-20T11:32:37Z</time>
<desc>lat.=56.085285, lon.=26.542889, Alt.=95.038147m. Speed=11.376000m/h.</desc>
<speed>3.160000</speed>
</trkpt>
<trkpt lat="56.085312" lon="26.542906">
<ele>95.036194</ele>
<time>2010-06-20T11:32:38Z</time>
<desc>lat.=56.085312, lon.=26.542906, Alt.=95.036194m. Speed=12.024000m/h.</desc>
<speed>3.340000</speed>
</trkpt>
<trkpt lat="56.085342" lon="26.542921">
<ele>94.815491</ele>
<time>2010-06-20T11:32:39Z</time>
<desc>lat.=56.085342, lon.=26.542921, Alt.=94.815491m. Speed=12.924000m/h.</desc>
<speed>3.590000</speed>
</trkpt>
<trkpt lat="56.085377" lon="26.542938">
<ele>94.758850</ele>
<time>2010-06-20T11:32:40Z</time>
<desc>lat.=56.085377, lon.=26.542938, Alt.=94.758850m. Speed=12.384000m/h.</desc>
<speed>3.440000</speed>
</trkpt>
<trkpt lat="56.085403" lon="26.542955">
<ele>94.932678</ele>
<time>2010-06-20T11:32:41Z</time>
<desc>lat.=56.085403, lon.=26.542955, Alt.=94.932678m. Speed=11.448000m/h.</desc>
<speed>3.180000</speed>
</trkpt>
<trkpt lat="56.085430" lon="26.542969">
<ele>95.079163</ele>
<time>2010-06-20T11:32:42Z</time>
<desc>lat.=56.085430, lon.=26.542969, Alt.=95.079163m. Speed=10.692000m/h.</desc>
<speed>2.970000</speed>
</trkpt>
<trkpt lat="56.085461" lon="26.542986">
<ele>95.202209</ele>
<time>2010-06-20T11:32:43Z</time>
<desc>lat.=56.085461, lon.=26.542986, Alt.=95.202209m. Speed=10.692000m/h.</desc>
<speed>2.970000</speed>
</trkpt>
<trkpt lat="56.085487" lon="26.543001">
<ele>95.417053</ele>
<time>2010-06-20T11:32:44Z</time>
<desc>lat.=56.085487, lon.=26.543001, Alt.=95.417053m. Speed=11.628000m/h.</desc>
<speed>3.230000</speed>
</trkpt>
<trkpt lat="56.085510" lon="26.543024">
<ele>95.579163</ele>
<time>2010-06-20T11:32:45Z</time>
<desc>lat.=56.085510, lon.=26.543024, Alt.=95.579163m. Speed=12.600000m/h.</desc>
<speed>3.500000</speed>
</trkpt>
<trkpt lat="56.085541" lon="26.543049">
<ele>95.696350</ele>
<time>2010-06-20T11:32:46Z</time>
<desc>lat.=56.085541, lon.=26.543049, Alt.=95.696350m. Speed=12.708000m/h.</desc>
<speed>3.530000</speed>
</trkpt>
<trkpt lat="56.085571" lon="26.543072">
<ele>95.821350</ele>
<time>2010-06-20T11:32:47Z</time>
<desc>lat.=56.085571, lon.=26.543072, Alt.=95.821350m. Speed=12.888000m/h.</desc>
<speed>3.580000</speed>
</trkpt>
<trkpt lat="56.085602" lon="26.543091">
<ele>95.946350</ele>
<time>2010-06-20T11:32:48Z</time>
<desc>lat.=56.085602, lon.=26.543091, Alt.=95.946350m. Speed=12.240000m/h.</desc>
<speed>3.400000</speed>
</trkpt>
<trkpt lat="56.085629" lon="26.543108">
<ele>96.026428</ele>
<time>2010-06-20T11:32:49Z</time>
<desc>lat.=56.085629, lon.=26.543108, Alt.=96.026428m. Speed=11.268000m/h.</desc>
<speed>3.130000</speed>
</trkpt>
<trkpt lat="56.085659" lon="26.543125">
<ele>95.971741</ele>
<time>2010-06-20T11:32:50Z</time>
<desc>lat.=56.085659, lon.=26.543125, Alt.=95.971741m. Speed=11.412000m/h.</desc>
<speed>3.170000</speed>
</trkpt>
<trkpt lat="56.085690" lon="26.543140">
<ele>96.225647</ele>
<time>2010-06-20T11:32:51Z</time>
<desc>lat.=56.085690, lon.=26.543140, Alt.=96.225647m. Speed=12.240000m/h.</desc>
<speed>3.400000</speed>
</trkpt>
<trkpt lat="56.085720" lon="26.543161">
<ele>96.559631</ele>
<time>2010-06-20T11:32:52Z</time>
<desc>lat.=56.085720, lon.=26.543161, Alt.=96.559631m. Speed=13.068000m/h.</desc>
<speed>3.630000</speed>
</trkpt>
<trkpt lat="56.085754" lon="26.543180">
<ele>96.450256</ele>
<time>2010-06-20T11:32:53Z</time>
<desc>lat.=56.085754, lon.=26.543180, Alt.=96.450256m. Speed=13.860000m/h.</desc>
<speed>3.850000</speed>
</trkpt>
<trkpt lat="56.085789" lon="26.543198">
<ele>96.606506</ele>
<time>2010-06-20T11:32:54Z</time>
<desc>lat.=56.085789, lon.=26.543198, Alt.=96.606506m. Speed=14.256000m/h.</desc>
<speed>3.960000</speed>
</trkpt>
<trkpt lat="56.085827" lon="26.543221">
<ele>96.795959</ele>
<time>2010-06-20T11:32:55Z</time>
<desc>lat.=56.085827, lon.=26.543221, Alt.=96.795959m. Speed=14.796000m/h.</desc>
<speed>4.110000</speed>
</trkpt>
<trkpt lat="56.085861" lon="26.543238">
<ele>96.737366</ele>
<time>2010-06-20T11:32:56Z</time>
<desc>lat.=56.085861, lon.=26.543238, Alt.=96.737366m. Speed=15.156000m/h.</desc>
<speed>4.210000</speed>
</trkpt>
<trkpt lat="56.085896" lon="26.543253">
<ele>96.565491</ele>
<time>2010-06-20T11:32:57Z</time>
<desc>lat.=56.085896, lon.=26.543253, Alt.=96.565491m. Speed=15.516000m/h.</desc>
<speed>4.310000</speed>
</trkpt>
<trkpt lat="56.085934" lon="26.543261">
<ele>96.417053</ele>
<time>2010-06-20T11:32:58Z</time>
<desc>lat.=56.085934, lon.=26.543261, Alt.=96.417053m. Speed=14.544000m/h.</desc>
<speed>4.040000</speed>
</trkpt>
<trkpt lat="56.085964" lon="26.543270">
<ele>96.249084</ele>
<time>2010-06-20T11:32:59Z</time>
<desc>lat.=56.085964, lon.=26.543270, Alt.=96.249084m. Speed=13.176000m/h.</desc>
<speed>3.660000</speed>
</trkpt>
<trkpt lat="56.085999" lon="26.543278">
<ele>96.194397</ele>
<time>2010-06-20T11:33:00Z</time>
<desc>lat.=56.085999, lon.=26.543278, Alt.=96.194397m. Speed=12.744000m/h.</desc>
<speed>3.540000</speed>
</trkpt>
<trkpt lat="56.086033" lon="26.543289">
<ele>96.299866</ele>
<time>2010-06-20T11:33:01Z</time>
<desc>lat.=56.086033, lon.=26.543289, Alt.=96.299866m. Speed=13.176000m/h.</desc>
<speed>3.660000</speed>
</trkpt>
<trkpt lat="56.086067" lon="26.543303">
<ele>96.268616</ele>
<time>2010-06-20T11:33:02Z</time>
<desc>lat.=56.086067, lon.=26.543303, Alt.=96.268616m. Speed=13.896000m/h.</desc>
<speed>3.860000</speed>
</trkpt>
<trkpt lat="56.086102" lon="26.543322">
<ele>96.397522</ele>
<time>2010-06-20T11:33:03Z</time>
<desc>lat.=56.086102, lon.=26.543322, Alt.=96.397522m. Speed=14.508000m/h.</desc>
<speed>4.030000</speed>
</trkpt>
<trkpt lat="56.086136" lon="26.543337">
<ele>96.399475</ele>
<time>2010-06-20T11:33:04Z</time>
<desc>lat.=56.086136, lon.=26.543337, Alt.=96.399475m. Speed=14.544000m/h.</desc>
<speed>4.040000</speed>
</trkpt>
<trkpt lat="56.086174" lon="26.543348">
<ele>96.368225</ele>
<time>2010-06-20T11:33:05Z</time>
<desc>lat.=56.086174, lon.=26.543348, Alt.=96.368225m. Speed=14.940000m/h.</desc>
<speed>4.150000</speed>
</trkpt>
<trkpt lat="56.086212" lon="26.543356">
<ele>96.377991</ele>
<time>2010-06-20T11:33:06Z</time>
<desc>lat.=56.086212, lon.=26.543356, Alt.=96.377991m. Speed=14.760000m/h.</desc>
<speed>4.100000</speed>
</trkpt>
<trkpt lat="56.086246" lon="26.543360">
<ele>96.241272</ele>
<time>2010-06-20T11:33:07Z</time>
<desc>lat.=56.086246, lon.=26.543360, Alt.=96.241272m. Speed=13.932000m/h.</desc>
<speed>3.870000</speed>
</trkpt>
<trkpt lat="56.086281" lon="26.543369">
<ele>96.213928</ele>
<time>2010-06-20T11:33:08Z</time>
<desc>lat.=56.086281, lon.=26.543369, Alt.=96.213928m. Speed=14.328000m/h.</desc>
<speed>3.980000</speed>
</trkpt>
<trkpt lat="56.086319" lon="26.543383">
<ele>96.206116</ele>
<time>2010-06-20T11:33:09Z</time>
<desc>lat.=56.086319, lon.=26.543383, Alt.=96.206116m. Speed=15.048000m/h.</desc>
<speed>4.180000</speed>
</trkpt>
<trkpt lat="56.086353" lon="26.543396">
<ele>96.295959</ele>
<time>2010-06-20T11:33:10Z</time>
<desc>lat.=56.086353, lon.=26.543396, Alt.=96.295959m. Speed=14.616000m/h.</desc>
<speed>4.060000</speed>
</trkpt>
<trkpt lat="56.086388" lon="26.543406">
<ele>96.213928</ele>
<time>2010-06-20T11:33:11Z</time>
<desc>lat.=56.086388, lon.=26.543406, Alt.=96.213928m. Speed=13.248000m/h.</desc>
<speed>3.680000</speed>
</trkpt>
<trkpt lat="56.086422" lon="26.543421">
<ele>96.319397</ele>
<time>2010-06-20T11:33:12Z</time>
<desc>lat.=56.086422, lon.=26.543421, Alt.=96.319397m. Speed=12.132000m/h.</desc>
<speed>3.370000</speed>
</trkpt>
<trkpt lat="56.086449" lon="26.543421">
<ele>96.600647</ele>
<time>2010-06-20T11:33:13Z</time>
<desc>lat.=56.086449, lon.=26.543421, Alt.=96.600647m. Speed=11.016000m/h.</desc>
<speed>3.060000</speed>
</trkpt>
<trkpt lat="56.086475" lon="26.543427">
<ele>96.670959</ele>
<time>2010-06-20T11:33:14Z</time>
<desc>lat.=56.086475, lon.=26.543427, Alt.=96.670959m. Speed=11.052000m/h.</desc>
<speed>3.070000</speed>
</trkpt>
<trkpt lat="56.086506" lon="26.543440">
<ele>96.768616</ele>
<time>2010-06-20T11:33:15Z</time>
<desc>lat.=56.086506, lon.=26.543440, Alt.=96.768616m. Speed=12.528000m/h.</desc>
<speed>3.480000</speed>
</trkpt>
<trkpt lat="56.086536" lon="26.543455">
<ele>96.698303</ele>
<time>2010-06-20T11:33:16Z</time>
<desc>lat.=56.086536, lon.=26.543455, Alt.=96.698303m. Speed=12.600000m/h.</desc>
<speed>3.500000</speed>
</trkpt>
<trkpt lat="56.086567" lon="26.543461">
<ele>96.649475</ele>
<time>2010-06-20T11:33:17Z</time>
<desc>lat.=56.086567, lon.=26.543461, Alt.=96.649475m. Speed=13.284000m/h.</desc>
<speed>3.690000</speed>
</trkpt>
<trkpt lat="56.086601" lon="26.543476">
<ele>96.784241</ele>
<time>2010-06-20T11:33:18Z</time>
<desc>lat.=56.086601, lon.=26.543476, Alt.=96.784241m. Speed=14.004000m/h.</desc>
<speed>3.890000</speed>
</trkpt>
<trkpt lat="56.086636" lon="26.543488">
<ele>96.887756</ele>
<time>2010-06-20T11:33:19Z</time>
<desc>lat.=56.086636, lon.=26.543488, Alt.=96.887756m. Speed=14.220000m/h.</desc>
<speed>3.950000</speed>
</trkpt>
<trkpt lat="56.086670" lon="26.543495">
<ele>96.876038</ele>
<time>2010-06-20T11:33:20Z</time>
<desc>lat.=56.086670, lon.=26.543495, Alt.=96.876038m. Speed=12.852000m/h.</desc>
<speed>3.570000</speed>
</trkpt>
<trkpt lat="56.086704" lon="26.543501">
<ele>96.813538</ele>
<time>2010-06-20T11:33:21Z</time>
<desc>lat.=56.086704, lon.=26.543501, Alt.=96.813538m. Speed=12.816000m/h.</desc>
<speed>3.560000</speed>
</trkpt>
<trkpt lat="56.086735" lon="26.543503">
<ele>96.885803</ele>
<time>2010-06-20T11:33:22Z</time>
<desc>lat.=56.086735, lon.=26.543503, Alt.=96.885803m. Speed=13.536000m/h.</desc>
<speed>3.760000</speed>
</trkpt>
<trkpt lat="56.086769" lon="26.543509">
<ele>96.883850</ele>
<time>2010-06-20T11:33:23Z</time>
<desc>lat.=56.086769, lon.=26.543509, Alt.=96.883850m. Speed=13.644000m/h.</desc>
<speed>3.790000</speed>
</trkpt>
<trkpt lat="56.086803" lon="26.543512">
<ele>96.963928</ele>
<time>2010-06-20T11:33:24Z</time>
<desc>lat.=56.086803, lon.=26.543512, Alt.=96.963928m. Speed=12.528000m/h.</desc>
<speed>3.480000</speed>
</trkpt>
<trkpt lat="56.086834" lon="26.543510">
<ele>96.997131</ele>
<time>2010-06-20T11:33:25Z</time>
<desc>lat.=56.086834, lon.=26.543510, Alt.=96.997131m. Speed=11.124000m/h.</desc>
<speed>3.090000</speed>
</trkpt>
<trkpt lat="56.086864" lon="26.543503">
<ele>96.811584</ele>
<time>2010-06-20T11:33:26Z</time>
<desc>lat.=56.086864, lon.=26.543503, Alt.=96.811584m. Speed=10.620000m/h.</desc>
<speed>2.950000</speed>
</trkpt>
<trkpt lat="56.086891" lon="26.543505">
<ele>96.803772</ele>
<time>2010-06-20T11:33:27Z</time>
<desc>lat.=56.086891, lon.=26.543505, Alt.=96.803772m. Speed=11.592000m/h.</desc>
<speed>3.220000</speed>
</trkpt>
<trkpt lat="56.086922" lon="26.543510">
<ele>96.747131</ele>
<time>2010-06-20T11:33:28Z</time>
<desc>lat.=56.086922, lon.=26.543510, Alt.=96.747131m. Speed=12.204000m/h.</desc>
<speed>3.390000</speed>
</trkpt>
<trkpt lat="56.086952" lon="26.543514">
<ele>96.799866</ele>
<time>2010-06-20T11:33:29Z</time>
<desc>lat.=56.086952, lon.=26.543514, Alt.=96.799866m. Speed=12.312000m/h.</desc>
<speed>3.420000</speed>
</trkpt>
<trkpt lat="56.086987" lon="26.543520">
<ele>96.674866</ele>
<time>2010-06-20T11:33:30Z</time>
<desc>lat.=56.086987, lon.=26.543520, Alt.=96.674866m. Speed=12.456000m/h.</desc>
<speed>3.460000</speed>
</trkpt>
<trkpt lat="56.087017" lon="26.543526">
<ele>96.651428</ele>
<time>2010-06-20T11:33:31Z</time>
<desc>lat.=56.087017, lon.=26.543526, Alt.=96.651428m. Speed=11.196000m/h.</desc>
<speed>3.110000</speed>
</trkpt>
<trkpt lat="56.087044" lon="26.543533">
<ele>96.729553</ele>
<time>2010-06-20T11:33:32Z</time>
<desc>lat.=56.087044, lon.=26.543533, Alt.=96.729553m. Speed=11.628000m/h.</desc>
<speed>3.230000</speed>
</trkpt>
<trkpt lat="56.087074" lon="26.543545">
<ele>96.731506</ele>
<time>2010-06-20T11:33:33Z</time>
<desc>lat.=56.087074, lon.=26.543545, Alt.=96.731506m. Speed=12.204000m/h.</desc>
<speed>3.390000</speed>
</trkpt>
<trkpt lat="56.087105" lon="26.543550">
<ele>96.686584</ele>
<time>2010-06-20T11:33:34Z</time>
<desc>lat.=56.087105, lon.=26.543550, Alt.=96.686584m. Speed=12.024000m/h.</desc>
<speed>3.340000</speed>
</trkpt>
<trkpt lat="56.087132" lon="26.543552">
<ele>96.362366</ele>
<time>2010-06-20T11:33:35Z</time>
<desc>lat.=56.087132, lon.=26.543552, Alt.=96.362366m. Speed=10.800000m/h.</desc>
<speed>3.000000</speed>
</trkpt>
<trkpt lat="56.087158" lon="26.543554">
<ele>96.229553</ele>
<time>2010-06-20T11:33:36Z</time>
<desc>lat.=56.087158, lon.=26.543554, Alt.=96.229553m. Speed=9.504000m/h.</desc>
<speed>2.640000</speed>
</trkpt>
<trkpt lat="56.087181" lon="26.543562">
<ele>96.122131</ele>
<time>2010-06-20T11:33:37Z</time>
<desc>lat.=56.087181, lon.=26.543562, Alt.=96.122131m. Speed=9.684000m/h.</desc>
<speed>2.690000</speed>
</trkpt>
<trkpt lat="56.087208" lon="26.543568">
<ele>96.049866</ele>
<time>2010-06-20T11:33:38Z</time>
<desc>lat.=56.087208, lon.=26.543568, Alt.=96.049866m. Speed=9.936000m/h.</desc>
<speed>2.760000</speed>
</trkpt>
<trkpt lat="56.087234" lon="26.543571">
<ele>96.034241</ele>
<time>2010-06-20T11:33:39Z</time>
<desc>lat.=56.087234, lon.=26.543571, Alt.=96.034241m. Speed=10.872000m/h.</desc>
<speed>3.020000</speed>
</trkpt>
<trkpt lat="56.087265" lon="26.543573">
<ele>96.124084</ele>
<time>2010-06-20T11:33:40Z</time>
<desc>lat.=56.087265, lon.=26.543573, Alt.=96.124084m. Speed=10.872000m/h.</desc>
<speed>3.020000</speed>
</trkpt>
<trkpt lat="56.087296" lon="26.543575">
<ele>96.151428</ele>
<time>2010-06-20T11:33:41Z</time>
<desc>lat.=56.087296, lon.=26.543575, Alt.=96.151428m. Speed=11.520000m/h.</desc>
<speed>3.200000</speed>
</trkpt>
<trkpt lat="56.087322" lon="26.543575">
<ele>96.067444</ele>
<time>2010-06-20T11:33:42Z</time>
<desc>lat.=56.087322, lon.=26.543575, Alt.=96.067444m. Speed=11.916000m/h.</desc>
<speed>3.310000</speed>
</trkpt>
<trkpt lat="56.087353" lon="26.543583">
<ele>96.411194</ele>
<time>2010-06-20T11:33:43Z</time>
<desc>lat.=56.087353, lon.=26.543583, Alt.=96.411194m. Speed=12.996000m/h.</desc>
<speed>3.610000</speed>
</trkpt>
<trkpt lat="56.087383" lon="26.543585">
<ele>96.711975</ele>
<time>2010-06-20T11:33:44Z</time>
<desc>lat.=56.087383, lon.=26.543585, Alt.=96.711975m. Speed=12.888000m/h.</desc>
<speed>3.580000</speed>
</trkpt>
<trkpt lat="56.087414" lon="26.543581">
<ele>96.745178</ele>
<time>2010-06-20T11:33:45Z</time>
<desc>lat.=56.087414, lon.=26.543581, Alt.=96.745178m. Speed=12.564000m/h.</desc>
<speed>3.490000</speed>
</trkpt>
<trkpt lat="56.087444" lon="26.543585">
<ele>96.862366</ele>
<time>2010-06-20T11:33:46Z</time>
<desc>lat.=56.087444, lon.=26.543585, Alt.=96.862366m. Speed=12.636000m/h.</desc>
<speed>3.510000</speed>
</trkpt>
<trkpt lat="56.087475" lon="26.543583">
<ele>96.895569</ele>
<time>2010-06-20T11:33:47Z</time>
<desc>lat.=56.087475, lon.=26.543583, Alt.=96.895569m. Speed=12.888000m/h.</desc>
<speed>3.580000</speed>
</trkpt>
<trkpt lat="56.087505" lon="26.543581">
<ele>96.872131</ele>
<time>2010-06-20T11:33:48Z</time>
<desc>lat.=56.087505, lon.=26.543581, Alt.=96.872131m. Speed=12.672000m/h.</desc>
<speed>3.520000</speed>
</trkpt>
<trkpt lat="56.087540" lon="26.543573">
<ele>96.866272</ele>
<time>2010-06-20T11:33:49Z</time>
<desc>lat.=56.087540, lon.=26.543573, Alt.=96.866272m. Speed=12.960000m/h.</desc>
<speed>3.600000</speed>
</trkpt>
<trkpt lat="56.087574" lon="26.543564">
<ele>96.967834</ele>
<time>2010-06-20T11:33:50Z</time>
<desc>lat.=56.087574, lon.=26.543564, Alt.=96.967834m. Speed=13.860000m/h.</desc>
<speed>3.850000</speed>
</trkpt>
<trkpt lat="56.087608" lon="26.543566">
<ele>97.422913</ele>
<time>2010-06-20T11:33:51Z</time>
<desc>lat.=56.087608, lon.=26.543566, Alt.=97.422913m. Speed=13.284000m/h.</desc>
<speed>3.690000</speed>
</trkpt>
<trkpt lat="56.087643" lon="26.543564">
<ele>97.491272</ele>
<time>2010-06-20T11:33:52Z</time>
<desc>lat.=56.087643, lon.=26.543564, Alt.=97.491272m. Speed=13.176000m/h.</desc>
<speed>3.660000</speed>
</trkpt>
<trkpt lat="56.087677" lon="26.543558">
<ele>97.544006</ele>
<time>2010-06-20T11:33:53Z</time>
<desc>lat.=56.087677, lon.=26.543558, Alt.=97.544006m. Speed=13.320000m/h.</desc>
<speed>3.700000</speed>
</trkpt>
<trkpt lat="56.087708" lon="26.543560">
<ele>97.561584</ele>
<time>2010-06-20T11:33:54Z</time>
<desc>lat.=56.087708, lon.=26.543560, Alt.=97.561584m. Speed=13.608000m/h.</desc>
<speed>3.780000</speed>
</trkpt>
<trkpt lat="56.087746" lon="26.543560">
<ele>97.483459</ele>
<time>2010-06-20T11:33:55Z</time>
<desc>lat.=56.087746, lon.=26.543560, Alt.=97.483459m. Speed=13.320000m/h.</desc>
<speed>3.700000</speed>
</trkpt>
<trkpt lat="56.087776" lon="26.543562">
<ele>97.686584</ele>
<time>2010-06-20T11:33:56Z</time>
<desc>lat.=56.087776, lon.=26.543562, Alt.=97.686584m. Speed=13.104000m/h.</desc>
<speed>3.640000</speed>
</trkpt>
<trkpt lat="56.087807" lon="26.543554">
<ele>97.588928</ele>
<time>2010-06-20T11:33:57Z</time>
<desc>lat.=56.087807, lon.=26.543554, Alt.=97.588928m. Speed=11.772000m/h.</desc>
<speed>3.270000</speed>
</trkpt>
<trkpt lat="56.087833" lon="26.543545">
<ele>97.516663</ele>
<time>2010-06-20T11:33:58Z</time>
<desc>lat.=56.087833, lon.=26.543545, Alt.=97.516663m. Speed=11.340000m/h.</desc>
<speed>3.150000</speed>
</trkpt>
<trkpt lat="56.087860" lon="26.543543">
<ele>97.624084</ele>
<time>2010-06-20T11:33:59Z</time>
<desc>lat.=56.087860, lon.=26.543543, Alt.=97.624084m. Speed=10.764000m/h.</desc>
<speed>2.990000</speed>
</trkpt>
<trkpt lat="56.087883" lon="26.543543">
<ele>97.684631</ele>
<time>2010-06-20T11:34:00Z</time>
<desc>lat.=56.087883, lon.=26.543543, Alt.=97.684631m. Speed=9.540000m/h.</desc>
<speed>2.650000</speed>
</trkpt>
<trkpt lat="56.087906" lon="26.543547">
<ele>97.999084</ele>
<time>2010-06-20T11:34:01Z</time>
<desc>lat.=56.087906, lon.=26.543547, Alt.=97.999084m. Speed=8.604000m/h.</desc>
<speed>2.390000</speed>
</trkpt>
<trkpt lat="56.087925" lon="26.543541">
<ele>98.186584</ele>
<time>2010-06-20T11:34:02Z</time>
<desc>lat.=56.087925, lon.=26.543541, Alt.=98.186584m. Speed=7.776000m/h.</desc>
<speed>2.160000</speed>
</trkpt>
<trkpt lat="56.087944" lon="26.543535">
<ele>98.290100</ele>
<time>2010-06-20T11:34:03Z</time>
<desc>lat.=56.087944, lon.=26.543535, Alt.=98.290100m. Speed=8.784000m/h.</desc>
<speed>2.440000</speed>
</trkpt>
<trkpt lat="56.087971" lon="26.543539">
<ele>98.368225</ele>
<time>2010-06-20T11:34:04Z</time>
<desc>lat.=56.087971, lon.=26.543539, Alt.=98.368225m. Speed=9.504000m/h.</desc>
<speed>2.640000</speed>
</trkpt>
<trkpt lat="56.087994" lon="26.543545">
<ele>98.264709</ele>
<time>2010-06-20T11:34:05Z</time>
<desc>lat.=56.087994, lon.=26.543545, Alt.=98.264709m. Speed=9.936000m/h.</desc>
<speed>2.760000</speed>
</trkpt>
<trkpt lat="56.088017" lon="26.543552">
<ele>98.106506</ele>
<time>2010-06-20T11:34:06Z</time>
<desc>lat.=56.088017, lon.=26.543552, Alt.=98.106506m. Speed=10.404000m/h.</desc>
<speed>2.890000</speed>
</trkpt>
<trkpt lat="56.088043" lon="26.543558">
<ele>97.973694</ele>
<time>2010-06-20T11:34:07Z</time>
<desc>lat.=56.088043, lon.=26.543558, Alt.=97.973694m. Speed=10.836000m/h.</desc>
<speed>3.010000</speed>
</trkpt>
<trkpt lat="56.088070" lon="26.543568">
<ele>97.794006</ele>
<time>2010-06-20T11:34:08Z</time>
<desc>lat.=56.088070, lon.=26.543568, Alt.=97.794006m. Speed=11.232000m/h.</desc>
<speed>3.120000</speed>
</trkpt>
<trkpt lat="56.088097" lon="26.543583">
<ele>97.790100</ele>
<time>2010-06-20T11:34:09Z</time>
<desc>lat.=56.088097, lon.=26.543583, Alt.=97.790100m. Speed=11.340000m/h.</desc>
<speed>3.150000</speed>
</trkpt>
<trkpt lat="56.088123" lon="26.543596">
<ele>97.835022</ele>
<time>2010-06-20T11:34:10Z</time>
<desc>lat.=56.088123, lon.=26.543596, Alt.=97.835022m. Speed=10.620000m/h.</desc>
<speed>2.950000</speed>
</trkpt>
<trkpt lat="56.088146" lon="26.543594">
<ele>97.545959</ele>
<time>2010-06-20T11:34:11Z</time>
<desc>lat.=56.088146, lon.=26.543594, Alt.=97.545959m. Speed=9.720000m/h.</desc>
<speed>2.700000</speed>
</trkpt>
<trkpt lat="56.088169" lon="26.543594">
<ele>97.635803</ele>
<time>2010-06-20T11:34:12Z</time>
<desc>lat.=56.088169, lon.=26.543594, Alt.=97.635803m. Speed=9.936000m/h.</desc>
<speed>2.760000</speed>
</trkpt>
<trkpt lat="56.088196" lon="26.543598">
<ele>97.348694</ele>
<time>2010-06-20T11:34:13Z</time>
<desc>lat.=56.088196, lon.=26.543598, Alt.=97.348694m. Speed=10.476000m/h.</desc>
<speed>2.910000</speed>
</trkpt>
<trkpt lat="56.088223" lon="26.543598">
<ele>97.352600</ele>
<time>2010-06-20T11:34:14Z</time>
<desc>lat.=56.088223, lon.=26.543598, Alt.=97.352600m. Speed=9.684000m/h.</desc>
<speed>2.690000</speed>
</trkpt>
<trkpt lat="56.088249" lon="26.543598">
<ele>97.290100</ele>
<time>2010-06-20T11:34:15Z</time>
<desc>lat.=56.088249, lon.=26.543598, Alt.=97.290100m. Speed=11.988000m/h.</desc>
<speed>3.330000</speed>
</trkpt>
<trkpt lat="56.088280" lon="26.543600">
<ele>97.409241</ele>
<time>2010-06-20T11:34:16Z</time>
<desc>lat.=56.088280, lon.=26.543600, Alt.=97.409241m. Speed=12.600000m/h.</desc>
<speed>3.500000</speed>
</trkpt>
<trkpt lat="56.088310" lon="26.543598">
<ele>97.477600</ele>
<time>2010-06-20T11:34:17Z</time>
<desc>lat.=56.088310, lon.=26.543598, Alt.=97.477600m. Speed=12.312000m/h.</desc>
<speed>3.420000</speed>
</trkpt>
<trkpt lat="56.088345" lon="26.543596">
<ele>97.631897</ele>
<time>2010-06-20T11:34:18Z</time>
<desc>lat.=56.088345, lon.=26.543596, Alt.=97.631897m. Speed=13.212000m/h.</desc>
<speed>3.670000</speed>
</trkpt>
<trkpt lat="56.088379" lon="26.543600">
<ele>97.680725</ele>
<time>2010-06-20T11:34:19Z</time>
<desc>lat.=56.088379, lon.=26.543600, Alt.=97.680725m. Speed=13.500000m/h.</desc>
<speed>3.750000</speed>
</trkpt>
<trkpt lat="56.088417" lon="26.543604">
<ele>97.856506</ele>
<time>2010-06-20T11:34:20Z</time>
<desc>lat.=56.088417, lon.=26.543604, Alt.=97.856506m. Speed=14.400000m/h.</desc>
<speed>4.000000</speed>
</trkpt>
<trkpt lat="56.088451" lon="26.543610">
<ele>97.799866</ele>
<time>2010-06-20T11:34:21Z</time>
<desc>lat.=56.088451, lon.=26.543610, Alt.=97.799866m. Speed=13.176000m/h.</desc>
<speed>3.660000</speed>
</trkpt>
<trkpt lat="56.088486" lon="26.543612">
<ele>97.737366</ele>
<time>2010-06-20T11:34:22Z</time>
<desc>lat.=56.088486, lon.=26.543612, Alt.=97.737366m. Speed=14.076000m/h.</desc>
<speed>3.910000</speed>
</trkpt>
<trkpt lat="56.088524" lon="26.543613">
<ele>97.829163</ele>
<time>2010-06-20T11:34:23Z</time>
<desc>lat.=56.088524, lon.=26.543613, Alt.=97.829163m. Speed=12.960000m/h.</desc>
<speed>3.600000</speed>
</trkpt>
<trkpt lat="56.088554" lon="26.543613">
<ele>97.815491</ele>
<time>2010-06-20T11:34:24Z</time>
<desc>lat.=56.088554, lon.=26.543613, Alt.=97.815491m. Speed=11.844000m/h.</desc>
<speed>3.290000</speed>
</trkpt>
<trkpt lat="56.088585" lon="26.543610">
<ele>97.311584</ele>
<time>2010-06-20T11:34:25Z</time>
<desc>lat.=56.088585, lon.=26.543610, Alt.=97.311584m. Speed=11.952000m/h.</desc>
<speed>3.320000</speed>
</trkpt>
<trkpt lat="56.088615" lon="26.543608">
<ele>97.131897</ele>
<time>2010-06-20T11:34:26Z</time>
<desc>lat.=56.088615, lon.=26.543608, Alt.=97.131897m. Speed=12.492000m/h.</desc>
<speed>3.470000</speed>
</trkpt>
<trkpt lat="56.088650" lon="26.543615">
<ele>97.001038</ele>
<time>2010-06-20T11:34:27Z</time>
<desc>lat.=56.088650, lon.=26.543615, Alt.=97.001038m. Speed=11.772000m/h.</desc>
<speed>3.270000</speed>
</trkpt>
<trkpt lat="56.088676" lon="26.543612">
<ele>96.817444</ele>
<time>2010-06-20T11:34:28Z</time>
<desc>lat.=56.088676, lon.=26.543612, Alt.=96.817444m. Speed=11.952000m/h.</desc>
<speed>3.320000</speed>
</trkpt>
<trkpt lat="56.088711" lon="26.543612">
<ele>96.758850</ele>
<time>2010-06-20T11:34:29Z</time>
<desc>lat.=56.088711, lon.=26.543612, Alt.=96.758850m. Speed=12.312000m/h.</desc>
<speed>3.420000</speed>
</trkpt>
<trkpt lat="56.088741" lon="26.543608">
<ele>96.626038</ele>
<time>2010-06-20T11:34:30Z</time>
<desc>lat.=56.088741, lon.=26.543608, Alt.=96.626038m. Speed=12.636000m/h.</desc>
<speed>3.510000</speed>
</trkpt>
<trkpt lat="56.088776" lon="26.543612">
<ele>96.565491</ele>
<time>2010-06-20T11:34:31Z</time>
<desc>lat.=56.088776, lon.=26.543612, Alt.=96.565491m. Speed=12.924000m/h.</desc>
<speed>3.590000</speed>
</trkpt>
<trkpt lat="56.088806" lon="26.543613">
<ele>96.454163</ele>
<time>2010-06-20T11:34:32Z</time>
<desc>lat.=56.088806, lon.=26.543613, Alt.=96.454163m. Speed=13.284000m/h.</desc>
<speed>3.690000</speed>
</trkpt>
<trkpt lat="56.088840" lon="26.543615">
<ele>96.610413</ele>
<time>2010-06-20T11:34:33Z</time>
<desc>lat.=56.088840, lon.=26.543615, Alt.=96.610413m. Speed=13.284000m/h.</desc>
<speed>3.690000</speed>
</trkpt>
<trkpt lat="56.088875" lon="26.543615">
<ele>96.821350</ele>
<time>2010-06-20T11:34:34Z</time>
<desc>lat.=56.088875, lon.=26.543615, Alt.=96.821350m. Speed=13.176000m/h.</desc>
<speed>3.660000</speed>
</trkpt>
<trkpt lat="56.088905" lon="26.543608">
<ele>96.770569</ele>
<time>2010-06-20T11:34:35Z</time>
<desc>lat.=56.088905, lon.=26.543608, Alt.=96.770569m. Speed=13.536000m/h.</desc>
<speed>3.760000</speed>
</trkpt>
<trkpt lat="56.088940" lon="26.543596">
<ele>96.989319</ele>
<time>2010-06-20T11:34:36Z</time>
<desc>lat.=56.088940, lon.=26.543596, Alt.=96.989319m. Speed=14.292000m/h.</desc>
<speed>3.970000</speed>
</trkpt>
<trkpt lat="56.088974" lon="26.543592">
<ele>97.147522</ele>
<time>2010-06-20T11:34:37Z</time>
<desc>lat.=56.088974, lon.=26.543592, Alt.=97.147522m. Speed=13.176000m/h.</desc>
<speed>3.660000</speed>
</trkpt>
<trkpt lat="56.089008" lon="26.543592">
<ele>97.217834</ele>
<time>2010-06-20T11:34:38Z</time>
<desc>lat.=56.089008, lon.=26.543592, Alt.=97.217834m. Speed=13.896000m/h.</desc>
<speed>3.860000</speed>
</trkpt>
<trkpt lat="56.089043" lon="26.543602">
<ele>97.444397</ele>
<time>2010-06-20T11:34:39Z</time>
<desc>lat.=56.089043, lon.=26.543602, Alt.=97.444397m. Speed=14.112000m/h.</desc>
<speed>3.920000</speed>
</trkpt>
<trkpt lat="56.089077" lon="26.543608">
<ele>97.510803</ele>
<time>2010-06-20T11:34:40Z</time>
<desc>lat.=56.089077, lon.=26.543608, Alt.=97.510803m. Speed=14.652000m/h.</desc>
<speed>4.070000</speed>
</trkpt>
<trkpt lat="56.089115" lon="26.543610">
<ele>97.624084</ele>
<time>2010-06-20T11:34:41Z</time>
<desc>lat.=56.089115, lon.=26.543610, Alt.=97.624084m. Speed=15.480000m/h.</desc>
<speed>4.300000</speed>
</trkpt>
<trkpt lat="56.089153" lon="26.543608">
<ele>97.764709</ele>
<time>2010-06-20T11:34:42Z</time>
<desc>lat.=56.089153, lon.=26.543608, Alt.=97.764709m. Speed=15.660000m/h.</desc>
<speed>4.350000</speed>
</trkpt>
<trkpt lat="56.089195" lon="26.543606">
<ele>97.805725</ele>
<time>2010-06-20T11:34:43Z</time>
<desc>lat.=56.089195, lon.=26.543606, Alt.=97.805725m. Speed=15.912000m/h.</desc>
<speed>4.420000</speed>
</trkpt>
<trkpt lat="56.089233" lon="26.543604">
<ele>97.938538</ele>
<time>2010-06-20T11:34:44Z</time>
<desc>lat.=56.089233, lon.=26.543604, Alt.=97.938538m. Speed=16.056000m/h.</desc>
<speed>4.460000</speed>
</trkpt>
<trkpt lat="56.089275" lon="26.543606">
<ele>98.006897</ele>
<time>2010-06-20T11:34:45Z</time>
<desc>lat.=56.089275, lon.=26.543606, Alt.=98.006897m. Speed=16.308001m/h.</desc>
<speed>4.530000</speed>
</trkpt>
<trkpt lat="56.089314" lon="26.543610">
<ele>98.188538</ele>
<time>2010-06-20T11:34:46Z</time>
<desc>lat.=56.089314, lon.=26.543610, Alt.=98.188538m. Speed=16.128000m/h.</desc>
<speed>4.480000</speed>
</trkpt>
<trkpt lat="56.089352" lon="26.543610">
<ele>98.338928</ele>
<time>2010-06-20T11:34:47Z</time>
<desc>lat.=56.089352, lon.=26.543610, Alt.=98.338928m. Speed=16.056000m/h.</desc>
<speed>4.460000</speed>
</trkpt>
<trkpt lat="56.089394" lon="26.543612">
<ele>98.528381</ele>
<time>2010-06-20T11:34:48Z</time>
<desc>lat.=56.089394, lon.=26.543612, Alt.=98.528381m. Speed=15.660000m/h.</desc>
<speed>4.350000</speed>
</trkpt>
<trkpt lat="56.089432" lon="26.543608">
<ele>98.526428</ele>
<time>2010-06-20T11:34:49Z</time>
<desc>lat.=56.089432, lon.=26.543608, Alt.=98.526428m. Speed=13.572000m/h.</desc>
<speed>3.770000</speed>
</trkpt>
<trkpt lat="56.089462" lon="26.543604">
<ele>98.536194</ele>
<time>2010-06-20T11:34:50Z</time>
<desc>lat.=56.089462, lon.=26.543604, Alt.=98.536194m. Speed=13.824000m/h.</desc>
<speed>3.840000</speed>
</trkpt>
<trkpt lat="56.089497" lon="26.543600">
<ele>98.393616</ele>
<time>2010-06-20T11:34:51Z</time>
<desc>lat.=56.089497, lon.=26.543600, Alt.=98.393616m. Speed=14.040000m/h.</desc>
<speed>3.900000</speed>
</trkpt>
<trkpt lat="56.089527" lon="26.543596">
<ele>98.124084</ele>
<time>2010-06-20T11:34:52Z</time>
<desc>lat.=56.089527, lon.=26.543596, Alt.=98.124084m. Speed=14.724000m/h.</desc>
<speed>4.090000</speed>
</trkpt>
<trkpt lat="56.089561" lon="26.543598">
<ele>98.077209</ele>
<time>2010-06-20T11:34:53Z</time>
<desc>lat.=56.089561, lon.=26.543598, Alt.=98.077209m. Speed=13.752000m/h.</desc>
<speed>3.820000</speed>
</trkpt>
<trkpt lat="56.089600" lon="26.543598">
<ele>98.405334</ele>
<time>2010-06-20T11:34:54Z</time>
<desc>lat.=56.089600, lon.=26.543598, Alt.=98.405334m. Speed=16.020000m/h.</desc>
<speed>4.450000</speed>
</trkpt>
<trkpt lat="56.089642" lon="26.543596">
<ele>98.706116</ele>
<time>2010-06-20T11:34:55Z</time>
<desc>lat.=56.089642, lon.=26.543596, Alt.=98.706116m. Speed=16.236000m/h.</desc>
<speed>4.510000</speed>
</trkpt>
<trkpt lat="56.089680" lon="26.543598">
<ele>98.438538</ele>
<time>2010-06-20T11:34:56Z</time>
<desc>lat.=56.089680, lon.=26.543598, Alt.=98.438538m. Speed=15.768000m/h.</desc>
<speed>4.380000</speed>
</trkpt>
<trkpt lat="56.089714" lon="26.543594">
<ele>98.381897</ele>
<time>2010-06-20T11:34:57Z</time>
<desc>lat.=56.089714, lon.=26.543594, Alt.=98.381897m. Speed=13.464000m/h.</desc>
<speed>3.740000</speed>
</trkpt>
<trkpt lat="56.089745" lon="26.543591">
<ele>97.999084</ele>
<time>2010-06-20T11:34:58Z</time>
<desc>lat.=56.089745, lon.=26.543591, Alt.=97.999084m. Speed=14.220000m/h.</desc>
<speed>3.950000</speed>
</trkpt>
<trkpt lat="56.089783" lon="26.543585">
<ele>98.151428</ele>
<time>2010-06-20T11:34:59Z</time>
<desc>lat.=56.089783, lon.=26.543585, Alt.=98.151428m. Speed=14.976000m/h.</desc>
<speed>4.160000</speed>
</trkpt>
<trkpt lat="56.089821" lon="26.543589">
<ele>98.059631</ele>
<time>2010-06-20T11:35:00Z</time>
<desc>lat.=56.089821, lon.=26.543589, Alt.=98.059631m. Speed=15.624000m/h.</desc>
<speed>4.340000</speed>
</trkpt>
<trkpt lat="56.089859" lon="26.543592">
<ele>97.969788</ele>
<time>2010-06-20T11:35:01Z</time>
<desc>lat.=56.089859, lon.=26.543592, Alt.=97.969788m. Speed=14.976000m/h.</desc>
<speed>4.160000</speed>
</trkpt>
<trkpt lat="56.089893" lon="26.543591">
<ele>98.047913</ele>
<time>2010-06-20T11:35:02Z</time>
<desc>lat.=56.089893, lon.=26.543591, Alt.=98.047913m. Speed=14.436000m/h.</desc>
<speed>4.010000</speed>
</trkpt>
<trkpt lat="56.089931" lon="26.543592">
<ele>98.280334</ele>
<time>2010-06-20T11:35:03Z</time>
<desc>lat.=56.089931, lon.=26.543592, Alt.=98.280334m. Speed=14.832000m/h.</desc>
<speed>4.120000</speed>
</trkpt>
<trkpt lat="56.089970" lon="26.543591">
<ele>98.641663</ele>
<time>2010-06-20T11:35:04Z</time>
<desc>lat.=56.089970, lon.=26.543591, Alt.=98.641663m. Speed=15.012000m/h.</desc>
<speed>4.170000</speed>
</trkpt>
<trkpt lat="56.090004" lon="26.543591">
<ele>98.985413</ele>
<time>2010-06-20T11:35:05Z</time>
<desc>lat.=56.090004, lon.=26.543591, Alt.=98.985413m. Speed=14.400000m/h.</desc>
<speed>4.000000</speed>
</trkpt>
<trkpt lat="56.090046" lon="26.543591">
<ele>99.354553</ele>
<time>2010-06-20T11:35:06Z</time>
<desc>lat.=56.090046, lon.=26.543591, Alt.=99.354553m. Speed=14.364000m/h.</desc>
<speed>3.990000</speed>
</trkpt>
<trkpt lat="56.090084" lon="26.543591">
<ele>99.489319</ele>
<time>2010-06-20T11:35:07Z</time>
<desc>lat.=56.090084, lon.=26.543591, Alt.=99.489319m. Speed=15.732000m/h.</desc>
<speed>4.370000</speed>
</trkpt>
<trkpt lat="56.090122" lon="26.543592">
<ele>99.760803</ele>
<time>2010-06-20T11:35:08Z</time>
<desc>lat.=56.090122, lon.=26.543592, Alt.=99.760803m. Speed=15.768000m/h.</desc>
<speed>4.380000</speed>
</trkpt>
<trkpt lat="56.090160" lon="26.543592">
<ele>99.762756</ele>
<time>2010-06-20T11:35:09Z</time>
<desc>lat.=56.090160, lon.=26.543592, Alt.=99.762756m. Speed=15.912000m/h.</desc>
<speed>4.420000</speed>
</trkpt>
<trkpt lat="56.090202" lon="26.543592">
<ele>99.833069</ele>
<time>2010-06-20T11:35:10Z</time>
<desc>lat.=56.090202, lon.=26.543592, Alt.=99.833069m. Speed=16.128000m/h.</desc>
<speed>4.480000</speed>
</trkpt>
<trkpt lat="56.090244" lon="26.543591">
<ele>100.040100</ele>
<time>2010-06-20T11:35:11Z</time>
<desc>lat.=56.090244, lon.=26.543591, Alt.=100.040100m. Speed=15.984000m/h.</desc>
<speed>4.440000</speed>
</trkpt>
<trkpt lat="56.090286" lon="26.543585">
<ele>100.440491</ele>
<time>2010-06-20T11:35:12Z</time>
<desc>lat.=56.090286, lon.=26.543585, Alt.=100.440491m. Speed=14.508000m/h.</desc>
<speed>4.030000</speed>
</trkpt>
<trkpt lat="56.090324" lon="26.543581">
<ele>100.606506</ele>
<time>2010-06-20T11:35:13Z</time>
<desc>lat.=56.090324, lon.=26.543581, Alt.=100.606506m. Speed=14.760000m/h.</desc>
<speed>4.100000</speed>
</trkpt>
<trkpt lat="56.090366" lon="26.543585">
<ele>100.637756</ele>
<time>2010-06-20T11:35:14Z</time>
<desc>lat.=56.090366, lon.=26.543585, Alt.=100.637756m. Speed=15.120000m/h.</desc>
<speed>4.200000</speed>
</trkpt>
<trkpt lat="56.090405" lon="26.543589">
<ele>100.721741</ele>
<time>2010-06-20T11:35:15Z</time>
<desc>lat.=56.090405, lon.=26.543589, Alt.=100.721741m. Speed=14.616000m/h.</desc>
<speed>4.060000</speed>
</trkpt>
<trkpt lat="56.090443" lon="26.543589">
<ele>100.780334</ele>
<time>2010-06-20T11:35:16Z</time>
<desc>lat.=56.090443, lon.=26.543589, Alt.=100.780334m. Speed=16.704000m/h.</desc>
<speed>4.640000</speed>
</trkpt>
<trkpt lat="56.090488" lon="26.543583">
<ele>101.110413</ele>
<time>2010-06-20T11:35:17Z</time>
<desc>lat.=56.090488, lon.=26.543583, Alt.=101.110413m. Speed=17.568001m/h.</desc>
<speed>4.880000</speed>
</trkpt>
<trkpt lat="56.090534" lon="26.543589">
<ele>101.124084</ele>
<time>2010-06-20T11:35:18Z</time>
<desc>lat.=56.090534, lon.=26.543589, Alt.=101.124084m. Speed=17.388000m/h.</desc>
<speed>4.830000</speed>
</trkpt>
<trkpt lat="56.090576" lon="26.543585">
<ele>101.538147</ele>
<time>2010-06-20T11:35:19Z</time>
<desc>lat.=56.090576, lon.=26.543585, Alt.=101.538147m. Speed=16.164000m/h.</desc>
<speed>4.490000</speed>
</trkpt>
<trkpt lat="56.090614" lon="26.543585">
<ele>101.442444</ele>
<time>2010-06-20T11:35:20Z</time>
<desc>lat.=56.090614, lon.=26.543585, Alt.=101.442444m. Speed=15.732000m/h.</desc>
<speed>4.370000</speed>
</trkpt>
<trkpt lat="56.090656" lon="26.543583">
<ele>101.487366</ele>
<time>2010-06-20T11:35:21Z</time>
<desc>lat.=56.090656, lon.=26.543583, Alt.=101.487366m. Speed=17.063999m/h.</desc>
<speed>4.740000</speed>
</trkpt>
<trkpt lat="56.090702" lon="26.543583">
<ele>101.579163</ele>
<time>2010-06-20T11:35:22Z</time>
<desc>lat.=56.090702, lon.=26.543583, Alt.=101.579163m. Speed=17.316000m/h.</desc>
<speed>4.810000</speed>
</trkpt>
<trkpt lat="56.090744" lon="26.543585">
<ele>101.563538</ele>
<time>2010-06-20T11:35:23Z</time>
<desc>lat.=56.090744, lon.=26.543585, Alt.=101.563538m. Speed=18.035999m/h.</desc>
<speed>5.010000</speed>
</trkpt>
<trkpt lat="56.090790" lon="26.543591">
<ele>101.643616</ele>
<time>2010-06-20T11:35:24Z</time>
<desc>lat.=56.090790, lon.=26.543591, Alt.=101.643616m. Speed=17.747999m/h.</desc>
<speed>4.930000</speed>
</trkpt>
<trkpt lat="56.090836" lon="26.543594">
<ele>101.676819</ele>
<time>2010-06-20T11:35:25Z</time>
<desc>lat.=56.090836, lon.=26.543594, Alt.=101.676819m. Speed=20.375999m/h.</desc>
<speed>5.660000</speed>
</trkpt>
<trkpt lat="56.090885" lon="26.543598">
<ele>101.612366</ele>
<time>2010-06-20T11:35:26Z</time>
<desc>lat.=56.090885, lon.=26.543598, Alt.=101.612366m. Speed=17.351999m/h.</desc>
<speed>4.820000</speed>
</trkpt>
<trkpt lat="56.090927" lon="26.543600">
<ele>101.717834</ele>
<time>2010-06-20T11:35:27Z</time>
<desc>lat.=56.090927, lon.=26.543600, Alt.=101.717834m. Speed=17.316000m/h.</desc>
<speed>4.810000</speed>
</trkpt>
<trkpt lat="56.090969" lon="26.543598">
<ele>101.891663</ele>
<time>2010-06-20T11:35:28Z</time>
<desc>lat.=56.090969, lon.=26.543598, Alt.=101.891663m. Speed=16.236000m/h.</desc>
<speed>4.510000</speed>
</trkpt>
<trkpt lat="56.091011" lon="26.543596">
<ele>101.745178</ele>
<time>2010-06-20T11:35:29Z</time>
<desc>lat.=56.091011, lon.=26.543596, Alt.=101.745178m. Speed=15.336000m/h.</desc>
<speed>4.260000</speed>
</trkpt>
<trkpt lat="56.091049" lon="26.543594">
<ele>101.542053</ele>
<time>2010-06-20T11:35:30Z</time>
<desc>lat.=56.091049, lon.=26.543594, Alt.=101.542053m. Speed=15.660000m/h.</desc>
<speed>4.350000</speed>
</trkpt>
<trkpt lat="56.091087" lon="26.543598">
<ele>101.520569</ele>
<time>2010-06-20T11:35:31Z</time>
<desc>lat.=56.091087, lon.=26.543598, Alt.=101.520569m. Speed=15.444000m/h.</desc>
<speed>4.290000</speed>
</trkpt>
<trkpt lat="56.091129" lon="26.543602">
<ele>101.475647</ele>
<time>2010-06-20T11:35:32Z</time>
<desc>lat.=56.091129, lon.=26.543602, Alt.=101.475647m. Speed=15.840000m/h.</desc>
<speed>4.400000</speed>
</trkpt>
<trkpt lat="56.091167" lon="26.543602">
<ele>101.702209</ele>
<time>2010-06-20T11:35:33Z</time>
<desc>lat.=56.091167, lon.=26.543602, Alt.=101.702209m. Speed=14.976000m/h.</desc>
<speed>4.160000</speed>
</trkpt>
<trkpt lat="56.091209" lon="26.543598">
<ele>102.233459</ele>
<time>2010-06-20T11:35:34Z</time>
<desc>lat.=56.091209, lon.=26.543598, Alt.=102.233459m. Speed=15.768000m/h.</desc>
<speed>4.380000</speed>
</trkpt>
<trkpt lat="56.091251" lon="26.543598">
<ele>102.387756</ele>
<time>2010-06-20T11:35:35Z</time>
<desc>lat.=56.091251, lon.=26.543598, Alt.=102.387756m. Speed=17.532000m/h.</desc>
<speed>4.870000</speed>
</trkpt>
<trkpt lat="56.091293" lon="26.543600">
<ele>102.573303</ele>
<time>2010-06-20T11:35:36Z</time>
<desc>lat.=56.091293, lon.=26.543600, Alt.=102.573303m. Speed=17.892000m/h.</desc>
<speed>4.970000</speed>
</trkpt>
<trkpt lat="56.091339" lon="26.543602">
<ele>102.835022</ele>
<time>2010-06-20T11:35:37Z</time>
<desc>lat.=56.091339, lon.=26.543602, Alt.=102.835022m. Speed=17.459999m/h.</desc>
<speed>4.850000</speed>
</trkpt>
<trkpt lat="56.091377" lon="26.543600">
<ele>102.856506</ele>
<time>2010-06-20T11:35:38Z</time>
<desc>lat.=56.091377, lon.=26.543600, Alt.=102.856506m. Speed=16.524000m/h.</desc>
<speed>4.590000</speed>
</trkpt>
<trkpt lat="56.091419" lon="26.543594">
<ele>102.993225</ele>
<time>2010-06-20T11:35:39Z</time>
<desc>lat.=56.091419, lon.=26.543594, Alt.=102.993225m. Speed=16.632000m/h.</desc>
<speed>4.620000</speed>
</trkpt>
<trkpt lat="56.091465" lon="26.543592">
<ele>103.044006</ele>
<time>2010-06-20T11:35:40Z</time>
<desc>lat.=56.091465, lon.=26.543592, Alt.=103.044006m. Speed=18.108000m/h.</desc>
<speed>5.030000</speed>
</trkpt>
<trkpt lat="56.091511" lon="26.543587">
<ele>103.081116</ele>
<time>2010-06-20T11:35:41Z</time>
<desc>lat.=56.091511, lon.=26.543587, Alt.=103.081116m. Speed=18.684000m/h.</desc>
<speed>5.190000</speed>
</trkpt>
<trkpt lat="56.091557" lon="26.543592">
<ele>102.846741</ele>
<time>2010-06-20T11:35:42Z</time>
<desc>lat.=56.091557, lon.=26.543592, Alt.=102.846741m. Speed=19.044001m/h.</desc>
<speed>5.290000</speed>
</trkpt>
<trkpt lat="56.091614" lon="26.543596">
<ele>102.229553</ele>
<time>2010-06-20T11:35:43Z</time>
<desc>lat.=56.091614, lon.=26.543596, Alt.=102.229553m. Speed=22.716000m/h.</desc>
<speed>6.310000</speed>
</trkpt>
<trkpt lat="56.091663" lon="26.543589">
<ele>101.754944</ele>
<time>2010-06-20T11:35:44Z</time>
<desc>lat.=56.091663, lon.=26.543589, Alt.=101.754944m. Speed=19.296000m/h.</desc>
<speed>5.360000</speed>
</trkpt>
<trkpt lat="56.091709" lon="26.543579">
<ele>101.862366</ele>
<time>2010-06-20T11:35:45Z</time>
<desc>lat.=56.091709, lon.=26.543579, Alt.=101.862366m. Speed=16.667999m/h.</desc>
<speed>4.630000</speed>
</trkpt>
<trkpt lat="56.091751" lon="26.543575">
<ele>101.711975</ele>
<time>2010-06-20T11:35:46Z</time>
<desc>lat.=56.091751, lon.=26.543575, Alt.=101.711975m. Speed=16.596001m/h.</desc>
<speed>4.610000</speed>
</trkpt>
<trkpt lat="56.091793" lon="26.543573">
<ele>101.284241</ele>
<time>2010-06-20T11:35:47Z</time>
<desc>lat.=56.091793, lon.=26.543573, Alt.=101.284241m. Speed=16.056000m/h.</desc>
<speed>4.460000</speed>
</trkpt>
<trkpt lat="56.091831" lon="26.543579">
<ele>101.317444</ele>
<time>2010-06-20T11:35:48Z</time>
<desc>lat.=56.091831, lon.=26.543579, Alt.=101.317444m. Speed=14.760000m/h.</desc>
<speed>4.100000</speed>
</trkpt>
<trkpt lat="56.091866" lon="26.543579">
<ele>101.641663</ele>
<time>2010-06-20T11:35:49Z</time>
<desc>lat.=56.091866, lon.=26.543579, Alt.=101.641663m. Speed=15.264000m/h.</desc>
<speed>4.240000</speed>
</trkpt>
<trkpt lat="56.091900" lon="26.543575">
<ele>101.614319</ele>
<time>2010-06-20T11:35:50Z</time>
<desc>lat.=56.091900, lon.=26.543575, Alt.=101.614319m. Speed=14.976000m/h.</desc>
<speed>4.160000</speed>
</trkpt>
<trkpt lat="56.091938" lon="26.543570">
<ele>101.502991</ele>
<time>2010-06-20T11:35:51Z</time>
<desc>lat.=56.091938, lon.=26.543570, Alt.=101.502991m. Speed=14.076000m/h.</desc>
<speed>3.910000</speed>
</trkpt>
<trkpt lat="56.091976" lon="26.543568">
<ele>101.610413</ele>
<time>2010-06-20T11:35:52Z</time>
<desc>lat.=56.091976, lon.=26.543568, Alt.=101.610413m. Speed=14.688000m/h.</desc>
<speed>4.080000</speed>
</trkpt>
<trkpt lat="56.092014" lon="26.543564">
<ele>101.663147</ele>
<time>2010-06-20T11:35:53Z</time>
<desc>lat.=56.092014, lon.=26.543564, Alt.=101.663147m. Speed=14.652000m/h.</desc>
<speed>4.070000</speed>
</trkpt>
<trkpt lat="56.092049" lon="26.543564">
<ele>101.850647</ele>
<time>2010-06-20T11:35:54Z</time>
<desc>lat.=56.092049, lon.=26.543564, Alt.=101.850647m. Speed=14.220000m/h.</desc>
<speed>3.950000</speed>
</trkpt>
<trkpt lat="56.092087" lon="26.543564">
<ele>102.075256</ele>
<time>2010-06-20T11:35:55Z</time>
<desc>lat.=56.092087, lon.=26.543564, Alt.=102.075256m. Speed=14.472000m/h.</desc>
<speed>4.020000</speed>
</trkpt>
<trkpt lat="56.092121" lon="26.543564">
<ele>102.032288</ele>
<time>2010-06-20T11:35:56Z</time>
<desc>lat.=56.092121, lon.=26.543564, Alt.=102.032288m. Speed=13.572000m/h.</desc>
<speed>3.770000</speed>
</trkpt>
<trkpt lat="56.092155" lon="26.543566">
<ele>102.073303</ele>
<time>2010-06-20T11:35:57Z</time>
<desc>lat.=56.092155, lon.=26.543566, Alt.=102.073303m. Speed=14.004000m/h.</desc>
<speed>3.890000</speed>
</trkpt>
<trkpt lat="56.092190" lon="26.543568">
<ele>102.237366</ele>
<time>2010-06-20T11:35:58Z</time>
<desc>lat.=56.092190, lon.=26.543568, Alt.=102.237366m. Speed=13.572000m/h.</desc>
<speed>3.770000</speed>
</trkpt>
<trkpt lat="56.092224" lon="26.543568">
<ele>102.432678</ele>
<time>2010-06-20T11:35:59Z</time>
<desc>lat.=56.092224, lon.=26.543568, Alt.=102.432678m. Speed=13.788000m/h.</desc>
<speed>3.830000</speed>
</trkpt>
<trkpt lat="56.092255" lon="26.543568">
<ele>102.483459</ele>
<time>2010-06-20T11:36:00Z</time>
<desc>lat.=56.092255, lon.=26.543568, Alt.=102.483459m. Speed=13.932000m/h.</desc>
<speed>3.870000</speed>
</trkpt>
<trkpt lat="56.092289" lon="26.543570">
<ele>102.299866</ele>
<time>2010-06-20T11:36:01Z</time>
<desc>lat.=56.092289, lon.=26.543570, Alt.=102.299866m. Speed=14.544000m/h.</desc>
<speed>4.040000</speed>
</trkpt>
<trkpt lat="56.092316" lon="26.543573">
<ele>102.491272</ele>
<time>2010-06-20T11:36:02Z</time>
<desc>lat.=56.092316, lon.=26.543573, Alt.=102.491272m. Speed=13.896000m/h.</desc>
<speed>3.860000</speed>
</trkpt>
<trkpt lat="56.092350" lon="26.543571">
<ele>102.618225</ele>
<time>2010-06-20T11:36:03Z</time>
<desc>lat.=56.092350, lon.=26.543571, Alt.=102.618225m. Speed=13.680000m/h.</desc>
<speed>3.800000</speed>
</trkpt>
<trkpt lat="56.092381" lon="26.543566">
<ele>102.711975</ele>
<time>2010-06-20T11:36:04Z</time>
<desc>lat.=56.092381, lon.=26.543566, Alt.=102.711975m. Speed=13.320000m/h.</desc>
<speed>3.700000</speed>
</trkpt>
<trkpt lat="56.092411" lon="26.543560">
<ele>102.672913</ele>
<time>2010-06-20T11:36:05Z</time>
<desc>lat.=56.092411, lon.=26.543560, Alt.=102.672913m. Speed=13.320000m/h.</desc>
<speed>3.700000</speed>
</trkpt>
<trkpt lat="56.092445" lon="26.543556">
<ele>102.626038</ele>
<time>2010-06-20T11:36:06Z</time>
<desc>lat.=56.092445, lon.=26.543556, Alt.=102.626038m. Speed=13.680000m/h.</desc>
<speed>3.800000</speed>
</trkpt>
<trkpt lat="56.092480" lon="26.543552">
<ele>102.778381</ele>
<time>2010-06-20T11:36:07Z</time>
<desc>lat.=56.092480, lon.=26.543552, Alt.=102.778381m. Speed=14.184000m/h.</desc>
<speed>3.940000</speed>
</trkpt>
<trkpt lat="56.092522" lon="26.543549">
<ele>102.752991</ele>
<time>2010-06-20T11:36:08Z</time>
<desc>lat.=56.092522, lon.=26.543549, Alt.=102.752991m. Speed=14.616000m/h.</desc>
<speed>4.060000</speed>
</trkpt>
<trkpt lat="56.092560" lon="26.543541">
<ele>102.999084</ele>
<time>2010-06-20T11:36:09Z</time>
<desc>lat.=56.092560, lon.=26.543541, Alt.=102.999084m. Speed=16.020000m/h.</desc>
<speed>4.450000</speed>
</trkpt>
<trkpt lat="56.092602" lon="26.543528">
<ele>103.061584</ele>
<time>2010-06-20T11:36:10Z</time>
<desc>lat.=56.092602, lon.=26.543528, Alt.=103.061584m. Speed=17.136000m/h.</desc>
<speed>4.760000</speed>
</trkpt>
<trkpt lat="56.092644" lon="26.543530">
<ele>103.063538</ele>
<time>2010-06-20T11:36:11Z</time>
<desc>lat.=56.092644, lon.=26.543530, Alt.=103.063538m. Speed=17.136000m/h.</desc>
<speed>4.760000</speed>
</trkpt>
<trkpt lat="56.092690" lon="26.543530">
<ele>102.850647</ele>
<time>2010-06-20T11:36:12Z</time>
<desc>lat.=56.092690, lon.=26.543530, Alt.=102.850647m. Speed=17.316000m/h.</desc>
<speed>4.810000</speed>
</trkpt>
<trkpt lat="56.092739" lon="26.543530">
<ele>102.534241</ele>
<time>2010-06-20T11:36:13Z</time>
<desc>lat.=56.092739, lon.=26.543530, Alt.=102.534241m. Speed=17.100000m/h.</desc>
<speed>4.750000</speed>
</trkpt>
<trkpt lat="56.092781" lon="26.543531">
<ele>102.276428</ele>
<time>2010-06-20T11:36:14Z</time>
<desc>lat.=56.092781, lon.=26.543531, Alt.=102.276428m. Speed=16.812000m/h.</desc>
<speed>4.670000</speed>
</trkpt>
<trkpt lat="56.092827" lon="26.543533">
<ele>101.903381</ele>
<time>2010-06-20T11:36:15Z</time>
<desc>lat.=56.092827, lon.=26.543533, Alt.=101.903381m. Speed=16.344000m/h.</desc>
<speed>4.540000</speed>
</trkpt>
<trkpt lat="56.092869" lon="26.543531">
<ele>101.846741</ele>
<time>2010-06-20T11:36:16Z</time>
<desc>lat.=56.092869, lon.=26.543531, Alt.=101.846741m. Speed=15.948000m/h.</desc>
<speed>4.430000</speed>
</trkpt>
<trkpt lat="56.092907" lon="26.543528">
<ele>102.038147</ele>
<time>2010-06-20T11:36:17Z</time>
<desc>lat.=56.092907, lon.=26.543528, Alt.=102.038147m. Speed=16.091999m/h.</desc>
<speed>4.470000</speed>
</trkpt>
<trkpt lat="56.092949" lon="26.543524">
<ele>101.960022</ele>
<time>2010-06-20T11:36:18Z</time>
<desc>lat.=56.092949, lon.=26.543524, Alt.=101.960022m. Speed=17.351999m/h.</desc>
<speed>4.820000</speed>
</trkpt>
<trkpt lat="56.092991" lon="26.543520">
<ele>102.085022</ele>
<time>2010-06-20T11:36:19Z</time>
<desc>lat.=56.092991, lon.=26.543520, Alt.=102.085022m. Speed=17.208000m/h.</desc>
<speed>4.780000</speed>
</trkpt>
<trkpt lat="56.093029" lon="26.543516">
<ele>102.405334</ele>
<time>2010-06-20T11:36:20Z</time>
<desc>lat.=56.093029, lon.=26.543516, Alt.=102.405334m. Speed=16.344000m/h.</desc>
<speed>4.540000</speed>
</trkpt>
<trkpt lat="56.093071" lon="26.543514">
<ele>102.399475</ele>
<time>2010-06-20T11:36:21Z</time>
<desc>lat.=56.093071, lon.=26.543514, Alt.=102.399475m. Speed=16.920000m/h.</desc>
<speed>4.700000</speed>
</trkpt>
<trkpt lat="56.093109" lon="26.543510">
<ele>102.522522</ele>
<time>2010-06-20T11:36:22Z</time>
<desc>lat.=56.093109, lon.=26.543510, Alt.=102.522522m. Speed=16.524000m/h.</desc>
<speed>4.590000</speed>
</trkpt>
<trkpt lat="56.093151" lon="26.543501">
<ele>102.657288</ele>
<time>2010-06-20T11:36:23Z</time>
<desc>lat.=56.093151, lon.=26.543501, Alt.=102.657288m. Speed=16.740000m/h.</desc>
<speed>4.650000</speed>
</trkpt>
<trkpt lat="56.093189" lon="26.543499">
<ele>102.491272</ele>
<time>2010-06-20T11:36:24Z</time>
<desc>lat.=56.093189, lon.=26.543499, Alt.=102.491272m. Speed=15.840000m/h.</desc>
<speed>4.400000</speed>
</trkpt>
<trkpt lat="56.093231" lon="26.543497">
<ele>102.547913</ele>
<time>2010-06-20T11:36:25Z</time>
<desc>lat.=56.093231, lon.=26.543497, Alt.=102.547913m. Speed=17.351999m/h.</desc>
<speed>4.820000</speed>
</trkpt>
<trkpt lat="56.093277" lon="26.543499">
<ele>102.504944</ele>
<time>2010-06-20T11:36:26Z</time>
<desc>lat.=56.093277, lon.=26.543499, Alt.=102.504944m. Speed=19.007999m/h.</desc>
<speed>5.280000</speed>
</trkpt>
<trkpt lat="56.093327" lon="26.543499">
<ele>102.135803</ele>
<time>2010-06-20T11:36:27Z</time>
<desc>lat.=56.093327, lon.=26.543499, Alt.=102.135803m. Speed=18.288000m/h.</desc>
<speed>5.080000</speed>
</trkpt>
<trkpt lat="56.093369" lon="26.543499">
<ele>101.917053</ele>
<time>2010-06-20T11:36:28Z</time>
<desc>lat.=56.093369, lon.=26.543499, Alt.=101.917053m. Speed=17.927999m/h.</desc>
<speed>4.980000</speed>
</trkpt>
<trkpt lat="56.093418" lon="26.543488">
<ele>102.278381</ele>
<time>2010-06-20T11:36:29Z</time>
<desc>lat.=56.093418, lon.=26.543488, Alt.=102.278381m. Speed=18.000000m/h.</desc>
<speed>5.000000</speed>
</trkpt>
<trkpt lat="56.093460" lon="26.543478">
<ele>102.549866</ele>
<time>2010-06-20T11:36:30Z</time>
<desc>lat.=56.093460, lon.=26.543478, Alt.=102.549866m. Speed=18.431999m/h.</desc>
<speed>5.120000</speed>
</trkpt>
<trkpt lat="56.093506" lon="26.543472">
<ele>102.643616</ele>
<time>2010-06-20T11:36:31Z</time>
<desc>lat.=56.093506, lon.=26.543472, Alt.=102.643616m. Speed=18.540001m/h.</desc>
<speed>5.150000</speed>
</trkpt>
<trkpt lat="56.093548" lon="26.543470">
<ele>102.786194</ele>
<time>2010-06-20T11:36:32Z</time>
<desc>lat.=56.093548, lon.=26.543470, Alt.=102.786194m. Speed=17.604000m/h.</desc>
<speed>4.890000</speed>
</trkpt>
<trkpt lat="56.093590" lon="26.543476">
<ele>102.961975</ele>
<time>2010-06-20T11:36:33Z</time>
<desc>lat.=56.093590, lon.=26.543476, Alt.=102.961975m. Speed=16.848000m/h.</desc>
<speed>4.680000</speed>
</trkpt>
<trkpt lat="56.093632" lon="26.543478">
<ele>103.155334</ele>
<time>2010-06-20T11:36:34Z</time>
<desc>lat.=56.093632, lon.=26.543478, Alt.=103.155334m. Speed=16.775999m/h.</desc>
<speed>4.660000</speed>
</trkpt>
<trkpt lat="56.093678" lon="26.543480">
<ele>103.235413</ele>
<time>2010-06-20T11:36:35Z</time>
<desc>lat.=56.093678, lon.=26.543480, Alt.=103.235413m. Speed=16.308001m/h.</desc>
<speed>4.530000</speed>
</trkpt>
<trkpt lat="56.093716" lon="26.543480">
<ele>103.122131</ele>
<time>2010-06-20T11:36:36Z</time>
<desc>lat.=56.093716, lon.=26.543480, Alt.=103.122131m. Speed=16.740000m/h.</desc>
<speed>4.650000</speed>
</trkpt>
<trkpt lat="56.093761" lon="26.543472">
<ele>103.141663</ele>
<time>2010-06-20T11:36:37Z</time>
<desc>lat.=56.093761, lon.=26.543472, Alt.=103.141663m. Speed=17.316000m/h.</desc>
<speed>4.810000</speed>
</trkpt>
<trkpt lat="56.093807" lon="26.543467">
<ele>103.010803</ele>
<time>2010-06-20T11:36:38Z</time>
<desc>lat.=56.093807, lon.=26.543467, Alt.=103.010803m. Speed=17.568001m/h.</desc>
<speed>4.880000</speed>
</trkpt>
<trkpt lat="56.093849" lon="26.543465">
<ele>102.956116</ele>
<time>2010-06-20T11:36:39Z</time>
<desc>lat.=56.093849, lon.=26.543465, Alt.=102.956116m. Speed=18.756001m/h.</desc>
<speed>5.210000</speed>
</trkpt>
<trkpt lat="56.093899" lon="26.543465">
<ele>102.905334</ele>
<time>2010-06-20T11:36:40Z</time>
<desc>lat.=56.093899, lon.=26.543465, Alt.=102.905334m. Speed=18.900000m/h.</desc>
<speed>5.250000</speed>
</trkpt>
<trkpt lat="56.093948" lon="26.543470">
<ele>102.803772</ele>
<time>2010-06-20T11:36:41Z</time>
<desc>lat.=56.093948, lon.=26.543470, Alt.=102.803772m. Speed=18.972000m/h.</desc>
<speed>5.270000</speed>
</trkpt>
<trkpt lat="56.093998" lon="26.543478">
<ele>102.567444</ele>
<time>2010-06-20T11:36:42Z</time>
<desc>lat.=56.093998, lon.=26.543478, Alt.=102.567444m. Speed=19.260000m/h.</desc>
<speed>5.350000</speed>
</trkpt>
<trkpt lat="56.094051" lon="26.543478">
<ele>102.618225</ele>
<time>2010-06-20T11:36:43Z</time>
<desc>lat.=56.094051, lon.=26.543478, Alt.=102.618225m. Speed=19.188000m/h.</desc>
<speed>5.330000</speed>
</trkpt>
<trkpt lat="56.094105" lon="26.543472">
<ele>102.782288</ele>
<time>2010-06-20T11:36:44Z</time>
<desc>lat.=56.094105, lon.=26.543472, Alt.=102.782288m. Speed=19.908001m/h.</desc>
<speed>5.530000</speed>
</trkpt>
<trkpt lat="56.094154" lon="26.543470">
<ele>102.848694</ele>
<time>2010-06-20T11:36:45Z</time>
<desc>lat.=56.094154, lon.=26.543470, Alt.=102.848694m. Speed=20.520000m/h.</desc>
<speed>5.700000</speed>
</trkpt>
<trkpt lat="56.094208" lon="26.543467">
<ele>102.969788</ele>
<time>2010-06-20T11:36:46Z</time>
<desc>lat.=56.094208, lon.=26.543467, Alt.=102.969788m. Speed=21.132000m/h.</desc>
<speed>5.870000</speed>
</trkpt>
<trkpt lat="56.094261" lon="26.543461">
<ele>103.215881</ele>
<time>2010-06-20T11:36:47Z</time>
<desc>lat.=56.094261, lon.=26.543461, Alt.=103.215881m. Speed=21.096001m/h.</desc>
<speed>5.860000</speed>
</trkpt>
<trkpt lat="56.094311" lon="26.543465">
<ele>103.235413</ele>
<time>2010-06-20T11:36:48Z</time>
<desc>lat.=56.094311, lon.=26.543465, Alt.=103.235413m. Speed=20.771999m/h.</desc>
<speed>5.770000</speed>
</trkpt>
<trkpt lat="56.094360" lon="26.543465">
<ele>103.360413</ele>
<time>2010-06-20T11:36:49Z</time>
<desc>lat.=56.094360, lon.=26.543465, Alt.=103.360413m. Speed=19.476000m/h.</desc>
<speed>5.410000</speed>
</trkpt>
<trkpt lat="56.094410" lon="26.543463">
<ele>103.370178</ele>
<time>2010-06-20T11:36:50Z</time>
<desc>lat.=56.094410, lon.=26.543463, Alt.=103.370178m. Speed=17.964001m/h.</desc>
<speed>4.990000</speed>
</trkpt>
<trkpt lat="56.094452" lon="26.543463">
<ele>103.350647</ele>
<time>2010-06-20T11:36:51Z</time>
<desc>lat.=56.094452, lon.=26.543463, Alt.=103.350647m. Speed=16.452000m/h.</desc>
<speed>4.570000</speed>
</trkpt>
<trkpt lat="56.094486" lon="26.543455">
<ele>103.073303</ele>
<time>2010-06-20T11:36:52Z</time>
<desc>lat.=56.094486, lon.=26.543455, Alt.=103.073303m. Speed=14.940000m/h.</desc>
<speed>4.150000</speed>
</trkpt>
<trkpt lat="56.094521" lon="26.543453">
<ele>103.026428</ele>
<time>2010-06-20T11:36:53Z</time>
<desc>lat.=56.094521, lon.=26.543453, Alt.=103.026428m. Speed=13.824000m/h.</desc>
<speed>3.840000</speed>
</trkpt>
<trkpt lat="56.094555" lon="26.543453">
<ele>102.973694</ele>
<time>2010-06-20T11:36:54Z</time>
<desc>lat.=56.094555, lon.=26.543453, Alt.=102.973694m. Speed=12.744000m/h.</desc>
<speed>3.540000</speed>
</trkpt>
<trkpt lat="56.094585" lon="26.543453">
<ele>103.073303</ele>
<time>2010-06-20T11:36:55Z</time>
<desc>lat.=56.094585, lon.=26.543453, Alt.=103.073303m. Speed=11.880000m/h.</desc>
<speed>3.300000</speed>
</trkpt>
<trkpt lat="56.094616" lon="26.543447">
<ele>103.249084</ele>
<time>2010-06-20T11:36:56Z</time>
<desc>lat.=56.094616, lon.=26.543447, Alt.=103.249084m. Speed=10.548000m/h.</desc>
<speed>2.930000</speed>
</trkpt>
<trkpt lat="56.094643" lon="26.543438">
<ele>103.307678</ele>
<time>2010-06-20T11:36:57Z</time>
<desc>lat.=56.094643, lon.=26.543438, Alt.=103.307678m. Speed=9.756000m/h.</desc>
<speed>2.710000</speed>
</trkpt>
<trkpt lat="56.094666" lon="26.543447">
<ele>103.268616</ele>
<time>2010-06-20T11:36:58Z</time>
<desc>lat.=56.094666, lon.=26.543447, Alt.=103.268616m. Speed=9.720000m/h.</desc>
<speed>2.700000</speed>
</trkpt>
<trkpt lat="56.094688" lon="26.543459">
<ele>103.026428</ele>
<time>2010-06-20T11:36:59Z</time>
<desc>lat.=56.094688, lon.=26.543459, Alt.=103.026428m. Speed=9.036000m/h.</desc>
<speed>2.510000</speed>
</trkpt>
<trkpt lat="56.094707" lon="26.543459">
<ele>103.067444</ele>
<time>2010-06-20T11:37:00Z</time>
<desc>lat.=56.094707, lon.=26.543459, Alt.=103.067444m. Speed=8.208000m/h.</desc>
<speed>2.280000</speed>
</trkpt>
<trkpt lat="56.094730" lon="26.543455">
<ele>103.139709</ele>
<time>2010-06-20T11:37:01Z</time>
<desc>lat.=56.094730, lon.=26.543455, Alt.=103.139709m. Speed=7.488000m/h.</desc>
<speed>2.080000</speed>
</trkpt>
<trkpt lat="56.094746" lon="26.543444">
<ele>103.313538</ele>
<time>2010-06-20T11:37:02Z</time>
<desc>lat.=56.094746, lon.=26.543444, Alt.=103.313538m. Speed=5.796000m/h.</desc>
<speed>1.610000</speed>
</trkpt>
<trkpt lat="56.094761" lon="26.543438">
<ele>103.610413</ele>
<time>2010-06-20T11:37:03Z</time>
<desc>lat.=56.094761, lon.=26.543438, Alt.=103.610413m. Speed=6.876000m/h.</desc>
<speed>1.910000</speed>
</trkpt>
<trkpt lat="56.094776" lon="26.543434">
<ele>103.629944</ele>
<time>2010-06-20T11:37:04Z</time>
<desc>lat.=56.094776, lon.=26.543434, Alt.=103.629944m. Speed=7.272000m/h.</desc>
<speed>2.020000</speed>
</trkpt>
<trkpt lat="56.094791" lon="26.543432">
<ele>103.729553</ele>
<time>2010-06-20T11:37:05Z</time>
<desc>lat.=56.094791, lon.=26.543432, Alt.=103.729553m. Speed=8.352000m/h.</desc>
<speed>2.320000</speed>
</trkpt>
<trkpt lat="56.094814" lon="26.543430">
<ele>103.881897</ele>
<time>2010-06-20T11:37:06Z</time>
<desc>lat.=56.094814, lon.=26.543430, Alt.=103.881897m. Speed=9.072000m/h.</desc>
<speed>2.520000</speed>
</trkpt>
<trkpt lat="56.094833" lon="26.543425">
<ele>103.835022</ele>
<time>2010-06-20T11:37:07Z</time>
<desc>lat.=56.094833, lon.=26.543425, Alt.=103.835022m. Speed=10.368000m/h.</desc>
<speed>2.880000</speed>
</trkpt>
<trkpt lat="56.094860" lon="26.543428">
<ele>103.780334</ele>
<time>2010-06-20T11:37:08Z</time>
<desc>lat.=56.094860, lon.=26.543428, Alt.=103.780334m. Speed=9.288000m/h.</desc>
<speed>2.580000</speed>
</trkpt>
<trkpt lat="56.094887" lon="26.543434">
<ele>103.760803</ele>
<time>2010-06-20T11:37:09Z</time>
<desc>lat.=56.094887, lon.=26.543434, Alt.=103.760803m. Speed=10.764000m/h.</desc>
<speed>2.990000</speed>
</trkpt>
<trkpt lat="56.094913" lon="26.543438">
<ele>104.079163</ele>
<time>2010-06-20T11:37:10Z</time>
<desc>lat.=56.094913, lon.=26.543438, Alt.=104.079163m. Speed=11.412000m/h.</desc>
<speed>3.170000</speed>
</trkpt>
<trkpt lat="56.094944" lon="26.543438">
<ele>103.846741</ele>
<time>2010-06-20T11:37:11Z</time>
<desc>lat.=56.094944, lon.=26.543438, Alt.=103.846741m. Speed=12.492000m/h.</desc>
<speed>3.470000</speed>
</trkpt>
<trkpt lat="56.094978" lon="26.543438">
<ele>104.157288</ele>
<time>2010-06-20T11:37:12Z</time>
<desc>lat.=56.094978, lon.=26.543438, Alt.=104.157288m. Speed=13.536000m/h.</desc>
<speed>3.760000</speed>
</trkpt>
<trkpt lat="56.095013" lon="26.543434">
<ele>104.169006</ele>
<time>2010-06-20T11:37:13Z</time>
<desc>lat.=56.095013, lon.=26.543434, Alt.=104.169006m. Speed=14.256000m/h.</desc>
<speed>3.960000</speed>
</trkpt>
<trkpt lat="56.095043" lon="26.543425">
<ele>104.264709</ele>
<time>2010-06-20T11:37:14Z</time>
<desc>lat.=56.095043, lon.=26.543425, Alt.=104.264709m. Speed=14.328000m/h.</desc>
<speed>3.980000</speed>
</trkpt>
<trkpt lat="56.095081" lon="26.543423">
<ele>104.348694</ele>
<time>2010-06-20T11:37:15Z</time>
<desc>lat.=56.095081, lon.=26.543423, Alt.=104.348694m. Speed=14.904000m/h.</desc>
<speed>4.140000</speed>
</trkpt>
<trkpt lat="56.095119" lon="26.543419">
<ele>104.481506</ele>
<time>2010-06-20T11:37:16Z</time>
<desc>lat.=56.095119, lon.=26.543419, Alt.=104.481506m. Speed=15.660000m/h.</desc>
<speed>4.350000</speed>
</trkpt>
<trkpt lat="56.095158" lon="26.543423">
<ele>104.282288</ele>
<time>2010-06-20T11:37:17Z</time>
<desc>lat.=56.095158, lon.=26.543423, Alt.=104.282288m. Speed=15.876000m/h.</desc>
<speed>4.410000</speed>
</trkpt>
<trkpt lat="56.095196" lon="26.543419">
<ele>104.356506</ele>
<time>2010-06-20T11:37:18Z</time>
<desc>lat.=56.095196, lon.=26.543419, Alt.=104.356506m. Speed=16.667999m/h.</desc>
<speed>4.630000</speed>
</trkpt>
<trkpt lat="56.095238" lon="26.543419">
<ele>104.448303</ele>
<time>2010-06-20T11:37:19Z</time>
<desc>lat.=56.095238, lon.=26.543419, Alt.=104.448303m. Speed=17.208000m/h.</desc>
<speed>4.780000</speed>
</trkpt>
<trkpt lat="56.095284" lon="26.543421">
<ele>104.477600</ele>
<time>2010-06-20T11:37:20Z</time>
<desc>lat.=56.095284, lon.=26.543421, Alt.=104.477600m. Speed=18.000000m/h.</desc>
<speed>5.000000</speed>
</trkpt>
<trkpt lat="56.095329" lon="26.543421">
<ele>104.534241</ele>
<time>2010-06-20T11:37:21Z</time>
<desc>lat.=56.095329, lon.=26.543421, Alt.=104.534241m. Speed=18.792000m/h.</desc>
<speed>5.220000</speed>
</trkpt>
<trkpt lat="56.095375" lon="26.543423">
<ele>104.467834</ele>
<time>2010-06-20T11:37:22Z</time>
<desc>lat.=56.095375, lon.=26.543423, Alt.=104.467834m. Speed=19.368000m/h.</desc>
<speed>5.380000</speed>
</trkpt>
<trkpt lat="56.095425" lon="26.543417">
<ele>104.534241</ele>
<time>2010-06-20T11:37:23Z</time>
<desc>lat.=56.095425, lon.=26.543417, Alt.=104.534241m. Speed=19.691999m/h.</desc>
<speed>5.470000</speed>
</trkpt>
<trkpt lat="56.095474" lon="26.543417">
<ele>104.528381</ele>
<time>2010-06-20T11:37:24Z</time>
<desc>lat.=56.095474, lon.=26.543417, Alt.=104.528381m. Speed=18.540001m/h.</desc>
<speed>5.150000</speed>
</trkpt>
<trkpt lat="56.095520" lon="26.543417">
<ele>104.495178</ele>
<time>2010-06-20T11:37:25Z</time>
<desc>lat.=56.095520, lon.=26.543417, Alt.=104.495178m. Speed=17.351999m/h.</desc>
<speed>4.820000</speed>
</trkpt>
<trkpt lat="56.095566" lon="26.543413">
<ele>104.598694</ele>
<time>2010-06-20T11:37:26Z</time>
<desc>lat.=56.095566, lon.=26.543413, Alt.=104.598694m. Speed=16.884001m/h.</desc>
<speed>4.690000</speed>
</trkpt>
<trkpt lat="56.095604" lon="26.543406">
<ele>104.631897</ele>
<time>2010-06-20T11:37:27Z</time>
<desc>lat.=56.095604, lon.=26.543406, Alt.=104.631897m. Speed=16.884001m/h.</desc>
<speed>4.690000</speed>
</trkpt>
<trkpt lat="56.095646" lon="26.543402">
<ele>104.717834</ele>
<time>2010-06-20T11:37:28Z</time>
<desc>lat.=56.095646, lon.=26.543402, Alt.=104.717834m. Speed=17.532000m/h.</desc>
<speed>4.870000</speed>
</trkpt>
<trkpt lat="56.095692" lon="26.543396">
<ele>104.602600</ele>
<time>2010-06-20T11:37:29Z</time>
<desc>lat.=56.095692, lon.=26.543396, Alt.=104.602600m. Speed=17.927999m/h.</desc>
<speed>4.980000</speed>
</trkpt>
<trkpt lat="56.095737" lon="26.543386">
<ele>104.606506</ele>
<time>2010-06-20T11:37:30Z</time>
<desc>lat.=56.095737, lon.=26.543386, Alt.=104.606506m. Speed=18.180000m/h.</desc>
<speed>5.050000</speed>
</trkpt>
<trkpt lat="56.095783" lon="26.543381">
<ele>104.686584</ele>
<time>2010-06-20T11:37:31Z</time>
<desc>lat.=56.095783, lon.=26.543381, Alt.=104.686584m. Speed=18.323999m/h.</desc>
<speed>5.090000</speed>
</trkpt>
<trkpt lat="56.095825" lon="26.543375">
<ele>104.831116</ele>
<time>2010-06-20T11:37:32Z</time>
<desc>lat.=56.095825, lon.=26.543375, Alt.=104.831116m. Speed=18.431999m/h.</desc>
<speed>5.120000</speed>
</trkpt>
<trkpt lat="56.095875" lon="26.543375">
<ele>104.854553</ele>
<time>2010-06-20T11:37:33Z</time>
<desc>lat.=56.095875, lon.=26.543375, Alt.=104.854553m. Speed=18.827999m/h.</desc>
<speed>5.230000</speed>
</trkpt>
<trkpt lat="56.095924" lon="26.543377">
<ele>104.891663</ele>
<time>2010-06-20T11:37:34Z</time>
<desc>lat.=56.095924, lon.=26.543377, Alt.=104.891663m. Speed=19.548000m/h.</desc>
<speed>5.430000</speed>
</trkpt>
<trkpt lat="56.095974" lon="26.543375">
<ele>104.983459</ele>
<time>2010-06-20T11:37:35Z</time>
<desc>lat.=56.095974, lon.=26.543375, Alt.=104.983459m. Speed=18.864000m/h.</desc>
<speed>5.240000</speed>
</trkpt>
<trkpt lat="56.096020" lon="26.543373">
<ele>104.999084</ele>
<time>2010-06-20T11:37:36Z</time>
<desc>lat.=56.096020, lon.=26.543373, Alt.=104.999084m. Speed=17.568001m/h.</desc>
<speed>4.880000</speed>
</trkpt>
<trkpt lat="56.096062" lon="26.543371">
<ele>105.092834</ele>
<time>2010-06-20T11:37:37Z</time>
<desc>lat.=56.096062, lon.=26.543371, Alt.=105.092834m. Speed=16.632000m/h.</desc>
<speed>4.620000</speed>
</trkpt>
<trkpt lat="56.096100" lon="26.543367">
<ele>105.112366</ele>
<time>2010-06-20T11:37:38Z</time>
<desc>lat.=56.096100, lon.=26.543367, Alt.=105.112366m. Speed=16.379999m/h.</desc>
<speed>4.550000</speed>
</trkpt>
<trkpt lat="56.096142" lon="26.543365">
<ele>105.200256</ele>
<time>2010-06-20T11:37:39Z</time>
<desc>lat.=56.096142, lon.=26.543365, Alt.=105.200256m. Speed=16.091999m/h.</desc>
<speed>4.470000</speed>
</trkpt>
<trkpt lat="56.096184" lon="26.543364">
<ele>105.188538</ele>
<time>2010-06-20T11:37:40Z</time>
<desc>lat.=56.096184, lon.=26.543364, Alt.=105.188538m. Speed=16.596001m/h.</desc>
<speed>4.610000</speed>
</trkpt>
<trkpt lat="56.096230" lon="26.543364">
<ele>105.170959</ele>
<time>2010-06-20T11:37:41Z</time>
<desc>lat.=56.096230, lon.=26.543364, Alt.=105.170959m. Speed=17.712000m/h.</desc>
<speed>4.920000</speed>
</trkpt>
<trkpt lat="56.096272" lon="26.543362">
<ele>105.284241</ele>
<time>2010-06-20T11:37:42Z</time>
<desc>lat.=56.096272, lon.=26.543362, Alt.=105.284241m. Speed=17.964001m/h.</desc>
<speed>4.990000</speed>
</trkpt>
<trkpt lat="56.096313" lon="26.543358">
<ele>105.536194</ele>
<time>2010-06-20T11:37:43Z</time>
<desc>lat.=56.096313, lon.=26.543358, Alt.=105.536194m. Speed=18.143999m/h.</desc>
<speed>5.040000</speed>
</trkpt>
<trkpt lat="56.096355" lon="26.543354">
<ele>105.737366</ele>
<time>2010-06-20T11:37:44Z</time>
<desc>lat.=56.096355, lon.=26.543354, Alt.=105.737366m. Speed=17.136000m/h.</desc>
<speed>4.760000</speed>
</trkpt>
<trkpt lat="56.096397" lon="26.543352">
<ele>105.756897</ele>
<time>2010-06-20T11:37:45Z</time>
<desc>lat.=56.096397, lon.=26.543352, Alt.=105.756897m. Speed=15.552000m/h.</desc>
<speed>4.320000</speed>
</trkpt>
<trkpt lat="56.096439" lon="26.543352">
<ele>105.870178</ele>
<time>2010-06-20T11:37:46Z</time>
<desc>lat.=56.096439, lon.=26.543352, Alt.=105.870178m. Speed=15.192000m/h.</desc>
<speed>4.220000</speed>
</trkpt>
<trkpt lat="56.096478" lon="26.543348">
<ele>105.879944</ele>
<time>2010-06-20T11:37:47Z</time>
<desc>lat.=56.096478, lon.=26.543348, Alt.=105.879944m. Speed=15.804000m/h.</desc>
<speed>4.390000</speed>
</trkpt>
<trkpt lat="56.096519" lon="26.543341">
<ele>105.844788</ele>
<time>2010-06-20T11:37:48Z</time>
<desc>lat.=56.096519, lon.=26.543341, Alt.=105.844788m. Speed=16.128000m/h.</desc>
<speed>4.480000</speed>
</trkpt>
<trkpt lat="56.096558" lon="26.543337">
<ele>105.952209</ele>
<time>2010-06-20T11:37:49Z</time>
<desc>lat.=56.096558, lon.=26.543337, Alt.=105.952209m. Speed=16.056000m/h.</desc>
<speed>4.460000</speed>
</trkpt>
<trkpt lat="56.096600" lon="26.543335">
<ele>106.417053</ele>
<time>2010-06-20T11:37:50Z</time>
<desc>lat.=56.096600, lon.=26.543335, Alt.=106.417053m. Speed=15.840000m/h.</desc>
<speed>4.400000</speed>
</trkpt>
<trkpt lat="56.096638" lon="26.543320">
<ele>106.169006</ele>
<time>2010-06-20T11:37:51Z</time>
<desc>lat.=56.096638, lon.=26.543320, Alt.=106.169006m. Speed=15.372000m/h.</desc>
<speed>4.270000</speed>
</trkpt>
<trkpt lat="56.096676" lon="26.543308">
<ele>106.196350</ele>
<time>2010-06-20T11:37:52Z</time>
<desc>lat.=56.096676, lon.=26.543308, Alt.=106.196350m. Speed=15.732000m/h.</desc>
<speed>4.370000</speed>
</trkpt>
<trkpt lat="56.096710" lon="26.543293">
<ele>106.008850</ele>
<time>2010-06-20T11:37:53Z</time>
<desc>lat.=56.096710, lon.=26.543293, Alt.=106.008850m. Speed=16.812000m/h.</desc>
<speed>4.670000</speed>
</trkpt>
<trkpt lat="56.096748" lon="26.543282">
<ele>106.157288</ele>
<time>2010-06-20T11:37:54Z</time>
<desc>lat.=56.096748, lon.=26.543282, Alt.=106.157288m. Speed=14.760000m/h.</desc>
<speed>4.100000</speed>
</trkpt>
<trkpt lat="56.096783" lon="26.543272">
<ele>106.336975</ele>
<time>2010-06-20T11:37:55Z</time>
<desc>lat.=56.096783, lon.=26.543272, Alt.=106.336975m. Speed=14.400000m/h.</desc>
<speed>4.000000</speed>
</trkpt>
<trkpt lat="56.096821" lon="26.543264">
<ele>106.327209</ele>
<time>2010-06-20T11:37:56Z</time>
<desc>lat.=56.096821, lon.=26.543264, Alt.=106.327209m. Speed=13.572000m/h.</desc>
<speed>3.770000</speed>
</trkpt>
<trkpt lat="56.096855" lon="26.543268">
<ele>106.338928</ele>
<time>2010-06-20T11:37:57Z</time>
<desc>lat.=56.096855, lon.=26.543268, Alt.=106.338928m. Speed=13.788000m/h.</desc>
<speed>3.830000</speed>
</trkpt>
<trkpt lat="56.096889" lon="26.543268">
<ele>106.389709</ele>
<time>2010-06-20T11:37:58Z</time>
<desc>lat.=56.096889, lon.=26.543268, Alt.=106.389709m. Speed=13.392000m/h.</desc>
<speed>3.720000</speed>
</trkpt>
<trkpt lat="56.096920" lon="26.543270">
<ele>106.641663</ele>
<time>2010-06-20T11:37:59Z</time>
<desc>lat.=56.096920, lon.=26.543270, Alt.=106.641663m. Speed=12.456000m/h.</desc>
<speed>3.460000</speed>
</trkpt>
<trkpt lat="56.096947" lon="26.543280">
<ele>106.655334</ele>
<time>2010-06-20T11:38:00Z</time>
<desc>lat.=56.096947, lon.=26.543280, Alt.=106.655334m. Speed=11.952000m/h.</desc>
<speed>3.320000</speed>
</trkpt>
<trkpt lat="56.096973" lon="26.543276">
<ele>106.672913</ele>
<time>2010-06-20T11:38:01Z</time>
<desc>lat.=56.096973, lon.=26.543276, Alt.=106.672913m. Speed=10.908000m/h.</desc>
<speed>3.030000</speed>
</trkpt>
<trkpt lat="56.096996" lon="26.543278">
<ele>106.772522</ele>
<time>2010-06-20T11:38:02Z</time>
<desc>lat.=56.096996, lon.=26.543278, Alt.=106.772522m. Speed=10.044000m/h.</desc>
<speed>2.790000</speed>
</trkpt>
<trkpt lat="56.097019" lon="26.543282">
<ele>106.842834</ele>
<time>2010-06-20T11:38:03Z</time>
<desc>lat.=56.097019, lon.=26.543282, Alt.=106.842834m. Speed=9.108000m/h.</desc>
<speed>2.530000</speed>
</trkpt>
<trkpt lat="56.097038" lon="26.543285">
<ele>107.055725</ele>
<time>2010-06-20T11:38:04Z</time>
<desc>lat.=56.097038, lon.=26.543285, Alt.=107.055725m. Speed=8.712000m/h.</desc>
<speed>2.420000</speed>
</trkpt>
<trkpt lat="56.097061" lon="26.543287">
<ele>107.120178</ele>
<time>2010-06-20T11:38:05Z</time>
<desc>lat.=56.097061, lon.=26.543287, Alt.=107.120178m. Speed=7.812000m/h.</desc>
<speed>2.170000</speed>
</trkpt>
<trkpt lat="56.097080" lon="26.543291">
<ele>107.139709</ele>
<time>2010-06-20T11:38:06Z</time>
<desc>lat.=56.097080, lon.=26.543291, Alt.=107.139709m. Speed=6.804000m/h.</desc>
<speed>1.890000</speed>
</trkpt>
<trkpt lat="56.097095" lon="26.543295">
<ele>107.071350</ele>
<time>2010-06-20T11:38:07Z</time>
<desc>lat.=56.097095, lon.=26.543295, Alt.=107.071350m. Speed=6.120000m/h.</desc>
<speed>1.700000</speed>
</trkpt>
<trkpt lat="56.097107" lon="26.543301">
<ele>107.169006</ele>
<time>2010-06-20T11:38:08Z</time>
<desc>lat.=56.097107, lon.=26.543301, Alt.=107.169006m. Speed=5.796000m/h.</desc>
<speed>1.610000</speed>
</trkpt>
<trkpt lat="56.097118" lon="26.543303">
<ele>107.432678</ele>
<time>2010-06-20T11:38:09Z</time>
<desc>lat.=56.097118, lon.=26.543303, Alt.=107.432678m. Speed=5.724000m/h.</desc>
<speed>1.590000</speed>
</trkpt>
<trkpt lat="56.097130" lon="26.543314">
<ele>107.434631</ele>
<time>2010-06-20T11:38:10Z</time>
<desc>lat.=56.097130, lon.=26.543314, Alt.=107.434631m. Speed=6.660000m/h.</desc>
<speed>1.850000</speed>
</trkpt>
<trkpt lat="56.097137" lon="26.543331">
<ele>107.110413</ele>
<time>2010-06-20T11:38:11Z</time>
<desc>lat.=56.097137, lon.=26.543331, Alt.=107.110413m. Speed=6.408000m/h.</desc>
<speed>1.780000</speed>
</trkpt>
<trkpt lat="56.097157" lon="26.543343">
<ele>107.274475</ele>
<time>2010-06-20T11:38:12Z</time>
<desc>lat.=56.097157, lon.=26.543343, Alt.=107.274475m. Speed=5.652000m/h.</desc>
<speed>1.570000</speed>
</trkpt>
<trkpt lat="56.097172" lon="26.543352">
<ele>107.098694</ele>
<time>2010-06-20T11:38:13Z</time>
<desc>lat.=56.097172, lon.=26.543352, Alt.=107.098694m. Speed=5.652000m/h.</desc>
<speed>1.570000</speed>
</trkpt>
<trkpt lat="56.097183" lon="26.543362">
<ele>107.448303</ele>
<time>2010-06-20T11:38:14Z</time>
<desc>lat.=56.097183, lon.=26.543362, Alt.=107.448303m. Speed=5.724000m/h.</desc>
<speed>1.590000</speed>
</trkpt>
<trkpt lat="56.097198" lon="26.543377">
<ele>107.561584</ele>
<time>2010-06-20T11:38:15Z</time>
<desc>lat.=56.097198, lon.=26.543377, Alt.=107.561584m. Speed=6.624000m/h.</desc>
<speed>1.840000</speed>
</trkpt>
<trkpt lat="56.097210" lon="26.543404">
<ele>107.731506</ele>
<time>2010-06-20T11:38:16Z</time>
<desc>lat.=56.097210, lon.=26.543404, Alt.=107.731506m. Speed=4.644000m/h.</desc>
<speed>1.290000</speed>
</trkpt>
<trkpt lat="56.097221" lon="26.543440">
<ele>108.225647</ele>
<time>2010-06-20T11:38:17Z</time>
<desc>lat.=56.097221, lon.=26.543440, Alt.=108.225647m. Speed=7.668000m/h.</desc>
<speed>2.130000</speed>
</trkpt>
<trkpt lat="56.097237" lon="26.543465">
<ele>109.008850</ele>
<time>2010-06-20T11:38:18Z</time>
<desc>lat.=56.097237, lon.=26.543465, Alt.=109.008850m. Speed=6.336000m/h.</desc>
<speed>1.760000</speed>
</trkpt>
<trkpt lat="56.097248" lon="26.543489">
<ele>109.479553</ele>
<time>2010-06-20T11:38:19Z</time>
<desc>lat.=56.097248, lon.=26.543489, Alt.=109.479553m. Speed=6.300000m/h.</desc>
<speed>1.750000</speed>
</trkpt>
<trkpt lat="56.097263" lon="26.543520">
<ele>109.809631</ele>
<time>2010-06-20T11:38:20Z</time>
<desc>lat.=56.097263, lon.=26.543520, Alt.=109.809631m. Speed=4.464000m/h.</desc>
<speed>1.240000</speed>
</trkpt>
<trkpt lat="56.097267" lon="26.543537">
<ele>109.102600</ele>
<time>2010-06-20T11:38:21Z</time>
<desc>lat.=56.097267, lon.=26.543537, Alt.=109.102600m. Speed=4.320000m/h.</desc>
<speed>1.200000</speed>
</trkpt>
<trkpt lat="56.097271" lon="26.543560">
<ele>109.227600</ele>
<time>2010-06-20T11:38:22Z</time>
<desc>lat.=56.097271, lon.=26.543560, Alt.=109.227600m. Speed=5.112000m/h.</desc>
<speed>1.420000</speed>
</trkpt>
<trkpt lat="56.097275" lon="26.543581">
<ele>108.920959</ele>
<time>2010-06-20T11:38:23Z</time>
<desc>lat.=56.097275, lon.=26.543581, Alt.=108.920959m. Speed=4.932000m/h.</desc>
<speed>1.370000</speed>
</trkpt>
<trkpt lat="56.097282" lon="26.543604">
<ele>109.032288</ele>
<time>2010-06-20T11:38:24Z</time>
<desc>lat.=56.097282, lon.=26.543604, Alt.=109.032288m. Speed=4.860000m/h.</desc>
<speed>1.350000</speed>
</trkpt>
<trkpt lat="56.097294" lon="26.543621">
<ele>109.159241</ele>
<time>2010-06-20T11:38:25Z</time>
<desc>lat.=56.097294, lon.=26.543621, Alt.=109.159241m. Speed=5.616000m/h.</desc>
<speed>1.560000</speed>
</trkpt>
<trkpt lat="56.097309" lon="26.543629">
<ele>109.208069</ele>
<time>2010-06-20T11:38:26Z</time>
<desc>lat.=56.097309, lon.=26.543629, Alt.=109.208069m. Speed=6.516000m/h.</desc>
<speed>1.810000</speed>
</trkpt>
<trkpt lat="56.097321" lon="26.543644">
<ele>109.354553</ele>
<time>2010-06-20T11:38:27Z</time>
<desc>lat.=56.097321, lon.=26.543644, Alt.=109.354553m. Speed=7.092000m/h.</desc>
<speed>1.970000</speed>
</trkpt>
<trkpt lat="56.097324" lon="26.543678">
<ele>109.645569</ele>
<time>2010-06-20T11:38:28Z</time>
<desc>lat.=56.097324, lon.=26.543678, Alt.=109.645569m. Speed=8.568000m/h.</desc>
<speed>2.380000</speed>
</trkpt>
<trkpt lat="56.097321" lon="26.543720">
<ele>109.629944</ele>
<time>2010-06-20T11:38:29Z</time>
<desc>lat.=56.097321, lon.=26.543720, Alt.=109.629944m. Speed=9.396000m/h.</desc>
<speed>2.610000</speed>
</trkpt>
<trkpt lat="56.097321" lon="26.543760">
<ele>109.518616</ele>
<time>2010-06-20T11:38:30Z</time>
<desc>lat.=56.097321, lon.=26.543760, Alt.=109.518616m. Speed=8.928000m/h.</desc>
<speed>2.480000</speed>
</trkpt>
<trkpt lat="56.097321" lon="26.543797">
<ele>109.657288</ele>
<time>2010-06-20T11:38:31Z</time>
<desc>lat.=56.097321, lon.=26.543797, Alt.=109.657288m. Speed=7.920000m/h.</desc>
<speed>2.200000</speed>
</trkpt>
<trkpt lat="56.097317" lon="26.543831">
<ele>109.704163</ele>
<time>2010-06-20T11:38:32Z</time>
<desc>lat.=56.097317, lon.=26.543831, Alt.=109.704163m. Speed=7.668000m/h.</desc>
<speed>2.130000</speed>
</trkpt>
<trkpt lat="56.097309" lon="26.543861">
<ele>109.672913</ele>
<time>2010-06-20T11:38:33Z</time>
<desc>lat.=56.097309, lon.=26.543861, Alt.=109.672913m. Speed=5.976000m/h.</desc>
<speed>1.660000</speed>
</trkpt>
<trkpt lat="56.097301" lon="26.543890">
<ele>109.561584</ele>
<time>2010-06-20T11:38:34Z</time>
<desc>lat.=56.097301, lon.=26.543890, Alt.=109.561584m. Speed=6.552000m/h.</desc>
<speed>1.820000</speed>
</trkpt>
<trkpt lat="56.097298" lon="26.543911">
<ele>109.655334</ele>
<time>2010-06-20T11:38:35Z</time>
<desc>lat.=56.097298, lon.=26.543911, Alt.=109.655334m. Speed=4.320000m/h.</desc>
<speed>1.200000</speed>
</trkpt>
<trkpt lat="56.097298" lon="26.543930">
<ele>109.897522</ele>
<time>2010-06-20T11:38:36Z</time>
<desc>lat.=56.097298, lon.=26.543930, Alt.=109.897522m. Speed=4.824000m/h.</desc>
<speed>1.340000</speed>
</trkpt>
<trkpt lat="56.097294" lon="26.543951">
<ele>109.881897</ele>
<time>2010-06-20T11:38:37Z</time>
<desc>lat.=56.097294, lon.=26.543951, Alt.=109.881897m. Speed=3.636000m/h.</desc>
<speed>1.010000</speed>
</trkpt>
<trkpt lat="56.097298" lon="26.543966">
<ele>109.725647</ele>
<time>2010-06-20T11:38:38Z</time>
<desc>lat.=56.097298, lon.=26.543966, Alt.=109.725647m. Speed=3.384000m/h.</desc>
<speed>0.940000</speed>
</trkpt>
<trkpt lat="56.097294" lon="26.543978">
<ele>109.602600</ele>
<time>2010-06-20T11:38:39Z</time>
<desc>lat.=56.097294, lon.=26.543978, Alt.=109.602600m. Speed=2.340000m/h.</desc>
<speed>0.650000</speed>
</trkpt>
<trkpt lat="56.097294" lon="26.543980">
<ele>109.206116</ele>
<time>2010-06-20T11:38:40Z</time>
<desc>lat.=56.097294, lon.=26.543980, Alt.=109.206116m. Speed=0.576000m/h.</desc>
<speed>0.160000</speed>
</trkpt>
<trkpt lat="56.097301" lon="26.543974">
<ele>109.495178</ele>
<time>2010-06-20T11:38:41Z</time>
<desc>lat.=56.097301, lon.=26.543974, Alt.=109.495178m. Speed=2.844000m/h.</desc>
<speed>0.790000</speed>
</trkpt>
<trkpt lat="56.097309" lon="26.543966">
<ele>109.782288</ele>
<time>2010-06-20T11:38:42Z</time>
<desc>lat.=56.097309, lon.=26.543966, Alt.=109.782288m. Speed=0.576000m/h.</desc>
<speed>0.160000</speed>
</trkpt>
<trkpt lat="56.097309" lon="26.543968">
<ele>110.030334</ele>
<time>2010-06-20T11:38:43Z</time>
<desc>lat.=56.097309, lon.=26.543968, Alt.=110.030334m. Speed=2.016000m/h.</desc>
<speed>0.560000</speed>
</trkpt>
<trkpt lat="56.097309" lon="26.543978">
<ele>110.221741</ele>
<time>2010-06-20T11:38:44Z</time>
<desc>lat.=56.097309, lon.=26.543978, Alt.=110.221741m. Speed=2.556000m/h.</desc>
<speed>0.710000</speed>
</trkpt>
<trkpt lat="56.097309" lon="26.543989">
<ele>110.401428</ele>
<time>2010-06-20T11:38:45Z</time>
<desc>lat.=56.097309, lon.=26.543989, Alt.=110.401428m. Speed=5.724000m/h.</desc>
<speed>1.590000</speed>
</trkpt>
<trkpt lat="56.097305" lon="26.544020">
<ele>110.594788</ele>
<time>2010-06-20T11:38:46Z</time>
<desc>lat.=56.097305, lon.=26.544020, Alt.=110.594788m. Speed=6.732000m/h.</desc>
<speed>1.870000</speed>
</trkpt>
<trkpt lat="56.097298" lon="26.544067">
<ele>110.008850</ele>
<time>2010-06-20T11:38:47Z</time>
<desc>lat.=56.097298, lon.=26.544067, Alt.=110.008850m. Speed=8.568000m/h.</desc>
<speed>2.380000</speed>
</trkpt>
<trkpt lat="56.097294" lon="26.544115">
<ele>110.159241</ele>
<time>2010-06-20T11:38:48Z</time>
<desc>lat.=56.097294, lon.=26.544115, Alt.=110.159241m. Speed=9.576000m/h.</desc>
<speed>2.660000</speed>
</trkpt>
<trkpt lat="56.097290" lon="26.544159">
<ele>110.292053</ele>
<time>2010-06-20T11:38:49Z</time>
<desc>lat.=56.097290, lon.=26.544159, Alt.=110.292053m. Speed=8.424000m/h.</desc>
<speed>2.340000</speed>
</trkpt>
<trkpt lat="56.097290" lon="26.544209">
<ele>110.606506</ele>
<time>2010-06-20T11:38:50Z</time>
<desc>lat.=56.097290, lon.=26.544209, Alt.=110.606506m. Speed=11.052000m/h.</desc>
<speed>3.070000</speed>
</trkpt>
<trkpt lat="56.097282" lon="26.544268">
<ele>110.961975</ele>
<time>2010-06-20T11:38:51Z</time>
<desc>lat.=56.097282, lon.=26.544268, Alt.=110.961975m. Speed=12.348000m/h.</desc>
<speed>3.430000</speed>
</trkpt>
<trkpt lat="56.097279" lon="26.544317">
<ele>111.268616</ele>
<time>2010-06-20T11:38:52Z</time>
<desc>lat.=56.097279, lon.=26.544317, Alt.=111.268616m. Speed=11.340000m/h.</desc>
<speed>3.150000</speed>
</trkpt>
<trkpt lat="56.097271" lon="26.544365">
<ele>111.299866</ele>
<time>2010-06-20T11:38:53Z</time>
<desc>lat.=56.097271, lon.=26.544365, Alt.=111.299866m. Speed=10.296000m/h.</desc>
<speed>2.860000</speed>
</trkpt>
<trkpt lat="56.097267" lon="26.544413">
<ele>111.407288</ele>
<time>2010-06-20T11:38:54Z</time>
<desc>lat.=56.097267, lon.=26.544413, Alt.=111.407288m. Speed=10.188000m/h.</desc>
<speed>2.830000</speed>
</trkpt>
<trkpt lat="56.097267" lon="26.544468">
<ele>111.526428</ele>
<time>2010-06-20T11:38:55Z</time>
<desc>lat.=56.097267, lon.=26.544468, Alt.=111.526428m. Speed=10.188000m/h.</desc>
<speed>2.830000</speed>
</trkpt>
<trkpt lat="56.097267" lon="26.544516">
<ele>111.008850</ele>
<time>2010-06-20T11:38:56Z</time>
<desc>lat.=56.097267, lon.=26.544516, Alt.=111.008850m. Speed=10.476000m/h.</desc>
<speed>2.910000</speed>
</trkpt>
<trkpt lat="56.097256" lon="26.544559">
<ele>110.637756</ele>
<time>2010-06-20T11:38:57Z</time>
<desc>lat.=56.097256, lon.=26.544559, Alt.=110.637756m. Speed=9.828000m/h.</desc>
<speed>2.730000</speed>
</trkpt>
<trkpt lat="56.097248" lon="26.544600">
<ele>110.596741</ele>
<time>2010-06-20T11:38:58Z</time>
<desc>lat.=56.097248, lon.=26.544600, Alt.=110.596741m. Speed=9.432000m/h.</desc>
<speed>2.620000</speed>
</trkpt>
<trkpt lat="56.097240" lon="26.544630">
<ele>110.518616</ele>
<time>2010-06-20T11:38:59Z</time>
<desc>lat.=56.097240, lon.=26.544630, Alt.=110.518616m. Speed=7.596000m/h.</desc>
<speed>2.110000</speed>
</trkpt>
<trkpt lat="56.097233" lon="26.544661">
<ele>110.325256</ele>
<time>2010-06-20T11:39:00Z</time>
<desc>lat.=56.097233, lon.=26.544661, Alt.=110.325256m. Speed=8.352000m/h.</desc>
<speed>2.320000</speed>
</trkpt>
<trkpt lat="56.097229" lon="26.544701">
<ele>110.270569</ele>
<time>2010-06-20T11:39:01Z</time>
<desc>lat.=56.097229, lon.=26.544701, Alt.=110.270569m. Speed=8.172000m/h.</desc>
<speed>2.270000</speed>
</trkpt>
<trkpt lat="56.097218" lon="26.544746">
<ele>110.034241</ele>
<time>2010-06-20T11:39:02Z</time>
<desc>lat.=56.097218, lon.=26.544746, Alt.=110.034241m. Speed=9.864000m/h.</desc>
<speed>2.740000</speed>
</trkpt>
<trkpt lat="56.097210" lon="26.544798">
<ele>109.751038</ele>
<time>2010-06-20T11:39:03Z</time>
<desc>lat.=56.097210, lon.=26.544798, Alt.=109.751038m. Speed=9.612000m/h.</desc>
<speed>2.670000</speed>
</trkpt>
<trkpt lat="56.097206" lon="26.544842">
<ele>109.551819</ele>
<time>2010-06-20T11:39:04Z</time>
<desc>lat.=56.097206, lon.=26.544842, Alt.=109.551819m. Speed=8.676000m/h.</desc>
<speed>2.410000</speed>
</trkpt>
<trkpt lat="56.097202" lon="26.544886">
<ele>109.346741</ele>
<time>2010-06-20T11:39:05Z</time>
<desc>lat.=56.097202, lon.=26.544886, Alt.=109.346741m. Speed=8.928000m/h.</desc>
<speed>2.480000</speed>
</trkpt>
<trkpt lat="56.097195" lon="26.544924">
<ele>109.745178</ele>
<time>2010-06-20T11:39:06Z</time>
<desc>lat.=56.097195, lon.=26.544924, Alt.=109.745178m. Speed=8.064000m/h.</desc>
<speed>2.240000</speed>
</trkpt>
<trkpt lat="56.097187" lon="26.544958">
<ele>109.905334</ele>
<time>2010-06-20T11:39:07Z</time>
<desc>lat.=56.097187, lon.=26.544958, Alt.=109.905334m. Speed=6.804000m/h.</desc>
<speed>1.890000</speed>
</trkpt>
<trkpt lat="56.097176" lon="26.544987">
<ele>109.809631</ele>
<time>2010-06-20T11:39:08Z</time>
<desc>lat.=56.097176, lon.=26.544987, Alt.=109.809631m. Speed=6.948000m/h.</desc>
<speed>1.930000</speed>
</trkpt>
<trkpt lat="56.097172" lon="26.545019">
<ele>109.795959</ele>
<time>2010-06-20T11:39:09Z</time>
<desc>lat.=56.097172, lon.=26.545019, Alt.=109.795959m. Speed=7.560000m/h.</desc>
<speed>2.100000</speed>
</trkpt>
<trkpt lat="56.097160" lon="26.545065">
<ele>109.315491</ele>
<time>2010-06-20T11:39:10Z</time>
<desc>lat.=56.097160, lon.=26.545065, Alt.=109.315491m. Speed=12.996000m/h.</desc>
<speed>3.610000</speed>
</trkpt>
<trkpt lat="56.097141" lon="26.545118">
<ele>108.571350</ele>
<time>2010-06-20T11:39:11Z</time>
<desc>lat.=56.097141, lon.=26.545118, Alt.=108.571350m. Speed=12.852000m/h.</desc>
<speed>3.570000</speed>
</trkpt>
<trkpt lat="56.097126" lon="26.545168">
<ele>108.319397</ele>
<time>2010-06-20T11:39:12Z</time>
<desc>lat.=56.097126, lon.=26.545168, Alt.=108.319397m. Speed=13.536000m/h.</desc>
<speed>3.760000</speed>
</trkpt>
<trkpt lat="56.097111" lon="26.545225">
<ele>108.213928</ele>
<time>2010-06-20T11:39:13Z</time>
<desc>lat.=56.097111, lon.=26.545225, Alt.=108.213928m. Speed=14.184000m/h.</desc>
<speed>3.940000</speed>
</trkpt>
<trkpt lat="56.097095" lon="26.545301">
<ele>108.446350</ele>
<time>2010-06-20T11:39:14Z</time>
<desc>lat.=56.097095, lon.=26.545301, Alt.=108.446350m. Speed=14.112000m/h.</desc>
<speed>3.920000</speed>
</trkpt>
<trkpt lat="56.097076" lon="26.545374">
<ele>108.284241</ele>
<time>2010-06-20T11:39:15Z</time>
<desc>lat.=56.097076, lon.=26.545374, Alt.=108.284241m. Speed=13.896000m/h.</desc>
<speed>3.860000</speed>
</trkpt>
<trkpt lat="56.097065" lon="26.545435">
<ele>108.012756</ele>
<time>2010-06-20T11:39:16Z</time>
<desc>lat.=56.097065, lon.=26.545435, Alt.=108.012756m. Speed=13.716000m/h.</desc>
<speed>3.810000</speed>
</trkpt>
<trkpt lat="56.097057" lon="26.545486">
<ele>107.641663</ele>
<time>2010-06-20T11:39:17Z</time>
<desc>lat.=56.097057, lon.=26.545486, Alt.=107.641663m. Speed=13.356000m/h.</desc>
<speed>3.710000</speed>
</trkpt>
<trkpt lat="56.097054" lon="26.545540">
<ele>107.530334</ele>
<time>2010-06-20T11:39:18Z</time>
<desc>lat.=56.097054, lon.=26.545540, Alt.=107.530334m. Speed=12.780000m/h.</desc>
<speed>3.550000</speed>
</trkpt>
<trkpt lat="56.097050" lon="26.545599">
<ele>107.631897</ele>
<time>2010-06-20T11:39:19Z</time>
<desc>lat.=56.097050, lon.=26.545599, Alt.=107.631897m. Speed=12.780000m/h.</desc>
<speed>3.550000</speed>
</trkpt>
<trkpt lat="56.097050" lon="26.545656">
<ele>107.606506</ele>
<time>2010-06-20T11:39:20Z</time>
<desc>lat.=56.097050, lon.=26.545656, Alt.=107.606506m. Speed=12.924000m/h.</desc>
<speed>3.590000</speed>
</trkpt>
<trkpt lat="56.097046" lon="26.545708">
<ele>107.721741</ele>
<time>2010-06-20T11:39:21Z</time>
<desc>lat.=56.097046, lon.=26.545708, Alt.=107.721741m. Speed=12.780000m/h.</desc>
<speed>3.550000</speed>
</trkpt>
<trkpt lat="56.097046" lon="26.545769">
<ele>107.616272</ele>
<time>2010-06-20T11:39:22Z</time>
<desc>lat.=56.097046, lon.=26.545769, Alt.=107.616272m. Speed=12.528000m/h.</desc>
<speed>3.480000</speed>
</trkpt>
<trkpt lat="56.097046" lon="26.545826">
<ele>107.876038</ele>
<time>2010-06-20T11:39:23Z</time>
<desc>lat.=56.097046, lon.=26.545826, Alt.=107.876038m. Speed=12.492000m/h.</desc>
<speed>3.470000</speed>
</trkpt>
<trkpt lat="56.097046" lon="26.545879">
<ele>108.032288</ele>
<time>2010-06-20T11:39:24Z</time>
<desc>lat.=56.097046, lon.=26.545879, Alt.=108.032288m. Speed=11.772000m/h.</desc>
<speed>3.270000</speed>
</trkpt>
<trkpt lat="56.097042" lon="26.545923">
<ele>108.170959</ele>
<time>2010-06-20T11:39:25Z</time>
<desc>lat.=56.097042, lon.=26.545923, Alt.=108.170959m. Speed=10.620000m/h.</desc>
<speed>2.950000</speed>
</trkpt>
<trkpt lat="56.097038" lon="26.545980">
<ele>108.094788</ele>
<time>2010-06-20T11:39:26Z</time>
<desc>lat.=56.097038, lon.=26.545980, Alt.=108.094788m. Speed=11.412000m/h.</desc>
<speed>3.170000</speed>
</trkpt>
<trkpt lat="56.097038" lon="26.546032">
<ele>108.276428</ele>
<time>2010-06-20T11:39:27Z</time>
<desc>lat.=56.097038, lon.=26.546032, Alt.=108.276428m. Speed=10.620000m/h.</desc>
<speed>2.950000</speed>
</trkpt>
<trkpt lat="56.097046" lon="26.546082">
<ele>108.381897</ele>
<time>2010-06-20T11:39:28Z</time>
<desc>lat.=56.097046, lon.=26.546082, Alt.=108.381897m. Speed=11.124000m/h.</desc>
<speed>3.090000</speed>
</trkpt>
<trkpt lat="56.097046" lon="26.546129">
<ele>108.504944</ele>
<time>2010-06-20T11:39:29Z</time>
<desc>lat.=56.097046, lon.=26.546129, Alt.=108.504944m. Speed=10.224000m/h.</desc>
<speed>2.840000</speed>
</trkpt>
<trkpt lat="56.097050" lon="26.546165">
<ele>108.616272</ele>
<time>2010-06-20T11:39:30Z</time>
<desc>lat.=56.097050, lon.=26.546165, Alt.=108.616272m. Speed=9.540000m/h.</desc>
<speed>2.650000</speed>
</trkpt>
<trkpt lat="56.097057" lon="26.546206">
<ele>108.411194</ele>
<time>2010-06-20T11:39:31Z</time>
<desc>lat.=56.097057, lon.=26.546206, Alt.=108.411194m. Speed=9.468000m/h.</desc>
<speed>2.630000</speed>
</trkpt>
<trkpt lat="56.097069" lon="26.546249">
<ele>108.200256</ele>
<time>2010-06-20T11:39:32Z</time>
<desc>lat.=56.097069, lon.=26.546249, Alt.=108.200256m. Speed=9.504000m/h.</desc>
<speed>2.640000</speed>
</trkpt>
<trkpt lat="56.097076" lon="26.546289">
<ele>107.811584</ele>
<time>2010-06-20T11:39:33Z</time>
<desc>lat.=56.097076, lon.=26.546289, Alt.=107.811584m. Speed=9.828000m/h.</desc>
<speed>2.730000</speed>
</trkpt>
<trkpt lat="56.097080" lon="26.546320">
<ele>107.752991</ele>
<time>2010-06-20T11:39:34Z</time>
<desc>lat.=56.097080, lon.=26.546320, Alt.=107.752991m. Speed=6.300000m/h.</desc>
<speed>1.750000</speed>
</trkpt>
<trkpt lat="56.097073" lon="26.546341">
<ele>106.428772</ele>
<time>2010-06-20T11:39:35Z</time>
<desc>lat.=56.097073, lon.=26.546341, Alt.=106.428772m. Speed=6.732000m/h.</desc>
<speed>1.870000</speed>
</trkpt>
<trkpt lat="56.097046" lon="26.546362">
<ele>106.092834</ele>
<time>2010-06-20T11:39:36Z</time>
<desc>lat.=56.097046, lon.=26.546362, Alt.=106.092834m. Speed=6.876000m/h.</desc>
<speed>1.910000</speed>
</trkpt>
<trkpt lat="56.097027" lon="26.546387">
<ele>105.876038</ele>
<time>2010-06-20T11:39:37Z</time>
<desc>lat.=56.097027, lon.=26.546387, Alt.=105.876038m. Speed=8.820000m/h.</desc>
<speed>2.450000</speed>
</trkpt>
<trkpt lat="56.097012" lon="26.546427">
<ele>106.268616</ele>
<time>2010-06-20T11:39:38Z</time>
<desc>lat.=56.097012, lon.=26.546427, Alt.=106.268616m. Speed=9.576000m/h.</desc>
<speed>2.660000</speed>
</trkpt>
<trkpt lat="56.097012" lon="26.546465">
<ele>106.448303</ele>
<time>2010-06-20T11:39:39Z</time>
<desc>lat.=56.097012, lon.=26.546465, Alt.=106.448303m. Speed=11.088000m/h.</desc>
<speed>3.080000</speed>
</trkpt>
<trkpt lat="56.097008" lon="26.546515">
<ele>106.655334</ele>
<time>2010-06-20T11:39:40Z</time>
<desc>lat.=56.097008, lon.=26.546515, Alt.=106.655334m. Speed=11.160000m/h.</desc>
<speed>3.100000</speed>
</trkpt>
<trkpt lat="56.097008" lon="26.546560">
<ele>106.676819</ele>
<time>2010-06-20T11:39:41Z</time>
<desc>lat.=56.097008, lon.=26.546560, Alt.=106.676819m. Speed=10.224000m/h.</desc>
<speed>2.840000</speed>
</trkpt>
<trkpt lat="56.097008" lon="26.546604">
<ele>106.819397</ele>
<time>2010-06-20T11:39:42Z</time>
<desc>lat.=56.097008, lon.=26.546604, Alt.=106.819397m. Speed=9.432000m/h.</desc>
<speed>2.620000</speed>
</trkpt>
<trkpt lat="56.097008" lon="26.546642">
<ele>106.842834</ele>
<time>2010-06-20T11:39:43Z</time>
<desc>lat.=56.097008, lon.=26.546642, Alt.=106.842834m. Speed=10.260000m/h.</desc>
<speed>2.850000</speed>
</trkpt>
<trkpt lat="56.097008" lon="26.546686">
<ele>106.782288</ele>
<time>2010-06-20T11:39:44Z</time>
<desc>lat.=56.097008, lon.=26.546686, Alt.=106.782288m. Speed=9.396000m/h.</desc>
<speed>2.610000</speed>
</trkpt>
<trkpt lat="56.097012" lon="26.546726">
<ele>106.711975</ele>
<time>2010-06-20T11:39:45Z</time>
<desc>lat.=56.097012, lon.=26.546726, Alt.=106.711975m. Speed=9.360000m/h.</desc>
<speed>2.600000</speed>
</trkpt>
<trkpt lat="56.097019" lon="26.546764">
<ele>106.731506</ele>
<time>2010-06-20T11:39:46Z</time>
<desc>lat.=56.097019, lon.=26.546764, Alt.=106.731506m. Speed=8.784000m/h.</desc>
<speed>2.440000</speed>
</trkpt>
<trkpt lat="56.097023" lon="26.546803">
<ele>106.700256</ele>
<time>2010-06-20T11:39:47Z</time>
<desc>lat.=56.097023, lon.=26.546803, Alt.=106.700256m. Speed=8.100000m/h.</desc>
<speed>2.250000</speed>
</trkpt>
<trkpt lat="56.097023" lon="26.546837">
<ele>106.122131</ele>
<time>2010-06-20T11:39:48Z</time>
<desc>lat.=56.097023, lon.=26.546837, Alt.=106.122131m. Speed=4.896000m/h.</desc>
<speed>1.360000</speed>
</trkpt>
<trkpt lat="56.097019" lon="26.546869">
<ele>106.364319</ele>
<time>2010-06-20T11:39:49Z</time>
<desc>lat.=56.097019, lon.=26.546869, Alt.=106.364319m. Speed=5.328000m/h.</desc>
<speed>1.480000</speed>
</trkpt>
<trkpt lat="56.097012" lon="26.546902">
<ele>106.626038</ele>
<time>2010-06-20T11:39:50Z</time>
<desc>lat.=56.097012, lon.=26.546902, Alt.=106.626038m. Speed=3.240000m/h.</desc>
<speed>0.900000</speed>
</trkpt>
<trkpt lat="56.097008" lon="26.546906">
<ele>106.536194</ele>
<time>2010-06-20T11:39:51Z</time>
<desc>lat.=56.097008, lon.=26.546906, Alt.=106.536194m. Speed=0.324000m/h.</desc>
<speed>0.090000</speed>
</trkpt>
<trkpt lat="56.097004" lon="26.546907">
<ele>106.577209</ele>
<time>2010-06-20T11:39:52Z</time>
<desc>lat.=56.097004, lon.=26.546907, Alt.=106.577209m. Speed=0.468000m/h.</desc>
<speed>0.130000</speed>
</trkpt>
<trkpt lat="56.097004" lon="26.546913">
<ele>106.553772</ele>
<time>2010-06-20T11:39:53Z</time>
<desc>lat.=56.097004, lon.=26.546913, Alt.=106.553772m. Speed=0.396000m/h.</desc>
<speed>0.110000</speed>
</trkpt>
<trkpt lat="56.097000" lon="26.546915">
<ele>106.545959</ele>
<time>2010-06-20T11:39:54Z</time>
<desc>lat.=56.097000, lon.=26.546915, Alt.=106.545959m. Speed=0.720000m/h.</desc>
<speed>0.200000</speed>
</trkpt>
<trkpt lat="56.097000" lon="26.546911">
<ele>106.542053</ele>
<time>2010-06-20T11:39:55Z</time>
<desc>lat.=56.097000, lon.=26.546911, Alt.=106.542053m. Speed=0.684000m/h.</desc>
<speed>0.190000</speed>
</trkpt>
<trkpt lat="56.097000" lon="26.546915">
<ele>106.545959</ele>
<time>2010-06-20T11:39:56Z</time>
<desc>lat.=56.097000, lon.=26.546915, Alt.=106.545959m. Speed=1.152000m/h.</desc>
<speed>0.320000</speed>
</trkpt>
<trkpt lat="56.097000" lon="26.546917">
<ele>106.544006</ele>
<time>2010-06-20T11:39:57Z</time>
<desc>lat.=56.097000, lon.=26.546917, Alt.=106.544006m. Speed=0.972000m/h.</desc>
<speed>0.270000</speed>
</trkpt>
<trkpt lat="56.096996" lon="26.546921">
<ele>106.559631</ele>
<time>2010-06-20T11:39:58Z</time>
<desc>lat.=56.096996, lon.=26.546921, Alt.=106.559631m. Speed=1.368000m/h.</desc>
<speed>0.380000</speed>
</trkpt>
<trkpt lat="56.096996" lon="26.546926">
<ele>106.569397</ele>
<time>2010-06-20T11:39:59Z</time>
<desc>lat.=56.096996, lon.=26.546926, Alt.=106.569397m. Speed=0.684000m/h.</desc>
<speed>0.190000</speed>
</trkpt>
<trkpt lat="56.096996" lon="26.546928">
<ele>106.585022</ele>
<time>2010-06-20T11:40:00Z</time>
<desc>lat.=56.096996, lon.=26.546928, Alt.=106.585022m. Speed=1.080000m/h.</desc>
<speed>0.300000</speed>
</trkpt>
<trkpt lat="56.096996" lon="26.546932">
<ele>106.647522</ele>
<time>2010-06-20T11:40:01Z</time>
<desc>lat.=56.096996, lon.=26.546932, Alt.=106.647522m. Speed=0.648000m/h.</desc>
<speed>0.180000</speed>
</trkpt>
<trkpt lat="56.096996" lon="26.546932">
<ele>106.729553</ele>
<time>2010-06-20T11:40:02Z</time>
<desc>lat.=56.096996, lon.=26.546932, Alt.=106.729553m. Speed=0.432000m/h.</desc>
<speed>0.120000</speed>
</trkpt>
<trkpt lat="56.096996" lon="26.546934">
<ele>106.776428</ele>
<time>2010-06-20T11:40:03Z</time>
<desc>lat.=56.096996, lon.=26.546934, Alt.=106.776428m. Speed=0.000000m/h.</desc>
<speed>0.000000</speed>
</trkpt>
<trkpt lat="56.096996" lon="26.546934">
<ele>106.780334</ele>
<time>2010-06-20T11:40:04Z</time>
<desc>lat.=56.096996, lon.=26.546934, Alt.=106.780334m. Speed=0.072000m/h.</desc>
<speed>0.020000</speed>
</trkpt>
<trkpt lat="56.096996" lon="26.546932">
<ele>106.809631</ele>
<time>2010-06-20T11:40:05Z</time>
<desc>lat.=56.096996, lon.=26.546932, Alt.=106.809631m. Speed=0.144000m/h.</desc>
<speed>0.040000</speed>
</trkpt>
<trkpt lat="56.096996" lon="26.546932">
<ele>106.835022</ele>
<time>2010-06-20T11:40:06Z</time>
<desc>lat.=56.096996, lon.=26.546932, Alt.=106.835022m. Speed=0.180000m/h.</desc>
<speed>0.050000</speed>
</trkpt>
<trkpt lat="56.096996" lon="26.546934">
<ele>106.850647</ele>
<time>2010-06-20T11:40:07Z</time>
<desc>lat.=56.096996, lon.=26.546934, Alt.=106.850647m. Speed=0.144000m/h.</desc>
<speed>0.040000</speed>
</trkpt>
<trkpt lat="56.096996" lon="26.546934">
<ele>106.866272</ele>
<time>2010-06-20T11:40:08Z</time>
<desc>lat.=56.096996, lon.=26.546934, Alt.=106.866272m. Speed=0.144000m/h.</desc>
<speed>0.040000</speed>
</trkpt>
<trkpt lat="56.096996" lon="26.546934">
<ele>106.883850</ele>
<time>2010-06-20T11:40:09Z</time>
<desc>lat.=56.096996, lon.=26.546934, Alt.=106.883850m. Speed=0.036000m/h.</desc>
<speed>0.010000</speed>
</trkpt>
<trkpt lat="56.096996" lon="26.546934">
<ele>106.887756</ele>
<time>2010-06-20T11:40:10Z</time>
<desc>lat.=56.096996, lon.=26.546934, Alt.=106.887756m. Speed=0.216000m/h.</desc>
<speed>0.060000</speed>
</trkpt>
<trkpt lat="56.096996" lon="26.546934">
<ele>106.846741</ele>
<time>2010-06-20T11:40:11Z</time>
<desc>lat.=56.096996, lon.=26.546934, Alt.=106.846741m. Speed=0.072000m/h.</desc>
<speed>0.020000</speed>
</trkpt>
<trkpt lat="56.096996" lon="26.546934">
<ele>106.807678</ele>
<time>2010-06-20T11:40:12Z</time>
<desc>lat.=56.096996, lon.=26.546934, Alt.=106.807678m. Speed=0.072000m/h.</desc>
<speed>0.020000</speed>
</trkpt>
<trkpt lat="56.096996" lon="26.546934">
<ele>106.803772</ele>
<time>2010-06-20T11:40:13Z</time>
<desc>lat.=56.096996, lon.=26.546934, Alt.=106.803772m. Speed=0.108000m/h.</desc>
<speed>0.030000</speed>
</trkpt>
<trkpt lat="56.096996" lon="26.546934">
<ele>106.823303</ele>
<time>2010-06-20T11:40:14Z</time>
<desc>lat.=56.096996, lon.=26.546934, Alt.=106.823303m. Speed=0.036000m/h.</desc>
<speed>0.010000</speed>
</trkpt>
<trkpt lat="56.096996" lon="26.546934">
<ele>106.825256</ele>
<time>2010-06-20T11:40:15Z</time>
<desc>lat.=56.096996, lon.=26.546934, Alt.=106.825256m. Speed=0.144000m/h.</desc>
<speed>0.040000</speed>
</trkpt>
<trkpt lat="56.096996" lon="26.546934">
<ele>106.825256</ele>
<time>2010-06-20T11:40:16Z</time>
<desc>lat.=56.096996, lon.=26.546934, Alt.=106.825256m. Speed=0.072000m/h.</desc>
<speed>0.020000</speed>
</trkpt>
<trkpt lat="56.096996" lon="26.546934">
<ele>106.836975</ele>
<time>2010-06-20T11:40:17Z</time>
<desc>lat.=56.096996, lon.=26.546934, Alt.=106.836975m. Speed=0.000000m/h.</desc>
<speed>0.000000</speed>
</trkpt>
<trkpt lat="56.096996" lon="26.546934">
<ele>106.842834</ele>
<time>2010-06-20T11:40:18Z</time>
<desc>lat.=56.096996, lon.=26.546934, Alt.=106.842834m. Speed=0.072000m/h.</desc>
<speed>0.020000</speed>
</trkpt>
<trkpt lat="56.096996" lon="26.546934">
<ele>106.848694</ele>
<time>2010-06-20T11:40:19Z</time>
<desc>lat.=56.096996, lon.=26.546934, Alt.=106.848694m. Speed=0.000000m/h.</desc>
<speed>0.000000</speed>
</trkpt>
<trkpt lat="56.096996" lon="26.546934">
<ele>106.846741</ele>
<time>2010-06-20T11:40:20Z</time>
<desc>lat.=56.096996, lon.=26.546934, Alt.=106.846741m. Speed=0.000000m/h.</desc>
<speed>0.000000</speed>
</trkpt>
<trkpt lat="56.096996" lon="26.546934">
<ele>106.852600</ele>
<time>2010-06-20T11:40:21Z</time>
<desc>lat.=56.096996, lon.=26.546934, Alt.=106.852600m. Speed=0.180000m/h.</desc>
<speed>0.050000</speed>
</trkpt>
<trkpt lat="56.096996" lon="26.546934">
<ele>106.850647</ele>
<time>2010-06-20T11:40:22Z</time>
<desc>lat.=56.096996, lon.=26.546934, Alt.=106.850647m. Speed=0.072000m/h.</desc>
<speed>0.020000</speed>
</trkpt>
<trkpt lat="56.096996" lon="26.546934">
<ele>106.842834</ele>
<time>2010-06-20T11:40:23Z</time>
<desc>lat.=56.096996, lon.=26.546934, Alt.=106.842834m. Speed=0.036000m/h.</desc>
<speed>0.010000</speed>
</trkpt>
<trkpt lat="56.096996" lon="26.546934">
<ele>106.833069</ele>
<time>2010-06-20T11:40:24Z</time>
<desc>lat.=56.096996, lon.=26.546934, Alt.=106.833069m. Speed=0.108000m/h.</desc>
<speed>0.030000</speed>
</trkpt>
<trkpt lat="56.096996" lon="26.546934">
<ele>106.825256</ele>
<time>2010-06-20T11:40:25Z</time>
<desc>lat.=56.096996, lon.=26.546934, Alt.=106.825256m. Speed=0.000000m/h.</desc>
<speed>0.000000</speed>
</trkpt>
<trkpt lat="56.096996" lon="26.546934">
<ele>106.831116</ele>
<time>2010-06-20T11:40:26Z</time>
<desc>lat.=56.096996, lon.=26.546934, Alt.=106.831116m. Speed=0.036000m/h.</desc>
<speed>0.010000</speed>
</trkpt>
<trkpt lat="56.096996" lon="26.546934">
<ele>106.833069</ele>
<time>2010-06-20T11:40:27Z</time>
<desc>lat.=56.096996, lon.=26.546934, Alt.=106.833069m. Speed=0.000000m/h.</desc>
<speed>0.000000</speed>
</trkpt>
<trkpt lat="56.096996" lon="26.546934">
<ele>106.833069</ele>
<time>2010-06-20T11:40:28Z</time>
<desc>lat.=56.096996, lon.=26.546934, Alt.=106.833069m. Speed=0.000000m/h.</desc>
<speed>0.000000</speed>
</trkpt>
<trkpt lat="56.096996" lon="26.546934">
<ele>106.831116</ele>
<time>2010-06-20T11:40:29Z</time>
<desc>lat.=56.096996, lon.=26.546934, Alt.=106.831116m. Speed=0.036000m/h.</desc>
<speed>0.010000</speed>
</trkpt>
<trkpt lat="56.096996" lon="26.546934">
<ele>106.827209</ele>
<time>2010-06-20T11:40:30Z</time>
<desc>lat.=56.096996, lon.=26.546934, Alt.=106.827209m. Speed=0.000000m/h.</desc>
<speed>0.000000</speed>
</trkpt>
<trkpt lat="56.096996" lon="26.546934">
<ele>106.829163</ele>
<time>2010-06-20T11:40:31Z</time>
<desc>lat.=56.096996, lon.=26.546934, Alt.=106.829163m. Speed=0.000000m/h.</desc>
<speed>0.000000</speed>
</trkpt>
<trkpt lat="56.096996" lon="26.546934">
<ele>106.829163</ele>
<time>2010-06-20T11:40:32Z</time>
<desc>lat.=56.096996, lon.=26.546934, Alt.=106.829163m. Speed=0.036000m/h.</desc>
<speed>0.010000</speed>
</trkpt>
<trkpt lat="56.096996" lon="26.546934">
<ele>106.827209</ele>
<time>2010-06-20T11:40:33Z</time>
<desc>lat.=56.096996, lon.=26.546934, Alt.=106.827209m. Speed=0.108000m/h.</desc>
<speed>0.030000</speed>
</trkpt>
<trkpt lat="56.096996" lon="26.546934">
<ele>106.825256</ele>
<time>2010-06-20T11:40:34Z</time>
<desc>lat.=56.096996, lon.=26.546934, Alt.=106.825256m. Speed=0.000000m/h.</desc>
<speed>0.000000</speed>
</trkpt>
<trkpt lat="56.096996" lon="26.546934">
<ele>106.827209</ele>
<time>2010-06-20T11:40:35Z</time>
<desc>lat.=56.096996, lon.=26.546934, Alt.=106.827209m. Speed=0.036000m/h.</desc>
<speed>0.010000</speed>
</trkpt>
<trkpt lat="56.096996" lon="26.546934">
<ele>106.825256</ele>
<time>2010-06-20T11:40:36Z</time>
<desc>lat.=56.096996, lon.=26.546934, Alt.=106.825256m. Speed=0.000000m/h.</desc>
<speed>0.000000</speed>
</trkpt>
<trkpt lat="56.096996" lon="26.546934">
<ele>106.827209</ele>
<time>2010-06-20T11:40:37Z</time>
<desc>lat.=56.096996, lon.=26.546934, Alt.=106.827209m. Speed=0.000000m/h.</desc>
<speed>0.000000</speed>
</trkpt>
<trkpt lat="56.096996" lon="26.546934">
<ele>106.829163</ele>
<time>2010-06-20T11:40:38Z</time>
<desc>lat.=56.096996, lon.=26.546934, Alt.=106.829163m. Speed=0.000000m/h.</desc>
<speed>0.000000</speed>
</trkpt>
<trkpt lat="56.096996" lon="26.546934">
<ele>106.825256</ele>
<time>2010-06-20T11:40:39Z</time>
<desc>lat.=56.096996, lon.=26.546934, Alt.=106.825256m. Speed=0.000000m/h.</desc>
<speed>0.000000</speed>
</trkpt>
<trkpt lat="56.096996" lon="26.546934">
<ele>106.825256</ele>
<time>2010-06-20T11:40:40Z</time>
<desc>lat.=56.096996, lon.=26.546934, Alt.=106.825256m. Speed=0.036000m/h.</desc>
<speed>0.010000</speed>
</trkpt>
<trkpt lat="56.096996" lon="26.546934">
<ele>106.823303</ele>
<time>2010-06-20T11:40:41Z</time>
<desc>lat.=56.096996, lon.=26.546934, Alt.=106.823303m. Speed=0.036000m/h.</desc>
<speed>0.010000</speed>
</trkpt>
<trkpt lat="56.096996" lon="26.546934">
<ele>106.823303</ele>
<time>2010-06-20T11:40:42Z</time>
<desc>lat.=56.096996, lon.=26.546934, Alt.=106.823303m. Speed=0.072000m/h.</desc>
<speed>0.020000</speed>
</trkpt>
<trkpt lat="56.096996" lon="26.546934">
<ele>106.823303</ele>
<time>2010-06-20T11:40:43Z</time>
<desc>lat.=56.096996, lon.=26.546934, Alt.=106.823303m. Speed=0.036000m/h.</desc>
<speed>0.010000</speed>
</trkpt>
<trkpt lat="56.096996" lon="26.546934">
<ele>106.829163</ele>
<time>2010-06-20T11:40:44Z</time>
<desc>lat.=56.096996, lon.=26.546934, Alt.=106.829163m. Speed=0.072000m/h.</desc>
<speed>0.020000</speed>
</trkpt>
<trkpt lat="56.096996" lon="26.546934">
<ele>106.827209</ele>
<time>2010-06-20T11:40:45Z</time>
<desc>lat.=56.096996, lon.=26.546934, Alt.=106.827209m. Speed=0.432000m/h.</desc>
<speed>0.120000</speed>
</trkpt>
<trkpt lat="56.096996" lon="26.546934">
<ele>106.825256</ele>
<time>2010-06-20T11:40:46Z</time>
<desc>lat.=56.096996, lon.=26.546934, Alt.=106.825256m. Speed=0.360000m/h.</desc>
<speed>0.100000</speed>
</trkpt>
<trkpt lat="56.096996" lon="26.546932">
<ele>106.836975</ele>
<time>2010-06-20T11:40:47Z</time>
<desc>lat.=56.096996, lon.=26.546932, Alt.=106.836975m. Speed=0.108000m/h.</desc>
<speed>0.030000</speed>
</trkpt>
<trkpt lat="56.096996" lon="26.546932">
<ele>106.844788</ele>
<time>2010-06-20T11:40:48Z</time>
<desc>lat.=56.096996, lon.=26.546932, Alt.=106.844788m. Speed=0.216000m/h.</desc>
<speed>0.060000</speed>
</trkpt>
<trkpt lat="56.096996" lon="26.546932">
<ele>106.850647</ele>
<time>2010-06-20T11:40:49Z</time>
<desc>lat.=56.096996, lon.=26.546932, Alt.=106.850647m. Speed=0.144000m/h.</desc>
<speed>0.040000</speed>
</trkpt>
<trkpt lat="56.096996" lon="26.546932">
<ele>106.854553</ele>
<time>2010-06-20T11:40:50Z</time>
<desc>lat.=56.096996, lon.=26.546932, Alt.=106.854553m. Speed=0.108000m/h.</desc>
<speed>0.030000</speed>
</trkpt>
<trkpt lat="56.096996" lon="26.546932">
<ele>106.850647</ele>
<time>2010-06-20T11:40:51Z</time>
<desc>lat.=56.096996, lon.=26.546932, Alt.=106.850647m. Speed=0.036000m/h.</desc>
<speed>0.010000</speed>
</trkpt>
<trkpt lat="56.096996" lon="26.546932">
<ele>106.846741</ele>
<time>2010-06-20T11:40:52Z</time>
<desc>lat.=56.096996, lon.=26.546932, Alt.=106.846741m. Speed=0.000000m/h.</desc>
<speed>0.000000</speed>
</trkpt>
<trkpt lat="56.096996" lon="26.546932">
<ele>106.848694</ele>
<time>2010-06-20T11:40:53Z</time>
<desc>lat.=56.096996, lon.=26.546932, Alt.=106.848694m. Speed=0.000000m/h.</desc>
<speed>0.000000</speed>
</trkpt>
<trkpt lat="56.096996" lon="26.546932">
<ele>106.848694</ele>
<time>2010-06-20T11:40:54Z</time>
<desc>lat.=56.096996, lon.=26.546932, Alt.=106.848694m. Speed=0.000000m/h.</desc>
<speed>0.000000</speed>
</trkpt>
<trkpt lat="56.096996" lon="26.546932">
<ele>106.850647</ele>
<time>2010-06-20T11:40:55Z</time>
<desc>lat.=56.096996, lon.=26.546932, Alt.=106.850647m. Speed=0.036000m/h.</desc>
<speed>0.010000</speed>
</trkpt>
<trkpt lat="56.096996" lon="26.546932">
<ele>106.854553</ele>
<time>2010-06-20T11:40:56Z</time>
<desc>lat.=56.096996, lon.=26.546932, Alt.=106.854553m. Speed=0.000000m/h.</desc>
<speed>0.000000</speed>
</trkpt>
<trkpt lat="56.096996" lon="26.546932">
<ele>106.858459</ele>
<time>2010-06-20T11:40:57Z</time>
<desc>lat.=56.096996, lon.=26.546932, Alt.=106.858459m. Speed=0.000000m/h.</desc>
<speed>0.000000</speed>
</trkpt>
<trkpt lat="56.096996" lon="26.546932">
<ele>106.862366</ele>
<time>2010-06-20T11:40:58Z</time>
<desc>lat.=56.096996, lon.=26.546932, Alt.=106.862366m. Speed=0.000000m/h.</desc>
<speed>0.000000</speed>
</trkpt>
<trkpt lat="56.096996" lon="26.546932">
<ele>106.866272</ele>
<time>2010-06-20T11:40:59Z</time>
<desc>lat.=56.096996, lon.=26.546932, Alt.=106.866272m. Speed=0.000000m/h.</desc>
<speed>0.000000</speed>
</trkpt>
<trkpt lat="56.096996" lon="26.546932">
<ele>106.868225</ele>
<time>2010-06-20T11:41:00Z</time>
<desc>lat.=56.096996, lon.=26.546932, Alt.=106.868225m. Speed=0.000000m/h.</desc>
<speed>0.000000</speed>
</trkpt>
<trkpt lat="56.096996" lon="26.546932">
<ele>106.872131</ele>
<time>2010-06-20T11:41:01Z</time>
<desc>lat.=56.096996, lon.=26.546932, Alt.=106.872131m. Speed=0.000000m/h.</desc>
<speed>0.000000</speed>
</trkpt>
<trkpt lat="56.096996" lon="26.546932">
<ele>106.872131</ele>
<time>2010-06-20T11:41:02Z</time>
<desc>lat.=56.096996, lon.=26.546932, Alt.=106.872131m. Speed=0.000000m/h.</desc>
<speed>0.000000</speed>
</trkpt>
<trkpt lat="56.096996" lon="26.546932">
<ele>106.874084</ele>
<time>2010-06-20T11:41:03Z</time>
<desc>lat.=56.096996, lon.=26.546932, Alt.=106.874084m. Speed=0.000000m/h.</desc>
<speed>0.000000</speed>
</trkpt>
<trkpt lat="56.096996" lon="26.546932">
<ele>106.876038</ele>
<time>2010-06-20T11:41:04Z</time>
<desc>lat.=56.096996, lon.=26.546932, Alt.=106.876038m. Speed=0.000000m/h.</desc>
<speed>0.000000</speed>
</trkpt>
<trkpt lat="56.096996" lon="26.546932">
<ele>106.879944</ele>
<time>2010-06-20T11:41:05Z</time>
<desc>lat.=56.096996, lon.=26.546932, Alt.=106.879944m. Speed=0.000000m/h.</desc>
<speed>0.000000</speed>
</trkpt>
<trkpt lat="56.096996" lon="26.546932">
<ele>106.879944</ele>
<time>2010-06-20T11:41:06Z</time>
<desc>lat.=56.096996, lon.=26.546932, Alt.=106.879944m. Speed=0.000000m/h.</desc>
<speed>0.000000</speed>
</trkpt>
<trkpt lat="56.096996" lon="26.546932">
<ele>106.879944</ele>
<time>2010-06-20T11:41:07Z</time>
<desc>lat.=56.096996, lon.=26.546932, Alt.=106.879944m. Speed=0.000000m/h.</desc>
<speed>0.000000</speed>
</trkpt>
<trkpt lat="56.096996" lon="26.546932">
<ele>106.881897</ele>
<time>2010-06-20T11:41:08Z</time>
<desc>lat.=56.096996, lon.=26.546932, Alt.=106.881897m. Speed=0.000000m/h.</desc>
<speed>0.000000</speed>
</trkpt>
<trkpt lat="56.096996" lon="26.546932">
<ele>106.883850</ele>
<time>2010-06-20T11:41:09Z</time>
<desc>lat.=56.096996, lon.=26.546932, Alt.=106.883850m. Speed=0.000000m/h.</desc>
<speed>0.000000</speed>
</trkpt>
<trkpt lat="56.096996" lon="26.546932">
<ele>106.887756</ele>
<time>2010-06-20T11:41:10Z</time>
<desc>lat.=56.096996, lon.=26.546932, Alt.=106.887756m. Speed=0.000000m/h.</desc>
<speed>0.000000</speed>
</trkpt>
<trkpt lat="56.096996" lon="26.546932">
<ele>106.887756</ele>
<time>2010-06-20T11:41:11Z</time>
<desc>lat.=56.096996, lon.=26.546932, Alt.=106.887756m. Speed=0.000000m/h.</desc>
<speed>0.000000</speed>
</trkpt>
<trkpt lat="56.096996" lon="26.546932">
<ele>106.887756</ele>
<time>2010-06-20T11:41:12Z</time>
<desc>lat.=56.096996, lon.=26.546932, Alt.=106.887756m. Speed=0.000000m/h.</desc>
<speed>0.000000</speed>
</trkpt>
<trkpt lat="56.096996" lon="26.546932">
<ele>106.887756</ele>
<time>2010-06-20T11:41:13Z</time>
<desc>lat.=56.096996, lon.=26.546932, Alt.=106.887756m. Speed=0.000000m/h.</desc>
<speed>0.000000</speed>
</trkpt>
<trkpt lat="56.096996" lon="26.546932">
<ele>106.893616</ele>
<time>2010-06-20T11:41:14Z</time>
<desc>lat.=56.096996, lon.=26.546932, Alt.=106.893616m. Speed=0.000000m/h.</desc>
<speed>0.000000</speed>
</trkpt>
<trkpt lat="56.096996" lon="26.546932">
<ele>106.893616</ele>
<time>2010-06-20T11:41:15Z</time>
<desc>lat.=56.096996, lon.=26.546932, Alt.=106.893616m. Speed=0.000000m/h.</desc>
<speed>0.000000</speed>
</trkpt>
<trkpt lat="56.096996" lon="26.546932">
<ele>106.889709</ele>
<time>2010-06-20T11:41:16Z</time>
<desc>lat.=56.096996, lon.=26.546932, Alt.=106.889709m. Speed=0.000000m/h.</desc>
<speed>0.000000</speed>
</trkpt>
<trkpt lat="56.096996" lon="26.546932">
<ele>106.887756</ele>
<time>2010-06-20T11:41:17Z</time>
<desc>lat.=56.096996, lon.=26.546932, Alt.=106.887756m. Speed=0.000000m/h.</desc>
<speed>0.000000</speed>
</trkpt>
<trkpt lat="56.096996" lon="26.546930">
<ele>106.883850</ele>
<time>2010-06-20T11:41:18Z</time>
<desc>lat.=56.096996, lon.=26.546930, Alt.=106.883850m. Speed=0.000000m/h.</desc>
<speed>0.000000</speed>
</trkpt>
<trkpt lat="56.096996" lon="26.546930">
<ele>106.881897</ele>
<time>2010-06-20T11:41:19Z</time>
<desc>lat.=56.096996, lon.=26.546930, Alt.=106.881897m. Speed=0.000000m/h.</desc>
<speed>0.000000</speed>
</trkpt>
<trkpt lat="56.096996" lon="26.546930">
<ele>106.881897</ele>
<time>2010-06-20T11:41:20Z</time>
<desc>lat.=56.096996, lon.=26.546930, Alt.=106.881897m. Speed=0.000000m/h.</desc>
<speed>0.000000</speed>
</trkpt>
<trkpt lat="56.096996" lon="26.546930">
<ele>106.883850</ele>
<time>2010-06-20T11:41:21Z</time>
<desc>lat.=56.096996, lon.=26.546930, Alt.=106.883850m. Speed=0.000000m/h.</desc>
<speed>0.000000</speed>
</trkpt>
<trkpt lat="56.096996" lon="26.546930">
<ele>106.889709</ele>
<time>2010-06-20T11:41:22Z</time>
<desc>lat.=56.096996, lon.=26.546930, Alt.=106.889709m. Speed=0.000000m/h.</desc>
<speed>0.000000</speed>
</trkpt>
<trkpt lat="56.096996" lon="26.546930">
<ele>106.891663</ele>
<time>2010-06-20T11:41:23Z</time>
<desc>lat.=56.096996, lon.=26.546930, Alt.=106.891663m. Speed=0.036000m/h.</desc>
<speed>0.010000</speed>
</trkpt>
<trkpt lat="56.096996" lon="26.546930">
<ele>106.891663</ele>
<time>2010-06-20T11:41:24Z</time>
<desc>lat.=56.096996, lon.=26.546930, Alt.=106.891663m. Speed=0.000000m/h.</desc>
<speed>0.000000</speed>
</trkpt>
<trkpt lat="56.096996" lon="26.546930">
<ele>106.891663</ele>
<time>2010-06-20T11:41:25Z</time>
<desc>lat.=56.096996, lon.=26.546930, Alt.=106.891663m. Speed=0.000000m/h.</desc>
<speed>0.000000</speed>
</trkpt>
<trkpt lat="56.096996" lon="26.546930">
<ele>106.893616</ele>
<time>2010-06-20T11:41:26Z</time>
<desc>lat.=56.096996, lon.=26.546930, Alt.=106.893616m. Speed=0.000000m/h.</desc>
<speed>0.000000</speed>
</trkpt>
<trkpt lat="56.096996" lon="26.546930">
<ele>106.897522</ele>
<time>2010-06-20T11:41:27Z</time>
<desc>lat.=56.096996, lon.=26.546930, Alt.=106.897522m. Speed=0.000000m/h.</desc>
<speed>0.000000</speed>
</trkpt>
<trkpt lat="56.096996" lon="26.546930">
<ele>106.901428</ele>
<time>2010-06-20T11:41:28Z</time>
<desc>lat.=56.096996, lon.=26.546930, Alt.=106.901428m. Speed=0.000000m/h.</desc>
<speed>0.000000</speed>
</trkpt>
<trkpt lat="56.096996" lon="26.546930">
<ele>106.903381</ele>
<time>2010-06-20T11:41:29Z</time>
<desc>lat.=56.096996, lon.=26.546930, Alt.=106.903381m. Speed=0.000000m/h.</desc>
<speed>0.000000</speed>
</trkpt>
<trkpt lat="56.096996" lon="26.546930">
<ele>106.905334</ele>
<time>2010-06-20T11:41:30Z</time>
<desc>lat.=56.096996, lon.=26.546930, Alt.=106.905334m. Speed=0.000000m/h.</desc>
<speed>0.000000</speed>
</trkpt>
<trkpt lat="56.096996" lon="26.546930">
<ele>106.909241</ele>
<time>2010-06-20T11:41:31Z</time>
<desc>lat.=56.096996, lon.=26.546930, Alt.=106.909241m. Speed=0.000000m/h.</desc>
<speed>0.000000</speed>
</trkpt>
<trkpt lat="56.096996" lon="26.546930">
<ele>106.911194</ele>
<time>2010-06-20T11:41:32Z</time>
<desc>lat.=56.096996, lon.=26.546930, Alt.=106.911194m. Speed=0.000000m/h.</desc>
<speed>0.000000</speed>
</trkpt>
<trkpt lat="56.096996" lon="26.546930">
<ele>106.913147</ele>
<time>2010-06-20T11:41:33Z</time>
<desc>lat.=56.096996, lon.=26.546930, Alt.=106.913147m. Speed=0.000000m/h.</desc>
<speed>0.000000</speed>
</trkpt>
<trkpt lat="56.096996" lon="26.546930">
<ele>106.915100</ele>
<time>2010-06-20T11:41:34Z</time>
<desc>lat.=56.096996, lon.=26.546930, Alt.=106.915100m. Speed=0.000000m/h.</desc>
<speed>0.000000</speed>
</trkpt>
<trkpt lat="56.096996" lon="26.546930">
<ele>106.919006</ele>
<time>2010-06-20T11:41:35Z</time>
<desc>lat.=56.096996, lon.=26.546930, Alt.=106.919006m. Speed=0.000000m/h.</desc>
<speed>0.000000</speed>
</trkpt>
<trkpt lat="56.096996" lon="26.546930">
<ele>106.920959</ele>
<time>2010-06-20T11:41:36Z</time>
<desc>lat.=56.096996, lon.=26.546930, Alt.=106.920959m. Speed=0.000000m/h.</desc>
<speed>0.000000</speed>
</trkpt>
<trkpt lat="56.096996" lon="26.546930">
<ele>106.924866</ele>
<time>2010-06-20T11:41:37Z</time>
<desc>lat.=56.096996, lon.=26.546930, Alt.=106.924866m. Speed=0.000000m/h.</desc>
<speed>0.000000</speed>
</trkpt>
<trkpt lat="56.096996" lon="26.546930">
<ele>106.926819</ele>
<time>2010-06-20T11:41:38Z</time>
<desc>lat.=56.096996, lon.=26.546930, Alt.=106.926819m. Speed=0.000000m/h.</desc>
<speed>0.000000</speed>
</trkpt>
<trkpt lat="56.096996" lon="26.546930">
<ele>106.928772</ele>
<time>2010-06-20T11:41:39Z</time>
<desc>lat.=56.096996, lon.=26.546930, Alt.=106.928772m. Speed=0.000000m/h.</desc>
<speed>0.000000</speed>
</trkpt>
<trkpt lat="56.096996" lon="26.546930">
<ele>106.930725</ele>
<time>2010-06-20T11:41:40Z</time>
<desc>lat.=56.096996, lon.=26.546930, Alt.=106.930725m. Speed=0.036000m/h.</desc>
<speed>0.010000</speed>
</trkpt>
<trkpt lat="56.096996" lon="26.546930">
<ele>106.932678</ele>
<time>2010-06-20T11:41:41Z</time>
<desc>lat.=56.096996, lon.=26.546930, Alt.=106.932678m. Speed=0.000000m/h.</desc>
<speed>0.000000</speed>
</trkpt>
<trkpt lat="56.096996" lon="26.546930">
<ele>106.936584</ele>
<time>2010-06-20T11:41:42Z</time>
<desc>lat.=56.096996, lon.=26.546930, Alt.=106.936584m. Speed=0.000000m/h.</desc>
<speed>0.000000</speed>
</trkpt>
<trkpt lat="56.096996" lon="26.546930">
<ele>106.938538</ele>
<time>2010-06-20T11:41:43Z</time>
<desc>lat.=56.096996, lon.=26.546930, Alt.=106.938538m. Speed=0.000000m/h.</desc>
<speed>0.000000</speed>
</trkpt>
<trkpt lat="56.096996" lon="26.546930">
<ele>106.942444</ele>
<time>2010-06-20T11:41:44Z</time>
<desc>lat.=56.096996, lon.=26.546930, Alt.=106.942444m. Speed=0.000000m/h.</desc>
<speed>0.000000</speed>
</trkpt>
<trkpt lat="56.096996" lon="26.546930">
<ele>106.944397</ele>
<time>2010-06-20T11:41:45Z</time>
<desc>lat.=56.096996, lon.=26.546930, Alt.=106.944397m. Speed=0.000000m/h.</desc>
<speed>0.000000</speed>
</trkpt>
<trkpt lat="56.096996" lon="26.546930">
<ele>106.948303</ele>
<time>2010-06-20T11:41:46Z</time>
<desc>lat.=56.096996, lon.=26.546930, Alt.=106.948303m. Speed=0.000000m/h.</desc>
<speed>0.000000</speed>
</trkpt>
<trkpt lat="56.096996" lon="26.546930">
<ele>106.950256</ele>
<time>2010-06-20T11:41:47Z</time>
<desc>lat.=56.096996, lon.=26.546930, Alt.=106.950256m. Speed=0.000000m/h.</desc>
<speed>0.000000</speed>
</trkpt>
<trkpt lat="56.096996" lon="26.546930">
<ele>106.952209</ele>
<time>2010-06-20T11:41:48Z</time>
<desc>lat.=56.096996, lon.=26.546930, Alt.=106.952209m. Speed=0.000000m/h.</desc>
<speed>0.000000</speed>
</trkpt>
<trkpt lat="56.096996" lon="26.546930">
<ele>106.954163</ele>
<time>2010-06-20T11:41:49Z</time>
<desc>lat.=56.096996, lon.=26.546930, Alt.=106.954163m. Speed=0.000000m/h.</desc>
<speed>0.000000</speed>
</trkpt>
<trkpt lat="56.096996" lon="26.546930">
<ele>106.956116</ele>
<time>2010-06-20T11:41:50Z</time>
<desc>lat.=56.096996, lon.=26.546930, Alt.=106.956116m. Speed=0.000000m/h.</desc>
<speed>0.000000</speed>
</trkpt>
<trkpt lat="56.096996" lon="26.546930">
<ele>106.958069</ele>
<time>2010-06-20T11:41:51Z</time>
<desc>lat.=56.096996, lon.=26.546930, Alt.=106.958069m. Speed=0.000000m/h.</desc>
<speed>0.000000</speed>
</trkpt>
<trkpt lat="56.096996" lon="26.546930">
<ele>106.958069</ele>
<time>2010-06-20T11:41:52Z</time>
<desc>lat.=56.096996, lon.=26.546930, Alt.=106.958069m. Speed=0.000000m/h.</desc>
<speed>0.000000</speed>
</trkpt>
<trkpt lat="56.096996" lon="26.546930">
<ele>106.960022</ele>
<time>2010-06-20T11:41:53Z</time>
<desc>lat.=56.096996, lon.=26.546930, Alt.=106.960022m. Speed=0.000000m/h.</desc>
<speed>0.000000</speed>
</trkpt>
<trkpt lat="56.096996" lon="26.546930">
<ele>106.960022</ele>
<time>2010-06-20T11:41:54Z</time>
<desc>lat.=56.096996, lon.=26.546930, Alt.=106.960022m. Speed=0.000000m/h.</desc>
<speed>0.000000</speed>
</trkpt>
<trkpt lat="56.096996" lon="26.546930">
<ele>106.961975</ele>
<time>2010-06-20T11:41:55Z</time>
<desc>lat.=56.096996, lon.=26.546930, Alt.=106.961975m. Speed=0.000000m/h.</desc>
<speed>0.000000</speed>
</trkpt>
<trkpt lat="56.096996" lon="26.546930">
<ele>106.963928</ele>
<time>2010-06-20T11:41:56Z</time>
<desc>lat.=56.096996, lon.=26.546930, Alt.=106.963928m. Speed=0.000000m/h.</desc>
<speed>0.000000</speed>
</trkpt>
<trkpt lat="56.096996" lon="26.546930">
<ele>106.963928</ele>
<time>2010-06-20T11:41:57Z</time>
<desc>lat.=56.096996, lon.=26.546930, Alt.=106.963928m. Speed=0.000000m/h.</desc>
<speed>0.000000</speed>
</trkpt>
<trkpt lat="56.096996" lon="26.546930">
<ele>106.963928</ele>
<time>2010-06-20T11:41:58Z</time>
<desc>lat.=56.096996, lon.=26.546930, Alt.=106.963928m. Speed=0.000000m/h.</desc>
<speed>0.000000</speed>
</trkpt>
<trkpt lat="56.096996" lon="26.546930">
<ele>106.963928</ele>
<time>2010-06-20T11:41:59Z</time>
<desc>lat.=56.096996, lon.=26.546930, Alt.=106.963928m. Speed=0.000000m/h.</desc>
<speed>0.000000</speed>
</trkpt>
<trkpt lat="56.096996" lon="26.546930">
<ele>106.963928</ele>
<time>2010-06-20T11:42:00Z</time>
<desc>lat.=56.096996, lon.=26.546930, Alt.=106.963928m. Speed=0.000000m/h.</desc>
<speed>0.000000</speed>
</trkpt>
<trkpt lat="56.096996" lon="26.546930">
<ele>106.963928</ele>
<time>2010-06-20T11:42:01Z</time>
<desc>lat.=56.096996, lon.=26.546930, Alt.=106.963928m. Speed=0.000000m/h.</desc>
<speed>0.000000</speed>
</trkpt>
<trkpt lat="56.096996" lon="26.546930">
<ele>106.963928</ele>
<time>2010-06-20T11:42:02Z</time>
<desc>lat.=56.096996, lon.=26.546930, Alt.=106.963928m. Speed=0.000000m/h.</desc>
<speed>0.000000</speed>
</trkpt>
<trkpt lat="56.096996" lon="26.546930">
<ele>106.961975</ele>
<time>2010-06-20T11:42:03Z</time>
<desc>lat.=56.096996, lon.=26.546930, Alt.=106.961975m. Speed=0.000000m/h.</desc>
<speed>0.000000</speed>
</trkpt>
<trkpt lat="56.096996" lon="26.546930">
<ele>106.961975</ele>
<time>2010-06-20T11:42:04Z</time>
<desc>lat.=56.096996, lon.=26.546930, Alt.=106.961975m. Speed=0.000000m/h.</desc>
<speed>0.000000</speed>
</trkpt>
<trkpt lat="56.096996" lon="26.546930">
<ele>106.961975</ele>
<time>2010-06-20T11:42:05Z</time>
<desc>lat.=56.096996, lon.=26.546930, Alt.=106.961975m. Speed=0.000000m/h.</desc>
<speed>0.000000</speed>
</trkpt>
<trkpt lat="56.096996" lon="26.546930">
<ele>106.963928</ele>
<time>2010-06-20T11:42:06Z</time>
<desc>lat.=56.096996, lon.=26.546930, Alt.=106.963928m. Speed=0.000000m/h.</desc>
<speed>0.000000</speed>
</trkpt>
<trkpt lat="56.096996" lon="26.546930">
<ele>106.963928</ele>
<time>2010-06-20T11:42:07Z</time>
<desc>lat.=56.096996, lon.=26.546930, Alt.=106.963928m. Speed=0.000000m/h.</desc>
<speed>0.000000</speed>
</trkpt>
<trkpt lat="56.096996" lon="26.546930">
<ele>106.965881</ele>
<time>2010-06-20T11:42:08Z</time>
<desc>lat.=56.096996, lon.=26.546930, Alt.=106.965881m. Speed=0.000000m/h.</desc>
<speed>0.000000</speed>
</trkpt>
<trkpt lat="56.096996" lon="26.546930">
<ele>106.965881</ele>
<time>2010-06-20T11:42:09Z</time>
<desc>lat.=56.096996, lon.=26.546930, Alt.=106.965881m. Speed=0.000000m/h.</desc>
<speed>0.000000</speed>
</trkpt>
<trkpt lat="56.096996" lon="26.546930">
<ele>106.965881</ele>
<time>2010-06-20T11:42:10Z</time>
<desc>lat.=56.096996, lon.=26.546930, Alt.=106.965881m. Speed=0.000000m/h.</desc>
<speed>0.000000</speed>
</trkpt>
<trkpt lat="56.096996" lon="26.546930">
<ele>106.967834</ele>
<time>2010-06-20T11:42:11Z</time>
<desc>lat.=56.096996, lon.=26.546930, Alt.=106.967834m. Speed=0.000000m/h.</desc>
<speed>0.000000</speed>
</trkpt>
<trkpt lat="56.096996" lon="26.546930">
<ele>106.967834</ele>
<time>2010-06-20T11:42:12Z</time>
<desc>lat.=56.096996, lon.=26.546930, Alt.=106.967834m. Speed=0.000000m/h.</desc>
<speed>0.000000</speed>
</trkpt>
<trkpt lat="56.096996" lon="26.546930">
<ele>106.967834</ele>
<time>2010-06-20T11:42:13Z</time>
<desc>lat.=56.096996, lon.=26.546930, Alt.=106.967834m. Speed=0.000000m/h.</desc>
<speed>0.000000</speed>
</trkpt>
<trkpt lat="56.096996" lon="26.546930">
<ele>106.967834</ele>
<time>2010-06-20T11:42:14Z</time>
<desc>lat.=56.096996, lon.=26.546930, Alt.=106.967834m. Speed=0.000000m/h.</desc>
<speed>0.000000</speed>
</trkpt>
<trkpt lat="56.096996" lon="26.546930">
<ele>106.969788</ele>
<time>2010-06-20T11:42:15Z</time>
<desc>lat.=56.096996, lon.=26.546930, Alt.=106.969788m. Speed=0.000000m/h.</desc>
<speed>0.000000</speed>
</trkpt>
<trkpt lat="56.096996" lon="26.546930">
<ele>106.969788</ele>
<time>2010-06-20T11:42:16Z</time>
<desc>lat.=56.096996, lon.=26.546930, Alt.=106.969788m. Speed=0.000000m/h.</desc>
<speed>0.000000</speed>
</trkpt>
<trkpt lat="56.096996" lon="26.546930">
<ele>106.969788</ele>
<time>2010-06-20T11:42:17Z</time>
<desc>lat.=56.096996, lon.=26.546930, Alt.=106.969788m. Speed=0.000000m/h.</desc>
<speed>0.000000</speed>
</trkpt>
<trkpt lat="56.096996" lon="26.546930">
<ele>106.969788</ele>
<time>2010-06-20T11:42:18Z</time>
<desc>lat.=56.096996, lon.=26.546930, Alt.=106.969788m. Speed=0.000000m/h.</desc>
<speed>0.000000</speed>
</trkpt>
<trkpt lat="56.096996" lon="26.546930">
<ele>106.969788</ele>
<time>2010-06-20T11:42:19Z</time>
<desc>lat.=56.096996, lon.=26.546930, Alt.=106.969788m. Speed=0.000000m/h.</desc>
<speed>0.000000</speed>
</trkpt>
<trkpt lat="56.096996" lon="26.546930">
<ele>106.971741</ele>
<time>2010-06-20T11:42:20Z</time>
<desc>lat.=56.096996, lon.=26.546930, Alt.=106.971741m. Speed=0.000000m/h.</desc>
<speed>0.000000</speed>
</trkpt>
<trkpt lat="56.096996" lon="26.546930">
<ele>106.971741</ele>
<time>2010-06-20T11:42:21Z</time>
<desc>lat.=56.096996, lon.=26.546930, Alt.=106.971741m. Speed=0.000000m/h.</desc>
<speed>0.000000</speed>
</trkpt>
<trkpt lat="56.096996" lon="26.546930">
<ele>106.971741</ele>
<time>2010-06-20T11:42:22Z</time>
<desc>lat.=56.096996, lon.=26.546930, Alt.=106.971741m. Speed=0.000000m/h.</desc>
<speed>0.000000</speed>
</trkpt>
<trkpt lat="56.096996" lon="26.546930">
<ele>106.973694</ele>
<time>2010-06-20T11:42:23Z</time>
<desc>lat.=56.096996, lon.=26.546930, Alt.=106.973694m. Speed=0.000000m/h.</desc>
<speed>0.000000</speed>
</trkpt>
<trkpt lat="56.096996" lon="26.546930">
<ele>106.975647</ele>
<time>2010-06-20T11:42:24Z</time>
<desc>lat.=56.096996, lon.=26.546930, Alt.=106.975647m. Speed=0.000000m/h.</desc>
<speed>0.000000</speed>
</trkpt>
<trkpt lat="56.096996" lon="26.546930">
<ele>106.975647</ele>
<time>2010-06-20T11:42:25Z</time>
<desc>lat.=56.096996, lon.=26.546930, Alt.=106.975647m. Speed=0.000000m/h.</desc>
<speed>0.000000</speed>
</trkpt>
<trkpt lat="56.096996" lon="26.546930">
<ele>106.977600</ele>
<time>2010-06-20T11:42:26Z</time>
<desc>lat.=56.096996, lon.=26.546930, Alt.=106.977600m. Speed=0.000000m/h.</desc>
<speed>0.000000</speed>
</trkpt>
<trkpt lat="56.096996" lon="26.546930">
<ele>106.973694</ele>
<time>2010-06-20T11:42:27Z</time>
<desc>lat.=56.096996, lon.=26.546930, Alt.=106.973694m. Speed=0.000000m/h.</desc>
<speed>0.000000</speed>
</trkpt>
<trkpt lat="56.096996" lon="26.546930">
<ele>106.973694</ele>
<time>2010-06-20T11:42:28Z</time>
<desc>lat.=56.096996, lon.=26.546930, Alt.=106.973694m. Speed=0.000000m/h.</desc>
<speed>0.000000</speed>
</trkpt>
<trkpt lat="56.096996" lon="26.546930">
<ele>106.973694</ele>
<time>2010-06-20T11:42:29Z</time>
<desc>lat.=56.096996, lon.=26.546930, Alt.=106.973694m. Speed=0.000000m/h.</desc>
<speed>0.000000</speed>
</trkpt>
<trkpt lat="56.096996" lon="26.546930">
<ele>106.971741</ele>
<time>2010-06-20T11:42:30Z</time>
<desc>lat.=56.096996, lon.=26.546930, Alt.=106.971741m. Speed=0.072000m/h.</desc>
<speed>0.020000</speed>
</trkpt>
<trkpt lat="56.096996" lon="26.546930">
<ele>106.965881</ele>
<time>2010-06-20T11:42:31Z</time>
<desc>lat.=56.096996, lon.=26.546930, Alt.=106.965881m. Speed=0.000000m/h.</desc>
<speed>0.000000</speed>
</trkpt>
<trkpt lat="56.096996" lon="26.546930">
<ele>106.963928</ele>
<time>2010-06-20T11:42:32Z</time>
<desc>lat.=56.096996, lon.=26.546930, Alt.=106.963928m. Speed=0.216000m/h.</desc>
<speed>0.060000</speed>
</trkpt>
<trkpt lat="56.096996" lon="26.546930">
<ele>106.961975</ele>
<time>2010-06-20T11:42:33Z</time>
<desc>lat.=56.096996, lon.=26.546930, Alt.=106.961975m. Speed=0.000000m/h.</desc>
<speed>0.000000</speed>
</trkpt>
<trkpt lat="56.096996" lon="26.546930">
<ele>106.961975</ele>
<time>2010-06-20T11:42:34Z</time>
<desc>lat.=56.096996, lon.=26.546930, Alt.=106.961975m. Speed=0.000000m/h.</desc>
<speed>0.000000</speed>
</trkpt>
<trkpt lat="56.096996" lon="26.546930">
<ele>106.961975</ele>
<time>2010-06-20T11:42:35Z</time>
<desc>lat.=56.096996, lon.=26.546930, Alt.=106.961975m. Speed=0.000000m/h.</desc>
<speed>0.000000</speed>
</trkpt>
<trkpt lat="56.096996" lon="26.546930">
<ele>106.961975</ele>
<time>2010-06-20T11:42:36Z</time>
<desc>lat.=56.096996, lon.=26.546930, Alt.=106.961975m. Speed=0.000000m/h.</desc>
<speed>0.000000</speed>
</trkpt>
<trkpt lat="56.096996" lon="26.546930">
<ele>106.961975</ele>
<time>2010-06-20T11:42:37Z</time>
<desc>lat.=56.096996, lon.=26.546930, Alt.=106.961975m. Speed=0.000000m/h.</desc>
<speed>0.000000</speed>
</trkpt>
<trkpt lat="56.096996" lon="26.546930">
<ele>106.961975</ele>
<time>2010-06-20T11:42:38Z</time>
<desc>lat.=56.096996, lon.=26.546930, Alt.=106.961975m. Speed=0.000000m/h.</desc>
<speed>0.000000</speed>
</trkpt>
<trkpt lat="56.096996" lon="26.546930">
<ele>106.965881</ele>
<time>2010-06-20T11:42:39Z</time>
<desc>lat.=56.096996, lon.=26.546930, Alt.=106.965881m. Speed=0.000000m/h.</desc>
<speed>0.000000</speed>
</trkpt>
<trkpt lat="56.096996" lon="26.546930">
<ele>106.965881</ele>
<time>2010-06-20T11:42:40Z</time>
<desc>lat.=56.096996, lon.=26.546930, Alt.=106.965881m. Speed=0.000000m/h.</desc>
<speed>0.000000</speed>
</trkpt>
<trkpt lat="56.096996" lon="26.546930">
<ele>106.967834</ele>
<time>2010-06-20T11:42:41Z</time>
<desc>lat.=56.096996, lon.=26.546930, Alt.=106.967834m. Speed=0.000000m/h.</desc>
<speed>0.000000</speed>
</trkpt>
<trkpt lat="56.096996" lon="26.546930">
<ele>106.969788</ele>
<time>2010-06-20T11:42:42Z</time>
<desc>lat.=56.096996, lon.=26.546930, Alt.=106.969788m. Speed=0.000000m/h.</desc>
<speed>0.000000</speed>
</trkpt>
<trkpt lat="56.096996" lon="26.546930">
<ele>106.971741</ele>
<time>2010-06-20T11:42:43Z</time>
<desc>lat.=56.096996, lon.=26.546930, Alt.=106.971741m. Speed=0.252000m/h.</desc>
<speed>0.070000</speed>
</trkpt>
<trkpt lat="56.096996" lon="26.546930">
<ele>106.975647</ele>
<time>2010-06-20T11:42:44Z</time>
<desc>lat.=56.096996, lon.=26.546930, Alt.=106.975647m. Speed=0.072000m/h.</desc>
<speed>0.020000</speed>
</trkpt>
<trkpt lat="56.096996" lon="26.546930">
<ele>106.991272</ele>
<time>2010-06-20T11:42:45Z</time>
<desc>lat.=56.096996, lon.=26.546930, Alt.=106.991272m. Speed=0.072000m/h.</desc>
<speed>0.020000</speed>
</trkpt>
<trkpt lat="56.096996" lon="26.546930">
<ele>106.991272</ele>
<time>2010-06-20T11:42:46Z</time>
<desc>lat.=56.096996, lon.=26.546930, Alt.=106.991272m. Speed=0.000000m/h.</desc>
<speed>0.000000</speed>
</trkpt>
<trkpt lat="56.096996" lon="26.546930">
<ele>106.993225</ele>
<time>2010-06-20T11:42:47Z</time>
<desc>lat.=56.096996, lon.=26.546930, Alt.=106.993225m. Speed=0.144000m/h.</desc>
<speed>0.040000</speed>
</trkpt>
<trkpt lat="56.096996" lon="26.546930">
<ele>106.995178</ele>
<time>2010-06-20T11:42:48Z</time>
<desc>lat.=56.096996, lon.=26.546930, Alt.=106.995178m. Speed=0.000000m/h.</desc>
<speed>0.000000</speed>
</trkpt>
<trkpt lat="56.096996" lon="26.546930">
<ele>106.997131</ele>
<time>2010-06-20T11:42:49Z</time>
<desc>lat.=56.096996, lon.=26.546930, Alt.=106.997131m. Speed=0.000000m/h.</desc>
<speed>0.000000</speed>
</trkpt>
<trkpt lat="56.096996" lon="26.546930">
<ele>106.997131</ele>
<time>2010-06-20T11:42:50Z</time>
<desc>lat.=56.096996, lon.=26.546930, Alt.=106.997131m. Speed=0.000000m/h.</desc>
<speed>0.000000</speed>
</trkpt>
<trkpt lat="56.096996" lon="26.546930">
<ele>106.997131</ele>
<time>2010-06-20T11:42:51Z</time>
<desc>lat.=56.096996, lon.=26.546930, Alt.=106.997131m. Speed=0.000000m/h.</desc>
<speed>0.000000</speed>
</trkpt>
<trkpt lat="56.096996" lon="26.546930">
<ele>106.999084</ele>
<time>2010-06-20T11:42:52Z</time>
<desc>lat.=56.096996, lon.=26.546930, Alt.=106.999084m. Speed=0.000000m/h.</desc>
<speed>0.000000</speed>
</trkpt>
<trkpt lat="56.096996" lon="26.546930">
<ele>106.999084</ele>
<time>2010-06-20T11:42:53Z</time>
<desc>lat.=56.096996, lon.=26.546930, Alt.=106.999084m. Speed=0.000000m/h.</desc>
<speed>0.000000</speed>
</trkpt>
<trkpt lat="56.096996" lon="26.546930">
<ele>106.999084</ele>
<time>2010-06-20T11:42:54Z</time>
<desc>lat.=56.096996, lon.=26.546930, Alt.=106.999084m. Speed=0.000000m/h.</desc>
<speed>0.000000</speed>
</trkpt>
<trkpt lat="56.096996" lon="26.546930">
<ele>106.997131</ele>
<time>2010-06-20T11:42:55Z</time>
<desc>lat.=56.096996, lon.=26.546930, Alt.=106.997131m. Speed=0.000000m/h.</desc>
<speed>0.000000</speed>
</trkpt>
<trkpt lat="56.096996" lon="26.546930">
<ele>106.999084</ele>
<time>2010-06-20T11:42:56Z</time>
<desc>lat.=56.096996, lon.=26.546930, Alt.=106.999084m. Speed=0.000000m/h.</desc>
<speed>0.000000</speed>
</trkpt>
<trkpt lat="56.096996" lon="26.546930">
<ele>106.999084</ele>
<time>2010-06-20T11:42:57Z</time>
<desc>lat.=56.096996, lon.=26.546930, Alt.=106.999084m. Speed=0.000000m/h.</desc>
<speed>0.000000</speed>
</trkpt>
<trkpt lat="56.096996" lon="26.546930">
<ele>106.999084</ele>
<time>2010-06-20T11:42:58Z</time>
<desc>lat.=56.096996, lon.=26.546930, Alt.=106.999084m. Speed=0.000000m/h.</desc>
<speed>0.000000</speed>
</trkpt>
<trkpt lat="56.096996" lon="26.546930">
<ele>106.999084</ele>
<time>2010-06-20T11:42:59Z</time>
<desc>lat.=56.096996, lon.=26.546930, Alt.=106.999084m. Speed=0.036000m/h.</desc>
<speed>0.010000</speed>
</trkpt>
<trkpt lat="56.096996" lon="26.546930">
<ele>106.999084</ele>
<time>2010-06-20T11:43:00Z</time>
<desc>lat.=56.096996, lon.=26.546930, Alt.=106.999084m. Speed=0.000000m/h.</desc>
<speed>0.000000</speed>
</trkpt>
<trkpt lat="56.096996" lon="26.546930">
<ele>106.999084</ele>
<time>2010-06-20T11:43:01Z</time>
<desc>lat.=56.096996, lon.=26.546930, Alt.=106.999084m. Speed=0.000000m/h.</desc>
<speed>0.000000</speed>
</trkpt>
<trkpt lat="56.096996" lon="26.546930">
<ele>106.999084</ele>
<time>2010-06-20T11:43:02Z</time>
<desc>lat.=56.096996, lon.=26.546930, Alt.=106.999084m. Speed=0.036000m/h.</desc>
<speed>0.010000</speed>
</trkpt>
<trkpt lat="56.096996" lon="26.546930">
<ele>107.004944</ele>
<time>2010-06-20T11:43:03Z</time>
<desc>lat.=56.096996, lon.=26.546930, Alt.=107.004944m. Speed=0.504000m/h.</desc>
<speed>0.140000</speed>
</trkpt>
<trkpt lat="56.096996" lon="26.546930">
<ele>107.002991</ele>
<time>2010-06-20T11:43:04Z</time>
<desc>lat.=56.096996, lon.=26.546930, Alt.=107.002991m. Speed=0.144000m/h.</desc>
<speed>0.040000</speed>
</trkpt>
<trkpt lat="56.096996" lon="26.546930">
<ele>106.983459</ele>
<time>2010-06-20T11:43:05Z</time>
<desc>lat.=56.096996, lon.=26.546930, Alt.=106.983459m. Speed=0.108000m/h.</desc>
<speed>0.030000</speed>
</trkpt>
<trkpt lat="56.096996" lon="26.546930">
<ele>106.954163</ele>
<time>2010-06-20T11:43:06Z</time>
<desc>lat.=56.096996, lon.=26.546930, Alt.=106.954163m. Speed=0.036000m/h.</desc>
<speed>0.010000</speed>
</trkpt>
<trkpt lat="56.096996" lon="26.546930">
<ele>106.956116</ele>
<time>2010-06-20T11:43:07Z</time>
<desc>lat.=56.096996, lon.=26.546930, Alt.=106.956116m. Speed=0.108000m/h.</desc>
<speed>0.030000</speed>
</trkpt>
<trkpt lat="56.096996" lon="26.546930">
<ele>106.956116</ele>
<time>2010-06-20T11:43:08Z</time>
<desc>lat.=56.096996, lon.=26.546930, Alt.=106.956116m. Speed=0.036000m/h.</desc>
<speed>0.010000</speed>
</trkpt>
<trkpt lat="56.096996" lon="26.546930">
<ele>106.960022</ele>
<time>2010-06-20T11:43:09Z</time>
<desc>lat.=56.096996, lon.=26.546930, Alt.=106.960022m. Speed=0.000000m/h.</desc>
<speed>0.000000</speed>
</trkpt>
<trkpt lat="56.096996" lon="26.546930">
<ele>106.963928</ele>
<time>2010-06-20T11:43:10Z</time>
<desc>lat.=56.096996, lon.=26.546930, Alt.=106.963928m. Speed=0.000000m/h.</desc>
<speed>0.000000</speed>
</trkpt>
<trkpt lat="56.096996" lon="26.546930">
<ele>106.967834</ele>
<time>2010-06-20T11:43:11Z</time>
<desc>lat.=56.096996, lon.=26.546930, Alt.=106.967834m. Speed=0.000000m/h.</desc>
<speed>0.000000</speed>
</trkpt>
<trkpt lat="56.096996" lon="26.546930">
<ele>106.967834</ele>
<time>2010-06-20T11:43:12Z</time>
<desc>lat.=56.096996, lon.=26.546930, Alt.=106.967834m. Speed=2.016000m/h.</desc>
<speed>0.560000</speed>
</trkpt>
<trkpt lat="56.096992" lon="26.546926">
<ele>106.946350</ele>
<time>2010-06-20T11:43:13Z</time>
<desc>lat.=56.096992, lon.=26.546926, Alt.=106.946350m. Speed=0.000000m/h.</desc>
<speed>0.000000</speed>
</trkpt>
<trkpt lat="56.096992" lon="26.546926">
<ele>106.950256</ele>
<time>2010-06-20T11:43:14Z</time>
<desc>lat.=56.096992, lon.=26.546926, Alt.=106.950256m. Speed=0.000000m/h.</desc>
<speed>0.000000</speed>
</trkpt>
<trkpt lat="56.096992" lon="26.546926">
<ele>106.954163</ele>
<time>2010-06-20T11:43:15Z</time>
<desc>lat.=56.096992, lon.=26.546926, Alt.=106.954163m. Speed=0.036000m/h.</desc>
<speed>0.010000</speed>
</trkpt>
<trkpt lat="56.096992" lon="26.546926">
<ele>106.961975</ele>
<time>2010-06-20T11:43:16Z</time>
<desc>lat.=56.096992, lon.=26.546926, Alt.=106.961975m. Speed=0.036000m/h.</desc>
<speed>0.010000</speed>
</trkpt>
<trkpt lat="56.096992" lon="26.546926">
<ele>106.969788</ele>
<time>2010-06-20T11:43:17Z</time>
<desc>lat.=56.096992, lon.=26.546926, Alt.=106.969788m. Speed=0.036000m/h.</desc>
<speed>0.010000</speed>
</trkpt>
<trkpt lat="56.096992" lon="26.546926">
<ele>106.973694</ele>
<time>2010-06-20T11:43:18Z</time>
<desc>lat.=56.096992, lon.=26.546926, Alt.=106.973694m. Speed=0.000000m/h.</desc>
<speed>0.000000</speed>
</trkpt>
<trkpt lat="56.096992" lon="26.546926">
<ele>106.977600</ele>
<time>2010-06-20T11:43:19Z</time>
<desc>lat.=56.096992, lon.=26.546926, Alt.=106.977600m. Speed=0.000000m/h.</desc>
<speed>0.000000</speed>
</trkpt>
<trkpt lat="56.096992" lon="26.546926">
<ele>106.973694</ele>
<time>2010-06-20T11:43:20Z</time>
<desc>lat.=56.096992, lon.=26.546926, Alt.=106.973694m. Speed=0.000000m/h.</desc>
<speed>0.000000</speed>
</trkpt>
<trkpt lat="56.096992" lon="26.546926">
<ele>106.967834</ele>
<time>2010-06-20T11:43:21Z</time>
<desc>lat.=56.096992, lon.=26.546926, Alt.=106.967834m. Speed=0.000000m/h.</desc>
<speed>0.000000</speed>
</trkpt>
<trkpt lat="56.096992" lon="26.546926">
<ele>106.963928</ele>
<time>2010-06-20T11:43:22Z</time>
<desc>lat.=56.096992, lon.=26.546926, Alt.=106.963928m. Speed=0.108000m/h.</desc>
<speed>0.030000</speed>
</trkpt>
<trkpt lat="56.096992" lon="26.546926">
<ele>106.965881</ele>
<time>2010-06-20T11:43:23Z</time>
<desc>lat.=56.096992, lon.=26.546926, Alt.=106.965881m. Speed=0.108000m/h.</desc>
<speed>0.030000</speed>
</trkpt>
<trkpt lat="56.096992" lon="26.546926">
<ele>106.963928</ele>
<time>2010-06-20T11:43:24Z</time>
<desc>lat.=56.096992, lon.=26.546926, Alt.=106.963928m. Speed=0.000000m/h.</desc>
<speed>0.000000</speed>
</trkpt>
<trkpt lat="56.096992" lon="26.546926">
<ele>106.960022</ele>
<time>2010-06-20T11:43:25Z</time>
<desc>lat.=56.096992, lon.=26.546926, Alt.=106.960022m. Speed=0.000000m/h.</desc>
<speed>0.000000</speed>
</trkpt>
<trkpt lat="56.096992" lon="26.546926">
<ele>106.960022</ele>
<time>2010-06-20T11:43:26Z</time>
<desc>lat.=56.096992, lon.=26.546926, Alt.=106.960022m. Speed=0.000000m/h.</desc>
<speed>0.000000</speed>
</trkpt>
<trkpt lat="56.096992" lon="26.546926">
<ele>106.958069</ele>
<time>2010-06-20T11:43:27Z</time>
<desc>lat.=56.096992, lon.=26.546926, Alt.=106.958069m. Speed=0.000000m/h.</desc>
<speed>0.000000</speed>
</trkpt>
<trkpt lat="56.096992" lon="26.546926">
<ele>106.956116</ele>
<time>2010-06-20T11:43:28Z</time>
<desc>lat.=56.096992, lon.=26.546926, Alt.=106.956116m. Speed=0.000000m/h.</desc>
<speed>0.000000</speed>
</trkpt>
<trkpt lat="56.096992" lon="26.546926">
<ele>106.954163</ele>
<time>2010-06-20T11:43:29Z</time>
<desc>lat.=56.096992, lon.=26.546926, Alt.=106.954163m. Speed=0.000000m/h.</desc>
<speed>0.000000</speed>
</trkpt>
<trkpt lat="56.096992" lon="26.546926">
<ele>106.954163</ele>
<time>2010-06-20T11:43:30Z</time>
<desc>lat.=56.096992, lon.=26.546926, Alt.=106.954163m. Speed=0.000000m/h.</desc>
<speed>0.000000</speed>
</trkpt>
<trkpt lat="56.096992" lon="26.546926">
<ele>106.954163</ele>
<time>2010-06-20T11:43:31Z</time>
<desc>lat.=56.096992, lon.=26.546926, Alt.=106.954163m. Speed=0.000000m/h.</desc>
<speed>0.000000</speed>
</trkpt>
<trkpt lat="56.096992" lon="26.546926">
<ele>106.952209</ele>
<time>2010-06-20T11:43:32Z</time>
<desc>lat.=56.096992, lon.=26.546926, Alt.=106.952209m. Speed=0.000000m/h.</desc>
<speed>0.000000</speed>
</trkpt>
<trkpt lat="56.096992" lon="26.546926">
<ele>106.948303</ele>
<time>2010-06-20T11:43:33Z</time>
<desc>lat.=56.096992, lon.=26.546926, Alt.=106.948303m. Speed=0.000000m/h.</desc>
<speed>0.000000</speed>
</trkpt>
<trkpt lat="56.096992" lon="26.546926">
<ele>106.948303</ele>
<time>2010-06-20T11:43:34Z</time>
<desc>lat.=56.096992, lon.=26.546926, Alt.=106.948303m. Speed=0.000000m/h.</desc>
<speed>0.000000</speed>
</trkpt>
<trkpt lat="56.096992" lon="26.546926">
<ele>106.948303</ele>
<time>2010-06-20T11:43:35Z</time>
<desc>lat.=56.096992, lon.=26.546926, Alt.=106.948303m. Speed=0.000000m/h.</desc>
<speed>0.000000</speed>
</trkpt>
<trkpt lat="56.096992" lon="26.546926">
<ele>106.942444</ele>
<time>2010-06-20T11:43:36Z</time>
<desc>lat.=56.096992, lon.=26.546926, Alt.=106.942444m. Speed=0.000000m/h.</desc>
<speed>0.000000</speed>
</trkpt>
<trkpt lat="56.096992" lon="26.546926">
<ele>106.938538</ele>
<time>2010-06-20T11:43:37Z</time>
<desc>lat.=56.096992, lon.=26.546926, Alt.=106.938538m. Speed=0.000000m/h.</desc>
<speed>0.000000</speed>
</trkpt>
<trkpt lat="56.096992" lon="26.546926">
<ele>106.938538</ele>
<time>2010-06-20T11:43:38Z</time>
<desc>lat.=56.096992, lon.=26.546926, Alt.=106.938538m. Speed=0.000000m/h.</desc>
<speed>0.000000</speed>
</trkpt>
<trkpt lat="56.096992" lon="26.546926">
<ele>106.940491</ele>
<time>2010-06-20T11:43:39Z</time>
<desc>lat.=56.096992, lon.=26.546926, Alt.=106.940491m. Speed=0.000000m/h.</desc>
<speed>0.000000</speed>
</trkpt>
<trkpt lat="56.096992" lon="26.546926">
<ele>106.936584</ele>
<time>2010-06-20T11:43:40Z</time>
<desc>lat.=56.096992, lon.=26.546926, Alt.=106.936584m. Speed=0.000000m/h.</desc>
<speed>0.000000</speed>
</trkpt>
<trkpt lat="56.096992" lon="26.546926">
<ele>106.938538</ele>
<time>2010-06-20T11:43:41Z</time>
<desc>lat.=56.096992, lon.=26.546926, Alt.=106.938538m. Speed=0.000000m/h.</desc>
<speed>0.000000</speed>
</trkpt>
<trkpt lat="56.096992" lon="26.546926">
<ele>106.942444</ele>
<time>2010-06-20T11:43:42Z</time>
<desc>lat.=56.096992, lon.=26.546926, Alt.=106.942444m. Speed=0.000000m/h.</desc>
<speed>0.000000</speed>
</trkpt>
<trkpt lat="56.096992" lon="26.546926">
<ele>106.944397</ele>
<time>2010-06-20T11:43:43Z</time>
<desc>lat.=56.096992, lon.=26.546926, Alt.=106.944397m. Speed=0.000000m/h.</desc>
<speed>0.000000</speed>
</trkpt>
<trkpt lat="56.096992" lon="26.546926">
<ele>106.944397</ele>
<time>2010-06-20T11:43:44Z</time>
<desc>lat.=56.096992, lon.=26.546926, Alt.=106.944397m. Speed=0.108000m/h.</desc>
<speed>0.030000</speed>
</trkpt>
<trkpt lat="56.096992" lon="26.546926">
<ele>106.950256</ele>
<time>2010-06-20T11:43:45Z</time>
<desc>lat.=56.096992, lon.=26.546926, Alt.=106.950256m. Speed=0.072000m/h.</desc>
<speed>0.020000</speed>
</trkpt>
<trkpt lat="56.096992" lon="26.546926">
<ele>106.954163</ele>
<time>2010-06-20T11:43:46Z</time>
<desc>lat.=56.096992, lon.=26.546926, Alt.=106.954163m. Speed=0.036000m/h.</desc>
<speed>0.010000</speed>
</trkpt>
<trkpt lat="56.096992" lon="26.546926">
<ele>106.956116</ele>
<time>2010-06-20T11:43:47Z</time>
<desc>lat.=56.096992, lon.=26.546926, Alt.=106.956116m. Speed=0.000000m/h.</desc>
<speed>0.000000</speed>
</trkpt>
<trkpt lat="56.096992" lon="26.546926">
<ele>106.958069</ele>
<time>2010-06-20T11:43:48Z</time>
<desc>lat.=56.096992, lon.=26.546926, Alt.=106.958069m. Speed=0.000000m/h.</desc>
<speed>0.000000</speed>
</trkpt>
<trkpt lat="56.096992" lon="26.546926">
<ele>106.961975</ele>
<time>2010-06-20T11:43:49Z</time>
<desc>lat.=56.096992, lon.=26.546926, Alt.=106.961975m. Speed=0.000000m/h.</desc>
<speed>0.000000</speed>
</trkpt>
<trkpt lat="56.096992" lon="26.546926">
<ele>106.965881</ele>
<time>2010-06-20T11:43:50Z</time>
<desc>lat.=56.096992, lon.=26.546926, Alt.=106.965881m. Speed=0.000000m/h.</desc>
<speed>0.000000</speed>
</trkpt>
<trkpt lat="56.096992" lon="26.546926">
<ele>106.971741</ele>
<time>2010-06-20T11:43:51Z</time>
<desc>lat.=56.096992, lon.=26.546926, Alt.=106.971741m. Speed=0.000000m/h.</desc>
<speed>0.000000</speed>
</trkpt>
<trkpt lat="56.096992" lon="26.546926">
<ele>106.971741</ele>
<time>2010-06-20T11:43:52Z</time>
<desc>lat.=56.096992, lon.=26.546926, Alt.=106.971741m. Speed=0.000000m/h.</desc>
<speed>0.000000</speed>
</trkpt>
<trkpt lat="56.096992" lon="26.546926">
<ele>106.973694</ele>
<time>2010-06-20T11:43:53Z</time>
<desc>lat.=56.096992, lon.=26.546926, Alt.=106.973694m. Speed=0.000000m/h.</desc>
<speed>0.000000</speed>
</trkpt>
<trkpt lat="56.096992" lon="26.546926">
<ele>106.975647</ele>
<time>2010-06-20T11:43:54Z</time>
<desc>lat.=56.096992, lon.=26.546926, Alt.=106.975647m. Speed=0.000000m/h.</desc>
<speed>0.000000</speed>
</trkpt>
<trkpt lat="56.096992" lon="26.546926">
<ele>106.981506</ele>
<time>2010-06-20T11:43:55Z</time>
<desc>lat.=56.096992, lon.=26.546926, Alt.=106.981506m. Speed=0.000000m/h.</desc>
<speed>0.000000</speed>
</trkpt>
<trkpt lat="56.096992" lon="26.546926">
<ele>106.983459</ele>
<time>2010-06-20T11:43:56Z</time>
<desc>lat.=56.096992, lon.=26.546926, Alt.=106.983459m. Speed=0.000000m/h.</desc>
<speed>0.000000</speed>
</trkpt>
<trkpt lat="56.096992" lon="26.546926">
<ele>106.985413</ele>
<time>2010-06-20T11:43:57Z</time>
<desc>lat.=56.096992, lon.=26.546926, Alt.=106.985413m. Speed=0.000000m/h.</desc>
<speed>0.000000</speed>
</trkpt>
<trkpt lat="56.096992" lon="26.546926">
<ele>106.987366</ele>
<time>2010-06-20T11:43:58Z</time>
<desc>lat.=56.096992, lon.=26.546926, Alt.=106.987366m. Speed=0.000000m/h.</desc>
<speed>0.000000</speed>
</trkpt>
<trkpt lat="56.096992" lon="26.546926">
<ele>106.993225</ele>
<time>2010-06-20T11:43:59Z</time>
<desc>lat.=56.096992, lon.=26.546926, Alt.=106.993225m. Speed=0.000000m/h.</desc>
<speed>0.000000</speed>
</trkpt>
<trkpt lat="56.096992" lon="26.546926">
<ele>106.995178</ele>
<time>2010-06-20T11:44:00Z</time>
<desc>lat.=56.096992, lon.=26.546926, Alt.=106.995178m. Speed=0.036000m/h.</desc>
<speed>0.010000</speed>
</trkpt>
<trkpt lat="56.096992" lon="26.546926">
<ele>106.999084</ele>
<time>2010-06-20T11:44:01Z</time>
<desc>lat.=56.096992, lon.=26.546926, Alt.=106.999084m. Speed=0.000000m/h.</desc>
<speed>0.000000</speed>
</trkpt>
<trkpt lat="56.096992" lon="26.546926">
<ele>107.001038</ele>
<time>2010-06-20T11:44:02Z</time>
<desc>lat.=56.096992, lon.=26.546926, Alt.=107.001038m. Speed=0.000000m/h.</desc>
<speed>0.000000</speed>
</trkpt>
<trkpt lat="56.096992" lon="26.546926">
<ele>107.006897</ele>
<time>2010-06-20T11:44:03Z</time>
<desc>lat.=56.096992, lon.=26.546926, Alt.=107.006897m. Speed=0.000000m/h.</desc>
<speed>0.000000</speed>
</trkpt>
<trkpt lat="56.096992" lon="26.546926">
<ele>107.010803</ele>
<time>2010-06-20T11:44:04Z</time>
<desc>lat.=56.096992, lon.=26.546926, Alt.=107.010803m. Speed=0.000000m/h.</desc>
<speed>0.000000</speed>
</trkpt>
<trkpt lat="56.096992" lon="26.546926">
<ele>107.014709</ele>
<time>2010-06-20T11:44:05Z</time>
<desc>lat.=56.096992, lon.=26.546926, Alt.=107.014709m. Speed=0.000000m/h.</desc>
<speed>0.000000</speed>
</trkpt>
<trkpt lat="56.096992" lon="26.546926">
<ele>107.020569</ele>
<time>2010-06-20T11:44:06Z</time>
<desc>lat.=56.096992, lon.=26.546926, Alt.=107.020569m. Speed=0.000000m/h.</desc>
<speed>0.000000</speed>
</trkpt>
<trkpt lat="56.096992" lon="26.546926">
<ele>107.026428</ele>
<time>2010-06-20T11:44:07Z</time>
<desc>lat.=56.096992, lon.=26.546926, Alt.=107.026428m. Speed=0.000000m/h.</desc>
<speed>0.000000</speed>
</trkpt>
<trkpt lat="56.096992" lon="26.546926">
<ele>107.032288</ele>
<time>2010-06-20T11:44:08Z</time>
<desc>lat.=56.096992, lon.=26.546926, Alt.=107.032288m. Speed=0.000000m/h.</desc>
<speed>0.000000</speed>
</trkpt>
<trkpt lat="56.096992" lon="26.546926">
<ele>107.038147</ele>
<time>2010-06-20T11:44:09Z</time>
<desc>lat.=56.096992, lon.=26.546926, Alt.=107.038147m. Speed=0.000000m/h.</desc>
<speed>0.000000</speed>
</trkpt>
<trkpt lat="56.096992" lon="26.546926">
<ele>107.042053</ele>
<time>2010-06-20T11:44:10Z</time>
<desc>lat.=56.096992, lon.=26.546926, Alt.=107.042053m. Speed=0.000000m/h.</desc>
<speed>0.000000</speed>
</trkpt>
<trkpt lat="56.096992" lon="26.546926">
<ele>107.044006</ele>
<time>2010-06-20T11:44:11Z</time>
<desc>lat.=56.096992, lon.=26.546926, Alt.=107.044006m. Speed=0.000000m/h.</desc>
<speed>0.000000</speed>
</trkpt>
<trkpt lat="56.096992" lon="26.546926">
<ele>107.047913</ele>
<time>2010-06-20T11:44:12Z</time>
<desc>lat.=56.096992, lon.=26.546926, Alt.=107.047913m. Speed=0.000000m/h.</desc>
<speed>0.000000</speed>
</trkpt>
<trkpt lat="56.096992" lon="26.546926">
<ele>107.049866</ele>
<time>2010-06-20T11:44:13Z</time>
<desc>lat.=56.096992, lon.=26.546926, Alt.=107.049866m. Speed=0.000000m/h.</desc>
<speed>0.000000</speed>
</trkpt>
<trkpt lat="56.096992" lon="26.546926">
<ele>107.051819</ele>
<time>2010-06-20T11:44:14Z</time>
<desc>lat.=56.096992, lon.=26.546926, Alt.=107.051819m. Speed=0.036000m/h.</desc>
<speed>0.010000</speed>
</trkpt>
<trkpt lat="56.096992" lon="26.546926">
<ele>107.055725</ele>
<time>2010-06-20T11:44:15Z</time>
<desc>lat.=56.096992, lon.=26.546926, Alt.=107.055725m. Speed=0.000000m/h.</desc>
<speed>0.000000</speed>
</trkpt>
<trkpt lat="56.096992" lon="26.546926">
<ele>107.061584</ele>
<time>2010-06-20T11:44:16Z</time>
<desc>lat.=56.096992, lon.=26.546926, Alt.=107.061584m. Speed=0.000000m/h.</desc>
<speed>0.000000</speed>
</trkpt>
<trkpt lat="56.096992" lon="26.546926">
<ele>107.067444</ele>
<time>2010-06-20T11:44:17Z</time>
<desc>lat.=56.096992, lon.=26.546926, Alt.=107.067444m. Speed=0.000000m/h.</desc>
<speed>0.000000</speed>
</trkpt>
<trkpt lat="56.096992" lon="26.546926">
<ele>107.073303</ele>
<time>2010-06-20T11:44:18Z</time>
<desc>lat.=56.096992, lon.=26.546926, Alt.=107.073303m. Speed=0.000000m/h.</desc>
<speed>0.000000</speed>
</trkpt>
<trkpt lat="56.096992" lon="26.546926">
<ele>107.075256</ele>
<time>2010-06-20T11:44:19Z</time>
<desc>lat.=56.096992, lon.=26.546926, Alt.=107.075256m. Speed=0.000000m/h.</desc>
<speed>0.000000</speed>
</trkpt>
<trkpt lat="56.096992" lon="26.546926">
<ele>107.079163</ele>
<time>2010-06-20T11:44:20Z</time>
<desc>lat.=56.096992, lon.=26.546926, Alt.=107.079163m. Speed=0.000000m/h.</desc>
<speed>0.000000</speed>
</trkpt>
<trkpt lat="56.096992" lon="26.546926">
<ele>107.083069</ele>
<time>2010-06-20T11:44:21Z</time>
<desc>lat.=56.096992, lon.=26.546926, Alt.=107.083069m. Speed=0.000000m/h.</desc>
<speed>0.000000</speed>
</trkpt>
<trkpt lat="56.096992" lon="26.546926">
<ele>107.088928</ele>
<time>2010-06-20T11:44:22Z</time>
<desc>lat.=56.096992, lon.=26.546926, Alt.=107.088928m. Speed=0.000000m/h.</desc>
<speed>0.000000</speed>
</trkpt>
<trkpt lat="56.096992" lon="26.546926">
<ele>107.094788</ele>
<time>2010-06-20T11:44:23Z</time>
<desc>lat.=56.096992, lon.=26.546926, Alt.=107.094788m. Speed=0.000000m/h.</desc>
<speed>0.000000</speed>
</trkpt>
<trkpt lat="56.096992" lon="26.546926">
<ele>107.098694</ele>
<time>2010-06-20T11:44:24Z</time>
<desc>lat.=56.096992, lon.=26.546926, Alt.=107.098694m. Speed=0.000000m/h.</desc>
<speed>0.000000</speed>
</trkpt>
<trkpt lat="56.096992" lon="26.546926">
<ele>107.100647</ele>
<time>2010-06-20T11:44:25Z</time>
<desc>lat.=56.096992, lon.=26.546926, Alt.=107.100647m. Speed=0.000000m/h.</desc>
<speed>0.000000</speed>
</trkpt>
<trkpt lat="56.096996" lon="26.546926">
<ele>107.104553</ele>
<time>2010-06-20T11:44:26Z</time>
<desc>lat.=56.096996, lon.=26.546926, Alt.=107.104553m. Speed=0.036000m/h.</desc>
<speed>0.010000</speed>
</trkpt>
<trkpt lat="56.096992" lon="26.546926">
<ele>107.100647</ele>
<time>2010-06-20T11:44:27Z</time>
<desc>lat.=56.096992, lon.=26.546926, Alt.=107.100647m. Speed=1.188000m/h.</desc>
<speed>0.330000</speed>
</trkpt>
<trkpt lat="56.096992" lon="26.546923">
<ele>107.227600</ele>
<time>2010-06-20T11:44:28Z</time>
<desc>lat.=56.096992, lon.=26.546923, Alt.=107.227600m. Speed=0.036000m/h.</desc>
<speed>0.010000</speed>
</trkpt>
<trkpt lat="56.096996" lon="26.546923">
<ele>107.190491</ele>
<time>2010-06-20T11:44:29Z</time>
<desc>lat.=56.096996, lon.=26.546923, Alt.=107.190491m. Speed=0.072000m/h.</desc>
<speed>0.020000</speed>
</trkpt>
<trkpt lat="56.096996" lon="26.546919">
<ele>107.241272</ele>
<time>2010-06-20T11:44:30Z</time>
<desc>lat.=56.096996, lon.=26.546919, Alt.=107.241272m. Speed=0.000000m/h.</desc>
<speed>0.000000</speed>
</trkpt>
<trkpt lat="56.096996" lon="26.546921">
<ele>107.243225</ele>
<time>2010-06-20T11:44:31Z</time>
<desc>lat.=56.096996, lon.=26.546921, Alt.=107.243225m. Speed=0.000000m/h.</desc>
<speed>0.000000</speed>
</trkpt>
<trkpt lat="56.096996" lon="26.546921">
<ele>107.245178</ele>
<time>2010-06-20T11:44:32Z</time>
<desc>lat.=56.096996, lon.=26.546921, Alt.=107.245178m. Speed=0.000000m/h.</desc>
<speed>0.000000</speed>
</trkpt>
<trkpt lat="56.096996" lon="26.546921">
<ele>107.251038</ele>
<time>2010-06-20T11:44:33Z</time>
<desc>lat.=56.096996, lon.=26.546921, Alt.=107.251038m. Speed=0.000000m/h.</desc>
<speed>0.000000</speed>
</trkpt>
<trkpt lat="56.096996" lon="26.546921">
<ele>107.252991</ele>
<time>2010-06-20T11:44:34Z</time>
<desc>lat.=56.096996, lon.=26.546921, Alt.=107.252991m. Speed=0.000000m/h.</desc>
<speed>0.000000</speed>
</trkpt>
<trkpt lat="56.096996" lon="26.546921">
<ele>107.254944</ele>
<time>2010-06-20T11:44:35Z</time>
<desc>lat.=56.096996, lon.=26.546921, Alt.=107.254944m. Speed=0.000000m/h.</desc>
<speed>0.000000</speed>
</trkpt>
<trkpt lat="56.096996" lon="26.546921">
<ele>107.256897</ele>
<time>2010-06-20T11:44:36Z</time>
<desc>lat.=56.096996, lon.=26.546921, Alt.=107.256897m. Speed=0.000000m/h.</desc>
<speed>0.000000</speed>
</trkpt>
<trkpt lat="56.096996" lon="26.546921">
<ele>107.258850</ele>
<time>2010-06-20T11:44:37Z</time>
<desc>lat.=56.096996, lon.=26.546921, Alt.=107.258850m. Speed=0.000000m/h.</desc>
<speed>0.000000</speed>
</trkpt>
<trkpt lat="56.096996" lon="26.546921">
<ele>107.262756</ele>
<time>2010-06-20T11:44:38Z</time>
<desc>lat.=56.096996, lon.=26.546921, Alt.=107.262756m. Speed=0.000000m/h.</desc>
<speed>0.000000</speed>
</trkpt>
<trkpt lat="56.096996" lon="26.546921">
<ele>107.268616</ele>
<time>2010-06-20T11:44:39Z</time>
<desc>lat.=56.096996, lon.=26.546921, Alt.=107.268616m. Speed=0.000000m/h.</desc>
<speed>0.000000</speed>
</trkpt>
<trkpt lat="56.096996" lon="26.546921">
<ele>107.274475</ele>
<time>2010-06-20T11:44:40Z</time>
<desc>lat.=56.096996, lon.=26.546921, Alt.=107.274475m. Speed=0.000000m/h.</desc>
<speed>0.000000</speed>
</trkpt>
<trkpt lat="56.096996" lon="26.546921">
<ele>107.276428</ele>
<time>2010-06-20T11:44:41Z</time>
<desc>lat.=56.096996, lon.=26.546921, Alt.=107.276428m. Speed=0.000000m/h.</desc>
<speed>0.000000</speed>
</trkpt>
<trkpt lat="56.096996" lon="26.546921">
<ele>107.272522</ele>
<time>2010-06-20T11:44:42Z</time>
<desc>lat.=56.096996, lon.=26.546921, Alt.=107.272522m. Speed=1.728000m/h.</desc>
<speed>0.480000</speed>
</trkpt>
<trkpt lat="56.096992" lon="26.546919">
<ele>107.420959</ele>
<time>2010-06-20T11:44:43Z</time>
<desc>lat.=56.096992, lon.=26.546919, Alt.=107.420959m. Speed=0.000000m/h.</desc>
<speed>0.000000</speed>
</trkpt>
<trkpt lat="56.096992" lon="26.546917">
<ele>107.663147</ele>
<time>2010-06-20T11:44:44Z</time>
<desc>lat.=56.096992, lon.=26.546917, Alt.=107.663147m. Speed=0.000000m/h.</desc>
<speed>0.000000</speed>
</trkpt>
<trkpt lat="56.096992" lon="26.546917">
<ele>107.811584</ele>
<time>2010-06-20T11:44:45Z</time>
<desc>lat.=56.096992, lon.=26.546917, Alt.=107.811584m. Speed=0.000000m/h.</desc>
<speed>0.000000</speed>
</trkpt>
<trkpt lat="56.096989" lon="26.546913">
<ele>107.874084</ele>
<time>2010-06-20T11:44:46Z</time>
<desc>lat.=56.096989, lon.=26.546913, Alt.=107.874084m. Speed=0.000000m/h.</desc>
<speed>0.000000</speed>
</trkpt>
<trkpt lat="56.096989" lon="26.546913">
<ele>107.876038</ele>
<time>2010-06-20T11:44:47Z</time>
<desc>lat.=56.096989, lon.=26.546913, Alt.=107.876038m. Speed=0.000000m/h.</desc>
<speed>0.000000</speed>
</trkpt>
<trkpt lat="56.096989" lon="26.546913">
<ele>107.876038</ele>
<time>2010-06-20T11:44:48Z</time>
<desc>lat.=56.096989, lon.=26.546913, Alt.=107.876038m. Speed=0.000000m/h.</desc>
<speed>0.000000</speed>
</trkpt>
<trkpt lat="56.096989" lon="26.546913">
<ele>107.879944</ele>
<time>2010-06-20T11:44:49Z</time>
<desc>lat.=56.096989, lon.=26.546913, Alt.=107.879944m. Speed=0.000000m/h.</desc>
<speed>0.000000</speed>
</trkpt>
<trkpt lat="56.096989" lon="26.546913">
<ele>107.879944</ele>
<time>2010-06-20T11:44:50Z</time>
<desc>lat.=56.096989, lon.=26.546913, Alt.=107.879944m. Speed=0.000000m/h.</desc>
<speed>0.000000</speed>
</trkpt>
<trkpt lat="56.096989" lon="26.546913">
<ele>107.881897</ele>
<time>2010-06-20T11:44:51Z</time>
<desc>lat.=56.096989, lon.=26.546913, Alt.=107.881897m. Speed=0.000000m/h.</desc>
<speed>0.000000</speed>
</trkpt>
<trkpt lat="56.096989" lon="26.546913">
<ele>107.881897</ele>
<time>2010-06-20T11:44:52Z</time>
<desc>lat.=56.096989, lon.=26.546913, Alt.=107.881897m. Speed=0.000000m/h.</desc>
<speed>0.000000</speed>
</trkpt>
<trkpt lat="56.096989" lon="26.546913">
<ele>107.881897</ele>
<time>2010-06-20T11:44:53Z</time>
<desc>lat.=56.096989, lon.=26.546913, Alt.=107.881897m. Speed=0.000000m/h.</desc>
<speed>0.000000</speed>
</trkpt>
<trkpt lat="56.096989" lon="26.546913">
<ele>107.881897</ele>
<time>2010-06-20T11:44:54Z</time>
<desc>lat.=56.096989, lon.=26.546913, Alt.=107.881897m. Speed=0.000000m/h.</desc>
<speed>0.000000</speed>
</trkpt>
<trkpt lat="56.096989" lon="26.546913">
<ele>107.881897</ele>
<time>2010-06-20T11:44:55Z</time>
<desc>lat.=56.096989, lon.=26.546913, Alt.=107.881897m. Speed=0.000000m/h.</desc>
<speed>0.000000</speed>
</trkpt>
<trkpt lat="56.096989" lon="26.546913">
<ele>107.883850</ele>
<time>2010-06-20T11:44:56Z</time>
<desc>lat.=56.096989, lon.=26.546913, Alt.=107.883850m. Speed=0.000000m/h.</desc>
<speed>0.000000</speed>
</trkpt>
<trkpt lat="56.096989" lon="26.546913">
<ele>107.883850</ele>
<time>2010-06-20T11:44:57Z</time>
<desc>lat.=56.096989, lon.=26.546913, Alt.=107.883850m. Speed=0.000000m/h.</desc>
<speed>0.000000</speed>
</trkpt>
<trkpt lat="56.096989" lon="26.546913">
<ele>107.883850</ele>
<time>2010-06-20T11:44:58Z</time>
<desc>lat.=56.096989, lon.=26.546913, Alt.=107.883850m. Speed=0.000000m/h.</desc>
<speed>0.000000</speed>
</trkpt>
<trkpt lat="56.096989" lon="26.546913">
<ele>107.881897</ele>
<time>2010-06-20T11:44:59Z</time>
<desc>lat.=56.096989, lon.=26.546913, Alt.=107.881897m. Speed=0.000000m/h.</desc>
<speed>0.000000</speed>
</trkpt>
<trkpt lat="56.096989" lon="26.546913">
<ele>107.879944</ele>
<time>2010-06-20T11:45:00Z</time>
<desc>lat.=56.096989, lon.=26.546913, Alt.=107.879944m. Speed=0.000000m/h.</desc>
<speed>0.000000</speed>
</trkpt>
<trkpt lat="56.096989" lon="26.546913">
<ele>107.879944</ele>
<time>2010-06-20T11:45:01Z</time>
<desc>lat.=56.096989, lon.=26.546913, Alt.=107.879944m. Speed=0.000000m/h.</desc>
<speed>0.000000</speed>
</trkpt>
<trkpt lat="56.096989" lon="26.546913">
<ele>107.881897</ele>
<time>2010-06-20T11:45:02Z</time>
<desc>lat.=56.096989, lon.=26.546913, Alt.=107.881897m. Speed=0.000000m/h.</desc>
<speed>0.000000</speed>
</trkpt>
<trkpt lat="56.096989" lon="26.546913">
<ele>107.881897</ele>
<time>2010-06-20T11:45:03Z</time>
<desc>lat.=56.096989, lon.=26.546913, Alt.=107.881897m. Speed=0.072000m/h.</desc>
<speed>0.020000</speed>
</trkpt>
<trkpt lat="56.096989" lon="26.546913">
<ele>107.883850</ele>
<time>2010-06-20T11:45:04Z</time>
<desc>lat.=56.096989, lon.=26.546913, Alt.=107.883850m. Speed=0.108000m/h.</desc>
<speed>0.030000</speed>
</trkpt>
<trkpt lat="56.096989" lon="26.546913">
<ele>107.883850</ele>
<time>2010-06-20T11:45:05Z</time>
<desc>lat.=56.096989, lon.=26.546913, Alt.=107.883850m. Speed=0.000000m/h.</desc>
<speed>0.000000</speed>
</trkpt>
<trkpt lat="56.096989" lon="26.546913">
<ele>107.881897</ele>
<time>2010-06-20T11:45:06Z</time>
<desc>lat.=56.096989, lon.=26.546913, Alt.=107.881897m. Speed=0.000000m/h.</desc>
<speed>0.000000</speed>
</trkpt>
<trkpt lat="56.096989" lon="26.546913">
<ele>107.879944</ele>
<time>2010-06-20T11:45:07Z</time>
<desc>lat.=56.096989, lon.=26.546913, Alt.=107.879944m. Speed=0.000000m/h.</desc>
<speed>0.000000</speed>
</trkpt>
<trkpt lat="56.096989" lon="26.546913">
<ele>107.879944</ele>
<time>2010-06-20T11:45:08Z</time>
<desc>lat.=56.096989, lon.=26.546913, Alt.=107.879944m. Speed=0.000000m/h.</desc>
<speed>0.000000</speed>
</trkpt>
<trkpt lat="56.096989" lon="26.546913">
<ele>107.879944</ele>
<time>2010-06-20T11:45:09Z</time>
<desc>lat.=56.096989, lon.=26.546913, Alt.=107.879944m. Speed=0.000000m/h.</desc>
<speed>0.000000</speed>
</trkpt>
<trkpt lat="56.096989" lon="26.546913">
<ele>107.879944</ele>
<time>2010-06-20T11:45:10Z</time>
<desc>lat.=56.096989, lon.=26.546913, Alt.=107.879944m. Speed=0.000000m/h.</desc>
<speed>0.000000</speed>
</trkpt>
<trkpt lat="56.096989" lon="26.546913">
<ele>107.881897</ele>
<time>2010-06-20T11:45:11Z</time>
<desc>lat.=56.096989, lon.=26.546913, Alt.=107.881897m. Speed=0.000000m/h.</desc>
<speed>0.000000</speed>
</trkpt>
<trkpt lat="56.096989" lon="26.546913">
<ele>107.883850</ele>
<time>2010-06-20T11:45:12Z</time>
<desc>lat.=56.096989, lon.=26.546913, Alt.=107.883850m. Speed=0.000000m/h.</desc>
<speed>0.000000</speed>
</trkpt>
<trkpt lat="56.096989" lon="26.546913">
<ele>107.883850</ele>
<time>2010-06-20T11:45:13Z</time>
<desc>lat.=56.096989, lon.=26.546913, Alt.=107.883850m. Speed=0.000000m/h.</desc>
<speed>0.000000</speed>
</trkpt>
<trkpt lat="56.096989" lon="26.546913">
<ele>107.883850</ele>
<time>2010-06-20T11:45:14Z</time>
<desc>lat.=56.096989, lon.=26.546913, Alt.=107.883850m. Speed=0.108000m/h.</desc>
<speed>0.030000</speed>
</trkpt>
<trkpt lat="56.096989" lon="26.546913">
<ele>107.883850</ele>
<time>2010-06-20T11:45:15Z</time>
<desc>lat.=56.096989, lon.=26.546913, Alt.=107.883850m. Speed=0.000000m/h.</desc>
<speed>0.000000</speed>
</trkpt>
<trkpt lat="56.096989" lon="26.546913">
<ele>107.885803</ele>
<time>2010-06-20T11:45:16Z</time>
<desc>lat.=56.096989, lon.=26.546913, Alt.=107.885803m. Speed=0.000000m/h.</desc>
<speed>0.000000</speed>
</trkpt>
<trkpt lat="56.096989" lon="26.546913">
<ele>107.887756</ele>
<time>2010-06-20T11:45:17Z</time>
<desc>lat.=56.096989, lon.=26.546913, Alt.=107.887756m. Speed=0.000000m/h.</desc>
<speed>0.000000</speed>
</trkpt>
<trkpt lat="56.096989" lon="26.546913">
<ele>107.887756</ele>
<time>2010-06-20T11:45:18Z</time>
<desc>lat.=56.096989, lon.=26.546913, Alt.=107.887756m. Speed=0.036000m/h.</desc>
<speed>0.010000</speed>
</trkpt>
<trkpt lat="56.096989" lon="26.546913">
<ele>107.889709</ele>
<time>2010-06-20T11:45:19Z</time>
<desc>lat.=56.096989, lon.=26.546913, Alt.=107.889709m. Speed=0.072000m/h.</desc>
<speed>0.020000</speed>
</trkpt>
<trkpt lat="56.096989" lon="26.546913">
<ele>107.889709</ele>
<time>2010-06-20T11:45:20Z</time>
<desc>lat.=56.096989, lon.=26.546913, Alt.=107.889709m. Speed=0.036000m/h.</desc>
<speed>0.010000</speed>
</trkpt>
<trkpt lat="56.096989" lon="26.546913">
<ele>107.887756</ele>
<time>2010-06-20T11:45:21Z</time>
<desc>lat.=56.096989, lon.=26.546913, Alt.=107.887756m. Speed=0.000000m/h.</desc>
<speed>0.000000</speed>
</trkpt>
<trkpt lat="56.096989" lon="26.546913">
<ele>107.887756</ele>
<time>2010-06-20T11:45:22Z</time>
<desc>lat.=56.096989, lon.=26.546913, Alt.=107.887756m. Speed=0.000000m/h.</desc>
<speed>0.000000</speed>
</trkpt>
<trkpt lat="56.096989" lon="26.546913">
<ele>107.889709</ele>
<time>2010-06-20T11:45:23Z</time>
<desc>lat.=56.096989, lon.=26.546913, Alt.=107.889709m. Speed=0.000000m/h.</desc>
<speed>0.000000</speed>
</trkpt>
<trkpt lat="56.096989" lon="26.546913">
<ele>107.893616</ele>
<time>2010-06-20T11:45:24Z</time>
<desc>lat.=56.096989, lon.=26.546913, Alt.=107.893616m. Speed=0.000000m/h.</desc>
<speed>0.000000</speed>
</trkpt>
<trkpt lat="56.096989" lon="26.546913">
<ele>107.893616</ele>
<time>2010-06-20T11:45:25Z</time>
<desc>lat.=56.096989, lon.=26.546913, Alt.=107.893616m. Speed=0.000000m/h.</desc>
<speed>0.000000</speed>
</trkpt>
<trkpt lat="56.096989" lon="26.546913">
<ele>107.897522</ele>
<time>2010-06-20T11:45:26Z</time>
<desc>lat.=56.096989, lon.=26.546913, Alt.=107.897522m. Speed=0.000000m/h.</desc>
<speed>0.000000</speed>
</trkpt>
<trkpt lat="56.096989" lon="26.546913">
<ele>107.901428</ele>
<time>2010-06-20T11:45:27Z</time>
<desc>lat.=56.096989, lon.=26.546913, Alt.=107.901428m. Speed=0.000000m/h.</desc>
<speed>0.000000</speed>
</trkpt>
<trkpt lat="56.096989" lon="26.546913">
<ele>107.905334</ele>
<time>2010-06-20T11:45:28Z</time>
<desc>lat.=56.096989, lon.=26.546913, Alt.=107.905334m. Speed=0.000000m/h.</desc>
<speed>0.000000</speed>
</trkpt>
<trkpt lat="56.096989" lon="26.546913">
<ele>107.907288</ele>
<time>2010-06-20T11:45:29Z</time>
<desc>lat.=56.096989, lon.=26.546913, Alt.=107.907288m. Speed=0.000000m/h.</desc>
<speed>0.000000</speed>
</trkpt>
<trkpt lat="56.096989" lon="26.546913">
<ele>107.913147</ele>
<time>2010-06-20T11:45:30Z</time>
<desc>lat.=56.096989, lon.=26.546913, Alt.=107.913147m. Speed=0.972000m/h.</desc>
<speed>0.270000</speed>
</trkpt>
<trkpt lat="56.096989" lon="26.546913">
<ele>107.920959</ele>
<time>2010-06-20T11:45:31Z</time>
<desc>lat.=56.096989, lon.=26.546913, Alt.=107.920959m. Speed=0.000000m/h.</desc>
<speed>0.000000</speed>
</trkpt>
<trkpt lat="56.096989" lon="26.546913">
<ele>107.948303</ele>
<time>2010-06-20T11:45:32Z</time>
<desc>lat.=56.096989, lon.=26.546913, Alt.=107.948303m. Speed=0.036000m/h.</desc>
<speed>0.010000</speed>
</trkpt>
<trkpt lat="56.096989" lon="26.546913">
<ele>107.950256</ele>
<time>2010-06-20T11:45:33Z</time>
<desc>lat.=56.096989, lon.=26.546913, Alt.=107.950256m. Speed=0.000000m/h.</desc>
<speed>0.000000</speed>
</trkpt>
<trkpt lat="56.096989" lon="26.546913">
<ele>107.956116</ele>
<time>2010-06-20T11:45:34Z</time>
<desc>lat.=56.096989, lon.=26.546913, Alt.=107.956116m. Speed=0.000000m/h.</desc>
<speed>0.000000</speed>
</trkpt>
<trkpt lat="56.096989" lon="26.546913">
<ele>107.958069</ele>
<time>2010-06-20T11:45:35Z</time>
<desc>lat.=56.096989, lon.=26.546913, Alt.=107.958069m. Speed=0.000000m/h.</desc>
<speed>0.000000</speed>
</trkpt>
<trkpt lat="56.096989" lon="26.546913">
<ele>107.961975</ele>
<time>2010-06-20T11:45:36Z</time>
<desc>lat.=56.096989, lon.=26.546913, Alt.=107.961975m. Speed=0.000000m/h.</desc>
<speed>0.000000</speed>
</trkpt>
<trkpt lat="56.096989" lon="26.546913">
<ele>107.963928</ele>
<time>2010-06-20T11:45:37Z</time>
<desc>lat.=56.096989, lon.=26.546913, Alt.=107.963928m. Speed=0.000000m/h.</desc>
<speed>0.000000</speed>
</trkpt>
<trkpt lat="56.096989" lon="26.546913">
<ele>107.963928</ele>
<time>2010-06-20T11:45:38Z</time>
<desc>lat.=56.096989, lon.=26.546913, Alt.=107.963928m. Speed=0.000000m/h.</desc>
<speed>0.000000</speed>
</trkpt>
<trkpt lat="56.096992" lon="26.546913">
<ele>107.963928</ele>
<time>2010-06-20T11:45:39Z</time>
<desc>lat.=56.096992, lon.=26.546913, Alt.=107.963928m. Speed=0.000000m/h.</desc>
<speed>0.000000</speed>
</trkpt>
<trkpt lat="56.096992" lon="26.546913">
<ele>107.965881</ele>
<time>2010-06-20T11:45:40Z</time>
<desc>lat.=56.096992, lon.=26.546913, Alt.=107.965881m. Speed=0.000000m/h.</desc>
<speed>0.000000</speed>
</trkpt>
<trkpt lat="56.096992" lon="26.546913">
<ele>107.967834</ele>
<time>2010-06-20T11:45:41Z</time>
<desc>lat.=56.096992, lon.=26.546913, Alt.=107.967834m. Speed=0.000000m/h.</desc>
<speed>0.000000</speed>
</trkpt>
<trkpt lat="56.096992" lon="26.546913">
<ele>107.967834</ele>
<time>2010-06-20T11:45:42Z</time>
<desc>lat.=56.096992, lon.=26.546913, Alt.=107.967834m. Speed=0.000000m/h.</desc>
<speed>0.000000</speed>
</trkpt>
<trkpt lat="56.096992" lon="26.546913">
<ele>107.967834</ele>
<time>2010-06-20T11:45:43Z</time>
<desc>lat.=56.096992, lon.=26.546913, Alt.=107.967834m. Speed=0.072000m/h.</desc>
<speed>0.020000</speed>
</trkpt>
<trkpt lat="56.096992" lon="26.546913">
<ele>107.971741</ele>
<time>2010-06-20T11:45:44Z</time>
<desc>lat.=56.096992, lon.=26.546913, Alt.=107.971741m. Speed=0.468000m/h.</desc>
<speed>0.130000</speed>
</trkpt>
<trkpt lat="56.096992" lon="26.546913">
<ele>107.971741</ele>
<time>2010-06-20T11:45:45Z</time>
<desc>lat.=56.096992, lon.=26.546913, Alt.=107.971741m. Speed=0.000000m/h.</desc>
<speed>0.000000</speed>
</trkpt>
<trkpt lat="56.096992" lon="26.546913">
<ele>107.979553</ele>
<time>2010-06-20T11:45:46Z</time>
<desc>lat.=56.096992, lon.=26.546913, Alt.=107.979553m. Speed=0.000000m/h.</desc>
<speed>0.000000</speed>
</trkpt>
<trkpt lat="56.096992" lon="26.546913">
<ele>107.981506</ele>
<time>2010-06-20T11:45:47Z</time>
<desc>lat.=56.096992, lon.=26.546913, Alt.=107.981506m. Speed=0.000000m/h.</desc>
<speed>0.000000</speed>
</trkpt>
<trkpt lat="56.096992" lon="26.546913">
<ele>107.983459</ele>
<time>2010-06-20T11:45:48Z</time>
<desc>lat.=56.096992, lon.=26.546913, Alt.=107.983459m. Speed=0.000000m/h.</desc>
<speed>0.000000</speed>
</trkpt>
<trkpt lat="56.096992" lon="26.546913">
<ele>107.983459</ele>
<time>2010-06-20T11:45:49Z</time>
<desc>lat.=56.096992, lon.=26.546913, Alt.=107.983459m. Speed=0.000000m/h.</desc>
<speed>0.000000</speed>
</trkpt>
<trkpt lat="56.096992" lon="26.546913">
<ele>107.981506</ele>
<time>2010-06-20T11:45:50Z</time>
<desc>lat.=56.096992, lon.=26.546913, Alt.=107.981506m. Speed=0.000000m/h.</desc>
<speed>0.000000</speed>
</trkpt>
<trkpt lat="56.096992" lon="26.546913">
<ele>107.979553</ele>
<time>2010-06-20T11:45:51Z</time>
<desc>lat.=56.096992, lon.=26.546913, Alt.=107.979553m. Speed=0.000000m/h.</desc>
<speed>0.000000</speed>
</trkpt>
<trkpt lat="56.096992" lon="26.546913">
<ele>107.979553</ele>
<time>2010-06-20T11:45:52Z</time>
<desc>lat.=56.096992, lon.=26.546913, Alt.=107.979553m. Speed=0.000000m/h.</desc>
<speed>0.000000</speed>
</trkpt>
<trkpt lat="56.096992" lon="26.546913">
<ele>107.979553</ele>
<time>2010-06-20T11:45:53Z</time>
<desc>lat.=56.096992, lon.=26.546913, Alt.=107.979553m. Speed=0.000000m/h.</desc>
<speed>0.000000</speed>
</trkpt>
<trkpt lat="56.096992" lon="26.546913">
<ele>107.977600</ele>
<time>2010-06-20T11:45:54Z</time>
<desc>lat.=56.096992, lon.=26.546913, Alt.=107.977600m. Speed=0.000000m/h.</desc>
<speed>0.000000</speed>
</trkpt>
<trkpt lat="56.096992" lon="26.546913">
<ele>107.979553</ele>
<time>2010-06-20T11:45:55Z</time>
<desc>lat.=56.096992, lon.=26.546913, Alt.=107.979553m. Speed=0.000000m/h.</desc>
<speed>0.000000</speed>
</trkpt>
<trkpt lat="56.096992" lon="26.546913">
<ele>107.979553</ele>
<time>2010-06-20T11:45:56Z</time>
<desc>lat.=56.096992, lon.=26.546913, Alt.=107.979553m. Speed=0.000000m/h.</desc>
<speed>0.000000</speed>
</trkpt>
<trkpt lat="56.096992" lon="26.546913">
<ele>107.975647</ele>
<time>2010-06-20T11:45:57Z</time>
<desc>lat.=56.096992, lon.=26.546913, Alt.=107.975647m. Speed=1.116000m/h.</desc>
<speed>0.310000</speed>
</trkpt>
<trkpt lat="56.096989" lon="26.546911">
<ele>108.190491</ele>
<time>2010-06-20T11:45:58Z</time>
<desc>lat.=56.096989, lon.=26.546911, Alt.=108.190491m. Speed=0.000000m/h.</desc>
<speed>0.000000</speed>
</trkpt>
<trkpt lat="56.096989" lon="26.546909">
<ele>108.424866</ele>
<time>2010-06-20T11:45:59Z</time>
<desc>lat.=56.096989, lon.=26.546909, Alt.=108.424866m. Speed=0.000000m/h.</desc>
<speed>0.000000</speed>
</trkpt>
<trkpt lat="56.096985" lon="26.546907">
<ele>108.692444</ele>
<time>2010-06-20T11:46:00Z</time>
<desc>lat.=56.096985, lon.=26.546907, Alt.=108.692444m. Speed=0.000000m/h.</desc>
<speed>0.000000</speed>
</trkpt>
<trkpt lat="56.096981" lon="26.546906">
<ele>108.889709</ele>
<time>2010-06-20T11:46:01Z</time>
<desc>lat.=56.096981, lon.=26.546906, Alt.=108.889709m. Speed=0.000000m/h.</desc>
<speed>0.000000</speed>
</trkpt>
<trkpt lat="56.096981" lon="26.546906">
<ele>108.891663</ele>
<time>2010-06-20T11:46:02Z</time>
<desc>lat.=56.096981, lon.=26.546906, Alt.=108.891663m. Speed=0.000000m/h.</desc>
<speed>0.000000</speed>
</trkpt>
<trkpt lat="56.096981" lon="26.546906">
<ele>108.893616</ele>
<time>2010-06-20T11:46:03Z</time>
<desc>lat.=56.096981, lon.=26.546906, Alt.=108.893616m. Speed=0.000000m/h.</desc>
<speed>0.000000</speed>
</trkpt>
<trkpt lat="56.096981" lon="26.546906">
<ele>108.897522</ele>
<time>2010-06-20T11:46:04Z</time>
<desc>lat.=56.096981, lon.=26.546906, Alt.=108.897522m. Speed=0.000000m/h.</desc>
<speed>0.000000</speed>
</trkpt>
<trkpt lat="56.096981" lon="26.546906">
<ele>108.901428</ele>
<time>2010-06-20T11:46:05Z</time>
<desc>lat.=56.096981, lon.=26.546906, Alt.=108.901428m. Speed=0.000000m/h.</desc>
<speed>0.000000</speed>
</trkpt>
<trkpt lat="56.096981" lon="26.546906">
<ele>108.905334</ele>
<time>2010-06-20T11:46:06Z</time>
<desc>lat.=56.096981, lon.=26.546906, Alt.=108.905334m. Speed=0.000000m/h.</desc>
<speed>0.000000</speed>
</trkpt>
<trkpt lat="56.096981" lon="26.546906">
<ele>108.905334</ele>
<time>2010-06-20T11:46:07Z</time>
<desc>lat.=56.096981, lon.=26.546906, Alt.=108.905334m. Speed=0.000000m/h.</desc>
<speed>0.000000</speed>
</trkpt>
<trkpt lat="56.096981" lon="26.546906">
<ele>108.905334</ele>
<time>2010-06-20T11:46:08Z</time>
<desc>lat.=56.096981, lon.=26.546906, Alt.=108.905334m. Speed=0.000000m/h.</desc>
<speed>0.000000</speed>
</trkpt>
<trkpt lat="56.096981" lon="26.546906">
<ele>108.905334</ele>
<time>2010-06-20T11:46:09Z</time>
<desc>lat.=56.096981, lon.=26.546906, Alt.=108.905334m. Speed=0.108000m/h.</desc>
<speed>0.030000</speed>
</trkpt>
<trkpt lat="56.096981" lon="26.546906">
<ele>108.907288</ele>
<time>2010-06-20T11:46:10Z</time>
<desc>lat.=56.096981, lon.=26.546906, Alt.=108.907288m. Speed=0.144000m/h.</desc>
<speed>0.040000</speed>
</trkpt>
<trkpt lat="56.096981" lon="26.546906">
<ele>108.909241</ele>
<time>2010-06-20T11:46:11Z</time>
<desc>lat.=56.096981, lon.=26.546906, Alt.=108.909241m. Speed=0.000000m/h.</desc>
<speed>0.000000</speed>
</trkpt>
<trkpt lat="56.096981" lon="26.546906">
<ele>108.911194</ele>
<time>2010-06-20T11:46:12Z</time>
<desc>lat.=56.096981, lon.=26.546906, Alt.=108.911194m. Speed=0.000000m/h.</desc>
<speed>0.000000</speed>
</trkpt>
<trkpt lat="56.096981" lon="26.546906">
<ele>108.913147</ele>
<time>2010-06-20T11:46:13Z</time>
<desc>lat.=56.096981, lon.=26.546906, Alt.=108.913147m. Speed=0.000000m/h.</desc>
<speed>0.000000</speed>
</trkpt>
<trkpt lat="56.096981" lon="26.546906">
<ele>108.915100</ele>
<time>2010-06-20T11:46:14Z</time>
<desc>lat.=56.096981, lon.=26.546906, Alt.=108.915100m. Speed=0.000000m/h.</desc>
<speed>0.000000</speed>
</trkpt>
<trkpt lat="56.096981" lon="26.546906">
<ele>108.917053</ele>
<time>2010-06-20T11:46:15Z</time>
<desc>lat.=56.096981, lon.=26.546906, Alt.=108.917053m. Speed=0.000000m/h.</desc>
<speed>0.000000</speed>
</trkpt>
<trkpt lat="56.096981" lon="26.546906">
<ele>108.919006</ele>
<time>2010-06-20T11:46:16Z</time>
<desc>lat.=56.096981, lon.=26.546906, Alt.=108.919006m. Speed=0.000000m/h.</desc>
<speed>0.000000</speed>
</trkpt>
<trkpt lat="56.096981" lon="26.546906">
<ele>108.922913</ele>
<time>2010-06-20T11:46:17Z</time>
<desc>lat.=56.096981, lon.=26.546906, Alt.=108.922913m. Speed=0.000000m/h.</desc>
<speed>0.000000</speed>
</trkpt>
<trkpt lat="56.096981" lon="26.546907">
<ele>108.926819</ele>
<time>2010-06-20T11:46:18Z</time>
<desc>lat.=56.096981, lon.=26.546907, Alt.=108.926819m. Speed=0.000000m/h.</desc>
<speed>0.000000</speed>
</trkpt>
<trkpt lat="56.096981" lon="26.546907">
<ele>108.928772</ele>
<time>2010-06-20T11:46:19Z</time>
<desc>lat.=56.096981, lon.=26.546907, Alt.=108.928772m. Speed=0.000000m/h.</desc>
<speed>0.000000</speed>
</trkpt>
<trkpt lat="56.096981" lon="26.546907">
<ele>108.932678</ele>
<time>2010-06-20T11:46:20Z</time>
<desc>lat.=56.096981, lon.=26.546907, Alt.=108.932678m. Speed=0.000000m/h.</desc>
<speed>0.000000</speed>
</trkpt>
<trkpt lat="56.096981" lon="26.546907">
<ele>108.934631</ele>
<time>2010-06-20T11:46:21Z</time>
<desc>lat.=56.096981, lon.=26.546907, Alt.=108.934631m. Speed=0.000000m/h.</desc>
<speed>0.000000</speed>
</trkpt>
<trkpt lat="56.096981" lon="26.546907">
<ele>108.926819</ele>
<time>2010-06-20T11:46:22Z</time>
<desc>lat.=56.096981, lon.=26.546907, Alt.=108.926819m. Speed=1.332000m/h.</desc>
<speed>0.370000</speed>
</trkpt>
<trkpt lat="56.096981" lon="26.546909">
<ele>108.950256</ele>
<time>2010-06-20T11:46:23Z</time>
<desc>lat.=56.096981, lon.=26.546909, Alt.=108.950256m. Speed=0.108000m/h.</desc>
<speed>0.030000</speed>
</trkpt>
<trkpt lat="56.096985" lon="26.546909">
<ele>108.911194</ele>
<time>2010-06-20T11:46:24Z</time>
<desc>lat.=56.096985, lon.=26.546909, Alt.=108.911194m. Speed=0.000000m/h.</desc>
<speed>0.000000</speed>
</trkpt>
<trkpt lat="56.096985" lon="26.546909">
<ele>108.815491</ele>
<time>2010-06-20T11:46:25Z</time>
<desc>lat.=56.096985, lon.=26.546909, Alt.=108.815491m. Speed=0.000000m/h.</desc>
<speed>0.000000</speed>
</trkpt>
<trkpt lat="56.096989" lon="26.546911">
<ele>108.731506</ele>
<time>2010-06-20T11:46:26Z</time>
<desc>lat.=56.096989, lon.=26.546911, Alt.=108.731506m. Speed=0.000000m/h.</desc>
<speed>0.000000</speed>
</trkpt>
<trkpt lat="56.096989" lon="26.546911">
<ele>108.731506</ele>
<time>2010-06-20T11:46:27Z</time>
<desc>lat.=56.096989, lon.=26.546911, Alt.=108.731506m. Speed=0.000000m/h.</desc>
<speed>0.000000</speed>
</trkpt>
<trkpt lat="56.096989" lon="26.546911">
<ele>108.729553</ele>
<time>2010-06-20T11:46:28Z</time>
<desc>lat.=56.096989, lon.=26.546911, Alt.=108.729553m. Speed=0.000000m/h.</desc>
<speed>0.000000</speed>
</trkpt>
<trkpt lat="56.096989" lon="26.546911">
<ele>108.729553</ele>
<time>2010-06-20T11:46:29Z</time>
<desc>lat.=56.096989, lon.=26.546911, Alt.=108.729553m. Speed=0.000000m/h.</desc>
<speed>0.000000</speed>
</trkpt>
<trkpt lat="56.096989" lon="26.546911">
<ele>108.727600</ele>
<time>2010-06-20T11:46:30Z</time>
<desc>lat.=56.096989, lon.=26.546911, Alt.=108.727600m. Speed=0.000000m/h.</desc>
<speed>0.000000</speed>
</trkpt>
<trkpt lat="56.096989" lon="26.546911">
<ele>108.727600</ele>
<time>2010-06-20T11:46:31Z</time>
<desc>lat.=56.096989, lon.=26.546911, Alt.=108.727600m. Speed=0.000000m/h.</desc>
<speed>0.000000</speed>
</trkpt>
<trkpt lat="56.096989" lon="26.546911">
<ele>108.727600</ele>
<time>2010-06-20T11:46:32Z</time>
<desc>lat.=56.096989, lon.=26.546911, Alt.=108.727600m. Speed=0.000000m/h.</desc>
<speed>0.000000</speed>
</trkpt>
<trkpt lat="56.096989" lon="26.546911">
<ele>108.725647</ele>
<time>2010-06-20T11:46:33Z</time>
<desc>lat.=56.096989, lon.=26.546911, Alt.=108.725647m. Speed=0.000000m/h.</desc>
<speed>0.000000</speed>
</trkpt>
<trkpt lat="56.096989" lon="26.546911">
<ele>108.727600</ele>
<time>2010-06-20T11:46:34Z</time>
<desc>lat.=56.096989, lon.=26.546911, Alt.=108.727600m. Speed=0.036000m/h.</desc>
<speed>0.010000</speed>
</trkpt>
<trkpt lat="56.096989" lon="26.546911">
<ele>108.725647</ele>
<time>2010-06-20T11:46:35Z</time>
<desc>lat.=56.096989, lon.=26.546911, Alt.=108.725647m. Speed=0.000000m/h.</desc>
<speed>0.000000</speed>
</trkpt>
<trkpt lat="56.096989" lon="26.546911">
<ele>108.727600</ele>
<time>2010-06-20T11:46:36Z</time>
<desc>lat.=56.096989, lon.=26.546911, Alt.=108.727600m. Speed=0.000000m/h.</desc>
<speed>0.000000</speed>
</trkpt>
<trkpt lat="56.096989" lon="26.546911">
<ele>108.727600</ele>
<time>2010-06-20T11:46:37Z</time>
<desc>lat.=56.096989, lon.=26.546911, Alt.=108.727600m. Speed=0.000000m/h.</desc>
<speed>0.000000</speed>
</trkpt>
<trkpt lat="56.096989" lon="26.546911">
<ele>108.729553</ele>
<time>2010-06-20T11:46:38Z</time>
<desc>lat.=56.096989, lon.=26.546911, Alt.=108.729553m. Speed=0.000000m/h.</desc>
<speed>0.000000</speed>
</trkpt>
<trkpt lat="56.096989" lon="26.546911">
<ele>108.729553</ele>
<time>2010-06-20T11:46:39Z</time>
<desc>lat.=56.096989, lon.=26.546911, Alt.=108.729553m. Speed=0.000000m/h.</desc>
<speed>0.000000</speed>
</trkpt>
<trkpt lat="56.096989" lon="26.546911">
<ele>108.729553</ele>
<time>2010-06-20T11:46:40Z</time>
<desc>lat.=56.096989, lon.=26.546911, Alt.=108.729553m. Speed=0.000000m/h.</desc>
<speed>0.000000</speed>
</trkpt>
<trkpt lat="56.096989" lon="26.546911">
<ele>108.729553</ele>
<time>2010-06-20T11:46:41Z</time>
<desc>lat.=56.096989, lon.=26.546911, Alt.=108.729553m. Speed=0.000000m/h.</desc>
<speed>0.000000</speed>
</trkpt>
<trkpt lat="56.096989" lon="26.546911">
<ele>108.729553</ele>
<time>2010-06-20T11:46:42Z</time>
<desc>lat.=56.096989, lon.=26.546911, Alt.=108.729553m. Speed=0.000000m/h.</desc>
<speed>0.000000</speed>
</trkpt>
<trkpt lat="56.096989" lon="26.546911">
<ele>108.729553</ele>
<time>2010-06-20T11:46:43Z</time>
<desc>lat.=56.096989, lon.=26.546911, Alt.=108.729553m. Speed=0.000000m/h.</desc>
<speed>0.000000</speed>
</trkpt>
<trkpt lat="56.096989" lon="26.546911">
<ele>108.727600</ele>
<time>2010-06-20T11:46:44Z</time>
<desc>lat.=56.096989, lon.=26.546911, Alt.=108.727600m. Speed=0.000000m/h.</desc>
<speed>0.000000</speed>
</trkpt>
<trkpt lat="56.096989" lon="26.546911">
<ele>108.727600</ele>
<time>2010-06-20T11:46:45Z</time>
<desc>lat.=56.096989, lon.=26.546911, Alt.=108.727600m. Speed=0.000000m/h.</desc>
<speed>0.000000</speed>
</trkpt>
<trkpt lat="56.096989" lon="26.546911">
<ele>108.727600</ele>
<time>2010-06-20T11:46:46Z</time>
<desc>lat.=56.096989, lon.=26.546911, Alt.=108.727600m. Speed=0.000000m/h.</desc>
<speed>0.000000</speed>
</trkpt>
<trkpt lat="56.096989" lon="26.546911">
<ele>108.727600</ele>
<time>2010-06-20T11:46:47Z</time>
<desc>lat.=56.096989, lon.=26.546911, Alt.=108.727600m. Speed=0.000000m/h.</desc>
<speed>0.000000</speed>
</trkpt>
<trkpt lat="56.096989" lon="26.546911">
<ele>108.725647</ele>
<time>2010-06-20T11:46:48Z</time>
<desc>lat.=56.096989, lon.=26.546911, Alt.=108.725647m. Speed=0.000000m/h.</desc>
<speed>0.000000</speed>
</trkpt>
<trkpt lat="56.096989" lon="26.546911">
<ele>108.725647</ele>
<time>2010-06-20T11:46:49Z</time>
<desc>lat.=56.096989, lon.=26.546911, Alt.=108.725647m. Speed=0.000000m/h.</desc>
<speed>0.000000</speed>
</trkpt>
<trkpt lat="56.096989" lon="26.546911">
<ele>108.723694</ele>
<time>2010-06-20T11:46:50Z</time>
<desc>lat.=56.096989, lon.=26.546911, Alt.=108.723694m. Speed=0.000000m/h.</desc>
<speed>0.000000</speed>
</trkpt>
<trkpt lat="56.096989" lon="26.546911">
<ele>108.723694</ele>
<time>2010-06-20T11:46:51Z</time>
<desc>lat.=56.096989, lon.=26.546911, Alt.=108.723694m. Speed=0.000000m/h.</desc>
<speed>0.000000</speed>
</trkpt>
<trkpt lat="56.096989" lon="26.546911">
<ele>108.719788</ele>
<time>2010-06-20T11:46:52Z</time>
<desc>lat.=56.096989, lon.=26.546911, Alt.=108.719788m. Speed=0.000000m/h.</desc>
<speed>0.000000</speed>
</trkpt>
<trkpt lat="56.096989" lon="26.546911">
<ele>108.719788</ele>
<time>2010-06-20T11:46:53Z</time>
<desc>lat.=56.096989, lon.=26.546911, Alt.=108.719788m. Speed=0.000000m/h.</desc>
<speed>0.000000</speed>
</trkpt>
<trkpt lat="56.096989" lon="26.546911">
<ele>108.715881</ele>
<time>2010-06-20T11:46:54Z</time>
<desc>lat.=56.096989, lon.=26.546911, Alt.=108.715881m. Speed=0.000000m/h.</desc>
<speed>0.000000</speed>
</trkpt>
<trkpt lat="56.096989" lon="26.546911">
<ele>108.715881</ele>
<time>2010-06-20T11:46:55Z</time>
<desc>lat.=56.096989, lon.=26.546911, Alt.=108.715881m. Speed=0.000000m/h.</desc>
<speed>0.000000</speed>
</trkpt>
<trkpt lat="56.096989" lon="26.546911">
<ele>108.713928</ele>
<time>2010-06-20T11:46:56Z</time>
<desc>lat.=56.096989, lon.=26.546911, Alt.=108.713928m. Speed=0.000000m/h.</desc>
<speed>0.000000</speed>
</trkpt>
<trkpt lat="56.096989" lon="26.546911">
<ele>108.713928</ele>
<time>2010-06-20T11:46:57Z</time>
<desc>lat.=56.096989, lon.=26.546911, Alt.=108.713928m. Speed=0.036000m/h.</desc>
<speed>0.010000</speed>
</trkpt>
<trkpt lat="56.096989" lon="26.546911">
<ele>108.713928</ele>
<time>2010-06-20T11:46:58Z</time>
<desc>lat.=56.096989, lon.=26.546911, Alt.=108.713928m. Speed=0.000000m/h.</desc>
<speed>0.000000</speed>
</trkpt>
<trkpt lat="56.096989" lon="26.546911">
<ele>108.713928</ele>
<time>2010-06-20T11:46:59Z</time>
<desc>lat.=56.096989, lon.=26.546911, Alt.=108.713928m. Speed=0.000000m/h.</desc>
<speed>0.000000</speed>
</trkpt>
<trkpt lat="56.096989" lon="26.546911">
<ele>108.711975</ele>
<time>2010-06-20T11:47:00Z</time>
<desc>lat.=56.096989, lon.=26.546911, Alt.=108.711975m. Speed=0.000000m/h.</desc>
<speed>0.000000</speed>
</trkpt>
<trkpt lat="56.096989" lon="26.546911">
<ele>108.711975</ele>
<time>2010-06-20T11:47:01Z</time>
<desc>lat.=56.096989, lon.=26.546911, Alt.=108.711975m. Speed=0.000000m/h.</desc>
<speed>0.000000</speed>
</trkpt>
<trkpt lat="56.096989" lon="26.546911">
<ele>108.713928</ele>
<time>2010-06-20T11:47:02Z</time>
<desc>lat.=56.096989, lon.=26.546911, Alt.=108.713928m. Speed=0.000000m/h.</desc>
<speed>0.000000</speed>
</trkpt>
<trkpt lat="56.096989" lon="26.546911">
<ele>108.713928</ele>
<time>2010-06-20T11:47:03Z</time>
<desc>lat.=56.096989, lon.=26.546911, Alt.=108.713928m. Speed=0.000000m/h.</desc>
<speed>0.000000</speed>
</trkpt>
<trkpt lat="56.096989" lon="26.546911">
<ele>108.713928</ele>
<time>2010-06-20T11:47:04Z</time>
<desc>lat.=56.096989, lon.=26.546911, Alt.=108.713928m. Speed=0.000000m/h.</desc>
<speed>0.000000</speed>
</trkpt>
<trkpt lat="56.096989" lon="26.546911">
<ele>108.713928</ele>
<time>2010-06-20T11:47:05Z</time>
<desc>lat.=56.096989, lon.=26.546911, Alt.=108.713928m. Speed=0.000000m/h.</desc>
<speed>0.000000</speed>
</trkpt>
<trkpt lat="56.096989" lon="26.546911">
<ele>108.713928</ele>
<time>2010-06-20T11:47:06Z</time>
<desc>lat.=56.096989, lon.=26.546911, Alt.=108.713928m. Speed=0.000000m/h.</desc>
<speed>0.000000</speed>
</trkpt>
<trkpt lat="56.096989" lon="26.546911">
<ele>108.713928</ele>
<time>2010-06-20T11:47:07Z</time>
<desc>lat.=56.096989, lon.=26.546911, Alt.=108.713928m. Speed=0.000000m/h.</desc>
<speed>0.000000</speed>
</trkpt>
<trkpt lat="56.096989" lon="26.546911">
<ele>108.719788</ele>
<time>2010-06-20T11:47:08Z</time>
<desc>lat.=56.096989, lon.=26.546911, Alt.=108.719788m. Speed=0.000000m/h.</desc>
<speed>0.000000</speed>
</trkpt>
<trkpt lat="56.096989" lon="26.546911">
<ele>108.723694</ele>
<time>2010-06-20T11:47:09Z</time>
<desc>lat.=56.096989, lon.=26.546911, Alt.=108.723694m. Speed=0.000000m/h.</desc>
<speed>0.000000</speed>
</trkpt>
<trkpt lat="56.096989" lon="26.546911">
<ele>108.727600</ele>
<time>2010-06-20T11:47:10Z</time>
<desc>lat.=56.096989, lon.=26.546911, Alt.=108.727600m. Speed=0.000000m/h.</desc>
<speed>0.000000</speed>
</trkpt>
<trkpt lat="56.096989" lon="26.546911">
<ele>108.733459</ele>
<time>2010-06-20T11:47:11Z</time>
<desc>lat.=56.096989, lon.=26.546911, Alt.=108.733459m. Speed=0.000000m/h.</desc>
<speed>0.000000</speed>
</trkpt>
<trkpt lat="56.096989" lon="26.546911">
<ele>108.737366</ele>
<time>2010-06-20T11:47:12Z</time>
<desc>lat.=56.096989, lon.=26.546911, Alt.=108.737366m. Speed=0.000000m/h.</desc>
<speed>0.000000</speed>
</trkpt>
<trkpt lat="56.096989" lon="26.546911">
<ele>108.741272</ele>
<time>2010-06-20T11:47:13Z</time>
<desc>lat.=56.096989, lon.=26.546911, Alt.=108.741272m. Speed=0.000000m/h.</desc>
<speed>0.000000</speed>
</trkpt>
<trkpt lat="56.096989" lon="26.546911">
<ele>108.747131</ele>
<time>2010-06-20T11:47:14Z</time>
<desc>lat.=56.096989, lon.=26.546911, Alt.=108.747131m. Speed=0.000000m/h.</desc>
<speed>0.000000</speed>
</trkpt>
<trkpt lat="56.096989" lon="26.546911">
<ele>108.752991</ele>
<time>2010-06-20T11:47:15Z</time>
<desc>lat.=56.096989, lon.=26.546911, Alt.=108.752991m. Speed=0.000000m/h.</desc>
<speed>0.000000</speed>
</trkpt>
<trkpt lat="56.096989" lon="26.546911">
<ele>108.758850</ele>
<time>2010-06-20T11:47:16Z</time>
<desc>lat.=56.096989, lon.=26.546911, Alt.=108.758850m. Speed=0.000000m/h.</desc>
<speed>0.000000</speed>
</trkpt>
<trkpt lat="56.096989" lon="26.546911">
<ele>108.762756</ele>
<time>2010-06-20T11:47:17Z</time>
<desc>lat.=56.096989, lon.=26.546911, Alt.=108.762756m. Speed=0.036000m/h.</desc>
<speed>0.010000</speed>
</trkpt>
<trkpt lat="56.096989" lon="26.546911">
<ele>108.766663</ele>
<time>2010-06-20T11:47:18Z</time>
<desc>lat.=56.096989, lon.=26.546911, Alt.=108.766663m. Speed=0.000000m/h.</desc>
<speed>0.000000</speed>
</trkpt>
<trkpt lat="56.096989" lon="26.546911">
<ele>108.776428</ele>
<time>2010-06-20T11:47:19Z</time>
<desc>lat.=56.096989, lon.=26.546911, Alt.=108.776428m. Speed=1.548000m/h.</desc>
<speed>0.430000</speed>
</trkpt>
<trkpt lat="56.096992" lon="26.546915">
<ele>109.112366</ele>
<time>2010-06-20T11:47:20Z</time>
<desc>lat.=56.096992, lon.=26.546915, Alt.=109.112366m. Speed=0.072000m/h.</desc>
<speed>0.020000</speed>
</trkpt>
<trkpt lat="56.096992" lon="26.546919">
<ele>109.311584</ele>
<time>2010-06-20T11:47:21Z</time>
<desc>lat.=56.096992, lon.=26.546919, Alt.=109.311584m. Speed=0.036000m/h.</desc>
<speed>0.010000</speed>
</trkpt>
<trkpt lat="56.096992" lon="26.546923">
<ele>109.530334</ele>
<time>2010-06-20T11:47:22Z</time>
<desc>lat.=56.096992, lon.=26.546923, Alt.=109.530334m. Speed=0.000000m/h.</desc>
<speed>0.000000</speed>
</trkpt>
<trkpt lat="56.096989" lon="26.546923">
<ele>109.747131</ele>
<time>2010-06-20T11:47:23Z</time>
<desc>lat.=56.096989, lon.=26.546923, Alt.=109.747131m. Speed=0.000000m/h.</desc>
<speed>0.000000</speed>
</trkpt>
<trkpt lat="56.096989" lon="26.546923">
<ele>109.751038</ele>
<time>2010-06-20T11:47:24Z</time>
<desc>lat.=56.096989, lon.=26.546923, Alt.=109.751038m. Speed=0.000000m/h.</desc>
<speed>0.000000</speed>
</trkpt>
<trkpt lat="56.096989" lon="26.546923">
<ele>109.752991</ele>
<time>2010-06-20T11:47:25Z</time>
<desc>lat.=56.096989, lon.=26.546923, Alt.=109.752991m. Speed=0.036000m/h.</desc>
<speed>0.010000</speed>
</trkpt>
<trkpt lat="56.096989" lon="26.546923">
<ele>109.754944</ele>
<time>2010-06-20T11:47:26Z</time>
<desc>lat.=56.096989, lon.=26.546923, Alt.=109.754944m. Speed=0.108000m/h.</desc>
<speed>0.030000</speed>
</trkpt>
<trkpt lat="56.096989" lon="26.546923">
<ele>109.756897</ele>
<time>2010-06-20T11:47:27Z</time>
<desc>lat.=56.096989, lon.=26.546923, Alt.=109.756897m. Speed=0.144000m/h.</desc>
<speed>0.040000</speed>
</trkpt>
<trkpt lat="56.096989" lon="26.546923">
<ele>109.756897</ele>
<time>2010-06-20T11:47:28Z</time>
<desc>lat.=56.096989, lon.=26.546923, Alt.=109.756897m. Speed=0.000000m/h.</desc>
<speed>0.000000</speed>
</trkpt>
<trkpt lat="56.096989" lon="26.546923">
<ele>109.758850</ele>
<time>2010-06-20T11:47:29Z</time>
<desc>lat.=56.096989, lon.=26.546923, Alt.=109.758850m. Speed=0.000000m/h.</desc>
<speed>0.000000</speed>
</trkpt>
<trkpt lat="56.096989" lon="26.546923">
<ele>109.760803</ele>
<time>2010-06-20T11:47:30Z</time>
<desc>lat.=56.096989, lon.=26.546923, Alt.=109.760803m. Speed=0.000000m/h.</desc>
<speed>0.000000</speed>
</trkpt>
<trkpt lat="56.096989" lon="26.546923">
<ele>109.764709</ele>
<time>2010-06-20T11:47:31Z</time>
<desc>lat.=56.096989, lon.=26.546923, Alt.=109.764709m. Speed=0.000000m/h.</desc>
<speed>0.000000</speed>
</trkpt>
<trkpt lat="56.096989" lon="26.546923">
<ele>109.770569</ele>
<time>2010-06-20T11:47:32Z</time>
<desc>lat.=56.096989, lon.=26.546923, Alt.=109.770569m. Speed=0.216000m/h.</desc>
<speed>0.060000</speed>
</trkpt>
<trkpt lat="56.096989" lon="26.546923">
<ele>109.774475</ele>
<time>2010-06-20T11:47:33Z</time>
<desc>lat.=56.096989, lon.=26.546923, Alt.=109.774475m. Speed=0.036000m/h.</desc>
<speed>0.010000</speed>
</trkpt>
<trkpt lat="56.096992" lon="26.546923">
<ele>109.768616</ele>
<time>2010-06-20T11:47:34Z</time>
<desc>lat.=56.096992, lon.=26.546923, Alt.=109.768616m. Speed=0.000000m/h.</desc>
<speed>0.000000</speed>
</trkpt>
<trkpt lat="56.096992" lon="26.546923">
<ele>109.770569</ele>
<time>2010-06-20T11:47:35Z</time>
<desc>lat.=56.096992, lon.=26.546923, Alt.=109.770569m. Speed=0.000000m/h.</desc>
<speed>0.000000</speed>
</trkpt>
<trkpt lat="56.096992" lon="26.546923">
<ele>109.772522</ele>
<time>2010-06-20T11:47:36Z</time>
<desc>lat.=56.096992, lon.=26.546923, Alt.=109.772522m. Speed=0.000000m/h.</desc>
<speed>0.000000</speed>
</trkpt>
<trkpt lat="56.096992" lon="26.546923">
<ele>109.776428</ele>
<time>2010-06-20T11:47:37Z</time>
<desc>lat.=56.096992, lon.=26.546923, Alt.=109.776428m. Speed=0.000000m/h.</desc>
<speed>0.000000</speed>
</trkpt>
<trkpt lat="56.096992" lon="26.546923">
<ele>109.778381</ele>
<time>2010-06-20T11:47:38Z</time>
<desc>lat.=56.096992, lon.=26.546923, Alt.=109.778381m. Speed=0.000000m/h.</desc>
<speed>0.000000</speed>
</trkpt>
<trkpt lat="56.096992" lon="26.546923">
<ele>109.780334</ele>
<time>2010-06-20T11:47:39Z</time>
<desc>lat.=56.096992, lon.=26.546923, Alt.=109.780334m. Speed=0.000000m/h.</desc>
<speed>0.000000</speed>
</trkpt>
<trkpt lat="56.096992" lon="26.546923">
<ele>109.784241</ele>
<time>2010-06-20T11:47:40Z</time>
<desc>lat.=56.096992, lon.=26.546923, Alt.=109.784241m. Speed=0.000000m/h.</desc>
<speed>0.000000</speed>
</trkpt>
<trkpt lat="56.096992" lon="26.546923">
<ele>109.784241</ele>
<time>2010-06-20T11:47:41Z</time>
<desc>lat.=56.096992, lon.=26.546923, Alt.=109.784241m. Speed=0.000000m/h.</desc>
<speed>0.000000</speed>
</trkpt>
<trkpt lat="56.096992" lon="26.546923">
<ele>109.788147</ele>
<time>2010-06-20T11:47:42Z</time>
<desc>lat.=56.096992, lon.=26.546923, Alt.=109.788147m. Speed=0.000000m/h.</desc>
<speed>0.000000</speed>
</trkpt>
<trkpt lat="56.096992" lon="26.546923">
<ele>109.790100</ele>
<time>2010-06-20T11:47:43Z</time>
<desc>lat.=56.096992, lon.=26.546923, Alt.=109.790100m. Speed=0.000000m/h.</desc>
<speed>0.000000</speed>
</trkpt>
<trkpt lat="56.096992" lon="26.546923">
<ele>109.790100</ele>
<time>2010-06-20T11:47:44Z</time>
<desc>lat.=56.096992, lon.=26.546923, Alt.=109.790100m. Speed=0.000000m/h.</desc>
<speed>0.000000</speed>
</trkpt>
<trkpt lat="56.096992" lon="26.546923">
<ele>109.790100</ele>
<time>2010-06-20T11:47:45Z</time>
<desc>lat.=56.096992, lon.=26.546923, Alt.=109.790100m. Speed=0.000000m/h.</desc>
<speed>0.000000</speed>
</trkpt>
<trkpt lat="56.096992" lon="26.546923">
<ele>109.788147</ele>
<time>2010-06-20T11:47:46Z</time>
<desc>lat.=56.096992, lon.=26.546923, Alt.=109.788147m. Speed=0.000000m/h.</desc>
<speed>0.000000</speed>
</trkpt>
<trkpt lat="56.096992" lon="26.546923">
<ele>109.788147</ele>
<time>2010-06-20T11:47:47Z</time>
<desc>lat.=56.096992, lon.=26.546923, Alt.=109.788147m. Speed=0.000000m/h.</desc>
<speed>0.000000</speed>
</trkpt>
<trkpt lat="56.096992" lon="26.546923">
<ele>109.788147</ele>
<time>2010-06-20T11:47:48Z</time>
<desc>lat.=56.096992, lon.=26.546923, Alt.=109.788147m. Speed=0.000000m/h.</desc>
<speed>0.000000</speed>
</trkpt>
<trkpt lat="56.096992" lon="26.546923">
<ele>109.788147</ele>
<time>2010-06-20T11:47:49Z</time>
<desc>lat.=56.096992, lon.=26.546923, Alt.=109.788147m. Speed=0.000000m/h.</desc>
<speed>0.000000</speed>
</trkpt>
<trkpt lat="56.096992" lon="26.546923">
<ele>109.790100</ele>
<time>2010-06-20T11:47:50Z</time>
<desc>lat.=56.096992, lon.=26.546923, Alt.=109.790100m. Speed=0.000000m/h.</desc>
<speed>0.000000</speed>
</trkpt>
<trkpt lat="56.096992" lon="26.546923">
<ele>109.790100</ele>
<time>2010-06-20T11:47:51Z</time>
<desc>lat.=56.096992, lon.=26.546923, Alt.=109.790100m. Speed=0.000000m/h.</desc>
<speed>0.000000</speed>
</trkpt>
<trkpt lat="56.096992" lon="26.546923">
<ele>109.792053</ele>
<time>2010-06-20T11:47:52Z</time>
<desc>lat.=56.096992, lon.=26.546923, Alt.=109.792053m. Speed=0.000000m/h.</desc>
<speed>0.000000</speed>
</trkpt>
<trkpt lat="56.096992" lon="26.546923">
<ele>109.792053</ele>
<time>2010-06-20T11:47:53Z</time>
<desc>lat.=56.096992, lon.=26.546923, Alt.=109.792053m. Speed=0.000000m/h.</desc>
<speed>0.000000</speed>
</trkpt>
<trkpt lat="56.096992" lon="26.546923">
<ele>109.792053</ele>
<time>2010-06-20T11:47:54Z</time>
<desc>lat.=56.096992, lon.=26.546923, Alt.=109.792053m. Speed=0.000000m/h.</desc>
<speed>0.000000</speed>
</trkpt>
<trkpt lat="56.096992" lon="26.546923">
<ele>109.790100</ele>
<time>2010-06-20T11:47:55Z</time>
<desc>lat.=56.096992, lon.=26.546923, Alt.=109.790100m. Speed=0.000000m/h.</desc>
<speed>0.000000</speed>
</trkpt>
<trkpt lat="56.096992" lon="26.546923">
<ele>109.788147</ele>
<time>2010-06-20T11:47:56Z</time>
<desc>lat.=56.096992, lon.=26.546923, Alt.=109.788147m. Speed=0.000000m/h.</desc>
<speed>0.000000</speed>
</trkpt>
<trkpt lat="56.096992" lon="26.546923">
<ele>109.788147</ele>
<time>2010-06-20T11:47:57Z</time>
<desc>lat.=56.096992, lon.=26.546923, Alt.=109.788147m. Speed=0.000000m/h.</desc>
<speed>0.000000</speed>
</trkpt>
<trkpt lat="56.096992" lon="26.546923">
<ele>109.788147</ele>
<time>2010-06-20T11:47:58Z</time>
<desc>lat.=56.096992, lon.=26.546923, Alt.=109.788147m. Speed=0.036000m/h.</desc>
<speed>0.010000</speed>
</trkpt>
<trkpt lat="56.096992" lon="26.546923">
<ele>109.786194</ele>
<time>2010-06-20T11:47:59Z</time>
<desc>lat.=56.096992, lon.=26.546923, Alt.=109.786194m. Speed=0.072000m/h.</desc>
<speed>0.020000</speed>
</trkpt>
<trkpt lat="56.096992" lon="26.546923">
<ele>109.782288</ele>
<time>2010-06-20T11:48:00Z</time>
<desc>lat.=56.096992, lon.=26.546923, Alt.=109.782288m. Speed=1.692000m/h.</desc>
<speed>0.470000</speed>
</trkpt>
<trkpt lat="56.096992" lon="26.546923">
<ele>109.803772</ele>
<time>2010-06-20T11:48:01Z</time>
<desc>lat.=56.096992, lon.=26.546923, Alt.=109.803772m. Speed=0.000000m/h.</desc>
<speed>0.000000</speed>
</trkpt>
<trkpt lat="56.096996" lon="26.546926">
<ele>109.805725</ele>
<time>2010-06-20T11:48:02Z</time>
<desc>lat.=56.096996, lon.=26.546926, Alt.=109.805725m. Speed=0.000000m/h.</desc>
<speed>0.000000</speed>
</trkpt>
<trkpt lat="56.097000" lon="26.546928">
<ele>109.817444</ele>
<time>2010-06-20T11:48:03Z</time>
<desc>lat.=56.097000, lon.=26.546928, Alt.=109.817444m. Speed=0.000000m/h.</desc>
<speed>0.000000</speed>
</trkpt>
<trkpt lat="56.097000" lon="26.546930">
<ele>109.815491</ele>
<time>2010-06-20T11:48:04Z</time>
<desc>lat.=56.097000, lon.=26.546930, Alt.=109.815491m. Speed=0.000000m/h.</desc>
<speed>0.000000</speed>
</trkpt>
<trkpt lat="56.097000" lon="26.546930">
<ele>109.815491</ele>
<time>2010-06-20T11:48:05Z</time>
<desc>lat.=56.097000, lon.=26.546930, Alt.=109.815491m. Speed=0.000000m/h.</desc>
<speed>0.000000</speed>
</trkpt>
<trkpt lat="56.097000" lon="26.546930">
<ele>109.815491</ele>
<time>2010-06-20T11:48:06Z</time>
<desc>lat.=56.097000, lon.=26.546930, Alt.=109.815491m. Speed=0.000000m/h.</desc>
<speed>0.000000</speed>
</trkpt>
<trkpt lat="56.097000" lon="26.546930">
<ele>109.815491</ele>
<time>2010-06-20T11:48:07Z</time>
<desc>lat.=56.097000, lon.=26.546930, Alt.=109.815491m. Speed=0.000000m/h.</desc>
<speed>0.000000</speed>
</trkpt>
<trkpt lat="56.097000" lon="26.546930">
<ele>109.817444</ele>
<time>2010-06-20T11:48:08Z</time>
<desc>lat.=56.097000, lon.=26.546930, Alt.=109.817444m. Speed=0.000000m/h.</desc>
<speed>0.000000</speed>
</trkpt>
<trkpt lat="56.097000" lon="26.546930">
<ele>109.817444</ele>
<time>2010-06-20T11:48:09Z</time>
<desc>lat.=56.097000, lon.=26.546930, Alt.=109.817444m. Speed=0.000000m/h.</desc>
<speed>0.000000</speed>
</trkpt>
<trkpt lat="56.097000" lon="26.546930">
<ele>109.817444</ele>
<time>2010-06-20T11:48:10Z</time>
<desc>lat.=56.097000, lon.=26.546930, Alt.=109.817444m. Speed=0.000000m/h.</desc>
<speed>0.000000</speed>
</trkpt>
<trkpt lat="56.097000" lon="26.546930">
<ele>109.821350</ele>
<time>2010-06-20T11:48:11Z</time>
<desc>lat.=56.097000, lon.=26.546930, Alt.=109.821350m. Speed=0.000000m/h.</desc>
<speed>0.000000</speed>
</trkpt>
<trkpt lat="56.097000" lon="26.546930">
<ele>109.825256</ele>
<time>2010-06-20T11:48:12Z</time>
<desc>lat.=56.097000, lon.=26.546930, Alt.=109.825256m. Speed=0.000000m/h.</desc>
<speed>0.000000</speed>
</trkpt>
<trkpt lat="56.097000" lon="26.546930">
<ele>109.827209</ele>
<time>2010-06-20T11:48:13Z</time>
<desc>lat.=56.097000, lon.=26.546930, Alt.=109.827209m. Speed=0.000000m/h.</desc>
<speed>0.000000</speed>
</trkpt>
<trkpt lat="56.097000" lon="26.546930">
<ele>109.827209</ele>
<time>2010-06-20T11:48:14Z</time>
<desc>lat.=56.097000, lon.=26.546930, Alt.=109.827209m. Speed=0.000000m/h.</desc>
<speed>0.000000</speed>
</trkpt>
<trkpt lat="56.097000" lon="26.546930">
<ele>109.829163</ele>
<time>2010-06-20T11:48:15Z</time>
<desc>lat.=56.097000, lon.=26.546930, Alt.=109.829163m. Speed=0.000000m/h.</desc>
<speed>0.000000</speed>
</trkpt>
<trkpt lat="56.097000" lon="26.546930">
<ele>109.829163</ele>
<time>2010-06-20T11:48:16Z</time>
<desc>lat.=56.097000, lon.=26.546930, Alt.=109.829163m. Speed=0.000000m/h.</desc>
<speed>0.000000</speed>
</trkpt>
<trkpt lat="56.097000" lon="26.546930">
<ele>109.829163</ele>
<time>2010-06-20T11:48:17Z</time>
<desc>lat.=56.097000, lon.=26.546930, Alt.=109.829163m. Speed=0.000000m/h.</desc>
<speed>0.000000</speed>
</trkpt>
<trkpt lat="56.097000" lon="26.546930">
<ele>109.831116</ele>
<time>2010-06-20T11:48:18Z</time>
<desc>lat.=56.097000, lon.=26.546930, Alt.=109.831116m. Speed=0.036000m/h.</desc>
<speed>0.010000</speed>
</trkpt>
<trkpt lat="56.097000" lon="26.546930">
<ele>109.833069</ele>
<time>2010-06-20T11:48:19Z</time>
<desc>lat.=56.097000, lon.=26.546930, Alt.=109.833069m. Speed=0.072000m/h.</desc>
<speed>0.020000</speed>
</trkpt>
<trkpt lat="56.097000" lon="26.546930">
<ele>109.835022</ele>
<time>2010-06-20T11:48:20Z</time>
<desc>lat.=56.097000, lon.=26.546930, Alt.=109.835022m. Speed=0.000000m/h.</desc>
<speed>0.000000</speed>
</trkpt>
<trkpt lat="56.097000" lon="26.546930">
<ele>109.836975</ele>
<time>2010-06-20T11:48:21Z</time>
<desc>lat.=56.097000, lon.=26.546930, Alt.=109.836975m. Speed=0.000000m/h.</desc>
<speed>0.000000</speed>
</trkpt>
<trkpt lat="56.097000" lon="26.546930">
<ele>109.838928</ele>
<time>2010-06-20T11:48:22Z</time>
<desc>lat.=56.097000, lon.=26.546930, Alt.=109.838928m. Speed=0.000000m/h.</desc>
<speed>0.000000</speed>
</trkpt>
<trkpt lat="56.097000" lon="26.546930">
<ele>109.840881</ele>
<time>2010-06-20T11:48:23Z</time>
<desc>lat.=56.097000, lon.=26.546930, Alt.=109.840881m. Speed=0.000000m/h.</desc>
<speed>0.000000</speed>
</trkpt>
<trkpt lat="56.097000" lon="26.546930">
<ele>109.840881</ele>
<time>2010-06-20T11:48:24Z</time>
<desc>lat.=56.097000, lon.=26.546930, Alt.=109.840881m. Speed=0.000000m/h.</desc>
<speed>0.000000</speed>
</trkpt>
<trkpt lat="56.097000" lon="26.546930">
<ele>109.840881</ele>
<time>2010-06-20T11:48:25Z</time>
<desc>lat.=56.097000, lon.=26.546930, Alt.=109.840881m. Speed=0.000000m/h.</desc>
<speed>0.000000</speed>
</trkpt>
<trkpt lat="56.097000" lon="26.546930">
<ele>109.842834</ele>
<time>2010-06-20T11:48:26Z</time>
<desc>lat.=56.097000, lon.=26.546930, Alt.=109.842834m. Speed=0.000000m/h.</desc>
<speed>0.000000</speed>
</trkpt>
<trkpt lat="56.097000" lon="26.546930">
<ele>109.846741</ele>
<time>2010-06-20T11:48:27Z</time>
<desc>lat.=56.097000, lon.=26.546930, Alt.=109.846741m. Speed=0.000000m/h.</desc>
<speed>0.000000</speed>
</trkpt>
<trkpt lat="56.097000" lon="26.546930">
<ele>109.848694</ele>
<time>2010-06-20T11:48:28Z</time>
<desc>lat.=56.097000, lon.=26.546930, Alt.=109.848694m. Speed=0.000000m/h.</desc>
<speed>0.000000</speed>
</trkpt>
<trkpt lat="56.097000" lon="26.546930">
<ele>109.850647</ele>
<time>2010-06-20T11:48:29Z</time>
<desc>lat.=56.097000, lon.=26.546930, Alt.=109.850647m. Speed=0.000000m/h.</desc>
<speed>0.000000</speed>
</trkpt>
<trkpt lat="56.097000" lon="26.546930">
<ele>109.852600</ele>
<time>2010-06-20T11:48:30Z</time>
<desc>lat.=56.097000, lon.=26.546930, Alt.=109.852600m. Speed=0.000000m/h.</desc>
<speed>0.000000</speed>
</trkpt>
<trkpt lat="56.097000" lon="26.546928">
<ele>109.852600</ele>
<time>2010-06-20T11:48:31Z</time>
<desc>lat.=56.097000, lon.=26.546928, Alt.=109.852600m. Speed=0.000000m/h.</desc>
<speed>0.000000</speed>
</trkpt>
<trkpt lat="56.097000" lon="26.546928">
<ele>109.850647</ele>
<time>2010-06-20T11:48:32Z</time>
<desc>lat.=56.097000, lon.=26.546928, Alt.=109.850647m. Speed=0.000000m/h.</desc>
<speed>0.000000</speed>
</trkpt>
<trkpt lat="56.097000" lon="26.546928">
<ele>109.852600</ele>
<time>2010-06-20T11:48:33Z</time>
<desc>lat.=56.097000, lon.=26.546928, Alt.=109.852600m. Speed=0.000000m/h.</desc>
<speed>0.000000</speed>
</trkpt>
<trkpt lat="56.097000" lon="26.546928">
<ele>109.856506</ele>
<time>2010-06-20T11:48:34Z</time>
<desc>lat.=56.097000, lon.=26.546928, Alt.=109.856506m. Speed=0.000000m/h.</desc>
<speed>0.000000</speed>
</trkpt>
<trkpt lat="56.097000" lon="26.546928">
<ele>109.858459</ele>
<time>2010-06-20T11:48:35Z</time>
<desc>lat.=56.097000, lon.=26.546928, Alt.=109.858459m. Speed=0.000000m/h.</desc>
<speed>0.000000</speed>
</trkpt>
<trkpt lat="56.097000" lon="26.546928">
<ele>109.860413</ele>
<time>2010-06-20T11:48:36Z</time>
<desc>lat.=56.097000, lon.=26.546928, Alt.=109.860413m. Speed=0.108000m/h.</desc>
<speed>0.030000</speed>
</trkpt>
<trkpt lat="56.097000" lon="26.546928">
<ele>109.862366</ele>
<time>2010-06-20T11:48:37Z</time>
<desc>lat.=56.097000, lon.=26.546928, Alt.=109.862366m. Speed=0.108000m/h.</desc>
<speed>0.030000</speed>
</trkpt>
<trkpt lat="56.097000" lon="26.546928">
<ele>109.862366</ele>
<time>2010-06-20T11:48:38Z</time>
<desc>lat.=56.097000, lon.=26.546928, Alt.=109.862366m. Speed=0.036000m/h.</desc>
<speed>0.010000</speed>
</trkpt>
<trkpt lat="56.097000" lon="26.546928">
<ele>109.864319</ele>
<time>2010-06-20T11:48:39Z</time>
<desc>lat.=56.097000, lon.=26.546928, Alt.=109.864319m. Speed=0.000000m/h.</desc>
<speed>0.000000</speed>
</trkpt>
<trkpt lat="56.097000" lon="26.546928">
<ele>109.864319</ele>
<time>2010-06-20T11:48:40Z</time>
<desc>lat.=56.097000, lon.=26.546928, Alt.=109.864319m. Speed=0.000000m/h.</desc>
<speed>0.000000</speed>
</trkpt>
<trkpt lat="56.097000" lon="26.546928">
<ele>109.870178</ele>
<time>2010-06-20T11:48:41Z</time>
<desc>lat.=56.097000, lon.=26.546928, Alt.=109.870178m. Speed=0.000000m/h.</desc>
<speed>0.000000</speed>
</trkpt>
<trkpt lat="56.097000" lon="26.546928">
<ele>109.872131</ele>
<time>2010-06-20T11:48:42Z</time>
<desc>lat.=56.097000, lon.=26.546928, Alt.=109.872131m. Speed=0.072000m/h.</desc>
<speed>0.020000</speed>
</trkpt>
<trkpt lat="56.097000" lon="26.546928">
<ele>109.872131</ele>
<time>2010-06-20T11:48:43Z</time>
<desc>lat.=56.097000, lon.=26.546928, Alt.=109.872131m. Speed=0.144000m/h.</desc>
<speed>0.040000</speed>
</trkpt>
<trkpt lat="56.097000" lon="26.546928">
<ele>109.872131</ele>
<time>2010-06-20T11:48:44Z</time>
<desc>lat.=56.097000, lon.=26.546928, Alt.=109.872131m. Speed=0.000000m/h.</desc>
<speed>0.000000</speed>
</trkpt>
<trkpt lat="56.097000" lon="26.546928">
<ele>109.872131</ele>
<time>2010-06-20T11:48:45Z</time>
<desc>lat.=56.097000, lon.=26.546928, Alt.=109.872131m. Speed=0.108000m/h.</desc>
<speed>0.030000</speed>
</trkpt>
<trkpt lat="56.097004" lon="26.546928">
<ele>109.872131</ele>
<time>2010-06-20T11:48:46Z</time>
<desc>lat.=56.097004, lon.=26.546928, Alt.=109.872131m. Speed=0.000000m/h.</desc>
<speed>0.000000</speed>
</trkpt>
<trkpt lat="56.097004" lon="26.546928">
<ele>109.872131</ele>
<time>2010-06-20T11:48:47Z</time>
<desc>lat.=56.097004, lon.=26.546928, Alt.=109.872131m. Speed=0.000000m/h.</desc>
<speed>0.000000</speed>
</trkpt>
<trkpt lat="56.097004" lon="26.546928">
<ele>109.874084</ele>
<time>2010-06-20T11:48:48Z</time>
<desc>lat.=56.097004, lon.=26.546928, Alt.=109.874084m. Speed=0.000000m/h.</desc>
<speed>0.000000</speed>
</trkpt>
<trkpt lat="56.097004" lon="26.546928">
<ele>109.872131</ele>
<time>2010-06-20T11:48:49Z</time>
<desc>lat.=56.097004, lon.=26.546928, Alt.=109.872131m. Speed=0.036000m/h.</desc>
<speed>0.010000</speed>
</trkpt>
<trkpt lat="56.097004" lon="26.546928">
<ele>109.872131</ele>
<time>2010-06-20T11:48:50Z</time>
<desc>lat.=56.097004, lon.=26.546928, Alt.=109.872131m. Speed=0.000000m/h.</desc>
<speed>0.000000</speed>
</trkpt>
<trkpt lat="56.097004" lon="26.546928">
<ele>109.872131</ele>
<time>2010-06-20T11:48:51Z</time>
<desc>lat.=56.097004, lon.=26.546928, Alt.=109.872131m. Speed=0.000000m/h.</desc>
<speed>0.000000</speed>
</trkpt>
<trkpt lat="56.097004" lon="26.546928">
<ele>109.872131</ele>
<time>2010-06-20T11:48:52Z</time>
<desc>lat.=56.097004, lon.=26.546928, Alt.=109.872131m. Speed=0.000000m/h.</desc>
<speed>0.000000</speed>
</trkpt>
<trkpt lat="56.097004" lon="26.546928">
<ele>109.872131</ele>
<time>2010-06-20T11:48:53Z</time>
<desc>lat.=56.097004, lon.=26.546928, Alt.=109.872131m. Speed=0.000000m/h.</desc>
<speed>0.000000</speed>
</trkpt>
<trkpt lat="56.097004" lon="26.546928">
<ele>109.872131</ele>
<time>2010-06-20T11:48:54Z</time>
<desc>lat.=56.097004, lon.=26.546928, Alt.=109.872131m. Speed=0.036000m/h.</desc>
<speed>0.010000</speed>
</trkpt>
<trkpt lat="56.097004" lon="26.546928">
<ele>109.874084</ele>
<time>2010-06-20T11:48:55Z</time>
<desc>lat.=56.097004, lon.=26.546928, Alt.=109.874084m. Speed=0.000000m/h.</desc>
<speed>0.000000</speed>
</trkpt>
<trkpt lat="56.097004" lon="26.546928">
<ele>109.872131</ele>
<time>2010-06-20T11:48:56Z</time>
<desc>lat.=56.097004, lon.=26.546928, Alt.=109.872131m. Speed=0.000000m/h.</desc>
<speed>0.000000</speed>
</trkpt>
<trkpt lat="56.097004" lon="26.546928">
<ele>109.872131</ele>
<time>2010-06-20T11:48:57Z</time>
<desc>lat.=56.097004, lon.=26.546928, Alt.=109.872131m. Speed=0.000000m/h.</desc>
<speed>0.000000</speed>
</trkpt>
<trkpt lat="56.097004" lon="26.546928">
<ele>109.872131</ele>
<time>2010-06-20T11:48:58Z</time>
<desc>lat.=56.097004, lon.=26.546928, Alt.=109.872131m. Speed=0.000000m/h.</desc>
<speed>0.000000</speed>
</trkpt>
<trkpt lat="56.097004" lon="26.546928">
<ele>109.872131</ele>
<time>2010-06-20T11:48:59Z</time>
<desc>lat.=56.097004, lon.=26.546928, Alt.=109.872131m. Speed=0.648000m/h.</desc>
<speed>0.180000</speed>
</trkpt>
<trkpt lat="56.097004" lon="26.546928">
<ele>109.872131</ele>
<time>2010-06-20T11:49:00Z</time>
<desc>lat.=56.097004, lon.=26.546928, Alt.=109.872131m. Speed=0.036000m/h.</desc>
<speed>0.010000</speed>
</trkpt>
<trkpt lat="56.097004" lon="26.546928">
<ele>109.887756</ele>
<time>2010-06-20T11:49:01Z</time>
<desc>lat.=56.097004, lon.=26.546928, Alt.=109.887756m. Speed=0.000000m/h.</desc>
<speed>0.000000</speed>
</trkpt>
<trkpt lat="56.097004" lon="26.546928">
<ele>109.885803</ele>
<time>2010-06-20T11:49:02Z</time>
<desc>lat.=56.097004, lon.=26.546928, Alt.=109.885803m. Speed=0.000000m/h.</desc>
<speed>0.000000</speed>
</trkpt>
<trkpt lat="56.097004" lon="26.546928">
<ele>109.885803</ele>
<time>2010-06-20T11:49:03Z</time>
<desc>lat.=56.097004, lon.=26.546928, Alt.=109.885803m. Speed=0.000000m/h.</desc>
<speed>0.000000</speed>
</trkpt>
<trkpt lat="56.097004" lon="26.546928">
<ele>109.883850</ele>
<time>2010-06-20T11:49:04Z</time>
<desc>lat.=56.097004, lon.=26.546928, Alt.=109.883850m. Speed=0.000000m/h.</desc>
<speed>0.000000</speed>
</trkpt>
<trkpt lat="56.097004" lon="26.546928">
<ele>109.883850</ele>
<time>2010-06-20T11:49:05Z</time>
<desc>lat.=56.097004, lon.=26.546928, Alt.=109.883850m. Speed=0.000000m/h.</desc>
<speed>0.000000</speed>
</trkpt>
<trkpt lat="56.097004" lon="26.546928">
<ele>109.883850</ele>
<time>2010-06-20T11:49:06Z</time>
<desc>lat.=56.097004, lon.=26.546928, Alt.=109.883850m. Speed=0.000000m/h.</desc>
<speed>0.000000</speed>
</trkpt>
<trkpt lat="56.097004" lon="26.546928">
<ele>109.883850</ele>
<time>2010-06-20T11:49:07Z</time>
<desc>lat.=56.097004, lon.=26.546928, Alt.=109.883850m. Speed=0.000000m/h.</desc>
<speed>0.000000</speed>
</trkpt>
<trkpt lat="56.097004" lon="26.546928">
<ele>109.883850</ele>
<time>2010-06-20T11:49:08Z</time>
<desc>lat.=56.097004, lon.=26.546928, Alt.=109.883850m. Speed=0.000000m/h.</desc>
<speed>0.000000</speed>
</trkpt>
<trkpt lat="56.097004" lon="26.546928">
<ele>109.885803</ele>
<time>2010-06-20T11:49:09Z</time>
<desc>lat.=56.097004, lon.=26.546928, Alt.=109.885803m. Speed=0.000000m/h.</desc>
<speed>0.000000</speed>
</trkpt>
<trkpt lat="56.097004" lon="26.546928">
<ele>109.885803</ele>
<time>2010-06-20T11:49:10Z</time>
<desc>lat.=56.097004, lon.=26.546928, Alt.=109.885803m. Speed=0.000000m/h.</desc>
<speed>0.000000</speed>
</trkpt>
<trkpt lat="56.097004" lon="26.546928">
<ele>109.885803</ele>
<time>2010-06-20T11:49:11Z</time>
<desc>lat.=56.097004, lon.=26.546928, Alt.=109.885803m. Speed=0.000000m/h.</desc>
<speed>0.000000</speed>
</trkpt>
<trkpt lat="56.097004" lon="26.546928">
<ele>109.885803</ele>
<time>2010-06-20T11:49:12Z</time>
<desc>lat.=56.097004, lon.=26.546928, Alt.=109.885803m. Speed=0.000000m/h.</desc>
<speed>0.000000</speed>
</trkpt>
<trkpt lat="56.097004" lon="26.546928">
<ele>109.887756</ele>
<time>2010-06-20T11:49:13Z</time>
<desc>lat.=56.097004, lon.=26.546928, Alt.=109.887756m. Speed=0.000000m/h.</desc>
<speed>0.000000</speed>
</trkpt>
<trkpt lat="56.097004" lon="26.546928">
<ele>109.889709</ele>
<time>2010-06-20T11:49:14Z</time>
<desc>lat.=56.097004, lon.=26.546928, Alt.=109.889709m. Speed=0.000000m/h.</desc>
<speed>0.000000</speed>
</trkpt>
<trkpt lat="56.097004" lon="26.546928">
<ele>109.889709</ele>
<time>2010-06-20T11:49:15Z</time>
<desc>lat.=56.097004, lon.=26.546928, Alt.=109.889709m. Speed=0.000000m/h.</desc>
<speed>0.000000</speed>
</trkpt>
<trkpt lat="56.097004" lon="26.546928">
<ele>109.885803</ele>
<time>2010-06-20T11:49:16Z</time>
<desc>lat.=56.097004, lon.=26.546928, Alt.=109.885803m. Speed=0.000000m/h.</desc>
<speed>0.000000</speed>
</trkpt>
<trkpt lat="56.097004" lon="26.546928">
<ele>109.885803</ele>
<time>2010-06-20T11:49:17Z</time>
<desc>lat.=56.097004, lon.=26.546928, Alt.=109.885803m. Speed=0.000000m/h.</desc>
<speed>0.000000</speed>
</trkpt>
<trkpt lat="56.097004" lon="26.546928">
<ele>109.883850</ele>
<time>2010-06-20T11:49:18Z</time>
<desc>lat.=56.097004, lon.=26.546928, Alt.=109.883850m. Speed=0.000000m/h.</desc>
<speed>0.000000</speed>
</trkpt>
<trkpt lat="56.097004" lon="26.546928">
<ele>109.879944</ele>
<time>2010-06-20T11:49:19Z</time>
<desc>lat.=56.097004, lon.=26.546928, Alt.=109.879944m. Speed=0.000000m/h.</desc>
<speed>0.000000</speed>
</trkpt>
<trkpt lat="56.097004" lon="26.546928">
<ele>109.877991</ele>
<time>2010-06-20T11:49:20Z</time>
<desc>lat.=56.097004, lon.=26.546928, Alt.=109.877991m. Speed=0.000000m/h.</desc>
<speed>0.000000</speed>
</trkpt>
<trkpt lat="56.097004" lon="26.546928">
<ele>109.877991</ele>
<time>2010-06-20T11:49:21Z</time>
<desc>lat.=56.097004, lon.=26.546928, Alt.=109.877991m. Speed=0.000000m/h.</desc>
<speed>0.000000</speed>
</trkpt>
<trkpt lat="56.097004" lon="26.546928">
<ele>109.874084</ele>
<time>2010-06-20T11:49:22Z</time>
<desc>lat.=56.097004, lon.=26.546928, Alt.=109.874084m. Speed=0.000000m/h.</desc>
<speed>0.000000</speed>
</trkpt>
<trkpt lat="56.097004" lon="26.546928">
<ele>109.870178</ele>
<time>2010-06-20T11:49:23Z</time>
<desc>lat.=56.097004, lon.=26.546928, Alt.=109.870178m. Speed=0.000000m/h.</desc>
<speed>0.000000</speed>
</trkpt>
<trkpt lat="56.097004" lon="26.546928">
<ele>109.868225</ele>
<time>2010-06-20T11:49:24Z</time>
<desc>lat.=56.097004, lon.=26.546928, Alt.=109.868225m. Speed=0.000000m/h.</desc>
<speed>0.000000</speed>
</trkpt>
<trkpt lat="56.097004" lon="26.546928">
<ele>109.868225</ele>
<time>2010-06-20T11:49:25Z</time>
<desc>lat.=56.097004, lon.=26.546928, Alt.=109.868225m. Speed=0.000000m/h.</desc>
<speed>0.000000</speed>
</trkpt>
<trkpt lat="56.097004" lon="26.546928">
<ele>109.868225</ele>
<time>2010-06-20T11:49:26Z</time>
<desc>lat.=56.097004, lon.=26.546928, Alt.=109.868225m. Speed=0.000000m/h.</desc>
<speed>0.000000</speed>
</trkpt>
<trkpt lat="56.097004" lon="26.546928">
<ele>109.868225</ele>
<time>2010-06-20T11:49:27Z</time>
<desc>lat.=56.097004, lon.=26.546928, Alt.=109.868225m. Speed=0.000000m/h.</desc>
<speed>0.000000</speed>
</trkpt>
<trkpt lat="56.097004" lon="26.546928">
<ele>109.864319</ele>
<time>2010-06-20T11:49:28Z</time>
<desc>lat.=56.097004, lon.=26.546928, Alt.=109.864319m. Speed=0.000000m/h.</desc>
<speed>0.000000</speed>
</trkpt>
<trkpt lat="56.097004" lon="26.546928">
<ele>109.864319</ele>
<time>2010-06-20T11:49:29Z</time>
<desc>lat.=56.097004, lon.=26.546928, Alt.=109.864319m. Speed=0.000000m/h.</desc>
<speed>0.000000</speed>
</trkpt>
<trkpt lat="56.097004" lon="26.546928">
<ele>109.864319</ele>
<time>2010-06-20T11:49:30Z</time>
<desc>lat.=56.097004, lon.=26.546928, Alt.=109.864319m. Speed=0.000000m/h.</desc>
<speed>0.000000</speed>
</trkpt>
<trkpt lat="56.097004" lon="26.546928">
<ele>109.862366</ele>
<time>2010-06-20T11:49:31Z</time>
<desc>lat.=56.097004, lon.=26.546928, Alt.=109.862366m. Speed=0.000000m/h.</desc>
<speed>0.000000</speed>
</trkpt>
<trkpt lat="56.097004" lon="26.546928">
<ele>109.860413</ele>
<time>2010-06-20T11:49:32Z</time>
<desc>lat.=56.097004, lon.=26.546928, Alt.=109.860413m. Speed=0.000000m/h.</desc>
<speed>0.000000</speed>
</trkpt>
<trkpt lat="56.097004" lon="26.546928">
<ele>109.862366</ele>
<time>2010-06-20T11:49:33Z</time>
<desc>lat.=56.097004, lon.=26.546928, Alt.=109.862366m. Speed=0.000000m/h.</desc>
<speed>0.000000</speed>
</trkpt>
<trkpt lat="56.097004" lon="26.546928">
<ele>109.864319</ele>
<time>2010-06-20T11:49:34Z</time>
<desc>lat.=56.097004, lon.=26.546928, Alt.=109.864319m. Speed=0.000000m/h.</desc>
<speed>0.000000</speed>
</trkpt>
<trkpt lat="56.097004" lon="26.546928">
<ele>109.866272</ele>
<time>2010-06-20T11:49:35Z</time>
<desc>lat.=56.097004, lon.=26.546928, Alt.=109.866272m. Speed=0.000000m/h.</desc>
<speed>0.000000</speed>
</trkpt>
<trkpt lat="56.097004" lon="26.546928">
<ele>109.870178</ele>
<time>2010-06-20T11:49:36Z</time>
<desc>lat.=56.097004, lon.=26.546928, Alt.=109.870178m. Speed=0.000000m/h.</desc>
<speed>0.000000</speed>
</trkpt>
<trkpt lat="56.097004" lon="26.546928">
<ele>109.868225</ele>
<time>2010-06-20T11:49:37Z</time>
<desc>lat.=56.097004, lon.=26.546928, Alt.=109.868225m. Speed=0.000000m/h.</desc>
<speed>0.000000</speed>
</trkpt>
<trkpt lat="56.097004" lon="26.546928">
<ele>109.866272</ele>
<time>2010-06-20T11:49:38Z</time>
<desc>lat.=56.097004, lon.=26.546928, Alt.=109.866272m. Speed=0.000000m/h.</desc>
<speed>0.000000</speed>
</trkpt>
<trkpt lat="56.097004" lon="26.546928">
<ele>109.862366</ele>
<time>2010-06-20T11:49:39Z</time>
<desc>lat.=56.097004, lon.=26.546928, Alt.=109.862366m. Speed=0.000000m/h.</desc>
<speed>0.000000</speed>
</trkpt>
<trkpt lat="56.097004" lon="26.546928">
<ele>109.858459</ele>
<time>2010-06-20T11:49:40Z</time>
<desc>lat.=56.097004, lon.=26.546928, Alt.=109.858459m. Speed=0.000000m/h.</desc>
<speed>0.000000</speed>
</trkpt>
<trkpt lat="56.097004" lon="26.546928">
<ele>109.856506</ele>
<time>2010-06-20T11:49:41Z</time>
<desc>lat.=56.097004, lon.=26.546928, Alt.=109.856506m. Speed=0.000000m/h.</desc>
<speed>0.000000</speed>
</trkpt>
<trkpt lat="56.097004" lon="26.546928">
<ele>109.858459</ele>
<time>2010-06-20T11:49:42Z</time>
<desc>lat.=56.097004, lon.=26.546928, Alt.=109.858459m. Speed=0.000000m/h.</desc>
<speed>0.000000</speed>
</trkpt>
<trkpt lat="56.097004" lon="26.546928">
<ele>109.864319</ele>
<time>2010-06-20T11:49:43Z</time>
<desc>lat.=56.097004, lon.=26.546928, Alt.=109.864319m. Speed=0.000000m/h.</desc>
<speed>0.000000</speed>
</trkpt>
<trkpt lat="56.097004" lon="26.546928">
<ele>109.868225</ele>
<time>2010-06-20T11:49:44Z</time>
<desc>lat.=56.097004, lon.=26.546928, Alt.=109.868225m. Speed=0.000000m/h.</desc>
<speed>0.000000</speed>
</trkpt>
<trkpt lat="56.097004" lon="26.546928">
<ele>109.866272</ele>
<time>2010-06-20T11:49:45Z</time>
<desc>lat.=56.097004, lon.=26.546928, Alt.=109.866272m. Speed=0.000000m/h.</desc>
<speed>0.000000</speed>
</trkpt>
<trkpt lat="56.097004" lon="26.546928">
<ele>109.866272</ele>
<time>2010-06-20T11:49:46Z</time>
<desc>lat.=56.097004, lon.=26.546928, Alt.=109.866272m. Speed=0.000000m/h.</desc>
<speed>0.000000</speed>
</trkpt>
<trkpt lat="56.097004" lon="26.546928">
<ele>109.866272</ele>
<time>2010-06-20T11:49:47Z</time>
<desc>lat.=56.097004, lon.=26.546928, Alt.=109.866272m. Speed=0.000000m/h.</desc>
<speed>0.000000</speed>
</trkpt>
<trkpt lat="56.097004" lon="26.546928">
<ele>109.868225</ele>
<time>2010-06-20T11:49:48Z</time>
<desc>lat.=56.097004, lon.=26.546928, Alt.=109.868225m. Speed=0.000000m/h.</desc>
<speed>0.000000</speed>
</trkpt>
<trkpt lat="56.097004" lon="26.546928">
<ele>109.870178</ele>
<time>2010-06-20T11:49:49Z</time>
<desc>lat.=56.097004, lon.=26.546928, Alt.=109.870178m. Speed=0.000000m/h.</desc>
<speed>0.000000</speed>
</trkpt>
<trkpt lat="56.097004" lon="26.546928">
<ele>109.868225</ele>
<time>2010-06-20T11:49:50Z</time>
<desc>lat.=56.097004, lon.=26.546928, Alt.=109.868225m. Speed=0.000000m/h.</desc>
<speed>0.000000</speed>
</trkpt>
<trkpt lat="56.097004" lon="26.546928">
<ele>109.866272</ele>
<time>2010-06-20T11:49:51Z</time>
<desc>lat.=56.097004, lon.=26.546928, Alt.=109.866272m. Speed=0.000000m/h.</desc>
<speed>0.000000</speed>
</trkpt>
<trkpt lat="56.097004" lon="26.546928">
<ele>109.866272</ele>
<time>2010-06-20T11:49:52Z</time>
<desc>lat.=56.097004, lon.=26.546928, Alt.=109.866272m. Speed=0.000000m/h.</desc>
<speed>0.000000</speed>
</trkpt>
<trkpt lat="56.097004" lon="26.546928">
<ele>109.870178</ele>
<time>2010-06-20T11:49:53Z</time>
<desc>lat.=56.097004, lon.=26.546928, Alt.=109.870178m. Speed=0.036000m/h.</desc>
<speed>0.010000</speed>
</trkpt>
<trkpt lat="56.097004" lon="26.546926">
<ele>109.874084</ele>
<time>2010-06-20T11:49:54Z</time>
<desc>lat.=56.097004, lon.=26.546926, Alt.=109.874084m. Speed=0.000000m/h.</desc>
<speed>0.000000</speed>
</trkpt>
<trkpt lat="56.097004" lon="26.546926">
<ele>109.874084</ele>
<time>2010-06-20T11:49:55Z</time>
<desc>lat.=56.097004, lon.=26.546926, Alt.=109.874084m. Speed=0.000000m/h.</desc>
<speed>0.000000</speed>
</trkpt>
<trkpt lat="56.097004" lon="26.546926">
<ele>109.872131</ele>
<time>2010-06-20T11:49:56Z</time>
<desc>lat.=56.097004, lon.=26.546926, Alt.=109.872131m. Speed=0.000000m/h.</desc>
<speed>0.000000</speed>
</trkpt>
<trkpt lat="56.097004" lon="26.546926">
<ele>109.870178</ele>
<time>2010-06-20T11:49:57Z</time>
<desc>lat.=56.097004, lon.=26.546926, Alt.=109.870178m. Speed=0.000000m/h.</desc>
<speed>0.000000</speed>
</trkpt>
<trkpt lat="56.097004" lon="26.546926">
<ele>109.872131</ele>
<time>2010-06-20T11:49:58Z</time>
<desc>lat.=56.097004, lon.=26.546926, Alt.=109.872131m. Speed=0.036000m/h.</desc>
<speed>0.010000</speed>
</trkpt>
<trkpt lat="56.097004" lon="26.546926">
<ele>109.872131</ele>
<time>2010-06-20T11:49:59Z</time>
<desc>lat.=56.097004, lon.=26.546926, Alt.=109.872131m. Speed=0.000000m/h.</desc>
<speed>0.000000</speed>
</trkpt>
<trkpt lat="56.097004" lon="26.546926">
<ele>109.868225</ele>
<time>2010-06-20T11:50:00Z</time>
<desc>lat.=56.097004, lon.=26.546926, Alt.=109.868225m. Speed=0.000000m/h.</desc>
<speed>0.000000</speed>
</trkpt>
<trkpt lat="56.097004" lon="26.546926">
<ele>109.864319</ele>
<time>2010-06-20T11:50:01Z</time>
<desc>lat.=56.097004, lon.=26.546926, Alt.=109.864319m. Speed=0.000000m/h.</desc>
<speed>0.000000</speed>
</trkpt>
<trkpt lat="56.097004" lon="26.546926">
<ele>109.864319</ele>
<time>2010-06-20T11:50:02Z</time>
<desc>lat.=56.097004, lon.=26.546926, Alt.=109.864319m. Speed=0.000000m/h.</desc>
<speed>0.000000</speed>
</trkpt>
<trkpt lat="56.097004" lon="26.546926">
<ele>109.866272</ele>
<time>2010-06-20T11:50:03Z</time>
<desc>lat.=56.097004, lon.=26.546926, Alt.=109.866272m. Speed=0.000000m/h.</desc>
<speed>0.000000</speed>
</trkpt>
<trkpt lat="56.097004" lon="26.546926">
<ele>109.870178</ele>
<time>2010-06-20T11:50:04Z</time>
<desc>lat.=56.097004, lon.=26.546926, Alt.=109.870178m. Speed=0.000000m/h.</desc>
<speed>0.000000</speed>
</trkpt>
<trkpt lat="56.097004" lon="26.546926">
<ele>109.872131</ele>
<time>2010-06-20T11:50:05Z</time>
<desc>lat.=56.097004, lon.=26.546926, Alt.=109.872131m. Speed=0.000000m/h.</desc>
<speed>0.000000</speed>
</trkpt>
<trkpt lat="56.097004" lon="26.546926">
<ele>109.874084</ele>
<time>2010-06-20T11:50:06Z</time>
<desc>lat.=56.097004, lon.=26.546926, Alt.=109.874084m. Speed=0.000000m/h.</desc>
<speed>0.000000</speed>
</trkpt>
<trkpt lat="56.097004" lon="26.546926">
<ele>109.879944</ele>
<time>2010-06-20T11:50:07Z</time>
<desc>lat.=56.097004, lon.=26.546926, Alt.=109.879944m. Speed=0.000000m/h.</desc>
<speed>0.000000</speed>
</trkpt>
<trkpt lat="56.097004" lon="26.546926">
<ele>109.883850</ele>
<time>2010-06-20T11:50:08Z</time>
<desc>lat.=56.097004, lon.=26.546926, Alt.=109.883850m. Speed=0.000000m/h.</desc>
<speed>0.000000</speed>
</trkpt>
<trkpt lat="56.097004" lon="26.546926">
<ele>109.889709</ele>
<time>2010-06-20T11:50:09Z</time>
<desc>lat.=56.097004, lon.=26.546926, Alt.=109.889709m. Speed=0.036000m/h.</desc>
<speed>0.010000</speed>
</trkpt>
<trkpt lat="56.097000" lon="26.546926">
<ele>109.897522</ele>
<time>2010-06-20T11:50:10Z</time>
<desc>lat.=56.097000, lon.=26.546926, Alt.=109.897522m. Speed=0.000000m/h.</desc>
<speed>0.000000</speed>
</trkpt>
<trkpt lat="56.097000" lon="26.546926">
<ele>109.899475</ele>
<time>2010-06-20T11:50:11Z</time>
<desc>lat.=56.097000, lon.=26.546926, Alt.=109.899475m. Speed=0.000000m/h.</desc>
<speed>0.000000</speed>
</trkpt>
<trkpt lat="56.097000" lon="26.546926">
<ele>109.901428</ele>
<time>2010-06-20T11:50:12Z</time>
<desc>lat.=56.097000, lon.=26.546926, Alt.=109.901428m. Speed=0.000000m/h.</desc>
<speed>0.000000</speed>
</trkpt>
<trkpt lat="56.097000" lon="26.546926">
<ele>109.905334</ele>
<time>2010-06-20T11:50:13Z</time>
<desc>lat.=56.097000, lon.=26.546926, Alt.=109.905334m. Speed=0.000000m/h.</desc>
<speed>0.000000</speed>
</trkpt>
<trkpt lat="56.097000" lon="26.546926">
<ele>109.909241</ele>
<time>2010-06-20T11:50:14Z</time>
<desc>lat.=56.097000, lon.=26.546926, Alt.=109.909241m. Speed=0.000000m/h.</desc>
<speed>0.000000</speed>
</trkpt>
<trkpt lat="56.097000" lon="26.546926">
<ele>109.909241</ele>
<time>2010-06-20T11:50:15Z</time>
<desc>lat.=56.097000, lon.=26.546926, Alt.=109.909241m. Speed=0.000000m/h.</desc>
<speed>0.000000</speed>
</trkpt>
<trkpt lat="56.097000" lon="26.546926">
<ele>109.909241</ele>
<time>2010-06-20T11:50:16Z</time>
<desc>lat.=56.097000, lon.=26.546926, Alt.=109.909241m. Speed=0.036000m/h.</desc>
<speed>0.010000</speed>
</trkpt>
<trkpt lat="56.097000" lon="26.546926">
<ele>109.911194</ele>
<time>2010-06-20T11:50:17Z</time>
<desc>lat.=56.097000, lon.=26.546926, Alt.=109.911194m. Speed=0.000000m/h.</desc>
<speed>0.000000</speed>
</trkpt>
<trkpt lat="56.097000" lon="26.546926">
<ele>109.909241</ele>
<time>2010-06-20T11:50:18Z</time>
<desc>lat.=56.097000, lon.=26.546926, Alt.=109.909241m. Speed=0.000000m/h.</desc>
<speed>0.000000</speed>
</trkpt>
<trkpt lat="56.097000" lon="26.546926">
<ele>109.909241</ele>
<time>2010-06-20T11:50:19Z</time>
<desc>lat.=56.097000, lon.=26.546926, Alt.=109.909241m. Speed=0.000000m/h.</desc>
<speed>0.000000</speed>
</trkpt>
<trkpt lat="56.097000" lon="26.546926">
<ele>109.917053</ele>
<time>2010-06-20T11:50:20Z</time>
<desc>lat.=56.097000, lon.=26.546926, Alt.=109.917053m. Speed=0.000000m/h.</desc>
<speed>0.000000</speed>
</trkpt>
<trkpt lat="56.097000" lon="26.546926">
<ele>109.917053</ele>
<time>2010-06-20T11:50:21Z</time>
<desc>lat.=56.097000, lon.=26.546926, Alt.=109.917053m. Speed=0.000000m/h.</desc>
<speed>0.000000</speed>
</trkpt>
<trkpt lat="56.097000" lon="26.546926">
<ele>109.917053</ele>
<time>2010-06-20T11:50:22Z</time>
<desc>lat.=56.097000, lon.=26.546926, Alt.=109.917053m. Speed=0.000000m/h.</desc>
<speed>0.000000</speed>
</trkpt>
<trkpt lat="56.097000" lon="26.546926">
<ele>109.920959</ele>
<time>2010-06-20T11:50:23Z</time>
<desc>lat.=56.097000, lon.=26.546926, Alt.=109.920959m. Speed=0.000000m/h.</desc>
<speed>0.000000</speed>
</trkpt>
<trkpt lat="56.097000" lon="26.546926">
<ele>109.922913</ele>
<time>2010-06-20T11:50:24Z</time>
<desc>lat.=56.097000, lon.=26.546926, Alt.=109.922913m. Speed=0.000000m/h.</desc>
<speed>0.000000</speed>
</trkpt>
<trkpt lat="56.097000" lon="26.546926">
<ele>109.922913</ele>
<time>2010-06-20T11:50:25Z</time>
<desc>lat.=56.097000, lon.=26.546926, Alt.=109.922913m. Speed=0.000000m/h.</desc>
<speed>0.000000</speed>
</trkpt>
<trkpt lat="56.097000" lon="26.546926">
<ele>109.922913</ele>
<time>2010-06-20T11:50:26Z</time>
<desc>lat.=56.097000, lon.=26.546926, Alt.=109.922913m. Speed=0.000000m/h.</desc>
<speed>0.000000</speed>
</trkpt>
<trkpt lat="56.097000" lon="26.546926">
<ele>109.926819</ele>
<time>2010-06-20T11:50:27Z</time>
<desc>lat.=56.097000, lon.=26.546926, Alt.=109.926819m. Speed=0.000000m/h.</desc>
<speed>0.000000</speed>
</trkpt>
<trkpt lat="56.097000" lon="26.546926">
<ele>109.928772</ele>
<time>2010-06-20T11:50:28Z</time>
<desc>lat.=56.097000, lon.=26.546926, Alt.=109.928772m. Speed=0.000000m/h.</desc>
<speed>0.000000</speed>
</trkpt>
<trkpt lat="56.097000" lon="26.546926">
<ele>109.928772</ele>
<time>2010-06-20T11:50:29Z</time>
<desc>lat.=56.097000, lon.=26.546926, Alt.=109.928772m. Speed=0.000000m/h.</desc>
<speed>0.000000</speed>
</trkpt>
<trkpt lat="56.097000" lon="26.546926">
<ele>109.930725</ele>
<time>2010-06-20T11:50:30Z</time>
<desc>lat.=56.097000, lon.=26.546926, Alt.=109.930725m. Speed=0.000000m/h.</desc>
<speed>0.000000</speed>
</trkpt>
<trkpt lat="56.097000" lon="26.546926">
<ele>109.928772</ele>
<time>2010-06-20T11:50:31Z</time>
<desc>lat.=56.097000, lon.=26.546926, Alt.=109.928772m. Speed=0.036000m/h.</desc>
<speed>0.010000</speed>
</trkpt>
<trkpt lat="56.097000" lon="26.546926">
<ele>109.928772</ele>
<time>2010-06-20T11:50:32Z</time>
<desc>lat.=56.097000, lon.=26.546926, Alt.=109.928772m. Speed=0.000000m/h.</desc>
<speed>0.000000</speed>
</trkpt>
<trkpt lat="56.097000" lon="26.546926">
<ele>109.930725</ele>
<time>2010-06-20T11:50:33Z</time>
<desc>lat.=56.097000, lon.=26.546926, Alt.=109.930725m. Speed=0.000000m/h.</desc>
<speed>0.000000</speed>
</trkpt>
<trkpt lat="56.097000" lon="26.546926">
<ele>109.928772</ele>
<time>2010-06-20T11:50:34Z</time>
<desc>lat.=56.097000, lon.=26.546926, Alt.=109.928772m. Speed=0.000000m/h.</desc>
<speed>0.000000</speed>
</trkpt>
<trkpt lat="56.097000" lon="26.546926">
<ele>109.930725</ele>
<time>2010-06-20T11:50:35Z</time>
<desc>lat.=56.097000, lon.=26.546926, Alt.=109.930725m. Speed=0.000000m/h.</desc>
<speed>0.000000</speed>
</trkpt>
<trkpt lat="56.097000" lon="26.546926">
<ele>109.936584</ele>
<time>2010-06-20T11:50:36Z</time>
<desc>lat.=56.097000, lon.=26.546926, Alt.=109.936584m. Speed=0.000000m/h.</desc>
<speed>0.000000</speed>
</trkpt>
<trkpt lat="56.097000" lon="26.546926">
<ele>109.938538</ele>
<time>2010-06-20T11:50:37Z</time>
<desc>lat.=56.097000, lon.=26.546926, Alt.=109.938538m. Speed=0.000000m/h.</desc>
<speed>0.000000</speed>
</trkpt>
<trkpt lat="56.097000" lon="26.546926">
<ele>109.942444</ele>
<time>2010-06-20T11:50:38Z</time>
<desc>lat.=56.097000, lon.=26.546926, Alt.=109.942444m. Speed=0.036000m/h.</desc>
<speed>0.010000</speed>
</trkpt>
<trkpt lat="56.097000" lon="26.546926">
<ele>109.950256</ele>
<time>2010-06-20T11:50:39Z</time>
<desc>lat.=56.097000, lon.=26.546926, Alt.=109.950256m. Speed=0.036000m/h.</desc>
<speed>0.010000</speed>
</trkpt>
<trkpt lat="56.097000" lon="26.546926">
<ele>109.952209</ele>
<time>2010-06-20T11:50:40Z</time>
<desc>lat.=56.097000, lon.=26.546926, Alt.=109.952209m. Speed=0.000000m/h.</desc>
<speed>0.000000</speed>
</trkpt>
<trkpt lat="56.097000" lon="26.546926">
<ele>109.961975</ele>
<time>2010-06-20T11:50:41Z</time>
<desc>lat.=56.097000, lon.=26.546926, Alt.=109.961975m. Speed=0.000000m/h.</desc>
<speed>0.000000</speed>
</trkpt>
<trkpt lat="56.097000" lon="26.546926">
<ele>109.971741</ele>
<time>2010-06-20T11:50:42Z</time>
<desc>lat.=56.097000, lon.=26.546926, Alt.=109.971741m. Speed=0.000000m/h.</desc>
<speed>0.000000</speed>
</trkpt>
<trkpt lat="56.097000" lon="26.546926">
<ele>109.973694</ele>
<time>2010-06-20T11:50:43Z</time>
<desc>lat.=56.097000, lon.=26.546926, Alt.=109.973694m. Speed=0.000000m/h.</desc>
<speed>0.000000</speed>
</trkpt>
<trkpt lat="56.097000" lon="26.546926">
<ele>109.977600</ele>
<time>2010-06-20T11:50:44Z</time>
<desc>lat.=56.097000, lon.=26.546926, Alt.=109.977600m. Speed=0.000000m/h.</desc>
<speed>0.000000</speed>
</trkpt>
<trkpt lat="56.097000" lon="26.546926">
<ele>109.981506</ele>
<time>2010-06-20T11:50:45Z</time>
<desc>lat.=56.097000, lon.=26.546926, Alt.=109.981506m. Speed=0.000000m/h.</desc>
<speed>0.000000</speed>
</trkpt>
<trkpt lat="56.097000" lon="26.546926">
<ele>109.983459</ele>
<time>2010-06-20T11:50:46Z</time>
<desc>lat.=56.097000, lon.=26.546926, Alt.=109.983459m. Speed=0.000000m/h.</desc>
<speed>0.000000</speed>
</trkpt>
<trkpt lat="56.097000" lon="26.546926">
<ele>109.983459</ele>
<time>2010-06-20T11:50:47Z</time>
<desc>lat.=56.097000, lon.=26.546926, Alt.=109.983459m. Speed=0.000000m/h.</desc>
<speed>0.000000</speed>
</trkpt>
<trkpt lat="56.097000" lon="26.546926">
<ele>109.983459</ele>
<time>2010-06-20T11:50:48Z</time>
<desc>lat.=56.097000, lon.=26.546926, Alt.=109.983459m. Speed=0.000000m/h.</desc>
<speed>0.000000</speed>
</trkpt>
<trkpt lat="56.097000" lon="26.546926">
<ele>109.979553</ele>
<time>2010-06-20T11:50:49Z</time>
<desc>lat.=56.097000, lon.=26.546926, Alt.=109.979553m. Speed=0.036000m/h.</desc>
<speed>0.010000</speed>
</trkpt>
<trkpt lat="56.097000" lon="26.546926">
<ele>109.981506</ele>
<time>2010-06-20T11:50:50Z</time>
<desc>lat.=56.097000, lon.=26.546926, Alt.=109.981506m. Speed=0.000000m/h.</desc>
<speed>0.000000</speed>
</trkpt>
<trkpt lat="56.097000" lon="26.546926">
<ele>109.983459</ele>
<time>2010-06-20T11:50:51Z</time>
<desc>lat.=56.097000, lon.=26.546926, Alt.=109.983459m. Speed=0.000000m/h.</desc>
<speed>0.000000</speed>
</trkpt>
<trkpt lat="56.097000" lon="26.546925">
<ele>109.981506</ele>
<time>2010-06-20T11:50:52Z</time>
<desc>lat.=56.097000, lon.=26.546925, Alt.=109.981506m. Speed=0.036000m/h.</desc>
<speed>0.010000</speed>
</trkpt>
<trkpt lat="56.097000" lon="26.546925">
<ele>109.981506</ele>
<time>2010-06-20T11:50:53Z</time>
<desc>lat.=56.097000, lon.=26.546925, Alt.=109.981506m. Speed=0.000000m/h.</desc>
<speed>0.000000</speed>
</trkpt>
<trkpt lat="56.097000" lon="26.546925">
<ele>109.981506</ele>
<time>2010-06-20T11:50:54Z</time>
<desc>lat.=56.097000, lon.=26.546925, Alt.=109.981506m. Speed=0.000000m/h.</desc>
<speed>0.000000</speed>
</trkpt>
<trkpt lat="56.097000" lon="26.546925">
<ele>109.981506</ele>
<time>2010-06-20T11:50:55Z</time>
<desc>lat.=56.097000, lon.=26.546925, Alt.=109.981506m. Speed=0.000000m/h.</desc>
<speed>0.000000</speed>
</trkpt>
<trkpt lat="56.097000" lon="26.546925">
<ele>109.983459</ele>
<time>2010-06-20T11:50:56Z</time>
<desc>lat.=56.097000, lon.=26.546925, Alt.=109.983459m. Speed=0.000000m/h.</desc>
<speed>0.000000</speed>
</trkpt>
<trkpt lat="56.097000" lon="26.546925">
<ele>109.981506</ele>
<time>2010-06-20T11:50:57Z</time>
<desc>lat.=56.097000, lon.=26.546925, Alt.=109.981506m. Speed=0.000000m/h.</desc>
<speed>0.000000</speed>
</trkpt>
<trkpt lat="56.097000" lon="26.546925">
<ele>109.981506</ele>
<time>2010-06-20T11:50:58Z</time>
<desc>lat.=56.097000, lon.=26.546925, Alt.=109.981506m. Speed=0.000000m/h.</desc>
<speed>0.000000</speed>
</trkpt>
<trkpt lat="56.097000" lon="26.546925">
<ele>109.983459</ele>
<time>2010-06-20T11:50:59Z</time>
<desc>lat.=56.097000, lon.=26.546925, Alt.=109.983459m. Speed=0.000000m/h.</desc>
<speed>0.000000</speed>
</trkpt>
<trkpt lat="56.097000" lon="26.546925">
<ele>109.981506</ele>
<time>2010-06-20T11:51:00Z</time>
<desc>lat.=56.097000, lon.=26.546925, Alt.=109.981506m. Speed=0.000000m/h.</desc>
<speed>0.000000</speed>
</trkpt>
<trkpt lat="56.097000" lon="26.546925">
<ele>109.979553</ele>
<time>2010-06-20T11:51:01Z</time>
<desc>lat.=56.097000, lon.=26.546925, Alt.=109.979553m. Speed=0.000000m/h.</desc>
<speed>0.000000</speed>
</trkpt>
<trkpt lat="56.097000" lon="26.546925">
<ele>109.979553</ele>
<time>2010-06-20T11:51:02Z</time>
<desc>lat.=56.097000, lon.=26.546925, Alt.=109.979553m. Speed=0.000000m/h.</desc>
<speed>0.000000</speed>
</trkpt>
<trkpt lat="56.097000" lon="26.546925">
<ele>109.973694</ele>
<time>2010-06-20T11:51:03Z</time>
<desc>lat.=56.097000, lon.=26.546925, Alt.=109.973694m. Speed=0.000000m/h.</desc>
<speed>0.000000</speed>
</trkpt>
<trkpt lat="56.097000" lon="26.546925">
<ele>109.969788</ele>
<time>2010-06-20T11:51:04Z</time>
<desc>lat.=56.097000, lon.=26.546925, Alt.=109.969788m. Speed=0.000000m/h.</desc>
<speed>0.000000</speed>
</trkpt>
<trkpt lat="56.097000" lon="26.546925">
<ele>109.967834</ele>
<time>2010-06-20T11:51:05Z</time>
<desc>lat.=56.097000, lon.=26.546925, Alt.=109.967834m. Speed=0.000000m/h.</desc>
<speed>0.000000</speed>
</trkpt>
<trkpt lat="56.097000" lon="26.546925">
<ele>109.965881</ele>
<time>2010-06-20T11:51:06Z</time>
<desc>lat.=56.097000, lon.=26.546925, Alt.=109.965881m. Speed=0.000000m/h.</desc>
<speed>0.000000</speed>
</trkpt>
<trkpt lat="56.097000" lon="26.546925">
<ele>109.961975</ele>
<time>2010-06-20T11:51:07Z</time>
<desc>lat.=56.097000, lon.=26.546925, Alt.=109.961975m. Speed=0.036000m/h.</desc>
<speed>0.010000</speed>
</trkpt>
<trkpt lat="56.097000" lon="26.546925">
<ele>109.956116</ele>
<time>2010-06-20T11:51:08Z</time>
<desc>lat.=56.097000, lon.=26.546925, Alt.=109.956116m. Speed=0.000000m/h.</desc>
<speed>0.000000</speed>
</trkpt>
<trkpt lat="56.097000" lon="26.546925">
<ele>109.960022</ele>
<time>2010-06-20T11:51:09Z</time>
<desc>lat.=56.097000, lon.=26.546925, Alt.=109.960022m. Speed=0.036000m/h.</desc>
<speed>0.010000</speed>
</trkpt>
<trkpt lat="56.097000" lon="26.546925">
<ele>109.960022</ele>
<time>2010-06-20T11:51:10Z</time>
<desc>lat.=56.097000, lon.=26.546925, Alt.=109.960022m. Speed=0.036000m/h.</desc>
<speed>0.010000</speed>
</trkpt>
<trkpt lat="56.097000" lon="26.546925">
<ele>109.956116</ele>
<time>2010-06-20T11:51:11Z</time>
<desc>lat.=56.097000, lon.=26.546925, Alt.=109.956116m. Speed=0.000000m/h.</desc>
<speed>0.000000</speed>
</trkpt>
<trkpt lat="56.097000" lon="26.546925">
<ele>109.956116</ele>
<time>2010-06-20T11:51:12Z</time>
<desc>lat.=56.097000, lon.=26.546925, Alt.=109.956116m. Speed=0.000000m/h.</desc>
<speed>0.000000</speed>
</trkpt>
<trkpt lat="56.097000" lon="26.546925">
<ele>109.954163</ele>
<time>2010-06-20T11:51:13Z</time>
<desc>lat.=56.097000, lon.=26.546925, Alt.=109.954163m. Speed=0.000000m/h.</desc>
<speed>0.000000</speed>
</trkpt>
<trkpt lat="56.097000" lon="26.546925">
<ele>109.956116</ele>
<time>2010-06-20T11:51:14Z</time>
<desc>lat.=56.097000, lon.=26.546925, Alt.=109.956116m. Speed=0.000000m/h.</desc>
<speed>0.000000</speed>
</trkpt>
<trkpt lat="56.097000" lon="26.546925">
<ele>109.960022</ele>
<time>2010-06-20T11:51:15Z</time>
<desc>lat.=56.097000, lon.=26.546925, Alt.=109.960022m. Speed=0.000000m/h.</desc>
<speed>0.000000</speed>
</trkpt>
<trkpt lat="56.097000" lon="26.546925">
<ele>109.963928</ele>
<time>2010-06-20T11:51:16Z</time>
<desc>lat.=56.097000, lon.=26.546925, Alt.=109.963928m. Speed=0.036000m/h.</desc>
<speed>0.010000</speed>
</trkpt>
<trkpt lat="56.097000" lon="26.546925">
<ele>109.967834</ele>
<time>2010-06-20T11:51:17Z</time>
<desc>lat.=56.097000, lon.=26.546925, Alt.=109.967834m. Speed=0.000000m/h.</desc>
<speed>0.000000</speed>
</trkpt>
<trkpt lat="56.097000" lon="26.546925">
<ele>109.969788</ele>
<time>2010-06-20T11:51:18Z</time>
<desc>lat.=56.097000, lon.=26.546925, Alt.=109.969788m. Speed=0.000000m/h.</desc>
<speed>0.000000</speed>
</trkpt>
<trkpt lat="56.097000" lon="26.546925">
<ele>109.973694</ele>
<time>2010-06-20T11:51:19Z</time>
<desc>lat.=56.097000, lon.=26.546925, Alt.=109.973694m. Speed=0.000000m/h.</desc>
<speed>0.000000</speed>
</trkpt>
<trkpt lat="56.097000" lon="26.546925">
<ele>109.979553</ele>
<time>2010-06-20T11:51:20Z</time>
<desc>lat.=56.097000, lon.=26.546925, Alt.=109.979553m. Speed=0.000000m/h.</desc>
<speed>0.000000</speed>
</trkpt>
<trkpt lat="56.097000" lon="26.546925">
<ele>109.983459</ele>
<time>2010-06-20T11:51:21Z</time>
<desc>lat.=56.097000, lon.=26.546925, Alt.=109.983459m. Speed=0.000000m/h.</desc>
<speed>0.000000</speed>
</trkpt>
<trkpt lat="56.097000" lon="26.546925">
<ele>109.989319</ele>
<time>2010-06-20T11:51:22Z</time>
<desc>lat.=56.097000, lon.=26.546925, Alt.=109.989319m. Speed=0.000000m/h.</desc>
<speed>0.000000</speed>
</trkpt>
<trkpt lat="56.097000" lon="26.546923">
<ele>109.989319</ele>
<time>2010-06-20T11:51:23Z</time>
<desc>lat.=56.097000, lon.=26.546923, Alt.=109.989319m. Speed=0.000000m/h.</desc>
<speed>0.000000</speed>
</trkpt>
<trkpt lat="56.097000" lon="26.546923">
<ele>109.993225</ele>
<time>2010-06-20T11:51:24Z</time>
<desc>lat.=56.097000, lon.=26.546923, Alt.=109.993225m. Speed=0.000000m/h.</desc>
<speed>0.000000</speed>
</trkpt>
<trkpt lat="56.097000" lon="26.546923">
<ele>109.995178</ele>
<time>2010-06-20T11:51:25Z</time>
<desc>lat.=56.097000, lon.=26.546923, Alt.=109.995178m. Speed=0.000000m/h.</desc>
<speed>0.000000</speed>
</trkpt>
<trkpt lat="56.097000" lon="26.546923">
<ele>109.997131</ele>
<time>2010-06-20T11:51:26Z</time>
<desc>lat.=56.097000, lon.=26.546923, Alt.=109.997131m. Speed=0.000000m/h.</desc>
<speed>0.000000</speed>
</trkpt>
<trkpt lat="56.097000" lon="26.546923">
<ele>109.999084</ele>
<time>2010-06-20T11:51:27Z</time>
<desc>lat.=56.097000, lon.=26.546923, Alt.=109.999084m. Speed=0.000000m/h.</desc>
<speed>0.000000</speed>
</trkpt>
<trkpt lat="56.097000" lon="26.546923">
<ele>109.999084</ele>
<time>2010-06-20T11:51:28Z</time>
<desc>lat.=56.097000, lon.=26.546923, Alt.=109.999084m. Speed=0.000000m/h.</desc>
<speed>0.000000</speed>
</trkpt>
<trkpt lat="56.097000" lon="26.546923">
<ele>110.001038</ele>
<time>2010-06-20T11:51:29Z</time>
<desc>lat.=56.097000, lon.=26.546923, Alt.=110.001038m. Speed=0.000000m/h.</desc>
<speed>0.000000</speed>
</trkpt>
<trkpt lat="56.097000" lon="26.546923">
<ele>110.002991</ele>
<time>2010-06-20T11:51:30Z</time>
<desc>lat.=56.097000, lon.=26.546923, Alt.=110.002991m. Speed=0.036000m/h.</desc>
<speed>0.010000</speed>
</trkpt>
<trkpt lat="56.097000" lon="26.546923">
<ele>110.002991</ele>
<time>2010-06-20T11:51:31Z</time>
<desc>lat.=56.097000, lon.=26.546923, Alt.=110.002991m. Speed=0.036000m/h.</desc>
<speed>0.010000</speed>
</trkpt>
<trkpt lat="56.097000" lon="26.546923">
<ele>110.004944</ele>
<time>2010-06-20T11:51:32Z</time>
<desc>lat.=56.097000, lon.=26.546923, Alt.=110.004944m. Speed=0.000000m/h.</desc>
<speed>0.000000</speed>
</trkpt>
<trkpt lat="56.097000" lon="26.546923">
<ele>110.002991</ele>
<time>2010-06-20T11:51:33Z</time>
<desc>lat.=56.097000, lon.=26.546923, Alt.=110.002991m. Speed=0.000000m/h.</desc>
<speed>0.000000</speed>
</trkpt>
<trkpt lat="56.097000" lon="26.546923">
<ele>110.004944</ele>
<time>2010-06-20T11:51:34Z</time>
<desc>lat.=56.097000, lon.=26.546923, Alt.=110.004944m. Speed=0.000000m/h.</desc>
<speed>0.000000</speed>
</trkpt>
<trkpt lat="56.097000" lon="26.546923">
<ele>110.004944</ele>
<time>2010-06-20T11:51:35Z</time>
<desc>lat.=56.097000, lon.=26.546923, Alt.=110.004944m. Speed=0.000000m/h.</desc>
<speed>0.000000</speed>
</trkpt>
<trkpt lat="56.097000" lon="26.546923">
<ele>110.006897</ele>
<time>2010-06-20T11:51:36Z</time>
<desc>lat.=56.097000, lon.=26.546923, Alt.=110.006897m. Speed=0.000000m/h.</desc>
<speed>0.000000</speed>
</trkpt>
<trkpt lat="56.097000" lon="26.546923">
<ele>110.008850</ele>
<time>2010-06-20T11:51:37Z</time>
<desc>lat.=56.097000, lon.=26.546923, Alt.=110.008850m. Speed=0.000000m/h.</desc>
<speed>0.000000</speed>
</trkpt>
<trkpt lat="56.097000" lon="26.546923">
<ele>110.012756</ele>
<time>2010-06-20T11:51:38Z</time>
<desc>lat.=56.097000, lon.=26.546923, Alt.=110.012756m. Speed=0.000000m/h.</desc>
<speed>0.000000</speed>
</trkpt>
<trkpt lat="56.097000" lon="26.546923">
<ele>110.016663</ele>
<time>2010-06-20T11:51:39Z</time>
<desc>lat.=56.097000, lon.=26.546923, Alt.=110.016663m. Speed=0.000000m/h.</desc>
<speed>0.000000</speed>
</trkpt>
<trkpt lat="56.097000" lon="26.546923">
<ele>110.018616</ele>
<time>2010-06-20T11:51:40Z</time>
<desc>lat.=56.097000, lon.=26.546923, Alt.=110.018616m. Speed=0.000000m/h.</desc>
<speed>0.000000</speed>
</trkpt>
<trkpt lat="56.097000" lon="26.546923">
<ele>110.022522</ele>
<time>2010-06-20T11:51:41Z</time>
<desc>lat.=56.097000, lon.=26.546923, Alt.=110.022522m. Speed=0.000000m/h.</desc>
<speed>0.000000</speed>
</trkpt>
<trkpt lat="56.097000" lon="26.546923">
<ele>110.026428</ele>
<time>2010-06-20T11:51:42Z</time>
<desc>lat.=56.097000, lon.=26.546923, Alt.=110.026428m. Speed=0.000000m/h.</desc>
<speed>0.000000</speed>
</trkpt>
<trkpt lat="56.097000" lon="26.546923">
<ele>110.034241</ele>
<time>2010-06-20T11:51:43Z</time>
<desc>lat.=56.097000, lon.=26.546923, Alt.=110.034241m. Speed=0.000000m/h.</desc>
<speed>0.000000</speed>
</trkpt>
<trkpt lat="56.097000" lon="26.546923">
<ele>110.038147</ele>
<time>2010-06-20T11:51:44Z</time>
<desc>lat.=56.097000, lon.=26.546923, Alt.=110.038147m. Speed=0.000000m/h.</desc>
<speed>0.000000</speed>
</trkpt>
<trkpt lat="56.097000" lon="26.546923">
<ele>110.042053</ele>
<time>2010-06-20T11:51:45Z</time>
<desc>lat.=56.097000, lon.=26.546923, Alt.=110.042053m. Speed=0.000000m/h.</desc>
<speed>0.000000</speed>
</trkpt>
<trkpt lat="56.097000" lon="26.546923">
<ele>110.044006</ele>
<time>2010-06-20T11:51:46Z</time>
<desc>lat.=56.097000, lon.=26.546923, Alt.=110.044006m. Speed=0.000000m/h.</desc>
<speed>0.000000</speed>
</trkpt>
<trkpt lat="56.097000" lon="26.546923">
<ele>110.049866</ele>
<time>2010-06-20T11:51:47Z</time>
<desc>lat.=56.097000, lon.=26.546923, Alt.=110.049866m. Speed=0.000000m/h.</desc>
<speed>0.000000</speed>
</trkpt>
<trkpt lat="56.097000" lon="26.546923">
<ele>110.063538</ele>
<time>2010-06-20T11:51:48Z</time>
<desc>lat.=56.097000, lon.=26.546923, Alt.=110.063538m. Speed=0.036000m/h.</desc>
<speed>0.010000</speed>
</trkpt>
<trkpt lat="56.097000" lon="26.546923">
<ele>110.069397</ele>
<time>2010-06-20T11:51:49Z</time>
<desc>lat.=56.097000, lon.=26.546923, Alt.=110.069397m. Speed=0.000000m/h.</desc>
<speed>0.000000</speed>
</trkpt>
<trkpt lat="56.097000" lon="26.546923">
<ele>110.077209</ele>
<time>2010-06-20T11:51:50Z</time>
<desc>lat.=56.097000, lon.=26.546923, Alt.=110.077209m. Speed=0.000000m/h.</desc>
<speed>0.000000</speed>
</trkpt>
<trkpt lat="56.097000" lon="26.546923">
<ele>110.081116</ele>
<time>2010-06-20T11:51:51Z</time>
<desc>lat.=56.097000, lon.=26.546923, Alt.=110.081116m. Speed=0.000000m/h.</desc>
<speed>0.000000</speed>
</trkpt>
<trkpt lat="56.097000" lon="26.546923">
<ele>110.088928</ele>
<time>2010-06-20T11:51:52Z</time>
<desc>lat.=56.097000, lon.=26.546923, Alt.=110.088928m. Speed=0.000000m/h.</desc>
<speed>0.000000</speed>
</trkpt>
<trkpt lat="56.097000" lon="26.546923">
<ele>110.090881</ele>
<time>2010-06-20T11:51:53Z</time>
<desc>lat.=56.097000, lon.=26.546923, Alt.=110.090881m. Speed=0.000000m/h.</desc>
<speed>0.000000</speed>
</trkpt>
<trkpt lat="56.097000" lon="26.546923">
<ele>110.094788</ele>
<time>2010-06-20T11:51:54Z</time>
<desc>lat.=56.097000, lon.=26.546923, Alt.=110.094788m. Speed=0.000000m/h.</desc>
<speed>0.000000</speed>
</trkpt>
<trkpt lat="56.097000" lon="26.546921">
<ele>110.100647</ele>
<time>2010-06-20T11:51:55Z</time>
<desc>lat.=56.097000, lon.=26.546921, Alt.=110.100647m. Speed=0.000000m/h.</desc>
<speed>0.000000</speed>
</trkpt>
<trkpt lat="56.097000" lon="26.546921">
<ele>110.104553</ele>
<time>2010-06-20T11:51:56Z</time>
<desc>lat.=56.097000, lon.=26.546921, Alt.=110.104553m. Speed=0.000000m/h.</desc>
<speed>0.000000</speed>
</trkpt>
<trkpt lat="56.097000" lon="26.546921">
<ele>110.106506</ele>
<time>2010-06-20T11:51:57Z</time>
<desc>lat.=56.097000, lon.=26.546921, Alt.=110.106506m. Speed=0.000000m/h.</desc>
<speed>0.000000</speed>
</trkpt>
<trkpt lat="56.097000" lon="26.546921">
<ele>110.110413</ele>
<time>2010-06-20T11:51:58Z</time>
<desc>lat.=56.097000, lon.=26.546921, Alt.=110.110413m. Speed=0.000000m/h.</desc>
<speed>0.000000</speed>
</trkpt>
<trkpt lat="56.097000" lon="26.546921">
<ele>110.112366</ele>
<time>2010-06-20T11:51:59Z</time>
<desc>lat.=56.097000, lon.=26.546921, Alt.=110.112366m. Speed=0.000000m/h.</desc>
<speed>0.000000</speed>
</trkpt>
<trkpt lat="56.097000" lon="26.546921">
<ele>110.112366</ele>
<time>2010-06-20T11:52:00Z</time>
<desc>lat.=56.097000, lon.=26.546921, Alt.=110.112366m. Speed=0.000000m/h.</desc>
<speed>0.000000</speed>
</trkpt>
<trkpt lat="56.097000" lon="26.546921">
<ele>110.112366</ele>
<time>2010-06-20T11:52:01Z</time>
<desc>lat.=56.097000, lon.=26.546921, Alt.=110.112366m. Speed=0.000000m/h.</desc>
<speed>0.000000</speed>
</trkpt>
<trkpt lat="56.097000" lon="26.546921">
<ele>110.110413</ele>
<time>2010-06-20T11:52:02Z</time>
<desc>lat.=56.097000, lon.=26.546921, Alt.=110.110413m. Speed=0.000000m/h.</desc>
<speed>0.000000</speed>
</trkpt>
<trkpt lat="56.097000" lon="26.546921">
<ele>110.110413</ele>
<time>2010-06-20T11:52:03Z</time>
<desc>lat.=56.097000, lon.=26.546921, Alt.=110.110413m. Speed=0.000000m/h.</desc>
<speed>0.000000</speed>
</trkpt>
<trkpt lat="56.097000" lon="26.546921">
<ele>110.108459</ele>
<time>2010-06-20T11:52:04Z</time>
<desc>lat.=56.097000, lon.=26.546921, Alt.=110.108459m. Speed=0.000000m/h.</desc>
<speed>0.000000</speed>
</trkpt>
<trkpt lat="56.097000" lon="26.546921">
<ele>110.110413</ele>
<time>2010-06-20T11:52:05Z</time>
<desc>lat.=56.097000, lon.=26.546921, Alt.=110.110413m. Speed=0.000000m/h.</desc>
<speed>0.000000</speed>
</trkpt>
<trkpt lat="56.097000" lon="26.546921">
<ele>110.110413</ele>
<time>2010-06-20T11:52:06Z</time>
<desc>lat.=56.097000, lon.=26.546921, Alt.=110.110413m. Speed=0.000000m/h.</desc>
<speed>0.000000</speed>
</trkpt>
<trkpt lat="56.097000" lon="26.546921">
<ele>110.114319</ele>
<time>2010-06-20T11:52:07Z</time>
<desc>lat.=56.097000, lon.=26.546921, Alt.=110.114319m. Speed=0.000000m/h.</desc>
<speed>0.000000</speed>
</trkpt>
<trkpt lat="56.097000" lon="26.546921">
<ele>110.120178</ele>
<time>2010-06-20T11:52:08Z</time>
<desc>lat.=56.097000, lon.=26.546921, Alt.=110.120178m. Speed=0.000000m/h.</desc>
<speed>0.000000</speed>
</trkpt>
<trkpt lat="56.097000" lon="26.546921">
<ele>110.120178</ele>
<time>2010-06-20T11:52:09Z</time>
<desc>lat.=56.097000, lon.=26.546921, Alt.=110.120178m. Speed=0.000000m/h.</desc>
<speed>0.000000</speed>
</trkpt>
<trkpt lat="56.097000" lon="26.546921">
<ele>110.120178</ele>
<time>2010-06-20T11:52:10Z</time>
<desc>lat.=56.097000, lon.=26.546921, Alt.=110.120178m. Speed=0.036000m/h.</desc>
<speed>0.010000</speed>
</trkpt>
<trkpt lat="56.097000" lon="26.546921">
<ele>110.122131</ele>
<time>2010-06-20T11:52:11Z</time>
<desc>lat.=56.097000, lon.=26.546921, Alt.=110.122131m. Speed=0.720000m/h.</desc>
<speed>0.200000</speed>
</trkpt>
<trkpt lat="56.097000" lon="26.546921">
<ele>110.126038</ele>
<time>2010-06-20T11:52:12Z</time>
<desc>lat.=56.097000, lon.=26.546921, Alt.=110.126038m. Speed=0.720000m/h.</desc>
<speed>0.200000</speed>
</trkpt>
<trkpt lat="56.096996" lon="26.546921">
<ele>110.053772</ele>
<time>2010-06-20T11:52:13Z</time>
<desc>lat.=56.096996, lon.=26.546921, Alt.=110.053772m. Speed=0.108000m/h.</desc>
<speed>0.030000</speed>
</trkpt>
<trkpt lat="56.096996" lon="26.546921">
<ele>109.965881</ele>
<time>2010-06-20T11:52:14Z</time>
<desc>lat.=56.096996, lon.=26.546921, Alt.=109.965881m. Speed=0.324000m/h.</desc>
<speed>0.090000</speed>
</trkpt>
<trkpt lat="56.096996" lon="26.546921">
<ele>109.950256</ele>
<time>2010-06-20T11:52:15Z</time>
<desc>lat.=56.096996, lon.=26.546921, Alt.=109.950256m. Speed=0.072000m/h.</desc>
<speed>0.020000</speed>
</trkpt>
<trkpt lat="56.096996" lon="26.546921">
<ele>109.942444</ele>
<time>2010-06-20T11:52:16Z</time>
<desc>lat.=56.096996, lon.=26.546921, Alt.=109.942444m. Speed=0.036000m/h.</desc>
<speed>0.010000</speed>
</trkpt>
<trkpt lat="56.096996" lon="26.546921">
<ele>109.936584</ele>
<time>2010-06-20T11:52:17Z</time>
<desc>lat.=56.096996, lon.=26.546921, Alt.=109.936584m. Speed=0.072000m/h.</desc>
<speed>0.020000</speed>
</trkpt>
<trkpt lat="56.096996" lon="26.546921">
<ele>109.934631</ele>
<time>2010-06-20T11:52:18Z</time>
<desc>lat.=56.096996, lon.=26.546921, Alt.=109.934631m. Speed=0.036000m/h.</desc>
<speed>0.010000</speed>
</trkpt>
<trkpt lat="56.096996" lon="26.546921">
<ele>109.926819</ele>
<time>2010-06-20T11:52:19Z</time>
<desc>lat.=56.096996, lon.=26.546921, Alt.=109.926819m. Speed=0.000000m/h.</desc>
<speed>0.000000</speed>
</trkpt>
<trkpt lat="56.096996" lon="26.546921">
<ele>109.919006</ele>
<time>2010-06-20T11:52:20Z</time>
<desc>lat.=56.096996, lon.=26.546921, Alt.=109.919006m. Speed=0.036000m/h.</desc>
<speed>0.010000</speed>
</trkpt>
<trkpt lat="56.096996" lon="26.546921">
<ele>109.909241</ele>
<time>2010-06-20T11:52:21Z</time>
<desc>lat.=56.096996, lon.=26.546921, Alt.=109.909241m. Speed=0.000000m/h.</desc>
<speed>0.000000</speed>
</trkpt>
<trkpt lat="56.096996" lon="26.546921">
<ele>109.901428</ele>
<time>2010-06-20T11:52:22Z</time>
<desc>lat.=56.096996, lon.=26.546921, Alt.=109.901428m. Speed=0.000000m/h.</desc>
<speed>0.000000</speed>
</trkpt>
<trkpt lat="56.096996" lon="26.546921">
<ele>109.899475</ele>
<time>2010-06-20T11:52:23Z</time>
<desc>lat.=56.096996, lon.=26.546921, Alt.=109.899475m. Speed=0.000000m/h.</desc>
<speed>0.000000</speed>
</trkpt>
<trkpt lat="56.096996" lon="26.546921">
<ele>109.895569</ele>
<time>2010-06-20T11:52:24Z</time>
<desc>lat.=56.096996, lon.=26.546921, Alt.=109.895569m. Speed=0.000000m/h.</desc>
<speed>0.000000</speed>
</trkpt>
<trkpt lat="56.096996" lon="26.546921">
<ele>109.893616</ele>
<time>2010-06-20T11:52:25Z</time>
<desc>lat.=56.096996, lon.=26.546921, Alt.=109.893616m. Speed=0.000000m/h.</desc>
<speed>0.000000</speed>
</trkpt>
<trkpt lat="56.096996" lon="26.546921">
<ele>109.889709</ele>
<time>2010-06-20T11:52:26Z</time>
<desc>lat.=56.096996, lon.=26.546921, Alt.=109.889709m. Speed=0.072000m/h.</desc>
<speed>0.020000</speed>
</trkpt>
<trkpt lat="56.096996" lon="26.546923">
<ele>109.889709</ele>
<time>2010-06-20T11:52:27Z</time>
<desc>lat.=56.096996, lon.=26.546923, Alt.=109.889709m. Speed=0.180000m/h.</desc>
<speed>0.050000</speed>
</trkpt>
<trkpt lat="56.096996" lon="26.546923">
<ele>109.887756</ele>
<time>2010-06-20T11:52:28Z</time>
<desc>lat.=56.096996, lon.=26.546923, Alt.=109.887756m. Speed=0.036000m/h.</desc>
<speed>0.010000</speed>
</trkpt>
<trkpt lat="56.096996" lon="26.546923">
<ele>109.948303</ele>
<time>2010-06-20T11:52:29Z</time>
<desc>lat.=56.096996, lon.=26.546923, Alt.=109.948303m. Speed=0.144000m/h.</desc>
<speed>0.040000</speed>
</trkpt>
<trkpt lat="56.096996" lon="26.546923">
<ele>109.948303</ele>
<time>2010-06-20T11:52:30Z</time>
<desc>lat.=56.096996, lon.=26.546923, Alt.=109.948303m. Speed=0.000000m/h.</desc>
<speed>0.000000</speed>
</trkpt>
<trkpt lat="56.096996" lon="26.546923">
<ele>109.942444</ele>
<time>2010-06-20T11:52:31Z</time>
<desc>lat.=56.096996, lon.=26.546923, Alt.=109.942444m. Speed=0.108000m/h.</desc>
<speed>0.030000</speed>
</trkpt>
<trkpt lat="56.096996" lon="26.546923">
<ele>109.938538</ele>
<time>2010-06-20T11:52:32Z</time>
<desc>lat.=56.096996, lon.=26.546923, Alt.=109.938538m. Speed=0.000000m/h.</desc>
<speed>0.000000</speed>
</trkpt>
<trkpt lat="56.096996" lon="26.546923">
<ele>109.932678</ele>
<time>2010-06-20T11:52:33Z</time>
<desc>lat.=56.096996, lon.=26.546923, Alt.=109.932678m. Speed=0.036000m/h.</desc>
<speed>0.010000</speed>
</trkpt>
<trkpt lat="56.096996" lon="26.546923">
<ele>109.930725</ele>
<time>2010-06-20T11:52:34Z</time>
<desc>lat.=56.096996, lon.=26.546923, Alt.=109.930725m. Speed=0.000000m/h.</desc>
<speed>0.000000</speed>
</trkpt>
<trkpt lat="56.096996" lon="26.546923">
<ele>109.926819</ele>
<time>2010-06-20T11:52:35Z</time>
<desc>lat.=56.096996, lon.=26.546923, Alt.=109.926819m. Speed=0.000000m/h.</desc>
<speed>0.000000</speed>
</trkpt>
<trkpt lat="56.096996" lon="26.546923">
<ele>109.924866</ele>
<time>2010-06-20T11:52:36Z</time>
<desc>lat.=56.096996, lon.=26.546923, Alt.=109.924866m. Speed=0.000000m/h.</desc>
<speed>0.000000</speed>
</trkpt>
<trkpt lat="56.096996" lon="26.546923">
<ele>109.922913</ele>
<time>2010-06-20T11:52:37Z</time>
<desc>lat.=56.096996, lon.=26.546923, Alt.=109.922913m. Speed=0.000000m/h.</desc>
<speed>0.000000</speed>
</trkpt>
<trkpt lat="56.096996" lon="26.546923">
<ele>109.919006</ele>
<time>2010-06-20T11:52:38Z</time>
<desc>lat.=56.096996, lon.=26.546923, Alt.=109.919006m. Speed=0.036000m/h.</desc>
<speed>0.010000</speed>
</trkpt>
<trkpt lat="56.096996" lon="26.546923">
<ele>109.917053</ele>
<time>2010-06-20T11:52:39Z</time>
<desc>lat.=56.096996, lon.=26.546923, Alt.=109.917053m. Speed=0.036000m/h.</desc>
<speed>0.010000</speed>
</trkpt>
<trkpt lat="56.096996" lon="26.546923">
<ele>109.915100</ele>
<time>2010-06-20T11:52:40Z</time>
<desc>lat.=56.096996, lon.=26.546923, Alt.=109.915100m. Speed=0.072000m/h.</desc>
<speed>0.020000</speed>
</trkpt>
<trkpt lat="56.096996" lon="26.546923">
<ele>109.911194</ele>
<time>2010-06-20T11:52:41Z</time>
<desc>lat.=56.096996, lon.=26.546923, Alt.=109.911194m. Speed=0.000000m/h.</desc>
<speed>0.000000</speed>
</trkpt>
<trkpt lat="56.096996" lon="26.546923">
<ele>109.905334</ele>
<time>2010-06-20T11:52:42Z</time>
<desc>lat.=56.096996, lon.=26.546923, Alt.=109.905334m. Speed=0.108000m/h.</desc>
<speed>0.030000</speed>
</trkpt>
<trkpt lat="56.096996" lon="26.546923">
<ele>109.899475</ele>
<time>2010-06-20T11:52:43Z</time>
<desc>lat.=56.096996, lon.=26.546923, Alt.=109.899475m. Speed=0.036000m/h.</desc>
<speed>0.010000</speed>
</trkpt>
<trkpt lat="56.096996" lon="26.546923">
<ele>109.893616</ele>
<time>2010-06-20T11:52:44Z</time>
<desc>lat.=56.096996, lon.=26.546923, Alt.=109.893616m. Speed=0.036000m/h.</desc>
<speed>0.010000</speed>
</trkpt>
<trkpt lat="56.096996" lon="26.546923">
<ele>109.893616</ele>
<time>2010-06-20T11:52:45Z</time>
<desc>lat.=56.096996, lon.=26.546923, Alt.=109.893616m. Speed=0.108000m/h.</desc>
<speed>0.030000</speed>
</trkpt>
<trkpt lat="56.096996" lon="26.546923">
<ele>109.887756</ele>
<time>2010-06-20T11:52:46Z</time>
<desc>lat.=56.096996, lon.=26.546923, Alt.=109.887756m. Speed=0.000000m/h.</desc>
<speed>0.000000</speed>
</trkpt>
<trkpt lat="56.096996" lon="26.546923">
<ele>109.887756</ele>
<time>2010-06-20T11:52:47Z</time>
<desc>lat.=56.096996, lon.=26.546923, Alt.=109.887756m. Speed=0.036000m/h.</desc>
<speed>0.010000</speed>
</trkpt>
<trkpt lat="56.096996" lon="26.546923">
<ele>109.887756</ele>
<time>2010-06-20T11:52:48Z</time>
<desc>lat.=56.096996, lon.=26.546923, Alt.=109.887756m. Speed=0.072000m/h.</desc>
<speed>0.020000</speed>
</trkpt>
<trkpt lat="56.096996" lon="26.546923">
<ele>109.889709</ele>
<time>2010-06-20T11:52:49Z</time>
<desc>lat.=56.096996, lon.=26.546923, Alt.=109.889709m. Speed=0.036000m/h.</desc>
<speed>0.010000</speed>
</trkpt>
<trkpt lat="56.097000" lon="26.546923">
<ele>109.897522</ele>
<time>2010-06-20T11:52:50Z</time>
<desc>lat.=56.097000, lon.=26.546923, Alt.=109.897522m. Speed=0.108000m/h.</desc>
<speed>0.030000</speed>
</trkpt>
<trkpt lat="56.097000" lon="26.546923">
<ele>109.905334</ele>
<time>2010-06-20T11:52:51Z</time>
<desc>lat.=56.097000, lon.=26.546923, Alt.=109.905334m. Speed=0.000000m/h.</desc>
<speed>0.000000</speed>
</trkpt>
<trkpt lat="56.097000" lon="26.546923">
<ele>109.907288</ele>
<time>2010-06-20T11:52:52Z</time>
<desc>lat.=56.097000, lon.=26.546923, Alt.=109.907288m. Speed=0.036000m/h.</desc>
<speed>0.010000</speed>
</trkpt>
<trkpt lat="56.097000" lon="26.546923">
<ele>109.915100</ele>
<time>2010-06-20T11:52:53Z</time>
<desc>lat.=56.097000, lon.=26.546923, Alt.=109.915100m. Speed=0.000000m/h.</desc>
<speed>0.000000</speed>
</trkpt>
<trkpt lat="56.097000" lon="26.546923">
<ele>109.920959</ele>
<time>2010-06-20T11:52:54Z</time>
<desc>lat.=56.097000, lon.=26.546923, Alt.=109.920959m. Speed=0.072000m/h.</desc>
<speed>0.020000</speed>
</trkpt>
<trkpt lat="56.097000" lon="26.546923">
<ele>109.915100</ele>
<time>2010-06-20T11:52:55Z</time>
<desc>lat.=56.097000, lon.=26.546923, Alt.=109.915100m. Speed=0.180000m/h.</desc>
<speed>0.050000</speed>
</trkpt>
<trkpt lat="56.097000" lon="26.546923">
<ele>109.911194</ele>
<time>2010-06-20T11:52:56Z</time>
<desc>lat.=56.097000, lon.=26.546923, Alt.=109.911194m. Speed=0.000000m/h.</desc>
<speed>0.000000</speed>
</trkpt>
<trkpt lat="56.097000" lon="26.546923">
<ele>109.907288</ele>
<time>2010-06-20T11:52:57Z</time>
<desc>lat.=56.097000, lon.=26.546923, Alt.=109.907288m. Speed=0.036000m/h.</desc>
<speed>0.010000</speed>
</trkpt>
<trkpt lat="56.097000" lon="26.546923">
<ele>109.905334</ele>
<time>2010-06-20T11:52:58Z</time>
<desc>lat.=56.097000, lon.=26.546923, Alt.=109.905334m. Speed=0.072000m/h.</desc>
<speed>0.020000</speed>
</trkpt>
<trkpt lat="56.097000" lon="26.546923">
<ele>109.905334</ele>
<time>2010-06-20T11:52:59Z</time>
<desc>lat.=56.097000, lon.=26.546923, Alt.=109.905334m. Speed=0.072000m/h.</desc>
<speed>0.020000</speed>
</trkpt>
<trkpt lat="56.097000" lon="26.546923">
<ele>109.905334</ele>
<time>2010-06-20T11:53:00Z</time>
<desc>lat.=56.097000, lon.=26.546923, Alt.=109.905334m. Speed=0.036000m/h.</desc>
<speed>0.010000</speed>
</trkpt>
<trkpt lat="56.097000" lon="26.546923">
<ele>109.905334</ele>
<time>2010-06-20T11:53:01Z</time>
<desc>lat.=56.097000, lon.=26.546923, Alt.=109.905334m. Speed=0.000000m/h.</desc>
<speed>0.000000</speed>
</trkpt>
<trkpt lat="56.097000" lon="26.546923">
<ele>109.903381</ele>
<time>2010-06-20T11:53:02Z</time>
<desc>lat.=56.097000, lon.=26.546923, Alt.=109.903381m. Speed=0.000000m/h.</desc>
<speed>0.000000</speed>
</trkpt>
<trkpt lat="56.097000" lon="26.546923">
<ele>109.909241</ele>
<time>2010-06-20T11:53:03Z</time>
<desc>lat.=56.097000, lon.=26.546923, Alt.=109.909241m. Speed=0.000000m/h.</desc>
<speed>0.000000</speed>
</trkpt>
<trkpt lat="56.097000" lon="26.546921">
<ele>109.911194</ele>
<time>2010-06-20T11:53:04Z</time>
<desc>lat.=56.097000, lon.=26.546921, Alt.=109.911194m. Speed=0.000000m/h.</desc>
<speed>0.000000</speed>
</trkpt>
<trkpt lat="56.097000" lon="26.546921">
<ele>109.919006</ele>
<time>2010-06-20T11:53:05Z</time>
<desc>lat.=56.097000, lon.=26.546921, Alt.=109.919006m. Speed=0.036000m/h.</desc>
<speed>0.010000</speed>
</trkpt>
<trkpt lat="56.097000" lon="26.546921">
<ele>109.915100</ele>
<time>2010-06-20T11:53:06Z</time>
<desc>lat.=56.097000, lon.=26.546921, Alt.=109.915100m. Speed=0.000000m/h.</desc>
<speed>0.000000</speed>
</trkpt>
<trkpt lat="56.097000" lon="26.546921">
<ele>109.919006</ele>
<time>2010-06-20T11:53:07Z</time>
<desc>lat.=56.097000, lon.=26.546921, Alt.=109.919006m. Speed=0.036000m/h.</desc>
<speed>0.010000</speed>
</trkpt>
<trkpt lat="56.097000" lon="26.546921">
<ele>109.920959</ele>
<time>2010-06-20T11:53:08Z</time>
<desc>lat.=56.097000, lon.=26.546921, Alt.=109.920959m. Speed=0.000000m/h.</desc>
<speed>0.000000</speed>
</trkpt>
<trkpt lat="56.097000" lon="26.546921">
<ele>109.917053</ele>
<time>2010-06-20T11:53:09Z</time>
<desc>lat.=56.097000, lon.=26.546921, Alt.=109.917053m. Speed=0.036000m/h.</desc>
<speed>0.010000</speed>
</trkpt>
<trkpt lat="56.097000" lon="26.546921">
<ele>109.917053</ele>
<time>2010-06-20T11:53:10Z</time>
<desc>lat.=56.097000, lon.=26.546921, Alt.=109.917053m. Speed=0.108000m/h.</desc>
<speed>0.030000</speed>
</trkpt>
<trkpt lat="56.097000" lon="26.546921">
<ele>109.911194</ele>
<time>2010-06-20T11:53:11Z</time>
<desc>lat.=56.097000, lon.=26.546921, Alt.=109.911194m. Speed=0.180000m/h.</desc>
<speed>0.050000</speed>
</trkpt>
<trkpt lat="56.097000" lon="26.546921">
<ele>109.911194</ele>
<time>2010-06-20T11:53:12Z</time>
<desc>lat.=56.097000, lon.=26.546921, Alt.=109.911194m. Speed=0.036000m/h.</desc>
<speed>0.010000</speed>
</trkpt>
<trkpt lat="56.097000" lon="26.546921">
<ele>109.911194</ele>
<time>2010-06-20T11:53:13Z</time>
<desc>lat.=56.097000, lon.=26.546921, Alt.=109.911194m. Speed=0.072000m/h.</desc>
<speed>0.020000</speed>
</trkpt>
<trkpt lat="56.097000" lon="26.546921">
<ele>109.911194</ele>
<time>2010-06-20T11:53:14Z</time>
<desc>lat.=56.097000, lon.=26.546921, Alt.=109.911194m. Speed=0.144000m/h.</desc>
<speed>0.040000</speed>
</trkpt>
<trkpt lat="56.097000" lon="26.546921">
<ele>109.911194</ele>
<time>2010-06-20T11:53:15Z</time>
<desc>lat.=56.097000, lon.=26.546921, Alt.=109.911194m. Speed=0.036000m/h.</desc>
<speed>0.010000</speed>
</trkpt>
<trkpt lat="56.097000" lon="26.546921">
<ele>109.909241</ele>
<time>2010-06-20T11:53:16Z</time>
<desc>lat.=56.097000, lon.=26.546921, Alt.=109.909241m. Speed=0.108000m/h.</desc>
<speed>0.030000</speed>
</trkpt>
<trkpt lat="56.097000" lon="26.546921">
<ele>109.905334</ele>
<time>2010-06-20T11:53:17Z</time>
<desc>lat.=56.097000, lon.=26.546921, Alt.=109.905334m. Speed=0.000000m/h.</desc>
<speed>0.000000</speed>
</trkpt>
<trkpt lat="56.097000" lon="26.546921">
<ele>109.901428</ele>
<time>2010-06-20T11:53:18Z</time>
<desc>lat.=56.097000, lon.=26.546921, Alt.=109.901428m. Speed=0.324000m/h.</desc>
<speed>0.090000</speed>
</trkpt>
<trkpt lat="56.097000" lon="26.546921">
<ele>109.901428</ele>
<time>2010-06-20T11:53:19Z</time>
<desc>lat.=56.097000, lon.=26.546921, Alt.=109.901428m. Speed=0.216000m/h.</desc>
<speed>0.060000</speed>
</trkpt>
<trkpt lat="56.097000" lon="26.546921">
<ele>109.920959</ele>
<time>2010-06-20T11:53:20Z</time>
<desc>lat.=56.097000, lon.=26.546921, Alt.=109.920959m. Speed=0.072000m/h.</desc>
<speed>0.020000</speed>
</trkpt>
<trkpt lat="56.097000" lon="26.546921">
<ele>109.920959</ele>
<time>2010-06-20T11:53:21Z</time>
<desc>lat.=56.097000, lon.=26.546921, Alt.=109.920959m. Speed=0.396000m/h.</desc>
<speed>0.110000</speed>
</trkpt>
<trkpt lat="56.097000" lon="26.546921">
<ele>109.924866</ele>
<time>2010-06-20T11:53:22Z</time>
<desc>lat.=56.097000, lon.=26.546921, Alt.=109.924866m. Speed=0.288000m/h.</desc>
<speed>0.080000</speed>
</trkpt>
<trkpt lat="56.097000" lon="26.546921">
<ele>109.926819</ele>
<time>2010-06-20T11:53:23Z</time>
<desc>lat.=56.097000, lon.=26.546921, Alt.=109.926819m. Speed=0.216000m/h.</desc>
<speed>0.060000</speed>
</trkpt>
<trkpt lat="56.097000" lon="26.546921">
<ele>109.924866</ele>
<time>2010-06-20T11:53:24Z</time>
<desc>lat.=56.097000, lon.=26.546921, Alt.=109.924866m. Speed=0.000000m/h.</desc>
<speed>0.000000</speed>
</trkpt>
<trkpt lat="56.097000" lon="26.546921">
<ele>109.920959</ele>
<time>2010-06-20T11:53:25Z</time>
<desc>lat.=56.097000, lon.=26.546921, Alt.=109.920959m. Speed=0.216000m/h.</desc>
<speed>0.060000</speed>
</trkpt>
<trkpt lat="56.097000" lon="26.546921">
<ele>109.919006</ele>
<time>2010-06-20T11:53:26Z</time>
<desc>lat.=56.097000, lon.=26.546921, Alt.=109.919006m. Speed=0.072000m/h.</desc>
<speed>0.020000</speed>
</trkpt>
<trkpt lat="56.097000" lon="26.546921">
<ele>109.917053</ele>
<time>2010-06-20T11:53:27Z</time>
<desc>lat.=56.097000, lon.=26.546921, Alt.=109.917053m. Speed=0.108000m/h.</desc>
<speed>0.030000</speed>
</trkpt>
<trkpt lat="56.097000" lon="26.546921">
<ele>109.919006</ele>
<time>2010-06-20T11:53:28Z</time>
<desc>lat.=56.097000, lon.=26.546921, Alt.=109.919006m. Speed=0.072000m/h.</desc>
<speed>0.020000</speed>
</trkpt>
<trkpt lat="56.097000" lon="26.546921">
<ele>109.924866</ele>
<time>2010-06-20T11:53:29Z</time>
<desc>lat.=56.097000, lon.=26.546921, Alt.=109.924866m. Speed=0.036000m/h.</desc>
<speed>0.010000</speed>
</trkpt>
<trkpt lat="56.097000" lon="26.546921">
<ele>109.926819</ele>
<time>2010-06-20T11:53:30Z</time>
<desc>lat.=56.097000, lon.=26.546921, Alt.=109.926819m. Speed=0.000000m/h.</desc>
<speed>0.000000</speed>
</trkpt>
<trkpt lat="56.097000" lon="26.546921">
<ele>109.926819</ele>
<time>2010-06-20T11:53:31Z</time>
<desc>lat.=56.097000, lon.=26.546921, Alt.=109.926819m. Speed=0.000000m/h.</desc>
<speed>0.000000</speed>
</trkpt>
<trkpt lat="56.097000" lon="26.546921">
<ele>109.932678</ele>
<time>2010-06-20T11:53:32Z</time>
<desc>lat.=56.097000, lon.=26.546921, Alt.=109.932678m. Speed=0.000000m/h.</desc>
<speed>0.000000</speed>
</trkpt>
<trkpt lat="56.097000" lon="26.546921">
<ele>109.932678</ele>
<time>2010-06-20T11:53:33Z</time>
<desc>lat.=56.097000, lon.=26.546921, Alt.=109.932678m. Speed=0.180000m/h.</desc>
<speed>0.050000</speed>
</trkpt>
<trkpt lat="56.097000" lon="26.546921">
<ele>109.932678</ele>
<time>2010-06-20T11:53:34Z</time>
<desc>lat.=56.097000, lon.=26.546921, Alt.=109.932678m. Speed=0.036000m/h.</desc>
<speed>0.010000</speed>
</trkpt>
<trkpt lat="56.097000" lon="26.546921">
<ele>109.932678</ele>
<time>2010-06-20T11:53:35Z</time>
<desc>lat.=56.097000, lon.=26.546921, Alt.=109.932678m. Speed=0.000000m/h.</desc>
<speed>0.000000</speed>
</trkpt>
<trkpt lat="56.097000" lon="26.546921">
<ele>109.930725</ele>
<time>2010-06-20T11:53:36Z</time>
<desc>lat.=56.097000, lon.=26.546921, Alt.=109.930725m. Speed=0.000000m/h.</desc>
<speed>0.000000</speed>
</trkpt>
<trkpt lat="56.097000" lon="26.546921">
<ele>109.930725</ele>
<time>2010-06-20T11:53:37Z</time>
<desc>lat.=56.097000, lon.=26.546921, Alt.=109.930725m. Speed=0.000000m/h.</desc>
<speed>0.000000</speed>
</trkpt>
<trkpt lat="56.097000" lon="26.546921">
<ele>109.924866</ele>
<time>2010-06-20T11:53:38Z</time>
<desc>lat.=56.097000, lon.=26.546921, Alt.=109.924866m. Speed=0.000000m/h.</desc>
<speed>0.000000</speed>
</trkpt>
<trkpt lat="56.097000" lon="26.546921">
<ele>109.922913</ele>
<time>2010-06-20T11:53:39Z</time>
<desc>lat.=56.097000, lon.=26.546921, Alt.=109.922913m. Speed=0.000000m/h.</desc>
<speed>0.000000</speed>
</trkpt>
<trkpt lat="56.097000" lon="26.546921">
<ele>109.922913</ele>
<time>2010-06-20T11:53:40Z</time>
<desc>lat.=56.097000, lon.=26.546921, Alt.=109.922913m. Speed=0.036000m/h.</desc>
<speed>0.010000</speed>
</trkpt>
<trkpt lat="56.097000" lon="26.546921">
<ele>109.920959</ele>
<time>2010-06-20T11:53:41Z</time>
<desc>lat.=56.097000, lon.=26.546921, Alt.=109.920959m. Speed=0.000000m/h.</desc>
<speed>0.000000</speed>
</trkpt>
<trkpt lat="56.097000" lon="26.546921">
<ele>109.924866</ele>
<time>2010-06-20T11:53:42Z</time>
<desc>lat.=56.097000, lon.=26.546921, Alt.=109.924866m. Speed=0.036000m/h.</desc>
<speed>0.010000</speed>
</trkpt>
<trkpt lat="56.097000" lon="26.546919">
<ele>109.922913</ele>
<time>2010-06-20T11:53:43Z</time>
<desc>lat.=56.097000, lon.=26.546919, Alt.=109.922913m. Speed=0.000000m/h.</desc>
<speed>0.000000</speed>
</trkpt>
<trkpt lat="56.097000" lon="26.546919">
<ele>109.920959</ele>
<time>2010-06-20T11:53:44Z</time>
<desc>lat.=56.097000, lon.=26.546919, Alt.=109.920959m. Speed=0.000000m/h.</desc>
<speed>0.000000</speed>
</trkpt>
<trkpt lat="56.097000" lon="26.546921">
<ele>109.922913</ele>
<time>2010-06-20T11:53:45Z</time>
<desc>lat.=56.097000, lon.=26.546921, Alt.=109.922913m. Speed=0.036000m/h.</desc>
<speed>0.010000</speed>
</trkpt>
<trkpt lat="56.097000" lon="26.546919">
<ele>109.922913</ele>
<time>2010-06-20T11:53:46Z</time>
<desc>lat.=56.097000, lon.=26.546919, Alt.=109.922913m. Speed=0.000000m/h.</desc>
<speed>0.000000</speed>
</trkpt>
<trkpt lat="56.097000" lon="26.546919">
<ele>109.922913</ele>
<time>2010-06-20T11:53:47Z</time>
<desc>lat.=56.097000, lon.=26.546919, Alt.=109.922913m. Speed=0.036000m/h.</desc>
<speed>0.010000</speed>
</trkpt>
<trkpt lat="56.097000" lon="26.546921">
<ele>109.920959</ele>
<time>2010-06-20T11:53:48Z</time>
<desc>lat.=56.097000, lon.=26.546921, Alt.=109.920959m. Speed=0.036000m/h.</desc>
<speed>0.010000</speed>
</trkpt>
<trkpt lat="56.097000" lon="26.546921">
<ele>109.917053</ele>
<time>2010-06-20T11:53:49Z</time>
<desc>lat.=56.097000, lon.=26.546921, Alt.=109.917053m. Speed=0.036000m/h.</desc>
<speed>0.010000</speed>
</trkpt>
<trkpt lat="56.097000" lon="26.546921">
<ele>109.913147</ele>
<time>2010-06-20T11:53:50Z</time>
<desc>lat.=56.097000, lon.=26.546921, Alt.=109.913147m. Speed=0.144000m/h.</desc>
<speed>0.040000</speed>
</trkpt>
<trkpt lat="56.097000" lon="26.546921">
<ele>109.905334</ele>
<time>2010-06-20T11:53:51Z</time>
<desc>lat.=56.097000, lon.=26.546921, Alt.=109.905334m. Speed=0.180000m/h.</desc>
<speed>0.050000</speed>
</trkpt>
<trkpt lat="56.097000" lon="26.546921">
<ele>109.901428</ele>
<time>2010-06-20T11:53:52Z</time>
<desc>lat.=56.097000, lon.=26.546921, Alt.=109.901428m. Speed=0.108000m/h.</desc>
<speed>0.030000</speed>
</trkpt>
<trkpt lat="56.097000" lon="26.546921">
<ele>109.901428</ele>
<time>2010-06-20T11:53:53Z</time>
<desc>lat.=56.097000, lon.=26.546921, Alt.=109.901428m. Speed=0.000000m/h.</desc>
<speed>0.000000</speed>
</trkpt>
<trkpt lat="56.097000" lon="26.546919">
<ele>109.901428</ele>
<time>2010-06-20T11:53:54Z</time>
<desc>lat.=56.097000, lon.=26.546919, Alt.=109.901428m. Speed=0.000000m/h.</desc>
<speed>0.000000</speed>
</trkpt>
<trkpt lat="56.097000" lon="26.546919">
<ele>109.899475</ele>
<time>2010-06-20T11:53:55Z</time>
<desc>lat.=56.097000, lon.=26.546919, Alt.=109.899475m. Speed=0.072000m/h.</desc>
<speed>0.020000</speed>
</trkpt>
<trkpt lat="56.097000" lon="26.546919">
<ele>109.897522</ele>
<time>2010-06-20T11:53:56Z</time>
<desc>lat.=56.097000, lon.=26.546919, Alt.=109.897522m. Speed=0.036000m/h.</desc>
<speed>0.010000</speed>
</trkpt>
<trkpt lat="56.097000" lon="26.546919">
<ele>109.895569</ele>
<time>2010-06-20T11:53:57Z</time>
<desc>lat.=56.097000, lon.=26.546919, Alt.=109.895569m. Speed=0.036000m/h.</desc>
<speed>0.010000</speed>
</trkpt>
<trkpt lat="56.097000" lon="26.546919">
<ele>109.897522</ele>
<time>2010-06-20T11:53:58Z</time>
<desc>lat.=56.097000, lon.=26.546919, Alt.=109.897522m. Speed=0.000000m/h.</desc>
<speed>0.000000</speed>
</trkpt>
<trkpt lat="56.097000" lon="26.546919">
<ele>109.901428</ele>
<time>2010-06-20T11:53:59Z</time>
<desc>lat.=56.097000, lon.=26.546919, Alt.=109.901428m. Speed=0.000000m/h.</desc>
<speed>0.000000</speed>
</trkpt>
<trkpt lat="56.097000" lon="26.546919">
<ele>109.901428</ele>
<time>2010-06-20T11:54:00Z</time>
<desc>lat.=56.097000, lon.=26.546919, Alt.=109.901428m. Speed=0.036000m/h.</desc>
<speed>0.010000</speed>
</trkpt>
<trkpt lat="56.097000" lon="26.546919">
<ele>109.901428</ele>
<time>2010-06-20T11:54:01Z</time>
<desc>lat.=56.097000, lon.=26.546919, Alt.=109.901428m. Speed=0.072000m/h.</desc>
<speed>0.020000</speed>
</trkpt>
<trkpt lat="56.097000" lon="26.546919">
<ele>109.903381</ele>
<time>2010-06-20T11:54:02Z</time>
<desc>lat.=56.097000, lon.=26.546919, Alt.=109.903381m. Speed=0.000000m/h.</desc>
<speed>0.000000</speed>
</trkpt>
<trkpt lat="56.097000" lon="26.546919">
<ele>109.903381</ele>
<time>2010-06-20T11:54:03Z</time>
<desc>lat.=56.097000, lon.=26.546919, Alt.=109.903381m. Speed=0.036000m/h.</desc>
<speed>0.010000</speed>
</trkpt>
<trkpt lat="56.097000" lon="26.546919">
<ele>109.901428</ele>
<time>2010-06-20T11:54:04Z</time>
<desc>lat.=56.097000, lon.=26.546919, Alt.=109.901428m. Speed=0.000000m/h.</desc>
<speed>0.000000</speed>
</trkpt>
<trkpt lat="56.097000" lon="26.546919">
<ele>109.905334</ele>
<time>2010-06-20T11:54:05Z</time>
<desc>lat.=56.097000, lon.=26.546919, Alt.=109.905334m. Speed=0.108000m/h.</desc>
<speed>0.030000</speed>
</trkpt>
<trkpt lat="56.097000" lon="26.546919">
<ele>109.905334</ele>
<time>2010-06-20T11:54:06Z</time>
<desc>lat.=56.097000, lon.=26.546919, Alt.=109.905334m. Speed=0.036000m/h.</desc>
<speed>0.010000</speed>
</trkpt>
<trkpt lat="56.097000" lon="26.546919">
<ele>109.901428</ele>
<time>2010-06-20T11:54:07Z</time>
<desc>lat.=56.097000, lon.=26.546919, Alt.=109.901428m. Speed=0.000000m/h.</desc>
<speed>0.000000</speed>
</trkpt>
<trkpt lat="56.097000" lon="26.546919">
<ele>109.897522</ele>
<time>2010-06-20T11:54:08Z</time>
<desc>lat.=56.097000, lon.=26.546919, Alt.=109.897522m. Speed=0.036000m/h.</desc>
<speed>0.010000</speed>
</trkpt>
<trkpt lat="56.097000" lon="26.546919">
<ele>109.893616</ele>
<time>2010-06-20T11:54:09Z</time>
<desc>lat.=56.097000, lon.=26.546919, Alt.=109.893616m. Speed=0.072000m/h.</desc>
<speed>0.020000</speed>
</trkpt>
<trkpt lat="56.097000" lon="26.546919">
<ele>109.893616</ele>
<time>2010-06-20T11:54:10Z</time>
<desc>lat.=56.097000, lon.=26.546919, Alt.=109.893616m. Speed=0.072000m/h.</desc>
<speed>0.020000</speed>
</trkpt>
<trkpt lat="56.097000" lon="26.546919">
<ele>109.897522</ele>
<time>2010-06-20T11:54:11Z</time>
<desc>lat.=56.097000, lon.=26.546919, Alt.=109.897522m. Speed=0.036000m/h.</desc>
<speed>0.010000</speed>
</trkpt>
<trkpt lat="56.097000" lon="26.546919">
<ele>109.899475</ele>
<time>2010-06-20T11:54:12Z</time>
<desc>lat.=56.097000, lon.=26.546919, Alt.=109.899475m. Speed=0.036000m/h.</desc>
<speed>0.010000</speed>
</trkpt>
<trkpt lat="56.097000" lon="26.546919">
<ele>109.901428</ele>
<time>2010-06-20T11:54:13Z</time>
<desc>lat.=56.097000, lon.=26.546919, Alt.=109.901428m. Speed=0.072000m/h.</desc>
<speed>0.020000</speed>
</trkpt>
<trkpt lat="56.097000" lon="26.546919">
<ele>109.903381</ele>
<time>2010-06-20T11:54:14Z</time>
<desc>lat.=56.097000, lon.=26.546919, Alt.=109.903381m. Speed=0.108000m/h.</desc>
<speed>0.030000</speed>
</trkpt>
<trkpt lat="56.097000" lon="26.546919">
<ele>109.907288</ele>
<time>2010-06-20T11:54:15Z</time>
<desc>lat.=56.097000, lon.=26.546919, Alt.=109.907288m. Speed=0.108000m/h.</desc>
<speed>0.030000</speed>
</trkpt>
<trkpt lat="56.097000" lon="26.546919">
<ele>109.909241</ele>
<time>2010-06-20T11:54:16Z</time>
<desc>lat.=56.097000, lon.=26.546919, Alt.=109.909241m. Speed=0.108000m/h.</desc>
<speed>0.030000</speed>
</trkpt>
<trkpt lat="56.097000" lon="26.546919">
<ele>109.911194</ele>
<time>2010-06-20T11:54:17Z</time>
<desc>lat.=56.097000, lon.=26.546919, Alt.=109.911194m. Speed=0.000000m/h.</desc>
<speed>0.000000</speed>
</trkpt>
<trkpt lat="56.097000" lon="26.546919">
<ele>109.907288</ele>
<time>2010-06-20T11:54:18Z</time>
<desc>lat.=56.097000, lon.=26.546919, Alt.=109.907288m. Speed=0.072000m/h.</desc>
<speed>0.020000</speed>
</trkpt>
<trkpt lat="56.097000" lon="26.546919">
<ele>109.909241</ele>
<time>2010-06-20T11:54:19Z</time>
<desc>lat.=56.097000, lon.=26.546919, Alt.=109.909241m. Speed=0.072000m/h.</desc>
<speed>0.020000</speed>
</trkpt>
<trkpt lat="56.097000" lon="26.546919">
<ele>109.911194</ele>
<time>2010-06-20T11:54:20Z</time>
<desc>lat.=56.097000, lon.=26.546919, Alt.=109.911194m. Speed=0.000000m/h.</desc>
<speed>0.000000</speed>
</trkpt>
<trkpt lat="56.097000" lon="26.546919">
<ele>109.913147</ele>
<time>2010-06-20T11:54:21Z</time>
<desc>lat.=56.097000, lon.=26.546919, Alt.=109.913147m. Speed=0.072000m/h.</desc>
<speed>0.020000</speed>
</trkpt>
<trkpt lat="56.097000" lon="26.546919">
<ele>109.919006</ele>
<time>2010-06-20T11:54:22Z</time>
<desc>lat.=56.097000, lon.=26.546919, Alt.=109.919006m. Speed=0.000000m/h.</desc>
<speed>0.000000</speed>
</trkpt>
<trkpt lat="56.097000" lon="26.546919">
<ele>109.920959</ele>
<time>2010-06-20T11:54:23Z</time>
<desc>lat.=56.097000, lon.=26.546919, Alt.=109.920959m. Speed=0.000000m/h.</desc>
<speed>0.000000</speed>
</trkpt>
<trkpt lat="56.097000" lon="26.546919">
<ele>109.924866</ele>
<time>2010-06-20T11:54:24Z</time>
<desc>lat.=56.097000, lon.=26.546919, Alt.=109.924866m. Speed=0.036000m/h.</desc>
<speed>0.010000</speed>
</trkpt>
<trkpt lat="56.097000" lon="26.546919">
<ele>109.930725</ele>
<time>2010-06-20T11:54:25Z</time>
<desc>lat.=56.097000, lon.=26.546919, Alt.=109.930725m. Speed=0.036000m/h.</desc>
<speed>0.010000</speed>
</trkpt>
<trkpt lat="56.097000" lon="26.546919">
<ele>109.938538</ele>
<time>2010-06-20T11:54:26Z</time>
<desc>lat.=56.097000, lon.=26.546919, Alt.=109.938538m. Speed=0.000000m/h.</desc>
<speed>0.000000</speed>
</trkpt>
<trkpt lat="56.097000" lon="26.546919">
<ele>109.944397</ele>
<time>2010-06-20T11:54:27Z</time>
<desc>lat.=56.097000, lon.=26.546919, Alt.=109.944397m. Speed=0.072000m/h.</desc>
<speed>0.020000</speed>
</trkpt>
<trkpt lat="56.097000" lon="26.546919">
<ele>109.944397</ele>
<time>2010-06-20T11:54:28Z</time>
<desc>lat.=56.097000, lon.=26.546919, Alt.=109.944397m. Speed=0.180000m/h.</desc>
<speed>0.050000</speed>
</trkpt>
<trkpt lat="56.097000" lon="26.546919">
<ele>109.948303</ele>
<time>2010-06-20T11:54:29Z</time>
<desc>lat.=56.097000, lon.=26.546919, Alt.=109.948303m. Speed=0.000000m/h.</desc>
<speed>0.000000</speed>
</trkpt>
<trkpt lat="56.097000" lon="26.546919">
<ele>109.952209</ele>
<time>2010-06-20T11:54:30Z</time>
<desc>lat.=56.097000, lon.=26.546919, Alt.=109.952209m. Speed=0.000000m/h.</desc>
<speed>0.000000</speed>
</trkpt>
<trkpt lat="56.097000" lon="26.546919">
<ele>109.946350</ele>
<time>2010-06-20T11:54:31Z</time>
<desc>lat.=56.097000, lon.=26.546919, Alt.=109.946350m. Speed=0.180000m/h.</desc>
<speed>0.050000</speed>
</trkpt>
<trkpt lat="56.097000" lon="26.546919">
<ele>109.948303</ele>
<time>2010-06-20T11:54:32Z</time>
<desc>lat.=56.097000, lon.=26.546919, Alt.=109.948303m. Speed=0.072000m/h.</desc>
<speed>0.020000</speed>
</trkpt>
<trkpt lat="56.097000" lon="26.546919">
<ele>109.948303</ele>
<time>2010-06-20T11:54:33Z</time>
<desc>lat.=56.097000, lon.=26.546919, Alt.=109.948303m. Speed=0.072000m/h.</desc>
<speed>0.020000</speed>
</trkpt>
<trkpt lat="56.097000" lon="26.546919">
<ele>109.950256</ele>
<time>2010-06-20T11:54:34Z</time>
<desc>lat.=56.097000, lon.=26.546919, Alt.=109.950256m. Speed=0.036000m/h.</desc>
<speed>0.010000</speed>
</trkpt>
<trkpt lat="56.097000" lon="26.546919">
<ele>109.952209</ele>
<time>2010-06-20T11:54:35Z</time>
<desc>lat.=56.097000, lon.=26.546919, Alt.=109.952209m. Speed=0.000000m/h.</desc>
<speed>0.000000</speed>
</trkpt>
<trkpt lat="56.097000" lon="26.546919">
<ele>109.950256</ele>
<time>2010-06-20T11:54:36Z</time>
<desc>lat.=56.097000, lon.=26.546919, Alt.=109.950256m. Speed=0.000000m/h.</desc>
<speed>0.000000</speed>
</trkpt>
<trkpt lat="56.097000" lon="26.546919">
<ele>109.950256</ele>
<time>2010-06-20T11:54:37Z</time>
<desc>lat.=56.097000, lon.=26.546919, Alt.=109.950256m. Speed=0.000000m/h.</desc>
<speed>0.000000</speed>
</trkpt>
<trkpt lat="56.097000" lon="26.546919">
<ele>109.950256</ele>
<time>2010-06-20T11:54:38Z</time>
<desc>lat.=56.097000, lon.=26.546919, Alt.=109.950256m. Speed=0.000000m/h.</desc>
<speed>0.000000</speed>
</trkpt>
<trkpt lat="56.097000" lon="26.546919">
<ele>109.950256</ele>
<time>2010-06-20T11:54:39Z</time>
<desc>lat.=56.097000, lon.=26.546919, Alt.=109.950256m. Speed=0.000000m/h.</desc>
<speed>0.000000</speed>
</trkpt>
<trkpt lat="56.097000" lon="26.546917">
<ele>109.950256</ele>
<time>2010-06-20T11:54:40Z</time>
<desc>lat.=56.097000, lon.=26.546917, Alt.=109.950256m. Speed=0.036000m/h.</desc>
<speed>0.010000</speed>
</trkpt>
<trkpt lat="56.097000" lon="26.546917">
<ele>109.950256</ele>
<time>2010-06-20T11:54:41Z</time>
<desc>lat.=56.097000, lon.=26.546917, Alt.=109.950256m. Speed=0.036000m/h.</desc>
<speed>0.010000</speed>
</trkpt>
<trkpt lat="56.097000" lon="26.546917">
<ele>109.950256</ele>
<time>2010-06-20T11:54:42Z</time>
<desc>lat.=56.097000, lon.=26.546917, Alt.=109.950256m. Speed=0.180000m/h.</desc>
<speed>0.050000</speed>
</trkpt>
<trkpt lat="56.097000" lon="26.546917">
<ele>109.948303</ele>
<time>2010-06-20T11:54:43Z</time>
<desc>lat.=56.097000, lon.=26.546917, Alt.=109.948303m. Speed=0.180000m/h.</desc>
<speed>0.050000</speed>
</trkpt>
<trkpt lat="56.097000" lon="26.546917">
<ele>109.946350</ele>
<time>2010-06-20T11:54:44Z</time>
<desc>lat.=56.097000, lon.=26.546917, Alt.=109.946350m. Speed=0.288000m/h.</desc>
<speed>0.080000</speed>
</trkpt>
<trkpt lat="56.097000" lon="26.546917">
<ele>109.944397</ele>
<time>2010-06-20T11:54:45Z</time>
<desc>lat.=56.097000, lon.=26.546917, Alt.=109.944397m. Speed=0.000000m/h.</desc>
<speed>0.000000</speed>
</trkpt>
<trkpt lat="56.097000" lon="26.546917">
<ele>109.946350</ele>
<time>2010-06-20T11:54:46Z</time>
<desc>lat.=56.097000, lon.=26.546917, Alt.=109.946350m. Speed=0.144000m/h.</desc>
<speed>0.040000</speed>
</trkpt>
<trkpt lat="56.097000" lon="26.546917">
<ele>109.952209</ele>
<time>2010-06-20T11:54:47Z</time>
<desc>lat.=56.097000, lon.=26.546917, Alt.=109.952209m. Speed=0.108000m/h.</desc>
<speed>0.030000</speed>
</trkpt>
<trkpt lat="56.097000" lon="26.546917">
<ele>109.952209</ele>
<time>2010-06-20T11:54:48Z</time>
<desc>lat.=56.097000, lon.=26.546917, Alt.=109.952209m. Speed=0.252000m/h.</desc>
<speed>0.070000</speed>
</trkpt>
<trkpt lat="56.097000" lon="26.546917">
<ele>109.950256</ele>
<time>2010-06-20T11:54:49Z</time>
<desc>lat.=56.097000, lon.=26.546917, Alt.=109.950256m. Speed=0.108000m/h.</desc>
<speed>0.030000</speed>
</trkpt>
<trkpt lat="56.097000" lon="26.546917">
<ele>109.954163</ele>
<time>2010-06-20T11:54:50Z</time>
<desc>lat.=56.097000, lon.=26.546917, Alt.=109.954163m. Speed=0.072000m/h.</desc>
<speed>0.020000</speed>
</trkpt>
<trkpt lat="56.097000" lon="26.546917">
<ele>109.958069</ele>
<time>2010-06-20T11:54:51Z</time>
<desc>lat.=56.097000, lon.=26.546917, Alt.=109.958069m. Speed=0.108000m/h.</desc>
<speed>0.030000</speed>
</trkpt>
<trkpt lat="56.097000" lon="26.546917">
<ele>109.958069</ele>
<time>2010-06-20T11:54:52Z</time>
<desc>lat.=56.097000, lon.=26.546917, Alt.=109.958069m. Speed=0.036000m/h.</desc>
<speed>0.010000</speed>
</trkpt>
<trkpt lat="56.097000" lon="26.546917">
<ele>109.960022</ele>
<time>2010-06-20T11:54:53Z</time>
<desc>lat.=56.097000, lon.=26.546917, Alt.=109.960022m. Speed=0.072000m/h.</desc>
<speed>0.020000</speed>
</trkpt>
<trkpt lat="56.097000" lon="26.546917">
<ele>109.965881</ele>
<time>2010-06-20T11:54:54Z</time>
<desc>lat.=56.097000, lon.=26.546917, Alt.=109.965881m. Speed=0.000000m/h.</desc>
<speed>0.000000</speed>
</trkpt>
<trkpt lat="56.097000" lon="26.546917">
<ele>109.963928</ele>
<time>2010-06-20T11:54:55Z</time>
<desc>lat.=56.097000, lon.=26.546917, Alt.=109.963928m. Speed=0.108000m/h.</desc>
<speed>0.030000</speed>
</trkpt>
<trkpt lat="56.097000" lon="26.546917">
<ele>109.960022</ele>
<time>2010-06-20T11:54:56Z</time>
<desc>lat.=56.097000, lon.=26.546917, Alt.=109.960022m. Speed=0.072000m/h.</desc>
<speed>0.020000</speed>
</trkpt>
<trkpt lat="56.097000" lon="26.546917">
<ele>109.960022</ele>
<time>2010-06-20T11:54:57Z</time>
<desc>lat.=56.097000, lon.=26.546917, Alt.=109.960022m. Speed=0.072000m/h.</desc>
<speed>0.020000</speed>
</trkpt>
<trkpt lat="56.097000" lon="26.546917">
<ele>109.958069</ele>
<time>2010-06-20T11:54:58Z</time>
<desc>lat.=56.097000, lon.=26.546917, Alt.=109.958069m. Speed=0.324000m/h.</desc>
<speed>0.090000</speed>
</trkpt>
<trkpt lat="56.097000" lon="26.546917">
<ele>109.956116</ele>
<time>2010-06-20T11:54:59Z</time>
<desc>lat.=56.097000, lon.=26.546917, Alt.=109.956116m. Speed=0.324000m/h.</desc>
<speed>0.090000</speed>
</trkpt>
<trkpt lat="56.097000" lon="26.546917">
<ele>109.915100</ele>
<time>2010-06-20T11:55:00Z</time>
<desc>lat.=56.097000, lon.=26.546917, Alt.=109.915100m. Speed=0.108000m/h.</desc>
<speed>0.030000</speed>
</trkpt>
<trkpt lat="56.097000" lon="26.546915">
<ele>109.911194</ele>
<time>2010-06-20T11:55:01Z</time>
<desc>lat.=56.097000, lon.=26.546915, Alt.=109.911194m. Speed=0.036000m/h.</desc>
<speed>0.010000</speed>
</trkpt>
<trkpt lat="56.097000" lon="26.546915">
<ele>109.913147</ele>
<time>2010-06-20T11:55:02Z</time>
<desc>lat.=56.097000, lon.=26.546915, Alt.=109.913147m. Speed=0.360000m/h.</desc>
<speed>0.100000</speed>
</trkpt>
<trkpt lat="56.097000" lon="26.546915">
<ele>109.913147</ele>
<time>2010-06-20T11:55:03Z</time>
<desc>lat.=56.097000, lon.=26.546915, Alt.=109.913147m. Speed=0.108000m/h.</desc>
<speed>0.030000</speed>
</trkpt>
<trkpt lat="56.097000" lon="26.546915">
<ele>109.917053</ele>
<time>2010-06-20T11:55:04Z</time>
<desc>lat.=56.097000, lon.=26.546915, Alt.=109.917053m. Speed=0.144000m/h.</desc>
<speed>0.040000</speed>
</trkpt>
<trkpt lat="56.097000" lon="26.546915">
<ele>109.920959</ele>
<time>2010-06-20T11:55:05Z</time>
<desc>lat.=56.097000, lon.=26.546915, Alt.=109.920959m. Speed=0.216000m/h.</desc>
<speed>0.060000</speed>
</trkpt>
<trkpt lat="56.097000" lon="26.546915">
<ele>109.924866</ele>
<time>2010-06-20T11:55:06Z</time>
<desc>lat.=56.097000, lon.=26.546915, Alt.=109.924866m. Speed=0.000000m/h.</desc>
<speed>0.000000</speed>
</trkpt>
<trkpt lat="56.097000" lon="26.546915">
<ele>109.924866</ele>
<time>2010-06-20T11:55:07Z</time>
<desc>lat.=56.097000, lon.=26.546915, Alt.=109.924866m. Speed=0.720000m/h.</desc>
<speed>0.200000</speed>
</trkpt>
<trkpt lat="56.097000" lon="26.546915">
<ele>109.926819</ele>
<time>2010-06-20T11:55:08Z</time>
<desc>lat.=56.097000, lon.=26.546915, Alt.=109.926819m. Speed=1.584000m/h.</desc>
<speed>0.440000</speed>
</trkpt>
<trkpt lat="56.096996" lon="26.546909">
<ele>109.975647</ele>
<time>2010-06-20T11:55:09Z</time>
<desc>lat.=56.096996, lon.=26.546909, Alt.=109.975647m. Speed=0.900000m/h.</desc>
<speed>0.250000</speed>
</trkpt>
<trkpt lat="56.096996" lon="26.546904">
<ele>110.010803</ele>
<time>2010-06-20T11:55:10Z</time>
<desc>lat.=56.096996, lon.=26.546904, Alt.=110.010803m. Speed=1.512000m/h.</desc>
<speed>0.420000</speed>
</trkpt>
<trkpt lat="56.096996" lon="26.546892">
<ele>109.989319</ele>
<time>2010-06-20T11:55:11Z</time>
<desc>lat.=56.096996, lon.=26.546892, Alt.=109.989319m. Speed=0.792000m/h.</desc>
<speed>0.220000</speed>
</trkpt>
<trkpt lat="56.096992" lon="26.546892">
<ele>110.172913</ele>
<time>2010-06-20T11:55:12Z</time>
<desc>lat.=56.096992, lon.=26.546892, Alt.=110.172913m. Speed=0.540000m/h.</desc>
<speed>0.150000</speed>
</trkpt>
<trkpt lat="56.096992" lon="26.546886">
<ele>110.196350</ele>
<time>2010-06-20T11:55:13Z</time>
<desc>lat.=56.096992, lon.=26.546886, Alt.=110.196350m. Speed=0.792000m/h.</desc>
<speed>0.220000</speed>
</trkpt>
<trkpt lat="56.096992" lon="26.546883">
<ele>110.122131</ele>
<time>2010-06-20T11:55:14Z</time>
<desc>lat.=56.096992, lon.=26.546883, Alt.=110.122131m. Speed=1.584000m/h.</desc>
<speed>0.440000</speed>
</trkpt>
<trkpt lat="56.096981" lon="26.546885">
<ele>110.073303</ele>
<time>2010-06-20T11:55:15Z</time>
<desc>lat.=56.096981, lon.=26.546885, Alt.=110.073303m. Speed=3.168000m/h.</desc>
<speed>0.880000</speed>
</trkpt>
<trkpt lat="56.096970" lon="26.546894">
<ele>109.909241</ele>
<time>2010-06-20T11:55:16Z</time>
<desc>lat.=56.096970, lon.=26.546894, Alt.=109.909241m. Speed=4.968000m/h.</desc>
<speed>1.380000</speed>
</trkpt>
<trkpt lat="56.096954" lon="26.546898">
<ele>109.872131</ele>
<time>2010-06-20T11:55:17Z</time>
<desc>lat.=56.096954, lon.=26.546898, Alt.=109.872131m. Speed=5.544000m/h.</desc>
<speed>1.540000</speed>
</trkpt>
<trkpt lat="56.096935" lon="26.546898">
<ele>109.846741</ele>
<time>2010-06-20T11:55:18Z</time>
<desc>lat.=56.096935, lon.=26.546898, Alt.=109.846741m. Speed=5.688000m/h.</desc>
<speed>1.580000</speed>
</trkpt>
<trkpt lat="56.096916" lon="26.546896">
<ele>109.475647</ele>
<time>2010-06-20T11:55:19Z</time>
<desc>lat.=56.096916, lon.=26.546896, Alt.=109.475647m. Speed=7.488000m/h.</desc>
<speed>2.080000</speed>
</trkpt>
<trkpt lat="56.096897" lon="26.546900">
<ele>109.098694</ele>
<time>2010-06-20T11:55:20Z</time>
<desc>lat.=56.096897, lon.=26.546900, Alt.=109.098694m. Speed=6.444000m/h.</desc>
<speed>1.790000</speed>
</trkpt>
<trkpt lat="56.096882" lon="26.546911">
<ele>108.754944</ele>
<time>2010-06-20T11:55:21Z</time>
<desc>lat.=56.096882, lon.=26.546911, Alt.=108.754944m. Speed=7.164000m/h.</desc>
<speed>1.990000</speed>
</trkpt>
<trkpt lat="56.096870" lon="26.546936">
<ele>108.489319</ele>
<time>2010-06-20T11:55:22Z</time>
<desc>lat.=56.096870, lon.=26.546936, Alt.=108.489319m. Speed=6.840000m/h.</desc>
<speed>1.900000</speed>
</trkpt>
<trkpt lat="56.096870" lon="26.546965">
<ele>108.325256</ele>
<time>2010-06-20T11:55:23Z</time>
<desc>lat.=56.096870, lon.=26.546965, Alt.=108.325256m. Speed=6.876000m/h.</desc>
<speed>1.910000</speed>
</trkpt>
<trkpt lat="56.096870" lon="26.546993">
<ele>108.290100</ele>
<time>2010-06-20T11:55:24Z</time>
<desc>lat.=56.096870, lon.=26.546993, Alt.=108.290100m. Speed=6.156000m/h.</desc>
<speed>1.710000</speed>
</trkpt>
<trkpt lat="56.096870" lon="26.547020">
<ele>108.422913</ele>
<time>2010-06-20T11:55:25Z</time>
<desc>lat.=56.096870, lon.=26.547020, Alt.=108.422913m. Speed=5.724000m/h.</desc>
<speed>1.590000</speed>
</trkpt>
<trkpt lat="56.096870" lon="26.547050">
<ele>108.610413</ele>
<time>2010-06-20T11:55:26Z</time>
<desc>lat.=56.096870, lon.=26.547050, Alt.=108.610413m. Speed=5.400000m/h.</desc>
<speed>1.500000</speed>
</trkpt>
<trkpt lat="56.096867" lon="26.547081">
<ele>108.581116</ele>
<time>2010-06-20T11:55:27Z</time>
<desc>lat.=56.096867, lon.=26.547081, Alt.=108.581116m. Speed=7.632000m/h.</desc>
<speed>2.120000</speed>
</trkpt>
<trkpt lat="56.096863" lon="26.547117">
<ele>108.569397</ele>
<time>2010-06-20T11:55:28Z</time>
<desc>lat.=56.096863, lon.=26.547117, Alt.=108.569397m. Speed=7.992000m/h.</desc>
<speed>2.220000</speed>
</trkpt>
<trkpt lat="56.096870" lon="26.547155">
<ele>108.612366</ele>
<time>2010-06-20T11:55:29Z</time>
<desc>lat.=56.096870, lon.=26.547155, Alt.=108.612366m. Speed=9.720000m/h.</desc>
<speed>2.700000</speed>
</trkpt>
<trkpt lat="56.096867" lon="26.547199">
<ele>108.577209</ele>
<time>2010-06-20T11:55:30Z</time>
<desc>lat.=56.096867, lon.=26.547199, Alt.=108.577209m. Speed=8.856000m/h.</desc>
<speed>2.460000</speed>
</trkpt>
<trkpt lat="56.096863" lon="26.547241">
<ele>108.491272</ele>
<time>2010-06-20T11:55:31Z</time>
<desc>lat.=56.096863, lon.=26.547241, Alt.=108.491272m. Speed=9.108000m/h.</desc>
<speed>2.530000</speed>
</trkpt>
<trkpt lat="56.096851" lon="26.547291">
<ele>108.032288</ele>
<time>2010-06-20T11:55:32Z</time>
<desc>lat.=56.096851, lon.=26.547291, Alt.=108.032288m. Speed=9.864000m/h.</desc>
<speed>2.740000</speed>
</trkpt>
<trkpt lat="56.096848" lon="26.547342">
<ele>107.622131</ele>
<time>2010-06-20T11:55:33Z</time>
<desc>lat.=56.096848, lon.=26.547342, Alt.=107.622131m. Speed=10.656000m/h.</desc>
<speed>2.960000</speed>
</trkpt>
<trkpt lat="56.096844" lon="26.547396">
<ele>107.288147</ele>
<time>2010-06-20T11:55:34Z</time>
<desc>lat.=56.096844, lon.=26.547396, Alt.=107.288147m. Speed=8.892000m/h.</desc>
<speed>2.470000</speed>
</trkpt>
<trkpt lat="56.096836" lon="26.547438">
<ele>107.186584</ele>
<time>2010-06-20T11:55:35Z</time>
<desc>lat.=56.096836, lon.=26.547438, Alt.=107.186584m. Speed=8.676000m/h.</desc>
<speed>2.410000</speed>
</trkpt>
<trkpt lat="56.096828" lon="26.547489">
<ele>106.862366</ele>
<time>2010-06-20T11:55:36Z</time>
<desc>lat.=56.096828, lon.=26.547489, Alt.=106.862366m. Speed=12.096000m/h.</desc>
<speed>3.360000</speed>
</trkpt>
<trkpt lat="56.096821" lon="26.547543">
<ele>104.540100</ele>
<time>2010-06-20T11:55:37Z</time>
<desc>lat.=56.096821, lon.=26.547543, Alt.=104.540100m. Speed=10.440000m/h.</desc>
<speed>2.900000</speed>
</trkpt>
<trkpt lat="56.096809" lon="26.547586">
<ele>104.528381</ele>
<time>2010-06-20T11:55:38Z</time>
<desc>lat.=56.096809, lon.=26.547586, Alt.=104.528381m. Speed=7.200000m/h.</desc>
<speed>2.000000</speed>
</trkpt>
<trkpt lat="56.096806" lon="26.547606">
<ele>104.290100</ele>
<time>2010-06-20T11:55:39Z</time>
<desc>lat.=56.096806, lon.=26.547606, Alt.=104.290100m. Speed=3.024000m/h.</desc>
<speed>0.840000</speed>
</trkpt>
<trkpt lat="56.096806" lon="26.547619">
<ele>104.073303</ele>
<time>2010-06-20T11:55:40Z</time>
<desc>lat.=56.096806, lon.=26.547619, Alt.=104.073303m. Speed=1.260000m/h.</desc>
<speed>0.350000</speed>
</trkpt>
<trkpt lat="56.096802" lon="26.547621">
<ele>103.776428</ele>
<time>2010-06-20T11:55:41Z</time>
<desc>lat.=56.096802, lon.=26.547621, Alt.=103.776428m. Speed=0.540000m/h.</desc>
<speed>0.150000</speed>
</trkpt>
<trkpt lat="56.096802" lon="26.547632">
<ele>103.551819</ele>
<time>2010-06-20T11:55:42Z</time>
<desc>lat.=56.096802, lon.=26.547632, Alt.=103.551819m. Speed=0.396000m/h.</desc>
<speed>0.110000</speed>
</trkpt>
<trkpt lat="56.096794" lon="26.547640">
<ele>103.467834</ele>
<time>2010-06-20T11:55:43Z</time>
<desc>lat.=56.096794, lon.=26.547640, Alt.=103.467834m. Speed=0.252000m/h.</desc>
<speed>0.070000</speed>
</trkpt>
<trkpt lat="56.096794" lon="26.547638">
<ele>103.885803</ele>
<time>2010-06-20T11:55:44Z</time>
<desc>lat.=56.096794, lon.=26.547638, Alt.=103.885803m. Speed=0.144000m/h.</desc>
<speed>0.040000</speed>
</trkpt>
<trkpt lat="56.096794" lon="26.547638">
<ele>103.815491</ele>
<time>2010-06-20T11:55:45Z</time>
<desc>lat.=56.096794, lon.=26.547638, Alt.=103.815491m. Speed=0.288000m/h.</desc>
<speed>0.080000</speed>
</trkpt>
<trkpt lat="56.096794" lon="26.547638">
<ele>103.762756</ele>
<time>2010-06-20T11:55:46Z</time>
<desc>lat.=56.096794, lon.=26.547638, Alt.=103.762756m. Speed=0.468000m/h.</desc>
<speed>0.130000</speed>
</trkpt>
<trkpt lat="56.096790" lon="26.547640">
<ele>103.721741</ele>
<time>2010-06-20T11:55:47Z</time>
<desc>lat.=56.096790, lon.=26.547640, Alt.=103.721741m. Speed=0.540000m/h.</desc>
<speed>0.150000</speed>
</trkpt>
<trkpt lat="56.096790" lon="26.547640">
<ele>103.688538</ele>
<time>2010-06-20T11:55:48Z</time>
<desc>lat.=56.096790, lon.=26.547640, Alt.=103.688538m. Speed=0.108000m/h.</desc>
<speed>0.030000</speed>
</trkpt>
<trkpt lat="56.096790" lon="26.547640">
<ele>103.665100</ele>
<time>2010-06-20T11:55:49Z</time>
<desc>lat.=56.096790, lon.=26.547640, Alt.=103.665100m. Speed=0.396000m/h.</desc>
<speed>0.110000</speed>
</trkpt>
<trkpt lat="56.096790" lon="26.547640">
<ele>103.639709</ele>
<time>2010-06-20T11:55:50Z</time>
<desc>lat.=56.096790, lon.=26.547640, Alt.=103.639709m. Speed=0.252000m/h.</desc>
<speed>0.070000</speed>
</trkpt>
<trkpt lat="56.096790" lon="26.547640">
<ele>103.620178</ele>
<time>2010-06-20T11:55:51Z</time>
<desc>lat.=56.096790, lon.=26.547640, Alt.=103.620178m. Speed=0.504000m/h.</desc>
<speed>0.140000</speed>
</trkpt>
<trkpt lat="56.096786" lon="26.547640">
<ele>103.608459</ele>
<time>2010-06-20T11:55:52Z</time>
<desc>lat.=56.096786, lon.=26.547640, Alt.=103.608459m. Speed=0.504000m/h.</desc>
<speed>0.140000</speed>
</trkpt>
<trkpt lat="56.096786" lon="26.547640">
<ele>103.600647</ele>
<time>2010-06-20T11:55:53Z</time>
<desc>lat.=56.096786, lon.=26.547640, Alt.=103.600647m. Speed=0.576000m/h.</desc>
<speed>0.160000</speed>
</trkpt>
<trkpt lat="56.096786" lon="26.547640">
<ele>103.598694</ele>
<time>2010-06-20T11:55:54Z</time>
<desc>lat.=56.096786, lon.=26.547640, Alt.=103.598694m. Speed=0.324000m/h.</desc>
<speed>0.090000</speed>
</trkpt>
<trkpt lat="56.096783" lon="26.547640">
<ele>103.596741</ele>
<time>2010-06-20T11:55:55Z</time>
<desc>lat.=56.096783, lon.=26.547640, Alt.=103.596741m. Speed=0.144000m/h.</desc>
<speed>0.040000</speed>
</trkpt>
<trkpt lat="56.096783" lon="26.547638">
<ele>103.594788</ele>
<time>2010-06-20T11:55:56Z</time>
<desc>lat.=56.096783, lon.=26.547638, Alt.=103.594788m. Speed=0.324000m/h.</desc>
<speed>0.090000</speed>
</trkpt>
<trkpt lat="56.096783" lon="26.547638">
<ele>103.594788</ele>
<time>2010-06-20T11:55:57Z</time>
<desc>lat.=56.096783, lon.=26.547638, Alt.=103.594788m. Speed=0.324000m/h.</desc>
<speed>0.090000</speed>
</trkpt>
<trkpt lat="56.096783" lon="26.547638">
<ele>103.596741</ele>
<time>2010-06-20T11:55:58Z</time>
<desc>lat.=56.096783, lon.=26.547638, Alt.=103.596741m. Speed=0.396000m/h.</desc>
<speed>0.110000</speed>
</trkpt>
<trkpt lat="56.096783" lon="26.547638">
<ele>103.596741</ele>
<time>2010-06-20T11:55:59Z</time>
<desc>lat.=56.096783, lon.=26.547638, Alt.=103.596741m. Speed=0.504000m/h.</desc>
<speed>0.140000</speed>
</trkpt>
<trkpt lat="56.096779" lon="26.547636">
<ele>103.596741</ele>
<time>2010-06-20T11:56:00Z</time>
<desc>lat.=56.096779, lon.=26.547636, Alt.=103.596741m. Speed=0.324000m/h.</desc>
<speed>0.090000</speed>
</trkpt>
<trkpt lat="56.096779" lon="26.547636">
<ele>103.596741</ele>
<time>2010-06-20T11:56:01Z</time>
<desc>lat.=56.096779, lon.=26.547636, Alt.=103.596741m. Speed=0.972000m/h.</desc>
<speed>0.270000</speed>
</trkpt>
<trkpt lat="56.096775" lon="26.547638">
<ele>103.600647</ele>
<time>2010-06-20T11:56:02Z</time>
<desc>lat.=56.096775, lon.=26.547638, Alt.=103.600647m. Speed=0.432000m/h.</desc>
<speed>0.120000</speed>
</trkpt>
<trkpt lat="56.096775" lon="26.547638">
<ele>103.602600</ele>
<time>2010-06-20T11:56:03Z</time>
<desc>lat.=56.096775, lon.=26.547638, Alt.=103.602600m. Speed=0.360000m/h.</desc>
<speed>0.100000</speed>
</trkpt>
<trkpt lat="56.096775" lon="26.547638">
<ele>103.604553</ele>
<time>2010-06-20T11:56:04Z</time>
<desc>lat.=56.096775, lon.=26.547638, Alt.=103.604553m. Speed=0.396000m/h.</desc>
<speed>0.110000</speed>
</trkpt>
<trkpt lat="56.096775" lon="26.547636">
<ele>103.604553</ele>
<time>2010-06-20T11:56:05Z</time>
<desc>lat.=56.096775, lon.=26.547636, Alt.=103.604553m. Speed=0.360000m/h.</desc>
<speed>0.100000</speed>
</trkpt>
<trkpt lat="56.096775" lon="26.547636">
<ele>103.606506</ele>
<time>2010-06-20T11:56:06Z</time>
<desc>lat.=56.096775, lon.=26.547636, Alt.=103.606506m. Speed=0.468000m/h.</desc>
<speed>0.130000</speed>
</trkpt>
<trkpt lat="56.096775" lon="26.547634">
<ele>103.606506</ele>
<time>2010-06-20T11:56:07Z</time>
<desc>lat.=56.096775, lon.=26.547634, Alt.=103.606506m. Speed=0.360000m/h.</desc>
<speed>0.100000</speed>
</trkpt>
<trkpt lat="56.096775" lon="26.547632">
<ele>103.608459</ele>
<time>2010-06-20T11:56:08Z</time>
<desc>lat.=56.096775, lon.=26.547632, Alt.=103.608459m. Speed=0.108000m/h.</desc>
<speed>0.030000</speed>
</trkpt>
<trkpt lat="56.096775" lon="26.547634">
<ele>103.608459</ele>
<time>2010-06-20T11:56:09Z</time>
<desc>lat.=56.096775, lon.=26.547634, Alt.=103.608459m. Speed=0.576000m/h.</desc>
<speed>0.160000</speed>
</trkpt>
<trkpt lat="56.096775" lon="26.547634">
<ele>103.606506</ele>
<time>2010-06-20T11:56:10Z</time>
<desc>lat.=56.096775, lon.=26.547634, Alt.=103.606506m. Speed=0.504000m/h.</desc>
<speed>0.140000</speed>
</trkpt>
<trkpt lat="56.096771" lon="26.547634">
<ele>103.604553</ele>
<time>2010-06-20T11:56:11Z</time>
<desc>lat.=56.096771, lon.=26.547634, Alt.=103.604553m. Speed=0.288000m/h.</desc>
<speed>0.080000</speed>
</trkpt>
<trkpt lat="56.096771" lon="26.547636">
<ele>103.604553</ele>
<time>2010-06-20T11:56:12Z</time>
<desc>lat.=56.096771, lon.=26.547636, Alt.=103.604553m. Speed=0.468000m/h.</desc>
<speed>0.130000</speed>
</trkpt>
<trkpt lat="56.096771" lon="26.547634">
<ele>103.604553</ele>
<time>2010-06-20T11:56:13Z</time>
<desc>lat.=56.096771, lon.=26.547634, Alt.=103.604553m. Speed=0.756000m/h.</desc>
<speed>0.210000</speed>
</trkpt>
<trkpt lat="56.096767" lon="26.547634">
<ele>103.604553</ele>
<time>2010-06-20T11:56:14Z</time>
<desc>lat.=56.096767, lon.=26.547634, Alt.=103.604553m. Speed=0.792000m/h.</desc>
<speed>0.220000</speed>
</trkpt>
<trkpt lat="56.096767" lon="26.547632">
<ele>103.606506</ele>
<time>2010-06-20T11:56:15Z</time>
<desc>lat.=56.096767, lon.=26.547632, Alt.=103.606506m. Speed=1.836000m/h.</desc>
<speed>0.510000</speed>
</trkpt>
<trkpt lat="56.096764" lon="26.547661">
<ele>103.483459</ele>
<time>2010-06-20T11:56:16Z</time>
<desc>lat.=56.096764, lon.=26.547661, Alt.=103.483459m. Speed=3.816000m/h.</desc>
<speed>1.060000</speed>
</trkpt>
<trkpt lat="56.096748" lon="26.547701">
<ele>103.803772</ele>
<time>2010-06-20T11:56:17Z</time>
<desc>lat.=56.096748, lon.=26.547701, Alt.=103.803772m. Speed=4.716000m/h.</desc>
<speed>1.310000</speed>
</trkpt>
<trkpt lat="56.096741" lon="26.547718">
<ele>103.881897</ele>
<time>2010-06-20T11:56:18Z</time>
<desc>lat.=56.096741, lon.=26.547718, Alt.=103.881897m. Speed=7.020000m/h.</desc>
<speed>1.950000</speed>
</trkpt>
<trkpt lat="56.096752" lon="26.547749">
<ele>103.518616</ele>
<time>2010-06-20T11:56:19Z</time>
<desc>lat.=56.096752, lon.=26.547749, Alt.=103.518616m. Speed=5.436000m/h.</desc>
<speed>1.510000</speed>
</trkpt>
<trkpt lat="56.096741" lon="26.547783">
<ele>103.588928</ele>
<time>2010-06-20T11:56:20Z</time>
<desc>lat.=56.096741, lon.=26.547783, Alt.=103.588928m. Speed=6.444000m/h.</desc>
<speed>1.790000</speed>
</trkpt>
<trkpt lat="56.096748" lon="26.547813">
<ele>103.258850</ele>
<time>2010-06-20T11:56:21Z</time>
<desc>lat.=56.096748, lon.=26.547813, Alt.=103.258850m. Speed=6.408000m/h.</desc>
<speed>1.780000</speed>
</trkpt>
<trkpt lat="56.096745" lon="26.547846">
<ele>103.280334</ele>
<time>2010-06-20T11:56:22Z</time>
<desc>lat.=56.096745, lon.=26.547846, Alt.=103.280334m. Speed=6.228000m/h.</desc>
<speed>1.730000</speed>
</trkpt>
<trkpt lat="56.096752" lon="26.547874">
<ele>103.012756</ele>
<time>2010-06-20T11:56:23Z</time>
<desc>lat.=56.096752, lon.=26.547874, Alt.=103.012756m. Speed=5.364000m/h.</desc>
<speed>1.490000</speed>
</trkpt>
<trkpt lat="56.096756" lon="26.547899">
<ele>102.831116</ele>
<time>2010-06-20T11:56:24Z</time>
<desc>lat.=56.096756, lon.=26.547899, Alt.=102.831116m. Speed=4.176000m/h.</desc>
<speed>1.160000</speed>
</trkpt>
<trkpt lat="56.096752" lon="26.547911">
<ele>102.795959</ele>
<time>2010-06-20T11:56:25Z</time>
<desc>lat.=56.096752, lon.=26.547911, Alt.=102.795959m. Speed=3.240000m/h.</desc>
<speed>0.900000</speed>
</trkpt>
<trkpt lat="56.096756" lon="26.547945">
<ele>102.848694</ele>
<time>2010-06-20T11:56:26Z</time>
<desc>lat.=56.096756, lon.=26.547945, Alt.=102.848694m. Speed=4.932000m/h.</desc>
<speed>1.370000</speed>
</trkpt>
<trkpt lat="56.096752" lon="26.547962">
<ele>102.926819</ele>
<time>2010-06-20T11:56:27Z</time>
<desc>lat.=56.096752, lon.=26.547962, Alt.=102.926819m. Speed=5.184000m/h.</desc>
<speed>1.440000</speed>
</trkpt>
<trkpt lat="56.096748" lon="26.547979">
<ele>103.284241</ele>
<time>2010-06-20T11:56:28Z</time>
<desc>lat.=56.096748, lon.=26.547979, Alt.=103.284241m. Speed=4.752000m/h.</desc>
<speed>1.320000</speed>
</trkpt>
<trkpt lat="56.096741" lon="26.548002">
<ele>103.348694</ele>
<time>2010-06-20T11:56:29Z</time>
<desc>lat.=56.096741, lon.=26.548002, Alt.=103.348694m. Speed=6.948000m/h.</desc>
<speed>1.930000</speed>
</trkpt>
<trkpt lat="56.096733" lon="26.548038">
<ele>103.317444</ele>
<time>2010-06-20T11:56:30Z</time>
<desc>lat.=56.096733, lon.=26.548038, Alt.=103.317444m. Speed=8.820000m/h.</desc>
<speed>2.450000</speed>
</trkpt>
<trkpt lat="56.096725" lon="26.548080">
<ele>103.297913</ele>
<time>2010-06-20T11:56:31Z</time>
<desc>lat.=56.096725, lon.=26.548080, Alt.=103.297913m. Speed=9.756000m/h.</desc>
<speed>2.710000</speed>
</trkpt>
<trkpt lat="56.096714" lon="26.548128">
<ele>103.270569</ele>
<time>2010-06-20T11:56:32Z</time>
<desc>lat.=56.096714, lon.=26.548128, Alt.=103.270569m. Speed=11.952000m/h.</desc>
<speed>3.320000</speed>
</trkpt>
<trkpt lat="56.096703" lon="26.548178">
<ele>103.280334</ele>
<time>2010-06-20T11:56:33Z</time>
<desc>lat.=56.096703, lon.=26.548178, Alt.=103.280334m. Speed=11.268000m/h.</desc>
<speed>3.130000</speed>
</trkpt>
<trkpt lat="56.096687" lon="26.548229">
<ele>103.264709</ele>
<time>2010-06-20T11:56:34Z</time>
<desc>lat.=56.096687, lon.=26.548229, Alt.=103.264709m. Speed=11.556000m/h.</desc>
<speed>3.210000</speed>
</trkpt>
<trkpt lat="56.096676" lon="26.548277">
<ele>103.417053</ele>
<time>2010-06-20T11:56:35Z</time>
<desc>lat.=56.096676, lon.=26.548277, Alt.=103.417053m. Speed=12.024000m/h.</desc>
<speed>3.340000</speed>
</trkpt>
<trkpt lat="56.096661" lon="26.548334">
<ele>103.463928</ele>
<time>2010-06-20T11:56:36Z</time>
<desc>lat.=56.096661, lon.=26.548334, Alt.=103.463928m. Speed=12.816000m/h.</desc>
<speed>3.560000</speed>
</trkpt>
<trkpt lat="56.096649" lon="26.548399">
<ele>103.569397</ele>
<time>2010-06-20T11:56:37Z</time>
<desc>lat.=56.096649, lon.=26.548399, Alt.=103.569397m. Speed=13.788000m/h.</desc>
<speed>3.830000</speed>
</trkpt>
<trkpt lat="56.096634" lon="26.548458">
<ele>103.743225</ele>
<time>2010-06-20T11:56:38Z</time>
<desc>lat.=56.096634, lon.=26.548458, Alt.=103.743225m. Speed=13.896000m/h.</desc>
<speed>3.860000</speed>
</trkpt>
<trkpt lat="56.096622" lon="26.548513">
<ele>103.823303</ele>
<time>2010-06-20T11:56:39Z</time>
<desc>lat.=56.096622, lon.=26.548513, Alt.=103.823303m. Speed=12.168000m/h.</desc>
<speed>3.380000</speed>
</trkpt>
<trkpt lat="56.096611" lon="26.548561">
<ele>104.362366</ele>
<time>2010-06-20T11:56:40Z</time>
<desc>lat.=56.096611, lon.=26.548561, Alt.=104.362366m. Speed=12.960000m/h.</desc>
<speed>3.600000</speed>
</trkpt>
<trkpt lat="56.096600" lon="26.548613">
<ele>106.116272</ele>
<time>2010-06-20T11:56:41Z</time>
<desc>lat.=56.096600, lon.=26.548613, Alt.=106.116272m. Speed=12.096000m/h.</desc>
<speed>3.360000</speed>
</trkpt>
<trkpt lat="56.096584" lon="26.548670">
<ele>107.524475</ele>
<time>2010-06-20T11:56:42Z</time>
<desc>lat.=56.096584, lon.=26.548670, Alt.=107.524475m. Speed=12.816000m/h.</desc>
<speed>3.560000</speed>
</trkpt>
<trkpt lat="56.096573" lon="26.548725">
<ele>107.249084</ele>
<time>2010-06-20T11:56:43Z</time>
<desc>lat.=56.096573, lon.=26.548725, Alt.=107.249084m. Speed=12.024000m/h.</desc>
<speed>3.340000</speed>
</trkpt>
<trkpt lat="56.096561" lon="26.548777">
<ele>106.735413</ele>
<time>2010-06-20T11:56:44Z</time>
<desc>lat.=56.096561, lon.=26.548777, Alt.=106.735413m. Speed=12.528000m/h.</desc>
<speed>3.480000</speed>
</trkpt>
<trkpt lat="56.096550" lon="26.548838">
<ele>106.944397</ele>
<time>2010-06-20T11:56:45Z</time>
<desc>lat.=56.096550, lon.=26.548838, Alt.=106.944397m. Speed=12.636000m/h.</desc>
<speed>3.510000</speed>
</trkpt>
<trkpt lat="56.096539" lon="26.548899">
<ele>107.127991</ele>
<time>2010-06-20T11:56:46Z</time>
<desc>lat.=56.096539, lon.=26.548899, Alt.=107.127991m. Speed=13.356000m/h.</desc>
<speed>3.710000</speed>
</trkpt>
<trkpt lat="56.096527" lon="26.548960">
<ele>107.022522</ele>
<time>2010-06-20T11:56:47Z</time>
<desc>lat.=56.096527, lon.=26.548960, Alt.=107.022522m. Speed=14.256000m/h.</desc>
<speed>3.960000</speed>
</trkpt>
<trkpt lat="56.096516" lon="26.549028">
<ele>107.120178</ele>
<time>2010-06-20T11:56:48Z</time>
<desc>lat.=56.096516, lon.=26.549028, Alt.=107.120178m. Speed=14.184000m/h.</desc>
<speed>3.940000</speed>
</trkpt>
<trkpt lat="56.096500" lon="26.549091">
<ele>107.354553</ele>
<time>2010-06-20T11:56:49Z</time>
<desc>lat.=56.096500, lon.=26.549091, Alt.=107.354553m. Speed=13.752000m/h.</desc>
<speed>3.820000</speed>
</trkpt>
<trkpt lat="56.096489" lon="26.549150">
<ele>107.577209</ele>
<time>2010-06-20T11:56:50Z</time>
<desc>lat.=56.096489, lon.=26.549150, Alt.=107.577209m. Speed=13.896000m/h.</desc>
<speed>3.860000</speed>
</trkpt>
<trkpt lat="56.096474" lon="26.549208">
<ele>106.700256</ele>
<time>2010-06-20T11:56:51Z</time>
<desc>lat.=56.096474, lon.=26.549208, Alt.=106.700256m. Speed=13.284000m/h.</desc>
<speed>3.690000</speed>
</trkpt>
<trkpt lat="56.096458" lon="26.549257">
<ele>106.194397</ele>
<time>2010-06-20T11:56:52Z</time>
<desc>lat.=56.096458, lon.=26.549257, Alt.=106.194397m. Speed=11.124000m/h.</desc>
<speed>3.090000</speed>
</trkpt>
<trkpt lat="56.096451" lon="26.549307">
<ele>105.711975</ele>
<time>2010-06-20T11:56:53Z</time>
<desc>lat.=56.096451, lon.=26.549307, Alt.=105.711975m. Speed=11.484000m/h.</desc>
<speed>3.190000</speed>
</trkpt>
<trkpt lat="56.096439" lon="26.549353">
<ele>105.571350</ele>
<time>2010-06-20T11:56:54Z</time>
<desc>lat.=56.096439, lon.=26.549353, Alt.=105.571350m. Speed=11.196000m/h.</desc>
<speed>3.110000</speed>
</trkpt>
<trkpt lat="56.096424" lon="26.549400">
<ele>105.299866</ele>
<time>2010-06-20T11:56:55Z</time>
<desc>lat.=56.096424, lon.=26.549400, Alt.=105.299866m. Speed=11.520000m/h.</desc>
<speed>3.200000</speed>
</trkpt>
<trkpt lat="56.096416" lon="26.549442">
<ele>104.946350</ele>
<time>2010-06-20T11:56:56Z</time>
<desc>lat.=56.096416, lon.=26.549442, Alt.=104.946350m. Speed=10.368000m/h.</desc>
<speed>2.880000</speed>
</trkpt>
<trkpt lat="56.096401" lon="26.549488">
<ele>104.143616</ele>
<time>2010-06-20T11:56:57Z</time>
<desc>lat.=56.096401, lon.=26.549488, Alt.=104.143616m. Speed=10.764000m/h.</desc>
<speed>2.990000</speed>
</trkpt>
<trkpt lat="56.096386" lon="26.549532">
<ele>103.688538</ele>
<time>2010-06-20T11:56:58Z</time>
<desc>lat.=56.096386, lon.=26.549532, Alt.=103.688538m. Speed=9.828000m/h.</desc>
<speed>2.730000</speed>
</trkpt>
<trkpt lat="56.096375" lon="26.549568">
<ele>103.221741</ele>
<time>2010-06-20T11:56:59Z</time>
<desc>lat.=56.096375, lon.=26.549568, Alt.=103.221741m. Speed=8.496000m/h.</desc>
<speed>2.360000</speed>
</trkpt>
<trkpt lat="56.096367" lon="26.549603">
<ele>102.749084</ele>
<time>2010-06-20T11:57:00Z</time>
<desc>lat.=56.096367, lon.=26.549603, Alt.=102.749084m. Speed=8.352000m/h.</desc>
<speed>2.320000</speed>
</trkpt>
<trkpt lat="56.096355" lon="26.549639">
<ele>102.708069</ele>
<time>2010-06-20T11:57:01Z</time>
<desc>lat.=56.096355, lon.=26.549639, Alt.=102.708069m. Speed=10.224000m/h.</desc>
<speed>2.840000</speed>
</trkpt>
<trkpt lat="56.096340" lon="26.549681">
<ele>102.657288</ele>
<time>2010-06-20T11:57:02Z</time>
<desc>lat.=56.096340, lon.=26.549681, Alt.=102.657288m. Speed=9.324000m/h.</desc>
<speed>2.590000</speed>
</trkpt>
<trkpt lat="56.096329" lon="26.549725">
<ele>102.422913</ele>
<time>2010-06-20T11:57:03Z</time>
<desc>lat.=56.096329, lon.=26.549725, Alt.=102.422913m. Speed=10.332000m/h.</desc>
<speed>2.870000</speed>
</trkpt>
<trkpt lat="56.096313" lon="26.549780">
<ele>101.745178</ele>
<time>2010-06-20T11:57:04Z</time>
<desc>lat.=56.096313, lon.=26.549780, Alt.=101.745178m. Speed=11.772000m/h.</desc>
<speed>3.270000</speed>
</trkpt>
<trkpt lat="56.096306" lon="26.549841">
<ele>101.512756</ele>
<time>2010-06-20T11:57:05Z</time>
<desc>lat.=56.096306, lon.=26.549841, Alt.=101.512756m. Speed=10.728000m/h.</desc>
<speed>2.980000</speed>
</trkpt>
<trkpt lat="56.096298" lon="26.549889">
<ele>101.385803</ele>
<time>2010-06-20T11:57:06Z</time>
<desc>lat.=56.096298, lon.=26.549889, Alt.=101.385803m. Speed=10.044000m/h.</desc>
<speed>2.790000</speed>
</trkpt>
<trkpt lat="56.096294" lon="26.549931">
<ele>101.092834</ele>
<time>2010-06-20T11:57:07Z</time>
<desc>lat.=56.096294, lon.=26.549931, Alt.=101.092834m. Speed=8.640000m/h.</desc>
<speed>2.400000</speed>
</trkpt>
<trkpt lat="56.096287" lon="26.549976">
<ele>99.631897</ele>
<time>2010-06-20T11:57:08Z</time>
<desc>lat.=56.096287, lon.=26.549976, Alt.=99.631897m. Speed=8.676000m/h.</desc>
<speed>2.410000</speed>
</trkpt>
<trkpt lat="56.096279" lon="26.550022">
<ele>99.149475</ele>
<time>2010-06-20T11:57:09Z</time>
<desc>lat.=56.096279, lon.=26.550022, Alt.=99.149475m. Speed=9.612000m/h.</desc>
<speed>2.670000</speed>
</trkpt>
<trkpt lat="56.096272" lon="26.550079">
<ele>98.592834</ele>
<time>2010-06-20T11:57:10Z</time>
<desc>lat.=56.096272, lon.=26.550079, Alt.=98.592834m. Speed=10.044000m/h.</desc>
<speed>2.790000</speed>
</trkpt>
<trkpt lat="56.096260" lon="26.550127">
<ele>98.506897</ele>
<time>2010-06-20T11:57:11Z</time>
<desc>lat.=56.096260, lon.=26.550127, Alt.=98.506897m. Speed=9.720000m/h.</desc>
<speed>2.700000</speed>
</trkpt>
<trkpt lat="56.096249" lon="26.550182">
<ele>98.610413</ele>
<time>2010-06-20T11:57:12Z</time>
<desc>lat.=56.096249, lon.=26.550182, Alt.=98.610413m. Speed=9.720000m/h.</desc>
<speed>2.700000</speed>
</trkpt>
<trkpt lat="56.096233" lon="26.550234">
<ele>98.930725</ele>
<time>2010-06-20T11:57:13Z</time>
<desc>lat.=56.096233, lon.=26.550234, Alt.=98.930725m. Speed=9.900000m/h.</desc>
<speed>2.750000</speed>
</trkpt>
<trkpt lat="56.096226" lon="26.550287">
<ele>98.737366</ele>
<time>2010-06-20T11:57:14Z</time>
<desc>lat.=56.096226, lon.=26.550287, Alt.=98.737366m. Speed=10.728000m/h.</desc>
<speed>2.980000</speed>
</trkpt>
<trkpt lat="56.096218" lon="26.550343">
<ele>98.520569</ele>
<time>2010-06-20T11:57:15Z</time>
<desc>lat.=56.096218, lon.=26.550343, Alt.=98.520569m. Speed=11.124000m/h.</desc>
<speed>3.090000</speed>
</trkpt>
<trkpt lat="56.096207" lon="26.550404">
<ele>98.508850</ele>
<time>2010-06-20T11:57:16Z</time>
<desc>lat.=56.096207, lon.=26.550404, Alt.=98.508850m. Speed=12.384000m/h.</desc>
<speed>3.440000</speed>
</trkpt>
<trkpt lat="56.096199" lon="26.550461">
<ele>98.231506</ele>
<time>2010-06-20T11:57:17Z</time>
<desc>lat.=56.096199, lon.=26.550461, Alt.=98.231506m. Speed=12.240000m/h.</desc>
<speed>3.400000</speed>
</trkpt>
<trkpt lat="56.096188" lon="26.550518">
<ele>98.331116</ele>
<time>2010-06-20T11:57:18Z</time>
<desc>lat.=56.096188, lon.=26.550518, Alt.=98.331116m. Speed=14.436000m/h.</desc>
<speed>4.010000</speed>
</trkpt>
<trkpt lat="56.096176" lon="26.550583">
<ele>98.452209</ele>
<time>2010-06-20T11:57:19Z</time>
<desc>lat.=56.096176, lon.=26.550583, Alt.=98.452209m. Speed=14.976000m/h.</desc>
<speed>4.160000</speed>
</trkpt>
<trkpt lat="56.096157" lon="26.550659">
<ele>99.135803</ele>
<time>2010-06-20T11:57:20Z</time>
<desc>lat.=56.096157, lon.=26.550659, Alt.=99.135803m. Speed=16.667999m/h.</desc>
<speed>4.630000</speed>
</trkpt>
<trkpt lat="56.096138" lon="26.550735">
<ele>99.276428</ele>
<time>2010-06-20T11:57:21Z</time>
<desc>lat.=56.096138, lon.=26.550735, Alt.=99.276428m. Speed=16.559999m/h.</desc>
<speed>4.600000</speed>
</trkpt>
<trkpt lat="56.096127" lon="26.550800">
<ele>99.276428</ele>
<time>2010-06-20T11:57:22Z</time>
<desc>lat.=56.096127, lon.=26.550800, Alt.=99.276428m. Speed=15.912000m/h.</desc>
<speed>4.420000</speed>
</trkpt>
<trkpt lat="56.096115" lon="26.550867">
<ele>99.428772</ele>
<time>2010-06-20T11:57:23Z</time>
<desc>lat.=56.096115, lon.=26.550867, Alt.=99.428772m. Speed=15.768000m/h.</desc>
<speed>4.380000</speed>
</trkpt>
<trkpt lat="56.096104" lon="26.550928">
<ele>99.670959</ele>
<time>2010-06-20T11:57:24Z</time>
<desc>lat.=56.096104, lon.=26.550928, Alt.=99.670959m. Speed=14.364000m/h.</desc>
<speed>3.990000</speed>
</trkpt>
<trkpt lat="56.096088" lon="26.551001">
<ele>99.213928</ele>
<time>2010-06-20T11:57:25Z</time>
<desc>lat.=56.096088, lon.=26.551001, Alt.=99.213928m. Speed=14.004000m/h.</desc>
<speed>3.890000</speed>
</trkpt>
<trkpt lat="56.096073" lon="26.551060">
<ele>99.022522</ele>
<time>2010-06-20T11:57:26Z</time>
<desc>lat.=56.096073, lon.=26.551060, Alt.=99.022522m. Speed=13.140000m/h.</desc>
<speed>3.650000</speed>
</trkpt>
<trkpt lat="56.096058" lon="26.551113">
<ele>98.524475</ele>
<time>2010-06-20T11:57:27Z</time>
<desc>lat.=56.096058, lon.=26.551113, Alt.=98.524475m. Speed=12.132000m/h.</desc>
<speed>3.370000</speed>
</trkpt>
<trkpt lat="56.096046" lon="26.551165">
<ele>98.266663</ele>
<time>2010-06-20T11:57:28Z</time>
<desc>lat.=56.096046, lon.=26.551165, Alt.=98.266663m. Speed=11.916000m/h.</desc>
<speed>3.310000</speed>
</trkpt>
<trkpt lat="56.096035" lon="26.551216">
<ele>97.862366</ele>
<time>2010-06-20T11:57:29Z</time>
<desc>lat.=56.096035, lon.=26.551216, Alt.=97.862366m. Speed=11.088000m/h.</desc>
<speed>3.080000</speed>
</trkpt>
<trkpt lat="56.096020" lon="26.551264">
<ele>98.186584</ele>
<time>2010-06-20T11:57:30Z</time>
<desc>lat.=56.096020, lon.=26.551264, Alt.=98.186584m. Speed=11.412000m/h.</desc>
<speed>3.170000</speed>
</trkpt>
<trkpt lat="56.096008" lon="26.551308">
<ele>98.499084</ele>
<time>2010-06-20T11:57:31Z</time>
<desc>lat.=56.096008, lon.=26.551308, Alt.=98.499084m. Speed=9.720000m/h.</desc>
<speed>2.700000</speed>
</trkpt>
<trkpt lat="56.096001" lon="26.551348">
<ele>98.463928</ele>
<time>2010-06-20T11:57:32Z</time>
<desc>lat.=56.096001, lon.=26.551348, Alt.=98.463928m. Speed=10.368000m/h.</desc>
<speed>2.880000</speed>
</trkpt>
<trkpt lat="56.095993" lon="26.551382">
<ele>98.569397</ele>
<time>2010-06-20T11:57:33Z</time>
<desc>lat.=56.095993, lon.=26.551382, Alt.=98.569397m. Speed=8.208000m/h.</desc>
<speed>2.280000</speed>
</trkpt>
<trkpt lat="56.095985" lon="26.551414">
<ele>98.522522</ele>
<time>2010-06-20T11:57:34Z</time>
<desc>lat.=56.095985, lon.=26.551414, Alt.=98.522522m. Speed=7.632000m/h.</desc>
<speed>2.120000</speed>
</trkpt>
<trkpt lat="56.095974" lon="26.551460">
<ele>98.635803</ele>
<time>2010-06-20T11:57:35Z</time>
<desc>lat.=56.095974, lon.=26.551460, Alt.=98.635803m. Speed=9.576000m/h.</desc>
<speed>2.660000</speed>
</trkpt>
<trkpt lat="56.095963" lon="26.551512">
<ele>98.633850</ele>
<time>2010-06-20T11:57:36Z</time>
<desc>lat.=56.095963, lon.=26.551512, Alt.=98.633850m. Speed=8.496000m/h.</desc>
<speed>2.360000</speed>
</trkpt>
<trkpt lat="56.095955" lon="26.551552">
<ele>98.448303</ele>
<time>2010-06-20T11:57:37Z</time>
<desc>lat.=56.095955, lon.=26.551552, Alt.=98.448303m. Speed=9.936000m/h.</desc>
<speed>2.760000</speed>
</trkpt>
<trkpt lat="56.095943" lon="26.551598">
<ele>98.442444</ele>
<time>2010-06-20T11:57:38Z</time>
<desc>lat.=56.095943, lon.=26.551598, Alt.=98.442444m. Speed=10.008000m/h.</desc>
<speed>2.780000</speed>
</trkpt>
<trkpt lat="56.095928" lon="26.551649">
<ele>98.317444</ele>
<time>2010-06-20T11:57:39Z</time>
<desc>lat.=56.095928, lon.=26.551649, Alt.=98.317444m. Speed=9.864000m/h.</desc>
<speed>2.740000</speed>
</trkpt>
<trkpt lat="56.095917" lon="26.551697">
<ele>98.569397</ele>
<time>2010-06-20T11:57:40Z</time>
<desc>lat.=56.095917, lon.=26.551697, Alt.=98.569397m. Speed=10.296000m/h.</desc>
<speed>2.860000</speed>
</trkpt>
<trkpt lat="56.095898" lon="26.551750">
<ele>98.850647</ele>
<time>2010-06-20T11:57:41Z</time>
<desc>lat.=56.095898, lon.=26.551750, Alt.=98.850647m. Speed=9.288000m/h.</desc>
<speed>2.580000</speed>
</trkpt>
<trkpt lat="56.095890" lon="26.551783">
<ele>98.520569</ele>
<time>2010-06-20T11:57:42Z</time>
<desc>lat.=56.095890, lon.=26.551783, Alt.=98.520569m. Speed=7.092000m/h.</desc>
<speed>1.970000</speed>
</trkpt>
<trkpt lat="56.095879" lon="26.551825">
<ele>98.563538</ele>
<time>2010-06-20T11:57:43Z</time>
<desc>lat.=56.095879, lon.=26.551825, Alt.=98.563538m. Speed=8.604000m/h.</desc>
<speed>2.390000</speed>
</trkpt>
<trkpt lat="56.095867" lon="26.551870">
<ele>98.268616</ele>
<time>2010-06-20T11:57:44Z</time>
<desc>lat.=56.095867, lon.=26.551870, Alt.=98.268616m. Speed=8.640000m/h.</desc>
<speed>2.400000</speed>
</trkpt>
<trkpt lat="56.095856" lon="26.551916">
<ele>97.952209</ele>
<time>2010-06-20T11:57:45Z</time>
<desc>lat.=56.095856, lon.=26.551916, Alt.=97.952209m. Speed=8.712000m/h.</desc>
<speed>2.420000</speed>
</trkpt>
<trkpt lat="56.095848" lon="26.551958">
<ele>97.669006</ele>
<time>2010-06-20T11:57:46Z</time>
<desc>lat.=56.095848, lon.=26.551958, Alt.=97.669006m. Speed=8.928000m/h.</desc>
<speed>2.480000</speed>
</trkpt>
<trkpt lat="56.095840" lon="26.552006">
<ele>97.799866</ele>
<time>2010-06-20T11:57:47Z</time>
<desc>lat.=56.095840, lon.=26.552006, Alt.=97.799866m. Speed=9.432000m/h.</desc>
<speed>2.620000</speed>
</trkpt>
<trkpt lat="56.095833" lon="26.552052">
<ele>97.993225</ele>
<time>2010-06-20T11:57:48Z</time>
<desc>lat.=56.095833, lon.=26.552052, Alt.=97.993225m. Speed=9.360000m/h.</desc>
<speed>2.600000</speed>
</trkpt>
<trkpt lat="56.095818" lon="26.552097">
<ele>98.188538</ele>
<time>2010-06-20T11:57:49Z</time>
<desc>lat.=56.095818, lon.=26.552097, Alt.=98.188538m. Speed=11.448000m/h.</desc>
<speed>3.180000</speed>
</trkpt>
<trkpt lat="56.095806" lon="26.552145">
<ele>98.604553</ele>
<time>2010-06-20T11:57:50Z</time>
<desc>lat.=56.095806, lon.=26.552145, Alt.=98.604553m. Speed=13.212000m/h.</desc>
<speed>3.670000</speed>
</trkpt>
<trkpt lat="56.095791" lon="26.552208">
<ele>99.419006</ele>
<time>2010-06-20T11:57:51Z</time>
<desc>lat.=56.095791, lon.=26.552208, Alt.=99.419006m. Speed=14.400000m/h.</desc>
<speed>4.000000</speed>
</trkpt>
<trkpt lat="56.095776" lon="26.552267">
<ele>100.690491</ele>
<time>2010-06-20T11:57:52Z</time>
<desc>lat.=56.095776, lon.=26.552267, Alt.=100.690491m. Speed=14.508000m/h.</desc>
<speed>4.030000</speed>
</trkpt>
<trkpt lat="56.095760" lon="26.552334">
<ele>101.114319</ele>
<time>2010-06-20T11:57:53Z</time>
<desc>lat.=56.095760, lon.=26.552334, Alt.=101.114319m. Speed=15.012000m/h.</desc>
<speed>4.170000</speed>
</trkpt>
<trkpt lat="56.095745" lon="26.552404">
<ele>101.522522</ele>
<time>2010-06-20T11:57:54Z</time>
<desc>lat.=56.095745, lon.=26.552404, Alt.=101.522522m. Speed=15.912000m/h.</desc>
<speed>4.420000</speed>
</trkpt>
<trkpt lat="56.095726" lon="26.552479">
<ele>101.551819</ele>
<time>2010-06-20T11:57:55Z</time>
<desc>lat.=56.095726, lon.=26.552479, Alt.=101.551819m. Speed=17.747999m/h.</desc>
<speed>4.930000</speed>
</trkpt>
<trkpt lat="56.095711" lon="26.552555">
<ele>102.090881</ele>
<time>2010-06-20T11:57:56Z</time>
<desc>lat.=56.095711, lon.=26.552555, Alt.=102.090881m. Speed=18.360001m/h.</desc>
<speed>5.100000</speed>
</trkpt>
<trkpt lat="56.095692" lon="26.552635">
<ele>102.811584</ele>
<time>2010-06-20T11:57:57Z</time>
<desc>lat.=56.095692, lon.=26.552635, Alt.=102.811584m. Speed=16.091999m/h.</desc>
<speed>4.470000</speed>
</trkpt>
<trkpt lat="56.095676" lon="26.552711">
<ele>102.987366</ele>
<time>2010-06-20T11:57:58Z</time>
<desc>lat.=56.095676, lon.=26.552711, Alt.=102.987366m. Speed=16.920000m/h.</desc>
<speed>4.700000</speed>
</trkpt>
<trkpt lat="56.095654" lon="26.552795">
<ele>104.167053</ele>
<time>2010-06-20T11:57:59Z</time>
<desc>lat.=56.095654, lon.=26.552795, Alt.=104.167053m. Speed=18.360001m/h.</desc>
<speed>5.100000</speed>
</trkpt>
<trkpt lat="56.095627" lon="26.552877">
<ele>104.251038</ele>
<time>2010-06-20T11:58:00Z</time>
<desc>lat.=56.095627, lon.=26.552877, Alt.=104.251038m. Speed=20.375999m/h.</desc>
<speed>5.660000</speed>
</trkpt>
<trkpt lat="56.095600" lon="26.552969">
<ele>104.620178</ele>
<time>2010-06-20T11:58:01Z</time>
<desc>lat.=56.095600, lon.=26.552969, Alt.=104.620178m. Speed=21.420000m/h.</desc>
<speed>5.950000</speed>
</trkpt>
<trkpt lat="56.095573" lon="26.553061">
<ele>104.928772</ele>
<time>2010-06-20T11:58:02Z</time>
<desc>lat.=56.095573, lon.=26.553061, Alt.=104.928772m. Speed=21.743999m/h.</desc>
<speed>6.040000</speed>
</trkpt>
<trkpt lat="56.095551" lon="26.553154">
<ele>105.008850</ele>
<time>2010-06-20T11:58:03Z</time>
<desc>lat.=56.095551, lon.=26.553154, Alt.=105.008850m. Speed=23.832001m/h.</desc>
<speed>6.620000</speed>
</trkpt>
<trkpt lat="56.095520" lon="26.553253">
<ele>104.958069</ele>
<time>2010-06-20T11:58:04Z</time>
<desc>lat.=56.095520, lon.=26.553253, Alt.=104.958069m. Speed=22.247999m/h.</desc>
<speed>6.180000</speed>
</trkpt>
<trkpt lat="56.095501" lon="26.553337">
<ele>104.725647</ele>
<time>2010-06-20T11:58:05Z</time>
<desc>lat.=56.095501, lon.=26.553337, Alt.=104.725647m. Speed=19.944000m/h.</desc>
<speed>5.540000</speed>
</trkpt>
<trkpt lat="56.095478" lon="26.553423">
<ele>104.911194</ele>
<time>2010-06-20T11:58:06Z</time>
<desc>lat.=56.095478, lon.=26.553423, Alt.=104.911194m. Speed=20.628000m/h.</desc>
<speed>5.730000</speed>
</trkpt>
<trkpt lat="56.095463" lon="26.553501">
<ele>105.469788</ele>
<time>2010-06-20T11:58:07Z</time>
<desc>lat.=56.095463, lon.=26.553501, Alt.=105.469788m. Speed=15.948000m/h.</desc>
<speed>4.430000</speed>
</trkpt>
<trkpt lat="56.095448" lon="26.553576">
<ele>105.542053</ele>
<time>2010-06-20T11:58:08Z</time>
<desc>lat.=56.095448, lon.=26.553576, Alt.=105.542053m. Speed=17.892000m/h.</desc>
<speed>4.970000</speed>
</trkpt>
<trkpt lat="56.095428" lon="26.553656">
<ele>105.510803</ele>
<time>2010-06-20T11:58:09Z</time>
<desc>lat.=56.095428, lon.=26.553656, Alt.=105.510803m. Speed=21.636000m/h.</desc>
<speed>6.010000</speed>
</trkpt>
<trkpt lat="56.095398" lon="26.553751">
<ele>105.483459</ele>
<time>2010-06-20T11:58:10Z</time>
<desc>lat.=56.095398, lon.=26.553751, Alt.=105.483459m. Speed=22.392000m/h.</desc>
<speed>6.220000</speed>
</trkpt>
<trkpt lat="56.095367" lon="26.553852">
<ele>105.641663</ele>
<time>2010-06-20T11:58:11Z</time>
<desc>lat.=56.095367, lon.=26.553852, Alt.=105.641663m. Speed=21.096001m/h.</desc>
<speed>5.860000</speed>
</trkpt>
<trkpt lat="56.095341" lon="26.553953">
<ele>105.547913</ele>
<time>2010-06-20T11:58:12Z</time>
<desc>lat.=56.095341, lon.=26.553953, Alt.=105.547913m. Speed=21.563999m/h.</desc>
<speed>5.990000</speed>
</trkpt>
<trkpt lat="56.095318" lon="26.554045">
<ele>105.450256</ele>
<time>2010-06-20T11:58:13Z</time>
<desc>lat.=56.095318, lon.=26.554045, Alt.=105.450256m. Speed=20.556000m/h.</desc>
<speed>5.710000</speed>
</trkpt>
<trkpt lat="56.095291" lon="26.554138">
<ele>105.055725</ele>
<time>2010-06-20T11:58:14Z</time>
<desc>lat.=56.095291, lon.=26.554138, Alt.=105.055725m. Speed=21.672001m/h.</desc>
<speed>6.020000</speed>
</trkpt>
<trkpt lat="56.095268" lon="26.554230">
<ele>104.989319</ele>
<time>2010-06-20T11:58:15Z</time>
<desc>lat.=56.095268, lon.=26.554230, Alt.=104.989319m. Speed=19.764000m/h.</desc>
<speed>5.490000</speed>
</trkpt>
<trkpt lat="56.095249" lon="26.554310">
<ele>104.764709</ele>
<time>2010-06-20T11:58:16Z</time>
<desc>lat.=56.095249, lon.=26.554310, Alt.=104.764709m. Speed=19.332001m/h.</desc>
<speed>5.370000</speed>
</trkpt>
<trkpt lat="56.095230" lon="26.554390">
<ele>104.530334</ele>
<time>2010-06-20T11:58:17Z</time>
<desc>lat.=56.095230, lon.=26.554390, Alt.=104.530334m. Speed=18.143999m/h.</desc>
<speed>5.040000</speed>
</trkpt>
<trkpt lat="56.095211" lon="26.554474">
<ele>104.124084</ele>
<time>2010-06-20T11:58:18Z</time>
<desc>lat.=56.095211, lon.=26.554474, Alt.=104.124084m. Speed=20.483999m/h.</desc>
<speed>5.690000</speed>
</trkpt>
<trkpt lat="56.095188" lon="26.554564">
<ele>103.860413</ele>
<time>2010-06-20T11:58:19Z</time>
<desc>lat.=56.095188, lon.=26.554564, Alt.=103.860413m. Speed=20.736000m/h.</desc>
<speed>5.760000</speed>
</trkpt>
<trkpt lat="56.095165" lon="26.554672">
<ele>102.684631</ele>
<time>2010-06-20T11:58:20Z</time>
<desc>lat.=56.095165, lon.=26.554672, Alt.=102.684631m. Speed=22.104000m/h.</desc>
<speed>6.140000</speed>
</trkpt>
<trkpt lat="56.095142" lon="26.554789">
<ele>101.907288</ele>
<time>2010-06-20T11:58:21Z</time>
<desc>lat.=56.095142, lon.=26.554789, Alt.=101.907288m. Speed=22.176001m/h.</desc>
<speed>6.160000</speed>
</trkpt>
<trkpt lat="56.095116" lon="26.554890">
<ele>101.745178</ele>
<time>2010-06-20T11:58:22Z</time>
<desc>lat.=56.095116, lon.=26.554890, Alt.=101.745178m. Speed=21.600000m/h.</desc>
<speed>6.000000</speed>
</trkpt>
<trkpt lat="56.095093" lon="26.554985">
<ele>101.463928</ele>
<time>2010-06-20T11:58:23Z</time>
<desc>lat.=56.095093, lon.=26.554985, Alt.=101.463928m. Speed=22.284000m/h.</desc>
<speed>6.190000</speed>
</trkpt>
<trkpt lat="56.095074" lon="26.555077">
<ele>101.377991</ele>
<time>2010-06-20T11:58:24Z</time>
<desc>lat.=56.095074, lon.=26.555077, Alt.=101.377991m. Speed=21.167999m/h.</desc>
<speed>5.880000</speed>
</trkpt>
<trkpt lat="56.095055" lon="26.555166">
<ele>101.194397</ele>
<time>2010-06-20T11:58:25Z</time>
<desc>lat.=56.095055, lon.=26.555166, Alt.=101.194397m. Speed=19.691999m/h.</desc>
<speed>5.470000</speed>
</trkpt>
<trkpt lat="56.095036" lon="26.555254">
<ele>100.891663</ele>
<time>2010-06-20T11:58:26Z</time>
<desc>lat.=56.095036, lon.=26.555254, Alt.=100.891663m. Speed=20.124001m/h.</desc>
<speed>5.590000</speed>
</trkpt>
<trkpt lat="56.095013" lon="26.555342">
<ele>100.762756</ele>
<time>2010-06-20T11:58:27Z</time>
<desc>lat.=56.095013, lon.=26.555342, Alt.=100.762756m. Speed=20.052000m/h.</desc>
<speed>5.570000</speed>
</trkpt>
<trkpt lat="56.094986" lon="26.555431">
<ele>100.481506</ele>
<time>2010-06-20T11:58:28Z</time>
<desc>lat.=56.094986, lon.=26.555431, Alt.=100.481506m. Speed=20.448000m/h.</desc>
<speed>5.680000</speed>
</trkpt>
<trkpt lat="56.094955" lon="26.555519">
<ele>100.270569</ele>
<time>2010-06-20T11:58:29Z</time>
<desc>lat.=56.094955, lon.=26.555519, Alt.=100.270569m. Speed=20.556000m/h.</desc>
<speed>5.710000</speed>
</trkpt>
<trkpt lat="56.094933" lon="26.555603">
<ele>100.114319</ele>
<time>2010-06-20T11:58:30Z</time>
<desc>lat.=56.094933, lon.=26.555603, Alt.=100.114319m. Speed=19.944000m/h.</desc>
<speed>5.540000</speed>
</trkpt>
<trkpt lat="56.094910" lon="26.555693">
<ele>100.174866</ele>
<time>2010-06-20T11:58:31Z</time>
<desc>lat.=56.094910, lon.=26.555693, Alt.=100.174866m. Speed=19.224001m/h.</desc>
<speed>5.340000</speed>
</trkpt>
<trkpt lat="56.094887" lon="26.555775">
<ele>100.575256</ele>
<time>2010-06-20T11:58:32Z</time>
<desc>lat.=56.094887, lon.=26.555775, Alt.=100.575256m. Speed=19.440001m/h.</desc>
<speed>5.400000</speed>
</trkpt>
<trkpt lat="56.094860" lon="26.555857">
<ele>100.454163</ele>
<time>2010-06-20T11:58:33Z</time>
<desc>lat.=56.094860, lon.=26.555857, Alt.=100.454163m. Speed=20.195999m/h.</desc>
<speed>5.610000</speed>
</trkpt>
<trkpt lat="56.094841" lon="26.555944">
<ele>100.053772</ele>
<time>2010-06-20T11:58:34Z</time>
<desc>lat.=56.094841, lon.=26.555944, Alt.=100.053772m. Speed=21.528000m/h.</desc>
<speed>5.980000</speed>
</trkpt>
<trkpt lat="56.094818" lon="26.556034">
<ele>100.008850</ele>
<time>2010-06-20T11:58:35Z</time>
<desc>lat.=56.094818, lon.=26.556034, Alt.=100.008850m. Speed=23.256001m/h.</desc>
<speed>6.460000</speed>
</trkpt>
<trkpt lat="56.094791" lon="26.556129">
<ele>99.835022</ele>
<time>2010-06-20T11:58:36Z</time>
<desc>lat.=56.094791, lon.=26.556129, Alt.=99.835022m. Speed=22.212000m/h.</desc>
<speed>6.170000</speed>
</trkpt>
<trkpt lat="56.094765" lon="26.556229">
<ele>99.852600</ele>
<time>2010-06-20T11:58:37Z</time>
<desc>lat.=56.094765, lon.=26.556229, Alt.=99.852600m. Speed=22.860001m/h.</desc>
<speed>6.350000</speed>
</trkpt>
<trkpt lat="56.094742" lon="26.556322">
<ele>99.690491</ele>
<time>2010-06-20T11:58:38Z</time>
<desc>lat.=56.094742, lon.=26.556322, Alt.=99.690491m. Speed=22.572001m/h.</desc>
<speed>6.270000</speed>
</trkpt>
<trkpt lat="56.094719" lon="26.556417">
<ele>99.669006</ele>
<time>2010-06-20T11:58:39Z</time>
<desc>lat.=56.094719, lon.=26.556417, Alt.=99.669006m. Speed=22.931999m/h.</desc>
<speed>6.370000</speed>
</trkpt>
<trkpt lat="56.094700" lon="26.556511">
<ele>99.614319</ele>
<time>2010-06-20T11:58:40Z</time>
<desc>lat.=56.094700, lon.=26.556511, Alt.=99.614319m. Speed=21.743999m/h.</desc>
<speed>6.040000</speed>
</trkpt>
<trkpt lat="56.094677" lon="26.556604">
<ele>99.491272</ele>
<time>2010-06-20T11:58:41Z</time>
<desc>lat.=56.094677, lon.=26.556604, Alt.=99.491272m. Speed=22.104000m/h.</desc>
<speed>6.140000</speed>
</trkpt>
<trkpt lat="56.094650" lon="26.556694">
<ele>99.608459</ele>
<time>2010-06-20T11:58:42Z</time>
<desc>lat.=56.094650, lon.=26.556694, Alt.=99.608459m. Speed=22.788000m/h.</desc>
<speed>6.330000</speed>
</trkpt>
<trkpt lat="56.094620" lon="26.556791">
<ele>99.510803</ele>
<time>2010-06-20T11:58:43Z</time>
<desc>lat.=56.094620, lon.=26.556791, Alt.=99.510803m. Speed=23.219999m/h.</desc>
<speed>6.450000</speed>
</trkpt>
<trkpt lat="56.094593" lon="26.556892">
<ele>99.157288</ele>
<time>2010-06-20T11:58:44Z</time>
<desc>lat.=56.094593, lon.=26.556892, Alt.=99.157288m. Speed=23.940001m/h.</desc>
<speed>6.650000</speed>
</trkpt>
<trkpt lat="56.094563" lon="26.556986">
<ele>99.229553</ele>
<time>2010-06-20T11:58:45Z</time>
<desc>lat.=56.094563, lon.=26.556986, Alt.=99.229553m. Speed=23.652000m/h.</desc>
<speed>6.570000</speed>
</trkpt>
<trkpt lat="56.094532" lon="26.557081">
<ele>99.202209</ele>
<time>2010-06-20T11:58:46Z</time>
<desc>lat.=56.094532, lon.=26.557081, Alt.=99.202209m. Speed=22.788000m/h.</desc>
<speed>6.330000</speed>
</trkpt>
<trkpt lat="56.094509" lon="26.557177">
<ele>99.256897</ele>
<time>2010-06-20T11:58:47Z</time>
<desc>lat.=56.094509, lon.=26.557177, Alt.=99.256897m. Speed=23.184000m/h.</desc>
<speed>6.440000</speed>
</trkpt>
<trkpt lat="56.094482" lon="26.557268">
<ele>99.399475</ele>
<time>2010-06-20T11:58:48Z</time>
<desc>lat.=56.094482, lon.=26.557268, Alt.=99.399475m. Speed=22.427999m/h.</desc>
<speed>6.230000</speed>
</trkpt>
<trkpt lat="56.094456" lon="26.557360">
<ele>99.420959</ele>
<time>2010-06-20T11:58:49Z</time>
<desc>lat.=56.094456, lon.=26.557360, Alt.=99.420959m. Speed=22.535999m/h.</desc>
<speed>6.260000</speed>
</trkpt>
<trkpt lat="56.094433" lon="26.557449">
<ele>99.801819</ele>
<time>2010-06-20T11:58:50Z</time>
<desc>lat.=56.094433, lon.=26.557449, Alt.=99.801819m. Speed=22.572001m/h.</desc>
<speed>6.270000</speed>
</trkpt>
<trkpt lat="56.094410" lon="26.557545">
<ele>100.120178</ele>
<time>2010-06-20T11:58:51Z</time>
<desc>lat.=56.094410, lon.=26.557545, Alt.=100.120178m. Speed=22.427999m/h.</desc>
<speed>6.230000</speed>
</trkpt>
<trkpt lat="56.094387" lon="26.557638">
<ele>100.323303</ele>
<time>2010-06-20T11:58:52Z</time>
<desc>lat.=56.094387, lon.=26.557638, Alt.=100.323303m. Speed=22.139999m/h.</desc>
<speed>6.150000</speed>
</trkpt>
<trkpt lat="56.094364" lon="26.557724">
<ele>100.417053</ele>
<time>2010-06-20T11:58:53Z</time>
<desc>lat.=56.094364, lon.=26.557724, Alt.=100.417053m. Speed=21.492001m/h.</desc>
<speed>5.970000</speed>
</trkpt>
<trkpt lat="56.094337" lon="26.557812">
<ele>100.561584</ele>
<time>2010-06-20T11:58:54Z</time>
<desc>lat.=56.094337, lon.=26.557812, Alt.=100.561584m. Speed=21.672001m/h.</desc>
<speed>6.020000</speed>
</trkpt>
<trkpt lat="56.094315" lon="26.557903">
<ele>100.772522</ele>
<time>2010-06-20T11:58:55Z</time>
<desc>lat.=56.094315, lon.=26.557903, Alt.=100.772522m. Speed=22.284000m/h.</desc>
<speed>6.190000</speed>
</trkpt>
<trkpt lat="56.094292" lon="26.557999">
<ele>101.319397</ele>
<time>2010-06-20T11:58:56Z</time>
<desc>lat.=56.094292, lon.=26.557999, Alt.=101.319397m. Speed=23.615999m/h.</desc>
<speed>6.560000</speed>
</trkpt>
<trkpt lat="56.094265" lon="26.558096">
<ele>101.344788</ele>
<time>2010-06-20T11:58:57Z</time>
<desc>lat.=56.094265, lon.=26.558096, Alt.=101.344788m. Speed=24.948000m/h.</desc>
<speed>6.930000</speed>
</trkpt>
<trkpt lat="56.094238" lon="26.558195">
<ele>100.172913</ele>
<time>2010-06-20T11:58:58Z</time>
<desc>lat.=56.094238, lon.=26.558195, Alt.=100.172913m. Speed=24.660000m/h.</desc>
<speed>6.850000</speed>
</trkpt>
<trkpt lat="56.094212" lon="26.558292">
<ele>100.239319</ele>
<time>2010-06-20T11:58:59Z</time>
<desc>lat.=56.094212, lon.=26.558292, Alt.=100.239319m. Speed=24.156000m/h.</desc>
<speed>6.710000</speed>
</trkpt>
<trkpt lat="56.094189" lon="26.558382">
<ele>100.290100</ele>
<time>2010-06-20T11:59:00Z</time>
<desc>lat.=56.094189, lon.=26.558382, Alt.=100.290100m. Speed=23.472000m/h.</desc>
<speed>6.520000</speed>
</trkpt>
<trkpt lat="56.094166" lon="26.558475">
<ele>100.284241</ele>
<time>2010-06-20T11:59:01Z</time>
<desc>lat.=56.094166, lon.=26.558475, Alt.=100.284241m. Speed=23.004000m/h.</desc>
<speed>6.390000</speed>
</trkpt>
<trkpt lat="56.094143" lon="26.558571">
<ele>100.217834</ele>
<time>2010-06-20T11:59:02Z</time>
<desc>lat.=56.094143, lon.=26.558571, Alt.=100.217834m. Speed=24.299999m/h.</desc>
<speed>6.750000</speed>
</trkpt>
<trkpt lat="56.094116" lon="26.558672">
<ele>100.465881</ele>
<time>2010-06-20T11:59:03Z</time>
<desc>lat.=56.094116, lon.=26.558672, Alt.=100.465881m. Speed=24.695999m/h.</desc>
<speed>6.860000</speed>
</trkpt>
<trkpt lat="56.094086" lon="26.558773">
<ele>101.870178</ele>
<time>2010-06-20T11:59:04Z</time>
<desc>lat.=56.094086, lon.=26.558773, Alt.=101.870178m. Speed=24.264000m/h.</desc>
<speed>6.740000</speed>
</trkpt>
<trkpt lat="56.094059" lon="26.558867">
<ele>100.981506</ele>
<time>2010-06-20T11:59:05Z</time>
<desc>lat.=56.094059, lon.=26.558867, Alt.=100.981506m. Speed=23.868000m/h.</desc>
<speed>6.630000</speed>
</trkpt>
<trkpt lat="56.094032" lon="26.558958">
<ele>100.139709</ele>
<time>2010-06-20T11:59:06Z</time>
<desc>lat.=56.094032, lon.=26.558958, Alt.=100.139709m. Speed=23.472000m/h.</desc>
<speed>6.520000</speed>
</trkpt>
<trkpt lat="56.094002" lon="26.559050">
<ele>100.149475</ele>
<time>2010-06-20T11:59:07Z</time>
<desc>lat.=56.094002, lon.=26.559050, Alt.=100.149475m. Speed=22.896000m/h.</desc>
<speed>6.360000</speed>
</trkpt>
<trkpt lat="56.093975" lon="26.559139">
<ele>100.137756</ele>
<time>2010-06-20T11:59:08Z</time>
<desc>lat.=56.093975, lon.=26.559139, Alt.=100.137756m. Speed=22.643999m/h.</desc>
<speed>6.290000</speed>
</trkpt>
<trkpt lat="56.093952" lon="26.559227">
<ele>100.012756</ele>
<time>2010-06-20T11:59:09Z</time>
<desc>lat.=56.093952, lon.=26.559227, Alt.=100.012756m. Speed=22.104000m/h.</desc>
<speed>6.140000</speed>
</trkpt>
<trkpt lat="56.093925" lon="26.559317">
<ele>100.225647</ele>
<time>2010-06-20T11:59:10Z</time>
<desc>lat.=56.093925, lon.=26.559317, Alt.=100.225647m. Speed=22.392000m/h.</desc>
<speed>6.220000</speed>
</trkpt>
<trkpt lat="56.093899" lon="26.559406">
<ele>100.129944</ele>
<time>2010-06-20T11:59:11Z</time>
<desc>lat.=56.093899, lon.=26.559406, Alt.=100.129944m. Speed=23.364000m/h.</desc>
<speed>6.490000</speed>
</trkpt>
<trkpt lat="56.093872" lon="26.559502">
<ele>100.417053</ele>
<time>2010-06-20T11:59:12Z</time>
<desc>lat.=56.093872, lon.=26.559502, Alt.=100.417053m. Speed=23.327999m/h.</desc>
<speed>6.480000</speed>
</trkpt>
<trkpt lat="56.093845" lon="26.559593">
<ele>100.118225</ele>
<time>2010-06-20T11:59:13Z</time>
<desc>lat.=56.093845, lon.=26.559593, Alt.=100.118225m. Speed=22.896000m/h.</desc>
<speed>6.360000</speed>
</trkpt>
<trkpt lat="56.093819" lon="26.559685">
<ele>102.477600</ele>
<time>2010-06-20T11:59:14Z</time>
<desc>lat.=56.093819, lon.=26.559685, Alt.=102.477600m. Speed=23.112000m/h.</desc>
<speed>6.420000</speed>
</trkpt>
<trkpt lat="56.093796" lon="26.559774">
<ele>102.842834</ele>
<time>2010-06-20T11:59:15Z</time>
<desc>lat.=56.093796, lon.=26.559774, Alt.=102.842834m. Speed=22.535999m/h.</desc>
<speed>6.260000</speed>
</trkpt>
<trkpt lat="56.093769" lon="26.559864">
<ele>103.186584</ele>
<time>2010-06-20T11:59:16Z</time>
<desc>lat.=56.093769, lon.=26.559864, Alt.=103.186584m. Speed=23.472000m/h.</desc>
<speed>6.520000</speed>
</trkpt>
<trkpt lat="56.093742" lon="26.559959">
<ele>103.489319</ele>
<time>2010-06-20T11:59:17Z</time>
<desc>lat.=56.093742, lon.=26.559959, Alt.=103.489319m. Speed=24.948000m/h.</desc>
<speed>6.930000</speed>
</trkpt>
<trkpt lat="56.093716" lon="26.560059">
<ele>103.903381</ele>
<time>2010-06-20T11:59:18Z</time>
<desc>lat.=56.093716, lon.=26.560059, Alt.=103.903381m. Speed=24.587999m/h.</desc>
<speed>6.830000</speed>
</trkpt>
<trkpt lat="56.093689" lon="26.560156">
<ele>102.928772</ele>
<time>2010-06-20T11:59:19Z</time>
<desc>lat.=56.093689, lon.=26.560156, Alt.=102.928772m. Speed=24.156000m/h.</desc>
<speed>6.710000</speed>
</trkpt>
<trkpt lat="56.093662" lon="26.560249">
<ele>102.264709</ele>
<time>2010-06-20T11:59:20Z</time>
<desc>lat.=56.093662, lon.=26.560249, Alt.=102.264709m. Speed=23.832001m/h.</desc>
<speed>6.620000</speed>
</trkpt>
<trkpt lat="56.093636" lon="26.560343">
<ele>102.502991</ele>
<time>2010-06-20T11:59:21Z</time>
<desc>lat.=56.093636, lon.=26.560343, Alt.=102.502991m. Speed=23.472000m/h.</desc>
<speed>6.520000</speed>
</trkpt>
<trkpt lat="56.093609" lon="26.560436">
<ele>102.038147</ele>
<time>2010-06-20T11:59:22Z</time>
<desc>lat.=56.093609, lon.=26.560436, Alt.=102.038147m. Speed=22.968000m/h.</desc>
<speed>6.380000</speed>
</trkpt>
<trkpt lat="56.093582" lon="26.560530">
<ele>102.670959</ele>
<time>2010-06-20T11:59:23Z</time>
<desc>lat.=56.093582, lon.=26.560530, Alt.=102.670959m. Speed=22.716000m/h.</desc>
<speed>6.310000</speed>
</trkpt>
<trkpt lat="56.093555" lon="26.560619">
<ele>102.059631</ele>
<time>2010-06-20T11:59:24Z</time>
<desc>lat.=56.093555, lon.=26.560619, Alt.=102.059631m. Speed=23.219999m/h.</desc>
<speed>6.450000</speed>
</trkpt>
<trkpt lat="56.093529" lon="26.560711">
<ele>101.958069</ele>
<time>2010-06-20T11:59:25Z</time>
<desc>lat.=56.093529, lon.=26.560711, Alt.=101.958069m. Speed=24.120001m/h.</desc>
<speed>6.700000</speed>
</trkpt>
<trkpt lat="56.093502" lon="26.560806">
<ele>102.079163</ele>
<time>2010-06-20T11:59:26Z</time>
<desc>lat.=56.093502, lon.=26.560806, Alt.=102.079163m. Speed=24.552000m/h.</desc>
<speed>6.820000</speed>
</trkpt>
<trkpt lat="56.093475" lon="26.560904">
<ele>101.719788</ele>
<time>2010-06-20T11:59:27Z</time>
<desc>lat.=56.093475, lon.=26.560904, Alt.=101.719788m. Speed=24.480000m/h.</desc>
<speed>6.800000</speed>
</trkpt>
<trkpt lat="56.093449" lon="26.560999">
<ele>101.469788</ele>
<time>2010-06-20T11:59:28Z</time>
<desc>lat.=56.093449, lon.=26.560999, Alt.=101.469788m. Speed=23.400000m/h.</desc>
<speed>6.500000</speed>
</trkpt>
<trkpt lat="56.093418" lon="26.561089">
<ele>101.469788</ele>
<time>2010-06-20T11:59:29Z</time>
<desc>lat.=56.093418, lon.=26.561089, Alt.=101.469788m. Speed=22.752001m/h.</desc>
<speed>6.320000</speed>
</trkpt>
<trkpt lat="56.093395" lon="26.561182">
<ele>101.370178</ele>
<time>2010-06-20T11:59:30Z</time>
<desc>lat.=56.093395, lon.=26.561182, Alt.=101.370178m. Speed=22.104000m/h.</desc>
<speed>6.140000</speed>
</trkpt>
<trkpt lat="56.093369" lon="26.561272">
<ele>101.266663</ele>
<time>2010-06-20T11:59:31Z</time>
<desc>lat.=56.093369, lon.=26.561272, Alt.=101.266663m. Speed=21.708000m/h.</desc>
<speed>6.030000</speed>
</trkpt>
<trkpt lat="56.093342" lon="26.561361">
<ele>101.782288</ele>
<time>2010-06-20T11:59:32Z</time>
<desc>lat.=56.093342, lon.=26.561361, Alt.=101.782288m. Speed=22.139999m/h.</desc>
<speed>6.150000</speed>
</trkpt>
<trkpt lat="56.093315" lon="26.561451">
<ele>101.752991</ele>
<time>2010-06-20T11:59:33Z</time>
<desc>lat.=56.093315, lon.=26.561451, Alt.=101.752991m. Speed=23.219999m/h.</desc>
<speed>6.450000</speed>
</trkpt>
<trkpt lat="56.093292" lon="26.561541">
<ele>101.411194</ele>
<time>2010-06-20T11:59:34Z</time>
<desc>lat.=56.093292, lon.=26.561541, Alt.=101.411194m. Speed=22.752001m/h.</desc>
<speed>6.320000</speed>
</trkpt>
<trkpt lat="56.093269" lon="26.561634">
<ele>101.135803</ele>
<time>2010-06-20T11:59:35Z</time>
<desc>lat.=56.093269, lon.=26.561634, Alt.=101.135803m. Speed=22.320000m/h.</desc>
<speed>6.200000</speed>
</trkpt>
<trkpt lat="56.093246" lon="26.561722">
<ele>100.924866</ele>
<time>2010-06-20T11:59:36Z</time>
<desc>lat.=56.093246, lon.=26.561722, Alt.=100.924866m. Speed=22.032000m/h.</desc>
<speed>6.120000</speed>
</trkpt>
<trkpt lat="56.093220" lon="26.561813">
<ele>100.219788</ele>
<time>2010-06-20T11:59:37Z</time>
<desc>lat.=56.093220, lon.=26.561813, Alt.=100.219788m. Speed=21.996000m/h.</desc>
<speed>6.110000</speed>
</trkpt>
<trkpt lat="56.093193" lon="26.561899">
<ele>99.522522</ele>
<time>2010-06-20T11:59:38Z</time>
<desc>lat.=56.093193, lon.=26.561899, Alt.=99.522522m. Speed=21.672001m/h.</desc>
<speed>6.020000</speed>
</trkpt>
<trkpt lat="56.093166" lon="26.561987">
<ele>99.131897</ele>
<time>2010-06-20T11:59:39Z</time>
<desc>lat.=56.093166, lon.=26.561987, Alt.=99.131897m. Speed=22.427999m/h.</desc>
<speed>6.230000</speed>
</trkpt>
<trkpt lat="56.093140" lon="26.562078">
<ele>98.813538</ele>
<time>2010-06-20T11:59:40Z</time>
<desc>lat.=56.093140, lon.=26.562078, Alt.=98.813538m. Speed=24.011999m/h.</desc>
<speed>6.670000</speed>
</trkpt>
<trkpt lat="56.093113" lon="26.562180">
<ele>98.362366</ele>
<time>2010-06-20T11:59:41Z</time>
<desc>lat.=56.093113, lon.=26.562180, Alt.=98.362366m. Speed=25.704000m/h.</desc>
<speed>7.140000</speed>
</trkpt>
<trkpt lat="56.093082" lon="26.562283">
<ele>97.879944</ele>
<time>2010-06-20T11:59:42Z</time>
<desc>lat.=56.093082, lon.=26.562283, Alt.=97.879944m. Speed=26.351999m/h.</desc>
<speed>7.320000</speed>
</trkpt>
<trkpt lat="56.093056" lon="26.562389">
<ele>97.993225</ele>
<time>2010-06-20T11:59:43Z</time>
<desc>lat.=56.093056, lon.=26.562389, Alt.=97.993225m. Speed=26.028000m/h.</desc>
<speed>7.230000</speed>
</trkpt>
<trkpt lat="56.093021" lon="26.562494">
<ele>98.085022</ele>
<time>2010-06-20T11:59:44Z</time>
<desc>lat.=56.093021, lon.=26.562494, Alt.=98.085022m. Speed=25.775999m/h.</desc>
<speed>7.160000</speed>
</trkpt>
<trkpt lat="56.092991" lon="26.562593">
<ele>98.028381</ele>
<time>2010-06-20T11:59:45Z</time>
<desc>lat.=56.092991, lon.=26.562593, Alt.=98.028381m. Speed=25.164000m/h.</desc>
<speed>6.990000</speed>
</trkpt>
<trkpt lat="56.092964" lon="26.562693">
<ele>97.942444</ele>
<time>2010-06-20T11:59:46Z</time>
<desc>lat.=56.092964, lon.=26.562693, Alt.=97.942444m. Speed=25.164000m/h.</desc>
<speed>6.990000</speed>
</trkpt>
<trkpt lat="56.092937" lon="26.562792">
<ele>97.670959</ele>
<time>2010-06-20T11:59:47Z</time>
<desc>lat.=56.092937, lon.=26.562792, Alt.=97.670959m. Speed=24.983999m/h.</desc>
<speed>6.940000</speed>
</trkpt>
<trkpt lat="56.092907" lon="26.562893">
<ele>97.854553</ele>
<time>2010-06-20T11:59:48Z</time>
<desc>lat.=56.092907, lon.=26.562893, Alt.=97.854553m. Speed=24.804001m/h.</desc>
<speed>6.890000</speed>
</trkpt>
<trkpt lat="56.092880" lon="26.562992">
<ele>97.788147</ele>
<time>2010-06-20T11:59:49Z</time>
<desc>lat.=56.092880, lon.=26.562992, Alt.=97.788147m. Speed=24.587999m/h.</desc>
<speed>6.830000</speed>
</trkpt>
<trkpt lat="56.092854" lon="26.563087">
<ele>97.772522</ele>
<time>2010-06-20T11:59:50Z</time>
<desc>lat.=56.092854, lon.=26.563087, Alt.=97.772522m. Speed=24.408001m/h.</desc>
<speed>6.780000</speed>
</trkpt>
<trkpt lat="56.092827" lon="26.563181">
<ele>96.350647</ele>
<time>2010-06-20T11:59:51Z</time>
<desc>lat.=56.092827, lon.=26.563181, Alt.=96.350647m. Speed=24.084000m/h.</desc>
<speed>6.690000</speed>
</trkpt>
<trkpt lat="56.092800" lon="26.563271">
<ele>95.514709</ele>
<time>2010-06-20T11:59:52Z</time>
<desc>lat.=56.092800, lon.=26.563271, Alt.=95.514709m. Speed=23.652000m/h.</desc>
<speed>6.570000</speed>
</trkpt>
<trkpt lat="56.092777" lon="26.563362">
<ele>97.354553</ele>
<time>2010-06-20T11:59:53Z</time>
<desc>lat.=56.092777, lon.=26.563362, Alt.=97.354553m. Speed=23.436001m/h.</desc>
<speed>6.510000</speed>
</trkpt>
<trkpt lat="56.092751" lon="26.563456">
<ele>97.239319</ele>
<time>2010-06-20T11:59:54Z</time>
<desc>lat.=56.092751, lon.=26.563456, Alt.=97.239319m. Speed=23.615999m/h.</desc>
<speed>6.560000</speed>
</trkpt>
<trkpt lat="56.092728" lon="26.563547">
<ele>97.155334</ele>
<time>2010-06-20T11:59:55Z</time>
<desc>lat.=56.092728, lon.=26.563547, Alt.=97.155334m. Speed=23.292000m/h.</desc>
<speed>6.470000</speed>
</trkpt>
<trkpt lat="56.092701" lon="26.563639">
<ele>96.768616</ele>
<time>2010-06-20T11:59:56Z</time>
<desc>lat.=56.092701, lon.=26.563639, Alt.=96.768616m. Speed=22.931999m/h.</desc>
<speed>6.370000</speed>
</trkpt>
<trkpt lat="56.092670" lon="26.563732">
<ele>97.036194</ele>
<time>2010-06-20T11:59:57Z</time>
<desc>lat.=56.092670, lon.=26.563732, Alt.=97.036194m. Speed=24.120001m/h.</desc>
<speed>6.700000</speed>
</trkpt>
<trkpt lat="56.092644" lon="26.563824">
<ele>97.135803</ele>
<time>2010-06-20T11:59:58Z</time>
<desc>lat.=56.092644, lon.=26.563824, Alt.=97.135803m. Speed=24.156000m/h.</desc>
<speed>6.710000</speed>
</trkpt>
<trkpt lat="56.092617" lon="26.563917">
<ele>96.717834</ele>
<time>2010-06-20T11:59:59Z</time>
<desc>lat.=56.092617, lon.=26.563917, Alt.=96.717834m. Speed=23.615999m/h.</desc>
<speed>6.560000</speed>
</trkpt>
<trkpt lat="56.092587" lon="26.564009">
<ele>96.395569</ele>
<time>2010-06-20T12:00:00Z</time>
<desc>lat.=56.092587, lon.=26.564009, Alt.=96.395569m. Speed=23.688000m/h.</desc>
<speed>6.580000</speed>
</trkpt>
<trkpt lat="56.092564" lon="26.564104">
<ele>96.290100</ele>
<time>2010-06-20T12:00:01Z</time>
<desc>lat.=56.092564, lon.=26.564104, Alt.=96.290100m. Speed=23.112000m/h.</desc>
<speed>6.420000</speed>
</trkpt>
<trkpt lat="56.092537" lon="26.564201">
<ele>96.887756</ele>
<time>2010-06-20T12:00:02Z</time>
<desc>lat.=56.092537, lon.=26.564201, Alt.=96.887756m. Speed=22.535999m/h.</desc>
<speed>6.260000</speed>
</trkpt>
<trkpt lat="56.092510" lon="26.564291">
<ele>96.842834</ele>
<time>2010-06-20T12:00:03Z</time>
<desc>lat.=56.092510, lon.=26.564291, Alt.=96.842834m. Speed=22.823999m/h.</desc>
<speed>6.340000</speed>
</trkpt>
<trkpt lat="56.092487" lon="26.564383">
<ele>96.817444</ele>
<time>2010-06-20T12:00:04Z</time>
<desc>lat.=56.092487, lon.=26.564383, Alt.=96.817444m. Speed=22.320000m/h.</desc>
<speed>6.200000</speed>
</trkpt>
<trkpt lat="56.092461" lon="26.564474">
<ele>97.354553</ele>
<time>2010-06-20T12:00:05Z</time>
<desc>lat.=56.092461, lon.=26.564474, Alt.=97.354553m. Speed=22.464001m/h.</desc>
<speed>6.240000</speed>
</trkpt>
<trkpt lat="56.092434" lon="26.564562">
<ele>98.333069</ele>
<time>2010-06-20T12:00:06Z</time>
<desc>lat.=56.092434, lon.=26.564562, Alt.=98.333069m. Speed=23.400000m/h.</desc>
<speed>6.500000</speed>
</trkpt>
<trkpt lat="56.092403" lon="26.564657">
<ele>98.176819</ele>
<time>2010-06-20T12:00:07Z</time>
<desc>lat.=56.092403, lon.=26.564657, Alt.=98.176819m. Speed=24.228001m/h.</desc>
<speed>6.730000</speed>
</trkpt>
<trkpt lat="56.092377" lon="26.564753">
<ele>98.700256</ele>
<time>2010-06-20T12:00:08Z</time>
<desc>lat.=56.092377, lon.=26.564753, Alt.=98.700256m. Speed=23.796000m/h.</desc>
<speed>6.610000</speed>
</trkpt>
<trkpt lat="56.092346" lon="26.564848">
<ele>98.842834</ele>
<time>2010-06-20T12:00:09Z</time>
<desc>lat.=56.092346, lon.=26.564848, Alt.=98.842834m. Speed=23.688000m/h.</desc>
<speed>6.580000</speed>
</trkpt>
<trkpt lat="56.092319" lon="26.564943">
<ele>99.141663</ele>
<time>2010-06-20T12:00:10Z</time>
<desc>lat.=56.092319, lon.=26.564943, Alt.=99.141663m. Speed=23.580000m/h.</desc>
<speed>6.550000</speed>
</trkpt>
<trkpt lat="56.092297" lon="26.565041">
<ele>99.114319</ele>
<time>2010-06-20T12:00:11Z</time>
<desc>lat.=56.092297, lon.=26.565041, Alt.=99.114319m. Speed=23.472000m/h.</desc>
<speed>6.520000</speed>
</trkpt>
<trkpt lat="56.092270" lon="26.565138">
<ele>98.973694</ele>
<time>2010-06-20T12:00:12Z</time>
<desc>lat.=56.092270, lon.=26.565138, Alt.=98.973694m. Speed=24.372000m/h.</desc>
<speed>6.770000</speed>
</trkpt>
<trkpt lat="56.092243" lon="26.565235">
<ele>98.741272</ele>
<time>2010-06-20T12:00:13Z</time>
<desc>lat.=56.092243, lon.=26.565235, Alt.=98.741272m. Speed=24.695999m/h.</desc>
<speed>6.860000</speed>
</trkpt>
<trkpt lat="56.092216" lon="26.565331">
<ele>98.643616</ele>
<time>2010-06-20T12:00:14Z</time>
<desc>lat.=56.092216, lon.=26.565331, Alt.=98.643616m. Speed=24.587999m/h.</desc>
<speed>6.830000</speed>
</trkpt>
<trkpt lat="56.092186" lon="26.565428">
<ele>98.708069</ele>
<time>2010-06-20T12:00:15Z</time>
<desc>lat.=56.092186, lon.=26.565428, Alt.=98.708069m. Speed=24.480000m/h.</desc>
<speed>6.800000</speed>
</trkpt>
<trkpt lat="56.092159" lon="26.565527">
<ele>98.579163</ele>
<time>2010-06-20T12:00:16Z</time>
<desc>lat.=56.092159, lon.=26.565527, Alt.=98.579163m. Speed=24.228001m/h.</desc>
<speed>6.730000</speed>
</trkpt>
<trkpt lat="56.092133" lon="26.565620">
<ele>98.510803</ele>
<time>2010-06-20T12:00:17Z</time>
<desc>lat.=56.092133, lon.=26.565620, Alt.=98.510803m. Speed=24.120001m/h.</desc>
<speed>6.700000</speed>
</trkpt>
<trkpt lat="56.092106" lon="26.565714">
<ele>98.415100</ele>
<time>2010-06-20T12:00:18Z</time>
<desc>lat.=56.092106, lon.=26.565714, Alt.=98.415100m. Speed=24.011999m/h.</desc>
<speed>6.670000</speed>
</trkpt>
<trkpt lat="56.092083" lon="26.565807">
<ele>98.108459</ele>
<time>2010-06-20T12:00:19Z</time>
<desc>lat.=56.092083, lon.=26.565807, Alt.=98.108459m. Speed=22.104000m/h.</desc>
<speed>6.140000</speed>
</trkpt>
<trkpt lat="56.092056" lon="26.565901">
<ele>98.254944</ele>
<time>2010-06-20T12:00:20Z</time>
<desc>lat.=56.092056, lon.=26.565901, Alt.=98.254944m. Speed=23.436001m/h.</desc>
<speed>6.510000</speed>
</trkpt>
<trkpt lat="56.092026" lon="26.565990">
<ele>97.872131</ele>
<time>2010-06-20T12:00:21Z</time>
<desc>lat.=56.092026, lon.=26.565990, Alt.=97.872131m. Speed=22.968000m/h.</desc>
<speed>6.380000</speed>
</trkpt>
<trkpt lat="56.091999" lon="26.566090">
<ele>98.364319</ele>
<time>2010-06-20T12:00:22Z</time>
<desc>lat.=56.091999, lon.=26.566090, Alt.=98.364319m. Speed=24.084000m/h.</desc>
<speed>6.690000</speed>
</trkpt>
<trkpt lat="56.091976" lon="26.566191">
<ele>98.784241</ele>
<time>2010-06-20T12:00:23Z</time>
<desc>lat.=56.091976, lon.=26.566191, Alt.=98.784241m. Speed=22.823999m/h.</desc>
<speed>6.340000</speed>
</trkpt>
<trkpt lat="56.091946" lon="26.566280">
<ele>98.743225</ele>
<time>2010-06-20T12:00:24Z</time>
<desc>lat.=56.091946, lon.=26.566280, Alt.=98.743225m. Speed=24.228001m/h.</desc>
<speed>6.730000</speed>
</trkpt>
<trkpt lat="56.091915" lon="26.566374">
<ele>98.784241</ele>
<time>2010-06-20T12:00:25Z</time>
<desc>lat.=56.091915, lon.=26.566374, Alt.=98.784241m. Speed=24.048000m/h.</desc>
<speed>6.680000</speed>
</trkpt>
<trkpt lat="56.091885" lon="26.566467">
<ele>98.372131</ele>
<time>2010-06-20T12:00:26Z</time>
<desc>lat.=56.091885, lon.=26.566467, Alt.=98.372131m. Speed=23.688000m/h.</desc>
<speed>6.580000</speed>
</trkpt>
<trkpt lat="56.091858" lon="26.566561">
<ele>98.305725</ele>
<time>2010-06-20T12:00:27Z</time>
<desc>lat.=56.091858, lon.=26.566561, Alt.=98.305725m. Speed=24.228001m/h.</desc>
<speed>6.730000</speed>
</trkpt>
<trkpt lat="56.091831" lon="26.566664">
<ele>98.346741</ele>
<time>2010-06-20T12:00:28Z</time>
<desc>lat.=56.091831, lon.=26.566664, Alt.=98.346741m. Speed=23.184000m/h.</desc>
<speed>6.440000</speed>
</trkpt>
<trkpt lat="56.091805" lon="26.566759">
<ele>97.973694</ele>
<time>2010-06-20T12:00:29Z</time>
<desc>lat.=56.091805, lon.=26.566759, Alt.=97.973694m. Speed=22.968000m/h.</desc>
<speed>6.380000</speed>
</trkpt>
<trkpt lat="56.091778" lon="26.566853">
<ele>97.719788</ele>
<time>2010-06-20T12:00:30Z</time>
<desc>lat.=56.091778, lon.=26.566853, Alt.=97.719788m. Speed=22.823999m/h.</desc>
<speed>6.340000</speed>
</trkpt>
<trkpt lat="56.091755" lon="26.566940">
<ele>97.614319</ele>
<time>2010-06-20T12:00:31Z</time>
<desc>lat.=56.091755, lon.=26.566940, Alt.=97.614319m. Speed=22.104000m/h.</desc>
<speed>6.140000</speed>
</trkpt>
<trkpt lat="56.091728" lon="26.567028">
<ele>97.083069</ele>
<time>2010-06-20T12:00:32Z</time>
<desc>lat.=56.091728, lon.=26.567028, Alt.=97.083069m. Speed=22.968000m/h.</desc>
<speed>6.380000</speed>
</trkpt>
<trkpt lat="56.091702" lon="26.567118">
<ele>96.585022</ele>
<time>2010-06-20T12:00:33Z</time>
<desc>lat.=56.091702, lon.=26.567118, Alt.=96.585022m. Speed=22.320000m/h.</desc>
<speed>6.200000</speed>
</trkpt>
<trkpt lat="56.091675" lon="26.567207">
<ele>96.397522</ele>
<time>2010-06-20T12:00:34Z</time>
<desc>lat.=56.091675, lon.=26.567207, Alt.=96.397522m. Speed=21.672001m/h.</desc>
<speed>6.020000</speed>
</trkpt>
<trkpt lat="56.091652" lon="26.567295">
<ele>96.350647</ele>
<time>2010-06-20T12:00:35Z</time>
<desc>lat.=56.091652, lon.=26.567295, Alt.=96.350647m. Speed=21.851999m/h.</desc>
<speed>6.070000</speed>
</trkpt>
<trkpt lat="56.091629" lon="26.567385">
<ele>96.551819</ele>
<time>2010-06-20T12:00:36Z</time>
<desc>lat.=56.091629, lon.=26.567385, Alt.=96.551819m. Speed=20.844000m/h.</desc>
<speed>5.790000</speed>
</trkpt>
<trkpt lat="56.091606" lon="26.567465">
<ele>96.442444</ele>
<time>2010-06-20T12:00:37Z</time>
<desc>lat.=56.091606, lon.=26.567465, Alt.=96.442444m. Speed=20.160000m/h.</desc>
<speed>5.600000</speed>
</trkpt>
<trkpt lat="56.091587" lon="26.567547">
<ele>96.194397</ele>
<time>2010-06-20T12:00:38Z</time>
<desc>lat.=56.091587, lon.=26.567547, Alt.=96.194397m. Speed=20.195999m/h.</desc>
<speed>5.610000</speed>
</trkpt>
<trkpt lat="56.091564" lon="26.567627">
<ele>95.620178</ele>
<time>2010-06-20T12:00:39Z</time>
<desc>lat.=56.091564, lon.=26.567627, Alt.=95.620178m. Speed=20.195999m/h.</desc>
<speed>5.610000</speed>
</trkpt>
<trkpt lat="56.091537" lon="26.567719">
<ele>95.176819</ele>
<time>2010-06-20T12:00:40Z</time>
<desc>lat.=56.091537, lon.=26.567719, Alt.=95.176819m. Speed=20.844000m/h.</desc>
<speed>5.790000</speed>
</trkpt>
<trkpt lat="56.091515" lon="26.567808">
<ele>95.061584</ele>
<time>2010-06-20T12:00:41Z</time>
<desc>lat.=56.091515, lon.=26.567808, Alt.=95.061584m. Speed=21.563999m/h.</desc>
<speed>5.990000</speed>
</trkpt>
<trkpt lat="56.091492" lon="26.567898">
<ele>95.024475</ele>
<time>2010-06-20T12:00:42Z</time>
<desc>lat.=56.091492, lon.=26.567898, Alt.=95.024475m. Speed=21.455999m/h.</desc>
<speed>5.960000</speed>
</trkpt>
<trkpt lat="56.091469" lon="26.567986">
<ele>94.815491</ele>
<time>2010-06-20T12:00:43Z</time>
<desc>lat.=56.091469, lon.=26.567986, Alt.=94.815491m. Speed=20.556000m/h.</desc>
<speed>5.710000</speed>
</trkpt>
<trkpt lat="56.091446" lon="26.568062">
<ele>94.778381</ele>
<time>2010-06-20T12:00:44Z</time>
<desc>lat.=56.091446, lon.=26.568062, Alt.=94.778381m. Speed=18.612000m/h.</desc>
<speed>5.170000</speed>
</trkpt>
<trkpt lat="56.091431" lon="26.568132">
<ele>95.237366</ele>
<time>2010-06-20T12:00:45Z</time>
<desc>lat.=56.091431, lon.=26.568132, Alt.=95.237366m. Speed=17.927999m/h.</desc>
<speed>4.980000</speed>
</trkpt>
<trkpt lat="56.091412" lon="26.568201">
<ele>95.282288</ele>
<time>2010-06-20T12:00:46Z</time>
<desc>lat.=56.091412, lon.=26.568201, Alt.=95.282288m. Speed=16.559999m/h.</desc>
<speed>4.600000</speed>
</trkpt>
<trkpt lat="56.091396" lon="26.568272">
<ele>95.477600</ele>
<time>2010-06-20T12:00:47Z</time>
<desc>lat.=56.091396, lon.=26.568272, Alt.=95.477600m. Speed=16.704000m/h.</desc>
<speed>4.640000</speed>
</trkpt>
<trkpt lat="56.091381" lon="26.568340">
<ele>95.643616</ele>
<time>2010-06-20T12:00:48Z</time>
<desc>lat.=56.091381, lon.=26.568340, Alt.=95.643616m. Speed=17.856001m/h.</desc>
<speed>4.960000</speed>
</trkpt>
<trkpt lat="56.091358" lon="26.568413">
<ele>96.014709</ele>
<time>2010-06-20T12:00:49Z</time>
<desc>lat.=56.091358, lon.=26.568413, Alt.=96.014709m. Speed=18.936001m/h.</desc>
<speed>5.260000</speed>
</trkpt>
<trkpt lat="56.091331" lon="26.568487">
<ele>96.696350</ele>
<time>2010-06-20T12:00:50Z</time>
<desc>lat.=56.091331, lon.=26.568487, Alt.=96.696350m. Speed=19.908001m/h.</desc>
<speed>5.530000</speed>
</trkpt>
<trkpt lat="56.091312" lon="26.568569">
<ele>97.077209</ele>
<time>2010-06-20T12:00:51Z</time>
<desc>lat.=56.091312, lon.=26.568569, Alt.=97.077209m. Speed=19.476000m/h.</desc>
<speed>5.410000</speed>
</trkpt>
<trkpt lat="56.091290" lon="26.568651">
<ele>97.090881</ele>
<time>2010-06-20T12:00:52Z</time>
<desc>lat.=56.091290, lon.=26.568651, Alt.=97.090881m. Speed=19.080000m/h.</desc>
<speed>5.300000</speed>
</trkpt>
<trkpt lat="56.091267" lon="26.568731">
<ele>97.397522</ele>
<time>2010-06-20T12:00:53Z</time>
<desc>lat.=56.091267, lon.=26.568731, Alt.=97.397522m. Speed=19.548000m/h.</desc>
<speed>5.430000</speed>
</trkpt>
<trkpt lat="56.091244" lon="26.568810">
<ele>97.610413</ele>
<time>2010-06-20T12:00:54Z</time>
<desc>lat.=56.091244, lon.=26.568810, Alt.=97.610413m. Speed=20.160000m/h.</desc>
<speed>5.600000</speed>
</trkpt>
<trkpt lat="56.091217" lon="26.568892">
<ele>97.116272</ele>
<time>2010-06-20T12:00:55Z</time>
<desc>lat.=56.091217, lon.=26.568892, Alt.=97.116272m. Speed=20.304001m/h.</desc>
<speed>5.640000</speed>
</trkpt>
<trkpt lat="56.091198" lon="26.568970">
<ele>96.643616</ele>
<time>2010-06-20T12:00:56Z</time>
<desc>lat.=56.091198, lon.=26.568970, Alt.=96.643616m. Speed=19.115999m/h.</desc>
<speed>5.310000</speed>
</trkpt>
<trkpt lat="56.091179" lon="26.569042">
<ele>96.044006</ele>
<time>2010-06-20T12:00:57Z</time>
<desc>lat.=56.091179, lon.=26.569042, Alt.=96.044006m. Speed=18.648001m/h.</desc>
<speed>5.180000</speed>
</trkpt>
<trkpt lat="56.091156" lon="26.569117">
<ele>95.752991</ele>
<time>2010-06-20T12:00:58Z</time>
<desc>lat.=56.091156, lon.=26.569117, Alt.=95.752991m. Speed=18.936001m/h.</desc>
<speed>5.260000</speed>
</trkpt>
<trkpt lat="56.091133" lon="26.569193">
<ele>95.252991</ele>
<time>2010-06-20T12:00:59Z</time>
<desc>lat.=56.091133, lon.=26.569193, Alt.=95.252991m. Speed=20.232000m/h.</desc>
<speed>5.620000</speed>
</trkpt>
<trkpt lat="56.091110" lon="26.569277">
<ele>95.106506</ele>
<time>2010-06-20T12:01:00Z</time>
<desc>lat.=56.091110, lon.=26.569277, Alt.=95.106506m. Speed=19.584000m/h.</desc>
<speed>5.440000</speed>
</trkpt>
<trkpt lat="56.091087" lon="26.569355">
<ele>94.805725</ele>
<time>2010-06-20T12:01:01Z</time>
<desc>lat.=56.091087, lon.=26.569355, Alt.=94.805725m. Speed=19.007999m/h.</desc>
<speed>5.280000</speed>
</trkpt>
<trkpt lat="56.091068" lon="26.569431">
<ele>94.006897</ele>
<time>2010-06-20T12:01:02Z</time>
<desc>lat.=56.091068, lon.=26.569431, Alt.=94.006897m. Speed=18.576000m/h.</desc>
<speed>5.160000</speed>
</trkpt>
<trkpt lat="56.091042" lon="26.569510">
<ele>93.862366</ele>
<time>2010-06-20T12:01:03Z</time>
<desc>lat.=56.091042, lon.=26.569510, Alt.=93.862366m. Speed=18.756001m/h.</desc>
<speed>5.210000</speed>
</trkpt>
<trkpt lat="56.091019" lon="26.569588">
<ele>94.061584</ele>
<time>2010-06-20T12:01:04Z</time>
<desc>lat.=56.091019, lon.=26.569588, Alt.=94.061584m. Speed=18.936001m/h.</desc>
<speed>5.260000</speed>
</trkpt>
<trkpt lat="56.090996" lon="26.569666">
<ele>94.506897</ele>
<time>2010-06-20T12:01:05Z</time>
<desc>lat.=56.090996, lon.=26.569666, Alt.=94.506897m. Speed=19.908001m/h.</desc>
<speed>5.530000</speed>
</trkpt>
<trkpt lat="56.090969" lon="26.569748">
<ele>94.549866</ele>
<time>2010-06-20T12:01:06Z</time>
<desc>lat.=56.090969, lon.=26.569748, Alt.=94.549866m. Speed=19.368000m/h.</desc>
<speed>5.380000</speed>
</trkpt>
<trkpt lat="56.090946" lon="26.569826">
<ele>94.338928</ele>
<time>2010-06-20T12:01:07Z</time>
<desc>lat.=56.090946, lon.=26.569826, Alt.=94.338928m. Speed=18.648001m/h.</desc>
<speed>5.180000</speed>
</trkpt>
<trkpt lat="56.090927" lon="26.569899">
<ele>94.426819</ele>
<time>2010-06-20T12:01:08Z</time>
<desc>lat.=56.090927, lon.=26.569899, Alt.=94.426819m. Speed=17.964001m/h.</desc>
<speed>4.990000</speed>
</trkpt>
<trkpt lat="56.090904" lon="26.569969">
<ele>94.274475</ele>
<time>2010-06-20T12:01:09Z</time>
<desc>lat.=56.090904, lon.=26.569969, Alt.=94.274475m. Speed=16.848000m/h.</desc>
<speed>4.680000</speed>
</trkpt>
<trkpt lat="56.090881" lon="26.570038">
<ele>93.708069</ele>
<time>2010-06-20T12:01:10Z</time>
<desc>lat.=56.090881, lon.=26.570038, Alt.=93.708069m. Speed=15.840000m/h.</desc>
<speed>4.400000</speed>
</trkpt>
<trkpt lat="56.090862" lon="26.570093">
<ele>93.307678</ele>
<time>2010-06-20T12:01:11Z</time>
<desc>lat.=56.090862, lon.=26.570093, Alt.=93.307678m. Speed=14.616000m/h.</desc>
<speed>4.060000</speed>
</trkpt>
<trkpt lat="56.090847" lon="26.570150">
<ele>93.001038</ele>
<time>2010-06-20T12:01:12Z</time>
<desc>lat.=56.090847, lon.=26.570150, Alt.=93.001038m. Speed=13.284000m/h.</desc>
<speed>3.690000</speed>
</trkpt>
<trkpt lat="56.090828" lon="26.570202">
<ele>93.004944</ele>
<time>2010-06-20T12:01:13Z</time>
<desc>lat.=56.090828, lon.=26.570202, Alt.=93.004944m. Speed=12.528000m/h.</desc>
<speed>3.480000</speed>
</trkpt>
<trkpt lat="56.090813" lon="26.570251">
<ele>93.366272</ele>
<time>2010-06-20T12:01:14Z</time>
<desc>lat.=56.090813, lon.=26.570251, Alt.=93.366272m. Speed=11.520000m/h.</desc>
<speed>3.200000</speed>
</trkpt>
<trkpt lat="56.090801" lon="26.570293">
<ele>93.526428</ele>
<time>2010-06-20T12:01:15Z</time>
<desc>lat.=56.090801, lon.=26.570293, Alt.=93.526428m. Speed=10.728000m/h.</desc>
<speed>2.980000</speed>
</trkpt>
<trkpt lat="56.090790" lon="26.570333">
<ele>93.463928</ele>
<time>2010-06-20T12:01:16Z</time>
<desc>lat.=56.090790, lon.=26.570333, Alt.=93.463928m. Speed=10.152000m/h.</desc>
<speed>2.820000</speed>
</trkpt>
<trkpt lat="56.090775" lon="26.570364">
<ele>91.868225</ele>
<time>2010-06-20T12:01:17Z</time>
<desc>lat.=56.090775, lon.=26.570364, Alt.=91.868225m. Speed=9.792000m/h.</desc>
<speed>2.720000</speed>
</trkpt>
<trkpt lat="56.090763" lon="26.570402">
<ele>91.458069</ele>
<time>2010-06-20T12:01:18Z</time>
<desc>lat.=56.090763, lon.=26.570402, Alt.=91.458069m. Speed=9.216000m/h.</desc>
<speed>2.560000</speed>
</trkpt>
<trkpt lat="56.090752" lon="26.570438">
<ele>90.831116</ele>
<time>2010-06-20T12:01:19Z</time>
<desc>lat.=56.090752, lon.=26.570438, Alt.=90.831116m. Speed=8.460000m/h.</desc>
<speed>2.350000</speed>
</trkpt>
<trkpt lat="56.090744" lon="26.570475">
<ele>90.885803</ele>
<time>2010-06-20T12:01:20Z</time>
<desc>lat.=56.090744, lon.=26.570475, Alt.=90.885803m. Speed=9.612000m/h.</desc>
<speed>2.670000</speed>
</trkpt>
<trkpt lat="56.090733" lon="26.570522">
<ele>91.147522</ele>
<time>2010-06-20T12:01:21Z</time>
<desc>lat.=56.090733, lon.=26.570522, Alt.=91.147522m. Speed=11.628000m/h.</desc>
<speed>3.230000</speed>
</trkpt>
<trkpt lat="56.090717" lon="26.570568">
<ele>91.184631</ele>
<time>2010-06-20T12:01:22Z</time>
<desc>lat.=56.090717, lon.=26.570568, Alt.=91.184631m. Speed=10.656000m/h.</desc>
<speed>2.960000</speed>
</trkpt>
<trkpt lat="56.090702" lon="26.570610">
<ele>91.376038</ele>
<time>2010-06-20T12:01:23Z</time>
<desc>lat.=56.090702, lon.=26.570610, Alt.=91.376038m. Speed=12.492000m/h.</desc>
<speed>3.470000</speed>
</trkpt>
<trkpt lat="56.090683" lon="26.570656">
<ele>91.389709</ele>
<time>2010-06-20T12:01:24Z</time>
<desc>lat.=56.090683, lon.=26.570656, Alt.=91.389709m. Speed=13.392000m/h.</desc>
<speed>3.720000</speed>
</trkpt>
<trkpt lat="56.090668" lon="26.570713">
<ele>91.284241</ele>
<time>2010-06-20T12:01:25Z</time>
<desc>lat.=56.090668, lon.=26.570713, Alt.=91.284241m. Speed=14.616000m/h.</desc>
<speed>4.060000</speed>
</trkpt>
<trkpt lat="56.090649" lon="26.570780">
<ele>91.426819</ele>
<time>2010-06-20T12:01:26Z</time>
<desc>lat.=56.090649, lon.=26.570780, Alt.=91.426819m. Speed=15.264000m/h.</desc>
<speed>4.240000</speed>
</trkpt>
<trkpt lat="56.090630" lon="26.570845">
<ele>91.377991</ele>
<time>2010-06-20T12:01:27Z</time>
<desc>lat.=56.090630, lon.=26.570845, Alt.=91.377991m. Speed=16.020000m/h.</desc>
<speed>4.450000</speed>
</trkpt>
<trkpt lat="56.090611" lon="26.570910">
<ele>91.323303</ele>
<time>2010-06-20T12:01:28Z</time>
<desc>lat.=56.090611, lon.=26.570910, Alt.=91.323303m. Speed=16.164000m/h.</desc>
<speed>4.490000</speed>
</trkpt>
<trkpt lat="56.090588" lon="26.570984">
<ele>91.049866</ele>
<time>2010-06-20T12:01:29Z</time>
<desc>lat.=56.090588, lon.=26.570984, Alt.=91.049866m. Speed=16.596001m/h.</desc>
<speed>4.610000</speed>
</trkpt>
<trkpt lat="56.090565" lon="26.571049">
<ele>89.909241</ele>
<time>2010-06-20T12:01:30Z</time>
<desc>lat.=56.090565, lon.=26.571049, Alt.=89.909241m. Speed=15.732000m/h.</desc>
<speed>4.370000</speed>
</trkpt>
<trkpt lat="56.090542" lon="26.571108">
<ele>89.147522</ele>
<time>2010-06-20T12:01:31Z</time>
<desc>lat.=56.090542, lon.=26.571108, Alt.=89.147522m. Speed=15.156000m/h.</desc>
<speed>4.210000</speed>
</trkpt>
<trkpt lat="56.090519" lon="26.571171">
<ele>88.874084</ele>
<time>2010-06-20T12:01:32Z</time>
<desc>lat.=56.090519, lon.=26.571171, Alt.=88.874084m. Speed=15.732000m/h.</desc>
<speed>4.370000</speed>
</trkpt>
<trkpt lat="56.090496" lon="26.571232">
<ele>89.110413</ele>
<time>2010-06-20T12:01:33Z</time>
<desc>lat.=56.090496, lon.=26.571232, Alt.=89.110413m. Speed=14.364000m/h.</desc>
<speed>3.990000</speed>
</trkpt>
<trkpt lat="56.090481" lon="26.571287">
<ele>88.004944</ele>
<time>2010-06-20T12:01:34Z</time>
<desc>lat.=56.090481, lon.=26.571287, Alt.=88.004944m. Speed=15.156000m/h.</desc>
<speed>4.210000</speed>
</trkpt>
<trkpt lat="56.090462" lon="26.571344">
<ele>87.780334</ele>
<time>2010-06-20T12:01:35Z</time>
<desc>lat.=56.090462, lon.=26.571344, Alt.=87.780334m. Speed=14.508000m/h.</desc>
<speed>4.030000</speed>
</trkpt>
<trkpt lat="56.090443" lon="26.571400">
<ele>87.516663</ele>
<time>2010-06-20T12:01:36Z</time>
<desc>lat.=56.090443, lon.=26.571400, Alt.=87.516663m. Speed=14.220000m/h.</desc>
<speed>3.950000</speed>
</trkpt>
<trkpt lat="56.090427" lon="26.571453">
<ele>87.057678</ele>
<time>2010-06-20T12:01:37Z</time>
<desc>lat.=56.090427, lon.=26.571453, Alt.=87.057678m. Speed=13.896000m/h.</desc>
<speed>3.860000</speed>
</trkpt>
<trkpt lat="56.090397" lon="26.571508">
<ele>86.915100</ele>
<time>2010-06-20T12:01:38Z</time>
<desc>lat.=56.090397, lon.=26.571508, Alt.=86.915100m. Speed=15.156000m/h.</desc>
<speed>4.210000</speed>
</trkpt>
<trkpt lat="56.090363" lon="26.571566">
<ele>87.098694</ele>
<time>2010-06-20T12:01:39Z</time>
<desc>lat.=56.090363, lon.=26.571566, Alt.=87.098694m. Speed=15.552000m/h.</desc>
<speed>4.320000</speed>
</trkpt>
<trkpt lat="56.090332" lon="26.571617">
<ele>87.085022</ele>
<time>2010-06-20T12:01:40Z</time>
<desc>lat.=56.090332, lon.=26.571617, Alt.=87.085022m. Speed=15.300000m/h.</desc>
<speed>4.250000</speed>
</trkpt>
<trkpt lat="56.090305" lon="26.571669">
<ele>87.096741</ele>
<time>2010-06-20T12:01:41Z</time>
<desc>lat.=56.090305, lon.=26.571669, Alt.=87.096741m. Speed=15.840000m/h.</desc>
<speed>4.400000</speed>
</trkpt>
<trkpt lat="56.090271" lon="26.571726">
<ele>87.419006</ele>
<time>2010-06-20T12:01:42Z</time>
<desc>lat.=56.090271, lon.=26.571726, Alt.=87.419006m. Speed=15.336000m/h.</desc>
<speed>4.260000</speed>
</trkpt>
<trkpt lat="56.090244" lon="26.571785">
<ele>87.698303</ele>
<time>2010-06-20T12:01:43Z</time>
<desc>lat.=56.090244, lon.=26.571785, Alt.=87.698303m. Speed=14.976000m/h.</desc>
<speed>4.160000</speed>
</trkpt>
<trkpt lat="56.090218" lon="26.571842">
<ele>87.891663</ele>
<time>2010-06-20T12:01:44Z</time>
<desc>lat.=56.090218, lon.=26.571842, Alt.=87.891663m. Speed=13.968000m/h.</desc>
<speed>3.880000</speed>
</trkpt>
<trkpt lat="56.090191" lon="26.571896">
<ele>87.985413</ele>
<time>2010-06-20T12:01:45Z</time>
<desc>lat.=56.090191, lon.=26.571896, Alt.=87.985413m. Speed=15.984000m/h.</desc>
<speed>4.440000</speed>
</trkpt>
<trkpt lat="56.090164" lon="26.571951">
<ele>87.913147</ele>
<time>2010-06-20T12:01:46Z</time>
<desc>lat.=56.090164, lon.=26.571951, Alt.=87.913147m. Speed=15.264000m/h.</desc>
<speed>4.240000</speed>
</trkpt>
<trkpt lat="56.090137" lon="26.572006">
<ele>88.137756</ele>
<time>2010-06-20T12:01:47Z</time>
<desc>lat.=56.090137, lon.=26.572006, Alt.=88.137756m. Speed=15.840000m/h.</desc>
<speed>4.400000</speed>
</trkpt>
<trkpt lat="56.090107" lon="26.572063">
<ele>88.127991</ele>
<time>2010-06-20T12:01:48Z</time>
<desc>lat.=56.090107, lon.=26.572063, Alt.=88.127991m. Speed=16.271999m/h.</desc>
<speed>4.520000</speed>
</trkpt>
<trkpt lat="56.090073" lon="26.572123">
<ele>88.073303</ele>
<time>2010-06-20T12:01:49Z</time>
<desc>lat.=56.090073, lon.=26.572123, Alt.=88.073303m. Speed=16.379999m/h.</desc>
<speed>4.550000</speed>
</trkpt>
<trkpt lat="56.090042" lon="26.572182">
<ele>88.143616</ele>
<time>2010-06-20T12:01:50Z</time>
<desc>lat.=56.090042, lon.=26.572182, Alt.=88.143616m. Speed=16.812000m/h.</desc>
<speed>4.670000</speed>
</trkpt>
<trkpt lat="56.090008" lon="26.572231">
<ele>87.946350</ele>
<time>2010-06-20T12:01:51Z</time>
<desc>lat.=56.090008, lon.=26.572231, Alt.=87.946350m. Speed=16.271999m/h.</desc>
<speed>4.520000</speed>
</trkpt>
<trkpt lat="56.089981" lon="26.572281">
<ele>87.999084</ele>
<time>2010-06-20T12:01:52Z</time>
<desc>lat.=56.089981, lon.=26.572281, Alt.=87.999084m. Speed=14.832000m/h.</desc>
<speed>4.120000</speed>
</trkpt>
<trkpt lat="56.089954" lon="26.572332">
<ele>87.940491</ele>
<time>2010-06-20T12:01:53Z</time>
<desc>lat.=56.089954, lon.=26.572332, Alt.=87.940491m. Speed=15.192000m/h.</desc>
<speed>4.220000</speed>
</trkpt>
<trkpt lat="56.089928" lon="26.572388">
<ele>87.995178</ele>
<time>2010-06-20T12:01:54Z</time>
<desc>lat.=56.089928, lon.=26.572388, Alt.=87.995178m. Speed=15.732000m/h.</desc>
<speed>4.370000</speed>
</trkpt>
<trkpt lat="56.089901" lon="26.572437">
<ele>88.024475</ele>
<time>2010-06-20T12:01:55Z</time>
<desc>lat.=56.089901, lon.=26.572437, Alt.=88.024475m. Speed=15.876000m/h.</desc>
<speed>4.410000</speed>
</trkpt>
<trkpt lat="56.089870" lon="26.572483">
<ele>88.044006</ele>
<time>2010-06-20T12:01:56Z</time>
<desc>lat.=56.089870, lon.=26.572483, Alt.=88.044006m. Speed=14.760000m/h.</desc>
<speed>4.100000</speed>
</trkpt>
<trkpt lat="56.089840" lon="26.572538">
<ele>88.235413</ele>
<time>2010-06-20T12:01:57Z</time>
<desc>lat.=56.089840, lon.=26.572538, Alt.=88.235413m. Speed=16.920000m/h.</desc>
<speed>4.700000</speed>
</trkpt>
<trkpt lat="56.089806" lon="26.572598">
<ele>88.485413</ele>
<time>2010-06-20T12:01:58Z</time>
<desc>lat.=56.089806, lon.=26.572598, Alt.=88.485413m. Speed=16.236000m/h.</desc>
<speed>4.510000</speed>
</trkpt>
<trkpt lat="56.089775" lon="26.572645">
<ele>88.340881</ele>
<time>2010-06-20T12:01:59Z</time>
<desc>lat.=56.089775, lon.=26.572645, Alt.=88.340881m. Speed=17.063999m/h.</desc>
<speed>4.740000</speed>
</trkpt>
<trkpt lat="56.089741" lon="26.572695">
<ele>88.284241</ele>
<time>2010-06-20T12:02:00Z</time>
<desc>lat.=56.089741, lon.=26.572695, Alt.=88.284241m. Speed=16.091999m/h.</desc>
<speed>4.470000</speed>
</trkpt>
<trkpt lat="56.089714" lon="26.572746">
<ele>88.268616</ele>
<time>2010-06-20T12:02:01Z</time>
<desc>lat.=56.089714, lon.=26.572746, Alt.=88.268616m. Speed=15.156000m/h.</desc>
<speed>4.210000</speed>
</trkpt>
<trkpt lat="56.089687" lon="26.572796">
<ele>88.331116</ele>
<time>2010-06-20T12:02:02Z</time>
<desc>lat.=56.089687, lon.=26.572796, Alt.=88.331116m. Speed=14.724000m/h.</desc>
<speed>4.090000</speed>
</trkpt>
<trkpt lat="56.089657" lon="26.572845">
<ele>88.379944</ele>
<time>2010-06-20T12:02:03Z</time>
<desc>lat.=56.089657, lon.=26.572845, Alt.=88.379944m. Speed=15.732000m/h.</desc>
<speed>4.370000</speed>
</trkpt>
<trkpt lat="56.089626" lon="26.572905">
<ele>88.794006</ele>
<time>2010-06-20T12:02:04Z</time>
<desc>lat.=56.089626, lon.=26.572905, Alt.=88.794006m. Speed=15.696000m/h.</desc>
<speed>4.360000</speed>
</trkpt>
<trkpt lat="56.089600" lon="26.572954">
<ele>88.893616</ele>
<time>2010-06-20T12:02:05Z</time>
<desc>lat.=56.089600, lon.=26.572954, Alt.=88.893616m. Speed=16.128000m/h.</desc>
<speed>4.480000</speed>
</trkpt>
<trkpt lat="56.089569" lon="26.573009">
<ele>88.877991</ele>
<time>2010-06-20T12:02:06Z</time>
<desc>lat.=56.089569, lon.=26.573009, Alt.=88.877991m. Speed=16.271999m/h.</desc>
<speed>4.520000</speed>
</trkpt>
<trkpt lat="56.089546" lon="26.573059">
<ele>88.811584</ele>
<time>2010-06-20T12:02:07Z</time>
<desc>lat.=56.089546, lon.=26.573059, Alt.=88.811584m. Speed=15.876000m/h.</desc>
<speed>4.410000</speed>
</trkpt>
<trkpt lat="56.089516" lon="26.573111">
<ele>88.821350</ele>
<time>2010-06-20T12:02:08Z</time>
<desc>lat.=56.089516, lon.=26.573111, Alt.=88.821350m. Speed=15.588000m/h.</desc>
<speed>4.330000</speed>
</trkpt>
<trkpt lat="56.089481" lon="26.573158">
<ele>89.088928</ele>
<time>2010-06-20T12:02:09Z</time>
<desc>lat.=56.089481, lon.=26.573158, Alt.=89.088928m. Speed=14.904000m/h.</desc>
<speed>4.140000</speed>
</trkpt>
<trkpt lat="56.089455" lon="26.573212">
<ele>89.383850</ele>
<time>2010-06-20T12:02:10Z</time>
<desc>lat.=56.089455, lon.=26.573212, Alt.=89.383850m. Speed=14.832000m/h.</desc>
<speed>4.120000</speed>
</trkpt>
<trkpt lat="56.089428" lon="26.573261">
<ele>89.545959</ele>
<time>2010-06-20T12:02:11Z</time>
<desc>lat.=56.089428, lon.=26.573261, Alt.=89.545959m. Speed=15.732000m/h.</desc>
<speed>4.370000</speed>
</trkpt>
<trkpt lat="56.089397" lon="26.573313">
<ele>89.514709</ele>
<time>2010-06-20T12:02:12Z</time>
<desc>lat.=56.089397, lon.=26.573313, Alt.=89.514709m. Speed=14.076000m/h.</desc>
<speed>3.910000</speed>
</trkpt>
<trkpt lat="56.089371" lon="26.573360">
<ele>89.374084</ele>
<time>2010-06-20T12:02:13Z</time>
<desc>lat.=56.089371, lon.=26.573360, Alt.=89.374084m. Speed=15.732000m/h.</desc>
<speed>4.370000</speed>
</trkpt>
<trkpt lat="56.089336" lon="26.573406">
<ele>89.528381</ele>
<time>2010-06-20T12:02:14Z</time>
<desc>lat.=56.089336, lon.=26.573406, Alt.=89.528381m. Speed=15.300000m/h.</desc>
<speed>4.250000</speed>
</trkpt>
<trkpt lat="56.089314" lon="26.573454">
<ele>89.549866</ele>
<time>2010-06-20T12:02:15Z</time>
<desc>lat.=56.089314, lon.=26.573454, Alt.=89.549866m. Speed=15.012000m/h.</desc>
<speed>4.170000</speed>
</trkpt>
<trkpt lat="56.089291" lon="26.573505">
<ele>89.598694</ele>
<time>2010-06-20T12:02:16Z</time>
<desc>lat.=56.089291, lon.=26.573505, Alt.=89.598694m. Speed=12.780000m/h.</desc>
<speed>3.550000</speed>
</trkpt>
<trkpt lat="56.089268" lon="26.573553">
<ele>89.604553</ele>
<time>2010-06-20T12:02:17Z</time>
<desc>lat.=56.089268, lon.=26.573553, Alt.=89.604553m. Speed=13.356000m/h.</desc>
<speed>3.710000</speed>
</trkpt>
<trkpt lat="56.089241" lon="26.573599">
<ele>89.614319</ele>
<time>2010-06-20T12:02:18Z</time>
<desc>lat.=56.089241, lon.=26.573599, Alt.=89.614319m. Speed=12.564000m/h.</desc>
<speed>3.490000</speed>
</trkpt>
<trkpt lat="56.089214" lon="26.573641">
<ele>89.686584</ele>
<time>2010-06-20T12:02:19Z</time>
<desc>lat.=56.089214, lon.=26.573641, Alt.=89.686584m. Speed=13.140000m/h.</desc>
<speed>3.650000</speed>
</trkpt>
<trkpt lat="56.089191" lon="26.573679">
<ele>89.782288</ele>
<time>2010-06-20T12:02:20Z</time>
<desc>lat.=56.089191, lon.=26.573679, Alt.=89.782288m. Speed=12.564000m/h.</desc>
<speed>3.490000</speed>
</trkpt>
<trkpt lat="56.089172" lon="26.573715">
<ele>89.467834</ele>
<time>2010-06-20T12:02:21Z</time>
<desc>lat.=56.089172, lon.=26.573715, Alt.=89.467834m. Speed=13.608000m/h.</desc>
<speed>3.780000</speed>
</trkpt>
<trkpt lat="56.089149" lon="26.573757">
<ele>88.893616</ele>
<time>2010-06-20T12:02:22Z</time>
<desc>lat.=56.089149, lon.=26.573757, Alt.=88.893616m. Speed=13.176000m/h.</desc>
<speed>3.660000</speed>
</trkpt>
<trkpt lat="56.089127" lon="26.573797">
<ele>89.202209</ele>
<time>2010-06-20T12:02:23Z</time>
<desc>lat.=56.089127, lon.=26.573797, Alt.=89.202209m. Speed=12.564000m/h.</desc>
<speed>3.490000</speed>
</trkpt>
<trkpt lat="56.089100" lon="26.573839">
<ele>89.797913</ele>
<time>2010-06-20T12:02:24Z</time>
<desc>lat.=56.089100, lon.=26.573839, Alt.=89.797913m. Speed=13.788000m/h.</desc>
<speed>3.830000</speed>
</trkpt>
<trkpt lat="56.089073" lon="26.573889">
<ele>90.356506</ele>
<time>2010-06-20T12:02:25Z</time>
<desc>lat.=56.089073, lon.=26.573889, Alt.=90.356506m. Speed=15.480000m/h.</desc>
<speed>4.300000</speed>
</trkpt>
<trkpt lat="56.089046" lon="26.573938">
<ele>90.544006</ele>
<time>2010-06-20T12:02:26Z</time>
<desc>lat.=56.089046, lon.=26.573938, Alt.=90.544006m. Speed=15.768000m/h.</desc>
<speed>4.380000</speed>
</trkpt>
<trkpt lat="56.089020" lon="26.573992">
<ele>91.047913</ele>
<time>2010-06-20T12:02:27Z</time>
<desc>lat.=56.089020, lon.=26.573992, Alt.=91.047913m. Speed=14.652000m/h.</desc>
<speed>4.070000</speed>
</trkpt>
<trkpt lat="56.088997" lon="26.574036">
<ele>92.032288</ele>
<time>2010-06-20T12:02:28Z</time>
<desc>lat.=56.088997, lon.=26.574036, Alt.=92.032288m. Speed=13.932000m/h.</desc>
<speed>3.870000</speed>
</trkpt>
<trkpt lat="56.088966" lon="26.574080">
<ele>92.399475</ele>
<time>2010-06-20T12:02:29Z</time>
<desc>lat.=56.088966, lon.=26.574080, Alt.=92.399475m. Speed=13.140000m/h.</desc>
<speed>3.650000</speed>
</trkpt>
<trkpt lat="56.088940" lon="26.574120">
<ele>92.579163</ele>
<time>2010-06-20T12:02:30Z</time>
<desc>lat.=56.088940, lon.=26.574120, Alt.=92.579163m. Speed=13.644000m/h.</desc>
<speed>3.790000</speed>
</trkpt>
<trkpt lat="56.088913" lon="26.574167">
<ele>92.930725</ele>
<time>2010-06-20T12:02:31Z</time>
<desc>lat.=56.088913, lon.=26.574167, Alt.=92.930725m. Speed=14.724000m/h.</desc>
<speed>4.090000</speed>
</trkpt>
<trkpt lat="56.088882" lon="26.574207">
<ele>92.907288</ele>
<time>2010-06-20T12:02:32Z</time>
<desc>lat.=56.088882, lon.=26.574207, Alt.=92.907288m. Speed=14.040000m/h.</desc>
<speed>3.900000</speed>
</trkpt>
<trkpt lat="56.088856" lon="26.574249">
<ele>92.885803</ele>
<time>2010-06-20T12:02:33Z</time>
<desc>lat.=56.088856, lon.=26.574249, Alt.=92.885803m. Speed=14.652000m/h.</desc>
<speed>4.070000</speed>
</trkpt>
<trkpt lat="56.088825" lon="26.574295">
<ele>93.063538</ele>
<time>2010-06-20T12:02:34Z</time>
<desc>lat.=56.088825, lon.=26.574295, Alt.=93.063538m. Speed=13.932000m/h.</desc>
<speed>3.870000</speed>
</trkpt>
<trkpt lat="56.088799" lon="26.574339">
<ele>92.993225</ele>
<time>2010-06-20T12:02:35Z</time>
<desc>lat.=56.088799, lon.=26.574339, Alt.=92.993225m. Speed=14.760000m/h.</desc>
<speed>4.100000</speed>
</trkpt>
<trkpt lat="56.088764" lon="26.574387">
<ele>93.045959</ele>
<time>2010-06-20T12:02:36Z</time>
<desc>lat.=56.088764, lon.=26.574387, Alt.=93.045959m. Speed=15.984000m/h.</desc>
<speed>4.440000</speed>
</trkpt>
<trkpt lat="56.088734" lon="26.574440">
<ele>93.118225</ele>
<time>2010-06-20T12:02:37Z</time>
<desc>lat.=56.088734, lon.=26.574440, Alt.=93.118225m. Speed=16.020000m/h.</desc>
<speed>4.450000</speed>
</trkpt>
<trkpt lat="56.088707" lon="26.574488">
<ele>93.145569</ele>
<time>2010-06-20T12:02:38Z</time>
<desc>lat.=56.088707, lon.=26.574488, Alt.=93.145569m. Speed=15.516000m/h.</desc>
<speed>4.310000</speed>
</trkpt>
<trkpt lat="56.088680" lon="26.574537">
<ele>93.135803</ele>
<time>2010-06-20T12:02:39Z</time>
<desc>lat.=56.088680, lon.=26.574537, Alt.=93.135803m. Speed=15.084000m/h.</desc>
<speed>4.190000</speed>
</trkpt>
<trkpt lat="56.088654" lon="26.574585">
<ele>93.149475</ele>
<time>2010-06-20T12:02:40Z</time>
<desc>lat.=56.088654, lon.=26.574585, Alt.=93.149475m. Speed=14.364000m/h.</desc>
<speed>3.990000</speed>
</trkpt>
<trkpt lat="56.088627" lon="26.574631">
<ele>93.223694</ele>
<time>2010-06-20T12:02:41Z</time>
<desc>lat.=56.088627, lon.=26.574631, Alt.=93.223694m. Speed=14.760000m/h.</desc>
<speed>4.100000</speed>
</trkpt>
<trkpt lat="56.088596" lon="26.574678">
<ele>93.311584</ele>
<time>2010-06-20T12:02:42Z</time>
<desc>lat.=56.088596, lon.=26.574678, Alt.=93.311584m. Speed=15.480000m/h.</desc>
<speed>4.300000</speed>
</trkpt>
<trkpt lat="56.088570" lon="26.574724">
<ele>93.264709</ele>
<time>2010-06-20T12:02:43Z</time>
<desc>lat.=56.088570, lon.=26.574724, Alt.=93.264709m. Speed=15.300000m/h.</desc>
<speed>4.250000</speed>
</trkpt>
<trkpt lat="56.088543" lon="26.574768">
<ele>93.182678</ele>
<time>2010-06-20T12:02:44Z</time>
<desc>lat.=56.088543, lon.=26.574768, Alt.=93.182678m. Speed=15.012000m/h.</desc>
<speed>4.170000</speed>
</trkpt>
<trkpt lat="56.088516" lon="26.574812">
<ele>93.081116</ele>
<time>2010-06-20T12:02:45Z</time>
<desc>lat.=56.088516, lon.=26.574812, Alt.=93.081116m. Speed=15.300000m/h.</desc>
<speed>4.250000</speed>
</trkpt>
<trkpt lat="56.088490" lon="26.574858">
<ele>93.157288</ele>
<time>2010-06-20T12:02:46Z</time>
<desc>lat.=56.088490, lon.=26.574858, Alt.=93.157288m. Speed=14.184000m/h.</desc>
<speed>3.940000</speed>
</trkpt>
<trkpt lat="56.088463" lon="26.574905">
<ele>93.053772</ele>
<time>2010-06-20T12:02:47Z</time>
<desc>lat.=56.088463, lon.=26.574905, Alt.=93.053772m. Speed=14.652000m/h.</desc>
<speed>4.070000</speed>
</trkpt>
<trkpt lat="56.088440" lon="26.574955">
<ele>92.971741</ele>
<time>2010-06-20T12:02:48Z</time>
<desc>lat.=56.088440, lon.=26.574955, Alt.=92.971741m. Speed=15.552000m/h.</desc>
<speed>4.320000</speed>
</trkpt>
<trkpt lat="56.088409" lon="26.575006">
<ele>92.981506</ele>
<time>2010-06-20T12:02:49Z</time>
<desc>lat.=56.088409, lon.=26.575006, Alt.=92.981506m. Speed=15.444000m/h.</desc>
<speed>4.290000</speed>
</trkpt>
<trkpt lat="56.088379" lon="26.575054">
<ele>92.807678</ele>
<time>2010-06-20T12:02:50Z</time>
<desc>lat.=56.088379, lon.=26.575054, Alt.=92.807678m. Speed=15.372000m/h.</desc>
<speed>4.270000</speed>
</trkpt>
<trkpt lat="56.088352" lon="26.575100">
<ele>92.651428</ele>
<time>2010-06-20T12:02:51Z</time>
<desc>lat.=56.088352, lon.=26.575100, Alt.=92.651428m. Speed=15.300000m/h.</desc>
<speed>4.250000</speed>
</trkpt>
<trkpt lat="56.088322" lon="26.575142">
<ele>92.762756</ele>
<time>2010-06-20T12:02:52Z</time>
<desc>lat.=56.088322, lon.=26.575142, Alt.=92.762756m. Speed=14.076000m/h.</desc>
<speed>3.910000</speed>
</trkpt>
<trkpt lat="56.088295" lon="26.575186">
<ele>92.827209</ele>
<time>2010-06-20T12:02:53Z</time>
<desc>lat.=56.088295, lon.=26.575186, Alt.=92.827209m. Speed=14.400000m/h.</desc>
<speed>4.000000</speed>
</trkpt>
<trkpt lat="56.088272" lon="26.575235">
<ele>92.700256</ele>
<time>2010-06-20T12:02:54Z</time>
<desc>lat.=56.088272, lon.=26.575235, Alt.=92.700256m. Speed=14.724000m/h.</desc>
<speed>4.090000</speed>
</trkpt>
<trkpt lat="56.088253" lon="26.575285">
<ele>92.575256</ele>
<time>2010-06-20T12:02:55Z</time>
<desc>lat.=56.088253, lon.=26.575285, Alt.=92.575256m. Speed=14.508000m/h.</desc>
<speed>4.030000</speed>
</trkpt>
<trkpt lat="56.088226" lon="26.575327">
<ele>92.338928</ele>
<time>2010-06-20T12:02:56Z</time>
<desc>lat.=56.088226, lon.=26.575327, Alt.=92.338928m. Speed=14.328000m/h.</desc>
<speed>3.980000</speed>
</trkpt>
<trkpt lat="56.088200" lon="26.575373">
<ele>92.381897</ele>
<time>2010-06-20T12:02:57Z</time>
<desc>lat.=56.088200, lon.=26.575373, Alt.=92.381897m. Speed=14.796000m/h.</desc>
<speed>4.110000</speed>
</trkpt>
<trkpt lat="56.088173" lon="26.575417">
<ele>92.192444</ele>
<time>2010-06-20T12:02:58Z</time>
<desc>lat.=56.088173, lon.=26.575417, Alt.=92.192444m. Speed=15.660000m/h.</desc>
<speed>4.350000</speed>
</trkpt>
<trkpt lat="56.088142" lon="26.575464">
<ele>92.071350</ele>
<time>2010-06-20T12:02:59Z</time>
<desc>lat.=56.088142, lon.=26.575464, Alt.=92.071350m. Speed=14.832000m/h.</desc>
<speed>4.120000</speed>
</trkpt>
<trkpt lat="56.088116" lon="26.575512">
<ele>92.004944</ele>
<time>2010-06-20T12:03:00Z</time>
<desc>lat.=56.088116, lon.=26.575512, Alt.=92.004944m. Speed=14.868000m/h.</desc>
<speed>4.130000</speed>
</trkpt>
<trkpt lat="56.088093" lon="26.575565">
<ele>91.940491</ele>
<time>2010-06-20T12:03:01Z</time>
<desc>lat.=56.088093, lon.=26.575565, Alt.=91.940491m. Speed=14.760000m/h.</desc>
<speed>4.100000</speed>
</trkpt>
<trkpt lat="56.088070" lon="26.575615">
<ele>91.950256</ele>
<time>2010-06-20T12:03:02Z</time>
<desc>lat.=56.088070, lon.=26.575615, Alt.=91.950256m. Speed=14.436000m/h.</desc>
<speed>4.010000</speed>
</trkpt>
<trkpt lat="56.088043" lon="26.575659">
<ele>91.979553</ele>
<time>2010-06-20T12:03:03Z</time>
<desc>lat.=56.088043, lon.=26.575659, Alt.=91.979553m. Speed=13.716000m/h.</desc>
<speed>3.810000</speed>
</trkpt>
<trkpt lat="56.088020" lon="26.575697">
<ele>91.858459</ele>
<time>2010-06-20T12:03:04Z</time>
<desc>lat.=56.088020, lon.=26.575697, Alt.=91.858459m. Speed=13.932000m/h.</desc>
<speed>3.870000</speed>
</trkpt>
<trkpt lat="56.087994" lon="26.575737">
<ele>91.813538</ele>
<time>2010-06-20T12:03:05Z</time>
<desc>lat.=56.087994, lon.=26.575737, Alt.=91.813538m. Speed=13.464000m/h.</desc>
<speed>3.740000</speed>
</trkpt>
<trkpt lat="56.087967" lon="26.575775">
<ele>91.698303</ele>
<time>2010-06-20T12:03:06Z</time>
<desc>lat.=56.087967, lon.=26.575775, Alt.=91.698303m. Speed=12.816000m/h.</desc>
<speed>3.560000</speed>
</trkpt>
<trkpt lat="56.087944" lon="26.575817">
<ele>91.542053</ele>
<time>2010-06-20T12:03:07Z</time>
<desc>lat.=56.087944, lon.=26.575817, Alt.=91.542053m. Speed=13.032000m/h.</desc>
<speed>3.620000</speed>
</trkpt>
<trkpt lat="56.087921" lon="26.575857">
<ele>91.489319</ele>
<time>2010-06-20T12:03:08Z</time>
<desc>lat.=56.087921, lon.=26.575857, Alt.=91.489319m. Speed=13.860000m/h.</desc>
<speed>3.850000</speed>
</trkpt>
<trkpt lat="56.087894" lon="26.575903">
<ele>91.350647</ele>
<time>2010-06-20T12:03:09Z</time>
<desc>lat.=56.087894, lon.=26.575903, Alt.=91.350647m. Speed=14.148000m/h.</desc>
<speed>3.930000</speed>
</trkpt>
<trkpt lat="56.087872" lon="26.575949">
<ele>91.245178</ele>
<time>2010-06-20T12:03:10Z</time>
<desc>lat.=56.087872, lon.=26.575949, Alt.=91.245178m. Speed=13.644000m/h.</desc>
<speed>3.790000</speed>
</trkpt>
<trkpt lat="56.087845" lon="26.575993">
<ele>91.217834</ele>
<time>2010-06-20T12:03:11Z</time>
<desc>lat.=56.087845, lon.=26.575993, Alt.=91.217834m. Speed=14.040000m/h.</desc>
<speed>3.900000</speed>
</trkpt>
<trkpt lat="56.087818" lon="26.576035">
<ele>91.186584</ele>
<time>2010-06-20T12:03:12Z</time>
<desc>lat.=56.087818, lon.=26.576035, Alt.=91.186584m. Speed=13.932000m/h.</desc>
<speed>3.870000</speed>
</trkpt>
<trkpt lat="56.087788" lon="26.576073">
<ele>91.290100</ele>
<time>2010-06-20T12:03:13Z</time>
<desc>lat.=56.087788, lon.=26.576073, Alt.=91.290100m. Speed=13.500000m/h.</desc>
<speed>3.750000</speed>
</trkpt>
<trkpt lat="56.087761" lon="26.576115">
<ele>91.399475</ele>
<time>2010-06-20T12:03:14Z</time>
<desc>lat.=56.087761, lon.=26.576115, Alt.=91.399475m. Speed=12.240000m/h.</desc>
<speed>3.400000</speed>
</trkpt>
<trkpt lat="56.087738" lon="26.576155">
<ele>91.381897</ele>
<time>2010-06-20T12:03:15Z</time>
<desc>lat.=56.087738, lon.=26.576155, Alt.=91.381897m. Speed=12.132000m/h.</desc>
<speed>3.370000</speed>
</trkpt>
<trkpt lat="56.087719" lon="26.576191">
<ele>91.502991</ele>
<time>2010-06-20T12:03:16Z</time>
<desc>lat.=56.087719, lon.=26.576191, Alt.=91.502991m. Speed=11.736000m/h.</desc>
<speed>3.260000</speed>
</trkpt>
<trkpt lat="56.087700" lon="26.576229">
<ele>91.544006</ele>
<time>2010-06-20T12:03:17Z</time>
<desc>lat.=56.087700, lon.=26.576229, Alt.=91.544006m. Speed=11.268000m/h.</desc>
<speed>3.130000</speed>
</trkpt>
<trkpt lat="56.087681" lon="26.576265">
<ele>91.497131</ele>
<time>2010-06-20T12:03:18Z</time>
<desc>lat.=56.087681, lon.=26.576265, Alt.=91.497131m. Speed=11.952000m/h.</desc>
<speed>3.320000</speed>
</trkpt>
<trkpt lat="56.087662" lon="26.576300">
<ele>91.502991</ele>
<time>2010-06-20T12:03:19Z</time>
<desc>lat.=56.087662, lon.=26.576300, Alt.=91.502991m. Speed=11.232000m/h.</desc>
<speed>3.120000</speed>
</trkpt>
<trkpt lat="56.087639" lon="26.576338">
<ele>91.612366</ele>
<time>2010-06-20T12:03:20Z</time>
<desc>lat.=56.087639, lon.=26.576338, Alt.=91.612366m. Speed=11.196000m/h.</desc>
<speed>3.110000</speed>
</trkpt>
<trkpt lat="56.087616" lon="26.576372">
<ele>91.659241</ele>
<time>2010-06-20T12:03:21Z</time>
<desc>lat.=56.087616, lon.=26.576372, Alt.=91.659241m. Speed=10.764000m/h.</desc>
<speed>2.990000</speed>
</trkpt>
<trkpt lat="56.087597" lon="26.576401">
<ele>91.674866</ele>
<time>2010-06-20T12:03:22Z</time>
<desc>lat.=56.087597, lon.=26.576401, Alt.=91.674866m. Speed=10.512000m/h.</desc>
<speed>2.920000</speed>
</trkpt>
<trkpt lat="56.087578" lon="26.576433">
<ele>91.594788</ele>
<time>2010-06-20T12:03:23Z</time>
<desc>lat.=56.087578, lon.=26.576433, Alt.=91.594788m. Speed=10.080000m/h.</desc>
<speed>2.800000</speed>
</trkpt>
<trkpt lat="56.087559" lon="26.576468">
<ele>91.626038</ele>
<time>2010-06-20T12:03:24Z</time>
<desc>lat.=56.087559, lon.=26.576468, Alt.=91.626038m. Speed=10.584000m/h.</desc>
<speed>2.940000</speed>
</trkpt>
<trkpt lat="56.087540" lon="26.576502">
<ele>91.637756</ele>
<time>2010-06-20T12:03:25Z</time>
<desc>lat.=56.087540, lon.=26.576502, Alt.=91.637756m. Speed=11.448000m/h.</desc>
<speed>3.180000</speed>
</trkpt>
<trkpt lat="56.087517" lon="26.576538">
<ele>91.553772</ele>
<time>2010-06-20T12:03:26Z</time>
<desc>lat.=56.087517, lon.=26.576538, Alt.=91.553772m. Speed=11.844000m/h.</desc>
<speed>3.290000</speed>
</trkpt>
<trkpt lat="56.087498" lon="26.576574">
<ele>91.450256</ele>
<time>2010-06-20T12:03:27Z</time>
<desc>lat.=56.087498, lon.=26.576574, Alt.=91.450256m. Speed=11.556000m/h.</desc>
<speed>3.210000</speed>
</trkpt>
<trkpt lat="56.087475" lon="26.576609">
<ele>91.487366</ele>
<time>2010-06-20T12:03:28Z</time>
<desc>lat.=56.087475, lon.=26.576609, Alt.=91.487366m. Speed=11.592000m/h.</desc>
<speed>3.220000</speed>
</trkpt>
<trkpt lat="56.087460" lon="26.576645">
<ele>91.489319</ele>
<time>2010-06-20T12:03:29Z</time>
<desc>lat.=56.087460, lon.=26.576645, Alt.=91.489319m. Speed=10.656000m/h.</desc>
<speed>2.960000</speed>
</trkpt>
<trkpt lat="56.087440" lon="26.576679">
<ele>91.295959</ele>
<time>2010-06-20T12:03:30Z</time>
<desc>lat.=56.087440, lon.=26.576679, Alt.=91.295959m. Speed=10.872000m/h.</desc>
<speed>3.020000</speed>
</trkpt>
<trkpt lat="56.087425" lon="26.576714">
<ele>91.237366</ele>
<time>2010-06-20T12:03:31Z</time>
<desc>lat.=56.087425, lon.=26.576714, Alt.=91.237366m. Speed=10.980000m/h.</desc>
<speed>3.050000</speed>
</trkpt>
<trkpt lat="56.087410" lon="26.576750">
<ele>91.200256</ele>
<time>2010-06-20T12:03:32Z</time>
<desc>lat.=56.087410, lon.=26.576750, Alt.=91.200256m. Speed=10.584000m/h.</desc>
<speed>2.940000</speed>
</trkpt>
<trkpt lat="56.087391" lon="26.576782">
<ele>91.229553</ele>
<time>2010-06-20T12:03:33Z</time>
<desc>lat.=56.087391, lon.=26.576782, Alt.=91.229553m. Speed=10.512000m/h.</desc>
<speed>2.920000</speed>
</trkpt>
<trkpt lat="56.087372" lon="26.576813">
<ele>91.184631</ele>
<time>2010-06-20T12:03:34Z</time>
<desc>lat.=56.087372, lon.=26.576813, Alt.=91.184631m. Speed=10.188000m/h.</desc>
<speed>2.830000</speed>
</trkpt>
<trkpt lat="56.087353" lon="26.576845">
<ele>91.227600</ele>
<time>2010-06-20T12:03:35Z</time>
<desc>lat.=56.087353, lon.=26.576845, Alt.=91.227600m. Speed=9.972000m/h.</desc>
<speed>2.770000</speed>
</trkpt>
<trkpt lat="56.087337" lon="26.576874">
<ele>91.194397</ele>
<time>2010-06-20T12:03:36Z</time>
<desc>lat.=56.087337, lon.=26.576874, Alt.=91.194397m. Speed=9.684000m/h.</desc>
<speed>2.690000</speed>
</trkpt>
<trkpt lat="56.087318" lon="26.576902">
<ele>91.206116</ele>
<time>2010-06-20T12:03:37Z</time>
<desc>lat.=56.087318, lon.=26.576902, Alt.=91.206116m. Speed=9.072000m/h.</desc>
<speed>2.520000</speed>
</trkpt>
<trkpt lat="56.087303" lon="26.576931">
<ele>91.233459</ele>
<time>2010-06-20T12:03:38Z</time>
<desc>lat.=56.087303, lon.=26.576931, Alt.=91.233459m. Speed=9.216000m/h.</desc>
<speed>2.560000</speed>
</trkpt>
<trkpt lat="56.087284" lon="26.576958">
<ele>91.219788</ele>
<time>2010-06-20T12:03:39Z</time>
<desc>lat.=56.087284, lon.=26.576958, Alt.=91.219788m. Speed=9.360000m/h.</desc>
<speed>2.600000</speed>
</trkpt>
<trkpt lat="56.087265" lon="26.576979">
<ele>91.204163</ele>
<time>2010-06-20T12:03:40Z</time>
<desc>lat.=56.087265, lon.=26.576979, Alt.=91.204163m. Speed=9.036000m/h.</desc>
<speed>2.510000</speed>
</trkpt>
<trkpt lat="56.087250" lon="26.577009">
<ele>91.362366</ele>
<time>2010-06-20T12:03:41Z</time>
<desc>lat.=56.087250, lon.=26.577009, Alt.=91.362366m. Speed=9.396000m/h.</desc>
<speed>2.610000</speed>
</trkpt>
<trkpt lat="56.087231" lon="26.577040">
<ele>91.286194</ele>
<time>2010-06-20T12:03:42Z</time>
<desc>lat.=56.087231, lon.=26.577040, Alt.=91.286194m. Speed=9.936000m/h.</desc>
<speed>2.760000</speed>
</trkpt>
<trkpt lat="56.087212" lon="26.577074">
<ele>91.161194</ele>
<time>2010-06-20T12:03:43Z</time>
<desc>lat.=56.087212, lon.=26.577074, Alt.=91.161194m. Speed=11.160000m/h.</desc>
<speed>3.100000</speed>
</trkpt>
<trkpt lat="56.087189" lon="26.577103">
<ele>90.989319</ele>
<time>2010-06-20T12:03:44Z</time>
<desc>lat.=56.087189, lon.=26.577103, Alt.=90.989319m. Speed=11.772000m/h.</desc>
<speed>3.270000</speed>
</trkpt>
<trkpt lat="56.087170" lon="26.577137">
<ele>90.932678</ele>
<time>2010-06-20T12:03:45Z</time>
<desc>lat.=56.087170, lon.=26.577137, Alt.=90.932678m. Speed=12.204000m/h.</desc>
<speed>3.390000</speed>
</trkpt>
<trkpt lat="56.087147" lon="26.577177">
<ele>91.006897</ele>
<time>2010-06-20T12:03:46Z</time>
<desc>lat.=56.087147, lon.=26.577177, Alt.=91.006897m. Speed=11.844000m/h.</desc>
<speed>3.290000</speed>
</trkpt>
<trkpt lat="56.087124" lon="26.577219">
<ele>91.126038</ele>
<time>2010-06-20T12:03:47Z</time>
<desc>lat.=56.087124, lon.=26.577219, Alt.=91.126038m. Speed=12.456000m/h.</desc>
<speed>3.460000</speed>
</trkpt>
<trkpt lat="56.087097" lon="26.577257">
<ele>91.176819</ele>
<time>2010-06-20T12:03:48Z</time>
<desc>lat.=56.087097, lon.=26.577257, Alt.=91.176819m. Speed=12.672000m/h.</desc>
<speed>3.520000</speed>
</trkpt>
<trkpt lat="56.087078" lon="26.577291">
<ele>91.051819</ele>
<time>2010-06-20T12:03:49Z</time>
<desc>lat.=56.087078, lon.=26.577291, Alt.=91.051819m. Speed=12.708000m/h.</desc>
<speed>3.530000</speed>
</trkpt>
<trkpt lat="56.087055" lon="26.577330">
<ele>90.930725</ele>
<time>2010-06-20T12:03:50Z</time>
<desc>lat.=56.087055, lon.=26.577330, Alt.=90.930725m. Speed=11.448000m/h.</desc>
<speed>3.180000</speed>
</trkpt>
<trkpt lat="56.087036" lon="26.577372">
<ele>90.885803</ele>
<time>2010-06-20T12:03:51Z</time>
<desc>lat.=56.087036, lon.=26.577372, Alt.=90.885803m. Speed=11.880000m/h.</desc>
<speed>3.300000</speed>
</trkpt>
<trkpt lat="56.087013" lon="26.577415">
<ele>91.049866</ele>
<time>2010-06-20T12:03:52Z</time>
<desc>lat.=56.087013, lon.=26.577415, Alt.=91.049866m. Speed=11.880000m/h.</desc>
<speed>3.300000</speed>
</trkpt>
<trkpt lat="56.086994" lon="26.577454">
<ele>90.950256</ele>
<time>2010-06-20T12:03:53Z</time>
<desc>lat.=56.086994, lon.=26.577454, Alt.=90.950256m. Speed=11.484000m/h.</desc>
<speed>3.190000</speed>
</trkpt>
<trkpt lat="56.086971" lon="26.577492">
<ele>90.836975</ele>
<time>2010-06-20T12:03:54Z</time>
<desc>lat.=56.086971, lon.=26.577492, Alt.=90.836975m. Speed=13.572000m/h.</desc>
<speed>3.770000</speed>
</trkpt>
<trkpt lat="56.086948" lon="26.577534">
<ele>90.797913</ele>
<time>2010-06-20T12:03:55Z</time>
<desc>lat.=56.086948, lon.=26.577534, Alt.=90.797913m. Speed=12.960000m/h.</desc>
<speed>3.600000</speed>
</trkpt>
<trkpt lat="56.086926" lon="26.577572">
<ele>90.737366</ele>
<time>2010-06-20T12:03:56Z</time>
<desc>lat.=56.086926, lon.=26.577572, Alt.=90.737366m. Speed=13.428000m/h.</desc>
<speed>3.730000</speed>
</trkpt>
<trkpt lat="56.086895" lon="26.577614">
<ele>91.020569</ele>
<time>2010-06-20T12:03:57Z</time>
<desc>lat.=56.086895, lon.=26.577614, Alt.=91.020569m. Speed=12.708000m/h.</desc>
<speed>3.530000</speed>
</trkpt>
<trkpt lat="56.086876" lon="26.577660">
<ele>91.227600</ele>
<time>2010-06-20T12:03:58Z</time>
<desc>lat.=56.086876, lon.=26.577660, Alt.=91.227600m. Speed=13.248000m/h.</desc>
<speed>3.680000</speed>
</trkpt>
<trkpt lat="56.086853" lon="26.577705">
<ele>91.200256</ele>
<time>2010-06-20T12:03:59Z</time>
<desc>lat.=56.086853, lon.=26.577705, Alt.=91.200256m. Speed=13.500000m/h.</desc>
<speed>3.750000</speed>
</trkpt>
<trkpt lat="56.086826" lon="26.577747">
<ele>91.147522</ele>
<time>2010-06-20T12:04:00Z</time>
<desc>lat.=56.086826, lon.=26.577747, Alt.=91.147522m. Speed=13.536000m/h.</desc>
<speed>3.760000</speed>
</trkpt>
<trkpt lat="56.086803" lon="26.577789">
<ele>91.098694</ele>
<time>2010-06-20T12:04:01Z</time>
<desc>lat.=56.086803, lon.=26.577789, Alt.=91.098694m. Speed=14.004000m/h.</desc>
<speed>3.890000</speed>
</trkpt>
<trkpt lat="56.086781" lon="26.577831">
<ele>91.106506</ele>
<time>2010-06-20T12:04:02Z</time>
<desc>lat.=56.086781, lon.=26.577831, Alt.=91.106506m. Speed=14.004000m/h.</desc>
<speed>3.890000</speed>
</trkpt>
<trkpt lat="56.086754" lon="26.577875">
<ele>91.133850</ele>
<time>2010-06-20T12:04:03Z</time>
<desc>lat.=56.086754, lon.=26.577875, Alt.=91.133850m. Speed=15.300000m/h.</desc>
<speed>4.250000</speed>
</trkpt>
<trkpt lat="56.086723" lon="26.577927">
<ele>91.063538</ele>
<time>2010-06-20T12:04:04Z</time>
<desc>lat.=56.086723, lon.=26.577927, Alt.=91.063538m. Speed=15.660000m/h.</desc>
<speed>4.350000</speed>
</trkpt>
<trkpt lat="56.086693" lon="26.577974">
<ele>91.139709</ele>
<time>2010-06-20T12:04:05Z</time>
<desc>lat.=56.086693, lon.=26.577974, Alt.=91.139709m. Speed=15.408000m/h.</desc>
<speed>4.280000</speed>
</trkpt>
<trkpt lat="56.086670" lon="26.578014">
<ele>91.014709</ele>
<time>2010-06-20T12:04:06Z</time>
<desc>lat.=56.086670, lon.=26.578014, Alt.=91.014709m. Speed=14.724000m/h.</desc>
<speed>4.090000</speed>
</trkpt>
<trkpt lat="56.086643" lon="26.578058">
<ele>90.977600</ele>
<time>2010-06-20T12:04:07Z</time>
<desc>lat.=56.086643, lon.=26.578058, Alt.=90.977600m. Speed=14.688000m/h.</desc>
<speed>4.080000</speed>
</trkpt>
<trkpt lat="56.086617" lon="26.578108">
<ele>90.899475</ele>
<time>2010-06-20T12:04:08Z</time>
<desc>lat.=56.086617, lon.=26.578108, Alt.=90.899475m. Speed=16.271999m/h.</desc>
<speed>4.520000</speed>
</trkpt>
<trkpt lat="56.086590" lon="26.578161">
<ele>90.799866</ele>
<time>2010-06-20T12:04:09Z</time>
<desc>lat.=56.086590, lon.=26.578161, Alt.=90.799866m. Speed=16.344000m/h.</desc>
<speed>4.540000</speed>
</trkpt>
<trkpt lat="56.086563" lon="26.578213">
<ele>90.684631</ele>
<time>2010-06-20T12:04:10Z</time>
<desc>lat.=56.086563, lon.=26.578213, Alt.=90.684631m. Speed=16.164000m/h.</desc>
<speed>4.490000</speed>
</trkpt>
<trkpt lat="56.086529" lon="26.578266">
<ele>90.586975</ele>
<time>2010-06-20T12:04:11Z</time>
<desc>lat.=56.086529, lon.=26.578266, Alt.=90.586975m. Speed=15.696000m/h.</desc>
<speed>4.360000</speed>
</trkpt>
<trkpt lat="56.086502" lon="26.578314">
<ele>90.430725</ele>
<time>2010-06-20T12:04:12Z</time>
<desc>lat.=56.086502, lon.=26.578314, Alt.=90.430725m. Speed=15.552000m/h.</desc>
<speed>4.320000</speed>
</trkpt>
<trkpt lat="56.086468" lon="26.578363">
<ele>90.516663</ele>
<time>2010-06-20T12:04:13Z</time>
<desc>lat.=56.086468, lon.=26.578363, Alt.=90.516663m. Speed=15.588000m/h.</desc>
<speed>4.330000</speed>
</trkpt>
<trkpt lat="56.086441" lon="26.578409">
<ele>90.409241</ele>
<time>2010-06-20T12:04:14Z</time>
<desc>lat.=56.086441, lon.=26.578409, Alt.=90.409241m. Speed=14.976000m/h.</desc>
<speed>4.160000</speed>
</trkpt>
<trkpt lat="56.086414" lon="26.578455">
<ele>90.329163</ele>
<time>2010-06-20T12:04:15Z</time>
<desc>lat.=56.086414, lon.=26.578455, Alt.=90.329163m. Speed=14.652000m/h.</desc>
<speed>4.070000</speed>
</trkpt>
<trkpt lat="56.086388" lon="26.578505">
<ele>90.362366</ele>
<time>2010-06-20T12:04:16Z</time>
<desc>lat.=56.086388, lon.=26.578505, Alt.=90.362366m. Speed=14.436000m/h.</desc>
<speed>4.010000</speed>
</trkpt>
<trkpt lat="56.086365" lon="26.578552">
<ele>90.424866</ele>
<time>2010-06-20T12:04:17Z</time>
<desc>lat.=56.086365, lon.=26.578552, Alt.=90.424866m. Speed=15.156000m/h.</desc>
<speed>4.210000</speed>
</trkpt>
<trkpt lat="56.086338" lon="26.578602">
<ele>90.358459</ele>
<time>2010-06-20T12:04:18Z</time>
<desc>lat.=56.086338, lon.=26.578602, Alt.=90.358459m. Speed=15.768000m/h.</desc>
<speed>4.380000</speed>
</trkpt>
<trkpt lat="56.086311" lon="26.578653">
<ele>90.469788</ele>
<time>2010-06-20T12:04:19Z</time>
<desc>lat.=56.086311, lon.=26.578653, Alt.=90.469788m. Speed=15.660000m/h.</desc>
<speed>4.350000</speed>
</trkpt>
<trkpt lat="56.086281" lon="26.578701">
<ele>90.575256</ele>
<time>2010-06-20T12:04:20Z</time>
<desc>lat.=56.086281, lon.=26.578701, Alt.=90.575256m. Speed=16.524000m/h.</desc>
<speed>4.590000</speed>
</trkpt>
<trkpt lat="56.086250" lon="26.578747">
<ele>90.708069</ele>
<time>2010-06-20T12:04:21Z</time>
<desc>lat.=56.086250, lon.=26.578747, Alt.=90.708069m. Speed=14.292000m/h.</desc>
<speed>3.970000</speed>
</trkpt>
<trkpt lat="56.086227" lon="26.578787">
<ele>90.913147</ele>
<time>2010-06-20T12:04:22Z</time>
<desc>lat.=56.086227, lon.=26.578787, Alt.=90.913147m. Speed=13.248000m/h.</desc>
<speed>3.680000</speed>
</trkpt>
<trkpt lat="56.086201" lon="26.578831">
<ele>91.124084</ele>
<time>2010-06-20T12:04:23Z</time>
<desc>lat.=56.086201, lon.=26.578831, Alt.=91.124084m. Speed=13.932000m/h.</desc>
<speed>3.870000</speed>
</trkpt>
<trkpt lat="56.086174" lon="26.578875">
<ele>91.186584</ele>
<time>2010-06-20T12:04:24Z</time>
<desc>lat.=56.086174, lon.=26.578875, Alt.=91.186584m. Speed=14.256000m/h.</desc>
<speed>3.960000</speed>
</trkpt>
<trkpt lat="56.086147" lon="26.578920">
<ele>91.182678</ele>
<time>2010-06-20T12:04:25Z</time>
<desc>lat.=56.086147, lon.=26.578920, Alt.=91.182678m. Speed=15.552000m/h.</desc>
<speed>4.320000</speed>
</trkpt>
<trkpt lat="56.086117" lon="26.578970">
<ele>91.206116</ele>
<time>2010-06-20T12:04:26Z</time>
<desc>lat.=56.086117, lon.=26.578970, Alt.=91.206116m. Speed=15.228000m/h.</desc>
<speed>4.230000</speed>
</trkpt>
<trkpt lat="56.086086" lon="26.579023">
<ele>91.301819</ele>
<time>2010-06-20T12:04:27Z</time>
<desc>lat.=56.086086, lon.=26.579023, Alt.=91.301819m. Speed=15.012000m/h.</desc>
<speed>4.170000</speed>
</trkpt>
<trkpt lat="56.086060" lon="26.579073">
<ele>91.233459</ele>
<time>2010-06-20T12:04:28Z</time>
<desc>lat.=56.086060, lon.=26.579073, Alt.=91.233459m. Speed=16.020000m/h.</desc>
<speed>4.450000</speed>
</trkpt>
<trkpt lat="56.086029" lon="26.579123">
<ele>91.206116</ele>
<time>2010-06-20T12:04:29Z</time>
<desc>lat.=56.086029, lon.=26.579123, Alt.=91.206116m. Speed=16.955999m/h.</desc>
<speed>4.710000</speed>
</trkpt>
<trkpt lat="56.085995" lon="26.579176">
<ele>91.112366</ele>
<time>2010-06-20T12:04:30Z</time>
<desc>lat.=56.085995, lon.=26.579176, Alt.=91.112366m. Speed=17.172001m/h.</desc>
<speed>4.770000</speed>
</trkpt>
<trkpt lat="56.085960" lon="26.579224">
<ele>91.155334</ele>
<time>2010-06-20T12:04:31Z</time>
<desc>lat.=56.085960, lon.=26.579224, Alt.=91.155334m. Speed=16.344000m/h.</desc>
<speed>4.540000</speed>
</trkpt>
<trkpt lat="56.085930" lon="26.579266">
<ele>91.126038</ele>
<time>2010-06-20T12:04:32Z</time>
<desc>lat.=56.085930, lon.=26.579266, Alt.=91.126038m. Speed=15.408000m/h.</desc>
<speed>4.280000</speed>
</trkpt>
<trkpt lat="56.085899" lon="26.579306">
<ele>91.198303</ele>
<time>2010-06-20T12:04:33Z</time>
<desc>lat.=56.085899, lon.=26.579306, Alt.=91.198303m. Speed=16.091999m/h.</desc>
<speed>4.470000</speed>
</trkpt>
<trkpt lat="56.085876" lon="26.579348">
<ele>91.497131</ele>
<time>2010-06-20T12:04:34Z</time>
<desc>lat.=56.085876, lon.=26.579348, Alt.=91.497131m. Speed=11.484000m/h.</desc>
<speed>3.190000</speed>
</trkpt>
<trkpt lat="56.085857" lon="26.579399">
<ele>92.438538</ele>
<time>2010-06-20T12:04:35Z</time>
<desc>lat.=56.085857, lon.=26.579399, Alt.=92.438538m. Speed=13.716000m/h.</desc>
<speed>3.810000</speed>
</trkpt>
<trkpt lat="56.085842" lon="26.579445">
<ele>92.696350</ele>
<time>2010-06-20T12:04:36Z</time>
<desc>lat.=56.085842, lon.=26.579445, Alt.=92.696350m. Speed=13.500000m/h.</desc>
<speed>3.750000</speed>
</trkpt>
<trkpt lat="56.085819" lon="26.579494">
<ele>92.663147</ele>
<time>2010-06-20T12:04:37Z</time>
<desc>lat.=56.085819, lon.=26.579494, Alt.=92.663147m. Speed=13.500000m/h.</desc>
<speed>3.750000</speed>
</trkpt>
<trkpt lat="56.085796" lon="26.579538">
<ele>92.419006</ele>
<time>2010-06-20T12:04:38Z</time>
<desc>lat.=56.085796, lon.=26.579538, Alt.=92.419006m. Speed=13.932000m/h.</desc>
<speed>3.870000</speed>
</trkpt>
<trkpt lat="56.085770" lon="26.579582">
<ele>92.575256</ele>
<time>2010-06-20T12:04:39Z</time>
<desc>lat.=56.085770, lon.=26.579582, Alt.=92.575256m. Speed=13.824000m/h.</desc>
<speed>3.840000</speed>
</trkpt>
<trkpt lat="56.085743" lon="26.579630">
<ele>92.614319</ele>
<time>2010-06-20T12:04:40Z</time>
<desc>lat.=56.085743, lon.=26.579630, Alt.=92.614319m. Speed=14.076000m/h.</desc>
<speed>3.910000</speed>
</trkpt>
<trkpt lat="56.085720" lon="26.579678">
<ele>92.571350</ele>
<time>2010-06-20T12:04:41Z</time>
<desc>lat.=56.085720, lon.=26.579678, Alt.=92.571350m. Speed=13.608000m/h.</desc>
<speed>3.780000</speed>
</trkpt>
<trkpt lat="56.085697" lon="26.579725">
<ele>92.544006</ele>
<time>2010-06-20T12:04:42Z</time>
<desc>lat.=56.085697, lon.=26.579725, Alt.=92.544006m. Speed=13.428000m/h.</desc>
<speed>3.730000</speed>
</trkpt>
<trkpt lat="56.085678" lon="26.579775">
<ele>92.551819</ele>
<time>2010-06-20T12:04:43Z</time>
<desc>lat.=56.085678, lon.=26.579775, Alt.=92.551819m. Speed=13.896000m/h.</desc>
<speed>3.860000</speed>
</trkpt>
<trkpt lat="56.085659" lon="26.579828">
<ele>92.549866</ele>
<time>2010-06-20T12:04:44Z</time>
<desc>lat.=56.085659, lon.=26.579828, Alt.=92.549866m. Speed=14.292000m/h.</desc>
<speed>3.970000</speed>
</trkpt>
<trkpt lat="56.085636" lon="26.579882">
<ele>92.569397</ele>
<time>2010-06-20T12:04:45Z</time>
<desc>lat.=56.085636, lon.=26.579882, Alt.=92.569397m. Speed=14.148000m/h.</desc>
<speed>3.930000</speed>
</trkpt>
<trkpt lat="56.085613" lon="26.579927">
<ele>92.432678</ele>
<time>2010-06-20T12:04:46Z</time>
<desc>lat.=56.085613, lon.=26.579927, Alt.=92.432678m. Speed=12.960000m/h.</desc>
<speed>3.600000</speed>
</trkpt>
<trkpt lat="56.085594" lon="26.579973">
<ele>92.397522</ele>
<time>2010-06-20T12:04:47Z</time>
<desc>lat.=56.085594, lon.=26.579973, Alt.=92.397522m. Speed=12.744000m/h.</desc>
<speed>3.540000</speed>
</trkpt>
<trkpt lat="56.085571" lon="26.580017">
<ele>92.364319</ele>
<time>2010-06-20T12:04:48Z</time>
<desc>lat.=56.085571, lon.=26.580017, Alt.=92.364319m. Speed=12.348000m/h.</desc>
<speed>3.430000</speed>
</trkpt>
<trkpt lat="56.085556" lon="26.580059">
<ele>92.247131</ele>
<time>2010-06-20T12:04:49Z</time>
<desc>lat.=56.085556, lon.=26.580059, Alt.=92.247131m. Speed=11.556000m/h.</desc>
<speed>3.210000</speed>
</trkpt>
<trkpt lat="56.085541" lon="26.580097">
<ele>92.237366</ele>
<time>2010-06-20T12:04:50Z</time>
<desc>lat.=56.085541, lon.=26.580097, Alt.=92.237366m. Speed=11.160000m/h.</desc>
<speed>3.100000</speed>
</trkpt>
<trkpt lat="56.085522" lon="26.580133">
<ele>92.231506</ele>
<time>2010-06-20T12:04:51Z</time>
<desc>lat.=56.085522, lon.=26.580133, Alt.=92.231506m. Speed=10.584000m/h.</desc>
<speed>2.940000</speed>
</trkpt>
<trkpt lat="56.085506" lon="26.580168">
<ele>92.165100</ele>
<time>2010-06-20T12:04:52Z</time>
<desc>lat.=56.085506, lon.=26.580168, Alt.=92.165100m. Speed=10.008000m/h.</desc>
<speed>2.780000</speed>
</trkpt>
<trkpt lat="56.085499" lon="26.580208">
<ele>92.272522</ele>
<time>2010-06-20T12:04:53Z</time>
<desc>lat.=56.085499, lon.=26.580208, Alt.=92.272522m. Speed=10.044000m/h.</desc>
<speed>2.790000</speed>
</trkpt>
<trkpt lat="56.085491" lon="26.580246">
<ele>92.325256</ele>
<time>2010-06-20T12:04:54Z</time>
<desc>lat.=56.085491, lon.=26.580246, Alt.=92.325256m. Speed=10.152000m/h.</desc>
<speed>2.820000</speed>
</trkpt>
<trkpt lat="56.085480" lon="26.580286">
<ele>92.393616</ele>
<time>2010-06-20T12:04:55Z</time>
<desc>lat.=56.085480, lon.=26.580286, Alt.=92.393616m. Speed=11.160000m/h.</desc>
<speed>3.100000</speed>
</trkpt>
<trkpt lat="56.085468" lon="26.580326">
<ele>92.512756</ele>
<time>2010-06-20T12:04:56Z</time>
<desc>lat.=56.085468, lon.=26.580326, Alt.=92.512756m. Speed=9.972000m/h.</desc>
<speed>2.770000</speed>
</trkpt>
<trkpt lat="56.085449" lon="26.580362">
<ele>92.586975</ele>
<time>2010-06-20T12:04:57Z</time>
<desc>lat.=56.085449, lon.=26.580362, Alt.=92.586975m. Speed=10.476000m/h.</desc>
<speed>2.910000</speed>
</trkpt>
<trkpt lat="56.085434" lon="26.580402">
<ele>92.618225</ele>
<time>2010-06-20T12:04:58Z</time>
<desc>lat.=56.085434, lon.=26.580402, Alt.=92.618225m. Speed=9.792000m/h.</desc>
<speed>2.720000</speed>
</trkpt>
<trkpt lat="56.085419" lon="26.580439">
<ele>92.674866</ele>
<time>2010-06-20T12:04:59Z</time>
<desc>lat.=56.085419, lon.=26.580439, Alt.=92.674866m. Speed=9.108000m/h.</desc>
<speed>2.530000</speed>
</trkpt>
<trkpt lat="56.085407" lon="26.580471">
<ele>92.420959</ele>
<time>2010-06-20T12:05:00Z</time>
<desc>lat.=56.085407, lon.=26.580471, Alt.=92.420959m. Speed=9.000000m/h.</desc>
<speed>2.500000</speed>
</trkpt>
<trkpt lat="56.085400" lon="26.580507">
<ele>92.559631</ele>
<time>2010-06-20T12:05:01Z</time>
<desc>lat.=56.085400, lon.=26.580507, Alt.=92.559631m. Speed=9.396000m/h.</desc>
<speed>2.610000</speed>
</trkpt>
<trkpt lat="56.085384" lon="26.580549">
<ele>92.760803</ele>
<time>2010-06-20T12:05:02Z</time>
<desc>lat.=56.085384, lon.=26.580549, Alt.=92.760803m. Speed=10.944000m/h.</desc>
<speed>3.040000</speed>
</trkpt>
<trkpt lat="56.085369" lon="26.580593">
<ele>92.901428</ele>
<time>2010-06-20T12:05:03Z</time>
<desc>lat.=56.085369, lon.=26.580593, Alt.=92.901428m. Speed=11.736000m/h.</desc>
<speed>3.260000</speed>
</trkpt>
<trkpt lat="56.085358" lon="26.580647">
<ele>92.858459</ele>
<time>2010-06-20T12:05:04Z</time>
<desc>lat.=56.085358, lon.=26.580647, Alt.=92.858459m. Speed=13.824000m/h.</desc>
<speed>3.840000</speed>
</trkpt>
<trkpt lat="56.085342" lon="26.580709">
<ele>92.848694</ele>
<time>2010-06-20T12:05:05Z</time>
<desc>lat.=56.085342, lon.=26.580709, Alt.=92.848694m. Speed=15.120000m/h.</desc>
<speed>4.200000</speed>
</trkpt>
<trkpt lat="56.085323" lon="26.580776">
<ele>92.602600</ele>
<time>2010-06-20T12:05:06Z</time>
<desc>lat.=56.085323, lon.=26.580776, Alt.=92.602600m. Speed=16.667999m/h.</desc>
<speed>4.630000</speed>
</trkpt>
<trkpt lat="56.085300" lon="26.580847">
<ele>92.342834</ele>
<time>2010-06-20T12:05:07Z</time>
<desc>lat.=56.085300, lon.=26.580847, Alt.=92.342834m. Speed=17.784000m/h.</desc>
<speed>4.940000</speed>
</trkpt>
<trkpt lat="56.085281" lon="26.580923">
<ele>91.983459</ele>
<time>2010-06-20T12:05:08Z</time>
<desc>lat.=56.085281, lon.=26.580923, Alt.=91.983459m. Speed=18.756001m/h.</desc>
<speed>5.210000</speed>
</trkpt>
<trkpt lat="56.085255" lon="26.581001">
<ele>91.846741</ele>
<time>2010-06-20T12:05:09Z</time>
<desc>lat.=56.085255, lon.=26.581001, Alt.=91.846741m. Speed=19.403999m/h.</desc>
<speed>5.390000</speed>
</trkpt>
<trkpt lat="56.085236" lon="26.581081">
<ele>91.694397</ele>
<time>2010-06-20T12:05:10Z</time>
<desc>lat.=56.085236, lon.=26.581081, Alt.=91.694397m. Speed=19.296000m/h.</desc>
<speed>5.360000</speed>
</trkpt>
<trkpt lat="56.085213" lon="26.581163">
<ele>91.588928</ele>
<time>2010-06-20T12:05:11Z</time>
<desc>lat.=56.085213, lon.=26.581163, Alt.=91.588928m. Speed=19.115999m/h.</desc>
<speed>5.310000</speed>
</trkpt>
<trkpt lat="56.085194" lon="26.581240">
<ele>91.684631</ele>
<time>2010-06-20T12:05:12Z</time>
<desc>lat.=56.085194, lon.=26.581240, Alt.=91.684631m. Speed=19.548000m/h.</desc>
<speed>5.430000</speed>
</trkpt>
<trkpt lat="56.085171" lon="26.581320">
<ele>91.610413</ele>
<time>2010-06-20T12:05:13Z</time>
<desc>lat.=56.085171, lon.=26.581320, Alt.=91.610413m. Speed=19.440001m/h.</desc>
<speed>5.400000</speed>
</trkpt>
<trkpt lat="56.085152" lon="26.581398">
<ele>91.551819</ele>
<time>2010-06-20T12:05:14Z</time>
<desc>lat.=56.085152, lon.=26.581398, Alt.=91.551819m. Speed=18.900000m/h.</desc>
<speed>5.250000</speed>
</trkpt>
<trkpt lat="56.085136" lon="26.581476">
<ele>91.710022</ele>
<time>2010-06-20T12:05:15Z</time>
<desc>lat.=56.085136, lon.=26.581476, Alt.=91.710022m. Speed=18.252001m/h.</desc>
<speed>5.070000</speed>
</trkpt>
<trkpt lat="56.085117" lon="26.581556">
<ele>91.956116</ele>
<time>2010-06-20T12:05:16Z</time>
<desc>lat.=56.085117, lon.=26.581556, Alt.=91.956116m. Speed=17.639999m/h.</desc>
<speed>4.900000</speed>
</trkpt>
<trkpt lat="56.085106" lon="26.581635">
<ele>91.897522</ele>
<time>2010-06-20T12:05:17Z</time>
<desc>lat.=56.085106, lon.=26.581635, Alt.=91.897522m. Speed=17.172001m/h.</desc>
<speed>4.770000</speed>
</trkpt>
<trkpt lat="56.085091" lon="26.581713">
<ele>91.985413</ele>
<time>2010-06-20T12:05:18Z</time>
<desc>lat.=56.085091, lon.=26.581713, Alt.=91.985413m. Speed=17.747999m/h.</desc>
<speed>4.930000</speed>
</trkpt>
<trkpt lat="56.085075" lon="26.581793">
<ele>92.012756</ele>
<time>2010-06-20T12:05:19Z</time>
<desc>lat.=56.085075, lon.=26.581793, Alt.=92.012756m. Speed=18.612000m/h.</desc>
<speed>5.170000</speed>
</trkpt>
<trkpt lat="56.085060" lon="26.581871">
<ele>91.954163</ele>
<time>2010-06-20T12:05:20Z</time>
<desc>lat.=56.085060, lon.=26.581871, Alt.=91.954163m. Speed=18.288000m/h.</desc>
<speed>5.080000</speed>
</trkpt>
<trkpt lat="56.085045" lon="26.581949">
<ele>92.241272</ele>
<time>2010-06-20T12:05:21Z</time>
<desc>lat.=56.085045, lon.=26.581949, Alt.=92.241272m. Speed=18.323999m/h.</desc>
<speed>5.090000</speed>
</trkpt>
<trkpt lat="56.085030" lon="26.582029">
<ele>92.641663</ele>
<time>2010-06-20T12:05:22Z</time>
<desc>lat.=56.085030, lon.=26.582029, Alt.=92.641663m. Speed=19.080000m/h.</desc>
<speed>5.300000</speed>
</trkpt>
<trkpt lat="56.085018" lon="26.582113">
<ele>92.708069</ele>
<time>2010-06-20T12:05:23Z</time>
<desc>lat.=56.085018, lon.=26.582113, Alt.=92.708069m. Speed=18.719999m/h.</desc>
<speed>5.200000</speed>
</trkpt>
<trkpt lat="56.085003" lon="26.582190">
<ele>92.973694</ele>
<time>2010-06-20T12:05:24Z</time>
<desc>lat.=56.085003, lon.=26.582190, Alt.=92.973694m. Speed=17.747999m/h.</desc>
<speed>4.930000</speed>
</trkpt>
<trkpt lat="56.084991" lon="26.582272">
<ele>96.983459</ele>
<time>2010-06-20T12:05:25Z</time>
<desc>lat.=56.084991, lon.=26.582272, Alt.=96.983459m. Speed=16.667999m/h.</desc>
<speed>4.630000</speed>
</trkpt>
<trkpt lat="56.084984" lon="26.582346">
<ele>97.573303</ele>
<time>2010-06-20T12:05:26Z</time>
<desc>lat.=56.084984, lon.=26.582346, Alt.=97.573303m. Speed=17.136000m/h.</desc>
<speed>4.760000</speed>
</trkpt>
<trkpt lat="56.084976" lon="26.582430">
<ele>98.381897</ele>
<time>2010-06-20T12:05:27Z</time>
<desc>lat.=56.084976, lon.=26.582430, Alt.=98.381897m. Speed=17.639999m/h.</desc>
<speed>4.900000</speed>
</trkpt>
<trkpt lat="56.084969" lon="26.582512">
<ele>97.825256</ele>
<time>2010-06-20T12:05:28Z</time>
<desc>lat.=56.084969, lon.=26.582512, Alt.=97.825256m. Speed=18.180000m/h.</desc>
<speed>5.050000</speed>
</trkpt>
<trkpt lat="56.084961" lon="26.582590">
<ele>98.651428</ele>
<time>2010-06-20T12:05:29Z</time>
<desc>lat.=56.084961, lon.=26.582590, Alt.=98.651428m. Speed=17.964001m/h.</desc>
<speed>4.990000</speed>
</trkpt>
<trkpt lat="56.084953" lon="26.582668">
<ele>98.481506</ele>
<time>2010-06-20T12:05:30Z</time>
<desc>lat.=56.084953, lon.=26.582668, Alt.=98.481506m. Speed=17.639999m/h.</desc>
<speed>4.900000</speed>
</trkpt>
<trkpt lat="56.084942" lon="26.582750">
<ele>99.204163</ele>
<time>2010-06-20T12:05:31Z</time>
<desc>lat.=56.084942, lon.=26.582750, Alt.=99.204163m. Speed=17.892000m/h.</desc>
<speed>4.970000</speed>
</trkpt>
<trkpt lat="56.084938" lon="26.582829">
<ele>99.356506</ele>
<time>2010-06-20T12:05:32Z</time>
<desc>lat.=56.084938, lon.=26.582829, Alt.=99.356506m. Speed=18.035999m/h.</desc>
<speed>5.010000</speed>
</trkpt>
<trkpt lat="56.084930" lon="26.582903">
<ele>99.477600</ele>
<time>2010-06-20T12:05:33Z</time>
<desc>lat.=56.084930, lon.=26.582903, Alt.=99.477600m. Speed=18.108000m/h.</desc>
<speed>5.030000</speed>
</trkpt>
<trkpt lat="56.084927" lon="26.582983">
<ele>99.678772</ele>
<time>2010-06-20T12:05:34Z</time>
<desc>lat.=56.084927, lon.=26.582983, Alt.=99.678772m. Speed=17.208000m/h.</desc>
<speed>4.780000</speed>
</trkpt>
<trkpt lat="56.084919" lon="26.583054">
<ele>99.686584</ele>
<time>2010-06-20T12:05:35Z</time>
<desc>lat.=56.084919, lon.=26.583054, Alt.=99.686584m. Speed=15.912000m/h.</desc>
<speed>4.420000</speed>
</trkpt>
<trkpt lat="56.084919" lon="26.583124">
<ele>99.725647</ele>
<time>2010-06-20T12:05:36Z</time>
<desc>lat.=56.084919, lon.=26.583124, Alt.=99.725647m. Speed=13.968000m/h.</desc>
<speed>3.880000</speed>
</trkpt>
<trkpt lat="56.084915" lon="26.583187">
<ele>99.809631</ele>
<time>2010-06-20T12:05:37Z</time>
<desc>lat.=56.084915, lon.=26.583187, Alt.=99.809631m. Speed=14.400000m/h.</desc>
<speed>4.000000</speed>
</trkpt>
<trkpt lat="56.084919" lon="26.583250">
<ele>100.012756</ele>
<time>2010-06-20T12:05:38Z</time>
<desc>lat.=56.084919, lon.=26.583250, Alt.=100.012756m. Speed=14.184000m/h.</desc>
<speed>3.940000</speed>
</trkpt>
<trkpt lat="56.084919" lon="26.583323">
<ele>99.934631</ele>
<time>2010-06-20T12:05:39Z</time>
<desc>lat.=56.084919, lon.=26.583323, Alt.=99.934631m. Speed=15.768000m/h.</desc>
<speed>4.380000</speed>
</trkpt>
<trkpt lat="56.084915" lon="26.583393">
<ele>99.434631</ele>
<time>2010-06-20T12:05:40Z</time>
<desc>lat.=56.084915, lon.=26.583393, Alt.=99.434631m. Speed=14.040000m/h.</desc>
<speed>3.900000</speed>
</trkpt>
<trkpt lat="56.084915" lon="26.583471">
<ele>99.065491</ele>
<time>2010-06-20T12:05:41Z</time>
<desc>lat.=56.084915, lon.=26.583471, Alt.=99.065491m. Speed=17.459999m/h.</desc>
<speed>4.850000</speed>
</trkpt>
<trkpt lat="56.084915" lon="26.583548">
<ele>98.788147</ele>
<time>2010-06-20T12:05:42Z</time>
<desc>lat.=56.084915, lon.=26.583548, Alt.=98.788147m. Speed=16.416000m/h.</desc>
<speed>4.560000</speed>
</trkpt>
<trkpt lat="56.084911" lon="26.583624">
<ele>98.442444</ele>
<time>2010-06-20T12:05:43Z</time>
<desc>lat.=56.084911, lon.=26.583624, Alt.=98.442444m. Speed=15.084000m/h.</desc>
<speed>4.190000</speed>
</trkpt>
<trkpt lat="56.084908" lon="26.583696">
<ele>98.090881</ele>
<time>2010-06-20T12:05:44Z</time>
<desc>lat.=56.084908, lon.=26.583696, Alt.=98.090881m. Speed=15.372000m/h.</desc>
<speed>4.270000</speed>
</trkpt>
<trkpt lat="56.084904" lon="26.583773">
<ele>97.887756</ele>
<time>2010-06-20T12:05:45Z</time>
<desc>lat.=56.084904, lon.=26.583773, Alt.=97.887756m. Speed=15.696000m/h.</desc>
<speed>4.360000</speed>
</trkpt>
<trkpt lat="56.084900" lon="26.583851">
<ele>98.077209</ele>
<time>2010-06-20T12:05:46Z</time>
<desc>lat.=56.084900, lon.=26.583851, Alt.=98.077209m. Speed=15.192000m/h.</desc>
<speed>4.220000</speed>
</trkpt>
<trkpt lat="56.084896" lon="26.583935">
<ele>98.221741</ele>
<time>2010-06-20T12:05:47Z</time>
<desc>lat.=56.084896, lon.=26.583935, Alt.=98.221741m. Speed=16.596001m/h.</desc>
<speed>4.610000</speed>
</trkpt>
<trkpt lat="56.084900" lon="26.584017">
<ele>98.733459</ele>
<time>2010-06-20T12:05:48Z</time>
<desc>lat.=56.084900, lon.=26.584017, Alt.=98.733459m. Speed=15.192000m/h.</desc>
<speed>4.220000</speed>
</trkpt>
<trkpt lat="56.084900" lon="26.584085">
<ele>98.657288</ele>
<time>2010-06-20T12:05:49Z</time>
<desc>lat.=56.084900, lon.=26.584085, Alt.=98.657288m. Speed=13.068000m/h.</desc>
<speed>3.630000</speed>
</trkpt>
<trkpt lat="56.084900" lon="26.584139">
<ele>98.370178</ele>
<time>2010-06-20T12:05:50Z</time>
<desc>lat.=56.084900, lon.=26.584139, Alt.=98.370178m. Speed=10.368000m/h.</desc>
<speed>2.880000</speed>
</trkpt>
<trkpt lat="56.084900" lon="26.584200">
<ele>98.510803</ele>
<time>2010-06-20T12:05:51Z</time>
<desc>lat.=56.084900, lon.=26.584200, Alt.=98.510803m. Speed=14.040000m/h.</desc>
<speed>3.900000</speed>
</trkpt>
<trkpt lat="56.084900" lon="26.584259">
<ele>98.739319</ele>
<time>2010-06-20T12:05:52Z</time>
<desc>lat.=56.084900, lon.=26.584259, Alt.=98.739319m. Speed=11.088000m/h.</desc>
<speed>3.080000</speed>
</trkpt>
<trkpt lat="56.084904" lon="26.584318">
<ele>98.752991</ele>
<time>2010-06-20T12:05:53Z</time>
<desc>lat.=56.084904, lon.=26.584318, Alt.=98.752991m. Speed=12.312000m/h.</desc>
<speed>3.420000</speed>
</trkpt>
<trkpt lat="56.084908" lon="26.584383">
<ele>98.592834</ele>
<time>2010-06-20T12:05:54Z</time>
<desc>lat.=56.084908, lon.=26.584383, Alt.=98.592834m. Speed=14.220000m/h.</desc>
<speed>3.950000</speed>
</trkpt>
<trkpt lat="56.084911" lon="26.584455">
<ele>97.969788</ele>
<time>2010-06-20T12:05:55Z</time>
<desc>lat.=56.084911, lon.=26.584455, Alt.=97.969788m. Speed=14.112000m/h.</desc>
<speed>3.920000</speed>
</trkpt>
<trkpt lat="56.084915" lon="26.584536">
<ele>97.415100</ele>
<time>2010-06-20T12:05:56Z</time>
<desc>lat.=56.084915, lon.=26.584536, Alt.=97.415100m. Speed=14.292000m/h.</desc>
<speed>3.970000</speed>
</trkpt>
<trkpt lat="56.084915" lon="26.584608">
<ele>97.018616</ele>
<time>2010-06-20T12:05:57Z</time>
<desc>lat.=56.084915, lon.=26.584608, Alt.=97.018616m. Speed=15.012000m/h.</desc>
<speed>4.170000</speed>
</trkpt>
<trkpt lat="56.084919" lon="26.584677">
<ele>96.635803</ele>
<time>2010-06-20T12:05:58Z</time>
<desc>lat.=56.084919, lon.=26.584677, Alt.=96.635803m. Speed=13.860000m/h.</desc>
<speed>3.850000</speed>
</trkpt>
<trkpt lat="56.084919" lon="26.584761">
<ele>96.520569</ele>
<time>2010-06-20T12:05:59Z</time>
<desc>lat.=56.084919, lon.=26.584761, Alt.=96.520569m. Speed=16.091999m/h.</desc>
<speed>4.470000</speed>
</trkpt>
<trkpt lat="56.084919" lon="26.584846">
<ele>96.475647</ele>
<time>2010-06-20T12:06:00Z</time>
<desc>lat.=56.084919, lon.=26.584846, Alt.=96.475647m. Speed=14.940000m/h.</desc>
<speed>4.150000</speed>
</trkpt>
<trkpt lat="56.084919" lon="26.584915">
<ele>96.149475</ele>
<time>2010-06-20T12:06:01Z</time>
<desc>lat.=56.084919, lon.=26.584915, Alt.=96.149475m. Speed=13.392000m/h.</desc>
<speed>3.720000</speed>
</trkpt>
<trkpt lat="56.084930" lon="26.584995">
<ele>96.754944</ele>
<time>2010-06-20T12:06:02Z</time>
<desc>lat.=56.084930, lon.=26.584995, Alt.=96.754944m. Speed=13.752000m/h.</desc>
<speed>3.820000</speed>
</trkpt>
<trkpt lat="56.084934" lon="26.585060">
<ele>97.344788</ele>
<time>2010-06-20T12:06:03Z</time>
<desc>lat.=56.084934, lon.=26.585060, Alt.=97.344788m. Speed=12.600000m/h.</desc>
<speed>3.500000</speed>
</trkpt>
<trkpt lat="56.084930" lon="26.585117">
<ele>98.032288</ele>
<time>2010-06-20T12:06:04Z</time>
<desc>lat.=56.084930, lon.=26.585117, Alt.=98.032288m. Speed=10.152000m/h.</desc>
<speed>2.820000</speed>
</trkpt>
<trkpt lat="56.084934" lon="26.585167">
<ele>98.139709</ele>
<time>2010-06-20T12:06:05Z</time>
<desc>lat.=56.084934, lon.=26.585167, Alt.=98.139709m. Speed=10.656000m/h.</desc>
<speed>2.960000</speed>
</trkpt>
<trkpt lat="56.084942" lon="26.585226">
<ele>98.290100</ele>
<time>2010-06-20T12:06:06Z</time>
<desc>lat.=56.084942, lon.=26.585226, Alt.=98.290100m. Speed=9.900000m/h.</desc>
<speed>2.750000</speed>
</trkpt>
<trkpt lat="56.084949" lon="26.585266">
<ele>98.071350</ele>
<time>2010-06-20T12:06:07Z</time>
<desc>lat.=56.084949, lon.=26.585266, Alt.=98.071350m. Speed=9.468000m/h.</desc>
<speed>2.630000</speed>
</trkpt>
<trkpt lat="56.084949" lon="26.585308">
<ele>97.710022</ele>
<time>2010-06-20T12:06:08Z</time>
<desc>lat.=56.084949, lon.=26.585308, Alt.=97.710022m. Speed=9.756000m/h.</desc>
<speed>2.710000</speed>
</trkpt>
<trkpt lat="56.084953" lon="26.585348">
<ele>97.624084</ele>
<time>2010-06-20T12:06:09Z</time>
<desc>lat.=56.084953, lon.=26.585348, Alt.=97.624084m. Speed=8.172000m/h.</desc>
<speed>2.270000</speed>
</trkpt>
<trkpt lat="56.084957" lon="26.585382">
<ele>97.059631</ele>
<time>2010-06-20T12:06:10Z</time>
<desc>lat.=56.084957, lon.=26.585382, Alt.=97.059631m. Speed=8.028000m/h.</desc>
<speed>2.230000</speed>
</trkpt>
<trkpt lat="56.084957" lon="26.585424">
<ele>96.272522</ele>
<time>2010-06-20T12:06:11Z</time>
<desc>lat.=56.084957, lon.=26.585424, Alt.=96.272522m. Speed=8.352000m/h.</desc>
<speed>2.320000</speed>
</trkpt>
<trkpt lat="56.084957" lon="26.585459">
<ele>95.889709</ele>
<time>2010-06-20T12:06:12Z</time>
<desc>lat.=56.084957, lon.=26.585459, Alt.=95.889709m. Speed=8.028000m/h.</desc>
<speed>2.230000</speed>
</trkpt>
<trkpt lat="56.084957" lon="26.585497">
<ele>95.803772</ele>
<time>2010-06-20T12:06:13Z</time>
<desc>lat.=56.084957, lon.=26.585497, Alt.=95.803772m. Speed=7.560000m/h.</desc>
<speed>2.100000</speed>
</trkpt>
<trkpt lat="56.084961" lon="26.585527">
<ele>96.163147</ele>
<time>2010-06-20T12:06:14Z</time>
<desc>lat.=56.084961, lon.=26.585527, Alt.=96.163147m. Speed=8.424000m/h.</desc>
<speed>2.340000</speed>
</trkpt>
<trkpt lat="56.084965" lon="26.585566">
<ele>96.110413</ele>
<time>2010-06-20T12:06:15Z</time>
<desc>lat.=56.084965, lon.=26.585566, Alt.=96.110413m. Speed=9.252000m/h.</desc>
<speed>2.570000</speed>
</trkpt>
<trkpt lat="56.084969" lon="26.585608">
<ele>96.073303</ele>
<time>2010-06-20T12:06:16Z</time>
<desc>lat.=56.084969, lon.=26.585608, Alt.=96.073303m. Speed=10.080000m/h.</desc>
<speed>2.800000</speed>
</trkpt>
<trkpt lat="56.084965" lon="26.585657">
<ele>96.467834</ele>
<time>2010-06-20T12:06:17Z</time>
<desc>lat.=56.084965, lon.=26.585657, Alt.=96.467834m. Speed=11.232000m/h.</desc>
<speed>3.120000</speed>
</trkpt>
<trkpt lat="56.084965" lon="26.585718">
<ele>96.721741</ele>
<time>2010-06-20T12:06:18Z</time>
<desc>lat.=56.084965, lon.=26.585718, Alt.=96.721741m. Speed=12.672000m/h.</desc>
<speed>3.520000</speed>
</trkpt>
<trkpt lat="56.084969" lon="26.585781">
<ele>97.403381</ele>
<time>2010-06-20T12:06:19Z</time>
<desc>lat.=56.084969, lon.=26.585781, Alt.=97.403381m. Speed=13.536000m/h.</desc>
<speed>3.760000</speed>
</trkpt>
<trkpt lat="56.084969" lon="26.585852">
<ele>97.612366</ele>
<time>2010-06-20T12:06:20Z</time>
<desc>lat.=56.084969, lon.=26.585852, Alt.=97.612366m. Speed=14.508000m/h.</desc>
<speed>4.030000</speed>
</trkpt>
<trkpt lat="56.084972" lon="26.585924">
<ele>97.213928</ele>
<time>2010-06-20T12:06:21Z</time>
<desc>lat.=56.084972, lon.=26.585924, Alt.=97.213928m. Speed=14.796000m/h.</desc>
<speed>4.110000</speed>
</trkpt>
<trkpt lat="56.084980" lon="26.586006">
<ele>97.495178</ele>
<time>2010-06-20T12:06:22Z</time>
<desc>lat.=56.084980, lon.=26.586006, Alt.=97.495178m. Speed=15.120000m/h.</desc>
<speed>4.200000</speed>
</trkpt>
<trkpt lat="56.084988" lon="26.586075">
<ele>97.434631</ele>
<time>2010-06-20T12:06:23Z</time>
<desc>lat.=56.084988, lon.=26.586075, Alt.=97.434631m. Speed=14.904000m/h.</desc>
<speed>4.140000</speed>
</trkpt>
<trkpt lat="56.084991" lon="26.586145">
<ele>97.626038</ele>
<time>2010-06-20T12:06:24Z</time>
<desc>lat.=56.084991, lon.=26.586145, Alt.=97.626038m. Speed=14.256000m/h.</desc>
<speed>3.960000</speed>
</trkpt>
<trkpt lat="56.084995" lon="26.586214">
<ele>97.540100</ele>
<time>2010-06-20T12:06:25Z</time>
<desc>lat.=56.084995, lon.=26.586214, Alt.=97.540100m. Speed=14.760000m/h.</desc>
<speed>4.100000</speed>
</trkpt>
<trkpt lat="56.084999" lon="26.586288">
<ele>97.877991</ele>
<time>2010-06-20T12:06:26Z</time>
<desc>lat.=56.084999, lon.=26.586288, Alt.=97.877991m. Speed=14.940000m/h.</desc>
<speed>4.150000</speed>
</trkpt>
<trkpt lat="56.084999" lon="26.586363">
<ele>98.098694</ele>
<time>2010-06-20T12:06:27Z</time>
<desc>lat.=56.084999, lon.=26.586363, Alt.=98.098694m. Speed=17.316000m/h.</desc>
<speed>4.810000</speed>
</trkpt>
<trkpt lat="56.084999" lon="26.586443">
<ele>98.155334</ele>
<time>2010-06-20T12:06:28Z</time>
<desc>lat.=56.084999, lon.=26.586443, Alt.=98.155334m. Speed=17.927999m/h.</desc>
<speed>4.980000</speed>
</trkpt>
<trkpt lat="56.085007" lon="26.586519">
<ele>98.192444</ele>
<time>2010-06-20T12:06:29Z</time>
<desc>lat.=56.085007, lon.=26.586519, Alt.=98.192444m. Speed=16.452000m/h.</desc>
<speed>4.570000</speed>
</trkpt>
<trkpt lat="56.085014" lon="26.586590">
<ele>98.282288</ele>
<time>2010-06-20T12:06:30Z</time>
<desc>lat.=56.085014, lon.=26.586590, Alt.=98.282288m. Speed=16.056000m/h.</desc>
<speed>4.460000</speed>
</trkpt>
<trkpt lat="56.085018" lon="26.586662">
<ele>99.163147</ele>
<time>2010-06-20T12:06:31Z</time>
<desc>lat.=56.085018, lon.=26.586662, Alt.=99.163147m. Speed=15.192000m/h.</desc>
<speed>4.220000</speed>
</trkpt>
<trkpt lat="56.085022" lon="26.586739">
<ele>99.758850</ele>
<time>2010-06-20T12:06:32Z</time>
<desc>lat.=56.085022, lon.=26.586739, Alt.=99.758850m. Speed=16.379999m/h.</desc>
<speed>4.550000</speed>
</trkpt>
<trkpt lat="56.085030" lon="26.586813">
<ele>100.024475</ele>
<time>2010-06-20T12:06:33Z</time>
<desc>lat.=56.085030, lon.=26.586813, Alt.=100.024475m. Speed=16.704000m/h.</desc>
<speed>4.640000</speed>
</trkpt>
<trkpt lat="56.085033" lon="26.586887">
<ele>100.364319</ele>
<time>2010-06-20T12:06:34Z</time>
<desc>lat.=56.085033, lon.=26.586887, Alt.=100.364319m. Speed=18.035999m/h.</desc>
<speed>5.010000</speed>
</trkpt>
<trkpt lat="56.085037" lon="26.586967">
<ele>100.417053</ele>
<time>2010-06-20T12:06:35Z</time>
<desc>lat.=56.085037, lon.=26.586967, Alt.=100.417053m. Speed=18.900000m/h.</desc>
<speed>5.250000</speed>
</trkpt>
<trkpt lat="56.085037" lon="26.587055">
<ele>100.085022</ele>
<time>2010-06-20T12:06:36Z</time>
<desc>lat.=56.085037, lon.=26.587055, Alt.=100.085022m. Speed=18.468000m/h.</desc>
<speed>5.130000</speed>
</trkpt>
<trkpt lat="56.085037" lon="26.587147">
<ele>100.151428</ele>
<time>2010-06-20T12:06:37Z</time>
<desc>lat.=56.085037, lon.=26.587147, Alt.=100.151428m. Speed=19.403999m/h.</desc>
<speed>5.390000</speed>
</trkpt>
<trkpt lat="56.085041" lon="26.587240">
<ele>100.895569</ele>
<time>2010-06-20T12:06:38Z</time>
<desc>lat.=56.085041, lon.=26.587240, Alt.=100.895569m. Speed=19.115999m/h.</desc>
<speed>5.310000</speed>
</trkpt>
<trkpt lat="56.085045" lon="26.587332">
<ele>101.358459</ele>
<time>2010-06-20T12:06:39Z</time>
<desc>lat.=56.085045, lon.=26.587332, Alt.=101.358459m. Speed=17.856001m/h.</desc>
<speed>4.960000</speed>
</trkpt>
<trkpt lat="56.085052" lon="26.587416">
<ele>101.377991</ele>
<time>2010-06-20T12:06:40Z</time>
<desc>lat.=56.085052, lon.=26.587416, Alt.=101.377991m. Speed=19.152000m/h.</desc>
<speed>5.320000</speed>
</trkpt>
<trkpt lat="56.085056" lon="26.587513">
<ele>101.235413</ele>
<time>2010-06-20T12:06:41Z</time>
<desc>lat.=56.085056, lon.=26.587513, Alt.=101.235413m. Speed=19.872000m/h.</desc>
<speed>5.520000</speed>
</trkpt>
<trkpt lat="56.085060" lon="26.587610">
<ele>101.254944</ele>
<time>2010-06-20T12:06:42Z</time>
<desc>lat.=56.085060, lon.=26.587610, Alt.=101.254944m. Speed=21.384001m/h.</desc>
<speed>5.940000</speed>
</trkpt>
<trkpt lat="56.085072" lon="26.587717">
<ele>101.854553</ele>
<time>2010-06-20T12:06:43Z</time>
<desc>lat.=56.085072, lon.=26.587717, Alt.=101.854553m. Speed=22.392000m/h.</desc>
<speed>6.220000</speed>
</trkpt>
<trkpt lat="56.085079" lon="26.587835">
<ele>102.801819</ele>
<time>2010-06-20T12:06:44Z</time>
<desc>lat.=56.085079, lon.=26.587835, Alt.=102.801819m. Speed=23.940001m/h.</desc>
<speed>6.650000</speed>
</trkpt>
<trkpt lat="56.085083" lon="26.587946">
<ele>103.169006</ele>
<time>2010-06-20T12:06:45Z</time>
<desc>lat.=56.085083, lon.=26.587946, Alt.=103.169006m. Speed=24.299999m/h.</desc>
<speed>6.750000</speed>
</trkpt>
<trkpt lat="56.085087" lon="26.588057">
<ele>103.407288</ele>
<time>2010-06-20T12:06:46Z</time>
<desc>lat.=56.085087, lon.=26.588057, Alt.=103.407288m. Speed=22.716000m/h.</desc>
<speed>6.310000</speed>
</trkpt>
<trkpt lat="56.085094" lon="26.588158">
<ele>104.268616</ele>
<time>2010-06-20T12:06:47Z</time>
<desc>lat.=56.085094, lon.=26.588158, Alt.=104.268616m. Speed=21.167999m/h.</desc>
<speed>5.880000</speed>
</trkpt>
<trkpt lat="56.085094" lon="26.588264">
<ele>105.045959</ele>
<time>2010-06-20T12:06:48Z</time>
<desc>lat.=56.085094, lon.=26.588264, Alt.=105.045959m. Speed=21.492001m/h.</desc>
<speed>5.970000</speed>
</trkpt>
<trkpt lat="56.085098" lon="26.588364">
<ele>105.235413</ele>
<time>2010-06-20T12:06:49Z</time>
<desc>lat.=56.085098, lon.=26.588364, Alt.=105.235413m. Speed=20.952000m/h.</desc>
<speed>5.820000</speed>
</trkpt>
<trkpt lat="56.085106" lon="26.588461">
<ele>105.573303</ele>
<time>2010-06-20T12:06:50Z</time>
<desc>lat.=56.085106, lon.=26.588461, Alt.=105.573303m. Speed=21.132000m/h.</desc>
<speed>5.870000</speed>
</trkpt>
<trkpt lat="56.085110" lon="26.588556">
<ele>105.708069</ele>
<time>2010-06-20T12:06:51Z</time>
<desc>lat.=56.085110, lon.=26.588556, Alt.=105.708069m. Speed=20.591999m/h.</desc>
<speed>5.720000</speed>
</trkpt>
<trkpt lat="56.085117" lon="26.588652">
<ele>105.549866</ele>
<time>2010-06-20T12:06:52Z</time>
<desc>lat.=56.085117, lon.=26.588652, Alt.=105.549866m. Speed=21.492001m/h.</desc>
<speed>5.970000</speed>
</trkpt>
<trkpt lat="56.085117" lon="26.588751">
<ele>105.231506</ele>
<time>2010-06-20T12:06:53Z</time>
<desc>lat.=56.085117, lon.=26.588751, Alt.=105.231506m. Speed=21.492001m/h.</desc>
<speed>5.970000</speed>
</trkpt>
<trkpt lat="56.085121" lon="26.588850">
<ele>105.184631</ele>
<time>2010-06-20T12:06:54Z</time>
<desc>lat.=56.085121, lon.=26.588850, Alt.=105.184631m. Speed=21.528000m/h.</desc>
<speed>5.980000</speed>
</trkpt>
<trkpt lat="56.085121" lon="26.588949">
<ele>105.206116</ele>
<time>2010-06-20T12:06:55Z</time>
<desc>lat.=56.085121, lon.=26.588949, Alt.=105.206116m. Speed=20.736000m/h.</desc>
<speed>5.760000</speed>
</trkpt>
<trkpt lat="56.085121" lon="26.589045">
<ele>106.049866</ele>
<time>2010-06-20T12:06:56Z</time>
<desc>lat.=56.085121, lon.=26.589045, Alt.=106.049866m. Speed=20.483999m/h.</desc>
<speed>5.690000</speed>
</trkpt>
<trkpt lat="56.085125" lon="26.589136">
<ele>106.116272</ele>
<time>2010-06-20T12:06:57Z</time>
<desc>lat.=56.085125, lon.=26.589136, Alt.=106.116272m. Speed=20.844000m/h.</desc>
<speed>5.790000</speed>
</trkpt>
<trkpt lat="56.085125" lon="26.589226">
<ele>106.547913</ele>
<time>2010-06-20T12:06:58Z</time>
<desc>lat.=56.085125, lon.=26.589226, Alt.=106.547913m. Speed=19.548000m/h.</desc>
<speed>5.430000</speed>
</trkpt>
<trkpt lat="56.085129" lon="26.589310">
<ele>106.629944</ele>
<time>2010-06-20T12:06:59Z</time>
<desc>lat.=56.085129, lon.=26.589310, Alt.=106.629944m. Speed=18.431999m/h.</desc>
<speed>5.120000</speed>
</trkpt>
<trkpt lat="56.085129" lon="26.589397">
<ele>107.657288</ele>
<time>2010-06-20T12:07:00Z</time>
<desc>lat.=56.085129, lon.=26.589397, Alt.=107.657288m. Speed=19.872000m/h.</desc>
<speed>5.520000</speed>
</trkpt>
<trkpt lat="56.085133" lon="26.589489">
<ele>108.085022</ele>
<time>2010-06-20T12:07:01Z</time>
<desc>lat.=56.085133, lon.=26.589489, Alt.=108.085022m. Speed=19.728001m/h.</desc>
<speed>5.480000</speed>
</trkpt>
<trkpt lat="56.085133" lon="26.589571">
<ele>107.407288</ele>
<time>2010-06-20T12:07:02Z</time>
<desc>lat.=56.085133, lon.=26.589571, Alt.=107.407288m. Speed=19.944000m/h.</desc>
<speed>5.540000</speed>
</trkpt>
<trkpt lat="56.085136" lon="26.589659">
<ele>106.989319</ele>
<time>2010-06-20T12:07:03Z</time>
<desc>lat.=56.085136, lon.=26.589659, Alt.=106.989319m. Speed=19.944000m/h.</desc>
<speed>5.540000</speed>
</trkpt>
<trkpt lat="56.085140" lon="26.589745">
<ele>106.788147</ele>
<time>2010-06-20T12:07:04Z</time>
<desc>lat.=56.085140, lon.=26.589745, Alt.=106.788147m. Speed=18.504000m/h.</desc>
<speed>5.140000</speed>
</trkpt>
<trkpt lat="56.085144" lon="26.589828">
<ele>106.477600</ele>
<time>2010-06-20T12:07:05Z</time>
<desc>lat.=56.085144, lon.=26.589828, Alt.=106.477600m. Speed=18.719999m/h.</desc>
<speed>5.200000</speed>
</trkpt>
<trkpt lat="56.085148" lon="26.589907">
<ele>106.241272</ele>
<time>2010-06-20T12:07:06Z</time>
<desc>lat.=56.085148, lon.=26.589907, Alt.=106.241272m. Speed=18.000000m/h.</desc>
<speed>5.000000</speed>
</trkpt>
<trkpt lat="56.085144" lon="26.589987">
<ele>105.682678</ele>
<time>2010-06-20T12:07:07Z</time>
<desc>lat.=56.085144, lon.=26.589987, Alt.=105.682678m. Speed=20.124001m/h.</desc>
<speed>5.590000</speed>
</trkpt>
<trkpt lat="56.085148" lon="26.590078">
<ele>105.377991</ele>
<time>2010-06-20T12:07:08Z</time>
<desc>lat.=56.085148, lon.=26.590078, Alt.=105.377991m. Speed=20.160000m/h.</desc>
<speed>5.600000</speed>
</trkpt>
<trkpt lat="56.085152" lon="26.590174">
<ele>105.051819</ele>
<time>2010-06-20T12:07:09Z</time>
<desc>lat.=56.085152, lon.=26.590174, Alt.=105.051819m. Speed=20.340000m/h.</desc>
<speed>5.650000</speed>
</trkpt>
<trkpt lat="56.085155" lon="26.590275">
<ele>104.823303</ele>
<time>2010-06-20T12:07:10Z</time>
<desc>lat.=56.085155, lon.=26.590275, Alt.=104.823303m. Speed=22.572001m/h.</desc>
<speed>6.270000</speed>
</trkpt>
<trkpt lat="56.085155" lon="26.590385">
<ele>104.723694</ele>
<time>2010-06-20T12:07:11Z</time>
<desc>lat.=56.085155, lon.=26.590385, Alt.=104.723694m. Speed=21.708000m/h.</desc>
<speed>6.030000</speed>
</trkpt>
<trkpt lat="56.085159" lon="26.590483">
<ele>104.803772</ele>
<time>2010-06-20T12:07:12Z</time>
<desc>lat.=56.085159, lon.=26.590483, Alt.=104.803772m. Speed=20.952000m/h.</desc>
<speed>5.820000</speed>
</trkpt>
<trkpt lat="56.085159" lon="26.590586">
<ele>105.309631</ele>
<time>2010-06-20T12:07:13Z</time>
<desc>lat.=56.085159, lon.=26.590586, Alt.=105.309631m. Speed=21.384001m/h.</desc>
<speed>5.940000</speed>
</trkpt>
<trkpt lat="56.085159" lon="26.590693">
<ele>105.752991</ele>
<time>2010-06-20T12:07:14Z</time>
<desc>lat.=56.085159, lon.=26.590693, Alt.=105.752991m. Speed=20.952000m/h.</desc>
<speed>5.820000</speed>
</trkpt>
<trkpt lat="56.085163" lon="26.590790">
<ele>106.178772</ele>
<time>2010-06-20T12:07:15Z</time>
<desc>lat.=56.085163, lon.=26.590790, Alt.=106.178772m. Speed=21.708000m/h.</desc>
<speed>6.030000</speed>
</trkpt>
<trkpt lat="56.085167" lon="26.590895">
<ele>105.461975</ele>
<time>2010-06-20T12:07:16Z</time>
<desc>lat.=56.085167, lon.=26.590895, Alt.=105.461975m. Speed=21.600000m/h.</desc>
<speed>6.000000</speed>
</trkpt>
<trkpt lat="56.085171" lon="26.590992">
<ele>106.016663</ele>
<time>2010-06-20T12:07:17Z</time>
<desc>lat.=56.085171, lon.=26.590992, Alt.=106.016663m. Speed=21.275999m/h.</desc>
<speed>5.910000</speed>
</trkpt>
<trkpt lat="56.085167" lon="26.591097">
<ele>105.676819</ele>
<time>2010-06-20T12:07:18Z</time>
<desc>lat.=56.085167, lon.=26.591097, Alt.=105.676819m. Speed=20.736000m/h.</desc>
<speed>5.760000</speed>
</trkpt>
<trkpt lat="56.085167" lon="26.591192">
<ele>105.999084</ele>
<time>2010-06-20T12:07:19Z</time>
<desc>lat.=56.085167, lon.=26.591192, Alt.=105.999084m. Speed=19.764000m/h.</desc>
<speed>5.490000</speed>
</trkpt>
<trkpt lat="56.085167" lon="26.591288">
<ele>105.163147</ele>
<time>2010-06-20T12:07:20Z</time>
<desc>lat.=56.085167, lon.=26.591288, Alt.=105.163147m. Speed=20.195999m/h.</desc>
<speed>5.610000</speed>
</trkpt>
<trkpt lat="56.085167" lon="26.591383">
<ele>105.680725</ele>
<time>2010-06-20T12:07:21Z</time>
<desc>lat.=56.085167, lon.=26.591383, Alt.=105.680725m. Speed=20.771999m/h.</desc>
<speed>5.770000</speed>
</trkpt>
<trkpt lat="56.085163" lon="26.591482">
<ele>105.653381</ele>
<time>2010-06-20T12:07:22Z</time>
<desc>lat.=56.085163, lon.=26.591482, Alt.=105.653381m. Speed=21.780001m/h.</desc>
<speed>6.050000</speed>
</trkpt>
<trkpt lat="56.085163" lon="26.591591">
<ele>104.973694</ele>
<time>2010-06-20T12:07:23Z</time>
<desc>lat.=56.085163, lon.=26.591591, Alt.=104.973694m. Speed=22.788000m/h.</desc>
<speed>6.330000</speed>
</trkpt>
<trkpt lat="56.085155" lon="26.591698">
<ele>104.596741</ele>
<time>2010-06-20T12:07:24Z</time>
<desc>lat.=56.085155, lon.=26.591698, Alt.=104.596741m. Speed=22.535999m/h.</desc>
<speed>6.260000</speed>
</trkpt>
<trkpt lat="56.085155" lon="26.591806">
<ele>104.424866</ele>
<time>2010-06-20T12:07:25Z</time>
<desc>lat.=56.085155, lon.=26.591806, Alt.=104.424866m. Speed=22.643999m/h.</desc>
<speed>6.290000</speed>
</trkpt>
<trkpt lat="56.085155" lon="26.591913">
<ele>104.256897</ele>
<time>2010-06-20T12:07:26Z</time>
<desc>lat.=56.085155, lon.=26.591913, Alt.=104.256897m. Speed=23.004000m/h.</desc>
<speed>6.390000</speed>
</trkpt>
<trkpt lat="56.085159" lon="26.592024">
<ele>104.100647</ele>
<time>2010-06-20T12:07:27Z</time>
<desc>lat.=56.085159, lon.=26.592024, Alt.=104.100647m. Speed=23.615999m/h.</desc>
<speed>6.560000</speed>
</trkpt>
<trkpt lat="56.085159" lon="26.592134">
<ele>104.243225</ele>
<time>2010-06-20T12:07:28Z</time>
<desc>lat.=56.085159, lon.=26.592134, Alt.=104.243225m. Speed=24.516001m/h.</desc>
<speed>6.810000</speed>
</trkpt>
<trkpt lat="56.085159" lon="26.592251">
<ele>104.172913</ele>
<time>2010-06-20T12:07:29Z</time>
<desc>lat.=56.085159, lon.=26.592251, Alt.=104.172913m. Speed=25.344000m/h.</desc>
<speed>7.040000</speed>
</trkpt>
<trkpt lat="56.085155" lon="26.592361">
<ele>103.887756</ele>
<time>2010-06-20T12:07:30Z</time>
<desc>lat.=56.085155, lon.=26.592361, Alt.=103.887756m. Speed=24.552000m/h.</desc>
<speed>6.820000</speed>
</trkpt>
<trkpt lat="56.085159" lon="26.592474">
<ele>103.850647</ele>
<time>2010-06-20T12:07:31Z</time>
<desc>lat.=56.085159, lon.=26.592474, Alt.=103.850647m. Speed=24.408001m/h.</desc>
<speed>6.780000</speed>
</trkpt>
<trkpt lat="56.085155" lon="26.592585">
<ele>103.729553</ele>
<time>2010-06-20T12:07:32Z</time>
<desc>lat.=56.085155, lon.=26.592585, Alt.=103.729553m. Speed=23.868000m/h.</desc>
<speed>6.630000</speed>
</trkpt>
<trkpt lat="56.085159" lon="26.592697">
<ele>104.588928</ele>
<time>2010-06-20T12:07:33Z</time>
<desc>lat.=56.085159, lon.=26.592697, Alt.=104.588928m. Speed=23.472000m/h.</desc>
<speed>6.520000</speed>
</trkpt>
<trkpt lat="56.085159" lon="26.592808">
<ele>104.397522</ele>
<time>2010-06-20T12:07:34Z</time>
<desc>lat.=56.085159, lon.=26.592808, Alt.=104.397522m. Speed=24.156000m/h.</desc>
<speed>6.710000</speed>
</trkpt>
<trkpt lat="56.085155" lon="26.592922">
<ele>104.217834</ele>
<time>2010-06-20T12:07:35Z</time>
<desc>lat.=56.085155, lon.=26.592922, Alt.=104.217834m. Speed=25.020000m/h.</desc>
<speed>6.950000</speed>
</trkpt>
<trkpt lat="56.085152" lon="26.593044">
<ele>103.899475</ele>
<time>2010-06-20T12:07:36Z</time>
<desc>lat.=56.085152, lon.=26.593044, Alt.=103.899475m. Speed=25.379999m/h.</desc>
<speed>7.050000</speed>
</trkpt>
<trkpt lat="56.085148" lon="26.593163">
<ele>103.639709</ele>
<time>2010-06-20T12:07:37Z</time>
<desc>lat.=56.085148, lon.=26.593163, Alt.=103.639709m. Speed=26.028000m/h.</desc>
<speed>7.230000</speed>
</trkpt>
<trkpt lat="56.085148" lon="26.593279">
<ele>103.682678</ele>
<time>2010-06-20T12:07:38Z</time>
<desc>lat.=56.085148, lon.=26.593279, Alt.=103.682678m. Speed=25.524000m/h.</desc>
<speed>7.090000</speed>
</trkpt>
<trkpt lat="56.085148" lon="26.593391">
<ele>103.510803</ele>
<time>2010-06-20T12:07:39Z</time>
<desc>lat.=56.085148, lon.=26.593391, Alt.=103.510803m. Speed=24.912001m/h.</desc>
<speed>6.920000</speed>
</trkpt>
<trkpt lat="56.085152" lon="26.593504">
<ele>103.401428</ele>
<time>2010-06-20T12:07:40Z</time>
<desc>lat.=56.085152, lon.=26.593504, Alt.=103.401428m. Speed=24.120001m/h.</desc>
<speed>6.700000</speed>
</trkpt>
<trkpt lat="56.085152" lon="26.593615">
<ele>103.307678</ele>
<time>2010-06-20T12:07:41Z</time>
<desc>lat.=56.085152, lon.=26.593615, Alt.=103.307678m. Speed=24.299999m/h.</desc>
<speed>6.750000</speed>
</trkpt>
<trkpt lat="56.085152" lon="26.593721">
<ele>103.127991</ele>
<time>2010-06-20T12:07:42Z</time>
<desc>lat.=56.085152, lon.=26.593721, Alt.=103.127991m. Speed=23.903999m/h.</desc>
<speed>6.640000</speed>
</trkpt>
<trkpt lat="56.085155" lon="26.593826">
<ele>103.030334</ele>
<time>2010-06-20T12:07:43Z</time>
<desc>lat.=56.085155, lon.=26.593826, Alt.=103.030334m. Speed=23.976000m/h.</desc>
<speed>6.660000</speed>
</trkpt>
<trkpt lat="56.085152" lon="26.593924">
<ele>102.633850</ele>
<time>2010-06-20T12:07:44Z</time>
<desc>lat.=56.085152, lon.=26.593924, Alt.=102.633850m. Speed=23.903999m/h.</desc>
<speed>6.640000</speed>
</trkpt>
<trkpt lat="56.085152" lon="26.594028">
<ele>103.010803</ele>
<time>2010-06-20T12:07:45Z</time>
<desc>lat.=56.085152, lon.=26.594028, Alt.=103.010803m. Speed=22.320000m/h.</desc>
<speed>6.200000</speed>
</trkpt>
<trkpt lat="56.085152" lon="26.594133">
<ele>103.268616</ele>
<time>2010-06-20T12:07:46Z</time>
<desc>lat.=56.085152, lon.=26.594133, Alt.=103.268616m. Speed=21.636000m/h.</desc>
<speed>6.010000</speed>
</trkpt>
<trkpt lat="56.085152" lon="26.594236">
<ele>103.344788</ele>
<time>2010-06-20T12:07:47Z</time>
<desc>lat.=56.085152, lon.=26.594236, Alt.=103.344788m. Speed=20.591999m/h.</desc>
<speed>5.720000</speed>
</trkpt>
<trkpt lat="56.085155" lon="26.594343">
<ele>104.192444</ele>
<time>2010-06-20T12:07:48Z</time>
<desc>lat.=56.085155, lon.=26.594343, Alt.=104.192444m. Speed=21.851999m/h.</desc>
<speed>6.070000</speed>
</trkpt>
<trkpt lat="56.085152" lon="26.594446">
<ele>104.063538</ele>
<time>2010-06-20T12:07:49Z</time>
<desc>lat.=56.085152, lon.=26.594446, Alt.=104.063538m. Speed=21.996000m/h.</desc>
<speed>6.110000</speed>
</trkpt>
<trkpt lat="56.085152" lon="26.594553">
<ele>104.237366</ele>
<time>2010-06-20T12:07:50Z</time>
<desc>lat.=56.085152, lon.=26.594553, Alt.=104.237366m. Speed=22.896000m/h.</desc>
<speed>6.360000</speed>
</trkpt>
<trkpt lat="56.085152" lon="26.594664">
<ele>104.592834</ele>
<time>2010-06-20T12:07:51Z</time>
<desc>lat.=56.085152, lon.=26.594664, Alt.=104.592834m. Speed=23.940001m/h.</desc>
<speed>6.650000</speed>
</trkpt>
<trkpt lat="56.085152" lon="26.594782">
<ele>105.061584</ele>
<time>2010-06-20T12:07:52Z</time>
<desc>lat.=56.085152, lon.=26.594782, Alt.=105.061584m. Speed=25.091999m/h.</desc>
<speed>6.970000</speed>
</trkpt>
<trkpt lat="56.085155" lon="26.594898">
<ele>105.270569</ele>
<time>2010-06-20T12:07:53Z</time>
<desc>lat.=56.085155, lon.=26.594898, Alt.=105.270569m. Speed=25.848000m/h.</desc>
<speed>7.180000</speed>
</trkpt>
<trkpt lat="56.085155" lon="26.595015">
<ele>105.661194</ele>
<time>2010-06-20T12:07:54Z</time>
<desc>lat.=56.085155, lon.=26.595015, Alt.=105.661194m. Speed=25.596001m/h.</desc>
<speed>7.110000</speed>
</trkpt>
<trkpt lat="56.085155" lon="26.595129">
<ele>105.971741</ele>
<time>2010-06-20T12:07:55Z</time>
<desc>lat.=56.085155, lon.=26.595129, Alt.=105.971741m. Speed=26.136000m/h.</desc>
<speed>7.260000</speed>
</trkpt>
<trkpt lat="56.085155" lon="26.595251">
<ele>106.104553</ele>
<time>2010-06-20T12:07:56Z</time>
<desc>lat.=56.085155, lon.=26.595251, Alt.=106.104553m. Speed=27.288000m/h.</desc>
<speed>7.580000</speed>
</trkpt>
<trkpt lat="56.085152" lon="26.595373">
<ele>106.608459</ele>
<time>2010-06-20T12:07:57Z</time>
<desc>lat.=56.085152, lon.=26.595373, Alt.=106.608459m. Speed=26.856001m/h.</desc>
<speed>7.460000</speed>
</trkpt>
<trkpt lat="56.085155" lon="26.595501">
<ele>106.419006</ele>
<time>2010-06-20T12:07:58Z</time>
<desc>lat.=56.085155, lon.=26.595501, Alt.=106.419006m. Speed=26.063999m/h.</desc>
<speed>7.240000</speed>
</trkpt>
<trkpt lat="56.085155" lon="26.595617">
<ele>106.631897</ele>
<time>2010-06-20T12:07:59Z</time>
<desc>lat.=56.085155, lon.=26.595617, Alt.=106.631897m. Speed=24.587999m/h.</desc>
<speed>6.830000</speed>
</trkpt>
<trkpt lat="56.085152" lon="26.595730">
<ele>106.036194</ele>
<time>2010-06-20T12:08:00Z</time>
<desc>lat.=56.085152, lon.=26.595730, Alt.=106.036194m. Speed=24.552000m/h.</desc>
<speed>6.820000</speed>
</trkpt>
<trkpt lat="56.085152" lon="26.595840">
<ele>105.995178</ele>
<time>2010-06-20T12:08:01Z</time>
<desc>lat.=56.085152, lon.=26.595840, Alt.=105.995178m. Speed=23.652000m/h.</desc>
<speed>6.570000</speed>
</trkpt>
<trkpt lat="56.085152" lon="26.595942">
<ele>106.098694</ele>
<time>2010-06-20T12:08:02Z</time>
<desc>lat.=56.085152, lon.=26.595942, Alt.=106.098694m. Speed=21.636000m/h.</desc>
<speed>6.010000</speed>
</trkpt>
<trkpt lat="56.085152" lon="26.596031">
<ele>106.264709</ele>
<time>2010-06-20T12:08:03Z</time>
<desc>lat.=56.085152, lon.=26.596031, Alt.=106.264709m. Speed=17.208000m/h.</desc>
<speed>4.780000</speed>
</trkpt>
<trkpt lat="56.085152" lon="26.596119">
<ele>106.264709</ele>
<time>2010-06-20T12:08:04Z</time>
<desc>lat.=56.085152, lon.=26.596119, Alt.=106.264709m. Speed=19.656000m/h.</desc>
<speed>5.460000</speed>
</trkpt>
<trkpt lat="56.085152" lon="26.596214">
<ele>106.266663</ele>
<time>2010-06-20T12:08:05Z</time>
<desc>lat.=56.085152, lon.=26.596214, Alt.=106.266663m. Speed=20.628000m/h.</desc>
<speed>5.730000</speed>
</trkpt>
<trkpt lat="56.085152" lon="26.596308">
<ele>106.153381</ele>
<time>2010-06-20T12:08:06Z</time>
<desc>lat.=56.085152, lon.=26.596308, Alt.=106.153381m. Speed=19.620001m/h.</desc>
<speed>5.450000</speed>
</trkpt>
<trkpt lat="56.085152" lon="26.596401">
<ele>105.858459</ele>
<time>2010-06-20T12:08:07Z</time>
<desc>lat.=56.085152, lon.=26.596401, Alt.=105.858459m. Speed=21.024000m/h.</desc>
<speed>5.840000</speed>
</trkpt>
<trkpt lat="56.085148" lon="26.596495">
<ele>105.340881</ele>
<time>2010-06-20T12:08:08Z</time>
<desc>lat.=56.085148, lon.=26.596495, Alt.=105.340881m. Speed=20.052000m/h.</desc>
<speed>5.570000</speed>
</trkpt>
<trkpt lat="56.085152" lon="26.596605">
<ele>104.829163</ele>
<time>2010-06-20T12:08:09Z</time>
<desc>lat.=56.085152, lon.=26.596605, Alt.=104.829163m. Speed=23.507999m/h.</desc>
<speed>6.530000</speed>
</trkpt>
<trkpt lat="56.085152" lon="26.596716">
<ele>104.176819</ele>
<time>2010-06-20T12:08:10Z</time>
<desc>lat.=56.085152, lon.=26.596716, Alt.=104.176819m. Speed=20.879999m/h.</desc>
<speed>5.800000</speed>
</trkpt>
<trkpt lat="56.085155" lon="26.596806">
<ele>103.272522</ele>
<time>2010-06-20T12:08:11Z</time>
<desc>lat.=56.085155, lon.=26.596806, Alt.=103.272522m. Speed=17.280001m/h.</desc>
<speed>4.800000</speed>
</trkpt>
<trkpt lat="56.085163" lon="26.596891">
<ele>102.942444</ele>
<time>2010-06-20T12:08:12Z</time>
<desc>lat.=56.085163, lon.=26.596891, Alt.=102.942444m. Speed=16.379999m/h.</desc>
<speed>4.550000</speed>
</trkpt>
<trkpt lat="56.085167" lon="26.596975">
<ele>103.161194</ele>
<time>2010-06-20T12:08:13Z</time>
<desc>lat.=56.085167, lon.=26.596975, Alt.=103.161194m. Speed=18.504000m/h.</desc>
<speed>5.140000</speed>
</trkpt>
<trkpt lat="56.085175" lon="26.597073">
<ele>103.557678</ele>
<time>2010-06-20T12:08:14Z</time>
<desc>lat.=56.085175, lon.=26.597073, Alt.=103.557678m. Speed=19.728001m/h.</desc>
<speed>5.480000</speed>
</trkpt>
<trkpt lat="56.085175" lon="26.597166">
<ele>103.278381</ele>
<time>2010-06-20T12:08:15Z</time>
<desc>lat.=56.085175, lon.=26.597166, Alt.=103.278381m. Speed=19.115999m/h.</desc>
<speed>5.310000</speed>
</trkpt>
<trkpt lat="56.085167" lon="26.597281">
<ele>103.286194</ele>
<time>2010-06-20T12:08:16Z</time>
<desc>lat.=56.085167, lon.=26.597281, Alt.=103.286194m. Speed=18.431999m/h.</desc>
<speed>5.120000</speed>
</trkpt>
<trkpt lat="56.085167" lon="26.597366">
<ele>103.292053</ele>
<time>2010-06-20T12:08:17Z</time>
<desc>lat.=56.085167, lon.=26.597366, Alt.=103.292053m. Speed=17.496000m/h.</desc>
<speed>4.860000</speed>
</trkpt>
<trkpt lat="56.085167" lon="26.597452">
<ele>102.905334</ele>
<time>2010-06-20T12:08:18Z</time>
<desc>lat.=56.085167, lon.=26.597452, Alt.=102.905334m. Speed=16.848000m/h.</desc>
<speed>4.680000</speed>
</trkpt>
<trkpt lat="56.085163" lon="26.597542">
<ele>102.954163</ele>
<time>2010-06-20T12:08:19Z</time>
<desc>lat.=56.085163, lon.=26.597542, Alt.=102.954163m. Speed=18.108000m/h.</desc>
<speed>5.030000</speed>
</trkpt>
<trkpt lat="56.085163" lon="26.597635">
<ele>102.801819</ele>
<time>2010-06-20T12:08:20Z</time>
<desc>lat.=56.085163, lon.=26.597635, Alt.=102.801819m. Speed=18.360001m/h.</desc>
<speed>5.100000</speed>
</trkpt>
<trkpt lat="56.085163" lon="26.597721">
<ele>103.110413</ele>
<time>2010-06-20T12:08:21Z</time>
<desc>lat.=56.085163, lon.=26.597721, Alt.=103.110413m. Speed=19.224001m/h.</desc>
<speed>5.340000</speed>
</trkpt>
<trkpt lat="56.085159" lon="26.597813">
<ele>103.159241</ele>
<time>2010-06-20T12:08:22Z</time>
<desc>lat.=56.085159, lon.=26.597813, Alt.=103.159241m. Speed=19.044001m/h.</desc>
<speed>5.290000</speed>
</trkpt>
<trkpt lat="56.085159" lon="26.597904">
<ele>102.866272</ele>
<time>2010-06-20T12:08:23Z</time>
<desc>lat.=56.085159, lon.=26.597904, Alt.=102.866272m. Speed=20.808001m/h.</desc>
<speed>5.780000</speed>
</trkpt>
<trkpt lat="56.085159" lon="26.598007">
<ele>103.085022</ele>
<time>2010-06-20T12:08:24Z</time>
<desc>lat.=56.085159, lon.=26.598007, Alt.=103.085022m. Speed=20.483999m/h.</desc>
<speed>5.690000</speed>
</trkpt>
<trkpt lat="56.085155" lon="26.598106">
<ele>103.635803</ele>
<time>2010-06-20T12:08:25Z</time>
<desc>lat.=56.085155, lon.=26.598106, Alt.=103.635803m. Speed=21.024000m/h.</desc>
<speed>5.840000</speed>
</trkpt>
<trkpt lat="56.085155" lon="26.598200">
<ele>103.725647</ele>
<time>2010-06-20T12:08:26Z</time>
<desc>lat.=56.085155, lon.=26.598200, Alt.=103.725647m. Speed=20.412001m/h.</desc>
<speed>5.670000</speed>
</trkpt>
<trkpt lat="56.085155" lon="26.598303">
<ele>103.741272</ele>
<time>2010-06-20T12:08:27Z</time>
<desc>lat.=56.085155, lon.=26.598303, Alt.=103.741272m. Speed=22.139999m/h.</desc>
<speed>6.150000</speed>
</trkpt>
<trkpt lat="56.085159" lon="26.598408">
<ele>104.155334</ele>
<time>2010-06-20T12:08:28Z</time>
<desc>lat.=56.085159, lon.=26.598408, Alt.=104.155334m. Speed=23.040001m/h.</desc>
<speed>6.400000</speed>
</trkpt>
<trkpt lat="56.085159" lon="26.598511">
<ele>104.813538</ele>
<time>2010-06-20T12:08:29Z</time>
<desc>lat.=56.085159, lon.=26.598511, Alt.=104.813538m. Speed=22.608000m/h.</desc>
<speed>6.280000</speed>
</trkpt>
<trkpt lat="56.085159" lon="26.598612">
<ele>104.860413</ele>
<time>2010-06-20T12:08:30Z</time>
<desc>lat.=56.085159, lon.=26.598612, Alt.=104.860413m. Speed=23.004000m/h.</desc>
<speed>6.390000</speed>
</trkpt>
<trkpt lat="56.085155" lon="26.598707">
<ele>104.823303</ele>
<time>2010-06-20T12:08:31Z</time>
<desc>lat.=56.085155, lon.=26.598707, Alt.=104.823303m. Speed=21.312000m/h.</desc>
<speed>5.920000</speed>
</trkpt>
<trkpt lat="56.085155" lon="26.598801">
<ele>104.741272</ele>
<time>2010-06-20T12:08:32Z</time>
<desc>lat.=56.085155, lon.=26.598801, Alt.=104.741272m. Speed=20.304001m/h.</desc>
<speed>5.640000</speed>
</trkpt>
<trkpt lat="56.085159" lon="26.598892">
<ele>104.825256</ele>
<time>2010-06-20T12:08:33Z</time>
<desc>lat.=56.085159, lon.=26.598892, Alt.=104.825256m. Speed=19.584000m/h.</desc>
<speed>5.440000</speed>
</trkpt>
<trkpt lat="56.085163" lon="26.598978">
<ele>104.627991</ele>
<time>2010-06-20T12:08:34Z</time>
<desc>lat.=56.085163, lon.=26.598978, Alt.=104.627991m. Speed=18.756001m/h.</desc>
<speed>5.210000</speed>
</trkpt>
<trkpt lat="56.085163" lon="26.599072">
<ele>104.858459</ele>
<time>2010-06-20T12:08:35Z</time>
<desc>lat.=56.085163, lon.=26.599072, Alt.=104.858459m. Speed=19.656000m/h.</desc>
<speed>5.460000</speed>
</trkpt>
<trkpt lat="56.085163" lon="26.599159">
<ele>104.516663</ele>
<time>2010-06-20T12:08:36Z</time>
<desc>lat.=56.085163, lon.=26.599159, Alt.=104.516663m. Speed=19.548000m/h.</desc>
<speed>5.430000</speed>
</trkpt>
<trkpt lat="56.085159" lon="26.599255">
<ele>104.042053</ele>
<time>2010-06-20T12:08:37Z</time>
<desc>lat.=56.085159, lon.=26.599255, Alt.=104.042053m. Speed=20.736000m/h.</desc>
<speed>5.760000</speed>
</trkpt>
<trkpt lat="56.085163" lon="26.599350">
<ele>103.663147</ele>
<time>2010-06-20T12:08:38Z</time>
<desc>lat.=56.085163, lon.=26.599350, Alt.=103.663147m. Speed=20.016001m/h.</desc>
<speed>5.560000</speed>
</trkpt>
<trkpt lat="56.085163" lon="26.599447">
<ele>104.001038</ele>
<time>2010-06-20T12:08:39Z</time>
<desc>lat.=56.085163, lon.=26.599447, Alt.=104.001038m. Speed=20.556000m/h.</desc>
<speed>5.710000</speed>
</trkpt>
<trkpt lat="56.085167" lon="26.599539">
<ele>103.272522</ele>
<time>2010-06-20T12:08:40Z</time>
<desc>lat.=56.085167, lon.=26.599539, Alt.=103.272522m. Speed=20.016001m/h.</desc>
<speed>5.560000</speed>
</trkpt>
<trkpt lat="56.085171" lon="26.599630">
<ele>103.311584</ele>
<time>2010-06-20T12:08:41Z</time>
<desc>lat.=56.085171, lon.=26.599630, Alt.=103.311584m. Speed=19.224001m/h.</desc>
<speed>5.340000</speed>
</trkpt>
<trkpt lat="56.085167" lon="26.599722">
<ele>103.450256</ele>
<time>2010-06-20T12:08:42Z</time>
<desc>lat.=56.085167, lon.=26.599722, Alt.=103.450256m. Speed=19.403999m/h.</desc>
<speed>5.390000</speed>
</trkpt>
<trkpt lat="56.085167" lon="26.599802">
<ele>102.909241</ele>
<time>2010-06-20T12:08:43Z</time>
<desc>lat.=56.085167, lon.=26.599802, Alt.=102.909241m. Speed=18.000000m/h.</desc>
<speed>5.000000</speed>
</trkpt>
<trkpt lat="56.085167" lon="26.599882">
<ele>103.157288</ele>
<time>2010-06-20T12:08:44Z</time>
<desc>lat.=56.085167, lon.=26.599882, Alt.=103.157288m. Speed=18.216000m/h.</desc>
<speed>5.060000</speed>
</trkpt>
<trkpt lat="56.085171" lon="26.599957">
<ele>102.848694</ele>
<time>2010-06-20T12:08:45Z</time>
<desc>lat.=56.085171, lon.=26.599957, Alt.=102.848694m. Speed=16.559999m/h.</desc>
<speed>4.600000</speed>
</trkpt>
<trkpt lat="56.085171" lon="26.600029">
<ele>102.524475</ele>
<time>2010-06-20T12:08:46Z</time>
<desc>lat.=56.085171, lon.=26.600029, Alt.=102.524475m. Speed=15.912000m/h.</desc>
<speed>4.420000</speed>
</trkpt>
<trkpt lat="56.085171" lon="26.600100">
<ele>101.706116</ele>
<time>2010-06-20T12:08:47Z</time>
<desc>lat.=56.085171, lon.=26.600100, Alt.=101.706116m. Speed=15.516000m/h.</desc>
<speed>4.310000</speed>
</trkpt>
<trkpt lat="56.085175" lon="26.600172">
<ele>101.557678</ele>
<time>2010-06-20T12:08:48Z</time>
<desc>lat.=56.085175, lon.=26.600172, Alt.=101.557678m. Speed=16.740000m/h.</desc>
<speed>4.650000</speed>
</trkpt>
<trkpt lat="56.085171" lon="26.600252">
<ele>101.266663</ele>
<time>2010-06-20T12:08:49Z</time>
<desc>lat.=56.085171, lon.=26.600252, Alt.=101.266663m. Speed=17.388000m/h.</desc>
<speed>4.830000</speed>
</trkpt>
<trkpt lat="56.085171" lon="26.600327">
<ele>101.362366</ele>
<time>2010-06-20T12:08:50Z</time>
<desc>lat.=56.085171, lon.=26.600327, Alt.=101.362366m. Speed=15.012000m/h.</desc>
<speed>4.170000</speed>
</trkpt>
<trkpt lat="56.085171" lon="26.600409">
<ele>101.120178</ele>
<time>2010-06-20T12:08:51Z</time>
<desc>lat.=56.085171, lon.=26.600409, Alt.=101.120178m. Speed=18.719999m/h.</desc>
<speed>5.200000</speed>
</trkpt>
<trkpt lat="56.085175" lon="26.600492">
<ele>101.249084</ele>
<time>2010-06-20T12:08:52Z</time>
<desc>lat.=56.085175, lon.=26.600492, Alt.=101.249084m. Speed=19.296000m/h.</desc>
<speed>5.360000</speed>
</trkpt>
<trkpt lat="56.085175" lon="26.600588">
<ele>101.155334</ele>
<time>2010-06-20T12:08:53Z</time>
<desc>lat.=56.085175, lon.=26.600588, Alt.=101.155334m. Speed=18.864000m/h.</desc>
<speed>5.240000</speed>
</trkpt>
<trkpt lat="56.085171" lon="26.600681">
<ele>100.204163</ele>
<time>2010-06-20T12:08:54Z</time>
<desc>lat.=56.085171, lon.=26.600681, Alt.=100.204163m. Speed=19.007999m/h.</desc>
<speed>5.280000</speed>
</trkpt>
<trkpt lat="56.085171" lon="26.600769">
<ele>99.491272</ele>
<time>2010-06-20T12:08:55Z</time>
<desc>lat.=56.085171, lon.=26.600769, Alt.=99.491272m. Speed=17.604000m/h.</desc>
<speed>4.890000</speed>
</trkpt>
<trkpt lat="56.085171" lon="26.600851">
<ele>98.915100</ele>
<time>2010-06-20T12:08:56Z</time>
<desc>lat.=56.085171, lon.=26.600851, Alt.=98.915100m. Speed=17.280001m/h.</desc>
<speed>4.800000</speed>
</trkpt>
<trkpt lat="56.085175" lon="26.600924">
<ele>98.239319</ele>
<time>2010-06-20T12:08:57Z</time>
<desc>lat.=56.085175, lon.=26.600924, Alt.=98.239319m. Speed=15.552000m/h.</desc>
<speed>4.320000</speed>
</trkpt>
<trkpt lat="56.085175" lon="26.600998">
<ele>97.569397</ele>
<time>2010-06-20T12:08:58Z</time>
<desc>lat.=56.085175, lon.=26.600998, Alt.=97.569397m. Speed=17.172001m/h.</desc>
<speed>4.770000</speed>
</trkpt>
<trkpt lat="56.085171" lon="26.601074">
<ele>97.383850</ele>
<time>2010-06-20T12:08:59Z</time>
<desc>lat.=56.085171, lon.=26.601074, Alt.=97.383850m. Speed=16.775999m/h.</desc>
<speed>4.660000</speed>
</trkpt>
<trkpt lat="56.085171" lon="26.601173">
<ele>98.049866</ele>
<time>2010-06-20T12:09:00Z</time>
<desc>lat.=56.085171, lon.=26.601173, Alt.=98.049866m. Speed=18.323999m/h.</desc>
<speed>5.090000</speed>
</trkpt>
<trkpt lat="56.085167" lon="26.601261">
<ele>98.776428</ele>
<time>2010-06-20T12:09:01Z</time>
<desc>lat.=56.085167, lon.=26.601261, Alt.=98.776428m. Speed=17.172001m/h.</desc>
<speed>4.770000</speed>
</trkpt>
<trkpt lat="56.085163" lon="26.601353">
<ele>98.919006</ele>
<time>2010-06-20T12:09:02Z</time>
<desc>lat.=56.085163, lon.=26.601353, Alt.=98.919006m. Speed=18.684000m/h.</desc>
<speed>5.190000</speed>
</trkpt>
<trkpt lat="56.085163" lon="26.601440">
<ele>98.764709</ele>
<time>2010-06-20T12:09:03Z</time>
<desc>lat.=56.085163, lon.=26.601440, Alt.=98.764709m. Speed=19.368000m/h.</desc>
<speed>5.380000</speed>
</trkpt>
<trkpt lat="56.085159" lon="26.601532">
<ele>98.313538</ele>
<time>2010-06-20T12:09:04Z</time>
<desc>lat.=56.085159, lon.=26.601532, Alt.=98.313538m. Speed=19.511999m/h.</desc>
<speed>5.420000</speed>
</trkpt>
<trkpt lat="56.085163" lon="26.601627">
<ele>98.233459</ele>
<time>2010-06-20T12:09:05Z</time>
<desc>lat.=56.085163, lon.=26.601627, Alt.=98.233459m. Speed=21.312000m/h.</desc>
<speed>5.920000</speed>
</trkpt>
<trkpt lat="56.085159" lon="26.601730">
<ele>99.159241</ele>
<time>2010-06-20T12:09:06Z</time>
<desc>lat.=56.085159, lon.=26.601730, Alt.=99.159241m. Speed=20.988001m/h.</desc>
<speed>5.830000</speed>
</trkpt>
<trkpt lat="56.085159" lon="26.601831">
<ele>100.114319</ele>
<time>2010-06-20T12:09:07Z</time>
<desc>lat.=56.085159, lon.=26.601831, Alt.=100.114319m. Speed=20.700001m/h.</desc>
<speed>5.750000</speed>
</trkpt>
<trkpt lat="56.085159" lon="26.601927">
<ele>100.034241</ele>
<time>2010-06-20T12:09:08Z</time>
<desc>lat.=56.085159, lon.=26.601927, Alt.=100.034241m. Speed=20.412001m/h.</desc>
<speed>5.670000</speed>
</trkpt>
<trkpt lat="56.085163" lon="26.602024">
<ele>100.788147</ele>
<time>2010-06-20T12:09:09Z</time>
<desc>lat.=56.085163, lon.=26.602024, Alt.=100.788147m. Speed=19.944000m/h.</desc>
<speed>5.540000</speed>
</trkpt>
<trkpt lat="56.085163" lon="26.602118">
<ele>100.987366</ele>
<time>2010-06-20T12:09:10Z</time>
<desc>lat.=56.085163, lon.=26.602118, Alt.=100.987366m. Speed=20.052000m/h.</desc>
<speed>5.570000</speed>
</trkpt>
<trkpt lat="56.085163" lon="26.602211">
<ele>101.096741</ele>
<time>2010-06-20T12:09:11Z</time>
<desc>lat.=56.085163, lon.=26.602211, Alt.=101.096741m. Speed=21.096001m/h.</desc>
<speed>5.860000</speed>
</trkpt>
<trkpt lat="56.085163" lon="26.602308">
<ele>101.131897</ele>
<time>2010-06-20T12:09:12Z</time>
<desc>lat.=56.085163, lon.=26.602308, Alt.=101.131897m. Speed=21.096001m/h.</desc>
<speed>5.860000</speed>
</trkpt>
<trkpt lat="56.085163" lon="26.602413">
<ele>101.501038</ele>
<time>2010-06-20T12:09:13Z</time>
<desc>lat.=56.085163, lon.=26.602413, Alt.=101.501038m. Speed=21.096001m/h.</desc>
<speed>5.860000</speed>
</trkpt>
<trkpt lat="56.085163" lon="26.602512">
<ele>101.731506</ele>
<time>2010-06-20T12:09:14Z</time>
<desc>lat.=56.085163, lon.=26.602512, Alt.=101.731506m. Speed=21.275999m/h.</desc>
<speed>5.910000</speed>
</trkpt>
<trkpt lat="56.085163" lon="26.602610">
<ele>100.745178</ele>
<time>2010-06-20T12:09:15Z</time>
<desc>lat.=56.085163, lon.=26.602610, Alt.=100.745178m. Speed=21.132000m/h.</desc>
<speed>5.870000</speed>
</trkpt>
<trkpt lat="56.085163" lon="26.602705">
<ele>100.924866</ele>
<time>2010-06-20T12:09:16Z</time>
<desc>lat.=56.085163, lon.=26.602705, Alt.=100.924866m. Speed=21.059999m/h.</desc>
<speed>5.850000</speed>
</trkpt>
<trkpt lat="56.085163" lon="26.602806">
<ele>100.743225</ele>
<time>2010-06-20T12:09:17Z</time>
<desc>lat.=56.085163, lon.=26.602806, Alt.=100.743225m. Speed=20.628000m/h.</desc>
<speed>5.730000</speed>
</trkpt>
<trkpt lat="56.085167" lon="26.602903">
<ele>100.764709</ele>
<time>2010-06-20T12:09:18Z</time>
<desc>lat.=56.085167, lon.=26.602903, Alt.=100.764709m. Speed=21.924000m/h.</desc>
<speed>6.090000</speed>
</trkpt>
<trkpt lat="56.085167" lon="26.603001">
<ele>100.790100</ele>
<time>2010-06-20T12:09:19Z</time>
<desc>lat.=56.085167, lon.=26.603001, Alt.=100.790100m. Speed=21.959999m/h.</desc>
<speed>6.100000</speed>
</trkpt>
<trkpt lat="56.085167" lon="26.603106">
<ele>100.309631</ele>
<time>2010-06-20T12:09:20Z</time>
<desc>lat.=56.085167, lon.=26.603106, Alt.=100.309631m. Speed=22.860001m/h.</desc>
<speed>6.350000</speed>
</trkpt>
<trkpt lat="56.085171" lon="26.603207">
<ele>99.208069</ele>
<time>2010-06-20T12:09:21Z</time>
<desc>lat.=56.085171, lon.=26.603207, Alt.=99.208069m. Speed=23.040001m/h.</desc>
<speed>6.400000</speed>
</trkpt>
<trkpt lat="56.085171" lon="26.603313">
<ele>99.807678</ele>
<time>2010-06-20T12:09:22Z</time>
<desc>lat.=56.085171, lon.=26.603313, Alt.=99.807678m. Speed=23.040001m/h.</desc>
<speed>6.400000</speed>
</trkpt>
<trkpt lat="56.085175" lon="26.603418">
<ele>99.620178</ele>
<time>2010-06-20T12:09:23Z</time>
<desc>lat.=56.085175, lon.=26.603418, Alt.=99.620178m. Speed=22.284000m/h.</desc>
<speed>6.190000</speed>
</trkpt>
<trkpt lat="56.085178" lon="26.603523">
<ele>99.901428</ele>
<time>2010-06-20T12:09:24Z</time>
<desc>lat.=56.085178, lon.=26.603523, Alt.=99.901428m. Speed=22.752001m/h.</desc>
<speed>6.320000</speed>
</trkpt>
<trkpt lat="56.085175" lon="26.603626">
<ele>100.266663</ele>
<time>2010-06-20T12:09:25Z</time>
<desc>lat.=56.085175, lon.=26.603626, Alt.=100.266663m. Speed=22.356001m/h.</desc>
<speed>6.210000</speed>
</trkpt>
<trkpt lat="56.085175" lon="26.603725">
<ele>100.030334</ele>
<time>2010-06-20T12:09:26Z</time>
<desc>lat.=56.085175, lon.=26.603725, Alt.=100.030334m. Speed=21.528000m/h.</desc>
<speed>5.980000</speed>
</trkpt>
<trkpt lat="56.085175" lon="26.603813">
<ele>100.606506</ele>
<time>2010-06-20T12:09:27Z</time>
<desc>lat.=56.085175, lon.=26.603813, Alt.=100.606506m. Speed=20.556000m/h.</desc>
<speed>5.710000</speed>
</trkpt>
<trkpt lat="56.085175" lon="26.603910">
<ele>100.460022</ele>
<time>2010-06-20T12:09:28Z</time>
<desc>lat.=56.085175, lon.=26.603910, Alt.=100.460022m. Speed=20.232000m/h.</desc>
<speed>5.620000</speed>
</trkpt>
<trkpt lat="56.085182" lon="26.604000">
<ele>100.577209</ele>
<time>2010-06-20T12:09:29Z</time>
<desc>lat.=56.085182, lon.=26.604000, Alt.=100.577209m. Speed=19.691999m/h.</desc>
<speed>5.470000</speed>
</trkpt>
<trkpt lat="56.085182" lon="26.604086">
<ele>100.573303</ele>
<time>2010-06-20T12:09:30Z</time>
<desc>lat.=56.085182, lon.=26.604086, Alt.=100.573303m. Speed=18.540001m/h.</desc>
<speed>5.150000</speed>
</trkpt>
<trkpt lat="56.085186" lon="26.604172">
<ele>100.585022</ele>
<time>2010-06-20T12:09:31Z</time>
<desc>lat.=56.085186, lon.=26.604172, Alt.=100.585022m. Speed=19.368000m/h.</desc>
<speed>5.380000</speed>
</trkpt>
<trkpt lat="56.085186" lon="26.604254">
<ele>100.727600</ele>
<time>2010-06-20T12:09:32Z</time>
<desc>lat.=56.085186, lon.=26.604254, Alt.=100.727600m. Speed=17.784000m/h.</desc>
<speed>4.940000</speed>
</trkpt>
<trkpt lat="56.085186" lon="26.604328">
<ele>100.768616</ele>
<time>2010-06-20T12:09:33Z</time>
<desc>lat.=56.085186, lon.=26.604328, Alt.=100.768616m. Speed=16.452000m/h.</desc>
<speed>4.570000</speed>
</trkpt>
<trkpt lat="56.085186" lon="26.604401">
<ele>100.745178</ele>
<time>2010-06-20T12:09:34Z</time>
<desc>lat.=56.085186, lon.=26.604401, Alt.=100.745178m. Speed=17.604000m/h.</desc>
<speed>4.890000</speed>
</trkpt>
<trkpt lat="56.085182" lon="26.604483">
<ele>100.475647</ele>
<time>2010-06-20T12:09:35Z</time>
<desc>lat.=56.085182, lon.=26.604483, Alt.=100.475647m. Speed=18.072001m/h.</desc>
<speed>5.020000</speed>
</trkpt>
<trkpt lat="56.085182" lon="26.604576">
<ele>101.307678</ele>
<time>2010-06-20T12:09:36Z</time>
<desc>lat.=56.085182, lon.=26.604576, Alt.=101.307678m. Speed=20.124001m/h.</desc>
<speed>5.590000</speed>
</trkpt>
<trkpt lat="56.085178" lon="26.604662">
<ele>101.534241</ele>
<time>2010-06-20T12:09:37Z</time>
<desc>lat.=56.085178, lon.=26.604662, Alt.=101.534241m. Speed=19.152000m/h.</desc>
<speed>5.320000</speed>
</trkpt>
<trkpt lat="56.085171" lon="26.604744">
<ele>102.018616</ele>
<time>2010-06-20T12:09:38Z</time>
<desc>lat.=56.085171, lon.=26.604744, Alt.=102.018616m. Speed=18.972000m/h.</desc>
<speed>5.270000</speed>
</trkpt>
<trkpt lat="56.085163" lon="26.604832">
<ele>101.680725</ele>
<time>2010-06-20T12:09:39Z</time>
<desc>lat.=56.085163, lon.=26.604832, Alt.=101.680725m. Speed=19.080000m/h.</desc>
<speed>5.300000</speed>
</trkpt>
<trkpt lat="56.085159" lon="26.604919">
<ele>101.926819</ele>
<time>2010-06-20T12:09:40Z</time>
<desc>lat.=56.085159, lon.=26.604919, Alt.=101.926819m. Speed=19.511999m/h.</desc>
<speed>5.420000</speed>
</trkpt>
<trkpt lat="56.085155" lon="26.605007">
<ele>102.417053</ele>
<time>2010-06-20T12:09:41Z</time>
<desc>lat.=56.085155, lon.=26.605007, Alt.=102.417053m. Speed=19.296000m/h.</desc>
<speed>5.360000</speed>
</trkpt>
<trkpt lat="56.085152" lon="26.605103">
<ele>102.969788</ele>
<time>2010-06-20T12:09:42Z</time>
<desc>lat.=56.085152, lon.=26.605103, Alt.=102.969788m. Speed=20.520000m/h.</desc>
<speed>5.700000</speed>
</trkpt>
<trkpt lat="56.085148" lon="26.605198">
<ele>103.233459</ele>
<time>2010-06-20T12:09:43Z</time>
<desc>lat.=56.085148, lon.=26.605198, Alt.=103.233459m. Speed=20.412001m/h.</desc>
<speed>5.670000</speed>
</trkpt>
<trkpt lat="56.085144" lon="26.605284">
<ele>103.772522</ele>
<time>2010-06-20T12:09:44Z</time>
<desc>lat.=56.085144, lon.=26.605284, Alt.=103.772522m. Speed=17.676001m/h.</desc>
<speed>4.910000</speed>
</trkpt>
<trkpt lat="56.085140" lon="26.605362">
<ele>104.282288</ele>
<time>2010-06-20T12:09:45Z</time>
<desc>lat.=56.085140, lon.=26.605362, Alt.=104.282288m. Speed=17.568001m/h.</desc>
<speed>4.880000</speed>
</trkpt>
<trkpt lat="56.085133" lon="26.605444">
<ele>104.702209</ele>
<time>2010-06-20T12:09:46Z</time>
<desc>lat.=56.085133, lon.=26.605444, Alt.=104.702209m. Speed=18.035999m/h.</desc>
<speed>5.010000</speed>
</trkpt>
<trkpt lat="56.085125" lon="26.605526">
<ele>105.381897</ele>
<time>2010-06-20T12:09:47Z</time>
<desc>lat.=56.085125, lon.=26.605526, Alt.=105.381897m. Speed=17.784000m/h.</desc>
<speed>4.940000</speed>
</trkpt>
<trkpt lat="56.085117" lon="26.605604">
<ele>106.235413</ele>
<time>2010-06-20T12:09:48Z</time>
<desc>lat.=56.085117, lon.=26.605604, Alt.=106.235413m. Speed=16.955999m/h.</desc>
<speed>4.710000</speed>
</trkpt>
<trkpt lat="56.085110" lon="26.605682">
<ele>106.647522</ele>
<time>2010-06-20T12:09:49Z</time>
<desc>lat.=56.085110, lon.=26.605682, Alt.=106.647522m. Speed=16.667999m/h.</desc>
<speed>4.630000</speed>
</trkpt>
<trkpt lat="56.085106" lon="26.605753">
<ele>106.936584</ele>
<time>2010-06-20T12:09:50Z</time>
<desc>lat.=56.085106, lon.=26.605753, Alt.=106.936584m. Speed=15.228000m/h.</desc>
<speed>4.230000</speed>
</trkpt>
<trkpt lat="56.085098" lon="26.605816">
<ele>107.133850</ele>
<time>2010-06-20T12:09:51Z</time>
<desc>lat.=56.085098, lon.=26.605816, Alt.=107.133850m. Speed=13.356000m/h.</desc>
<speed>3.710000</speed>
</trkpt>
<trkpt lat="56.085087" lon="26.605871">
<ele>106.932678</ele>
<time>2010-06-20T12:09:52Z</time>
<desc>lat.=56.085087, lon.=26.605871, Alt.=106.932678m. Speed=10.764000m/h.</desc>
<speed>2.990000</speed>
</trkpt>
<trkpt lat="56.085079" lon="26.605927">
<ele>107.256897</ele>
<time>2010-06-20T12:09:53Z</time>
<desc>lat.=56.085079, lon.=26.605927, Alt.=107.256897m. Speed=14.364000m/h.</desc>
<speed>3.990000</speed>
</trkpt>
<trkpt lat="56.085072" lon="26.605988">
<ele>107.526428</ele>
<time>2010-06-20T12:09:54Z</time>
<desc>lat.=56.085072, lon.=26.605988, Alt.=107.526428m. Speed=13.788000m/h.</desc>
<speed>3.830000</speed>
</trkpt>
<trkpt lat="56.085068" lon="26.606062">
<ele>108.305725</ele>
<time>2010-06-20T12:09:55Z</time>
<desc>lat.=56.085068, lon.=26.606062, Alt.=108.305725m. Speed=14.436000m/h.</desc>
<speed>4.010000</speed>
</trkpt>
<trkpt lat="56.085060" lon="26.606133">
<ele>108.612366</ele>
<time>2010-06-20T12:09:56Z</time>
<desc>lat.=56.085060, lon.=26.606133, Alt.=108.612366m. Speed=14.472000m/h.</desc>
<speed>4.020000</speed>
</trkpt>
<trkpt lat="56.085049" lon="26.606205">
<ele>108.321350</ele>
<time>2010-06-20T12:09:57Z</time>
<desc>lat.=56.085049, lon.=26.606205, Alt.=108.321350m. Speed=15.228000m/h.</desc>
<speed>4.230000</speed>
</trkpt>
<trkpt lat="56.085041" lon="26.606287">
<ele>109.001038</ele>
<time>2010-06-20T12:09:58Z</time>
<desc>lat.=56.085041, lon.=26.606287, Alt.=109.001038m. Speed=16.667999m/h.</desc>
<speed>4.630000</speed>
</trkpt>
<trkpt lat="56.085030" lon="26.606365">
<ele>109.340881</ele>
<time>2010-06-20T12:09:59Z</time>
<desc>lat.=56.085030, lon.=26.606365, Alt.=109.340881m. Speed=15.660000m/h.</desc>
<speed>4.350000</speed>
</trkpt>
<trkpt lat="56.085014" lon="26.606445">
<ele>108.977600</ele>
<time>2010-06-20T12:10:00Z</time>
<desc>lat.=56.085014, lon.=26.606445, Alt.=108.977600m. Speed=18.288000m/h.</desc>
<speed>5.080000</speed>
</trkpt>
<trkpt lat="56.085007" lon="26.606537">
<ele>109.251038</ele>
<time>2010-06-20T12:10:01Z</time>
<desc>lat.=56.085007, lon.=26.606537, Alt.=109.251038m. Speed=18.936001m/h.</desc>
<speed>5.260000</speed>
</trkpt>
<trkpt lat="56.084995" lon="26.606623">
<ele>108.694397</ele>
<time>2010-06-20T12:10:02Z</time>
<desc>lat.=56.084995, lon.=26.606623, Alt.=108.694397m. Speed=17.568001m/h.</desc>
<speed>4.880000</speed>
</trkpt>
<trkpt lat="56.084980" lon="26.606707">
<ele>109.077209</ele>
<time>2010-06-20T12:10:03Z</time>
<desc>lat.=56.084980, lon.=26.606707, Alt.=109.077209m. Speed=18.900000m/h.</desc>
<speed>5.250000</speed>
</trkpt>
<trkpt lat="56.084961" lon="26.606787">
<ele>109.001038</ele>
<time>2010-06-20T12:10:04Z</time>
<desc>lat.=56.084961, lon.=26.606787, Alt.=109.001038m. Speed=18.468000m/h.</desc>
<speed>5.130000</speed>
</trkpt>
<trkpt lat="56.084942" lon="26.606865">
<ele>108.719788</ele>
<time>2010-06-20T12:10:05Z</time>
<desc>lat.=56.084942, lon.=26.606865, Alt.=108.719788m. Speed=17.388000m/h.</desc>
<speed>4.830000</speed>
</trkpt>
<trkpt lat="56.084930" lon="26.606934">
<ele>109.071350</ele>
<time>2010-06-20T12:10:06Z</time>
<desc>lat.=56.084930, lon.=26.606934, Alt.=109.071350m. Speed=16.416000m/h.</desc>
<speed>4.560000</speed>
</trkpt>
<trkpt lat="56.084919" lon="26.607000">
<ele>108.430725</ele>
<time>2010-06-20T12:10:07Z</time>
<desc>lat.=56.084919, lon.=26.607000, Alt.=108.430725m. Speed=15.588000m/h.</desc>
<speed>4.330000</speed>
</trkpt>
<trkpt lat="56.084904" lon="26.607077">
<ele>108.608459</ele>
<time>2010-06-20T12:10:08Z</time>
<desc>lat.=56.084904, lon.=26.607077, Alt.=108.608459m. Speed=16.559999m/h.</desc>
<speed>4.600000</speed>
</trkpt>
<trkpt lat="56.084892" lon="26.607151">
<ele>108.192444</ele>
<time>2010-06-20T12:10:09Z</time>
<desc>lat.=56.084892, lon.=26.607151, Alt.=108.192444m. Speed=15.876000m/h.</desc>
<speed>4.410000</speed>
</trkpt>
<trkpt lat="56.084873" lon="26.607229">
<ele>108.407288</ele>
<time>2010-06-20T12:10:10Z</time>
<desc>lat.=56.084873, lon.=26.607229, Alt.=108.407288m. Speed=18.576000m/h.</desc>
<speed>5.160000</speed>
</trkpt>
<trkpt lat="56.084850" lon="26.607304">
<ele>108.327209</ele>
<time>2010-06-20T12:10:11Z</time>
<desc>lat.=56.084850, lon.=26.607304, Alt.=108.327209m. Speed=18.000000m/h.</desc>
<speed>5.000000</speed>
</trkpt>
<trkpt lat="56.084835" lon="26.607384">
<ele>108.903381</ele>
<time>2010-06-20T12:10:12Z</time>
<desc>lat.=56.084835, lon.=26.607384, Alt.=108.903381m. Speed=19.080000m/h.</desc>
<speed>5.300000</speed>
</trkpt>
<trkpt lat="56.084816" lon="26.607466">
<ele>109.303772</ele>
<time>2010-06-20T12:10:13Z</time>
<desc>lat.=56.084816, lon.=26.607466, Alt.=109.303772m. Speed=19.332001m/h.</desc>
<speed>5.370000</speed>
</trkpt>
<trkpt lat="56.084793" lon="26.607546">
<ele>108.758850</ele>
<time>2010-06-20T12:10:14Z</time>
<desc>lat.=56.084793, lon.=26.607546, Alt.=108.758850m. Speed=19.260000m/h.</desc>
<speed>5.350000</speed>
</trkpt>
<trkpt lat="56.084774" lon="26.607620">
<ele>107.803772</ele>
<time>2010-06-20T12:10:15Z</time>
<desc>lat.=56.084774, lon.=26.607620, Alt.=107.803772m. Speed=16.955999m/h.</desc>
<speed>4.710000</speed>
</trkpt>
<trkpt lat="56.084759" lon="26.607691">
<ele>107.788147</ele>
<time>2010-06-20T12:10:16Z</time>
<desc>lat.=56.084759, lon.=26.607691, Alt.=107.788147m. Speed=17.927999m/h.</desc>
<speed>4.980000</speed>
</trkpt>
<trkpt lat="56.084736" lon="26.607765">
<ele>105.977600</ele>
<time>2010-06-20T12:10:17Z</time>
<desc>lat.=56.084736, lon.=26.607765, Alt.=105.977600m. Speed=18.035999m/h.</desc>
<speed>5.010000</speed>
</trkpt>
<trkpt lat="56.084713" lon="26.607843">
<ele>105.454163</ele>
<time>2010-06-20T12:10:18Z</time>
<desc>lat.=56.084713, lon.=26.607843, Alt.=105.454163m. Speed=17.639999m/h.</desc>
<speed>4.900000</speed>
</trkpt>
<trkpt lat="56.084690" lon="26.607918">
<ele>104.653381</ele>
<time>2010-06-20T12:10:19Z</time>
<desc>lat.=56.084690, lon.=26.607918, Alt.=104.653381m. Speed=16.920000m/h.</desc>
<speed>4.700000</speed>
</trkpt>
<trkpt lat="56.084663" lon="26.607990">
<ele>104.342834</ele>
<time>2010-06-20T12:10:20Z</time>
<desc>lat.=56.084663, lon.=26.607990, Alt.=104.342834m. Speed=18.000000m/h.</desc>
<speed>5.000000</speed>
</trkpt>
<trkpt lat="56.084637" lon="26.608070">
<ele>103.790100</ele>
<time>2010-06-20T12:10:21Z</time>
<desc>lat.=56.084637, lon.=26.608070, Alt.=103.790100m. Speed=19.728001m/h.</desc>
<speed>5.480000</speed>
</trkpt>
<trkpt lat="56.084610" lon="26.608152">
<ele>103.376038</ele>
<time>2010-06-20T12:10:22Z</time>
<desc>lat.=56.084610, lon.=26.608152, Alt.=103.376038m. Speed=20.268000m/h.</desc>
<speed>5.630000</speed>
</trkpt>
<trkpt lat="56.084583" lon="26.608238">
<ele>102.864319</ele>
<time>2010-06-20T12:10:23Z</time>
<desc>lat.=56.084583, lon.=26.608238, Alt.=102.864319m. Speed=20.520000m/h.</desc>
<speed>5.700000</speed>
</trkpt>
<trkpt lat="56.084553" lon="26.608324">
<ele>103.252991</ele>
<time>2010-06-20T12:10:24Z</time>
<desc>lat.=56.084553, lon.=26.608324, Alt.=103.252991m. Speed=20.412001m/h.</desc>
<speed>5.670000</speed>
</trkpt>
<trkpt lat="56.084526" lon="26.608404">
<ele>103.561584</ele>
<time>2010-06-20T12:10:25Z</time>
<desc>lat.=56.084526, lon.=26.608404, Alt.=103.561584m. Speed=19.836000m/h.</desc>
<speed>5.510000</speed>
</trkpt>
<trkpt lat="56.084503" lon="26.608479">
<ele>103.965881</ele>
<time>2010-06-20T12:10:26Z</time>
<desc>lat.=56.084503, lon.=26.608479, Alt.=103.965881m. Speed=19.332001m/h.</desc>
<speed>5.370000</speed>
</trkpt>
<trkpt lat="56.084476" lon="26.608559">
<ele>104.270569</ele>
<time>2010-06-20T12:10:27Z</time>
<desc>lat.=56.084476, lon.=26.608559, Alt.=104.270569m. Speed=20.124001m/h.</desc>
<speed>5.590000</speed>
</trkpt>
<trkpt lat="56.084446" lon="26.608639">
<ele>104.995178</ele>
<time>2010-06-20T12:10:28Z</time>
<desc>lat.=56.084446, lon.=26.608639, Alt.=104.995178m. Speed=20.916000m/h.</desc>
<speed>5.810000</speed>
</trkpt>
<trkpt lat="56.084419" lon="26.608717">
<ele>105.467834</ele>
<time>2010-06-20T12:10:29Z</time>
<desc>lat.=56.084419, lon.=26.608717, Alt.=105.467834m. Speed=20.448000m/h.</desc>
<speed>5.680000</speed>
</trkpt>
<trkpt lat="56.084389" lon="26.608795">
<ele>105.747131</ele>
<time>2010-06-20T12:10:30Z</time>
<desc>lat.=56.084389, lon.=26.608795, Alt.=105.747131m. Speed=21.275999m/h.</desc>
<speed>5.910000</speed>
</trkpt>
<trkpt lat="56.084358" lon="26.608887">
<ele>105.374084</ele>
<time>2010-06-20T12:10:31Z</time>
<desc>lat.=56.084358, lon.=26.608887, Alt.=105.374084m. Speed=22.643999m/h.</desc>
<speed>6.290000</speed>
</trkpt>
<trkpt lat="56.084320" lon="26.608978">
<ele>104.827209</ele>
<time>2010-06-20T12:10:32Z</time>
<desc>lat.=56.084320, lon.=26.608978, Alt.=104.827209m. Speed=22.608000m/h.</desc>
<speed>6.280000</speed>
</trkpt>
<trkpt lat="56.084286" lon="26.609060">
<ele>104.387756</ele>
<time>2010-06-20T12:10:33Z</time>
<desc>lat.=56.084286, lon.=26.609060, Alt.=104.387756m. Speed=21.492001m/h.</desc>
<speed>5.970000</speed>
</trkpt>
<trkpt lat="56.084255" lon="26.609133">
<ele>103.006897</ele>
<time>2010-06-20T12:10:34Z</time>
<desc>lat.=56.084255, lon.=26.609133, Alt.=103.006897m. Speed=20.340000m/h.</desc>
<speed>5.650000</speed>
</trkpt>
<trkpt lat="56.084225" lon="26.609205">
<ele>103.262756</ele>
<time>2010-06-20T12:10:35Z</time>
<desc>lat.=56.084225, lon.=26.609205, Alt.=103.262756m. Speed=19.584000m/h.</desc>
<speed>5.440000</speed>
</trkpt>
<trkpt lat="56.084194" lon="26.609272">
<ele>103.180725</ele>
<time>2010-06-20T12:10:36Z</time>
<desc>lat.=56.084194, lon.=26.609272, Alt.=103.180725m. Speed=18.827999m/h.</desc>
<speed>5.230000</speed>
</trkpt>
<trkpt lat="56.084164" lon="26.609333">
<ele>102.770569</ele>
<time>2010-06-20T12:10:37Z</time>
<desc>lat.=56.084164, lon.=26.609333, Alt.=102.770569m. Speed=17.676001m/h.</desc>
<speed>4.910000</speed>
</trkpt>
<trkpt lat="56.084148" lon="26.609396">
<ele>102.413147</ele>
<time>2010-06-20T12:10:38Z</time>
<desc>lat.=56.084148, lon.=26.609396, Alt.=102.413147m. Speed=14.400000m/h.</desc>
<speed>4.000000</speed>
</trkpt>
<trkpt lat="56.084129" lon="26.609453">
<ele>101.973694</ele>
<time>2010-06-20T12:10:39Z</time>
<desc>lat.=56.084129, lon.=26.609453, Alt.=101.973694m. Speed=15.048000m/h.</desc>
<speed>4.180000</speed>
</trkpt>
<trkpt lat="56.084106" lon="26.609514">
<ele>102.348694</ele>
<time>2010-06-20T12:10:40Z</time>
<desc>lat.=56.084106, lon.=26.609514, Alt.=102.348694m. Speed=15.264000m/h.</desc>
<speed>4.240000</speed>
</trkpt>
<trkpt lat="56.084084" lon="26.609570">
<ele>102.165100</ele>
<time>2010-06-20T12:10:41Z</time>
<desc>lat.=56.084084, lon.=26.609570, Alt.=102.165100m. Speed=15.480000m/h.</desc>
<speed>4.300000</speed>
</trkpt>
<trkpt lat="56.084057" lon="26.609615">
<ele>100.573303</ele>
<time>2010-06-20T12:10:42Z</time>
<desc>lat.=56.084057, lon.=26.609615, Alt.=100.573303m. Speed=14.724000m/h.</desc>
<speed>4.090000</speed>
</trkpt>
<trkpt lat="56.084034" lon="26.609653">
<ele>100.674866</ele>
<time>2010-06-20T12:10:43Z</time>
<desc>lat.=56.084034, lon.=26.609653, Alt.=100.674866m. Speed=13.212000m/h.</desc>
<speed>3.670000</speed>
</trkpt>
<trkpt lat="56.084007" lon="26.609705">
<ele>100.286194</ele>
<time>2010-06-20T12:10:44Z</time>
<desc>lat.=56.084007, lon.=26.609705, Alt.=100.286194m. Speed=14.472000m/h.</desc>
<speed>4.020000</speed>
</trkpt>
<trkpt lat="56.083984" lon="26.609762">
<ele>98.044006</ele>
<time>2010-06-20T12:10:45Z</time>
<desc>lat.=56.083984, lon.=26.609762, Alt.=98.044006m. Speed=13.680000m/h.</desc>
<speed>3.800000</speed>
</trkpt>
<trkpt lat="56.083961" lon="26.609819">
<ele>97.868225</ele>
<time>2010-06-20T12:10:46Z</time>
<desc>lat.=56.083961, lon.=26.609819, Alt.=97.868225m. Speed=12.780000m/h.</desc>
<speed>3.550000</speed>
</trkpt>
<trkpt lat="56.083942" lon="26.609871">
<ele>98.223694</ele>
<time>2010-06-20T12:10:47Z</time>
<desc>lat.=56.083942, lon.=26.609871, Alt.=98.223694m. Speed=12.960000m/h.</desc>
<speed>3.600000</speed>
</trkpt>
<trkpt lat="56.083923" lon="26.609922">
<ele>98.354553</ele>
<time>2010-06-20T12:10:48Z</time>
<desc>lat.=56.083923, lon.=26.609922, Alt.=98.354553m. Speed=13.032000m/h.</desc>
<speed>3.620000</speed>
</trkpt>
<trkpt lat="56.083900" lon="26.609970">
<ele>98.792053</ele>
<time>2010-06-20T12:10:49Z</time>
<desc>lat.=56.083900, lon.=26.609970, Alt.=98.792053m. Speed=12.024000m/h.</desc>
<speed>3.340000</speed>
</trkpt>
<trkpt lat="56.083885" lon="26.610018">
<ele>99.211975</ele>
<time>2010-06-20T12:10:50Z</time>
<desc>lat.=56.083885, lon.=26.610018, Alt.=99.211975m. Speed=11.844000m/h.</desc>
<speed>3.290000</speed>
</trkpt>
<trkpt lat="56.083870" lon="26.610069">
<ele>99.249084</ele>
<time>2010-06-20T12:10:51Z</time>
<desc>lat.=56.083870, lon.=26.610069, Alt.=99.249084m. Speed=12.348000m/h.</desc>
<speed>3.430000</speed>
</trkpt>
<trkpt lat="56.083855" lon="26.610123">
<ele>98.889709</ele>
<time>2010-06-20T12:10:52Z</time>
<desc>lat.=56.083855, lon.=26.610123, Alt.=98.889709m. Speed=12.888000m/h.</desc>
<speed>3.580000</speed>
</trkpt>
<trkpt lat="56.083832" lon="26.610176">
<ele>98.555725</ele>
<time>2010-06-20T12:10:53Z</time>
<desc>lat.=56.083832, lon.=26.610176, Alt.=98.555725m. Speed=13.536000m/h.</desc>
<speed>3.760000</speed>
</trkpt>
<trkpt lat="56.083813" lon="26.610224">
<ele>98.288147</ele>
<time>2010-06-20T12:10:54Z</time>
<desc>lat.=56.083813, lon.=26.610224, Alt.=98.288147m. Speed=13.644000m/h.</desc>
<speed>3.790000</speed>
</trkpt>
<trkpt lat="56.083790" lon="26.610273">
<ele>97.920959</ele>
<time>2010-06-20T12:10:55Z</time>
<desc>lat.=56.083790, lon.=26.610273, Alt.=97.920959m. Speed=12.996000m/h.</desc>
<speed>3.610000</speed>
</trkpt>
<trkpt lat="56.083771" lon="26.610323">
<ele>98.022522</ele>
<time>2010-06-20T12:10:56Z</time>
<desc>lat.=56.083771, lon.=26.610323, Alt.=98.022522m. Speed=12.744000m/h.</desc>
<speed>3.540000</speed>
</trkpt>
<trkpt lat="56.083752" lon="26.610373">
<ele>97.999084</ele>
<time>2010-06-20T12:10:57Z</time>
<desc>lat.=56.083752, lon.=26.610373, Alt.=97.999084m. Speed=13.248000m/h.</desc>
<speed>3.680000</speed>
</trkpt>
<trkpt lat="56.083733" lon="26.610422">
<ele>97.960022</ele>
<time>2010-06-20T12:10:58Z</time>
<desc>lat.=56.083733, lon.=26.610422, Alt.=97.960022m. Speed=13.932000m/h.</desc>
<speed>3.870000</speed>
</trkpt>
<trkpt lat="56.083710" lon="26.610479">
<ele>98.356506</ele>
<time>2010-06-20T12:10:59Z</time>
<desc>lat.=56.083710, lon.=26.610479, Alt.=98.356506m. Speed=14.328000m/h.</desc>
<speed>3.980000</speed>
</trkpt>
<trkpt lat="56.083687" lon="26.610529">
<ele>98.180725</ele>
<time>2010-06-20T12:11:00Z</time>
<desc>lat.=56.083687, lon.=26.610529, Alt.=98.180725m. Speed=14.904000m/h.</desc>
<speed>4.140000</speed>
</trkpt>
<trkpt lat="56.083660" lon="26.610580">
<ele>97.919006</ele>
<time>2010-06-20T12:11:01Z</time>
<desc>lat.=56.083660, lon.=26.610580, Alt.=97.919006m. Speed=14.400000m/h.</desc>
<speed>4.000000</speed>
</trkpt>
<trkpt lat="56.083637" lon="26.610632">
<ele>97.245178</ele>
<time>2010-06-20T12:11:02Z</time>
<desc>lat.=56.083637, lon.=26.610632, Alt.=97.245178m. Speed=14.220000m/h.</desc>
<speed>3.950000</speed>
</trkpt>
<trkpt lat="56.083614" lon="26.610682">
<ele>97.524475</ele>
<time>2010-06-20T12:11:03Z</time>
<desc>lat.=56.083614, lon.=26.610682, Alt.=97.524475m. Speed=12.888000m/h.</desc>
<speed>3.580000</speed>
</trkpt>
<trkpt lat="56.083595" lon="26.610729">
<ele>97.547913</ele>
<time>2010-06-20T12:11:04Z</time>
<desc>lat.=56.083595, lon.=26.610729, Alt.=97.547913m. Speed=13.320000m/h.</desc>
<speed>3.700000</speed>
</trkpt>
<trkpt lat="56.083580" lon="26.610781">
<ele>97.794006</ele>
<time>2010-06-20T12:11:05Z</time>
<desc>lat.=56.083580, lon.=26.610781, Alt.=97.794006m. Speed=12.924000m/h.</desc>
<speed>3.590000</speed>
</trkpt>
<trkpt lat="56.083565" lon="26.610840">
<ele>97.883850</ele>
<time>2010-06-20T12:11:06Z</time>
<desc>lat.=56.083565, lon.=26.610840, Alt.=97.883850m. Speed=14.652000m/h.</desc>
<speed>4.070000</speed>
</trkpt>
<trkpt lat="56.083549" lon="26.610895">
<ele>98.217834</ele>
<time>2010-06-20T12:11:07Z</time>
<desc>lat.=56.083549, lon.=26.610895, Alt.=98.217834m. Speed=13.068000m/h.</desc>
<speed>3.630000</speed>
</trkpt>
<trkpt lat="56.083530" lon="26.610941">
<ele>97.936584</ele>
<time>2010-06-20T12:11:08Z</time>
<desc>lat.=56.083530, lon.=26.610941, Alt.=97.936584m. Speed=14.148000m/h.</desc>
<speed>3.930000</speed>
</trkpt>
<trkpt lat="56.083504" lon="26.610989">
<ele>97.858459</ele>
<time>2010-06-20T12:11:09Z</time>
<desc>lat.=56.083504, lon.=26.610989, Alt.=97.858459m. Speed=15.552000m/h.</desc>
<speed>4.320000</speed>
</trkpt>
<trkpt lat="56.083477" lon="26.611044">
<ele>97.737366</ele>
<time>2010-06-20T12:11:10Z</time>
<desc>lat.=56.083477, lon.=26.611044, Alt.=97.737366m. Speed=16.559999m/h.</desc>
<speed>4.600000</speed>
</trkpt>
<trkpt lat="56.083450" lon="26.611099">
<ele>98.118225</ele>
<time>2010-06-20T12:11:11Z</time>
<desc>lat.=56.083450, lon.=26.611099, Alt.=98.118225m. Speed=17.388000m/h.</desc>
<speed>4.830000</speed>
</trkpt>
<trkpt lat="56.083424" lon="26.611160">
<ele>98.096741</ele>
<time>2010-06-20T12:11:12Z</time>
<desc>lat.=56.083424, lon.=26.611160, Alt.=98.096741m. Speed=15.984000m/h.</desc>
<speed>4.440000</speed>
</trkpt>
<trkpt lat="56.083401" lon="26.611219">
<ele>98.122131</ele>
<time>2010-06-20T12:11:13Z</time>
<desc>lat.=56.083401, lon.=26.611219, Alt.=98.122131m. Speed=15.336000m/h.</desc>
<speed>4.260000</speed>
</trkpt>
<trkpt lat="56.083378" lon="26.611282">
<ele>98.022522</ele>
<time>2010-06-20T12:11:14Z</time>
<desc>lat.=56.083378, lon.=26.611282, Alt.=98.022522m. Speed=16.740000m/h.</desc>
<speed>4.650000</speed>
</trkpt>
<trkpt lat="56.083355" lon="26.611341">
<ele>98.047913</ele>
<time>2010-06-20T12:11:15Z</time>
<desc>lat.=56.083355, lon.=26.611341, Alt.=98.047913m. Speed=15.228000m/h.</desc>
<speed>4.230000</speed>
</trkpt>
<trkpt lat="56.083332" lon="26.611404">
<ele>98.700256</ele>
<time>2010-06-20T12:11:16Z</time>
<desc>lat.=56.083332, lon.=26.611404, Alt.=98.700256m. Speed=16.056000m/h.</desc>
<speed>4.460000</speed>
</trkpt>
<trkpt lat="56.083302" lon="26.611467">
<ele>98.741272</ele>
<time>2010-06-20T12:11:17Z</time>
<desc>lat.=56.083302, lon.=26.611467, Alt.=98.741272m. Speed=16.596001m/h.</desc>
<speed>4.610000</speed>
</trkpt>
<trkpt lat="56.083275" lon="26.611530">
<ele>98.995178</ele>
<time>2010-06-20T12:11:18Z</time>
<desc>lat.=56.083275, lon.=26.611530, Alt.=98.995178m. Speed=16.056000m/h.</desc>
<speed>4.460000</speed>
</trkpt>
<trkpt lat="56.083256" lon="26.611584">
<ele>99.504944</ele>
<time>2010-06-20T12:11:19Z</time>
<desc>lat.=56.083256, lon.=26.611584, Alt.=99.504944m. Speed=14.544000m/h.</desc>
<speed>4.040000</speed>
</trkpt>
<trkpt lat="56.083233" lon="26.611633">
<ele>100.499084</ele>
<time>2010-06-20T12:11:20Z</time>
<desc>lat.=56.083233, lon.=26.611633, Alt.=100.499084m. Speed=16.632000m/h.</desc>
<speed>4.620000</speed>
</trkpt>
<trkpt lat="56.083202" lon="26.611702">
<ele>101.348694</ele>
<time>2010-06-20T12:11:21Z</time>
<desc>lat.=56.083202, lon.=26.611702, Alt.=101.348694m. Speed=18.180000m/h.</desc>
<speed>5.050000</speed>
</trkpt>
<trkpt lat="56.083176" lon="26.611773">
<ele>101.227600</ele>
<time>2010-06-20T12:11:22Z</time>
<desc>lat.=56.083176, lon.=26.611773, Alt.=101.227600m. Speed=17.639999m/h.</desc>
<speed>4.900000</speed>
</trkpt>
<trkpt lat="56.083153" lon="26.611847">
<ele>100.600647</ele>
<time>2010-06-20T12:11:23Z</time>
<desc>lat.=56.083153, lon.=26.611847, Alt.=100.600647m. Speed=17.676001m/h.</desc>
<speed>4.910000</speed>
</trkpt>
<trkpt lat="56.083126" lon="26.611927">
<ele>99.987366</ele>
<time>2010-06-20T12:11:24Z</time>
<desc>lat.=56.083126, lon.=26.611927, Alt.=99.987366m. Speed=17.568001m/h.</desc>
<speed>4.880000</speed>
</trkpt>
<trkpt lat="56.083103" lon="26.612000">
<ele>99.729553</ele>
<time>2010-06-20T12:11:25Z</time>
<desc>lat.=56.083103, lon.=26.612000, Alt.=99.729553m. Speed=18.216000m/h.</desc>
<speed>5.060000</speed>
</trkpt>
<trkpt lat="56.083073" lon="26.612072">
<ele>99.686584</ele>
<time>2010-06-20T12:11:26Z</time>
<desc>lat.=56.083073, lon.=26.612072, Alt.=99.686584m. Speed=17.243999m/h.</desc>
<speed>4.790000</speed>
</trkpt>
<trkpt lat="56.083046" lon="26.612137">
<ele>100.030334</ele>
<time>2010-06-20T12:11:27Z</time>
<desc>lat.=56.083046, lon.=26.612137, Alt.=100.030334m. Speed=17.784000m/h.</desc>
<speed>4.940000</speed>
</trkpt>
<trkpt lat="56.083019" lon="26.612202">
<ele>100.495178</ele>
<time>2010-06-20T12:11:28Z</time>
<desc>lat.=56.083019, lon.=26.612202, Alt.=100.495178m. Speed=18.000000m/h.</desc>
<speed>5.000000</speed>
</trkpt>
<trkpt lat="56.082993" lon="26.612278">
<ele>99.797913</ele>
<time>2010-06-20T12:11:29Z</time>
<desc>lat.=56.082993, lon.=26.612278, Alt.=99.797913m. Speed=17.927999m/h.</desc>
<speed>4.980000</speed>
</trkpt>
<trkpt lat="56.082962" lon="26.612347">
<ele>99.805725</ele>
<time>2010-06-20T12:11:30Z</time>
<desc>lat.=56.082962, lon.=26.612347, Alt.=99.805725m. Speed=18.540001m/h.</desc>
<speed>5.150000</speed>
</trkpt>
<trkpt lat="56.082932" lon="26.612417">
<ele>99.694397</ele>
<time>2010-06-20T12:11:31Z</time>
<desc>lat.=56.082932, lon.=26.612417, Alt.=99.694397m. Speed=19.296000m/h.</desc>
<speed>5.360000</speed>
</trkpt>
<trkpt lat="56.082905" lon="26.612494">
<ele>99.965881</ele>
<time>2010-06-20T12:11:32Z</time>
<desc>lat.=56.082905, lon.=26.612494, Alt.=99.965881m. Speed=20.160000m/h.</desc>
<speed>5.600000</speed>
</trkpt>
<trkpt lat="56.082874" lon="26.612568">
<ele>99.352600</ele>
<time>2010-06-20T12:11:33Z</time>
<desc>lat.=56.082874, lon.=26.612568, Alt.=99.352600m. Speed=18.468000m/h.</desc>
<speed>5.130000</speed>
</trkpt>
<trkpt lat="56.082848" lon="26.612635">
<ele>99.155334</ele>
<time>2010-06-20T12:11:34Z</time>
<desc>lat.=56.082848, lon.=26.612635, Alt.=99.155334m. Speed=17.532000m/h.</desc>
<speed>4.870000</speed>
</trkpt>
<trkpt lat="56.082821" lon="26.612698">
<ele>99.446350</ele>
<time>2010-06-20T12:11:35Z</time>
<desc>lat.=56.082821, lon.=26.612698, Alt.=99.446350m. Speed=17.892000m/h.</desc>
<speed>4.970000</speed>
</trkpt>
<trkpt lat="56.082794" lon="26.612764">
<ele>99.848694</ele>
<time>2010-06-20T12:11:36Z</time>
<desc>lat.=56.082794, lon.=26.612764, Alt.=99.848694m. Speed=18.288000m/h.</desc>
<speed>5.080000</speed>
</trkpt>
<trkpt lat="56.082764" lon="26.612831">
<ele>100.368225</ele>
<time>2010-06-20T12:11:37Z</time>
<desc>lat.=56.082764, lon.=26.612831, Alt.=100.368225m. Speed=19.224001m/h.</desc>
<speed>5.340000</speed>
</trkpt>
<trkpt lat="56.082737" lon="26.612898">
<ele>100.768616</ele>
<time>2010-06-20T12:11:38Z</time>
<desc>lat.=56.082737, lon.=26.612898, Alt.=100.768616m. Speed=19.872000m/h.</desc>
<speed>5.520000</speed>
</trkpt>
<trkpt lat="56.082703" lon="26.612967">
<ele>101.477600</ele>
<time>2010-06-20T12:11:39Z</time>
<desc>lat.=56.082703, lon.=26.612967, Alt.=101.477600m. Speed=19.511999m/h.</desc>
<speed>5.420000</speed>
</trkpt>
<trkpt lat="56.082668" lon="26.613037">
<ele>102.001038</ele>
<time>2010-06-20T12:11:40Z</time>
<desc>lat.=56.082668, lon.=26.613037, Alt.=102.001038m. Speed=19.440001m/h.</desc>
<speed>5.400000</speed>
</trkpt>
<trkpt lat="56.082638" lon="26.613102">
<ele>102.586975</ele>
<time>2010-06-20T12:11:41Z</time>
<desc>lat.=56.082638, lon.=26.613102, Alt.=102.586975m. Speed=18.864000m/h.</desc>
<speed>5.240000</speed>
</trkpt>
<trkpt lat="56.082603" lon="26.613167">
<ele>102.430725</ele>
<time>2010-06-20T12:11:42Z</time>
<desc>lat.=56.082603, lon.=26.613167, Alt.=102.430725m. Speed=18.252001m/h.</desc>
<speed>5.070000</speed>
</trkpt>
<trkpt lat="56.082573" lon="26.613230">
<ele>103.245178</ele>
<time>2010-06-20T12:11:43Z</time>
<desc>lat.=56.082573, lon.=26.613230, Alt.=103.245178m. Speed=19.080000m/h.</desc>
<speed>5.300000</speed>
</trkpt>
<trkpt lat="56.082539" lon="26.613295">
<ele>103.495178</ele>
<time>2010-06-20T12:11:44Z</time>
<desc>lat.=56.082539, lon.=26.613295, Alt.=103.495178m. Speed=19.799999m/h.</desc>
<speed>5.500000</speed>
</trkpt>
<trkpt lat="56.082500" lon="26.613363">
<ele>102.186584</ele>
<time>2010-06-20T12:11:45Z</time>
<desc>lat.=56.082500, lon.=26.613363, Alt.=102.186584m. Speed=18.612000m/h.</desc>
<speed>5.170000</speed>
</trkpt>
<trkpt lat="56.082466" lon="26.613432">
<ele>101.458069</ele>
<time>2010-06-20T12:11:46Z</time>
<desc>lat.=56.082466, lon.=26.613432, Alt.=101.458069m. Speed=21.743999m/h.</desc>
<speed>6.040000</speed>
</trkpt>
<trkpt lat="56.082420" lon="26.613510">
<ele>100.913147</ele>
<time>2010-06-20T12:11:47Z</time>
<desc>lat.=56.082420, lon.=26.613510, Alt.=100.913147m. Speed=22.535999m/h.</desc>
<speed>6.260000</speed>
</trkpt>
<trkpt lat="56.082382" lon="26.613592">
<ele>100.108459</ele>
<time>2010-06-20T12:11:48Z</time>
<desc>lat.=56.082382, lon.=26.613592, Alt.=100.108459m. Speed=23.544001m/h.</desc>
<speed>6.540000</speed>
</trkpt>
<trkpt lat="56.082336" lon="26.613670">
<ele>99.954163</ele>
<time>2010-06-20T12:11:49Z</time>
<desc>lat.=56.082336, lon.=26.613670, Alt.=99.954163m. Speed=23.184000m/h.</desc>
<speed>6.440000</speed>
</trkpt>
<trkpt lat="56.082294" lon="26.613743">
<ele>100.018616</ele>
<time>2010-06-20T12:11:50Z</time>
<desc>lat.=56.082294, lon.=26.613743, Alt.=100.018616m. Speed=22.968000m/h.</desc>
<speed>6.380000</speed>
</trkpt>
<trkpt lat="56.082249" lon="26.613819">
<ele>99.581116</ele>
<time>2010-06-20T12:11:51Z</time>
<desc>lat.=56.082249, lon.=26.613819, Alt.=99.581116m. Speed=22.356001m/h.</desc>
<speed>6.210000</speed>
</trkpt>
<trkpt lat="56.082199" lon="26.613888">
<ele>98.913147</ele>
<time>2010-06-20T12:11:52Z</time>
<desc>lat.=56.082199, lon.=26.613888, Alt.=98.913147m. Speed=22.212000m/h.</desc>
<speed>6.170000</speed>
</trkpt>
<trkpt lat="56.082153" lon="26.613956">
<ele>98.417053</ele>
<time>2010-06-20T12:11:53Z</time>
<desc>lat.=56.082153, lon.=26.613956, Alt.=98.417053m. Speed=21.924000m/h.</desc>
<speed>6.090000</speed>
</trkpt>
<trkpt lat="56.082108" lon="26.614019">
<ele>98.034241</ele>
<time>2010-06-20T12:11:54Z</time>
<desc>lat.=56.082108, lon.=26.614019, Alt.=98.034241m. Speed=22.968000m/h.</desc>
<speed>6.380000</speed>
</trkpt>
<trkpt lat="56.082058" lon="26.614086">
<ele>98.247131</ele>
<time>2010-06-20T12:11:55Z</time>
<desc>lat.=56.082058, lon.=26.614086, Alt.=98.247131m. Speed=23.400000m/h.</desc>
<speed>6.500000</speed>
</trkpt>
<trkpt lat="56.082012" lon="26.614159">
<ele>98.022522</ele>
<time>2010-06-20T12:11:56Z</time>
<desc>lat.=56.082012, lon.=26.614159, Alt.=98.022522m. Speed=24.048000m/h.</desc>
<speed>6.680000</speed>
</trkpt>
<trkpt lat="56.081959" lon="26.614229">
<ele>98.288147</ele>
<time>2010-06-20T12:11:57Z</time>
<desc>lat.=56.081959, lon.=26.614229, Alt.=98.288147m. Speed=24.264000m/h.</desc>
<speed>6.740000</speed>
</trkpt>
<trkpt lat="56.081909" lon="26.614296">
<ele>98.561584</ele>
<time>2010-06-20T12:11:58Z</time>
<desc>lat.=56.081909, lon.=26.614296, Alt.=98.561584m. Speed=24.120001m/h.</desc>
<speed>6.700000</speed>
</trkpt>
<trkpt lat="56.081863" lon="26.614357">
<ele>98.129944</ele>
<time>2010-06-20T12:11:59Z</time>
<desc>lat.=56.081863, lon.=26.614357, Alt.=98.129944m. Speed=22.931999m/h.</desc>
<speed>6.370000</speed>
</trkpt>
<trkpt lat="56.081818" lon="26.614418">
<ele>98.510803</ele>
<time>2010-06-20T12:12:00Z</time>
<desc>lat.=56.081818, lon.=26.614418, Alt.=98.510803m. Speed=22.788000m/h.</desc>
<speed>6.330000</speed>
</trkpt>
<trkpt lat="56.081768" lon="26.614475">
<ele>98.586975</ele>
<time>2010-06-20T12:12:01Z</time>
<desc>lat.=56.081768, lon.=26.614475, Alt.=98.586975m. Speed=22.572001m/h.</desc>
<speed>6.270000</speed>
</trkpt>
<trkpt lat="56.081715" lon="26.614536">
<ele>98.405334</ele>
<time>2010-06-20T12:12:02Z</time>
<desc>lat.=56.081715, lon.=26.614536, Alt.=98.405334m. Speed=22.931999m/h.</desc>
<speed>6.370000</speed>
</trkpt>
<trkpt lat="56.081665" lon="26.614601">
<ele>97.688538</ele>
<time>2010-06-20T12:12:03Z</time>
<desc>lat.=56.081665, lon.=26.614601, Alt.=97.688538m. Speed=22.643999m/h.</desc>
<speed>6.290000</speed>
</trkpt>
<trkpt lat="56.081615" lon="26.614660">
<ele>97.647522</ele>
<time>2010-06-20T12:12:04Z</time>
<desc>lat.=56.081615, lon.=26.614660, Alt.=97.647522m. Speed=22.392000m/h.</desc>
<speed>6.220000</speed>
</trkpt>
<trkpt lat="56.081566" lon="26.614729">
<ele>97.887756</ele>
<time>2010-06-20T12:12:05Z</time>
<desc>lat.=56.081566, lon.=26.614729, Alt.=97.887756m. Speed=21.708000m/h.</desc>
<speed>6.030000</speed>
</trkpt>
<trkpt lat="56.081520" lon="26.614786">
<ele>97.528381</ele>
<time>2010-06-20T12:12:06Z</time>
<desc>lat.=56.081520, lon.=26.614786, Alt.=97.528381m. Speed=22.247999m/h.</desc>
<speed>6.180000</speed>
</trkpt>
<trkpt lat="56.081478" lon="26.614841">
<ele>97.784241</ele>
<time>2010-06-20T12:12:07Z</time>
<desc>lat.=56.081478, lon.=26.614841, Alt.=97.784241m. Speed=20.195999m/h.</desc>
<speed>5.610000</speed>
</trkpt>
<trkpt lat="56.081432" lon="26.614899">
<ele>98.094788</ele>
<time>2010-06-20T12:12:08Z</time>
<desc>lat.=56.081432, lon.=26.614899, Alt.=98.094788m. Speed=20.700001m/h.</desc>
<speed>5.750000</speed>
</trkpt>
<trkpt lat="56.081390" lon="26.614960">
<ele>98.249084</ele>
<time>2010-06-20T12:12:09Z</time>
<desc>lat.=56.081390, lon.=26.614960, Alt.=98.249084m. Speed=22.032000m/h.</desc>
<speed>6.120000</speed>
</trkpt>
<trkpt lat="56.081348" lon="26.615017">
<ele>98.243225</ele>
<time>2010-06-20T12:12:10Z</time>
<desc>lat.=56.081348, lon.=26.615017, Alt.=98.243225m. Speed=21.959999m/h.</desc>
<speed>6.100000</speed>
</trkpt>
<trkpt lat="56.081303" lon="26.615074">
<ele>98.698303</ele>
<time>2010-06-20T12:12:11Z</time>
<desc>lat.=56.081303, lon.=26.615074, Alt.=98.698303m. Speed=21.924000m/h.</desc>
<speed>6.090000</speed>
</trkpt>
<trkpt lat="56.081253" lon="26.615137">
<ele>98.487366</ele>
<time>2010-06-20T12:12:12Z</time>
<desc>lat.=56.081253, lon.=26.615137, Alt.=98.487366m. Speed=22.212000m/h.</desc>
<speed>6.170000</speed>
</trkpt>
<trkpt lat="56.081211" lon="26.615206">
<ele>98.954163</ele>
<time>2010-06-20T12:12:13Z</time>
<desc>lat.=56.081211, lon.=26.615206, Alt.=98.954163m. Speed=22.823999m/h.</desc>
<speed>6.340000</speed>
</trkpt>
<trkpt lat="56.081161" lon="26.615269">
<ele>99.010803</ele>
<time>2010-06-20T12:12:14Z</time>
<desc>lat.=56.081161, lon.=26.615269, Alt.=99.010803m. Speed=22.896000m/h.</desc>
<speed>6.360000</speed>
</trkpt>
<trkpt lat="56.081116" lon="26.615334">
<ele>99.030334</ele>
<time>2010-06-20T12:12:15Z</time>
<desc>lat.=56.081116, lon.=26.615334, Alt.=99.030334m. Speed=22.212000m/h.</desc>
<speed>6.170000</speed>
</trkpt>
<trkpt lat="56.081074" lon="26.615395">
<ele>99.163147</ele>
<time>2010-06-20T12:12:16Z</time>
<desc>lat.=56.081074, lon.=26.615395, Alt.=99.163147m. Speed=21.204000m/h.</desc>
<speed>5.890000</speed>
</trkpt>
<trkpt lat="56.081032" lon="26.615448">
<ele>99.108459</ele>
<time>2010-06-20T12:12:17Z</time>
<desc>lat.=56.081032, lon.=26.615448, Alt.=99.108459m. Speed=19.908001m/h.</desc>
<speed>5.530000</speed>
</trkpt>
<trkpt lat="56.080994" lon="26.615498">
<ele>98.786194</ele>
<time>2010-06-20T12:12:18Z</time>
<desc>lat.=56.080994, lon.=26.615498, Alt.=98.786194m. Speed=19.368000m/h.</desc>
<speed>5.380000</speed>
</trkpt>
<trkpt lat="56.080959" lon="26.615545">
<ele>98.629944</ele>
<time>2010-06-20T12:12:19Z</time>
<desc>lat.=56.080959, lon.=26.615545, Alt.=98.629944m. Speed=18.360001m/h.</desc>
<speed>5.100000</speed>
</trkpt>
<trkpt lat="56.080921" lon="26.615593">
<ele>98.565491</ele>
<time>2010-06-20T12:12:20Z</time>
<desc>lat.=56.080921, lon.=26.615593, Alt.=98.565491m. Speed=18.252001m/h.</desc>
<speed>5.070000</speed>
</trkpt>
<trkpt lat="56.080887" lon="26.615644">
<ele>98.563538</ele>
<time>2010-06-20T12:12:21Z</time>
<desc>lat.=56.080887, lon.=26.615644, Alt.=98.563538m. Speed=18.719999m/h.</desc>
<speed>5.200000</speed>
</trkpt>
<trkpt lat="56.080853" lon="26.615698">
<ele>98.624084</ele>
<time>2010-06-20T12:12:22Z</time>
<desc>lat.=56.080853, lon.=26.615698, Alt.=98.624084m. Speed=19.548000m/h.</desc>
<speed>5.430000</speed>
</trkpt>
<trkpt lat="56.080811" lon="26.615757">
<ele>98.827209</ele>
<time>2010-06-20T12:12:23Z</time>
<desc>lat.=56.080811, lon.=26.615757, Alt.=98.827209m. Speed=19.980000m/h.</desc>
<speed>5.550000</speed>
</trkpt>
<trkpt lat="56.080769" lon="26.615812">
<ele>98.876038</ele>
<time>2010-06-20T12:12:24Z</time>
<desc>lat.=56.080769, lon.=26.615812, Alt.=98.876038m. Speed=20.736000m/h.</desc>
<speed>5.760000</speed>
</trkpt>
<trkpt lat="56.080727" lon="26.615873">
<ele>99.032288</ele>
<time>2010-06-20T12:12:25Z</time>
<desc>lat.=56.080727, lon.=26.615873, Alt.=99.032288m. Speed=21.059999m/h.</desc>
<speed>5.850000</speed>
</trkpt>
<trkpt lat="56.080685" lon="26.615934">
<ele>99.534241</ele>
<time>2010-06-20T12:12:26Z</time>
<desc>lat.=56.080685, lon.=26.615934, Alt.=99.534241m. Speed=21.384001m/h.</desc>
<speed>5.940000</speed>
</trkpt>
<trkpt lat="56.080639" lon="26.615995">
<ele>99.975647</ele>
<time>2010-06-20T12:12:27Z</time>
<desc>lat.=56.080639, lon.=26.615995, Alt.=99.975647m. Speed=21.996000m/h.</desc>
<speed>6.110000</speed>
</trkpt>
<trkpt lat="56.080593" lon="26.616053">
<ele>100.307678</ele>
<time>2010-06-20T12:12:28Z</time>
<desc>lat.=56.080593, lon.=26.616053, Alt.=100.307678m. Speed=22.500000m/h.</desc>
<speed>6.250000</speed>
</trkpt>
<trkpt lat="56.080547" lon="26.616112">
<ele>100.272522</ele>
<time>2010-06-20T12:12:29Z</time>
<desc>lat.=56.080547, lon.=26.616112, Alt.=100.272522m. Speed=23.292000m/h.</desc>
<speed>6.470000</speed>
</trkpt>
<trkpt lat="56.080502" lon="26.616173">
<ele>100.809631</ele>
<time>2010-06-20T12:12:30Z</time>
<desc>lat.=56.080502, lon.=26.616173, Alt.=100.809631m. Speed=22.643999m/h.</desc>
<speed>6.290000</speed>
</trkpt>
<trkpt lat="56.080452" lon="26.616230">
<ele>100.876038</ele>
<time>2010-06-20T12:12:31Z</time>
<desc>lat.=56.080452, lon.=26.616230, Alt.=100.876038m. Speed=21.743999m/h.</desc>
<speed>6.040000</speed>
</trkpt>
<trkpt lat="56.080410" lon="26.616287">
<ele>101.202209</ele>
<time>2010-06-20T12:12:32Z</time>
<desc>lat.=56.080410, lon.=26.616287, Alt.=101.202209m. Speed=20.700001m/h.</desc>
<speed>5.750000</speed>
</trkpt>
<trkpt lat="56.080368" lon="26.616343">
<ele>101.422913</ele>
<time>2010-06-20T12:12:33Z</time>
<desc>lat.=56.080368, lon.=26.616343, Alt.=101.422913m. Speed=19.691999m/h.</desc>
<speed>5.470000</speed>
</trkpt>
<trkpt lat="56.080330" lon="26.616398">
<ele>101.864319</ele>
<time>2010-06-20T12:12:34Z</time>
<desc>lat.=56.080330, lon.=26.616398, Alt.=101.864319m. Speed=18.252001m/h.</desc>
<speed>5.070000</speed>
</trkpt>
<trkpt lat="56.080292" lon="26.616447">
<ele>102.270569</ele>
<time>2010-06-20T12:12:35Z</time>
<desc>lat.=56.080292, lon.=26.616447, Alt.=102.270569m. Speed=18.396000m/h.</desc>
<speed>5.110000</speed>
</trkpt>
<trkpt lat="56.080254" lon="26.616493">
<ele>102.434631</ele>
<time>2010-06-20T12:12:36Z</time>
<desc>lat.=56.080254, lon.=26.616493, Alt.=102.434631m. Speed=18.396000m/h.</desc>
<speed>5.110000</speed>
</trkpt>
<trkpt lat="56.080219" lon="26.616549">
<ele>102.456116</ele>
<time>2010-06-20T12:12:37Z</time>
<desc>lat.=56.080219, lon.=26.616549, Alt.=102.456116m. Speed=17.280001m/h.</desc>
<speed>4.800000</speed>
</trkpt>
<trkpt lat="56.080189" lon="26.616596">
<ele>102.221741</ele>
<time>2010-06-20T12:12:38Z</time>
<desc>lat.=56.080189, lon.=26.616596, Alt.=102.221741m. Speed=16.559999m/h.</desc>
<speed>4.600000</speed>
</trkpt>
<trkpt lat="56.080154" lon="26.616644">
<ele>102.073303</ele>
<time>2010-06-20T12:12:39Z</time>
<desc>lat.=56.080154, lon.=26.616644, Alt.=102.073303m. Speed=17.927999m/h.</desc>
<speed>4.980000</speed>
</trkpt>
<trkpt lat="56.080116" lon="26.616701">
<ele>101.987366</ele>
<time>2010-06-20T12:12:40Z</time>
<desc>lat.=56.080116, lon.=26.616701, Alt.=101.987366m. Speed=18.000000m/h.</desc>
<speed>5.000000</speed>
</trkpt>
<trkpt lat="56.080078" lon="26.616753">
<ele>101.874084</ele>
<time>2010-06-20T12:12:41Z</time>
<desc>lat.=56.080078, lon.=26.616753, Alt.=101.874084m. Speed=18.468000m/h.</desc>
<speed>5.130000</speed>
</trkpt>
<trkpt lat="56.080036" lon="26.616802">
<ele>101.674866</ele>
<time>2010-06-20T12:12:42Z</time>
<desc>lat.=56.080036, lon.=26.616802, Alt.=101.674866m. Speed=18.972000m/h.</desc>
<speed>5.270000</speed>
</trkpt>
<trkpt lat="56.079998" lon="26.616848">
<ele>102.745178</ele>
<time>2010-06-20T12:12:43Z</time>
<desc>lat.=56.079998, lon.=26.616848, Alt.=102.745178m. Speed=18.431999m/h.</desc>
<speed>5.120000</speed>
</trkpt>
<trkpt lat="56.079960" lon="26.616898">
<ele>102.811584</ele>
<time>2010-06-20T12:12:44Z</time>
<desc>lat.=56.079960, lon.=26.616898, Alt.=102.811584m. Speed=19.403999m/h.</desc>
<speed>5.390000</speed>
</trkpt>
<trkpt lat="56.079922" lon="26.616947">
<ele>102.856506</ele>
<time>2010-06-20T12:12:45Z</time>
<desc>lat.=56.079922, lon.=26.616947, Alt.=102.856506m. Speed=19.511999m/h.</desc>
<speed>5.420000</speed>
</trkpt>
<trkpt lat="56.079880" lon="26.617002">
<ele>102.922913</ele>
<time>2010-06-20T12:12:46Z</time>
<desc>lat.=56.079880, lon.=26.617002, Alt.=102.922913m. Speed=19.584000m/h.</desc>
<speed>5.440000</speed>
</trkpt>
<trkpt lat="56.079838" lon="26.617058">
<ele>103.141663</ele>
<time>2010-06-20T12:12:47Z</time>
<desc>lat.=56.079838, lon.=26.617058, Alt.=103.141663m. Speed=20.304001m/h.</desc>
<speed>5.640000</speed>
</trkpt>
<trkpt lat="56.079796" lon="26.617113">
<ele>103.297913</ele>
<time>2010-06-20T12:12:48Z</time>
<desc>lat.=56.079796, lon.=26.617113, Alt.=103.297913m. Speed=19.548000m/h.</desc>
<speed>5.430000</speed>
</trkpt>
<trkpt lat="56.079758" lon="26.617161">
<ele>103.284241</ele>
<time>2010-06-20T12:12:49Z</time>
<desc>lat.=56.079758, lon.=26.617161, Alt.=103.284241m. Speed=18.216000m/h.</desc>
<speed>5.060000</speed>
</trkpt>
<trkpt lat="56.079723" lon="26.617212">
<ele>103.473694</ele>
<time>2010-06-20T12:12:50Z</time>
<desc>lat.=56.079723, lon.=26.617212, Alt.=103.473694m. Speed=18.143999m/h.</desc>
<speed>5.040000</speed>
</trkpt>
<trkpt lat="56.079689" lon="26.617260">
<ele>103.454163</ele>
<time>2010-06-20T12:12:51Z</time>
<desc>lat.=56.079689, lon.=26.617260, Alt.=103.454163m. Speed=17.676001m/h.</desc>
<speed>4.910000</speed>
</trkpt>
<trkpt lat="56.079655" lon="26.617306">
<ele>103.501038</ele>
<time>2010-06-20T12:12:52Z</time>
<desc>lat.=56.079655, lon.=26.617306, Alt.=103.501038m. Speed=17.100000m/h.</desc>
<speed>4.750000</speed>
</trkpt>
<trkpt lat="56.079624" lon="26.617352">
<ele>103.737366</ele>
<time>2010-06-20T12:12:53Z</time>
<desc>lat.=56.079624, lon.=26.617352, Alt.=103.737366m. Speed=17.604000m/h.</desc>
<speed>4.890000</speed>
</trkpt>
<trkpt lat="56.079590" lon="26.617397">
<ele>103.901428</ele>
<time>2010-06-20T12:12:54Z</time>
<desc>lat.=56.079590, lon.=26.617397, Alt.=103.901428m. Speed=17.784000m/h.</desc>
<speed>4.940000</speed>
</trkpt>
<trkpt lat="56.079556" lon="26.617451">
<ele>104.217834</ele>
<time>2010-06-20T12:12:55Z</time>
<desc>lat.=56.079556, lon.=26.617451, Alt.=104.217834m. Speed=18.180000m/h.</desc>
<speed>5.050000</speed>
</trkpt>
<trkpt lat="56.079521" lon="26.617502">
<ele>104.411194</ele>
<time>2010-06-20T12:12:56Z</time>
<desc>lat.=56.079521, lon.=26.617502, Alt.=104.411194m. Speed=18.576000m/h.</desc>
<speed>5.160000</speed>
</trkpt>
<trkpt lat="56.079483" lon="26.617552">
<ele>104.594788</ele>
<time>2010-06-20T12:12:57Z</time>
<desc>lat.=56.079483, lon.=26.617552, Alt.=104.594788m. Speed=18.756001m/h.</desc>
<speed>5.210000</speed>
</trkpt>
<trkpt lat="56.079449" lon="26.617599">
<ele>104.653381</ele>
<time>2010-06-20T12:12:58Z</time>
<desc>lat.=56.079449, lon.=26.617599, Alt.=104.653381m. Speed=17.208000m/h.</desc>
<speed>4.780000</speed>
</trkpt>
<trkpt lat="56.079418" lon="26.617649">
<ele>104.866272</ele>
<time>2010-06-20T12:12:59Z</time>
<desc>lat.=56.079418, lon.=26.617649, Alt.=104.866272m. Speed=16.596001m/h.</desc>
<speed>4.610000</speed>
</trkpt>
<trkpt lat="56.079384" lon="26.617702">
<ele>105.196350</ele>
<time>2010-06-20T12:13:00Z</time>
<desc>lat.=56.079384, lon.=26.617702, Alt.=105.196350m. Speed=15.912000m/h.</desc>
<speed>4.420000</speed>
</trkpt>
<trkpt lat="56.079357" lon="26.617748">
<ele>104.782288</ele>
<time>2010-06-20T12:13:01Z</time>
<desc>lat.=56.079357, lon.=26.617748, Alt.=104.782288m. Speed=14.472000m/h.</desc>
<speed>4.020000</speed>
</trkpt>
<trkpt lat="56.079330" lon="26.617788">
<ele>104.858459</ele>
<time>2010-06-20T12:13:02Z</time>
<desc>lat.=56.079330, lon.=26.617788, Alt.=104.858459m. Speed=13.932000m/h.</desc>
<speed>3.870000</speed>
</trkpt>
<trkpt lat="56.079296" lon="26.617823">
<ele>104.385803</ele>
<time>2010-06-20T12:13:03Z</time>
<desc>lat.=56.079296, lon.=26.617823, Alt.=104.385803m. Speed=12.312000m/h.</desc>
<speed>3.420000</speed>
</trkpt>
<trkpt lat="56.079273" lon="26.617855">
<ele>104.186584</ele>
<time>2010-06-20T12:13:04Z</time>
<desc>lat.=56.079273, lon.=26.617855, Alt.=104.186584m. Speed=12.312000m/h.</desc>
<speed>3.420000</speed>
</trkpt>
<trkpt lat="56.079254" lon="26.617887">
<ele>105.022522</ele>
<time>2010-06-20T12:13:05Z</time>
<desc>lat.=56.079254, lon.=26.617887, Alt.=105.022522m. Speed=12.204000m/h.</desc>
<speed>3.390000</speed>
</trkpt>
<trkpt lat="56.079231" lon="26.617920">
<ele>104.948303</ele>
<time>2010-06-20T12:13:06Z</time>
<desc>lat.=56.079231, lon.=26.617920, Alt.=104.948303m. Speed=9.576000m/h.</desc>
<speed>2.660000</speed>
</trkpt>
<trkpt lat="56.079220" lon="26.617947">
<ele>105.157288</ele>
<time>2010-06-20T12:13:07Z</time>
<desc>lat.=56.079220, lon.=26.617947, Alt.=105.157288m. Speed=3.816000m/h.</desc>
<speed>1.060000</speed>
</trkpt>
<trkpt lat="56.079212" lon="26.617968">
<ele>105.129944</ele>
<time>2010-06-20T12:13:08Z</time>
<desc>lat.=56.079212, lon.=26.617968, Alt.=105.129944m. Speed=3.600000m/h.</desc>
<speed>1.000000</speed>
</trkpt>
<trkpt lat="56.079205" lon="26.617981">
<ele>105.397522</ele>
<time>2010-06-20T12:13:09Z</time>
<desc>lat.=56.079205, lon.=26.617981, Alt.=105.397522m. Speed=4.608000m/h.</desc>
<speed>1.280000</speed>
</trkpt>
<trkpt lat="56.079193" lon="26.617998">
<ele>105.751038</ele>
<time>2010-06-20T12:13:10Z</time>
<desc>lat.=56.079193, lon.=26.617998, Alt.=105.751038m. Speed=5.688000m/h.</desc>
<speed>1.580000</speed>
</trkpt>
<trkpt lat="56.079182" lon="26.618021">
<ele>105.840881</ele>
<time>2010-06-20T12:13:11Z</time>
<desc>lat.=56.079182, lon.=26.618021, Alt.=105.840881m. Speed=7.884000m/h.</desc>
<speed>2.190000</speed>
</trkpt>
<trkpt lat="56.079166" lon="26.618050">
<ele>105.598694</ele>
<time>2010-06-20T12:13:12Z</time>
<desc>lat.=56.079166, lon.=26.618050, Alt.=105.598694m. Speed=7.704000m/h.</desc>
<speed>2.140000</speed>
</trkpt>
<trkpt lat="56.079147" lon="26.618084">
<ele>105.846741</ele>
<time>2010-06-20T12:13:13Z</time>
<desc>lat.=56.079147, lon.=26.618084, Alt.=105.846741m. Speed=8.928000m/h.</desc>
<speed>2.480000</speed>
</trkpt>
<trkpt lat="56.079121" lon="26.618114">
<ele>105.667053</ele>
<time>2010-06-20T12:13:14Z</time>
<desc>lat.=56.079121, lon.=26.618114, Alt.=105.667053m. Speed=10.512000m/h.</desc>
<speed>2.920000</speed>
</trkpt>
<trkpt lat="56.079094" lon="26.618149">
<ele>105.850647</ele>
<time>2010-06-20T12:13:15Z</time>
<desc>lat.=56.079094, lon.=26.618149, Alt.=105.850647m. Speed=11.196000m/h.</desc>
<speed>3.110000</speed>
</trkpt>
<trkpt lat="56.079067" lon="26.618185">
<ele>105.663147</ele>
<time>2010-06-20T12:13:16Z</time>
<desc>lat.=56.079067, lon.=26.618185, Alt.=105.663147m. Speed=12.708000m/h.</desc>
<speed>3.530000</speed>
</trkpt>
<trkpt lat="56.079033" lon="26.618221">
<ele>105.993225</ele>
<time>2010-06-20T12:13:17Z</time>
<desc>lat.=56.079033, lon.=26.618221, Alt.=105.993225m. Speed=14.076000m/h.</desc>
<speed>3.910000</speed>
</trkpt>
<trkpt lat="56.079002" lon="26.618265">
<ele>106.077209</ele>
<time>2010-06-20T12:13:18Z</time>
<desc>lat.=56.079002, lon.=26.618265, Alt.=106.077209m. Speed=14.544000m/h.</desc>
<speed>4.040000</speed>
</trkpt>
<trkpt lat="56.078976" lon="26.618311">
<ele>105.323303</ele>
<time>2010-06-20T12:13:19Z</time>
<desc>lat.=56.078976, lon.=26.618311, Alt.=105.323303m. Speed=14.472000m/h.</desc>
<speed>4.020000</speed>
</trkpt>
<trkpt lat="56.078949" lon="26.618357">
<ele>104.764709</ele>
<time>2010-06-20T12:13:20Z</time>
<desc>lat.=56.078949, lon.=26.618357, Alt.=104.764709m. Speed=13.896000m/h.</desc>
<speed>3.860000</speed>
</trkpt>
<trkpt lat="56.078922" lon="26.618401">
<ele>104.477600</ele>
<time>2010-06-20T12:13:21Z</time>
<desc>lat.=56.078922, lon.=26.618401, Alt.=104.477600m. Speed=13.392000m/h.</desc>
<speed>3.720000</speed>
</trkpt>
<trkpt lat="56.078892" lon="26.618441">
<ele>104.194397</ele>
<time>2010-06-20T12:13:22Z</time>
<desc>lat.=56.078892, lon.=26.618441, Alt.=104.194397m. Speed=13.608000m/h.</desc>
<speed>3.780000</speed>
</trkpt>
<trkpt lat="56.078861" lon="26.618477">
<ele>104.063538</ele>
<time>2010-06-20T12:13:23Z</time>
<desc>lat.=56.078861, lon.=26.618477, Alt.=104.063538m. Speed=13.032000m/h.</desc>
<speed>3.620000</speed>
</trkpt>
<trkpt lat="56.078838" lon="26.618507">
<ele>103.547913</ele>
<time>2010-06-20T12:13:24Z</time>
<desc>lat.=56.078838, lon.=26.618507, Alt.=103.547913m. Speed=12.312000m/h.</desc>
<speed>3.420000</speed>
</trkpt>
<trkpt lat="56.078815" lon="26.618544">
<ele>103.452209</ele>
<time>2010-06-20T12:13:25Z</time>
<desc>lat.=56.078815, lon.=26.618544, Alt.=103.452209m. Speed=11.952000m/h.</desc>
<speed>3.320000</speed>
</trkpt>
<trkpt lat="56.078796" lon="26.618580">
<ele>103.366272</ele>
<time>2010-06-20T12:13:26Z</time>
<desc>lat.=56.078796, lon.=26.618580, Alt.=103.366272m. Speed=10.440000m/h.</desc>
<speed>2.900000</speed>
</trkpt>
<trkpt lat="56.078777" lon="26.618612">
<ele>102.764709</ele>
<time>2010-06-20T12:13:27Z</time>
<desc>lat.=56.078777, lon.=26.618612, Alt.=102.764709m. Speed=10.440000m/h.</desc>
<speed>2.900000</speed>
</trkpt>
<trkpt lat="56.078754" lon="26.618645">
<ele>102.510803</ele>
<time>2010-06-20T12:13:28Z</time>
<desc>lat.=56.078754, lon.=26.618645, Alt.=102.510803m. Speed=11.016000m/h.</desc>
<speed>3.060000</speed>
</trkpt>
<trkpt lat="56.078732" lon="26.618675">
<ele>102.573303</ele>
<time>2010-06-20T12:13:29Z</time>
<desc>lat.=56.078732, lon.=26.618675, Alt.=102.573303m. Speed=11.700000m/h.</desc>
<speed>3.250000</speed>
</trkpt>
<trkpt lat="56.078709" lon="26.618706">
<ele>103.110413</ele>
<time>2010-06-20T12:13:30Z</time>
<desc>lat.=56.078709, lon.=26.618706, Alt.=103.110413m. Speed=11.592000m/h.</desc>
<speed>3.220000</speed>
</trkpt>
<trkpt lat="56.078693" lon="26.618740">
<ele>103.657288</ele>
<time>2010-06-20T12:13:31Z</time>
<desc>lat.=56.078693, lon.=26.618740, Alt.=103.657288m. Speed=9.468000m/h.</desc>
<speed>2.630000</speed>
</trkpt>
<trkpt lat="56.078678" lon="26.618773">
<ele>104.991272</ele>
<time>2010-06-20T12:13:32Z</time>
<desc>lat.=56.078678, lon.=26.618773, Alt.=104.991272m. Speed=8.892000m/h.</desc>
<speed>2.470000</speed>
</trkpt>
<trkpt lat="56.078671" lon="26.618818">
<ele>106.096741</ele>
<time>2010-06-20T12:13:33Z</time>
<desc>lat.=56.078671, lon.=26.618818, Alt.=106.096741m. Speed=8.640000m/h.</desc>
<speed>2.400000</speed>
</trkpt>
<trkpt lat="56.078659" lon="26.618881">
<ele>106.631897</ele>
<time>2010-06-20T12:13:34Z</time>
<desc>lat.=56.078659, lon.=26.618881, Alt.=106.631897m. Speed=11.628000m/h.</desc>
<speed>3.230000</speed>
</trkpt>
<trkpt lat="56.078636" lon="26.618940">
<ele>106.963928</ele>
<time>2010-06-20T12:13:35Z</time>
<desc>lat.=56.078636, lon.=26.618940, Alt.=106.963928m. Speed=13.104000m/h.</desc>
<speed>3.640000</speed>
</trkpt>
<trkpt lat="56.078625" lon="26.618990">
<ele>107.678772</ele>
<time>2010-06-20T12:13:36Z</time>
<desc>lat.=56.078625, lon.=26.618990, Alt.=107.678772m. Speed=11.520000m/h.</desc>
<speed>3.200000</speed>
</trkpt>
<trkpt lat="56.078606" lon="26.619040">
<ele>109.262756</ele>
<time>2010-06-20T12:13:37Z</time>
<desc>lat.=56.078606, lon.=26.619040, Alt.=109.262756m. Speed=12.780000m/h.</desc>
<speed>3.550000</speed>
</trkpt>
<trkpt lat="56.078587" lon="26.619110">
<ele>110.335022</ele>
<time>2010-06-20T12:13:38Z</time>
<desc>lat.=56.078587, lon.=26.619110, Alt.=110.335022m. Speed=14.220000m/h.</desc>
<speed>3.950000</speed>
</trkpt>
<trkpt lat="56.078556" lon="26.619171">
<ele>111.407288</ele>
<time>2010-06-20T12:13:39Z</time>
<desc>lat.=56.078556, lon.=26.619171, Alt.=111.407288m. Speed=14.796000m/h.</desc>
<speed>4.110000</speed>
</trkpt>
<trkpt lat="56.078526" lon="26.619232">
<ele>112.092834</ele>
<time>2010-06-20T12:13:40Z</time>
<desc>lat.=56.078526, lon.=26.619232, Alt.=112.092834m. Speed=13.896000m/h.</desc>
<speed>3.860000</speed>
</trkpt>
<trkpt lat="56.078487" lon="26.619280">
<ele>111.522522</ele>
<time>2010-06-20T12:13:41Z</time>
<desc>lat.=56.078487, lon.=26.619280, Alt.=111.522522m. Speed=13.356000m/h.</desc>
<speed>3.710000</speed>
</trkpt>
<trkpt lat="56.078465" lon="26.619343">
<ele>111.885803</ele>
<time>2010-06-20T12:13:42Z</time>
<desc>lat.=56.078465, lon.=26.619343, Alt.=111.885803m. Speed=15.264000m/h.</desc>
<speed>4.240000</speed>
</trkpt>
<trkpt lat="56.078442" lon="26.619411">
<ele>111.991272</ele>
<time>2010-06-20T12:13:43Z</time>
<desc>lat.=56.078442, lon.=26.619411, Alt.=111.991272m. Speed=14.076000m/h.</desc>
<speed>3.910000</speed>
</trkpt>
<trkpt lat="56.078419" lon="26.619471">
<ele>112.620178</ele>
<time>2010-06-20T12:13:44Z</time>
<desc>lat.=56.078419, lon.=26.619471, Alt.=112.620178m. Speed=13.320000m/h.</desc>
<speed>3.700000</speed>
</trkpt>
<trkpt lat="56.078403" lon="26.619537">
<ele>114.077209</ele>
<time>2010-06-20T12:13:45Z</time>
<desc>lat.=56.078403, lon.=26.619537, Alt.=114.077209m. Speed=13.320000m/h.</desc>
<speed>3.700000</speed>
</trkpt>
<trkpt lat="56.078381" lon="26.619593">
<ele>114.911194</ele>
<time>2010-06-20T12:13:46Z</time>
<desc>lat.=56.078381, lon.=26.619593, Alt.=114.911194m. Speed=12.564000m/h.</desc>
<speed>3.490000</speed>
</trkpt>
<trkpt lat="56.078369" lon="26.619646">
<ele>114.670959</ele>
<time>2010-06-20T12:13:47Z</time>
<desc>lat.=56.078369, lon.=26.619646, Alt.=114.670959m. Speed=12.456000m/h.</desc>
<speed>3.460000</speed>
</trkpt>
<trkpt lat="56.078354" lon="26.619703">
<ele>115.362366</ele>
<time>2010-06-20T12:13:48Z</time>
<desc>lat.=56.078354, lon.=26.619703, Alt.=115.362366m. Speed=11.952000m/h.</desc>
<speed>3.320000</speed>
</trkpt>
<trkpt lat="56.078350" lon="26.619749">
<ele>115.919006</ele>
<time>2010-06-20T12:13:49Z</time>
<desc>lat.=56.078350, lon.=26.619749, Alt.=115.919006m. Speed=11.664000m/h.</desc>
<speed>3.240000</speed>
</trkpt>
<trkpt lat="56.078339" lon="26.619806">
<ele>116.194397</ele>
<time>2010-06-20T12:13:50Z</time>
<desc>lat.=56.078339, lon.=26.619806, Alt.=116.194397m. Speed=10.404000m/h.</desc>
<speed>2.890000</speed>
</trkpt>
<trkpt lat="56.078331" lon="26.619856">
<ele>115.866272</ele>
<time>2010-06-20T12:13:51Z</time>
<desc>lat.=56.078331, lon.=26.619856, Alt.=115.866272m. Speed=10.800000m/h.</desc>
<speed>3.000000</speed>
</trkpt>
<trkpt lat="56.078300" lon="26.619905">
<ele>117.145569</ele>
<time>2010-06-20T12:13:52Z</time>
<desc>lat.=56.078300, lon.=26.619905, Alt.=117.145569m. Speed=11.952000m/h.</desc>
<speed>3.320000</speed>
</trkpt>
<trkpt lat="56.078289" lon="26.619959">
<ele>117.610413</ele>
<time>2010-06-20T12:13:53Z</time>
<desc>lat.=56.078289, lon.=26.619959, Alt.=117.610413m. Speed=11.124000m/h.</desc>
<speed>3.090000</speed>
</trkpt>
<trkpt lat="56.078274" lon="26.620022">
<ele>117.161194</ele>
<time>2010-06-20T12:13:54Z</time>
<desc>lat.=56.078274, lon.=26.620022, Alt.=117.161194m. Speed=13.068000m/h.</desc>
<speed>3.630000</speed>
</trkpt>
<trkpt lat="56.078262" lon="26.620089">
<ele>117.766663</ele>
<time>2010-06-20T12:13:55Z</time>
<desc>lat.=56.078262, lon.=26.620089, Alt.=117.766663m. Speed=12.564000m/h.</desc>
<speed>3.490000</speed>
</trkpt>
<trkpt lat="56.078247" lon="26.620146">
<ele>117.208069</ele>
<time>2010-06-20T12:13:56Z</time>
<desc>lat.=56.078247, lon.=26.620146, Alt.=117.208069m. Speed=11.124000m/h.</desc>
<speed>3.090000</speed>
</trkpt>
<trkpt lat="56.078239" lon="26.620201">
<ele>117.821350</ele>
<time>2010-06-20T12:13:57Z</time>
<desc>lat.=56.078239, lon.=26.620201, Alt.=117.821350m. Speed=12.348000m/h.</desc>
<speed>3.430000</speed>
</trkpt>
<trkpt lat="56.078232" lon="26.620262">
<ele>117.987366</ele>
<time>2010-06-20T12:13:58Z</time>
<desc>lat.=56.078232, lon.=26.620262, Alt.=117.987366m. Speed=12.420000m/h.</desc>
<speed>3.450000</speed>
</trkpt>
<trkpt lat="56.078217" lon="26.620321">
<ele>117.608459</ele>
<time>2010-06-20T12:13:59Z</time>
<desc>lat.=56.078217, lon.=26.620321, Alt.=117.608459m. Speed=12.060000m/h.</desc>
<speed>3.350000</speed>
</trkpt>
<trkpt lat="56.078186" lon="26.620371">
<ele>116.774475</ele>
<time>2010-06-20T12:14:00Z</time>
<desc>lat.=56.078186, lon.=26.620371, Alt.=116.774475m. Speed=14.904000m/h.</desc>
<speed>4.140000</speed>
</trkpt>
<trkpt lat="56.078167" lon="26.620432">
<ele>116.206116</ele>
<time>2010-06-20T12:14:01Z</time>
<desc>lat.=56.078167, lon.=26.620432, Alt.=116.206116m. Speed=12.636000m/h.</desc>
<speed>3.510000</speed>
</trkpt>
<trkpt lat="56.078152" lon="26.620487">
<ele>116.504944</ele>
<time>2010-06-20T12:14:02Z</time>
<desc>lat.=56.078152, lon.=26.620487, Alt.=116.504944m. Speed=11.916000m/h.</desc>
<speed>3.310000</speed>
</trkpt>
<trkpt lat="56.078136" lon="26.620552">
<ele>116.395569</ele>
<time>2010-06-20T12:14:03Z</time>
<desc>lat.=56.078136, lon.=26.620552, Alt.=116.395569m. Speed=14.544000m/h.</desc>
<speed>4.040000</speed>
</trkpt>
<trkpt lat="56.078121" lon="26.620619">
<ele>116.465881</ele>
<time>2010-06-20T12:14:04Z</time>
<desc>lat.=56.078121, lon.=26.620619, Alt.=116.465881m. Speed=14.940000m/h.</desc>
<speed>4.150000</speed>
</trkpt>
<trkpt lat="56.078102" lon="26.620684">
<ele>116.522522</ele>
<time>2010-06-20T12:14:05Z</time>
<desc>lat.=56.078102, lon.=26.620684, Alt.=116.522522m. Speed=14.400000m/h.</desc>
<speed>4.000000</speed>
</trkpt>
<trkpt lat="56.078083" lon="26.620754">
<ele>116.555725</ele>
<time>2010-06-20T12:14:06Z</time>
<desc>lat.=56.078083, lon.=26.620754, Alt.=116.555725m. Speed=13.860000m/h.</desc>
<speed>3.850000</speed>
</trkpt>
<trkpt lat="56.078072" lon="26.620813">
<ele>116.555725</ele>
<time>2010-06-20T12:14:07Z</time>
<desc>lat.=56.078072, lon.=26.620813, Alt.=116.555725m. Speed=11.880000m/h.</desc>
<speed>3.300000</speed>
</trkpt>
<trkpt lat="56.078056" lon="26.620869">
<ele>116.047913</ele>
<time>2010-06-20T12:14:08Z</time>
<desc>lat.=56.078056, lon.=26.620869, Alt.=116.047913m. Speed=8.640000m/h.</desc>
<speed>2.400000</speed>
</trkpt>
<trkpt lat="56.078030" lon="26.620932">
<ele>115.434631</ele>
<time>2010-06-20T12:14:09Z</time>
<desc>lat.=56.078030, lon.=26.620932, Alt.=115.434631m. Speed=7.416000m/h.</desc>
<speed>2.060000</speed>
</trkpt>
<trkpt lat="56.078011" lon="26.620979">
<ele>115.741272</ele>
<time>2010-06-20T12:14:10Z</time>
<desc>lat.=56.078011, lon.=26.620979, Alt.=115.741272m. Speed=9.324000m/h.</desc>
<speed>2.590000</speed>
</trkpt>
<trkpt lat="56.078003" lon="26.621029">
<ele>115.794006</ele>
<time>2010-06-20T12:14:11Z</time>
<desc>lat.=56.078003, lon.=26.621029, Alt.=115.794006m. Speed=8.172000m/h.</desc>
<speed>2.270000</speed>
</trkpt>
<trkpt lat="56.077995" lon="26.621077">
<ele>116.270569</ele>
<time>2010-06-20T12:14:12Z</time>
<desc>lat.=56.077995, lon.=26.621077, Alt.=116.270569m. Speed=6.552000m/h.</desc>
<speed>1.820000</speed>
</trkpt>
<trkpt lat="56.077991" lon="26.621105">
<ele>116.452209</ele>
<time>2010-06-20T12:14:13Z</time>
<desc>lat.=56.077991, lon.=26.621105, Alt.=116.452209m. Speed=4.320000m/h.</desc>
<speed>1.200000</speed>
</trkpt>
<trkpt lat="56.077995" lon="26.621122">
<ele>116.641663</ele>
<time>2010-06-20T12:14:14Z</time>
<desc>lat.=56.077995, lon.=26.621122, Alt.=116.641663m. Speed=3.312000m/h.</desc>
<speed>0.920000</speed>
</trkpt>
<trkpt lat="56.077999" lon="26.621145">
<ele>117.483459</ele>
<time>2010-06-20T12:14:15Z</time>
<desc>lat.=56.077999, lon.=26.621145, Alt.=117.483459m. Speed=3.204000m/h.</desc>
<speed>0.890000</speed>
</trkpt>
<trkpt lat="56.078007" lon="26.621166">
<ele>118.456116</ele>
<time>2010-06-20T12:14:16Z</time>
<desc>lat.=56.078007, lon.=26.621166, Alt.=118.456116m. Speed=2.988000m/h.</desc>
<speed>0.830000</speed>
</trkpt>
<trkpt lat="56.078022" lon="26.621193">
<ele>119.452209</ele>
<time>2010-06-20T12:14:17Z</time>
<desc>lat.=56.078022, lon.=26.621193, Alt.=119.452209m. Speed=8.028000m/h.</desc>
<speed>2.230000</speed>
</trkpt>
<trkpt lat="56.078026" lon="26.621243">
<ele>119.803772</ele>
<time>2010-06-20T12:14:18Z</time>
<desc>lat.=56.078026, lon.=26.621243, Alt.=119.803772m. Speed=9.252000m/h.</desc>
<speed>2.570000</speed>
</trkpt>
<trkpt lat="56.078033" lon="26.621294">
<ele>119.924866</ele>
<time>2010-06-20T12:14:19Z</time>
<desc>lat.=56.078033, lon.=26.621294, Alt.=119.924866m. Speed=8.964000m/h.</desc>
<speed>2.490000</speed>
</trkpt>
<trkpt lat="56.078037" lon="26.621351">
<ele>120.172913</ele>
<time>2010-06-20T12:14:20Z</time>
<desc>lat.=56.078037, lon.=26.621351, Alt.=120.172913m. Speed=10.008000m/h.</desc>
<speed>2.780000</speed>
</trkpt>
<trkpt lat="56.078037" lon="26.621399">
<ele>120.040100</ele>
<time>2010-06-20T12:14:21Z</time>
<desc>lat.=56.078037, lon.=26.621399, Alt.=120.040100m. Speed=8.784000m/h.</desc>
<speed>2.440000</speed>
</trkpt>
<trkpt lat="56.078033" lon="26.621458">
<ele>119.764709</ele>
<time>2010-06-20T12:14:22Z</time>
<desc>lat.=56.078033, lon.=26.621458, Alt.=119.764709m. Speed=9.144000m/h.</desc>
<speed>2.540000</speed>
</trkpt>
<trkpt lat="56.078030" lon="26.621511">
<ele>119.489319</ele>
<time>2010-06-20T12:14:23Z</time>
<desc>lat.=56.078030, lon.=26.621511, Alt.=119.489319m. Speed=7.920000m/h.</desc>
<speed>2.200000</speed>
</trkpt>
<trkpt lat="56.078018" lon="26.621571">
<ele>119.508850</ele>
<time>2010-06-20T12:14:24Z</time>
<desc>lat.=56.078018, lon.=26.621571, Alt.=119.508850m. Speed=8.388000m/h.</desc>
<speed>2.330000</speed>
</trkpt>
<trkpt lat="56.078014" lon="26.621618">
<ele>119.551819</ele>
<time>2010-06-20T12:14:25Z</time>
<desc>lat.=56.078014, lon.=26.621618, Alt.=119.551819m. Speed=6.156000m/h.</desc>
<speed>1.710000</speed>
</trkpt>
<trkpt lat="56.078011" lon="26.621660">
<ele>119.557678</ele>
<time>2010-06-20T12:14:26Z</time>
<desc>lat.=56.078011, lon.=26.621660, Alt.=119.557678m. Speed=7.812000m/h.</desc>
<speed>2.170000</speed>
</trkpt>
<trkpt lat="56.078007" lon="26.621714">
<ele>119.934631</ele>
<time>2010-06-20T12:14:27Z</time>
<desc>lat.=56.078007, lon.=26.621714, Alt.=119.934631m. Speed=8.892000m/h.</desc>
<speed>2.470000</speed>
</trkpt>
<trkpt lat="56.078003" lon="26.621796">
<ele>121.501038</ele>
<time>2010-06-20T12:14:28Z</time>
<desc>lat.=56.078003, lon.=26.621796, Alt.=121.501038m. Speed=9.864000m/h.</desc>
<speed>2.740000</speed>
</trkpt>
<trkpt lat="56.077999" lon="26.621859">
<ele>121.540100</ele>
<time>2010-06-20T12:14:29Z</time>
<desc>lat.=56.077999, lon.=26.621859, Alt.=121.540100m. Speed=7.488000m/h.</desc>
<speed>2.080000</speed>
</trkpt>
<trkpt lat="56.077995" lon="26.621899">
<ele>121.999084</ele>
<time>2010-06-20T12:14:30Z</time>
<desc>lat.=56.077995, lon.=26.621899, Alt.=121.999084m. Speed=8.568000m/h.</desc>
<speed>2.380000</speed>
</trkpt>
<trkpt lat="56.077991" lon="26.621954">
<ele>124.219788</ele>
<time>2010-06-20T12:14:31Z</time>
<desc>lat.=56.077991, lon.=26.621954, Alt.=124.219788m. Speed=8.100000m/h.</desc>
<speed>2.250000</speed>
</trkpt>
<trkpt lat="56.077991" lon="26.622019">
<ele>125.292053</ele>
<time>2010-06-20T12:14:32Z</time>
<desc>lat.=56.077991, lon.=26.622019, Alt.=125.292053m. Speed=9.360000m/h.</desc>
<speed>2.600000</speed>
</trkpt>
<trkpt lat="56.077984" lon="26.622082">
<ele>125.821350</ele>
<time>2010-06-20T12:14:33Z</time>
<desc>lat.=56.077984, lon.=26.622082, Alt.=125.821350m. Speed=9.360000m/h.</desc>
<speed>2.600000</speed>
</trkpt>
<trkpt lat="56.077984" lon="26.622131">
<ele>126.489319</ele>
<time>2010-06-20T12:14:34Z</time>
<desc>lat.=56.077984, lon.=26.622131, Alt.=126.489319m. Speed=9.504000m/h.</desc>
<speed>2.640000</speed>
</trkpt>
<trkpt lat="56.077980" lon="26.622192">
<ele>126.346741</ele>
<time>2010-06-20T12:14:35Z</time>
<desc>lat.=56.077980, lon.=26.622192, Alt.=126.346741m. Speed=9.000000m/h.</desc>
<speed>2.500000</speed>
</trkpt>
<trkpt lat="56.077976" lon="26.622255">
<ele>125.612366</ele>
<time>2010-06-20T12:14:36Z</time>
<desc>lat.=56.077976, lon.=26.622255, Alt.=125.612366m. Speed=9.936000m/h.</desc>
<speed>2.760000</speed>
</trkpt>
<trkpt lat="56.077950" lon="26.622385">
<ele>125.180725</ele>
<time>2010-06-20T12:14:37Z</time>
<desc>lat.=56.077950, lon.=26.622385, Alt.=125.180725m. Speed=10.440000m/h.</desc>
<speed>2.900000</speed>
</trkpt>
<trkpt lat="56.077927" lon="26.622480">
<ele>123.659241</ele>
<time>2010-06-20T12:14:38Z</time>
<desc>lat.=56.077927, lon.=26.622480, Alt.=123.659241m. Speed=10.764000m/h.</desc>
<speed>2.990000</speed>
</trkpt>
<trkpt lat="56.077904" lon="26.622557">
<ele>123.186584</ele>
<time>2010-06-20T12:14:39Z</time>
<desc>lat.=56.077904, lon.=26.622557, Alt.=123.186584m. Speed=11.016000m/h.</desc>
<speed>3.060000</speed>
</trkpt>
<trkpt lat="56.077900" lon="26.622606">
<ele>123.446350</ele>
<time>2010-06-20T12:14:40Z</time>
<desc>lat.=56.077900, lon.=26.622606, Alt.=123.446350m. Speed=11.520000m/h.</desc>
<speed>3.200000</speed>
</trkpt>
<trkpt lat="56.077869" lon="26.622719">
<ele>123.112366</ele>
<time>2010-06-20T12:14:41Z</time>
<desc>lat.=56.077869, lon.=26.622719, Alt.=123.112366m. Speed=10.260000m/h.</desc>
<speed>2.850000</speed>
</trkpt>
<trkpt lat="56.077843" lon="26.622820">
<ele>123.602600</ele>
<time>2010-06-20T12:14:42Z</time>
<desc>lat.=56.077843, lon.=26.622820, Alt.=123.602600m. Speed=10.224000m/h.</desc>
<speed>2.840000</speed>
</trkpt>
<trkpt lat="56.077835" lon="26.622864">
<ele>124.057678</ele>
<time>2010-06-20T12:14:43Z</time>
<desc>lat.=56.077835, lon.=26.622864, Alt.=124.057678m. Speed=10.872000m/h.</desc>
<speed>3.020000</speed>
</trkpt>
<trkpt lat="56.077820" lon="26.622969">
<ele>122.897522</ele>
<time>2010-06-20T12:14:44Z</time>
<desc>lat.=56.077820, lon.=26.622969, Alt.=122.897522m. Speed=13.356000m/h.</desc>
<speed>3.710000</speed>
</trkpt>
<trkpt lat="56.077805" lon="26.623068">
<ele>121.854553</ele>
<time>2010-06-20T12:14:45Z</time>
<desc>lat.=56.077805, lon.=26.623068, Alt.=121.854553m. Speed=13.284000m/h.</desc>
<speed>3.690000</speed>
</trkpt>
<trkpt lat="56.077797" lon="26.623127">
<ele>121.493225</ele>
<time>2010-06-20T12:14:46Z</time>
<desc>lat.=56.077797, lon.=26.623127, Alt.=121.493225m. Speed=10.800000m/h.</desc>
<speed>3.000000</speed>
</trkpt>
<trkpt lat="56.077785" lon="26.623245">
<ele>120.364319</ele>
<time>2010-06-20T12:14:47Z</time>
<desc>lat.=56.077785, lon.=26.623245, Alt.=120.364319m. Speed=10.512000m/h.</desc>
<speed>2.920000</speed>
</trkpt>
<trkpt lat="56.077785" lon="26.623291">
<ele>120.469788</ele>
<time>2010-06-20T12:14:48Z</time>
<desc>lat.=56.077785, lon.=26.623291, Alt.=120.469788m. Speed=11.556000m/h.</desc>
<speed>3.210000</speed>
</trkpt>
<trkpt lat="56.077763" lon="26.623363">
<ele>120.126038</ele>
<time>2010-06-20T12:14:49Z</time>
<desc>lat.=56.077763, lon.=26.623363, Alt.=120.126038m. Speed=8.208000m/h.</desc>
<speed>2.280000</speed>
</trkpt>
<trkpt lat="56.077747" lon="26.623455">
<ele>119.042053</ele>
<time>2010-06-20T12:14:50Z</time>
<desc>lat.=56.077747, lon.=26.623455, Alt.=119.042053m. Speed=7.632000m/h.</desc>
<speed>2.120000</speed>
</trkpt>
<trkpt lat="56.077736" lon="26.623501">
<ele>118.401428</ele>
<time>2010-06-20T12:14:51Z</time>
<desc>lat.=56.077736, lon.=26.623501, Alt.=118.401428m. Speed=7.776000m/h.</desc>
<speed>2.160000</speed>
</trkpt>
<trkpt lat="56.077713" lon="26.623545">
<ele>117.329163</ele>
<time>2010-06-20T12:14:52Z</time>
<desc>lat.=56.077713, lon.=26.623545, Alt.=117.329163m. Speed=6.336000m/h.</desc>
<speed>1.760000</speed>
</trkpt>
<trkpt lat="56.077679" lon="26.623587">
<ele>116.040100</ele>
<time>2010-06-20T12:14:53Z</time>
<desc>lat.=56.077679, lon.=26.623587, Alt.=116.040100m. Speed=6.984000m/h.</desc>
<speed>1.940000</speed>
</trkpt>
<trkpt lat="56.077671" lon="26.623615">
<ele>115.936584</ele>
<time>2010-06-20T12:14:54Z</time>
<desc>lat.=56.077671, lon.=26.623615, Alt.=115.936584m. Speed=5.760000m/h.</desc>
<speed>1.600000</speed>
</trkpt>
<trkpt lat="56.077667" lon="26.623653">
<ele>115.475647</ele>
<time>2010-06-20T12:14:55Z</time>
<desc>lat.=56.077667, lon.=26.623653, Alt.=115.475647m. Speed=4.752000m/h.</desc>
<speed>1.320000</speed>
</trkpt>
<trkpt lat="56.077667" lon="26.623680">
<ele>115.395569</ele>
<time>2010-06-20T12:14:56Z</time>
<desc>lat.=56.077667, lon.=26.623680, Alt.=115.395569m. Speed=5.112000m/h.</desc>
<speed>1.420000</speed>
</trkpt>
<trkpt lat="56.077667" lon="26.623737">
<ele>114.913147</ele>
<time>2010-06-20T12:14:57Z</time>
<desc>lat.=56.077667, lon.=26.623737, Alt.=114.913147m. Speed=6.624000m/h.</desc>
<speed>1.840000</speed>
</trkpt>
<trkpt lat="56.077663" lon="26.623772">
<ele>114.922913</ele>
<time>2010-06-20T12:14:58Z</time>
<desc>lat.=56.077663, lon.=26.623772, Alt.=114.922913m. Speed=5.292000m/h.</desc>
<speed>1.470000</speed>
</trkpt>
<trkpt lat="56.077660" lon="26.623798">
<ele>114.954163</ele>
<time>2010-06-20T12:14:59Z</time>
<desc>lat.=56.077660, lon.=26.623798, Alt.=114.954163m. Speed=2.016000m/h.</desc>
<speed>0.560000</speed>
</trkpt>
<trkpt lat="56.077663" lon="26.623829">
<ele>114.559631</ele>
<time>2010-06-20T12:15:00Z</time>
<desc>lat.=56.077663, lon.=26.623829, Alt.=114.559631m. Speed=7.740000m/h.</desc>
<speed>2.150000</speed>
</trkpt>
<trkpt lat="56.077682" lon="26.623949">
<ele>113.592834</ele>
<time>2010-06-20T12:15:01Z</time>
<desc>lat.=56.077682, lon.=26.623949, Alt.=113.592834m. Speed=10.008000m/h.</desc>
<speed>2.780000</speed>
</trkpt>
<trkpt lat="56.077679" lon="26.624002">
<ele>113.354553</ele>
<time>2010-06-20T12:15:02Z</time>
<desc>lat.=56.077679, lon.=26.624002, Alt.=113.354553m. Speed=9.540000m/h.</desc>
<speed>2.650000</speed>
</trkpt>
<trkpt lat="56.077667" lon="26.624046">
<ele>112.999084</ele>
<time>2010-06-20T12:15:03Z</time>
<desc>lat.=56.077667, lon.=26.624046, Alt.=112.999084m. Speed=7.776000m/h.</desc>
<speed>2.160000</speed>
</trkpt>
<trkpt lat="56.077648" lon="26.624090">
<ele>112.581116</ele>
<time>2010-06-20T12:15:04Z</time>
<desc>lat.=56.077648, lon.=26.624090, Alt.=112.581116m. Speed=9.036000m/h.</desc>
<speed>2.510000</speed>
</trkpt>
<trkpt lat="56.077618" lon="26.624132">
<ele>112.147522</ele>
<time>2010-06-20T12:15:05Z</time>
<desc>lat.=56.077618, lon.=26.624132, Alt.=112.147522m. Speed=8.928000m/h.</desc>
<speed>2.480000</speed>
</trkpt>
<trkpt lat="56.077602" lon="26.624176">
<ele>111.940491</ele>
<time>2010-06-20T12:15:06Z</time>
<desc>lat.=56.077602, lon.=26.624176, Alt.=111.940491m. Speed=8.640000m/h.</desc>
<speed>2.400000</speed>
</trkpt>
<trkpt lat="56.077579" lon="26.624220">
<ele>111.643616</ele>
<time>2010-06-20T12:15:07Z</time>
<desc>lat.=56.077579, lon.=26.624220, Alt.=111.643616m. Speed=8.820000m/h.</desc>
<speed>2.450000</speed>
</trkpt>
<trkpt lat="56.077568" lon="26.624273">
<ele>111.303772</ele>
<time>2010-06-20T12:15:08Z</time>
<desc>lat.=56.077568, lon.=26.624273, Alt.=111.303772m. Speed=8.208000m/h.</desc>
<speed>2.280000</speed>
</trkpt>
<trkpt lat="56.077549" lon="26.624315">
<ele>111.012756</ele>
<time>2010-06-20T12:15:09Z</time>
<desc>lat.=56.077549, lon.=26.624315, Alt.=111.012756m. Speed=7.668000m/h.</desc>
<speed>2.130000</speed>
</trkpt>
<trkpt lat="56.077526" lon="26.624371">
<ele>110.520569</ele>
<time>2010-06-20T12:15:10Z</time>
<desc>lat.=56.077526, lon.=26.624371, Alt.=110.520569m. Speed=9.648000m/h.</desc>
<speed>2.680000</speed>
</trkpt>
<trkpt lat="56.077518" lon="26.624462">
<ele>109.967834</ele>
<time>2010-06-20T12:15:11Z</time>
<desc>lat.=56.077518, lon.=26.624462, Alt.=109.967834m. Speed=9.360000m/h.</desc>
<speed>2.600000</speed>
</trkpt>
<trkpt lat="56.077522" lon="26.624546">
<ele>109.461975</ele>
<time>2010-06-20T12:15:12Z</time>
<desc>lat.=56.077522, lon.=26.624546, Alt.=109.461975m. Speed=8.712000m/h.</desc>
<speed>2.420000</speed>
</trkpt>
<trkpt lat="56.077503" lon="26.624590">
<ele>109.026428</ele>
<time>2010-06-20T12:15:13Z</time>
<desc>lat.=56.077503, lon.=26.624590, Alt.=109.026428m. Speed=9.432000m/h.</desc>
<speed>2.620000</speed>
</trkpt>
<trkpt lat="56.077496" lon="26.624643">
<ele>108.581116</ele>
<time>2010-06-20T12:15:14Z</time>
<desc>lat.=56.077496, lon.=26.624643, Alt.=108.581116m. Speed=9.540000m/h.</desc>
<speed>2.650000</speed>
</trkpt>
<trkpt lat="56.077477" lon="26.624693">
<ele>106.657288</ele>
<time>2010-06-20T12:15:15Z</time>
<desc>lat.=56.077477, lon.=26.624693, Alt.=106.657288m. Speed=9.864000m/h.</desc>
<speed>2.740000</speed>
</trkpt>
<trkpt lat="56.077461" lon="26.624746">
<ele>105.848694</ele>
<time>2010-06-20T12:15:16Z</time>
<desc>lat.=56.077461, lon.=26.624746, Alt.=105.848694m. Speed=10.152000m/h.</desc>
<speed>2.820000</speed>
</trkpt>
<trkpt lat="56.077450" lon="26.624784">
<ele>105.723694</ele>
<time>2010-06-20T12:15:17Z</time>
<desc>lat.=56.077450, lon.=26.624784, Alt.=105.723694m. Speed=8.604000m/h.</desc>
<speed>2.390000</speed>
</trkpt>
<trkpt lat="56.077435" lon="26.624821">
<ele>105.305725</ele>
<time>2010-06-20T12:15:18Z</time>
<desc>lat.=56.077435, lon.=26.624821, Alt.=105.305725m. Speed=8.316000m/h.</desc>
<speed>2.310000</speed>
</trkpt>
<trkpt lat="56.077412" lon="26.624866">
<ele>105.096741</ele>
<time>2010-06-20T12:15:19Z</time>
<desc>lat.=56.077412, lon.=26.624866, Alt.=105.096741m. Speed=11.448000m/h.</desc>
<speed>3.180000</speed>
</trkpt>
<trkpt lat="56.077385" lon="26.624924">
<ele>103.815491</ele>
<time>2010-06-20T12:15:20Z</time>
<desc>lat.=56.077385, lon.=26.624924, Alt.=103.815491m. Speed=12.888000m/h.</desc>
<speed>3.580000</speed>
</trkpt>
<trkpt lat="56.077358" lon="26.624971">
<ele>103.622131</ele>
<time>2010-06-20T12:15:21Z</time>
<desc>lat.=56.077358, lon.=26.624971, Alt.=103.622131m. Speed=8.784000m/h.</desc>
<speed>2.440000</speed>
</trkpt>
<trkpt lat="56.077343" lon="26.625010">
<ele>103.262756</ele>
<time>2010-06-20T12:15:22Z</time>
<desc>lat.=56.077343, lon.=26.625010, Alt.=103.262756m. Speed=8.820000m/h.</desc>
<speed>2.450000</speed>
</trkpt>
<trkpt lat="56.077339" lon="26.625057">
<ele>102.544006</ele>
<time>2010-06-20T12:15:23Z</time>
<desc>lat.=56.077339, lon.=26.625057, Alt.=102.544006m. Speed=9.756000m/h.</desc>
<speed>2.710000</speed>
</trkpt>
<trkpt lat="56.077301" lon="26.625111">
<ele>103.708069</ele>
<time>2010-06-20T12:15:24Z</time>
<desc>lat.=56.077301, lon.=26.625111, Alt.=103.708069m. Speed=10.512000m/h.</desc>
<speed>2.920000</speed>
</trkpt>
<trkpt lat="56.077267" lon="26.625156">
<ele>103.852600</ele>
<time>2010-06-20T12:15:25Z</time>
<desc>lat.=56.077267, lon.=26.625156, Alt.=103.852600m. Speed=11.592000m/h.</desc>
<speed>3.220000</speed>
</trkpt>
<trkpt lat="56.077229" lon="26.625198">
<ele>104.413147</ele>
<time>2010-06-20T12:15:26Z</time>
<desc>lat.=56.077229, lon.=26.625198, Alt.=104.413147m. Speed=11.160000m/h.</desc>
<speed>3.100000</speed>
</trkpt>
<trkpt lat="56.077194" lon="26.625252">
<ele>104.602600</ele>
<time>2010-06-20T12:15:27Z</time>
<desc>lat.=56.077194, lon.=26.625252, Alt.=104.602600m. Speed=9.756000m/h.</desc>
<speed>2.710000</speed>
</trkpt>
<trkpt lat="56.077156" lon="26.625309">
<ele>104.713928</ele>
<time>2010-06-20T12:15:28Z</time>
<desc>lat.=56.077156, lon.=26.625309, Alt.=104.713928m. Speed=6.912000m/h.</desc>
<speed>1.920000</speed>
</trkpt>
<trkpt lat="56.077145" lon="26.625341">
<ele>104.483459</ele>
<time>2010-06-20T12:15:29Z</time>
<desc>lat.=56.077145, lon.=26.625341, Alt.=104.483459m. Speed=9.288000m/h.</desc>
<speed>2.580000</speed>
</trkpt>
<trkpt lat="56.077126" lon="26.625380">
<ele>103.280334</ele>
<time>2010-06-20T12:15:30Z</time>
<desc>lat.=56.077126, lon.=26.625380, Alt.=103.280334m. Speed=10.476000m/h.</desc>
<speed>2.910000</speed>
</trkpt>
<trkpt lat="56.077106" lon="26.625427">
<ele>102.836975</ele>
<time>2010-06-20T12:15:31Z</time>
<desc>lat.=56.077106, lon.=26.625427, Alt.=102.836975m. Speed=9.720000m/h.</desc>
<speed>2.700000</speed>
</trkpt>
<trkpt lat="56.077080" lon="26.625481">
<ele>102.534241</ele>
<time>2010-06-20T12:15:32Z</time>
<desc>lat.=56.077080, lon.=26.625481, Alt.=102.534241m. Speed=14.580000m/h.</desc>
<speed>4.050000</speed>
</trkpt>
<trkpt lat="56.077049" lon="26.625532">
<ele>101.272522</ele>
<time>2010-06-20T12:15:33Z</time>
<desc>lat.=56.077049, lon.=26.625532, Alt.=101.272522m. Speed=14.292000m/h.</desc>
<speed>3.970000</speed>
</trkpt>
<trkpt lat="56.077042" lon="26.625612">
<ele>100.792053</ele>
<time>2010-06-20T12:15:34Z</time>
<desc>lat.=56.077042, lon.=26.625612, Alt.=100.792053m. Speed=13.464000m/h.</desc>
<speed>3.740000</speed>
</trkpt>
<trkpt lat="56.077003" lon="26.625671">
<ele>101.374084</ele>
<time>2010-06-20T12:15:35Z</time>
<desc>lat.=56.077003, lon.=26.625671, Alt.=101.374084m. Speed=13.536000m/h.</desc>
<speed>3.760000</speed>
</trkpt>
<trkpt lat="56.076977" lon="26.625748">
<ele>99.188538</ele>
<time>2010-06-20T12:15:36Z</time>
<desc>lat.=56.076977, lon.=26.625748, Alt.=99.188538m. Speed=14.436000m/h.</desc>
<speed>4.010000</speed>
</trkpt>
<trkpt lat="56.076950" lon="26.625792">
<ele>98.807678</ele>
<time>2010-06-20T12:15:37Z</time>
<desc>lat.=56.076950, lon.=26.625792, Alt.=98.807678m. Speed=15.300000m/h.</desc>
<speed>4.250000</speed>
</trkpt>
<trkpt lat="56.076923" lon="26.625841">
<ele>98.407288</ele>
<time>2010-06-20T12:15:38Z</time>
<desc>lat.=56.076923, lon.=26.625841, Alt.=98.407288m. Speed=14.328000m/h.</desc>
<speed>3.980000</speed>
</trkpt>
<trkpt lat="56.076885" lon="26.625916">
<ele>98.381897</ele>
<time>2010-06-20T12:15:39Z</time>
<desc>lat.=56.076885, lon.=26.625916, Alt.=98.381897m. Speed=15.012000m/h.</desc>
<speed>4.170000</speed>
</trkpt>
<trkpt lat="56.076851" lon="26.625984">
<ele>98.600647</ele>
<time>2010-06-20T12:15:40Z</time>
<desc>lat.=56.076851, lon.=26.625984, Alt.=98.600647m. Speed=15.552000m/h.</desc>
<speed>4.320000</speed>
</trkpt>
<trkpt lat="56.076813" lon="26.626043">
<ele>99.086975</ele>
<time>2010-06-20T12:15:41Z</time>
<desc>lat.=56.076813, lon.=26.626043, Alt.=99.086975m. Speed=16.200001m/h.</desc>
<speed>4.500000</speed>
</trkpt>
<trkpt lat="56.076794" lon="26.626085">
<ele>98.651428</ele>
<time>2010-06-20T12:15:42Z</time>
<desc>lat.=56.076794, lon.=26.626085, Alt.=98.651428m. Speed=8.784000m/h.</desc>
<speed>2.440000</speed>
</trkpt>
<trkpt lat="56.076782" lon="26.626139">
<ele>98.403381</ele>
<time>2010-06-20T12:15:43Z</time>
<desc>lat.=56.076782, lon.=26.626139, Alt.=98.403381m. Speed=11.088000m/h.</desc>
<speed>3.080000</speed>
</trkpt>
<trkpt lat="56.076771" lon="26.626183">
<ele>97.934631</ele>
<time>2010-06-20T12:15:44Z</time>
<desc>lat.=56.076771, lon.=26.626183, Alt.=97.934631m. Speed=11.448000m/h.</desc>
<speed>3.180000</speed>
</trkpt>
<trkpt lat="56.076744" lon="26.626249">
<ele>98.001038</ele>
<time>2010-06-20T12:15:45Z</time>
<desc>lat.=56.076744, lon.=26.626249, Alt.=98.001038m. Speed=13.212000m/h.</desc>
<speed>3.670000</speed>
</trkpt>
<trkpt lat="56.076729" lon="26.626299">
<ele>97.604553</ele>
<time>2010-06-20T12:15:46Z</time>
<desc>lat.=56.076729, lon.=26.626299, Alt.=97.604553m. Speed=13.824000m/h.</desc>
<speed>3.840000</speed>
</trkpt>
<trkpt lat="56.076698" lon="26.626377">
<ele>97.090881</ele>
<time>2010-06-20T12:15:47Z</time>
<desc>lat.=56.076698, lon.=26.626377, Alt.=97.090881m. Speed=14.976000m/h.</desc>
<speed>4.160000</speed>
</trkpt>
<trkpt lat="56.076630" lon="26.626570">
<ele>94.024475</ele>
<time>2010-06-20T12:15:48Z</time>
<desc>lat.=56.076630, lon.=26.626570, Alt.=94.024475m. Speed=14.904000m/h.</desc>
<speed>4.140000</speed>
</trkpt>
<trkpt lat="56.076607" lon="26.626640">
<ele>93.401428</ele>
<time>2010-06-20T12:15:49Z</time>
<desc>lat.=56.076607, lon.=26.626640, Alt.=93.401428m. Speed=12.924000m/h.</desc>
<speed>3.590000</speed>
</trkpt>
<trkpt lat="56.076580" lon="26.626802">
<ele>91.169006</ele>
<time>2010-06-20T12:15:50Z</time>
<desc>lat.=56.076580, lon.=26.626802, Alt.=91.169006m. Speed=13.860000m/h.</desc>
<speed>3.850000</speed>
</trkpt>
<trkpt lat="56.076538" lon="26.626869">
<ele>91.204163</ele>
<time>2010-06-20T12:15:51Z</time>
<desc>lat.=56.076538, lon.=26.626869, Alt.=91.204163m. Speed=13.176000m/h.</desc>
<speed>3.660000</speed>
</trkpt>
<trkpt lat="56.076511" lon="26.626951">
<ele>91.460022</ele>
<time>2010-06-20T12:15:52Z</time>
<desc>lat.=56.076511, lon.=26.626951, Alt.=91.460022m. Speed=14.580000m/h.</desc>
<speed>4.050000</speed>
</trkpt>
<trkpt lat="56.076488" lon="26.627018">
<ele>91.069397</ele>
<time>2010-06-20T12:15:53Z</time>
<desc>lat.=56.076488, lon.=26.627018, Alt.=91.069397m. Speed=14.220000m/h.</desc>
<speed>3.950000</speed>
</trkpt>
<trkpt lat="56.076447" lon="26.627094">
<ele>90.469788</ele>
<time>2010-06-20T12:15:54Z</time>
<desc>lat.=56.076447, lon.=26.627094, Alt.=90.469788m. Speed=16.955999m/h.</desc>
<speed>4.710000</speed>
</trkpt>
<trkpt lat="56.076408" lon="26.627161">
<ele>90.044006</ele>
<time>2010-06-20T12:15:55Z</time>
<desc>lat.=56.076408, lon.=26.627161, Alt.=90.044006m. Speed=15.948000m/h.</desc>
<speed>4.430000</speed>
</trkpt>
<trkpt lat="56.076382" lon="26.627237">
<ele>90.059631</ele>
<time>2010-06-20T12:15:56Z</time>
<desc>lat.=56.076382, lon.=26.627237, Alt.=90.059631m. Speed=16.271999m/h.</desc>
<speed>4.520000</speed>
</trkpt>
<trkpt lat="56.076355" lon="26.627304">
<ele>89.944397</ele>
<time>2010-06-20T12:15:57Z</time>
<desc>lat.=56.076355, lon.=26.627304, Alt.=89.944397m. Speed=15.804000m/h.</desc>
<speed>4.390000</speed>
</trkpt>
<trkpt lat="56.076324" lon="26.627375">
<ele>89.422913</ele>
<time>2010-06-20T12:15:58Z</time>
<desc>lat.=56.076324, lon.=26.627375, Alt.=89.422913m. Speed=14.220000m/h.</desc>
<speed>3.950000</speed>
</trkpt>
<trkpt lat="56.076290" lon="26.627443">
<ele>89.409241</ele>
<time>2010-06-20T12:15:59Z</time>
<desc>lat.=56.076290, lon.=26.627443, Alt.=89.409241m. Speed=15.804000m/h.</desc>
<speed>4.390000</speed>
</trkpt>
<trkpt lat="56.076252" lon="26.627506">
<ele>88.901428</ele>
<time>2010-06-20T12:16:00Z</time>
<desc>lat.=56.076252, lon.=26.627506, Alt.=88.901428m. Speed=15.516000m/h.</desc>
<speed>4.310000</speed>
</trkpt>
<trkpt lat="56.076229" lon="26.627577">
<ele>88.477600</ele>
<time>2010-06-20T12:16:01Z</time>
<desc>lat.=56.076229, lon.=26.627577, Alt.=88.477600m. Speed=12.600000m/h.</desc>
<speed>3.500000</speed>
</trkpt>
<trkpt lat="56.076202" lon="26.627649">
<ele>88.663147</ele>
<time>2010-06-20T12:16:02Z</time>
<desc>lat.=56.076202, lon.=26.627649, Alt.=88.663147m. Speed=13.896000m/h.</desc>
<speed>3.860000</speed>
</trkpt>
<trkpt lat="56.076172" lon="26.627714">
<ele>88.538147</ele>
<time>2010-06-20T12:16:03Z</time>
<desc>lat.=56.076172, lon.=26.627714, Alt.=88.538147m. Speed=16.344000m/h.</desc>
<speed>4.540000</speed>
</trkpt>
<trkpt lat="56.076134" lon="26.627811">
<ele>88.510803</ele>
<time>2010-06-20T12:16:04Z</time>
<desc>lat.=56.076134, lon.=26.627811, Alt.=88.510803m. Speed=19.332001m/h.</desc>
<speed>5.370000</speed>
</trkpt>
<trkpt lat="56.076096" lon="26.627890">
<ele>88.151428</ele>
<time>2010-06-20T12:16:05Z</time>
<desc>lat.=56.076096, lon.=26.627890, Alt.=88.151428m. Speed=19.152000m/h.</desc>
<speed>5.320000</speed>
</trkpt>
<trkpt lat="56.076061" lon="26.627960">
<ele>87.860413</ele>
<time>2010-06-20T12:16:06Z</time>
<desc>lat.=56.076061, lon.=26.627960, Alt.=87.860413m. Speed=17.820000m/h.</desc>
<speed>4.950000</speed>
</trkpt>
<trkpt lat="56.076023" lon="26.628033">
<ele>87.825256</ele>
<time>2010-06-20T12:16:07Z</time>
<desc>lat.=56.076023, lon.=26.628033, Alt.=87.825256m. Speed=18.468000m/h.</desc>
<speed>5.130000</speed>
</trkpt>
<trkpt lat="56.075985" lon="26.628099">
<ele>87.809631</ele>
<time>2010-06-20T12:16:08Z</time>
<desc>lat.=56.075985, lon.=26.628099, Alt.=87.809631m. Speed=19.260000m/h.</desc>
<speed>5.350000</speed>
</trkpt>
<trkpt lat="56.075951" lon="26.628176">
<ele>87.864319</ele>
<time>2010-06-20T12:16:09Z</time>
<desc>lat.=56.075951, lon.=26.628176, Alt.=87.864319m. Speed=17.712000m/h.</desc>
<speed>4.920000</speed>
</trkpt>
<trkpt lat="56.075924" lon="26.628256">
<ele>87.815491</ele>
<time>2010-06-20T12:16:10Z</time>
<desc>lat.=56.075924, lon.=26.628256, Alt.=87.815491m. Speed=17.136000m/h.</desc>
<speed>4.760000</speed>
</trkpt>
<trkpt lat="56.075890" lon="26.628338">
<ele>88.536194</ele>
<time>2010-06-20T12:16:11Z</time>
<desc>lat.=56.075890, lon.=26.628338, Alt.=88.536194m. Speed=18.504000m/h.</desc>
<speed>5.140000</speed>
</trkpt>
<trkpt lat="56.075855" lon="26.628416">
<ele>87.993225</ele>
<time>2010-06-20T12:16:12Z</time>
<desc>lat.=56.075855, lon.=26.628416, Alt.=87.993225m. Speed=19.115999m/h.</desc>
<speed>5.310000</speed>
</trkpt>
<trkpt lat="56.075825" lon="26.628496">
<ele>88.032288</ele>
<time>2010-06-20T12:16:13Z</time>
<desc>lat.=56.075825, lon.=26.628496, Alt.=88.032288m. Speed=16.344000m/h.</desc>
<speed>4.540000</speed>
</trkpt>
<trkpt lat="56.075798" lon="26.628582">
<ele>88.129944</ele>
<time>2010-06-20T12:16:14Z</time>
<desc>lat.=56.075798, lon.=26.628582, Alt.=88.129944m. Speed=17.604000m/h.</desc>
<speed>4.890000</speed>
</trkpt>
<trkpt lat="56.075775" lon="26.628677">
<ele>88.186584</ele>
<time>2010-06-20T12:16:15Z</time>
<desc>lat.=56.075775, lon.=26.628677, Alt.=88.186584m. Speed=20.052000m/h.</desc>
<speed>5.570000</speed>
</trkpt>
<trkpt lat="56.075745" lon="26.628771">
<ele>88.233459</ele>
<time>2010-06-20T12:16:16Z</time>
<desc>lat.=56.075745, lon.=26.628771, Alt.=88.233459m. Speed=18.864000m/h.</desc>
<speed>5.240000</speed>
</trkpt>
<trkpt lat="56.075710" lon="26.628859">
<ele>88.260803</ele>
<time>2010-06-20T12:16:17Z</time>
<desc>lat.=56.075710, lon.=26.628859, Alt.=88.260803m. Speed=18.216000m/h.</desc>
<speed>5.060000</speed>
</trkpt>
<trkpt lat="56.075680" lon="26.628948">
<ele>88.170959</ele>
<time>2010-06-20T12:16:18Z</time>
<desc>lat.=56.075680, lon.=26.628948, Alt.=88.170959m. Speed=18.108000m/h.</desc>
<speed>5.030000</speed>
</trkpt>
<trkpt lat="56.075661" lon="26.629021">
<ele>88.085022</ele>
<time>2010-06-20T12:16:19Z</time>
<desc>lat.=56.075661, lon.=26.629021, Alt.=88.085022m. Speed=12.960000m/h.</desc>
<speed>3.600000</speed>
</trkpt>
<trkpt lat="56.075638" lon="26.629089">
<ele>88.112366</ele>
<time>2010-06-20T12:16:20Z</time>
<desc>lat.=56.075638, lon.=26.629089, Alt.=88.112366m. Speed=14.976000m/h.</desc>
<speed>4.160000</speed>
</trkpt>
<trkpt lat="56.075615" lon="26.629156">
<ele>87.811584</ele>
<time>2010-06-20T12:16:21Z</time>
<desc>lat.=56.075615, lon.=26.629156, Alt.=87.811584m. Speed=13.212000m/h.</desc>
<speed>3.670000</speed>
</trkpt>
<trkpt lat="56.075588" lon="26.629227">
<ele>87.436584</ele>
<time>2010-06-20T12:16:22Z</time>
<desc>lat.=56.075588, lon.=26.629227, Alt.=87.436584m. Speed=14.076000m/h.</desc>
<speed>3.910000</speed>
</trkpt>
<trkpt lat="56.075565" lon="26.629290">
<ele>87.059631</ele>
<time>2010-06-20T12:16:23Z</time>
<desc>lat.=56.075565, lon.=26.629290, Alt.=87.059631m. Speed=12.852000m/h.</desc>
<speed>3.570000</speed>
</trkpt>
<trkpt lat="56.075539" lon="26.629347">
<ele>86.854553</ele>
<time>2010-06-20T12:16:24Z</time>
<desc>lat.=56.075539, lon.=26.629347, Alt.=86.854553m. Speed=12.456000m/h.</desc>
<speed>3.460000</speed>
</trkpt>
<trkpt lat="56.075516" lon="26.629414">
<ele>86.497131</ele>
<time>2010-06-20T12:16:25Z</time>
<desc>lat.=56.075516, lon.=26.629414, Alt.=86.497131m. Speed=12.924000m/h.</desc>
<speed>3.590000</speed>
</trkpt>
<trkpt lat="56.075481" lon="26.629490">
<ele>86.411194</ele>
<time>2010-06-20T12:16:26Z</time>
<desc>lat.=56.075481, lon.=26.629490, Alt.=86.411194m. Speed=13.464000m/h.</desc>
<speed>3.740000</speed>
</trkpt>
<trkpt lat="56.075443" lon="26.629591">
<ele>88.495178</ele>
<time>2010-06-20T12:16:27Z</time>
<desc>lat.=56.075443, lon.=26.629591, Alt.=88.495178m. Speed=16.955999m/h.</desc>
<speed>4.710000</speed>
</trkpt>
<trkpt lat="56.075439" lon="26.629665">
<ele>88.856506</ele>
<time>2010-06-20T12:16:28Z</time>
<desc>lat.=56.075439, lon.=26.629665, Alt.=88.856506m. Speed=16.308001m/h.</desc>
<speed>4.530000</speed>
</trkpt>
<trkpt lat="56.075439" lon="26.629740">
<ele>89.321350</ele>
<time>2010-06-20T12:16:29Z</time>
<desc>lat.=56.075439, lon.=26.629740, Alt.=89.321350m. Speed=15.984000m/h.</desc>
<speed>4.440000</speed>
</trkpt>
<trkpt lat="56.075443" lon="26.629810">
<ele>89.915100</ele>
<time>2010-06-20T12:16:30Z</time>
<desc>lat.=56.075443, lon.=26.629810, Alt.=89.915100m. Speed=13.572000m/h.</desc>
<speed>3.770000</speed>
</trkpt>
<trkpt lat="56.075447" lon="26.629869">
<ele>90.569397</ele>
<time>2010-06-20T12:16:31Z</time>
<desc>lat.=56.075447, lon.=26.629869, Alt.=90.569397m. Speed=15.552000m/h.</desc>
<speed>4.320000</speed>
</trkpt>
<trkpt lat="56.075432" lon="26.629944">
<ele>92.081116</ele>
<time>2010-06-20T12:16:32Z</time>
<desc>lat.=56.075432, lon.=26.629944, Alt.=92.081116m. Speed=9.360000m/h.</desc>
<speed>2.600000</speed>
</trkpt>
<trkpt lat="56.075424" lon="26.630009">
<ele>93.184631</ele>
<time>2010-06-20T12:16:33Z</time>
<desc>lat.=56.075424, lon.=26.630009, Alt.=93.184631m. Speed=11.088000m/h.</desc>
<speed>3.080000</speed>
</trkpt>
<trkpt lat="56.075409" lon="26.630070">
<ele>94.930725</ele>
<time>2010-06-20T12:16:34Z</time>
<desc>lat.=56.075409, lon.=26.630070, Alt.=94.930725m. Speed=10.800000m/h.</desc>
<speed>3.000000</speed>
</trkpt>
<trkpt lat="56.075390" lon="26.630140">
<ele>96.887756</ele>
<time>2010-06-20T12:16:35Z</time>
<desc>lat.=56.075390, lon.=26.630140, Alt.=96.887756m. Speed=10.368000m/h.</desc>
<speed>2.880000</speed>
</trkpt>
<trkpt lat="56.075367" lon="26.630205">
<ele>98.801819</ele>
<time>2010-06-20T12:16:36Z</time>
<desc>lat.=56.075367, lon.=26.630205, Alt.=98.801819m. Speed=10.836000m/h.</desc>
<speed>3.010000</speed>
</trkpt>
<trkpt lat="56.075359" lon="26.630283">
<ele>98.967834</ele>
<time>2010-06-20T12:16:37Z</time>
<desc>lat.=56.075359, lon.=26.630283, Alt.=98.967834m. Speed=11.520000m/h.</desc>
<speed>3.200000</speed>
</trkpt>
<trkpt lat="56.075348" lon="26.630331">
<ele>99.694397</ele>
<time>2010-06-20T12:16:38Z</time>
<desc>lat.=56.075348, lon.=26.630331, Alt.=99.694397m. Speed=13.320000m/h.</desc>
<speed>3.700000</speed>
</trkpt>
<trkpt lat="56.075321" lon="26.630405">
<ele>101.735413</ele>
<time>2010-06-20T12:16:39Z</time>
<desc>lat.=56.075321, lon.=26.630405, Alt.=101.735413m. Speed=15.192000m/h.</desc>
<speed>4.220000</speed>
</trkpt>
<trkpt lat="56.075310" lon="26.630472">
<ele>102.454163</ele>
<time>2010-06-20T12:16:40Z</time>
<desc>lat.=56.075310, lon.=26.630472, Alt.=102.454163m. Speed=13.896000m/h.</desc>
<speed>3.860000</speed>
</trkpt>
<trkpt lat="56.075302" lon="26.630547">
<ele>104.204163</ele>
<time>2010-06-20T12:16:41Z</time>
<desc>lat.=56.075302, lon.=26.630547, Alt.=104.204163m. Speed=10.332000m/h.</desc>
<speed>2.870000</speed>
</trkpt>
<trkpt lat="56.075294" lon="26.630623">
<ele>107.372131</ele>
<time>2010-06-20T12:16:42Z</time>
<desc>lat.=56.075294, lon.=26.630623, Alt.=107.372131m. Speed=15.300000m/h.</desc>
<speed>4.250000</speed>
</trkpt>
<trkpt lat="56.075279" lon="26.630701">
<ele>109.534241</ele>
<time>2010-06-20T12:16:43Z</time>
<desc>lat.=56.075279, lon.=26.630701, Alt.=109.534241m. Speed=14.436000m/h.</desc>
<speed>4.010000</speed>
</trkpt>
<trkpt lat="56.075264" lon="26.630785">
<ele>112.602600</ele>
<time>2010-06-20T12:16:44Z</time>
<desc>lat.=56.075264, lon.=26.630785, Alt.=112.602600m. Speed=14.004000m/h.</desc>
<speed>3.890000</speed>
</trkpt>
<trkpt lat="56.075249" lon="26.630867">
<ele>115.143616</ele>
<time>2010-06-20T12:16:45Z</time>
<desc>lat.=56.075249, lon.=26.630867, Alt.=115.143616m. Speed=15.948000m/h.</desc>
<speed>4.430000</speed>
</trkpt>
<trkpt lat="56.075245" lon="26.630945">
<ele>116.002991</ele>
<time>2010-06-20T12:16:46Z</time>
<desc>lat.=56.075245, lon.=26.630945, Alt.=116.002991m. Speed=15.480000m/h.</desc>
<speed>4.300000</speed>
</trkpt>
<trkpt lat="56.075222" lon="26.631035">
<ele>118.444397</ele>
<time>2010-06-20T12:16:47Z</time>
<desc>lat.=56.075222, lon.=26.631035, Alt.=118.444397m. Speed=17.280001m/h.</desc>
<speed>4.800000</speed>
</trkpt>
<trkpt lat="56.075207" lon="26.631126">
<ele>120.461975</ele>
<time>2010-06-20T12:16:48Z</time>
<desc>lat.=56.075207, lon.=26.631126, Alt.=120.461975m. Speed=16.992001m/h.</desc>
<speed>4.720000</speed>
</trkpt>
<trkpt lat="56.075172" lon="26.631210">
<ele>125.028381</ele>
<time>2010-06-20T12:16:49Z</time>
<desc>lat.=56.075172, lon.=26.631210, Alt.=125.028381m. Speed=15.516000m/h.</desc>
<speed>4.310000</speed>
</trkpt>
<trkpt lat="56.075146" lon="26.631289">
<ele>129.142700</ele>
<time>2010-06-20T12:16:50Z</time>
<desc>lat.=56.075146, lon.=26.631289, Alt.=129.142700m. Speed=14.220000m/h.</desc>
<speed>3.950000</speed>
</trkpt>
<trkpt lat="56.075130" lon="26.631380">
<ele>128.966919</ele>
<time>2010-06-20T12:16:51Z</time>
<desc>lat.=56.075130, lon.=26.631380, Alt.=128.966919m. Speed=17.424000m/h.</desc>
<speed>4.840000</speed>
</trkpt>
<trkpt lat="56.075100" lon="26.631485">
<ele>130.822388</ele>
<time>2010-06-20T12:16:52Z</time>
<desc>lat.=56.075100, lon.=26.631485, Alt.=130.822388m. Speed=17.063999m/h.</desc>
<speed>4.740000</speed>
</trkpt>
<trkpt lat="56.075058" lon="26.631634">
<ele>132.045044</ele>
<time>2010-06-20T12:16:53Z</time>
<desc>lat.=56.075058, lon.=26.631634, Alt.=132.045044m. Speed=16.020000m/h.</desc>
<speed>4.450000</speed>
</trkpt>
<trkpt lat="56.075058" lon="26.631695">
<ele>133.357544</ele>
<time>2010-06-20T12:16:54Z</time>
<desc>lat.=56.075058, lon.=26.631695, Alt.=133.357544m. Speed=13.644000m/h.</desc>
<speed>3.790000</speed>
</trkpt>
<trkpt lat="56.075050" lon="26.631767">
<ele>134.193481</ele>
<time>2010-06-20T12:16:55Z</time>
<desc>lat.=56.075050, lon.=26.631767, Alt.=134.193481m. Speed=15.120000m/h.</desc>
<speed>4.200000</speed>
</trkpt>
<trkpt lat="56.075039" lon="26.631845">
<ele>135.548950</ele>
<time>2010-06-20T12:16:56Z</time>
<desc>lat.=56.075039, lon.=26.631845, Alt.=135.548950m. Speed=15.768000m/h.</desc>
<speed>4.380000</speed>
</trkpt>
<trkpt lat="56.075020" lon="26.631933">
<ele>136.896606</ele>
<time>2010-06-20T12:16:57Z</time>
<desc>lat.=56.075020, lon.=26.631933, Alt.=136.896606m. Speed=16.091999m/h.</desc>
<speed>4.470000</speed>
</trkpt>
<trkpt lat="56.075012" lon="26.632010">
<ele>137.662231</ele>
<time>2010-06-20T12:16:58Z</time>
<desc>lat.=56.075012, lon.=26.632010, Alt.=137.662231m. Speed=16.020000m/h.</desc>
<speed>4.450000</speed>
</trkpt>
<trkpt lat="56.074993" lon="26.632092">
<ele>135.920044</ele>
<time>2010-06-20T12:16:59Z</time>
<desc>lat.=56.074993, lon.=26.632092, Alt.=135.920044m. Speed=16.524000m/h.</desc>
<speed>4.590000</speed>
</trkpt>
<trkpt lat="56.074974" lon="26.632170">
<ele>136.705200</ele>
<time>2010-06-20T12:17:00Z</time>
<desc>lat.=56.074974, lon.=26.632170, Alt.=136.705200m. Speed=15.912000m/h.</desc>
<speed>4.420000</speed>
</trkpt>
<trkpt lat="56.074951" lon="26.632240">
<ele>137.904419</ele>
<time>2010-06-20T12:17:01Z</time>
<desc>lat.=56.074951, lon.=26.632240, Alt.=137.904419m. Speed=14.400000m/h.</desc>
<speed>4.000000</speed>
</trkpt>
<trkpt lat="56.074932" lon="26.632309">
<ele>138.181763</ele>
<time>2010-06-20T12:17:02Z</time>
<desc>lat.=56.074932, lon.=26.632309, Alt.=138.181763m. Speed=10.656000m/h.</desc>
<speed>2.960000</speed>
</trkpt>
<trkpt lat="56.074924" lon="26.632380">
<ele>138.916138</ele>
<time>2010-06-20T12:17:03Z</time>
<desc>lat.=56.074924, lon.=26.632380, Alt.=138.916138m. Speed=11.592000m/h.</desc>
<speed>3.220000</speed>
</trkpt>
<trkpt lat="56.074921" lon="26.632456">
<ele>138.533325</ele>
<time>2010-06-20T12:17:04Z</time>
<desc>lat.=56.074921, lon.=26.632456, Alt.=138.533325m. Speed=13.536000m/h.</desc>
<speed>3.760000</speed>
</trkpt>
<trkpt lat="56.074913" lon="26.632551">
<ele>138.080200</ele>
<time>2010-06-20T12:17:05Z</time>
<desc>lat.=56.074913, lon.=26.632551, Alt.=138.080200m. Speed=13.068000m/h.</desc>
<speed>3.630000</speed>
</trkpt>
<trkpt lat="56.074905" lon="26.632647">
<ele>137.818481</ele>
<time>2010-06-20T12:17:06Z</time>
<desc>lat.=56.074905, lon.=26.632647, Alt.=137.818481m. Speed=13.068000m/h.</desc>
<speed>3.630000</speed>
</trkpt>
<trkpt lat="56.074902" lon="26.632725">
<ele>137.123169</ele>
<time>2010-06-20T12:17:07Z</time>
<desc>lat.=56.074902, lon.=26.632725, Alt.=137.123169m. Speed=12.276000m/h.</desc>
<speed>3.410000</speed>
</trkpt>
<trkpt lat="56.074852" lon="26.632900">
<ele>135.630981</ele>
<time>2010-06-20T12:17:08Z</time>
<desc>lat.=56.074852, lon.=26.632900, Alt.=135.630981m. Speed=11.304000m/h.</desc>
<speed>3.140000</speed>
</trkpt>
<trkpt lat="56.074848" lon="26.632971">
<ele>135.213013</ele>
<time>2010-06-20T12:17:09Z</time>
<desc>lat.=56.074848, lon.=26.632971, Alt.=135.213013m. Speed=13.860000m/h.</desc>
<speed>3.850000</speed>
</trkpt>
<trkpt lat="56.074837" lon="26.633059">
<ele>135.482544</ele>
<time>2010-06-20T12:17:10Z</time>
<desc>lat.=56.074837, lon.=26.633059, Alt.=135.482544m. Speed=17.424000m/h.</desc>
<speed>4.840000</speed>
</trkpt>
<trkpt lat="56.074825" lon="26.633156">
<ele>135.064575</ele>
<time>2010-06-20T12:17:11Z</time>
<desc>lat.=56.074825, lon.=26.633156, Alt.=135.064575m. Speed=14.004000m/h.</desc>
<speed>3.890000</speed>
</trkpt>
<trkpt lat="56.074818" lon="26.633245">
<ele>135.654419</ele>
<time>2010-06-20T12:17:12Z</time>
<desc>lat.=56.074818, lon.=26.633245, Alt.=135.654419m. Speed=17.316000m/h.</desc>
<speed>4.810000</speed>
</trkpt>
<trkpt lat="56.074810" lon="26.633337">
<ele>136.392700</ele>
<time>2010-06-20T12:17:13Z</time>
<desc>lat.=56.074810, lon.=26.633337, Alt.=136.392700m. Speed=16.452000m/h.</desc>
<speed>4.570000</speed>
</trkpt>
<trkpt lat="56.074806" lon="26.633410">
<ele>137.380981</ele>
<time>2010-06-20T12:17:14Z</time>
<desc>lat.=56.074806, lon.=26.633410, Alt.=137.380981m. Speed=17.604000m/h.</desc>
<speed>4.890000</speed>
</trkpt>
<trkpt lat="56.074764" lon="26.633612">
<ele>138.423950</ele>
<time>2010-06-20T12:17:15Z</time>
<desc>lat.=56.074764, lon.=26.633612, Alt.=138.423950m. Speed=16.344000m/h.</desc>
<speed>4.540000</speed>
</trkpt>
<trkpt lat="56.074764" lon="26.633686">
<ele>139.951294</ele>
<time>2010-06-20T12:17:16Z</time>
<desc>lat.=56.074764, lon.=26.633686, Alt.=139.951294m. Speed=15.948000m/h.</desc>
<speed>4.430000</speed>
</trkpt>
<trkpt lat="56.074760" lon="26.633757">
<ele>141.603638</ele>
<time>2010-06-20T12:17:17Z</time>
<desc>lat.=56.074760, lon.=26.633757, Alt.=141.603638m. Speed=15.768000m/h.</desc>
<speed>4.380000</speed>
</trkpt>
<trkpt lat="56.074726" lon="26.633953">
<ele>141.736450</ele>
<time>2010-06-20T12:17:18Z</time>
<desc>lat.=56.074726, lon.=26.633953, Alt.=141.736450m. Speed=15.480000m/h.</desc>
<speed>4.300000</speed>
</trkpt>
<trkpt lat="56.074635" lon="26.634308">
<ele>144.232544</ele>
<time>2010-06-20T12:17:19Z</time>
<desc>lat.=56.074635, lon.=26.634308, Alt.=144.232544m. Speed=12.204000m/h.</desc>
<speed>3.390000</speed>
</trkpt>
<trkpt lat="56.074627" lon="26.634361">
<ele>145.630981</ele>
<time>2010-06-20T12:17:20Z</time>
<desc>lat.=56.074627, lon.=26.634361, Alt.=145.630981m. Speed=13.104000m/h.</desc>
<speed>3.640000</speed>
</trkpt>
<trkpt lat="56.074619" lon="26.634457">
<ele>146.857544</ele>
<time>2010-06-20T12:17:21Z</time>
<desc>lat.=56.074619, lon.=26.634457, Alt.=146.857544m. Speed=13.248000m/h.</desc>
<speed>3.680000</speed>
</trkpt>
<trkpt lat="56.074585" lon="26.634611">
<ele>144.634888</ele>
<time>2010-06-20T12:17:22Z</time>
<desc>lat.=56.074585, lon.=26.634611, Alt.=144.634888m. Speed=11.988000m/h.</desc>
<speed>3.330000</speed>
</trkpt>
<trkpt lat="56.074577" lon="26.634718">
<ele>143.900513</ele>
<time>2010-06-20T12:17:23Z</time>
<desc>lat.=56.074577, lon.=26.634718, Alt.=143.900513m. Speed=13.392000m/h.</desc>
<speed>3.720000</speed>
</trkpt>
<trkpt lat="56.074570" lon="26.634804">
<ele>143.025513</ele>
<time>2010-06-20T12:17:24Z</time>
<desc>lat.=56.074570, lon.=26.634804, Alt.=143.025513m. Speed=12.564000m/h.</desc>
<speed>3.490000</speed>
</trkpt>
<trkpt lat="56.074566" lon="26.634859">
<ele>144.494263</ele>
<time>2010-06-20T12:17:25Z</time>
<desc>lat.=56.074566, lon.=26.634859, Alt.=144.494263m. Speed=13.320000m/h.</desc>
<speed>3.700000</speed>
</trkpt>
<trkpt lat="56.074558" lon="26.634943">
<ele>144.123169</ele>
<time>2010-06-20T12:17:26Z</time>
<desc>lat.=56.074558, lon.=26.634943, Alt.=144.123169m. Speed=13.968000m/h.</desc>
<speed>3.880000</speed>
</trkpt>
<trkpt lat="56.074547" lon="26.635019">
<ele>143.388794</ele>
<time>2010-06-20T12:17:27Z</time>
<desc>lat.=56.074547, lon.=26.635019, Alt.=143.388794m. Speed=11.052000m/h.</desc>
<speed>3.070000</speed>
</trkpt>
<trkpt lat="56.074539" lon="26.635067">
<ele>144.826294</ele>
<time>2010-06-20T12:17:28Z</time>
<desc>lat.=56.074539, lon.=26.635067, Alt.=144.826294m. Speed=12.924000m/h.</desc>
<speed>3.590000</speed>
</trkpt>
<trkpt lat="56.074532" lon="26.635147">
<ele>145.115356</ele>
<time>2010-06-20T12:17:29Z</time>
<desc>lat.=56.074532, lon.=26.635147, Alt.=145.115356m. Speed=14.184000m/h.</desc>
<speed>3.940000</speed>
</trkpt>
<trkpt lat="56.074516" lon="26.635237">
<ele>144.779419</ele>
<time>2010-06-20T12:17:30Z</time>
<desc>lat.=56.074516, lon.=26.635237, Alt.=144.779419m. Speed=14.688000m/h.</desc>
<speed>4.080000</speed>
</trkpt>
<trkpt lat="56.074509" lon="26.635302">
<ele>146.197388</ele>
<time>2010-06-20T12:17:31Z</time>
<desc>lat.=56.074509, lon.=26.635302, Alt.=146.197388m. Speed=12.024000m/h.</desc>
<speed>3.340000</speed>
</trkpt>
<trkpt lat="56.074501" lon="26.635365">
<ele>146.685669</ele>
<time>2010-06-20T12:17:32Z</time>
<desc>lat.=56.074501, lon.=26.635365, Alt.=146.685669m. Speed=9.972000m/h.</desc>
<speed>2.770000</speed>
</trkpt>
<trkpt lat="56.074490" lon="26.635420">
<ele>147.533325</ele>
<time>2010-06-20T12:17:33Z</time>
<desc>lat.=56.074490, lon.=26.635420, Alt.=147.533325m. Speed=9.504000m/h.</desc>
<speed>2.640000</speed>
</trkpt>
<trkpt lat="56.074482" lon="26.635466">
<ele>148.599731</ele>
<time>2010-06-20T12:17:34Z</time>
<desc>lat.=56.074482, lon.=26.635466, Alt.=148.599731m. Speed=10.368000m/h.</desc>
<speed>2.880000</speed>
</trkpt>
<trkpt lat="56.074486" lon="26.635513">
<ele>149.857544</ele>
<time>2010-06-20T12:17:35Z</time>
<desc>lat.=56.074486, lon.=26.635513, Alt.=149.857544m. Speed=11.700000m/h.</desc>
<speed>3.250000</speed>
</trkpt>
<trkpt lat="56.074478" lon="26.635609">
<ele>150.009888</ele>
<time>2010-06-20T12:17:36Z</time>
<desc>lat.=56.074478, lon.=26.635609, Alt.=150.009888m. Speed=13.608000m/h.</desc>
<speed>3.780000</speed>
</trkpt>
<trkpt lat="56.074467" lon="26.635685">
<ele>150.451294</ele>
<time>2010-06-20T12:17:37Z</time>
<desc>lat.=56.074467, lon.=26.635685, Alt.=150.451294m. Speed=14.868000m/h.</desc>
<speed>4.130000</speed>
</trkpt>
<trkpt lat="56.074406" lon="26.635881">
<ele>152.150513</ele>
<time>2010-06-20T12:17:38Z</time>
<desc>lat.=56.074406, lon.=26.635881, Alt.=152.150513m. Speed=13.932000m/h.</desc>
<speed>3.870000</speed>
</trkpt>
<trkpt lat="56.074406" lon="26.635944">
<ele>153.263794</ele>
<time>2010-06-20T12:17:39Z</time>
<desc>lat.=56.074406, lon.=26.635944, Alt.=153.263794m. Speed=12.528000m/h.</desc>
<speed>3.480000</speed>
</trkpt>
<trkpt lat="56.074371" lon="26.636015">
<ele>154.045044</ele>
<time>2010-06-20T12:17:40Z</time>
<desc>lat.=56.074371, lon.=26.636015, Alt.=154.045044m. Speed=16.452000m/h.</desc>
<speed>4.570000</speed>
</trkpt>
<trkpt lat="56.074352" lon="26.636105">
<ele>154.166138</ele>
<time>2010-06-20T12:17:41Z</time>
<desc>lat.=56.074352, lon.=26.636105, Alt.=154.166138m. Speed=15.948000m/h.</desc>
<speed>4.430000</speed>
</trkpt>
<trkpt lat="56.074310" lon="26.636257">
<ele>151.892700</ele>
<time>2010-06-20T12:17:42Z</time>
<desc>lat.=56.074310, lon.=26.636257, Alt.=151.892700m. Speed=15.732000m/h.</desc>
<speed>4.370000</speed>
</trkpt>
<trkpt lat="56.074287" lon="26.636351">
<ele>150.326294</ele>
<time>2010-06-20T12:17:43Z</time>
<desc>lat.=56.074287, lon.=26.636351, Alt.=150.326294m. Speed=14.292000m/h.</desc>
<speed>3.970000</speed>
</trkpt>
<trkpt lat="56.074268" lon="26.636404">
<ele>151.478638</ele>
<time>2010-06-20T12:17:44Z</time>
<desc>lat.=56.074268, lon.=26.636404, Alt.=151.478638m. Speed=15.300000m/h.</desc>
<speed>4.250000</speed>
</trkpt>
<trkpt lat="56.074158" lon="26.636976">
<ele>148.713013</ele>
<time>2010-06-20T12:17:45Z</time>
<desc>lat.=56.074158, lon.=26.636976, Alt.=148.713013m. Speed=16.020000m/h.</desc>
<speed>4.450000</speed>
</trkpt>
<trkpt lat="56.074104" lon="26.637215">
<ele>145.482544</ele>
<time>2010-06-20T12:17:46Z</time>
<desc>lat.=56.074104, lon.=26.637215, Alt.=145.482544m. Speed=14.904000m/h.</desc>
<speed>4.140000</speed>
</trkpt>
<trkpt lat="56.074081" lon="26.637270">
<ele>146.267700</ele>
<time>2010-06-20T12:17:47Z</time>
<desc>lat.=56.074081, lon.=26.637270, Alt.=146.267700m. Speed=15.840000m/h.</desc>
<speed>4.400000</speed>
</trkpt>
<trkpt lat="56.074047" lon="26.637438">
<ele>141.802856</ele>
<time>2010-06-20T12:17:48Z</time>
<desc>lat.=56.074047, lon.=26.637438, Alt.=141.802856m. Speed=16.416000m/h.</desc>
<speed>4.560000</speed>
</trkpt>
<trkpt lat="56.074024" lon="26.637547">
<ele>139.482544</ele>
<time>2010-06-20T12:17:49Z</time>
<desc>lat.=56.074024, lon.=26.637547, Alt.=139.482544m. Speed=15.552000m/h.</desc>
<speed>4.320000</speed>
</trkpt>
<trkpt lat="56.074001" lon="26.637648">
<ele>139.076294</ele>
<time>2010-06-20T12:17:50Z</time>
<desc>lat.=56.074001, lon.=26.637648, Alt.=139.076294m. Speed=16.596001m/h.</desc>
<speed>4.610000</speed>
</trkpt>
<trkpt lat="56.073967" lon="26.637726">
<ele>138.017700</ele>
<time>2010-06-20T12:17:51Z</time>
<desc>lat.=56.073967, lon.=26.637726, Alt.=138.017700m. Speed=14.796000m/h.</desc>
<speed>4.110000</speed>
</trkpt>
<trkpt lat="56.073925" lon="26.637815">
<ele>133.978638</ele>
<time>2010-06-20T12:17:52Z</time>
<desc>lat.=56.073925, lon.=26.637815, Alt.=133.978638m. Speed=15.912000m/h.</desc>
<speed>4.420000</speed>
</trkpt>
<trkpt lat="56.073902" lon="26.637873">
<ele>134.435669</ele>
<time>2010-06-20T12:17:53Z</time>
<desc>lat.=56.073902, lon.=26.637873, Alt.=134.435669m. Speed=15.084000m/h.</desc>
<speed>4.190000</speed>
</trkpt>
<trkpt lat="56.073856" lon="26.637953">
<ele>131.138794</ele>
<time>2010-06-20T12:17:54Z</time>
<desc>lat.=56.073856, lon.=26.637953, Alt.=131.138794m. Speed=17.063999m/h.</desc>
<speed>4.740000</speed>
</trkpt>
<trkpt lat="56.073822" lon="26.638029">
<ele>129.005981</ele>
<time>2010-06-20T12:17:55Z</time>
<desc>lat.=56.073822, lon.=26.638029, Alt.=129.005981m. Speed=14.544000m/h.</desc>
<speed>4.040000</speed>
</trkpt>
<trkpt lat="56.073776" lon="26.638092">
<ele>126.903381</ele>
<time>2010-06-20T12:17:56Z</time>
<desc>lat.=56.073776, lon.=26.638092, Alt.=126.903381m. Speed=15.192000m/h.</desc>
<speed>4.220000</speed>
</trkpt>
<trkpt lat="56.073734" lon="26.638163">
<ele>122.506897</ele>
<time>2010-06-20T12:17:57Z</time>
<desc>lat.=56.073734, lon.=26.638163, Alt.=122.506897m. Speed=15.336000m/h.</desc>
<speed>4.260000</speed>
</trkpt>
<trkpt lat="56.073696" lon="26.638248">
<ele>118.942444</ele>
<time>2010-06-20T12:17:58Z</time>
<desc>lat.=56.073696, lon.=26.638248, Alt.=118.942444m. Speed=18.000000m/h.</desc>
<speed>5.000000</speed>
</trkpt>
<trkpt lat="56.073654" lon="26.638338">
<ele>117.456116</ele>
<time>2010-06-20T12:17:59Z</time>
<desc>lat.=56.073654, lon.=26.638338, Alt.=117.456116m. Speed=20.087999m/h.</desc>
<speed>5.580000</speed>
</trkpt>
<trkpt lat="56.073616" lon="26.638412">
<ele>116.612366</ele>
<time>2010-06-20T12:18:00Z</time>
<desc>lat.=56.073616, lon.=26.638412, Alt.=116.612366m. Speed=18.684000m/h.</desc>
<speed>5.190000</speed>
</trkpt>
<trkpt lat="56.073582" lon="26.638483">
<ele>115.811584</ele>
<time>2010-06-20T12:18:01Z</time>
<desc>lat.=56.073582, lon.=26.638483, Alt.=115.811584m. Speed=18.180000m/h.</desc>
<speed>5.050000</speed>
</trkpt>
<trkpt lat="56.073547" lon="26.638565">
<ele>115.006897</ele>
<time>2010-06-20T12:18:02Z</time>
<desc>lat.=56.073547, lon.=26.638565, Alt.=115.006897m. Speed=17.424000m/h.</desc>
<speed>4.840000</speed>
</trkpt>
<trkpt lat="56.073517" lon="26.638632">
<ele>114.288147</ele>
<time>2010-06-20T12:18:03Z</time>
<desc>lat.=56.073517, lon.=26.638632, Alt.=114.288147m. Speed=15.624000m/h.</desc>
<speed>4.340000</speed>
</trkpt>
<trkpt lat="56.073486" lon="26.638695">
<ele>114.551819</ele>
<time>2010-06-20T12:18:04Z</time>
<desc>lat.=56.073486, lon.=26.638695, Alt.=114.551819m. Speed=15.192000m/h.</desc>
<speed>4.220000</speed>
</trkpt>
<trkpt lat="56.073456" lon="26.638739">
<ele>114.210022</ele>
<time>2010-06-20T12:18:05Z</time>
<desc>lat.=56.073456, lon.=26.638739, Alt.=114.210022m. Speed=12.348000m/h.</desc>
<speed>3.430000</speed>
</trkpt>
<trkpt lat="56.073402" lon="26.638775">
<ele>112.540100</ele>
<time>2010-06-20T12:18:06Z</time>
<desc>lat.=56.073402, lon.=26.638775, Alt.=112.540100m. Speed=14.796000m/h.</desc>
<speed>4.110000</speed>
</trkpt>
<trkpt lat="56.073360" lon="26.638821">
<ele>111.692444</ele>
<time>2010-06-20T12:18:07Z</time>
<desc>lat.=56.073360, lon.=26.638821, Alt.=111.692444m. Speed=15.156000m/h.</desc>
<speed>4.210000</speed>
</trkpt>
<trkpt lat="56.073326" lon="26.638870">
<ele>110.862366</ele>
<time>2010-06-20T12:18:08Z</time>
<desc>lat.=56.073326, lon.=26.638870, Alt.=110.862366m. Speed=17.316000m/h.</desc>
<speed>4.810000</speed>
</trkpt>
<trkpt lat="56.073292" lon="26.638937">
<ele>111.006897</ele>
<time>2010-06-20T12:18:09Z</time>
<desc>lat.=56.073292, lon.=26.638937, Alt.=111.006897m. Speed=18.143999m/h.</desc>
<speed>5.040000</speed>
</trkpt>
<trkpt lat="56.073246" lon="26.638996">
<ele>109.442444</ele>
<time>2010-06-20T12:18:10Z</time>
<desc>lat.=56.073246, lon.=26.638996, Alt.=109.442444m. Speed=18.719999m/h.</desc>
<speed>5.200000</speed>
</trkpt>
<trkpt lat="56.073219" lon="26.639067">
<ele>109.108459</ele>
<time>2010-06-20T12:18:11Z</time>
<desc>lat.=56.073219, lon.=26.639067, Alt.=109.108459m. Speed=17.316000m/h.</desc>
<speed>4.810000</speed>
</trkpt>
<trkpt lat="56.073185" lon="26.639151">
<ele>108.713928</ele>
<time>2010-06-20T12:18:12Z</time>
<desc>lat.=56.073185, lon.=26.639151, Alt.=108.713928m. Speed=20.771999m/h.</desc>
<speed>5.770000</speed>
</trkpt>
<trkpt lat="56.073147" lon="26.639223">
<ele>109.379944</ele>
<time>2010-06-20T12:18:13Z</time>
<desc>lat.=56.073147, lon.=26.639223, Alt.=109.379944m. Speed=20.808001m/h.</desc>
<speed>5.780000</speed>
</trkpt>
<trkpt lat="56.073093" lon="26.639299">
<ele>110.233459</ele>
<time>2010-06-20T12:18:14Z</time>
<desc>lat.=56.073093, lon.=26.639299, Alt.=110.233459m. Speed=21.600000m/h.</desc>
<speed>6.000000</speed>
</trkpt>
<trkpt lat="56.073051" lon="26.639383">
<ele>109.670959</ele>
<time>2010-06-20T12:18:15Z</time>
<desc>lat.=56.073051, lon.=26.639383, Alt.=109.670959m. Speed=21.851999m/h.</desc>
<speed>6.070000</speed>
</trkpt>
<trkpt lat="56.073017" lon="26.639463">
<ele>110.108459</ele>
<time>2010-06-20T12:18:16Z</time>
<desc>lat.=56.073017, lon.=26.639463, Alt.=110.108459m. Speed=19.764000m/h.</desc>
<speed>5.490000</speed>
</trkpt>
<trkpt lat="56.072964" lon="26.639538">
<ele>109.059631</ele>
<time>2010-06-20T12:18:17Z</time>
<desc>lat.=56.072964, lon.=26.639538, Alt.=109.059631m. Speed=20.736000m/h.</desc>
<speed>5.760000</speed>
</trkpt>
<trkpt lat="56.072933" lon="26.639627">
<ele>110.266663</ele>
<time>2010-06-20T12:18:18Z</time>
<desc>lat.=56.072933, lon.=26.639627, Alt.=110.266663m. Speed=19.332001m/h.</desc>
<speed>5.370000</speed>
</trkpt>
<trkpt lat="56.072903" lon="26.639706">
<ele>110.899475</ele>
<time>2010-06-20T12:18:19Z</time>
<desc>lat.=56.072903, lon.=26.639706, Alt.=110.899475m. Speed=18.360001m/h.</desc>
<speed>5.100000</speed>
</trkpt>
<trkpt lat="56.072884" lon="26.639791">
<ele>111.721741</ele>
<time>2010-06-20T12:18:20Z</time>
<desc>lat.=56.072884, lon.=26.639791, Alt.=111.721741m. Speed=17.424000m/h.</desc>
<speed>4.840000</speed>
</trkpt>
<trkpt lat="56.072861" lon="26.639868">
<ele>112.073303</ele>
<time>2010-06-20T12:18:21Z</time>
<desc>lat.=56.072861, lon.=26.639868, Alt.=112.073303m. Speed=18.252001m/h.</desc>
<speed>5.070000</speed>
</trkpt>
<trkpt lat="56.072819" lon="26.639938">
<ele>111.934631</ele>
<time>2010-06-20T12:18:22Z</time>
<desc>lat.=56.072819, lon.=26.639938, Alt.=111.934631m. Speed=19.044001m/h.</desc>
<speed>5.290000</speed>
</trkpt>
<trkpt lat="56.072792" lon="26.640034">
<ele>113.014709</ele>
<time>2010-06-20T12:18:23Z</time>
<desc>lat.=56.072792, lon.=26.640034, Alt.=113.014709m. Speed=17.100000m/h.</desc>
<speed>4.750000</speed>
</trkpt>
<trkpt lat="56.072765" lon="26.640133">
<ele>113.872131</ele>
<time>2010-06-20T12:18:24Z</time>
<desc>lat.=56.072765, lon.=26.640133, Alt.=113.872131m. Speed=19.260000m/h.</desc>
<speed>5.350000</speed>
</trkpt>
<trkpt lat="56.072720" lon="26.640219">
<ele>113.919006</ele>
<time>2010-06-20T12:18:25Z</time>
<desc>lat.=56.072720, lon.=26.640219, Alt.=113.919006m. Speed=19.476000m/h.</desc>
<speed>5.410000</speed>
</trkpt>
<trkpt lat="56.072666" lon="26.640291">
<ele>113.399475</ele>
<time>2010-06-20T12:18:26Z</time>
<desc>lat.=56.072666, lon.=26.640291, Alt.=113.399475m. Speed=18.143999m/h.</desc>
<speed>5.040000</speed>
</trkpt>
<trkpt lat="56.072636" lon="26.640362">
<ele>114.159241</ele>
<time>2010-06-20T12:18:27Z</time>
<desc>lat.=56.072636, lon.=26.640362, Alt.=114.159241m. Speed=18.252001m/h.</desc>
<speed>5.070000</speed>
</trkpt>
<trkpt lat="56.072601" lon="26.640440">
<ele>114.682678</ele>
<time>2010-06-20T12:18:28Z</time>
<desc>lat.=56.072601, lon.=26.640440, Alt.=114.682678m. Speed=18.323999m/h.</desc>
<speed>5.090000</speed>
</trkpt>
<trkpt lat="56.072571" lon="26.640526">
<ele>115.036194</ele>
<time>2010-06-20T12:18:29Z</time>
<desc>lat.=56.072571, lon.=26.640526, Alt.=115.036194m. Speed=17.459999m/h.</desc>
<speed>4.850000</speed>
</trkpt>
<trkpt lat="56.072544" lon="26.640600">
<ele>115.782288</ele>
<time>2010-06-20T12:18:30Z</time>
<desc>lat.=56.072544, lon.=26.640600, Alt.=115.782288m. Speed=16.271999m/h.</desc>
<speed>4.520000</speed>
</trkpt>
<trkpt lat="56.072514" lon="26.640659">
<ele>116.401428</ele>
<time>2010-06-20T12:18:31Z</time>
<desc>lat.=56.072514, lon.=26.640659, Alt.=116.401428m. Speed=15.228000m/h.</desc>
<speed>4.230000</speed>
</trkpt>
<trkpt lat="56.072491" lon="26.640715">
<ele>116.145569</ele>
<time>2010-06-20T12:18:32Z</time>
<desc>lat.=56.072491, lon.=26.640715, Alt.=116.145569m. Speed=13.428000m/h.</desc>
<speed>3.730000</speed>
</trkpt>
<trkpt lat="56.072456" lon="26.640770">
<ele>116.405334</ele>
<time>2010-06-20T12:18:33Z</time>
<desc>lat.=56.072456, lon.=26.640770, Alt.=116.405334m. Speed=14.940000m/h.</desc>
<speed>4.150000</speed>
</trkpt>
<trkpt lat="56.072426" lon="26.640839">
<ele>115.946350</ele>
<time>2010-06-20T12:18:34Z</time>
<desc>lat.=56.072426, lon.=26.640839, Alt.=115.946350m. Speed=16.740000m/h.</desc>
<speed>4.650000</speed>
</trkpt>
<trkpt lat="56.072392" lon="26.640907">
<ele>116.231506</ele>
<time>2010-06-20T12:18:35Z</time>
<desc>lat.=56.072392, lon.=26.640907, Alt.=116.231506m. Speed=16.271999m/h.</desc>
<speed>4.520000</speed>
</trkpt>
<trkpt lat="56.072361" lon="26.640982">
<ele>116.766663</ele>
<time>2010-06-20T12:18:36Z</time>
<desc>lat.=56.072361, lon.=26.640982, Alt.=116.766663m. Speed=16.416000m/h.</desc>
<speed>4.560000</speed>
</trkpt>
<trkpt lat="56.072327" lon="26.641056">
<ele>117.268616</ele>
<time>2010-06-20T12:18:37Z</time>
<desc>lat.=56.072327, lon.=26.641056, Alt.=117.268616m. Speed=17.172001m/h.</desc>
<speed>4.770000</speed>
</trkpt>
<trkpt lat="56.072285" lon="26.641146">
<ele>117.501038</ele>
<time>2010-06-20T12:18:38Z</time>
<desc>lat.=56.072285, lon.=26.641146, Alt.=117.501038m. Speed=17.964001m/h.</desc>
<speed>4.990000</speed>
</trkpt>
<trkpt lat="56.072258" lon="26.641232">
<ele>117.866272</ele>
<time>2010-06-20T12:18:39Z</time>
<desc>lat.=56.072258, lon.=26.641232, Alt.=117.866272m. Speed=17.927999m/h.</desc>
<speed>4.980000</speed>
</trkpt>
<trkpt lat="56.072224" lon="26.641314">
<ele>117.598694</ele>
<time>2010-06-20T12:18:40Z</time>
<desc>lat.=56.072224, lon.=26.641314, Alt.=117.598694m. Speed=18.540001m/h.</desc>
<speed>5.150000</speed>
</trkpt>
<trkpt lat="56.072193" lon="26.641394">
<ele>117.848694</ele>
<time>2010-06-20T12:18:41Z</time>
<desc>lat.=56.072193, lon.=26.641394, Alt.=117.848694m. Speed=18.396000m/h.</desc>
<speed>5.110000</speed>
</trkpt>
<trkpt lat="56.072166" lon="26.641470">
<ele>118.014709</ele>
<time>2010-06-20T12:18:42Z</time>
<desc>lat.=56.072166, lon.=26.641470, Alt.=118.014709m. Speed=17.496000m/h.</desc>
<speed>4.860000</speed>
</trkpt>
<trkpt lat="56.072132" lon="26.641537">
<ele>118.887756</ele>
<time>2010-06-20T12:18:43Z</time>
<desc>lat.=56.072132, lon.=26.641537, Alt.=118.887756m. Speed=18.323999m/h.</desc>
<speed>5.090000</speed>
</trkpt>
<trkpt lat="56.072086" lon="26.641605">
<ele>118.627991</ele>
<time>2010-06-20T12:18:44Z</time>
<desc>lat.=56.072086, lon.=26.641605, Alt.=118.627991m. Speed=18.360001m/h.</desc>
<speed>5.100000</speed>
</trkpt>
<trkpt lat="56.072063" lon="26.641682">
<ele>119.790100</ele>
<time>2010-06-20T12:18:45Z</time>
<desc>lat.=56.072063, lon.=26.641682, Alt.=119.790100m. Speed=18.072001m/h.</desc>
<speed>5.020000</speed>
</trkpt>
<trkpt lat="56.072033" lon="26.641769">
<ele>120.645569</ele>
<time>2010-06-20T12:18:46Z</time>
<desc>lat.=56.072033, lon.=26.641769, Alt.=120.645569m. Speed=18.900000m/h.</desc>
<speed>5.250000</speed>
</trkpt>
<trkpt lat="56.071995" lon="26.641846">
<ele>119.202209</ele>
<time>2010-06-20T12:18:47Z</time>
<desc>lat.=56.071995, lon.=26.641846, Alt.=119.202209m. Speed=17.820000m/h.</desc>
<speed>4.950000</speed>
</trkpt>
<trkpt lat="56.071968" lon="26.641914">
<ele>118.692444</ele>
<time>2010-06-20T12:18:48Z</time>
<desc>lat.=56.071968, lon.=26.641914, Alt.=118.692444m. Speed=15.696000m/h.</desc>
<speed>4.360000</speed>
</trkpt>
<trkpt lat="56.071938" lon="26.641985">
<ele>117.426819</ele>
<time>2010-06-20T12:18:49Z</time>
<desc>lat.=56.071938, lon.=26.641985, Alt.=117.426819m. Speed=17.747999m/h.</desc>
<speed>4.930000</speed>
</trkpt>
<trkpt lat="56.071915" lon="26.642054">
<ele>117.932678</ele>
<time>2010-06-20T12:18:50Z</time>
<desc>lat.=56.071915, lon.=26.642054, Alt.=117.932678m. Speed=18.431999m/h.</desc>
<speed>5.120000</speed>
</trkpt>
<trkpt lat="56.071884" lon="26.642138">
<ele>117.155334</ele>
<time>2010-06-20T12:18:51Z</time>
<desc>lat.=56.071884, lon.=26.642138, Alt.=117.155334m. Speed=18.143999m/h.</desc>
<speed>5.040000</speed>
</trkpt>
<trkpt lat="56.071857" lon="26.642221">
<ele>116.948303</ele>
<time>2010-06-20T12:18:52Z</time>
<desc>lat.=56.071857, lon.=26.642221, Alt.=116.948303m. Speed=19.440001m/h.</desc>
<speed>5.400000</speed>
</trkpt>
<trkpt lat="56.071823" lon="26.642302">
<ele>115.907288</ele>
<time>2010-06-20T12:18:53Z</time>
<desc>lat.=56.071823, lon.=26.642302, Alt.=115.907288m. Speed=19.188000m/h.</desc>
<speed>5.330000</speed>
</trkpt>
<trkpt lat="56.071800" lon="26.642401">
<ele>114.528381</ele>
<time>2010-06-20T12:18:54Z</time>
<desc>lat.=56.071800, lon.=26.642401, Alt.=114.528381m. Speed=20.052000m/h.</desc>
<speed>5.570000</speed>
</trkpt>
<trkpt lat="56.071777" lon="26.642509">
<ele>111.538147</ele>
<time>2010-06-20T12:18:55Z</time>
<desc>lat.=56.071777, lon.=26.642509, Alt.=111.538147m. Speed=22.356001m/h.</desc>
<speed>6.210000</speed>
</trkpt>
<trkpt lat="56.071754" lon="26.642624">
<ele>109.743225</ele>
<time>2010-06-20T12:18:56Z</time>
<desc>lat.=56.071754, lon.=26.642624, Alt.=109.743225m. Speed=19.944000m/h.</desc>
<speed>5.540000</speed>
</trkpt>
<trkpt lat="56.071739" lon="26.642731">
<ele>108.120178</ele>
<time>2010-06-20T12:18:57Z</time>
<desc>lat.=56.071739, lon.=26.642731, Alt.=108.120178m. Speed=20.520000m/h.</desc>
<speed>5.700000</speed>
</trkpt>
<trkpt lat="56.071720" lon="26.642830">
<ele>107.002991</ele>
<time>2010-06-20T12:18:58Z</time>
<desc>lat.=56.071720, lon.=26.642830, Alt.=107.002991m. Speed=19.368000m/h.</desc>
<speed>5.380000</speed>
</trkpt>
<trkpt lat="56.071705" lon="26.642929">
<ele>105.106506</ele>
<time>2010-06-20T12:18:59Z</time>
<desc>lat.=56.071705, lon.=26.642929, Alt.=105.106506m. Speed=19.908001m/h.</desc>
<speed>5.530000</speed>
</trkpt>
<trkpt lat="56.071697" lon="26.643028">
<ele>104.752991</ele>
<time>2010-06-20T12:19:00Z</time>
<desc>lat.=56.071697, lon.=26.643028, Alt.=104.752991m. Speed=19.908001m/h.</desc>
<speed>5.530000</speed>
</trkpt>
<trkpt lat="56.071682" lon="26.643122">
<ele>104.329163</ele>
<time>2010-06-20T12:19:01Z</time>
<desc>lat.=56.071682, lon.=26.643122, Alt.=104.329163m. Speed=19.944000m/h.</desc>
<speed>5.540000</speed>
</trkpt>
<trkpt lat="56.071667" lon="26.643209">
<ele>104.442444</ele>
<time>2010-06-20T12:19:02Z</time>
<desc>lat.=56.071667, lon.=26.643209, Alt.=104.442444m. Speed=20.412001m/h.</desc>
<speed>5.670000</speed>
</trkpt>
<trkpt lat="56.071648" lon="26.643305">
<ele>104.708069</ele>
<time>2010-06-20T12:19:03Z</time>
<desc>lat.=56.071648, lon.=26.643305, Alt.=104.708069m. Speed=21.240000m/h.</desc>
<speed>5.900000</speed>
</trkpt>
<trkpt lat="56.071636" lon="26.643404">
<ele>104.670959</ele>
<time>2010-06-20T12:19:04Z</time>
<desc>lat.=56.071636, lon.=26.643404, Alt.=104.670959m. Speed=22.823999m/h.</desc>
<speed>6.340000</speed>
</trkpt>
<trkpt lat="56.071629" lon="26.643505">
<ele>104.485413</ele>
<time>2010-06-20T12:19:05Z</time>
<desc>lat.=56.071629, lon.=26.643505, Alt.=104.485413m. Speed=22.608000m/h.</desc>
<speed>6.280000</speed>
</trkpt>
<trkpt lat="56.071625" lon="26.643600">
<ele>104.336975</ele>
<time>2010-06-20T12:19:06Z</time>
<desc>lat.=56.071625, lon.=26.643600, Alt.=104.336975m. Speed=21.996000m/h.</desc>
<speed>6.110000</speed>
</trkpt>
<trkpt lat="56.071625" lon="26.643694">
<ele>104.680725</ele>
<time>2010-06-20T12:19:07Z</time>
<desc>lat.=56.071625, lon.=26.643694, Alt.=104.680725m. Speed=21.924000m/h.</desc>
<speed>6.090000</speed>
</trkpt>
<trkpt lat="56.071621" lon="26.643791">
<ele>104.338928</ele>
<time>2010-06-20T12:19:08Z</time>
<desc>lat.=56.071621, lon.=26.643791, Alt.=104.338928m. Speed=21.312000m/h.</desc>
<speed>5.920000</speed>
</trkpt>
<trkpt lat="56.071617" lon="26.643881">
<ele>104.393616</ele>
<time>2010-06-20T12:19:09Z</time>
<desc>lat.=56.071617, lon.=26.643881, Alt.=104.393616m. Speed=20.771999m/h.</desc>
<speed>5.770000</speed>
</trkpt>
<trkpt lat="56.071621" lon="26.643969">
<ele>104.602600</ele>
<time>2010-06-20T12:19:10Z</time>
<desc>lat.=56.071621, lon.=26.643969, Alt.=104.602600m. Speed=20.556000m/h.</desc>
<speed>5.710000</speed>
</trkpt>
<trkpt lat="56.071617" lon="26.644054">
<ele>105.045959</ele>
<time>2010-06-20T12:19:11Z</time>
<desc>lat.=56.071617, lon.=26.644054, Alt.=105.045959m. Speed=20.232000m/h.</desc>
<speed>5.620000</speed>
</trkpt>
<trkpt lat="56.071609" lon="26.644146">
<ele>104.973694</ele>
<time>2010-06-20T12:19:12Z</time>
<desc>lat.=56.071609, lon.=26.644146, Alt.=104.973694m. Speed=20.052000m/h.</desc>
<speed>5.570000</speed>
</trkpt>
<trkpt lat="56.071606" lon="26.644238">
<ele>104.629944</ele>
<time>2010-06-20T12:19:13Z</time>
<desc>lat.=56.071606, lon.=26.644238, Alt.=104.629944m. Speed=20.195999m/h.</desc>
<speed>5.610000</speed>
</trkpt>
<trkpt lat="56.071606" lon="26.644329">
<ele>104.829163</ele>
<time>2010-06-20T12:19:14Z</time>
<desc>lat.=56.071606, lon.=26.644329, Alt.=104.829163m. Speed=20.879999m/h.</desc>
<speed>5.800000</speed>
</trkpt>
<trkpt lat="56.071606" lon="26.644426">
<ele>105.022522</ele>
<time>2010-06-20T12:19:15Z</time>
<desc>lat.=56.071606, lon.=26.644426, Alt.=105.022522m. Speed=21.924000m/h.</desc>
<speed>6.090000</speed>
</trkpt>
<trkpt lat="56.071602" lon="26.644524">
<ele>104.338928</ele>
<time>2010-06-20T12:19:16Z</time>
<desc>lat.=56.071602, lon.=26.644524, Alt.=104.338928m. Speed=22.392000m/h.</desc>
<speed>6.220000</speed>
</trkpt>
<trkpt lat="56.071606" lon="26.644623">
<ele>104.307678</ele>
<time>2010-06-20T12:19:17Z</time>
<desc>lat.=56.071606, lon.=26.644623, Alt.=104.307678m. Speed=21.780001m/h.</desc>
<speed>6.050000</speed>
</trkpt>
<trkpt lat="56.071606" lon="26.644720">
<ele>104.133850</ele>
<time>2010-06-20T12:19:18Z</time>
<desc>lat.=56.071606, lon.=26.644720, Alt.=104.133850m. Speed=21.600000m/h.</desc>
<speed>6.000000</speed>
</trkpt>
<trkpt lat="56.071609" lon="26.644810">
<ele>104.477600</ele>
<time>2010-06-20T12:19:19Z</time>
<desc>lat.=56.071609, lon.=26.644810, Alt.=104.477600m. Speed=19.007999m/h.</desc>
<speed>5.280000</speed>
</trkpt>
<trkpt lat="56.071613" lon="26.644903">
<ele>104.756897</ele>
<time>2010-06-20T12:19:20Z</time>
<desc>lat.=56.071613, lon.=26.644903, Alt.=104.756897m. Speed=21.528000m/h.</desc>
<speed>5.980000</speed>
</trkpt>
<trkpt lat="56.071613" lon="26.645000">
<ele>104.641663</ele>
<time>2010-06-20T12:19:21Z</time>
<desc>lat.=56.071613, lon.=26.645000, Alt.=104.641663m. Speed=21.059999m/h.</desc>
<speed>5.850000</speed>
</trkpt>
<trkpt lat="56.071613" lon="26.645094">
<ele>104.622131</ele>
<time>2010-06-20T12:19:22Z</time>
<desc>lat.=56.071613, lon.=26.645094, Alt.=104.622131m. Speed=20.700001m/h.</desc>
<speed>5.750000</speed>
</trkpt>
<trkpt lat="56.071617" lon="26.645189">
<ele>104.579163</ele>
<time>2010-06-20T12:19:23Z</time>
<desc>lat.=56.071617, lon.=26.645189, Alt.=104.579163m. Speed=20.448000m/h.</desc>
<speed>5.680000</speed>
</trkpt>
<trkpt lat="56.071625" lon="26.645283">
<ele>104.514709</ele>
<time>2010-06-20T12:19:24Z</time>
<desc>lat.=56.071625, lon.=26.645283, Alt.=104.514709m. Speed=20.160000m/h.</desc>
<speed>5.600000</speed>
</trkpt>
<trkpt lat="56.071625" lon="26.645372">
<ele>104.551819</ele>
<time>2010-06-20T12:19:25Z</time>
<desc>lat.=56.071625, lon.=26.645372, Alt.=104.551819m. Speed=19.908001m/h.</desc>
<speed>5.530000</speed>
</trkpt>
<trkpt lat="56.071629" lon="26.645462">
<ele>104.528381</ele>
<time>2010-06-20T12:19:26Z</time>
<desc>lat.=56.071629, lon.=26.645462, Alt.=104.528381m. Speed=19.728001m/h.</desc>
<speed>5.480000</speed>
</trkpt>
<trkpt lat="56.071629" lon="26.645548">
<ele>104.110413</ele>
<time>2010-06-20T12:19:27Z</time>
<desc>lat.=56.071629, lon.=26.645548, Alt.=104.110413m. Speed=19.656000m/h.</desc>
<speed>5.460000</speed>
</trkpt>
<trkpt lat="56.071636" lon="26.645636">
<ele>104.012756</ele>
<time>2010-06-20T12:19:28Z</time>
<desc>lat.=56.071636, lon.=26.645636, Alt.=104.012756m. Speed=20.700001m/h.</desc>
<speed>5.750000</speed>
</trkpt>
<trkpt lat="56.071640" lon="26.645729">
<ele>104.042053</ele>
<time>2010-06-20T12:19:29Z</time>
<desc>lat.=56.071640, lon.=26.645729, Alt.=104.042053m. Speed=22.068001m/h.</desc>
<speed>6.130000</speed>
</trkpt>
<trkpt lat="56.071644" lon="26.645830">
<ele>104.001038</ele>
<time>2010-06-20T12:19:30Z</time>
<desc>lat.=56.071644, lon.=26.645830, Alt.=104.001038m. Speed=22.032000m/h.</desc>
<speed>6.120000</speed>
</trkpt>
<trkpt lat="56.071648" lon="26.645927">
<ele>103.928772</ele>
<time>2010-06-20T12:19:31Z</time>
<desc>lat.=56.071648, lon.=26.645927, Alt.=103.928772m. Speed=21.780001m/h.</desc>
<speed>6.050000</speed>
</trkpt>
<trkpt lat="56.071651" lon="26.646025">
<ele>103.665100</ele>
<time>2010-06-20T12:19:32Z</time>
<desc>lat.=56.071651, lon.=26.646025, Alt.=103.665100m. Speed=22.716000m/h.</desc>
<speed>6.310000</speed>
</trkpt>
<trkpt lat="56.071655" lon="26.646118">
<ele>103.544006</ele>
<time>2010-06-20T12:19:33Z</time>
<desc>lat.=56.071655, lon.=26.646118, Alt.=103.544006m. Speed=20.375999m/h.</desc>
<speed>5.660000</speed>
</trkpt>
<trkpt lat="56.071659" lon="26.646208">
<ele>103.165100</ele>
<time>2010-06-20T12:19:34Z</time>
<desc>lat.=56.071659, lon.=26.646208, Alt.=103.165100m. Speed=20.016001m/h.</desc>
<speed>5.560000</speed>
</trkpt>
<trkpt lat="56.071663" lon="26.646296">
<ele>103.192444</ele>
<time>2010-06-20T12:19:35Z</time>
<desc>lat.=56.071663, lon.=26.646296, Alt.=103.192444m. Speed=19.440001m/h.</desc>
<speed>5.400000</speed>
</trkpt>
<trkpt lat="56.071671" lon="26.646378">
<ele>103.362366</ele>
<time>2010-06-20T12:19:36Z</time>
<desc>lat.=56.071671, lon.=26.646378, Alt.=103.362366m. Speed=18.936001m/h.</desc>
<speed>5.260000</speed>
</trkpt>
<trkpt lat="56.071674" lon="26.646458">
<ele>103.547913</ele>
<time>2010-06-20T12:19:37Z</time>
<desc>lat.=56.071674, lon.=26.646458, Alt.=103.547913m. Speed=18.504000m/h.</desc>
<speed>5.140000</speed>
</trkpt>
<trkpt lat="56.071678" lon="26.646536">
<ele>103.407288</ele>
<time>2010-06-20T12:19:38Z</time>
<desc>lat.=56.071678, lon.=26.646536, Alt.=103.407288m. Speed=17.820000m/h.</desc>
<speed>4.950000</speed>
</trkpt>
<trkpt lat="56.071678" lon="26.646612">
<ele>103.127991</ele>
<time>2010-06-20T12:19:39Z</time>
<desc>lat.=56.071678, lon.=26.646612, Alt.=103.127991m. Speed=17.280001m/h.</desc>
<speed>4.800000</speed>
</trkpt>
<trkpt lat="56.071678" lon="26.646687">
<ele>103.262756</ele>
<time>2010-06-20T12:19:40Z</time>
<desc>lat.=56.071678, lon.=26.646687, Alt.=103.262756m. Speed=16.632000m/h.</desc>
<speed>4.620000</speed>
</trkpt>
<trkpt lat="56.071682" lon="26.646759">
<ele>103.372131</ele>
<time>2010-06-20T12:19:41Z</time>
<desc>lat.=56.071682, lon.=26.646759, Alt.=103.372131m. Speed=16.128000m/h.</desc>
<speed>4.480000</speed>
</trkpt>
<trkpt lat="56.071690" lon="26.646826">
<ele>103.096741</ele>
<time>2010-06-20T12:19:42Z</time>
<desc>lat.=56.071690, lon.=26.646826, Alt.=103.096741m. Speed=16.020000m/h.</desc>
<speed>4.450000</speed>
</trkpt>
<trkpt lat="56.071693" lon="26.646894">
<ele>103.153381</ele>
<time>2010-06-20T12:19:43Z</time>
<desc>lat.=56.071693, lon.=26.646894, Alt.=103.153381m. Speed=16.704000m/h.</desc>
<speed>4.640000</speed>
</trkpt>
<trkpt lat="56.071697" lon="26.646971">
<ele>103.276428</ele>
<time>2010-06-20T12:19:44Z</time>
<desc>lat.=56.071697, lon.=26.646971, Alt.=103.276428m. Speed=17.316000m/h.</desc>
<speed>4.810000</speed>
</trkpt>
<trkpt lat="56.071697" lon="26.647045">
<ele>103.637756</ele>
<time>2010-06-20T12:19:45Z</time>
<desc>lat.=56.071697, lon.=26.647045, Alt.=103.637756m. Speed=16.379999m/h.</desc>
<speed>4.550000</speed>
</trkpt>
<trkpt lat="56.071701" lon="26.647125">
<ele>103.729553</ele>
<time>2010-06-20T12:19:46Z</time>
<desc>lat.=56.071701, lon.=26.647125, Alt.=103.729553m. Speed=18.612000m/h.</desc>
<speed>5.170000</speed>
</trkpt>
<trkpt lat="56.071705" lon="26.647209">
<ele>103.682678</ele>
<time>2010-06-20T12:19:47Z</time>
<desc>lat.=56.071705, lon.=26.647209, Alt.=103.682678m. Speed=19.332001m/h.</desc>
<speed>5.370000</speed>
</trkpt>
<trkpt lat="56.071705" lon="26.647297">
<ele>104.001038</ele>
<time>2010-06-20T12:19:48Z</time>
<desc>lat.=56.071705, lon.=26.647297, Alt.=104.001038m. Speed=18.396000m/h.</desc>
<speed>5.110000</speed>
</trkpt>
<trkpt lat="56.071709" lon="26.647379">
<ele>104.120178</ele>
<time>2010-06-20T12:19:49Z</time>
<desc>lat.=56.071709, lon.=26.647379, Alt.=104.120178m. Speed=17.784000m/h.</desc>
<speed>4.940000</speed>
</trkpt>
<trkpt lat="56.071709" lon="26.647459">
<ele>104.036194</ele>
<time>2010-06-20T12:19:50Z</time>
<desc>lat.=56.071709, lon.=26.647459, Alt.=104.036194m. Speed=16.920000m/h.</desc>
<speed>4.700000</speed>
</trkpt>
<trkpt lat="56.071712" lon="26.647532">
<ele>104.135803</ele>
<time>2010-06-20T12:19:51Z</time>
<desc>lat.=56.071712, lon.=26.647532, Alt.=104.135803m. Speed=16.200001m/h.</desc>
<speed>4.500000</speed>
</trkpt>
<trkpt lat="56.071720" lon="26.647602">
<ele>104.194397</ele>
<time>2010-06-20T12:19:52Z</time>
<desc>lat.=56.071720, lon.=26.647602, Alt.=104.194397m. Speed=16.596001m/h.</desc>
<speed>4.610000</speed>
</trkpt>
<trkpt lat="56.071724" lon="26.647676">
<ele>104.251038</ele>
<time>2010-06-20T12:19:53Z</time>
<desc>lat.=56.071724, lon.=26.647676, Alt.=104.251038m. Speed=16.920000m/h.</desc>
<speed>4.700000</speed>
</trkpt>
<trkpt lat="56.071724" lon="26.647751">
<ele>104.411194</ele>
<time>2010-06-20T12:19:54Z</time>
<desc>lat.=56.071724, lon.=26.647751, Alt.=104.411194m. Speed=16.812000m/h.</desc>
<speed>4.670000</speed>
</trkpt>
<trkpt lat="56.071724" lon="26.647823">
<ele>104.573303</ele>
<time>2010-06-20T12:19:55Z</time>
<desc>lat.=56.071724, lon.=26.647823, Alt.=104.573303m. Speed=17.496000m/h.</desc>
<speed>4.860000</speed>
</trkpt>
<trkpt lat="56.071724" lon="26.647900">
<ele>104.893616</ele>
<time>2010-06-20T12:19:56Z</time>
<desc>lat.=56.071724, lon.=26.647900, Alt.=104.893616m. Speed=18.972000m/h.</desc>
<speed>5.270000</speed>
</trkpt>
<trkpt lat="56.071724" lon="26.647982">
<ele>105.182678</ele>
<time>2010-06-20T12:19:57Z</time>
<desc>lat.=56.071724, lon.=26.647982, Alt.=105.182678m. Speed=17.208000m/h.</desc>
<speed>4.780000</speed>
</trkpt>
<trkpt lat="56.071724" lon="26.648060">
<ele>105.547913</ele>
<time>2010-06-20T12:19:58Z</time>
<desc>lat.=56.071724, lon.=26.648060, Alt.=105.547913m. Speed=17.892000m/h.</desc>
<speed>4.970000</speed>
</trkpt>
<trkpt lat="56.071724" lon="26.648142">
<ele>105.829163</ele>
<time>2010-06-20T12:19:59Z</time>
<desc>lat.=56.071724, lon.=26.648142, Alt.=105.829163m. Speed=17.747999m/h.</desc>
<speed>4.930000</speed>
</trkpt>
<trkpt lat="56.071728" lon="26.648224">
<ele>105.778381</ele>
<time>2010-06-20T12:20:00Z</time>
<desc>lat.=56.071728, lon.=26.648224, Alt.=105.778381m. Speed=17.172001m/h.</desc>
<speed>4.770000</speed>
</trkpt>
<trkpt lat="56.071728" lon="26.648312">
<ele>105.942444</ele>
<time>2010-06-20T12:20:01Z</time>
<desc>lat.=56.071728, lon.=26.648312, Alt.=105.942444m. Speed=17.892000m/h.</desc>
<speed>4.970000</speed>
</trkpt>
<trkpt lat="56.071735" lon="26.648396">
<ele>106.295959</ele>
<time>2010-06-20T12:20:02Z</time>
<desc>lat.=56.071735, lon.=26.648396, Alt.=106.295959m. Speed=19.403999m/h.</desc>
<speed>5.390000</speed>
</trkpt>
<trkpt lat="56.071739" lon="26.648479">
<ele>106.635803</ele>
<time>2010-06-20T12:20:03Z</time>
<desc>lat.=56.071739, lon.=26.648479, Alt.=106.635803m. Speed=18.756001m/h.</desc>
<speed>5.210000</speed>
</trkpt>
<trkpt lat="56.071739" lon="26.648560">
<ele>107.061584</ele>
<time>2010-06-20T12:20:04Z</time>
<desc>lat.=56.071739, lon.=26.648560, Alt.=107.061584m. Speed=17.784000m/h.</desc>
<speed>4.940000</speed>
</trkpt>
<trkpt lat="56.071743" lon="26.648661">
<ele>106.540100</ele>
<time>2010-06-20T12:20:05Z</time>
<desc>lat.=56.071743, lon.=26.648661, Alt.=106.540100m. Speed=22.104000m/h.</desc>
<speed>6.140000</speed>
</trkpt>
<trkpt lat="56.071747" lon="26.648762">
<ele>106.692444</ele>
<time>2010-06-20T12:20:06Z</time>
<desc>lat.=56.071747, lon.=26.648762, Alt.=106.692444m. Speed=21.275999m/h.</desc>
<speed>5.910000</speed>
</trkpt>
<trkpt lat="56.071751" lon="26.648859">
<ele>107.116272</ele>
<time>2010-06-20T12:20:07Z</time>
<desc>lat.=56.071751, lon.=26.648859, Alt.=107.116272m. Speed=20.808001m/h.</desc>
<speed>5.780000</speed>
</trkpt>
<trkpt lat="56.071754" lon="26.648949">
<ele>107.032288</ele>
<time>2010-06-20T12:20:08Z</time>
<desc>lat.=56.071754, lon.=26.648949, Alt.=107.032288m. Speed=20.412001m/h.</desc>
<speed>5.670000</speed>
</trkpt>
<trkpt lat="56.071754" lon="26.649036">
<ele>107.239319</ele>
<time>2010-06-20T12:20:09Z</time>
<desc>lat.=56.071754, lon.=26.649036, Alt.=107.239319m. Speed=19.548000m/h.</desc>
<speed>5.430000</speed>
</trkpt>
<trkpt lat="56.071754" lon="26.649115">
<ele>107.139709</ele>
<time>2010-06-20T12:20:10Z</time>
<desc>lat.=56.071754, lon.=26.649115, Alt.=107.139709m. Speed=18.180000m/h.</desc>
<speed>5.050000</speed>
</trkpt>
<trkpt lat="56.071754" lon="26.649189">
<ele>107.479553</ele>
<time>2010-06-20T12:20:11Z</time>
<desc>lat.=56.071754, lon.=26.649189, Alt.=107.479553m. Speed=16.848000m/h.</desc>
<speed>4.680000</speed>
</trkpt>
<trkpt lat="56.071758" lon="26.649267">
<ele>107.708069</ele>
<time>2010-06-20T12:20:12Z</time>
<desc>lat.=56.071758, lon.=26.649267, Alt.=107.708069m. Speed=16.452000m/h.</desc>
<speed>4.570000</speed>
</trkpt>
<trkpt lat="56.071754" lon="26.649340">
<ele>107.743225</ele>
<time>2010-06-20T12:20:13Z</time>
<desc>lat.=56.071754, lon.=26.649340, Alt.=107.743225m. Speed=15.624000m/h.</desc>
<speed>4.340000</speed>
</trkpt>
<trkpt lat="56.071751" lon="26.649403">
<ele>107.606506</ele>
<time>2010-06-20T12:20:14Z</time>
<desc>lat.=56.071751, lon.=26.649403, Alt.=107.606506m. Speed=14.832000m/h.</desc>
<speed>4.120000</speed>
</trkpt>
<trkpt lat="56.071743" lon="26.649466">
<ele>108.002991</ele>
<time>2010-06-20T12:20:15Z</time>
<desc>lat.=56.071743, lon.=26.649466, Alt.=108.002991m. Speed=13.392000m/h.</desc>
<speed>3.720000</speed>
</trkpt>
<trkpt lat="56.071747" lon="26.649544">
<ele>104.676819</ele>
<time>2010-06-20T12:20:16Z</time>
<desc>lat.=56.071747, lon.=26.649544, Alt.=104.676819m. Speed=13.608000m/h.</desc>
<speed>3.780000</speed>
</trkpt>
<trkpt lat="56.071754" lon="26.649624">
<ele>104.637756</ele>
<time>2010-06-20T12:20:17Z</time>
<desc>lat.=56.071754, lon.=26.649624, Alt.=104.637756m. Speed=13.248000m/h.</desc>
<speed>3.680000</speed>
</trkpt>
<trkpt lat="56.071754" lon="26.649679">
<ele>104.979553</ele>
<time>2010-06-20T12:20:18Z</time>
<desc>lat.=56.071754, lon.=26.649679, Alt.=104.979553m. Speed=11.016000m/h.</desc>
<speed>3.060000</speed>
</trkpt>
<trkpt lat="56.071762" lon="26.649755">
<ele>105.147522</ele>
<time>2010-06-20T12:20:19Z</time>
<desc>lat.=56.071762, lon.=26.649755, Alt.=105.147522m. Speed=14.400000m/h.</desc>
<speed>4.000000</speed>
</trkpt>
<trkpt lat="56.071762" lon="26.649822">
<ele>105.723694</ele>
<time>2010-06-20T12:20:20Z</time>
<desc>lat.=56.071762, lon.=26.649822, Alt.=105.723694m. Speed=12.312000m/h.</desc>
<speed>3.420000</speed>
</trkpt>
<trkpt lat="56.071766" lon="26.649895">
<ele>105.333069</ele>
<time>2010-06-20T12:20:21Z</time>
<desc>lat.=56.071766, lon.=26.649895, Alt.=105.333069m. Speed=18.143999m/h.</desc>
<speed>5.040000</speed>
</trkpt>
<trkpt lat="56.071770" lon="26.649990">
<ele>104.991272</ele>
<time>2010-06-20T12:20:22Z</time>
<desc>lat.=56.071770, lon.=26.649990, Alt.=104.991272m. Speed=17.459999m/h.</desc>
<speed>4.850000</speed>
</trkpt>
<trkpt lat="56.071777" lon="26.650089">
<ele>104.706116</ele>
<time>2010-06-20T12:20:23Z</time>
<desc>lat.=56.071777, lon.=26.650089, Alt.=104.706116m. Speed=20.879999m/h.</desc>
<speed>5.800000</speed>
</trkpt>
<trkpt lat="56.071781" lon="26.650190">
<ele>104.299866</ele>
<time>2010-06-20T12:20:24Z</time>
<desc>lat.=56.071781, lon.=26.650190, Alt.=104.299866m. Speed=19.511999m/h.</desc>
<speed>5.420000</speed>
</trkpt>
<trkpt lat="56.071781" lon="26.650276">
<ele>104.004944</ele>
<time>2010-06-20T12:20:25Z</time>
<desc>lat.=56.071781, lon.=26.650276, Alt.=104.004944m. Speed=20.375999m/h.</desc>
<speed>5.660000</speed>
</trkpt>
<trkpt lat="56.071785" lon="26.650362">
<ele>104.374084</ele>
<time>2010-06-20T12:20:26Z</time>
<desc>lat.=56.071785, lon.=26.650362, Alt.=104.374084m. Speed=19.044001m/h.</desc>
<speed>5.290000</speed>
</trkpt>
<trkpt lat="56.071785" lon="26.650444">
<ele>103.252991</ele>
<time>2010-06-20T12:20:27Z</time>
<desc>lat.=56.071785, lon.=26.650444, Alt.=103.252991m. Speed=18.756001m/h.</desc>
<speed>5.210000</speed>
</trkpt>
<trkpt lat="56.071789" lon="26.650524">
<ele>103.782288</ele>
<time>2010-06-20T12:20:28Z</time>
<desc>lat.=56.071789, lon.=26.650524, Alt.=103.782288m. Speed=18.108000m/h.</desc>
<speed>5.030000</speed>
</trkpt>
<trkpt lat="56.071793" lon="26.650606">
<ele>103.854553</ele>
<time>2010-06-20T12:20:29Z</time>
<desc>lat.=56.071793, lon.=26.650606, Alt.=103.854553m. Speed=17.496000m/h.</desc>
<speed>4.860000</speed>
</trkpt>
<trkpt lat="56.071796" lon="26.650684">
<ele>104.262756</ele>
<time>2010-06-20T12:20:30Z</time>
<desc>lat.=56.071796, lon.=26.650684, Alt.=104.262756m. Speed=16.091999m/h.</desc>
<speed>4.470000</speed>
</trkpt>
<trkpt lat="56.071796" lon="26.650759">
<ele>104.379944</ele>
<time>2010-06-20T12:20:31Z</time>
<desc>lat.=56.071796, lon.=26.650759, Alt.=104.379944m. Speed=15.084000m/h.</desc>
<speed>4.190000</speed>
</trkpt>
<trkpt lat="56.071800" lon="26.650848">
<ele>104.563538</ele>
<time>2010-06-20T12:20:32Z</time>
<desc>lat.=56.071800, lon.=26.650848, Alt.=104.563538m. Speed=19.044001m/h.</desc>
<speed>5.290000</speed>
</trkpt>
<trkpt lat="56.071804" lon="26.650944">
<ele>104.532288</ele>
<time>2010-06-20T12:20:33Z</time>
<desc>lat.=56.071804, lon.=26.650944, Alt.=104.532288m. Speed=21.059999m/h.</desc>
<speed>5.850000</speed>
</trkpt>
<trkpt lat="56.071808" lon="26.651049">
<ele>104.579163</ele>
<time>2010-06-20T12:20:34Z</time>
<desc>lat.=56.071808, lon.=26.651049, Alt.=104.579163m. Speed=22.500000m/h.</desc>
<speed>6.250000</speed>
</trkpt>
<trkpt lat="56.071815" lon="26.651155">
<ele>104.530334</ele>
<time>2010-06-20T12:20:35Z</time>
<desc>lat.=56.071815, lon.=26.651155, Alt.=104.530334m. Speed=22.247999m/h.</desc>
<speed>6.180000</speed>
</trkpt>
<trkpt lat="56.071819" lon="26.651255">
<ele>104.768616</ele>
<time>2010-06-20T12:20:36Z</time>
<desc>lat.=56.071819, lon.=26.651255, Alt.=104.768616m. Speed=21.636000m/h.</desc>
<speed>6.010000</speed>
</trkpt>
<trkpt lat="56.071823" lon="26.651348">
<ele>104.958069</ele>
<time>2010-06-20T12:20:37Z</time>
<desc>lat.=56.071823, lon.=26.651348, Alt.=104.958069m. Speed=21.348000m/h.</desc>
<speed>5.930000</speed>
</trkpt>
<trkpt lat="56.071831" lon="26.651443">
<ele>104.975647</ele>
<time>2010-06-20T12:20:38Z</time>
<desc>lat.=56.071831, lon.=26.651443, Alt.=104.975647m. Speed=20.844000m/h.</desc>
<speed>5.790000</speed>
</trkpt>
<trkpt lat="56.071831" lon="26.651537">
<ele>104.985413</ele>
<time>2010-06-20T12:20:39Z</time>
<desc>lat.=56.071831, lon.=26.651537, Alt.=104.985413m. Speed=20.016001m/h.</desc>
<speed>5.560000</speed>
</trkpt>
<trkpt lat="56.071838" lon="26.651628">
<ele>104.674866</ele>
<time>2010-06-20T12:20:40Z</time>
<desc>lat.=56.071838, lon.=26.651628, Alt.=104.674866m. Speed=19.440001m/h.</desc>
<speed>5.400000</speed>
</trkpt>
<trkpt lat="56.071838" lon="26.651716">
<ele>104.727600</ele>
<time>2010-06-20T12:20:41Z</time>
<desc>lat.=56.071838, lon.=26.651716, Alt.=104.727600m. Speed=18.648001m/h.</desc>
<speed>5.180000</speed>
</trkpt>
<trkpt lat="56.071842" lon="26.651798">
<ele>104.784241</ele>
<time>2010-06-20T12:20:42Z</time>
<desc>lat.=56.071842, lon.=26.651798, Alt.=104.784241m. Speed=18.323999m/h.</desc>
<speed>5.090000</speed>
</trkpt>
<trkpt lat="56.071846" lon="26.651882">
<ele>104.889709</ele>
<time>2010-06-20T12:20:43Z</time>
<desc>lat.=56.071846, lon.=26.651882, Alt.=104.889709m. Speed=17.676001m/h.</desc>
<speed>4.910000</speed>
</trkpt>
<trkpt lat="56.071850" lon="26.651962">
<ele>104.555725</ele>
<time>2010-06-20T12:20:44Z</time>
<desc>lat.=56.071850, lon.=26.651962, Alt.=104.555725m. Speed=16.920000m/h.</desc>
<speed>4.700000</speed>
</trkpt>
<trkpt lat="56.071850" lon="26.652046">
<ele>104.247131</ele>
<time>2010-06-20T12:20:45Z</time>
<desc>lat.=56.071850, lon.=26.652046, Alt.=104.247131m. Speed=16.955999m/h.</desc>
<speed>4.710000</speed>
</trkpt>
<trkpt lat="56.071857" lon="26.652126">
<ele>104.229553</ele>
<time>2010-06-20T12:20:46Z</time>
<desc>lat.=56.071857, lon.=26.652126, Alt.=104.229553m. Speed=18.000000m/h.</desc>
<speed>5.000000</speed>
</trkpt>
<trkpt lat="56.071865" lon="26.652216">
<ele>103.868225</ele>
<time>2010-06-20T12:20:47Z</time>
<desc>lat.=56.071865, lon.=26.652216, Alt.=103.868225m. Speed=18.072001m/h.</desc>
<speed>5.020000</speed>
</trkpt>
<trkpt lat="56.071877" lon="26.652302">
<ele>103.784241</ele>
<time>2010-06-20T12:20:48Z</time>
<desc>lat.=56.071877, lon.=26.652302, Alt.=103.784241m. Speed=19.007999m/h.</desc>
<speed>5.280000</speed>
</trkpt>
<trkpt lat="56.071880" lon="26.652386">
<ele>103.987366</ele>
<time>2010-06-20T12:20:49Z</time>
<desc>lat.=56.071880, lon.=26.652386, Alt.=103.987366m. Speed=19.080000m/h.</desc>
<speed>5.300000</speed>
</trkpt>
<trkpt lat="56.071884" lon="26.652464">
<ele>104.504944</ele>
<time>2010-06-20T12:20:50Z</time>
<desc>lat.=56.071884, lon.=26.652464, Alt.=104.504944m. Speed=17.964001m/h.</desc>
<speed>4.990000</speed>
</trkpt>
<trkpt lat="56.071888" lon="26.652540">
<ele>104.772522</ele>
<time>2010-06-20T12:20:51Z</time>
<desc>lat.=56.071888, lon.=26.652540, Alt.=104.772522m. Speed=16.667999m/h.</desc>
<speed>4.630000</speed>
</trkpt>
<trkpt lat="56.071892" lon="26.652611">
<ele>105.143616</ele>
<time>2010-06-20T12:20:52Z</time>
<desc>lat.=56.071892, lon.=26.652611, Alt.=105.143616m. Speed=15.480000m/h.</desc>
<speed>4.300000</speed>
</trkpt>
<trkpt lat="56.071892" lon="26.652676">
<ele>105.479553</ele>
<time>2010-06-20T12:20:53Z</time>
<desc>lat.=56.071892, lon.=26.652676, Alt.=105.479553m. Speed=14.040000m/h.</desc>
<speed>3.900000</speed>
</trkpt>
<trkpt lat="56.071903" lon="26.652746">
<ele>105.547913</ele>
<time>2010-06-20T12:20:54Z</time>
<desc>lat.=56.071903, lon.=26.652746, Alt.=105.547913m. Speed=14.796000m/h.</desc>
<speed>4.110000</speed>
</trkpt>
<trkpt lat="56.071907" lon="26.652815">
<ele>105.616272</ele>
<time>2010-06-20T12:20:55Z</time>
<desc>lat.=56.071907, lon.=26.652815, Alt.=105.616272m. Speed=16.091999m/h.</desc>
<speed>4.470000</speed>
</trkpt>
<trkpt lat="56.071907" lon="26.652887">
<ele>106.022522</ele>
<time>2010-06-20T12:20:56Z</time>
<desc>lat.=56.071907, lon.=26.652887, Alt.=106.022522m. Speed=16.200001m/h.</desc>
<speed>4.500000</speed>
</trkpt>
<trkpt lat="56.071903" lon="26.652966">
<ele>105.846741</ele>
<time>2010-06-20T12:20:57Z</time>
<desc>lat.=56.071903, lon.=26.652966, Alt.=105.846741m. Speed=15.768000m/h.</desc>
<speed>4.380000</speed>
</trkpt>
<trkpt lat="56.071903" lon="26.653038">
<ele>105.969788</ele>
<time>2010-06-20T12:20:58Z</time>
<desc>lat.=56.071903, lon.=26.653038, Alt.=105.969788m. Speed=15.768000m/h.</desc>
<speed>4.380000</speed>
</trkpt>
<trkpt lat="56.071911" lon="26.653145">
<ele>106.936584</ele>
<time>2010-06-20T12:20:59Z</time>
<desc>lat.=56.071911, lon.=26.653145, Alt.=106.936584m. Speed=17.316000m/h.</desc>
<speed>4.810000</speed>
</trkpt>
<trkpt lat="56.071922" lon="26.653252">
<ele>107.399475</ele>
<time>2010-06-20T12:21:00Z</time>
<desc>lat.=56.071922, lon.=26.653252, Alt.=107.399475m. Speed=18.035999m/h.</desc>
<speed>5.010000</speed>
</trkpt>
<trkpt lat="56.071938" lon="26.653347">
<ele>107.469788</ele>
<time>2010-06-20T12:21:01Z</time>
<desc>lat.=56.071938, lon.=26.653347, Alt.=107.469788m. Speed=18.972000m/h.</desc>
<speed>5.270000</speed>
</trkpt>
<trkpt lat="56.071949" lon="26.653439">
<ele>109.040100</ele>
<time>2010-06-20T12:21:02Z</time>
<desc>lat.=56.071949, lon.=26.653439, Alt.=109.040100m. Speed=20.916000m/h.</desc>
<speed>5.810000</speed>
</trkpt>
<trkpt lat="56.071960" lon="26.653532">
<ele>109.430725</ele>
<time>2010-06-20T12:21:03Z</time>
<desc>lat.=56.071960, lon.=26.653532, Alt.=109.430725m. Speed=20.412001m/h.</desc>
<speed>5.670000</speed>
</trkpt>
<trkpt lat="56.071968" lon="26.653637">
<ele>108.159241</ele>
<time>2010-06-20T12:21:04Z</time>
<desc>lat.=56.071968, lon.=26.653637, Alt.=108.159241m. Speed=21.780001m/h.</desc>
<speed>6.050000</speed>
</trkpt>
<trkpt lat="56.071972" lon="26.653738">
<ele>108.073303</ele>
<time>2010-06-20T12:21:05Z</time>
<desc>lat.=56.071972, lon.=26.653738, Alt.=108.073303m. Speed=21.348000m/h.</desc>
<speed>5.930000</speed>
</trkpt>
<trkpt lat="56.071980" lon="26.653837">
<ele>108.022522</ele>
<time>2010-06-20T12:21:06Z</time>
<desc>lat.=56.071980, lon.=26.653837, Alt.=108.022522m. Speed=20.700001m/h.</desc>
<speed>5.750000</speed>
</trkpt>
<trkpt lat="56.071983" lon="26.653931">
<ele>106.465881</ele>
<time>2010-06-20T12:21:07Z</time>
<desc>lat.=56.071983, lon.=26.653931, Alt.=106.465881m. Speed=20.124001m/h.</desc>
<speed>5.590000</speed>
</trkpt>
<trkpt lat="56.071987" lon="26.654020">
<ele>105.626038</ele>
<time>2010-06-20T12:21:08Z</time>
<desc>lat.=56.071987, lon.=26.654020, Alt.=105.626038m. Speed=19.403999m/h.</desc>
<speed>5.390000</speed>
</trkpt>
<trkpt lat="56.071987" lon="26.654104">
<ele>104.493225</ele>
<time>2010-06-20T12:21:09Z</time>
<desc>lat.=56.071987, lon.=26.654104, Alt.=104.493225m. Speed=18.900000m/h.</desc>
<speed>5.250000</speed>
</trkpt>
<trkpt lat="56.071987" lon="26.654188">
<ele>103.899475</ele>
<time>2010-06-20T12:21:10Z</time>
<desc>lat.=56.071987, lon.=26.654188, Alt.=103.899475m. Speed=18.431999m/h.</desc>
<speed>5.120000</speed>
</trkpt>
<trkpt lat="56.071987" lon="26.654274">
<ele>103.479553</ele>
<time>2010-06-20T12:21:11Z</time>
<desc>lat.=56.071987, lon.=26.654274, Alt.=103.479553m. Speed=18.072001m/h.</desc>
<speed>5.020000</speed>
</trkpt>
<trkpt lat="56.071987" lon="26.654354">
<ele>103.024475</ele>
<time>2010-06-20T12:21:12Z</time>
<desc>lat.=56.071987, lon.=26.654354, Alt.=103.024475m. Speed=17.604000m/h.</desc>
<speed>4.890000</speed>
</trkpt>
<trkpt lat="56.071991" lon="26.654434">
<ele>102.374084</ele>
<time>2010-06-20T12:21:13Z</time>
<desc>lat.=56.071991, lon.=26.654434, Alt.=102.374084m. Speed=17.243999m/h.</desc>
<speed>4.790000</speed>
</trkpt>
<trkpt lat="56.071995" lon="26.654509">
<ele>102.307678</ele>
<time>2010-06-20T12:21:14Z</time>
<desc>lat.=56.071995, lon.=26.654509, Alt.=102.307678m. Speed=16.524000m/h.</desc>
<speed>4.590000</speed>
</trkpt>
<trkpt lat="56.071999" lon="26.654585">
<ele>102.325256</ele>
<time>2010-06-20T12:21:15Z</time>
<desc>lat.=56.071999, lon.=26.654585, Alt.=102.325256m. Speed=16.884001m/h.</desc>
<speed>4.690000</speed>
</trkpt>
<trkpt lat="56.072002" lon="26.654663">
<ele>101.889709</ele>
<time>2010-06-20T12:21:16Z</time>
<desc>lat.=56.072002, lon.=26.654663, Alt.=101.889709m. Speed=17.639999m/h.</desc>
<speed>4.900000</speed>
</trkpt>
<trkpt lat="56.072010" lon="26.654741">
<ele>101.606506</ele>
<time>2010-06-20T12:21:17Z</time>
<desc>lat.=56.072010, lon.=26.654741, Alt.=101.606506m. Speed=19.260000m/h.</desc>
<speed>5.350000</speed>
</trkpt>
<trkpt lat="56.072018" lon="26.654829">
<ele>101.723694</ele>
<time>2010-06-20T12:21:18Z</time>
<desc>lat.=56.072018, lon.=26.654829, Alt.=101.723694m. Speed=20.087999m/h.</desc>
<speed>5.580000</speed>
</trkpt>
<trkpt lat="56.072018" lon="26.654922">
<ele>101.741272</ele>
<time>2010-06-20T12:21:19Z</time>
<desc>lat.=56.072018, lon.=26.654922, Alt.=101.741272m. Speed=21.059999m/h.</desc>
<speed>5.850000</speed>
</trkpt>
<trkpt lat="56.072014" lon="26.655014">
<ele>101.838928</ele>
<time>2010-06-20T12:21:20Z</time>
<desc>lat.=56.072014, lon.=26.655014, Alt.=101.838928m. Speed=20.664000m/h.</desc>
<speed>5.740000</speed>
</trkpt>
<trkpt lat="56.072010" lon="26.655106">
<ele>101.710022</ele>
<time>2010-06-20T12:21:21Z</time>
<desc>lat.=56.072010, lon.=26.655106, Alt.=101.710022m. Speed=20.304001m/h.</desc>
<speed>5.640000</speed>
</trkpt>
<trkpt lat="56.072010" lon="26.655195">
<ele>102.268616</ele>
<time>2010-06-20T12:21:22Z</time>
<desc>lat.=56.072010, lon.=26.655195, Alt.=102.268616m. Speed=19.691999m/h.</desc>
<speed>5.470000</speed>
</trkpt>
<trkpt lat="56.072010" lon="26.655285">
<ele>101.764709</ele>
<time>2010-06-20T12:21:23Z</time>
<desc>lat.=56.072010, lon.=26.655285, Alt.=101.764709m. Speed=19.332001m/h.</desc>
<speed>5.370000</speed>
</trkpt>
<trkpt lat="56.072006" lon="26.655373">
<ele>101.598694</ele>
<time>2010-06-20T12:21:24Z</time>
<desc>lat.=56.072006, lon.=26.655373, Alt.=101.598694m. Speed=19.152000m/h.</desc>
<speed>5.320000</speed>
</trkpt>
<trkpt lat="56.072006" lon="26.655458">
<ele>101.083069</ele>
<time>2010-06-20T12:21:25Z</time>
<desc>lat.=56.072006, lon.=26.655458, Alt.=101.083069m. Speed=18.684000m/h.</desc>
<speed>5.190000</speed>
</trkpt>
<trkpt lat="56.072010" lon="26.655546">
<ele>101.030334</ele>
<time>2010-06-20T12:21:26Z</time>
<desc>lat.=56.072010, lon.=26.655546, Alt.=101.030334m. Speed=18.000000m/h.</desc>
<speed>5.000000</speed>
</trkpt>
<trkpt lat="56.072014" lon="26.655626">
<ele>101.409241</ele>
<time>2010-06-20T12:21:27Z</time>
<desc>lat.=56.072014, lon.=26.655626, Alt.=101.409241m. Speed=17.639999m/h.</desc>
<speed>4.900000</speed>
</trkpt>
<trkpt lat="56.072018" lon="26.655708">
<ele>101.604553</ele>
<time>2010-06-20T12:21:28Z</time>
<desc>lat.=56.072018, lon.=26.655708, Alt.=101.604553m. Speed=19.044001m/h.</desc>
<speed>5.290000</speed>
</trkpt>
<trkpt lat="56.072025" lon="26.655796">
<ele>102.262756</ele>
<time>2010-06-20T12:21:29Z</time>
<desc>lat.=56.072025, lon.=26.655796, Alt.=102.262756m. Speed=20.195999m/h.</desc>
<speed>5.610000</speed>
</trkpt>
<trkpt lat="56.072029" lon="26.655895">
<ele>102.586975</ele>
<time>2010-06-20T12:21:30Z</time>
<desc>lat.=56.072029, lon.=26.655895, Alt.=102.586975m. Speed=21.312000m/h.</desc>
<speed>5.920000</speed>
</trkpt>
<trkpt lat="56.072029" lon="26.655993">
<ele>102.782288</ele>
<time>2010-06-20T12:21:31Z</time>
<desc>lat.=56.072029, lon.=26.655993, Alt.=102.782288m. Speed=21.420000m/h.</desc>
<speed>5.950000</speed>
</trkpt>
<trkpt lat="56.072037" lon="26.656096">
<ele>103.077209</ele>
<time>2010-06-20T12:21:32Z</time>
<desc>lat.=56.072037, lon.=26.656096, Alt.=103.077209m. Speed=22.356001m/h.</desc>
<speed>6.210000</speed>
</trkpt>
<trkpt lat="56.072041" lon="26.656193">
<ele>103.489319</ele>
<time>2010-06-20T12:21:33Z</time>
<desc>lat.=56.072041, lon.=26.656193, Alt.=103.489319m. Speed=21.636000m/h.</desc>
<speed>6.010000</speed>
</trkpt>
<trkpt lat="56.072044" lon="26.656286">
<ele>103.760803</ele>
<time>2010-06-20T12:21:34Z</time>
<desc>lat.=56.072044, lon.=26.656286, Alt.=103.760803m. Speed=20.736000m/h.</desc>
<speed>5.760000</speed>
</trkpt>
<trkpt lat="56.072052" lon="26.656376">
<ele>104.143616</ele>
<time>2010-06-20T12:21:35Z</time>
<desc>lat.=56.072052, lon.=26.656376, Alt.=104.143616m. Speed=20.483999m/h.</desc>
<speed>5.690000</speed>
</trkpt>
<trkpt lat="56.072052" lon="26.656464">
<ele>104.036194</ele>
<time>2010-06-20T12:21:36Z</time>
<desc>lat.=56.072052, lon.=26.656464, Alt.=104.036194m. Speed=21.275999m/h.</desc>
<speed>5.910000</speed>
</trkpt>
<trkpt lat="56.072056" lon="26.656559">
<ele>103.799866</ele>
<time>2010-06-20T12:21:37Z</time>
<desc>lat.=56.072056, lon.=26.656559, Alt.=103.799866m. Speed=22.284000m/h.</desc>
<speed>6.190000</speed>
</trkpt>
<trkpt lat="56.072060" lon="26.656654">
<ele>103.534241</ele>
<time>2010-06-20T12:21:38Z</time>
<desc>lat.=56.072060, lon.=26.656654, Alt.=103.534241m. Speed=22.643999m/h.</desc>
<speed>6.290000</speed>
</trkpt>
<trkpt lat="56.072063" lon="26.656755">
<ele>103.643616</ele>
<time>2010-06-20T12:21:39Z</time>
<desc>lat.=56.072063, lon.=26.656755, Alt.=103.643616m. Speed=22.608000m/h.</desc>
<speed>6.280000</speed>
</trkpt>
<trkpt lat="56.072067" lon="26.656855">
<ele>104.114319</ele>
<time>2010-06-20T12:21:40Z</time>
<desc>lat.=56.072067, lon.=26.656855, Alt.=104.114319m. Speed=21.780001m/h.</desc>
<speed>6.050000</speed>
</trkpt>
<trkpt lat="56.072071" lon="26.656958">
<ele>104.446350</ele>
<time>2010-06-20T12:21:41Z</time>
<desc>lat.=56.072071, lon.=26.656958, Alt.=104.446350m. Speed=23.436001m/h.</desc>
<speed>6.510000</speed>
</trkpt>
<trkpt lat="56.072075" lon="26.657059">
<ele>104.182678</ele>
<time>2010-06-20T12:21:42Z</time>
<desc>lat.=56.072075, lon.=26.657059, Alt.=104.182678m. Speed=21.959999m/h.</desc>
<speed>6.100000</speed>
</trkpt>
<trkpt lat="56.072079" lon="26.657162">
<ele>104.301819</ele>
<time>2010-06-20T12:21:43Z</time>
<desc>lat.=56.072079, lon.=26.657162, Alt.=104.301819m. Speed=22.139999m/h.</desc>
<speed>6.150000</speed>
</trkpt>
<trkpt lat="56.072079" lon="26.657261">
<ele>104.596741</ele>
<time>2010-06-20T12:21:44Z</time>
<desc>lat.=56.072079, lon.=26.657261, Alt.=104.596741m. Speed=22.752001m/h.</desc>
<speed>6.320000</speed>
</trkpt>
<trkpt lat="56.072083" lon="26.657366">
<ele>104.538147</ele>
<time>2010-06-20T12:21:45Z</time>
<desc>lat.=56.072083, lon.=26.657366, Alt.=104.538147m. Speed=24.011999m/h.</desc>
<speed>6.670000</speed>
</trkpt>
<trkpt lat="56.072086" lon="26.657475">
<ele>105.352600</ele>
<time>2010-06-20T12:21:46Z</time>
<desc>lat.=56.072086, lon.=26.657475, Alt.=105.352600m. Speed=24.120001m/h.</desc>
<speed>6.700000</speed>
</trkpt>
<trkpt lat="56.072090" lon="26.657595">
<ele>105.036194</ele>
<time>2010-06-20T12:21:47Z</time>
<desc>lat.=56.072090, lon.=26.657595, Alt.=105.036194m. Speed=25.379999m/h.</desc>
<speed>7.050000</speed>
</trkpt>
<trkpt lat="56.072094" lon="26.657713">
<ele>104.811584</ele>
<time>2010-06-20T12:21:48Z</time>
<desc>lat.=56.072094, lon.=26.657713, Alt.=104.811584m. Speed=25.920000m/h.</desc>
<speed>7.200000</speed>
</trkpt>
<trkpt lat="56.072102" lon="26.657824">
<ele>104.838928</ele>
<time>2010-06-20T12:21:49Z</time>
<desc>lat.=56.072102, lon.=26.657824, Alt.=104.838928m. Speed=25.236000m/h.</desc>
<speed>7.010000</speed>
</trkpt>
<trkpt lat="56.072109" lon="26.657927">
<ele>104.676819</ele>
<time>2010-06-20T12:21:50Z</time>
<desc>lat.=56.072109, lon.=26.657927, Alt.=104.676819m. Speed=24.444000m/h.</desc>
<speed>6.790000</speed>
</trkpt>
<trkpt lat="56.072113" lon="26.658033">
<ele>104.522522</ele>
<time>2010-06-20T12:21:51Z</time>
<desc>lat.=56.072113, lon.=26.658033, Alt.=104.522522m. Speed=23.868000m/h.</desc>
<speed>6.630000</speed>
</trkpt>
<trkpt lat="56.072113" lon="26.658140">
<ele>103.913147</ele>
<time>2010-06-20T12:21:52Z</time>
<desc>lat.=56.072113, lon.=26.658140, Alt.=103.913147m. Speed=24.299999m/h.</desc>
<speed>6.750000</speed>
</trkpt>
<trkpt lat="56.072117" lon="26.658258">
<ele>103.626038</ele>
<time>2010-06-20T12:21:53Z</time>
<desc>lat.=56.072117, lon.=26.658258, Alt.=103.626038m. Speed=25.488001m/h.</desc>
<speed>7.080000</speed>
</trkpt>
<trkpt lat="56.072117" lon="26.658371">
<ele>103.682678</ele>
<time>2010-06-20T12:21:54Z</time>
<desc>lat.=56.072117, lon.=26.658371, Alt.=103.682678m. Speed=25.379999m/h.</desc>
<speed>7.050000</speed>
</trkpt>
<trkpt lat="56.072121" lon="26.658485">
<ele>103.477600</ele>
<time>2010-06-20T12:21:55Z</time>
<desc>lat.=56.072121, lon.=26.658485, Alt.=103.477600m. Speed=26.424000m/h.</desc>
<speed>7.340000</speed>
</trkpt>
<trkpt lat="56.072121" lon="26.658609">
<ele>103.307678</ele>
<time>2010-06-20T12:21:56Z</time>
<desc>lat.=56.072121, lon.=26.658609, Alt.=103.307678m. Speed=27.000000m/h.</desc>
<speed>7.500000</speed>
</trkpt>
<trkpt lat="56.072128" lon="26.658730">
<ele>103.344788</ele>
<time>2010-06-20T12:21:57Z</time>
<desc>lat.=56.072128, lon.=26.658730, Alt.=103.344788m. Speed=27.792000m/h.</desc>
<speed>7.720000</speed>
</trkpt>
<trkpt lat="56.072128" lon="26.658854">
<ele>103.079163</ele>
<time>2010-06-20T12:21:58Z</time>
<desc>lat.=56.072128, lon.=26.658854, Alt.=103.079163m. Speed=28.188000m/h.</desc>
<speed>7.830000</speed>
</trkpt>
<trkpt lat="56.072132" lon="26.658983">
<ele>102.770569</ele>
<time>2010-06-20T12:21:59Z</time>
<desc>lat.=56.072132, lon.=26.658983, Alt.=102.770569m. Speed=28.548000m/h.</desc>
<speed>7.930000</speed>
</trkpt>
<trkpt lat="56.072132" lon="26.659111">
<ele>102.592834</ele>
<time>2010-06-20T12:22:00Z</time>
<desc>lat.=56.072132, lon.=26.659111, Alt.=102.592834m. Speed=28.403999m/h.</desc>
<speed>7.890000</speed>
</trkpt>
<trkpt lat="56.072136" lon="26.659237">
<ele>102.620178</ele>
<time>2010-06-20T12:22:01Z</time>
<desc>lat.=56.072136, lon.=26.659237, Alt.=102.620178m. Speed=27.719999m/h.</desc>
<speed>7.700000</speed>
</trkpt>
<trkpt lat="56.072144" lon="26.659353">
<ele>103.161194</ele>
<time>2010-06-20T12:22:02Z</time>
<desc>lat.=56.072144, lon.=26.659353, Alt.=103.161194m. Speed=27.035999m/h.</desc>
<speed>7.510000</speed>
</trkpt>
<trkpt lat="56.072147" lon="26.659466">
<ele>103.387756</ele>
<time>2010-06-20T12:22:03Z</time>
<desc>lat.=56.072147, lon.=26.659466, Alt.=103.387756m. Speed=26.243999m/h.</desc>
<speed>7.290000</speed>
</trkpt>
<trkpt lat="56.072151" lon="26.659582">
<ele>103.772522</ele>
<time>2010-06-20T12:22:04Z</time>
<desc>lat.=56.072151, lon.=26.659582, Alt.=103.772522m. Speed=25.488001m/h.</desc>
<speed>7.080000</speed>
</trkpt>
<trkpt lat="56.072155" lon="26.659687">
<ele>106.274475</ele>
<time>2010-06-20T12:22:05Z</time>
<desc>lat.=56.072155, lon.=26.659687, Alt.=106.274475m. Speed=24.408001m/h.</desc>
<speed>6.780000</speed>
</trkpt>
<trkpt lat="56.072159" lon="26.659800">
<ele>107.116272</ele>
<time>2010-06-20T12:22:06Z</time>
<desc>lat.=56.072159, lon.=26.659800, Alt.=107.116272m. Speed=24.048000m/h.</desc>
<speed>6.680000</speed>
</trkpt>
<trkpt lat="56.072163" lon="26.659910">
<ele>107.795959</ele>
<time>2010-06-20T12:22:07Z</time>
<desc>lat.=56.072163, lon.=26.659910, Alt.=107.795959m. Speed=24.408001m/h.</desc>
<speed>6.780000</speed>
</trkpt>
<trkpt lat="56.072159" lon="26.660023">
<ele>108.110413</ele>
<time>2010-06-20T12:22:08Z</time>
<desc>lat.=56.072159, lon.=26.660023, Alt.=108.110413m. Speed=23.364000m/h.</desc>
<speed>6.490000</speed>
</trkpt>
<trkpt lat="56.072159" lon="26.660137">
<ele>108.930725</ele>
<time>2010-06-20T12:22:09Z</time>
<desc>lat.=56.072159, lon.=26.660137, Alt.=108.930725m. Speed=24.011999m/h.</desc>
<speed>6.670000</speed>
</trkpt>
<trkpt lat="56.072159" lon="26.660248">
<ele>109.635803</ele>
<time>2010-06-20T12:22:10Z</time>
<desc>lat.=56.072159, lon.=26.660248, Alt.=109.635803m. Speed=23.796000m/h.</desc>
<speed>6.610000</speed>
</trkpt>
<trkpt lat="56.072163" lon="26.660368">
<ele>109.794006</ele>
<time>2010-06-20T12:22:11Z</time>
<desc>lat.=56.072163, lon.=26.660368, Alt.=109.794006m. Speed=25.056000m/h.</desc>
<speed>6.960000</speed>
</trkpt>
<trkpt lat="56.072163" lon="26.660488">
<ele>110.129944</ele>
<time>2010-06-20T12:22:12Z</time>
<desc>lat.=56.072163, lon.=26.660488, Alt.=110.129944m. Speed=25.308001m/h.</desc>
<speed>7.030000</speed>
</trkpt>
<trkpt lat="56.072163" lon="26.660616">
<ele>110.045959</ele>
<time>2010-06-20T12:22:13Z</time>
<desc>lat.=56.072163, lon.=26.660616, Alt.=110.045959m. Speed=26.459999m/h.</desc>
<speed>7.350000</speed>
</trkpt>
<trkpt lat="56.072170" lon="26.660730">
<ele>110.751038</ele>
<time>2010-06-20T12:22:14Z</time>
<desc>lat.=56.072170, lon.=26.660730, Alt.=110.751038m. Speed=26.424000m/h.</desc>
<speed>7.340000</speed>
</trkpt>
<trkpt lat="56.072178" lon="26.660845">
<ele>111.192444</ele>
<time>2010-06-20T12:22:15Z</time>
<desc>lat.=56.072178, lon.=26.660845, Alt.=111.192444m. Speed=25.992001m/h.</desc>
<speed>7.220000</speed>
</trkpt>
<trkpt lat="56.072186" lon="26.660955">
<ele>111.432678</ele>
<time>2010-06-20T12:22:16Z</time>
<desc>lat.=56.072186, lon.=26.660955, Alt.=111.432678m. Speed=25.416000m/h.</desc>
<speed>7.060000</speed>
</trkpt>
<trkpt lat="56.072186" lon="26.661068">
<ele>111.979553</ele>
<time>2010-06-20T12:22:17Z</time>
<desc>lat.=56.072186, lon.=26.661068, Alt.=111.979553m. Speed=24.191999m/h.</desc>
<speed>6.720000</speed>
</trkpt>
<trkpt lat="56.072189" lon="26.661179">
<ele>112.233459</ele>
<time>2010-06-20T12:22:18Z</time>
<desc>lat.=56.072189, lon.=26.661179, Alt.=112.233459m. Speed=24.587999m/h.</desc>
<speed>6.830000</speed>
</trkpt>
<trkpt lat="56.072189" lon="26.661282">
<ele>112.379944</ele>
<time>2010-06-20T12:22:19Z</time>
<desc>lat.=56.072189, lon.=26.661282, Alt.=112.379944m. Speed=23.796000m/h.</desc>
<speed>6.610000</speed>
</trkpt>
<trkpt lat="56.072189" lon="26.661381">
<ele>112.514709</ele>
<time>2010-06-20T12:22:20Z</time>
<desc>lat.=56.072189, lon.=26.661381, Alt.=112.514709m. Speed=23.472000m/h.</desc>
<speed>6.520000</speed>
</trkpt>
<trkpt lat="56.072189" lon="26.661486">
<ele>111.836975</ele>
<time>2010-06-20T12:22:21Z</time>
<desc>lat.=56.072189, lon.=26.661486, Alt.=111.836975m. Speed=23.292000m/h.</desc>
<speed>6.470000</speed>
</trkpt>
<trkpt lat="56.072193" lon="26.661596">
<ele>110.774475</ele>
<time>2010-06-20T12:22:22Z</time>
<desc>lat.=56.072193, lon.=26.661596, Alt.=110.774475m. Speed=23.652000m/h.</desc>
<speed>6.570000</speed>
</trkpt>
<trkpt lat="56.072201" lon="26.661707">
<ele>110.403381</ele>
<time>2010-06-20T12:22:23Z</time>
<desc>lat.=56.072201, lon.=26.661707, Alt.=110.403381m. Speed=23.796000m/h.</desc>
<speed>6.610000</speed>
</trkpt>
<trkpt lat="56.072205" lon="26.661819">
<ele>110.340881</ele>
<time>2010-06-20T12:22:24Z</time>
<desc>lat.=56.072205, lon.=26.661819, Alt.=110.340881m. Speed=23.327999m/h.</desc>
<speed>6.480000</speed>
</trkpt>
<trkpt lat="56.072208" lon="26.661922">
<ele>110.114319</ele>
<time>2010-06-20T12:22:25Z</time>
<desc>lat.=56.072208, lon.=26.661922, Alt.=110.114319m. Speed=23.292000m/h.</desc>
<speed>6.470000</speed>
</trkpt>
<trkpt lat="56.072212" lon="26.662020">
<ele>109.780334</ele>
<time>2010-06-20T12:22:26Z</time>
<desc>lat.=56.072212, lon.=26.662020, Alt.=109.780334m. Speed=23.292000m/h.</desc>
<speed>6.470000</speed>
</trkpt>
<trkpt lat="56.072216" lon="26.662111">
<ele>109.565491</ele>
<time>2010-06-20T12:22:27Z</time>
<desc>lat.=56.072216, lon.=26.662111, Alt.=109.565491m. Speed=23.400000m/h.</desc>
<speed>6.500000</speed>
</trkpt>
<trkpt lat="56.072216" lon="26.662218">
<ele>109.313538</ele>
<time>2010-06-20T12:22:28Z</time>
<desc>lat.=56.072216, lon.=26.662218, Alt.=109.313538m. Speed=23.219999m/h.</desc>
<speed>6.450000</speed>
</trkpt>
<trkpt lat="56.072220" lon="26.662321">
<ele>109.854553</ele>
<time>2010-06-20T12:22:29Z</time>
<desc>lat.=56.072220, lon.=26.662321, Alt.=109.854553m. Speed=23.580000m/h.</desc>
<speed>6.550000</speed>
</trkpt>
<trkpt lat="56.072216" lon="26.662420">
<ele>109.290100</ele>
<time>2010-06-20T12:22:30Z</time>
<desc>lat.=56.072216, lon.=26.662420, Alt.=109.290100m. Speed=24.552000m/h.</desc>
<speed>6.820000</speed>
</trkpt>
<trkpt lat="56.072220" lon="26.662527">
<ele>109.124084</ele>
<time>2010-06-20T12:22:31Z</time>
<desc>lat.=56.072220, lon.=26.662527, Alt.=109.124084m. Speed=24.084000m/h.</desc>
<speed>6.690000</speed>
</trkpt>
<trkpt lat="56.072227" lon="26.662628">
<ele>108.983459</ele>
<time>2010-06-20T12:22:32Z</time>
<desc>lat.=56.072227, lon.=26.662628, Alt.=108.983459m. Speed=22.464001m/h.</desc>
<speed>6.240000</speed>
</trkpt>
<trkpt lat="56.072231" lon="26.662724">
<ele>109.001038</ele>
<time>2010-06-20T12:22:33Z</time>
<desc>lat.=56.072231, lon.=26.662724, Alt.=109.001038m. Speed=21.851999m/h.</desc>
<speed>6.070000</speed>
</trkpt>
<trkpt lat="56.072235" lon="26.662821">
<ele>108.805725</ele>
<time>2010-06-20T12:22:34Z</time>
<desc>lat.=56.072235, lon.=26.662821, Alt.=108.805725m. Speed=21.240000m/h.</desc>
<speed>5.900000</speed>
</trkpt>
<trkpt lat="56.072239" lon="26.662914">
<ele>110.409241</ele>
<time>2010-06-20T12:22:35Z</time>
<desc>lat.=56.072239, lon.=26.662914, Alt.=110.409241m. Speed=20.736000m/h.</desc>
<speed>5.760000</speed>
</trkpt>
<trkpt lat="56.072239" lon="26.663006">
<ele>110.835022</ele>
<time>2010-06-20T12:22:36Z</time>
<desc>lat.=56.072239, lon.=26.663006, Alt.=110.835022m. Speed=19.224001m/h.</desc>
<speed>5.340000</speed>
</trkpt>
<trkpt lat="56.072243" lon="26.663107">
<ele>111.749084</ele>
<time>2010-06-20T12:22:37Z</time>
<desc>lat.=56.072243, lon.=26.663107, Alt.=111.749084m. Speed=19.115999m/h.</desc>
<speed>5.310000</speed>
</trkpt>
<trkpt lat="56.072250" lon="26.663202">
<ele>112.344788</ele>
<time>2010-06-20T12:22:38Z</time>
<desc>lat.=56.072250, lon.=26.663202, Alt.=112.344788m. Speed=17.676001m/h.</desc>
<speed>4.910000</speed>
</trkpt>
<trkpt lat="56.072254" lon="26.663282">
<ele>112.688538</ele>
<time>2010-06-20T12:22:39Z</time>
<desc>lat.=56.072254, lon.=26.663282, Alt.=112.688538m. Speed=17.964001m/h.</desc>
<speed>4.990000</speed>
</trkpt>
<trkpt lat="56.072254" lon="26.663361">
<ele>113.231506</ele>
<time>2010-06-20T12:22:40Z</time>
<desc>lat.=56.072254, lon.=26.663361, Alt.=113.231506m. Speed=16.524000m/h.</desc>
<speed>4.590000</speed>
</trkpt>
<trkpt lat="56.072254" lon="26.663443">
<ele>113.981506</ele>
<time>2010-06-20T12:22:41Z</time>
<desc>lat.=56.072254, lon.=26.663443, Alt.=113.981506m. Speed=18.000000m/h.</desc>
<speed>5.000000</speed>
</trkpt>
<trkpt lat="56.072258" lon="26.663519">
<ele>114.739319</ele>
<time>2010-06-20T12:22:42Z</time>
<desc>lat.=56.072258, lon.=26.663519, Alt.=114.739319m. Speed=17.820000m/h.</desc>
<speed>4.950000</speed>
</trkpt>
<trkpt lat="56.072262" lon="26.663618">
<ele>113.170959</ele>
<time>2010-06-20T12:22:43Z</time>
<desc>lat.=56.072262, lon.=26.663618, Alt.=113.170959m. Speed=17.927999m/h.</desc>
<speed>4.980000</speed>
</trkpt>
<trkpt lat="56.072262" lon="26.663696">
<ele>113.602600</ele>
<time>2010-06-20T12:22:44Z</time>
<desc>lat.=56.072262, lon.=26.663696, Alt.=113.602600m. Speed=15.912000m/h.</desc>
<speed>4.420000</speed>
</trkpt>
<trkpt lat="56.072262" lon="26.663765">
<ele>113.895569</ele>
<time>2010-06-20T12:22:45Z</time>
<desc>lat.=56.072262, lon.=26.663765, Alt.=113.895569m. Speed=16.308001m/h.</desc>
<speed>4.530000</speed>
</trkpt>
<trkpt lat="56.072266" lon="26.663836">
<ele>114.233459</ele>
<time>2010-06-20T12:22:46Z</time>
<desc>lat.=56.072266, lon.=26.663836, Alt.=114.233459m. Speed=15.876000m/h.</desc>
<speed>4.410000</speed>
</trkpt>
<trkpt lat="56.072266" lon="26.663914">
<ele>114.374084</ele>
<time>2010-06-20T12:22:47Z</time>
<desc>lat.=56.072266, lon.=26.663914, Alt.=114.374084m. Speed=18.035999m/h.</desc>
<speed>5.010000</speed>
</trkpt>
<trkpt lat="56.072266" lon="26.663990">
<ele>114.860413</ele>
<time>2010-06-20T12:22:48Z</time>
<desc>lat.=56.072266, lon.=26.663990, Alt.=114.860413m. Speed=16.596001m/h.</desc>
<speed>4.610000</speed>
</trkpt>
<trkpt lat="56.072266" lon="26.664072">
<ele>115.280334</ele>
<time>2010-06-20T12:22:49Z</time>
<desc>lat.=56.072266, lon.=26.664072, Alt.=115.280334m. Speed=16.416000m/h.</desc>
<speed>4.560000</speed>
</trkpt>
<trkpt lat="56.072273" lon="26.664162">
<ele>115.442444</ele>
<time>2010-06-20T12:22:50Z</time>
<desc>lat.=56.072273, lon.=26.664162, Alt.=115.442444m. Speed=16.812000m/h.</desc>
<speed>4.670000</speed>
</trkpt>
<trkpt lat="56.072281" lon="26.664249">
<ele>114.891663</ele>
<time>2010-06-20T12:22:51Z</time>
<desc>lat.=56.072281, lon.=26.664249, Alt.=114.891663m. Speed=17.568001m/h.</desc>
<speed>4.880000</speed>
</trkpt>
<trkpt lat="56.072285" lon="26.664331">
<ele>114.674866</ele>
<time>2010-06-20T12:22:52Z</time>
<desc>lat.=56.072285, lon.=26.664331, Alt.=114.674866m. Speed=17.747999m/h.</desc>
<speed>4.930000</speed>
</trkpt>
<trkpt lat="56.072285" lon="26.664413">
<ele>114.100647</ele>
<time>2010-06-20T12:22:53Z</time>
<desc>lat.=56.072285, lon.=26.664413, Alt.=114.100647m. Speed=17.856001m/h.</desc>
<speed>4.960000</speed>
</trkpt>
<trkpt lat="56.072289" lon="26.664522">
<ele>113.385803</ele>
<time>2010-06-20T12:22:54Z</time>
<desc>lat.=56.072289, lon.=26.664522, Alt.=113.385803m. Speed=18.900000m/h.</desc>
<speed>5.250000</speed>
</trkpt>
<trkpt lat="56.072292" lon="26.664623">
<ele>113.471741</ele>
<time>2010-06-20T12:22:55Z</time>
<desc>lat.=56.072292, lon.=26.664623, Alt.=113.471741m. Speed=18.972000m/h.</desc>
<speed>5.270000</speed>
</trkpt>
<trkpt lat="56.072300" lon="26.664713">
<ele>112.909241</ele>
<time>2010-06-20T12:22:56Z</time>
<desc>lat.=56.072300, lon.=26.664713, Alt.=112.909241m. Speed=17.712000m/h.</desc>
<speed>4.920000</speed>
</trkpt>
<trkpt lat="56.072304" lon="26.664801">
<ele>112.169006</ele>
<time>2010-06-20T12:22:57Z</time>
<desc>lat.=56.072304, lon.=26.664801, Alt.=112.169006m. Speed=18.719999m/h.</desc>
<speed>5.200000</speed>
</trkpt>
<trkpt lat="56.072304" lon="26.664892">
<ele>111.745178</ele>
<time>2010-06-20T12:22:58Z</time>
<desc>lat.=56.072304, lon.=26.664892, Alt.=111.745178m. Speed=19.440001m/h.</desc>
<speed>5.400000</speed>
</trkpt>
<trkpt lat="56.072308" lon="26.664982">
<ele>111.911194</ele>
<time>2010-06-20T12:22:59Z</time>
<desc>lat.=56.072308, lon.=26.664982, Alt.=111.911194m. Speed=19.584000m/h.</desc>
<speed>5.440000</speed>
</trkpt>
<trkpt lat="56.072311" lon="26.665079">
<ele>110.877991</ele>
<time>2010-06-20T12:23:00Z</time>
<desc>lat.=56.072311, lon.=26.665079, Alt.=110.877991m. Speed=20.268000m/h.</desc>
<speed>5.630000</speed>
</trkpt>
<trkpt lat="56.072308" lon="26.665171">
<ele>109.862366</ele>
<time>2010-06-20T12:23:01Z</time>
<desc>lat.=56.072308, lon.=26.665171, Alt.=109.862366m. Speed=20.844000m/h.</desc>
<speed>5.790000</speed>
</trkpt>
<trkpt lat="56.072308" lon="26.665266">
<ele>108.811584</ele>
<time>2010-06-20T12:23:02Z</time>
<desc>lat.=56.072308, lon.=26.665266, Alt.=108.811584m. Speed=20.736000m/h.</desc>
<speed>5.760000</speed>
</trkpt>
<trkpt lat="56.072311" lon="26.665354">
<ele>109.575256</ele>
<time>2010-06-20T12:23:03Z</time>
<desc>lat.=56.072311, lon.=26.665354, Alt.=109.575256m. Speed=19.584000m/h.</desc>
<speed>5.440000</speed>
</trkpt>
<trkpt lat="56.072315" lon="26.665432">
<ele>109.413147</ele>
<time>2010-06-20T12:23:04Z</time>
<desc>lat.=56.072315, lon.=26.665432, Alt.=109.413147m. Speed=17.964001m/h.</desc>
<speed>4.990000</speed>
</trkpt>
<trkpt lat="56.072319" lon="26.665520">
<ele>110.083069</ele>
<time>2010-06-20T12:23:05Z</time>
<desc>lat.=56.072319, lon.=26.665520, Alt.=110.083069m. Speed=17.316000m/h.</desc>
<speed>4.810000</speed>
</trkpt>
<trkpt lat="56.072327" lon="26.665602">
<ele>109.706116</ele>
<time>2010-06-20T12:23:06Z</time>
<desc>lat.=56.072327, lon.=26.665602, Alt.=109.706116m. Speed=17.892000m/h.</desc>
<speed>4.970000</speed>
</trkpt>
<trkpt lat="56.072334" lon="26.665684">
<ele>110.172913</ele>
<time>2010-06-20T12:23:07Z</time>
<desc>lat.=56.072334, lon.=26.665684, Alt.=110.172913m. Speed=17.172001m/h.</desc>
<speed>4.770000</speed>
</trkpt>
<trkpt lat="56.072334" lon="26.665773">
<ele>110.366272</ele>
<time>2010-06-20T12:23:08Z</time>
<desc>lat.=56.072334, lon.=26.665773, Alt.=110.366272m. Speed=16.812000m/h.</desc>
<speed>4.670000</speed>
</trkpt>
<trkpt lat="56.072338" lon="26.665859">
<ele>111.129944</ele>
<time>2010-06-20T12:23:09Z</time>
<desc>lat.=56.072338, lon.=26.665859, Alt.=111.129944m. Speed=17.532000m/h.</desc>
<speed>4.870000</speed>
</trkpt>
<trkpt lat="56.072342" lon="26.665951">
<ele>110.913147</ele>
<time>2010-06-20T12:23:10Z</time>
<desc>lat.=56.072342, lon.=26.665951, Alt.=110.913147m. Speed=18.576000m/h.</desc>
<speed>5.160000</speed>
</trkpt>
<trkpt lat="56.072338" lon="26.666035">
<ele>111.008850</ele>
<time>2010-06-20T12:23:11Z</time>
<desc>lat.=56.072338, lon.=26.666035, Alt.=111.008850m. Speed=19.224001m/h.</desc>
<speed>5.340000</speed>
</trkpt>
<trkpt lat="56.072342" lon="26.666122">
<ele>111.282288</ele>
<time>2010-06-20T12:23:12Z</time>
<desc>lat.=56.072342, lon.=26.666122, Alt.=111.282288m. Speed=18.936001m/h.</desc>
<speed>5.260000</speed>
</trkpt>
<trkpt lat="56.072346" lon="26.666201">
<ele>111.879944</ele>
<time>2010-06-20T12:23:13Z</time>
<desc>lat.=56.072346, lon.=26.666201, Alt.=111.879944m. Speed=18.360001m/h.</desc>
<speed>5.100000</speed>
</trkpt>
<trkpt lat="56.072353" lon="26.666286">
<ele>112.870178</ele>
<time>2010-06-20T12:23:14Z</time>
<desc>lat.=56.072353, lon.=26.666286, Alt.=112.870178m. Speed=20.664000m/h.</desc>
<speed>5.740000</speed>
</trkpt>
<trkpt lat="56.072361" lon="26.666370">
<ele>112.911194</ele>
<time>2010-06-20T12:23:15Z</time>
<desc>lat.=56.072361, lon.=26.666370, Alt.=112.911194m. Speed=18.540001m/h.</desc>
<speed>5.150000</speed>
</trkpt>
<trkpt lat="56.072365" lon="26.666452">
<ele>112.725647</ele>
<time>2010-06-20T12:23:16Z</time>
<desc>lat.=56.072365, lon.=26.666452, Alt.=112.725647m. Speed=18.792000m/h.</desc>
<speed>5.220000</speed>
</trkpt>
<trkpt lat="56.072372" lon="26.666534">
<ele>112.772522</ele>
<time>2010-06-20T12:23:17Z</time>
<desc>lat.=56.072372, lon.=26.666534, Alt.=112.772522m. Speed=19.836000m/h.</desc>
<speed>5.510000</speed>
</trkpt>
<trkpt lat="56.072372" lon="26.666628">
<ele>112.174866</ele>
<time>2010-06-20T12:23:18Z</time>
<desc>lat.=56.072372, lon.=26.666628, Alt.=112.174866m. Speed=18.396000m/h.</desc>
<speed>5.110000</speed>
</trkpt>
<trkpt lat="56.072380" lon="26.666712">
<ele>111.444397</ele>
<time>2010-06-20T12:23:19Z</time>
<desc>lat.=56.072380, lon.=26.666712, Alt.=111.444397m. Speed=18.612000m/h.</desc>
<speed>5.170000</speed>
</trkpt>
<trkpt lat="56.072384" lon="26.666784">
<ele>111.502991</ele>
<time>2010-06-20T12:23:20Z</time>
<desc>lat.=56.072384, lon.=26.666784, Alt.=111.502991m. Speed=18.000000m/h.</desc>
<speed>5.000000</speed>
</trkpt>
<trkpt lat="56.072392" lon="26.666864">
<ele>111.606506</ele>
<time>2010-06-20T12:23:21Z</time>
<desc>lat.=56.072392, lon.=26.666864, Alt.=111.606506m. Speed=18.431999m/h.</desc>
<speed>5.120000</speed>
</trkpt>
<trkpt lat="56.072395" lon="26.666937">
<ele>111.598694</ele>
<time>2010-06-20T12:23:22Z</time>
<desc>lat.=56.072395, lon.=26.666937, Alt.=111.598694m. Speed=17.316000m/h.</desc>
<speed>4.810000</speed>
</trkpt>
<trkpt lat="56.072403" lon="26.667013">
<ele>111.891663</ele>
<time>2010-06-20T12:23:23Z</time>
<desc>lat.=56.072403, lon.=26.667013, Alt.=111.891663m. Speed=16.128000m/h.</desc>
<speed>4.480000</speed>
</trkpt>
<trkpt lat="56.072414" lon="26.667084">
<ele>112.120178</ele>
<time>2010-06-20T12:23:24Z</time>
<desc>lat.=56.072414, lon.=26.667084, Alt.=112.120178m. Speed=16.632000m/h.</desc>
<speed>4.620000</speed>
</trkpt>
<trkpt lat="56.072433" lon="26.667162">
<ele>114.083069</ele>
<time>2010-06-20T12:23:25Z</time>
<desc>lat.=56.072433, lon.=26.667162, Alt.=114.083069m. Speed=16.271999m/h.</desc>
<speed>4.520000</speed>
</trkpt>
<trkpt lat="56.072445" lon="26.667229">
<ele>114.672913</ele>
<time>2010-06-20T12:23:26Z</time>
<desc>lat.=56.072445, lon.=26.667229, Alt.=114.672913m. Speed=15.516000m/h.</desc>
<speed>4.310000</speed>
</trkpt>
<trkpt lat="56.072456" lon="26.667297">
<ele>113.948303</ele>
<time>2010-06-20T12:23:27Z</time>
<desc>lat.=56.072456, lon.=26.667297, Alt.=113.948303m. Speed=15.012000m/h.</desc>
<speed>4.170000</speed>
</trkpt>
<trkpt lat="56.072472" lon="26.667358">
<ele>113.432678</ele>
<time>2010-06-20T12:23:28Z</time>
<desc>lat.=56.072472, lon.=26.667358, Alt.=113.432678m. Speed=13.608000m/h.</desc>
<speed>3.780000</speed>
</trkpt>
<trkpt lat="56.072487" lon="26.667418">
<ele>113.147522</ele>
<time>2010-06-20T12:23:29Z</time>
<desc>lat.=56.072487, lon.=26.667418, Alt.=113.147522m. Speed=14.328000m/h.</desc>
<speed>3.980000</speed>
</trkpt>
<trkpt lat="56.072495" lon="26.667482">
<ele>113.272522</ele>
<time>2010-06-20T12:23:30Z</time>
<desc>lat.=56.072495, lon.=26.667482, Alt.=113.272522m. Speed=12.888000m/h.</desc>
<speed>3.580000</speed>
</trkpt>
<trkpt lat="56.072502" lon="26.667540">
<ele>114.106506</ele>
<time>2010-06-20T12:23:31Z</time>
<desc>lat.=56.072502, lon.=26.667540, Alt.=114.106506m. Speed=13.644000m/h.</desc>
<speed>3.790000</speed>
</trkpt>
<trkpt lat="56.072506" lon="26.667595">
<ele>114.557678</ele>
<time>2010-06-20T12:23:32Z</time>
<desc>lat.=56.072506, lon.=26.667595, Alt.=114.557678m. Speed=12.672000m/h.</desc>
<speed>3.520000</speed>
</trkpt>
<trkpt lat="56.072514" lon="26.667646">
<ele>114.844788</ele>
<time>2010-06-20T12:23:33Z</time>
<desc>lat.=56.072514, lon.=26.667646, Alt.=114.844788m. Speed=11.952000m/h.</desc>
<speed>3.320000</speed>
</trkpt>
<trkpt lat="56.072517" lon="26.667696">
<ele>114.725647</ele>
<time>2010-06-20T12:23:34Z</time>
<desc>lat.=56.072517, lon.=26.667696, Alt.=114.725647m. Speed=12.060000m/h.</desc>
<speed>3.350000</speed>
</trkpt>
<trkpt lat="56.072529" lon="26.667744">
<ele>114.633850</ele>
<time>2010-06-20T12:23:35Z</time>
<desc>lat.=56.072529, lon.=26.667744, Alt.=114.633850m. Speed=11.520000m/h.</desc>
<speed>3.200000</speed>
</trkpt>
<trkpt lat="56.072536" lon="26.667793">
<ele>114.926819</ele>
<time>2010-06-20T12:23:36Z</time>
<desc>lat.=56.072536, lon.=26.667793, Alt.=114.926819m. Speed=10.944000m/h.</desc>
<speed>3.040000</speed>
</trkpt>
<trkpt lat="56.072540" lon="26.667839">
<ele>115.846741</ele>
<time>2010-06-20T12:23:37Z</time>
<desc>lat.=56.072540, lon.=26.667839, Alt.=115.846741m. Speed=10.728000m/h.</desc>
<speed>2.980000</speed>
</trkpt>
<trkpt lat="56.072556" lon="26.667875">
<ele>115.686584</ele>
<time>2010-06-20T12:23:38Z</time>
<desc>lat.=56.072556, lon.=26.667875, Alt.=115.686584m. Speed=9.648000m/h.</desc>
<speed>2.680000</speed>
</trkpt>
<trkpt lat="56.072567" lon="26.667912">
<ele>115.960022</ele>
<time>2010-06-20T12:23:39Z</time>
<desc>lat.=56.072567, lon.=26.667912, Alt.=115.960022m. Speed=9.756000m/h.</desc>
<speed>2.710000</speed>
</trkpt>
<trkpt lat="56.072586" lon="26.667948">
<ele>116.139709</ele>
<time>2010-06-20T12:23:40Z</time>
<desc>lat.=56.072586, lon.=26.667948, Alt.=116.139709m. Speed=9.864000m/h.</desc>
<speed>2.740000</speed>
</trkpt>
<trkpt lat="56.072601" lon="26.667984">
<ele>116.329163</ele>
<time>2010-06-20T12:23:41Z</time>
<desc>lat.=56.072601, lon.=26.667984, Alt.=116.329163m. Speed=9.504000m/h.</desc>
<speed>2.640000</speed>
</trkpt>
<trkpt lat="56.072609" lon="26.668015">
<ele>116.715881</ele>
<time>2010-06-20T12:23:42Z</time>
<desc>lat.=56.072609, lon.=26.668015, Alt.=116.715881m. Speed=9.576000m/h.</desc>
<speed>2.660000</speed>
</trkpt>
<trkpt lat="56.072620" lon="26.668055">
<ele>116.737366</ele>
<time>2010-06-20T12:23:43Z</time>
<desc>lat.=56.072620, lon.=26.668055, Alt.=116.737366m. Speed=10.008000m/h.</desc>
<speed>2.780000</speed>
</trkpt>
<trkpt lat="56.072636" lon="26.668098">
<ele>117.264709</ele>
<time>2010-06-20T12:23:44Z</time>
<desc>lat.=56.072636, lon.=26.668098, Alt.=117.264709m. Speed=10.548000m/h.</desc>
<speed>2.930000</speed>
</trkpt>
<trkpt lat="56.072643" lon="26.668140">
<ele>117.241272</ele>
<time>2010-06-20T12:23:45Z</time>
<desc>lat.=56.072643, lon.=26.668140, Alt.=117.241272m. Speed=10.620000m/h.</desc>
<speed>2.950000</speed>
</trkpt>
<trkpt lat="56.072647" lon="26.668186">
<ele>116.971741</ele>
<time>2010-06-20T12:23:46Z</time>
<desc>lat.=56.072647, lon.=26.668186, Alt.=116.971741m. Speed=10.944000m/h.</desc>
<speed>3.040000</speed>
</trkpt>
<trkpt lat="56.072659" lon="26.668232">
<ele>117.268616</ele>
<time>2010-06-20T12:23:47Z</time>
<desc>lat.=56.072659, lon.=26.668232, Alt.=117.268616m. Speed=10.764000m/h.</desc>
<speed>2.990000</speed>
</trkpt>
<trkpt lat="56.072666" lon="26.668270">
<ele>116.004944</ele>
<time>2010-06-20T12:23:48Z</time>
<desc>lat.=56.072666, lon.=26.668270, Alt.=116.004944m. Speed=9.756000m/h.</desc>
<speed>2.710000</speed>
</trkpt>
<trkpt lat="56.072678" lon="26.668318">
<ele>116.577209</ele>
<time>2010-06-20T12:23:49Z</time>
<desc>lat.=56.072678, lon.=26.668318, Alt.=116.577209m. Speed=10.296000m/h.</desc>
<speed>2.860000</speed>
</trkpt>
<trkpt lat="56.072689" lon="26.668365">
<ele>117.200256</ele>
<time>2010-06-20T12:23:50Z</time>
<desc>lat.=56.072689, lon.=26.668365, Alt.=117.200256m. Speed=9.684000m/h.</desc>
<speed>2.690000</speed>
</trkpt>
<trkpt lat="56.072689" lon="26.668419">
<ele>117.241272</ele>
<time>2010-06-20T12:23:51Z</time>
<desc>lat.=56.072689, lon.=26.668419, Alt.=117.241272m. Speed=9.396000m/h.</desc>
<speed>2.610000</speed>
</trkpt>
<trkpt lat="56.072693" lon="26.668472">
<ele>117.040100</ele>
<time>2010-06-20T12:23:52Z</time>
<desc>lat.=56.072693, lon.=26.668472, Alt.=117.040100m. Speed=9.360000m/h.</desc>
<speed>2.600000</speed>
</trkpt>
<trkpt lat="56.072697" lon="26.668522">
<ele>116.831116</ele>
<time>2010-06-20T12:23:53Z</time>
<desc>lat.=56.072697, lon.=26.668522, Alt.=116.831116m. Speed=8.964000m/h.</desc>
<speed>2.490000</speed>
</trkpt>
<trkpt lat="56.072697" lon="26.668568">
<ele>116.526428</ele>
<time>2010-06-20T12:23:54Z</time>
<desc>lat.=56.072697, lon.=26.668568, Alt.=116.526428m. Speed=8.172000m/h.</desc>
<speed>2.270000</speed>
</trkpt>
<trkpt lat="56.072697" lon="26.668596">
<ele>116.850647</ele>
<time>2010-06-20T12:23:55Z</time>
<desc>lat.=56.072697, lon.=26.668596, Alt.=116.850647m. Speed=4.644000m/h.</desc>
<speed>1.290000</speed>
</trkpt>
<trkpt lat="56.072697" lon="26.668610">
<ele>116.221741</ele>
<time>2010-06-20T12:23:56Z</time>
<desc>lat.=56.072697, lon.=26.668610, Alt.=116.221741m. Speed=1.152000m/h.</desc>
<speed>0.320000</speed>
</trkpt>
<trkpt lat="56.072697" lon="26.668612">
<ele>115.083069</ele>
<time>2010-06-20T12:23:57Z</time>
<desc>lat.=56.072697, lon.=26.668612, Alt.=115.083069m. Speed=0.972000m/h.</desc>
<speed>0.270000</speed>
</trkpt>
<trkpt lat="56.072693" lon="26.668610">
<ele>114.987366</ele>
<time>2010-06-20T12:23:58Z</time>
<desc>lat.=56.072693, lon.=26.668610, Alt.=114.987366m. Speed=0.792000m/h.</desc>
<speed>0.220000</speed>
</trkpt>
<trkpt lat="56.072693" lon="26.668600">
<ele>113.661194</ele>
<time>2010-06-20T12:23:59Z</time>
<desc>lat.=56.072693, lon.=26.668600, Alt.=113.661194m. Speed=0.216000m/h.</desc>
<speed>0.060000</speed>
</trkpt>
<trkpt lat="56.072693" lon="26.668598">
<ele>113.581116</ele>
<time>2010-06-20T12:24:00Z</time>
<desc>lat.=56.072693, lon.=26.668598, Alt.=113.581116m. Speed=0.216000m/h.</desc>
<speed>0.060000</speed>
</trkpt>
<trkpt lat="56.072693" lon="26.668598">
<ele>113.522522</ele>
<time>2010-06-20T12:24:01Z</time>
<desc>lat.=56.072693, lon.=26.668598, Alt.=113.522522m. Speed=0.216000m/h.</desc>
<speed>0.060000</speed>
</trkpt>
<trkpt lat="56.072693" lon="26.668598">
<ele>113.497131</ele>
<time>2010-06-20T12:24:02Z</time>
<desc>lat.=56.072693, lon.=26.668598, Alt.=113.497131m. Speed=0.036000m/h.</desc>
<speed>0.010000</speed>
</trkpt>
<trkpt lat="56.072693" lon="26.668598">
<ele>113.460022</ele>
<time>2010-06-20T12:24:03Z</time>
<desc>lat.=56.072693, lon.=26.668598, Alt.=113.460022m. Speed=0.000000m/h.</desc>
<speed>0.000000</speed>
</trkpt>
<trkpt lat="56.072693" lon="26.668596">
<ele>113.442444</ele>
<time>2010-06-20T12:24:04Z</time>
<desc>lat.=56.072693, lon.=26.668596, Alt.=113.442444m. Speed=0.036000m/h.</desc>
<speed>0.010000</speed>
</trkpt>
<trkpt lat="56.072693" lon="26.668596">
<ele>113.420959</ele>
<time>2010-06-20T12:24:05Z</time>
<desc>lat.=56.072693, lon.=26.668596, Alt.=113.420959m. Speed=0.036000m/h.</desc>
<speed>0.010000</speed>
</trkpt>
<trkpt lat="56.072693" lon="26.668596">
<ele>113.407288</ele>
<time>2010-06-20T12:24:06Z</time>
<desc>lat.=56.072693, lon.=26.668596, Alt.=113.407288m. Speed=0.000000m/h.</desc>
<speed>0.000000</speed>
</trkpt>
<trkpt lat="56.072693" lon="26.668596">
<ele>113.401428</ele>
<time>2010-06-20T12:24:07Z</time>
<desc>lat.=56.072693, lon.=26.668596, Alt.=113.401428m. Speed=0.000000m/h.</desc>
<speed>0.000000</speed>
</trkpt>
<trkpt lat="56.072693" lon="26.668596">
<ele>113.399475</ele>
<time>2010-06-20T12:24:08Z</time>
<desc>lat.=56.072693, lon.=26.668596, Alt.=113.399475m. Speed=0.036000m/h.</desc>
<speed>0.010000</speed>
</trkpt>
<trkpt lat="56.072693" lon="26.668596">
<ele>113.409241</ele>
<time>2010-06-20T12:24:09Z</time>
<desc>lat.=56.072693, lon.=26.668596, Alt.=113.409241m. Speed=0.000000m/h.</desc>
<speed>0.000000</speed>
</trkpt>
<trkpt lat="56.072693" lon="26.668596">
<ele>113.407288</ele>
<time>2010-06-20T12:24:10Z</time>
<desc>lat.=56.072693, lon.=26.668596, Alt.=113.407288m. Speed=0.000000m/h.</desc>
<speed>0.000000</speed>
</trkpt>
<trkpt lat="56.072693" lon="26.668596">
<ele>113.405334</ele>
<time>2010-06-20T12:24:11Z</time>
<desc>lat.=56.072693, lon.=26.668596, Alt.=113.405334m. Speed=0.000000m/h.</desc>
<speed>0.000000</speed>
</trkpt>
<trkpt lat="56.072693" lon="26.668596">
<ele>113.393616</ele>
<time>2010-06-20T12:24:12Z</time>
<desc>lat.=56.072693, lon.=26.668596, Alt.=113.393616m. Speed=0.036000m/h.</desc>
<speed>0.010000</speed>
</trkpt>
<trkpt lat="56.072693" lon="26.668596">
<ele>113.399475</ele>
<time>2010-06-20T12:24:13Z</time>
<desc>lat.=56.072693, lon.=26.668596, Alt.=113.399475m. Speed=0.036000m/h.</desc>
<speed>0.010000</speed>
</trkpt>
<trkpt lat="56.072693" lon="26.668596">
<ele>113.411194</ele>
<time>2010-06-20T12:24:14Z</time>
<desc>lat.=56.072693, lon.=26.668596, Alt.=113.411194m. Speed=0.036000m/h.</desc>
<speed>0.010000</speed>
</trkpt>
<trkpt lat="56.072693" lon="26.668596">
<ele>113.424866</ele>
<time>2010-06-20T12:24:15Z</time>
<desc>lat.=56.072693, lon.=26.668596, Alt.=113.424866m. Speed=0.000000m/h.</desc>
<speed>0.000000</speed>
</trkpt>
<trkpt lat="56.072693" lon="26.668596">
<ele>113.411194</ele>
<time>2010-06-20T12:24:16Z</time>
<desc>lat.=56.072693, lon.=26.668596, Alt.=113.411194m. Speed=0.000000m/h.</desc>
<speed>0.000000</speed>
</trkpt>
<trkpt lat="56.072693" lon="26.668596">
<ele>113.397522</ele>
<time>2010-06-20T12:24:17Z</time>
<desc>lat.=56.072693, lon.=26.668596, Alt.=113.397522m. Speed=0.000000m/h.</desc>
<speed>0.000000</speed>
</trkpt>
<trkpt lat="56.072693" lon="26.668596">
<ele>113.395569</ele>
<time>2010-06-20T12:24:18Z</time>
<desc>lat.=56.072693, lon.=26.668596, Alt.=113.395569m. Speed=0.036000m/h.</desc>
<speed>0.010000</speed>
</trkpt>
<trkpt lat="56.072693" lon="26.668596">
<ele>113.385803</ele>
<time>2010-06-20T12:24:19Z</time>
<desc>lat.=56.072693, lon.=26.668596, Alt.=113.385803m. Speed=0.000000m/h.</desc>
<speed>0.000000</speed>
</trkpt>
<trkpt lat="56.072693" lon="26.668596">
<ele>113.381897</ele>
<time>2010-06-20T12:24:20Z</time>
<desc>lat.=56.072693, lon.=26.668596, Alt.=113.381897m. Speed=0.000000m/h.</desc>
<speed>0.000000</speed>
</trkpt>
<trkpt lat="56.072693" lon="26.668596">
<ele>113.376038</ele>
<time>2010-06-20T12:24:21Z</time>
<desc>lat.=56.072693, lon.=26.668596, Alt.=113.376038m. Speed=0.000000m/h.</desc>
<speed>0.000000</speed>
</trkpt>
<trkpt lat="56.072693" lon="26.668596">
<ele>113.372131</ele>
<time>2010-06-20T12:24:22Z</time>
<desc>lat.=56.072693, lon.=26.668596, Alt.=113.372131m. Speed=0.360000m/h.</desc>
<speed>0.100000</speed>
</trkpt>
<trkpt lat="56.072693" lon="26.668594">
<ele>113.204163</ele>
<time>2010-06-20T12:24:23Z</time>
<desc>lat.=56.072693, lon.=26.668594, Alt.=113.204163m. Speed=0.144000m/h.</desc>
<speed>0.040000</speed>
</trkpt>
<trkpt lat="56.072693" lon="26.668594">
<ele>113.077209</ele>
<time>2010-06-20T12:24:24Z</time>
<desc>lat.=56.072693, lon.=26.668594, Alt.=113.077209m. Speed=0.072000m/h.</desc>
<speed>0.020000</speed>
</trkpt>
<trkpt lat="56.072693" lon="26.668592">
<ele>112.987366</ele>
<time>2010-06-20T12:24:25Z</time>
<desc>lat.=56.072693, lon.=26.668592, Alt.=112.987366m. Speed=0.144000m/h.</desc>
<speed>0.040000</speed>
</trkpt>
<trkpt lat="56.072693" lon="26.668592">
<ele>112.907288</ele>
<time>2010-06-20T12:24:26Z</time>
<desc>lat.=56.072693, lon.=26.668592, Alt.=112.907288m. Speed=0.036000m/h.</desc>
<speed>0.010000</speed>
</trkpt>
<trkpt lat="56.072693" lon="26.668592">
<ele>112.850647</ele>
<time>2010-06-20T12:24:27Z</time>
<desc>lat.=56.072693, lon.=26.668592, Alt.=112.850647m. Speed=0.144000m/h.</desc>
<speed>0.040000</speed>
</trkpt>
<trkpt lat="56.072693" lon="26.668592">
<ele>112.801819</ele>
<time>2010-06-20T12:24:28Z</time>
<desc>lat.=56.072693, lon.=26.668592, Alt.=112.801819m. Speed=0.072000m/h.</desc>
<speed>0.020000</speed>
</trkpt>
<trkpt lat="56.072693" lon="26.668591">
<ele>112.754944</ele>
<time>2010-06-20T12:24:29Z</time>
<desc>lat.=56.072693, lon.=26.668591, Alt.=112.754944m. Speed=0.144000m/h.</desc>
<speed>0.040000</speed>
</trkpt>
<trkpt lat="56.072693" lon="26.668591">
<ele>112.719788</ele>
<time>2010-06-20T12:24:30Z</time>
<desc>lat.=56.072693, lon.=26.668591, Alt.=112.719788m. Speed=0.072000m/h.</desc>
<speed>0.020000</speed>
</trkpt>
<trkpt lat="56.072693" lon="26.668591">
<ele>112.698303</ele>
<time>2010-06-20T12:24:31Z</time>
<desc>lat.=56.072693, lon.=26.668591, Alt.=112.698303m. Speed=0.036000m/h.</desc>
<speed>0.010000</speed>
</trkpt>
<trkpt lat="56.072693" lon="26.668591">
<ele>112.700256</ele>
<time>2010-06-20T12:24:32Z</time>
<desc>lat.=56.072693, lon.=26.668591, Alt.=112.700256m. Speed=0.072000m/h.</desc>
<speed>0.020000</speed>
</trkpt>
<trkpt lat="56.072693" lon="26.668591">
<ele>112.688538</ele>
<time>2010-06-20T12:24:33Z</time>
<desc>lat.=56.072693, lon.=26.668591, Alt.=112.688538m. Speed=0.288000m/h.</desc>
<speed>0.080000</speed>
</trkpt>
<trkpt lat="56.072693" lon="26.668591">
<ele>112.694397</ele>
<time>2010-06-20T12:24:34Z</time>
<desc>lat.=56.072693, lon.=26.668591, Alt.=112.694397m. Speed=0.144000m/h.</desc>
<speed>0.040000</speed>
</trkpt>
<trkpt lat="56.072693" lon="26.668591">
<ele>112.715881</ele>
<time>2010-06-20T12:24:35Z</time>
<desc>lat.=56.072693, lon.=26.668591, Alt.=112.715881m. Speed=0.252000m/h.</desc>
<speed>0.070000</speed>
</trkpt>
<trkpt lat="56.072693" lon="26.668591">
<ele>112.690491</ele>
<time>2010-06-20T12:24:36Z</time>
<desc>lat.=56.072693, lon.=26.668591, Alt.=112.690491m. Speed=0.720000m/h.</desc>
<speed>0.200000</speed>
</trkpt>
<trkpt lat="56.072693" lon="26.668591">
<ele>111.983459</ele>
<time>2010-06-20T12:24:37Z</time>
<desc>lat.=56.072693, lon.=26.668591, Alt.=111.983459m. Speed=0.216000m/h.</desc>
<speed>0.060000</speed>
</trkpt>
<trkpt lat="56.072693" lon="26.668591">
<ele>111.610413</ele>
<time>2010-06-20T12:24:38Z</time>
<desc>lat.=56.072693, lon.=26.668591, Alt.=111.610413m. Speed=0.108000m/h.</desc>
<speed>0.030000</speed>
</trkpt>
<trkpt lat="56.072693" lon="26.668591">
<ele>111.491272</ele>
<time>2010-06-20T12:24:39Z</time>
<desc>lat.=56.072693, lon.=26.668591, Alt.=111.491272m. Speed=0.000000m/h.</desc>
<speed>0.000000</speed>
</trkpt>
<trkpt lat="56.072693" lon="26.668591">
<ele>111.403381</ele>
<time>2010-06-20T12:24:40Z</time>
<desc>lat.=56.072693, lon.=26.668591, Alt.=111.403381m. Speed=0.036000m/h.</desc>
<speed>0.010000</speed>
</trkpt>
<trkpt lat="56.072693" lon="26.668591">
<ele>111.335022</ele>
<time>2010-06-20T12:24:41Z</time>
<desc>lat.=56.072693, lon.=26.668591, Alt.=111.335022m. Speed=0.108000m/h.</desc>
<speed>0.030000</speed>
</trkpt>
<trkpt lat="56.072693" lon="26.668591">
<ele>111.278381</ele>
<time>2010-06-20T12:24:42Z</time>
<desc>lat.=56.072693, lon.=26.668591, Alt.=111.278381m. Speed=0.000000m/h.</desc>
<speed>0.000000</speed>
</trkpt>
<trkpt lat="56.072693" lon="26.668591">
<ele>111.233459</ele>
<time>2010-06-20T12:24:43Z</time>
<desc>lat.=56.072693, lon.=26.668591, Alt.=111.233459m. Speed=0.036000m/h.</desc>
<speed>0.010000</speed>
</trkpt>
<trkpt lat="56.072693" lon="26.668591">
<ele>111.196350</ele>
<time>2010-06-20T12:24:44Z</time>
<desc>lat.=56.072693, lon.=26.668591, Alt.=111.196350m. Speed=0.036000m/h.</desc>
<speed>0.010000</speed>
</trkpt>
<trkpt lat="56.072693" lon="26.668591">
<ele>111.184631</ele>
<time>2010-06-20T12:24:45Z</time>
<desc>lat.=56.072693, lon.=26.668591, Alt.=111.184631m. Speed=0.000000m/h.</desc>
<speed>0.000000</speed>
</trkpt>
<trkpt lat="56.072693" lon="26.668591">
<ele>111.178772</ele>
<time>2010-06-20T12:24:46Z</time>
<desc>lat.=56.072693, lon.=26.668591, Alt.=111.178772m. Speed=0.000000m/h.</desc>
<speed>0.000000</speed>
</trkpt>
<trkpt lat="56.072693" lon="26.668591">
<ele>111.182678</ele>
<time>2010-06-20T12:24:47Z</time>
<desc>lat.=56.072693, lon.=26.668591, Alt.=111.182678m. Speed=0.000000m/h.</desc>
<speed>0.000000</speed>
</trkpt>
<trkpt lat="56.072693" lon="26.668591">
<ele>111.174866</ele>
<time>2010-06-20T12:24:48Z</time>
<desc>lat.=56.072693, lon.=26.668591, Alt.=111.174866m. Speed=0.000000m/h.</desc>
<speed>0.000000</speed>
</trkpt>
<trkpt lat="56.072693" lon="26.668591">
<ele>111.174866</ele>
<time>2010-06-20T12:24:49Z</time>
<desc>lat.=56.072693, lon.=26.668591, Alt.=111.174866m. Speed=0.000000m/h.</desc>
<speed>0.000000</speed>
</trkpt>
<trkpt lat="56.072693" lon="26.668591">
<ele>111.172913</ele>
<time>2010-06-20T12:24:50Z</time>
<desc>lat.=56.072693, lon.=26.668591, Alt.=111.172913m. Speed=0.144000m/h.</desc>
<speed>0.040000</speed>
</trkpt>
<trkpt lat="56.072693" lon="26.668591">
<ele>111.178772</ele>
<time>2010-06-20T12:24:51Z</time>
<desc>lat.=56.072693, lon.=26.668591, Alt.=111.178772m. Speed=1.548000m/h.</desc>
<speed>0.430000</speed>
</trkpt>
<trkpt lat="56.072693" lon="26.668583">
<ele>111.268616</ele>
<time>2010-06-20T12:24:52Z</time>
<desc>lat.=56.072693, lon.=26.668583, Alt.=111.268616m. Speed=0.072000m/h.</desc>
<speed>0.020000</speed>
</trkpt>
<trkpt lat="56.072693" lon="26.668583">
<ele>111.239319</ele>
<time>2010-06-20T12:24:53Z</time>
<desc>lat.=56.072693, lon.=26.668583, Alt.=111.239319m. Speed=0.036000m/h.</desc>
<speed>0.010000</speed>
</trkpt>
<trkpt lat="56.072693" lon="26.668583">
<ele>111.233459</ele>
<time>2010-06-20T12:24:54Z</time>
<desc>lat.=56.072693, lon.=26.668583, Alt.=111.233459m. Speed=0.000000m/h.</desc>
<speed>0.000000</speed>
</trkpt>
<trkpt lat="56.072693" lon="26.668583">
<ele>111.229553</ele>
<time>2010-06-20T12:24:55Z</time>
<desc>lat.=56.072693, lon.=26.668583, Alt.=111.229553m. Speed=0.000000m/h.</desc>
<speed>0.000000</speed>
</trkpt>
<trkpt lat="56.072693" lon="26.668583">
<ele>111.225647</ele>
<time>2010-06-20T12:24:56Z</time>
<desc>lat.=56.072693, lon.=26.668583, Alt.=111.225647m. Speed=0.000000m/h.</desc>
<speed>0.000000</speed>
</trkpt>
<trkpt lat="56.072693" lon="26.668583">
<ele>111.219788</ele>
<time>2010-06-20T12:24:57Z</time>
<desc>lat.=56.072693, lon.=26.668583, Alt.=111.219788m. Speed=0.000000m/h.</desc>
<speed>0.000000</speed>
</trkpt>
<trkpt lat="56.072693" lon="26.668583">
<ele>111.211975</ele>
<time>2010-06-20T12:24:58Z</time>
<desc>lat.=56.072693, lon.=26.668583, Alt.=111.211975m. Speed=0.000000m/h.</desc>
<speed>0.000000</speed>
</trkpt>
<trkpt lat="56.072693" lon="26.668583">
<ele>111.200256</ele>
<time>2010-06-20T12:24:59Z</time>
<desc>lat.=56.072693, lon.=26.668583, Alt.=111.200256m. Speed=0.000000m/h.</desc>
<speed>0.000000</speed>
</trkpt>
<trkpt lat="56.072693" lon="26.668581">
<ele>111.186584</ele>
<time>2010-06-20T12:25:00Z</time>
<desc>lat.=56.072693, lon.=26.668581, Alt.=111.186584m. Speed=0.000000m/h.</desc>
<speed>0.000000</speed>
</trkpt>
<trkpt lat="56.072693" lon="26.668581">
<ele>111.176819</ele>
<time>2010-06-20T12:25:01Z</time>
<desc>lat.=56.072693, lon.=26.668581, Alt.=111.176819m. Speed=0.144000m/h.</desc>
<speed>0.040000</speed>
</trkpt>
<trkpt lat="56.072693" lon="26.668581">
<ele>111.167053</ele>
<time>2010-06-20T12:25:02Z</time>
<desc>lat.=56.072693, lon.=26.668581, Alt.=111.167053m. Speed=0.108000m/h.</desc>
<speed>0.030000</speed>
</trkpt>
<trkpt lat="56.072693" lon="26.668581">
<ele>111.165100</ele>
<time>2010-06-20T12:25:03Z</time>
<desc>lat.=56.072693, lon.=26.668581, Alt.=111.165100m. Speed=0.108000m/h.</desc>
<speed>0.030000</speed>
</trkpt>
<trkpt lat="56.072693" lon="26.668581">
<ele>111.151428</ele>
<time>2010-06-20T12:25:04Z</time>
<desc>lat.=56.072693, lon.=26.668581, Alt.=111.151428m. Speed=0.036000m/h.</desc>
<speed>0.010000</speed>
</trkpt>
<trkpt lat="56.072693" lon="26.668581">
<ele>111.145569</ele>
<time>2010-06-20T12:25:05Z</time>
<desc>lat.=56.072693, lon.=26.668581, Alt.=111.145569m. Speed=0.216000m/h.</desc>
<speed>0.060000</speed>
</trkpt>
<trkpt lat="56.072693" lon="26.668583">
<ele>111.143616</ele>
<time>2010-06-20T12:25:06Z</time>
<desc>lat.=56.072693, lon.=26.668583, Alt.=111.143616m. Speed=0.036000m/h.</desc>
<speed>0.010000</speed>
</trkpt>
<trkpt lat="56.072693" lon="26.668583">
<ele>111.131897</ele>
<time>2010-06-20T12:25:07Z</time>
<desc>lat.=56.072693, lon.=26.668583, Alt.=111.131897m. Speed=0.036000m/h.</desc>
<speed>0.010000</speed>
</trkpt>
<trkpt lat="56.072693" lon="26.668583">
<ele>111.131897</ele>
<time>2010-06-20T12:25:08Z</time>
<desc>lat.=56.072693, lon.=26.668583, Alt.=111.131897m. Speed=0.036000m/h.</desc>
<speed>0.010000</speed>
</trkpt>
<trkpt lat="56.072693" lon="26.668583">
<ele>111.133850</ele>
<time>2010-06-20T12:25:09Z</time>
<desc>lat.=56.072693, lon.=26.668583, Alt.=111.133850m. Speed=0.036000m/h.</desc>
<speed>0.010000</speed>
</trkpt>
<trkpt lat="56.072693" lon="26.668583">
<ele>111.131897</ele>
<time>2010-06-20T12:25:10Z</time>
<desc>lat.=56.072693, lon.=26.668583, Alt.=111.131897m. Speed=0.000000m/h.</desc>
<speed>0.000000</speed>
</trkpt>
<trkpt lat="56.072693" lon="26.668583">
<ele>111.129944</ele>
<time>2010-06-20T12:25:11Z</time>
<desc>lat.=56.072693, lon.=26.668583, Alt.=111.129944m. Speed=0.000000m/h.</desc>
<speed>0.000000</speed>
</trkpt>
<trkpt lat="56.072693" lon="26.668583">
<ele>111.122131</ele>
<time>2010-06-20T12:25:12Z</time>
<desc>lat.=56.072693, lon.=26.668583, Alt.=111.122131m. Speed=0.072000m/h.</desc>
<speed>0.020000</speed>
</trkpt>
<trkpt lat="56.072693" lon="26.668583">
<ele>111.114319</ele>
<time>2010-06-20T12:25:13Z</time>
<desc>lat.=56.072693, lon.=26.668583, Alt.=111.114319m. Speed=0.072000m/h.</desc>
<speed>0.020000</speed>
</trkpt>
<trkpt lat="56.072693" lon="26.668583">
<ele>111.108459</ele>
<time>2010-06-20T12:25:14Z</time>
<desc>lat.=56.072693, lon.=26.668583, Alt.=111.108459m. Speed=0.036000m/h.</desc>
<speed>0.010000</speed>
</trkpt>
<trkpt lat="56.072693" lon="26.668583">
<ele>111.100647</ele>
<time>2010-06-20T12:25:15Z</time>
<desc>lat.=56.072693, lon.=26.668583, Alt.=111.100647m. Speed=0.072000m/h.</desc>
<speed>0.020000</speed>
</trkpt>
<trkpt lat="56.072693" lon="26.668581">
<ele>111.092834</ele>
<time>2010-06-20T12:25:16Z</time>
<desc>lat.=56.072693, lon.=26.668581, Alt.=111.092834m. Speed=0.000000m/h.</desc>
<speed>0.000000</speed>
</trkpt>
<trkpt lat="56.072693" lon="26.668581">
<ele>111.088928</ele>
<time>2010-06-20T12:25:17Z</time>
<desc>lat.=56.072693, lon.=26.668581, Alt.=111.088928m. Speed=0.072000m/h.</desc>
<speed>0.020000</speed>
</trkpt>
<trkpt lat="56.072693" lon="26.668581">
<ele>111.083069</ele>
<time>2010-06-20T12:25:18Z</time>
<desc>lat.=56.072693, lon.=26.668581, Alt.=111.083069m. Speed=0.108000m/h.</desc>
<speed>0.030000</speed>
</trkpt>
<trkpt lat="56.072693" lon="26.668581">
<ele>111.077209</ele>
<time>2010-06-20T12:25:19Z</time>
<desc>lat.=56.072693, lon.=26.668581, Alt.=111.077209m. Speed=0.108000m/h.</desc>
<speed>0.030000</speed>
</trkpt>
<trkpt lat="56.072697" lon="26.668581">
<ele>111.073303</ele>
<time>2010-06-20T12:25:20Z</time>
<desc>lat.=56.072697, lon.=26.668581, Alt.=111.073303m. Speed=0.072000m/h.</desc>
<speed>0.020000</speed>
</trkpt>
<trkpt lat="56.072697" lon="26.668581">
<ele>111.067444</ele>
<time>2010-06-20T12:25:21Z</time>
<desc>lat.=56.072697, lon.=26.668581, Alt.=111.067444m. Speed=0.072000m/h.</desc>
<speed>0.020000</speed>
</trkpt>
<trkpt lat="56.072697" lon="26.668581">
<ele>111.063538</ele>
<time>2010-06-20T12:25:22Z</time>
<desc>lat.=56.072697, lon.=26.668581, Alt.=111.063538m. Speed=0.072000m/h.</desc>
<speed>0.020000</speed>
</trkpt>
<trkpt lat="56.072697" lon="26.668581">
<ele>111.057678</ele>
<time>2010-06-20T12:25:23Z</time>
<desc>lat.=56.072697, lon.=26.668581, Alt.=111.057678m. Speed=0.072000m/h.</desc>
<speed>0.020000</speed>
</trkpt>
<trkpt lat="56.072697" lon="26.668581">
<ele>111.053772</ele>
<time>2010-06-20T12:25:24Z</time>
<desc>lat.=56.072697, lon.=26.668581, Alt.=111.053772m. Speed=0.036000m/h.</desc>
<speed>0.010000</speed>
</trkpt>
<trkpt lat="56.072697" lon="26.668579">
<ele>111.049866</ele>
<time>2010-06-20T12:25:25Z</time>
<desc>lat.=56.072697, lon.=26.668579, Alt.=111.049866m. Speed=0.144000m/h.</desc>
<speed>0.040000</speed>
</trkpt>
<trkpt lat="56.072697" lon="26.668579">
<ele>111.044006</ele>
<time>2010-06-20T12:25:26Z</time>
<desc>lat.=56.072697, lon.=26.668579, Alt.=111.044006m. Speed=0.144000m/h.</desc>
<speed>0.040000</speed>
</trkpt>
<trkpt lat="56.072697" lon="26.668579">
<ele>111.038147</ele>
<time>2010-06-20T12:25:27Z</time>
<desc>lat.=56.072697, lon.=26.668579, Alt.=111.038147m. Speed=0.144000m/h.</desc>
<speed>0.040000</speed>
</trkpt>
<trkpt lat="56.072697" lon="26.668579">
<ele>111.040100</ele>
<time>2010-06-20T12:25:28Z</time>
<desc>lat.=56.072697, lon.=26.668579, Alt.=111.040100m. Speed=0.108000m/h.</desc>
<speed>0.030000</speed>
</trkpt>
<trkpt lat="56.072697" lon="26.668579">
<ele>111.030334</ele>
<time>2010-06-20T12:25:29Z</time>
<desc>lat.=56.072697, lon.=26.668579, Alt.=111.030334m. Speed=0.036000m/h.</desc>
<speed>0.010000</speed>
</trkpt>
<trkpt lat="56.072697" lon="26.668577">
<ele>111.022522</ele>
<time>2010-06-20T12:25:30Z</time>
<desc>lat.=56.072697, lon.=26.668577, Alt.=111.022522m. Speed=0.072000m/h.</desc>
<speed>0.020000</speed>
</trkpt>
<trkpt lat="56.072697" lon="26.668577">
<ele>111.012756</ele>
<time>2010-06-20T12:25:31Z</time>
<desc>lat.=56.072697, lon.=26.668577, Alt.=111.012756m. Speed=0.036000m/h.</desc>
<speed>0.010000</speed>
</trkpt>
<trkpt lat="56.072697" lon="26.668577">
<ele>111.004944</ele>
<time>2010-06-20T12:25:32Z</time>
<desc>lat.=56.072697, lon.=26.668577, Alt.=111.004944m. Speed=0.000000m/h.</desc>
<speed>0.000000</speed>
</trkpt>
<trkpt lat="56.072697" lon="26.668577">
<ele>111.001038</ele>
<time>2010-06-20T12:25:33Z</time>
<desc>lat.=56.072697, lon.=26.668577, Alt.=111.001038m. Speed=0.036000m/h.</desc>
<speed>0.010000</speed>
</trkpt>
<trkpt lat="56.072697" lon="26.668577">
<ele>110.987366</ele>
<time>2010-06-20T12:25:34Z</time>
<desc>lat.=56.072697, lon.=26.668577, Alt.=110.987366m. Speed=0.072000m/h.</desc>
<speed>0.020000</speed>
</trkpt>
<trkpt lat="56.072697" lon="26.668577">
<ele>110.985413</ele>
<time>2010-06-20T12:25:35Z</time>
<desc>lat.=56.072697, lon.=26.668577, Alt.=110.985413m. Speed=0.036000m/h.</desc>
<speed>0.010000</speed>
</trkpt>
<trkpt lat="56.072697" lon="26.668577">
<ele>110.979553</ele>
<time>2010-06-20T12:25:36Z</time>
<desc>lat.=56.072697, lon.=26.668577, Alt.=110.979553m. Speed=0.216000m/h.</desc>
<speed>0.060000</speed>
</trkpt>
<trkpt lat="56.072697" lon="26.668577">
<ele>110.971741</ele>
<time>2010-06-20T12:25:37Z</time>
<desc>lat.=56.072697, lon.=26.668577, Alt.=110.971741m. Speed=0.000000m/h.</desc>
<speed>0.000000</speed>
</trkpt>
<trkpt lat="56.072697" lon="26.668577">
<ele>110.987366</ele>
<time>2010-06-20T12:25:38Z</time>
<desc>lat.=56.072697, lon.=26.668577, Alt.=110.987366m. Speed=0.720000m/h.</desc>
<speed>0.200000</speed>
</trkpt>
<trkpt lat="56.072697" lon="26.668577">
<ele>110.971741</ele>
<time>2010-06-20T12:25:39Z</time>
<desc>lat.=56.072697, lon.=26.668577, Alt.=110.971741m. Speed=0.072000m/h.</desc>
<speed>0.020000</speed>
</trkpt>
<trkpt lat="56.072697" lon="26.668579">
<ele>111.008850</ele>
<time>2010-06-20T12:25:40Z</time>
<desc>lat.=56.072697, lon.=26.668579, Alt.=111.008850m. Speed=1.080000m/h.</desc>
<speed>0.300000</speed>
</trkpt>
<trkpt lat="56.072697" lon="26.668583">
<ele>111.034241</ele>
<time>2010-06-20T12:25:41Z</time>
<desc>lat.=56.072697, lon.=26.668583, Alt.=111.034241m. Speed=1.188000m/h.</desc>
<speed>0.330000</speed>
</trkpt>
<trkpt lat="56.072693" lon="26.668585">
<ele>111.049866</ele>
<time>2010-06-20T12:25:42Z</time>
<desc>lat.=56.072693, lon.=26.668585, Alt.=111.049866m. Speed=1.476000m/h.</desc>
<speed>0.410000</speed>
</trkpt>
<trkpt lat="56.072689" lon="26.668585">
<ele>111.045959</ele>
<time>2010-06-20T12:25:43Z</time>
<desc>lat.=56.072689, lon.=26.668585, Alt.=111.045959m. Speed=1.332000m/h.</desc>
<speed>0.370000</speed>
</trkpt>
<trkpt lat="56.072685" lon="26.668587">
<ele>111.055725</ele>
<time>2010-06-20T12:25:44Z</time>
<desc>lat.=56.072685, lon.=26.668587, Alt.=111.055725m. Speed=0.756000m/h.</desc>
<speed>0.210000</speed>
</trkpt>
<trkpt lat="56.072685" lon="26.668585">
<ele>111.061584</ele>
<time>2010-06-20T12:25:45Z</time>
<desc>lat.=56.072685, lon.=26.668585, Alt.=111.061584m. Speed=2.484000m/h.</desc>
<speed>0.690000</speed>
</trkpt>
<trkpt lat="56.072678" lon="26.668581">
<ele>111.079163</ele>
<time>2010-06-20T12:25:46Z</time>
<desc>lat.=56.072678, lon.=26.668581, Alt.=111.079163m. Speed=3.204000m/h.</desc>
<speed>0.890000</speed>
</trkpt>
<trkpt lat="56.072670" lon="26.668575">
<ele>111.110413</ele>
<time>2010-06-20T12:25:47Z</time>
<desc>lat.=56.072670, lon.=26.668575, Alt.=111.110413m. Speed=2.880000m/h.</desc>
<speed>0.800000</speed>
</trkpt>
<trkpt lat="56.072662" lon="26.668575">
<ele>111.182678</ele>
<time>2010-06-20T12:25:48Z</time>
<desc>lat.=56.072662, lon.=26.668575, Alt.=111.182678m. Speed=2.592000m/h.</desc>
<speed>0.720000</speed>
</trkpt>
<trkpt lat="56.072655" lon="26.668579">
<ele>111.258850</ele>
<time>2010-06-20T12:25:49Z</time>
<desc>lat.=56.072655, lon.=26.668579, Alt.=111.258850m. Speed=4.968000m/h.</desc>
<speed>1.380000</speed>
</trkpt>
<trkpt lat="56.072643" lon="26.668585">
<ele>111.268616</ele>
<time>2010-06-20T12:25:50Z</time>
<desc>lat.=56.072643, lon.=26.668585, Alt.=111.268616m. Speed=3.348000m/h.</desc>
<speed>0.930000</speed>
</trkpt>
<trkpt lat="56.072628" lon="26.668594">
<ele>111.276428</ele>
<time>2010-06-20T12:25:51Z</time>
<desc>lat.=56.072628, lon.=26.668594, Alt.=111.276428m. Speed=4.644000m/h.</desc>
<speed>1.290000</speed>
</trkpt>
<trkpt lat="56.072613" lon="26.668602">
<ele>111.331116</ele>
<time>2010-06-20T12:25:52Z</time>
<desc>lat.=56.072613, lon.=26.668602, Alt.=111.331116m. Speed=5.940000m/h.</desc>
<speed>1.650000</speed>
</trkpt>
<trkpt lat="56.072601" lon="26.668610">
<ele>111.180725</ele>
<time>2010-06-20T12:25:53Z</time>
<desc>lat.=56.072601, lon.=26.668610, Alt.=111.180725m. Speed=6.516000m/h.</desc>
<speed>1.810000</speed>
</trkpt>
<trkpt lat="56.072578" lon="26.668623">
<ele>111.071350</ele>
<time>2010-06-20T12:25:54Z</time>
<desc>lat.=56.072578, lon.=26.668623, Alt.=111.071350m. Speed=6.084000m/h.</desc>
<speed>1.690000</speed>
</trkpt>
<trkpt lat="56.072563" lon="26.668636">
<ele>111.092834</ele>
<time>2010-06-20T12:25:55Z</time>
<desc>lat.=56.072563, lon.=26.668636, Alt.=111.092834m. Speed=6.912000m/h.</desc>
<speed>1.920000</speed>
</trkpt>
<trkpt lat="56.072544" lon="26.668655">
<ele>110.752991</ele>
<time>2010-06-20T12:25:56Z</time>
<desc>lat.=56.072544, lon.=26.668655, Alt.=110.752991m. Speed=7.416000m/h.</desc>
<speed>2.060000</speed>
</trkpt>
<trkpt lat="56.072529" lon="26.668678">
<ele>110.766663</ele>
<time>2010-06-20T12:25:57Z</time>
<desc>lat.=56.072529, lon.=26.668678, Alt.=110.766663m. Speed=9.612000m/h.</desc>
<speed>2.670000</speed>
</trkpt>
<trkpt lat="56.072506" lon="26.668707">
<ele>110.690491</ele>
<time>2010-06-20T12:25:58Z</time>
<desc>lat.=56.072506, lon.=26.668707, Alt.=110.690491m. Speed=9.972000m/h.</desc>
<speed>2.770000</speed>
</trkpt>
<trkpt lat="56.072479" lon="26.668734">
<ele>110.475647</ele>
<time>2010-06-20T12:25:59Z</time>
<desc>lat.=56.072479, lon.=26.668734, Alt.=110.475647m. Speed=10.296000m/h.</desc>
<speed>2.860000</speed>
</trkpt>
<trkpt lat="56.072456" lon="26.668753">
<ele>110.276428</ele>
<time>2010-06-20T12:26:00Z</time>
<desc>lat.=56.072456, lon.=26.668753, Alt.=110.276428m. Speed=9.720000m/h.</desc>
<speed>2.700000</speed>
</trkpt>
<trkpt lat="56.072433" lon="26.668776">
<ele>110.143616</ele>
<time>2010-06-20T12:26:01Z</time>
<desc>lat.=56.072433, lon.=26.668776, Alt.=110.143616m. Speed=11.628000m/h.</desc>
<speed>3.230000</speed>
</trkpt>
<trkpt lat="56.072399" lon="26.668800">
<ele>109.874084</ele>
<time>2010-06-20T12:26:02Z</time>
<desc>lat.=56.072399, lon.=26.668800, Alt.=109.874084m. Speed=13.140000m/h.</desc>
<speed>3.650000</speed>
</trkpt>
<trkpt lat="56.072357" lon="26.668819">
<ele>109.372131</ele>
<time>2010-06-20T12:26:03Z</time>
<desc>lat.=56.072357, lon.=26.668819, Alt.=109.372131m. Speed=12.888000m/h.</desc>
<speed>3.580000</speed>
</trkpt>
<trkpt lat="56.072323" lon="26.668844">
<ele>109.102600</ele>
<time>2010-06-20T12:26:04Z</time>
<desc>lat.=56.072323, lon.=26.668844, Alt.=109.102600m. Speed=12.816000m/h.</desc>
<speed>3.560000</speed>
</trkpt>
<trkpt lat="56.072296" lon="26.668871">
<ele>109.147522</ele>
<time>2010-06-20T12:26:05Z</time>
<desc>lat.=56.072296, lon.=26.668871, Alt.=109.147522m. Speed=12.636000m/h.</desc>
<speed>3.510000</speed>
</trkpt>
<trkpt lat="56.072266" lon="26.668894">
<ele>108.889709</ele>
<time>2010-06-20T12:26:06Z</time>
<desc>lat.=56.072266, lon.=26.668894, Alt.=108.889709m. Speed=12.636000m/h.</desc>
<speed>3.510000</speed>
</trkpt>
<trkpt lat="56.072231" lon="26.668924">
<ele>108.756897</ele>
<time>2010-06-20T12:26:07Z</time>
<desc>lat.=56.072231, lon.=26.668924, Alt.=108.756897m. Speed=12.780000m/h.</desc>
<speed>3.550000</speed>
</trkpt>
<trkpt lat="56.072197" lon="26.668953">
<ele>108.870178</ele>
<time>2010-06-20T12:26:08Z</time>
<desc>lat.=56.072197, lon.=26.668953, Alt.=108.870178m. Speed=13.176000m/h.</desc>
<speed>3.660000</speed>
</trkpt>
<trkpt lat="56.072166" lon="26.668983">
<ele>108.905334</ele>
<time>2010-06-20T12:26:09Z</time>
<desc>lat.=56.072166, lon.=26.668983, Alt.=108.905334m. Speed=12.816000m/h.</desc>
<speed>3.560000</speed>
</trkpt>
<trkpt lat="56.072132" lon="26.669012">
<ele>108.739319</ele>
<time>2010-06-20T12:26:10Z</time>
<desc>lat.=56.072132, lon.=26.669012, Alt.=108.739319m. Speed=12.744000m/h.</desc>
<speed>3.540000</speed>
</trkpt>
<trkpt lat="56.072102" lon="26.669041">
<ele>108.624084</ele>
<time>2010-06-20T12:26:11Z</time>
<desc>lat.=56.072102, lon.=26.669041, Alt.=108.624084m. Speed=12.852000m/h.</desc>
<speed>3.570000</speed>
</trkpt>
<trkpt lat="56.072067" lon="26.669073">
<ele>108.702209</ele>
<time>2010-06-20T12:26:12Z</time>
<desc>lat.=56.072067, lon.=26.669073, Alt.=108.702209m. Speed=12.348000m/h.</desc>
<speed>3.430000</speed>
</trkpt>
<trkpt lat="56.072041" lon="26.669106">
<ele>108.960022</ele>
<time>2010-06-20T12:26:13Z</time>
<desc>lat.=56.072041, lon.=26.669106, Alt.=108.960022m. Speed=12.456000m/h.</desc>
<speed>3.460000</speed>
</trkpt>
<trkpt lat="56.072010" lon="26.669130">
<ele>108.879944</ele>
<time>2010-06-20T12:26:14Z</time>
<desc>lat.=56.072010, lon.=26.669130, Alt.=108.879944m. Speed=12.384000m/h.</desc>
<speed>3.440000</speed>
</trkpt>
<trkpt lat="56.071980" lon="26.669155">
<ele>108.956116</ele>
<time>2010-06-20T12:26:15Z</time>
<desc>lat.=56.071980, lon.=26.669155, Alt.=108.956116m. Speed=12.492000m/h.</desc>
<speed>3.470000</speed>
</trkpt>
<trkpt lat="56.071957" lon="26.669184">
<ele>108.993225</ele>
<time>2010-06-20T12:26:16Z</time>
<desc>lat.=56.071957, lon.=26.669184, Alt.=108.993225m. Speed=12.492000m/h.</desc>
<speed>3.470000</speed>
</trkpt>
<trkpt lat="56.071930" lon="26.669214">
<ele>108.915100</ele>
<time>2010-06-20T12:26:17Z</time>
<desc>lat.=56.071930, lon.=26.669214, Alt.=108.915100m. Speed=13.824000m/h.</desc>
<speed>3.840000</speed>
</trkpt>
<trkpt lat="56.071899" lon="26.669245">
<ele>109.001038</ele>
<time>2010-06-20T12:26:18Z</time>
<desc>lat.=56.071899, lon.=26.669245, Alt.=109.001038m. Speed=13.464000m/h.</desc>
<speed>3.740000</speed>
</trkpt>
<trkpt lat="56.071869" lon="26.669277">
<ele>109.100647</ele>
<time>2010-06-20T12:26:19Z</time>
<desc>lat.=56.071869, lon.=26.669277, Alt.=109.100647m. Speed=13.572000m/h.</desc>
<speed>3.770000</speed>
</trkpt>
<trkpt lat="56.071835" lon="26.669308">
<ele>109.335022</ele>
<time>2010-06-20T12:26:20Z</time>
<desc>lat.=56.071835, lon.=26.669308, Alt.=109.335022m. Speed=13.572000m/h.</desc>
<speed>3.770000</speed>
</trkpt>
<trkpt lat="56.071812" lon="26.669336">
<ele>109.352600</ele>
<time>2010-06-20T12:26:21Z</time>
<desc>lat.=56.071812, lon.=26.669336, Alt.=109.352600m. Speed=13.392000m/h.</desc>
<speed>3.720000</speed>
</trkpt>
<trkpt lat="56.071781" lon="26.669367">
<ele>109.340881</ele>
<time>2010-06-20T12:26:22Z</time>
<desc>lat.=56.071781, lon.=26.669367, Alt.=109.340881m. Speed=12.960000m/h.</desc>
<speed>3.600000</speed>
</trkpt>
<trkpt lat="56.071751" lon="26.669401">
<ele>109.309631</ele>
<time>2010-06-20T12:26:23Z</time>
<desc>lat.=56.071751, lon.=26.669401, Alt.=109.309631m. Speed=13.248000m/h.</desc>
<speed>3.680000</speed>
</trkpt>
<trkpt lat="56.071720" lon="26.669434">
<ele>109.686584</ele>
<time>2010-06-20T12:26:24Z</time>
<desc>lat.=56.071720, lon.=26.669434, Alt.=109.686584m. Speed=13.356000m/h.</desc>
<speed>3.710000</speed>
</trkpt>
<trkpt lat="56.071690" lon="26.669464">
<ele>109.575256</ele>
<time>2010-06-20T12:26:25Z</time>
<desc>lat.=56.071690, lon.=26.669464, Alt.=109.575256m. Speed=13.104000m/h.</desc>
<speed>3.640000</speed>
</trkpt>
<trkpt lat="56.071659" lon="26.669497">
<ele>109.545959</ele>
<time>2010-06-20T12:26:26Z</time>
<desc>lat.=56.071659, lon.=26.669497, Alt.=109.545959m. Speed=15.012000m/h.</desc>
<speed>4.170000</speed>
</trkpt>
<trkpt lat="56.071629" lon="26.669531">
<ele>109.534241</ele>
<time>2010-06-20T12:26:27Z</time>
<desc>lat.=56.071629, lon.=26.669531, Alt.=109.534241m. Speed=14.616000m/h.</desc>
<speed>4.060000</speed>
</trkpt>
<trkpt lat="56.071602" lon="26.669563">
<ele>109.364319</ele>
<time>2010-06-20T12:26:28Z</time>
<desc>lat.=56.071602, lon.=26.669563, Alt.=109.364319m. Speed=13.932000m/h.</desc>
<speed>3.870000</speed>
</trkpt>
<trkpt lat="56.071568" lon="26.669600">
<ele>109.315491</ele>
<time>2010-06-20T12:26:29Z</time>
<desc>lat.=56.071568, lon.=26.669600, Alt.=109.315491m. Speed=16.452000m/h.</desc>
<speed>4.570000</speed>
</trkpt>
<trkpt lat="56.071533" lon="26.669638">
<ele>109.440491</ele>
<time>2010-06-20T12:26:30Z</time>
<desc>lat.=56.071533, lon.=26.669638, Alt.=109.440491m. Speed=17.208000m/h.</desc>
<speed>4.780000</speed>
</trkpt>
<trkpt lat="56.071495" lon="26.669674">
<ele>109.376038</ele>
<time>2010-06-20T12:26:31Z</time>
<desc>lat.=56.071495, lon.=26.669674, Alt.=109.376038m. Speed=17.747999m/h.</desc>
<speed>4.930000</speed>
</trkpt>
<trkpt lat="56.071457" lon="26.669714">
<ele>109.420959</ele>
<time>2010-06-20T12:26:32Z</time>
<desc>lat.=56.071457, lon.=26.669714, Alt.=109.420959m. Speed=18.792000m/h.</desc>
<speed>5.220000</speed>
</trkpt>
<trkpt lat="56.071411" lon="26.669756">
<ele>109.403381</ele>
<time>2010-06-20T12:26:33Z</time>
<desc>lat.=56.071411, lon.=26.669756, Alt.=109.403381m. Speed=19.511999m/h.</desc>
<speed>5.420000</speed>
</trkpt>
<trkpt lat="56.071369" lon="26.669796">
<ele>109.358459</ele>
<time>2010-06-20T12:26:34Z</time>
<desc>lat.=56.071369, lon.=26.669796, Alt.=109.358459m. Speed=20.124001m/h.</desc>
<speed>5.590000</speed>
</trkpt>
<trkpt lat="56.071323" lon="26.669834">
<ele>109.294006</ele>
<time>2010-06-20T12:26:35Z</time>
<desc>lat.=56.071323, lon.=26.669834, Alt.=109.294006m. Speed=20.016001m/h.</desc>
<speed>5.560000</speed>
</trkpt>
<trkpt lat="56.071281" lon="26.669870">
<ele>109.163147</ele>
<time>2010-06-20T12:26:36Z</time>
<desc>lat.=56.071281, lon.=26.669870, Alt.=109.163147m. Speed=20.052000m/h.</desc>
<speed>5.570000</speed>
</trkpt>
<trkpt lat="56.071236" lon="26.669905">
<ele>109.077209</ele>
<time>2010-06-20T12:26:37Z</time>
<desc>lat.=56.071236, lon.=26.669905, Alt.=109.077209m. Speed=20.340000m/h.</desc>
<speed>5.650000</speed>
</trkpt>
<trkpt lat="56.071190" lon="26.669943">
<ele>109.020569</ele>
<time>2010-06-20T12:26:38Z</time>
<desc>lat.=56.071190, lon.=26.669943, Alt.=109.020569m. Speed=20.664000m/h.</desc>
<speed>5.740000</speed>
</trkpt>
<trkpt lat="56.071144" lon="26.669979">
<ele>108.920959</ele>
<time>2010-06-20T12:26:39Z</time>
<desc>lat.=56.071144, lon.=26.669979, Alt.=108.920959m. Speed=20.556000m/h.</desc>
<speed>5.710000</speed>
</trkpt>
<trkpt lat="56.071098" lon="26.670017">
<ele>109.063538</ele>
<time>2010-06-20T12:26:40Z</time>
<desc>lat.=56.071098, lon.=26.670017, Alt.=109.063538m. Speed=20.268000m/h.</desc>
<speed>5.630000</speed>
</trkpt>
<trkpt lat="56.071053" lon="26.670055">
<ele>108.960022</ele>
<time>2010-06-20T12:26:41Z</time>
<desc>lat.=56.071053, lon.=26.670055, Alt.=108.960022m. Speed=20.952000m/h.</desc>
<speed>5.820000</speed>
</trkpt>
<trkpt lat="56.071007" lon="26.670088">
<ele>108.860413</ele>
<time>2010-06-20T12:26:42Z</time>
<desc>lat.=56.071007, lon.=26.670088, Alt.=108.860413m. Speed=20.124001m/h.</desc>
<speed>5.590000</speed>
</trkpt>
<trkpt lat="56.070953" lon="26.670116">
<ele>108.346741</ele>
<time>2010-06-20T12:26:43Z</time>
<desc>lat.=56.070953, lon.=26.670116, Alt.=108.346741m. Speed=21.959999m/h.</desc>
<speed>6.100000</speed>
</trkpt>
<trkpt lat="56.070904" lon="26.670145">
<ele>108.069397</ele>
<time>2010-06-20T12:26:44Z</time>
<desc>lat.=56.070904, lon.=26.670145, Alt.=108.069397m. Speed=21.096001m/h.</desc>
<speed>5.860000</speed>
</trkpt>
<trkpt lat="56.070854" lon="26.670170">
<ele>107.813538</ele>
<time>2010-06-20T12:26:45Z</time>
<desc>lat.=56.070854, lon.=26.670170, Alt.=107.813538m. Speed=20.448000m/h.</desc>
<speed>5.680000</speed>
</trkpt>
<trkpt lat="56.070801" lon="26.670198">
<ele>107.700256</ele>
<time>2010-06-20T12:26:46Z</time>
<desc>lat.=56.070801, lon.=26.670198, Alt.=107.700256m. Speed=21.563999m/h.</desc>
<speed>5.990000</speed>
</trkpt>
<trkpt lat="56.070751" lon="26.670223">
<ele>107.600647</ele>
<time>2010-06-20T12:26:47Z</time>
<desc>lat.=56.070751, lon.=26.670223, Alt.=107.600647m. Speed=21.420000m/h.</desc>
<speed>5.950000</speed>
</trkpt>
<trkpt lat="56.070698" lon="26.670248">
<ele>107.508850</ele>
<time>2010-06-20T12:26:48Z</time>
<desc>lat.=56.070698, lon.=26.670248, Alt.=107.508850m. Speed=20.556000m/h.</desc>
<speed>5.710000</speed>
</trkpt>
<trkpt lat="56.070652" lon="26.670275">
<ele>107.360413</ele>
<time>2010-06-20T12:26:49Z</time>
<desc>lat.=56.070652, lon.=26.670275, Alt.=107.360413m. Speed=19.368000m/h.</desc>
<speed>5.380000</speed>
</trkpt>
<trkpt lat="56.070606" lon="26.670300">
<ele>106.975647</ele>
<time>2010-06-20T12:26:50Z</time>
<desc>lat.=56.070606, lon.=26.670300, Alt.=106.975647m. Speed=18.468000m/h.</desc>
<speed>5.130000</speed>
</trkpt>
<trkpt lat="56.070564" lon="26.670321">
<ele>106.969788</ele>
<time>2010-06-20T12:26:51Z</time>
<desc>lat.=56.070564, lon.=26.670321, Alt.=106.969788m. Speed=17.136000m/h.</desc>
<speed>4.760000</speed>
</trkpt>
<trkpt lat="56.070526" lon="26.670340">
<ele>106.956116</ele>
<time>2010-06-20T12:26:52Z</time>
<desc>lat.=56.070526, lon.=26.670340, Alt.=106.956116m. Speed=18.180000m/h.</desc>
<speed>5.050000</speed>
</trkpt>
<trkpt lat="56.070480" lon="26.670362">
<ele>106.926819</ele>
<time>2010-06-20T12:26:53Z</time>
<desc>lat.=56.070480, lon.=26.670362, Alt.=106.926819m. Speed=16.775999m/h.</desc>
<speed>4.660000</speed>
</trkpt>
<trkpt lat="56.070442" lon="26.670376">
<ele>106.815491</ele>
<time>2010-06-20T12:26:54Z</time>
<desc>lat.=56.070442, lon.=26.670376, Alt.=106.815491m. Speed=15.804000m/h.</desc>
<speed>4.390000</speed>
</trkpt>
<trkpt lat="56.070408" lon="26.670391">
<ele>106.836975</ele>
<time>2010-06-20T12:26:55Z</time>
<desc>lat.=56.070408, lon.=26.670391, Alt.=106.836975m. Speed=14.544000m/h.</desc>
<speed>4.040000</speed>
</trkpt>
<trkpt lat="56.070377" lon="26.670408">
<ele>106.872131</ele>
<time>2010-06-20T12:26:56Z</time>
<desc>lat.=56.070377, lon.=26.670408, Alt.=106.872131m. Speed=15.768000m/h.</desc>
<speed>4.380000</speed>
</trkpt>
<trkpt lat="56.070343" lon="26.670431">
<ele>106.989319</ele>
<time>2010-06-20T12:26:57Z</time>
<desc>lat.=56.070343, lon.=26.670431, Alt.=106.989319m. Speed=15.696000m/h.</desc>
<speed>4.360000</speed>
</trkpt>
<trkpt lat="56.070305" lon="26.670454">
<ele>106.911194</ele>
<time>2010-06-20T12:26:58Z</time>
<desc>lat.=56.070305, lon.=26.670454, Alt.=106.911194m. Speed=15.300000m/h.</desc>
<speed>4.250000</speed>
</trkpt>
<trkpt lat="56.070263" lon="26.670469">
<ele>106.809631</ele>
<time>2010-06-20T12:26:59Z</time>
<desc>lat.=56.070263, lon.=26.670469, Alt.=106.809631m. Speed=19.368000m/h.</desc>
<speed>5.380000</speed>
</trkpt>
<trkpt lat="56.070225" lon="26.670488">
<ele>106.721741</ele>
<time>2010-06-20T12:27:00Z</time>
<desc>lat.=56.070225, lon.=26.670488, Alt.=106.721741m. Speed=14.544000m/h.</desc>
<speed>4.040000</speed>
</trkpt>
<trkpt lat="56.070187" lon="26.670511">
<ele>106.710022</ele>
<time>2010-06-20T12:27:01Z</time>
<desc>lat.=56.070187, lon.=26.670511, Alt.=106.710022m. Speed=17.028000m/h.</desc>
<speed>4.730000</speed>
</trkpt>
<trkpt lat="56.070148" lon="26.670534">
<ele>106.635803</ele>
<time>2010-06-20T12:27:02Z</time>
<desc>lat.=56.070148, lon.=26.670534, Alt.=106.635803m. Speed=16.236000m/h.</desc>
<speed>4.510000</speed>
</trkpt>
<trkpt lat="56.070107" lon="26.670559">
<ele>106.915100</ele>
<time>2010-06-20T12:27:03Z</time>
<desc>lat.=56.070107, lon.=26.670559, Alt.=106.915100m. Speed=16.488001m/h.</desc>
<speed>4.580000</speed>
</trkpt>
<trkpt lat="56.070065" lon="26.670580">
<ele>107.063538</ele>
<time>2010-06-20T12:27:04Z</time>
<desc>lat.=56.070065, lon.=26.670580, Alt.=107.063538m. Speed=16.992001m/h.</desc>
<speed>4.720000</speed>
</trkpt>
<trkpt lat="56.070023" lon="26.670607">
<ele>107.147522</ele>
<time>2010-06-20T12:27:05Z</time>
<desc>lat.=56.070023, lon.=26.670607, Alt.=107.147522m. Speed=17.351999m/h.</desc>
<speed>4.820000</speed>
</trkpt>
<trkpt lat="56.069977" lon="26.670628">
<ele>107.094788</ele>
<time>2010-06-20T12:27:06Z</time>
<desc>lat.=56.069977, lon.=26.670628, Alt.=107.094788m. Speed=17.639999m/h.</desc>
<speed>4.900000</speed>
</trkpt>
<trkpt lat="56.069939" lon="26.670647">
<ele>107.067444</ele>
<time>2010-06-20T12:27:07Z</time>
<desc>lat.=56.069939, lon.=26.670647, Alt.=107.067444m. Speed=16.596001m/h.</desc>
<speed>4.610000</speed>
</trkpt>
<trkpt lat="56.069901" lon="26.670673">
<ele>106.889709</ele>
<time>2010-06-20T12:27:08Z</time>
<desc>lat.=56.069901, lon.=26.670673, Alt.=106.889709m. Speed=17.568001m/h.</desc>
<speed>4.880000</speed>
</trkpt>
<trkpt lat="56.069855" lon="26.670700">
<ele>106.815491</ele>
<time>2010-06-20T12:27:09Z</time>
<desc>lat.=56.069855, lon.=26.670700, Alt.=106.815491m. Speed=18.468000m/h.</desc>
<speed>5.130000</speed>
</trkpt>
<trkpt lat="56.069805" lon="26.670725">
<ele>106.827209</ele>
<time>2010-06-20T12:27:10Z</time>
<desc>lat.=56.069805, lon.=26.670725, Alt.=106.827209m. Speed=19.656000m/h.</desc>
<speed>5.460000</speed>
</trkpt>
<trkpt lat="56.069756" lon="26.670752">
<ele>106.737366</ele>
<time>2010-06-20T12:27:11Z</time>
<desc>lat.=56.069756, lon.=26.670752, Alt.=106.737366m. Speed=20.052000m/h.</desc>
<speed>5.570000</speed>
</trkpt>
<trkpt lat="56.069706" lon="26.670780">
<ele>106.717834</ele>
<time>2010-06-20T12:27:12Z</time>
<desc>lat.=56.069706, lon.=26.670780, Alt.=106.717834m. Speed=21.240000m/h.</desc>
<speed>5.900000</speed>
</trkpt>
<trkpt lat="56.069641" lon="26.670807">
<ele>106.774475</ele>
<time>2010-06-20T12:27:13Z</time>
<desc>lat.=56.069641, lon.=26.670807, Alt.=106.774475m. Speed=21.888000m/h.</desc>
<speed>6.080000</speed>
</trkpt>
<trkpt lat="56.069584" lon="26.670835">
<ele>106.794006</ele>
<time>2010-06-20T12:27:14Z</time>
<desc>lat.=56.069584, lon.=26.670835, Alt.=106.794006m. Speed=20.808001m/h.</desc>
<speed>5.780000</speed>
</trkpt>
<trkpt lat="56.069538" lon="26.670866">
<ele>106.803772</ele>
<time>2010-06-20T12:27:15Z</time>
<desc>lat.=56.069538, lon.=26.670866, Alt.=106.803772m. Speed=19.872000m/h.</desc>
<speed>5.520000</speed>
</trkpt>
<trkpt lat="56.069489" lon="26.670895">
<ele>107.030334</ele>
<time>2010-06-20T12:27:16Z</time>
<desc>lat.=56.069489, lon.=26.670895, Alt.=107.030334m. Speed=18.827999m/h.</desc>
<speed>5.230000</speed>
</trkpt>
<trkpt lat="56.069443" lon="26.670919">
<ele>107.014709</ele>
<time>2010-06-20T12:27:17Z</time>
<desc>lat.=56.069443, lon.=26.670919, Alt.=107.014709m. Speed=19.115999m/h.</desc>
<speed>5.310000</speed>
</trkpt>
<trkpt lat="56.069397" lon="26.670938">
<ele>107.151428</ele>
<time>2010-06-20T12:27:18Z</time>
<desc>lat.=56.069397, lon.=26.670938, Alt.=107.151428m. Speed=18.972000m/h.</desc>
<speed>5.270000</speed>
</trkpt>
<trkpt lat="56.069340" lon="26.670961">
<ele>107.147522</ele>
<time>2010-06-20T12:27:19Z</time>
<desc>lat.=56.069340, lon.=26.670961, Alt.=107.147522m. Speed=19.368000m/h.</desc>
<speed>5.380000</speed>
</trkpt>
<trkpt lat="56.069290" lon="26.670982">
<ele>107.085022</ele>
<time>2010-06-20T12:27:20Z</time>
<desc>lat.=56.069290, lon.=26.670982, Alt.=107.085022m. Speed=19.368000m/h.</desc>
<speed>5.380000</speed>
</trkpt>
<trkpt lat="56.069241" lon="26.671001">
<ele>107.018616</ele>
<time>2010-06-20T12:27:21Z</time>
<desc>lat.=56.069241, lon.=26.671001, Alt.=107.018616m. Speed=18.827999m/h.</desc>
<speed>5.230000</speed>
</trkpt>
<trkpt lat="56.069195" lon="26.671026">
<ele>106.846741</ele>
<time>2010-06-20T12:27:22Z</time>
<desc>lat.=56.069195, lon.=26.671026, Alt.=106.846741m. Speed=18.108000m/h.</desc>
<speed>5.030000</speed>
</trkpt>
<trkpt lat="56.069149" lon="26.671049">
<ele>106.669006</ele>
<time>2010-06-20T12:27:23Z</time>
<desc>lat.=56.069149, lon.=26.671049, Alt.=106.669006m. Speed=17.712000m/h.</desc>
<speed>4.920000</speed>
</trkpt>
<trkpt lat="56.069103" lon="26.671070">
<ele>106.536194</ele>
<time>2010-06-20T12:27:24Z</time>
<desc>lat.=56.069103, lon.=26.671070, Alt.=106.536194m. Speed=19.872000m/h.</desc>
<speed>5.520000</speed>
</trkpt>
<trkpt lat="56.069057" lon="26.671089">
<ele>106.590881</ele>
<time>2010-06-20T12:27:25Z</time>
<desc>lat.=56.069057, lon.=26.671089, Alt.=106.590881m. Speed=19.368000m/h.</desc>
<speed>5.380000</speed>
</trkpt>
<trkpt lat="56.069008" lon="26.671114">
<ele>106.338928</ele>
<time>2010-06-20T12:27:26Z</time>
<desc>lat.=56.069008, lon.=26.671114, Alt.=106.338928m. Speed=20.087999m/h.</desc>
<speed>5.580000</speed>
</trkpt>
<trkpt lat="56.068958" lon="26.671139">
<ele>106.024475</ele>
<time>2010-06-20T12:27:27Z</time>
<desc>lat.=56.068958, lon.=26.671139, Alt.=106.024475m. Speed=19.836000m/h.</desc>
<speed>5.510000</speed>
</trkpt>
<trkpt lat="56.068913" lon="26.671164">
<ele>105.608459</ele>
<time>2010-06-20T12:27:28Z</time>
<desc>lat.=56.068913, lon.=26.671164, Alt.=105.608459m. Speed=20.483999m/h.</desc>
<speed>5.690000</speed>
</trkpt>
<trkpt lat="56.068863" lon="26.671188">
<ele>105.374084</ele>
<time>2010-06-20T12:27:29Z</time>
<desc>lat.=56.068863, lon.=26.671188, Alt.=105.374084m. Speed=20.195999m/h.</desc>
<speed>5.610000</speed>
</trkpt>
<trkpt lat="56.068810" lon="26.671206">
<ele>105.756897</ele>
<time>2010-06-20T12:27:30Z</time>
<desc>lat.=56.068810, lon.=26.671206, Alt.=105.756897m. Speed=19.944000m/h.</desc>
<speed>5.540000</speed>
</trkpt>
<trkpt lat="56.068756" lon="26.671227">
<ele>105.846741</ele>
<time>2010-06-20T12:27:31Z</time>
<desc>lat.=56.068756, lon.=26.671227, Alt.=105.846741m. Speed=20.052000m/h.</desc>
<speed>5.570000</speed>
</trkpt>
<trkpt lat="56.068707" lon="26.671251">
<ele>105.700256</ele>
<time>2010-06-20T12:27:32Z</time>
<desc>lat.=56.068707, lon.=26.671251, Alt.=105.700256m. Speed=20.195999m/h.</desc>
<speed>5.610000</speed>
</trkpt>
<trkpt lat="56.068657" lon="26.671278">
<ele>105.592834</ele>
<time>2010-06-20T12:27:33Z</time>
<desc>lat.=56.068657, lon.=26.671278, Alt.=105.592834m. Speed=19.836000m/h.</desc>
<speed>5.510000</speed>
</trkpt>
<trkpt lat="56.068607" lon="26.671305">
<ele>105.516663</ele>
<time>2010-06-20T12:27:34Z</time>
<desc>lat.=56.068607, lon.=26.671305, Alt.=105.516663m. Speed=19.764000m/h.</desc>
<speed>5.490000</speed>
</trkpt>
<trkpt lat="56.068558" lon="26.671328">
<ele>105.143616</ele>
<time>2010-06-20T12:27:35Z</time>
<desc>lat.=56.068558, lon.=26.671328, Alt.=105.143616m. Speed=19.656000m/h.</desc>
<speed>5.460000</speed>
</trkpt>
<trkpt lat="56.068512" lon="26.671349">
<ele>104.842834</ele>
<time>2010-06-20T12:27:36Z</time>
<desc>lat.=56.068512, lon.=26.671349, Alt.=104.842834m. Speed=19.511999m/h.</desc>
<speed>5.420000</speed>
</trkpt>
<trkpt lat="56.068466" lon="26.671373">
<ele>104.573303</ele>
<time>2010-06-20T12:27:37Z</time>
<desc>lat.=56.068466, lon.=26.671373, Alt.=104.573303m. Speed=20.412001m/h.</desc>
<speed>5.670000</speed>
</trkpt>
<trkpt lat="56.068409" lon="26.671392">
<ele>104.395569</ele>
<time>2010-06-20T12:27:38Z</time>
<desc>lat.=56.068409, lon.=26.671392, Alt.=104.395569m. Speed=20.700001m/h.</desc>
<speed>5.750000</speed>
</trkpt>
<trkpt lat="56.068359" lon="26.671412">
<ele>104.229553</ele>
<time>2010-06-20T12:27:39Z</time>
<desc>lat.=56.068359, lon.=26.671412, Alt.=104.229553m. Speed=21.059999m/h.</desc>
<speed>5.850000</speed>
</trkpt>
<trkpt lat="56.068310" lon="26.671427">
<ele>104.073303</ele>
<time>2010-06-20T12:27:40Z</time>
<desc>lat.=56.068310, lon.=26.671427, Alt.=104.073303m. Speed=19.980000m/h.</desc>
<speed>5.550000</speed>
</trkpt>
<trkpt lat="56.068260" lon="26.671438">
<ele>103.792053</ele>
<time>2010-06-20T12:27:41Z</time>
<desc>lat.=56.068260, lon.=26.671438, Alt.=103.792053m. Speed=20.412001m/h.</desc>
<speed>5.670000</speed>
</trkpt>
<trkpt lat="56.068211" lon="26.671453">
<ele>103.352600</ele>
<time>2010-06-20T12:27:42Z</time>
<desc>lat.=56.068211, lon.=26.671453, Alt.=103.352600m. Speed=20.268000m/h.</desc>
<speed>5.630000</speed>
</trkpt>
<trkpt lat="56.068161" lon="26.671467">
<ele>103.030334</ele>
<time>2010-06-20T12:27:43Z</time>
<desc>lat.=56.068161, lon.=26.671467, Alt.=103.030334m. Speed=20.988001m/h.</desc>
<speed>5.830000</speed>
</trkpt>
<trkpt lat="56.068111" lon="26.671476">
<ele>102.850647</ele>
<time>2010-06-20T12:27:44Z</time>
<desc>lat.=56.068111, lon.=26.671476, Alt.=102.850647m. Speed=21.600000m/h.</desc>
<speed>6.000000</speed>
</trkpt>
<trkpt lat="56.068066" lon="26.671486">
<ele>102.907288</ele>
<time>2010-06-20T12:27:45Z</time>
<desc>lat.=56.068066, lon.=26.671486, Alt.=102.907288m. Speed=22.104000m/h.</desc>
<speed>6.140000</speed>
</trkpt>
<trkpt lat="56.068012" lon="26.671490">
<ele>103.075256</ele>
<time>2010-06-20T12:27:46Z</time>
<desc>lat.=56.068012, lon.=26.671490, Alt.=103.075256m. Speed=22.464001m/h.</desc>
<speed>6.240000</speed>
</trkpt>
<trkpt lat="56.067959" lon="26.671495">
<ele>103.110413</ele>
<time>2010-06-20T12:27:47Z</time>
<desc>lat.=56.067959, lon.=26.671495, Alt.=103.110413m. Speed=22.139999m/h.</desc>
<speed>6.150000</speed>
</trkpt>
<trkpt lat="56.067909" lon="26.671501">
<ele>103.202209</ele>
<time>2010-06-20T12:27:48Z</time>
<desc>lat.=56.067909, lon.=26.671501, Alt.=103.202209m. Speed=21.240000m/h.</desc>
<speed>5.900000</speed>
</trkpt>
<trkpt lat="56.067856" lon="26.671503">
<ele>103.331116</ele>
<time>2010-06-20T12:27:49Z</time>
<desc>lat.=56.067856, lon.=26.671503, Alt.=103.331116m. Speed=20.520000m/h.</desc>
<speed>5.700000</speed>
</trkpt>
<trkpt lat="56.067806" lon="26.671501">
<ele>103.366272</ele>
<time>2010-06-20T12:27:50Z</time>
<desc>lat.=56.067806, lon.=26.671501, Alt.=103.366272m. Speed=21.024000m/h.</desc>
<speed>5.840000</speed>
</trkpt>
<trkpt lat="56.067753" lon="26.671497">
<ele>103.549866</ele>
<time>2010-06-20T12:27:51Z</time>
<desc>lat.=56.067753, lon.=26.671497, Alt.=103.549866m. Speed=21.636000m/h.</desc>
<speed>6.010000</speed>
</trkpt>
<trkpt lat="56.067699" lon="26.671497">
<ele>103.571350</ele>
<time>2010-06-20T12:27:52Z</time>
<desc>lat.=56.067699, lon.=26.671497, Alt.=103.571350m. Speed=22.068001m/h.</desc>
<speed>6.130000</speed>
</trkpt>
<trkpt lat="56.067646" lon="26.671495">
<ele>103.356506</ele>
<time>2010-06-20T12:27:53Z</time>
<desc>lat.=56.067646, lon.=26.671495, Alt.=103.356506m. Speed=22.500000m/h.</desc>
<speed>6.250000</speed>
</trkpt>
<trkpt lat="56.067589" lon="26.671492">
<ele>103.233459</ele>
<time>2010-06-20T12:27:54Z</time>
<desc>lat.=56.067589, lon.=26.671492, Alt.=103.233459m. Speed=22.931999m/h.</desc>
<speed>6.370000</speed>
</trkpt>
<trkpt lat="56.067535" lon="26.671488">
<ele>103.208069</ele>
<time>2010-06-20T12:27:55Z</time>
<desc>lat.=56.067535, lon.=26.671488, Alt.=103.208069m. Speed=23.219999m/h.</desc>
<speed>6.450000</speed>
</trkpt>
<trkpt lat="56.067474" lon="26.671478">
<ele>103.303772</ele>
<time>2010-06-20T12:27:56Z</time>
<desc>lat.=56.067474, lon.=26.671478, Alt.=103.303772m. Speed=24.228001m/h.</desc>
<speed>6.730000</speed>
</trkpt>
<trkpt lat="56.067410" lon="26.671463">
<ele>103.272522</ele>
<time>2010-06-20T12:27:57Z</time>
<desc>lat.=56.067410, lon.=26.671463, Alt.=103.272522m. Speed=24.516001m/h.</desc>
<speed>6.810000</speed>
</trkpt>
<trkpt lat="56.067348" lon="26.671448">
<ele>103.434631</ele>
<time>2010-06-20T12:27:58Z</time>
<desc>lat.=56.067348, lon.=26.671448, Alt.=103.434631m. Speed=24.444000m/h.</desc>
<speed>6.790000</speed>
</trkpt>
<trkpt lat="56.067287" lon="26.671431">
<ele>103.440491</ele>
<time>2010-06-20T12:27:59Z</time>
<desc>lat.=56.067287, lon.=26.671431, Alt.=103.440491m. Speed=23.580000m/h.</desc>
<speed>6.550000</speed>
</trkpt>
<trkpt lat="56.067226" lon="26.671415">
<ele>103.407288</ele>
<time>2010-06-20T12:28:00Z</time>
<desc>lat.=56.067226, lon.=26.671415, Alt.=103.407288m. Speed=22.860001m/h.</desc>
<speed>6.350000</speed>
</trkpt>
<trkpt lat="56.067169" lon="26.671400">
<ele>103.372131</ele>
<time>2010-06-20T12:28:01Z</time>
<desc>lat.=56.067169, lon.=26.671400, Alt.=103.372131m. Speed=22.572001m/h.</desc>
<speed>6.270000</speed>
</trkpt>
<trkpt lat="56.067116" lon="26.671383">
<ele>103.270569</ele>
<time>2010-06-20T12:28:02Z</time>
<desc>lat.=56.067116, lon.=26.671383, Alt.=103.270569m. Speed=22.427999m/h.</desc>
<speed>6.230000</speed>
</trkpt>
<trkpt lat="56.067059" lon="26.671368">
<ele>103.217834</ele>
<time>2010-06-20T12:28:03Z</time>
<desc>lat.=56.067059, lon.=26.671368, Alt.=103.217834m. Speed=22.247999m/h.</desc>
<speed>6.180000</speed>
</trkpt>
<trkpt lat="56.067005" lon="26.671354">
<ele>103.135803</ele>
<time>2010-06-20T12:28:04Z</time>
<desc>lat.=56.067005, lon.=26.671354, Alt.=103.135803m. Speed=22.104000m/h.</desc>
<speed>6.140000</speed>
</trkpt>
<trkpt lat="56.066952" lon="26.671341">
<ele>103.090881</ele>
<time>2010-06-20T12:28:05Z</time>
<desc>lat.=56.066952, lon.=26.671341, Alt.=103.090881m. Speed=21.851999m/h.</desc>
<speed>6.070000</speed>
</trkpt>
<trkpt lat="56.066898" lon="26.671322">
<ele>102.934631</ele>
<time>2010-06-20T12:28:06Z</time>
<desc>lat.=56.066898, lon.=26.671322, Alt.=102.934631m. Speed=21.528000m/h.</desc>
<speed>5.980000</speed>
</trkpt>
<trkpt lat="56.066845" lon="26.671307">
<ele>102.983459</ele>
<time>2010-06-20T12:28:07Z</time>
<desc>lat.=56.066845, lon.=26.671307, Alt.=102.983459m. Speed=21.204000m/h.</desc>
<speed>5.890000</speed>
</trkpt>
<trkpt lat="56.066792" lon="26.671289">
<ele>102.829163</ele>
<time>2010-06-20T12:28:08Z</time>
<desc>lat.=56.066792, lon.=26.671289, Alt.=102.829163m. Speed=21.059999m/h.</desc>
<speed>5.850000</speed>
</trkpt>
<trkpt lat="56.066742" lon="26.671274">
<ele>102.711975</ele>
<time>2010-06-20T12:28:09Z</time>
<desc>lat.=56.066742, lon.=26.671274, Alt.=102.711975m. Speed=20.808001m/h.</desc>
<speed>5.780000</speed>
</trkpt>
<trkpt lat="56.066692" lon="26.671257">
<ele>102.667053</ele>
<time>2010-06-20T12:28:10Z</time>
<desc>lat.=56.066692, lon.=26.671257, Alt.=102.667053m. Speed=20.412001m/h.</desc>
<speed>5.670000</speed>
</trkpt>
<trkpt lat="56.066647" lon="26.671236">
<ele>102.711975</ele>
<time>2010-06-20T12:28:11Z</time>
<desc>lat.=56.066647, lon.=26.671236, Alt.=102.711975m. Speed=19.799999m/h.</desc>
<speed>5.500000</speed>
</trkpt>
<trkpt lat="56.066597" lon="26.671219">
<ele>102.461975</ele>
<time>2010-06-20T12:28:12Z</time>
<desc>lat.=56.066597, lon.=26.671219, Alt.=102.461975m. Speed=20.124001m/h.</desc>
<speed>5.590000</speed>
</trkpt>
<trkpt lat="56.066551" lon="26.671200">
<ele>102.374084</ele>
<time>2010-06-20T12:28:13Z</time>
<desc>lat.=56.066551, lon.=26.671200, Alt.=102.374084m. Speed=18.684000m/h.</desc>
<speed>5.190000</speed>
</trkpt>
<trkpt lat="56.066509" lon="26.671181">
<ele>102.272522</ele>
<time>2010-06-20T12:28:14Z</time>
<desc>lat.=56.066509, lon.=26.671181, Alt.=102.272522m. Speed=17.496000m/h.</desc>
<speed>4.860000</speed>
</trkpt>
<trkpt lat="56.066467" lon="26.671162">
<ele>102.233459</ele>
<time>2010-06-20T12:28:15Z</time>
<desc>lat.=56.066467, lon.=26.671162, Alt.=102.233459m. Speed=18.468000m/h.</desc>
<speed>5.130000</speed>
</trkpt>
<trkpt lat="56.066425" lon="26.671143">
<ele>102.522522</ele>
<time>2010-06-20T12:28:16Z</time>
<desc>lat.=56.066425, lon.=26.671143, Alt.=102.522522m. Speed=16.740000m/h.</desc>
<speed>4.650000</speed>
</trkpt>
<trkpt lat="56.066383" lon="26.671122">
<ele>102.588928</ele>
<time>2010-06-20T12:28:17Z</time>
<desc>lat.=56.066383, lon.=26.671122, Alt.=102.588928m. Speed=18.431999m/h.</desc>
<speed>5.120000</speed>
</trkpt>
<trkpt lat="56.066341" lon="26.671099">
<ele>102.989319</ele>
<time>2010-06-20T12:28:18Z</time>
<desc>lat.=56.066341, lon.=26.671099, Alt.=102.989319m. Speed=18.792000m/h.</desc>
<speed>5.220000</speed>
</trkpt>
<trkpt lat="56.066296" lon="26.671078">
<ele>103.274475</ele>
<time>2010-06-20T12:28:19Z</time>
<desc>lat.=56.066296, lon.=26.671078, Alt.=103.274475m. Speed=19.188000m/h.</desc>
<speed>5.330000</speed>
</trkpt>
<trkpt lat="56.066250" lon="26.671055">
<ele>103.495178</ele>
<time>2010-06-20T12:28:20Z</time>
<desc>lat.=56.066250, lon.=26.671055, Alt.=103.495178m. Speed=19.152000m/h.</desc>
<speed>5.320000</speed>
</trkpt>
<trkpt lat="56.066204" lon="26.671026">
<ele>103.393616</ele>
<time>2010-06-20T12:28:21Z</time>
<desc>lat.=56.066204, lon.=26.671026, Alt.=103.393616m. Speed=19.548000m/h.</desc>
<speed>5.430000</speed>
</trkpt>
<trkpt lat="56.066162" lon="26.671005">
<ele>103.635803</ele>
<time>2010-06-20T12:28:22Z</time>
<desc>lat.=56.066162, lon.=26.671005, Alt.=103.635803m. Speed=19.188000m/h.</desc>
<speed>5.330000</speed>
</trkpt>
<trkpt lat="56.066113" lon="26.670980">
<ele>103.876038</ele>
<time>2010-06-20T12:28:23Z</time>
<desc>lat.=56.066113, lon.=26.670980, Alt.=103.876038m. Speed=19.691999m/h.</desc>
<speed>5.470000</speed>
</trkpt>
<trkpt lat="56.066067" lon="26.670946">
<ele>103.870178</ele>
<time>2010-06-20T12:28:24Z</time>
<desc>lat.=56.066067, lon.=26.670946, Alt.=103.870178m. Speed=20.016001m/h.</desc>
<speed>5.560000</speed>
</trkpt>
<trkpt lat="56.066017" lon="26.670912">
<ele>104.161194</ele>
<time>2010-06-20T12:28:25Z</time>
<desc>lat.=56.066017, lon.=26.670912, Alt.=104.161194m. Speed=19.872000m/h.</desc>
<speed>5.520000</speed>
</trkpt>
<trkpt lat="56.065971" lon="26.670881">
<ele>104.448303</ele>
<time>2010-06-20T12:28:26Z</time>
<desc>lat.=56.065971, lon.=26.670881, Alt.=104.448303m. Speed=17.459999m/h.</desc>
<speed>4.850000</speed>
</trkpt>
<trkpt lat="56.065926" lon="26.670856">
<ele>104.735413</ele>
<time>2010-06-20T12:28:27Z</time>
<desc>lat.=56.065926, lon.=26.670856, Alt.=104.735413m. Speed=19.080000m/h.</desc>
<speed>5.300000</speed>
</trkpt>
<trkpt lat="56.065880" lon="26.670826">
<ele>105.192444</ele>
<time>2010-06-20T12:28:28Z</time>
<desc>lat.=56.065880, lon.=26.670826, Alt.=105.192444m. Speed=18.648001m/h.</desc>
<speed>5.180000</speed>
</trkpt>
<trkpt lat="56.065834" lon="26.670795">
<ele>105.637756</ele>
<time>2010-06-20T12:28:29Z</time>
<desc>lat.=56.065834, lon.=26.670795, Alt.=105.637756m. Speed=17.820000m/h.</desc>
<speed>4.950000</speed>
</trkpt>
<trkpt lat="56.065792" lon="26.670769">
<ele>105.985413</ele>
<time>2010-06-20T12:28:30Z</time>
<desc>lat.=56.065792, lon.=26.670769, Alt.=105.985413m. Speed=17.639999m/h.</desc>
<speed>4.900000</speed>
</trkpt>
<trkpt lat="56.065750" lon="26.670740">
<ele>106.286194</ele>
<time>2010-06-20T12:28:31Z</time>
<desc>lat.=56.065750, lon.=26.670740, Alt.=106.286194m. Speed=18.360001m/h.</desc>
<speed>5.100000</speed>
</trkpt>
<trkpt lat="56.065704" lon="26.670713">
<ele>106.481506</ele>
<time>2010-06-20T12:28:32Z</time>
<desc>lat.=56.065704, lon.=26.670713, Alt.=106.481506m. Speed=19.260000m/h.</desc>
<speed>5.350000</speed>
</trkpt>
<trkpt lat="56.065659" lon="26.670689">
<ele>106.631897</ele>
<time>2010-06-20T12:28:33Z</time>
<desc>lat.=56.065659, lon.=26.670689, Alt.=106.631897m. Speed=19.368000m/h.</desc>
<speed>5.380000</speed>
</trkpt>
<trkpt lat="56.065613" lon="26.670662">
<ele>106.700256</ele>
<time>2010-06-20T12:28:34Z</time>
<desc>lat.=56.065613, lon.=26.670662, Alt.=106.700256m. Speed=20.412001m/h.</desc>
<speed>5.670000</speed>
</trkpt>
<trkpt lat="56.065563" lon="26.670628">
<ele>106.852600</ele>
<time>2010-06-20T12:28:35Z</time>
<desc>lat.=56.065563, lon.=26.670628, Alt.=106.852600m. Speed=20.340000m/h.</desc>
<speed>5.650000</speed>
</trkpt>
<trkpt lat="56.065517" lon="26.670595">
<ele>107.079163</ele>
<time>2010-06-20T12:28:36Z</time>
<desc>lat.=56.065517, lon.=26.670595, Alt.=107.079163m. Speed=19.620001m/h.</desc>
<speed>5.450000</speed>
</trkpt>
<trkpt lat="56.065472" lon="26.670570">
<ele>107.065491</ele>
<time>2010-06-20T12:28:37Z</time>
<desc>lat.=56.065472, lon.=26.670570, Alt.=107.065491m. Speed=19.188000m/h.</desc>
<speed>5.330000</speed>
</trkpt>
<trkpt lat="56.065426" lon="26.670540">
<ele>107.319397</ele>
<time>2010-06-20T12:28:38Z</time>
<desc>lat.=56.065426, lon.=26.670540, Alt.=107.319397m. Speed=20.016001m/h.</desc>
<speed>5.560000</speed>
</trkpt>
<trkpt lat="56.065376" lon="26.670511">
<ele>107.479553</ele>
<time>2010-06-20T12:28:39Z</time>
<desc>lat.=56.065376, lon.=26.670511, Alt.=107.479553m. Speed=19.080000m/h.</desc>
<speed>5.300000</speed>
</trkpt>
<trkpt lat="56.065334" lon="26.670481">
<ele>107.731506</ele>
<time>2010-06-20T12:28:40Z</time>
<desc>lat.=56.065334, lon.=26.670481, Alt.=107.731506m. Speed=18.252001m/h.</desc>
<speed>5.070000</speed>
</trkpt>
<trkpt lat="56.065289" lon="26.670450">
<ele>107.756897</ele>
<time>2010-06-20T12:28:41Z</time>
<desc>lat.=56.065289, lon.=26.670450, Alt.=107.756897m. Speed=17.388000m/h.</desc>
<speed>4.830000</speed>
</trkpt>
<trkpt lat="56.065250" lon="26.670425">
<ele>107.567444</ele>
<time>2010-06-20T12:28:42Z</time>
<desc>lat.=56.065250, lon.=26.670425, Alt.=107.567444m. Speed=18.468000m/h.</desc>
<speed>5.130000</speed>
</trkpt>
<trkpt lat="56.065208" lon="26.670393">
<ele>107.264709</ele>
<time>2010-06-20T12:28:43Z</time>
<desc>lat.=56.065208, lon.=26.670393, Alt.=107.264709m. Speed=18.792000m/h.</desc>
<speed>5.220000</speed>
</trkpt>
<trkpt lat="56.065166" lon="26.670361">
<ele>107.114319</ele>
<time>2010-06-20T12:28:44Z</time>
<desc>lat.=56.065166, lon.=26.670361, Alt.=107.114319m. Speed=19.224001m/h.</desc>
<speed>5.340000</speed>
</trkpt>
<trkpt lat="56.065121" lon="26.670330">
<ele>107.305725</ele>
<time>2010-06-20T12:28:45Z</time>
<desc>lat.=56.065121, lon.=26.670330, Alt.=107.305725m. Speed=19.656000m/h.</desc>
<speed>5.460000</speed>
</trkpt>
<trkpt lat="56.065075" lon="26.670296">
<ele>107.335022</ele>
<time>2010-06-20T12:28:46Z</time>
<desc>lat.=56.065075, lon.=26.670296, Alt.=107.335022m. Speed=20.124001m/h.</desc>
<speed>5.590000</speed>
</trkpt>
<trkpt lat="56.065025" lon="26.670256">
<ele>107.295959</ele>
<time>2010-06-20T12:28:47Z</time>
<desc>lat.=56.065025, lon.=26.670256, Alt.=107.295959m. Speed=21.636000m/h.</desc>
<speed>6.010000</speed>
</trkpt>
<trkpt lat="56.064976" lon="26.670218">
<ele>107.288147</ele>
<time>2010-06-20T12:28:48Z</time>
<desc>lat.=56.064976, lon.=26.670218, Alt.=107.288147m. Speed=22.320000m/h.</desc>
<speed>6.200000</speed>
</trkpt>
<trkpt lat="56.064926" lon="26.670181">
<ele>107.165100</ele>
<time>2010-06-20T12:28:49Z</time>
<desc>lat.=56.064926, lon.=26.670181, Alt.=107.165100m. Speed=21.743999m/h.</desc>
<speed>6.040000</speed>
</trkpt>
<trkpt lat="56.064877" lon="26.670147">
<ele>106.983459</ele>
<time>2010-06-20T12:28:50Z</time>
<desc>lat.=56.064877, lon.=26.670147, Alt.=106.983459m. Speed=21.384001m/h.</desc>
<speed>5.940000</speed>
</trkpt>
<trkpt lat="56.064831" lon="26.670107">
<ele>106.848694</ele>
<time>2010-06-20T12:28:51Z</time>
<desc>lat.=56.064831, lon.=26.670107, Alt.=106.848694m. Speed=21.167999m/h.</desc>
<speed>5.880000</speed>
</trkpt>
<trkpt lat="56.064785" lon="26.670071">
<ele>106.749084</ele>
<time>2010-06-20T12:28:52Z</time>
<desc>lat.=56.064785, lon.=26.670071, Alt.=106.749084m. Speed=20.700001m/h.</desc>
<speed>5.750000</speed>
</trkpt>
<trkpt lat="56.064739" lon="26.670033">
<ele>106.602600</ele>
<time>2010-06-20T12:28:53Z</time>
<desc>lat.=56.064739, lon.=26.670033, Alt.=106.602600m. Speed=20.375999m/h.</desc>
<speed>5.660000</speed>
</trkpt>
<trkpt lat="56.064693" lon="26.669991">
<ele>106.379944</ele>
<time>2010-06-20T12:28:54Z</time>
<desc>lat.=56.064693, lon.=26.669991, Alt.=106.379944m. Speed=19.944000m/h.</desc>
<speed>5.540000</speed>
</trkpt>
<trkpt lat="56.064651" lon="26.669950">
<ele>106.174866</ele>
<time>2010-06-20T12:28:55Z</time>
<desc>lat.=56.064651, lon.=26.669950, Alt.=106.174866m. Speed=19.188000m/h.</desc>
<speed>5.330000</speed>
</trkpt>
<trkpt lat="56.064610" lon="26.669916">
<ele>105.903381</ele>
<time>2010-06-20T12:28:56Z</time>
<desc>lat.=56.064610, lon.=26.669916, Alt.=105.903381m. Speed=19.476000m/h.</desc>
<speed>5.410000</speed>
</trkpt>
<trkpt lat="56.064564" lon="26.669882">
<ele>105.713928</ele>
<time>2010-06-20T12:28:57Z</time>
<desc>lat.=56.064564, lon.=26.669882, Alt.=105.713928m. Speed=20.052000m/h.</desc>
<speed>5.570000</speed>
</trkpt>
<trkpt lat="56.064514" lon="26.669844">
<ele>105.739319</ele>
<time>2010-06-20T12:28:58Z</time>
<desc>lat.=56.064514, lon.=26.669844, Alt.=105.739319m. Speed=21.492001m/h.</desc>
<speed>5.970000</speed>
</trkpt>
<trkpt lat="56.064465" lon="26.669798">
<ele>105.758850</ele>
<time>2010-06-20T12:28:59Z</time>
<desc>lat.=56.064465, lon.=26.669798, Alt.=105.758850m. Speed=22.643999m/h.</desc>
<speed>6.290000</speed>
</trkpt>
<trkpt lat="56.064415" lon="26.669750">
<ele>105.698303</ele>
<time>2010-06-20T12:29:00Z</time>
<desc>lat.=56.064415, lon.=26.669750, Alt.=105.698303m. Speed=22.247999m/h.</desc>
<speed>6.180000</speed>
</trkpt>
<trkpt lat="56.064369" lon="26.669699">
<ele>105.864319</ele>
<time>2010-06-20T12:29:01Z</time>
<desc>lat.=56.064369, lon.=26.669699, Alt.=105.864319m. Speed=20.879999m/h.</desc>
<speed>5.800000</speed>
</trkpt>
<trkpt lat="56.064323" lon="26.669659">
<ele>105.967834</ele>
<time>2010-06-20T12:29:02Z</time>
<desc>lat.=56.064323, lon.=26.669659, Alt.=105.967834m. Speed=20.916000m/h.</desc>
<speed>5.810000</speed>
</trkpt>
<trkpt lat="56.064278" lon="26.669621">
<ele>106.206116</ele>
<time>2010-06-20T12:29:03Z</time>
<desc>lat.=56.064278, lon.=26.669621, Alt.=106.206116m. Speed=20.268000m/h.</desc>
<speed>5.630000</speed>
</trkpt>
<trkpt lat="56.064232" lon="26.669580">
<ele>106.141663</ele>
<time>2010-06-20T12:29:04Z</time>
<desc>lat.=56.064232, lon.=26.669580, Alt.=106.141663m. Speed=19.115999m/h.</desc>
<speed>5.310000</speed>
</trkpt>
<trkpt lat="56.064190" lon="26.669538">
<ele>106.053772</ele>
<time>2010-06-20T12:29:05Z</time>
<desc>lat.=56.064190, lon.=26.669538, Alt.=106.053772m. Speed=20.016001m/h.</desc>
<speed>5.560000</speed>
</trkpt>
<trkpt lat="56.064148" lon="26.669491">
<ele>105.999084</ele>
<time>2010-06-20T12:29:06Z</time>
<desc>lat.=56.064148, lon.=26.669491, Alt.=105.999084m. Speed=20.664000m/h.</desc>
<speed>5.740000</speed>
</trkpt>
<trkpt lat="56.064098" lon="26.669445">
<ele>105.981506</ele>
<time>2010-06-20T12:29:07Z</time>
<desc>lat.=56.064098, lon.=26.669445, Alt.=105.981506m. Speed=21.888000m/h.</desc>
<speed>6.080000</speed>
</trkpt>
<trkpt lat="56.064053" lon="26.669401">
<ele>105.766663</ele>
<time>2010-06-20T12:29:08Z</time>
<desc>lat.=56.064053, lon.=26.669401, Alt.=105.766663m. Speed=21.275999m/h.</desc>
<speed>5.910000</speed>
</trkpt>
<trkpt lat="56.064003" lon="26.669350">
<ele>105.577209</ele>
<time>2010-06-20T12:29:09Z</time>
<desc>lat.=56.064003, lon.=26.669350, Alt.=105.577209m. Speed=22.139999m/h.</desc>
<speed>6.150000</speed>
</trkpt>
<trkpt lat="56.063953" lon="26.669304">
<ele>105.469788</ele>
<time>2010-06-20T12:29:10Z</time>
<desc>lat.=56.063953, lon.=26.669304, Alt.=105.469788m. Speed=21.959999m/h.</desc>
<speed>6.100000</speed>
</trkpt>
<trkpt lat="56.063904" lon="26.669262">
<ele>105.391663</ele>
<time>2010-06-20T12:29:11Z</time>
<desc>lat.=56.063904, lon.=26.669262, Alt.=105.391663m. Speed=22.212000m/h.</desc>
<speed>6.170000</speed>
</trkpt>
<trkpt lat="56.063854" lon="26.669216">
<ele>105.467834</ele>
<time>2010-06-20T12:29:12Z</time>
<desc>lat.=56.063854, lon.=26.669216, Alt.=105.467834m. Speed=22.572001m/h.</desc>
<speed>6.270000</speed>
</trkpt>
<trkpt lat="56.063805" lon="26.669170">
<ele>105.442444</ele>
<time>2010-06-20T12:29:13Z</time>
<desc>lat.=56.063805, lon.=26.669170, Alt.=105.442444m. Speed=23.724001m/h.</desc>
<speed>6.590000</speed>
</trkpt>
<trkpt lat="56.063751" lon="26.669117">
<ele>105.417053</ele>
<time>2010-06-20T12:29:14Z</time>
<desc>lat.=56.063751, lon.=26.669117, Alt.=105.417053m. Speed=23.903999m/h.</desc>
<speed>6.640000</speed>
</trkpt>
<trkpt lat="56.063694" lon="26.669067">
<ele>105.346741</ele>
<time>2010-06-20T12:29:15Z</time>
<desc>lat.=56.063694, lon.=26.669067, Alt.=105.346741m. Speed=24.587999m/h.</desc>
<speed>6.830000</speed>
</trkpt>
<trkpt lat="56.063633" lon="26.669010">
<ele>105.208069</ele>
<time>2010-06-20T12:29:16Z</time>
<desc>lat.=56.063633, lon.=26.669010, Alt.=105.208069m. Speed=25.524000m/h.</desc>
<speed>7.090000</speed>
</trkpt>
<trkpt lat="56.063576" lon="26.668957">
<ele>105.075256</ele>
<time>2010-06-20T12:29:17Z</time>
<desc>lat.=56.063576, lon.=26.668957, Alt.=105.075256m. Speed=26.136000m/h.</desc>
<speed>7.260000</speed>
</trkpt>
<trkpt lat="56.063519" lon="26.668901">
<ele>105.040100</ele>
<time>2010-06-20T12:29:18Z</time>
<desc>lat.=56.063519, lon.=26.668901, Alt.=105.040100m. Speed=25.992001m/h.</desc>
<speed>7.220000</speed>
</trkpt>
<trkpt lat="56.063461" lon="26.668844">
<ele>105.012756</ele>
<time>2010-06-20T12:29:19Z</time>
<desc>lat.=56.063461, lon.=26.668844, Alt.=105.012756m. Speed=25.632000m/h.</desc>
<speed>7.120000</speed>
</trkpt>
<trkpt lat="56.063408" lon="26.668793">
<ele>104.989319</ele>
<time>2010-06-20T12:29:20Z</time>
<desc>lat.=56.063408, lon.=26.668793, Alt.=104.989319m. Speed=24.875999m/h.</desc>
<speed>6.910000</speed>
</trkpt>
<trkpt lat="56.063354" lon="26.668739">
<ele>104.901428</ele>
<time>2010-06-20T12:29:21Z</time>
<desc>lat.=56.063354, lon.=26.668739, Alt.=104.901428m. Speed=24.120001m/h.</desc>
<speed>6.700000</speed>
</trkpt>
<trkpt lat="56.063301" lon="26.668690">
<ele>104.887756</ele>
<time>2010-06-20T12:29:22Z</time>
<desc>lat.=56.063301, lon.=26.668690, Alt.=104.887756m. Speed=23.256001m/h.</desc>
<speed>6.460000</speed>
</trkpt>
<trkpt lat="56.063251" lon="26.668644">
<ele>104.987366</ele>
<time>2010-06-20T12:29:23Z</time>
<desc>lat.=56.063251, lon.=26.668644, Alt.=104.987366m. Speed=23.580000m/h.</desc>
<speed>6.550000</speed>
</trkpt>
<trkpt lat="56.063198" lon="26.668596">
<ele>105.114319</ele>
<time>2010-06-20T12:29:24Z</time>
<desc>lat.=56.063198, lon.=26.668596, Alt.=105.114319m. Speed=24.084000m/h.</desc>
<speed>6.690000</speed>
</trkpt>
<trkpt lat="56.063145" lon="26.668549">
<ele>105.239319</ele>
<time>2010-06-20T12:29:25Z</time>
<desc>lat.=56.063145, lon.=26.668549, Alt.=105.239319m. Speed=24.120001m/h.</desc>
<speed>6.700000</speed>
</trkpt>
<trkpt lat="56.063091" lon="26.668503">
<ele>105.196350</ele>
<time>2010-06-20T12:29:26Z</time>
<desc>lat.=56.063091, lon.=26.668503, Alt.=105.196350m. Speed=23.364000m/h.</desc>
<speed>6.490000</speed>
</trkpt>
<trkpt lat="56.063038" lon="26.668459">
<ele>105.096741</ele>
<time>2010-06-20T12:29:27Z</time>
<desc>lat.=56.063038, lon.=26.668459, Alt.=105.096741m. Speed=22.572001m/h.</desc>
<speed>6.270000</speed>
</trkpt>
<trkpt lat="56.062988" lon="26.668419">
<ele>105.129944</ele>
<time>2010-06-20T12:29:28Z</time>
<desc>lat.=56.062988, lon.=26.668419, Alt.=105.129944m. Speed=21.743999m/h.</desc>
<speed>6.040000</speed>
</trkpt>
<trkpt lat="56.062943" lon="26.668377">
<ele>105.231506</ele>
<time>2010-06-20T12:29:29Z</time>
<desc>lat.=56.062943, lon.=26.668377, Alt.=105.231506m. Speed=21.204000m/h.</desc>
<speed>5.890000</speed>
</trkpt>
<trkpt lat="56.062893" lon="26.668343">
<ele>105.268616</ele>
<time>2010-06-20T12:29:30Z</time>
<desc>lat.=56.062893, lon.=26.668343, Alt.=105.268616m. Speed=21.096001m/h.</desc>
<speed>5.860000</speed>
</trkpt>
<trkpt lat="56.062840" lon="26.668316">
<ele>105.395569</ele>
<time>2010-06-20T12:29:31Z</time>
<desc>lat.=56.062840, lon.=26.668316, Alt.=105.395569m. Speed=21.384001m/h.</desc>
<speed>5.940000</speed>
</trkpt>
<trkpt lat="56.062790" lon="26.668295">
<ele>105.508850</ele>
<time>2010-06-20T12:29:32Z</time>
<desc>lat.=56.062790, lon.=26.668295, Alt.=105.508850m. Speed=21.312000m/h.</desc>
<speed>5.920000</speed>
</trkpt>
<trkpt lat="56.062737" lon="26.668272">
<ele>105.688538</ele>
<time>2010-06-20T12:29:33Z</time>
<desc>lat.=56.062737, lon.=26.668272, Alt.=105.688538m. Speed=20.591999m/h.</desc>
<speed>5.720000</speed>
</trkpt>
<trkpt lat="56.062691" lon="26.668257">
<ele>105.690491</ele>
<time>2010-06-20T12:29:34Z</time>
<desc>lat.=56.062691, lon.=26.668257, Alt.=105.690491m. Speed=19.764000m/h.</desc>
<speed>5.490000</speed>
</trkpt>
<trkpt lat="56.062645" lon="26.668247">
<ele>105.612366</ele>
<time>2010-06-20T12:29:35Z</time>
<desc>lat.=56.062645, lon.=26.668247, Alt.=105.612366m. Speed=18.756001m/h.</desc>
<speed>5.210000</speed>
</trkpt>
<trkpt lat="56.062603" lon="26.668240">
<ele>105.723694</ele>
<time>2010-06-20T12:29:36Z</time>
<desc>lat.=56.062603, lon.=26.668240, Alt.=105.723694m. Speed=18.035999m/h.</desc>
<speed>5.010000</speed>
</trkpt>
<trkpt lat="56.062557" lon="26.668228">
<ele>105.661194</ele>
<time>2010-06-20T12:29:37Z</time>
<desc>lat.=56.062557, lon.=26.668228, Alt.=105.661194m. Speed=16.955999m/h.</desc>
<speed>4.710000</speed>
</trkpt>
<trkpt lat="56.062515" lon="26.668222">
<ele>105.475647</ele>
<time>2010-06-20T12:29:38Z</time>
<desc>lat.=56.062515, lon.=26.668222, Alt.=105.475647m. Speed=16.164000m/h.</desc>
<speed>4.490000</speed>
</trkpt>
<trkpt lat="56.062477" lon="26.668219">
<ele>105.383850</ele>
<time>2010-06-20T12:29:39Z</time>
<desc>lat.=56.062477, lon.=26.668219, Alt.=105.383850m. Speed=15.336000m/h.</desc>
<speed>4.260000</speed>
</trkpt>
<trkpt lat="56.062439" lon="26.668219">
<ele>105.442444</ele>
<time>2010-06-20T12:29:40Z</time>
<desc>lat.=56.062439, lon.=26.668219, Alt.=105.442444m. Speed=14.904000m/h.</desc>
<speed>4.140000</speed>
</trkpt>
<trkpt lat="56.062401" lon="26.668219">
<ele>105.510803</ele>
<time>2010-06-20T12:29:41Z</time>
<desc>lat.=56.062401, lon.=26.668219, Alt.=105.510803m. Speed=15.048000m/h.</desc>
<speed>4.180000</speed>
</trkpt>
<trkpt lat="56.062366" lon="26.668222">
<ele>106.018616</ele>
<time>2010-06-20T12:29:42Z</time>
<desc>lat.=56.062366, lon.=26.668222, Alt.=106.018616m. Speed=15.768000m/h.</desc>
<speed>4.380000</speed>
</trkpt>
<trkpt lat="56.062325" lon="26.668217">
<ele>105.981506</ele>
<time>2010-06-20T12:29:43Z</time>
<desc>lat.=56.062325, lon.=26.668217, Alt.=105.981506m. Speed=16.344000m/h.</desc>
<speed>4.540000</speed>
</trkpt>
<trkpt lat="56.062283" lon="26.668211">
<ele>105.524475</ele>
<time>2010-06-20T12:29:44Z</time>
<desc>lat.=56.062283, lon.=26.668211, Alt.=105.524475m. Speed=16.704000m/h.</desc>
<speed>4.640000</speed>
</trkpt>
<trkpt lat="56.062241" lon="26.668203">
<ele>105.479553</ele>
<time>2010-06-20T12:29:45Z</time>
<desc>lat.=56.062241, lon.=26.668203, Alt.=105.479553m. Speed=17.424000m/h.</desc>
<speed>4.840000</speed>
</trkpt>
<trkpt lat="56.062199" lon="26.668200">
<ele>105.395569</ele>
<time>2010-06-20T12:29:46Z</time>
<desc>lat.=56.062199, lon.=26.668200, Alt.=105.395569m. Speed=18.000000m/h.</desc>
<speed>5.000000</speed>
</trkpt>
<trkpt lat="56.062153" lon="26.668196">
<ele>105.249084</ele>
<time>2010-06-20T12:29:47Z</time>
<desc>lat.=56.062153, lon.=26.668196, Alt.=105.249084m. Speed=17.747999m/h.</desc>
<speed>4.930000</speed>
</trkpt>
<trkpt lat="56.062111" lon="26.668196">
<ele>105.180725</ele>
<time>2010-06-20T12:29:48Z</time>
<desc>lat.=56.062111, lon.=26.668196, Alt.=105.180725m. Speed=17.532000m/h.</desc>
<speed>4.870000</speed>
</trkpt>
<trkpt lat="56.062065" lon="26.668190">
<ele>105.040100</ele>
<time>2010-06-20T12:29:49Z</time>
<desc>lat.=56.062065, lon.=26.668190, Alt.=105.040100m. Speed=17.136000m/h.</desc>
<speed>4.760000</speed>
</trkpt>
<trkpt lat="56.062019" lon="26.668184">
<ele>105.059631</ele>
<time>2010-06-20T12:29:50Z</time>
<desc>lat.=56.062019, lon.=26.668184, Alt.=105.059631m. Speed=20.304001m/h.</desc>
<speed>5.640000</speed>
</trkpt>
<trkpt lat="56.061974" lon="26.668177">
<ele>105.096741</ele>
<time>2010-06-20T12:29:51Z</time>
<desc>lat.=56.061974, lon.=26.668177, Alt.=105.096741m. Speed=16.812000m/h.</desc>
<speed>4.670000</speed>
</trkpt>
<trkpt lat="56.061932" lon="26.668171">
<ele>105.137756</ele>
<time>2010-06-20T12:29:52Z</time>
<desc>lat.=56.061932, lon.=26.668171, Alt.=105.137756m. Speed=17.676001m/h.</desc>
<speed>4.910000</speed>
</trkpt>
<trkpt lat="56.061886" lon="26.668165">
<ele>105.075256</ele>
<time>2010-06-20T12:29:53Z</time>
<desc>lat.=56.061886, lon.=26.668165, Alt.=105.075256m. Speed=18.468000m/h.</desc>
<speed>5.130000</speed>
</trkpt>
<trkpt lat="56.061836" lon="26.668158">
<ele>104.899475</ele>
<time>2010-06-20T12:29:54Z</time>
<desc>lat.=56.061836, lon.=26.668158, Alt.=104.899475m. Speed=19.548000m/h.</desc>
<speed>5.430000</speed>
</trkpt>
<trkpt lat="56.061787" lon="26.668150">
<ele>104.807678</ele>
<time>2010-06-20T12:29:55Z</time>
<desc>lat.=56.061787, lon.=26.668150, Alt.=104.807678m. Speed=19.836000m/h.</desc>
<speed>5.510000</speed>
</trkpt>
<trkpt lat="56.061741" lon="26.668139">
<ele>104.813538</ele>
<time>2010-06-20T12:29:56Z</time>
<desc>lat.=56.061741, lon.=26.668139, Alt.=104.813538m. Speed=19.115999m/h.</desc>
<speed>5.310000</speed>
</trkpt>
<trkpt lat="56.061691" lon="26.668133">
<ele>104.618225</ele>
<time>2010-06-20T12:29:57Z</time>
<desc>lat.=56.061691, lon.=26.668133, Alt.=104.618225m. Speed=18.900000m/h.</desc>
<speed>5.250000</speed>
</trkpt>
<trkpt lat="56.061646" lon="26.668127">
<ele>104.528381</ele>
<time>2010-06-20T12:29:58Z</time>
<desc>lat.=56.061646, lon.=26.668127, Alt.=104.528381m. Speed=18.648001m/h.</desc>
<speed>5.180000</speed>
</trkpt>
<trkpt lat="56.061600" lon="26.668119">
<ele>104.362366</ele>
<time>2010-06-20T12:29:59Z</time>
<desc>lat.=56.061600, lon.=26.668119, Alt.=104.362366m. Speed=18.431999m/h.</desc>
<speed>5.120000</speed>
</trkpt>
<trkpt lat="56.061558" lon="26.668110">
<ele>104.225647</ele>
<time>2010-06-20T12:30:00Z</time>
<desc>lat.=56.061558, lon.=26.668110, Alt.=104.225647m. Speed=18.900000m/h.</desc>
<speed>5.250000</speed>
</trkpt>
<trkpt lat="56.061512" lon="26.668093">
<ele>103.981506</ele>
<time>2010-06-20T12:30:01Z</time>
<desc>lat.=56.061512, lon.=26.668093, Alt.=103.981506m. Speed=19.728001m/h.</desc>
<speed>5.480000</speed>
</trkpt>
<trkpt lat="56.061459" lon="26.668077">
<ele>103.645569</ele>
<time>2010-06-20T12:30:02Z</time>
<desc>lat.=56.061459, lon.=26.668077, Alt.=103.645569m. Speed=19.440001m/h.</desc>
<speed>5.400000</speed>
</trkpt>
<trkpt lat="56.061409" lon="26.668072">
<ele>103.272522</ele>
<time>2010-06-20T12:30:03Z</time>
<desc>lat.=56.061409, lon.=26.668072, Alt.=103.272522m. Speed=18.864000m/h.</desc>
<speed>5.240000</speed>
</trkpt>
<trkpt lat="56.061363" lon="26.668062">
<ele>103.674866</ele>
<time>2010-06-20T12:30:04Z</time>
<desc>lat.=56.061363, lon.=26.668062, Alt.=103.674866m. Speed=18.612000m/h.</desc>
<speed>5.170000</speed>
</trkpt>
<trkpt lat="56.061314" lon="26.668058">
<ele>103.825256</ele>
<time>2010-06-20T12:30:05Z</time>
<desc>lat.=56.061314, lon.=26.668058, Alt.=103.825256m. Speed=18.252001m/h.</desc>
<speed>5.070000</speed>
</trkpt>
<trkpt lat="56.061268" lon="26.668051">
<ele>103.708069</ele>
<time>2010-06-20T12:30:06Z</time>
<desc>lat.=56.061268, lon.=26.668051, Alt.=103.708069m. Speed=18.972000m/h.</desc>
<speed>5.270000</speed>
</trkpt>
<trkpt lat="56.061218" lon="26.668041">
<ele>103.440491</ele>
<time>2010-06-20T12:30:07Z</time>
<desc>lat.=56.061218, lon.=26.668041, Alt.=103.440491m. Speed=20.087999m/h.</desc>
<speed>5.580000</speed>
</trkpt>
<trkpt lat="56.061165" lon="26.668030">
<ele>103.409241</ele>
<time>2010-06-20T12:30:08Z</time>
<desc>lat.=56.061165, lon.=26.668030, Alt.=103.409241m. Speed=21.275999m/h.</desc>
<speed>5.910000</speed>
</trkpt>
<trkpt lat="56.061111" lon="26.668016">
<ele>103.268616</ele>
<time>2010-06-20T12:30:09Z</time>
<desc>lat.=56.061111, lon.=26.668016, Alt.=103.268616m. Speed=22.284000m/h.</desc>
<speed>6.190000</speed>
</trkpt>
<trkpt lat="56.061058" lon="26.668003">
<ele>103.067444</ele>
<time>2010-06-20T12:30:10Z</time>
<desc>lat.=56.061058, lon.=26.668003, Alt.=103.067444m. Speed=22.068001m/h.</desc>
<speed>6.130000</speed>
</trkpt>
<trkpt lat="56.061001" lon="26.667990">
<ele>102.627991</ele>
<time>2010-06-20T12:30:11Z</time>
<desc>lat.=56.061001, lon.=26.667990, Alt.=102.627991m. Speed=21.851999m/h.</desc>
<speed>6.070000</speed>
</trkpt>
<trkpt lat="56.060951" lon="26.667978">
<ele>102.487366</ele>
<time>2010-06-20T12:30:12Z</time>
<desc>lat.=56.060951, lon.=26.667978, Alt.=102.487366m. Speed=21.312000m/h.</desc>
<speed>5.920000</speed>
</trkpt>
<trkpt lat="56.060898" lon="26.667971">
<ele>102.286194</ele>
<time>2010-06-20T12:30:13Z</time>
<desc>lat.=56.060898, lon.=26.667971, Alt.=102.286194m. Speed=20.988001m/h.</desc>
<speed>5.830000</speed>
</trkpt>
<trkpt lat="56.060844" lon="26.667961">
<ele>102.088928</ele>
<time>2010-06-20T12:30:14Z</time>
<desc>lat.=56.060844, lon.=26.667961, Alt.=102.088928m. Speed=20.771999m/h.</desc>
<speed>5.770000</speed>
</trkpt>
<trkpt lat="56.060795" lon="26.667950">
<ele>101.862366</ele>
<time>2010-06-20T12:30:15Z</time>
<desc>lat.=56.060795, lon.=26.667950, Alt.=101.862366m. Speed=20.556000m/h.</desc>
<speed>5.710000</speed>
</trkpt>
<trkpt lat="56.060741" lon="26.667938">
<ele>101.715881</ele>
<time>2010-06-20T12:30:16Z</time>
<desc>lat.=56.060741, lon.=26.667938, Alt.=101.715881m. Speed=20.412001m/h.</desc>
<speed>5.670000</speed>
</trkpt>
<trkpt lat="56.060692" lon="26.667923">
<ele>102.319397</ele>
<time>2010-06-20T12:30:17Z</time>
<desc>lat.=56.060692, lon.=26.667923, Alt.=102.319397m. Speed=20.808001m/h.</desc>
<speed>5.780000</speed>
</trkpt>
<trkpt lat="56.060646" lon="26.667915">
<ele>102.463928</ele>
<time>2010-06-20T12:30:18Z</time>
<desc>lat.=56.060646, lon.=26.667915, Alt.=102.463928m. Speed=19.080000m/h.</desc>
<speed>5.300000</speed>
</trkpt>
<trkpt lat="56.060596" lon="26.667906">
<ele>102.336975</ele>
<time>2010-06-20T12:30:19Z</time>
<desc>lat.=56.060596, lon.=26.667906, Alt.=102.336975m. Speed=19.944000m/h.</desc>
<speed>5.540000</speed>
</trkpt>
<trkpt lat="56.060547" lon="26.667889">
<ele>102.116272</ele>
<time>2010-06-20T12:30:20Z</time>
<desc>lat.=56.060547, lon.=26.667889, Alt.=102.116272m. Speed=20.736000m/h.</desc>
<speed>5.760000</speed>
</trkpt>
<trkpt lat="56.060493" lon="26.667868">
<ele>101.963928</ele>
<time>2010-06-20T12:30:21Z</time>
<desc>lat.=56.060493, lon.=26.667868, Alt.=101.963928m. Speed=21.240000m/h.</desc>
<speed>5.900000</speed>
</trkpt>
<trkpt lat="56.060440" lon="26.667843">
<ele>101.877991</ele>
<time>2010-06-20T12:30:22Z</time>
<desc>lat.=56.060440, lon.=26.667843, Alt.=101.877991m. Speed=20.952000m/h.</desc>
<speed>5.820000</speed>
</trkpt>
<trkpt lat="56.060390" lon="26.667818">
<ele>101.702209</ele>
<time>2010-06-20T12:30:23Z</time>
<desc>lat.=56.060390, lon.=26.667818, Alt.=101.702209m. Speed=20.556000m/h.</desc>
<speed>5.710000</speed>
</trkpt>
<trkpt lat="56.060341" lon="26.667801">
<ele>101.540100</ele>
<time>2010-06-20T12:30:24Z</time>
<desc>lat.=56.060341, lon.=26.667801, Alt.=101.540100m. Speed=19.511999m/h.</desc>
<speed>5.420000</speed>
</trkpt>
<trkpt lat="56.060295" lon="26.667788">
<ele>101.749084</ele>
<time>2010-06-20T12:30:25Z</time>
<desc>lat.=56.060295, lon.=26.667788, Alt.=101.749084m. Speed=18.792000m/h.</desc>
<speed>5.220000</speed>
</trkpt>
<trkpt lat="56.060249" lon="26.667770">
<ele>102.473694</ele>
<time>2010-06-20T12:30:26Z</time>
<desc>lat.=56.060249, lon.=26.667770, Alt.=102.473694m. Speed=18.576000m/h.</desc>
<speed>5.160000</speed>
</trkpt>
<trkpt lat="56.060204" lon="26.667751">
<ele>102.594788</ele>
<time>2010-06-20T12:30:27Z</time>
<desc>lat.=56.060204, lon.=26.667751, Alt.=102.594788m. Speed=18.684000m/h.</desc>
<speed>5.190000</speed>
</trkpt>
<trkpt lat="56.060158" lon="26.667730">
<ele>102.680725</ele>
<time>2010-06-20T12:30:28Z</time>
<desc>lat.=56.060158, lon.=26.667730, Alt.=102.680725m. Speed=18.468000m/h.</desc>
<speed>5.130000</speed>
</trkpt>
<trkpt lat="56.060112" lon="26.667707">
<ele>102.659241</ele>
<time>2010-06-20T12:30:29Z</time>
<desc>lat.=56.060112, lon.=26.667707, Alt.=102.659241m. Speed=18.756001m/h.</desc>
<speed>5.210000</speed>
</trkpt>
<trkpt lat="56.060062" lon="26.667692">
<ele>102.674866</ele>
<time>2010-06-20T12:30:30Z</time>
<desc>lat.=56.060062, lon.=26.667692, Alt.=102.674866m. Speed=18.684000m/h.</desc>
<speed>5.190000</speed>
</trkpt>
<trkpt lat="56.060017" lon="26.667675">
<ele>102.635803</ele>
<time>2010-06-20T12:30:31Z</time>
<desc>lat.=56.060017, lon.=26.667675, Alt.=102.635803m. Speed=22.572001m/h.</desc>
<speed>6.270000</speed>
</trkpt>
<trkpt lat="56.059967" lon="26.667654">
<ele>102.553772</ele>
<time>2010-06-20T12:30:32Z</time>
<desc>lat.=56.059967, lon.=26.667654, Alt.=102.553772m. Speed=18.972000m/h.</desc>
<speed>5.270000</speed>
</trkpt>
<trkpt lat="56.059925" lon="26.667645">
<ele>103.776428</ele>
<time>2010-06-20T12:30:33Z</time>
<desc>lat.=56.059925, lon.=26.667645, Alt.=103.776428m. Speed=19.260000m/h.</desc>
<speed>5.350000</speed>
</trkpt>
<trkpt lat="56.059879" lon="26.667629">
<ele>103.694397</ele>
<time>2010-06-20T12:30:34Z</time>
<desc>lat.=56.059879, lon.=26.667629, Alt.=103.694397m. Speed=19.115999m/h.</desc>
<speed>5.310000</speed>
</trkpt>
<trkpt lat="56.059834" lon="26.667614">
<ele>103.811584</ele>
<time>2010-06-20T12:30:35Z</time>
<desc>lat.=56.059834, lon.=26.667614, Alt.=103.811584m. Speed=18.936001m/h.</desc>
<speed>5.260000</speed>
</trkpt>
<trkpt lat="56.059792" lon="26.667595">
<ele>103.940491</ele>
<time>2010-06-20T12:30:36Z</time>
<desc>lat.=56.059792, lon.=26.667595, Alt.=103.940491m. Speed=17.676001m/h.</desc>
<speed>4.910000</speed>
</trkpt>
<trkpt lat="56.059750" lon="26.667578">
<ele>103.958069</ele>
<time>2010-06-20T12:30:37Z</time>
<desc>lat.=56.059750, lon.=26.667578, Alt.=103.958069m. Speed=18.719999m/h.</desc>
<speed>5.200000</speed>
</trkpt>
<trkpt lat="56.059708" lon="26.667566">
<ele>104.159241</ele>
<time>2010-06-20T12:30:38Z</time>
<desc>lat.=56.059708, lon.=26.667566, Alt.=104.159241m. Speed=18.719999m/h.</desc>
<speed>5.200000</speed>
</trkpt>
<trkpt lat="56.059662" lon="26.667549">
<ele>104.178772</ele>
<time>2010-06-20T12:30:39Z</time>
<desc>lat.=56.059662, lon.=26.667549, Alt.=104.178772m. Speed=19.403999m/h.</desc>
<speed>5.390000</speed>
</trkpt>
<trkpt lat="56.059612" lon="26.667526">
<ele>104.055725</ele>
<time>2010-06-20T12:30:40Z</time>
<desc>lat.=56.059612, lon.=26.667526, Alt.=104.055725m. Speed=19.764000m/h.</desc>
<speed>5.490000</speed>
</trkpt>
<trkpt lat="56.059566" lon="26.667505">
<ele>103.922913</ele>
<time>2010-06-20T12:30:41Z</time>
<desc>lat.=56.059566, lon.=26.667505, Alt.=103.922913m. Speed=19.188000m/h.</desc>
<speed>5.330000</speed>
</trkpt>
<trkpt lat="56.059521" lon="26.667490">
<ele>103.735413</ele>
<time>2010-06-20T12:30:42Z</time>
<desc>lat.=56.059521, lon.=26.667490, Alt.=103.735413m. Speed=18.360001m/h.</desc>
<speed>5.100000</speed>
</trkpt>
<trkpt lat="56.059479" lon="26.667473">
<ele>103.989319</ele>
<time>2010-06-20T12:30:43Z</time>
<desc>lat.=56.059479, lon.=26.667473, Alt.=103.989319m. Speed=17.784000m/h.</desc>
<speed>4.940000</speed>
</trkpt>
<trkpt lat="56.059437" lon="26.667456">
<ele>104.268616</ele>
<time>2010-06-20T12:30:44Z</time>
<desc>lat.=56.059437, lon.=26.667456, Alt.=104.268616m. Speed=17.063999m/h.</desc>
<speed>4.740000</speed>
</trkpt>
<trkpt lat="56.059395" lon="26.667440">
<ele>104.299866</ele>
<time>2010-06-20T12:30:45Z</time>
<desc>lat.=56.059395, lon.=26.667440, Alt.=104.299866m. Speed=17.136000m/h.</desc>
<speed>4.760000</speed>
</trkpt>
<trkpt lat="56.059353" lon="26.667423">
<ele>104.333069</ele>
<time>2010-06-20T12:30:46Z</time>
<desc>lat.=56.059353, lon.=26.667423, Alt.=104.333069m. Speed=17.964001m/h.</desc>
<speed>4.990000</speed>
</trkpt>
<trkpt lat="56.059311" lon="26.667406">
<ele>104.372131</ele>
<time>2010-06-20T12:30:47Z</time>
<desc>lat.=56.059311, lon.=26.667406, Alt.=104.372131m. Speed=18.719999m/h.</desc>
<speed>5.200000</speed>
</trkpt>
<trkpt lat="56.059265" lon="26.667387">
<ele>104.315491</ele>
<time>2010-06-20T12:30:48Z</time>
<desc>lat.=56.059265, lon.=26.667387, Alt.=104.315491m. Speed=19.403999m/h.</desc>
<speed>5.390000</speed>
</trkpt>
<trkpt lat="56.059219" lon="26.667372">
<ele>104.329163</ele>
<time>2010-06-20T12:30:49Z</time>
<desc>lat.=56.059219, lon.=26.667372, Alt.=104.329163m. Speed=20.052000m/h.</desc>
<speed>5.570000</speed>
</trkpt>
<trkpt lat="56.059170" lon="26.667356">
<ele>104.499084</ele>
<time>2010-06-20T12:30:50Z</time>
<desc>lat.=56.059170, lon.=26.667356, Alt.=104.499084m. Speed=19.296000m/h.</desc>
<speed>5.360000</speed>
</trkpt>
<trkpt lat="56.059128" lon="26.667343">
<ele>104.397522</ele>
<time>2010-06-20T12:30:51Z</time>
<desc>lat.=56.059128, lon.=26.667343, Alt.=104.397522m. Speed=18.504000m/h.</desc>
<speed>5.140000</speed>
</trkpt>
<trkpt lat="56.059086" lon="26.667328">
<ele>104.336975</ele>
<time>2010-06-20T12:30:52Z</time>
<desc>lat.=56.059086, lon.=26.667328, Alt.=104.336975m. Speed=17.964001m/h.</desc>
<speed>4.990000</speed>
</trkpt>
<trkpt lat="56.059044" lon="26.667307">
<ele>104.426819</ele>
<time>2010-06-20T12:30:53Z</time>
<desc>lat.=56.059044, lon.=26.667307, Alt.=104.426819m. Speed=17.388000m/h.</desc>
<speed>4.830000</speed>
</trkpt>
<trkpt lat="56.059002" lon="26.667292">
<ele>104.469788</ele>
<time>2010-06-20T12:30:54Z</time>
<desc>lat.=56.059002, lon.=26.667292, Alt.=104.469788m. Speed=16.524000m/h.</desc>
<speed>4.590000</speed>
</trkpt>
<trkpt lat="56.058964" lon="26.667278">
<ele>104.538147</ele>
<time>2010-06-20T12:30:55Z</time>
<desc>lat.=56.058964, lon.=26.667278, Alt.=104.538147m. Speed=15.516000m/h.</desc>
<speed>4.310000</speed>
</trkpt>
<trkpt lat="56.058929" lon="26.667269">
<ele>104.538147</ele>
<time>2010-06-20T12:30:56Z</time>
<desc>lat.=56.058929, lon.=26.667269, Alt.=104.538147m. Speed=14.832000m/h.</desc>
<speed>4.120000</speed>
</trkpt>
<trkpt lat="56.058895" lon="26.667259">
<ele>104.614319</ele>
<time>2010-06-20T12:30:57Z</time>
<desc>lat.=56.058895, lon.=26.667259, Alt.=104.614319m. Speed=14.148000m/h.</desc>
<speed>3.930000</speed>
</trkpt>
<trkpt lat="56.058857" lon="26.667252">
<ele>105.182678</ele>
<time>2010-06-20T12:30:58Z</time>
<desc>lat.=56.058857, lon.=26.667252, Alt.=105.182678m. Speed=14.364000m/h.</desc>
<speed>3.990000</speed>
</trkpt>
<trkpt lat="56.058826" lon="26.667240">
<ele>105.489319</ele>
<time>2010-06-20T12:30:59Z</time>
<desc>lat.=56.058826, lon.=26.667240, Alt.=105.489319m. Speed=12.636000m/h.</desc>
<speed>3.510000</speed>
</trkpt>
<trkpt lat="56.058792" lon="26.667233">
<ele>105.458069</ele>
<time>2010-06-20T12:31:00Z</time>
<desc>lat.=56.058792, lon.=26.667233, Alt.=105.458069m. Speed=13.320000m/h.</desc>
<speed>3.700000</speed>
</trkpt>
<trkpt lat="56.058762" lon="26.667229">
<ele>105.438538</ele>
<time>2010-06-20T12:31:01Z</time>
<desc>lat.=56.058762, lon.=26.667229, Alt.=105.438538m. Speed=14.004000m/h.</desc>
<speed>3.890000</speed>
</trkpt>
<trkpt lat="56.058727" lon="26.667219">
<ele>105.704163</ele>
<time>2010-06-20T12:31:02Z</time>
<desc>lat.=56.058727, lon.=26.667219, Alt.=105.704163m. Speed=14.364000m/h.</desc>
<speed>3.990000</speed>
</trkpt>
<trkpt lat="56.058693" lon="26.667202">
<ele>105.694397</ele>
<time>2010-06-20T12:31:03Z</time>
<desc>lat.=56.058693, lon.=26.667202, Alt.=105.694397m. Speed=15.192000m/h.</desc>
<speed>4.220000</speed>
</trkpt>
<trkpt lat="56.058655" lon="26.667191">
<ele>105.711975</ele>
<time>2010-06-20T12:31:04Z</time>
<desc>lat.=56.058655, lon.=26.667191, Alt.=105.711975m. Speed=15.408000m/h.</desc>
<speed>4.280000</speed>
</trkpt>
<trkpt lat="56.058613" lon="26.667177">
<ele>105.825256</ele>
<time>2010-06-20T12:31:05Z</time>
<desc>lat.=56.058613, lon.=26.667177, Alt.=105.825256m. Speed=16.236000m/h.</desc>
<speed>4.510000</speed>
</trkpt>
<trkpt lat="56.058571" lon="26.667166">
<ele>106.124084</ele>
<time>2010-06-20T12:31:06Z</time>
<desc>lat.=56.058571, lon.=26.667166, Alt.=106.124084m. Speed=16.667999m/h.</desc>
<speed>4.630000</speed>
</trkpt>
<trkpt lat="56.058529" lon="26.667152">
<ele>105.883850</ele>
<time>2010-06-20T12:31:07Z</time>
<desc>lat.=56.058529, lon.=26.667152, Alt.=105.883850m. Speed=17.568001m/h.</desc>
<speed>4.880000</speed>
</trkpt>
<trkpt lat="56.058491" lon="26.667145">
<ele>106.018616</ele>
<time>2010-06-20T12:31:08Z</time>
<desc>lat.=56.058491, lon.=26.667145, Alt.=106.018616m. Speed=17.424000m/h.</desc>
<speed>4.840000</speed>
</trkpt>
<trkpt lat="56.058445" lon="26.667137">
<ele>106.038147</ele>
<time>2010-06-20T12:31:09Z</time>
<desc>lat.=56.058445, lon.=26.667137, Alt.=106.038147m. Speed=18.792000m/h.</desc>
<speed>5.220000</speed>
</trkpt>
<trkpt lat="56.058399" lon="26.667118">
<ele>105.819397</ele>
<time>2010-06-20T12:31:10Z</time>
<desc>lat.=56.058399, lon.=26.667118, Alt.=105.819397m. Speed=19.908001m/h.</desc>
<speed>5.530000</speed>
</trkpt>
<trkpt lat="56.058350" lon="26.667103">
<ele>105.579163</ele>
<time>2010-06-20T12:31:11Z</time>
<desc>lat.=56.058350, lon.=26.667103, Alt.=105.579163m. Speed=20.520000m/h.</desc>
<speed>5.700000</speed>
</trkpt>
<trkpt lat="56.058296" lon="26.667086">
<ele>105.624084</ele>
<time>2010-06-20T12:31:12Z</time>
<desc>lat.=56.058296, lon.=26.667086, Alt.=105.624084m. Speed=23.472000m/h.</desc>
<speed>6.520000</speed>
</trkpt>
<trkpt lat="56.058243" lon="26.667070">
<ele>105.442444</ele>
<time>2010-06-20T12:31:13Z</time>
<desc>lat.=56.058243, lon.=26.667070, Alt.=105.442444m. Speed=21.059999m/h.</desc>
<speed>5.850000</speed>
</trkpt>
<trkpt lat="56.058189" lon="26.667057">
<ele>105.487366</ele>
<time>2010-06-20T12:31:14Z</time>
<desc>lat.=56.058189, lon.=26.667057, Alt.=105.487366m. Speed=20.771999m/h.</desc>
<speed>5.770000</speed>
</trkpt>
<trkpt lat="56.058136" lon="26.667049">
<ele>105.372131</ele>
<time>2010-06-20T12:31:15Z</time>
<desc>lat.=56.058136, lon.=26.667049, Alt.=105.372131m. Speed=20.268000m/h.</desc>
<speed>5.630000</speed>
</trkpt>
<trkpt lat="56.058086" lon="26.667034">
<ele>105.012756</ele>
<time>2010-06-20T12:31:16Z</time>
<desc>lat.=56.058086, lon.=26.667034, Alt.=105.012756m. Speed=19.980000m/h.</desc>
<speed>5.550000</speed>
</trkpt>
<trkpt lat="56.058041" lon="26.667021">
<ele>104.827209</ele>
<time>2010-06-20T12:31:17Z</time>
<desc>lat.=56.058041, lon.=26.667021, Alt.=104.827209m. Speed=18.684000m/h.</desc>
<speed>5.190000</speed>
</trkpt>
<trkpt lat="56.057995" lon="26.667013">
<ele>104.676819</ele>
<time>2010-06-20T12:31:18Z</time>
<desc>lat.=56.057995, lon.=26.667013, Alt.=104.676819m. Speed=17.856001m/h.</desc>
<speed>4.960000</speed>
</trkpt>
<trkpt lat="56.057949" lon="26.667000">
<ele>104.512756</ele>
<time>2010-06-20T12:31:19Z</time>
<desc>lat.=56.057949, lon.=26.667000, Alt.=104.512756m. Speed=17.784000m/h.</desc>
<speed>4.940000</speed>
</trkpt>
<trkpt lat="56.057903" lon="26.666992">
<ele>104.323303</ele>
<time>2010-06-20T12:31:20Z</time>
<desc>lat.=56.057903, lon.=26.666992, Alt.=104.323303m. Speed=17.784000m/h.</desc>
<speed>4.940000</speed>
</trkpt>
<trkpt lat="56.057861" lon="26.666986">
<ele>104.366272</ele>
<time>2010-06-20T12:31:21Z</time>
<desc>lat.=56.057861, lon.=26.666986, Alt.=104.366272m. Speed=16.704000m/h.</desc>
<speed>4.640000</speed>
</trkpt>
<trkpt lat="56.057823" lon="26.666975">
<ele>104.395569</ele>
<time>2010-06-20T12:31:22Z</time>
<desc>lat.=56.057823, lon.=26.666975, Alt.=104.395569m. Speed=16.236000m/h.</desc>
<speed>4.510000</speed>
</trkpt>
<trkpt lat="56.057781" lon="26.666967">
<ele>104.426819</ele>
<time>2010-06-20T12:31:23Z</time>
<desc>lat.=56.057781, lon.=26.666967, Alt.=104.426819m. Speed=15.732000m/h.</desc>
<speed>4.370000</speed>
</trkpt>
<trkpt lat="56.057739" lon="26.666958">
<ele>103.985413</ele>
<time>2010-06-20T12:31:24Z</time>
<desc>lat.=56.057739, lon.=26.666958, Alt.=103.985413m. Speed=15.768000m/h.</desc>
<speed>4.380000</speed>
</trkpt>
<trkpt lat="56.057701" lon="26.666948">
<ele>104.075256</ele>
<time>2010-06-20T12:31:25Z</time>
<desc>lat.=56.057701, lon.=26.666948, Alt.=104.075256m. Speed=15.948000m/h.</desc>
<speed>4.430000</speed>
</trkpt>
<trkpt lat="56.057659" lon="26.666937">
<ele>103.952209</ele>
<time>2010-06-20T12:31:26Z</time>
<desc>lat.=56.057659, lon.=26.666937, Alt.=103.952209m. Speed=16.848000m/h.</desc>
<speed>4.680000</speed>
</trkpt>
<trkpt lat="56.057617" lon="26.666929">
<ele>103.924866</ele>
<time>2010-06-20T12:31:27Z</time>
<desc>lat.=56.057617, lon.=26.666929, Alt.=103.924866m. Speed=16.128000m/h.</desc>
<speed>4.480000</speed>
</trkpt>
<trkpt lat="56.057579" lon="26.666918">
<ele>103.913147</ele>
<time>2010-06-20T12:31:28Z</time>
<desc>lat.=56.057579, lon.=26.666918, Alt.=103.913147m. Speed=15.588000m/h.</desc>
<speed>4.330000</speed>
</trkpt>
<trkpt lat="56.057541" lon="26.666906">
<ele>103.913147</ele>
<time>2010-06-20T12:31:29Z</time>
<desc>lat.=56.057541, lon.=26.666906, Alt.=103.913147m. Speed=14.904000m/h.</desc>
<speed>4.140000</speed>
</trkpt>
<trkpt lat="56.057503" lon="26.666897">
<ele>103.799866</ele>
<time>2010-06-20T12:31:30Z</time>
<desc>lat.=56.057503, lon.=26.666897, Alt.=103.799866m. Speed=14.184000m/h.</desc>
<speed>3.940000</speed>
</trkpt>
<trkpt lat="56.057468" lon="26.666889">
<ele>103.735413</ele>
<time>2010-06-20T12:31:31Z</time>
<desc>lat.=56.057468, lon.=26.666889, Alt.=103.735413m. Speed=13.572000m/h.</desc>
<speed>3.770000</speed>
</trkpt>
<trkpt lat="56.057438" lon="26.666874">
<ele>103.639709</ele>
<time>2010-06-20T12:31:32Z</time>
<desc>lat.=56.057438, lon.=26.666874, Alt.=103.639709m. Speed=12.816000m/h.</desc>
<speed>3.560000</speed>
</trkpt>
<trkpt lat="56.057407" lon="26.666862">
<ele>103.627991</ele>
<time>2010-06-20T12:31:33Z</time>
<desc>lat.=56.057407, lon.=26.666862, Alt.=103.627991m. Speed=12.348000m/h.</desc>
<speed>3.430000</speed>
</trkpt>
<trkpt lat="56.057377" lon="26.666853">
<ele>103.579163</ele>
<time>2010-06-20T12:31:34Z</time>
<desc>lat.=56.057377, lon.=26.666853, Alt.=103.579163m. Speed=11.592000m/h.</desc>
<speed>3.220000</speed>
</trkpt>
<trkpt lat="56.057346" lon="26.666849">
<ele>103.567444</ele>
<time>2010-06-20T12:31:35Z</time>
<desc>lat.=56.057346, lon.=26.666849, Alt.=103.567444m. Speed=11.448000m/h.</desc>
<speed>3.180000</speed>
</trkpt>
<trkpt lat="56.057316" lon="26.666840">
<ele>103.604553</ele>
<time>2010-06-20T12:31:36Z</time>
<desc>lat.=56.057316, lon.=26.666840, Alt.=103.604553m. Speed=12.348000m/h.</desc>
<speed>3.430000</speed>
</trkpt>
<trkpt lat="56.057285" lon="26.666828">
<ele>103.667053</ele>
<time>2010-06-20T12:31:37Z</time>
<desc>lat.=56.057285, lon.=26.666828, Alt.=103.667053m. Speed=12.780000m/h.</desc>
<speed>3.550000</speed>
</trkpt>
<trkpt lat="56.057255" lon="26.666817">
<ele>104.026428</ele>
<time>2010-06-20T12:31:38Z</time>
<desc>lat.=56.057255, lon.=26.666817, Alt.=104.026428m. Speed=12.852000m/h.</desc>
<speed>3.570000</speed>
</trkpt>
<trkpt lat="56.057224" lon="26.666807">
<ele>104.085022</ele>
<time>2010-06-20T12:31:39Z</time>
<desc>lat.=56.057224, lon.=26.666807, Alt.=104.085022m. Speed=13.140000m/h.</desc>
<speed>3.650000</speed>
</trkpt>
<trkpt lat="56.057190" lon="26.666811">
<ele>104.126038</ele>
<time>2010-06-20T12:31:40Z</time>
<desc>lat.=56.057190, lon.=26.666811, Alt.=104.126038m. Speed=13.392000m/h.</desc>
<speed>3.720000</speed>
</trkpt>
<trkpt lat="56.057159" lon="26.666809">
<ele>104.274475</ele>
<time>2010-06-20T12:31:41Z</time>
<desc>lat.=56.057159, lon.=26.666809, Alt.=104.274475m. Speed=13.284000m/h.</desc>
<speed>3.690000</speed>
</trkpt>
<trkpt lat="56.057125" lon="26.666811">
<ele>104.377991</ele>
<time>2010-06-20T12:31:42Z</time>
<desc>lat.=56.057125, lon.=26.666811, Alt.=104.377991m. Speed=13.608000m/h.</desc>
<speed>3.780000</speed>
</trkpt>
<trkpt lat="56.057091" lon="26.666809">
<ele>104.237366</ele>
<time>2010-06-20T12:31:43Z</time>
<desc>lat.=56.057091, lon.=26.666809, Alt.=104.237366m. Speed=14.292000m/h.</desc>
<speed>3.970000</speed>
</trkpt>
<trkpt lat="56.057053" lon="26.666798">
<ele>103.928772</ele>
<time>2010-06-20T12:31:44Z</time>
<desc>lat.=56.057053, lon.=26.666798, Alt.=103.928772m. Speed=14.580000m/h.</desc>
<speed>4.050000</speed>
</trkpt>
<trkpt lat="56.057018" lon="26.666792">
<ele>104.194397</ele>
<time>2010-06-20T12:31:45Z</time>
<desc>lat.=56.057018, lon.=26.666792, Alt.=104.194397m. Speed=14.292000m/h.</desc>
<speed>3.970000</speed>
</trkpt>
<trkpt lat="56.056984" lon="26.666784">
<ele>104.231506</ele>
<time>2010-06-20T12:31:46Z</time>
<desc>lat.=56.056984, lon.=26.666784, Alt.=104.231506m. Speed=14.760000m/h.</desc>
<speed>4.100000</speed>
</trkpt>
<trkpt lat="56.056946" lon="26.666775">
<ele>104.110413</ele>
<time>2010-06-20T12:31:47Z</time>
<desc>lat.=56.056946, lon.=26.666775, Alt.=104.110413m. Speed=14.940000m/h.</desc>
<speed>4.150000</speed>
</trkpt>
<trkpt lat="56.056908" lon="26.666765">
<ele>104.118225</ele>
<time>2010-06-20T12:31:48Z</time>
<desc>lat.=56.056908, lon.=26.666765, Alt.=104.118225m. Speed=14.904000m/h.</desc>
<speed>4.140000</speed>
</trkpt>
<trkpt lat="56.056870" lon="26.666761">
<ele>104.210022</ele>
<time>2010-06-20T12:31:49Z</time>
<desc>lat.=56.056870, lon.=26.666761, Alt.=104.210022m. Speed=15.696000m/h.</desc>
<speed>4.360000</speed>
</trkpt>
<trkpt lat="56.056831" lon="26.666761">
<ele>104.301819</ele>
<time>2010-06-20T12:31:50Z</time>
<desc>lat.=56.056831, lon.=26.666761, Alt.=104.301819m. Speed=15.588000m/h.</desc>
<speed>4.330000</speed>
</trkpt>
<trkpt lat="56.056793" lon="26.666754">
<ele>104.448303</ele>
<time>2010-06-20T12:31:51Z</time>
<desc>lat.=56.056793, lon.=26.666754, Alt.=104.448303m. Speed=15.660000m/h.</desc>
<speed>4.350000</speed>
</trkpt>
<trkpt lat="56.056751" lon="26.666746">
<ele>104.588928</ele>
<time>2010-06-20T12:31:52Z</time>
<desc>lat.=56.056751, lon.=26.666746, Alt.=104.588928m. Speed=16.091999m/h.</desc>
<speed>4.470000</speed>
</trkpt>
<trkpt lat="56.056713" lon="26.666739">
<ele>104.715881</ele>
<time>2010-06-20T12:31:53Z</time>
<desc>lat.=56.056713, lon.=26.666739, Alt.=104.715881m. Speed=15.984000m/h.</desc>
<speed>4.440000</speed>
</trkpt>
<trkpt lat="56.056679" lon="26.666733">
<ele>104.678772</ele>
<time>2010-06-20T12:31:54Z</time>
<desc>lat.=56.056679, lon.=26.666733, Alt.=104.678772m. Speed=15.552000m/h.</desc>
<speed>4.320000</speed>
</trkpt>
<trkpt lat="56.056637" lon="26.666721">
<ele>104.745178</ele>
<time>2010-06-20T12:31:55Z</time>
<desc>lat.=56.056637, lon.=26.666721, Alt.=104.745178m. Speed=14.940000m/h.</desc>
<speed>4.150000</speed>
</trkpt>
<trkpt lat="56.056602" lon="26.666712">
<ele>104.739319</ele>
<time>2010-06-20T12:31:56Z</time>
<desc>lat.=56.056602, lon.=26.666712, Alt.=104.739319m. Speed=14.472000m/h.</desc>
<speed>4.020000</speed>
</trkpt>
<trkpt lat="56.056568" lon="26.666706">
<ele>104.723694</ele>
<time>2010-06-20T12:31:57Z</time>
<desc>lat.=56.056568, lon.=26.666706, Alt.=104.723694m. Speed=13.536000m/h.</desc>
<speed>3.760000</speed>
</trkpt>
<trkpt lat="56.056534" lon="26.666702">
<ele>104.684631</ele>
<time>2010-06-20T12:31:58Z</time>
<desc>lat.=56.056534, lon.=26.666702, Alt.=104.684631m. Speed=13.068000m/h.</desc>
<speed>3.630000</speed>
</trkpt>
<trkpt lat="56.056503" lon="26.666697">
<ele>104.778381</ele>
<time>2010-06-20T12:31:59Z</time>
<desc>lat.=56.056503, lon.=26.666697, Alt.=104.778381m. Speed=12.312000m/h.</desc>
<speed>3.420000</speed>
</trkpt>
<trkpt lat="56.056477" lon="26.666691">
<ele>104.883850</ele>
<time>2010-06-20T12:32:00Z</time>
<desc>lat.=56.056477, lon.=26.666691, Alt.=104.883850m. Speed=11.556000m/h.</desc>
<speed>3.210000</speed>
</trkpt>
<trkpt lat="56.056454" lon="26.666683">
<ele>104.874084</ele>
<time>2010-06-20T12:32:01Z</time>
<desc>lat.=56.056454, lon.=26.666683, Alt.=104.874084m. Speed=10.692000m/h.</desc>
<speed>2.970000</speed>
</trkpt>
<trkpt lat="56.056431" lon="26.666674">
<ele>104.794006</ele>
<time>2010-06-20T12:32:02Z</time>
<desc>lat.=56.056431, lon.=26.666674, Alt.=104.794006m. Speed=9.720000m/h.</desc>
<speed>2.700000</speed>
</trkpt>
<trkpt lat="56.056408" lon="26.666668">
<ele>104.762756</ele>
<time>2010-06-20T12:32:03Z</time>
<desc>lat.=56.056408, lon.=26.666668, Alt.=104.762756m. Speed=8.676000m/h.</desc>
<speed>2.410000</speed>
</trkpt>
<trkpt lat="56.056389" lon="26.666664">
<ele>104.889709</ele>
<time>2010-06-20T12:32:04Z</time>
<desc>lat.=56.056389, lon.=26.666664, Alt.=104.889709m. Speed=7.668000m/h.</desc>
<speed>2.130000</speed>
</trkpt>
<trkpt lat="56.056374" lon="26.666658">
<ele>104.979553</ele>
<time>2010-06-20T12:32:05Z</time>
<desc>lat.=56.056374, lon.=26.666658, Alt.=104.979553m. Speed=6.660000m/h.</desc>
<speed>1.850000</speed>
</trkpt>
<trkpt lat="56.056358" lon="26.666656">
<ele>105.030334</ele>
<time>2010-06-20T12:32:06Z</time>
<desc>lat.=56.056358, lon.=26.666656, Alt.=105.030334m. Speed=6.192000m/h.</desc>
<speed>1.720000</speed>
</trkpt>
<trkpt lat="56.056343" lon="26.666653">
<ele>105.020569</ele>
<time>2010-06-20T12:32:07Z</time>
<desc>lat.=56.056343, lon.=26.666653, Alt.=105.020569m. Speed=7.164000m/h.</desc>
<speed>1.990000</speed>
</trkpt>
<trkpt lat="56.056324" lon="26.666651">
<ele>105.186584</ele>
<time>2010-06-20T12:32:08Z</time>
<desc>lat.=56.056324, lon.=26.666651, Alt.=105.186584m. Speed=7.236000m/h.</desc>
<speed>2.010000</speed>
</trkpt>
<trkpt lat="56.056309" lon="26.666651">
<ele>105.102600</ele>
<time>2010-06-20T12:32:09Z</time>
<desc>lat.=56.056309, lon.=26.666651, Alt.=105.102600m. Speed=8.388000m/h.</desc>
<speed>2.330000</speed>
</trkpt>
<trkpt lat="56.056286" lon="26.666636">
<ele>104.909241</ele>
<time>2010-06-20T12:32:10Z</time>
<desc>lat.=56.056286, lon.=26.666636, Alt.=104.909241m. Speed=8.604000m/h.</desc>
<speed>2.390000</speed>
</trkpt>
<trkpt lat="56.056263" lon="26.666628">
<ele>104.848694</ele>
<time>2010-06-20T12:32:11Z</time>
<desc>lat.=56.056263, lon.=26.666628, Alt.=104.848694m. Speed=8.100000m/h.</desc>
<speed>2.250000</speed>
</trkpt>
<trkpt lat="56.056244" lon="26.666620">
<ele>104.711975</ele>
<time>2010-06-20T12:32:12Z</time>
<desc>lat.=56.056244, lon.=26.666620, Alt.=104.711975m. Speed=9.144000m/h.</desc>
<speed>2.540000</speed>
</trkpt>
<trkpt lat="56.056221" lon="26.666620">
<ele>104.565491</ele>
<time>2010-06-20T12:32:13Z</time>
<desc>lat.=56.056221, lon.=26.666620, Alt.=104.565491m. Speed=7.632000m/h.</desc>
<speed>2.120000</speed>
</trkpt>
<trkpt lat="56.056202" lon="26.666624">
<ele>104.346741</ele>
<time>2010-06-20T12:32:14Z</time>
<desc>lat.=56.056202, lon.=26.666624, Alt.=104.346741m. Speed=6.840000m/h.</desc>
<speed>1.900000</speed>
</trkpt>
<trkpt lat="56.056183" lon="26.666630">
<ele>104.454163</ele>
<time>2010-06-20T12:32:15Z</time>
<desc>lat.=56.056183, lon.=26.666630, Alt.=104.454163m. Speed=6.948000m/h.</desc>
<speed>1.930000</speed>
</trkpt>
<trkpt lat="56.056168" lon="26.666641">
<ele>104.569397</ele>
<time>2010-06-20T12:32:16Z</time>
<desc>lat.=56.056168, lon.=26.666641, Alt.=104.569397m. Speed=8.856000m/h.</desc>
<speed>2.460000</speed>
</trkpt>
<trkpt lat="56.056145" lon="26.666647">
<ele>104.766663</ele>
<time>2010-06-20T12:32:17Z</time>
<desc>lat.=56.056145, lon.=26.666647, Alt.=104.766663m. Speed=9.936000m/h.</desc>
<speed>2.760000</speed>
</trkpt>
<trkpt lat="56.056118" lon="26.666641">
<ele>104.702209</ele>
<time>2010-06-20T12:32:18Z</time>
<desc>lat.=56.056118, lon.=26.666641, Alt.=104.702209m. Speed=11.232000m/h.</desc>
<speed>3.120000</speed>
</trkpt>
<trkpt lat="56.056087" lon="26.666630">
<ele>104.512756</ele>
<time>2010-06-20T12:32:19Z</time>
<desc>lat.=56.056087, lon.=26.666630, Alt.=104.512756m. Speed=11.844000m/h.</desc>
<speed>3.290000</speed>
</trkpt>
<trkpt lat="56.056057" lon="26.666618">
<ele>104.313538</ele>
<time>2010-06-20T12:32:20Z</time>
<desc>lat.=56.056057, lon.=26.666618, Alt.=104.313538m. Speed=13.356000m/h.</desc>
<speed>3.710000</speed>
</trkpt>
<trkpt lat="56.056023" lon="26.666605">
<ele>104.085022</ele>
<time>2010-06-20T12:32:21Z</time>
<desc>lat.=56.056023, lon.=26.666605, Alt.=104.085022m. Speed=14.040000m/h.</desc>
<speed>3.900000</speed>
</trkpt>
<trkpt lat="56.055988" lon="26.666595">
<ele>104.192444</ele>
<time>2010-06-20T12:32:22Z</time>
<desc>lat.=56.055988, lon.=26.666595, Alt.=104.192444m. Speed=14.832000m/h.</desc>
<speed>4.120000</speed>
</trkpt>
<trkpt lat="56.055950" lon="26.666586">
<ele>104.055725</ele>
<time>2010-06-20T12:32:23Z</time>
<desc>lat.=56.055950, lon.=26.666586, Alt.=104.055725m. Speed=15.876000m/h.</desc>
<speed>4.410000</speed>
</trkpt>
<trkpt lat="56.055912" lon="26.666576">
<ele>103.885803</ele>
<time>2010-06-20T12:32:24Z</time>
<desc>lat.=56.055912, lon.=26.666576, Alt.=103.885803m. Speed=16.667999m/h.</desc>
<speed>4.630000</speed>
</trkpt>
<trkpt lat="56.055866" lon="26.666565">
<ele>103.678772</ele>
<time>2010-06-20T12:32:25Z</time>
<desc>lat.=56.055866, lon.=26.666565, Alt.=103.678772m. Speed=17.639999m/h.</desc>
<speed>4.900000</speed>
</trkpt>
<trkpt lat="56.055820" lon="26.666553">
<ele>103.436584</ele>
<time>2010-06-20T12:32:26Z</time>
<desc>lat.=56.055820, lon.=26.666553, Alt.=103.436584m. Speed=18.360001m/h.</desc>
<speed>5.100000</speed>
</trkpt>
<trkpt lat="56.055779" lon="26.666542">
<ele>103.274475</ele>
<time>2010-06-20T12:32:27Z</time>
<desc>lat.=56.055779, lon.=26.666542, Alt.=103.274475m. Speed=17.820000m/h.</desc>
<speed>4.950000</speed>
</trkpt>
<trkpt lat="56.055733" lon="26.666531">
<ele>103.295959</ele>
<time>2010-06-20T12:32:28Z</time>
<desc>lat.=56.055733, lon.=26.666531, Alt.=103.295959m. Speed=17.532000m/h.</desc>
<speed>4.870000</speed>
</trkpt>
<trkpt lat="56.055687" lon="26.666517">
<ele>103.210022</ele>
<time>2010-06-20T12:32:29Z</time>
<desc>lat.=56.055687, lon.=26.666517, Alt.=103.210022m. Speed=17.964001m/h.</desc>
<speed>4.990000</speed>
</trkpt>
<trkpt lat="56.055645" lon="26.666500">
<ele>103.188538</ele>
<time>2010-06-20T12:32:30Z</time>
<desc>lat.=56.055645, lon.=26.666500, Alt.=103.188538m. Speed=17.496000m/h.</desc>
<speed>4.860000</speed>
</trkpt>
<trkpt lat="56.055603" lon="26.666479">
<ele>103.270569</ele>
<time>2010-06-20T12:32:31Z</time>
<desc>lat.=56.055603, lon.=26.666479, Alt.=103.270569m. Speed=16.775999m/h.</desc>
<speed>4.660000</speed>
</trkpt>
<trkpt lat="56.055561" lon="26.666454">
<ele>103.094788</ele>
<time>2010-06-20T12:32:32Z</time>
<desc>lat.=56.055561, lon.=26.666454, Alt.=103.094788m. Speed=16.704000m/h.</desc>
<speed>4.640000</speed>
</trkpt>
<trkpt lat="56.055519" lon="26.666437">
<ele>103.051819</ele>
<time>2010-06-20T12:32:33Z</time>
<desc>lat.=56.055519, lon.=26.666437, Alt.=103.051819m. Speed=17.351999m/h.</desc>
<speed>4.820000</speed>
</trkpt>
<trkpt lat="56.055477" lon="26.666422">
<ele>102.993225</ele>
<time>2010-06-20T12:32:34Z</time>
<desc>lat.=56.055477, lon.=26.666422, Alt.=102.993225m. Speed=16.416000m/h.</desc>
<speed>4.560000</speed>
</trkpt>
<trkpt lat="56.055439" lon="26.666405">
<ele>102.946350</ele>
<time>2010-06-20T12:32:35Z</time>
<desc>lat.=56.055439, lon.=26.666405, Alt.=102.946350m. Speed=15.984000m/h.</desc>
<speed>4.440000</speed>
</trkpt>
<trkpt lat="56.055397" lon="26.666386">
<ele>103.001038</ele>
<time>2010-06-20T12:32:36Z</time>
<desc>lat.=56.055397, lon.=26.666386, Alt.=103.001038m. Speed=16.091999m/h.</desc>
<speed>4.470000</speed>
</trkpt>
<trkpt lat="56.055355" lon="26.666367">
<ele>103.137756</ele>
<time>2010-06-20T12:32:37Z</time>
<desc>lat.=56.055355, lon.=26.666367, Alt.=103.137756m. Speed=16.452000m/h.</desc>
<speed>4.570000</speed>
</trkpt>
<trkpt lat="56.055313" lon="26.666349">
<ele>103.252991</ele>
<time>2010-06-20T12:32:38Z</time>
<desc>lat.=56.055313, lon.=26.666349, Alt.=103.252991m. Speed=17.747999m/h.</desc>
<speed>4.930000</speed>
</trkpt>
<trkpt lat="56.055271" lon="26.666328">
<ele>103.493225</ele>
<time>2010-06-20T12:32:39Z</time>
<desc>lat.=56.055271, lon.=26.666328, Alt.=103.493225m. Speed=18.108000m/h.</desc>
<speed>5.030000</speed>
</trkpt>
<trkpt lat="56.055225" lon="26.666311">
<ele>103.696350</ele>
<time>2010-06-20T12:32:40Z</time>
<desc>lat.=56.055225, lon.=26.666311, Alt.=103.696350m. Speed=18.864000m/h.</desc>
<speed>5.240000</speed>
</trkpt>
<trkpt lat="56.055183" lon="26.666298">
<ele>103.669006</ele>
<time>2010-06-20T12:32:41Z</time>
<desc>lat.=56.055183, lon.=26.666298, Alt.=103.669006m. Speed=17.676001m/h.</desc>
<speed>4.910000</speed>
</trkpt>
<trkpt lat="56.055141" lon="26.666281">
<ele>103.395569</ele>
<time>2010-06-20T12:32:42Z</time>
<desc>lat.=56.055141, lon.=26.666281, Alt.=103.395569m. Speed=16.812000m/h.</desc>
<speed>4.670000</speed>
</trkpt>
<trkpt lat="56.055099" lon="26.666262">
<ele>103.368225</ele>
<time>2010-06-20T12:32:43Z</time>
<desc>lat.=56.055099, lon.=26.666262, Alt.=103.368225m. Speed=17.280001m/h.</desc>
<speed>4.800000</speed>
</trkpt>
<trkpt lat="56.055054" lon="26.666243">
<ele>103.514709</ele>
<time>2010-06-20T12:32:44Z</time>
<desc>lat.=56.055054, lon.=26.666243, Alt.=103.514709m. Speed=16.379999m/h.</desc>
<speed>4.550000</speed>
</trkpt>
<trkpt lat="56.055016" lon="26.666229">
<ele>103.450256</ele>
<time>2010-06-20T12:32:45Z</time>
<desc>lat.=56.055016, lon.=26.666229, Alt.=103.450256m. Speed=15.264000m/h.</desc>
<speed>4.240000</speed>
</trkpt>
<trkpt lat="56.054977" lon="26.666216">
<ele>103.278381</ele>
<time>2010-06-20T12:32:46Z</time>
<desc>lat.=56.054977, lon.=26.666216, Alt.=103.278381m. Speed=14.976000m/h.</desc>
<speed>4.160000</speed>
</trkpt>
<trkpt lat="56.054939" lon="26.666206">
<ele>103.342834</ele>
<time>2010-06-20T12:32:47Z</time>
<desc>lat.=56.054939, lon.=26.666206, Alt.=103.342834m. Speed=15.048000m/h.</desc>
<speed>4.180000</speed>
</trkpt>
<trkpt lat="56.054897" lon="26.666189">
<ele>103.389709</ele>
<time>2010-06-20T12:32:48Z</time>
<desc>lat.=56.054897, lon.=26.666189, Alt.=103.389709m. Speed=15.552000m/h.</desc>
<speed>4.320000</speed>
</trkpt>
<trkpt lat="56.054859" lon="26.666170">
<ele>103.362366</ele>
<time>2010-06-20T12:32:49Z</time>
<desc>lat.=56.054859, lon.=26.666170, Alt.=103.362366m. Speed=16.091999m/h.</desc>
<speed>4.470000</speed>
</trkpt>
<trkpt lat="56.054821" lon="26.666157">
<ele>103.504944</ele>
<time>2010-06-20T12:32:50Z</time>
<desc>lat.=56.054821, lon.=26.666157, Alt.=103.504944m. Speed=15.516000m/h.</desc>
<speed>4.310000</speed>
</trkpt>
<trkpt lat="56.054783" lon="26.666147">
<ele>103.594788</ele>
<time>2010-06-20T12:32:51Z</time>
<desc>lat.=56.054783, lon.=26.666147, Alt.=103.594788m. Speed=15.804000m/h.</desc>
<speed>4.390000</speed>
</trkpt>
<trkpt lat="56.054741" lon="26.666134">
<ele>103.792053</ele>
<time>2010-06-20T12:32:52Z</time>
<desc>lat.=56.054741, lon.=26.666134, Alt.=103.792053m. Speed=16.128000m/h.</desc>
<speed>4.480000</speed>
</trkpt>
<trkpt lat="56.054703" lon="26.666124">
<ele>104.008850</ele>
<time>2010-06-20T12:32:53Z</time>
<desc>lat.=56.054703, lon.=26.666124, Alt.=104.008850m. Speed=16.488001m/h.</desc>
<speed>4.580000</speed>
</trkpt>
<trkpt lat="56.054661" lon="26.666109">
<ele>104.116272</ele>
<time>2010-06-20T12:32:54Z</time>
<desc>lat.=56.054661, lon.=26.666109, Alt.=104.116272m. Speed=17.316000m/h.</desc>
<speed>4.810000</speed>
</trkpt>
<trkpt lat="56.054619" lon="26.666105">
<ele>104.245178</ele>
<time>2010-06-20T12:32:55Z</time>
<desc>lat.=56.054619, lon.=26.666105, Alt.=104.245178m. Speed=16.524000m/h.</desc>
<speed>4.590000</speed>
</trkpt>
<trkpt lat="56.054585" lon="26.666098">
<ele>104.407288</ele>
<time>2010-06-20T12:32:56Z</time>
<desc>lat.=56.054585, lon.=26.666098, Alt.=104.407288m. Speed=15.444000m/h.</desc>
<speed>4.290000</speed>
</trkpt>
<trkpt lat="56.054546" lon="26.666092">
<ele>104.544006</ele>
<time>2010-06-20T12:32:57Z</time>
<desc>lat.=56.054546, lon.=26.666092, Alt.=104.544006m. Speed=14.400000m/h.</desc>
<speed>4.000000</speed>
</trkpt>
<trkpt lat="56.054512" lon="26.666088">
<ele>104.688538</ele>
<time>2010-06-20T12:32:58Z</time>
<desc>lat.=56.054512, lon.=26.666088, Alt.=104.688538m. Speed=13.536000m/h.</desc>
<speed>3.760000</speed>
</trkpt>
<trkpt lat="56.054482" lon="26.666084">
<ele>104.752991</ele>
<time>2010-06-20T12:32:59Z</time>
<desc>lat.=56.054482, lon.=26.666084, Alt.=104.752991m. Speed=12.708000m/h.</desc>
<speed>3.530000</speed>
</trkpt>
<trkpt lat="56.054455" lon="26.666075">
<ele>104.901428</ele>
<time>2010-06-20T12:33:00Z</time>
<desc>lat.=56.054455, lon.=26.666075, Alt.=104.901428m. Speed=12.060000m/h.</desc>
<speed>3.350000</speed>
</trkpt>
<trkpt lat="56.054432" lon="26.666069">
<ele>105.602600</ele>
<time>2010-06-20T12:33:01Z</time>
<desc>lat.=56.054432, lon.=26.666069, Alt.=105.602600m. Speed=10.800000m/h.</desc>
<speed>3.000000</speed>
</trkpt>
<trkpt lat="56.054409" lon="26.666065">
<ele>105.645569</ele>
<time>2010-06-20T12:33:02Z</time>
<desc>lat.=56.054409, lon.=26.666065, Alt.=105.645569m. Speed=12.060000m/h.</desc>
<speed>3.350000</speed>
</trkpt>
<trkpt lat="56.054379" lon="26.666054">
<ele>105.680725</ele>
<time>2010-06-20T12:33:03Z</time>
<desc>lat.=56.054379, lon.=26.666054, Alt.=105.680725m. Speed=14.292000m/h.</desc>
<speed>3.970000</speed>
</trkpt>
<trkpt lat="56.054344" lon="26.666048">
<ele>105.633850</ele>
<time>2010-06-20T12:33:04Z</time>
<desc>lat.=56.054344, lon.=26.666048, Alt.=105.633850m. Speed=14.328000m/h.</desc>
<speed>3.980000</speed>
</trkpt>
<trkpt lat="56.054310" lon="26.666048">
<ele>105.799866</ele>
<time>2010-06-20T12:33:05Z</time>
<desc>lat.=56.054310, lon.=26.666048, Alt.=105.799866m. Speed=15.228000m/h.</desc>
<speed>4.230000</speed>
</trkpt>
<trkpt lat="56.054272" lon="26.666042">
<ele>105.784241</ele>
<time>2010-06-20T12:33:06Z</time>
<desc>lat.=56.054272, lon.=26.666042, Alt.=105.784241m. Speed=16.308001m/h.</desc>
<speed>4.530000</speed>
</trkpt>
<trkpt lat="56.054230" lon="26.666040">
<ele>105.751038</ele>
<time>2010-06-20T12:33:07Z</time>
<desc>lat.=56.054230, lon.=26.666040, Alt.=105.751038m. Speed=16.884001m/h.</desc>
<speed>4.690000</speed>
</trkpt>
<trkpt lat="56.054188" lon="26.666039">
<ele>105.877991</ele>
<time>2010-06-20T12:33:08Z</time>
<desc>lat.=56.054188, lon.=26.666039, Alt.=105.877991m. Speed=17.424000m/h.</desc>
<speed>4.840000</speed>
</trkpt>
<trkpt lat="56.054146" lon="26.666031">
<ele>105.963928</ele>
<time>2010-06-20T12:33:09Z</time>
<desc>lat.=56.054146, lon.=26.666031, Alt.=105.963928m. Speed=17.964001m/h.</desc>
<speed>4.990000</speed>
</trkpt>
<trkpt lat="56.054100" lon="26.666029">
<ele>106.243225</ele>
<time>2010-06-20T12:33:10Z</time>
<desc>lat.=56.054100, lon.=26.666029, Alt.=106.243225m. Speed=18.108000m/h.</desc>
<speed>5.030000</speed>
</trkpt>
<trkpt lat="56.054054" lon="26.666027">
<ele>106.229553</ele>
<time>2010-06-20T12:33:11Z</time>
<desc>lat.=56.054054, lon.=26.666027, Alt.=106.229553m. Speed=18.000000m/h.</desc>
<speed>5.000000</speed>
</trkpt>
<trkpt lat="56.054008" lon="26.666029">
<ele>106.360413</ele>
<time>2010-06-20T12:33:12Z</time>
<desc>lat.=56.054008, lon.=26.666029, Alt.=106.360413m. Speed=18.252001m/h.</desc>
<speed>5.070000</speed>
</trkpt>
<trkpt lat="56.053967" lon="26.666029">
<ele>106.420959</ele>
<time>2010-06-20T12:33:13Z</time>
<desc>lat.=56.053967, lon.=26.666029, Alt.=106.420959m. Speed=18.468000m/h.</desc>
<speed>5.130000</speed>
</trkpt>
<trkpt lat="56.053917" lon="26.666025">
<ele>106.553772</ele>
<time>2010-06-20T12:33:14Z</time>
<desc>lat.=56.053917, lon.=26.666025, Alt.=106.553772m. Speed=18.323999m/h.</desc>
<speed>5.090000</speed>
</trkpt>
<trkpt lat="56.053875" lon="26.666029">
<ele>106.610413</ele>
<time>2010-06-20T12:33:15Z</time>
<desc>lat.=56.053875, lon.=26.666029, Alt.=106.610413m. Speed=18.180000m/h.</desc>
<speed>5.050000</speed>
</trkpt>
<trkpt lat="56.053829" lon="26.666033">
<ele>106.581116</ele>
<time>2010-06-20T12:33:16Z</time>
<desc>lat.=56.053829, lon.=26.666033, Alt.=106.581116m. Speed=17.964001m/h.</desc>
<speed>4.990000</speed>
</trkpt>
<trkpt lat="56.053783" lon="26.666033">
<ele>106.581116</ele>
<time>2010-06-20T12:33:17Z</time>
<desc>lat.=56.053783, lon.=26.666033, Alt.=106.581116m. Speed=18.108000m/h.</desc>
<speed>5.030000</speed>
</trkpt>
<trkpt lat="56.053738" lon="26.666037">
<ele>106.538147</ele>
<time>2010-06-20T12:33:18Z</time>
<desc>lat.=56.053738, lon.=26.666037, Alt.=106.538147m. Speed=17.892000m/h.</desc>
<speed>4.970000</speed>
</trkpt>
<trkpt lat="56.053692" lon="26.666042">
<ele>106.579163</ele>
<time>2010-06-20T12:33:19Z</time>
<desc>lat.=56.053692, lon.=26.666042, Alt.=106.579163m. Speed=17.820000m/h.</desc>
<speed>4.950000</speed>
</trkpt>
<trkpt lat="56.053646" lon="26.666048">
<ele>106.608459</ele>
<time>2010-06-20T12:33:20Z</time>
<desc>lat.=56.053646, lon.=26.666048, Alt.=106.608459m. Speed=17.351999m/h.</desc>
<speed>4.820000</speed>
</trkpt>
<trkpt lat="56.053604" lon="26.666058">
<ele>106.686584</ele>
<time>2010-06-20T12:33:21Z</time>
<desc>lat.=56.053604, lon.=26.666058, Alt.=106.686584m. Speed=17.028000m/h.</desc>
<speed>4.730000</speed>
</trkpt>
<trkpt lat="56.053558" lon="26.666065">
<ele>106.518616</ele>
<time>2010-06-20T12:33:22Z</time>
<desc>lat.=56.053558, lon.=26.666065, Alt.=106.518616m. Speed=16.920000m/h.</desc>
<speed>4.700000</speed>
</trkpt>
<trkpt lat="56.053516" lon="26.666079">
<ele>106.446350</ele>
<time>2010-06-20T12:33:23Z</time>
<desc>lat.=56.053516, lon.=26.666079, Alt.=106.446350m. Speed=16.775999m/h.</desc>
<speed>4.660000</speed>
</trkpt>
<trkpt lat="56.053478" lon="26.666086">
<ele>106.331116</ele>
<time>2010-06-20T12:33:24Z</time>
<desc>lat.=56.053478, lon.=26.666086, Alt.=106.331116m. Speed=15.228000m/h.</desc>
<speed>4.230000</speed>
</trkpt>
<trkpt lat="56.053440" lon="26.666090">
<ele>106.229553</ele>
<time>2010-06-20T12:33:25Z</time>
<desc>lat.=56.053440, lon.=26.666090, Alt.=106.229553m. Speed=14.976000m/h.</desc>
<speed>4.160000</speed>
</trkpt>
<trkpt lat="56.053406" lon="26.666096">
<ele>106.038147</ele>
<time>2010-06-20T12:33:26Z</time>
<desc>lat.=56.053406, lon.=26.666096, Alt.=106.038147m. Speed=13.608000m/h.</desc>
<speed>3.780000</speed>
</trkpt>
<trkpt lat="56.053371" lon="26.666101">
<ele>105.967834</ele>
<time>2010-06-20T12:33:27Z</time>
<desc>lat.=56.053371, lon.=26.666101, Alt.=105.967834m. Speed=12.564000m/h.</desc>
<speed>3.490000</speed>
</trkpt>
<trkpt lat="56.053345" lon="26.666105">
<ele>105.891663</ele>
<time>2010-06-20T12:33:28Z</time>
<desc>lat.=56.053345, lon.=26.666105, Alt.=105.891663m. Speed=11.268000m/h.</desc>
<speed>3.130000</speed>
</trkpt>
<trkpt lat="56.053318" lon="26.666111">
<ele>105.663147</ele>
<time>2010-06-20T12:33:29Z</time>
<desc>lat.=56.053318, lon.=26.666111, Alt.=105.663147m. Speed=10.260000m/h.</desc>
<speed>2.850000</speed>
</trkpt>
<trkpt lat="56.053295" lon="26.666117">
<ele>105.469788</ele>
<time>2010-06-20T12:33:30Z</time>
<desc>lat.=56.053295, lon.=26.666117, Alt.=105.469788m. Speed=9.972000m/h.</desc>
<speed>2.770000</speed>
</trkpt>
<trkpt lat="56.053268" lon="26.666122">
<ele>105.842834</ele>
<time>2010-06-20T12:33:31Z</time>
<desc>lat.=56.053268, lon.=26.666122, Alt.=105.842834m. Speed=11.160000m/h.</desc>
<speed>3.100000</speed>
</trkpt>
<trkpt lat="56.053242" lon="26.666124">
<ele>105.596741</ele>
<time>2010-06-20T12:33:32Z</time>
<desc>lat.=56.053242, lon.=26.666124, Alt.=105.596741m. Speed=10.440000m/h.</desc>
<speed>2.900000</speed>
</trkpt>
<trkpt lat="56.053215" lon="26.666128">
<ele>105.596741</ele>
<time>2010-06-20T12:33:33Z</time>
<desc>lat.=56.053215, lon.=26.666128, Alt.=105.596741m. Speed=11.088000m/h.</desc>
<speed>3.080000</speed>
</trkpt>
<trkpt lat="56.053188" lon="26.666132">
<ele>105.479553</ele>
<time>2010-06-20T12:33:34Z</time>
<desc>lat.=56.053188, lon.=26.666132, Alt.=105.479553m. Speed=11.772000m/h.</desc>
<speed>3.270000</speed>
</trkpt>
<trkpt lat="56.053162" lon="26.666138">
<ele>105.542053</ele>
<time>2010-06-20T12:33:35Z</time>
<desc>lat.=56.053162, lon.=26.666138, Alt.=105.542053m. Speed=10.980000m/h.</desc>
<speed>3.050000</speed>
</trkpt>
<trkpt lat="56.053131" lon="26.666147">
<ele>105.395569</ele>
<time>2010-06-20T12:33:36Z</time>
<desc>lat.=56.053131, lon.=26.666147, Alt.=105.395569m. Speed=12.096000m/h.</desc>
<speed>3.360000</speed>
</trkpt>
<trkpt lat="56.053101" lon="26.666153">
<ele>105.600647</ele>
<time>2010-06-20T12:33:37Z</time>
<desc>lat.=56.053101, lon.=26.666153, Alt.=105.600647m. Speed=11.664000m/h.</desc>
<speed>3.240000</speed>
</trkpt>
<trkpt lat="56.053062" lon="26.666153">
<ele>105.475647</ele>
<time>2010-06-20T12:33:38Z</time>
<desc>lat.=56.053062, lon.=26.666153, Alt.=105.475647m. Speed=15.264000m/h.</desc>
<speed>4.240000</speed>
</trkpt>
<trkpt lat="56.053032" lon="26.666159">
<ele>105.377991</ele>
<time>2010-06-20T12:33:39Z</time>
<desc>lat.=56.053032, lon.=26.666159, Alt.=105.377991m. Speed=12.420000m/h.</desc>
<speed>3.450000</speed>
</trkpt>
<trkpt lat="56.053001" lon="26.666168">
<ele>105.565491</ele>
<time>2010-06-20T12:33:40Z</time>
<desc>lat.=56.053001, lon.=26.666168, Alt.=105.565491m. Speed=11.196000m/h.</desc>
<speed>3.110000</speed>
</trkpt>
<trkpt lat="56.052971" lon="26.666178">
<ele>105.893616</ele>
<time>2010-06-20T12:33:41Z</time>
<desc>lat.=56.052971, lon.=26.666178, Alt.=105.893616m. Speed=10.872000m/h.</desc>
<speed>3.020000</speed>
</trkpt>
<trkpt lat="56.052948" lon="26.666183">
<ele>106.344788</ele>
<time>2010-06-20T12:33:42Z</time>
<desc>lat.=56.052948, lon.=26.666183, Alt.=106.344788m. Speed=9.936000m/h.</desc>
<speed>2.760000</speed>
</trkpt>
<trkpt lat="56.052921" lon="26.666187">
<ele>107.217834</ele>
<time>2010-06-20T12:33:43Z</time>
<desc>lat.=56.052921, lon.=26.666187, Alt.=107.217834m. Speed=10.584000m/h.</desc>
<speed>2.940000</speed>
</trkpt>
<trkpt lat="56.052891" lon="26.666197">
<ele>107.661194</ele>
<time>2010-06-20T12:33:44Z</time>
<desc>lat.=56.052891, lon.=26.666197, Alt.=107.661194m. Speed=14.472000m/h.</desc>
<speed>4.020000</speed>
</trkpt>
<trkpt lat="56.052853" lon="26.666204">
<ele>107.790100</ele>
<time>2010-06-20T12:33:45Z</time>
<desc>lat.=56.052853, lon.=26.666204, Alt.=107.790100m. Speed=13.716000m/h.</desc>
<speed>3.810000</speed>
</trkpt>
<trkpt lat="56.052818" lon="26.666222">
<ele>108.040100</ele>
<time>2010-06-20T12:33:46Z</time>
<desc>lat.=56.052818, lon.=26.666222, Alt.=108.040100m. Speed=14.256000m/h.</desc>
<speed>3.960000</speed>
</trkpt>
<trkpt lat="56.052776" lon="26.666231">
<ele>107.903381</ele>
<time>2010-06-20T12:33:47Z</time>
<desc>lat.=56.052776, lon.=26.666231, Alt.=107.903381m. Speed=17.172001m/h.</desc>
<speed>4.770000</speed>
</trkpt>
<trkpt lat="56.052734" lon="26.666235">
<ele>108.069397</ele>
<time>2010-06-20T12:33:48Z</time>
<desc>lat.=56.052734, lon.=26.666235, Alt.=108.069397m. Speed=16.020000m/h.</desc>
<speed>4.450000</speed>
</trkpt>
<trkpt lat="56.052685" lon="26.666237">
<ele>107.547913</ele>
<time>2010-06-20T12:33:49Z</time>
<desc>lat.=56.052685, lon.=26.666237, Alt.=107.547913m. Speed=16.379999m/h.</desc>
<speed>4.550000</speed>
</trkpt>
<trkpt lat="56.052643" lon="26.666243">
<ele>107.399475</ele>
<time>2010-06-20T12:33:50Z</time>
<desc>lat.=56.052643, lon.=26.666243, Alt.=107.399475m. Speed=16.452000m/h.</desc>
<speed>4.570000</speed>
</trkpt>
<trkpt lat="56.052601" lon="26.666252">
<ele>106.975647</ele>
<time>2010-06-20T12:33:51Z</time>
<desc>lat.=56.052601, lon.=26.666252, Alt.=106.975647m. Speed=17.243999m/h.</desc>
<speed>4.790000</speed>
</trkpt>
<trkpt lat="56.052551" lon="26.666258">
<ele>106.006897</ele>
<time>2010-06-20T12:33:52Z</time>
<desc>lat.=56.052551, lon.=26.666258, Alt.=106.006897m. Speed=18.143999m/h.</desc>
<speed>5.040000</speed>
</trkpt>
<trkpt lat="56.052505" lon="26.666265">
<ele>105.792053</ele>
<time>2010-06-20T12:33:53Z</time>
<desc>lat.=56.052505, lon.=26.666265, Alt.=105.792053m. Speed=18.143999m/h.</desc>
<speed>5.040000</speed>
</trkpt>
<trkpt lat="56.052460" lon="26.666271">
<ele>105.647522</ele>
<time>2010-06-20T12:33:54Z</time>
<desc>lat.=56.052460, lon.=26.666271, Alt.=105.647522m. Speed=17.459999m/h.</desc>
<speed>4.850000</speed>
</trkpt>
<trkpt lat="56.052410" lon="26.666275">
<ele>105.307678</ele>
<time>2010-06-20T12:33:55Z</time>
<desc>lat.=56.052410, lon.=26.666275, Alt.=105.307678m. Speed=17.063999m/h.</desc>
<speed>4.740000</speed>
</trkpt>
<trkpt lat="56.052364" lon="26.666283">
<ele>105.542053</ele>
<time>2010-06-20T12:33:56Z</time>
<desc>lat.=56.052364, lon.=26.666283, Alt.=105.542053m. Speed=16.884001m/h.</desc>
<speed>4.690000</speed>
</trkpt>
<trkpt lat="56.052322" lon="26.666294">
<ele>105.450256</ele>
<time>2010-06-20T12:33:57Z</time>
<desc>lat.=56.052322, lon.=26.666294, Alt.=105.450256m. Speed=16.128000m/h.</desc>
<speed>4.480000</speed>
</trkpt>
<trkpt lat="56.052280" lon="26.666313">
<ele>105.794006</ele>
<time>2010-06-20T12:33:58Z</time>
<desc>lat.=56.052280, lon.=26.666313, Alt.=105.794006m. Speed=16.704000m/h.</desc>
<speed>4.640000</speed>
</trkpt>
<trkpt lat="56.052235" lon="26.666327">
<ele>105.868225</ele>
<time>2010-06-20T12:33:59Z</time>
<desc>lat.=56.052235, lon.=26.666327, Alt.=105.868225m. Speed=17.712000m/h.</desc>
<speed>4.920000</speed>
</trkpt>
<trkpt lat="56.052189" lon="26.666338">
<ele>105.872131</ele>
<time>2010-06-20T12:34:00Z</time>
<desc>lat.=56.052189, lon.=26.666338, Alt.=105.872131m. Speed=18.576000m/h.</desc>
<speed>5.160000</speed>
</trkpt>
<trkpt lat="56.052143" lon="26.666349">
<ele>105.575256</ele>
<time>2010-06-20T12:34:01Z</time>
<desc>lat.=56.052143, lon.=26.666349, Alt.=105.575256m. Speed=19.440001m/h.</desc>
<speed>5.400000</speed>
</trkpt>
<trkpt lat="56.052094" lon="26.666363">
<ele>105.460022</ele>
<time>2010-06-20T12:34:02Z</time>
<desc>lat.=56.052094, lon.=26.666363, Alt.=105.460022m. Speed=18.792000m/h.</desc>
<speed>5.220000</speed>
</trkpt>
<trkpt lat="56.052048" lon="26.666370">
<ele>105.288147</ele>
<time>2010-06-20T12:34:03Z</time>
<desc>lat.=56.052048, lon.=26.666370, Alt.=105.288147m. Speed=18.468000m/h.</desc>
<speed>5.130000</speed>
</trkpt>
<trkpt lat="56.052006" lon="26.666382">
<ele>105.038147</ele>
<time>2010-06-20T12:34:04Z</time>
<desc>lat.=56.052006, lon.=26.666382, Alt.=105.038147m. Speed=17.856001m/h.</desc>
<speed>4.960000</speed>
</trkpt>
<trkpt lat="56.051960" lon="26.666399">
<ele>104.952209</ele>
<time>2010-06-20T12:34:05Z</time>
<desc>lat.=56.051960, lon.=26.666399, Alt.=104.952209m. Speed=17.280001m/h.</desc>
<speed>4.800000</speed>
</trkpt>
<trkpt lat="56.051922" lon="26.666410">
<ele>105.055725</ele>
<time>2010-06-20T12:34:06Z</time>
<desc>lat.=56.051922, lon.=26.666410, Alt.=105.055725m. Speed=16.884001m/h.</desc>
<speed>4.690000</speed>
</trkpt>
<trkpt lat="56.051880" lon="26.666416">
<ele>104.872131</ele>
<time>2010-06-20T12:34:07Z</time>
<desc>lat.=56.051880, lon.=26.666416, Alt.=104.872131m. Speed=17.532000m/h.</desc>
<speed>4.870000</speed>
</trkpt>
<trkpt lat="56.051834" lon="26.666426">
<ele>105.307678</ele>
<time>2010-06-20T12:34:08Z</time>
<desc>lat.=56.051834, lon.=26.666426, Alt.=105.307678m. Speed=18.180000m/h.</desc>
<speed>5.050000</speed>
</trkpt>
<trkpt lat="56.051788" lon="26.666437">
<ele>105.450256</ele>
<time>2010-06-20T12:34:09Z</time>
<desc>lat.=56.051788, lon.=26.666437, Alt.=105.450256m. Speed=19.476000m/h.</desc>
<speed>5.410000</speed>
</trkpt>
<trkpt lat="56.051739" lon="26.666445">
<ele>105.876038</ele>
<time>2010-06-20T12:34:10Z</time>
<desc>lat.=56.051739, lon.=26.666445, Alt.=105.876038m. Speed=20.052000m/h.</desc>
<speed>5.570000</speed>
</trkpt>
<trkpt lat="56.051689" lon="26.666454">
<ele>106.301819</ele>
<time>2010-06-20T12:34:11Z</time>
<desc>lat.=56.051689, lon.=26.666454, Alt.=106.301819m. Speed=18.576000m/h.</desc>
<speed>5.160000</speed>
</trkpt>
<trkpt lat="56.051640" lon="26.666464">
<ele>106.266663</ele>
<time>2010-06-20T12:34:12Z</time>
<desc>lat.=56.051640, lon.=26.666464, Alt.=106.266663m. Speed=18.612000m/h.</desc>
<speed>5.170000</speed>
</trkpt>
<trkpt lat="56.051594" lon="26.666481">
<ele>106.135803</ele>
<time>2010-06-20T12:34:13Z</time>
<desc>lat.=56.051594, lon.=26.666481, Alt.=106.135803m. Speed=18.108000m/h.</desc>
<speed>5.030000</speed>
</trkpt>
<trkpt lat="56.051548" lon="26.666494">
<ele>105.956116</ele>
<time>2010-06-20T12:34:14Z</time>
<desc>lat.=56.051548, lon.=26.666494, Alt.=105.956116m. Speed=17.388000m/h.</desc>
<speed>4.830000</speed>
</trkpt>
<trkpt lat="56.051506" lon="26.666504">
<ele>105.950256</ele>
<time>2010-06-20T12:34:15Z</time>
<desc>lat.=56.051506, lon.=26.666504, Alt.=105.950256m. Speed=16.955999m/h.</desc>
<speed>4.710000</speed>
</trkpt>
<trkpt lat="56.051464" lon="26.666515">
<ele>106.096741</ele>
<time>2010-06-20T12:34:16Z</time>
<desc>lat.=56.051464, lon.=26.666515, Alt.=106.096741m. Speed=16.775999m/h.</desc>
<speed>4.660000</speed>
</trkpt>
<trkpt lat="56.051422" lon="26.666529">
<ele>105.877991</ele>
<time>2010-06-20T12:34:17Z</time>
<desc>lat.=56.051422, lon.=26.666529, Alt.=105.877991m. Speed=17.063999m/h.</desc>
<speed>4.740000</speed>
</trkpt>
<trkpt lat="56.051380" lon="26.666536">
<ele>105.661194</ele>
<time>2010-06-20T12:34:18Z</time>
<desc>lat.=56.051380, lon.=26.666536, Alt.=105.661194m. Speed=16.632000m/h.</desc>
<speed>4.620000</speed>
</trkpt>
<trkpt lat="56.051342" lon="26.666540">
<ele>105.497131</ele>
<time>2010-06-20T12:34:19Z</time>
<desc>lat.=56.051342, lon.=26.666540, Alt.=105.497131m. Speed=16.524000m/h.</desc>
<speed>4.590000</speed>
</trkpt>
<trkpt lat="56.051304" lon="26.666544">
<ele>105.217834</ele>
<time>2010-06-20T12:34:20Z</time>
<desc>lat.=56.051304, lon.=26.666544, Alt.=105.217834m. Speed=16.452000m/h.</desc>
<speed>4.570000</speed>
</trkpt>
<trkpt lat="56.051262" lon="26.666550">
<ele>105.065491</ele>
<time>2010-06-20T12:34:21Z</time>
<desc>lat.=56.051262, lon.=26.666550, Alt.=105.065491m. Speed=16.308001m/h.</desc>
<speed>4.530000</speed>
</trkpt>
<trkpt lat="56.051224" lon="26.666559">
<ele>104.807678</ele>
<time>2010-06-20T12:34:22Z</time>
<desc>lat.=56.051224, lon.=26.666559, Alt.=104.807678m. Speed=16.200001m/h.</desc>
<speed>4.500000</speed>
</trkpt>
<trkpt lat="56.051182" lon="26.666567">
<ele>104.649475</ele>
<time>2010-06-20T12:34:23Z</time>
<desc>lat.=56.051182, lon.=26.666567, Alt.=104.649475m. Speed=15.768000m/h.</desc>
<speed>4.380000</speed>
</trkpt>
<trkpt lat="56.051144" lon="26.666573">
<ele>104.397522</ele>
<time>2010-06-20T12:34:24Z</time>
<desc>lat.=56.051144, lon.=26.666573, Alt.=104.397522m. Speed=15.912000m/h.</desc>
<speed>4.420000</speed>
</trkpt>
<trkpt lat="56.051105" lon="26.666580">
<ele>104.213928</ele>
<time>2010-06-20T12:34:25Z</time>
<desc>lat.=56.051105, lon.=26.666580, Alt.=104.213928m. Speed=15.480000m/h.</desc>
<speed>4.300000</speed>
</trkpt>
<trkpt lat="56.051071" lon="26.666595">
<ele>104.124084</ele>
<time>2010-06-20T12:34:26Z</time>
<desc>lat.=56.051071, lon.=26.666595, Alt.=104.124084m. Speed=15.372000m/h.</desc>
<speed>4.270000</speed>
</trkpt>
<trkpt lat="56.051033" lon="26.666605">
<ele>103.856506</ele>
<time>2010-06-20T12:34:27Z</time>
<desc>lat.=56.051033, lon.=26.666605, Alt.=103.856506m. Speed=14.472000m/h.</desc>
<speed>4.020000</speed>
</trkpt>
<trkpt lat="56.050999" lon="26.666613">
<ele>103.458069</ele>
<time>2010-06-20T12:34:28Z</time>
<desc>lat.=56.050999, lon.=26.666613, Alt.=103.458069m. Speed=14.976000m/h.</desc>
<speed>4.160000</speed>
</trkpt>
<trkpt lat="56.050961" lon="26.666620">
<ele>103.192444</ele>
<time>2010-06-20T12:34:29Z</time>
<desc>lat.=56.050961, lon.=26.666620, Alt.=103.192444m. Speed=14.472000m/h.</desc>
<speed>4.020000</speed>
</trkpt>
<trkpt lat="56.050922" lon="26.666624">
<ele>103.055725</ele>
<time>2010-06-20T12:34:30Z</time>
<desc>lat.=56.050922, lon.=26.666624, Alt.=103.055725m. Speed=14.472000m/h.</desc>
<speed>4.020000</speed>
</trkpt>
<trkpt lat="56.050888" lon="26.666630">
<ele>102.934631</ele>
<time>2010-06-20T12:34:31Z</time>
<desc>lat.=56.050888, lon.=26.666630, Alt.=102.934631m. Speed=13.320000m/h.</desc>
<speed>3.700000</speed>
</trkpt>
<trkpt lat="56.050858" lon="26.666636">
<ele>102.879944</ele>
<time>2010-06-20T12:34:32Z</time>
<desc>lat.=56.050858, lon.=26.666636, Alt.=102.879944m. Speed=12.996000m/h.</desc>
<speed>3.610000</speed>
</trkpt>
<trkpt lat="56.050823" lon="26.666645">
<ele>102.711975</ele>
<time>2010-06-20T12:34:33Z</time>
<desc>lat.=56.050823, lon.=26.666645, Alt.=102.711975m. Speed=14.328000m/h.</desc>
<speed>3.980000</speed>
</trkpt>
<trkpt lat="56.050785" lon="26.666655">
<ele>102.573303</ele>
<time>2010-06-20T12:34:34Z</time>
<desc>lat.=56.050785, lon.=26.666655, Alt.=102.573303m. Speed=14.400000m/h.</desc>
<speed>4.000000</speed>
</trkpt>
<trkpt lat="56.050751" lon="26.666664">
<ele>102.710022</ele>
<time>2010-06-20T12:34:35Z</time>
<desc>lat.=56.050751, lon.=26.666664, Alt.=102.710022m. Speed=15.264000m/h.</desc>
<speed>4.240000</speed>
</trkpt>
<trkpt lat="56.050713" lon="26.666674">
<ele>102.960022</ele>
<time>2010-06-20T12:34:36Z</time>
<desc>lat.=56.050713, lon.=26.666674, Alt.=102.960022m. Speed=16.308001m/h.</desc>
<speed>4.530000</speed>
</trkpt>
<trkpt lat="56.050671" lon="26.666679">
<ele>102.870178</ele>
<time>2010-06-20T12:34:37Z</time>
<desc>lat.=56.050671, lon.=26.666679, Alt.=102.870178m. Speed=17.172001m/h.</desc>
<speed>4.770000</speed>
</trkpt>
<trkpt lat="56.050625" lon="26.666689">
<ele>103.071350</ele>
<time>2010-06-20T12:34:38Z</time>
<desc>lat.=56.050625, lon.=26.666689, Alt.=103.071350m. Speed=18.323999m/h.</desc>
<speed>5.090000</speed>
</trkpt>
<trkpt lat="56.050579" lon="26.666702">
<ele>103.106506</ele>
<time>2010-06-20T12:34:39Z</time>
<desc>lat.=56.050579, lon.=26.666702, Alt.=103.106506m. Speed=19.115999m/h.</desc>
<speed>5.310000</speed>
</trkpt>
<trkpt lat="56.050533" lon="26.666714">
<ele>103.071350</ele>
<time>2010-06-20T12:34:40Z</time>
<desc>lat.=56.050533, lon.=26.666714, Alt.=103.071350m. Speed=19.548000m/h.</desc>
<speed>5.430000</speed>
</trkpt>
<trkpt lat="56.050484" lon="26.666721">
<ele>102.739319</ele>
<time>2010-06-20T12:34:41Z</time>
<desc>lat.=56.050484, lon.=26.666721, Alt.=102.739319m. Speed=18.936001m/h.</desc>
<speed>5.260000</speed>
</trkpt>
<trkpt lat="56.050438" lon="26.666723">
<ele>102.004944</ele>
<time>2010-06-20T12:34:42Z</time>
<desc>lat.=56.050438, lon.=26.666723, Alt.=102.004944m. Speed=17.280001m/h.</desc>
<speed>4.800000</speed>
</trkpt>
<trkpt lat="56.050392" lon="26.666727">
<ele>101.479553</ele>
<time>2010-06-20T12:34:43Z</time>
<desc>lat.=56.050392, lon.=26.666727, Alt.=101.479553m. Speed=18.540001m/h.</desc>
<speed>5.150000</speed>
</trkpt>
<trkpt lat="56.050346" lon="26.666733">
<ele>101.092834</ele>
<time>2010-06-20T12:34:44Z</time>
<desc>lat.=56.050346, lon.=26.666733, Alt.=101.092834m. Speed=17.604000m/h.</desc>
<speed>4.890000</speed>
</trkpt>
<trkpt lat="56.050304" lon="26.666737">
<ele>100.790100</ele>
<time>2010-06-20T12:34:45Z</time>
<desc>lat.=56.050304, lon.=26.666737, Alt.=100.790100m. Speed=16.955999m/h.</desc>
<speed>4.710000</speed>
</trkpt>
<trkpt lat="56.050262" lon="26.666746">
<ele>100.528381</ele>
<time>2010-06-20T12:34:46Z</time>
<desc>lat.=56.050262, lon.=26.666746, Alt.=100.528381m. Speed=16.200001m/h.</desc>
<speed>4.500000</speed>
</trkpt>
<trkpt lat="56.050220" lon="26.666756">
<ele>100.333069</ele>
<time>2010-06-20T12:34:47Z</time>
<desc>lat.=56.050220, lon.=26.666756, Alt.=100.333069m. Speed=17.316000m/h.</desc>
<speed>4.810000</speed>
</trkpt>
<trkpt lat="56.050175" lon="26.666765">
<ele>100.202209</ele>
<time>2010-06-20T12:34:48Z</time>
<desc>lat.=56.050175, lon.=26.666765, Alt.=100.202209m. Speed=18.360001m/h.</desc>
<speed>5.100000</speed>
</trkpt>
<trkpt lat="56.050129" lon="26.666779">
<ele>100.520569</ele>
<time>2010-06-20T12:34:49Z</time>
<desc>lat.=56.050129, lon.=26.666779, Alt.=100.520569m. Speed=18.576000m/h.</desc>
<speed>5.160000</speed>
</trkpt>
<trkpt lat="56.050083" lon="26.666796">
<ele>100.557678</ele>
<time>2010-06-20T12:34:50Z</time>
<desc>lat.=56.050083, lon.=26.666796, Alt.=100.557678m. Speed=19.620001m/h.</desc>
<speed>5.450000</speed>
</trkpt>
<trkpt lat="56.050034" lon="26.666809">
<ele>100.737366</ele>
<time>2010-06-20T12:34:51Z</time>
<desc>lat.=56.050034, lon.=26.666809, Alt.=100.737366m. Speed=20.268000m/h.</desc>
<speed>5.630000</speed>
</trkpt>
<trkpt lat="56.049984" lon="26.666821">
<ele>100.729553</ele>
<time>2010-06-20T12:34:52Z</time>
<desc>lat.=56.049984, lon.=26.666821, Alt.=100.729553m. Speed=20.483999m/h.</desc>
<speed>5.690000</speed>
</trkpt>
<trkpt lat="56.049927" lon="26.666828">
<ele>100.491272</ele>
<time>2010-06-20T12:34:53Z</time>
<desc>lat.=56.049927, lon.=26.666828, Alt.=100.491272m. Speed=22.104000m/h.</desc>
<speed>6.140000</speed>
</trkpt>
<trkpt lat="56.049873" lon="26.666843">
<ele>100.411194</ele>
<time>2010-06-20T12:34:54Z</time>
<desc>lat.=56.049873, lon.=26.666843, Alt.=100.411194m. Speed=22.716000m/h.</desc>
<speed>6.310000</speed>
</trkpt>
<trkpt lat="56.049816" lon="26.666853">
<ele>100.194397</ele>
<time>2010-06-20T12:34:55Z</time>
<desc>lat.=56.049816, lon.=26.666853, Alt.=100.194397m. Speed=21.851999m/h.</desc>
<speed>6.070000</speed>
</trkpt>
<trkpt lat="56.049759" lon="26.666861">
<ele>100.254944</ele>
<time>2010-06-20T12:34:56Z</time>
<desc>lat.=56.049759, lon.=26.666861, Alt.=100.254944m. Speed=21.096001m/h.</desc>
<speed>5.860000</speed>
</trkpt>
<trkpt lat="56.049706" lon="26.666872">
<ele>99.764709</ele>
<time>2010-06-20T12:34:57Z</time>
<desc>lat.=56.049706, lon.=26.666872, Alt.=99.764709m. Speed=21.240000m/h.</desc>
<speed>5.900000</speed>
</trkpt>
<trkpt lat="56.049656" lon="26.666883">
<ele>100.006897</ele>
<time>2010-06-20T12:34:58Z</time>
<desc>lat.=56.049656, lon.=26.666883, Alt.=100.006897m. Speed=19.980000m/h.</desc>
<speed>5.550000</speed>
</trkpt>
<trkpt lat="56.049606" lon="26.666893">
<ele>99.799866</ele>
<time>2010-06-20T12:34:59Z</time>
<desc>lat.=56.049606, lon.=26.666893, Alt.=99.799866m. Speed=20.628000m/h.</desc>
<speed>5.730000</speed>
</trkpt>
<trkpt lat="56.049553" lon="26.666908">
<ele>99.922913</ele>
<time>2010-06-20T12:35:00Z</time>
<desc>lat.=56.049553, lon.=26.666908, Alt.=99.922913m. Speed=21.275999m/h.</desc>
<speed>5.910000</speed>
</trkpt>
<trkpt lat="56.049496" lon="26.666916">
<ele>99.868225</ele>
<time>2010-06-20T12:35:01Z</time>
<desc>lat.=56.049496, lon.=26.666916, Alt.=99.868225m. Speed=21.888000m/h.</desc>
<speed>6.080000</speed>
</trkpt>
<trkpt lat="56.049442" lon="26.666925">
<ele>99.751038</ele>
<time>2010-06-20T12:35:02Z</time>
<desc>lat.=56.049442, lon.=26.666925, Alt.=99.751038m. Speed=21.204000m/h.</desc>
<speed>5.890000</speed>
</trkpt>
<trkpt lat="56.049389" lon="26.666933">
<ele>99.667053</ele>
<time>2010-06-20T12:35:03Z</time>
<desc>lat.=56.049389, lon.=26.666933, Alt.=99.667053m. Speed=20.591999m/h.</desc>
<speed>5.720000</speed>
</trkpt>
<trkpt lat="56.049339" lon="26.666945">
<ele>99.600647</ele>
<time>2010-06-20T12:35:04Z</time>
<desc>lat.=56.049339, lon.=26.666945, Alt.=99.600647m. Speed=20.052000m/h.</desc>
<speed>5.570000</speed>
</trkpt>
<trkpt lat="56.049286" lon="26.666960">
<ele>99.784241</ele>
<time>2010-06-20T12:35:05Z</time>
<desc>lat.=56.049286, lon.=26.666960, Alt.=99.784241m. Speed=21.455999m/h.</desc>
<speed>5.960000</speed>
</trkpt>
<trkpt lat="56.049236" lon="26.666973">
<ele>100.161194</ele>
<time>2010-06-20T12:35:06Z</time>
<desc>lat.=56.049236, lon.=26.666973, Alt.=100.161194m. Speed=21.672001m/h.</desc>
<speed>6.020000</speed>
</trkpt>
<trkpt lat="56.049183" lon="26.666988">
<ele>100.274475</ele>
<time>2010-06-20T12:35:07Z</time>
<desc>lat.=56.049183, lon.=26.666988, Alt.=100.274475m. Speed=21.636000m/h.</desc>
<speed>6.010000</speed>
</trkpt>
<trkpt lat="56.049133" lon="26.667007">
<ele>100.241272</ele>
<time>2010-06-20T12:35:08Z</time>
<desc>lat.=56.049133, lon.=26.667007, Alt.=100.241272m. Speed=20.664000m/h.</desc>
<speed>5.740000</speed>
</trkpt>
<trkpt lat="56.049084" lon="26.667027">
<ele>100.227600</ele>
<time>2010-06-20T12:35:09Z</time>
<desc>lat.=56.049084, lon.=26.667027, Alt.=100.227600m. Speed=20.556000m/h.</desc>
<speed>5.710000</speed>
</trkpt>
<trkpt lat="56.049034" lon="26.667036">
<ele>100.088928</ele>
<time>2010-06-20T12:35:10Z</time>
<desc>lat.=56.049034, lon.=26.667036, Alt.=100.088928m. Speed=19.511999m/h.</desc>
<speed>5.420000</speed>
</trkpt>
<trkpt lat="56.048988" lon="26.667048">
<ele>99.883850</ele>
<time>2010-06-20T12:35:11Z</time>
<desc>lat.=56.048988, lon.=26.667048, Alt.=99.883850m. Speed=19.044001m/h.</desc>
<speed>5.290000</speed>
</trkpt>
<trkpt lat="56.048943" lon="26.667057">
<ele>99.807678</ele>
<time>2010-06-20T12:35:12Z</time>
<desc>lat.=56.048943, lon.=26.667057, Alt.=99.807678m. Speed=18.612000m/h.</desc>
<speed>5.170000</speed>
</trkpt>
<trkpt lat="56.048893" lon="26.667063">
<ele>99.823303</ele>
<time>2010-06-20T12:35:13Z</time>
<desc>lat.=56.048893, lon.=26.667063, Alt.=99.823303m. Speed=18.431999m/h.</desc>
<speed>5.120000</speed>
</trkpt>
<trkpt lat="56.048847" lon="26.667076">
<ele>100.085022</ele>
<time>2010-06-20T12:35:14Z</time>
<desc>lat.=56.048847, lon.=26.667076, Alt.=100.085022m. Speed=19.044001m/h.</desc>
<speed>5.290000</speed>
</trkpt>
<trkpt lat="56.048798" lon="26.667086">
<ele>100.139709</ele>
<time>2010-06-20T12:35:15Z</time>
<desc>lat.=56.048798, lon.=26.667086, Alt.=100.139709m. Speed=20.016001m/h.</desc>
<speed>5.560000</speed>
</trkpt>
<trkpt lat="56.048748" lon="26.667099">
<ele>100.174866</ele>
<time>2010-06-20T12:35:16Z</time>
<desc>lat.=56.048748, lon.=26.667099, Alt.=100.174866m. Speed=20.736000m/h.</desc>
<speed>5.760000</speed>
</trkpt>
<trkpt lat="56.048695" lon="26.667110">
<ele>100.336975</ele>
<time>2010-06-20T12:35:17Z</time>
<desc>lat.=56.048695, lon.=26.667110, Alt.=100.336975m. Speed=21.024000m/h.</desc>
<speed>5.840000</speed>
</trkpt>
<trkpt lat="56.048641" lon="26.667120">
<ele>100.385803</ele>
<time>2010-06-20T12:35:18Z</time>
<desc>lat.=56.048641, lon.=26.667120, Alt.=100.385803m. Speed=20.412001m/h.</desc>
<speed>5.670000</speed>
</trkpt>
<trkpt lat="56.048592" lon="26.667128">
<ele>100.616272</ele>
<time>2010-06-20T12:35:19Z</time>
<desc>lat.=56.048592, lon.=26.667128, Alt.=100.616272m. Speed=19.764000m/h.</desc>
<speed>5.490000</speed>
</trkpt>
<trkpt lat="56.048542" lon="26.667131">
<ele>100.604553</ele>
<time>2010-06-20T12:35:20Z</time>
<desc>lat.=56.048542, lon.=26.667131, Alt.=100.604553m. Speed=19.044001m/h.</desc>
<speed>5.290000</speed>
</trkpt>
<trkpt lat="56.048492" lon="26.667139">
<ele>100.536194</ele>
<time>2010-06-20T12:35:21Z</time>
<desc>lat.=56.048492, lon.=26.667139, Alt.=100.536194m. Speed=19.440001m/h.</desc>
<speed>5.400000</speed>
</trkpt>
<trkpt lat="56.048447" lon="26.667150">
<ele>100.571350</ele>
<time>2010-06-20T12:35:22Z</time>
<desc>lat.=56.048447, lon.=26.667150, Alt.=100.571350m. Speed=19.728001m/h.</desc>
<speed>5.480000</speed>
</trkpt>
<trkpt lat="56.048397" lon="26.667170">
<ele>100.719788</ele>
<time>2010-06-20T12:35:23Z</time>
<desc>lat.=56.048397, lon.=26.667170, Alt.=100.719788m. Speed=20.448000m/h.</desc>
<speed>5.680000</speed>
</trkpt>
<trkpt lat="56.048347" lon="26.667183">
<ele>100.778381</ele>
<time>2010-06-20T12:35:24Z</time>
<desc>lat.=56.048347, lon.=26.667183, Alt.=100.778381m. Speed=21.167999m/h.</desc>
<speed>5.880000</speed>
</trkpt>
<trkpt lat="56.048294" lon="26.667196">
<ele>100.842834</ele>
<time>2010-06-20T12:35:25Z</time>
<desc>lat.=56.048294, lon.=26.667196, Alt.=100.842834m. Speed=22.068001m/h.</desc>
<speed>6.130000</speed>
</trkpt>
<trkpt lat="56.048233" lon="26.667212">
<ele>100.895569</ele>
<time>2010-06-20T12:35:26Z</time>
<desc>lat.=56.048233, lon.=26.667212, Alt.=100.895569m. Speed=26.892000m/h.</desc>
<speed>7.470000</speed>
</trkpt>
<trkpt lat="56.048168" lon="26.667223">
<ele>101.067444</ele>
<time>2010-06-20T12:35:27Z</time>
<desc>lat.=56.048168, lon.=26.667223, Alt.=101.067444m. Speed=22.752001m/h.</desc>
<speed>6.320000</speed>
</trkpt>
<trkpt lat="56.048111" lon="26.667236">
<ele>101.141663</ele>
<time>2010-06-20T12:35:28Z</time>
<desc>lat.=56.048111, lon.=26.667236, Alt.=101.141663m. Speed=22.032000m/h.</desc>
<speed>6.120000</speed>
</trkpt>
<trkpt lat="56.048058" lon="26.667248">
<ele>101.172913</ele>
<time>2010-06-20T12:35:29Z</time>
<desc>lat.=56.048058, lon.=26.667248, Alt.=101.172913m. Speed=21.204000m/h.</desc>
<speed>5.890000</speed>
</trkpt>
<trkpt lat="56.048004" lon="26.667257">
<ele>101.290100</ele>
<time>2010-06-20T12:35:30Z</time>
<desc>lat.=56.048004, lon.=26.667257, Alt.=101.290100m. Speed=20.268000m/h.</desc>
<speed>5.630000</speed>
</trkpt>
<trkpt lat="56.047955" lon="26.667269">
<ele>101.385803</ele>
<time>2010-06-20T12:35:31Z</time>
<desc>lat.=56.047955, lon.=26.667269, Alt.=101.385803m. Speed=20.952000m/h.</desc>
<speed>5.820000</speed>
</trkpt>
<trkpt lat="56.047905" lon="26.667276">
<ele>101.376038</ele>
<time>2010-06-20T12:35:32Z</time>
<desc>lat.=56.047905, lon.=26.667276, Alt.=101.376038m. Speed=20.700001m/h.</desc>
<speed>5.750000</speed>
</trkpt>
<trkpt lat="56.047855" lon="26.667288">
<ele>101.243225</ele>
<time>2010-06-20T12:35:33Z</time>
<desc>lat.=56.047855, lon.=26.667288, Alt.=101.243225m. Speed=19.656000m/h.</desc>
<speed>5.460000</speed>
</trkpt>
<trkpt lat="56.047810" lon="26.667297">
<ele>101.067444</ele>
<time>2010-06-20T12:35:34Z</time>
<desc>lat.=56.047810, lon.=26.667297, Alt.=101.067444m. Speed=18.612000m/h.</desc>
<speed>5.170000</speed>
</trkpt>
<trkpt lat="56.047768" lon="26.667305">
<ele>100.981506</ele>
<time>2010-06-20T12:35:35Z</time>
<desc>lat.=56.047768, lon.=26.667305, Alt.=100.981506m. Speed=17.208000m/h.</desc>
<speed>4.780000</speed>
</trkpt>
<trkpt lat="56.047729" lon="26.667315">
<ele>100.815491</ele>
<time>2010-06-20T12:35:36Z</time>
<desc>lat.=56.047729, lon.=26.667315, Alt.=100.815491m. Speed=16.236000m/h.</desc>
<speed>4.510000</speed>
</trkpt>
<trkpt lat="56.047691" lon="26.667322">
<ele>100.727600</ele>
<time>2010-06-20T12:35:37Z</time>
<desc>lat.=56.047691, lon.=26.667322, Alt.=100.727600m. Speed=14.436000m/h.</desc>
<speed>4.010000</speed>
</trkpt>
<trkpt lat="56.047657" lon="26.667332">
<ele>100.858459</ele>
<time>2010-06-20T12:35:38Z</time>
<desc>lat.=56.047657, lon.=26.667332, Alt.=100.858459m. Speed=14.112000m/h.</desc>
<speed>3.920000</speed>
</trkpt>
<trkpt lat="56.047623" lon="26.667343">
<ele>100.858459</ele>
<time>2010-06-20T12:35:39Z</time>
<desc>lat.=56.047623, lon.=26.667343, Alt.=100.858459m. Speed=11.448000m/h.</desc>
<speed>3.180000</speed>
</trkpt>
<trkpt lat="56.047596" lon="26.667351">
<ele>100.903381</ele>
<time>2010-06-20T12:35:40Z</time>
<desc>lat.=56.047596, lon.=26.667351, Alt.=100.903381m. Speed=12.888000m/h.</desc>
<speed>3.580000</speed>
</trkpt>
<trkpt lat="56.047565" lon="26.667370">
<ele>101.417053</ele>
<time>2010-06-20T12:35:41Z</time>
<desc>lat.=56.047565, lon.=26.667370, Alt.=101.417053m. Speed=13.896000m/h.</desc>
<speed>3.860000</speed>
</trkpt>
<trkpt lat="56.047531" lon="26.667387">
<ele>101.508850</ele>
<time>2010-06-20T12:35:42Z</time>
<desc>lat.=56.047531, lon.=26.667387, Alt.=101.508850m. Speed=14.796000m/h.</desc>
<speed>4.110000</speed>
</trkpt>
<trkpt lat="56.047497" lon="26.667404">
<ele>102.372131</ele>
<time>2010-06-20T12:35:43Z</time>
<desc>lat.=56.047497, lon.=26.667404, Alt.=102.372131m. Speed=15.624000m/h.</desc>
<speed>4.340000</speed>
</trkpt>
<trkpt lat="56.047459" lon="26.667416">
<ele>102.506897</ele>
<time>2010-06-20T12:35:44Z</time>
<desc>lat.=56.047459, lon.=26.667416, Alt.=102.506897m. Speed=16.524000m/h.</desc>
<speed>4.590000</speed>
</trkpt>
<trkpt lat="56.047417" lon="26.667421">
<ele>102.866272</ele>
<time>2010-06-20T12:35:45Z</time>
<desc>lat.=56.047417, lon.=26.667421, Alt.=102.866272m. Speed=16.812000m/h.</desc>
<speed>4.670000</speed>
</trkpt>
<trkpt lat="56.047375" lon="26.667427">
<ele>102.573303</ele>
<time>2010-06-20T12:35:46Z</time>
<desc>lat.=56.047375, lon.=26.667427, Alt.=102.573303m. Speed=17.172001m/h.</desc>
<speed>4.770000</speed>
</trkpt>
<trkpt lat="56.047329" lon="26.667435">
<ele>102.600647</ele>
<time>2010-06-20T12:35:47Z</time>
<desc>lat.=56.047329, lon.=26.667435, Alt.=102.600647m. Speed=18.143999m/h.</desc>
<speed>5.040000</speed>
</trkpt>
<trkpt lat="56.047287" lon="26.667444">
<ele>102.292053</ele>
<time>2010-06-20T12:35:48Z</time>
<desc>lat.=56.047287, lon.=26.667444, Alt.=102.292053m. Speed=17.388000m/h.</desc>
<speed>4.830000</speed>
</trkpt>
<trkpt lat="56.047245" lon="26.667452">
<ele>102.147522</ele>
<time>2010-06-20T12:35:49Z</time>
<desc>lat.=56.047245, lon.=26.667452, Alt.=102.147522m. Speed=16.740000m/h.</desc>
<speed>4.650000</speed>
</trkpt>
<trkpt lat="56.047203" lon="26.667456">
<ele>102.129944</ele>
<time>2010-06-20T12:35:50Z</time>
<desc>lat.=56.047203, lon.=26.667456, Alt.=102.129944m. Speed=16.128000m/h.</desc>
<speed>4.480000</speed>
</trkpt>
<trkpt lat="56.047165" lon="26.667461">
<ele>101.991272</ele>
<time>2010-06-20T12:35:51Z</time>
<desc>lat.=56.047165, lon.=26.667461, Alt.=101.991272m. Speed=15.408000m/h.</desc>
<speed>4.280000</speed>
</trkpt>
<trkpt lat="56.047127" lon="26.667469">
<ele>101.881897</ele>
<time>2010-06-20T12:35:52Z</time>
<desc>lat.=56.047127, lon.=26.667469, Alt.=101.881897m. Speed=15.084000m/h.</desc>
<speed>4.190000</speed>
</trkpt>
<trkpt lat="56.047089" lon="26.667477">
<ele>101.370178</ele>
<time>2010-06-20T12:35:53Z</time>
<desc>lat.=56.047089, lon.=26.667477, Alt.=101.370178m. Speed=14.688000m/h.</desc>
<speed>4.080000</speed>
</trkpt>
<trkpt lat="56.047050" lon="26.667486">
<ele>101.731506</ele>
<time>2010-06-20T12:35:54Z</time>
<desc>lat.=56.047050, lon.=26.667486, Alt.=101.731506m. Speed=16.416000m/h.</desc>
<speed>4.560000</speed>
</trkpt>
<trkpt lat="56.047012" lon="26.667492">
<ele>101.651428</ele>
<time>2010-06-20T12:35:55Z</time>
<desc>lat.=56.047012, lon.=26.667492, Alt.=101.651428m. Speed=16.740000m/h.</desc>
<speed>4.650000</speed>
</trkpt>
<trkpt lat="56.046970" lon="26.667503">
<ele>102.163147</ele>
<time>2010-06-20T12:35:56Z</time>
<desc>lat.=56.046970, lon.=26.667503, Alt.=102.163147m. Speed=17.316000m/h.</desc>
<speed>4.810000</speed>
</trkpt>
<trkpt lat="56.046925" lon="26.667509">
<ele>102.139709</ele>
<time>2010-06-20T12:35:57Z</time>
<desc>lat.=56.046925, lon.=26.667509, Alt.=102.139709m. Speed=17.964001m/h.</desc>
<speed>4.990000</speed>
</trkpt>
<trkpt lat="56.046879" lon="26.667515">
<ele>102.233459</ele>
<time>2010-06-20T12:35:58Z</time>
<desc>lat.=56.046879, lon.=26.667515, Alt.=102.233459m. Speed=18.035999m/h.</desc>
<speed>5.010000</speed>
</trkpt>
<trkpt lat="56.046833" lon="26.667524">
<ele>102.202209</ele>
<time>2010-06-20T12:35:59Z</time>
<desc>lat.=56.046833, lon.=26.667524, Alt.=102.202209m. Speed=17.028000m/h.</desc>
<speed>4.730000</speed>
</trkpt>
<trkpt lat="56.046791" lon="26.667538">
<ele>102.278381</ele>
<time>2010-06-20T12:36:00Z</time>
<desc>lat.=56.046791, lon.=26.667538, Alt.=102.278381m. Speed=16.200001m/h.</desc>
<speed>4.500000</speed>
</trkpt>
<trkpt lat="56.046749" lon="26.667545">
<ele>102.315491</ele>
<time>2010-06-20T12:36:01Z</time>
<desc>lat.=56.046749, lon.=26.667545, Alt.=102.315491m. Speed=15.372000m/h.</desc>
<speed>4.270000</speed>
</trkpt>
<trkpt lat="56.046715" lon="26.667551">
<ele>102.141663</ele>
<time>2010-06-20T12:36:02Z</time>
<desc>lat.=56.046715, lon.=26.667551, Alt.=102.141663m. Speed=14.688000m/h.</desc>
<speed>4.080000</speed>
</trkpt>
<trkpt lat="56.046680" lon="26.667553">
<ele>102.063538</ele>
<time>2010-06-20T12:36:03Z</time>
<desc>lat.=56.046680, lon.=26.667553, Alt.=102.063538m. Speed=13.968000m/h.</desc>
<speed>3.880000</speed>
</trkpt>
<trkpt lat="56.046646" lon="26.667553">
<ele>102.147522</ele>
<time>2010-06-20T12:36:04Z</time>
<desc>lat.=56.046646, lon.=26.667553, Alt.=102.147522m. Speed=12.960000m/h.</desc>
<speed>3.600000</speed>
</trkpt>
<trkpt lat="56.046616" lon="26.667557">
<ele>102.090881</ele>
<time>2010-06-20T12:36:05Z</time>
<desc>lat.=56.046616, lon.=26.667557, Alt.=102.090881m. Speed=12.276000m/h.</desc>
<speed>3.410000</speed>
</trkpt>
<trkpt lat="56.046581" lon="26.667562">
<ele>102.344788</ele>
<time>2010-06-20T12:36:06Z</time>
<desc>lat.=56.046581, lon.=26.667562, Alt.=102.344788m. Speed=11.844000m/h.</desc>
<speed>3.290000</speed>
</trkpt>
<trkpt lat="56.046555" lon="26.667570">
<ele>103.971741</ele>
<time>2010-06-20T12:36:07Z</time>
<desc>lat.=56.046555, lon.=26.667570, Alt.=103.971741m. Speed=11.736000m/h.</desc>
<speed>3.260000</speed>
</trkpt>
<trkpt lat="56.046528" lon="26.667574">
<ele>104.836975</ele>
<time>2010-06-20T12:36:08Z</time>
<desc>lat.=56.046528, lon.=26.667574, Alt.=104.836975m. Speed=9.972000m/h.</desc>
<speed>2.770000</speed>
</trkpt>
<trkpt lat="56.046505" lon="26.667585">
<ele>105.354553</ele>
<time>2010-06-20T12:36:09Z</time>
<desc>lat.=56.046505, lon.=26.667585, Alt.=105.354553m. Speed=9.648000m/h.</desc>
<speed>2.680000</speed>
</trkpt>
<trkpt lat="56.046482" lon="26.667601">
<ele>105.838928</ele>
<time>2010-06-20T12:36:10Z</time>
<desc>lat.=56.046482, lon.=26.667601, Alt.=105.838928m. Speed=9.648000m/h.</desc>
<speed>2.680000</speed>
</trkpt>
<trkpt lat="56.046463" lon="26.667608">
<ele>106.350647</ele>
<time>2010-06-20T12:36:11Z</time>
<desc>lat.=56.046463, lon.=26.667608, Alt.=106.350647m. Speed=8.316000m/h.</desc>
<speed>2.310000</speed>
</trkpt>
<trkpt lat="56.046444" lon="26.667614">
<ele>107.044006</ele>
<time>2010-06-20T12:36:12Z</time>
<desc>lat.=56.046444, lon.=26.667614, Alt.=107.044006m. Speed=8.316000m/h.</desc>
<speed>2.310000</speed>
</trkpt>
<trkpt lat="56.046421" lon="26.667618">
<ele>107.633850</ele>
<time>2010-06-20T12:36:13Z</time>
<desc>lat.=56.046421, lon.=26.667618, Alt.=107.633850m. Speed=10.044000m/h.</desc>
<speed>2.790000</speed>
</trkpt>
<trkpt lat="56.046402" lon="26.667622">
<ele>108.178772</ele>
<time>2010-06-20T12:36:14Z</time>
<desc>lat.=56.046402, lon.=26.667622, Alt.=108.178772m. Speed=8.640000m/h.</desc>
<speed>2.400000</speed>
</trkpt>
<trkpt lat="56.046379" lon="26.667629">
<ele>108.194397</ele>
<time>2010-06-20T12:36:15Z</time>
<desc>lat.=56.046379, lon.=26.667629, Alt.=108.194397m. Speed=9.144000m/h.</desc>
<speed>2.540000</speed>
</trkpt>
<trkpt lat="56.046356" lon="26.667646">
<ele>108.100647</ele>
<time>2010-06-20T12:36:16Z</time>
<desc>lat.=56.046356, lon.=26.667646, Alt.=108.100647m. Speed=9.432000m/h.</desc>
<speed>2.620000</speed>
</trkpt>
<trkpt lat="56.046333" lon="26.667664">
<ele>107.407288</ele>
<time>2010-06-20T12:36:17Z</time>
<desc>lat.=56.046333, lon.=26.667664, Alt.=107.407288m. Speed=8.208000m/h.</desc>
<speed>2.280000</speed>
</trkpt>
<trkpt lat="56.046314" lon="26.667677">
<ele>107.524475</ele>
<time>2010-06-20T12:36:18Z</time>
<desc>lat.=56.046314, lon.=26.667677, Alt.=107.524475m. Speed=7.704000m/h.</desc>
<speed>2.140000</speed>
</trkpt>
<trkpt lat="56.046295" lon="26.667686">
<ele>107.397522</ele>
<time>2010-06-20T12:36:19Z</time>
<desc>lat.=56.046295, lon.=26.667686, Alt.=107.397522m. Speed=8.460000m/h.</desc>
<speed>2.350000</speed>
</trkpt>
<trkpt lat="56.046276" lon="26.667692">
<ele>105.975647</ele>
<time>2010-06-20T12:36:20Z</time>
<desc>lat.=56.046276, lon.=26.667692, Alt.=105.975647m. Speed=8.460000m/h.</desc>
<speed>2.350000</speed>
</trkpt>
<trkpt lat="56.046257" lon="26.667702">
<ele>104.889709</ele>
<time>2010-06-20T12:36:21Z</time>
<desc>lat.=56.046257, lon.=26.667702, Alt.=104.889709m. Speed=8.028000m/h.</desc>
<speed>2.230000</speed>
</trkpt>
<trkpt lat="56.046238" lon="26.667711">
<ele>103.930725</ele>
<time>2010-06-20T12:36:22Z</time>
<desc>lat.=56.046238, lon.=26.667711, Alt.=103.930725m. Speed=8.100000m/h.</desc>
<speed>2.250000</speed>
</trkpt>
<trkpt lat="56.046219" lon="26.667713">
<ele>103.067444</ele>
<time>2010-06-20T12:36:23Z</time>
<desc>lat.=56.046219, lon.=26.667713, Alt.=103.067444m. Speed=8.820000m/h.</desc>
<speed>2.450000</speed>
</trkpt>
<trkpt lat="56.046196" lon="26.667713">
<ele>102.643616</ele>
<time>2010-06-20T12:36:24Z</time>
<desc>lat.=56.046196, lon.=26.667713, Alt.=102.643616m. Speed=10.296000m/h.</desc>
<speed>2.860000</speed>
</trkpt>
<trkpt lat="56.046173" lon="26.667706">
<ele>103.850647</ele>
<time>2010-06-20T12:36:25Z</time>
<desc>lat.=56.046173, lon.=26.667706, Alt.=103.850647m. Speed=10.980000m/h.</desc>
<speed>3.050000</speed>
</trkpt>
<trkpt lat="56.046143" lon="26.667704">
<ele>103.792053</ele>
<time>2010-06-20T12:36:26Z</time>
<desc>lat.=56.046143, lon.=26.667704, Alt.=103.792053m. Speed=12.096000m/h.</desc>
<speed>3.360000</speed>
</trkpt>
<trkpt lat="56.046112" lon="26.667709">
<ele>103.491272</ele>
<time>2010-06-20T12:36:27Z</time>
<desc>lat.=56.046112, lon.=26.667709, Alt.=103.491272m. Speed=13.320000m/h.</desc>
<speed>3.700000</speed>
</trkpt>
<trkpt lat="56.046078" lon="26.667715">
<ele>103.946350</ele>
<time>2010-06-20T12:36:28Z</time>
<desc>lat.=56.046078, lon.=26.667715, Alt.=103.946350m. Speed=13.932000m/h.</desc>
<speed>3.870000</speed>
</trkpt>
<trkpt lat="56.046040" lon="26.667721">
<ele>103.893616</ele>
<time>2010-06-20T12:36:29Z</time>
<desc>lat.=56.046040, lon.=26.667721, Alt.=103.893616m. Speed=14.508000m/h.</desc>
<speed>4.030000</speed>
</trkpt>
<trkpt lat="56.046005" lon="26.667725">
<ele>103.821350</ele>
<time>2010-06-20T12:36:30Z</time>
<desc>lat.=56.046005, lon.=26.667725, Alt.=103.821350m. Speed=14.904000m/h.</desc>
<speed>4.140000</speed>
</trkpt>
<trkpt lat="56.045963" lon="26.667730">
<ele>103.725647</ele>
<time>2010-06-20T12:36:31Z</time>
<desc>lat.=56.045963, lon.=26.667730, Alt.=103.725647m. Speed=15.552000m/h.</desc>
<speed>4.320000</speed>
</trkpt>
<trkpt lat="56.045925" lon="26.667734">
<ele>103.920959</ele>
<time>2010-06-20T12:36:32Z</time>
<desc>lat.=56.045925, lon.=26.667734, Alt.=103.920959m. Speed=16.020000m/h.</desc>
<speed>4.450000</speed>
</trkpt>
<trkpt lat="56.045879" lon="26.667736">
<ele>104.235413</ele>
<time>2010-06-20T12:36:33Z</time>
<desc>lat.=56.045879, lon.=26.667736, Alt.=104.235413m. Speed=16.452000m/h.</desc>
<speed>4.570000</speed>
</trkpt>
<trkpt lat="56.045841" lon="26.667744">
<ele>104.305725</ele>
<time>2010-06-20T12:36:34Z</time>
<desc>lat.=56.045841, lon.=26.667744, Alt.=104.305725m. Speed=15.840000m/h.</desc>
<speed>4.400000</speed>
</trkpt>
<trkpt lat="56.045799" lon="26.667749">
<ele>104.155334</ele>
<time>2010-06-20T12:36:35Z</time>
<desc>lat.=56.045799, lon.=26.667749, Alt.=104.155334m. Speed=14.796000m/h.</desc>
<speed>4.110000</speed>
</trkpt>
<trkpt lat="56.045765" lon="26.667757">
<ele>104.151428</ele>
<time>2010-06-20T12:36:36Z</time>
<desc>lat.=56.045765, lon.=26.667757, Alt.=104.151428m. Speed=15.156000m/h.</desc>
<speed>4.210000</speed>
</trkpt>
<trkpt lat="56.045731" lon="26.667761">
<ele>104.085022</ele>
<time>2010-06-20T12:36:37Z</time>
<desc>lat.=56.045731, lon.=26.667761, Alt.=104.085022m. Speed=15.408000m/h.</desc>
<speed>4.280000</speed>
</trkpt>
<trkpt lat="56.045689" lon="26.667774">
<ele>103.965881</ele>
<time>2010-06-20T12:36:38Z</time>
<desc>lat.=56.045689, lon.=26.667774, Alt.=103.965881m. Speed=15.768000m/h.</desc>
<speed>4.380000</speed>
</trkpt>
<trkpt lat="56.045650" lon="26.667782">
<ele>104.079163</ele>
<time>2010-06-20T12:36:39Z</time>
<desc>lat.=56.045650, lon.=26.667782, Alt.=104.079163m. Speed=16.091999m/h.</desc>
<speed>4.470000</speed>
</trkpt>
<trkpt lat="56.045612" lon="26.667789">
<ele>103.944397</ele>
<time>2010-06-20T12:36:40Z</time>
<desc>lat.=56.045612, lon.=26.667789, Alt.=103.944397m. Speed=15.948000m/h.</desc>
<speed>4.430000</speed>
</trkpt>
<trkpt lat="56.045574" lon="26.667791">
<ele>103.893616</ele>
<time>2010-06-20T12:36:41Z</time>
<desc>lat.=56.045574, lon.=26.667791, Alt.=103.893616m. Speed=15.156000m/h.</desc>
<speed>4.210000</speed>
</trkpt>
<trkpt lat="56.045536" lon="26.667793">
<ele>103.950256</ele>
<time>2010-06-20T12:36:42Z</time>
<desc>lat.=56.045536, lon.=26.667793, Alt.=103.950256m. Speed=14.436000m/h.</desc>
<speed>4.010000</speed>
</trkpt>
<trkpt lat="56.045502" lon="26.667807">
<ele>103.864319</ele>
<time>2010-06-20T12:36:43Z</time>
<desc>lat.=56.045502, lon.=26.667807, Alt.=103.864319m. Speed=14.400000m/h.</desc>
<speed>4.000000</speed>
</trkpt>
<trkpt lat="56.045464" lon="26.667814">
<ele>104.145569</ele>
<time>2010-06-20T12:36:44Z</time>
<desc>lat.=56.045464, lon.=26.667814, Alt.=104.145569m. Speed=15.192000m/h.</desc>
<speed>4.220000</speed>
</trkpt>
<trkpt lat="56.045425" lon="26.667824">
<ele>104.315491</ele>
<time>2010-06-20T12:36:45Z</time>
<desc>lat.=56.045425, lon.=26.667824, Alt.=104.315491m. Speed=15.696000m/h.</desc>
<speed>4.360000</speed>
</trkpt>
<trkpt lat="56.045387" lon="26.667831">
<ele>104.196350</ele>
<time>2010-06-20T12:36:46Z</time>
<desc>lat.=56.045387, lon.=26.667831, Alt.=104.196350m. Speed=16.200001m/h.</desc>
<speed>4.500000</speed>
</trkpt>
<trkpt lat="56.045349" lon="26.667839">
<ele>104.008850</ele>
<time>2010-06-20T12:36:47Z</time>
<desc>lat.=56.045349, lon.=26.667839, Alt.=104.008850m. Speed=15.264000m/h.</desc>
<speed>4.240000</speed>
</trkpt>
<trkpt lat="56.045315" lon="26.667847">
<ele>103.958069</ele>
<time>2010-06-20T12:36:48Z</time>
<desc>lat.=56.045315, lon.=26.667847, Alt.=103.958069m. Speed=14.688000m/h.</desc>
<speed>4.080000</speed>
</trkpt>
<trkpt lat="56.045280" lon="26.667856">
<ele>103.809631</ele>
<time>2010-06-20T12:36:49Z</time>
<desc>lat.=56.045280, lon.=26.667856, Alt.=103.809631m. Speed=13.752000m/h.</desc>
<speed>3.820000</speed>
</trkpt>
<trkpt lat="56.045246" lon="26.667868">
<ele>103.641663</ele>
<time>2010-06-20T12:36:50Z</time>
<desc>lat.=56.045246, lon.=26.667868, Alt.=103.641663m. Speed=14.328000m/h.</desc>
<speed>3.980000</speed>
</trkpt>
<trkpt lat="56.045212" lon="26.667879">
<ele>103.661194</ele>
<time>2010-06-20T12:36:51Z</time>
<desc>lat.=56.045212, lon.=26.667879, Alt.=103.661194m. Speed=14.904000m/h.</desc>
<speed>4.140000</speed>
</trkpt>
<trkpt lat="56.045174" lon="26.667887">
<ele>103.655334</ele>
<time>2010-06-20T12:36:52Z</time>
<desc>lat.=56.045174, lon.=26.667887, Alt.=103.655334m. Speed=15.228000m/h.</desc>
<speed>4.230000</speed>
</trkpt>
<trkpt lat="56.045135" lon="26.667896">
<ele>103.706116</ele>
<time>2010-06-20T12:36:53Z</time>
<desc>lat.=56.045135, lon.=26.667896, Alt.=103.706116m. Speed=15.948000m/h.</desc>
<speed>4.430000</speed>
</trkpt>
<trkpt lat="56.045094" lon="26.667904">
<ele>104.202209</ele>
<time>2010-06-20T12:36:54Z</time>
<desc>lat.=56.045094, lon.=26.667904, Alt.=104.202209m. Speed=16.740000m/h.</desc>
<speed>4.650000</speed>
</trkpt>
<trkpt lat="56.045052" lon="26.667912">
<ele>104.122131</ele>
<time>2010-06-20T12:36:55Z</time>
<desc>lat.=56.045052, lon.=26.667912, Alt.=104.122131m. Speed=16.667999m/h.</desc>
<speed>4.630000</speed>
</trkpt>
<trkpt lat="56.045013" lon="26.667923">
<ele>104.092834</ele>
<time>2010-06-20T12:36:56Z</time>
<desc>lat.=56.045013, lon.=26.667923, Alt.=104.092834m. Speed=15.696000m/h.</desc>
<speed>4.360000</speed>
</trkpt>
<trkpt lat="56.044975" lon="26.667938">
<ele>103.725647</ele>
<time>2010-06-20T12:36:57Z</time>
<desc>lat.=56.044975, lon.=26.667938, Alt.=103.725647m. Speed=14.976000m/h.</desc>
<speed>4.160000</speed>
</trkpt>
<trkpt lat="56.044937" lon="26.667948">
<ele>103.768616</ele>
<time>2010-06-20T12:36:58Z</time>
<desc>lat.=56.044937, lon.=26.667948, Alt.=103.768616m. Speed=13.752000m/h.</desc>
<speed>3.820000</speed>
</trkpt>
<trkpt lat="56.044903" lon="26.667961">
<ele>104.001038</ele>
<time>2010-06-20T12:36:59Z</time>
<desc>lat.=56.044903, lon.=26.667961, Alt.=104.001038m. Speed=14.292000m/h.</desc>
<speed>3.970000</speed>
</trkpt>
<trkpt lat="56.044868" lon="26.667982">
<ele>104.899475</ele>
<time>2010-06-20T12:37:00Z</time>
<desc>lat.=56.044868, lon.=26.667982, Alt.=104.899475m. Speed=14.616000m/h.</desc>
<speed>4.060000</speed>
</trkpt>
<trkpt lat="56.044834" lon="26.668005">
<ele>105.403381</ele>
<time>2010-06-20T12:37:01Z</time>
<desc>lat.=56.044834, lon.=26.668005, Alt.=105.403381m. Speed=15.192000m/h.</desc>
<speed>4.220000</speed>
</trkpt>
<trkpt lat="56.044796" lon="26.668022">
<ele>105.954163</ele>
<time>2010-06-20T12:37:02Z</time>
<desc>lat.=56.044796, lon.=26.668022, Alt.=105.954163m. Speed=15.696000m/h.</desc>
<speed>4.360000</speed>
</trkpt>
<trkpt lat="56.044758" lon="26.668037">
<ele>106.092834</ele>
<time>2010-06-20T12:37:03Z</time>
<desc>lat.=56.044758, lon.=26.668037, Alt.=106.092834m. Speed=15.768000m/h.</desc>
<speed>4.380000</speed>
</trkpt>
<trkpt lat="56.044724" lon="26.668056">
<ele>106.471741</ele>
<time>2010-06-20T12:37:04Z</time>
<desc>lat.=56.044724, lon.=26.668056, Alt.=106.471741m. Speed=16.091999m/h.</desc>
<speed>4.470000</speed>
</trkpt>
<trkpt lat="56.044689" lon="26.668074">
<ele>106.688538</ele>
<time>2010-06-20T12:37:05Z</time>
<desc>lat.=56.044689, lon.=26.668074, Alt.=106.688538m. Speed=15.156000m/h.</desc>
<speed>4.210000</speed>
</trkpt>
<trkpt lat="56.044655" lon="26.668098">
<ele>107.258850</ele>
<time>2010-06-20T12:37:06Z</time>
<desc>lat.=56.044655, lon.=26.668098, Alt.=107.258850m. Speed=14.616000m/h.</desc>
<speed>4.060000</speed>
</trkpt>
<trkpt lat="56.044621" lon="26.668121">
<ele>107.854553</ele>
<time>2010-06-20T12:37:07Z</time>
<desc>lat.=56.044621, lon.=26.668121, Alt.=107.854553m. Speed=15.120000m/h.</desc>
<speed>4.200000</speed>
</trkpt>
<trkpt lat="56.044586" lon="26.668148">
<ele>108.321350</ele>
<time>2010-06-20T12:37:08Z</time>
<desc>lat.=56.044586, lon.=26.668148, Alt.=108.321350m. Speed=16.056000m/h.</desc>
<speed>4.460000</speed>
</trkpt>
<trkpt lat="56.044548" lon="26.668163">
<ele>108.934631</ele>
<time>2010-06-20T12:37:09Z</time>
<desc>lat.=56.044548, lon.=26.668163, Alt.=108.934631m. Speed=16.200001m/h.</desc>
<speed>4.500000</speed>
</trkpt>
<trkpt lat="56.044510" lon="26.668184">
<ele>109.172913</ele>
<time>2010-06-20T12:37:10Z</time>
<desc>lat.=56.044510, lon.=26.668184, Alt.=109.172913m. Speed=16.848000m/h.</desc>
<speed>4.680000</speed>
</trkpt>
<trkpt lat="56.044472" lon="26.668205">
<ele>109.565491</ele>
<time>2010-06-20T12:37:11Z</time>
<desc>lat.=56.044472, lon.=26.668205, Alt.=109.565491m. Speed=17.424000m/h.</desc>
<speed>4.840000</speed>
</trkpt>
<trkpt lat="56.044434" lon="26.668230">
<ele>109.504944</ele>
<time>2010-06-20T12:37:12Z</time>
<desc>lat.=56.044434, lon.=26.668230, Alt.=109.504944m. Speed=17.208000m/h.</desc>
<speed>4.780000</speed>
</trkpt>
<trkpt lat="56.044395" lon="26.668259">
<ele>109.540100</ele>
<time>2010-06-20T12:37:13Z</time>
<desc>lat.=56.044395, lon.=26.668259, Alt.=109.540100m. Speed=16.344000m/h.</desc>
<speed>4.540000</speed>
</trkpt>
<trkpt lat="56.044357" lon="26.668285">
<ele>109.686584</ele>
<time>2010-06-20T12:37:14Z</time>
<desc>lat.=56.044357, lon.=26.668285, Alt.=109.686584m. Speed=16.308001m/h.</desc>
<speed>4.530000</speed>
</trkpt>
<trkpt lat="56.044319" lon="26.668312">
<ele>109.678772</ele>
<time>2010-06-20T12:37:15Z</time>
<desc>lat.=56.044319, lon.=26.668312, Alt.=109.678772m. Speed=16.775999m/h.</desc>
<speed>4.660000</speed>
</trkpt>
<trkpt lat="56.044277" lon="26.668339">
<ele>109.710022</ele>
<time>2010-06-20T12:37:16Z</time>
<desc>lat.=56.044277, lon.=26.668339, Alt.=109.710022m. Speed=17.496000m/h.</desc>
<speed>4.860000</speed>
</trkpt>
<trkpt lat="56.044235" lon="26.668371">
<ele>109.495178</ele>
<time>2010-06-20T12:37:17Z</time>
<desc>lat.=56.044235, lon.=26.668371, Alt.=109.495178m. Speed=16.920000m/h.</desc>
<speed>4.700000</speed>
</trkpt>
<trkpt lat="56.044189" lon="26.668400">
<ele>109.274475</ele>
<time>2010-06-20T12:37:18Z</time>
<desc>lat.=56.044189, lon.=26.668400, Alt.=109.274475m. Speed=18.216000m/h.</desc>
<speed>5.060000</speed>
</trkpt>
<trkpt lat="56.044147" lon="26.668427">
<ele>109.258850</ele>
<time>2010-06-20T12:37:19Z</time>
<desc>lat.=56.044147, lon.=26.668427, Alt.=109.258850m. Speed=17.639999m/h.</desc>
<speed>4.900000</speed>
</trkpt>
<trkpt lat="56.044106" lon="26.668455">
<ele>109.213928</ele>
<time>2010-06-20T12:37:20Z</time>
<desc>lat.=56.044106, lon.=26.668455, Alt.=109.213928m. Speed=17.316000m/h.</desc>
<speed>4.810000</speed>
</trkpt>
<trkpt lat="56.044064" lon="26.668488">
<ele>109.239319</ele>
<time>2010-06-20T12:37:21Z</time>
<desc>lat.=56.044064, lon.=26.668488, Alt.=109.239319m. Speed=17.892000m/h.</desc>
<speed>4.970000</speed>
</trkpt>
<trkpt lat="56.044025" lon="26.668522">
<ele>109.262756</ele>
<time>2010-06-20T12:37:22Z</time>
<desc>lat.=56.044025, lon.=26.668522, Alt.=109.262756m. Speed=17.496000m/h.</desc>
<speed>4.860000</speed>
</trkpt>
<trkpt lat="56.043983" lon="26.668552">
<ele>109.342834</ele>
<time>2010-06-20T12:37:23Z</time>
<desc>lat.=56.043983, lon.=26.668552, Alt.=109.342834m. Speed=16.704000m/h.</desc>
<speed>4.640000</speed>
</trkpt>
<trkpt lat="56.043945" lon="26.668581">
<ele>109.364319</ele>
<time>2010-06-20T12:37:24Z</time>
<desc>lat.=56.043945, lon.=26.668581, Alt.=109.364319m. Speed=16.020000m/h.</desc>
<speed>4.450000</speed>
</trkpt>
<trkpt lat="56.043911" lon="26.668610">
<ele>109.501038</ele>
<time>2010-06-20T12:37:25Z</time>
<desc>lat.=56.043911, lon.=26.668610, Alt.=109.501038m. Speed=15.300000m/h.</desc>
<speed>4.250000</speed>
</trkpt>
<trkpt lat="56.043873" lon="26.668638">
<ele>109.544006</ele>
<time>2010-06-20T12:37:26Z</time>
<desc>lat.=56.043873, lon.=26.668638, Alt.=109.544006m. Speed=15.660000m/h.</desc>
<speed>4.350000</speed>
</trkpt>
<trkpt lat="56.043835" lon="26.668663">
<ele>109.557678</ele>
<time>2010-06-20T12:37:27Z</time>
<desc>lat.=56.043835, lon.=26.668663, Alt.=109.557678m. Speed=16.271999m/h.</desc>
<speed>4.520000</speed>
</trkpt>
<trkpt lat="56.043797" lon="26.668690">
<ele>109.577209</ele>
<time>2010-06-20T12:37:28Z</time>
<desc>lat.=56.043797, lon.=26.668690, Alt.=109.577209m. Speed=16.848000m/h.</desc>
<speed>4.680000</speed>
</trkpt>
<trkpt lat="56.043755" lon="26.668715">
<ele>109.579163</ele>
<time>2010-06-20T12:37:29Z</time>
<desc>lat.=56.043755, lon.=26.668715, Alt.=109.579163m. Speed=17.532000m/h.</desc>
<speed>4.870000</speed>
</trkpt>
<trkpt lat="56.043713" lon="26.668745">
<ele>109.516663</ele>
<time>2010-06-20T12:37:30Z</time>
<desc>lat.=56.043713, lon.=26.668745, Alt.=109.516663m. Speed=18.252001m/h.</desc>
<speed>5.070000</speed>
</trkpt>
<trkpt lat="56.043671" lon="26.668777">
<ele>109.432678</ele>
<time>2010-06-20T12:37:31Z</time>
<desc>lat.=56.043671, lon.=26.668777, Alt.=109.432678m. Speed=18.576000m/h.</desc>
<speed>5.160000</speed>
</trkpt>
<trkpt lat="56.043629" lon="26.668810">
<ele>110.086975</ele>
<time>2010-06-20T12:37:32Z</time>
<desc>lat.=56.043629, lon.=26.668810, Alt.=110.086975m. Speed=18.648001m/h.</desc>
<speed>5.180000</speed>
</trkpt>
<trkpt lat="56.043591" lon="26.668839">
<ele>110.239319</ele>
<time>2010-06-20T12:37:33Z</time>
<desc>lat.=56.043591, lon.=26.668839, Alt.=110.239319m. Speed=17.351999m/h.</desc>
<speed>4.820000</speed>
</trkpt>
<trkpt lat="56.043549" lon="26.668865">
<ele>110.208069</ele>
<time>2010-06-20T12:37:34Z</time>
<desc>lat.=56.043549, lon.=26.668865, Alt.=110.208069m. Speed=16.632000m/h.</desc>
<speed>4.620000</speed>
</trkpt>
<trkpt lat="56.043514" lon="26.668894">
<ele>110.254944</ele>
<time>2010-06-20T12:37:35Z</time>
<desc>lat.=56.043514, lon.=26.668894, Alt.=110.254944m. Speed=15.912000m/h.</desc>
<speed>4.420000</speed>
</trkpt>
<trkpt lat="56.043476" lon="26.668919">
<ele>110.204163</ele>
<time>2010-06-20T12:37:36Z</time>
<desc>lat.=56.043476, lon.=26.668919, Alt.=110.204163m. Speed=15.552000m/h.</desc>
<speed>4.320000</speed>
</trkpt>
<trkpt lat="56.043438" lon="26.668945">
<ele>110.153381</ele>
<time>2010-06-20T12:37:37Z</time>
<desc>lat.=56.043438, lon.=26.668945, Alt.=110.153381m. Speed=16.488001m/h.</desc>
<speed>4.580000</speed>
</trkpt>
<trkpt lat="56.043400" lon="26.668972">
<ele>110.030334</ele>
<time>2010-06-20T12:37:38Z</time>
<desc>lat.=56.043400, lon.=26.668972, Alt.=110.030334m. Speed=17.280001m/h.</desc>
<speed>4.800000</speed>
</trkpt>
<trkpt lat="56.043358" lon="26.669001">
<ele>109.954163</ele>
<time>2010-06-20T12:37:39Z</time>
<desc>lat.=56.043358, lon.=26.669001, Alt.=109.954163m. Speed=18.143999m/h.</desc>
<speed>5.040000</speed>
</trkpt>
<trkpt lat="56.043316" lon="26.669031">
<ele>109.883850</ele>
<time>2010-06-20T12:37:40Z</time>
<desc>lat.=56.043316, lon.=26.669031, Alt.=109.883850m. Speed=18.792000m/h.</desc>
<speed>5.220000</speed>
</trkpt>
<trkpt lat="56.043270" lon="26.669064">
<ele>109.868225</ele>
<time>2010-06-20T12:37:41Z</time>
<desc>lat.=56.043270, lon.=26.669064, Alt.=109.868225m. Speed=18.756001m/h.</desc>
<speed>5.210000</speed>
</trkpt>
<trkpt lat="56.043228" lon="26.669094">
<ele>109.825256</ele>
<time>2010-06-20T12:37:42Z</time>
<desc>lat.=56.043228, lon.=26.669094, Alt.=109.825256m. Speed=17.964001m/h.</desc>
<speed>4.990000</speed>
</trkpt>
<trkpt lat="56.043186" lon="26.669125">
<ele>109.751038</ele>
<time>2010-06-20T12:37:43Z</time>
<desc>lat.=56.043186, lon.=26.669125, Alt.=109.751038m. Speed=17.280001m/h.</desc>
<speed>4.800000</speed>
</trkpt>
<trkpt lat="56.043152" lon="26.669155">
<ele>109.762756</ele>
<time>2010-06-20T12:37:44Z</time>
<desc>lat.=56.043152, lon.=26.669155, Alt.=109.762756m. Speed=16.128000m/h.</desc>
<speed>4.480000</speed>
</trkpt>
<trkpt lat="56.043114" lon="26.669182">
<ele>109.987366</ele>
<time>2010-06-20T12:37:45Z</time>
<desc>lat.=56.043114, lon.=26.669182, Alt.=109.987366m. Speed=16.128000m/h.</desc>
<speed>4.480000</speed>
</trkpt>
<trkpt lat="56.043076" lon="26.669203">
<ele>109.961975</ele>
<time>2010-06-20T12:37:46Z</time>
<desc>lat.=56.043076, lon.=26.669203, Alt.=109.961975m. Speed=14.724000m/h.</desc>
<speed>4.090000</speed>
</trkpt>
<trkpt lat="56.043045" lon="26.669230">
<ele>110.012756</ele>
<time>2010-06-20T12:37:47Z</time>
<desc>lat.=56.043045, lon.=26.669230, Alt.=110.012756m. Speed=14.724000m/h.</desc>
<speed>4.090000</speed>
</trkpt>
<trkpt lat="56.043011" lon="26.669252">
<ele>110.165100</ele>
<time>2010-06-20T12:37:48Z</time>
<desc>lat.=56.043011, lon.=26.669252, Alt.=110.165100m. Speed=14.832000m/h.</desc>
<speed>4.120000</speed>
</trkpt>
<trkpt lat="56.042976" lon="26.669275">
<ele>110.135803</ele>
<time>2010-06-20T12:37:49Z</time>
<desc>lat.=56.042976, lon.=26.669275, Alt.=110.135803m. Speed=15.804000m/h.</desc>
<speed>4.390000</speed>
</trkpt>
<trkpt lat="56.042938" lon="26.669300">
<ele>110.108459</ele>
<time>2010-06-20T12:37:50Z</time>
<desc>lat.=56.042938, lon.=26.669300, Alt.=110.108459m. Speed=16.488001m/h.</desc>
<speed>4.580000</speed>
</trkpt>
<trkpt lat="56.042892" lon="26.669329">
<ele>109.784241</ele>
<time>2010-06-20T12:37:51Z</time>
<desc>lat.=56.042892, lon.=26.669329, Alt.=109.784241m. Speed=16.955999m/h.</desc>
<speed>4.710000</speed>
</trkpt>
<trkpt lat="56.042854" lon="26.669355">
<ele>109.708069</ele>
<time>2010-06-20T12:37:52Z</time>
<desc>lat.=56.042854, lon.=26.669355, Alt.=109.708069m. Speed=16.056000m/h.</desc>
<speed>4.460000</speed>
</trkpt>
<trkpt lat="56.042816" lon="26.669380">
<ele>109.641663</ele>
<time>2010-06-20T12:37:53Z</time>
<desc>lat.=56.042816, lon.=26.669380, Alt.=109.641663m. Speed=14.724000m/h.</desc>
<speed>4.090000</speed>
</trkpt>
<trkpt lat="56.042782" lon="26.669399">
<ele>109.627991</ele>
<time>2010-06-20T12:37:54Z</time>
<desc>lat.=56.042782, lon.=26.669399, Alt.=109.627991m. Speed=14.076000m/h.</desc>
<speed>3.910000</speed>
</trkpt>
<trkpt lat="56.042747" lon="26.669420">
<ele>109.686584</ele>
<time>2010-06-20T12:37:55Z</time>
<desc>lat.=56.042747, lon.=26.669420, Alt.=109.686584m. Speed=12.888000m/h.</desc>
<speed>3.580000</speed>
</trkpt>
<trkpt lat="56.042721" lon="26.669447">
<ele>109.786194</ele>
<time>2010-06-20T12:37:56Z</time>
<desc>lat.=56.042721, lon.=26.669447, Alt.=109.786194m. Speed=11.520000m/h.</desc>
<speed>3.200000</speed>
</trkpt>
<trkpt lat="56.042698" lon="26.669472">
<ele>109.727600</ele>
<time>2010-06-20T12:37:57Z</time>
<desc>lat.=56.042698, lon.=26.669472, Alt.=109.727600m. Speed=10.620000m/h.</desc>
<speed>2.950000</speed>
</trkpt>
<trkpt lat="56.042667" lon="26.669489">
<ele>109.499084</ele>
<time>2010-06-20T12:37:58Z</time>
<desc>lat.=56.042667, lon.=26.669489, Alt.=109.499084m. Speed=10.944000m/h.</desc>
<speed>3.040000</speed>
</trkpt>
<trkpt lat="56.042641" lon="26.669504">
<ele>109.405334</ele>
<time>2010-06-20T12:37:59Z</time>
<desc>lat.=56.042641, lon.=26.669504, Alt.=109.405334m. Speed=9.576000m/h.</desc>
<speed>2.660000</speed>
</trkpt>
<trkpt lat="56.042618" lon="26.669519">
<ele>109.172913</ele>
<time>2010-06-20T12:38:00Z</time>
<desc>lat.=56.042618, lon.=26.669519, Alt.=109.172913m. Speed=9.360000m/h.</desc>
<speed>2.600000</speed>
</trkpt>
<trkpt lat="56.042599" lon="26.669544">
<ele>109.739319</ele>
<time>2010-06-20T12:38:01Z</time>
<desc>lat.=56.042599, lon.=26.669544, Alt.=109.739319m. Speed=8.712000m/h.</desc>
<speed>2.420000</speed>
</trkpt>
<trkpt lat="56.042580" lon="26.669554">
<ele>109.690491</ele>
<time>2010-06-20T12:38:02Z</time>
<desc>lat.=56.042580, lon.=26.669554, Alt.=109.690491m. Speed=9.072000m/h.</desc>
<speed>2.520000</speed>
</trkpt>
<trkpt lat="56.042561" lon="26.669569">
<ele>109.626038</ele>
<time>2010-06-20T12:38:03Z</time>
<desc>lat.=56.042561, lon.=26.669569, Alt.=109.626038m. Speed=9.720000m/h.</desc>
<speed>2.700000</speed>
</trkpt>
<trkpt lat="56.042538" lon="26.669592">
<ele>110.139709</ele>
<time>2010-06-20T12:38:04Z</time>
<desc>lat.=56.042538, lon.=26.669592, Alt.=110.139709m. Speed=9.216000m/h.</desc>
<speed>2.560000</speed>
</trkpt>
<trkpt lat="56.042519" lon="26.669615">
<ele>110.379944</ele>
<time>2010-06-20T12:38:05Z</time>
<desc>lat.=56.042519, lon.=26.669615, Alt.=110.379944m. Speed=9.180000m/h.</desc>
<speed>2.550000</speed>
</trkpt>
<trkpt lat="56.042496" lon="26.669630">
<ele>110.174866</ele>
<time>2010-06-20T12:38:06Z</time>
<desc>lat.=56.042496, lon.=26.669630, Alt.=110.174866m. Speed=9.936000m/h.</desc>
<speed>2.760000</speed>
</trkpt>
<trkpt lat="56.042473" lon="26.669643">
<ele>110.012756</ele>
<time>2010-06-20T12:38:07Z</time>
<desc>lat.=56.042473, lon.=26.669643, Alt.=110.012756m. Speed=11.628000m/h.</desc>
<speed>3.230000</speed>
</trkpt>
<trkpt lat="56.042442" lon="26.669659">
<ele>110.077209</ele>
<time>2010-06-20T12:38:08Z</time>
<desc>lat.=56.042442, lon.=26.669659, Alt.=110.077209m. Speed=11.916000m/h.</desc>
<speed>3.310000</speed>
</trkpt>
<trkpt lat="56.042416" lon="26.669678">
<ele>109.940491</ele>
<time>2010-06-20T12:38:09Z</time>
<desc>lat.=56.042416, lon.=26.669678, Alt.=109.940491m. Speed=12.672000m/h.</desc>
<speed>3.520000</speed>
</trkpt>
<trkpt lat="56.042381" lon="26.669703">
<ele>109.997131</ele>
<time>2010-06-20T12:38:10Z</time>
<desc>lat.=56.042381, lon.=26.669703, Alt.=109.997131m. Speed=15.408000m/h.</desc>
<speed>4.280000</speed>
</trkpt>
<trkpt lat="56.042347" lon="26.669729">
<ele>109.948303</ele>
<time>2010-06-20T12:38:11Z</time>
<desc>lat.=56.042347, lon.=26.669729, Alt.=109.948303m. Speed=15.444000m/h.</desc>
<speed>4.290000</speed>
</trkpt>
<trkpt lat="56.042309" lon="26.669756">
<ele>109.983459</ele>
<time>2010-06-20T12:38:12Z</time>
<desc>lat.=56.042309, lon.=26.669756, Alt.=109.983459m. Speed=16.524000m/h.</desc>
<speed>4.590000</speed>
</trkpt>
<trkpt lat="56.042271" lon="26.669773">
<ele>110.045959</ele>
<time>2010-06-20T12:38:13Z</time>
<desc>lat.=56.042271, lon.=26.669773, Alt.=110.045959m. Speed=16.236000m/h.</desc>
<speed>4.510000</speed>
</trkpt>
<trkpt lat="56.042229" lon="26.669800">
<ele>109.922913</ele>
<time>2010-06-20T12:38:14Z</time>
<desc>lat.=56.042229, lon.=26.669800, Alt.=109.922913m. Speed=16.955999m/h.</desc>
<speed>4.710000</speed>
</trkpt>
<trkpt lat="56.042191" lon="26.669830">
<ele>109.768616</ele>
<time>2010-06-20T12:38:15Z</time>
<desc>lat.=56.042191, lon.=26.669830, Alt.=109.768616m. Speed=17.712000m/h.</desc>
<speed>4.920000</speed>
</trkpt>
<trkpt lat="56.042149" lon="26.669861">
<ele>109.942444</ele>
<time>2010-06-20T12:38:16Z</time>
<desc>lat.=56.042149, lon.=26.669861, Alt.=109.942444m. Speed=18.468000m/h.</desc>
<speed>5.130000</speed>
</trkpt>
<trkpt lat="56.042107" lon="26.669888">
<ele>109.846741</ele>
<time>2010-06-20T12:38:17Z</time>
<desc>lat.=56.042107, lon.=26.669888, Alt.=109.846741m. Speed=18.612000m/h.</desc>
<speed>5.170000</speed>
</trkpt>
<trkpt lat="56.042061" lon="26.669914">
<ele>109.672913</ele>
<time>2010-06-20T12:38:18Z</time>
<desc>lat.=56.042061, lon.=26.669914, Alt.=109.672913m. Speed=19.764000m/h.</desc>
<speed>5.490000</speed>
</trkpt>
<trkpt lat="56.042015" lon="26.669943">
<ele>109.438538</ele>
<time>2010-06-20T12:38:19Z</time>
<desc>lat.=56.042015, lon.=26.669943, Alt.=109.438538m. Speed=19.152000m/h.</desc>
<speed>5.320000</speed>
</trkpt>
<trkpt lat="56.041973" lon="26.669971">
<ele>109.331116</ele>
<time>2010-06-20T12:38:20Z</time>
<desc>lat.=56.041973, lon.=26.669971, Alt.=109.331116m. Speed=18.576000m/h.</desc>
<speed>5.160000</speed>
</trkpt>
<trkpt lat="56.041931" lon="26.669998">
<ele>109.438538</ele>
<time>2010-06-20T12:38:21Z</time>
<desc>lat.=56.041931, lon.=26.669998, Alt.=109.438538m. Speed=18.108000m/h.</desc>
<speed>5.030000</speed>
</trkpt>
<trkpt lat="56.041889" lon="26.670029">
<ele>109.264709</ele>
<time>2010-06-20T12:38:22Z</time>
<desc>lat.=56.041889, lon.=26.670029, Alt.=109.264709m. Speed=17.208000m/h.</desc>
<speed>4.780000</speed>
</trkpt>
<trkpt lat="56.041851" lon="26.670055">
<ele>109.251038</ele>
<time>2010-06-20T12:38:23Z</time>
<desc>lat.=56.041851, lon.=26.670055, Alt.=109.251038m. Speed=16.848000m/h.</desc>
<speed>4.680000</speed>
</trkpt>
<trkpt lat="56.041813" lon="26.670080">
<ele>109.342834</ele>
<time>2010-06-20T12:38:24Z</time>
<desc>lat.=56.041813, lon.=26.670080, Alt.=109.342834m. Speed=16.164000m/h.</desc>
<speed>4.490000</speed>
</trkpt>
<trkpt lat="56.041775" lon="26.670111">
<ele>109.471741</ele>
<time>2010-06-20T12:38:25Z</time>
<desc>lat.=56.041775, lon.=26.670111, Alt.=109.471741m. Speed=15.516000m/h.</desc>
<speed>4.310000</speed>
</trkpt>
<trkpt lat="56.041740" lon="26.670141">
<ele>109.919006</ele>
<time>2010-06-20T12:38:26Z</time>
<desc>lat.=56.041740, lon.=26.670141, Alt.=109.919006m. Speed=14.976000m/h.</desc>
<speed>4.160000</speed>
</trkpt>
<trkpt lat="56.041706" lon="26.670172">
<ele>110.174866</ele>
<time>2010-06-20T12:38:27Z</time>
<desc>lat.=56.041706, lon.=26.670172, Alt.=110.174866m. Speed=14.472000m/h.</desc>
<speed>4.020000</speed>
</trkpt>
<trkpt lat="56.041676" lon="26.670200">
<ele>110.485413</ele>
<time>2010-06-20T12:38:28Z</time>
<desc>lat.=56.041676, lon.=26.670200, Alt.=110.485413m. Speed=13.932000m/h.</desc>
<speed>3.870000</speed>
</trkpt>
<trkpt lat="56.041645" lon="26.670225">
<ele>110.583069</ele>
<time>2010-06-20T12:38:29Z</time>
<desc>lat.=56.041645, lon.=26.670225, Alt.=110.583069m. Speed=12.996000m/h.</desc>
<speed>3.610000</speed>
</trkpt>
<trkpt lat="56.041618" lon="26.670258">
<ele>111.305725</ele>
<time>2010-06-20T12:38:30Z</time>
<desc>lat.=56.041618, lon.=26.670258, Alt.=111.305725m. Speed=13.320000m/h.</desc>
<speed>3.700000</speed>
</trkpt>
<trkpt lat="56.041580" lon="26.670294">
<ele>111.071350</ele>
<time>2010-06-20T12:38:31Z</time>
<desc>lat.=56.041580, lon.=26.670294, Alt.=111.071350m. Speed=14.976000m/h.</desc>
<speed>4.160000</speed>
</trkpt>
<trkpt lat="56.041546" lon="26.670313">
<ele>111.272522</ele>
<time>2010-06-20T12:38:32Z</time>
<desc>lat.=56.041546, lon.=26.670313, Alt.=111.272522m. Speed=15.660000m/h.</desc>
<speed>4.350000</speed>
</trkpt>
<trkpt lat="56.041500" lon="26.670328">
<ele>110.422913</ele>
<time>2010-06-20T12:38:33Z</time>
<desc>lat.=56.041500, lon.=26.670328, Alt.=110.422913m. Speed=17.351999m/h.</desc>
<speed>4.820000</speed>
</trkpt>
<trkpt lat="56.041458" lon="26.670347">
<ele>110.270569</ele>
<time>2010-06-20T12:38:34Z</time>
<desc>lat.=56.041458, lon.=26.670347, Alt.=110.270569m. Speed=18.252001m/h.</desc>
<speed>5.070000</speed>
</trkpt>
<trkpt lat="56.041412" lon="26.670374">
<ele>109.774475</ele>
<time>2010-06-20T12:38:35Z</time>
<desc>lat.=56.041412, lon.=26.670374, Alt.=109.774475m. Speed=19.332001m/h.</desc>
<speed>5.370000</speed>
</trkpt>
<trkpt lat="56.041367" lon="26.670401">
<ele>109.364319</ele>
<time>2010-06-20T12:38:36Z</time>
<desc>lat.=56.041367, lon.=26.670401, Alt.=109.364319m. Speed=20.844000m/h.</desc>
<speed>5.790000</speed>
</trkpt>
<trkpt lat="56.041321" lon="26.670429">
<ele>108.985413</ele>
<time>2010-06-20T12:38:37Z</time>
<desc>lat.=56.041321, lon.=26.670429, Alt.=108.985413m. Speed=20.520000m/h.</desc>
<speed>5.700000</speed>
</trkpt>
<trkpt lat="56.041271" lon="26.670456">
<ele>108.555725</ele>
<time>2010-06-20T12:38:38Z</time>
<desc>lat.=56.041271, lon.=26.670456, Alt.=108.555725m. Speed=20.844000m/h.</desc>
<speed>5.790000</speed>
</trkpt>
<trkpt lat="56.041222" lon="26.670486">
<ele>108.147522</ele>
<time>2010-06-20T12:38:39Z</time>
<desc>lat.=56.041222, lon.=26.670486, Alt.=108.147522m. Speed=20.448000m/h.</desc>
<speed>5.680000</speed>
</trkpt>
<trkpt lat="56.041180" lon="26.670519">
<ele>108.637756</ele>
<time>2010-06-20T12:38:40Z</time>
<desc>lat.=56.041180, lon.=26.670519, Alt.=108.637756m. Speed=19.584000m/h.</desc>
<speed>5.440000</speed>
</trkpt>
<trkpt lat="56.041134" lon="26.670549">
<ele>108.549866</ele>
<time>2010-06-20T12:38:41Z</time>
<desc>lat.=56.041134, lon.=26.670549, Alt.=108.549866m. Speed=19.115999m/h.</desc>
<speed>5.310000</speed>
</trkpt>
<trkpt lat="56.041092" lon="26.670578">
<ele>108.481506</ele>
<time>2010-06-20T12:38:42Z</time>
<desc>lat.=56.041092, lon.=26.670578, Alt.=108.481506m. Speed=18.288000m/h.</desc>
<speed>5.080000</speed>
</trkpt>
<trkpt lat="56.041046" lon="26.670612">
<ele>108.528381</ele>
<time>2010-06-20T12:38:43Z</time>
<desc>lat.=56.041046, lon.=26.670612, Alt.=108.528381m. Speed=18.792000m/h.</desc>
<speed>5.220000</speed>
</trkpt>
<trkpt lat="56.041004" lon="26.670643">
<ele>108.547913</ele>
<time>2010-06-20T12:38:44Z</time>
<desc>lat.=56.041004, lon.=26.670643, Alt.=108.547913m. Speed=18.827999m/h.</desc>
<speed>5.230000</speed>
</trkpt>
<trkpt lat="56.040962" lon="26.670675">
<ele>108.770569</ele>
<time>2010-06-20T12:38:45Z</time>
<desc>lat.=56.040962, lon.=26.670675, Alt.=108.770569m. Speed=19.296000m/h.</desc>
<speed>5.360000</speed>
</trkpt>
<trkpt lat="56.040920" lon="26.670710">
<ele>108.870178</ele>
<time>2010-06-20T12:38:46Z</time>
<desc>lat.=56.040920, lon.=26.670710, Alt.=108.870178m. Speed=19.440001m/h.</desc>
<speed>5.400000</speed>
</trkpt>
<trkpt lat="56.040874" lon="26.670742">
<ele>109.090881</ele>
<time>2010-06-20T12:38:47Z</time>
<desc>lat.=56.040874, lon.=26.670742, Alt.=109.090881m. Speed=20.195999m/h.</desc>
<speed>5.610000</speed>
</trkpt>
<trkpt lat="56.040825" lon="26.670778">
<ele>109.178772</ele>
<time>2010-06-20T12:38:48Z</time>
<desc>lat.=56.040825, lon.=26.670778, Alt.=109.178772m. Speed=21.816000m/h.</desc>
<speed>6.060000</speed>
</trkpt>
<trkpt lat="56.040775" lon="26.670813">
<ele>109.206116</ele>
<time>2010-06-20T12:38:49Z</time>
<desc>lat.=56.040775, lon.=26.670813, Alt.=109.206116m. Speed=20.556000m/h.</desc>
<speed>5.710000</speed>
</trkpt>
<trkpt lat="56.040730" lon="26.670849">
<ele>109.327209</ele>
<time>2010-06-20T12:38:50Z</time>
<desc>lat.=56.040730, lon.=26.670849, Alt.=109.327209m. Speed=20.052000m/h.</desc>
<speed>5.570000</speed>
</trkpt>
<trkpt lat="56.040684" lon="26.670885">
<ele>109.395569</ele>
<time>2010-06-20T12:38:51Z</time>
<desc>lat.=56.040684, lon.=26.670885, Alt.=109.395569m. Speed=19.584000m/h.</desc>
<speed>5.440000</speed>
</trkpt>
<trkpt lat="56.040638" lon="26.670921">
<ele>109.512756</ele>
<time>2010-06-20T12:38:52Z</time>
<desc>lat.=56.040638, lon.=26.670921, Alt.=109.512756m. Speed=18.900000m/h.</desc>
<speed>5.250000</speed>
</trkpt>
<trkpt lat="56.040596" lon="26.670959">
<ele>109.743225</ele>
<time>2010-06-20T12:38:53Z</time>
<desc>lat.=56.040596, lon.=26.670959, Alt.=109.743225m. Speed=18.108000m/h.</desc>
<speed>5.030000</speed>
</trkpt>
<trkpt lat="56.040554" lon="26.670992">
<ele>109.950256</ele>
<time>2010-06-20T12:38:54Z</time>
<desc>lat.=56.040554, lon.=26.670992, Alt.=109.950256m. Speed=18.540001m/h.</desc>
<speed>5.150000</speed>
</trkpt>
<trkpt lat="56.040512" lon="26.671030">
<ele>110.028381</ele>
<time>2010-06-20T12:38:55Z</time>
<desc>lat.=56.040512, lon.=26.671030, Alt.=110.028381m. Speed=19.296000m/h.</desc>
<speed>5.360000</speed>
</trkpt>
<trkpt lat="56.040466" lon="26.671064">
<ele>110.178772</ele>
<time>2010-06-20T12:38:56Z</time>
<desc>lat.=56.040466, lon.=26.671064, Alt.=110.178772m. Speed=19.980000m/h.</desc>
<speed>5.550000</speed>
</trkpt>
<trkpt lat="56.040421" lon="26.671103">
<ele>110.196350</ele>
<time>2010-06-20T12:38:57Z</time>
<desc>lat.=56.040421, lon.=26.671103, Alt.=110.196350m. Speed=20.771999m/h.</desc>
<speed>5.770000</speed>
</trkpt>
<trkpt lat="56.040371" lon="26.671139">
<ele>110.149475</ele>
<time>2010-06-20T12:38:58Z</time>
<desc>lat.=56.040371, lon.=26.671139, Alt.=110.149475m. Speed=21.096001m/h.</desc>
<speed>5.860000</speed>
</trkpt>
<trkpt lat="56.040321" lon="26.671181">
<ele>110.167053</ele>
<time>2010-06-20T12:38:59Z</time>
<desc>lat.=56.040321, lon.=26.671181, Alt.=110.167053m. Speed=20.771999m/h.</desc>
<speed>5.770000</speed>
</trkpt>
<trkpt lat="56.040279" lon="26.671223">
<ele>110.073303</ele>
<time>2010-06-20T12:39:00Z</time>
<desc>lat.=56.040279, lon.=26.671223, Alt.=110.073303m. Speed=19.799999m/h.</desc>
<speed>5.500000</speed>
</trkpt>
<trkpt lat="56.040234" lon="26.671265">
<ele>110.086975</ele>
<time>2010-06-20T12:39:01Z</time>
<desc>lat.=56.040234, lon.=26.671265, Alt.=110.086975m. Speed=19.007999m/h.</desc>
<speed>5.280000</speed>
</trkpt>
<trkpt lat="56.040192" lon="26.671307">
<ele>109.997131</ele>
<time>2010-06-20T12:39:02Z</time>
<desc>lat.=56.040192, lon.=26.671307, Alt.=109.997131m. Speed=18.719999m/h.</desc>
<speed>5.200000</speed>
</trkpt>
<trkpt lat="56.040146" lon="26.671347">
<ele>110.034241</ele>
<time>2010-06-20T12:39:03Z</time>
<desc>lat.=56.040146, lon.=26.671347, Alt.=110.034241m. Speed=19.764000m/h.</desc>
<speed>5.490000</speed>
</trkpt>
<trkpt lat="56.040100" lon="26.671391">
<ele>109.993225</ele>
<time>2010-06-20T12:39:04Z</time>
<desc>lat.=56.040100, lon.=26.671391, Alt.=109.993225m. Speed=20.483999m/h.</desc>
<speed>5.690000</speed>
</trkpt>
<trkpt lat="56.040054" lon="26.671434">
<ele>109.813538</ele>
<time>2010-06-20T12:39:05Z</time>
<desc>lat.=56.040054, lon.=26.671434, Alt.=109.813538m. Speed=21.600000m/h.</desc>
<speed>6.000000</speed>
</trkpt>
<trkpt lat="56.040005" lon="26.671482">
<ele>109.895569</ele>
<time>2010-06-20T12:39:06Z</time>
<desc>lat.=56.040005, lon.=26.671482, Alt.=109.895569m. Speed=22.427999m/h.</desc>
<speed>6.230000</speed>
</trkpt>
<trkpt lat="56.039959" lon="26.671530">
<ele>109.727600</ele>
<time>2010-06-20T12:39:07Z</time>
<desc>lat.=56.039959, lon.=26.671530, Alt.=109.727600m. Speed=22.212000m/h.</desc>
<speed>6.170000</speed>
</trkpt>
<trkpt lat="56.039909" lon="26.671576">
<ele>109.669006</ele>
<time>2010-06-20T12:39:08Z</time>
<desc>lat.=56.039909, lon.=26.671576, Alt.=109.669006m. Speed=21.563999m/h.</desc>
<speed>5.990000</speed>
</trkpt>
<trkpt lat="56.039860" lon="26.671625">
<ele>109.428772</ele>
<time>2010-06-20T12:39:09Z</time>
<desc>lat.=56.039860, lon.=26.671625, Alt.=109.428772m. Speed=20.916000m/h.</desc>
<speed>5.810000</speed>
</trkpt>
<trkpt lat="56.039814" lon="26.671667">
<ele>109.186584</ele>
<time>2010-06-20T12:39:10Z</time>
<desc>lat.=56.039814, lon.=26.671667, Alt.=109.186584m. Speed=20.375999m/h.</desc>
<speed>5.660000</speed>
</trkpt>
<trkpt lat="56.039772" lon="26.671711">
<ele>109.299866</ele>
<time>2010-06-20T12:39:11Z</time>
<desc>lat.=56.039772, lon.=26.671711, Alt.=109.299866m. Speed=20.087999m/h.</desc>
<speed>5.580000</speed>
</trkpt>
<trkpt lat="56.039730" lon="26.671757">
<ele>109.383850</ele>
<time>2010-06-20T12:39:12Z</time>
<desc>lat.=56.039730, lon.=26.671757, Alt.=109.383850m. Speed=19.511999m/h.</desc>
<speed>5.420000</speed>
</trkpt>
<trkpt lat="56.039688" lon="26.671797">
<ele>109.301819</ele>
<time>2010-06-20T12:39:13Z</time>
<desc>lat.=56.039688, lon.=26.671797, Alt.=109.301819m. Speed=18.756001m/h.</desc>
<speed>5.210000</speed>
</trkpt>
<trkpt lat="56.039650" lon="26.671833">
<ele>109.754944</ele>
<time>2010-06-20T12:39:14Z</time>
<desc>lat.=56.039650, lon.=26.671833, Alt.=109.754944m. Speed=17.964001m/h.</desc>
<speed>4.990000</speed>
</trkpt>
<trkpt lat="56.039612" lon="26.671873">
<ele>110.020569</ele>
<time>2010-06-20T12:39:15Z</time>
<desc>lat.=56.039612, lon.=26.671873, Alt.=110.020569m. Speed=18.288000m/h.</desc>
<speed>5.080000</speed>
</trkpt>
<trkpt lat="56.039566" lon="26.671913">
<ele>109.889709</ele>
<time>2010-06-20T12:39:16Z</time>
<desc>lat.=56.039566, lon.=26.671913, Alt.=109.889709m. Speed=19.188000m/h.</desc>
<speed>5.330000</speed>
</trkpt>
<trkpt lat="56.039528" lon="26.671955">
<ele>109.907288</ele>
<time>2010-06-20T12:39:17Z</time>
<desc>lat.=56.039528, lon.=26.671955, Alt.=109.907288m. Speed=18.576000m/h.</desc>
<speed>5.160000</speed>
</trkpt>
<trkpt lat="56.039486" lon="26.671993">
<ele>109.745178</ele>
<time>2010-06-20T12:39:18Z</time>
<desc>lat.=56.039486, lon.=26.671993, Alt.=109.745178m. Speed=18.792000m/h.</desc>
<speed>5.220000</speed>
</trkpt>
<trkpt lat="56.039440" lon="26.672033">
<ele>109.604553</ele>
<time>2010-06-20T12:39:19Z</time>
<desc>lat.=56.039440, lon.=26.672033, Alt.=109.604553m. Speed=19.368000m/h.</desc>
<speed>5.380000</speed>
</trkpt>
<trkpt lat="56.039398" lon="26.672075">
<ele>109.397522</ele>
<time>2010-06-20T12:39:20Z</time>
<desc>lat.=56.039398, lon.=26.672075, Alt.=109.397522m. Speed=20.195999m/h.</desc>
<speed>5.610000</speed>
</trkpt>
<trkpt lat="56.039352" lon="26.672117">
<ele>109.186584</ele>
<time>2010-06-20T12:39:21Z</time>
<desc>lat.=56.039352, lon.=26.672117, Alt.=109.186584m. Speed=20.375999m/h.</desc>
<speed>5.660000</speed>
</trkpt>
<trkpt lat="56.039307" lon="26.672163">
<ele>108.971741</ele>
<time>2010-06-20T12:39:22Z</time>
<desc>lat.=56.039307, lon.=26.672163, Alt.=108.971741m. Speed=19.403999m/h.</desc>
<speed>5.390000</speed>
</trkpt>
<trkpt lat="56.039268" lon="26.672213">
<ele>108.965881</ele>
<time>2010-06-20T12:39:23Z</time>
<desc>lat.=56.039268, lon.=26.672213, Alt.=108.965881m. Speed=18.360001m/h.</desc>
<speed>5.100000</speed>
</trkpt>
<trkpt lat="56.039227" lon="26.672256">
<ele>108.852600</ele>
<time>2010-06-20T12:39:24Z</time>
<desc>lat.=56.039227, lon.=26.672256, Alt.=108.852600m. Speed=18.756001m/h.</desc>
<speed>5.210000</speed>
</trkpt>
<trkpt lat="56.039188" lon="26.672295">
<ele>108.752991</ele>
<time>2010-06-20T12:39:25Z</time>
<desc>lat.=56.039188, lon.=26.672295, Alt.=108.752991m. Speed=17.856001m/h.</desc>
<speed>4.960000</speed>
</trkpt>
<trkpt lat="56.039150" lon="26.672329">
<ele>108.708069</ele>
<time>2010-06-20T12:39:26Z</time>
<desc>lat.=56.039150, lon.=26.672329, Alt.=108.708069m. Speed=17.136000m/h.</desc>
<speed>4.760000</speed>
</trkpt>
<trkpt lat="56.039112" lon="26.672365">
<ele>108.627991</ele>
<time>2010-06-20T12:39:27Z</time>
<desc>lat.=56.039112, lon.=26.672365, Alt.=108.627991m. Speed=16.704000m/h.</desc>
<speed>4.640000</speed>
</trkpt>
<trkpt lat="56.039078" lon="26.672401">
<ele>108.598694</ele>
<time>2010-06-20T12:39:28Z</time>
<desc>lat.=56.039078, lon.=26.672401, Alt.=108.598694m. Speed=16.308001m/h.</desc>
<speed>4.530000</speed>
</trkpt>
<trkpt lat="56.039043" lon="26.672436">
<ele>108.518616</ele>
<time>2010-06-20T12:39:29Z</time>
<desc>lat.=56.039043, lon.=26.672436, Alt.=108.518616m. Speed=15.480000m/h.</desc>
<speed>4.300000</speed>
</trkpt>
<trkpt lat="56.039013" lon="26.672472">
<ele>108.553772</ele>
<time>2010-06-20T12:39:30Z</time>
<desc>lat.=56.039013, lon.=26.672472, Alt.=108.553772m. Speed=14.904000m/h.</desc>
<speed>4.140000</speed>
</trkpt>
<trkpt lat="56.038979" lon="26.672506">
<ele>108.600647</ele>
<time>2010-06-20T12:39:31Z</time>
<desc>lat.=56.038979, lon.=26.672506, Alt.=108.600647m. Speed=14.364000m/h.</desc>
<speed>3.990000</speed>
</trkpt>
<trkpt lat="56.038952" lon="26.672535">
<ele>108.487366</ele>
<time>2010-06-20T12:39:32Z</time>
<desc>lat.=56.038952, lon.=26.672535, Alt.=108.487366m. Speed=14.004000m/h.</desc>
<speed>3.890000</speed>
</trkpt>
<trkpt lat="56.038921" lon="26.672565">
<ele>108.327209</ele>
<time>2010-06-20T12:39:33Z</time>
<desc>lat.=56.038921, lon.=26.672565, Alt.=108.327209m. Speed=13.536000m/h.</desc>
<speed>3.760000</speed>
</trkpt>
<trkpt lat="56.038891" lon="26.672592">
<ele>108.208069</ele>
<time>2010-06-20T12:39:34Z</time>
<desc>lat.=56.038891, lon.=26.672592, Alt.=108.208069m. Speed=13.212000m/h.</desc>
<speed>3.670000</speed>
</trkpt>
<trkpt lat="56.038864" lon="26.672617">
<ele>108.051819</ele>
<time>2010-06-20T12:39:35Z</time>
<desc>lat.=56.038864, lon.=26.672617, Alt.=108.051819m. Speed=12.600000m/h.</desc>
<speed>3.500000</speed>
</trkpt>
<trkpt lat="56.038837" lon="26.672642">
<ele>108.001038</ele>
<time>2010-06-20T12:39:36Z</time>
<desc>lat.=56.038837, lon.=26.672642, Alt.=108.001038m. Speed=11.772000m/h.</desc>
<speed>3.270000</speed>
</trkpt>
<trkpt lat="56.038811" lon="26.672665">
<ele>108.047913</ele>
<time>2010-06-20T12:39:37Z</time>
<desc>lat.=56.038811, lon.=26.672665, Alt.=108.047913m. Speed=11.808000m/h.</desc>
<speed>3.280000</speed>
</trkpt>
<trkpt lat="56.038784" lon="26.672688">
<ele>108.036194</ele>
<time>2010-06-20T12:39:38Z</time>
<desc>lat.=56.038784, lon.=26.672688, Alt.=108.036194m. Speed=11.844000m/h.</desc>
<speed>3.290000</speed>
</trkpt>
<trkpt lat="56.038757" lon="26.672722">
<ele>108.020569</ele>
<time>2010-06-20T12:39:39Z</time>
<desc>lat.=56.038757, lon.=26.672722, Alt.=108.020569m. Speed=12.384000m/h.</desc>
<speed>3.440000</speed>
</trkpt>
<trkpt lat="56.038727" lon="26.672752">
<ele>107.899475</ele>
<time>2010-06-20T12:39:40Z</time>
<desc>lat.=56.038727, lon.=26.672752, Alt.=107.899475m. Speed=13.644000m/h.</desc>
<speed>3.790000</speed>
</trkpt>
<trkpt lat="56.038692" lon="26.672787">
<ele>107.913147</ele>
<time>2010-06-20T12:39:41Z</time>
<desc>lat.=56.038692, lon.=26.672787, Alt.=107.913147m. Speed=14.436000m/h.</desc>
<speed>4.010000</speed>
</trkpt>
<trkpt lat="56.038662" lon="26.672821">
<ele>107.887756</ele>
<time>2010-06-20T12:39:42Z</time>
<desc>lat.=56.038662, lon.=26.672821, Alt.=107.887756m. Speed=15.336000m/h.</desc>
<speed>4.260000</speed>
</trkpt>
<trkpt lat="56.038624" lon="26.672853">
<ele>107.895569</ele>
<time>2010-06-20T12:39:43Z</time>
<desc>lat.=56.038624, lon.=26.672853, Alt.=107.895569m. Speed=16.091999m/h.</desc>
<speed>4.470000</speed>
</trkpt>
<trkpt lat="56.038589" lon="26.672886">
<ele>107.840881</ele>
<time>2010-06-20T12:39:44Z</time>
<desc>lat.=56.038589, lon.=26.672886, Alt.=107.840881m. Speed=16.740000m/h.</desc>
<speed>4.650000</speed>
</trkpt>
<trkpt lat="56.038551" lon="26.672922">
<ele>107.836975</ele>
<time>2010-06-20T12:39:45Z</time>
<desc>lat.=56.038551, lon.=26.672922, Alt.=107.836975m. Speed=16.920000m/h.</desc>
<speed>4.700000</speed>
</trkpt>
<trkpt lat="56.038517" lon="26.672956">
<ele>107.815491</ele>
<time>2010-06-20T12:39:46Z</time>
<desc>lat.=56.038517, lon.=26.672956, Alt.=107.815491m. Speed=16.344000m/h.</desc>
<speed>4.540000</speed>
</trkpt>
<trkpt lat="56.038479" lon="26.672993">
<ele>107.807678</ele>
<time>2010-06-20T12:39:47Z</time>
<desc>lat.=56.038479, lon.=26.672993, Alt.=107.807678m. Speed=15.516000m/h.</desc>
<speed>4.310000</speed>
</trkpt>
<trkpt lat="56.038448" lon="26.673035">
<ele>107.825256</ele>
<time>2010-06-20T12:39:48Z</time>
<desc>lat.=56.038448, lon.=26.673035, Alt.=107.825256m. Speed=16.200001m/h.</desc>
<speed>4.500000</speed>
</trkpt>
<trkpt lat="56.038410" lon="26.673077">
<ele>108.096741</ele>
<time>2010-06-20T12:39:49Z</time>
<desc>lat.=56.038410, lon.=26.673077, Alt.=108.096741m. Speed=16.920000m/h.</desc>
<speed>4.700000</speed>
</trkpt>
<trkpt lat="56.038376" lon="26.673126">
<ele>109.016663</ele>
<time>2010-06-20T12:39:50Z</time>
<desc>lat.=56.038376, lon.=26.673126, Alt.=109.016663m. Speed=17.532000m/h.</desc>
<speed>4.870000</speed>
</trkpt>
<trkpt lat="56.038342" lon="26.673176">
<ele>110.038147</ele>
<time>2010-06-20T12:39:51Z</time>
<desc>lat.=56.038342, lon.=26.673176, Alt.=110.038147m. Speed=17.028000m/h.</desc>
<speed>4.730000</speed>
</trkpt>
<trkpt lat="56.038311" lon="26.673223">
<ele>111.008850</ele>
<time>2010-06-20T12:39:52Z</time>
<desc>lat.=56.038311, lon.=26.673223, Alt.=111.008850m. Speed=16.344000m/h.</desc>
<speed>4.540000</speed>
</trkpt>
<trkpt lat="56.038280" lon="26.673269">
<ele>111.987366</ele>
<time>2010-06-20T12:39:53Z</time>
<desc>lat.=56.038280, lon.=26.673269, Alt.=111.987366m. Speed=15.624000m/h.</desc>
<speed>4.340000</speed>
</trkpt>
<trkpt lat="56.038250" lon="26.673315">
<ele>112.434631</ele>
<time>2010-06-20T12:39:54Z</time>
<desc>lat.=56.038250, lon.=26.673315, Alt.=112.434631m. Speed=14.760000m/h.</desc>
<speed>4.100000</speed>
</trkpt>
<trkpt lat="56.038223" lon="26.673361">
<ele>112.987366</ele>
<time>2010-06-20T12:39:55Z</time>
<desc>lat.=56.038223, lon.=26.673361, Alt.=112.987366m. Speed=14.112000m/h.</desc>
<speed>3.920000</speed>
</trkpt>
<trkpt lat="56.038197" lon="26.673395">
<ele>113.344788</ele>
<time>2010-06-20T12:39:56Z</time>
<desc>lat.=56.038197, lon.=26.673395, Alt.=113.344788m. Speed=14.112000m/h.</desc>
<speed>3.920000</speed>
</trkpt>
<trkpt lat="56.038166" lon="26.673429">
<ele>113.530334</ele>
<time>2010-06-20T12:39:57Z</time>
<desc>lat.=56.038166, lon.=26.673429, Alt.=113.530334m. Speed=15.156000m/h.</desc>
<speed>4.210000</speed>
</trkpt>
<trkpt lat="56.038136" lon="26.673477">
<ele>113.526428</ele>
<time>2010-06-20T12:39:58Z</time>
<desc>lat.=56.038136, lon.=26.673477, Alt.=113.526428m. Speed=15.804000m/h.</desc>
<speed>4.390000</speed>
</trkpt>
<trkpt lat="56.038105" lon="26.673527">
<ele>113.422913</ele>
<time>2010-06-20T12:39:59Z</time>
<desc>lat.=56.038105, lon.=26.673527, Alt.=113.422913m. Speed=16.596001m/h.</desc>
<speed>4.610000</speed>
</trkpt>
<trkpt lat="56.038074" lon="26.673576">
<ele>113.432678</ele>
<time>2010-06-20T12:40:00Z</time>
<desc>lat.=56.038074, lon.=26.673576, Alt.=113.432678m. Speed=15.984000m/h.</desc>
<speed>4.440000</speed>
</trkpt>
<trkpt lat="56.038044" lon="26.673622">
<ele>113.286194</ele>
<time>2010-06-20T12:40:01Z</time>
<desc>lat.=56.038044, lon.=26.673622, Alt.=113.286194m. Speed=16.452000m/h.</desc>
<speed>4.570000</speed>
</trkpt>
<trkpt lat="56.038017" lon="26.673660">
<ele>113.311584</ele>
<time>2010-06-20T12:40:02Z</time>
<desc>lat.=56.038017, lon.=26.673660, Alt.=113.311584m. Speed=15.408000m/h.</desc>
<speed>4.280000</speed>
</trkpt>
<trkpt lat="56.037983" lon="26.673706">
<ele>113.131897</ele>
<time>2010-06-20T12:40:03Z</time>
<desc>lat.=56.037983, lon.=26.673706, Alt.=113.131897m. Speed=16.704000m/h.</desc>
<speed>4.640000</speed>
</trkpt>
<trkpt lat="56.037949" lon="26.673754">
<ele>113.008850</ele>
<time>2010-06-20T12:40:04Z</time>
<desc>lat.=56.037949, lon.=26.673754, Alt.=113.008850m. Speed=16.416000m/h.</desc>
<speed>4.560000</speed>
</trkpt>
<trkpt lat="56.037922" lon="26.673807">
<ele>112.919006</ele>
<time>2010-06-20T12:40:05Z</time>
<desc>lat.=56.037922, lon.=26.673807, Alt.=112.919006m. Speed=16.091999m/h.</desc>
<speed>4.470000</speed>
</trkpt>
<trkpt lat="56.037895" lon="26.673861">
<ele>112.885803</ele>
<time>2010-06-20T12:40:06Z</time>
<desc>lat.=56.037895, lon.=26.673861, Alt.=112.885803m. Speed=15.588000m/h.</desc>
<speed>4.330000</speed>
</trkpt>
<trkpt lat="56.037868" lon="26.673920">
<ele>113.116272</ele>
<time>2010-06-20T12:40:07Z</time>
<desc>lat.=56.037868, lon.=26.673920, Alt.=113.116272m. Speed=15.336000m/h.</desc>
<speed>4.260000</speed>
</trkpt>
<trkpt lat="56.037842" lon="26.673967">
<ele>113.350647</ele>
<time>2010-06-20T12:40:08Z</time>
<desc>lat.=56.037842, lon.=26.673967, Alt.=113.350647m. Speed=15.660000m/h.</desc>
<speed>4.350000</speed>
</trkpt>
<trkpt lat="56.037815" lon="26.674015">
<ele>113.497131</ele>
<time>2010-06-20T12:40:09Z</time>
<desc>lat.=56.037815, lon.=26.674015, Alt.=113.497131m. Speed=15.048000m/h.</desc>
<speed>4.180000</speed>
</trkpt>
<trkpt lat="56.037792" lon="26.674065">
<ele>113.626038</ele>
<time>2010-06-20T12:40:10Z</time>
<desc>lat.=56.037792, lon.=26.674065, Alt.=113.626038m. Speed=14.796000m/h.</desc>
<speed>4.110000</speed>
</trkpt>
<trkpt lat="56.037769" lon="26.674112">
<ele>114.163147</ele>
<time>2010-06-20T12:40:11Z</time>
<desc>lat.=56.037769, lon.=26.674112, Alt.=114.163147m. Speed=14.436000m/h.</desc>
<speed>4.010000</speed>
</trkpt>
<trkpt lat="56.037746" lon="26.674164">
<ele>114.583069</ele>
<time>2010-06-20T12:40:12Z</time>
<desc>lat.=56.037746, lon.=26.674164, Alt.=114.583069m. Speed=15.876000m/h.</desc>
<speed>4.410000</speed>
</trkpt>
<trkpt lat="56.037720" lon="26.674221">
<ele>114.975647</ele>
<time>2010-06-20T12:40:13Z</time>
<desc>lat.=56.037720, lon.=26.674221, Alt.=114.975647m. Speed=17.063999m/h.</desc>
<speed>4.740000</speed>
</trkpt>
<trkpt lat="56.037689" lon="26.674280">
<ele>115.200256</ele>
<time>2010-06-20T12:40:14Z</time>
<desc>lat.=56.037689, lon.=26.674280, Alt.=115.200256m. Speed=18.180000m/h.</desc>
<speed>5.050000</speed>
</trkpt>
<trkpt lat="56.037655" lon="26.674335">
<ele>115.143616</ele>
<time>2010-06-20T12:40:15Z</time>
<desc>lat.=56.037655, lon.=26.674335, Alt.=115.143616m. Speed=18.827999m/h.</desc>
<speed>5.230000</speed>
</trkpt>
<trkpt lat="56.037621" lon="26.674398">
<ele>115.157288</ele>
<time>2010-06-20T12:40:16Z</time>
<desc>lat.=56.037621, lon.=26.674398, Alt.=115.157288m. Speed=19.440001m/h.</desc>
<speed>5.400000</speed>
</trkpt>
<trkpt lat="56.037586" lon="26.674465">
<ele>115.165100</ele>
<time>2010-06-20T12:40:17Z</time>
<desc>lat.=56.037586, lon.=26.674465, Alt.=115.165100m. Speed=19.764000m/h.</desc>
<speed>5.490000</speed>
</trkpt>
<trkpt lat="56.037556" lon="26.674534">
<ele>115.252991</ele>
<time>2010-06-20T12:40:18Z</time>
<desc>lat.=56.037556, lon.=26.674534, Alt.=115.252991m. Speed=20.375999m/h.</desc>
<speed>5.660000</speed>
</trkpt>
<trkpt lat="56.037521" lon="26.674604">
<ele>115.249084</ele>
<time>2010-06-20T12:40:19Z</time>
<desc>lat.=56.037521, lon.=26.674604, Alt.=115.249084m. Speed=20.556000m/h.</desc>
<speed>5.710000</speed>
</trkpt>
<trkpt lat="56.037487" lon="26.674669">
<ele>115.104553</ele>
<time>2010-06-20T12:40:20Z</time>
<desc>lat.=56.037487, lon.=26.674669, Alt.=115.104553m. Speed=20.664000m/h.</desc>
<speed>5.740000</speed>
</trkpt>
<trkpt lat="56.037457" lon="26.674732">
<ele>114.762756</ele>
<time>2010-06-20T12:40:21Z</time>
<desc>lat.=56.037457, lon.=26.674732, Alt.=114.762756m. Speed=19.691999m/h.</desc>
<speed>5.470000</speed>
</trkpt>
<trkpt lat="56.037422" lon="26.674797">
<ele>114.844788</ele>
<time>2010-06-20T12:40:22Z</time>
<desc>lat.=56.037422, lon.=26.674797, Alt.=114.844788m. Speed=19.584000m/h.</desc>
<speed>5.440000</speed>
</trkpt>
<trkpt lat="56.037388" lon="26.674864">
<ele>114.944397</ele>
<time>2010-06-20T12:40:23Z</time>
<desc>lat.=56.037388, lon.=26.674864, Alt.=114.944397m. Speed=20.520000m/h.</desc>
<speed>5.700000</speed>
</trkpt>
<trkpt lat="56.037354" lon="26.674932">
<ele>114.905334</ele>
<time>2010-06-20T12:40:24Z</time>
<desc>lat.=56.037354, lon.=26.674932, Alt.=114.905334m. Speed=18.972000m/h.</desc>
<speed>5.270000</speed>
</trkpt>
<trkpt lat="56.037323" lon="26.674992">
<ele>114.784241</ele>
<time>2010-06-20T12:40:25Z</time>
<desc>lat.=56.037323, lon.=26.674992, Alt.=114.784241m. Speed=17.676001m/h.</desc>
<speed>4.910000</speed>
</trkpt>
<trkpt lat="56.037296" lon="26.675047">
<ele>114.590881</ele>
<time>2010-06-20T12:40:26Z</time>
<desc>lat.=56.037296, lon.=26.675047, Alt.=114.590881m. Speed=16.884001m/h.</desc>
<speed>4.690000</speed>
</trkpt>
<trkpt lat="56.037273" lon="26.675106">
<ele>114.542053</ele>
<time>2010-06-20T12:40:27Z</time>
<desc>lat.=56.037273, lon.=26.675106, Alt.=114.542053m. Speed=17.388000m/h.</desc>
<speed>4.830000</speed>
</trkpt>
<trkpt lat="56.037243" lon="26.675173">
<ele>114.682678</ele>
<time>2010-06-20T12:40:28Z</time>
<desc>lat.=56.037243, lon.=26.675173, Alt.=114.682678m. Speed=17.927999m/h.</desc>
<speed>4.980000</speed>
</trkpt>
<trkpt lat="56.037212" lon="26.675238">
<ele>114.292053</ele>
<time>2010-06-20T12:40:29Z</time>
<desc>lat.=56.037212, lon.=26.675238, Alt.=114.292053m. Speed=19.403999m/h.</desc>
<speed>5.390000</speed>
</trkpt>
<trkpt lat="56.037178" lon="26.675308">
<ele>113.956116</ele>
<time>2010-06-20T12:40:30Z</time>
<desc>lat.=56.037178, lon.=26.675308, Alt.=113.956116m. Speed=20.340000m/h.</desc>
<speed>5.650000</speed>
</trkpt>
<trkpt lat="56.037140" lon="26.675369">
<ele>113.211975</ele>
<time>2010-06-20T12:40:31Z</time>
<desc>lat.=56.037140, lon.=26.675369, Alt.=113.211975m. Speed=20.736000m/h.</desc>
<speed>5.760000</speed>
</trkpt>
<trkpt lat="56.037106" lon="26.675430">
<ele>112.665100</ele>
<time>2010-06-20T12:40:32Z</time>
<desc>lat.=56.037106, lon.=26.675430, Alt.=112.665100m. Speed=20.268000m/h.</desc>
<speed>5.630000</speed>
</trkpt>
<trkpt lat="56.037071" lon="26.675493">
<ele>112.141663</ele>
<time>2010-06-20T12:40:33Z</time>
<desc>lat.=56.037071, lon.=26.675493, Alt.=112.141663m. Speed=19.440001m/h.</desc>
<speed>5.400000</speed>
</trkpt>
<trkpt lat="56.037041" lon="26.675556">
<ele>111.713928</ele>
<time>2010-06-20T12:40:34Z</time>
<desc>lat.=56.037041, lon.=26.675556, Alt.=111.713928m. Speed=19.080000m/h.</desc>
<speed>5.300000</speed>
</trkpt>
<trkpt lat="56.037010" lon="26.675636">
<ele>112.051819</ele>
<time>2010-06-20T12:40:35Z</time>
<desc>lat.=56.037010, lon.=26.675636, Alt.=112.051819m. Speed=18.756001m/h.</desc>
<speed>5.210000</speed>
</trkpt>
<trkpt lat="56.036976" lon="26.675701">
<ele>111.883850</ele>
<time>2010-06-20T12:40:36Z</time>
<desc>lat.=56.036976, lon.=26.675701, Alt.=111.883850m. Speed=18.468000m/h.</desc>
<speed>5.130000</speed>
</trkpt>
<trkpt lat="56.036945" lon="26.675755">
<ele>111.368225</ele>
<time>2010-06-20T12:40:37Z</time>
<desc>lat.=56.036945, lon.=26.675755, Alt.=111.368225m. Speed=18.827999m/h.</desc>
<speed>5.230000</speed>
</trkpt>
<trkpt lat="56.036911" lon="26.675814">
<ele>111.122131</ele>
<time>2010-06-20T12:40:38Z</time>
<desc>lat.=56.036911, lon.=26.675814, Alt.=111.122131m. Speed=18.540001m/h.</desc>
<speed>5.150000</speed>
</trkpt>
<trkpt lat="56.036884" lon="26.675879">
<ele>111.670959</ele>
<time>2010-06-20T12:40:39Z</time>
<desc>lat.=56.036884, lon.=26.675879, Alt.=111.670959m. Speed=18.252001m/h.</desc>
<speed>5.070000</speed>
</trkpt>
<trkpt lat="56.036858" lon="26.675940">
<ele>111.881897</ele>
<time>2010-06-20T12:40:40Z</time>
<desc>lat.=56.036858, lon.=26.675940, Alt.=111.881897m. Speed=17.712000m/h.</desc>
<speed>4.920000</speed>
</trkpt>
<trkpt lat="56.036823" lon="26.675987">
<ele>111.852600</ele>
<time>2010-06-20T12:40:41Z</time>
<desc>lat.=56.036823, lon.=26.675987, Alt.=111.852600m. Speed=17.424000m/h.</desc>
<speed>4.840000</speed>
</trkpt>
<trkpt lat="56.036789" lon="26.676039">
<ele>111.637756</ele>
<time>2010-06-20T12:40:42Z</time>
<desc>lat.=56.036789, lon.=26.676039, Alt.=111.637756m. Speed=16.740000m/h.</desc>
<speed>4.650000</speed>
</trkpt>
<trkpt lat="56.036755" lon="26.676081">
<ele>111.405334</ele>
<time>2010-06-20T12:40:43Z</time>
<desc>lat.=56.036755, lon.=26.676081, Alt.=111.405334m. Speed=16.488001m/h.</desc>
<speed>4.580000</speed>
</trkpt>
<trkpt lat="56.036720" lon="26.676125">
<ele>111.270569</ele>
<time>2010-06-20T12:40:44Z</time>
<desc>lat.=56.036720, lon.=26.676125, Alt.=111.270569m. Speed=15.624000m/h.</desc>
<speed>4.340000</speed>
</trkpt>
<trkpt lat="56.036686" lon="26.676161">
<ele>110.758850</ele>
<time>2010-06-20T12:40:45Z</time>
<desc>lat.=56.036686, lon.=26.676161, Alt.=110.758850m. Speed=14.436000m/h.</desc>
<speed>4.010000</speed>
</trkpt>
<trkpt lat="56.036655" lon="26.676193">
<ele>110.493225</ele>
<time>2010-06-20T12:40:46Z</time>
<desc>lat.=56.036655, lon.=26.676193, Alt.=110.493225m. Speed=13.932000m/h.</desc>
<speed>3.870000</speed>
</trkpt>
<trkpt lat="56.036629" lon="26.676226">
<ele>110.501038</ele>
<time>2010-06-20T12:40:47Z</time>
<desc>lat.=56.036629, lon.=26.676226, Alt.=110.501038m. Speed=13.212000m/h.</desc>
<speed>3.670000</speed>
</trkpt>
<trkpt lat="56.036606" lon="26.676254">
<ele>110.836975</ele>
<time>2010-06-20T12:40:48Z</time>
<desc>lat.=56.036606, lon.=26.676254, Alt.=110.836975m. Speed=12.132000m/h.</desc>
<speed>3.370000</speed>
</trkpt>
<trkpt lat="56.036579" lon="26.676275">
<ele>110.637756</ele>
<time>2010-06-20T12:40:49Z</time>
<desc>lat.=56.036579, lon.=26.676275, Alt.=110.637756m. Speed=10.944000m/h.</desc>
<speed>3.040000</speed>
</trkpt>
<trkpt lat="56.036560" lon="26.676296">
<ele>110.768616</ele>
<time>2010-06-20T12:40:50Z</time>
<desc>lat.=56.036560, lon.=26.676296, Alt.=110.768616m. Speed=10.080000m/h.</desc>
<speed>2.800000</speed>
</trkpt>
<trkpt lat="56.036541" lon="26.676311">
<ele>110.864319</ele>
<time>2010-06-20T12:40:51Z</time>
<desc>lat.=56.036541, lon.=26.676311, Alt.=110.864319m. Speed=9.072000m/h.</desc>
<speed>2.520000</speed>
</trkpt>
<trkpt lat="56.036522" lon="26.676323">
<ele>110.752991</ele>
<time>2010-06-20T12:40:52Z</time>
<desc>lat.=56.036522, lon.=26.676323, Alt.=110.752991m. Speed=9.252000m/h.</desc>
<speed>2.570000</speed>
</trkpt>
<trkpt lat="56.036503" lon="26.676334">
<ele>110.887756</ele>
<time>2010-06-20T12:40:53Z</time>
<desc>lat.=56.036503, lon.=26.676334, Alt.=110.887756m. Speed=8.496000m/h.</desc>
<speed>2.360000</speed>
</trkpt>
<trkpt lat="56.036484" lon="26.676338">
<ele>110.729553</ele>
<time>2010-06-20T12:40:54Z</time>
<desc>lat.=56.036484, lon.=26.676338, Alt.=110.729553m. Speed=7.416000m/h.</desc>
<speed>2.060000</speed>
</trkpt>
<trkpt lat="56.036465" lon="26.676338">
<ele>110.315491</ele>
<time>2010-06-20T12:40:55Z</time>
<desc>lat.=56.036465, lon.=26.676338, Alt.=110.315491m. Speed=7.308000m/h.</desc>
<speed>2.030000</speed>
</trkpt>
<trkpt lat="56.036457" lon="26.676346">
<ele>110.502991</ele>
<time>2010-06-20T12:40:56Z</time>
<desc>lat.=56.036457, lon.=26.676346, Alt.=110.502991m. Speed=6.552000m/h.</desc>
<speed>1.820000</speed>
</trkpt>
<trkpt lat="56.036442" lon="26.676359">
<ele>110.778381</ele>
<time>2010-06-20T12:40:57Z</time>
<desc>lat.=56.036442, lon.=26.676359, Alt.=110.778381m. Speed=8.064000m/h.</desc>
<speed>2.240000</speed>
</trkpt>
<trkpt lat="56.036430" lon="26.676384">
<ele>111.333069</ele>
<time>2010-06-20T12:40:58Z</time>
<desc>lat.=56.036430, lon.=26.676384, Alt.=111.333069m. Speed=8.172000m/h.</desc>
<speed>2.270000</speed>
</trkpt>
<trkpt lat="56.036411" lon="26.676403">
<ele>111.475647</ele>
<time>2010-06-20T12:40:59Z</time>
<desc>lat.=56.036411, lon.=26.676403, Alt.=111.475647m. Speed=9.504000m/h.</desc>
<speed>2.640000</speed>
</trkpt>
<trkpt lat="56.036388" lon="26.676420">
<ele>111.413147</ele>
<time>2010-06-20T12:41:00Z</time>
<desc>lat.=56.036388, lon.=26.676420, Alt.=111.413147m. Speed=9.504000m/h.</desc>
<speed>2.640000</speed>
</trkpt>
<trkpt lat="56.036366" lon="26.676432">
<ele>111.376038</ele>
<time>2010-06-20T12:41:01Z</time>
<desc>lat.=56.036366, lon.=26.676432, Alt.=111.376038m. Speed=8.856000m/h.</desc>
<speed>2.460000</speed>
</trkpt>
<trkpt lat="56.036350" lon="26.676434">
<ele>111.729553</ele>
<time>2010-06-20T12:41:02Z</time>
<desc>lat.=56.036350, lon.=26.676434, Alt.=111.729553m. Speed=6.804000m/h.</desc>
<speed>1.890000</speed>
</trkpt>
<trkpt lat="56.036335" lon="26.676451">
<ele>112.139709</ele>
<time>2010-06-20T12:41:03Z</time>
<desc>lat.=56.036335, lon.=26.676451, Alt.=112.139709m. Speed=5.544000m/h.</desc>
<speed>1.540000</speed>
</trkpt>
<trkpt lat="56.036320" lon="26.676458">
<ele>112.040100</ele>
<time>2010-06-20T12:41:04Z</time>
<desc>lat.=56.036320, lon.=26.676458, Alt.=112.040100m. Speed=5.184000m/h.</desc>
<speed>1.440000</speed>
</trkpt>
<trkpt lat="56.036312" lon="26.676470">
<ele>112.563538</ele>
<time>2010-06-20T12:41:05Z</time>
<desc>lat.=56.036312, lon.=26.676470, Alt.=112.563538m. Speed=3.096000m/h.</desc>
<speed>0.860000</speed>
</trkpt>
<trkpt lat="56.036304" lon="26.676477">
<ele>113.030334</ele>
<time>2010-06-20T12:41:06Z</time>
<desc>lat.=56.036304, lon.=26.676477, Alt.=113.030334m. Speed=3.924000m/h.</desc>
<speed>1.090000</speed>
</trkpt>
<trkpt lat="56.036297" lon="26.676483">
<ele>113.575256</ele>
<time>2010-06-20T12:41:07Z</time>
<desc>lat.=56.036297, lon.=26.676483, Alt.=113.575256m. Speed=4.428000m/h.</desc>
<speed>1.230000</speed>
</trkpt>
<trkpt lat="56.036285" lon="26.676487">
<ele>113.217834</ele>
<time>2010-06-20T12:41:08Z</time>
<desc>lat.=56.036285, lon.=26.676487, Alt.=113.217834m. Speed=6.696000m/h.</desc>
<speed>1.860000</speed>
</trkpt>
<trkpt lat="56.036263" lon="26.676489">
<ele>113.030334</ele>
<time>2010-06-20T12:41:09Z</time>
<desc>lat.=56.036263, lon.=26.676489, Alt.=113.030334m. Speed=7.020000m/h.</desc>
<speed>1.950000</speed>
</trkpt>
<trkpt lat="56.036247" lon="26.676479">
<ele>113.098694</ele>
<time>2010-06-20T12:41:10Z</time>
<desc>lat.=56.036247, lon.=26.676479, Alt.=113.098694m. Speed=5.436000m/h.</desc>
<speed>1.510000</speed>
</trkpt>
<trkpt lat="56.036236" lon="26.676477">
<ele>113.294006</ele>
<time>2010-06-20T12:41:11Z</time>
<desc>lat.=56.036236, lon.=26.676477, Alt.=113.294006m. Speed=5.580000m/h.</desc>
<speed>1.550000</speed>
</trkpt>
<trkpt lat="56.036221" lon="26.676481">
<ele>113.321350</ele>
<time>2010-06-20T12:41:12Z</time>
<desc>lat.=56.036221, lon.=26.676481, Alt.=113.321350m. Speed=3.240000m/h.</desc>
<speed>0.900000</speed>
</trkpt>
<trkpt lat="56.036217" lon="26.676485">
<ele>113.444397</ele>
<time>2010-06-20T12:41:13Z</time>
<desc>lat.=56.036217, lon.=26.676485, Alt.=113.444397m. Speed=0.972000m/h.</desc>
<speed>0.270000</speed>
</trkpt>
<trkpt lat="56.036217" lon="26.676491">
<ele>113.592834</ele>
<time>2010-06-20T12:41:14Z</time>
<desc>lat.=56.036217, lon.=26.676491, Alt.=113.592834m. Speed=0.288000m/h.</desc>
<speed>0.080000</speed>
</trkpt>
<trkpt lat="56.036217" lon="26.676497">
<ele>113.696350</ele>
<time>2010-06-20T12:41:15Z</time>
<desc>lat.=56.036217, lon.=26.676497, Alt.=113.696350m. Speed=0.252000m/h.</desc>
<speed>0.070000</speed>
</trkpt>
<trkpt lat="56.036217" lon="26.676498">
<ele>113.772522</ele>
<time>2010-06-20T12:41:16Z</time>
<desc>lat.=56.036217, lon.=26.676498, Alt.=113.772522m. Speed=0.360000m/h.</desc>
<speed>0.100000</speed>
</trkpt>
<trkpt lat="56.036217" lon="26.676500">
<ele>113.833069</ele>
<time>2010-06-20T12:41:17Z</time>
<desc>lat.=56.036217, lon.=26.676500, Alt.=113.833069m. Speed=0.828000m/h.</desc>
<speed>0.230000</speed>
</trkpt>
<trkpt lat="56.036213" lon="26.676502">
<ele>113.881897</ele>
<time>2010-06-20T12:41:18Z</time>
<desc>lat.=56.036213, lon.=26.676502, Alt.=113.881897m. Speed=0.252000m/h.</desc>
<speed>0.070000</speed>
</trkpt>
<trkpt lat="56.036213" lon="26.676502">
<ele>113.917053</ele>
<time>2010-06-20T12:41:19Z</time>
<desc>lat.=56.036213, lon.=26.676502, Alt.=113.917053m. Speed=3.852000m/h.</desc>
<speed>1.070000</speed>
</trkpt>
<trkpt lat="56.036217" lon="26.676508">
<ele>114.129944</ele>
<time>2010-06-20T12:41:20Z</time>
<desc>lat.=56.036217, lon.=26.676508, Alt.=114.129944m. Speed=0.252000m/h.</desc>
<speed>0.070000</speed>
</trkpt>
<trkpt lat="56.036217" lon="26.676512">
<ele>114.307678</ele>
<time>2010-06-20T12:41:21Z</time>
<desc>lat.=56.036217, lon.=26.676512, Alt.=114.307678m. Speed=0.252000m/h.</desc>
<speed>0.070000</speed>
</trkpt>
<trkpt lat="56.036213" lon="26.676510">
<ele>114.198303</ele>
<time>2010-06-20T12:41:22Z</time>
<desc>lat.=56.036213, lon.=26.676510, Alt.=114.198303m. Speed=0.288000m/h.</desc>
<speed>0.080000</speed>
</trkpt>
<trkpt lat="56.036213" lon="26.676504">
<ele>114.280334</ele>
<time>2010-06-20T12:41:23Z</time>
<desc>lat.=56.036213, lon.=26.676504, Alt.=114.280334m. Speed=0.072000m/h.</desc>
<speed>0.020000</speed>
</trkpt>
<trkpt lat="56.036213" lon="26.676502">
<ele>114.307678</ele>
<time>2010-06-20T12:41:24Z</time>
<desc>lat.=56.036213, lon.=26.676502, Alt.=114.307678m. Speed=0.036000m/h.</desc>
<speed>0.010000</speed>
</trkpt>
<trkpt lat="56.036213" lon="26.676502">
<ele>114.338928</ele>
<time>2010-06-20T12:41:25Z</time>
<desc>lat.=56.036213, lon.=26.676502, Alt.=114.338928m. Speed=0.072000m/h.</desc>
<speed>0.020000</speed>
</trkpt>
<trkpt lat="56.036213" lon="26.676502">
<ele>114.321350</ele>
<time>2010-06-20T12:41:26Z</time>
<desc>lat.=56.036213, lon.=26.676502, Alt.=114.321350m. Speed=0.072000m/h.</desc>
<speed>0.020000</speed>
</trkpt>
<trkpt lat="56.036213" lon="26.676502">
<ele>114.313538</ele>
<time>2010-06-20T12:41:27Z</time>
<desc>lat.=56.036213, lon.=26.676502, Alt.=114.313538m. Speed=0.792000m/h.</desc>
<speed>0.220000</speed>
</trkpt>
<trkpt lat="56.036209" lon="26.676504">
<ele>114.243225</ele>
<time>2010-06-20T12:41:28Z</time>
<desc>lat.=56.036209, lon.=26.676504, Alt.=114.243225m. Speed=0.252000m/h.</desc>
<speed>0.070000</speed>
</trkpt>
<trkpt lat="56.036209" lon="26.676504">
<ele>114.180725</ele>
<time>2010-06-20T12:41:29Z</time>
<desc>lat.=56.036209, lon.=26.676504, Alt.=114.180725m. Speed=0.288000m/h.</desc>
<speed>0.080000</speed>
</trkpt>
<trkpt lat="56.036209" lon="26.676504">
<ele>114.149475</ele>
<time>2010-06-20T12:41:30Z</time>
<desc>lat.=56.036209, lon.=26.676504, Alt.=114.149475m. Speed=0.180000m/h.</desc>
<speed>0.050000</speed>
</trkpt>
<trkpt lat="56.036209" lon="26.676502">
<ele>114.102600</ele>
<time>2010-06-20T12:41:31Z</time>
<desc>lat.=56.036209, lon.=26.676502, Alt.=114.102600m. Speed=0.144000m/h.</desc>
<speed>0.040000</speed>
</trkpt>
<trkpt lat="56.036209" lon="26.676502">
<ele>114.049866</ele>
<time>2010-06-20T12:41:32Z</time>
<desc>lat.=56.036209, lon.=26.676502, Alt.=114.049866m. Speed=0.324000m/h.</desc>
<speed>0.090000</speed>
</trkpt>
<trkpt lat="56.036209" lon="26.676502">
<ele>114.006897</ele>
<time>2010-06-20T12:41:33Z</time>
<desc>lat.=56.036209, lon.=26.676502, Alt.=114.006897m. Speed=0.252000m/h.</desc>
<speed>0.070000</speed>
</trkpt>
<trkpt lat="56.036209" lon="26.676502">
<ele>114.008850</ele>
<time>2010-06-20T12:41:34Z</time>
<desc>lat.=56.036209, lon.=26.676502, Alt.=114.008850m. Speed=0.072000m/h.</desc>
<speed>0.020000</speed>
</trkpt>
<trkpt lat="56.036209" lon="26.676502">
<ele>114.014709</ele>
<time>2010-06-20T12:41:35Z</time>
<desc>lat.=56.036209, lon.=26.676502, Alt.=114.014709m. Speed=0.252000m/h.</desc>
<speed>0.070000</speed>
</trkpt>
<trkpt lat="56.036209" lon="26.676502">
<ele>114.014709</ele>
<time>2010-06-20T12:41:36Z</time>
<desc>lat.=56.036209, lon.=26.676502, Alt.=114.014709m. Speed=0.108000m/h.</desc>
<speed>0.030000</speed>
</trkpt>
<trkpt lat="56.036209" lon="26.676502">
<ele>114.012756</ele>
<time>2010-06-20T12:41:37Z</time>
<desc>lat.=56.036209, lon.=26.676502, Alt.=114.012756m. Speed=0.036000m/h.</desc>
<speed>0.010000</speed>
</trkpt>
<trkpt lat="56.036209" lon="26.676502">
<ele>114.014709</ele>
<time>2010-06-20T12:41:38Z</time>
<desc>lat.=56.036209, lon.=26.676502, Alt.=114.014709m. Speed=0.072000m/h.</desc>
<speed>0.020000</speed>
</trkpt>
<trkpt lat="56.036209" lon="26.676502">
<ele>114.018616</ele>
<time>2010-06-20T12:41:39Z</time>
<desc>lat.=56.036209, lon.=26.676502, Alt.=114.018616m. Speed=0.072000m/h.</desc>
<speed>0.020000</speed>
</trkpt>
<trkpt lat="56.036209" lon="26.676502">
<ele>114.022522</ele>
<time>2010-06-20T12:41:40Z</time>
<desc>lat.=56.036209, lon.=26.676502, Alt.=114.022522m. Speed=0.288000m/h.</desc>
<speed>0.080000</speed>
</trkpt>
<trkpt lat="56.036209" lon="26.676502">
<ele>114.020569</ele>
<time>2010-06-20T12:41:41Z</time>
<desc>lat.=56.036209, lon.=26.676502, Alt.=114.020569m. Speed=0.036000m/h.</desc>
<speed>0.010000</speed>
</trkpt>
<trkpt lat="56.036209" lon="26.676502">
<ele>114.028381</ele>
<time>2010-06-20T12:41:42Z</time>
<desc>lat.=56.036209, lon.=26.676502, Alt.=114.028381m. Speed=0.036000m/h.</desc>
<speed>0.010000</speed>
</trkpt>
<trkpt lat="56.036209" lon="26.676502">
<ele>114.034241</ele>
<time>2010-06-20T12:41:43Z</time>
<desc>lat.=56.036209, lon.=26.676502, Alt.=114.034241m. Speed=0.036000m/h.</desc>
<speed>0.010000</speed>
</trkpt>
<trkpt lat="56.036209" lon="26.676502">
<ele>114.038147</ele>
<time>2010-06-20T12:41:44Z</time>
<desc>lat.=56.036209, lon.=26.676502, Alt.=114.038147m. Speed=0.108000m/h.</desc>
<speed>0.030000</speed>
</trkpt>
<trkpt lat="56.036209" lon="26.676502">
<ele>114.044006</ele>
<time>2010-06-20T12:41:45Z</time>
<desc>lat.=56.036209, lon.=26.676502, Alt.=114.044006m. Speed=0.036000m/h.</desc>
<speed>0.010000</speed>
</trkpt>
<trkpt lat="56.036209" lon="26.676502">
<ele>114.049866</ele>
<time>2010-06-20T12:41:46Z</time>
<desc>lat.=56.036209, lon.=26.676502, Alt.=114.049866m. Speed=0.072000m/h.</desc>
<speed>0.020000</speed>
</trkpt>
<trkpt lat="56.036209" lon="26.676502">
<ele>114.055725</ele>
<time>2010-06-20T12:41:47Z</time>
<desc>lat.=56.036209, lon.=26.676502, Alt.=114.055725m. Speed=0.144000m/h.</desc>
<speed>0.040000</speed>
</trkpt>
<trkpt lat="56.036209" lon="26.676502">
<ele>114.061584</ele>
<time>2010-06-20T12:41:48Z</time>
<desc>lat.=56.036209, lon.=26.676502, Alt.=114.061584m. Speed=0.036000m/h.</desc>
<speed>0.010000</speed>
</trkpt>
<trkpt lat="56.036209" lon="26.676502">
<ele>114.065491</ele>
<time>2010-06-20T12:41:49Z</time>
<desc>lat.=56.036209, lon.=26.676502, Alt.=114.065491m. Speed=0.000000m/h.</desc>
<speed>0.000000</speed>
</trkpt>
<trkpt lat="56.036209" lon="26.676502">
<ele>114.077209</ele>
<time>2010-06-20T12:41:50Z</time>
<desc>lat.=56.036209, lon.=26.676502, Alt.=114.077209m. Speed=0.216000m/h.</desc>
<speed>0.060000</speed>
</trkpt>
<trkpt lat="56.036209" lon="26.676502">
<ele>114.081116</ele>
<time>2010-06-20T12:41:51Z</time>
<desc>lat.=56.036209, lon.=26.676502, Alt.=114.081116m. Speed=0.072000m/h.</desc>
<speed>0.020000</speed>
</trkpt>
<trkpt lat="56.036209" lon="26.676502">
<ele>114.086975</ele>
<time>2010-06-20T12:41:52Z</time>
<desc>lat.=56.036209, lon.=26.676502, Alt.=114.086975m. Speed=0.072000m/h.</desc>
<speed>0.020000</speed>
</trkpt>
<trkpt lat="56.036209" lon="26.676502">
<ele>114.088928</ele>
<time>2010-06-20T12:41:53Z</time>
<desc>lat.=56.036209, lon.=26.676502, Alt.=114.088928m. Speed=0.252000m/h.</desc>
<speed>0.070000</speed>
</trkpt>
<trkpt lat="56.036209" lon="26.676502">
<ele>114.092834</ele>
<time>2010-06-20T12:41:54Z</time>
<desc>lat.=56.036209, lon.=26.676502, Alt.=114.092834m. Speed=0.144000m/h.</desc>
<speed>0.040000</speed>
</trkpt>
<trkpt lat="56.036209" lon="26.676502">
<ele>114.045959</ele>
<time>2010-06-20T12:41:55Z</time>
<desc>lat.=56.036209, lon.=26.676502, Alt.=114.045959m. Speed=0.000000m/h.</desc>
<speed>0.000000</speed>
</trkpt>
<trkpt lat="56.036209" lon="26.676502">
<ele>114.044006</ele>
<time>2010-06-20T12:41:56Z</time>
<desc>lat.=56.036209, lon.=26.676502, Alt.=114.044006m. Speed=0.072000m/h.</desc>
<speed>0.020000</speed>
</trkpt>
<trkpt lat="56.036209" lon="26.676502">
<ele>114.047913</ele>
<time>2010-06-20T12:41:57Z</time>
<desc>lat.=56.036209, lon.=26.676502, Alt.=114.047913m. Speed=0.000000m/h.</desc>
<speed>0.000000</speed>
</trkpt>
<trkpt lat="56.036209" lon="26.676502">
<ele>114.049866</ele>
<time>2010-06-20T12:41:58Z</time>
<desc>lat.=56.036209, lon.=26.676502, Alt.=114.049866m. Speed=0.072000m/h.</desc>
<speed>0.020000</speed>
</trkpt>
<trkpt lat="56.036209" lon="26.676502">
<ele>114.051819</ele>
<time>2010-06-20T12:41:59Z</time>
<desc>lat.=56.036209, lon.=26.676502, Alt.=114.051819m. Speed=0.036000m/h.</desc>
<speed>0.010000</speed>
</trkpt>
<trkpt lat="56.036209" lon="26.676502">
<ele>114.055725</ele>
<time>2010-06-20T12:42:00Z</time>
<desc>lat.=56.036209, lon.=26.676502, Alt.=114.055725m. Speed=0.000000m/h.</desc>
<speed>0.000000</speed>
</trkpt>
<trkpt lat="56.036209" lon="26.676502">
<ele>114.057678</ele>
<time>2010-06-20T12:42:01Z</time>
<desc>lat.=56.036209, lon.=26.676502, Alt.=114.057678m. Speed=0.216000m/h.</desc>
<speed>0.060000</speed>
</trkpt>
<trkpt lat="56.036209" lon="26.676502">
<ele>114.061584</ele>
<time>2010-06-20T12:42:02Z</time>
<desc>lat.=56.036209, lon.=26.676502, Alt.=114.061584m. Speed=0.036000m/h.</desc>
<speed>0.010000</speed>
</trkpt>
<trkpt lat="56.036209" lon="26.676502">
<ele>114.067444</ele>
<time>2010-06-20T12:42:03Z</time>
<desc>lat.=56.036209, lon.=26.676502, Alt.=114.067444m. Speed=0.000000m/h.</desc>
<speed>0.000000</speed>
</trkpt>
<trkpt lat="56.036209" lon="26.676502">
<ele>114.073303</ele>
<time>2010-06-20T12:42:04Z</time>
<desc>lat.=56.036209, lon.=26.676502, Alt.=114.073303m. Speed=0.108000m/h.</desc>
<speed>0.030000</speed>
</trkpt>
<trkpt lat="56.036209" lon="26.676502">
<ele>114.083069</ele>
<time>2010-06-20T12:42:05Z</time>
<desc>lat.=56.036209, lon.=26.676502, Alt.=114.083069m. Speed=0.036000m/h.</desc>
<speed>0.010000</speed>
</trkpt>
<trkpt lat="56.036209" lon="26.676502">
<ele>114.083069</ele>
<time>2010-06-20T12:42:06Z</time>
<desc>lat.=56.036209, lon.=26.676502, Alt.=114.083069m. Speed=0.108000m/h.</desc>
<speed>0.030000</speed>
</trkpt>
<trkpt lat="56.036209" lon="26.676502">
<ele>114.083069</ele>
<time>2010-06-20T12:42:07Z</time>
<desc>lat.=56.036209, lon.=26.676502, Alt.=114.083069m. Speed=0.000000m/h.</desc>
<speed>0.000000</speed>
</trkpt>
<trkpt lat="56.036209" lon="26.676502">
<ele>114.088928</ele>
<time>2010-06-20T12:42:08Z</time>
<desc>lat.=56.036209, lon.=26.676502, Alt.=114.088928m. Speed=0.000000m/h.</desc>
<speed>0.000000</speed>
</trkpt>
<trkpt lat="56.036209" lon="26.676502">
<ele>114.088928</ele>
<time>2010-06-20T12:42:09Z</time>
<desc>lat.=56.036209, lon.=26.676502, Alt.=114.088928m. Speed=0.288000m/h.</desc>
<speed>0.080000</speed>
</trkpt>
<trkpt lat="56.036209" lon="26.676502">
<ele>114.088928</ele>
<time>2010-06-20T12:42:10Z</time>
<desc>lat.=56.036209, lon.=26.676502, Alt.=114.088928m. Speed=0.000000m/h.</desc>
<speed>0.000000</speed>
</trkpt>
<trkpt lat="56.036209" lon="26.676502">
<ele>114.088928</ele>
<time>2010-06-20T12:42:11Z</time>
<desc>lat.=56.036209, lon.=26.676502, Alt.=114.088928m. Speed=0.072000m/h.</desc>
<speed>0.020000</speed>
</trkpt>
<trkpt lat="56.036209" lon="26.676502">
<ele>114.088928</ele>
<time>2010-06-20T12:42:12Z</time>
<desc>lat.=56.036209, lon.=26.676502, Alt.=114.088928m. Speed=0.108000m/h.</desc>
<speed>0.030000</speed>
</trkpt>
<trkpt lat="56.036209" lon="26.676502">
<ele>114.090881</ele>
<time>2010-06-20T12:42:13Z</time>
<desc>lat.=56.036209, lon.=26.676502, Alt.=114.090881m. Speed=0.072000m/h.</desc>
<speed>0.020000</speed>
</trkpt>
<trkpt lat="56.036209" lon="26.676502">
<ele>114.094788</ele>
<time>2010-06-20T12:42:14Z</time>
<desc>lat.=56.036209, lon.=26.676502, Alt.=114.094788m. Speed=0.072000m/h.</desc>
<speed>0.020000</speed>
</trkpt>
<trkpt lat="56.036209" lon="26.676502">
<ele>114.100647</ele>
<time>2010-06-20T12:42:15Z</time>
<desc>lat.=56.036209, lon.=26.676502, Alt.=114.100647m. Speed=0.216000m/h.</desc>
<speed>0.060000</speed>
</trkpt>
<trkpt lat="56.036209" lon="26.676502">
<ele>114.100647</ele>
<time>2010-06-20T12:42:16Z</time>
<desc>lat.=56.036209, lon.=26.676502, Alt.=114.100647m. Speed=0.036000m/h.</desc>
<speed>0.010000</speed>
</trkpt>
<trkpt lat="56.036209" lon="26.676502">
<ele>114.102600</ele>
<time>2010-06-20T12:42:17Z</time>
<desc>lat.=56.036209, lon.=26.676502, Alt.=114.102600m. Speed=0.072000m/h.</desc>
<speed>0.020000</speed>
</trkpt>
<trkpt lat="56.036209" lon="26.676502">
<ele>114.104553</ele>
<time>2010-06-20T12:42:18Z</time>
<desc>lat.=56.036209, lon.=26.676502, Alt.=114.104553m. Speed=0.000000m/h.</desc>
<speed>0.000000</speed>
</trkpt>
<trkpt lat="56.036209" lon="26.676502">
<ele>114.104553</ele>
<time>2010-06-20T12:42:19Z</time>
<desc>lat.=56.036209, lon.=26.676502, Alt.=114.104553m. Speed=0.000000m/h.</desc>
<speed>0.000000</speed>
</trkpt>
<trkpt lat="56.036209" lon="26.676502">
<ele>114.106506</ele>
<time>2010-06-20T12:42:20Z</time>
<desc>lat.=56.036209, lon.=26.676502, Alt.=114.106506m. Speed=0.000000m/h.</desc>
<speed>0.000000</speed>
</trkpt>
<trkpt lat="56.036209" lon="26.676502">
<ele>114.106506</ele>
<time>2010-06-20T12:42:21Z</time>
<desc>lat.=56.036209, lon.=26.676502, Alt.=114.106506m. Speed=0.036000m/h.</desc>
<speed>0.010000</speed>
</trkpt>
<trkpt lat="56.036209" lon="26.676502">
<ele>114.108459</ele>
<time>2010-06-20T12:42:22Z</time>
<desc>lat.=56.036209, lon.=26.676502, Alt.=114.108459m. Speed=0.036000m/h.</desc>
<speed>0.010000</speed>
</trkpt>
<trkpt lat="56.036209" lon="26.676502">
<ele>114.110413</ele>
<time>2010-06-20T12:42:23Z</time>
<desc>lat.=56.036209, lon.=26.676502, Alt.=114.110413m. Speed=0.000000m/h.</desc>
<speed>0.000000</speed>
</trkpt>
<trkpt lat="56.036209" lon="26.676502">
<ele>114.112366</ele>
<time>2010-06-20T12:42:24Z</time>
<desc>lat.=56.036209, lon.=26.676502, Alt.=114.112366m. Speed=0.036000m/h.</desc>
<speed>0.010000</speed>
</trkpt>
<trkpt lat="56.036209" lon="26.676502">
<ele>114.114319</ele>
<time>2010-06-20T12:42:25Z</time>
<desc>lat.=56.036209, lon.=26.676502, Alt.=114.114319m. Speed=0.036000m/h.</desc>
<speed>0.010000</speed>
</trkpt>
<trkpt lat="56.036209" lon="26.676502">
<ele>114.114319</ele>
<time>2010-06-20T12:42:26Z</time>
<desc>lat.=56.036209, lon.=26.676502, Alt.=114.114319m. Speed=0.000000m/h.</desc>
<speed>0.000000</speed>
</trkpt>
<trkpt lat="56.036209" lon="26.676502">
<ele>114.116272</ele>
<time>2010-06-20T12:42:27Z</time>
<desc>lat.=56.036209, lon.=26.676502, Alt.=114.116272m. Speed=0.000000m/h.</desc>
<speed>0.000000</speed>
</trkpt>
<trkpt lat="56.036209" lon="26.676502">
<ele>114.116272</ele>
<time>2010-06-20T12:42:28Z</time>
<desc>lat.=56.036209, lon.=26.676502, Alt.=114.116272m. Speed=0.000000m/h.</desc>
<speed>0.000000</speed>
</trkpt>
<trkpt lat="56.036209" lon="26.676502">
<ele>114.118225</ele>
<time>2010-06-20T12:42:29Z</time>
<desc>lat.=56.036209, lon.=26.676502, Alt.=114.118225m. Speed=0.036000m/h.</desc>
<speed>0.010000</speed>
</trkpt>
<trkpt lat="56.036209" lon="26.676502">
<ele>114.118225</ele>
<time>2010-06-20T12:42:30Z</time>
<desc>lat.=56.036209, lon.=26.676502, Alt.=114.118225m. Speed=0.036000m/h.</desc>
<speed>0.010000</speed>
</trkpt>
<trkpt lat="56.036209" lon="26.676500">
<ele>114.118225</ele>
<time>2010-06-20T12:42:31Z</time>
<desc>lat.=56.036209, lon.=26.676500, Alt.=114.118225m. Speed=0.036000m/h.</desc>
<speed>0.010000</speed>
</trkpt>
<trkpt lat="56.036209" lon="26.676500">
<ele>114.118225</ele>
<time>2010-06-20T12:42:32Z</time>
<desc>lat.=56.036209, lon.=26.676500, Alt.=114.118225m. Speed=0.036000m/h.</desc>
<speed>0.010000</speed>
</trkpt>
<trkpt lat="56.036209" lon="26.676500">
<ele>114.118225</ele>
<time>2010-06-20T12:42:33Z</time>
<desc>lat.=56.036209, lon.=26.676500, Alt.=114.118225m. Speed=0.036000m/h.</desc>
<speed>0.010000</speed>
</trkpt>
<trkpt lat="56.036209" lon="26.676500">
<ele>114.120178</ele>
<time>2010-06-20T12:42:34Z</time>
<desc>lat.=56.036209, lon.=26.676500, Alt.=114.120178m. Speed=0.036000m/h.</desc>
<speed>0.010000</speed>
</trkpt>
<trkpt lat="56.036209" lon="26.676500">
<ele>114.122131</ele>
<time>2010-06-20T12:42:35Z</time>
<desc>lat.=56.036209, lon.=26.676500, Alt.=114.122131m. Speed=0.036000m/h.</desc>
<speed>0.010000</speed>
</trkpt>
<trkpt lat="56.036209" lon="26.676500">
<ele>114.126038</ele>
<time>2010-06-20T12:42:36Z</time>
<desc>lat.=56.036209, lon.=26.676500, Alt.=114.126038m. Speed=0.072000m/h.</desc>
<speed>0.020000</speed>
</trkpt>
<trkpt lat="56.036209" lon="26.676498">
<ele>114.129944</ele>
<time>2010-06-20T12:42:37Z</time>
<desc>lat.=56.036209, lon.=26.676498, Alt.=114.129944m. Speed=0.108000m/h.</desc>
<speed>0.030000</speed>
</trkpt>
<trkpt lat="56.036209" lon="26.676498">
<ele>114.135803</ele>
<time>2010-06-20T12:42:38Z</time>
<desc>lat.=56.036209, lon.=26.676498, Alt.=114.135803m. Speed=0.144000m/h.</desc>
<speed>0.040000</speed>
</trkpt>
<trkpt lat="56.036209" lon="26.676498">
<ele>114.141663</ele>
<time>2010-06-20T12:42:39Z</time>
<desc>lat.=56.036209, lon.=26.676498, Alt.=114.141663m. Speed=0.108000m/h.</desc>
<speed>0.030000</speed>
</trkpt>
<trkpt lat="56.036209" lon="26.676497">
<ele>114.147522</ele>
<time>2010-06-20T12:42:40Z</time>
<desc>lat.=56.036209, lon.=26.676497, Alt.=114.147522m. Speed=0.108000m/h.</desc>
<speed>0.030000</speed>
</trkpt>
<trkpt lat="56.036209" lon="26.676497">
<ele>114.153381</ele>
<time>2010-06-20T12:42:41Z</time>
<desc>lat.=56.036209, lon.=26.676497, Alt.=114.153381m. Speed=0.072000m/h.</desc>
<speed>0.020000</speed>
</trkpt>
<trkpt lat="56.036209" lon="26.676497">
<ele>114.159241</ele>
<time>2010-06-20T12:42:42Z</time>
<desc>lat.=56.036209, lon.=26.676497, Alt.=114.159241m. Speed=0.108000m/h.</desc>
<speed>0.030000</speed>
</trkpt>
<trkpt lat="56.036205" lon="26.676497">
<ele>114.163147</ele>
<time>2010-06-20T12:42:43Z</time>
<desc>lat.=56.036205, lon.=26.676497, Alt.=114.163147m. Speed=0.144000m/h.</desc>
<speed>0.040000</speed>
</trkpt>
<trkpt lat="56.036205" lon="26.676495">
<ele>114.167053</ele>
<time>2010-06-20T12:42:44Z</time>
<desc>lat.=56.036205, lon.=26.676495, Alt.=114.167053m. Speed=0.180000m/h.</desc>
<speed>0.050000</speed>
</trkpt>
<trkpt lat="56.036205" lon="26.676495">
<ele>114.172913</ele>
<time>2010-06-20T12:42:45Z</time>
<desc>lat.=56.036205, lon.=26.676495, Alt.=114.172913m. Speed=0.108000m/h.</desc>
<speed>0.030000</speed>
</trkpt>
<trkpt lat="56.036205" lon="26.676495">
<ele>114.178772</ele>
<time>2010-06-20T12:42:46Z</time>
<desc>lat.=56.036205, lon.=26.676495, Alt.=114.178772m. Speed=0.180000m/h.</desc>
<speed>0.050000</speed>
</trkpt>
<trkpt lat="56.036205" lon="26.676493">
<ele>114.184631</ele>
<time>2010-06-20T12:42:47Z</time>
<desc>lat.=56.036205, lon.=26.676493, Alt.=114.184631m. Speed=0.180000m/h.</desc>
<speed>0.050000</speed>
</trkpt>
<trkpt lat="56.036205" lon="26.676493">
<ele>114.192444</ele>
<time>2010-06-20T12:42:48Z</time>
<desc>lat.=56.036205, lon.=26.676493, Alt.=114.192444m. Speed=0.144000m/h.</desc>
<speed>0.040000</speed>
</trkpt>
<trkpt lat="56.036205" lon="26.676493">
<ele>114.198303</ele>
<time>2010-06-20T12:42:49Z</time>
<desc>lat.=56.036205, lon.=26.676493, Alt.=114.198303m. Speed=0.144000m/h.</desc>
<speed>0.040000</speed>
</trkpt>
<trkpt lat="56.036205" lon="26.676491">
<ele>114.204163</ele>
<time>2010-06-20T12:42:50Z</time>
<desc>lat.=56.036205, lon.=26.676491, Alt.=114.204163m. Speed=0.180000m/h.</desc>
<speed>0.050000</speed>
</trkpt>
<trkpt lat="56.036205" lon="26.676491">
<ele>114.210022</ele>
<time>2010-06-20T12:42:51Z</time>
<desc>lat.=56.036205, lon.=26.676491, Alt.=114.210022m. Speed=0.144000m/h.</desc>
<speed>0.040000</speed>
</trkpt>
<trkpt lat="56.036205" lon="26.676489">
<ele>114.217834</ele>
<time>2010-06-20T12:42:52Z</time>
<desc>lat.=56.036205, lon.=26.676489, Alt.=114.217834m. Speed=0.072000m/h.</desc>
<speed>0.020000</speed>
</trkpt>
<trkpt lat="56.036205" lon="26.676489">
<ele>114.223694</ele>
<time>2010-06-20T12:42:53Z</time>
<desc>lat.=56.036205, lon.=26.676489, Alt.=114.223694m. Speed=0.072000m/h.</desc>
<speed>0.020000</speed>
</trkpt>
<trkpt lat="56.036205" lon="26.676489">
<ele>114.231506</ele>
<time>2010-06-20T12:42:54Z</time>
<desc>lat.=56.036205, lon.=26.676489, Alt.=114.231506m. Speed=0.144000m/h.</desc>
<speed>0.040000</speed>
</trkpt>
<trkpt lat="56.036205" lon="26.676489">
<ele>114.243225</ele>
<time>2010-06-20T12:42:55Z</time>
<desc>lat.=56.036205, lon.=26.676489, Alt.=114.243225m. Speed=0.144000m/h.</desc>
<speed>0.040000</speed>
</trkpt>
<trkpt lat="56.036205" lon="26.676487">
<ele>114.252991</ele>
<time>2010-06-20T12:42:56Z</time>
<desc>lat.=56.036205, lon.=26.676487, Alt.=114.252991m. Speed=0.180000m/h.</desc>
<speed>0.050000</speed>
</trkpt>
<trkpt lat="56.036205" lon="26.676487">
<ele>114.262756</ele>
<time>2010-06-20T12:42:57Z</time>
<desc>lat.=56.036205, lon.=26.676487, Alt.=114.262756m. Speed=0.108000m/h.</desc>
<speed>0.030000</speed>
</trkpt>
<trkpt lat="56.036205" lon="26.676487">
<ele>114.268616</ele>
<time>2010-06-20T12:42:58Z</time>
<desc>lat.=56.036205, lon.=26.676487, Alt.=114.268616m. Speed=0.036000m/h.</desc>
<speed>0.010000</speed>
</trkpt>
<trkpt lat="56.036205" lon="26.676485">
<ele>114.276428</ele>
<time>2010-06-20T12:42:59Z</time>
<desc>lat.=56.036205, lon.=26.676485, Alt.=114.276428m. Speed=0.072000m/h.</desc>
<speed>0.020000</speed>
</trkpt>
<trkpt lat="56.036205" lon="26.676485">
<ele>114.284241</ele>
<time>2010-06-20T12:43:00Z</time>
<desc>lat.=56.036205, lon.=26.676485, Alt.=114.284241m. Speed=0.108000m/h.</desc>
<speed>0.030000</speed>
</trkpt>
<trkpt lat="56.036205" lon="26.676485">
<ele>114.292053</ele>
<time>2010-06-20T12:43:01Z</time>
<desc>lat.=56.036205, lon.=26.676485, Alt.=114.292053m. Speed=0.144000m/h.</desc>
<speed>0.040000</speed>
</trkpt>
<trkpt lat="56.036205" lon="26.676485">
<ele>114.301819</ele>
<time>2010-06-20T12:43:02Z</time>
<desc>lat.=56.036205, lon.=26.676485, Alt.=114.301819m. Speed=0.144000m/h.</desc>
<speed>0.040000</speed>
</trkpt>
<trkpt lat="56.036205" lon="26.676485">
<ele>114.309631</ele>
<time>2010-06-20T12:43:03Z</time>
<desc>lat.=56.036205, lon.=26.676485, Alt.=114.309631m. Speed=0.144000m/h.</desc>
<speed>0.040000</speed>
</trkpt>
<trkpt lat="56.036201" lon="26.676485">
<ele>114.313538</ele>
<time>2010-06-20T12:43:04Z</time>
<desc>lat.=56.036201, lon.=26.676485, Alt.=114.313538m. Speed=0.108000m/h.</desc>
<speed>0.030000</speed>
</trkpt>
<trkpt lat="56.036201" lon="26.676485">
<ele>114.329163</ele>
<time>2010-06-20T12:43:05Z</time>
<desc>lat.=56.036201, lon.=26.676485, Alt.=114.329163m. Speed=0.324000m/h.</desc>
<speed>0.090000</speed>
</trkpt>
<trkpt lat="56.036201" lon="26.676485">
<ele>114.338928</ele>
<time>2010-06-20T12:43:06Z</time>
<desc>lat.=56.036201, lon.=26.676485, Alt.=114.338928m. Speed=0.144000m/h.</desc>
<speed>0.040000</speed>
</trkpt>
<trkpt lat="56.036201" lon="26.676483">
<ele>114.346741</ele>
<time>2010-06-20T12:43:07Z</time>
<desc>lat.=56.036201, lon.=26.676483, Alt.=114.346741m. Speed=0.144000m/h.</desc>
<speed>0.040000</speed>
</trkpt>
<trkpt lat="56.036201" lon="26.676485">
<ele>114.350647</ele>
<time>2010-06-20T12:43:08Z</time>
<desc>lat.=56.036201, lon.=26.676485, Alt.=114.350647m. Speed=0.540000m/h.</desc>
<speed>0.150000</speed>
</trkpt>
<trkpt lat="56.036205" lon="26.676485">
<ele>114.358459</ele>
<time>2010-06-20T12:43:09Z</time>
<desc>lat.=56.036205, lon.=26.676485, Alt.=114.358459m. Speed=0.432000m/h.</desc>
<speed>0.120000</speed>
</trkpt>
<trkpt lat="56.036205" lon="26.676485">
<ele>114.364319</ele>
<time>2010-06-20T12:43:10Z</time>
<desc>lat.=56.036205, lon.=26.676485, Alt.=114.364319m. Speed=0.036000m/h.</desc>
<speed>0.010000</speed>
</trkpt>
<trkpt lat="56.036205" lon="26.676485">
<ele>114.372131</ele>
<time>2010-06-20T12:43:11Z</time>
<desc>lat.=56.036205, lon.=26.676485, Alt.=114.372131m. Speed=0.072000m/h.</desc>
<speed>0.020000</speed>
</trkpt>
<trkpt lat="56.036205" lon="26.676485">
<ele>114.379944</ele>
<time>2010-06-20T12:43:12Z</time>
<desc>lat.=56.036205, lon.=26.676485, Alt.=114.379944m. Speed=0.072000m/h.</desc>
<speed>0.020000</speed>
</trkpt>
<trkpt lat="56.036205" lon="26.676485">
<ele>114.383850</ele>
<time>2010-06-20T12:43:13Z</time>
<desc>lat.=56.036205, lon.=26.676485, Alt.=114.383850m. Speed=0.108000m/h.</desc>
<speed>0.030000</speed>
</trkpt>
<trkpt lat="56.036205" lon="26.676485">
<ele>114.391663</ele>
<time>2010-06-20T12:43:14Z</time>
<desc>lat.=56.036205, lon.=26.676485, Alt.=114.391663m. Speed=0.072000m/h.</desc>
<speed>0.020000</speed>
</trkpt>
<trkpt lat="56.036205" lon="26.676485">
<ele>114.397522</ele>
<time>2010-06-20T12:43:15Z</time>
<desc>lat.=56.036205, lon.=26.676485, Alt.=114.397522m. Speed=0.072000m/h.</desc>
<speed>0.020000</speed>
</trkpt>
<trkpt lat="56.036205" lon="26.676485">
<ele>114.387756</ele>
<time>2010-06-20T12:43:16Z</time>
<desc>lat.=56.036205, lon.=26.676485, Alt.=114.387756m. Speed=0.324000m/h.</desc>
<speed>0.090000</speed>
</trkpt>
<trkpt lat="56.036205" lon="26.676485">
<ele>114.385803</ele>
<time>2010-06-20T12:43:17Z</time>
<desc>lat.=56.036205, lon.=26.676485, Alt.=114.385803m. Speed=0.360000m/h.</desc>
<speed>0.100000</speed>
</trkpt>
<trkpt lat="56.036205" lon="26.676483">
<ele>114.383850</ele>
<time>2010-06-20T12:43:18Z</time>
<desc>lat.=56.036205, lon.=26.676483, Alt.=114.383850m. Speed=0.072000m/h.</desc>
<speed>0.020000</speed>
</trkpt>
<trkpt lat="56.036205" lon="26.676483">
<ele>114.381897</ele>
<time>2010-06-20T12:43:19Z</time>
<desc>lat.=56.036205, lon.=26.676483, Alt.=114.381897m. Speed=0.036000m/h.</desc>
<speed>0.010000</speed>
</trkpt>
<trkpt lat="56.036205" lon="26.676483">
<ele>114.379944</ele>
<time>2010-06-20T12:43:20Z</time>
<desc>lat.=56.036205, lon.=26.676483, Alt.=114.379944m. Speed=0.072000m/h.</desc>
<speed>0.020000</speed>
</trkpt>
<trkpt lat="56.036205" lon="26.676483">
<ele>114.377991</ele>
<time>2010-06-20T12:43:21Z</time>
<desc>lat.=56.036205, lon.=26.676483, Alt.=114.377991m. Speed=0.036000m/h.</desc>
<speed>0.010000</speed>
</trkpt>
<trkpt lat="56.036205" lon="26.676483">
<ele>114.377991</ele>
<time>2010-06-20T12:43:22Z</time>
<desc>lat.=56.036205, lon.=26.676483, Alt.=114.377991m. Speed=0.036000m/h.</desc>
<speed>0.010000</speed>
</trkpt>
<trkpt lat="56.036205" lon="26.676485">
<ele>114.385803</ele>
<time>2010-06-20T12:43:23Z</time>
<desc>lat.=56.036205, lon.=26.676485, Alt.=114.385803m. Speed=0.000000m/h.</desc>
<speed>0.000000</speed>
</trkpt>
<trkpt lat="56.036205" lon="26.676485">
<ele>114.387756</ele>
<time>2010-06-20T12:43:24Z</time>
<desc>lat.=56.036205, lon.=26.676485, Alt.=114.387756m. Speed=0.072000m/h.</desc>
<speed>0.020000</speed>
</trkpt>
<trkpt lat="56.036205" lon="26.676485">
<ele>114.387756</ele>
<time>2010-06-20T12:43:25Z</time>
<desc>lat.=56.036205, lon.=26.676485, Alt.=114.387756m. Speed=0.072000m/h.</desc>
<speed>0.020000</speed>
</trkpt>
<trkpt lat="56.036205" lon="26.676485">
<ele>114.387756</ele>
<time>2010-06-20T12:43:26Z</time>
<desc>lat.=56.036205, lon.=26.676485, Alt.=114.387756m. Speed=0.000000m/h.</desc>
<speed>0.000000</speed>
</trkpt>
<trkpt lat="56.036205" lon="26.676485">
<ele>114.385803</ele>
<time>2010-06-20T12:43:27Z</time>
<desc>lat.=56.036205, lon.=26.676485, Alt.=114.385803m. Speed=0.000000m/h.</desc>
<speed>0.000000</speed>
</trkpt>
<trkpt lat="56.036205" lon="26.676485">
<ele>114.387756</ele>
<time>2010-06-20T12:43:28Z</time>
<desc>lat.=56.036205, lon.=26.676485, Alt.=114.387756m. Speed=0.036000m/h.</desc>
<speed>0.010000</speed>
</trkpt>
<trkpt lat="56.036205" lon="26.676485">
<ele>114.389709</ele>
<time>2010-06-20T12:43:29Z</time>
<desc>lat.=56.036205, lon.=26.676485, Alt.=114.389709m. Speed=0.036000m/h.</desc>
<speed>0.010000</speed>
</trkpt>
<trkpt lat="56.036205" lon="26.676485">
<ele>114.391663</ele>
<time>2010-06-20T12:43:30Z</time>
<desc>lat.=56.036205, lon.=26.676485, Alt.=114.391663m. Speed=0.000000m/h.</desc>
<speed>0.000000</speed>
</trkpt>
<trkpt lat="56.036205" lon="26.676485">
<ele>114.393616</ele>
<time>2010-06-20T12:43:31Z</time>
<desc>lat.=56.036205, lon.=26.676485, Alt.=114.393616m. Speed=0.000000m/h.</desc>
<speed>0.000000</speed>
</trkpt>
<trkpt lat="56.036205" lon="26.676485">
<ele>114.397522</ele>
<time>2010-06-20T12:43:32Z</time>
<desc>lat.=56.036205, lon.=26.676485, Alt.=114.397522m. Speed=0.036000m/h.</desc>
<speed>0.010000</speed>
</trkpt>
<trkpt lat="56.036205" lon="26.676485">
<ele>114.401428</ele>
<time>2010-06-20T12:43:33Z</time>
<desc>lat.=56.036205, lon.=26.676485, Alt.=114.401428m. Speed=0.036000m/h.</desc>
<speed>0.010000</speed>
</trkpt>
<trkpt lat="56.036205" lon="26.676485">
<ele>114.405334</ele>
<time>2010-06-20T12:43:34Z</time>
<desc>lat.=56.036205, lon.=26.676485, Alt.=114.405334m. Speed=0.000000m/h.</desc>
<speed>0.000000</speed>
</trkpt>
<trkpt lat="56.036205" lon="26.676485">
<ele>114.411194</ele>
<time>2010-06-20T12:43:35Z</time>
<desc>lat.=56.036205, lon.=26.676485, Alt.=114.411194m. Speed=0.000000m/h.</desc>
<speed>0.000000</speed>
</trkpt>
<trkpt lat="56.036205" lon="26.676485">
<ele>114.415100</ele>
<time>2010-06-20T12:43:36Z</time>
<desc>lat.=56.036205, lon.=26.676485, Alt.=114.415100m. Speed=0.000000m/h.</desc>
<speed>0.000000</speed>
</trkpt>
<trkpt lat="56.036205" lon="26.676485">
<ele>114.417053</ele>
<time>2010-06-20T12:43:37Z</time>
<desc>lat.=56.036205, lon.=26.676485, Alt.=114.417053m. Speed=0.000000m/h.</desc>
<speed>0.000000</speed>
</trkpt>
<trkpt lat="56.036205" lon="26.676485">
<ele>114.419006</ele>
<time>2010-06-20T12:43:38Z</time>
<desc>lat.=56.036205, lon.=26.676485, Alt.=114.419006m. Speed=0.000000m/h.</desc>
<speed>0.000000</speed>
</trkpt>
<trkpt lat="56.036205" lon="26.676485">
<ele>114.422913</ele>
<time>2010-06-20T12:43:39Z</time>
<desc>lat.=56.036205, lon.=26.676485, Alt.=114.422913m. Speed=0.000000m/h.</desc>
<speed>0.000000</speed>
</trkpt>
<trkpt lat="56.036205" lon="26.676485">
<ele>114.426819</ele>
<time>2010-06-20T12:43:40Z</time>
<desc>lat.=56.036205, lon.=26.676485, Alt.=114.426819m. Speed=0.000000m/h.</desc>
<speed>0.000000</speed>
</trkpt>
<trkpt lat="56.036205" lon="26.676485">
<ele>114.430725</ele>
<time>2010-06-20T12:43:41Z</time>
<desc>lat.=56.036205, lon.=26.676485, Alt.=114.430725m. Speed=0.000000m/h.</desc>
<speed>0.000000</speed>
</trkpt>
<trkpt lat="56.036205" lon="26.676485">
<ele>114.440491</ele>
<time>2010-06-20T12:43:42Z</time>
<desc>lat.=56.036205, lon.=26.676485, Alt.=114.440491m. Speed=0.036000m/h.</desc>
<speed>0.010000</speed>
</trkpt>
<trkpt lat="56.036205" lon="26.676485">
<ele>114.444397</ele>
<time>2010-06-20T12:43:43Z</time>
<desc>lat.=56.036205, lon.=26.676485, Alt.=114.444397m. Speed=0.000000m/h.</desc>
<speed>0.000000</speed>
</trkpt>
<trkpt lat="56.036205" lon="26.676485">
<ele>114.448303</ele>
<time>2010-06-20T12:43:44Z</time>
<desc>lat.=56.036205, lon.=26.676485, Alt.=114.448303m. Speed=0.000000m/h.</desc>
<speed>0.000000</speed>
</trkpt>
<trkpt lat="56.036205" lon="26.676485">
<ele>114.456116</ele>
<time>2010-06-20T12:43:45Z</time>
<desc>lat.=56.036205, lon.=26.676485, Alt.=114.456116m. Speed=0.036000m/h.</desc>
<speed>0.010000</speed>
</trkpt>
<trkpt lat="56.036205" lon="26.676487">
<ele>114.465881</ele>
<time>2010-06-20T12:43:46Z</time>
<desc>lat.=56.036205, lon.=26.676487, Alt.=114.465881m. Speed=0.036000m/h.</desc>
<speed>0.010000</speed>
</trkpt>
<trkpt lat="56.036205" lon="26.676487">
<ele>114.469788</ele>
<time>2010-06-20T12:43:47Z</time>
<desc>lat.=56.036205, lon.=26.676487, Alt.=114.469788m. Speed=0.000000m/h.</desc>
<speed>0.000000</speed>
</trkpt>
<trkpt lat="56.036205" lon="26.676487">
<ele>114.475647</ele>
<time>2010-06-20T12:43:48Z</time>
<desc>lat.=56.036205, lon.=26.676487, Alt.=114.475647m. Speed=0.036000m/h.</desc>
<speed>0.010000</speed>
</trkpt>
<trkpt lat="56.036205" lon="26.676487">
<ele>114.481506</ele>
<time>2010-06-20T12:43:49Z</time>
<desc>lat.=56.036205, lon.=26.676487, Alt.=114.481506m. Speed=0.036000m/h.</desc>
<speed>0.010000</speed>
</trkpt>
<trkpt lat="56.036205" lon="26.676487">
<ele>114.485413</ele>
<time>2010-06-20T12:43:50Z</time>
<desc>lat.=56.036205, lon.=26.676487, Alt.=114.485413m. Speed=0.036000m/h.</desc>
<speed>0.010000</speed>
</trkpt>
<trkpt lat="56.036205" lon="26.676487">
<ele>114.489319</ele>
<time>2010-06-20T12:43:51Z</time>
<desc>lat.=56.036205, lon.=26.676487, Alt.=114.489319m. Speed=0.000000m/h.</desc>
<speed>0.000000</speed>
</trkpt>
<trkpt lat="56.036205" lon="26.676487">
<ele>114.495178</ele>
<time>2010-06-20T12:43:52Z</time>
<desc>lat.=56.036205, lon.=26.676487, Alt.=114.495178m. Speed=0.000000m/h.</desc>
<speed>0.000000</speed>
</trkpt>
<trkpt lat="56.036205" lon="26.676489">
<ele>114.497131</ele>
<time>2010-06-20T12:43:53Z</time>
<desc>lat.=56.036205, lon.=26.676489, Alt.=114.497131m. Speed=0.000000m/h.</desc>
<speed>0.000000</speed>
</trkpt>
<trkpt lat="56.036205" lon="26.676489">
<ele>114.499084</ele>
<time>2010-06-20T12:43:54Z</time>
<desc>lat.=56.036205, lon.=26.676489, Alt.=114.499084m. Speed=0.000000m/h.</desc>
<speed>0.000000</speed>
</trkpt>
<trkpt lat="56.036205" lon="26.676489">
<ele>114.506897</ele>
<time>2010-06-20T12:43:55Z</time>
<desc>lat.=56.036205, lon.=26.676489, Alt.=114.506897m. Speed=0.000000m/h.</desc>
<speed>0.000000</speed>
</trkpt>
<trkpt lat="56.036205" lon="26.676489">
<ele>114.512756</ele>
<time>2010-06-20T12:43:56Z</time>
<desc>lat.=56.036205, lon.=26.676489, Alt.=114.512756m. Speed=0.000000m/h.</desc>
<speed>0.000000</speed>
</trkpt>
<trkpt lat="56.036205" lon="26.676489">
<ele>114.514709</ele>
<time>2010-06-20T12:43:57Z</time>
<desc>lat.=56.036205, lon.=26.676489, Alt.=114.514709m. Speed=0.000000m/h.</desc>
<speed>0.000000</speed>
</trkpt>
<trkpt lat="56.036205" lon="26.676489">
<ele>114.518616</ele>
<time>2010-06-20T12:43:58Z</time>
<desc>lat.=56.036205, lon.=26.676489, Alt.=114.518616m. Speed=0.000000m/h.</desc>
<speed>0.000000</speed>
</trkpt>
<trkpt lat="56.036205" lon="26.676489">
<ele>114.528381</ele>
<time>2010-06-20T12:43:59Z</time>
<desc>lat.=56.036205, lon.=26.676489, Alt.=114.528381m. Speed=0.000000m/h.</desc>
<speed>0.000000</speed>
</trkpt>
<trkpt lat="56.036205" lon="26.676489">
<ele>114.528381</ele>
<time>2010-06-20T12:44:00Z</time>
<desc>lat.=56.036205, lon.=26.676489, Alt.=114.528381m. Speed=0.000000m/h.</desc>
<speed>0.000000</speed>
</trkpt>
<trkpt lat="56.036205" lon="26.676489">
<ele>114.536194</ele>
<time>2010-06-20T12:44:01Z</time>
<desc>lat.=56.036205, lon.=26.676489, Alt.=114.536194m. Speed=0.000000m/h.</desc>
<speed>0.000000</speed>
</trkpt>
<trkpt lat="56.036205" lon="26.676489">
<ele>114.544006</ele>
<time>2010-06-20T12:44:02Z</time>
<desc>lat.=56.036205, lon.=26.676489, Alt.=114.544006m. Speed=0.036000m/h.</desc>
<speed>0.010000</speed>
</trkpt>
<trkpt lat="56.036205" lon="26.676489">
<ele>114.547913</ele>
<time>2010-06-20T12:44:03Z</time>
<desc>lat.=56.036205, lon.=26.676489, Alt.=114.547913m. Speed=0.000000m/h.</desc>
<speed>0.000000</speed>
</trkpt>
<trkpt lat="56.036205" lon="26.676489">
<ele>114.551819</ele>
<time>2010-06-20T12:44:04Z</time>
<desc>lat.=56.036205, lon.=26.676489, Alt.=114.551819m. Speed=0.000000m/h.</desc>
<speed>0.000000</speed>
</trkpt>
<trkpt lat="56.036205" lon="26.676491">
<ele>114.553772</ele>
<time>2010-06-20T12:44:05Z</time>
<desc>lat.=56.036205, lon.=26.676491, Alt.=114.553772m. Speed=0.000000m/h.</desc>
<speed>0.000000</speed>
</trkpt>
<trkpt lat="56.036205" lon="26.676491">
<ele>114.557678</ele>
<time>2010-06-20T12:44:06Z</time>
<desc>lat.=56.036205, lon.=26.676491, Alt.=114.557678m. Speed=0.000000m/h.</desc>
<speed>0.000000</speed>
</trkpt>
<trkpt lat="56.036205" lon="26.676491">
<ele>114.565491</ele>
<time>2010-06-20T12:44:07Z</time>
<desc>lat.=56.036205, lon.=26.676491, Alt.=114.565491m. Speed=0.000000m/h.</desc>
<speed>0.000000</speed>
</trkpt>
<trkpt lat="56.036205" lon="26.676491">
<ele>114.563538</ele>
<time>2010-06-20T12:44:08Z</time>
<desc>lat.=56.036205, lon.=26.676491, Alt.=114.563538m. Speed=0.036000m/h.</desc>
<speed>0.010000</speed>
</trkpt>
<trkpt lat="56.036205" lon="26.676491">
<ele>114.571350</ele>
<time>2010-06-20T12:44:09Z</time>
<desc>lat.=56.036205, lon.=26.676491, Alt.=114.571350m. Speed=0.108000m/h.</desc>
<speed>0.030000</speed>
</trkpt>
<trkpt lat="56.036205" lon="26.676491">
<ele>114.571350</ele>
<time>2010-06-20T12:44:10Z</time>
<desc>lat.=56.036205, lon.=26.676491, Alt.=114.571350m. Speed=0.000000m/h.</desc>
<speed>0.000000</speed>
</trkpt>
<trkpt lat="56.036205" lon="26.676491">
<ele>114.571350</ele>
<time>2010-06-20T12:44:11Z</time>
<desc>lat.=56.036205, lon.=26.676491, Alt.=114.571350m. Speed=0.000000m/h.</desc>
<speed>0.000000</speed>
</trkpt>
<trkpt lat="56.036205" lon="26.676491">
<ele>114.571350</ele>
<time>2010-06-20T12:44:12Z</time>
<desc>lat.=56.036205, lon.=26.676491, Alt.=114.571350m. Speed=0.000000m/h.</desc>
<speed>0.000000</speed>
</trkpt>
<trkpt lat="56.036205" lon="26.676491">
<ele>114.573303</ele>
<time>2010-06-20T12:44:13Z</time>
<desc>lat.=56.036205, lon.=26.676491, Alt.=114.573303m. Speed=0.000000m/h.</desc>
<speed>0.000000</speed>
</trkpt>
<trkpt lat="56.036205" lon="26.676491">
<ele>114.573303</ele>
<time>2010-06-20T12:44:14Z</time>
<desc>lat.=56.036205, lon.=26.676491, Alt.=114.573303m. Speed=0.072000m/h.</desc>
<speed>0.020000</speed>
</trkpt>
<trkpt lat="56.036205" lon="26.676491">
<ele>114.577209</ele>
<time>2010-06-20T12:44:15Z</time>
<desc>lat.=56.036205, lon.=26.676491, Alt.=114.577209m. Speed=0.072000m/h.</desc>
<speed>0.020000</speed>
</trkpt>
<trkpt lat="56.036205" lon="26.676491">
<ele>114.579163</ele>
<time>2010-06-20T12:44:16Z</time>
<desc>lat.=56.036205, lon.=26.676491, Alt.=114.579163m. Speed=0.000000m/h.</desc>
<speed>0.000000</speed>
</trkpt>
<trkpt lat="56.036205" lon="26.676491">
<ele>114.577209</ele>
<time>2010-06-20T12:44:17Z</time>
<desc>lat.=56.036205, lon.=26.676491, Alt.=114.577209m. Speed=0.000000m/h.</desc>
<speed>0.000000</speed>
</trkpt>
<trkpt lat="56.036205" lon="26.676491">
<ele>114.577209</ele>
<time>2010-06-20T12:44:18Z</time>
<desc>lat.=56.036205, lon.=26.676491, Alt.=114.577209m. Speed=0.180000m/h.</desc>
<speed>0.050000</speed>
</trkpt>
<trkpt lat="56.036205" lon="26.676491">
<ele>114.581116</ele>
<time>2010-06-20T12:44:19Z</time>
<desc>lat.=56.036205, lon.=26.676491, Alt.=114.581116m. Speed=0.252000m/h.</desc>
<speed>0.070000</speed>
</trkpt>
<trkpt lat="56.036205" lon="26.676491">
<ele>114.583069</ele>
<time>2010-06-20T12:44:20Z</time>
<desc>lat.=56.036205, lon.=26.676491, Alt.=114.583069m. Speed=0.072000m/h.</desc>
<speed>0.020000</speed>
</trkpt>
<trkpt lat="56.036205" lon="26.676491">
<ele>114.583069</ele>
<time>2010-06-20T12:44:21Z</time>
<desc>lat.=56.036205, lon.=26.676491, Alt.=114.583069m. Speed=0.072000m/h.</desc>
<speed>0.020000</speed>
</trkpt>
<trkpt lat="56.036205" lon="26.676491">
<ele>114.583069</ele>
<time>2010-06-20T12:44:22Z</time>
<desc>lat.=56.036205, lon.=26.676491, Alt.=114.583069m. Speed=0.000000m/h.</desc>
<speed>0.000000</speed>
</trkpt>
<trkpt lat="56.036205" lon="26.676491">
<ele>114.581116</ele>
<time>2010-06-20T12:44:23Z</time>
<desc>lat.=56.036205, lon.=26.676491, Alt.=114.581116m. Speed=0.000000m/h.</desc>
<speed>0.000000</speed>
</trkpt>
<trkpt lat="56.036205" lon="26.676491">
<ele>114.581116</ele>
<time>2010-06-20T12:44:24Z</time>
<desc>lat.=56.036205, lon.=26.676491, Alt.=114.581116m. Speed=0.000000m/h.</desc>
<speed>0.000000</speed>
</trkpt>
<trkpt lat="56.036205" lon="26.676491">
<ele>114.581116</ele>
<time>2010-06-20T12:44:25Z</time>
<desc>lat.=56.036205, lon.=26.676491, Alt.=114.581116m. Speed=0.000000m/h.</desc>
<speed>0.000000</speed>
</trkpt>
<trkpt lat="56.036205" lon="26.676491">
<ele>114.583069</ele>
<time>2010-06-20T12:44:26Z</time>
<desc>lat.=56.036205, lon.=26.676491, Alt.=114.583069m. Speed=0.000000m/h.</desc>
<speed>0.000000</speed>
</trkpt>
<trkpt lat="56.036205" lon="26.676491">
<ele>114.585022</ele>
<time>2010-06-20T12:44:27Z</time>
<desc>lat.=56.036205, lon.=26.676491, Alt.=114.585022m. Speed=0.000000m/h.</desc>
<speed>0.000000</speed>
</trkpt>
<trkpt lat="56.036205" lon="26.676491">
<ele>114.585022</ele>
<time>2010-06-20T12:44:28Z</time>
<desc>lat.=56.036205, lon.=26.676491, Alt.=114.585022m. Speed=0.000000m/h.</desc>
<speed>0.000000</speed>
</trkpt>
<trkpt lat="56.036205" lon="26.676491">
<ele>114.585022</ele>
<time>2010-06-20T12:44:29Z</time>
<desc>lat.=56.036205, lon.=26.676491, Alt.=114.585022m. Speed=0.036000m/h.</desc>
<speed>0.010000</speed>
</trkpt>
<trkpt lat="56.036205" lon="26.676491">
<ele>114.583069</ele>
<time>2010-06-20T12:44:30Z</time>
<desc>lat.=56.036205, lon.=26.676491, Alt.=114.583069m. Speed=0.000000m/h.</desc>
<speed>0.000000</speed>
</trkpt>
<trkpt lat="56.036205" lon="26.676491">
<ele>114.583069</ele>
<time>2010-06-20T12:44:31Z</time>
<desc>lat.=56.036205, lon.=26.676491, Alt.=114.583069m. Speed=0.000000m/h.</desc>
<speed>0.000000</speed>
</trkpt>
<trkpt lat="56.036205" lon="26.676491">
<ele>114.585022</ele>
<time>2010-06-20T12:44:32Z</time>
<desc>lat.=56.036205, lon.=26.676491, Alt.=114.585022m. Speed=0.036000m/h.</desc>
<speed>0.010000</speed>
</trkpt>
<trkpt lat="56.036205" lon="26.676491">
<ele>114.586975</ele>
<time>2010-06-20T12:44:33Z</time>
<desc>lat.=56.036205, lon.=26.676491, Alt.=114.586975m. Speed=0.000000m/h.</desc>
<speed>0.000000</speed>
</trkpt>
<trkpt lat="56.036205" lon="26.676491">
<ele>114.586975</ele>
<time>2010-06-20T12:44:34Z</time>
<desc>lat.=56.036205, lon.=26.676491, Alt.=114.586975m. Speed=0.000000m/h.</desc>
<speed>0.000000</speed>
</trkpt>
<trkpt lat="56.036205" lon="26.676491">
<ele>114.588928</ele>
<time>2010-06-20T12:44:35Z</time>
<desc>lat.=56.036205, lon.=26.676491, Alt.=114.588928m. Speed=0.000000m/h.</desc>
<speed>0.000000</speed>
</trkpt>
<trkpt lat="56.036205" lon="26.676491">
<ele>114.588928</ele>
<time>2010-06-20T12:44:36Z</time>
<desc>lat.=56.036205, lon.=26.676491, Alt.=114.588928m. Speed=0.036000m/h.</desc>
<speed>0.010000</speed>
</trkpt>
<trkpt lat="56.036205" lon="26.676491">
<ele>114.590881</ele>
<time>2010-06-20T12:44:37Z</time>
<desc>lat.=56.036205, lon.=26.676491, Alt.=114.590881m. Speed=0.036000m/h.</desc>
<speed>0.010000</speed>
</trkpt>
<trkpt lat="56.036205" lon="26.676491">
<ele>114.590881</ele>
<time>2010-06-20T12:44:38Z</time>
<desc>lat.=56.036205, lon.=26.676491, Alt.=114.590881m. Speed=0.036000m/h.</desc>
<speed>0.010000</speed>
</trkpt>
<trkpt lat="56.036205" lon="26.676491">
<ele>114.596741</ele>
<time>2010-06-20T12:44:39Z</time>
<desc>lat.=56.036205, lon.=26.676491, Alt.=114.596741m. Speed=0.000000m/h.</desc>
<speed>0.000000</speed>
</trkpt>
<trkpt lat="56.036205" lon="26.676491">
<ele>114.600647</ele>
<time>2010-06-20T12:44:40Z</time>
<desc>lat.=56.036205, lon.=26.676491, Alt.=114.600647m. Speed=0.036000m/h.</desc>
<speed>0.010000</speed>
</trkpt>
<trkpt lat="56.036205" lon="26.676491">
<ele>114.600647</ele>
<time>2010-06-20T12:44:41Z</time>
<desc>lat.=56.036205, lon.=26.676491, Alt.=114.600647m. Speed=0.000000m/h.</desc>
<speed>0.000000</speed>
</trkpt>
<trkpt lat="56.036205" lon="26.676491">
<ele>114.600647</ele>
<time>2010-06-20T12:44:42Z</time>
<desc>lat.=56.036205, lon.=26.676491, Alt.=114.600647m. Speed=0.036000m/h.</desc>
<speed>0.010000</speed>
</trkpt>
<trkpt lat="56.036205" lon="26.676491">
<ele>114.604553</ele>
<time>2010-06-20T12:44:43Z</time>
<desc>lat.=56.036205, lon.=26.676491, Alt.=114.604553m. Speed=0.000000m/h.</desc>
<speed>0.000000</speed>
</trkpt>
<trkpt lat="56.036205" lon="26.676491">
<ele>114.604553</ele>
<time>2010-06-20T12:44:44Z</time>
<desc>lat.=56.036205, lon.=26.676491, Alt.=114.604553m. Speed=0.000000m/h.</desc>
<speed>0.000000</speed>
</trkpt>
<trkpt lat="56.036205" lon="26.676491">
<ele>114.606506</ele>
<time>2010-06-20T12:44:45Z</time>
<desc>lat.=56.036205, lon.=26.676491, Alt.=114.606506m. Speed=0.000000m/h.</desc>
<speed>0.000000</speed>
</trkpt>
<trkpt lat="56.036205" lon="26.676491">
<ele>114.608459</ele>
<time>2010-06-20T12:44:46Z</time>
<desc>lat.=56.036205, lon.=26.676491, Alt.=114.608459m. Speed=0.000000m/h.</desc>
<speed>0.000000</speed>
</trkpt>
<trkpt lat="56.036205" lon="26.676491">
<ele>114.608459</ele>
<time>2010-06-20T12:44:47Z</time>
<desc>lat.=56.036205, lon.=26.676491, Alt.=114.608459m. Speed=0.000000m/h.</desc>
<speed>0.000000</speed>
</trkpt>
<trkpt lat="56.036205" lon="26.676491">
<ele>114.612366</ele>
<time>2010-06-20T12:44:48Z</time>
<desc>lat.=56.036205, lon.=26.676491, Alt.=114.612366m. Speed=0.036000m/h.</desc>
<speed>0.010000</speed>
</trkpt>
<trkpt lat="56.036205" lon="26.676491">
<ele>114.618225</ele>
<time>2010-06-20T12:44:49Z</time>
<desc>lat.=56.036205, lon.=26.676491, Alt.=114.618225m. Speed=0.036000m/h.</desc>
<speed>0.010000</speed>
</trkpt>
<trkpt lat="56.036205" lon="26.676491">
<ele>114.620178</ele>
<time>2010-06-20T12:44:50Z</time>
<desc>lat.=56.036205, lon.=26.676491, Alt.=114.620178m. Speed=0.000000m/h.</desc>
<speed>0.000000</speed>
</trkpt>
<trkpt lat="56.036205" lon="26.676491">
<ele>114.622131</ele>
<time>2010-06-20T12:44:51Z</time>
<desc>lat.=56.036205, lon.=26.676491, Alt.=114.622131m. Speed=0.036000m/h.</desc>
<speed>0.010000</speed>
</trkpt>
<trkpt lat="56.036205" lon="26.676491">
<ele>114.626038</ele>
<time>2010-06-20T12:44:52Z</time>
<desc>lat.=56.036205, lon.=26.676491, Alt.=114.626038m. Speed=0.000000m/h.</desc>
<speed>0.000000</speed>
</trkpt>
<trkpt lat="56.036205" lon="26.676491">
<ele>114.626038</ele>
<time>2010-06-20T12:44:53Z</time>
<desc>lat.=56.036205, lon.=26.676491, Alt.=114.626038m. Speed=0.036000m/h.</desc>
<speed>0.010000</speed>
</trkpt>
<trkpt lat="56.036201" lon="26.676491">
<ele>114.626038</ele>
<time>2010-06-20T12:44:54Z</time>
<desc>lat.=56.036201, lon.=26.676491, Alt.=114.626038m. Speed=0.000000m/h.</desc>
<speed>0.000000</speed>
</trkpt>
<trkpt lat="56.036201" lon="26.676491">
<ele>114.627991</ele>
<time>2010-06-20T12:44:55Z</time>
<desc>lat.=56.036201, lon.=26.676491, Alt.=114.627991m. Speed=0.036000m/h.</desc>
<speed>0.010000</speed>
</trkpt>
<trkpt lat="56.036201" lon="26.676491">
<ele>114.629944</ele>
<time>2010-06-20T12:44:56Z</time>
<desc>lat.=56.036201, lon.=26.676491, Alt.=114.629944m. Speed=0.036000m/h.</desc>
<speed>0.010000</speed>
</trkpt>
<trkpt lat="56.036201" lon="26.676493">
<ele>114.637756</ele>
<time>2010-06-20T12:44:57Z</time>
<desc>lat.=56.036201, lon.=26.676493, Alt.=114.637756m. Speed=0.000000m/h.</desc>
<speed>0.000000</speed>
</trkpt>
<trkpt lat="56.036201" lon="26.676493">
<ele>114.643616</ele>
<time>2010-06-20T12:44:58Z</time>
<desc>lat.=56.036201, lon.=26.676493, Alt.=114.643616m. Speed=0.036000m/h.</desc>
<speed>0.010000</speed>
</trkpt>
<trkpt lat="56.036201" lon="26.676493">
<ele>114.645569</ele>
<time>2010-06-20T12:44:59Z</time>
<desc>lat.=56.036201, lon.=26.676493, Alt.=114.645569m. Speed=0.000000m/h.</desc>
<speed>0.000000</speed>
</trkpt>
<trkpt lat="56.036201" lon="26.676493">
<ele>114.647522</ele>
<time>2010-06-20T12:45:00Z</time>
<desc>lat.=56.036201, lon.=26.676493, Alt.=114.647522m. Speed=0.036000m/h.</desc>
<speed>0.010000</speed>
</trkpt>
<trkpt lat="56.036201" lon="26.676493">
<ele>114.651428</ele>
<time>2010-06-20T12:45:01Z</time>
<desc>lat.=56.036201, lon.=26.676493, Alt.=114.651428m. Speed=0.000000m/h.</desc>
<speed>0.000000</speed>
</trkpt>
<trkpt lat="56.036201" lon="26.676493">
<ele>114.653381</ele>
<time>2010-06-20T12:45:02Z</time>
<desc>lat.=56.036201, lon.=26.676493, Alt.=114.653381m. Speed=0.000000m/h.</desc>
<speed>0.000000</speed>
</trkpt>
<trkpt lat="56.036201" lon="26.676493">
<ele>114.655334</ele>
<time>2010-06-20T12:45:03Z</time>
<desc>lat.=56.036201, lon.=26.676493, Alt.=114.655334m. Speed=0.000000m/h.</desc>
<speed>0.000000</speed>
</trkpt>
<trkpt lat="56.036201" lon="26.676493">
<ele>114.655334</ele>
<time>2010-06-20T12:45:04Z</time>
<desc>lat.=56.036201, lon.=26.676493, Alt.=114.655334m. Speed=0.000000m/h.</desc>
<speed>0.000000</speed>
</trkpt>
<trkpt lat="56.036201" lon="26.676493">
<ele>114.657288</ele>
<time>2010-06-20T12:45:05Z</time>
<desc>lat.=56.036201, lon.=26.676493, Alt.=114.657288m. Speed=0.036000m/h.</desc>
<speed>0.010000</speed>
</trkpt>
<trkpt lat="56.036201" lon="26.676493">
<ele>114.659241</ele>
<time>2010-06-20T12:45:06Z</time>
<desc>lat.=56.036201, lon.=26.676493, Alt.=114.659241m. Speed=0.000000m/h.</desc>
<speed>0.000000</speed>
</trkpt>
<trkpt lat="56.036201" lon="26.676493">
<ele>114.659241</ele>
<time>2010-06-20T12:45:07Z</time>
<desc>lat.=56.036201, lon.=26.676493, Alt.=114.659241m. Speed=0.072000m/h.</desc>
<speed>0.020000</speed>
</trkpt>
<trkpt lat="56.036201" lon="26.676493">
<ele>114.659241</ele>
<time>2010-06-20T12:45:08Z</time>
<desc>lat.=56.036201, lon.=26.676493, Alt.=114.659241m. Speed=0.108000m/h.</desc>
<speed>0.030000</speed>
</trkpt>
<trkpt lat="56.036201" lon="26.676493">
<ele>114.665100</ele>
<time>2010-06-20T12:45:09Z</time>
<desc>lat.=56.036201, lon.=26.676493, Alt.=114.665100m. Speed=0.216000m/h.</desc>
<speed>0.060000</speed>
</trkpt>
<trkpt lat="56.036201" lon="26.676493">
<ele>114.657288</ele>
<time>2010-06-20T12:45:10Z</time>
<desc>lat.=56.036201, lon.=26.676493, Alt.=114.657288m. Speed=0.072000m/h.</desc>
<speed>0.020000</speed>
</trkpt>
<trkpt lat="56.036201" lon="26.676493">
<ele>114.655334</ele>
<time>2010-06-20T12:45:11Z</time>
<desc>lat.=56.036201, lon.=26.676493, Alt.=114.655334m. Speed=0.036000m/h.</desc>
<speed>0.010000</speed>
</trkpt>
<trkpt lat="56.036201" lon="26.676493">
<ele>114.661194</ele>
<time>2010-06-20T12:45:12Z</time>
<desc>lat.=56.036201, lon.=26.676493, Alt.=114.661194m. Speed=0.036000m/h.</desc>
<speed>0.010000</speed>
</trkpt>
<trkpt lat="56.036201" lon="26.676493">
<ele>114.667053</ele>
<time>2010-06-20T12:45:13Z</time>
<desc>lat.=56.036201, lon.=26.676493, Alt.=114.667053m. Speed=0.036000m/h.</desc>
<speed>0.010000</speed>
</trkpt>
<trkpt lat="56.036201" lon="26.676493">
<ele>114.674866</ele>
<time>2010-06-20T12:45:14Z</time>
<desc>lat.=56.036201, lon.=26.676493, Alt.=114.674866m. Speed=0.072000m/h.</desc>
<speed>0.020000</speed>
</trkpt>
<trkpt lat="56.036201" lon="26.676493">
<ele>114.678772</ele>
<time>2010-06-20T12:45:15Z</time>
<desc>lat.=56.036201, lon.=26.676493, Alt.=114.678772m. Speed=0.036000m/h.</desc>
<speed>0.010000</speed>
</trkpt>
<trkpt lat="56.036201" lon="26.676493">
<ele>114.678772</ele>
<time>2010-06-20T12:45:16Z</time>
<desc>lat.=56.036201, lon.=26.676493, Alt.=114.678772m. Speed=0.036000m/h.</desc>
<speed>0.010000</speed>
</trkpt>
<trkpt lat="56.036201" lon="26.676493">
<ele>114.672913</ele>
<time>2010-06-20T12:45:17Z</time>
<desc>lat.=56.036201, lon.=26.676493, Alt.=114.672913m. Speed=0.036000m/h.</desc>
<speed>0.010000</speed>
</trkpt>
<trkpt lat="56.036201" lon="26.676493">
<ele>114.672913</ele>
<time>2010-06-20T12:45:18Z</time>
<desc>lat.=56.036201, lon.=26.676493, Alt.=114.672913m. Speed=0.036000m/h.</desc>
<speed>0.010000</speed>
</trkpt>
<trkpt lat="56.036201" lon="26.676493">
<ele>114.674866</ele>
<time>2010-06-20T12:45:19Z</time>
<desc>lat.=56.036201, lon.=26.676493, Alt.=114.674866m. Speed=0.000000m/h.</desc>
<speed>0.000000</speed>
</trkpt>
<trkpt lat="56.036201" lon="26.676493">
<ele>114.676819</ele>
<time>2010-06-20T12:45:20Z</time>
<desc>lat.=56.036201, lon.=26.676493, Alt.=114.676819m. Speed=0.000000m/h.</desc>
<speed>0.000000</speed>
</trkpt>
<trkpt lat="56.036201" lon="26.676493">
<ele>114.678772</ele>
<time>2010-06-20T12:45:21Z</time>
<desc>lat.=56.036201, lon.=26.676493, Alt.=114.678772m. Speed=0.000000m/h.</desc>
<speed>0.000000</speed>
</trkpt>
<trkpt lat="56.036201" lon="26.676493">
<ele>114.682678</ele>
<time>2010-06-20T12:45:22Z</time>
<desc>lat.=56.036201, lon.=26.676493, Alt.=114.682678m. Speed=0.000000m/h.</desc>
<speed>0.000000</speed>
</trkpt>
<trkpt lat="56.036201" lon="26.676493">
<ele>114.684631</ele>
<time>2010-06-20T12:45:23Z</time>
<desc>lat.=56.036201, lon.=26.676493, Alt.=114.684631m. Speed=0.000000m/h.</desc>
<speed>0.000000</speed>
</trkpt>
<trkpt lat="56.036201" lon="26.676493">
<ele>114.684631</ele>
<time>2010-06-20T12:45:24Z</time>
<desc>lat.=56.036201, lon.=26.676493, Alt.=114.684631m. Speed=0.036000m/h.</desc>
<speed>0.010000</speed>
</trkpt>
<trkpt lat="56.036201" lon="26.676493">
<ele>114.682678</ele>
<time>2010-06-20T12:45:25Z</time>
<desc>lat.=56.036201, lon.=26.676493, Alt.=114.682678m. Speed=0.072000m/h.</desc>
<speed>0.020000</speed>
</trkpt>
<trkpt lat="56.036201" lon="26.676493">
<ele>114.676819</ele>
<time>2010-06-20T12:45:26Z</time>
<desc>lat.=56.036201, lon.=26.676493, Alt.=114.676819m. Speed=0.036000m/h.</desc>
<speed>0.010000</speed>
</trkpt>
<trkpt lat="56.036201" lon="26.676493">
<ele>114.676819</ele>
<time>2010-06-20T12:45:27Z</time>
<desc>lat.=56.036201, lon.=26.676493, Alt.=114.676819m. Speed=0.036000m/h.</desc>
<speed>0.010000</speed>
</trkpt>
<trkpt lat="56.036201" lon="26.676493">
<ele>114.674866</ele>
<time>2010-06-20T12:45:28Z</time>
<desc>lat.=56.036201, lon.=26.676493, Alt.=114.674866m. Speed=0.036000m/h.</desc>
<speed>0.010000</speed>
</trkpt>
<trkpt lat="56.036201" lon="26.676493">
<ele>114.672913</ele>
<time>2010-06-20T12:45:29Z</time>
<desc>lat.=56.036201, lon.=26.676493, Alt.=114.672913m. Speed=0.036000m/h.</desc>
<speed>0.010000</speed>
</trkpt>
<trkpt lat="56.036201" lon="26.676493">
<ele>114.670959</ele>
<time>2010-06-20T12:45:30Z</time>
<desc>lat.=56.036201, lon.=26.676493, Alt.=114.670959m. Speed=0.072000m/h.</desc>
<speed>0.020000</speed>
</trkpt>
<trkpt lat="56.036201" lon="26.676493">
<ele>114.676819</ele>
<time>2010-06-20T12:45:31Z</time>
<desc>lat.=56.036201, lon.=26.676493, Alt.=114.676819m. Speed=0.144000m/h.</desc>
<speed>0.040000</speed>
</trkpt>
<trkpt lat="56.036201" lon="26.676493">
<ele>114.674866</ele>
<time>2010-06-20T12:45:32Z</time>
<desc>lat.=56.036201, lon.=26.676493, Alt.=114.674866m. Speed=0.036000m/h.</desc>
<speed>0.010000</speed>
</trkpt>
<trkpt lat="56.036201" lon="26.676493">
<ele>114.682678</ele>
<time>2010-06-20T12:45:33Z</time>
<desc>lat.=56.036201, lon.=26.676493, Alt.=114.682678m. Speed=0.144000m/h.</desc>
<speed>0.040000</speed>
</trkpt>
<trkpt lat="56.036201" lon="26.676493">
<ele>114.680725</ele>
<time>2010-06-20T12:45:34Z</time>
<desc>lat.=56.036201, lon.=26.676493, Alt.=114.680725m. Speed=0.252000m/h.</desc>
<speed>0.070000</speed>
</trkpt>
<trkpt lat="56.036201" lon="26.676493">
<ele>114.684631</ele>
<time>2010-06-20T12:45:35Z</time>
<desc>lat.=56.036201, lon.=26.676493, Alt.=114.684631m. Speed=2.520000m/h.</desc>
<speed>0.700000</speed>
</trkpt>
<trkpt lat="56.036194" lon="26.676504">
<ele>114.555725</ele>
<time>2010-06-20T12:45:36Z</time>
<desc>lat.=56.036194, lon.=26.676504, Alt.=114.555725m. Speed=6.048000m/h.</desc>
<speed>1.680000</speed>
</trkpt>
<trkpt lat="56.036179" lon="26.676514">
<ele>114.719788</ele>
<time>2010-06-20T12:45:37Z</time>
<desc>lat.=56.036179, lon.=26.676514, Alt.=114.719788m. Speed=6.444000m/h.</desc>
<speed>1.790000</speed>
</trkpt>
<trkpt lat="56.036163" lon="26.676527">
<ele>114.952209</ele>
<time>2010-06-20T12:45:38Z</time>
<desc>lat.=56.036163, lon.=26.676527, Alt.=114.952209m. Speed=6.984000m/h.</desc>
<speed>1.940000</speed>
</trkpt>
<trkpt lat="56.036144" lon="26.676537">
<ele>115.034241</ele>
<time>2010-06-20T12:45:39Z</time>
<desc>lat.=56.036144, lon.=26.676537, Alt.=115.034241m. Speed=7.776000m/h.</desc>
<speed>2.160000</speed>
</trkpt>
<trkpt lat="56.036121" lon="26.676546">
<ele>115.217834</ele>
<time>2010-06-20T12:45:40Z</time>
<desc>lat.=56.036121, lon.=26.676546, Alt.=115.217834m. Speed=10.620000m/h.</desc>
<speed>2.950000</speed>
</trkpt>
<trkpt lat="56.036095" lon="26.676554">
<ele>115.354553</ele>
<time>2010-06-20T12:45:41Z</time>
<desc>lat.=56.036095, lon.=26.676554, Alt.=115.354553m. Speed=8.676000m/h.</desc>
<speed>2.410000</speed>
</trkpt>
<trkpt lat="56.036076" lon="26.676567">
<ele>115.635803</ele>
<time>2010-06-20T12:45:42Z</time>
<desc>lat.=56.036076, lon.=26.676567, Alt.=115.635803m. Speed=8.748000m/h.</desc>
<speed>2.430000</speed>
</trkpt>
<trkpt lat="56.036053" lon="26.676571">
<ele>115.624084</ele>
<time>2010-06-20T12:45:43Z</time>
<desc>lat.=56.036053, lon.=26.676571, Alt.=115.624084m. Speed=8.388000m/h.</desc>
<speed>2.330000</speed>
</trkpt>
<trkpt lat="56.036030" lon="26.676582">
<ele>115.735413</ele>
<time>2010-06-20T12:45:44Z</time>
<desc>lat.=56.036030, lon.=26.676582, Alt.=115.735413m. Speed=9.684000m/h.</desc>
<speed>2.690000</speed>
</trkpt>
<trkpt lat="56.036003" lon="26.676588">
<ele>115.856506</ele>
<time>2010-06-20T12:45:45Z</time>
<desc>lat.=56.036003, lon.=26.676588, Alt.=115.856506m. Speed=9.036000m/h.</desc>
<speed>2.510000</speed>
</trkpt>
<trkpt lat="56.035976" lon="26.676590">
<ele>115.510803</ele>
<time>2010-06-20T12:45:46Z</time>
<desc>lat.=56.035976, lon.=26.676590, Alt.=115.510803m. Speed=11.232000m/h.</desc>
<speed>3.120000</speed>
</trkpt>
<trkpt lat="56.035954" lon="26.676598">
<ele>115.891663</ele>
<time>2010-06-20T12:45:47Z</time>
<desc>lat.=56.035954, lon.=26.676598, Alt.=115.891663m. Speed=9.792000m/h.</desc>
<speed>2.720000</speed>
</trkpt>
<trkpt lat="56.035927" lon="26.676603">
<ele>116.133850</ele>
<time>2010-06-20T12:45:48Z</time>
<desc>lat.=56.035927, lon.=26.676603, Alt.=116.133850m. Speed=11.772000m/h.</desc>
<speed>3.270000</speed>
</trkpt>
<trkpt lat="56.035896" lon="26.676617">
<ele>116.085022</ele>
<time>2010-06-20T12:45:49Z</time>
<desc>lat.=56.035896, lon.=26.676617, Alt.=116.085022m. Speed=12.060000m/h.</desc>
<speed>3.350000</speed>
</trkpt>
<trkpt lat="56.035870" lon="26.676630">
<ele>115.934631</ele>
<time>2010-06-20T12:45:50Z</time>
<desc>lat.=56.035870, lon.=26.676630, Alt.=115.934631m. Speed=9.540000m/h.</desc>
<speed>2.650000</speed>
</trkpt>
<trkpt lat="56.035847" lon="26.676643">
<ele>115.811584</ele>
<time>2010-06-20T12:45:51Z</time>
<desc>lat.=56.035847, lon.=26.676643, Alt.=115.811584m. Speed=9.684000m/h.</desc>
<speed>2.690000</speed>
</trkpt>
<trkpt lat="56.035816" lon="26.676657">
<ele>115.122131</ele>
<time>2010-06-20T12:45:52Z</time>
<desc>lat.=56.035816, lon.=26.676657, Alt.=115.122131m. Speed=12.708000m/h.</desc>
<speed>3.530000</speed>
</trkpt>
<trkpt lat="56.035778" lon="26.676668">
<ele>115.004944</ele>
<time>2010-06-20T12:45:53Z</time>
<desc>lat.=56.035778, lon.=26.676668, Alt.=115.004944m. Speed=14.976000m/h.</desc>
<speed>4.160000</speed>
</trkpt>
<trkpt lat="56.035748" lon="26.676682">
<ele>115.833069</ele>
<time>2010-06-20T12:45:54Z</time>
<desc>lat.=56.035748, lon.=26.676682, Alt.=115.833069m. Speed=15.120000m/h.</desc>
<speed>4.200000</speed>
</trkpt>
<trkpt lat="56.035702" lon="26.676695">
<ele>115.721741</ele>
<time>2010-06-20T12:45:55Z</time>
<desc>lat.=56.035702, lon.=26.676695, Alt.=115.721741m. Speed=15.156000m/h.</desc>
<speed>4.210000</speed>
</trkpt>
<trkpt lat="56.035660" lon="26.676708">
<ele>115.637756</ele>
<time>2010-06-20T12:45:56Z</time>
<desc>lat.=56.035660, lon.=26.676708, Alt.=115.637756m. Speed=14.688000m/h.</desc>
<speed>4.080000</speed>
</trkpt>
<trkpt lat="56.035622" lon="26.676716">
<ele>115.561584</ele>
<time>2010-06-20T12:45:57Z</time>
<desc>lat.=56.035622, lon.=26.676716, Alt.=115.561584m. Speed=14.256000m/h.</desc>
<speed>3.960000</speed>
</trkpt>
<trkpt lat="56.035587" lon="26.676722">
<ele>115.667053</ele>
<time>2010-06-20T12:45:58Z</time>
<desc>lat.=56.035587, lon.=26.676722, Alt.=115.667053m. Speed=13.212000m/h.</desc>
<speed>3.670000</speed>
</trkpt>
<trkpt lat="56.035545" lon="26.676729">
<ele>116.264709</ele>
<time>2010-06-20T12:45:59Z</time>
<desc>lat.=56.035545, lon.=26.676729, Alt.=116.264709m. Speed=13.932000m/h.</desc>
<speed>3.870000</speed>
</trkpt>
<trkpt lat="56.035507" lon="26.676744">
<ele>116.081116</ele>
<time>2010-06-20T12:46:00Z</time>
<desc>lat.=56.035507, lon.=26.676744, Alt.=116.081116m. Speed=14.040000m/h.</desc>
<speed>3.900000</speed>
</trkpt>
<trkpt lat="56.035473" lon="26.676758">
<ele>116.065491</ele>
<time>2010-06-20T12:46:01Z</time>
<desc>lat.=56.035473, lon.=26.676758, Alt.=116.065491m. Speed=13.320000m/h.</desc>
<speed>3.700000</speed>
</trkpt>
<trkpt lat="56.035442" lon="26.676771">
<ele>116.350647</ele>
<time>2010-06-20T12:46:02Z</time>
<desc>lat.=56.035442, lon.=26.676771, Alt.=116.350647m. Speed=13.356000m/h.</desc>
<speed>3.710000</speed>
</trkpt>
<trkpt lat="56.035404" lon="26.676777">
<ele>116.733459</ele>
<time>2010-06-20T12:46:03Z</time>
<desc>lat.=56.035404, lon.=26.676777, Alt.=116.733459m. Speed=13.536000m/h.</desc>
<speed>3.760000</speed>
</trkpt>
<trkpt lat="56.035366" lon="26.676788">
<ele>116.862366</ele>
<time>2010-06-20T12:46:04Z</time>
<desc>lat.=56.035366, lon.=26.676788, Alt.=116.862366m. Speed=14.832000m/h.</desc>
<speed>4.120000</speed>
</trkpt>
<trkpt lat="56.035328" lon="26.676802">
<ele>116.829163</ele>
<time>2010-06-20T12:46:05Z</time>
<desc>lat.=56.035328, lon.=26.676802, Alt.=116.829163m. Speed=14.544000m/h.</desc>
<speed>4.040000</speed>
</trkpt>
<trkpt lat="56.035294" lon="26.676813">
<ele>116.848694</ele>
<time>2010-06-20T12:46:06Z</time>
<desc>lat.=56.035294, lon.=26.676813, Alt.=116.848694m. Speed=14.400000m/h.</desc>
<speed>4.000000</speed>
</trkpt>
<trkpt lat="56.035252" lon="26.676834">
<ele>116.850647</ele>
<time>2010-06-20T12:46:07Z</time>
<desc>lat.=56.035252, lon.=26.676834, Alt.=116.850647m. Speed=14.184000m/h.</desc>
<speed>3.940000</speed>
</trkpt>
<trkpt lat="56.035217" lon="26.676846">
<ele>116.856506</ele>
<time>2010-06-20T12:46:08Z</time>
<desc>lat.=56.035217, lon.=26.676846, Alt.=116.856506m. Speed=14.616000m/h.</desc>
<speed>4.060000</speed>
</trkpt>
<trkpt lat="56.035179" lon="26.676855">
<ele>116.903381</ele>
<time>2010-06-20T12:46:09Z</time>
<desc>lat.=56.035179, lon.=26.676855, Alt.=116.903381m. Speed=14.472000m/h.</desc>
<speed>4.020000</speed>
</trkpt>
<trkpt lat="56.035141" lon="26.676867">
<ele>116.856506</ele>
<time>2010-06-20T12:46:10Z</time>
<desc>lat.=56.035141, lon.=26.676867, Alt.=116.856506m. Speed=14.184000m/h.</desc>
<speed>3.940000</speed>
</trkpt>
<trkpt lat="56.035107" lon="26.676880">
<ele>116.801819</ele>
<time>2010-06-20T12:46:11Z</time>
<desc>lat.=56.035107, lon.=26.676880, Alt.=116.801819m. Speed=15.228000m/h.</desc>
<speed>4.230000</speed>
</trkpt>
<trkpt lat="56.035065" lon="26.676893">
<ele>116.696350</ele>
<time>2010-06-20T12:46:12Z</time>
<desc>lat.=56.035065, lon.=26.676893, Alt.=116.696350m. Speed=15.372000m/h.</desc>
<speed>4.270000</speed>
</trkpt>
<trkpt lat="56.035030" lon="26.676907">
<ele>116.510803</ele>
<time>2010-06-20T12:46:13Z</time>
<desc>lat.=56.035030, lon.=26.676907, Alt.=116.510803m. Speed=14.724000m/h.</desc>
<speed>4.090000</speed>
</trkpt>
<trkpt lat="56.034992" lon="26.676914">
<ele>116.376038</ele>
<time>2010-06-20T12:46:14Z</time>
<desc>lat.=56.034992, lon.=26.676914, Alt.=116.376038m. Speed=15.408000m/h.</desc>
<speed>4.280000</speed>
</trkpt>
<trkpt lat="56.034954" lon="26.676931">
<ele>116.268616</ele>
<time>2010-06-20T12:46:15Z</time>
<desc>lat.=56.034954, lon.=26.676931, Alt.=116.268616m. Speed=14.940000m/h.</desc>
<speed>4.150000</speed>
</trkpt>
<trkpt lat="56.034916" lon="26.676947">
<ele>116.335022</ele>
<time>2010-06-20T12:46:16Z</time>
<desc>lat.=56.034916, lon.=26.676947, Alt.=116.335022m. Speed=15.120000m/h.</desc>
<speed>4.200000</speed>
</trkpt>
<trkpt lat="56.034878" lon="26.676956">
<ele>116.249084</ele>
<time>2010-06-20T12:46:17Z</time>
<desc>lat.=56.034878, lon.=26.676956, Alt.=116.249084m. Speed=15.048000m/h.</desc>
<speed>4.180000</speed>
</trkpt>
<trkpt lat="56.034843" lon="26.676966">
<ele>116.208069</ele>
<time>2010-06-20T12:46:18Z</time>
<desc>lat.=56.034843, lon.=26.676966, Alt.=116.208069m. Speed=14.904000m/h.</desc>
<speed>4.140000</speed>
</trkpt>
<trkpt lat="56.034805" lon="26.676977">
<ele>116.067444</ele>
<time>2010-06-20T12:46:19Z</time>
<desc>lat.=56.034805, lon.=26.676977, Alt.=116.067444m. Speed=14.832000m/h.</desc>
<speed>4.120000</speed>
</trkpt>
<trkpt lat="56.034771" lon="26.676987">
<ele>115.928772</ele>
<time>2010-06-20T12:46:20Z</time>
<desc>lat.=56.034771, lon.=26.676987, Alt.=115.928772m. Speed=15.084000m/h.</desc>
<speed>4.190000</speed>
</trkpt>
<trkpt lat="56.034733" lon="26.677002">
<ele>116.565491</ele>
<time>2010-06-20T12:46:21Z</time>
<desc>lat.=56.034733, lon.=26.677002, Alt.=116.565491m. Speed=15.084000m/h.</desc>
<speed>4.190000</speed>
</trkpt>
<trkpt lat="56.034695" lon="26.677017">
<ele>116.684631</ele>
<time>2010-06-20T12:46:22Z</time>
<desc>lat.=56.034695, lon.=26.677017, Alt.=116.684631m. Speed=15.336000m/h.</desc>
<speed>4.260000</speed>
</trkpt>
<trkpt lat="56.034653" lon="26.677034">
<ele>116.579163</ele>
<time>2010-06-20T12:46:23Z</time>
<desc>lat.=56.034653, lon.=26.677034, Alt.=116.579163m. Speed=16.704000m/h.</desc>
<speed>4.640000</speed>
</trkpt>
<trkpt lat="56.034611" lon="26.677044">
<ele>116.393616</ele>
<time>2010-06-20T12:46:24Z</time>
<desc>lat.=56.034611, lon.=26.677044, Alt.=116.393616m. Speed=16.740000m/h.</desc>
<speed>4.650000</speed>
</trkpt>
<trkpt lat="56.034569" lon="26.677057">
<ele>116.182678</ele>
<time>2010-06-20T12:46:25Z</time>
<desc>lat.=56.034569, lon.=26.677057, Alt.=116.182678m. Speed=15.984000m/h.</desc>
<speed>4.440000</speed>
</trkpt>
<trkpt lat="56.034527" lon="26.677076">
<ele>115.991272</ele>
<time>2010-06-20T12:46:26Z</time>
<desc>lat.=56.034527, lon.=26.677076, Alt.=115.991272m. Speed=16.236000m/h.</desc>
<speed>4.510000</speed>
</trkpt>
<trkpt lat="56.034489" lon="26.677084">
<ele>115.622131</ele>
<time>2010-06-20T12:46:27Z</time>
<desc>lat.=56.034489, lon.=26.677084, Alt.=115.622131m. Speed=16.704000m/h.</desc>
<speed>4.640000</speed>
</trkpt>
<trkpt lat="56.034447" lon="26.677094">
<ele>115.532288</ele>
<time>2010-06-20T12:46:28Z</time>
<desc>lat.=56.034447, lon.=26.677094, Alt.=115.532288m. Speed=17.063999m/h.</desc>
<speed>4.740000</speed>
</trkpt>
<trkpt lat="56.034405" lon="26.677107">
<ele>115.241272</ele>
<time>2010-06-20T12:46:29Z</time>
<desc>lat.=56.034405, lon.=26.677107, Alt.=115.241272m. Speed=17.208000m/h.</desc>
<speed>4.780000</speed>
</trkpt>
<trkpt lat="56.034367" lon="26.677120">
<ele>115.079163</ele>
<time>2010-06-20T12:46:30Z</time>
<desc>lat.=56.034367, lon.=26.677120, Alt.=115.079163m. Speed=16.596001m/h.</desc>
<speed>4.610000</speed>
</trkpt>
<trkpt lat="56.034325" lon="26.677134">
<ele>114.735413</ele>
<time>2010-06-20T12:46:31Z</time>
<desc>lat.=56.034325, lon.=26.677134, Alt.=114.735413m. Speed=14.976000m/h.</desc>
<speed>4.160000</speed>
</trkpt>
<trkpt lat="56.034286" lon="26.677151">
<ele>114.645569</ele>
<time>2010-06-20T12:46:32Z</time>
<desc>lat.=56.034286, lon.=26.677151, Alt.=114.645569m. Speed=15.912000m/h.</desc>
<speed>4.420000</speed>
</trkpt>
<trkpt lat="56.034248" lon="26.677160">
<ele>114.577209</ele>
<time>2010-06-20T12:46:33Z</time>
<desc>lat.=56.034248, lon.=26.677160, Alt.=114.577209m. Speed=16.091999m/h.</desc>
<speed>4.470000</speed>
</trkpt>
<trkpt lat="56.034210" lon="26.677172">
<ele>114.417053</ele>
<time>2010-06-20T12:46:34Z</time>
<desc>lat.=56.034210, lon.=26.677172, Alt.=114.417053m. Speed=15.660000m/h.</desc>
<speed>4.350000</speed>
</trkpt>
<trkpt lat="56.034172" lon="26.677195">
<ele>114.075256</ele>
<time>2010-06-20T12:46:35Z</time>
<desc>lat.=56.034172, lon.=26.677195, Alt.=114.075256m. Speed=14.724000m/h.</desc>
<speed>4.090000</speed>
</trkpt>
<trkpt lat="56.034138" lon="26.677208">
<ele>113.604553</ele>
<time>2010-06-20T12:46:36Z</time>
<desc>lat.=56.034138, lon.=26.677208, Alt.=113.604553m. Speed=15.408000m/h.</desc>
<speed>4.280000</speed>
</trkpt>
<trkpt lat="56.034103" lon="26.677219">
<ele>113.116272</ele>
<time>2010-06-20T12:46:37Z</time>
<desc>lat.=56.034103, lon.=26.677219, Alt.=113.116272m. Speed=13.356000m/h.</desc>
<speed>3.710000</speed>
</trkpt>
<trkpt lat="56.034069" lon="26.677225">
<ele>112.801819</ele>
<time>2010-06-20T12:46:38Z</time>
<desc>lat.=56.034069, lon.=26.677225, Alt.=112.801819m. Speed=15.588000m/h.</desc>
<speed>4.330000</speed>
</trkpt>
<trkpt lat="56.034035" lon="26.677223">
<ele>112.438538</ele>
<time>2010-06-20T12:46:39Z</time>
<desc>lat.=56.034035, lon.=26.677223, Alt.=112.438538m. Speed=14.544000m/h.</desc>
<speed>4.040000</speed>
</trkpt>
<trkpt lat="56.033993" lon="26.677217">
<ele>110.698303</ele>
<time>2010-06-20T12:46:40Z</time>
<desc>lat.=56.033993, lon.=26.677217, Alt.=110.698303m. Speed=15.984000m/h.</desc>
<speed>4.440000</speed>
</trkpt>
<trkpt lat="56.033955" lon="26.677214">
<ele>110.526428</ele>
<time>2010-06-20T12:46:41Z</time>
<desc>lat.=56.033955, lon.=26.677214, Alt.=110.526428m. Speed=15.840000m/h.</desc>
<speed>4.400000</speed>
</trkpt>
<trkpt lat="56.033916" lon="26.677197">
<ele>109.905334</ele>
<time>2010-06-20T12:46:42Z</time>
<desc>lat.=56.033916, lon.=26.677197, Alt.=109.905334m. Speed=15.048000m/h.</desc>
<speed>4.180000</speed>
</trkpt>
<trkpt lat="56.033886" lon="26.677185">
<ele>109.458069</ele>
<time>2010-06-20T12:46:43Z</time>
<desc>lat.=56.033886, lon.=26.677185, Alt.=109.458069m. Speed=10.872000m/h.</desc>
<speed>3.020000</speed>
</trkpt>
<trkpt lat="56.033863" lon="26.677176">
<ele>109.135803</ele>
<time>2010-06-20T12:46:44Z</time>
<desc>lat.=56.033863, lon.=26.677176, Alt.=109.135803m. Speed=10.368000m/h.</desc>
<speed>2.880000</speed>
</trkpt>
<trkpt lat="56.033844" lon="26.677153">
<ele>110.264709</ele>
<time>2010-06-20T12:46:45Z</time>
<desc>lat.=56.033844, lon.=26.677153, Alt.=110.264709m. Speed=10.188000m/h.</desc>
<speed>2.830000</speed>
</trkpt>
<trkpt lat="56.033821" lon="26.677132">
<ele>110.129944</ele>
<time>2010-06-20T12:46:46Z</time>
<desc>lat.=56.033821, lon.=26.677132, Alt.=110.129944m. Speed=9.072000m/h.</desc>
<speed>2.520000</speed>
</trkpt>
<trkpt lat="56.033802" lon="26.677111">
<ele>110.299866</ele>
<time>2010-06-20T12:46:47Z</time>
<desc>lat.=56.033802, lon.=26.677111, Alt.=110.299866m. Speed=9.216000m/h.</desc>
<speed>2.560000</speed>
</trkpt>
<trkpt lat="56.033775" lon="26.677086">
<ele>110.438538</ele>
<time>2010-06-20T12:46:48Z</time>
<desc>lat.=56.033775, lon.=26.677086, Alt.=110.438538m. Speed=10.260000m/h.</desc>
<speed>2.850000</speed>
</trkpt>
<trkpt lat="56.033752" lon="26.677055">
<ele>110.383850</ele>
<time>2010-06-20T12:46:49Z</time>
<desc>lat.=56.033752, lon.=26.677055, Alt.=110.383850m. Speed=9.972000m/h.</desc>
<speed>2.770000</speed>
</trkpt>
<trkpt lat="56.033730" lon="26.677023">
<ele>110.292053</ele>
<time>2010-06-20T12:46:50Z</time>
<desc>lat.=56.033730, lon.=26.677023, Alt.=110.292053m. Speed=12.492000m/h.</desc>
<speed>3.470000</speed>
</trkpt>
<trkpt lat="56.033699" lon="26.676989">
<ele>110.182678</ele>
<time>2010-06-20T12:46:51Z</time>
<desc>lat.=56.033699, lon.=26.676989, Alt.=110.182678m. Speed=14.112000m/h.</desc>
<speed>3.920000</speed>
</trkpt>
<trkpt lat="56.033665" lon="26.676950">
<ele>110.387756</ele>
<time>2010-06-20T12:46:52Z</time>
<desc>lat.=56.033665, lon.=26.676950, Alt.=110.387756m. Speed=15.264000m/h.</desc>
<speed>4.240000</speed>
</trkpt>
<trkpt lat="56.033634" lon="26.676916">
<ele>112.184631</ele>
<time>2010-06-20T12:46:53Z</time>
<desc>lat.=56.033634, lon.=26.676916, Alt.=112.184631m. Speed=16.308001m/h.</desc>
<speed>4.530000</speed>
</trkpt>
<trkpt lat="56.033596" lon="26.676870">
<ele>112.139709</ele>
<time>2010-06-20T12:46:54Z</time>
<desc>lat.=56.033596, lon.=26.676870, Alt.=112.139709m. Speed=16.416000m/h.</desc>
<speed>4.560000</speed>
</trkpt>
<trkpt lat="56.033566" lon="26.676828">
<ele>112.200256</ele>
<time>2010-06-20T12:46:55Z</time>
<desc>lat.=56.033566, lon.=26.676828, Alt.=112.200256m. Speed=16.128000m/h.</desc>
<speed>4.480000</speed>
</trkpt>
<trkpt lat="56.033531" lon="26.676788">
<ele>112.340881</ele>
<time>2010-06-20T12:46:56Z</time>
<desc>lat.=56.033531, lon.=26.676788, Alt.=112.340881m. Speed=16.452000m/h.</desc>
<speed>4.570000</speed>
</trkpt>
<trkpt lat="56.033497" lon="26.676744">
<ele>112.436584</ele>
<time>2010-06-20T12:46:57Z</time>
<desc>lat.=56.033497, lon.=26.676744, Alt.=112.436584m. Speed=15.660000m/h.</desc>
<speed>4.350000</speed>
</trkpt>
<trkpt lat="56.033466" lon="26.676702">
<ele>112.545959</ele>
<time>2010-06-20T12:46:58Z</time>
<desc>lat.=56.033466, lon.=26.676702, Alt.=112.545959m. Speed=15.372000m/h.</desc>
<speed>4.270000</speed>
</trkpt>
<trkpt lat="56.033436" lon="26.676659">
<ele>112.624084</ele>
<time>2010-06-20T12:46:59Z</time>
<desc>lat.=56.033436, lon.=26.676659, Alt.=112.624084m. Speed=16.667999m/h.</desc>
<speed>4.630000</speed>
</trkpt>
<trkpt lat="56.033401" lon="26.676607">
<ele>112.756897</ele>
<time>2010-06-20T12:47:00Z</time>
<desc>lat.=56.033401, lon.=26.676607, Alt.=112.756897m. Speed=15.948000m/h.</desc>
<speed>4.430000</speed>
</trkpt>
<trkpt lat="56.033371" lon="26.676569">
<ele>112.981506</ele>
<time>2010-06-20T12:47:01Z</time>
<desc>lat.=56.033371, lon.=26.676569, Alt.=112.981506m. Speed=14.292000m/h.</desc>
<speed>3.970000</speed>
</trkpt>
<trkpt lat="56.033344" lon="26.676527">
<ele>112.952209</ele>
<time>2010-06-20T12:47:02Z</time>
<desc>lat.=56.033344, lon.=26.676527, Alt.=112.952209m. Speed=13.932000m/h.</desc>
<speed>3.870000</speed>
</trkpt>
<trkpt lat="56.033318" lon="26.676489">
<ele>113.114319</ele>
<time>2010-06-20T12:47:03Z</time>
<desc>lat.=56.033318, lon.=26.676489, Alt.=113.114319m. Speed=13.608000m/h.</desc>
<speed>3.780000</speed>
</trkpt>
<trkpt lat="56.033291" lon="26.676453">
<ele>113.118225</ele>
<time>2010-06-20T12:47:04Z</time>
<desc>lat.=56.033291, lon.=26.676453, Alt.=113.118225m. Speed=13.212000m/h.</desc>
<speed>3.670000</speed>
</trkpt>
<trkpt lat="56.033260" lon="26.676418">
<ele>113.221741</ele>
<time>2010-06-20T12:47:05Z</time>
<desc>lat.=56.033260, lon.=26.676418, Alt.=113.221741m. Speed=13.536000m/h.</desc>
<speed>3.760000</speed>
</trkpt>
<trkpt lat="56.033234" lon="26.676386">
<ele>113.163147</ele>
<time>2010-06-20T12:47:06Z</time>
<desc>lat.=56.033234, lon.=26.676386, Alt.=113.163147m. Speed=12.060000m/h.</desc>
<speed>3.350000</speed>
</trkpt>
<trkpt lat="56.033203" lon="26.676352">
<ele>112.975647</ele>
<time>2010-06-20T12:47:07Z</time>
<desc>lat.=56.033203, lon.=26.676352, Alt.=112.975647m. Speed=14.508000m/h.</desc>
<speed>4.030000</speed>
</trkpt>
<trkpt lat="56.033176" lon="26.676315">
<ele>112.794006</ele>
<time>2010-06-20T12:47:08Z</time>
<desc>lat.=56.033176, lon.=26.676315, Alt.=112.794006m. Speed=12.420000m/h.</desc>
<speed>3.450000</speed>
</trkpt>
<trkpt lat="56.033146" lon="26.676279">
<ele>112.600647</ele>
<time>2010-06-20T12:47:09Z</time>
<desc>lat.=56.033146, lon.=26.676279, Alt.=112.600647m. Speed=12.492000m/h.</desc>
<speed>3.470000</speed>
</trkpt>
<trkpt lat="56.033119" lon="26.676247">
<ele>112.321350</ele>
<time>2010-06-20T12:47:10Z</time>
<desc>lat.=56.033119, lon.=26.676247, Alt.=112.321350m. Speed=11.052000m/h.</desc>
<speed>3.070000</speed>
</trkpt>
<trkpt lat="56.033096" lon="26.676216">
<ele>112.143616</ele>
<time>2010-06-20T12:47:11Z</time>
<desc>lat.=56.033096, lon.=26.676216, Alt.=112.143616m. Speed=9.216000m/h.</desc>
<speed>2.560000</speed>
</trkpt>
<trkpt lat="56.033077" lon="26.676191">
<ele>112.290100</ele>
<time>2010-06-20T12:47:12Z</time>
<desc>lat.=56.033077, lon.=26.676191, Alt.=112.290100m. Speed=11.772000m/h.</desc>
<speed>3.270000</speed>
</trkpt>
<trkpt lat="56.033051" lon="26.676159">
<ele>112.192444</ele>
<time>2010-06-20T12:47:13Z</time>
<desc>lat.=56.033051, lon.=26.676159, Alt.=112.192444m. Speed=11.052000m/h.</desc>
<speed>3.070000</speed>
</trkpt>
<trkpt lat="56.033020" lon="26.676119">
<ele>111.924866</ele>
<time>2010-06-20T12:47:14Z</time>
<desc>lat.=56.033020, lon.=26.676119, Alt.=111.924866m. Speed=14.148000m/h.</desc>
<speed>3.930000</speed>
</trkpt>
<trkpt lat="56.032990" lon="26.676088">
<ele>112.325256</ele>
<time>2010-06-20T12:47:15Z</time>
<desc>lat.=56.032990, lon.=26.676088, Alt.=112.325256m. Speed=13.824000m/h.</desc>
<speed>3.840000</speed>
</trkpt>
<trkpt lat="56.032955" lon="26.676058">
<ele>111.838928</ele>
<time>2010-06-20T12:47:16Z</time>
<desc>lat.=56.032955, lon.=26.676058, Alt.=111.838928m. Speed=14.328000m/h.</desc>
<speed>3.980000</speed>
</trkpt>
<trkpt lat="56.032921" lon="26.676029">
<ele>111.629944</ele>
<time>2010-06-20T12:47:17Z</time>
<desc>lat.=56.032921, lon.=26.676029, Alt.=111.629944m. Speed=12.600000m/h.</desc>
<speed>3.500000</speed>
</trkpt>
<trkpt lat="56.032890" lon="26.675999">
<ele>111.422913</ele>
<time>2010-06-20T12:47:18Z</time>
<desc>lat.=56.032890, lon.=26.675999, Alt.=111.422913m. Speed=14.220000m/h.</desc>
<speed>3.950000</speed>
</trkpt>
<trkpt lat="56.032856" lon="26.675970">
<ele>111.079163</ele>
<time>2010-06-20T12:47:19Z</time>
<desc>lat.=56.032856, lon.=26.675970, Alt.=111.079163m. Speed=14.040000m/h.</desc>
<speed>3.900000</speed>
</trkpt>
<trkpt lat="56.032825" lon="26.675951">
<ele>110.575256</ele>
<time>2010-06-20T12:47:20Z</time>
<desc>lat.=56.032825, lon.=26.675951, Alt.=110.575256m. Speed=13.860000m/h.</desc>
<speed>3.850000</speed>
</trkpt>
<trkpt lat="56.032787" lon="26.675930">
<ele>109.405334</ele>
<time>2010-06-20T12:47:21Z</time>
<desc>lat.=56.032787, lon.=26.675930, Alt.=109.405334m. Speed=15.696000m/h.</desc>
<speed>4.360000</speed>
</trkpt>
<trkpt lat="56.032745" lon="26.675903">
<ele>108.858459</ele>
<time>2010-06-20T12:47:22Z</time>
<desc>lat.=56.032745, lon.=26.675903, Alt.=108.858459m. Speed=15.264000m/h.</desc>
<speed>4.240000</speed>
</trkpt>
<trkpt lat="56.032715" lon="26.675884">
<ele>110.458069</ele>
<time>2010-06-20T12:47:23Z</time>
<desc>lat.=56.032715, lon.=26.675884, Alt.=110.458069m. Speed=15.012000m/h.</desc>
<speed>4.170000</speed>
</trkpt>
<trkpt lat="56.032673" lon="26.675867">
<ele>110.299866</ele>
<time>2010-06-20T12:47:24Z</time>
<desc>lat.=56.032673, lon.=26.675867, Alt.=110.299866m. Speed=15.552000m/h.</desc>
<speed>4.320000</speed>
</trkpt>
<trkpt lat="56.032631" lon="26.675850">
<ele>110.200256</ele>
<time>2010-06-20T12:47:25Z</time>
<desc>lat.=56.032631, lon.=26.675850, Alt.=110.200256m. Speed=15.264000m/h.</desc>
<speed>4.240000</speed>
</trkpt>
<trkpt lat="56.032593" lon="26.675848">
<ele>109.842834</ele>
<time>2010-06-20T12:47:26Z</time>
<desc>lat.=56.032593, lon.=26.675848, Alt.=109.842834m. Speed=15.552000m/h.</desc>
<speed>4.320000</speed>
</trkpt>
<trkpt lat="56.032551" lon="26.675850">
<ele>109.504944</ele>
<time>2010-06-20T12:47:27Z</time>
<desc>lat.=56.032551, lon.=26.675850, Alt.=109.504944m. Speed=15.696000m/h.</desc>
<speed>4.360000</speed>
</trkpt>
<trkpt lat="56.032513" lon="26.675854">
<ele>109.241272</ele>
<time>2010-06-20T12:47:28Z</time>
<desc>lat.=56.032513, lon.=26.675854, Alt.=109.241272m. Speed=15.408000m/h.</desc>
<speed>4.280000</speed>
</trkpt>
<trkpt lat="56.032475" lon="26.675863">
<ele>109.719788</ele>
<time>2010-06-20T12:47:29Z</time>
<desc>lat.=56.032475, lon.=26.675863, Alt.=109.719788m. Speed=15.912000m/h.</desc>
<speed>4.420000</speed>
</trkpt>
<trkpt lat="56.032436" lon="26.675867">
<ele>110.229553</ele>
<time>2010-06-20T12:47:30Z</time>
<desc>lat.=56.032436, lon.=26.675867, Alt.=110.229553m. Speed=15.696000m/h.</desc>
<speed>4.360000</speed>
</trkpt>
<trkpt lat="56.032398" lon="26.675873">
<ele>110.958069</ele>
<time>2010-06-20T12:47:31Z</time>
<desc>lat.=56.032398, lon.=26.675873, Alt.=110.958069m. Speed=14.868000m/h.</desc>
<speed>4.130000</speed>
</trkpt>
<trkpt lat="56.032360" lon="26.675875">
<ele>111.647522</ele>
<time>2010-06-20T12:47:32Z</time>
<desc>lat.=56.032360, lon.=26.675875, Alt.=111.647522m. Speed=14.364000m/h.</desc>
<speed>3.990000</speed>
</trkpt>
<trkpt lat="56.032326" lon="26.675873">
<ele>111.795959</ele>
<time>2010-06-20T12:47:33Z</time>
<desc>lat.=56.032326, lon.=26.675873, Alt.=111.795959m. Speed=14.040000m/h.</desc>
<speed>3.900000</speed>
</trkpt>
<trkpt lat="56.032288" lon="26.675873">
<ele>112.938538</ele>
<time>2010-06-20T12:47:34Z</time>
<desc>lat.=56.032288, lon.=26.675873, Alt.=112.938538m. Speed=15.192000m/h.</desc>
<speed>4.220000</speed>
</trkpt>
<trkpt lat="56.032249" lon="26.675875">
<ele>113.147522</ele>
<time>2010-06-20T12:47:35Z</time>
<desc>lat.=56.032249, lon.=26.675875, Alt.=113.147522m. Speed=15.876000m/h.</desc>
<speed>4.410000</speed>
</trkpt>
<trkpt lat="56.032211" lon="26.675882">
<ele>113.067444</ele>
<time>2010-06-20T12:47:36Z</time>
<desc>lat.=56.032211, lon.=26.675882, Alt.=113.067444m. Speed=15.660000m/h.</desc>
<speed>4.350000</speed>
</trkpt>
<trkpt lat="56.032173" lon="26.675892">
<ele>113.295959</ele>
<time>2010-06-20T12:47:37Z</time>
<desc>lat.=56.032173, lon.=26.675892, Alt.=113.295959m. Speed=15.156000m/h.</desc>
<speed>4.210000</speed>
</trkpt>
<trkpt lat="56.032131" lon="26.675896">
<ele>113.235413</ele>
<time>2010-06-20T12:47:38Z</time>
<desc>lat.=56.032131, lon.=26.675896, Alt.=113.235413m. Speed=15.552000m/h.</desc>
<speed>4.320000</speed>
</trkpt>
<trkpt lat="56.032097" lon="26.675898">
<ele>113.088928</ele>
<time>2010-06-20T12:47:39Z</time>
<desc>lat.=56.032097, lon.=26.675898, Alt.=113.088928m. Speed=15.444000m/h.</desc>
<speed>4.290000</speed>
</trkpt>
<trkpt lat="56.032055" lon="26.675909">
<ele>113.215881</ele>
<time>2010-06-20T12:47:40Z</time>
<desc>lat.=56.032055, lon.=26.675909, Alt.=113.215881m. Speed=15.876000m/h.</desc>
<speed>4.410000</speed>
</trkpt>
<trkpt lat="56.032017" lon="26.675915">
<ele>113.348694</ele>
<time>2010-06-20T12:47:41Z</time>
<desc>lat.=56.032017, lon.=26.675915, Alt.=113.348694m. Speed=15.984000m/h.</desc>
<speed>4.440000</speed>
</trkpt>
<trkpt lat="56.031975" lon="26.675913">
<ele>113.188538</ele>
<time>2010-06-20T12:47:42Z</time>
<desc>lat.=56.031975, lon.=26.675913, Alt.=113.188538m. Speed=15.228000m/h.</desc>
<speed>4.230000</speed>
</trkpt>
<trkpt lat="56.031937" lon="26.675913">
<ele>112.596741</ele>
<time>2010-06-20T12:47:43Z</time>
<desc>lat.=56.031937, lon.=26.675913, Alt.=112.596741m. Speed=15.300000m/h.</desc>
<speed>4.250000</speed>
</trkpt>
<trkpt lat="56.031898" lon="26.675911">
<ele>112.370178</ele>
<time>2010-06-20T12:47:44Z</time>
<desc>lat.=56.031898, lon.=26.675911, Alt.=112.370178m. Speed=15.768000m/h.</desc>
<speed>4.380000</speed>
</trkpt>
<trkpt lat="56.031864" lon="26.675915">
<ele>112.270569</ele>
<time>2010-06-20T12:47:45Z</time>
<desc>lat.=56.031864, lon.=26.675915, Alt.=112.270569m. Speed=15.192000m/h.</desc>
<speed>4.220000</speed>
</trkpt>
<trkpt lat="56.031826" lon="26.675911">
<ele>111.444397</ele>
<time>2010-06-20T12:47:46Z</time>
<desc>lat.=56.031826, lon.=26.675911, Alt.=111.444397m. Speed=15.192000m/h.</desc>
<speed>4.220000</speed>
</trkpt>
<trkpt lat="56.031788" lon="26.675911">
<ele>111.069397</ele>
<time>2010-06-20T12:47:47Z</time>
<desc>lat.=56.031788, lon.=26.675911, Alt.=111.069397m. Speed=16.488001m/h.</desc>
<speed>4.580000</speed>
</trkpt>
<trkpt lat="56.031746" lon="26.675903">
<ele>111.045959</ele>
<time>2010-06-20T12:47:48Z</time>
<desc>lat.=56.031746, lon.=26.675903, Alt.=111.045959m. Speed=15.984000m/h.</desc>
<speed>4.440000</speed>
</trkpt>
<trkpt lat="56.031712" lon="26.675907">
<ele>112.631897</ele>
<time>2010-06-20T12:47:49Z</time>
<desc>lat.=56.031712, lon.=26.675907, Alt.=112.631897m. Speed=15.840000m/h.</desc>
<speed>4.400000</speed>
</trkpt>
<trkpt lat="56.031673" lon="26.675905">
<ele>112.639709</ele>
<time>2010-06-20T12:47:50Z</time>
<desc>lat.=56.031673, lon.=26.675905, Alt.=112.639709m. Speed=16.056000m/h.</desc>
<speed>4.460000</speed>
</trkpt>
<trkpt lat="56.031631" lon="26.675898">
<ele>112.557678</ele>
<time>2010-06-20T12:47:51Z</time>
<desc>lat.=56.031631, lon.=26.675898, Alt.=112.557678m. Speed=17.280001m/h.</desc>
<speed>4.800000</speed>
</trkpt>
<trkpt lat="56.031586" lon="26.675892">
<ele>112.417053</ele>
<time>2010-06-20T12:47:52Z</time>
<desc>lat.=56.031586, lon.=26.675892, Alt.=112.417053m. Speed=17.208000m/h.</desc>
<speed>4.780000</speed>
</trkpt>
<trkpt lat="56.031544" lon="26.675884">
<ele>112.352600</ele>
<time>2010-06-20T12:47:53Z</time>
<desc>lat.=56.031544, lon.=26.675884, Alt.=112.352600m. Speed=16.884001m/h.</desc>
<speed>4.690000</speed>
</trkpt>
<trkpt lat="56.031502" lon="26.675873">
<ele>112.639709</ele>
<time>2010-06-20T12:47:54Z</time>
<desc>lat.=56.031502, lon.=26.675873, Alt.=112.639709m. Speed=16.416000m/h.</desc>
<speed>4.560000</speed>
</trkpt>
<trkpt lat="56.031464" lon="26.675863">
<ele>112.950256</ele>
<time>2010-06-20T12:47:55Z</time>
<desc>lat.=56.031464, lon.=26.675863, Alt.=112.950256m. Speed=16.128000m/h.</desc>
<speed>4.480000</speed>
</trkpt>
<trkpt lat="56.031429" lon="26.675858">
<ele>113.377991</ele>
<time>2010-06-20T12:47:56Z</time>
<desc>lat.=56.031429, lon.=26.675858, Alt.=113.377991m. Speed=15.084000m/h.</desc>
<speed>4.190000</speed>
</trkpt>
<trkpt lat="56.031391" lon="26.675850">
<ele>113.946350</ele>
<time>2010-06-20T12:47:57Z</time>
<desc>lat.=56.031391, lon.=26.675850, Alt.=113.946350m. Speed=15.732000m/h.</desc>
<speed>4.370000</speed>
</trkpt>
<trkpt lat="56.031353" lon="26.675842">
<ele>114.393616</ele>
<time>2010-06-20T12:47:58Z</time>
<desc>lat.=56.031353, lon.=26.675842, Alt.=114.393616m. Speed=16.200001m/h.</desc>
<speed>4.500000</speed>
</trkpt>
<trkpt lat="56.031315" lon="26.675831">
<ele>114.553772</ele>
<time>2010-06-20T12:47:59Z</time>
<desc>lat.=56.031315, lon.=26.675831, Alt.=114.553772m. Speed=15.408000m/h.</desc>
<speed>4.280000</speed>
</trkpt>
<trkpt lat="56.031277" lon="26.675821">
<ele>114.706116</ele>
<time>2010-06-20T12:48:00Z</time>
<desc>lat.=56.031277, lon.=26.675821, Alt.=114.706116m. Speed=15.768000m/h.</desc>
<speed>4.380000</speed>
</trkpt>
<trkpt lat="56.031239" lon="26.675806">
<ele>114.889709</ele>
<time>2010-06-20T12:48:01Z</time>
<desc>lat.=56.031239, lon.=26.675806, Alt.=114.889709m. Speed=16.271999m/h.</desc>
<speed>4.520000</speed>
</trkpt>
<trkpt lat="56.031197" lon="26.675785">
<ele>114.803772</ele>
<time>2010-06-20T12:48:02Z</time>
<desc>lat.=56.031197, lon.=26.675785, Alt.=114.803772m. Speed=16.488001m/h.</desc>
<speed>4.580000</speed>
</trkpt>
<trkpt lat="56.031158" lon="26.675770">
<ele>115.045959</ele>
<time>2010-06-20T12:48:03Z</time>
<desc>lat.=56.031158, lon.=26.675770, Alt.=115.045959m. Speed=16.416000m/h.</desc>
<speed>4.560000</speed>
</trkpt>
<trkpt lat="56.031116" lon="26.675747">
<ele>115.014709</ele>
<time>2010-06-20T12:48:04Z</time>
<desc>lat.=56.031116, lon.=26.675747, Alt.=115.014709m. Speed=17.136000m/h.</desc>
<speed>4.760000</speed>
</trkpt>
<trkpt lat="56.031075" lon="26.675726">
<ele>114.977600</ele>
<time>2010-06-20T12:48:05Z</time>
<desc>lat.=56.031075, lon.=26.675726, Alt.=114.977600m. Speed=16.308001m/h.</desc>
<speed>4.530000</speed>
</trkpt>
<trkpt lat="56.031033" lon="26.675709">
<ele>115.200256</ele>
<time>2010-06-20T12:48:06Z</time>
<desc>lat.=56.031033, lon.=26.675709, Alt.=115.200256m. Speed=16.056000m/h.</desc>
<speed>4.460000</speed>
</trkpt>
<trkpt lat="56.030994" lon="26.675688">
<ele>115.202209</ele>
<time>2010-06-20T12:48:07Z</time>
<desc>lat.=56.030994, lon.=26.675688, Alt.=115.202209m. Speed=15.948000m/h.</desc>
<speed>4.430000</speed>
</trkpt>
<trkpt lat="56.030956" lon="26.675665">
<ele>115.182678</ele>
<time>2010-06-20T12:48:08Z</time>
<desc>lat.=56.030956, lon.=26.675665, Alt.=115.182678m. Speed=16.236000m/h.</desc>
<speed>4.510000</speed>
</trkpt>
<trkpt lat="56.030918" lon="26.675644">
<ele>115.297913</ele>
<time>2010-06-20T12:48:09Z</time>
<desc>lat.=56.030918, lon.=26.675644, Alt.=115.297913m. Speed=15.120000m/h.</desc>
<speed>4.200000</speed>
</trkpt>
<trkpt lat="56.030880" lon="26.675617">
<ele>115.241272</ele>
<time>2010-06-20T12:48:10Z</time>
<desc>lat.=56.030880, lon.=26.675617, Alt.=115.241272m. Speed=14.184000m/h.</desc>
<speed>3.940000</speed>
</trkpt>
<trkpt lat="56.030849" lon="26.675594">
<ele>114.942444</ele>
<time>2010-06-20T12:48:11Z</time>
<desc>lat.=56.030849, lon.=26.675594, Alt.=114.942444m. Speed=13.572000m/h.</desc>
<speed>3.770000</speed>
</trkpt>
<trkpt lat="56.030811" lon="26.675583">
<ele>114.790100</ele>
<time>2010-06-20T12:48:12Z</time>
<desc>lat.=56.030811, lon.=26.675583, Alt.=114.790100m. Speed=13.932000m/h.</desc>
<speed>3.870000</speed>
</trkpt>
<trkpt lat="56.030781" lon="26.675568">
<ele>114.659241</ele>
<time>2010-06-20T12:48:13Z</time>
<desc>lat.=56.030781, lon.=26.675568, Alt.=114.659241m. Speed=14.544000m/h.</desc>
<speed>4.040000</speed>
</trkpt>
<trkpt lat="56.030743" lon="26.675552">
<ele>114.524475</ele>
<time>2010-06-20T12:48:14Z</time>
<desc>lat.=56.030743, lon.=26.675552, Alt.=114.524475m. Speed=15.084000m/h.</desc>
<speed>4.190000</speed>
</trkpt>
<trkpt lat="56.030704" lon="26.675531">
<ele>114.626038</ele>
<time>2010-06-20T12:48:15Z</time>
<desc>lat.=56.030704, lon.=26.675531, Alt.=114.626038m. Speed=16.308001m/h.</desc>
<speed>4.530000</speed>
</trkpt>
<trkpt lat="56.030666" lon="26.675508">
<ele>114.368225</ele>
<time>2010-06-20T12:48:16Z</time>
<desc>lat.=56.030666, lon.=26.675508, Alt.=114.368225m. Speed=14.688000m/h.</desc>
<speed>4.080000</speed>
</trkpt>
<trkpt lat="56.030632" lon="26.675488">
<ele>114.428772</ele>
<time>2010-06-20T12:48:17Z</time>
<desc>lat.=56.030632, lon.=26.675488, Alt.=114.428772m. Speed=14.616000m/h.</desc>
<speed>4.060000</speed>
</trkpt>
<trkpt lat="56.030598" lon="26.675467">
<ele>114.450256</ele>
<time>2010-06-20T12:48:18Z</time>
<desc>lat.=56.030598, lon.=26.675467, Alt.=114.450256m. Speed=15.012000m/h.</desc>
<speed>4.170000</speed>
</trkpt>
<trkpt lat="56.030560" lon="26.675449">
<ele>114.440491</ele>
<time>2010-06-20T12:48:19Z</time>
<desc>lat.=56.030560, lon.=26.675449, Alt.=114.440491m. Speed=14.328000m/h.</desc>
<speed>3.980000</speed>
</trkpt>
<trkpt lat="56.030529" lon="26.675434">
<ele>115.073303</ele>
<time>2010-06-20T12:48:20Z</time>
<desc>lat.=56.030529, lon.=26.675434, Alt.=115.073303m. Speed=14.544000m/h.</desc>
<speed>4.040000</speed>
</trkpt>
<trkpt lat="56.030495" lon="26.675417">
<ele>115.014709</ele>
<time>2010-06-20T12:48:21Z</time>
<desc>lat.=56.030495, lon.=26.675417, Alt.=115.014709m. Speed=15.264000m/h.</desc>
<speed>4.240000</speed>
</trkpt>
<trkpt lat="56.030457" lon="26.675394">
<ele>114.989319</ele>
<time>2010-06-20T12:48:22Z</time>
<desc>lat.=56.030457, lon.=26.675394, Alt.=114.989319m. Speed=15.444000m/h.</desc>
<speed>4.290000</speed>
</trkpt>
<trkpt lat="56.030422" lon="26.675373">
<ele>114.856506</ele>
<time>2010-06-20T12:48:23Z</time>
<desc>lat.=56.030422, lon.=26.675373, Alt.=114.856506m. Speed=15.336000m/h.</desc>
<speed>4.260000</speed>
</trkpt>
<trkpt lat="56.030384" lon="26.675352">
<ele>114.758850</ele>
<time>2010-06-20T12:48:24Z</time>
<desc>lat.=56.030384, lon.=26.675352, Alt.=114.758850m. Speed=14.868000m/h.</desc>
<speed>4.130000</speed>
</trkpt>
<trkpt lat="56.030346" lon="26.675327">
<ele>114.458069</ele>
<time>2010-06-20T12:48:25Z</time>
<desc>lat.=56.030346, lon.=26.675327, Alt.=114.458069m. Speed=15.048000m/h.</desc>
<speed>4.180000</speed>
</trkpt>
<trkpt lat="56.030308" lon="26.675306">
<ele>114.120178</ele>
<time>2010-06-20T12:48:26Z</time>
<desc>lat.=56.030308, lon.=26.675306, Alt.=114.120178m. Speed=16.271999m/h.</desc>
<speed>4.520000</speed>
</trkpt>
<trkpt lat="56.030270" lon="26.675293">
<ele>114.032288</ele>
<time>2010-06-20T12:48:27Z</time>
<desc>lat.=56.030270, lon.=26.675293, Alt.=114.032288m. Speed=16.128000m/h.</desc>
<speed>4.480000</speed>
</trkpt>
<trkpt lat="56.030228" lon="26.675272">
<ele>113.969788</ele>
<time>2010-06-20T12:48:28Z</time>
<desc>lat.=56.030228, lon.=26.675272, Alt.=113.969788m. Speed=15.624000m/h.</desc>
<speed>4.340000</speed>
</trkpt>
<trkpt lat="56.030193" lon="26.675255">
<ele>113.442444</ele>
<time>2010-06-20T12:48:29Z</time>
<desc>lat.=56.030193, lon.=26.675255, Alt.=113.442444m. Speed=14.904000m/h.</desc>
<speed>4.140000</speed>
</trkpt>
<trkpt lat="56.030155" lon="26.675234">
<ele>112.723694</ele>
<time>2010-06-20T12:48:30Z</time>
<desc>lat.=56.030155, lon.=26.675234, Alt.=112.723694m. Speed=13.860000m/h.</desc>
<speed>3.850000</speed>
</trkpt>
<trkpt lat="56.030117" lon="26.675213">
<ele>111.852600</ele>
<time>2010-06-20T12:48:31Z</time>
<desc>lat.=56.030117, lon.=26.675213, Alt.=111.852600m. Speed=15.228000m/h.</desc>
<speed>4.230000</speed>
</trkpt>
<trkpt lat="56.030083" lon="26.675190">
<ele>111.358459</ele>
<time>2010-06-20T12:48:32Z</time>
<desc>lat.=56.030083, lon.=26.675190, Alt.=111.358459m. Speed=15.408000m/h.</desc>
<speed>4.280000</speed>
</trkpt>
<trkpt lat="56.030048" lon="26.675169">
<ele>112.340881</ele>
<time>2010-06-20T12:48:33Z</time>
<desc>lat.=56.030048, lon.=26.675169, Alt.=112.340881m. Speed=15.120000m/h.</desc>
<speed>4.200000</speed>
</trkpt>
<trkpt lat="56.030014" lon="26.675144">
<ele>112.042053</ele>
<time>2010-06-20T12:48:34Z</time>
<desc>lat.=56.030014, lon.=26.675144, Alt.=112.042053m. Speed=14.436000m/h.</desc>
<speed>4.010000</speed>
</trkpt>
<trkpt lat="56.029980" lon="26.675123">
<ele>111.807678</ele>
<time>2010-06-20T12:48:35Z</time>
<desc>lat.=56.029980, lon.=26.675123, Alt.=111.807678m. Speed=14.400000m/h.</desc>
<speed>4.000000</speed>
</trkpt>
<trkpt lat="56.029945" lon="26.675098">
<ele>111.489319</ele>
<time>2010-06-20T12:48:36Z</time>
<desc>lat.=56.029945, lon.=26.675098, Alt.=111.489319m. Speed=15.156000m/h.</desc>
<speed>4.210000</speed>
</trkpt>
<trkpt lat="56.029911" lon="26.675077">
<ele>111.487366</ele>
<time>2010-06-20T12:48:37Z</time>
<desc>lat.=56.029911, lon.=26.675077, Alt.=111.487366m. Speed=14.400000m/h.</desc>
<speed>4.000000</speed>
</trkpt>
<trkpt lat="56.029877" lon="26.675055">
<ele>111.422913</ele>
<time>2010-06-20T12:48:38Z</time>
<desc>lat.=56.029877, lon.=26.675055, Alt.=111.422913m. Speed=13.824000m/h.</desc>
<speed>3.840000</speed>
</trkpt>
<trkpt lat="56.029846" lon="26.675037">
<ele>111.866272</ele>
<time>2010-06-20T12:48:39Z</time>
<desc>lat.=56.029846, lon.=26.675037, Alt.=111.866272m. Speed=12.888000m/h.</desc>
<speed>3.580000</speed>
</trkpt>
<trkpt lat="56.029816" lon="26.675022">
<ele>112.147522</ele>
<time>2010-06-20T12:48:40Z</time>
<desc>lat.=56.029816, lon.=26.675022, Alt.=112.147522m. Speed=13.572000m/h.</desc>
<speed>3.770000</speed>
</trkpt>
<trkpt lat="56.029785" lon="26.675005">
<ele>112.684631</ele>
<time>2010-06-20T12:48:41Z</time>
<desc>lat.=56.029785, lon.=26.675005, Alt.=112.684631m. Speed=14.112000m/h.</desc>
<speed>3.920000</speed>
</trkpt>
<trkpt lat="56.029751" lon="26.674986">
<ele>112.600647</ele>
<time>2010-06-20T12:48:42Z</time>
<desc>lat.=56.029751, lon.=26.674986, Alt.=112.600647m. Speed=14.688000m/h.</desc>
<speed>4.080000</speed>
</trkpt>
<trkpt lat="56.029716" lon="26.674965">
<ele>112.518616</ele>
<time>2010-06-20T12:48:43Z</time>
<desc>lat.=56.029716, lon.=26.674965, Alt.=112.518616m. Speed=14.616000m/h.</desc>
<speed>4.060000</speed>
</trkpt>
<trkpt lat="56.029678" lon="26.674948">
<ele>112.475647</ele>
<time>2010-06-20T12:48:44Z</time>
<desc>lat.=56.029678, lon.=26.674948, Alt.=112.475647m. Speed=14.004000m/h.</desc>
<speed>3.890000</speed>
</trkpt>
<trkpt lat="56.029648" lon="26.674927">
<ele>112.411194</ele>
<time>2010-06-20T12:48:45Z</time>
<desc>lat.=56.029648, lon.=26.674927, Alt.=112.411194m. Speed=13.356000m/h.</desc>
<speed>3.710000</speed>
</trkpt>
<trkpt lat="56.029617" lon="26.674906">
<ele>112.118225</ele>
<time>2010-06-20T12:48:46Z</time>
<desc>lat.=56.029617, lon.=26.674906, Alt.=112.118225m. Speed=13.176000m/h.</desc>
<speed>3.660000</speed>
</trkpt>
<trkpt lat="56.029583" lon="26.674887">
<ele>111.915100</ele>
<time>2010-06-20T12:48:47Z</time>
<desc>lat.=56.029583, lon.=26.674887, Alt.=111.915100m. Speed=13.032000m/h.</desc>
<speed>3.620000</speed>
</trkpt>
<trkpt lat="56.029552" lon="26.674866">
<ele>111.731506</ele>
<time>2010-06-20T12:48:48Z</time>
<desc>lat.=56.029552, lon.=26.674866, Alt.=111.731506m. Speed=13.500000m/h.</desc>
<speed>3.750000</speed>
</trkpt>
<trkpt lat="56.029518" lon="26.674850">
<ele>111.364319</ele>
<time>2010-06-20T12:48:49Z</time>
<desc>lat.=56.029518, lon.=26.674850, Alt.=111.364319m. Speed=14.364000m/h.</desc>
<speed>3.990000</speed>
</trkpt>
<trkpt lat="56.029484" lon="26.674837">
<ele>112.120178</ele>
<time>2010-06-20T12:48:50Z</time>
<desc>lat.=56.029484, lon.=26.674837, Alt.=112.120178m. Speed=14.436000m/h.</desc>
<speed>4.010000</speed>
</trkpt>
<trkpt lat="56.029449" lon="26.674816">
<ele>112.295959</ele>
<time>2010-06-20T12:48:51Z</time>
<desc>lat.=56.029449, lon.=26.674816, Alt.=112.295959m. Speed=14.148000m/h.</desc>
<speed>3.930000</speed>
</trkpt>
<trkpt lat="56.029415" lon="26.674793">
<ele>111.936584</ele>
<time>2010-06-20T12:48:52Z</time>
<desc>lat.=56.029415, lon.=26.674793, Alt.=111.936584m. Speed=13.500000m/h.</desc>
<speed>3.750000</speed>
</trkpt>
<trkpt lat="56.029381" lon="26.674776">
<ele>112.276428</ele>
<time>2010-06-20T12:48:53Z</time>
<desc>lat.=56.029381, lon.=26.674776, Alt.=112.276428m. Speed=13.464000m/h.</desc>
<speed>3.740000</speed>
</trkpt>
<trkpt lat="56.029350" lon="26.674755">
<ele>111.608459</ele>
<time>2010-06-20T12:48:54Z</time>
<desc>lat.=56.029350, lon.=26.674755, Alt.=111.608459m. Speed=13.824000m/h.</desc>
<speed>3.840000</speed>
</trkpt>
<trkpt lat="56.029312" lon="26.674740">
<ele>110.751038</ele>
<time>2010-06-20T12:48:55Z</time>
<desc>lat.=56.029312, lon.=26.674740, Alt.=110.751038m. Speed=15.156000m/h.</desc>
<speed>4.210000</speed>
</trkpt>
<trkpt lat="56.029274" lon="26.674719">
<ele>109.690491</ele>
<time>2010-06-20T12:48:56Z</time>
<desc>lat.=56.029274, lon.=26.674719, Alt.=109.690491m. Speed=15.408000m/h.</desc>
<speed>4.280000</speed>
</trkpt>
<trkpt lat="56.029236" lon="26.674696">
<ele>109.901428</ele>
<time>2010-06-20T12:48:57Z</time>
<desc>lat.=56.029236, lon.=26.674696, Alt.=109.901428m. Speed=16.020000m/h.</desc>
<speed>4.450000</speed>
</trkpt>
<trkpt lat="56.029198" lon="26.674675">
<ele>109.932678</ele>
<time>2010-06-20T12:48:58Z</time>
<desc>lat.=56.029198, lon.=26.674675, Alt.=109.932678m. Speed=15.624000m/h.</desc>
<speed>4.340000</speed>
</trkpt>
<trkpt lat="56.029163" lon="26.674652">
<ele>108.801819</ele>
<time>2010-06-20T12:48:59Z</time>
<desc>lat.=56.029163, lon.=26.674652, Alt.=108.801819m. Speed=14.760000m/h.</desc>
<speed>4.100000</speed>
</trkpt>
<trkpt lat="56.029129" lon="26.674637">
<ele>109.813538</ele>
<time>2010-06-20T12:49:00Z</time>
<desc>lat.=56.029129, lon.=26.674637, Alt.=109.813538m. Speed=15.840000m/h.</desc>
<speed>4.400000</speed>
</trkpt>
<trkpt lat="56.029091" lon="26.674620">
<ele>110.485413</ele>
<time>2010-06-20T12:49:01Z</time>
<desc>lat.=56.029091, lon.=26.674620, Alt.=110.485413m. Speed=16.056000m/h.</desc>
<speed>4.460000</speed>
</trkpt>
<trkpt lat="56.029057" lon="26.674604">
<ele>110.893616</ele>
<time>2010-06-20T12:49:02Z</time>
<desc>lat.=56.029057, lon.=26.674604, Alt.=110.893616m. Speed=16.452000m/h.</desc>
<speed>4.570000</speed>
</trkpt>
<trkpt lat="56.029018" lon="26.674585">
<ele>110.909241</ele>
<time>2010-06-20T12:49:03Z</time>
<desc>lat.=56.029018, lon.=26.674585, Alt.=110.909241m. Speed=16.344000m/h.</desc>
<speed>4.540000</speed>
</trkpt>
<trkpt lat="56.028976" lon="26.674562">
<ele>110.766663</ele>
<time>2010-06-20T12:49:04Z</time>
<desc>lat.=56.028976, lon.=26.674562, Alt.=110.766663m. Speed=16.056000m/h.</desc>
<speed>4.460000</speed>
</trkpt>
<trkpt lat="56.028938" lon="26.674538">
<ele>110.547913</ele>
<time>2010-06-20T12:49:05Z</time>
<desc>lat.=56.028938, lon.=26.674538, Alt.=110.547913m. Speed=15.876000m/h.</desc>
<speed>4.410000</speed>
</trkpt>
<trkpt lat="56.028900" lon="26.674513">
<ele>110.284241</ele>
<time>2010-06-20T12:49:06Z</time>
<desc>lat.=56.028900, lon.=26.674513, Alt.=110.284241m. Speed=15.480000m/h.</desc>
<speed>4.300000</speed>
</trkpt>
<trkpt lat="56.028866" lon="26.674486">
<ele>110.165100</ele>
<time>2010-06-20T12:49:07Z</time>
<desc>lat.=56.028866, lon.=26.674486, Alt.=110.165100m. Speed=15.192000m/h.</desc>
<speed>4.220000</speed>
</trkpt>
<trkpt lat="56.028831" lon="26.674458">
<ele>110.385803</ele>
<time>2010-06-20T12:49:08Z</time>
<desc>lat.=56.028831, lon.=26.674458, Alt.=110.385803m. Speed=14.832000m/h.</desc>
<speed>4.120000</speed>
</trkpt>
<trkpt lat="56.028793" lon="26.674437">
<ele>110.499084</ele>
<time>2010-06-20T12:49:09Z</time>
<desc>lat.=56.028793, lon.=26.674437, Alt.=110.499084m. Speed=14.292000m/h.</desc>
<speed>3.970000</speed>
</trkpt>
<trkpt lat="56.028759" lon="26.674419">
<ele>110.672913</ele>
<time>2010-06-20T12:49:10Z</time>
<desc>lat.=56.028759, lon.=26.674419, Alt.=110.672913m. Speed=14.616000m/h.</desc>
<speed>4.060000</speed>
</trkpt>
<trkpt lat="56.028721" lon="26.674397">
<ele>110.006897</ele>
<time>2010-06-20T12:49:11Z</time>
<desc>lat.=56.028721, lon.=26.674397, Alt.=110.006897m. Speed=15.300000m/h.</desc>
<speed>4.250000</speed>
</trkpt>
<trkpt lat="56.028687" lon="26.674374">
<ele>110.307678</ele>
<time>2010-06-20T12:49:12Z</time>
<desc>lat.=56.028687, lon.=26.674374, Alt.=110.307678m. Speed=15.732000m/h.</desc>
<speed>4.370000</speed>
</trkpt>
<trkpt lat="56.028648" lon="26.674353">
<ele>109.889709</ele>
<time>2010-06-20T12:49:13Z</time>
<desc>lat.=56.028648, lon.=26.674353, Alt.=109.889709m. Speed=15.624000m/h.</desc>
<speed>4.340000</speed>
</trkpt>
<trkpt lat="56.028614" lon="26.674337">
<ele>110.495178</ele>
<time>2010-06-20T12:49:14Z</time>
<desc>lat.=56.028614, lon.=26.674337, Alt.=110.495178m. Speed=15.012000m/h.</desc>
<speed>4.170000</speed>
</trkpt>
<trkpt lat="56.028580" lon="26.674318">
<ele>110.852600</ele>
<time>2010-06-20T12:49:15Z</time>
<desc>lat.=56.028580, lon.=26.674318, Alt.=110.852600m. Speed=16.452000m/h.</desc>
<speed>4.570000</speed>
</trkpt>
<trkpt lat="56.028542" lon="26.674299">
<ele>110.776428</ele>
<time>2010-06-20T12:49:16Z</time>
<desc>lat.=56.028542, lon.=26.674299, Alt.=110.776428m. Speed=17.063999m/h.</desc>
<speed>4.740000</speed>
</trkpt>
<trkpt lat="56.028500" lon="26.674273">
<ele>110.540100</ele>
<time>2010-06-20T12:49:17Z</time>
<desc>lat.=56.028500, lon.=26.674273, Alt.=110.540100m. Speed=16.452000m/h.</desc>
<speed>4.570000</speed>
</trkpt>
<trkpt lat="56.028458" lon="26.674252">
<ele>110.284241</ele>
<time>2010-06-20T12:49:18Z</time>
<desc>lat.=56.028458, lon.=26.674252, Alt.=110.284241m. Speed=16.020000m/h.</desc>
<speed>4.450000</speed>
</trkpt>
<trkpt lat="56.028419" lon="26.674232">
<ele>110.026428</ele>
<time>2010-06-20T12:49:19Z</time>
<desc>lat.=56.028419, lon.=26.674232, Alt.=110.026428m. Speed=15.768000m/h.</desc>
<speed>4.380000</speed>
</trkpt>
<trkpt lat="56.028381" lon="26.674212">
<ele>109.721741</ele>
<time>2010-06-20T12:49:20Z</time>
<desc>lat.=56.028381, lon.=26.674212, Alt.=109.721741m. Speed=15.192000m/h.</desc>
<speed>4.220000</speed>
</trkpt>
<trkpt lat="56.028347" lon="26.674191">
<ele>109.643616</ele>
<time>2010-06-20T12:49:21Z</time>
<desc>lat.=56.028347, lon.=26.674191, Alt.=109.643616m. Speed=14.904000m/h.</desc>
<speed>4.140000</speed>
</trkpt>
<trkpt lat="56.028309" lon="26.674166">
<ele>109.540100</ele>
<time>2010-06-20T12:49:22Z</time>
<desc>lat.=56.028309, lon.=26.674166, Alt.=109.540100m. Speed=15.156000m/h.</desc>
<speed>4.210000</speed>
</trkpt>
<trkpt lat="56.028271" lon="26.674143">
<ele>109.723694</ele>
<time>2010-06-20T12:49:23Z</time>
<desc>lat.=56.028271, lon.=26.674143, Alt.=109.723694m. Speed=15.912000m/h.</desc>
<speed>4.420000</speed>
</trkpt>
<trkpt lat="56.028233" lon="26.674126">
<ele>109.393616</ele>
<time>2010-06-20T12:49:24Z</time>
<desc>lat.=56.028233, lon.=26.674126, Alt.=109.393616m. Speed=15.516000m/h.</desc>
<speed>4.310000</speed>
</trkpt>
<trkpt lat="56.028194" lon="26.674109">
<ele>109.411194</ele>
<time>2010-06-20T12:49:25Z</time>
<desc>lat.=56.028194, lon.=26.674109, Alt.=109.411194m. Speed=16.200001m/h.</desc>
<speed>4.500000</speed>
</trkpt>
<trkpt lat="56.028160" lon="26.674082">
<ele>109.143616</ele>
<time>2010-06-20T12:49:26Z</time>
<desc>lat.=56.028160, lon.=26.674082, Alt.=109.143616m. Speed=15.480000m/h.</desc>
<speed>4.300000</speed>
</trkpt>
<trkpt lat="56.028118" lon="26.674055">
<ele>109.170959</ele>
<time>2010-06-20T12:49:27Z</time>
<desc>lat.=56.028118, lon.=26.674055, Alt.=109.170959m. Speed=16.379999m/h.</desc>
<speed>4.550000</speed>
</trkpt>
<trkpt lat="56.028080" lon="26.674028">
<ele>109.094788</ele>
<time>2010-06-20T12:49:28Z</time>
<desc>lat.=56.028080, lon.=26.674028, Alt.=109.094788m. Speed=15.984000m/h.</desc>
<speed>4.440000</speed>
</trkpt>
<trkpt lat="56.028042" lon="26.674007">
<ele>109.397522</ele>
<time>2010-06-20T12:49:29Z</time>
<desc>lat.=56.028042, lon.=26.674007, Alt.=109.397522m. Speed=15.768000m/h.</desc>
<speed>4.380000</speed>
</trkpt>
<trkpt lat="56.028004" lon="26.673988">
<ele>109.313538</ele>
<time>2010-06-20T12:49:30Z</time>
<desc>lat.=56.028004, lon.=26.673988, Alt.=109.313538m. Speed=15.156000m/h.</desc>
<speed>4.210000</speed>
</trkpt>
<trkpt lat="56.027969" lon="26.673971">
<ele>109.659241</ele>
<time>2010-06-20T12:49:31Z</time>
<desc>lat.=56.027969, lon.=26.673971, Alt.=109.659241m. Speed=14.868000m/h.</desc>
<speed>4.130000</speed>
</trkpt>
<trkpt lat="56.027935" lon="26.673950">
<ele>109.608459</ele>
<time>2010-06-20T12:49:32Z</time>
<desc>lat.=56.027935, lon.=26.673950, Alt.=109.608459m. Speed=15.048000m/h.</desc>
<speed>4.180000</speed>
</trkpt>
<trkpt lat="56.027897" lon="26.673935">
<ele>110.290100</ele>
<time>2010-06-20T12:49:33Z</time>
<desc>lat.=56.027897, lon.=26.673935, Alt.=110.290100m. Speed=15.300000m/h.</desc>
<speed>4.250000</speed>
</trkpt>
<trkpt lat="56.027859" lon="26.673916">
<ele>110.368225</ele>
<time>2010-06-20T12:49:34Z</time>
<desc>lat.=56.027859, lon.=26.673916, Alt.=110.368225m. Speed=14.652000m/h.</desc>
<speed>4.070000</speed>
</trkpt>
<trkpt lat="56.027821" lon="26.673903">
<ele>110.311584</ele>
<time>2010-06-20T12:49:35Z</time>
<desc>lat.=56.027821, lon.=26.673903, Alt.=110.311584m. Speed=14.544000m/h.</desc>
<speed>4.040000</speed>
</trkpt>
<trkpt lat="56.027786" lon="26.673897">
<ele>110.112366</ele>
<time>2010-06-20T12:49:36Z</time>
<desc>lat.=56.027786, lon.=26.673897, Alt.=110.112366m. Speed=15.120000m/h.</desc>
<speed>4.200000</speed>
</trkpt>
<trkpt lat="56.027748" lon="26.673895">
<ele>110.079163</ele>
<time>2010-06-20T12:49:37Z</time>
<desc>lat.=56.027748, lon.=26.673895, Alt.=110.079163m. Speed=16.164000m/h.</desc>
<speed>4.490000</speed>
</trkpt>
<trkpt lat="56.027706" lon="26.673897">
<ele>110.294006</ele>
<time>2010-06-20T12:49:38Z</time>
<desc>lat.=56.027706, lon.=26.673897, Alt.=110.294006m. Speed=15.876000m/h.</desc>
<speed>4.410000</speed>
</trkpt>
<trkpt lat="56.027668" lon="26.673895">
<ele>110.520569</ele>
<time>2010-06-20T12:49:39Z</time>
<desc>lat.=56.027668, lon.=26.673895, Alt.=110.520569m. Speed=14.976000m/h.</desc>
<speed>4.160000</speed>
</trkpt>
<trkpt lat="56.027634" lon="26.673899">
<ele>110.811584</ele>
<time>2010-06-20T12:49:40Z</time>
<desc>lat.=56.027634, lon.=26.673899, Alt.=110.811584m. Speed=13.536000m/h.</desc>
<speed>3.760000</speed>
</trkpt>
<trkpt lat="56.027603" lon="26.673901">
<ele>111.102600</ele>
<time>2010-06-20T12:49:41Z</time>
<desc>lat.=56.027603, lon.=26.673901, Alt.=111.102600m. Speed=12.708000m/h.</desc>
<speed>3.530000</speed>
</trkpt>
<trkpt lat="56.027573" lon="26.673906">
<ele>111.333069</ele>
<time>2010-06-20T12:49:42Z</time>
<desc>lat.=56.027573, lon.=26.673906, Alt.=111.333069m. Speed=12.564000m/h.</desc>
<speed>3.490000</speed>
</trkpt>
<trkpt lat="56.027546" lon="26.673925">
<ele>112.502991</ele>
<time>2010-06-20T12:49:43Z</time>
<desc>lat.=56.027546, lon.=26.673925, Alt.=112.502991m. Speed=14.004000m/h.</desc>
<speed>3.890000</speed>
</trkpt>
<trkpt lat="56.027512" lon="26.673944">
<ele>112.669006</ele>
<time>2010-06-20T12:49:44Z</time>
<desc>lat.=56.027512, lon.=26.673944, Alt.=112.669006m. Speed=15.336000m/h.</desc>
<speed>4.260000</speed>
</trkpt>
<trkpt lat="56.027477" lon="26.673965">
<ele>112.889709</ele>
<time>2010-06-20T12:49:45Z</time>
<desc>lat.=56.027477, lon.=26.673965, Alt.=112.889709m. Speed=15.408000m/h.</desc>
<speed>4.280000</speed>
</trkpt>
<trkpt lat="56.027439" lon="26.673988">
<ele>113.016663</ele>
<time>2010-06-20T12:49:46Z</time>
<desc>lat.=56.027439, lon.=26.673988, Alt.=113.016663m. Speed=15.768000m/h.</desc>
<speed>4.380000</speed>
</trkpt>
<trkpt lat="56.027405" lon="26.674009">
<ele>113.094788</ele>
<time>2010-06-20T12:49:47Z</time>
<desc>lat.=56.027405, lon.=26.674009, Alt.=113.094788m. Speed=16.236000m/h.</desc>
<speed>4.510000</speed>
</trkpt>
<trkpt lat="56.027367" lon="26.674036">
<ele>113.174866</ele>
<time>2010-06-20T12:49:48Z</time>
<desc>lat.=56.027367, lon.=26.674036, Alt.=113.174866m. Speed=16.271999m/h.</desc>
<speed>4.520000</speed>
</trkpt>
<trkpt lat="56.027328" lon="26.674061">
<ele>113.131897</ele>
<time>2010-06-20T12:49:49Z</time>
<desc>lat.=56.027328, lon.=26.674061, Alt.=113.131897m. Speed=15.912000m/h.</desc>
<speed>4.420000</speed>
</trkpt>
<trkpt lat="56.027294" lon="26.674089">
<ele>113.299866</ele>
<time>2010-06-20T12:49:50Z</time>
<desc>lat.=56.027294, lon.=26.674089, Alt.=113.299866m. Speed=16.164000m/h.</desc>
<speed>4.490000</speed>
</trkpt>
<trkpt lat="56.027260" lon="26.674128">
<ele>113.208069</ele>
<time>2010-06-20T12:49:51Z</time>
<desc>lat.=56.027260, lon.=26.674128, Alt.=113.208069m. Speed=16.524000m/h.</desc>
<speed>4.590000</speed>
</trkpt>
<trkpt lat="56.027222" lon="26.674162">
<ele>113.758850</ele>
<time>2010-06-20T12:49:52Z</time>
<desc>lat.=56.027222, lon.=26.674162, Alt.=113.758850m. Speed=17.459999m/h.</desc>
<speed>4.850000</speed>
</trkpt>
<trkpt lat="56.027187" lon="26.674194">
<ele>113.585022</ele>
<time>2010-06-20T12:49:53Z</time>
<desc>lat.=56.027187, lon.=26.674194, Alt.=113.585022m. Speed=16.955999m/h.</desc>
<speed>4.710000</speed>
</trkpt>
<trkpt lat="56.027149" lon="26.674227">
<ele>113.669006</ele>
<time>2010-06-20T12:49:54Z</time>
<desc>lat.=56.027149, lon.=26.674227, Alt.=113.669006m. Speed=16.632000m/h.</desc>
<speed>4.620000</speed>
</trkpt>
<trkpt lat="56.027115" lon="26.674261">
<ele>113.770569</ele>
<time>2010-06-20T12:49:55Z</time>
<desc>lat.=56.027115, lon.=26.674261, Alt.=113.770569m. Speed=16.236000m/h.</desc>
<speed>4.510000</speed>
</trkpt>
<trkpt lat="56.027081" lon="26.674294">
<ele>113.856506</ele>
<time>2010-06-20T12:49:56Z</time>
<desc>lat.=56.027081, lon.=26.674294, Alt.=113.856506m. Speed=16.236000m/h.</desc>
<speed>4.510000</speed>
</trkpt>
<trkpt lat="56.027046" lon="26.674324">
<ele>113.836975</ele>
<time>2010-06-20T12:49:57Z</time>
<desc>lat.=56.027046, lon.=26.674324, Alt.=113.836975m. Speed=15.984000m/h.</desc>
<speed>4.440000</speed>
</trkpt>
<trkpt lat="56.027008" lon="26.674349">
<ele>113.688538</ele>
<time>2010-06-20T12:49:58Z</time>
<desc>lat.=56.027008, lon.=26.674349, Alt.=113.688538m. Speed=15.984000m/h.</desc>
<speed>4.440000</speed>
</trkpt>
<trkpt lat="56.026974" lon="26.674374">
<ele>113.708069</ele>
<time>2010-06-20T12:49:59Z</time>
<desc>lat.=56.026974, lon.=26.674374, Alt.=113.708069m. Speed=15.696000m/h.</desc>
<speed>4.360000</speed>
</trkpt>
<trkpt lat="56.026939" lon="26.674398">
<ele>113.766663</ele>
<time>2010-06-20T12:50:00Z</time>
<desc>lat.=56.026939, lon.=26.674398, Alt.=113.766663m. Speed=15.264000m/h.</desc>
<speed>4.240000</speed>
</trkpt>
<trkpt lat="56.026913" lon="26.674437">
<ele>115.169006</ele>
<time>2010-06-20T12:50:01Z</time>
<desc>lat.=56.026913, lon.=26.674437, Alt.=115.169006m. Speed=15.372000m/h.</desc>
<speed>4.270000</speed>
</trkpt>
<trkpt lat="56.026882" lon="26.674473">
<ele>116.456116</ele>
<time>2010-06-20T12:50:02Z</time>
<desc>lat.=56.026882, lon.=26.674473, Alt.=116.456116m. Speed=15.228000m/h.</desc>
<speed>4.230000</speed>
</trkpt>
<trkpt lat="56.026848" lon="26.674509">
<ele>116.542053</ele>
<time>2010-06-20T12:50:03Z</time>
<desc>lat.=56.026848, lon.=26.674509, Alt.=116.542053m. Speed=15.372000m/h.</desc>
<speed>4.270000</speed>
</trkpt>
<trkpt lat="56.026814" lon="26.674541">
<ele>116.440491</ele>
<time>2010-06-20T12:50:04Z</time>
<desc>lat.=56.026814, lon.=26.674541, Alt.=116.440491m. Speed=16.416000m/h.</desc>
<speed>4.560000</speed>
</trkpt>
<trkpt lat="56.026779" lon="26.674576">
<ele>116.366272</ele>
<time>2010-06-20T12:50:05Z</time>
<desc>lat.=56.026779, lon.=26.674576, Alt.=116.366272m. Speed=16.379999m/h.</desc>
<speed>4.550000</speed>
</trkpt>
<trkpt lat="56.026745" lon="26.674603">
<ele>116.346741</ele>
<time>2010-06-20T12:50:06Z</time>
<desc>lat.=56.026745, lon.=26.674603, Alt.=116.346741m. Speed=16.056000m/h.</desc>
<speed>4.460000</speed>
</trkpt>
<trkpt lat="56.026707" lon="26.674631">
<ele>116.336975</ele>
<time>2010-06-20T12:50:07Z</time>
<desc>lat.=56.026707, lon.=26.674631, Alt.=116.336975m. Speed=15.804000m/h.</desc>
<speed>4.390000</speed>
</trkpt>
<trkpt lat="56.026676" lon="26.674665">
<ele>116.284241</ele>
<time>2010-06-20T12:50:08Z</time>
<desc>lat.=56.026676, lon.=26.674665, Alt.=116.284241m. Speed=15.624000m/h.</desc>
<speed>4.340000</speed>
</trkpt>
<trkpt lat="56.026642" lon="26.674698">
<ele>116.122131</ele>
<time>2010-06-20T12:50:09Z</time>
<desc>lat.=56.026642, lon.=26.674698, Alt.=116.122131m. Speed=15.264000m/h.</desc>
<speed>4.240000</speed>
</trkpt>
<trkpt lat="56.026608" lon="26.674723">
<ele>115.458069</ele>
<time>2010-06-20T12:50:10Z</time>
<desc>lat.=56.026608, lon.=26.674723, Alt.=115.458069m. Speed=14.040000m/h.</desc>
<speed>3.900000</speed>
</trkpt>
<trkpt lat="56.026573" lon="26.674747">
<ele>115.655334</ele>
<time>2010-06-20T12:50:11Z</time>
<desc>lat.=56.026573, lon.=26.674747, Alt.=115.655334m. Speed=14.076000m/h.</desc>
<speed>3.910000</speed>
</trkpt>
<trkpt lat="56.026543" lon="26.674776">
<ele>115.626038</ele>
<time>2010-06-20T12:50:12Z</time>
<desc>lat.=56.026543, lon.=26.674776, Alt.=115.626038m. Speed=13.752000m/h.</desc>
<speed>3.820000</speed>
</trkpt>
<trkpt lat="56.026512" lon="26.674797">
<ele>116.094788</ele>
<time>2010-06-20T12:50:13Z</time>
<desc>lat.=56.026512, lon.=26.674797, Alt.=116.094788m. Speed=12.996000m/h.</desc>
<speed>3.610000</speed>
</trkpt>
<trkpt lat="56.026482" lon="26.674826">
<ele>115.907288</ele>
<time>2010-06-20T12:50:14Z</time>
<desc>lat.=56.026482, lon.=26.674826, Alt.=115.907288m. Speed=14.220000m/h.</desc>
<speed>3.950000</speed>
</trkpt>
<trkpt lat="56.026451" lon="26.674852">
<ele>116.010803</ele>
<time>2010-06-20T12:50:15Z</time>
<desc>lat.=56.026451, lon.=26.674852, Alt.=116.010803m. Speed=14.616000m/h.</desc>
<speed>4.060000</speed>
</trkpt>
<trkpt lat="56.026417" lon="26.674885">
<ele>115.842834</ele>
<time>2010-06-20T12:50:16Z</time>
<desc>lat.=56.026417, lon.=26.674885, Alt.=115.842834m. Speed=15.156000m/h.</desc>
<speed>4.210000</speed>
</trkpt>
<trkpt lat="56.026386" lon="26.674921">
<ele>116.547913</ele>
<time>2010-06-20T12:50:17Z</time>
<desc>lat.=56.026386, lon.=26.674921, Alt.=116.547913m. Speed=15.624000m/h.</desc>
<speed>4.340000</speed>
</trkpt>
<trkpt lat="56.026356" lon="26.674957">
<ele>116.686584</ele>
<time>2010-06-20T12:50:18Z</time>
<desc>lat.=56.026356, lon.=26.674957, Alt.=116.686584m. Speed=15.516000m/h.</desc>
<speed>4.310000</speed>
</trkpt>
<trkpt lat="56.026321" lon="26.674990">
<ele>116.532288</ele>
<time>2010-06-20T12:50:19Z</time>
<desc>lat.=56.026321, lon.=26.674990, Alt.=116.532288m. Speed=15.156000m/h.</desc>
<speed>4.210000</speed>
</trkpt>
<trkpt lat="56.026291" lon="26.675022">
<ele>116.729553</ele>
<time>2010-06-20T12:50:20Z</time>
<desc>lat.=56.026291, lon.=26.675022, Alt.=116.729553m. Speed=14.832000m/h.</desc>
<speed>4.120000</speed>
</trkpt>
<trkpt lat="56.026257" lon="26.675047">
<ele>116.774475</ele>
<time>2010-06-20T12:50:21Z</time>
<desc>lat.=56.026257, lon.=26.675047, Alt.=116.774475m. Speed=14.508000m/h.</desc>
<speed>4.030000</speed>
</trkpt>
<trkpt lat="56.026222" lon="26.675068">
<ele>116.704163</ele>
<time>2010-06-20T12:50:22Z</time>
<desc>lat.=56.026222, lon.=26.675068, Alt.=116.704163m. Speed=14.580000m/h.</desc>
<speed>4.050000</speed>
</trkpt>
<trkpt lat="56.026196" lon="26.675097">
<ele>117.573303</ele>
<time>2010-06-20T12:50:23Z</time>
<desc>lat.=56.026196, lon.=26.675097, Alt.=117.573303m. Speed=15.120000m/h.</desc>
<speed>4.200000</speed>
</trkpt>
<trkpt lat="56.026165" lon="26.675131">
<ele>118.481506</ele>
<time>2010-06-20T12:50:24Z</time>
<desc>lat.=56.026165, lon.=26.675131, Alt.=118.481506m. Speed=15.876000m/h.</desc>
<speed>4.410000</speed>
</trkpt>
<trkpt lat="56.026127" lon="26.675165">
<ele>118.444397</ele>
<time>2010-06-20T12:50:25Z</time>
<desc>lat.=56.026127, lon.=26.675165, Alt.=118.444397m. Speed=16.128000m/h.</desc>
<speed>4.480000</speed>
</trkpt>
<trkpt lat="56.026093" lon="26.675192">
<ele>118.438538</ele>
<time>2010-06-20T12:50:26Z</time>
<desc>lat.=56.026093, lon.=26.675192, Alt.=118.438538m. Speed=15.336000m/h.</desc>
<speed>4.260000</speed>
</trkpt>
<trkpt lat="56.026058" lon="26.675220">
<ele>118.465881</ele>
<time>2010-06-20T12:50:27Z</time>
<desc>lat.=56.026058, lon.=26.675220, Alt.=118.465881m. Speed=14.868000m/h.</desc>
<speed>4.130000</speed>
</trkpt>
<trkpt lat="56.026024" lon="26.675251">
<ele>118.237366</ele>
<time>2010-06-20T12:50:28Z</time>
<desc>lat.=56.026024, lon.=26.675251, Alt.=118.237366m. Speed=14.544000m/h.</desc>
<speed>4.040000</speed>
</trkpt>
<trkpt lat="56.025990" lon="26.675280">
<ele>118.174866</ele>
<time>2010-06-20T12:50:29Z</time>
<desc>lat.=56.025990, lon.=26.675280, Alt.=118.174866m. Speed=15.444000m/h.</desc>
<speed>4.290000</speed>
</trkpt>
<trkpt lat="56.025955" lon="26.675306">
<ele>118.137756</ele>
<time>2010-06-20T12:50:30Z</time>
<desc>lat.=56.025955, lon.=26.675306, Alt.=118.137756m. Speed=14.724000m/h.</desc>
<speed>4.090000</speed>
</trkpt>
<trkpt lat="56.025925" lon="26.675337">
<ele>118.014709</ele>
<time>2010-06-20T12:50:31Z</time>
<desc>lat.=56.025925, lon.=26.675337, Alt.=118.014709m. Speed=14.760000m/h.</desc>
<speed>4.100000</speed>
</trkpt>
<trkpt lat="56.025890" lon="26.675369">
<ele>118.135803</ele>
<time>2010-06-20T12:50:32Z</time>
<desc>lat.=56.025890, lon.=26.675369, Alt.=118.135803m. Speed=15.444000m/h.</desc>
<speed>4.290000</speed>
</trkpt>
<trkpt lat="56.025856" lon="26.675400">
<ele>118.235413</ele>
<time>2010-06-20T12:50:33Z</time>
<desc>lat.=56.025856, lon.=26.675400, Alt.=118.235413m. Speed=15.624000m/h.</desc>
<speed>4.340000</speed>
</trkpt>
<trkpt lat="56.025822" lon="26.675430">
<ele>118.196350</ele>
<time>2010-06-20T12:50:34Z</time>
<desc>lat.=56.025822, lon.=26.675430, Alt.=118.196350m. Speed=15.336000m/h.</desc>
<speed>4.260000</speed>
</trkpt>
<trkpt lat="56.025787" lon="26.675461">
<ele>118.210022</ele>
<time>2010-06-20T12:50:35Z</time>
<desc>lat.=56.025787, lon.=26.675461, Alt.=118.210022m. Speed=15.264000m/h.</desc>
<speed>4.240000</speed>
</trkpt>
<trkpt lat="56.025753" lon="26.675488">
<ele>118.241272</ele>
<time>2010-06-20T12:50:36Z</time>
<desc>lat.=56.025753, lon.=26.675488, Alt.=118.241272m. Speed=16.056000m/h.</desc>
<speed>4.460000</speed>
</trkpt>
<trkpt lat="56.025715" lon="26.675514">
<ele>118.274475</ele>
<time>2010-06-20T12:50:37Z</time>
<desc>lat.=56.025715, lon.=26.675514, Alt.=118.274475m. Speed=15.876000m/h.</desc>
<speed>4.410000</speed>
</trkpt>
<trkpt lat="56.025677" lon="26.675549">
<ele>118.323303</ele>
<time>2010-06-20T12:50:38Z</time>
<desc>lat.=56.025677, lon.=26.675549, Alt.=118.323303m. Speed=16.596001m/h.</desc>
<speed>4.610000</speed>
</trkpt>
<trkpt lat="56.025639" lon="26.675585">
<ele>118.417053</ele>
<time>2010-06-20T12:50:39Z</time>
<desc>lat.=56.025639, lon.=26.675585, Alt.=118.417053m. Speed=17.280001m/h.</desc>
<speed>4.800000</speed>
</trkpt>
<trkpt lat="56.025600" lon="26.675621">
<ele>118.409241</ele>
<time>2010-06-20T12:50:40Z</time>
<desc>lat.=56.025600, lon.=26.675621, Alt.=118.409241m. Speed=16.416000m/h.</desc>
<speed>4.560000</speed>
</trkpt>
<trkpt lat="56.025562" lon="26.675657">
<ele>118.647522</ele>
<time>2010-06-20T12:50:41Z</time>
<desc>lat.=56.025562, lon.=26.675657, Alt.=118.647522m. Speed=15.912000m/h.</desc>
<speed>4.420000</speed>
</trkpt>
<trkpt lat="56.025528" lon="26.675692">
<ele>118.690491</ele>
<time>2010-06-20T12:50:42Z</time>
<desc>lat.=56.025528, lon.=26.675692, Alt.=118.690491m. Speed=15.552000m/h.</desc>
<speed>4.320000</speed>
</trkpt>
<trkpt lat="56.025494" lon="26.675724">
<ele>118.645569</ele>
<time>2010-06-20T12:50:43Z</time>
<desc>lat.=56.025494, lon.=26.675724, Alt.=118.645569m. Speed=15.408000m/h.</desc>
<speed>4.280000</speed>
</trkpt>
<trkpt lat="56.025455" lon="26.675755">
<ele>118.667053</ele>
<time>2010-06-20T12:50:44Z</time>
<desc>lat.=56.025455, lon.=26.675755, Alt.=118.667053m. Speed=16.091999m/h.</desc>
<speed>4.470000</speed>
</trkpt>
<trkpt lat="56.025417" lon="26.675783">
<ele>118.672913</ele>
<time>2010-06-20T12:50:45Z</time>
<desc>lat.=56.025417, lon.=26.675783, Alt.=118.672913m. Speed=16.344000m/h.</desc>
<speed>4.540000</speed>
</trkpt>
<trkpt lat="56.025379" lon="26.675816">
<ele>118.641663</ele>
<time>2010-06-20T12:50:46Z</time>
<desc>lat.=56.025379, lon.=26.675816, Alt.=118.641663m. Speed=15.984000m/h.</desc>
<speed>4.440000</speed>
</trkpt>
<trkpt lat="56.025345" lon="26.675852">
<ele>118.602600</ele>
<time>2010-06-20T12:50:47Z</time>
<desc>lat.=56.025345, lon.=26.675852, Alt.=118.602600m. Speed=15.984000m/h.</desc>
<speed>4.440000</speed>
</trkpt>
<trkpt lat="56.025314" lon="26.675882">
<ele>118.592834</ele>
<time>2010-06-20T12:50:48Z</time>
<desc>lat.=56.025314, lon.=26.675882, Alt.=118.592834m. Speed=15.408000m/h.</desc>
<speed>4.280000</speed>
</trkpt>
<trkpt lat="56.025276" lon="26.675913">
<ele>118.608459</ele>
<time>2010-06-20T12:50:49Z</time>
<desc>lat.=56.025276, lon.=26.675913, Alt.=118.608459m. Speed=15.264000m/h.</desc>
<speed>4.240000</speed>
</trkpt>
<trkpt lat="56.025242" lon="26.675940">
<ele>118.225647</ele>
<time>2010-06-20T12:50:50Z</time>
<desc>lat.=56.025242, lon.=26.675940, Alt.=118.225647m. Speed=16.056000m/h.</desc>
<speed>4.460000</speed>
</trkpt>
<trkpt lat="56.025208" lon="26.675976">
<ele>118.479553</ele>
<time>2010-06-20T12:50:51Z</time>
<desc>lat.=56.025208, lon.=26.675976, Alt.=118.479553m. Speed=16.740000m/h.</desc>
<speed>4.650000</speed>
</trkpt>
<trkpt lat="56.025169" lon="26.676010">
<ele>118.321350</ele>
<time>2010-06-20T12:50:52Z</time>
<desc>lat.=56.025169, lon.=26.676010, Alt.=118.321350m. Speed=16.416000m/h.</desc>
<speed>4.560000</speed>
</trkpt>
<trkpt lat="56.025131" lon="26.676043">
<ele>118.411194</ele>
<time>2010-06-20T12:50:53Z</time>
<desc>lat.=56.025131, lon.=26.676043, Alt.=118.411194m. Speed=15.984000m/h.</desc>
<speed>4.440000</speed>
</trkpt>
<trkpt lat="56.025093" lon="26.676067">
<ele>118.436584</ele>
<time>2010-06-20T12:50:54Z</time>
<desc>lat.=56.025093, lon.=26.676067, Alt.=118.436584m. Speed=15.984000m/h.</desc>
<speed>4.440000</speed>
</trkpt>
<trkpt lat="56.025055" lon="26.676094">
<ele>118.385803</ele>
<time>2010-06-20T12:50:55Z</time>
<desc>lat.=56.025055, lon.=26.676094, Alt.=118.385803m. Speed=16.091999m/h.</desc>
<speed>4.470000</speed>
</trkpt>
<trkpt lat="56.025021" lon="26.676121">
<ele>118.350647</ele>
<time>2010-06-20T12:50:56Z</time>
<desc>lat.=56.025021, lon.=26.676121, Alt.=118.350647m. Speed=15.696000m/h.</desc>
<speed>4.360000</speed>
</trkpt>
<trkpt lat="56.024982" lon="26.676146">
<ele>118.403381</ele>
<time>2010-06-20T12:50:57Z</time>
<desc>lat.=56.024982, lon.=26.676146, Alt.=118.403381m. Speed=15.552000m/h.</desc>
<speed>4.320000</speed>
</trkpt>
<trkpt lat="56.024948" lon="26.676165">
<ele>118.413147</ele>
<time>2010-06-20T12:50:58Z</time>
<desc>lat.=56.024948, lon.=26.676165, Alt.=118.413147m. Speed=15.264000m/h.</desc>
<speed>4.240000</speed>
</trkpt>
<trkpt lat="56.024918" lon="26.676197">
<ele>118.838928</ele>
<time>2010-06-20T12:50:59Z</time>
<desc>lat.=56.024918, lon.=26.676197, Alt.=118.838928m. Speed=15.876000m/h.</desc>
<speed>4.410000</speed>
</trkpt>
<trkpt lat="56.024879" lon="26.676226">
<ele>118.915100</ele>
<time>2010-06-20T12:51:00Z</time>
<desc>lat.=56.024879, lon.=26.676226, Alt.=118.915100m. Speed=16.091999m/h.</desc>
<speed>4.470000</speed>
</trkpt>
<trkpt lat="56.024845" lon="26.676250">
<ele>118.919006</ele>
<time>2010-06-20T12:51:01Z</time>
<desc>lat.=56.024845, lon.=26.676250, Alt.=118.919006m. Speed=15.696000m/h.</desc>
<speed>4.360000</speed>
</trkpt>
<trkpt lat="56.024807" lon="26.676277">
<ele>119.169006</ele>
<time>2010-06-20T12:51:02Z</time>
<desc>lat.=56.024807, lon.=26.676277, Alt.=119.169006m. Speed=16.271999m/h.</desc>
<speed>4.520000</speed>
</trkpt>
<trkpt lat="56.024769" lon="26.676306">
<ele>119.208069</ele>
<time>2010-06-20T12:51:03Z</time>
<desc>lat.=56.024769, lon.=26.676306, Alt.=119.208069m. Speed=15.804000m/h.</desc>
<speed>4.390000</speed>
</trkpt>
<trkpt lat="56.024734" lon="26.676332">
<ele>119.598694</ele>
<time>2010-06-20T12:51:04Z</time>
<desc>lat.=56.024734, lon.=26.676332, Alt.=119.598694m. Speed=15.840000m/h.</desc>
<speed>4.400000</speed>
</trkpt>
<trkpt lat="56.024696" lon="26.676359">
<ele>119.485413</ele>
<time>2010-06-20T12:51:05Z</time>
<desc>lat.=56.024696, lon.=26.676359, Alt.=119.485413m. Speed=16.632000m/h.</desc>
<speed>4.620000</speed>
</trkpt>
<trkpt lat="56.024658" lon="26.676386">
<ele>119.352600</ele>
<time>2010-06-20T12:51:06Z</time>
<desc>lat.=56.024658, lon.=26.676386, Alt.=119.352600m. Speed=17.747999m/h.</desc>
<speed>4.930000</speed>
</trkpt>
<trkpt lat="56.024616" lon="26.676413">
<ele>119.217834</ele>
<time>2010-06-20T12:51:07Z</time>
<desc>lat.=56.024616, lon.=26.676413, Alt.=119.217834m. Speed=17.243999m/h.</desc>
<speed>4.790000</speed>
</trkpt>
<trkpt lat="56.024574" lon="26.676435">
<ele>119.073303</ele>
<time>2010-06-20T12:51:08Z</time>
<desc>lat.=56.024574, lon.=26.676435, Alt.=119.073303m. Speed=16.596001m/h.</desc>
<speed>4.610000</speed>
</trkpt>
<trkpt lat="56.024532" lon="26.676456">
<ele>118.856506</ele>
<time>2010-06-20T12:51:09Z</time>
<desc>lat.=56.024532, lon.=26.676456, Alt.=118.856506m. Speed=16.379999m/h.</desc>
<speed>4.550000</speed>
</trkpt>
<trkpt lat="56.024490" lon="26.676476">
<ele>118.838928</ele>
<time>2010-06-20T12:51:10Z</time>
<desc>lat.=56.024490, lon.=26.676476, Alt.=118.838928m. Speed=16.056000m/h.</desc>
<speed>4.460000</speed>
</trkpt>
<trkpt lat="56.024452" lon="26.676495">
<ele>119.061584</ele>
<time>2010-06-20T12:51:11Z</time>
<desc>lat.=56.024452, lon.=26.676495, Alt.=119.061584m. Speed=16.020000m/h.</desc>
<speed>4.450000</speed>
</trkpt>
<trkpt lat="56.024410" lon="26.676506">
<ele>119.170959</ele>
<time>2010-06-20T12:51:12Z</time>
<desc>lat.=56.024410, lon.=26.676506, Alt.=119.170959m. Speed=16.920000m/h.</desc>
<speed>4.700000</speed>
</trkpt>
<trkpt lat="56.024368" lon="26.676523">
<ele>119.274475</ele>
<time>2010-06-20T12:51:13Z</time>
<desc>lat.=56.024368, lon.=26.676523, Alt.=119.274475m. Speed=16.704000m/h.</desc>
<speed>4.640000</speed>
</trkpt>
<trkpt lat="56.024326" lon="26.676538">
<ele>119.370178</ele>
<time>2010-06-20T12:51:14Z</time>
<desc>lat.=56.024326, lon.=26.676538, Alt.=119.370178m. Speed=15.984000m/h.</desc>
<speed>4.440000</speed>
</trkpt>
<trkpt lat="56.024292" lon="26.676552">
<ele>119.528381</ele>
<time>2010-06-20T12:51:15Z</time>
<desc>lat.=56.024292, lon.=26.676552, Alt.=119.528381m. Speed=15.012000m/h.</desc>
<speed>4.170000</speed>
</trkpt>
<trkpt lat="56.024254" lon="26.676559">
<ele>118.963928</ele>
<time>2010-06-20T12:51:16Z</time>
<desc>lat.=56.024254, lon.=26.676559, Alt.=118.963928m. Speed=14.328000m/h.</desc>
<speed>3.980000</speed>
</trkpt>
<trkpt lat="56.024216" lon="26.676573">
<ele>118.895569</ele>
<time>2010-06-20T12:51:17Z</time>
<desc>lat.=56.024216, lon.=26.676573, Alt.=118.895569m. Speed=15.444000m/h.</desc>
<speed>4.290000</speed>
</trkpt>
<trkpt lat="56.024181" lon="26.676588">
<ele>118.879944</ele>
<time>2010-06-20T12:51:18Z</time>
<desc>lat.=56.024181, lon.=26.676588, Alt.=118.879944m. Speed=15.408000m/h.</desc>
<speed>4.280000</speed>
</trkpt>
<trkpt lat="56.024139" lon="26.676600">
<ele>118.938538</ele>
<time>2010-06-20T12:51:19Z</time>
<desc>lat.=56.024139, lon.=26.676600, Alt.=118.938538m. Speed=16.236000m/h.</desc>
<speed>4.510000</speed>
</trkpt>
<trkpt lat="56.024101" lon="26.676607">
<ele>118.967834</ele>
<time>2010-06-20T12:51:20Z</time>
<desc>lat.=56.024101, lon.=26.676607, Alt.=118.967834m. Speed=16.632000m/h.</desc>
<speed>4.620000</speed>
</trkpt>
<trkpt lat="56.024059" lon="26.676617">
<ele>119.149475</ele>
<time>2010-06-20T12:51:21Z</time>
<desc>lat.=56.024059, lon.=26.676617, Alt.=119.149475m. Speed=17.568001m/h.</desc>
<speed>4.880000</speed>
</trkpt>
<trkpt lat="56.024017" lon="26.676628">
<ele>119.227600</ele>
<time>2010-06-20T12:51:22Z</time>
<desc>lat.=56.024017, lon.=26.676628, Alt.=119.227600m. Speed=17.280001m/h.</desc>
<speed>4.800000</speed>
</trkpt>
<trkpt lat="56.023975" lon="26.676640">
<ele>119.208069</ele>
<time>2010-06-20T12:51:23Z</time>
<desc>lat.=56.023975, lon.=26.676640, Alt.=119.208069m. Speed=16.632000m/h.</desc>
<speed>4.620000</speed>
</trkpt>
<trkpt lat="56.023937" lon="26.676647">
<ele>119.147522</ele>
<time>2010-06-20T12:51:24Z</time>
<desc>lat.=56.023937, lon.=26.676647, Alt.=119.147522m. Speed=15.984000m/h.</desc>
<speed>4.440000</speed>
</trkpt>
<trkpt lat="56.023895" lon="26.676653">
<ele>119.184631</ele>
<time>2010-06-20T12:51:25Z</time>
<desc>lat.=56.023895, lon.=26.676653, Alt.=119.184631m. Speed=15.480000m/h.</desc>
<speed>4.300000</speed>
</trkpt>
<trkpt lat="56.023857" lon="26.676661">
<ele>119.077209</ele>
<time>2010-06-20T12:51:26Z</time>
<desc>lat.=56.023857, lon.=26.676661, Alt.=119.077209m. Speed=16.559999m/h.</desc>
<speed>4.600000</speed>
</trkpt>
<trkpt lat="56.023815" lon="26.676662">
<ele>118.967834</ele>
<time>2010-06-20T12:51:27Z</time>
<desc>lat.=56.023815, lon.=26.676662, Alt.=118.967834m. Speed=16.236000m/h.</desc>
<speed>4.510000</speed>
</trkpt>
<trkpt lat="56.023773" lon="26.676662">
<ele>118.913147</ele>
<time>2010-06-20T12:51:28Z</time>
<desc>lat.=56.023773, lon.=26.676662, Alt.=118.913147m. Speed=15.336000m/h.</desc>
<speed>4.260000</speed>
</trkpt>
<trkpt lat="56.023735" lon="26.676661">
<ele>118.885803</ele>
<time>2010-06-20T12:51:29Z</time>
<desc>lat.=56.023735, lon.=26.676661, Alt.=118.885803m. Speed=15.336000m/h.</desc>
<speed>4.260000</speed>
</trkpt>
<trkpt lat="56.023697" lon="26.676662">
<ele>118.743225</ele>
<time>2010-06-20T12:51:30Z</time>
<desc>lat.=56.023697, lon.=26.676662, Alt.=118.743225m. Speed=14.940000m/h.</desc>
<speed>4.150000</speed>
</trkpt>
<trkpt lat="56.023659" lon="26.676666">
<ele>118.639709</ele>
<time>2010-06-20T12:51:31Z</time>
<desc>lat.=56.023659, lon.=26.676666, Alt.=118.639709m. Speed=14.760000m/h.</desc>
<speed>4.100000</speed>
</trkpt>
<trkpt lat="56.023621" lon="26.676670">
<ele>118.422913</ele>
<time>2010-06-20T12:51:32Z</time>
<desc>lat.=56.023621, lon.=26.676670, Alt.=118.422913m. Speed=14.040000m/h.</desc>
<speed>3.900000</speed>
</trkpt>
<trkpt lat="56.023586" lon="26.676670">
<ele>118.147522</ele>
<time>2010-06-20T12:51:33Z</time>
<desc>lat.=56.023586, lon.=26.676670, Alt.=118.147522m. Speed=13.752000m/h.</desc>
<speed>3.820000</speed>
</trkpt>
<trkpt lat="56.023548" lon="26.676680">
<ele>118.202209</ele>
<time>2010-06-20T12:51:34Z</time>
<desc>lat.=56.023548, lon.=26.676680, Alt.=118.202209m. Speed=14.724000m/h.</desc>
<speed>4.090000</speed>
</trkpt>
<trkpt lat="56.023514" lon="26.676689">
<ele>118.065491</ele>
<time>2010-06-20T12:51:35Z</time>
<desc>lat.=56.023514, lon.=26.676689, Alt.=118.065491m. Speed=15.480000m/h.</desc>
<speed>4.300000</speed>
</trkpt>
<trkpt lat="56.023476" lon="26.676693">
<ele>117.161194</ele>
<time>2010-06-20T12:51:36Z</time>
<desc>lat.=56.023476, lon.=26.676693, Alt.=117.161194m. Speed=14.760000m/h.</desc>
<speed>4.100000</speed>
</trkpt>
<trkpt lat="56.023434" lon="26.676712">
<ele>117.616272</ele>
<time>2010-06-20T12:51:37Z</time>
<desc>lat.=56.023434, lon.=26.676712, Alt.=117.616272m. Speed=16.091999m/h.</desc>
<speed>4.470000</speed>
</trkpt>
<trkpt lat="56.023399" lon="26.676723">
<ele>118.159241</ele>
<time>2010-06-20T12:51:38Z</time>
<desc>lat.=56.023399, lon.=26.676723, Alt.=118.159241m. Speed=15.948000m/h.</desc>
<speed>4.430000</speed>
</trkpt>
<trkpt lat="56.023357" lon="26.676725">
<ele>118.022522</ele>
<time>2010-06-20T12:51:39Z</time>
<desc>lat.=56.023357, lon.=26.676725, Alt.=118.022522m. Speed=15.372000m/h.</desc>
<speed>4.270000</speed>
</trkpt>
<trkpt lat="56.023315" lon="26.676731">
<ele>118.096741</ele>
<time>2010-06-20T12:51:40Z</time>
<desc>lat.=56.023315, lon.=26.676731, Alt.=118.096741m. Speed=15.372000m/h.</desc>
<speed>4.270000</speed>
</trkpt>
<trkpt lat="56.023281" lon="26.676743">
<ele>118.122131</ele>
<time>2010-06-20T12:51:41Z</time>
<desc>lat.=56.023281, lon.=26.676743, Alt.=118.122131m. Speed=15.264000m/h.</desc>
<speed>4.240000</speed>
</trkpt>
<trkpt lat="56.023243" lon="26.676754">
<ele>118.280334</ele>
<time>2010-06-20T12:51:42Z</time>
<desc>lat.=56.023243, lon.=26.676754, Alt.=118.280334m. Speed=15.012000m/h.</desc>
<speed>4.170000</speed>
</trkpt>
<trkpt lat="56.023209" lon="26.676767">
<ele>118.674866</ele>
<time>2010-06-20T12:51:43Z</time>
<desc>lat.=56.023209, lon.=26.676767, Alt.=118.674866m. Speed=14.436000m/h.</desc>
<speed>4.010000</speed>
</trkpt>
<trkpt lat="56.023174" lon="26.676777">
<ele>119.030334</ele>
<time>2010-06-20T12:51:44Z</time>
<desc>lat.=56.023174, lon.=26.676777, Alt.=119.030334m. Speed=14.904000m/h.</desc>
<speed>4.140000</speed>
</trkpt>
<trkpt lat="56.023140" lon="26.676783">
<ele>119.213928</ele>
<time>2010-06-20T12:51:45Z</time>
<desc>lat.=56.023140, lon.=26.676783, Alt.=119.213928m. Speed=11.592000m/h.</desc>
<speed>3.220000</speed>
</trkpt>
<trkpt lat="56.023109" lon="26.676794">
<ele>119.555725</ele>
<time>2010-06-20T12:51:46Z</time>
<desc>lat.=56.023109, lon.=26.676794, Alt.=119.555725m. Speed=12.456000m/h.</desc>
<speed>3.460000</speed>
</trkpt>
<trkpt lat="56.023079" lon="26.676804">
<ele>120.247131</ele>
<time>2010-06-20T12:51:47Z</time>
<desc>lat.=56.023079, lon.=26.676804, Alt.=120.247131m. Speed=13.032000m/h.</desc>
<speed>3.620000</speed>
</trkpt>
<trkpt lat="56.023045" lon="26.676819">
<ele>120.461975</ele>
<time>2010-06-20T12:51:48Z</time>
<desc>lat.=56.023045, lon.=26.676819, Alt.=120.461975m. Speed=13.824000m/h.</desc>
<speed>3.840000</speed>
</trkpt>
<trkpt lat="56.023010" lon="26.676832">
<ele>120.651428</ele>
<time>2010-06-20T12:51:49Z</time>
<desc>lat.=56.023010, lon.=26.676832, Alt.=120.651428m. Speed=14.616000m/h.</desc>
<speed>4.060000</speed>
</trkpt>
<trkpt lat="56.022972" lon="26.676844">
<ele>120.850647</ele>
<time>2010-06-20T12:51:50Z</time>
<desc>lat.=56.022972, lon.=26.676844, Alt.=120.850647m. Speed=15.120000m/h.</desc>
<speed>4.200000</speed>
</trkpt>
<trkpt lat="56.022934" lon="26.676859">
<ele>121.022522</ele>
<time>2010-06-20T12:51:51Z</time>
<desc>lat.=56.022934, lon.=26.676859, Alt.=121.022522m. Speed=15.192000m/h.</desc>
<speed>4.220000</speed>
</trkpt>
<trkpt lat="56.022892" lon="26.676865">
<ele>120.917053</ele>
<time>2010-06-20T12:51:52Z</time>
<desc>lat.=56.022892, lon.=26.676865, Alt.=120.917053m. Speed=15.948000m/h.</desc>
<speed>4.430000</speed>
</trkpt>
<trkpt lat="56.022850" lon="26.676874">
<ele>120.672913</ele>
<time>2010-06-20T12:51:53Z</time>
<desc>lat.=56.022850, lon.=26.676874, Alt.=120.672913m. Speed=15.984000m/h.</desc>
<speed>4.440000</speed>
</trkpt>
<trkpt lat="56.022808" lon="26.676870">
<ele>120.948303</ele>
<time>2010-06-20T12:51:54Z</time>
<desc>lat.=56.022808, lon.=26.676870, Alt.=120.948303m. Speed=15.876000m/h.</desc>
<speed>4.410000</speed>
</trkpt>
<trkpt lat="56.022762" lon="26.676878">
<ele>121.182678</ele>
<time>2010-06-20T12:51:55Z</time>
<desc>lat.=56.022762, lon.=26.676878, Alt.=121.182678m. Speed=17.100000m/h.</desc>
<speed>4.750000</speed>
</trkpt>
<trkpt lat="56.022724" lon="26.676888">
<ele>121.889709</ele>
<time>2010-06-20T12:51:56Z</time>
<desc>lat.=56.022724, lon.=26.676888, Alt.=121.889709m. Speed=15.660000m/h.</desc>
<speed>4.350000</speed>
</trkpt>
<trkpt lat="56.022686" lon="26.676905">
<ele>122.208069</ele>
<time>2010-06-20T12:51:57Z</time>
<desc>lat.=56.022686, lon.=26.676905, Alt.=122.208069m. Speed=14.832000m/h.</desc>
<speed>4.120000</speed>
</trkpt>
<trkpt lat="56.022640" lon="26.676910">
<ele>121.661194</ele>
<time>2010-06-20T12:51:58Z</time>
<desc>lat.=56.022640, lon.=26.676910, Alt.=121.661194m. Speed=15.732000m/h.</desc>
<speed>4.370000</speed>
</trkpt>
<trkpt lat="56.022598" lon="26.676920">
<ele>121.702209</ele>
<time>2010-06-20T12:51:59Z</time>
<desc>lat.=56.022598, lon.=26.676920, Alt.=121.702209m. Speed=16.812000m/h.</desc>
<speed>4.670000</speed>
</trkpt>
<trkpt lat="56.022556" lon="26.676928">
<ele>121.836975</ele>
<time>2010-06-20T12:52:00Z</time>
<desc>lat.=56.022556, lon.=26.676928, Alt.=121.836975m. Speed=17.243999m/h.</desc>
<speed>4.790000</speed>
</trkpt>
<trkpt lat="56.022511" lon="26.676939">
<ele>122.047913</ele>
<time>2010-06-20T12:52:01Z</time>
<desc>lat.=56.022511, lon.=26.676939, Alt.=122.047913m. Speed=16.416000m/h.</desc>
<speed>4.560000</speed>
</trkpt>
<trkpt lat="56.022469" lon="26.676945">
<ele>122.022522</ele>
<time>2010-06-20T12:52:02Z</time>
<desc>lat.=56.022469, lon.=26.676945, Alt.=122.022522m. Speed=16.236000m/h.</desc>
<speed>4.510000</speed>
</trkpt>
<trkpt lat="56.022427" lon="26.676952">
<ele>122.057678</ele>
<time>2010-06-20T12:52:03Z</time>
<desc>lat.=56.022427, lon.=26.676952, Alt.=122.057678m. Speed=15.876000m/h.</desc>
<speed>4.410000</speed>
</trkpt>
<trkpt lat="56.022388" lon="26.676960">
<ele>123.331116</ele>
<time>2010-06-20T12:52:04Z</time>
<desc>lat.=56.022388, lon.=26.676960, Alt.=123.331116m. Speed=16.236000m/h.</desc>
<speed>4.510000</speed>
</trkpt>
<trkpt lat="56.022343" lon="26.676968">
<ele>123.922913</ele>
<time>2010-06-20T12:52:05Z</time>
<desc>lat.=56.022343, lon.=26.676968, Alt.=123.922913m. Speed=16.992001m/h.</desc>
<speed>4.720000</speed>
</trkpt>
<trkpt lat="56.022301" lon="26.676973">
<ele>124.254944</ele>
<time>2010-06-20T12:52:06Z</time>
<desc>lat.=56.022301, lon.=26.676973, Alt.=124.254944m. Speed=16.379999m/h.</desc>
<speed>4.550000</speed>
</trkpt>
<trkpt lat="56.022259" lon="26.676983">
<ele>124.362366</ele>
<time>2010-06-20T12:52:07Z</time>
<desc>lat.=56.022259, lon.=26.676983, Alt.=124.362366m. Speed=17.100000m/h.</desc>
<speed>4.750000</speed>
</trkpt>
<trkpt lat="56.022217" lon="26.676991">
<ele>124.438538</ele>
<time>2010-06-20T12:52:08Z</time>
<desc>lat.=56.022217, lon.=26.676991, Alt.=124.438538m. Speed=17.172001m/h.</desc>
<speed>4.770000</speed>
</trkpt>
<trkpt lat="56.022171" lon="26.676989">
<ele>124.647522</ele>
<time>2010-06-20T12:52:09Z</time>
<desc>lat.=56.022171, lon.=26.676989, Alt.=124.647522m. Speed=17.676001m/h.</desc>
<speed>4.910000</speed>
</trkpt>
<trkpt lat="56.022125" lon="26.676983">
<ele>123.686584</ele>
<time>2010-06-20T12:52:10Z</time>
<desc>lat.=56.022125, lon.=26.676983, Alt.=123.686584m. Speed=17.136000m/h.</desc>
<speed>4.760000</speed>
</trkpt>
<trkpt lat="56.022083" lon="26.676981">
<ele>123.665100</ele>
<time>2010-06-20T12:52:11Z</time>
<desc>lat.=56.022083, lon.=26.676981, Alt.=123.665100m. Speed=17.316000m/h.</desc>
<speed>4.810000</speed>
</trkpt>
<trkpt lat="56.022038" lon="26.676977">
<ele>123.440491</ele>
<time>2010-06-20T12:52:12Z</time>
<desc>lat.=56.022038, lon.=26.676977, Alt.=123.440491m. Speed=17.100000m/h.</desc>
<speed>4.750000</speed>
</trkpt>
<trkpt lat="56.021996" lon="26.676973">
<ele>123.202209</ele>
<time>2010-06-20T12:52:13Z</time>
<desc>lat.=56.021996, lon.=26.676973, Alt.=123.202209m. Speed=16.596001m/h.</desc>
<speed>4.610000</speed>
</trkpt>
<trkpt lat="56.021954" lon="26.676966">
<ele>123.323303</ele>
<time>2010-06-20T12:52:14Z</time>
<desc>lat.=56.021954, lon.=26.676966, Alt.=123.323303m. Speed=16.200001m/h.</desc>
<speed>4.500000</speed>
</trkpt>
<trkpt lat="56.021915" lon="26.676962">
<ele>123.169006</ele>
<time>2010-06-20T12:52:15Z</time>
<desc>lat.=56.021915, lon.=26.676962, Alt.=123.169006m. Speed=16.200001m/h.</desc>
<speed>4.500000</speed>
</trkpt>
<trkpt lat="56.021877" lon="26.676954">
<ele>123.036194</ele>
<time>2010-06-20T12:52:16Z</time>
<desc>lat.=56.021877, lon.=26.676954, Alt.=123.036194m. Speed=16.236000m/h.</desc>
<speed>4.510000</speed>
</trkpt>
<trkpt lat="56.021835" lon="26.676943">
<ele>122.958069</ele>
<time>2010-06-20T12:52:17Z</time>
<desc>lat.=56.021835, lon.=26.676943, Alt.=122.958069m. Speed=15.948000m/h.</desc>
<speed>4.430000</speed>
</trkpt>
<trkpt lat="56.021793" lon="26.676929">
<ele>122.858459</ele>
<time>2010-06-20T12:52:18Z</time>
<desc>lat.=56.021793, lon.=26.676929, Alt.=122.858459m. Speed=15.840000m/h.</desc>
<speed>4.400000</speed>
</trkpt>
<trkpt lat="56.021751" lon="26.676914">
<ele>122.776428</ele>
<time>2010-06-20T12:52:19Z</time>
<desc>lat.=56.021751, lon.=26.676914, Alt.=122.776428m. Speed=15.732000m/h.</desc>
<speed>4.370000</speed>
</trkpt>
<trkpt lat="56.021713" lon="26.676893">
<ele>122.631897</ele>
<time>2010-06-20T12:52:20Z</time>
<desc>lat.=56.021713, lon.=26.676893, Alt.=122.631897m. Speed=15.876000m/h.</desc>
<speed>4.410000</speed>
</trkpt>
<trkpt lat="56.021675" lon="26.676870">
<ele>122.463928</ele>
<time>2010-06-20T12:52:21Z</time>
<desc>lat.=56.021675, lon.=26.676870, Alt.=122.463928m. Speed=16.128000m/h.</desc>
<speed>4.480000</speed>
</trkpt>
<trkpt lat="56.021633" lon="26.676853">
<ele>122.458069</ele>
<time>2010-06-20T12:52:22Z</time>
<desc>lat.=56.021633, lon.=26.676853, Alt.=122.458069m. Speed=15.912000m/h.</desc>
<speed>4.420000</speed>
</trkpt>
<trkpt lat="56.021591" lon="26.676830">
<ele>122.387756</ele>
<time>2010-06-20T12:52:23Z</time>
<desc>lat.=56.021591, lon.=26.676830, Alt.=122.387756m. Speed=15.912000m/h.</desc>
<speed>4.420000</speed>
</trkpt>
<trkpt lat="56.021553" lon="26.676809">
<ele>122.426819</ele>
<time>2010-06-20T12:52:24Z</time>
<desc>lat.=56.021553, lon.=26.676809, Alt.=122.426819m. Speed=16.200001m/h.</desc>
<speed>4.500000</speed>
</trkpt>
<trkpt lat="56.021515" lon="26.676786">
<ele>122.297913</ele>
<time>2010-06-20T12:52:25Z</time>
<desc>lat.=56.021515, lon.=26.676786, Alt.=122.297913m. Speed=16.920000m/h.</desc>
<speed>4.700000</speed>
</trkpt>
<trkpt lat="56.021477" lon="26.676758">
<ele>122.200256</ele>
<time>2010-06-20T12:52:26Z</time>
<desc>lat.=56.021477, lon.=26.676758, Alt.=122.200256m. Speed=16.992001m/h.</desc>
<speed>4.720000</speed>
</trkpt>
<trkpt lat="56.021435" lon="26.676731">
<ele>122.225647</ele>
<time>2010-06-20T12:52:27Z</time>
<desc>lat.=56.021435, lon.=26.676731, Alt.=122.225647m. Speed=16.667999m/h.</desc>
<speed>4.630000</speed>
</trkpt>
<trkpt lat="56.021397" lon="26.676701">
<ele>122.211975</ele>
<time>2010-06-20T12:52:28Z</time>
<desc>lat.=56.021397, lon.=26.676701, Alt.=122.211975m. Speed=16.632000m/h.</desc>
<speed>4.620000</speed>
</trkpt>
<trkpt lat="56.021355" lon="26.676670">
<ele>122.227600</ele>
<time>2010-06-20T12:52:29Z</time>
<desc>lat.=56.021355, lon.=26.676670, Alt.=122.227600m. Speed=16.632000m/h.</desc>
<speed>4.620000</speed>
</trkpt>
<trkpt lat="56.021317" lon="26.676641">
<ele>122.167053</ele>
<time>2010-06-20T12:52:30Z</time>
<desc>lat.=56.021317, lon.=26.676641, Alt.=122.167053m. Speed=16.884001m/h.</desc>
<speed>4.690000</speed>
</trkpt>
<trkpt lat="56.021278" lon="26.676607">
<ele>122.157288</ele>
<time>2010-06-20T12:52:31Z</time>
<desc>lat.=56.021278, lon.=26.676607, Alt.=122.157288m. Speed=17.459999m/h.</desc>
<speed>4.850000</speed>
</trkpt>
<trkpt lat="56.021240" lon="26.676575">
<ele>122.127991</ele>
<time>2010-06-20T12:52:32Z</time>
<desc>lat.=56.021240, lon.=26.676575, Alt.=122.127991m. Speed=17.604000m/h.</desc>
<speed>4.890000</speed>
</trkpt>
<trkpt lat="56.021202" lon="26.676542">
<ele>121.963928</ele>
<time>2010-06-20T12:52:33Z</time>
<desc>lat.=56.021202, lon.=26.676542, Alt.=121.963928m. Speed=17.243999m/h.</desc>
<speed>4.790000</speed>
</trkpt>
<trkpt lat="56.021164" lon="26.676512">
<ele>121.897522</ele>
<time>2010-06-20T12:52:34Z</time>
<desc>lat.=56.021164, lon.=26.676512, Alt.=121.897522m. Speed=16.740000m/h.</desc>
<speed>4.650000</speed>
</trkpt>
<trkpt lat="56.021126" lon="26.676485">
<ele>121.825256</ele>
<time>2010-06-20T12:52:35Z</time>
<desc>lat.=56.021126, lon.=26.676485, Alt.=121.825256m. Speed=16.020000m/h.</desc>
<speed>4.450000</speed>
</trkpt>
<trkpt lat="56.021088" lon="26.676458">
<ele>121.825256</ele>
<time>2010-06-20T12:52:36Z</time>
<desc>lat.=56.021088, lon.=26.676458, Alt.=121.825256m. Speed=16.632000m/h.</desc>
<speed>4.620000</speed>
</trkpt>
<trkpt lat="56.021049" lon="26.676434">
<ele>121.616272</ele>
<time>2010-06-20T12:52:37Z</time>
<desc>lat.=56.021049, lon.=26.676434, Alt.=121.616272m. Speed=16.452000m/h.</desc>
<speed>4.570000</speed>
</trkpt>
<trkpt lat="56.021008" lon="26.676399">
<ele>121.499084</ele>
<time>2010-06-20T12:52:38Z</time>
<desc>lat.=56.021008, lon.=26.676399, Alt.=121.499084m. Speed=16.524000m/h.</desc>
<speed>4.590000</speed>
</trkpt>
<trkpt lat="56.020969" lon="26.676373">
<ele>121.440491</ele>
<time>2010-06-20T12:52:39Z</time>
<desc>lat.=56.020969, lon.=26.676373, Alt.=121.440491m. Speed=16.344000m/h.</desc>
<speed>4.540000</speed>
</trkpt>
<trkpt lat="56.020931" lon="26.676350">
<ele>121.321350</ele>
<time>2010-06-20T12:52:40Z</time>
<desc>lat.=56.020931, lon.=26.676350, Alt.=121.321350m. Speed=16.236000m/h.</desc>
<speed>4.510000</speed>
</trkpt>
<trkpt lat="56.020897" lon="26.676319">
<ele>121.178772</ele>
<time>2010-06-20T12:52:41Z</time>
<desc>lat.=56.020897, lon.=26.676319, Alt.=121.178772m. Speed=16.308001m/h.</desc>
<speed>4.530000</speed>
</trkpt>
<trkpt lat="56.020859" lon="26.676285">
<ele>120.936584</ele>
<time>2010-06-20T12:52:42Z</time>
<desc>lat.=56.020859, lon.=26.676285, Alt.=120.936584m. Speed=16.164000m/h.</desc>
<speed>4.490000</speed>
</trkpt>
<trkpt lat="56.020824" lon="26.676249">
<ele>120.835022</ele>
<time>2010-06-20T12:52:43Z</time>
<desc>lat.=56.020824, lon.=26.676249, Alt.=120.835022m. Speed=16.020000m/h.</desc>
<speed>4.450000</speed>
</trkpt>
<trkpt lat="56.020790" lon="26.676212">
<ele>120.727600</ele>
<time>2010-06-20T12:52:44Z</time>
<desc>lat.=56.020790, lon.=26.676212, Alt.=120.727600m. Speed=16.056000m/h.</desc>
<speed>4.460000</speed>
</trkpt>
<trkpt lat="56.020752" lon="26.676174">
<ele>120.145569</ele>
<time>2010-06-20T12:52:45Z</time>
<desc>lat.=56.020752, lon.=26.676174, Alt.=120.145569m. Speed=16.704000m/h.</desc>
<speed>4.640000</speed>
</trkpt>
<trkpt lat="56.020714" lon="26.676136">
<ele>120.085022</ele>
<time>2010-06-20T12:52:46Z</time>
<desc>lat.=56.020714, lon.=26.676136, Alt.=120.085022m. Speed=17.316000m/h.</desc>
<speed>4.810000</speed>
</trkpt>
<trkpt lat="56.020676" lon="26.676098">
<ele>119.833069</ele>
<time>2010-06-20T12:52:47Z</time>
<desc>lat.=56.020676, lon.=26.676098, Alt.=119.833069m. Speed=17.568001m/h.</desc>
<speed>4.880000</speed>
</trkpt>
<trkpt lat="56.020638" lon="26.676058">
<ele>119.493225</ele>
<time>2010-06-20T12:52:48Z</time>
<desc>lat.=56.020638, lon.=26.676058, Alt.=119.493225m. Speed=16.524000m/h.</desc>
<speed>4.590000</speed>
</trkpt>
<trkpt lat="56.020603" lon="26.676025">
<ele>119.260803</ele>
<time>2010-06-20T12:52:49Z</time>
<desc>lat.=56.020603, lon.=26.676025, Alt.=119.260803m. Speed=16.884001m/h.</desc>
<speed>4.690000</speed>
</trkpt>
<trkpt lat="56.020565" lon="26.675987">
<ele>118.993225</ele>
<time>2010-06-20T12:52:50Z</time>
<desc>lat.=56.020565, lon.=26.675987, Alt.=118.993225m. Speed=16.920000m/h.</desc>
<speed>4.700000</speed>
</trkpt>
<trkpt lat="56.020527" lon="26.675951">
<ele>118.616272</ele>
<time>2010-06-20T12:52:51Z</time>
<desc>lat.=56.020527, lon.=26.675951, Alt.=118.616272m. Speed=17.459999m/h.</desc>
<speed>4.850000</speed>
</trkpt>
<trkpt lat="56.020489" lon="26.675913">
<ele>118.436584</ele>
<time>2010-06-20T12:52:52Z</time>
<desc>lat.=56.020489, lon.=26.675913, Alt.=118.436584m. Speed=17.316000m/h.</desc>
<speed>4.810000</speed>
</trkpt>
<trkpt lat="56.020451" lon="26.675880">
<ele>118.883850</ele>
<time>2010-06-20T12:52:53Z</time>
<desc>lat.=56.020451, lon.=26.675880, Alt.=118.883850m. Speed=17.424000m/h.</desc>
<speed>4.840000</speed>
</trkpt>
<trkpt lat="56.020412" lon="26.675840">
<ele>117.920959</ele>
<time>2010-06-20T12:52:54Z</time>
<desc>lat.=56.020412, lon.=26.675840, Alt.=117.920959m. Speed=15.876000m/h.</desc>
<speed>4.410000</speed>
</trkpt>
<trkpt lat="56.020378" lon="26.675802">
<ele>117.752991</ele>
<time>2010-06-20T12:52:55Z</time>
<desc>lat.=56.020378, lon.=26.675802, Alt.=117.752991m. Speed=15.084000m/h.</desc>
<speed>4.190000</speed>
</trkpt>
<trkpt lat="56.020348" lon="26.675770">
<ele>117.983459</ele>
<time>2010-06-20T12:52:56Z</time>
<desc>lat.=56.020348, lon.=26.675770, Alt.=117.983459m. Speed=14.508000m/h.</desc>
<speed>4.030000</speed>
</trkpt>
<trkpt lat="56.020321" lon="26.675737">
<ele>119.588928</ele>
<time>2010-06-20T12:52:57Z</time>
<desc>lat.=56.020321, lon.=26.675737, Alt.=119.588928m. Speed=14.292000m/h.</desc>
<speed>3.970000</speed>
</trkpt>
<trkpt lat="56.020294" lon="26.675707">
<ele>119.268616</ele>
<time>2010-06-20T12:52:58Z</time>
<desc>lat.=56.020294, lon.=26.675707, Alt.=119.268616m. Speed=13.212000m/h.</desc>
<speed>3.670000</speed>
</trkpt>
<trkpt lat="56.020264" lon="26.675676">
<ele>119.141663</ele>
<time>2010-06-20T12:52:59Z</time>
<desc>lat.=56.020264, lon.=26.675676, Alt.=119.141663m. Speed=13.500000m/h.</desc>
<speed>3.750000</speed>
</trkpt>
<trkpt lat="56.020233" lon="26.675644">
<ele>119.047913</ele>
<time>2010-06-20T12:53:00Z</time>
<desc>lat.=56.020233, lon.=26.675644, Alt.=119.047913m. Speed=14.040000m/h.</desc>
<speed>3.900000</speed>
</trkpt>
<trkpt lat="56.020203" lon="26.675606">
<ele>117.702209</ele>
<time>2010-06-20T12:53:01Z</time>
<desc>lat.=56.020203, lon.=26.675606, Alt.=117.702209m. Speed=15.696000m/h.</desc>
<speed>4.360000</speed>
</trkpt>
<trkpt lat="56.020164" lon="26.675570">
<ele>117.063538</ele>
<time>2010-06-20T12:53:02Z</time>
<desc>lat.=56.020164, lon.=26.675570, Alt.=117.063538m. Speed=17.747999m/h.</desc>
<speed>4.930000</speed>
</trkpt>
<trkpt lat="56.020130" lon="26.675539">
<ele>116.575256</ele>
<time>2010-06-20T12:53:03Z</time>
<desc>lat.=56.020130, lon.=26.675539, Alt.=116.575256m. Speed=17.208000m/h.</desc>
<speed>4.780000</speed>
</trkpt>
<trkpt lat="56.020096" lon="26.675501">
<ele>115.993225</ele>
<time>2010-06-20T12:53:04Z</time>
<desc>lat.=56.020096, lon.=26.675501, Alt.=115.993225m. Speed=16.596001m/h.</desc>
<speed>4.610000</speed>
</trkpt>
<trkpt lat="56.020061" lon="26.675467">
<ele>115.852600</ele>
<time>2010-06-20T12:53:05Z</time>
<desc>lat.=56.020061, lon.=26.675467, Alt.=115.852600m. Speed=16.920000m/h.</desc>
<speed>4.700000</speed>
</trkpt>
<trkpt lat="56.020023" lon="26.675423">
<ele>115.536194</ele>
<time>2010-06-20T12:53:06Z</time>
<desc>lat.=56.020023, lon.=26.675423, Alt.=115.536194m. Speed=16.236000m/h.</desc>
<speed>4.510000</speed>
</trkpt>
<trkpt lat="56.019993" lon="26.675385">
<ele>115.110413</ele>
<time>2010-06-20T12:53:07Z</time>
<desc>lat.=56.019993, lon.=26.675385, Alt.=115.110413m. Speed=16.236000m/h.</desc>
<speed>4.510000</speed>
</trkpt>
<trkpt lat="56.019962" lon="26.675350">
<ele>115.153381</ele>
<time>2010-06-20T12:53:08Z</time>
<desc>lat.=56.019962, lon.=26.675350, Alt.=115.153381m. Speed=16.056000m/h.</desc>
<speed>4.460000</speed>
</trkpt>
<trkpt lat="56.019928" lon="26.675314">
<ele>114.254944</ele>
<time>2010-06-20T12:53:09Z</time>
<desc>lat.=56.019928, lon.=26.675314, Alt.=114.254944m. Speed=16.379999m/h.</desc>
<speed>4.550000</speed>
</trkpt>
<trkpt lat="56.019894" lon="26.675280">
<ele>113.817444</ele>
<time>2010-06-20T12:53:10Z</time>
<desc>lat.=56.019894, lon.=26.675280, Alt.=113.817444m. Speed=14.904000m/h.</desc>
<speed>4.140000</speed>
</trkpt>
<trkpt lat="56.019863" lon="26.675247">
<ele>113.774475</ele>
<time>2010-06-20T12:53:11Z</time>
<desc>lat.=56.019863, lon.=26.675247, Alt.=113.774475m. Speed=14.940000m/h.</desc>
<speed>4.150000</speed>
</trkpt>
<trkpt lat="56.019829" lon="26.675207">
<ele>113.540100</ele>
<time>2010-06-20T12:53:12Z</time>
<desc>lat.=56.019829, lon.=26.675207, Alt.=113.540100m. Speed=14.940000m/h.</desc>
<speed>4.150000</speed>
</trkpt>
<trkpt lat="56.019794" lon="26.675177">
<ele>113.508850</ele>
<time>2010-06-20T12:53:13Z</time>
<desc>lat.=56.019794, lon.=26.675177, Alt.=113.508850m. Speed=15.480000m/h.</desc>
<speed>4.300000</speed>
</trkpt>
<trkpt lat="56.019760" lon="26.675144">
<ele>113.510803</ele>
<time>2010-06-20T12:53:14Z</time>
<desc>lat.=56.019760, lon.=26.675144, Alt.=113.510803m. Speed=15.912000m/h.</desc>
<speed>4.420000</speed>
</trkpt>
<trkpt lat="56.019722" lon="26.675110">
<ele>113.440491</ele>
<time>2010-06-20T12:53:15Z</time>
<desc>lat.=56.019722, lon.=26.675110, Alt.=113.440491m. Speed=15.516000m/h.</desc>
<speed>4.310000</speed>
</trkpt>
<trkpt lat="56.019691" lon="26.675076">
<ele>113.614319</ele>
<time>2010-06-20T12:53:16Z</time>
<desc>lat.=56.019691, lon.=26.675076, Alt.=113.614319m. Speed=16.416000m/h.</desc>
<speed>4.560000</speed>
</trkpt>
<trkpt lat="56.019653" lon="26.675035">
<ele>113.266663</ele>
<time>2010-06-20T12:53:17Z</time>
<desc>lat.=56.019653, lon.=26.675035, Alt.=113.266663m. Speed=16.164000m/h.</desc>
<speed>4.490000</speed>
</trkpt>
<trkpt lat="56.019619" lon="26.675005">
<ele>113.452209</ele>
<time>2010-06-20T12:53:18Z</time>
<desc>lat.=56.019619, lon.=26.675005, Alt.=113.452209m. Speed=15.444000m/h.</desc>
<speed>4.290000</speed>
</trkpt>
<trkpt lat="56.019585" lon="26.674974">
<ele>113.526428</ele>
<time>2010-06-20T12:53:19Z</time>
<desc>lat.=56.019585, lon.=26.674974, Alt.=113.526428m. Speed=14.292000m/h.</desc>
<speed>3.970000</speed>
</trkpt>
<trkpt lat="56.019554" lon="26.674938">
<ele>113.286194</ele>
<time>2010-06-20T12:53:20Z</time>
<desc>lat.=56.019554, lon.=26.674938, Alt.=113.286194m. Speed=15.120000m/h.</desc>
<speed>4.200000</speed>
</trkpt>
<trkpt lat="56.019516" lon="26.674900">
<ele>113.545959</ele>
<time>2010-06-20T12:53:21Z</time>
<desc>lat.=56.019516, lon.=26.674900, Alt.=113.545959m. Speed=16.488001m/h.</desc>
<speed>4.580000</speed>
</trkpt>
<trkpt lat="56.019482" lon="26.674862">
<ele>113.774475</ele>
<time>2010-06-20T12:53:22Z</time>
<desc>lat.=56.019482, lon.=26.674862, Alt.=113.774475m. Speed=16.632000m/h.</desc>
<speed>4.620000</speed>
</trkpt>
<trkpt lat="56.019447" lon="26.674835">
<ele>113.633850</ele>
<time>2010-06-20T12:53:23Z</time>
<desc>lat.=56.019447, lon.=26.674835, Alt.=113.633850m. Speed=15.912000m/h.</desc>
<speed>4.420000</speed>
</trkpt>
<trkpt lat="56.019409" lon="26.674797">
<ele>113.649475</ele>
<time>2010-06-20T12:53:24Z</time>
<desc>lat.=56.019409, lon.=26.674797, Alt.=113.649475m. Speed=16.416000m/h.</desc>
<speed>4.560000</speed>
</trkpt>
<trkpt lat="56.019375" lon="26.674757">
<ele>113.581116</ele>
<time>2010-06-20T12:53:25Z</time>
<desc>lat.=56.019375, lon.=26.674757, Alt.=113.581116m. Speed=15.588000m/h.</desc>
<speed>4.330000</speed>
</trkpt>
<trkpt lat="56.019344" lon="26.674719">
<ele>113.530334</ele>
<time>2010-06-20T12:53:26Z</time>
<desc>lat.=56.019344, lon.=26.674719, Alt.=113.530334m. Speed=14.292000m/h.</desc>
<speed>3.970000</speed>
</trkpt>
<trkpt lat="56.019314" lon="26.674690">
<ele>113.827209</ele>
<time>2010-06-20T12:53:27Z</time>
<desc>lat.=56.019314, lon.=26.674690, Alt.=113.827209m. Speed=12.816000m/h.</desc>
<speed>3.560000</speed>
</trkpt>
<trkpt lat="56.019283" lon="26.674662">
<ele>113.758850</ele>
<time>2010-06-20T12:53:28Z</time>
<desc>lat.=56.019283, lon.=26.674662, Alt.=113.758850m. Speed=13.428000m/h.</desc>
<speed>3.730000</speed>
</trkpt>
<trkpt lat="56.019257" lon="26.674639">
<ele>113.717834</ele>
<time>2010-06-20T12:53:29Z</time>
<desc>lat.=56.019257, lon.=26.674639, Alt.=113.717834m. Speed=12.384000m/h.</desc>
<speed>3.440000</speed>
</trkpt>
<trkpt lat="56.019230" lon="26.674618">
<ele>113.932678</ele>
<time>2010-06-20T12:53:30Z</time>
<desc>lat.=56.019230, lon.=26.674618, Alt.=113.932678m. Speed=13.356000m/h.</desc>
<speed>3.710000</speed>
</trkpt>
<trkpt lat="56.019199" lon="26.674591">
<ele>114.116272</ele>
<time>2010-06-20T12:53:31Z</time>
<desc>lat.=56.019199, lon.=26.674591, Alt.=114.116272m. Speed=14.364000m/h.</desc>
<speed>3.990000</speed>
</trkpt>
<trkpt lat="56.019169" lon="26.674561">
<ele>114.040100</ele>
<time>2010-06-20T12:53:32Z</time>
<desc>lat.=56.019169, lon.=26.674561, Alt.=114.040100m. Speed=14.220000m/h.</desc>
<speed>3.950000</speed>
</trkpt>
<trkpt lat="56.019135" lon="26.674528">
<ele>113.780334</ele>
<time>2010-06-20T12:53:33Z</time>
<desc>lat.=56.019135, lon.=26.674528, Alt.=113.780334m. Speed=13.932000m/h.</desc>
<speed>3.870000</speed>
</trkpt>
<trkpt lat="56.019108" lon="26.674500">
<ele>113.967834</ele>
<time>2010-06-20T12:53:34Z</time>
<desc>lat.=56.019108, lon.=26.674500, Alt.=113.967834m. Speed=13.428000m/h.</desc>
<speed>3.730000</speed>
</trkpt>
<trkpt lat="56.019077" lon="26.674469">
<ele>114.065491</ele>
<time>2010-06-20T12:53:35Z</time>
<desc>lat.=56.019077, lon.=26.674469, Alt.=114.065491m. Speed=13.140000m/h.</desc>
<speed>3.650000</speed>
</trkpt>
<trkpt lat="56.019051" lon="26.674437">
<ele>114.030334</ele>
<time>2010-06-20T12:53:36Z</time>
<desc>lat.=56.019051, lon.=26.674437, Alt.=114.030334m. Speed=12.636000m/h.</desc>
<speed>3.510000</speed>
</trkpt>
<trkpt lat="56.019020" lon="26.674408">
<ele>114.067444</ele>
<time>2010-06-20T12:53:37Z</time>
<desc>lat.=56.019020, lon.=26.674408, Alt.=114.067444m. Speed=12.888000m/h.</desc>
<speed>3.580000</speed>
</trkpt>
<trkpt lat="56.018993" lon="26.674381">
<ele>114.057678</ele>
<time>2010-06-20T12:53:38Z</time>
<desc>lat.=56.018993, lon.=26.674381, Alt.=114.057678m. Speed=11.736000m/h.</desc>
<speed>3.260000</speed>
</trkpt>
<trkpt lat="56.018970" lon="26.674358">
<ele>114.122131</ele>
<time>2010-06-20T12:53:39Z</time>
<desc>lat.=56.018970, lon.=26.674358, Alt.=114.122131m. Speed=10.980000m/h.</desc>
<speed>3.050000</speed>
</trkpt>
<trkpt lat="56.018944" lon="26.674330">
<ele>113.801819</ele>
<time>2010-06-20T12:53:40Z</time>
<desc>lat.=56.018944, lon.=26.674330, Alt.=113.801819m. Speed=12.096000m/h.</desc>
<speed>3.360000</speed>
</trkpt>
<trkpt lat="56.018921" lon="26.674305">
<ele>113.633850</ele>
<time>2010-06-20T12:53:41Z</time>
<desc>lat.=56.018921, lon.=26.674305, Alt.=113.633850m. Speed=12.168000m/h.</desc>
<speed>3.380000</speed>
</trkpt>
<trkpt lat="56.018898" lon="26.674280">
<ele>113.835022</ele>
<time>2010-06-20T12:53:42Z</time>
<desc>lat.=56.018898, lon.=26.674280, Alt.=113.835022m. Speed=11.124000m/h.</desc>
<speed>3.090000</speed>
</trkpt>
<trkpt lat="56.018871" lon="26.674255">
<ele>114.077209</ele>
<time>2010-06-20T12:53:43Z</time>
<desc>lat.=56.018871, lon.=26.674255, Alt.=114.077209m. Speed=11.232000m/h.</desc>
<speed>3.120000</speed>
</trkpt>
<trkpt lat="56.018848" lon="26.674229">
<ele>114.286194</ele>
<time>2010-06-20T12:53:44Z</time>
<desc>lat.=56.018848, lon.=26.674229, Alt.=114.286194m. Speed=12.276000m/h.</desc>
<speed>3.410000</speed>
</trkpt>
<trkpt lat="56.018822" lon="26.674200">
<ele>114.247131</ele>
<time>2010-06-20T12:53:45Z</time>
<desc>lat.=56.018822, lon.=26.674200, Alt.=114.247131m. Speed=12.672000m/h.</desc>
<speed>3.520000</speed>
</trkpt>
<trkpt lat="56.018795" lon="26.674166">
<ele>114.210022</ele>
<time>2010-06-20T12:53:46Z</time>
<desc>lat.=56.018795, lon.=26.674166, Alt.=114.210022m. Speed=12.564000m/h.</desc>
<speed>3.490000</speed>
</trkpt>
<trkpt lat="56.018772" lon="26.674129">
<ele>114.106506</ele>
<time>2010-06-20T12:53:47Z</time>
<desc>lat.=56.018772, lon.=26.674129, Alt.=114.106506m. Speed=12.564000m/h.</desc>
<speed>3.490000</speed>
</trkpt>
<trkpt lat="56.018745" lon="26.674091">
<ele>113.766663</ele>
<time>2010-06-20T12:53:48Z</time>
<desc>lat.=56.018745, lon.=26.674091, Alt.=113.766663m. Speed=14.400000m/h.</desc>
<speed>4.000000</speed>
</trkpt>
<trkpt lat="56.018719" lon="26.674055">
<ele>113.868225</ele>
<time>2010-06-20T12:53:49Z</time>
<desc>lat.=56.018719, lon.=26.674055, Alt.=113.868225m. Speed=13.716000m/h.</desc>
<speed>3.810000</speed>
</trkpt>
<trkpt lat="56.018688" lon="26.674023">
<ele>113.772522</ele>
<time>2010-06-20T12:53:50Z</time>
<desc>lat.=56.018688, lon.=26.674023, Alt.=113.772522m. Speed=13.248000m/h.</desc>
<speed>3.680000</speed>
</trkpt>
<trkpt lat="56.018658" lon="26.673986">
<ele>113.770569</ele>
<time>2010-06-20T12:53:51Z</time>
<desc>lat.=56.018658, lon.=26.673986, Alt.=113.770569m. Speed=14.076000m/h.</desc>
<speed>3.910000</speed>
</trkpt>
<trkpt lat="56.018627" lon="26.673950">
<ele>113.708069</ele>
<time>2010-06-20T12:53:52Z</time>
<desc>lat.=56.018627, lon.=26.673950, Alt.=113.708069m. Speed=14.472000m/h.</desc>
<speed>4.020000</speed>
</trkpt>
<trkpt lat="56.018600" lon="26.673910">
<ele>113.721741</ele>
<time>2010-06-20T12:53:53Z</time>
<desc>lat.=56.018600, lon.=26.673910, Alt.=113.721741m. Speed=14.436000m/h.</desc>
<speed>4.010000</speed>
</trkpt>
<trkpt lat="56.018570" lon="26.673868">
<ele>113.756897</ele>
<time>2010-06-20T12:53:54Z</time>
<desc>lat.=56.018570, lon.=26.673868, Alt.=113.756897m. Speed=15.084000m/h.</desc>
<speed>4.190000</speed>
</trkpt>
<trkpt lat="56.018539" lon="26.673834">
<ele>113.950256</ele>
<time>2010-06-20T12:53:55Z</time>
<desc>lat.=56.018539, lon.=26.673834, Alt.=113.950256m. Speed=15.372000m/h.</desc>
<speed>4.270000</speed>
</trkpt>
<trkpt lat="56.018513" lon="26.673794">
<ele>113.936584</ele>
<time>2010-06-20T12:53:56Z</time>
<desc>lat.=56.018513, lon.=26.673794, Alt.=113.936584m. Speed=15.012000m/h.</desc>
<speed>4.170000</speed>
</trkpt>
<trkpt lat="56.018486" lon="26.673754">
<ele>113.919006</ele>
<time>2010-06-20T12:53:57Z</time>
<desc>lat.=56.018486, lon.=26.673754, Alt.=113.919006m. Speed=14.616000m/h.</desc>
<speed>4.060000</speed>
</trkpt>
<trkpt lat="56.018459" lon="26.673717">
<ele>113.944397</ele>
<time>2010-06-20T12:53:58Z</time>
<desc>lat.=56.018459, lon.=26.673717, Alt.=113.944397m. Speed=14.328000m/h.</desc>
<speed>3.980000</speed>
</trkpt>
<trkpt lat="56.018429" lon="26.673676">
<ele>113.803772</ele>
<time>2010-06-20T12:53:59Z</time>
<desc>lat.=56.018429, lon.=26.673676, Alt.=113.803772m. Speed=13.968000m/h.</desc>
<speed>3.880000</speed>
</trkpt>
<trkpt lat="56.018398" lon="26.673639">
<ele>113.801819</ele>
<time>2010-06-20T12:54:00Z</time>
<desc>lat.=56.018398, lon.=26.673639, Alt.=113.801819m. Speed=13.320000m/h.</desc>
<speed>3.700000</speed>
</trkpt>
<trkpt lat="56.018375" lon="26.673607">
<ele>113.952209</ele>
<time>2010-06-20T12:54:01Z</time>
<desc>lat.=56.018375, lon.=26.673607, Alt.=113.952209m. Speed=12.204000m/h.</desc>
<speed>3.390000</speed>
</trkpt>
<trkpt lat="56.018353" lon="26.673576">
<ele>114.254944</ele>
<time>2010-06-20T12:54:02Z</time>
<desc>lat.=56.018353, lon.=26.673576, Alt.=114.254944m. Speed=14.148000m/h.</desc>
<speed>3.930000</speed>
</trkpt>
<trkpt lat="56.018322" lon="26.673542">
<ele>113.969788</ele>
<time>2010-06-20T12:54:03Z</time>
<desc>lat.=56.018322, lon.=26.673542, Alt.=113.969788m. Speed=13.968000m/h.</desc>
<speed>3.880000</speed>
</trkpt>
<trkpt lat="56.018291" lon="26.673513">
<ele>114.002991</ele>
<time>2010-06-20T12:54:04Z</time>
<desc>lat.=56.018291, lon.=26.673513, Alt.=114.002991m. Speed=14.220000m/h.</desc>
<speed>3.950000</speed>
</trkpt>
<trkpt lat="56.018261" lon="26.673485">
<ele>114.270569</ele>
<time>2010-06-20T12:54:05Z</time>
<desc>lat.=56.018261, lon.=26.673485, Alt.=114.270569m. Speed=15.048000m/h.</desc>
<speed>4.180000</speed>
</trkpt>
<trkpt lat="56.018223" lon="26.673456">
<ele>114.592834</ele>
<time>2010-06-20T12:54:06Z</time>
<desc>lat.=56.018223, lon.=26.673456, Alt.=114.592834m. Speed=15.480000m/h.</desc>
<speed>4.300000</speed>
</trkpt>
<trkpt lat="56.018185" lon="26.673424">
<ele>114.405334</ele>
<time>2010-06-20T12:54:07Z</time>
<desc>lat.=56.018185, lon.=26.673424, Alt.=114.405334m. Speed=15.048000m/h.</desc>
<speed>4.180000</speed>
</trkpt>
<trkpt lat="56.018150" lon="26.673395">
<ele>114.278381</ele>
<time>2010-06-20T12:54:08Z</time>
<desc>lat.=56.018150, lon.=26.673395, Alt.=114.278381m. Speed=14.292000m/h.</desc>
<speed>3.970000</speed>
</trkpt>
<trkpt lat="56.018116" lon="26.673372">
<ele>114.360413</ele>
<time>2010-06-20T12:54:09Z</time>
<desc>lat.=56.018116, lon.=26.673372, Alt.=114.360413m. Speed=14.724000m/h.</desc>
<speed>4.090000</speed>
</trkpt>
<trkpt lat="56.018082" lon="26.673355">
<ele>114.241272</ele>
<time>2010-06-20T12:54:10Z</time>
<desc>lat.=56.018082, lon.=26.673355, Alt.=114.241272m. Speed=15.192000m/h.</desc>
<speed>4.220000</speed>
</trkpt>
<trkpt lat="56.018047" lon="26.673342">
<ele>114.495178</ele>
<time>2010-06-20T12:54:11Z</time>
<desc>lat.=56.018047, lon.=26.673342, Alt.=114.495178m. Speed=15.624000m/h.</desc>
<speed>4.340000</speed>
</trkpt>
<trkpt lat="56.018009" lon="26.673319">
<ele>113.922913</ele>
<time>2010-06-20T12:54:12Z</time>
<desc>lat.=56.018009, lon.=26.673319, Alt.=113.922913m. Speed=16.452000m/h.</desc>
<speed>4.570000</speed>
</trkpt>
<trkpt lat="56.017971" lon="26.673307">
<ele>114.495178</ele>
<time>2010-06-20T12:54:13Z</time>
<desc>lat.=56.017971, lon.=26.673307, Alt.=114.495178m. Speed=15.948000m/h.</desc>
<speed>4.430000</speed>
</trkpt>
<trkpt lat="56.017937" lon="26.673296">
<ele>114.481506</ele>
<time>2010-06-20T12:54:14Z</time>
<desc>lat.=56.017937, lon.=26.673296, Alt.=114.481506m. Speed=15.624000m/h.</desc>
<speed>4.340000</speed>
</trkpt>
<trkpt lat="56.017902" lon="26.673290">
<ele>114.569397</ele>
<time>2010-06-20T12:54:15Z</time>
<desc>lat.=56.017902, lon.=26.673290, Alt.=114.569397m. Speed=14.940000m/h.</desc>
<speed>4.150000</speed>
</trkpt>
<trkpt lat="56.017868" lon="26.673285">
<ele>115.085022</ele>
<time>2010-06-20T12:54:16Z</time>
<desc>lat.=56.017868, lon.=26.673285, Alt.=115.085022m. Speed=14.868000m/h.</desc>
<speed>4.130000</speed>
</trkpt>
<trkpt lat="56.017834" lon="26.673281">
<ele>115.374084</ele>
<time>2010-06-20T12:54:17Z</time>
<desc>lat.=56.017834, lon.=26.673281, Alt.=115.374084m. Speed=15.624000m/h.</desc>
<speed>4.340000</speed>
</trkpt>
<trkpt lat="56.017799" lon="26.673290">
<ele>115.817444</ele>
<time>2010-06-20T12:54:18Z</time>
<desc>lat.=56.017799, lon.=26.673290, Alt.=115.817444m. Speed=15.048000m/h.</desc>
<speed>4.180000</speed>
</trkpt>
<trkpt lat="56.017761" lon="26.673296">
<ele>116.126038</ele>
<time>2010-06-20T12:54:19Z</time>
<desc>lat.=56.017761, lon.=26.673296, Alt.=116.126038m. Speed=14.904000m/h.</desc>
<speed>4.140000</speed>
</trkpt>
<trkpt lat="56.017727" lon="26.673300">
<ele>116.395569</ele>
<time>2010-06-20T12:54:20Z</time>
<desc>lat.=56.017727, lon.=26.673300, Alt.=116.395569m. Speed=16.020000m/h.</desc>
<speed>4.450000</speed>
</trkpt>
<trkpt lat="56.017685" lon="26.673304">
<ele>116.376038</ele>
<time>2010-06-20T12:54:21Z</time>
<desc>lat.=56.017685, lon.=26.673304, Alt.=116.376038m. Speed=16.488001m/h.</desc>
<speed>4.580000</speed>
</trkpt>
<trkpt lat="56.017651" lon="26.673311">
<ele>116.874084</ele>
<time>2010-06-20T12:54:22Z</time>
<desc>lat.=56.017651, lon.=26.673311, Alt.=116.874084m. Speed=15.516000m/h.</desc>
<speed>4.310000</speed>
</trkpt>
<trkpt lat="56.017616" lon="26.673325">
<ele>118.235413</ele>
<time>2010-06-20T12:54:23Z</time>
<desc>lat.=56.017616, lon.=26.673325, Alt.=118.235413m. Speed=15.336000m/h.</desc>
<speed>4.260000</speed>
</trkpt>
<trkpt lat="56.017582" lon="26.673334">
<ele>118.780334</ele>
<time>2010-06-20T12:54:24Z</time>
<desc>lat.=56.017582, lon.=26.673334, Alt.=118.780334m. Speed=14.976000m/h.</desc>
<speed>4.160000</speed>
</trkpt>
<trkpt lat="56.017548" lon="26.673344">
<ele>119.350647</ele>
<time>2010-06-20T12:54:25Z</time>
<desc>lat.=56.017548, lon.=26.673344, Alt.=119.350647m. Speed=14.904000m/h.</desc>
<speed>4.140000</speed>
</trkpt>
<trkpt lat="56.017513" lon="26.673359">
<ele>119.725647</ele>
<time>2010-06-20T12:54:26Z</time>
<desc>lat.=56.017513, lon.=26.673359, Alt.=119.725647m. Speed=14.436000m/h.</desc>
<speed>4.010000</speed>
</trkpt>
<trkpt lat="56.017479" lon="26.673372">
<ele>119.952209</ele>
<time>2010-06-20T12:54:27Z</time>
<desc>lat.=56.017479, lon.=26.673372, Alt.=119.952209m. Speed=14.580000m/h.</desc>
<speed>4.050000</speed>
</trkpt>
<trkpt lat="56.017445" lon="26.673388">
<ele>120.047913</ele>
<time>2010-06-20T12:54:28Z</time>
<desc>lat.=56.017445, lon.=26.673388, Alt.=120.047913m. Speed=15.372000m/h.</desc>
<speed>4.270000</speed>
</trkpt>
<trkpt lat="56.017406" lon="26.673403">
<ele>120.137756</ele>
<time>2010-06-20T12:54:29Z</time>
<desc>lat.=56.017406, lon.=26.673403, Alt.=120.137756m. Speed=16.200001m/h.</desc>
<speed>4.500000</speed>
</trkpt>
<trkpt lat="56.017368" lon="26.673420">
<ele>120.381897</ele>
<time>2010-06-20T12:54:30Z</time>
<desc>lat.=56.017368, lon.=26.673420, Alt.=120.381897m. Speed=16.559999m/h.</desc>
<speed>4.600000</speed>
</trkpt>
<trkpt lat="56.017330" lon="26.673441">
<ele>120.274475</ele>
<time>2010-06-20T12:54:31Z</time>
<desc>lat.=56.017330, lon.=26.673441, Alt.=120.274475m. Speed=16.271999m/h.</desc>
<speed>4.520000</speed>
</trkpt>
<trkpt lat="56.017292" lon="26.673458">
<ele>120.514709</ele>
<time>2010-06-20T12:54:32Z</time>
<desc>lat.=56.017292, lon.=26.673458, Alt.=120.514709m. Speed=15.732000m/h.</desc>
<speed>4.370000</speed>
</trkpt>
<trkpt lat="56.017254" lon="26.673475">
<ele>120.586975</ele>
<time>2010-06-20T12:54:33Z</time>
<desc>lat.=56.017254, lon.=26.673475, Alt.=120.586975m. Speed=15.372000m/h.</desc>
<speed>4.270000</speed>
</trkpt>
<trkpt lat="56.017220" lon="26.673492">
<ele>120.870178</ele>
<time>2010-06-20T12:54:34Z</time>
<desc>lat.=56.017220, lon.=26.673492, Alt.=120.870178m. Speed=14.796000m/h.</desc>
<speed>4.110000</speed>
</trkpt>
<trkpt lat="56.017185" lon="26.673512">
<ele>120.940491</ele>
<time>2010-06-20T12:54:35Z</time>
<desc>lat.=56.017185, lon.=26.673512, Alt.=120.940491m. Speed=14.472000m/h.</desc>
<speed>4.020000</speed>
</trkpt>
<trkpt lat="56.017155" lon="26.673534">
<ele>121.313538</ele>
<time>2010-06-20T12:54:36Z</time>
<desc>lat.=56.017155, lon.=26.673534, Alt.=121.313538m. Speed=15.084000m/h.</desc>
<speed>4.190000</speed>
</trkpt>
<trkpt lat="56.017120" lon="26.673559">
<ele>121.544006</ele>
<time>2010-06-20T12:54:37Z</time>
<desc>lat.=56.017120, lon.=26.673559, Alt.=121.544006m. Speed=15.876000m/h.</desc>
<speed>4.410000</speed>
</trkpt>
<trkpt lat="56.017078" lon="26.673584">
<ele>121.397522</ele>
<time>2010-06-20T12:54:38Z</time>
<desc>lat.=56.017078, lon.=26.673584, Alt.=121.397522m. Speed=16.559999m/h.</desc>
<speed>4.600000</speed>
</trkpt>
<trkpt lat="56.017040" lon="26.673603">
<ele>121.491272</ele>
<time>2010-06-20T12:54:39Z</time>
<desc>lat.=56.017040, lon.=26.673603, Alt.=121.491272m. Speed=15.624000m/h.</desc>
<speed>4.340000</speed>
</trkpt>
<trkpt lat="56.017006" lon="26.673624">
<ele>121.629944</ele>
<time>2010-06-20T12:54:40Z</time>
<desc>lat.=56.017006, lon.=26.673624, Alt.=121.629944m. Speed=15.372000m/h.</desc>
<speed>4.270000</speed>
</trkpt>
<trkpt lat="56.016972" lon="26.673645">
<ele>122.391663</ele>
<time>2010-06-20T12:54:41Z</time>
<desc>lat.=56.016972, lon.=26.673645, Alt.=122.391663m. Speed=15.768000m/h.</desc>
<speed>4.380000</speed>
</trkpt>
<trkpt lat="56.016937" lon="26.673672">
<ele>122.585022</ele>
<time>2010-06-20T12:54:42Z</time>
<desc>lat.=56.016937, lon.=26.673672, Alt.=122.585022m. Speed=16.164000m/h.</desc>
<speed>4.490000</speed>
</trkpt>
<trkpt lat="56.016903" lon="26.673702">
<ele>123.327209</ele>
<time>2010-06-20T12:54:43Z</time>
<desc>lat.=56.016903, lon.=26.673702, Alt.=123.327209m. Speed=15.660000m/h.</desc>
<speed>4.350000</speed>
</trkpt>
<trkpt lat="56.016865" lon="26.673723">
<ele>123.917053</ele>
<time>2010-06-20T12:54:44Z</time>
<desc>lat.=56.016865, lon.=26.673723, Alt.=123.917053m. Speed=15.480000m/h.</desc>
<speed>4.300000</speed>
</trkpt>
<trkpt lat="56.016830" lon="26.673742">
<ele>124.002991</ele>
<time>2010-06-20T12:54:45Z</time>
<desc>lat.=56.016830, lon.=26.673742, Alt.=124.002991m. Speed=15.552000m/h.</desc>
<speed>4.320000</speed>
</trkpt>
<trkpt lat="56.016792" lon="26.673763">
<ele>124.215881</ele>
<time>2010-06-20T12:54:46Z</time>
<desc>lat.=56.016792, lon.=26.673763, Alt.=124.215881m. Speed=15.192000m/h.</desc>
<speed>4.220000</speed>
</trkpt>
<trkpt lat="56.016758" lon="26.673790">
<ele>124.333069</ele>
<time>2010-06-20T12:54:47Z</time>
<desc>lat.=56.016758, lon.=26.673790, Alt.=124.333069m. Speed=15.984000m/h.</desc>
<speed>4.440000</speed>
</trkpt>
<trkpt lat="56.016720" lon="26.673820">
<ele>124.710022</ele>
<time>2010-06-20T12:54:48Z</time>
<desc>lat.=56.016720, lon.=26.673820, Alt.=124.710022m. Speed=16.308001m/h.</desc>
<speed>4.530000</speed>
</trkpt>
<trkpt lat="56.016682" lon="26.673845">
<ele>124.696350</ele>
<time>2010-06-20T12:54:49Z</time>
<desc>lat.=56.016682, lon.=26.673845, Alt.=124.696350m. Speed=16.812000m/h.</desc>
<speed>4.670000</speed>
</trkpt>
<trkpt lat="56.016644" lon="26.673870">
<ele>124.616272</ele>
<time>2010-06-20T12:54:50Z</time>
<desc>lat.=56.016644, lon.=26.673870, Alt.=124.616272m. Speed=16.200001m/h.</desc>
<speed>4.500000</speed>
</trkpt>
<trkpt lat="56.016605" lon="26.673893">
<ele>125.174866</ele>
<time>2010-06-20T12:54:51Z</time>
<desc>lat.=56.016605, lon.=26.673893, Alt.=125.174866m. Speed=15.696000m/h.</desc>
<speed>4.360000</speed>
</trkpt>
<trkpt lat="56.016567" lon="26.673910">
<ele>125.243225</ele>
<time>2010-06-20T12:54:52Z</time>
<desc>lat.=56.016567, lon.=26.673910, Alt.=125.243225m. Speed=16.271999m/h.</desc>
<speed>4.520000</speed>
</trkpt>
<trkpt lat="56.016529" lon="26.673935">
<ele>125.249084</ele>
<time>2010-06-20T12:54:53Z</time>
<desc>lat.=56.016529, lon.=26.673935, Alt.=125.249084m. Speed=16.884001m/h.</desc>
<speed>4.690000</speed>
</trkpt>
<trkpt lat="56.016487" lon="26.673958">
<ele>125.270569</ele>
<time>2010-06-20T12:54:54Z</time>
<desc>lat.=56.016487, lon.=26.673958, Alt.=125.270569m. Speed=17.208000m/h.</desc>
<speed>4.780000</speed>
</trkpt>
<trkpt lat="56.016449" lon="26.673985">
<ele>125.237366</ele>
<time>2010-06-20T12:54:55Z</time>
<desc>lat.=56.016449, lon.=26.673985, Alt.=125.237366m. Speed=16.740000m/h.</desc>
<speed>4.650000</speed>
</trkpt>
<trkpt lat="56.016411" lon="26.674011">
<ele>125.284241</ele>
<time>2010-06-20T12:54:56Z</time>
<desc>lat.=56.016411, lon.=26.674011, Alt.=125.284241m. Speed=15.804000m/h.</desc>
<speed>4.390000</speed>
</trkpt>
<trkpt lat="56.016376" lon="26.674034">
<ele>125.321350</ele>
<time>2010-06-20T12:54:57Z</time>
<desc>lat.=56.016376, lon.=26.674034, Alt.=125.321350m. Speed=15.480000m/h.</desc>
<speed>4.300000</speed>
</trkpt>
<trkpt lat="56.016342" lon="26.674061">
<ele>125.278381</ele>
<time>2010-06-20T12:54:58Z</time>
<desc>lat.=56.016342, lon.=26.674061, Alt.=125.278381m. Speed=15.480000m/h.</desc>
<speed>4.300000</speed>
</trkpt>
<trkpt lat="56.016304" lon="26.674082">
<ele>125.430725</ele>
<time>2010-06-20T12:54:59Z</time>
<desc>lat.=56.016304, lon.=26.674082, Alt.=125.430725m. Speed=16.344000m/h.</desc>
<speed>4.540000</speed>
</trkpt>
<trkpt lat="56.016262" lon="26.674099">
<ele>125.313538</ele>
<time>2010-06-20T12:55:00Z</time>
<desc>lat.=56.016262, lon.=26.674099, Alt.=125.313538m. Speed=17.280001m/h.</desc>
<speed>4.800000</speed>
</trkpt>
<trkpt lat="56.016224" lon="26.674126">
<ele>125.424866</ele>
<time>2010-06-20T12:55:01Z</time>
<desc>lat.=56.016224, lon.=26.674126, Alt.=125.424866m. Speed=18.035999m/h.</desc>
<speed>5.010000</speed>
</trkpt>
<trkpt lat="56.016178" lon="26.674152">
<ele>125.538147</ele>
<time>2010-06-20T12:55:02Z</time>
<desc>lat.=56.016178, lon.=26.674152, Alt.=125.538147m. Speed=18.684000m/h.</desc>
<speed>5.190000</speed>
</trkpt>
<trkpt lat="56.016132" lon="26.674171">
<ele>125.551819</ele>
<time>2010-06-20T12:55:03Z</time>
<desc>lat.=56.016132, lon.=26.674171, Alt.=125.551819m. Speed=18.792000m/h.</desc>
<speed>5.220000</speed>
</trkpt>
<trkpt lat="56.016087" lon="26.674196">
<ele>125.651428</ele>
<time>2010-06-20T12:55:04Z</time>
<desc>lat.=56.016087, lon.=26.674196, Alt.=125.651428m. Speed=18.035999m/h.</desc>
<speed>5.010000</speed>
</trkpt>
<trkpt lat="56.016048" lon="26.674219">
<ele>125.670959</ele>
<time>2010-06-20T12:55:05Z</time>
<desc>lat.=56.016048, lon.=26.674219, Alt.=125.670959m. Speed=17.028000m/h.</desc>
<speed>4.730000</speed>
</trkpt>
<trkpt lat="56.016010" lon="26.674246">
<ele>125.733459</ele>
<time>2010-06-20T12:55:06Z</time>
<desc>lat.=56.016010, lon.=26.674246, Alt.=125.733459m. Speed=17.280001m/h.</desc>
<speed>4.800000</speed>
</trkpt>
<trkpt lat="56.015968" lon="26.674269">
<ele>125.639709</ele>
<time>2010-06-20T12:55:07Z</time>
<desc>lat.=56.015968, lon.=26.674269, Alt.=125.639709m. Speed=16.775999m/h.</desc>
<speed>4.660000</speed>
</trkpt>
<trkpt lat="56.015926" lon="26.674290">
<ele>126.073303</ele>
<time>2010-06-20T12:55:08Z</time>
<desc>lat.=56.015926, lon.=26.674290, Alt.=126.073303m. Speed=15.984000m/h.</desc>
<speed>4.440000</speed>
</trkpt>
<trkpt lat="56.015892" lon="26.674311">
<ele>126.051819</ele>
<time>2010-06-20T12:55:09Z</time>
<desc>lat.=56.015892, lon.=26.674311, Alt.=126.051819m. Speed=16.164000m/h.</desc>
<speed>4.490000</speed>
</trkpt>
<trkpt lat="56.015854" lon="26.674335">
<ele>126.016663</ele>
<time>2010-06-20T12:55:10Z</time>
<desc>lat.=56.015854, lon.=26.674335, Alt.=126.016663m. Speed=16.271999m/h.</desc>
<speed>4.520000</speed>
</trkpt>
<trkpt lat="56.015820" lon="26.674360">
<ele>125.930725</ele>
<time>2010-06-20T12:55:11Z</time>
<desc>lat.=56.015820, lon.=26.674360, Alt.=125.930725m. Speed=15.120000m/h.</desc>
<speed>4.200000</speed>
</trkpt>
<trkpt lat="56.015785" lon="26.674387">
<ele>125.920959</ele>
<time>2010-06-20T12:55:12Z</time>
<desc>lat.=56.015785, lon.=26.674387, Alt.=125.920959m. Speed=14.940000m/h.</desc>
<speed>4.150000</speed>
</trkpt>
<trkpt lat="56.015751" lon="26.674412">
<ele>126.088928</ele>
<time>2010-06-20T12:55:13Z</time>
<desc>lat.=56.015751, lon.=26.674412, Alt.=126.088928m. Speed=15.480000m/h.</desc>
<speed>4.300000</speed>
</trkpt>
<trkpt lat="56.015713" lon="26.674438">
<ele>126.077209</ele>
<time>2010-06-20T12:55:14Z</time>
<desc>lat.=56.015713, lon.=26.674438, Alt.=126.077209m. Speed=15.768000m/h.</desc>
<speed>4.380000</speed>
</trkpt>
<trkpt lat="56.015675" lon="26.674467">
<ele>126.028381</ele>
<time>2010-06-20T12:55:15Z</time>
<desc>lat.=56.015675, lon.=26.674467, Alt.=126.028381m. Speed=16.596001m/h.</desc>
<speed>4.610000</speed>
</trkpt>
<trkpt lat="56.015636" lon="26.674496">
<ele>126.184631</ele>
<time>2010-06-20T12:55:16Z</time>
<desc>lat.=56.015636, lon.=26.674496, Alt.=126.184631m. Speed=16.955999m/h.</desc>
<speed>4.710000</speed>
</trkpt>
<trkpt lat="56.015598" lon="26.674519">
<ele>126.165100</ele>
<time>2010-06-20T12:55:17Z</time>
<desc>lat.=56.015598, lon.=26.674519, Alt.=126.165100m. Speed=16.164000m/h.</desc>
<speed>4.490000</speed>
</trkpt>
<trkpt lat="56.015556" lon="26.674538">
<ele>126.288147</ele>
<time>2010-06-20T12:55:18Z</time>
<desc>lat.=56.015556, lon.=26.674538, Alt.=126.288147m. Speed=15.192000m/h.</desc>
<speed>4.220000</speed>
</trkpt>
<trkpt lat="56.015522" lon="26.674553">
<ele>126.338928</ele>
<time>2010-06-20T12:55:19Z</time>
<desc>lat.=56.015522, lon.=26.674553, Alt.=126.338928m. Speed=14.868000m/h.</desc>
<speed>4.130000</speed>
</trkpt>
<trkpt lat="56.015488" lon="26.674574">
<ele>126.272522</ele>
<time>2010-06-20T12:55:20Z</time>
<desc>lat.=56.015488, lon.=26.674574, Alt.=126.272522m. Speed=15.048000m/h.</desc>
<speed>4.180000</speed>
</trkpt>
<trkpt lat="56.015450" lon="26.674601">
<ele>126.336975</ele>
<time>2010-06-20T12:55:21Z</time>
<desc>lat.=56.015450, lon.=26.674601, Alt.=126.336975m. Speed=15.516000m/h.</desc>
<speed>4.310000</speed>
</trkpt>
<trkpt lat="56.015411" lon="26.674622">
<ele>126.348694</ele>
<time>2010-06-20T12:55:22Z</time>
<desc>lat.=56.015411, lon.=26.674622, Alt.=126.348694m. Speed=15.804000m/h.</desc>
<speed>4.390000</speed>
</trkpt>
<trkpt lat="56.015377" lon="26.674643">
<ele>126.133850</ele>
<time>2010-06-20T12:55:23Z</time>
<desc>lat.=56.015377, lon.=26.674643, Alt.=126.133850m. Speed=16.236000m/h.</desc>
<speed>4.510000</speed>
</trkpt>
<trkpt lat="56.015335" lon="26.674665">
<ele>126.161194</ele>
<time>2010-06-20T12:55:24Z</time>
<desc>lat.=56.015335, lon.=26.674665, Alt.=126.161194m. Speed=16.524000m/h.</desc>
<speed>4.590000</speed>
</trkpt>
<trkpt lat="56.015297" lon="26.674686">
<ele>126.262756</ele>
<time>2010-06-20T12:55:25Z</time>
<desc>lat.=56.015297, lon.=26.674686, Alt.=126.262756m. Speed=16.128000m/h.</desc>
<speed>4.480000</speed>
</trkpt>
<trkpt lat="56.015259" lon="26.674707">
<ele>126.233459</ele>
<time>2010-06-20T12:55:26Z</time>
<desc>lat.=56.015259, lon.=26.674707, Alt.=126.233459m. Speed=16.271999m/h.</desc>
<speed>4.520000</speed>
</trkpt>
<trkpt lat="56.015221" lon="26.674732">
<ele>126.290100</ele>
<time>2010-06-20T12:55:27Z</time>
<desc>lat.=56.015221, lon.=26.674732, Alt.=126.290100m. Speed=16.452000m/h.</desc>
<speed>4.570000</speed>
</trkpt>
<trkpt lat="56.015182" lon="26.674755">
<ele>126.116272</ele>
<time>2010-06-20T12:55:28Z</time>
<desc>lat.=56.015182, lon.=26.674755, Alt.=126.116272m. Speed=15.624000m/h.</desc>
<speed>4.340000</speed>
</trkpt>
<trkpt lat="56.015148" lon="26.674782">
<ele>126.061584</ele>
<time>2010-06-20T12:55:29Z</time>
<desc>lat.=56.015148, lon.=26.674782, Alt.=126.061584m. Speed=15.444000m/h.</desc>
<speed>4.290000</speed>
</trkpt>
<trkpt lat="56.015110" lon="26.674807">
<ele>125.987366</ele>
<time>2010-06-20T12:55:30Z</time>
<desc>lat.=56.015110, lon.=26.674807, Alt.=125.987366m. Speed=16.164000m/h.</desc>
<speed>4.490000</speed>
</trkpt>
<trkpt lat="56.015072" lon="26.674826">
<ele>125.922913</ele>
<time>2010-06-20T12:55:31Z</time>
<desc>lat.=56.015072, lon.=26.674826, Alt.=125.922913m. Speed=16.812000m/h.</desc>
<speed>4.670000</speed>
</trkpt>
<trkpt lat="56.015030" lon="26.674850">
<ele>125.805725</ele>
<time>2010-06-20T12:55:32Z</time>
<desc>lat.=56.015030, lon.=26.674850, Alt.=125.805725m. Speed=16.920000m/h.</desc>
<speed>4.700000</speed>
</trkpt>
<trkpt lat="56.014992" lon="26.674875">
<ele>125.840881</ele>
<time>2010-06-20T12:55:33Z</time>
<desc>lat.=56.014992, lon.=26.674875, Alt.=125.840881m. Speed=16.488001m/h.</desc>
<speed>4.580000</speed>
</trkpt>
<trkpt lat="56.014954" lon="26.674902">
<ele>125.862366</ele>
<time>2010-06-20T12:55:34Z</time>
<desc>lat.=56.014954, lon.=26.674902, Alt.=125.862366m. Speed=16.848000m/h.</desc>
<speed>4.680000</speed>
</trkpt>
<trkpt lat="56.014908" lon="26.674927">
<ele>125.764709</ele>
<time>2010-06-20T12:55:35Z</time>
<desc>lat.=56.014908, lon.=26.674927, Alt.=125.764709m. Speed=17.604000m/h.</desc>
<speed>4.890000</speed>
</trkpt>
<trkpt lat="56.014866" lon="26.674953">
<ele>125.678772</ele>
<time>2010-06-20T12:55:36Z</time>
<desc>lat.=56.014866, lon.=26.674953, Alt.=125.678772m. Speed=17.676001m/h.</desc>
<speed>4.910000</speed>
</trkpt>
<trkpt lat="56.014824" lon="26.674978">
<ele>125.711975</ele>
<time>2010-06-20T12:55:37Z</time>
<desc>lat.=56.014824, lon.=26.674978, Alt.=125.711975m. Speed=17.424000m/h.</desc>
<speed>4.840000</speed>
</trkpt>
<trkpt lat="56.014782" lon="26.674997">
<ele>125.749084</ele>
<time>2010-06-20T12:55:38Z</time>
<desc>lat.=56.014782, lon.=26.674997, Alt.=125.749084m. Speed=16.559999m/h.</desc>
<speed>4.600000</speed>
</trkpt>
<trkpt lat="56.014744" lon="26.675024">
<ele>125.776428</ele>
<time>2010-06-20T12:55:39Z</time>
<desc>lat.=56.014744, lon.=26.675024, Alt.=125.776428m. Speed=16.128000m/h.</desc>
<speed>4.480000</speed>
</trkpt>
<trkpt lat="56.014706" lon="26.675049">
<ele>125.768616</ele>
<time>2010-06-20T12:55:40Z</time>
<desc>lat.=56.014706, lon.=26.675049, Alt.=125.768616m. Speed=15.660000m/h.</desc>
<speed>4.350000</speed>
</trkpt>
<trkpt lat="56.014668" lon="26.675077">
<ele>125.717834</ele>
<time>2010-06-20T12:55:41Z</time>
<desc>lat.=56.014668, lon.=26.675077, Alt.=125.717834m. Speed=15.480000m/h.</desc>
<speed>4.300000</speed>
</trkpt>
<trkpt lat="56.014629" lon="26.675100">
<ele>125.700256</ele>
<time>2010-06-20T12:55:42Z</time>
<desc>lat.=56.014629, lon.=26.675100, Alt.=125.700256m. Speed=15.876000m/h.</desc>
<speed>4.410000</speed>
</trkpt>
<trkpt lat="56.014591" lon="26.675125">
<ele>125.585022</ele>
<time>2010-06-20T12:55:43Z</time>
<desc>lat.=56.014591, lon.=26.675125, Alt.=125.585022m. Speed=16.344000m/h.</desc>
<speed>4.540000</speed>
</trkpt>
<trkpt lat="56.014553" lon="26.675154">
<ele>125.338928</ele>
<time>2010-06-20T12:55:44Z</time>
<desc>lat.=56.014553, lon.=26.675154, Alt.=125.338928m. Speed=15.912000m/h.</desc>
<speed>4.420000</speed>
</trkpt>
<trkpt lat="56.014515" lon="26.675175">
<ele>125.131897</ele>
<time>2010-06-20T12:55:45Z</time>
<desc>lat.=56.014515, lon.=26.675175, Alt.=125.131897m. Speed=15.552000m/h.</desc>
<speed>4.320000</speed>
</trkpt>
<trkpt lat="56.014481" lon="26.675196">
<ele>125.159241</ele>
<time>2010-06-20T12:55:46Z</time>
<desc>lat.=56.014481, lon.=26.675196, Alt.=125.159241m. Speed=15.480000m/h.</desc>
<speed>4.300000</speed>
</trkpt>
<trkpt lat="56.014442" lon="26.675211">
<ele>125.223694</ele>
<time>2010-06-20T12:55:47Z</time>
<desc>lat.=56.014442, lon.=26.675211, Alt.=125.223694m. Speed=16.704000m/h.</desc>
<speed>4.640000</speed>
</trkpt>
<trkpt lat="56.014404" lon="26.675234">
<ele>125.131897</ele>
<time>2010-06-20T12:55:48Z</time>
<desc>lat.=56.014404, lon.=26.675234, Alt.=125.131897m. Speed=17.496000m/h.</desc>
<speed>4.860000</speed>
</trkpt>
<trkpt lat="56.014362" lon="26.675262">
<ele>125.106506</ele>
<time>2010-06-20T12:55:49Z</time>
<desc>lat.=56.014362, lon.=26.675262, Alt.=125.106506m. Speed=16.308001m/h.</desc>
<speed>4.530000</speed>
</trkpt>
<trkpt lat="56.014324" lon="26.675278">
<ele>125.014709</ele>
<time>2010-06-20T12:55:50Z</time>
<desc>lat.=56.014324, lon.=26.675278, Alt.=125.014709m. Speed=16.164000m/h.</desc>
<speed>4.490000</speed>
</trkpt>
<trkpt lat="56.014282" lon="26.675297">
<ele>124.926819</ele>
<time>2010-06-20T12:55:51Z</time>
<desc>lat.=56.014282, lon.=26.675297, Alt.=124.926819m. Speed=17.532000m/h.</desc>
<speed>4.870000</speed>
</trkpt>
<trkpt lat="56.014244" lon="26.675320">
<ele>124.731506</ele>
<time>2010-06-20T12:55:52Z</time>
<desc>lat.=56.014244, lon.=26.675320, Alt.=124.731506m. Speed=17.316000m/h.</desc>
<speed>4.810000</speed>
</trkpt>
<trkpt lat="56.014202" lon="26.675346">
<ele>124.499084</ele>
<time>2010-06-20T12:55:53Z</time>
<desc>lat.=56.014202, lon.=26.675346, Alt.=124.499084m. Speed=17.063999m/h.</desc>
<speed>4.740000</speed>
</trkpt>
<trkpt lat="56.014164" lon="26.675367">
<ele>124.280334</ele>
<time>2010-06-20T12:55:54Z</time>
<desc>lat.=56.014164, lon.=26.675367, Alt.=124.280334m. Speed=17.136000m/h.</desc>
<speed>4.760000</speed>
</trkpt>
<trkpt lat="56.014122" lon="26.675388">
<ele>124.002991</ele>
<time>2010-06-20T12:55:55Z</time>
<desc>lat.=56.014122, lon.=26.675388, Alt.=124.002991m. Speed=17.100000m/h.</desc>
<speed>4.750000</speed>
</trkpt>
<trkpt lat="56.014080" lon="26.675413">
<ele>123.975647</ele>
<time>2010-06-20T12:55:56Z</time>
<desc>lat.=56.014080, lon.=26.675413, Alt.=123.975647m. Speed=16.344000m/h.</desc>
<speed>4.540000</speed>
</trkpt>
<trkpt lat="56.014042" lon="26.675436">
<ele>123.809631</ele>
<time>2010-06-20T12:55:57Z</time>
<desc>lat.=56.014042, lon.=26.675436, Alt.=123.809631m. Speed=16.524000m/h.</desc>
<speed>4.590000</speed>
</trkpt>
<trkpt lat="56.014008" lon="26.675459">
<ele>123.637756</ele>
<time>2010-06-20T12:55:58Z</time>
<desc>lat.=56.014008, lon.=26.675459, Alt.=123.637756m. Speed=15.984000m/h.</desc>
<speed>4.440000</speed>
</trkpt>
<trkpt lat="56.013966" lon="26.675482">
<ele>123.922913</ele>
<time>2010-06-20T12:55:59Z</time>
<desc>lat.=56.013966, lon.=26.675482, Alt.=123.922913m. Speed=16.164000m/h.</desc>
<speed>4.490000</speed>
</trkpt>
<trkpt lat="56.013927" lon="26.675507">
<ele>123.907288</ele>
<time>2010-06-20T12:56:00Z</time>
<desc>lat.=56.013927, lon.=26.675507, Alt.=123.907288m. Speed=15.588000m/h.</desc>
<speed>4.330000</speed>
</trkpt>
<trkpt lat="56.013893" lon="26.675535">
<ele>123.915100</ele>
<time>2010-06-20T12:56:01Z</time>
<desc>lat.=56.013893, lon.=26.675535, Alt.=123.915100m. Speed=15.012000m/h.</desc>
<speed>4.170000</speed>
</trkpt>
<trkpt lat="56.013859" lon="26.675570">
<ele>123.987366</ele>
<time>2010-06-20T12:56:02Z</time>
<desc>lat.=56.013859, lon.=26.675570, Alt.=123.987366m. Speed=14.940000m/h.</desc>
<speed>4.150000</speed>
</trkpt>
<trkpt lat="56.013824" lon="26.675604">
<ele>123.930725</ele>
<time>2010-06-20T12:56:03Z</time>
<desc>lat.=56.013824, lon.=26.675604, Alt.=123.930725m. Speed=14.508000m/h.</desc>
<speed>4.030000</speed>
</trkpt>
<trkpt lat="56.013794" lon="26.675634">
<ele>123.876038</ele>
<time>2010-06-20T12:56:04Z</time>
<desc>lat.=56.013794, lon.=26.675634, Alt.=123.876038m. Speed=13.392000m/h.</desc>
<speed>3.720000</speed>
</trkpt>
<trkpt lat="56.013767" lon="26.675665">
<ele>123.889709</ele>
<time>2010-06-20T12:56:05Z</time>
<desc>lat.=56.013767, lon.=26.675665, Alt.=123.889709m. Speed=12.780000m/h.</desc>
<speed>3.550000</speed>
</trkpt>
<trkpt lat="56.013737" lon="26.675699">
<ele>123.559631</ele>
<time>2010-06-20T12:56:06Z</time>
<desc>lat.=56.013737, lon.=26.675699, Alt.=123.559631m. Speed=13.716000m/h.</desc>
<speed>3.810000</speed>
</trkpt>
<trkpt lat="56.013706" lon="26.675739">
<ele>123.198303</ele>
<time>2010-06-20T12:56:07Z</time>
<desc>lat.=56.013706, lon.=26.675739, Alt.=123.198303m. Speed=14.220000m/h.</desc>
<speed>3.950000</speed>
</trkpt>
<trkpt lat="56.013680" lon="26.675776">
<ele>122.838928</ele>
<time>2010-06-20T12:56:08Z</time>
<desc>lat.=56.013680, lon.=26.675776, Alt.=122.838928m. Speed=12.744000m/h.</desc>
<speed>3.540000</speed>
</trkpt>
<trkpt lat="56.013657" lon="26.675808">
<ele>122.661194</ele>
<time>2010-06-20T12:56:09Z</time>
<desc>lat.=56.013657, lon.=26.675808, Alt.=122.661194m. Speed=12.024000m/h.</desc>
<speed>3.340000</speed>
</trkpt>
<trkpt lat="56.013634" lon="26.675846">
<ele>122.208069</ele>
<time>2010-06-20T12:56:10Z</time>
<desc>lat.=56.013634, lon.=26.675846, Alt.=122.208069m. Speed=12.852000m/h.</desc>
<speed>3.570000</speed>
</trkpt>
<trkpt lat="56.013611" lon="26.675888">
<ele>122.001038</ele>
<time>2010-06-20T12:56:11Z</time>
<desc>lat.=56.013611, lon.=26.675888, Alt.=122.001038m. Speed=12.672000m/h.</desc>
<speed>3.520000</speed>
</trkpt>
<trkpt lat="56.013592" lon="26.675934">
<ele>122.284241</ele>
<time>2010-06-20T12:56:12Z</time>
<desc>lat.=56.013592, lon.=26.675934, Alt.=122.284241m. Speed=12.384000m/h.</desc>
<speed>3.440000</speed>
</trkpt>
<trkpt lat="56.013573" lon="26.675976">
<ele>122.370178</ele>
<time>2010-06-20T12:56:13Z</time>
<desc>lat.=56.013573, lon.=26.675976, Alt.=122.370178m. Speed=11.232000m/h.</desc>
<speed>3.120000</speed>
</trkpt>
<trkpt lat="56.013557" lon="26.676016">
<ele>122.514709</ele>
<time>2010-06-20T12:56:14Z</time>
<desc>lat.=56.013557, lon.=26.676016, Alt.=122.514709m. Speed=11.412000m/h.</desc>
<speed>3.170000</speed>
</trkpt>
<trkpt lat="56.013535" lon="26.676062">
<ele>122.766663</ele>
<time>2010-06-20T12:56:15Z</time>
<desc>lat.=56.013535, lon.=26.676062, Alt.=122.766663m. Speed=11.340000m/h.</desc>
<speed>3.150000</speed>
</trkpt>
<trkpt lat="56.013519" lon="26.676100">
<ele>123.067444</ele>
<time>2010-06-20T12:56:16Z</time>
<desc>lat.=56.013519, lon.=26.676100, Alt.=123.067444m. Speed=10.836000m/h.</desc>
<speed>3.010000</speed>
</trkpt>
<trkpt lat="56.013496" lon="26.676144">
<ele>123.135803</ele>
<time>2010-06-20T12:56:17Z</time>
<desc>lat.=56.013496, lon.=26.676144, Alt.=123.135803m. Speed=11.088000m/h.</desc>
<speed>3.080000</speed>
</trkpt>
<trkpt lat="56.013481" lon="26.676184">
<ele>123.094788</ele>
<time>2010-06-20T12:56:18Z</time>
<desc>lat.=56.013481, lon.=26.676184, Alt.=123.094788m. Speed=11.592000m/h.</desc>
<speed>3.220000</speed>
</trkpt>
<trkpt lat="56.013462" lon="26.676228">
<ele>123.299866</ele>
<time>2010-06-20T12:56:19Z</time>
<desc>lat.=56.013462, lon.=26.676228, Alt.=123.299866m. Speed=11.736000m/h.</desc>
<speed>3.260000</speed>
</trkpt>
<trkpt lat="56.013443" lon="26.676266">
<ele>123.504944</ele>
<time>2010-06-20T12:56:20Z</time>
<desc>lat.=56.013443, lon.=26.676266, Alt.=123.504944m. Speed=10.908000m/h.</desc>
<speed>3.030000</speed>
</trkpt>
<trkpt lat="56.013424" lon="26.676311">
<ele>123.340881</ele>
<time>2010-06-20T12:56:21Z</time>
<desc>lat.=56.013424, lon.=26.676311, Alt.=123.340881m. Speed=13.392000m/h.</desc>
<speed>3.720000</speed>
</trkpt>
<trkpt lat="56.013397" lon="26.676355">
<ele>123.495178</ele>
<time>2010-06-20T12:56:22Z</time>
<desc>lat.=56.013397, lon.=26.676355, Alt.=123.495178m. Speed=10.872000m/h.</desc>
<speed>3.020000</speed>
</trkpt>
<trkpt lat="56.013382" lon="26.676397">
<ele>123.448303</ele>
<time>2010-06-20T12:56:23Z</time>
<desc>lat.=56.013382, lon.=26.676397, Alt.=123.448303m. Speed=12.996000m/h.</desc>
<speed>3.610000</speed>
</trkpt>
<trkpt lat="56.013367" lon="26.676439">
<ele>123.344788</ele>
<time>2010-06-20T12:56:24Z</time>
<desc>lat.=56.013367, lon.=26.676439, Alt.=123.344788m. Speed=11.664000m/h.</desc>
<speed>3.240000</speed>
</trkpt>
<trkpt lat="56.013340" lon="26.676474">
<ele>123.409241</ele>
<time>2010-06-20T12:56:25Z</time>
<desc>lat.=56.013340, lon.=26.676474, Alt.=123.409241m. Speed=12.132000m/h.</desc>
<speed>3.370000</speed>
</trkpt>
<trkpt lat="56.013317" lon="26.676512">
<ele>123.264709</ele>
<time>2010-06-20T12:56:26Z</time>
<desc>lat.=56.013317, lon.=26.676512, Alt.=123.264709m. Speed=12.672000m/h.</desc>
<speed>3.520000</speed>
</trkpt>
<trkpt lat="56.013294" lon="26.676548">
<ele>123.475647</ele>
<time>2010-06-20T12:56:27Z</time>
<desc>lat.=56.013294, lon.=26.676548, Alt.=123.475647m. Speed=11.628000m/h.</desc>
<speed>3.230000</speed>
</trkpt>
<trkpt lat="56.013268" lon="26.676584">
<ele>123.815491</ele>
<time>2010-06-20T12:56:28Z</time>
<desc>lat.=56.013268, lon.=26.676584, Alt.=123.815491m. Speed=12.024000m/h.</desc>
<speed>3.340000</speed>
</trkpt>
<trkpt lat="56.013233" lon="26.676619">
<ele>123.577209</ele>
<time>2010-06-20T12:56:29Z</time>
<desc>lat.=56.013233, lon.=26.676619, Alt.=123.577209m. Speed=14.616000m/h.</desc>
<speed>4.060000</speed>
</trkpt>
<trkpt lat="56.013203" lon="26.676653">
<ele>123.991272</ele>
<time>2010-06-20T12:56:30Z</time>
<desc>lat.=56.013203, lon.=26.676653, Alt.=123.991272m. Speed=14.184000m/h.</desc>
<speed>3.940000</speed>
</trkpt>
<trkpt lat="56.013176" lon="26.676693">
<ele>124.260803</ele>
<time>2010-06-20T12:56:31Z</time>
<desc>lat.=56.013176, lon.=26.676693, Alt.=124.260803m. Speed=14.436000m/h.</desc>
<speed>4.010000</speed>
</trkpt>
<trkpt lat="56.013145" lon="26.676725">
<ele>123.952209</ele>
<time>2010-06-20T12:56:32Z</time>
<desc>lat.=56.013145, lon.=26.676725, Alt.=123.952209m. Speed=14.076000m/h.</desc>
<speed>3.910000</speed>
</trkpt>
<trkpt lat="56.013115" lon="26.676758">
<ele>123.934631</ele>
<time>2010-06-20T12:56:33Z</time>
<desc>lat.=56.013115, lon.=26.676758, Alt.=123.934631m. Speed=12.348000m/h.</desc>
<speed>3.430000</speed>
</trkpt>
<trkpt lat="56.013084" lon="26.676794">
<ele>124.340881</ele>
<time>2010-06-20T12:56:34Z</time>
<desc>lat.=56.013084, lon.=26.676794, Alt.=124.340881m. Speed=13.500000m/h.</desc>
<speed>3.750000</speed>
</trkpt>
<trkpt lat="56.013058" lon="26.676825">
<ele>124.223694</ele>
<time>2010-06-20T12:56:35Z</time>
<desc>lat.=56.013058, lon.=26.676825, Alt.=124.223694m. Speed=11.988000m/h.</desc>
<speed>3.330000</speed>
</trkpt>
<trkpt lat="56.013027" lon="26.676844">
<ele>123.670959</ele>
<time>2010-06-20T12:56:36Z</time>
<desc>lat.=56.013027, lon.=26.676844, Alt.=123.670959m. Speed=13.428000m/h.</desc>
<speed>3.730000</speed>
</trkpt>
<trkpt lat="56.012993" lon="26.676868">
<ele>123.686584</ele>
<time>2010-06-20T12:56:37Z</time>
<desc>lat.=56.012993, lon.=26.676868, Alt.=123.686584m. Speed=14.472000m/h.</desc>
<speed>4.020000</speed>
</trkpt>
<trkpt lat="56.012962" lon="26.676895">
<ele>124.409241</ele>
<time>2010-06-20T12:56:38Z</time>
<desc>lat.=56.012962, lon.=26.676895, Alt.=124.409241m. Speed=14.796000m/h.</desc>
<speed>4.110000</speed>
</trkpt>
<trkpt lat="56.012928" lon="26.676920">
<ele>123.956116</ele>
<time>2010-06-20T12:56:39Z</time>
<desc>lat.=56.012928, lon.=26.676920, Alt.=123.956116m. Speed=14.976000m/h.</desc>
<speed>4.160000</speed>
</trkpt>
<trkpt lat="56.012897" lon="26.676943">
<ele>123.674866</ele>
<time>2010-06-20T12:56:40Z</time>
<desc>lat.=56.012897, lon.=26.676943, Alt.=123.674866m. Speed=13.932000m/h.</desc>
<speed>3.870000</speed>
</trkpt>
<trkpt lat="56.012863" lon="26.676970">
<ele>123.602600</ele>
<time>2010-06-20T12:56:41Z</time>
<desc>lat.=56.012863, lon.=26.676970, Alt.=123.602600m. Speed=14.400000m/h.</desc>
<speed>4.000000</speed>
</trkpt>
<trkpt lat="56.012829" lon="26.676996">
<ele>123.807678</ele>
<time>2010-06-20T12:56:42Z</time>
<desc>lat.=56.012829, lon.=26.676996, Alt.=123.807678m. Speed=15.192000m/h.</desc>
<speed>4.220000</speed>
</trkpt>
<trkpt lat="56.012794" lon="26.677019">
<ele>123.686584</ele>
<time>2010-06-20T12:56:43Z</time>
<desc>lat.=56.012794, lon.=26.677019, Alt.=123.686584m. Speed=16.200001m/h.</desc>
<speed>4.500000</speed>
</trkpt>
<trkpt lat="56.012760" lon="26.677042">
<ele>124.323303</ele>
<time>2010-06-20T12:56:44Z</time>
<desc>lat.=56.012760, lon.=26.677042, Alt.=124.323303m. Speed=15.048000m/h.</desc>
<speed>4.180000</speed>
</trkpt>
<trkpt lat="56.012726" lon="26.677061">
<ele>124.612366</ele>
<time>2010-06-20T12:56:45Z</time>
<desc>lat.=56.012726, lon.=26.677061, Alt.=124.612366m. Speed=13.716000m/h.</desc>
<speed>3.810000</speed>
</trkpt>
<trkpt lat="56.012688" lon="26.677080">
<ele>125.098694</ele>
<time>2010-06-20T12:56:46Z</time>
<desc>lat.=56.012688, lon.=26.677080, Alt.=125.098694m. Speed=15.588000m/h.</desc>
<speed>4.330000</speed>
</trkpt>
<trkpt lat="56.012650" lon="26.677097">
<ele>125.387756</ele>
<time>2010-06-20T12:56:47Z</time>
<desc>lat.=56.012650, lon.=26.677097, Alt.=125.387756m. Speed=14.328000m/h.</desc>
<speed>3.980000</speed>
</trkpt>
<trkpt lat="56.012611" lon="26.677113">
<ele>125.657288</ele>
<time>2010-06-20T12:56:48Z</time>
<desc>lat.=56.012611, lon.=26.677113, Alt.=125.657288m. Speed=15.444000m/h.</desc>
<speed>4.290000</speed>
</trkpt>
<trkpt lat="56.012558" lon="26.677113">
<ele>122.387756</ele>
<time>2010-06-20T12:56:49Z</time>
<desc>lat.=56.012558, lon.=26.677113, Alt.=122.387756m. Speed=16.920000m/h.</desc>
<speed>4.700000</speed>
</trkpt>
<trkpt lat="56.012512" lon="26.677122">
<ele>121.747131</ele>
<time>2010-06-20T12:56:50Z</time>
<desc>lat.=56.012512, lon.=26.677122, Alt.=121.747131m. Speed=16.200001m/h.</desc>
<speed>4.500000</speed>
</trkpt>
<trkpt lat="56.012482" lon="26.677139">
<ele>123.290100</ele>
<time>2010-06-20T12:56:51Z</time>
<desc>lat.=56.012482, lon.=26.677139, Alt.=123.290100m. Speed=14.724000m/h.</desc>
<speed>4.090000</speed>
</trkpt>
<trkpt lat="56.012451" lon="26.677160">
<ele>123.571350</ele>
<time>2010-06-20T12:56:52Z</time>
<desc>lat.=56.012451, lon.=26.677160, Alt.=123.571350m. Speed=14.184000m/h.</desc>
<speed>3.940000</speed>
</trkpt>
<trkpt lat="56.012413" lon="26.677181">
<ele>123.706116</ele>
<time>2010-06-20T12:56:53Z</time>
<desc>lat.=56.012413, lon.=26.677181, Alt.=123.706116m. Speed=15.696000m/h.</desc>
<speed>4.360000</speed>
</trkpt>
<trkpt lat="56.012379" lon="26.677193">
<ele>123.528381</ele>
<time>2010-06-20T12:56:54Z</time>
<desc>lat.=56.012379, lon.=26.677193, Alt.=123.528381m. Speed=13.896000m/h.</desc>
<speed>3.860000</speed>
</trkpt>
<trkpt lat="56.012341" lon="26.677206">
<ele>123.516663</ele>
<time>2010-06-20T12:56:55Z</time>
<desc>lat.=56.012341, lon.=26.677206, Alt.=123.516663m. Speed=15.876000m/h.</desc>
<speed>4.410000</speed>
</trkpt>
<trkpt lat="56.012306" lon="26.677216">
<ele>123.622131</ele>
<time>2010-06-20T12:56:56Z</time>
<desc>lat.=56.012306, lon.=26.677216, Alt.=123.622131m. Speed=14.940000m/h.</desc>
<speed>4.150000</speed>
</trkpt>
<trkpt lat="56.012268" lon="26.677225">
<ele>123.598694</ele>
<time>2010-06-20T12:56:57Z</time>
<desc>lat.=56.012268, lon.=26.677225, Alt.=123.598694m. Speed=14.652000m/h.</desc>
<speed>4.070000</speed>
</trkpt>
<trkpt lat="56.012234" lon="26.677235">
<ele>123.735413</ele>
<time>2010-06-20T12:56:58Z</time>
<desc>lat.=56.012234, lon.=26.677235, Alt.=123.735413m. Speed=13.860000m/h.</desc>
<speed>3.850000</speed>
</trkpt>
<trkpt lat="56.012199" lon="26.677235">
<ele>123.893616</ele>
<time>2010-06-20T12:56:59Z</time>
<desc>lat.=56.012199, lon.=26.677235, Alt.=123.893616m. Speed=13.068000m/h.</desc>
<speed>3.630000</speed>
</trkpt>
<trkpt lat="56.012177" lon="26.677242">
<ele>124.483459</ele>
<time>2010-06-20T12:57:00Z</time>
<desc>lat.=56.012177, lon.=26.677242, Alt.=124.483459m. Speed=11.304000m/h.</desc>
<speed>3.140000</speed>
</trkpt>
<trkpt lat="56.012146" lon="26.677252">
<ele>124.985413</ele>
<time>2010-06-20T12:57:01Z</time>
<desc>lat.=56.012146, lon.=26.677252, Alt.=124.985413m. Speed=12.744000m/h.</desc>
<speed>3.540000</speed>
</trkpt>
<trkpt lat="56.012108" lon="26.677267">
<ele>124.877991</ele>
<time>2010-06-20T12:57:02Z</time>
<desc>lat.=56.012108, lon.=26.677267, Alt.=124.877991m. Speed=14.832000m/h.</desc>
<speed>4.120000</speed>
</trkpt>
<trkpt lat="56.012074" lon="26.677284">
<ele>124.969788</ele>
<time>2010-06-20T12:57:03Z</time>
<desc>lat.=56.012074, lon.=26.677284, Alt.=124.969788m. Speed=14.328000m/h.</desc>
<speed>3.980000</speed>
</trkpt>
<trkpt lat="56.012039" lon="26.677296">
<ele>125.126038</ele>
<time>2010-06-20T12:57:04Z</time>
<desc>lat.=56.012039, lon.=26.677296, Alt.=125.126038m. Speed=13.968000m/h.</desc>
<speed>3.880000</speed>
</trkpt>
<trkpt lat="56.012009" lon="26.677307">
<ele>125.198303</ele>
<time>2010-06-20T12:57:05Z</time>
<desc>lat.=56.012009, lon.=26.677307, Alt.=125.198303m. Speed=13.392000m/h.</desc>
<speed>3.720000</speed>
</trkpt>
<trkpt lat="56.011974" lon="26.677324">
<ele>125.926819</ele>
<time>2010-06-20T12:57:06Z</time>
<desc>lat.=56.011974, lon.=26.677324, Alt.=125.926819m. Speed=13.680000m/h.</desc>
<speed>3.800000</speed>
</trkpt>
<trkpt lat="56.011944" lon="26.677336">
<ele>126.210022</ele>
<time>2010-06-20T12:57:07Z</time>
<desc>lat.=56.011944, lon.=26.677336, Alt.=126.210022m. Speed=15.048000m/h.</desc>
<speed>4.180000</speed>
</trkpt>
<trkpt lat="56.011906" lon="26.677351">
<ele>126.264709</ele>
<time>2010-06-20T12:57:08Z</time>
<desc>lat.=56.011906, lon.=26.677351, Alt.=126.264709m. Speed=14.868000m/h.</desc>
<speed>4.130000</speed>
</trkpt>
<trkpt lat="56.011868" lon="26.677368">
<ele>126.614319</ele>
<time>2010-06-20T12:57:09Z</time>
<desc>lat.=56.011868, lon.=26.677368, Alt.=126.614319m. Speed=14.904000m/h.</desc>
<speed>4.140000</speed>
</trkpt>
<trkpt lat="56.011829" lon="26.677382">
<ele>126.704163</ele>
<time>2010-06-20T12:57:10Z</time>
<desc>lat.=56.011829, lon.=26.677382, Alt.=126.704163m. Speed=15.588000m/h.</desc>
<speed>4.330000</speed>
</trkpt>
<trkpt lat="56.011787" lon="26.677393">
<ele>126.815491</ele>
<time>2010-06-20T12:57:11Z</time>
<desc>lat.=56.011787, lon.=26.677393, Alt.=126.815491m. Speed=15.552000m/h.</desc>
<speed>4.320000</speed>
</trkpt>
<trkpt lat="56.011749" lon="26.677410">
<ele>126.989319</ele>
<time>2010-06-20T12:57:12Z</time>
<desc>lat.=56.011749, lon.=26.677410, Alt.=126.989319m. Speed=15.012000m/h.</desc>
<speed>4.170000</speed>
</trkpt>
<trkpt lat="56.011711" lon="26.677427">
<ele>127.135803</ele>
<time>2010-06-20T12:57:13Z</time>
<desc>lat.=56.011711, lon.=26.677427, Alt.=127.135803m. Speed=14.544000m/h.</desc>
<speed>4.040000</speed>
</trkpt>
<trkpt lat="56.011677" lon="26.677444">
<ele>127.231506</ele>
<time>2010-06-20T12:57:14Z</time>
<desc>lat.=56.011677, lon.=26.677444, Alt.=127.231506m. Speed=14.256000m/h.</desc>
<speed>3.960000</speed>
</trkpt>
<trkpt lat="56.011639" lon="26.677452">
<ele>127.278381</ele>
<time>2010-06-20T12:57:15Z</time>
<desc>lat.=56.011639, lon.=26.677452, Alt.=127.278381m. Speed=15.048000m/h.</desc>
<speed>4.180000</speed>
</trkpt>
<trkpt lat="56.011604" lon="26.677465">
<ele>127.602600</ele>
<time>2010-06-20T12:57:16Z</time>
<desc>lat.=56.011604, lon.=26.677465, Alt.=127.602600m. Speed=16.164000m/h.</desc>
<speed>4.490000</speed>
</trkpt>
<trkpt lat="56.011562" lon="26.677475">
<ele>127.592834</ele>
<time>2010-06-20T12:57:17Z</time>
<desc>lat.=56.011562, lon.=26.677475, Alt.=127.592834m. Speed=16.200001m/h.</desc>
<speed>4.500000</speed>
</trkpt>
<trkpt lat="56.011524" lon="26.677485">
<ele>127.846741</ele>
<time>2010-06-20T12:57:18Z</time>
<desc>lat.=56.011524, lon.=26.677485, Alt.=127.846741m. Speed=16.128000m/h.</desc>
<speed>4.480000</speed>
</trkpt>
<trkpt lat="56.011486" lon="26.677496">
<ele>128.193481</ele>
<time>2010-06-20T12:57:19Z</time>
<desc>lat.=56.011486, lon.=26.677496, Alt.=128.193481m. Speed=16.056000m/h.</desc>
<speed>4.460000</speed>
</trkpt>
<trkpt lat="56.011444" lon="26.677515">
<ele>128.041138</ele>
<time>2010-06-20T12:57:20Z</time>
<desc>lat.=56.011444, lon.=26.677515, Alt.=128.041138m. Speed=16.344000m/h.</desc>
<speed>4.540000</speed>
</trkpt>
<trkpt lat="56.011406" lon="26.677536">
<ele>128.127075</ele>
<time>2010-06-20T12:57:21Z</time>
<desc>lat.=56.011406, lon.=26.677536, Alt.=128.127075m. Speed=16.200001m/h.</desc>
<speed>4.500000</speed>
</trkpt>
<trkpt lat="56.011372" lon="26.677551">
<ele>128.052856</ele>
<time>2010-06-20T12:57:22Z</time>
<desc>lat.=56.011372, lon.=26.677551, Alt.=128.052856m. Speed=15.876000m/h.</desc>
<speed>4.410000</speed>
</trkpt>
<trkpt lat="56.011330" lon="26.677565">
<ele>128.029419</ele>
<time>2010-06-20T12:57:23Z</time>
<desc>lat.=56.011330, lon.=26.677565, Alt.=128.029419m. Speed=15.840000m/h.</desc>
<speed>4.400000</speed>
</trkpt>
<trkpt lat="56.011295" lon="26.677584">
<ele>128.084106</ele>
<time>2010-06-20T12:57:24Z</time>
<desc>lat.=56.011295, lon.=26.677584, Alt.=128.084106m. Speed=16.524000m/h.</desc>
<speed>4.590000</speed>
</trkpt>
<trkpt lat="56.011253" lon="26.677605">
<ele>128.130981</ele>
<time>2010-06-20T12:57:25Z</time>
<desc>lat.=56.011253, lon.=26.677605, Alt.=128.130981m. Speed=16.704000m/h.</desc>
<speed>4.640000</speed>
</trkpt>
<trkpt lat="56.011211" lon="26.677620">
<ele>128.224731</ele>
<time>2010-06-20T12:57:26Z</time>
<desc>lat.=56.011211, lon.=26.677620, Alt.=128.224731m. Speed=16.308001m/h.</desc>
<speed>4.530000</speed>
</trkpt>
<trkpt lat="56.011169" lon="26.677637">
<ele>128.345825</ele>
<time>2010-06-20T12:57:27Z</time>
<desc>lat.=56.011169, lon.=26.677637, Alt.=128.345825m. Speed=16.056000m/h.</desc>
<speed>4.460000</speed>
</trkpt>
<trkpt lat="56.011131" lon="26.677654">
<ele>128.490356</ele>
<time>2010-06-20T12:57:28Z</time>
<desc>lat.=56.011131, lon.=26.677654, Alt.=128.490356m. Speed=15.552000m/h.</desc>
<speed>4.320000</speed>
</trkpt>
<trkpt lat="56.011093" lon="26.677666">
<ele>128.513794</ele>
<time>2010-06-20T12:57:29Z</time>
<desc>lat.=56.011093, lon.=26.677666, Alt.=128.513794m. Speed=15.516000m/h.</desc>
<speed>4.310000</speed>
</trkpt>
<trkpt lat="56.011059" lon="26.677683">
<ele>128.810669</ele>
<time>2010-06-20T12:57:30Z</time>
<desc>lat.=56.011059, lon.=26.677683, Alt.=128.810669m. Speed=14.760000m/h.</desc>
<speed>4.100000</speed>
</trkpt>
<trkpt lat="56.011021" lon="26.677698">
<ele>129.005981</ele>
<time>2010-06-20T12:57:31Z</time>
<desc>lat.=56.011021, lon.=26.677698, Alt.=129.005981m. Speed=14.436000m/h.</desc>
<speed>4.010000</speed>
</trkpt>
<trkpt lat="56.010986" lon="26.677711">
<ele>129.244263</ele>
<time>2010-06-20T12:57:32Z</time>
<desc>lat.=56.010986, lon.=26.677711, Alt.=129.244263m. Speed=14.868000m/h.</desc>
<speed>4.130000</speed>
</trkpt>
<trkpt lat="56.010948" lon="26.677725">
<ele>129.310669</ele>
<time>2010-06-20T12:57:33Z</time>
<desc>lat.=56.010948, lon.=26.677725, Alt.=129.310669m. Speed=14.940000m/h.</desc>
<speed>4.150000</speed>
</trkpt>
<trkpt lat="56.010914" lon="26.677738">
<ele>129.185669</ele>
<time>2010-06-20T12:57:34Z</time>
<desc>lat.=56.010914, lon.=26.677738, Alt.=129.185669m. Speed=14.688000m/h.</desc>
<speed>4.080000</speed>
</trkpt>
<trkpt lat="56.010880" lon="26.677752">
<ele>129.142700</ele>
<time>2010-06-20T12:57:35Z</time>
<desc>lat.=56.010880, lon.=26.677752, Alt.=129.142700m. Speed=14.220000m/h.</desc>
<speed>3.950000</speed>
</trkpt>
<trkpt lat="56.010845" lon="26.677761">
<ele>129.201294</ele>
<time>2010-06-20T12:57:36Z</time>
<desc>lat.=56.010845, lon.=26.677761, Alt.=129.201294m. Speed=13.608000m/h.</desc>
<speed>3.780000</speed>
</trkpt>
<trkpt lat="56.010815" lon="26.677773">
<ele>129.041138</ele>
<time>2010-06-20T12:57:37Z</time>
<desc>lat.=56.010815, lon.=26.677773, Alt.=129.041138m. Speed=14.328000m/h.</desc>
<speed>3.980000</speed>
</trkpt>
<trkpt lat="56.010780" lon="26.677784">
<ele>128.974731</ele>
<time>2010-06-20T12:57:38Z</time>
<desc>lat.=56.010780, lon.=26.677784, Alt.=128.974731m. Speed=14.364000m/h.</desc>
<speed>3.990000</speed>
</trkpt>
<trkpt lat="56.010742" lon="26.677799">
<ele>129.045044</ele>
<time>2010-06-20T12:57:39Z</time>
<desc>lat.=56.010742, lon.=26.677799, Alt.=129.045044m. Speed=16.200001m/h.</desc>
<speed>4.500000</speed>
</trkpt>
<trkpt lat="56.010704" lon="26.677816">
<ele>129.064575</ele>
<time>2010-06-20T12:57:40Z</time>
<desc>lat.=56.010704, lon.=26.677816, Alt.=129.064575m. Speed=16.020000m/h.</desc>
<speed>4.450000</speed>
</trkpt>
<trkpt lat="56.010662" lon="26.677830">
<ele>129.056763</ele>
<time>2010-06-20T12:57:41Z</time>
<desc>lat.=56.010662, lon.=26.677830, Alt.=129.056763m. Speed=15.408000m/h.</desc>
<speed>4.280000</speed>
</trkpt>
<trkpt lat="56.010628" lon="26.677843">
<ele>129.037231</ele>
<time>2010-06-20T12:57:42Z</time>
<desc>lat.=56.010628, lon.=26.677843, Alt.=129.037231m. Speed=15.228000m/h.</desc>
<speed>4.230000</speed>
</trkpt>
<trkpt lat="56.010590" lon="26.677856">
<ele>129.123169</ele>
<time>2010-06-20T12:57:43Z</time>
<desc>lat.=56.010590, lon.=26.677856, Alt.=129.123169m. Speed=15.984000m/h.</desc>
<speed>4.440000</speed>
</trkpt>
<trkpt lat="56.010551" lon="26.677874">
<ele>129.084106</ele>
<time>2010-06-20T12:57:44Z</time>
<desc>lat.=56.010551, lon.=26.677874, Alt.=129.084106m. Speed=16.416000m/h.</desc>
<speed>4.560000</speed>
</trkpt>
<trkpt lat="56.010509" lon="26.677885">
<ele>129.056763</ele>
<time>2010-06-20T12:57:45Z</time>
<desc>lat.=56.010509, lon.=26.677885, Alt.=129.056763m. Speed=15.948000m/h.</desc>
<speed>4.430000</speed>
</trkpt>
<trkpt lat="56.010471" lon="26.677900">
<ele>129.025513</ele>
<time>2010-06-20T12:57:46Z</time>
<desc>lat.=56.010471, lon.=26.677900, Alt.=129.025513m. Speed=15.516000m/h.</desc>
<speed>4.310000</speed>
</trkpt>
<trkpt lat="56.010437" lon="26.677917">
<ele>129.103638</ele>
<time>2010-06-20T12:57:47Z</time>
<desc>lat.=56.010437, lon.=26.677917, Alt.=129.103638m. Speed=14.724000m/h.</desc>
<speed>4.090000</speed>
</trkpt>
<trkpt lat="56.010403" lon="26.677937">
<ele>128.916138</ele>
<time>2010-06-20T12:57:48Z</time>
<desc>lat.=56.010403, lon.=26.677937, Alt.=128.916138m. Speed=14.796000m/h.</desc>
<speed>4.110000</speed>
</trkpt>
<trkpt lat="56.010365" lon="26.677952">
<ele>128.970825</ele>
<time>2010-06-20T12:57:49Z</time>
<desc>lat.=56.010365, lon.=26.677952, Alt.=128.970825m. Speed=15.516000m/h.</desc>
<speed>4.310000</speed>
</trkpt>
<trkpt lat="56.010326" lon="26.677965">
<ele>128.998169</ele>
<time>2010-06-20T12:57:50Z</time>
<desc>lat.=56.010326, lon.=26.677965, Alt.=128.998169m. Speed=15.660000m/h.</desc>
<speed>4.350000</speed>
</trkpt>
<trkpt lat="56.010288" lon="26.677979">
<ele>129.048950</ele>
<time>2010-06-20T12:57:51Z</time>
<desc>lat.=56.010288, lon.=26.677979, Alt.=129.048950m. Speed=15.552000m/h.</desc>
<speed>4.320000</speed>
</trkpt>
<trkpt lat="56.010254" lon="26.677996">
<ele>128.986450</ele>
<time>2010-06-20T12:57:52Z</time>
<desc>lat.=56.010254, lon.=26.677996, Alt.=128.986450m. Speed=15.372000m/h.</desc>
<speed>4.270000</speed>
</trkpt>
<trkpt lat="56.010216" lon="26.678013">
<ele>128.865356</ele>
<time>2010-06-20T12:57:53Z</time>
<desc>lat.=56.010216, lon.=26.678013, Alt.=128.865356m. Speed=15.156000m/h.</desc>
<speed>4.210000</speed>
</trkpt>
<trkpt lat="56.010181" lon="26.678024">
<ele>128.681763</ele>
<time>2010-06-20T12:57:54Z</time>
<desc>lat.=56.010181, lon.=26.678024, Alt.=128.681763m. Speed=13.176000m/h.</desc>
<speed>3.660000</speed>
</trkpt>
<trkpt lat="56.010147" lon="26.678036">
<ele>128.564575</ele>
<time>2010-06-20T12:57:55Z</time>
<desc>lat.=56.010147, lon.=26.678036, Alt.=128.564575m. Speed=14.256000m/h.</desc>
<speed>3.960000</speed>
</trkpt>
<trkpt lat="56.010117" lon="26.678049">
<ele>128.591919</ele>
<time>2010-06-20T12:57:56Z</time>
<desc>lat.=56.010117, lon.=26.678049, Alt.=128.591919m. Speed=13.716000m/h.</desc>
<speed>3.810000</speed>
</trkpt>
<trkpt lat="56.010086" lon="26.678062">
<ele>128.556763</ele>
<time>2010-06-20T12:57:57Z</time>
<desc>lat.=56.010086, lon.=26.678062, Alt.=128.556763m. Speed=13.500000m/h.</desc>
<speed>3.750000</speed>
</trkpt>
<trkpt lat="56.010052" lon="26.678072">
<ele>128.588013</ele>
<time>2010-06-20T12:57:58Z</time>
<desc>lat.=56.010052, lon.=26.678072, Alt.=128.588013m. Speed=13.428000m/h.</desc>
<speed>3.730000</speed>
</trkpt>
<trkpt lat="56.010017" lon="26.678080">
<ele>128.654419</ele>
<time>2010-06-20T12:57:59Z</time>
<desc>lat.=56.010017, lon.=26.678080, Alt.=128.654419m. Speed=14.760000m/h.</desc>
<speed>4.100000</speed>
</trkpt>
<trkpt lat="56.009983" lon="26.678099">
<ele>128.240356</ele>
<time>2010-06-20T12:58:00Z</time>
<desc>lat.=56.009983, lon.=26.678099, Alt.=128.240356m. Speed=15.948000m/h.</desc>
<speed>4.430000</speed>
</trkpt>
<trkpt lat="56.009941" lon="26.678118">
<ele>128.146606</ele>
<time>2010-06-20T12:58:01Z</time>
<desc>lat.=56.009941, lon.=26.678118, Alt.=128.146606m. Speed=16.128000m/h.</desc>
<speed>4.480000</speed>
</trkpt>
<trkpt lat="56.009899" lon="26.678133">
<ele>128.263794</ele>
<time>2010-06-20T12:58:02Z</time>
<desc>lat.=56.009899, lon.=26.678133, Alt.=128.263794m. Speed=16.632000m/h.</desc>
<speed>4.620000</speed>
</trkpt>
<trkpt lat="56.009857" lon="26.678146">
<ele>128.177856</ele>
<time>2010-06-20T12:58:03Z</time>
<desc>lat.=56.009857, lon.=26.678146, Alt.=128.177856m. Speed=16.524000m/h.</desc>
<speed>4.590000</speed>
</trkpt>
<trkpt lat="56.009819" lon="26.678162">
<ele>128.045044</ele>
<time>2010-06-20T12:58:04Z</time>
<desc>lat.=56.009819, lon.=26.678162, Alt.=128.045044m. Speed=16.775999m/h.</desc>
<speed>4.660000</speed>
</trkpt>
<trkpt lat="56.009773" lon="26.678179">
<ele>128.107544</ele>
<time>2010-06-20T12:58:05Z</time>
<desc>lat.=56.009773, lon.=26.678179, Alt.=128.107544m. Speed=16.920000m/h.</desc>
<speed>4.700000</speed>
</trkpt>
<trkpt lat="56.009731" lon="26.678196">
<ele>127.647522</ele>
<time>2010-06-20T12:58:06Z</time>
<desc>lat.=56.009731, lon.=26.678196, Alt.=127.647522m. Speed=17.063999m/h.</desc>
<speed>4.740000</speed>
</trkpt>
<trkpt lat="56.009689" lon="26.678221">
<ele>128.009888</ele>
<time>2010-06-20T12:58:07Z</time>
<desc>lat.=56.009689, lon.=26.678221, Alt.=128.009888m. Speed=16.884001m/h.</desc>
<speed>4.690000</speed>
</trkpt>
<trkpt lat="56.009644" lon="26.678242">
<ele>127.979553</ele>
<time>2010-06-20T12:58:08Z</time>
<desc>lat.=56.009644, lon.=26.678242, Alt.=127.979553m. Speed=18.360001m/h.</desc>
<speed>5.100000</speed>
</trkpt>
<trkpt lat="56.009598" lon="26.678267">
<ele>127.786194</ele>
<time>2010-06-20T12:58:09Z</time>
<desc>lat.=56.009598, lon.=26.678267, Alt.=127.786194m. Speed=18.360001m/h.</desc>
<speed>5.100000</speed>
</trkpt>
<trkpt lat="56.009556" lon="26.678286">
<ele>127.741272</ele>
<time>2010-06-20T12:58:10Z</time>
<desc>lat.=56.009556, lon.=26.678286, Alt.=127.741272m. Speed=18.143999m/h.</desc>
<speed>5.040000</speed>
</trkpt>
<trkpt lat="56.009510" lon="26.678303">
<ele>127.551819</ele>
<time>2010-06-20T12:58:11Z</time>
<desc>lat.=56.009510, lon.=26.678303, Alt.=127.551819m. Speed=18.180000m/h.</desc>
<speed>5.050000</speed>
</trkpt>
<trkpt lat="56.009468" lon="26.678318">
<ele>127.192444</ele>
<time>2010-06-20T12:58:12Z</time>
<desc>lat.=56.009468, lon.=26.678318, Alt.=127.192444m. Speed=18.360001m/h.</desc>
<speed>5.100000</speed>
</trkpt>
<trkpt lat="56.009422" lon="26.678339">
<ele>127.026428</ele>
<time>2010-06-20T12:58:13Z</time>
<desc>lat.=56.009422, lon.=26.678339, Alt.=127.026428m. Speed=18.252001m/h.</desc>
<speed>5.070000</speed>
</trkpt>
<trkpt lat="56.009380" lon="26.678364">
<ele>127.174866</ele>
<time>2010-06-20T12:58:14Z</time>
<desc>lat.=56.009380, lon.=26.678364, Alt.=127.174866m. Speed=18.000000m/h.</desc>
<speed>5.000000</speed>
</trkpt>
<trkpt lat="56.009338" lon="26.678383">
<ele>127.149475</ele>
<time>2010-06-20T12:58:15Z</time>
<desc>lat.=56.009338, lon.=26.678383, Alt.=127.149475m. Speed=17.351999m/h.</desc>
<speed>4.820000</speed>
</trkpt>
<trkpt lat="56.009296" lon="26.678398">
<ele>126.909241</ele>
<time>2010-06-20T12:58:16Z</time>
<desc>lat.=56.009296, lon.=26.678398, Alt.=126.909241m. Speed=16.596001m/h.</desc>
<speed>4.610000</speed>
</trkpt>
<trkpt lat="56.009258" lon="26.678415">
<ele>126.764709</ele>
<time>2010-06-20T12:58:17Z</time>
<desc>lat.=56.009258, lon.=26.678415, Alt.=126.764709m. Speed=15.660000m/h.</desc>
<speed>4.350000</speed>
</trkpt>
<trkpt lat="56.009220" lon="26.678431">
<ele>126.710022</ele>
<time>2010-06-20T12:58:18Z</time>
<desc>lat.=56.009220, lon.=26.678431, Alt.=126.710022m. Speed=16.271999m/h.</desc>
<speed>4.520000</speed>
</trkpt>
<trkpt lat="56.009178" lon="26.678448">
<ele>126.762756</ele>
<time>2010-06-20T12:58:19Z</time>
<desc>lat.=56.009178, lon.=26.678448, Alt.=126.762756m. Speed=16.812000m/h.</desc>
<speed>4.670000</speed>
</trkpt>
<trkpt lat="56.009132" lon="26.678469">
<ele>127.036194</ele>
<time>2010-06-20T12:58:20Z</time>
<desc>lat.=56.009132, lon.=26.678469, Alt.=127.036194m. Speed=17.280001m/h.</desc>
<speed>4.800000</speed>
</trkpt>
<trkpt lat="56.009090" lon="26.678493">
<ele>127.100647</ele>
<time>2010-06-20T12:58:21Z</time>
<desc>lat.=56.009090, lon.=26.678493, Alt.=127.100647m. Speed=17.747999m/h.</desc>
<speed>4.930000</speed>
</trkpt>
<trkpt lat="56.009048" lon="26.678514">
<ele>127.192444</ele>
<time>2010-06-20T12:58:22Z</time>
<desc>lat.=56.009048, lon.=26.678514, Alt.=127.192444m. Speed=18.323999m/h.</desc>
<speed>5.090000</speed>
</trkpt>
<trkpt lat="56.009003" lon="26.678535">
<ele>127.254944</ele>
<time>2010-06-20T12:58:23Z</time>
<desc>lat.=56.009003, lon.=26.678535, Alt.=127.254944m. Speed=19.403999m/h.</desc>
<speed>5.390000</speed>
</trkpt>
<trkpt lat="56.008953" lon="26.678556">
<ele>127.391663</ele>
<time>2010-06-20T12:58:24Z</time>
<desc>lat.=56.008953, lon.=26.678556, Alt.=127.391663m. Speed=20.304001m/h.</desc>
<speed>5.640000</speed>
</trkpt>
<trkpt lat="56.008904" lon="26.678579">
<ele>127.518616</ele>
<time>2010-06-20T12:58:25Z</time>
<desc>lat.=56.008904, lon.=26.678579, Alt.=127.518616m. Speed=19.980000m/h.</desc>
<speed>5.550000</speed>
</trkpt>
<trkpt lat="56.008854" lon="26.678598">
<ele>127.577209</ele>
<time>2010-06-20T12:58:26Z</time>
<desc>lat.=56.008854, lon.=26.678598, Alt.=127.577209m. Speed=19.548000m/h.</desc>
<speed>5.430000</speed>
</trkpt>
<trkpt lat="56.008808" lon="26.678617">
<ele>127.678772</ele>
<time>2010-06-20T12:58:27Z</time>
<desc>lat.=56.008808, lon.=26.678617, Alt.=127.678772m. Speed=19.080000m/h.</desc>
<speed>5.300000</speed>
</trkpt>
<trkpt lat="56.008762" lon="26.678638">
<ele>127.715881</ele>
<time>2010-06-20T12:58:28Z</time>
<desc>lat.=56.008762, lon.=26.678638, Alt.=127.715881m. Speed=18.360001m/h.</desc>
<speed>5.100000</speed>
</trkpt>
<trkpt lat="56.008717" lon="26.678658">
<ele>127.821350</ele>
<time>2010-06-20T12:58:29Z</time>
<desc>lat.=56.008717, lon.=26.678658, Alt.=127.821350m. Speed=17.927999m/h.</desc>
<speed>4.980000</speed>
</trkpt>
<trkpt lat="56.008675" lon="26.678677">
<ele>127.913147</ele>
<time>2010-06-20T12:58:30Z</time>
<desc>lat.=56.008675, lon.=26.678677, Alt.=127.913147m. Speed=17.459999m/h.</desc>
<speed>4.850000</speed>
</trkpt>
<trkpt lat="56.008629" lon="26.678698">
<ele>127.989319</ele>
<time>2010-06-20T12:58:31Z</time>
<desc>lat.=56.008629, lon.=26.678698, Alt.=127.989319m. Speed=16.920000m/h.</desc>
<speed>4.700000</speed>
</trkpt>
<trkpt lat="56.008591" lon="26.678715">
<ele>128.029419</ele>
<time>2010-06-20T12:58:32Z</time>
<desc>lat.=56.008591, lon.=26.678715, Alt.=128.029419m. Speed=16.200001m/h.</desc>
<speed>4.500000</speed>
</trkpt>
<trkpt lat="56.008553" lon="26.678734">
<ele>128.130981</ele>
<time>2010-06-20T12:58:33Z</time>
<desc>lat.=56.008553, lon.=26.678734, Alt.=128.130981m. Speed=15.948000m/h.</desc>
<speed>4.430000</speed>
</trkpt>
<trkpt lat="56.008514" lon="26.678753">
<ele>128.170044</ele>
<time>2010-06-20T12:58:34Z</time>
<desc>lat.=56.008514, lon.=26.678753, Alt.=128.170044m. Speed=16.488001m/h.</desc>
<speed>4.580000</speed>
</trkpt>
<trkpt lat="56.008472" lon="26.678772">
<ele>128.244263</ele>
<time>2010-06-20T12:58:35Z</time>
<desc>lat.=56.008472, lon.=26.678772, Alt.=128.244263m. Speed=17.388000m/h.</desc>
<speed>4.830000</speed>
</trkpt>
<trkpt lat="56.008430" lon="26.678793">
<ele>128.166138</ele>
<time>2010-06-20T12:58:36Z</time>
<desc>lat.=56.008430, lon.=26.678793, Alt.=128.166138m. Speed=17.136000m/h.</desc>
<speed>4.760000</speed>
</trkpt>
<trkpt lat="56.008392" lon="26.678816">
<ele>128.088013</ele>
<time>2010-06-20T12:58:37Z</time>
<desc>lat.=56.008392, lon.=26.678816, Alt.=128.088013m. Speed=16.848000m/h.</desc>
<speed>4.680000</speed>
</trkpt>
<trkpt lat="56.008354" lon="26.678833">
<ele>128.064575</ele>
<time>2010-06-20T12:58:38Z</time>
<desc>lat.=56.008354, lon.=26.678833, Alt.=128.064575m. Speed=16.379999m/h.</desc>
<speed>4.550000</speed>
</trkpt>
<trkpt lat="56.008316" lon="26.678854">
<ele>128.123169</ele>
<time>2010-06-20T12:58:39Z</time>
<desc>lat.=56.008316, lon.=26.678854, Alt.=128.123169m. Speed=15.912000m/h.</desc>
<speed>4.420000</speed>
</trkpt>
<trkpt lat="56.008278" lon="26.678875">
<ele>128.654419</ele>
<time>2010-06-20T12:58:40Z</time>
<desc>lat.=56.008278, lon.=26.678875, Alt.=128.654419m. Speed=15.264000m/h.</desc>
<speed>4.240000</speed>
</trkpt>
<trkpt lat="56.008240" lon="26.678894">
<ele>128.697388</ele>
<time>2010-06-20T12:58:41Z</time>
<desc>lat.=56.008240, lon.=26.678894, Alt.=128.697388m. Speed=15.840000m/h.</desc>
<speed>4.400000</speed>
</trkpt>
<trkpt lat="56.008202" lon="26.678915">
<ele>128.787231</ele>
<time>2010-06-20T12:58:42Z</time>
<desc>lat.=56.008202, lon.=26.678915, Alt.=128.787231m. Speed=16.775999m/h.</desc>
<speed>4.660000</speed>
</trkpt>
<trkpt lat="56.008163" lon="26.678940">
<ele>128.646606</ele>
<time>2010-06-20T12:58:43Z</time>
<desc>lat.=56.008163, lon.=26.678940, Alt.=128.646606m. Speed=17.459999m/h.</desc>
<speed>4.850000</speed>
</trkpt>
<trkpt lat="56.008125" lon="26.678970">
<ele>128.576294</ele>
<time>2010-06-20T12:58:44Z</time>
<desc>lat.=56.008125, lon.=26.678970, Alt.=128.576294m. Speed=16.775999m/h.</desc>
<speed>4.660000</speed>
</trkpt>
<trkpt lat="56.008087" lon="26.679003">
<ele>128.505981</ele>
<time>2010-06-20T12:58:45Z</time>
<desc>lat.=56.008087, lon.=26.679003, Alt.=128.505981m. Speed=16.812000m/h.</desc>
<speed>4.670000</speed>
</trkpt>
<trkpt lat="56.008049" lon="26.679035">
<ele>128.627075</ele>
<time>2010-06-20T12:58:46Z</time>
<desc>lat.=56.008049, lon.=26.679035, Alt.=128.627075m. Speed=16.164000m/h.</desc>
<speed>4.490000</speed>
</trkpt>
<trkpt lat="56.008018" lon="26.679070">
<ele>128.560669</ele>
<time>2010-06-20T12:58:47Z</time>
<desc>lat.=56.008018, lon.=26.679070, Alt.=128.560669m. Speed=14.760000m/h.</desc>
<speed>4.100000</speed>
</trkpt>
<trkpt lat="56.007984" lon="26.679104">
<ele>128.494263</ele>
<time>2010-06-20T12:58:48Z</time>
<desc>lat.=56.007984, lon.=26.679104, Alt.=128.494263m. Speed=14.796000m/h.</desc>
<speed>4.110000</speed>
</trkpt>
<trkpt lat="56.007954" lon="26.679138">
<ele>128.752075</ele>
<time>2010-06-20T12:58:49Z</time>
<desc>lat.=56.007954, lon.=26.679138, Alt.=128.752075m. Speed=14.436000m/h.</desc>
<speed>4.010000</speed>
</trkpt>
<trkpt lat="56.007923" lon="26.679176">
<ele>129.088013</ele>
<time>2010-06-20T12:58:50Z</time>
<desc>lat.=56.007923, lon.=26.679176, Alt.=129.088013m. Speed=14.220000m/h.</desc>
<speed>3.950000</speed>
</trkpt>
<trkpt lat="56.007896" lon="26.679216">
<ele>129.357544</ele>
<time>2010-06-20T12:58:51Z</time>
<desc>lat.=56.007896, lon.=26.679216, Alt.=129.357544m. Speed=15.192000m/h.</desc>
<speed>4.220000</speed>
</trkpt>
<trkpt lat="56.007862" lon="26.679258">
<ele>129.298950</ele>
<time>2010-06-20T12:58:52Z</time>
<desc>lat.=56.007862, lon.=26.679258, Alt.=129.298950m. Speed=16.416000m/h.</desc>
<speed>4.560000</speed>
</trkpt>
<trkpt lat="56.007832" lon="26.679300">
<ele>129.373169</ele>
<time>2010-06-20T12:58:53Z</time>
<desc>lat.=56.007832, lon.=26.679300, Alt.=129.373169m. Speed=16.452000m/h.</desc>
<speed>4.570000</speed>
</trkpt>
<trkpt lat="56.007797" lon="26.679338">
<ele>129.416138</ele>
<time>2010-06-20T12:58:54Z</time>
<desc>lat.=56.007797, lon.=26.679338, Alt.=129.416138m. Speed=16.740000m/h.</desc>
<speed>4.650000</speed>
</trkpt>
<trkpt lat="56.007759" lon="26.679382">
<ele>129.545044</ele>
<time>2010-06-20T12:58:55Z</time>
<desc>lat.=56.007759, lon.=26.679382, Alt.=129.545044m. Speed=16.848000m/h.</desc>
<speed>4.680000</speed>
</trkpt>
<trkpt lat="56.007729" lon="26.679426">
<ele>129.334106</ele>
<time>2010-06-20T12:58:56Z</time>
<desc>lat.=56.007729, lon.=26.679426, Alt.=129.334106m. Speed=16.488001m/h.</desc>
<speed>4.580000</speed>
</trkpt>
<trkpt lat="56.007698" lon="26.679474">
<ele>129.146606</ele>
<time>2010-06-20T12:58:57Z</time>
<desc>lat.=56.007698, lon.=26.679474, Alt.=129.146606m. Speed=16.884001m/h.</desc>
<speed>4.690000</speed>
</trkpt>
<trkpt lat="56.007668" lon="26.679522">
<ele>129.021606</ele>
<time>2010-06-20T12:58:58Z</time>
<desc>lat.=56.007668, lon.=26.679522, Alt.=129.021606m. Speed=17.604000m/h.</desc>
<speed>4.890000</speed>
</trkpt>
<trkpt lat="56.007637" lon="26.679575">
<ele>129.072388</ele>
<time>2010-06-20T12:58:59Z</time>
<desc>lat.=56.007637, lon.=26.679575, Alt.=129.072388m. Speed=17.316000m/h.</desc>
<speed>4.810000</speed>
</trkpt>
<trkpt lat="56.007610" lon="26.679628">
<ele>129.052856</ele>
<time>2010-06-20T12:59:00Z</time>
<desc>lat.=56.007610, lon.=26.679628, Alt.=129.052856m. Speed=16.379999m/h.</desc>
<speed>4.550000</speed>
</trkpt>
<trkpt lat="56.007580" lon="26.679674">
<ele>128.947388</ele>
<time>2010-06-20T12:59:01Z</time>
<desc>lat.=56.007580, lon.=26.679674, Alt.=128.947388m. Speed=15.264000m/h.</desc>
<speed>4.240000</speed>
</trkpt>
<trkpt lat="56.007553" lon="26.679720">
<ele>128.795044</ele>
<time>2010-06-20T12:59:02Z</time>
<desc>lat.=56.007553, lon.=26.679720, Alt.=128.795044m. Speed=15.228000m/h.</desc>
<speed>4.230000</speed>
</trkpt>
<trkpt lat="56.007526" lon="26.679766">
<ele>128.685669</ele>
<time>2010-06-20T12:59:03Z</time>
<desc>lat.=56.007526, lon.=26.679766, Alt.=128.685669m. Speed=14.940000m/h.</desc>
<speed>4.150000</speed>
</trkpt>
<trkpt lat="56.007500" lon="26.679813">
<ele>128.783325</ele>
<time>2010-06-20T12:59:04Z</time>
<desc>lat.=56.007500, lon.=26.679813, Alt.=128.783325m. Speed=13.860000m/h.</desc>
<speed>3.850000</speed>
</trkpt>
<trkpt lat="56.007477" lon="26.679857">
<ele>128.900513</ele>
<time>2010-06-20T12:59:05Z</time>
<desc>lat.=56.007477, lon.=26.679857, Alt.=128.900513m. Speed=13.968000m/h.</desc>
<speed>3.880000</speed>
</trkpt>
<trkpt lat="56.007450" lon="26.679901">
<ele>128.990356</ele>
<time>2010-06-20T12:59:06Z</time>
<desc>lat.=56.007450, lon.=26.679901, Alt.=128.990356m. Speed=14.508000m/h.</desc>
<speed>4.030000</speed>
</trkpt>
<trkpt lat="56.007423" lon="26.679947">
<ele>129.064575</ele>
<time>2010-06-20T12:59:07Z</time>
<desc>lat.=56.007423, lon.=26.679947, Alt.=129.064575m. Speed=14.832000m/h.</desc>
<speed>4.120000</speed>
</trkpt>
<trkpt lat="56.007397" lon="26.679996">
<ele>129.072388</ele>
<time>2010-06-20T12:59:08Z</time>
<desc>lat.=56.007397, lon.=26.679996, Alt.=129.072388m. Speed=15.264000m/h.</desc>
<speed>4.240000</speed>
</trkpt>
<trkpt lat="56.007370" lon="26.680044">
<ele>129.091919</ele>
<time>2010-06-20T12:59:09Z</time>
<desc>lat.=56.007370, lon.=26.680044, Alt.=129.091919m. Speed=15.300000m/h.</desc>
<speed>4.250000</speed>
</trkpt>
<trkpt lat="56.007339" lon="26.680094">
<ele>129.041138</ele>
<time>2010-06-20T12:59:10Z</time>
<desc>lat.=56.007339, lon.=26.680094, Alt.=129.041138m. Speed=15.660000m/h.</desc>
<speed>4.350000</speed>
</trkpt>
<trkpt lat="56.007309" lon="26.680143">
<ele>129.095825</ele>
<time>2010-06-20T12:59:11Z</time>
<desc>lat.=56.007309, lon.=26.680143, Alt.=129.095825m. Speed=15.912000m/h.</desc>
<speed>4.420000</speed>
</trkpt>
<trkpt lat="56.007278" lon="26.680197">
<ele>129.314575</ele>
<time>2010-06-20T12:59:12Z</time>
<desc>lat.=56.007278, lon.=26.680197, Alt.=129.314575m. Speed=16.488001m/h.</desc>
<speed>4.580000</speed>
</trkpt>
<trkpt lat="56.007248" lon="26.680250">
<ele>129.423950</ele>
<time>2010-06-20T12:59:13Z</time>
<desc>lat.=56.007248, lon.=26.680250, Alt.=129.423950m. Speed=16.920000m/h.</desc>
<speed>4.700000</speed>
</trkpt>
<trkpt lat="56.007214" lon="26.680304">
<ele>129.463013</ele>
<time>2010-06-20T12:59:14Z</time>
<desc>lat.=56.007214, lon.=26.680304, Alt.=129.463013m. Speed=17.208000m/h.</desc>
<speed>4.780000</speed>
</trkpt>
<trkpt lat="56.007179" lon="26.680359">
<ele>129.630981</ele>
<time>2010-06-20T12:59:15Z</time>
<desc>lat.=56.007179, lon.=26.680359, Alt.=129.630981m. Speed=17.568001m/h.</desc>
<speed>4.880000</speed>
</trkpt>
<trkpt lat="56.007149" lon="26.680418">
<ele>129.771606</ele>
<time>2010-06-20T12:59:16Z</time>
<desc>lat.=56.007149, lon.=26.680418, Alt.=129.771606m. Speed=17.856001m/h.</desc>
<speed>4.960000</speed>
</trkpt>
<trkpt lat="56.007114" lon="26.680477">
<ele>129.834106</ele>
<time>2010-06-20T12:59:17Z</time>
<desc>lat.=56.007114, lon.=26.680477, Alt.=129.834106m. Speed=18.072001m/h.</desc>
<speed>5.020000</speed>
</trkpt>
<trkpt lat="56.007084" lon="26.680532">
<ele>129.920044</ele>
<time>2010-06-20T12:59:18Z</time>
<desc>lat.=56.007084, lon.=26.680532, Alt.=129.920044m. Speed=17.136000m/h.</desc>
<speed>4.760000</speed>
</trkpt>
<trkpt lat="56.007050" lon="26.680584">
<ele>129.955200</ele>
<time>2010-06-20T12:59:19Z</time>
<desc>lat.=56.007050, lon.=26.680584, Alt.=129.955200m. Speed=15.480000m/h.</desc>
<speed>4.300000</speed>
</trkpt>
<trkpt lat="56.007023" lon="26.680628">
<ele>129.974731</ele>
<time>2010-06-20T12:59:20Z</time>
<desc>lat.=56.007023, lon.=26.680628, Alt.=129.974731m. Speed=13.968000m/h.</desc>
<speed>3.880000</speed>
</trkpt>
<trkpt lat="56.006996" lon="26.680666">
<ele>130.115356</ele>
<time>2010-06-20T12:59:21Z</time>
<desc>lat.=56.006996, lon.=26.680666, Alt.=130.115356m. Speed=12.744000m/h.</desc>
<speed>3.540000</speed>
</trkpt>
<trkpt lat="56.006973" lon="26.680700">
<ele>129.923950</ele>
<time>2010-06-20T12:59:22Z</time>
<desc>lat.=56.006973, lon.=26.680700, Alt.=129.923950m. Speed=12.672000m/h.</desc>
<speed>3.520000</speed>
</trkpt>
<trkpt lat="56.006950" lon="26.680742">
<ele>130.041138</ele>
<time>2010-06-20T12:59:23Z</time>
<desc>lat.=56.006950, lon.=26.680742, Alt.=130.041138m. Speed=11.880000m/h.</desc>
<speed>3.300000</speed>
</trkpt>
<trkpt lat="56.006927" lon="26.680788">
<ele>129.978638</ele>
<time>2010-06-20T12:59:24Z</time>
<desc>lat.=56.006927, lon.=26.680788, Alt.=129.978638m. Speed=14.364000m/h.</desc>
<speed>3.990000</speed>
</trkpt>
<trkpt lat="56.006905" lon="26.680832">
<ele>129.724731</ele>
<time>2010-06-20T12:59:25Z</time>
<desc>lat.=56.006905, lon.=26.680832, Alt.=129.724731m. Speed=12.996000m/h.</desc>
<speed>3.610000</speed>
</trkpt>
<trkpt lat="56.006882" lon="26.680876">
<ele>129.673950</ele>
<time>2010-06-20T12:59:26Z</time>
<desc>lat.=56.006882, lon.=26.680876, Alt.=129.673950m. Speed=14.040000m/h.</desc>
<speed>3.900000</speed>
</trkpt>
<trkpt lat="56.006859" lon="26.680923">
<ele>129.634888</ele>
<time>2010-06-20T12:59:27Z</time>
<desc>lat.=56.006859, lon.=26.680923, Alt.=129.634888m. Speed=14.508000m/h.</desc>
<speed>4.030000</speed>
</trkpt>
<trkpt lat="56.006836" lon="26.680969">
<ele>129.623169</ele>
<time>2010-06-20T12:59:28Z</time>
<desc>lat.=56.006836, lon.=26.680969, Alt.=129.623169m. Speed=14.220000m/h.</desc>
<speed>3.950000</speed>
</trkpt>
<trkpt lat="56.006805" lon="26.681015">
<ele>129.213013</ele>
<time>2010-06-20T12:59:29Z</time>
<desc>lat.=56.006805, lon.=26.681015, Alt.=129.213013m. Speed=15.552000m/h.</desc>
<speed>4.320000</speed>
</trkpt>
<trkpt lat="56.006775" lon="26.681061">
<ele>129.173950</ele>
<time>2010-06-20T12:59:30Z</time>
<desc>lat.=56.006775, lon.=26.681061, Alt.=129.173950m. Speed=16.488001m/h.</desc>
<speed>4.580000</speed>
</trkpt>
<trkpt lat="56.006741" lon="26.681105">
<ele>128.865356</ele>
<time>2010-06-20T12:59:31Z</time>
<desc>lat.=56.006741, lon.=26.681105, Alt.=128.865356m. Speed=16.884001m/h.</desc>
<speed>4.690000</speed>
</trkpt>
<trkpt lat="56.006699" lon="26.681143">
<ele>127.852600</ele>
<time>2010-06-20T12:59:32Z</time>
<desc>lat.=56.006699, lon.=26.681143, Alt.=127.852600m. Speed=16.775999m/h.</desc>
<speed>4.660000</speed>
</trkpt>
<trkpt lat="56.006664" lon="26.681192">
<ele>127.651428</ele>
<time>2010-06-20T12:59:33Z</time>
<desc>lat.=56.006664, lon.=26.681192, Alt.=127.651428m. Speed=16.920000m/h.</desc>
<speed>4.700000</speed>
</trkpt>
<trkpt lat="56.006634" lon="26.681242">
<ele>127.633850</ele>
<time>2010-06-20T12:59:34Z</time>
<desc>lat.=56.006634, lon.=26.681242, Alt.=127.633850m. Speed=17.676001m/h.</desc>
<speed>4.910000</speed>
</trkpt>
<trkpt lat="56.006599" lon="26.681292">
<ele>127.592834</ele>
<time>2010-06-20T12:59:35Z</time>
<desc>lat.=56.006599, lon.=26.681292, Alt.=127.592834m. Speed=16.848000m/h.</desc>
<speed>4.680000</speed>
</trkpt>
<trkpt lat="56.006565" lon="26.681330">
<ele>127.592834</ele>
<time>2010-06-20T12:59:36Z</time>
<desc>lat.=56.006565, lon.=26.681330, Alt.=127.592834m. Speed=17.243999m/h.</desc>
<speed>4.790000</speed>
</trkpt>
<trkpt lat="56.006531" lon="26.681374">
<ele>127.520569</ele>
<time>2010-06-20T12:59:37Z</time>
<desc>lat.=56.006531, lon.=26.681374, Alt.=127.520569m. Speed=18.396000m/h.</desc>
<speed>5.110000</speed>
</trkpt>
<trkpt lat="56.006493" lon="26.681412">
<ele>127.483459</ele>
<time>2010-06-20T12:59:38Z</time>
<desc>lat.=56.006493, lon.=26.681412, Alt.=127.483459m. Speed=17.568001m/h.</desc>
<speed>4.880000</speed>
</trkpt>
<trkpt lat="56.006458" lon="26.681458">
<ele>127.374084</ele>
<time>2010-06-20T12:59:39Z</time>
<desc>lat.=56.006458, lon.=26.681458, Alt.=127.374084m. Speed=17.964001m/h.</desc>
<speed>4.990000</speed>
</trkpt>
<trkpt lat="56.006420" lon="26.681494">
<ele>127.026428</ele>
<time>2010-06-20T12:59:40Z</time>
<desc>lat.=56.006420, lon.=26.681494, Alt.=127.026428m. Speed=17.208000m/h.</desc>
<speed>4.780000</speed>
</trkpt>
<trkpt lat="56.006386" lon="26.681534">
<ele>126.756897</ele>
<time>2010-06-20T12:59:41Z</time>
<desc>lat.=56.006386, lon.=26.681534, Alt.=126.756897m. Speed=16.704000m/h.</desc>
<speed>4.640000</speed>
</trkpt>
<trkpt lat="56.006348" lon="26.681568">
<ele>126.737366</ele>
<time>2010-06-20T12:59:42Z</time>
<desc>lat.=56.006348, lon.=26.681568, Alt.=126.737366m. Speed=16.559999m/h.</desc>
<speed>4.600000</speed>
</trkpt>
<trkpt lat="56.006313" lon="26.681597">
<ele>126.618225</ele>
<time>2010-06-20T12:59:43Z</time>
<desc>lat.=56.006313, lon.=26.681597, Alt.=126.618225m. Speed=16.488001m/h.</desc>
<speed>4.580000</speed>
</trkpt>
<trkpt lat="56.006279" lon="26.681629">
<ele>126.557678</ele>
<time>2010-06-20T12:59:44Z</time>
<desc>lat.=56.006279, lon.=26.681629, Alt.=126.557678m. Speed=16.559999m/h.</desc>
<speed>4.600000</speed>
</trkpt>
<trkpt lat="56.006245" lon="26.681662">
<ele>126.460022</ele>
<time>2010-06-20T12:59:45Z</time>
<desc>lat.=56.006245, lon.=26.681662, Alt.=126.460022m. Speed=17.028000m/h.</desc>
<speed>4.730000</speed>
</trkpt>
<trkpt lat="56.006207" lon="26.681696">
<ele>126.397522</ele>
<time>2010-06-20T12:59:46Z</time>
<desc>lat.=56.006207, lon.=26.681696, Alt.=126.397522m. Speed=18.143999m/h.</desc>
<speed>5.040000</speed>
</trkpt>
<trkpt lat="56.006165" lon="26.681728">
<ele>126.340881</ele>
<time>2010-06-20T12:59:47Z</time>
<desc>lat.=56.006165, lon.=26.681728, Alt.=126.340881m. Speed=17.639999m/h.</desc>
<speed>4.900000</speed>
</trkpt>
<trkpt lat="56.006123" lon="26.681757">
<ele>126.317444</ele>
<time>2010-06-20T12:59:48Z</time>
<desc>lat.=56.006123, lon.=26.681757, Alt.=126.317444m. Speed=17.676001m/h.</desc>
<speed>4.910000</speed>
</trkpt>
<trkpt lat="56.006084" lon="26.681787">
<ele>126.149475</ele>
<time>2010-06-20T12:59:49Z</time>
<desc>lat.=56.006084, lon.=26.681787, Alt.=126.149475m. Speed=18.252001m/h.</desc>
<speed>5.070000</speed>
</trkpt>
<trkpt lat="56.006042" lon="26.681816">
<ele>126.014709</ele>
<time>2010-06-20T12:59:50Z</time>
<desc>lat.=56.006042, lon.=26.681816, Alt.=126.014709m. Speed=18.252001m/h.</desc>
<speed>5.070000</speed>
</trkpt>
<trkpt lat="56.006001" lon="26.681847">
<ele>125.938538</ele>
<time>2010-06-20T12:59:51Z</time>
<desc>lat.=56.006001, lon.=26.681847, Alt.=125.938538m. Speed=18.216000m/h.</desc>
<speed>5.060000</speed>
</trkpt>
<trkpt lat="56.005959" lon="26.681877">
<ele>125.985413</ele>
<time>2010-06-20T12:59:52Z</time>
<desc>lat.=56.005959, lon.=26.681877, Alt.=125.985413m. Speed=17.964001m/h.</desc>
<speed>4.990000</speed>
</trkpt>
<trkpt lat="56.005920" lon="26.681908">
<ele>126.024475</ele>
<time>2010-06-20T12:59:53Z</time>
<desc>lat.=56.005920, lon.=26.681908, Alt.=126.024475m. Speed=17.856001m/h.</desc>
<speed>4.960000</speed>
</trkpt>
<trkpt lat="56.005875" lon="26.681934">
<ele>125.868225</ele>
<time>2010-06-20T12:59:54Z</time>
<desc>lat.=56.005875, lon.=26.681934, Alt.=125.868225m. Speed=17.351999m/h.</desc>
<speed>4.820000</speed>
</trkpt>
<trkpt lat="56.005833" lon="26.681963">
<ele>125.754944</ele>
<time>2010-06-20T12:59:55Z</time>
<desc>lat.=56.005833, lon.=26.681963, Alt.=125.754944m. Speed=18.827999m/h.</desc>
<speed>5.230000</speed>
</trkpt>
<trkpt lat="56.005787" lon="26.681990">
<ele>126.006897</ele>
<time>2010-06-20T12:59:56Z</time>
<desc>lat.=56.005787, lon.=26.681990, Alt.=126.006897m. Speed=18.936001m/h.</desc>
<speed>5.260000</speed>
</trkpt>
<trkpt lat="56.005745" lon="26.682018">
<ele>126.270569</ele>
<time>2010-06-20T12:59:57Z</time>
<desc>lat.=56.005745, lon.=26.682018, Alt.=126.270569m. Speed=19.080000m/h.</desc>
<speed>5.300000</speed>
</trkpt>
<trkpt lat="56.005703" lon="26.682047">
<ele>126.381897</ele>
<time>2010-06-20T12:59:58Z</time>
<desc>lat.=56.005703, lon.=26.682047, Alt.=126.381897m. Speed=18.180000m/h.</desc>
<speed>5.050000</speed>
</trkpt>
<trkpt lat="56.005661" lon="26.682076">
<ele>126.592834</ele>
<time>2010-06-20T12:59:59Z</time>
<desc>lat.=56.005661, lon.=26.682076, Alt.=126.592834m. Speed=17.532000m/h.</desc>
<speed>4.870000</speed>
</trkpt>
<trkpt lat="56.005619" lon="26.682102">
<ele>126.749084</ele>
<time>2010-06-20T13:00:00Z</time>
<desc>lat.=56.005619, lon.=26.682102, Alt.=126.749084m. Speed=18.719999m/h.</desc>
<speed>5.200000</speed>
</trkpt>
<trkpt lat="56.005577" lon="26.682127">
<ele>126.854553</ele>
<time>2010-06-20T13:00:01Z</time>
<desc>lat.=56.005577, lon.=26.682127, Alt.=126.854553m. Speed=18.864000m/h.</desc>
<speed>5.240000</speed>
</trkpt>
<trkpt lat="56.005535" lon="26.682148">
<ele>126.393616</ele>
<time>2010-06-20T13:00:02Z</time>
<desc>lat.=56.005535, lon.=26.682148, Alt.=126.393616m. Speed=18.000000m/h.</desc>
<speed>5.000000</speed>
</trkpt>
<trkpt lat="56.005493" lon="26.682169">
<ele>126.317444</ele>
<time>2010-06-20T13:00:03Z</time>
<desc>lat.=56.005493, lon.=26.682169, Alt.=126.317444m. Speed=17.316000m/h.</desc>
<speed>4.810000</speed>
</trkpt>
<trkpt lat="56.005451" lon="26.682192">
<ele>126.319397</ele>
<time>2010-06-20T13:00:04Z</time>
<desc>lat.=56.005451, lon.=26.682192, Alt.=126.319397m. Speed=16.596001m/h.</desc>
<speed>4.610000</speed>
</trkpt>
<trkpt lat="56.005417" lon="26.682219">
<ele>126.278381</ele>
<time>2010-06-20T13:00:05Z</time>
<desc>lat.=56.005417, lon.=26.682219, Alt.=126.278381m. Speed=15.912000m/h.</desc>
<speed>4.420000</speed>
</trkpt>
<trkpt lat="56.005375" lon="26.682247">
<ele>126.411194</ele>
<time>2010-06-20T13:00:06Z</time>
<desc>lat.=56.005375, lon.=26.682247, Alt.=126.411194m. Speed=18.108000m/h.</desc>
<speed>5.030000</speed>
</trkpt>
<trkpt lat="56.005333" lon="26.682276">
<ele>126.469788</ele>
<time>2010-06-20T13:00:07Z</time>
<desc>lat.=56.005333, lon.=26.682276, Alt.=126.469788m. Speed=18.180000m/h.</desc>
<speed>5.050000</speed>
</trkpt>
<trkpt lat="56.005287" lon="26.682304">
<ele>126.735413</ele>
<time>2010-06-20T13:00:08Z</time>
<desc>lat.=56.005287, lon.=26.682304, Alt.=126.735413m. Speed=18.431999m/h.</desc>
<speed>5.120000</speed>
</trkpt>
<trkpt lat="56.005241" lon="26.682327">
<ele>126.848694</ele>
<time>2010-06-20T13:00:09Z</time>
<desc>lat.=56.005241, lon.=26.682327, Alt.=126.848694m. Speed=17.496000m/h.</desc>
<speed>4.860000</speed>
</trkpt>
<trkpt lat="56.005199" lon="26.682350">
<ele>126.893616</ele>
<time>2010-06-20T13:00:10Z</time>
<desc>lat.=56.005199, lon.=26.682350, Alt.=126.893616m. Speed=17.136000m/h.</desc>
<speed>4.760000</speed>
</trkpt>
<trkpt lat="56.005161" lon="26.682375">
<ele>126.922913</ele>
<time>2010-06-20T13:00:11Z</time>
<desc>lat.=56.005161, lon.=26.682375, Alt.=126.922913m. Speed=16.704000m/h.</desc>
<speed>4.640000</speed>
</trkpt>
<trkpt lat="56.005119" lon="26.682396">
<ele>126.960022</ele>
<time>2010-06-20T13:00:12Z</time>
<desc>lat.=56.005119, lon.=26.682396, Alt.=126.960022m. Speed=15.660000m/h.</desc>
<speed>4.350000</speed>
</trkpt>
<trkpt lat="56.005085" lon="26.682423">
<ele>127.073303</ele>
<time>2010-06-20T13:00:13Z</time>
<desc>lat.=56.005085, lon.=26.682423, Alt.=127.073303m. Speed=14.868000m/h.</desc>
<speed>4.130000</speed>
</trkpt>
<trkpt lat="56.005051" lon="26.682447">
<ele>126.567444</ele>
<time>2010-06-20T13:00:14Z</time>
<desc>lat.=56.005051, lon.=26.682447, Alt.=126.567444m. Speed=16.091999m/h.</desc>
<speed>4.470000</speed>
</trkpt>
<trkpt lat="56.005013" lon="26.682476">
<ele>126.358459</ele>
<time>2010-06-20T13:00:15Z</time>
<desc>lat.=56.005013, lon.=26.682476, Alt.=126.358459m. Speed=17.100000m/h.</desc>
<speed>4.750000</speed>
</trkpt>
<trkpt lat="56.004974" lon="26.682505">
<ele>125.881897</ele>
<time>2010-06-20T13:00:16Z</time>
<desc>lat.=56.004974, lon.=26.682505, Alt.=125.881897m. Speed=17.892000m/h.</desc>
<speed>4.970000</speed>
</trkpt>
<trkpt lat="56.004932" lon="26.682533">
<ele>125.827209</ele>
<time>2010-06-20T13:00:17Z</time>
<desc>lat.=56.004932, lon.=26.682533, Alt.=125.827209m. Speed=18.323999m/h.</desc>
<speed>5.090000</speed>
</trkpt>
<trkpt lat="56.004887" lon="26.682566">
<ele>126.096741</ele>
<time>2010-06-20T13:00:18Z</time>
<desc>lat.=56.004887, lon.=26.682566, Alt.=126.096741m. Speed=18.431999m/h.</desc>
<speed>5.120000</speed>
</trkpt>
<trkpt lat="56.004845" lon="26.682596">
<ele>126.295959</ele>
<time>2010-06-20T13:00:19Z</time>
<desc>lat.=56.004845, lon.=26.682596, Alt.=126.295959m. Speed=17.747999m/h.</desc>
<speed>4.930000</speed>
</trkpt>
<trkpt lat="56.004803" lon="26.682623">
<ele>125.987366</ele>
<time>2010-06-20T13:00:20Z</time>
<desc>lat.=56.004803, lon.=26.682623, Alt.=125.987366m. Speed=17.351999m/h.</desc>
<speed>4.820000</speed>
</trkpt>
<trkpt lat="56.004765" lon="26.682650">
<ele>125.854553</ele>
<time>2010-06-20T13:00:21Z</time>
<desc>lat.=56.004765, lon.=26.682650, Alt.=125.854553m. Speed=16.416000m/h.</desc>
<speed>4.560000</speed>
</trkpt>
<trkpt lat="56.004723" lon="26.682674">
<ele>125.784241</ele>
<time>2010-06-20T13:00:22Z</time>
<desc>lat.=56.004723, lon.=26.682674, Alt.=125.784241m. Speed=16.812000m/h.</desc>
<speed>4.670000</speed>
</trkpt>
<trkpt lat="56.004681" lon="26.682695">
<ele>125.885803</ele>
<time>2010-06-20T13:00:23Z</time>
<desc>lat.=56.004681, lon.=26.682695, Alt.=125.885803m. Speed=16.379999m/h.</desc>
<speed>4.550000</speed>
</trkpt>
<trkpt lat="56.004639" lon="26.682714">
<ele>125.870178</ele>
<time>2010-06-20T13:00:24Z</time>
<desc>lat.=56.004639, lon.=26.682714, Alt.=125.870178m. Speed=16.020000m/h.</desc>
<speed>4.450000</speed>
</trkpt>
<trkpt lat="56.004601" lon="26.682734">
<ele>125.772522</ele>
<time>2010-06-20T13:00:25Z</time>
<desc>lat.=56.004601, lon.=26.682734, Alt.=125.772522m. Speed=15.516000m/h.</desc>
<speed>4.310000</speed>
</trkpt>
<trkpt lat="56.004566" lon="26.682756">
<ele>125.721741</ele>
<time>2010-06-20T13:00:26Z</time>
<desc>lat.=56.004566, lon.=26.682756, Alt.=125.721741m. Speed=15.588000m/h.</desc>
<speed>4.330000</speed>
</trkpt>
<trkpt lat="56.004528" lon="26.682777">
<ele>125.690491</ele>
<time>2010-06-20T13:00:27Z</time>
<desc>lat.=56.004528, lon.=26.682777, Alt.=125.690491m. Speed=15.552000m/h.</desc>
<speed>4.320000</speed>
</trkpt>
<trkpt lat="56.004490" lon="26.682800">
<ele>125.653381</ele>
<time>2010-06-20T13:00:28Z</time>
<desc>lat.=56.004490, lon.=26.682800, Alt.=125.653381m. Speed=15.696000m/h.</desc>
<speed>4.360000</speed>
</trkpt>
<trkpt lat="56.004459" lon="26.682842">
<ele>126.518616</ele>
<time>2010-06-20T13:00:29Z</time>
<desc>lat.=56.004459, lon.=26.682842, Alt.=126.518616m. Speed=16.344000m/h.</desc>
<speed>4.540000</speed>
</trkpt>
<trkpt lat="56.004421" lon="26.682863">
<ele>126.254944</ele>
<time>2010-06-20T13:00:30Z</time>
<desc>lat.=56.004421, lon.=26.682863, Alt.=126.254944m. Speed=17.568001m/h.</desc>
<speed>4.880000</speed>
</trkpt>
<trkpt lat="56.004379" lon="26.682898">
<ele>126.483459</ele>
<time>2010-06-20T13:00:31Z</time>
<desc>lat.=56.004379, lon.=26.682898, Alt.=126.483459m. Speed=17.351999m/h.</desc>
<speed>4.820000</speed>
</trkpt>
<trkpt lat="56.004337" lon="26.682922">
<ele>126.372131</ele>
<time>2010-06-20T13:00:32Z</time>
<desc>lat.=56.004337, lon.=26.682922, Alt.=126.372131m. Speed=17.208000m/h.</desc>
<speed>4.780000</speed>
</trkpt>
<trkpt lat="56.004299" lon="26.682953">
<ele>126.262756</ele>
<time>2010-06-20T13:00:33Z</time>
<desc>lat.=56.004299, lon.=26.682953, Alt.=126.262756m. Speed=18.143999m/h.</desc>
<speed>5.040000</speed>
</trkpt>
<trkpt lat="56.004257" lon="26.682987">
<ele>126.280334</ele>
<time>2010-06-20T13:00:34Z</time>
<desc>lat.=56.004257, lon.=26.682987, Alt.=126.280334m. Speed=18.792000m/h.</desc>
<speed>5.220000</speed>
</trkpt>
<trkpt lat="56.004211" lon="26.683016">
<ele>126.340881</ele>
<time>2010-06-20T13:00:35Z</time>
<desc>lat.=56.004211, lon.=26.683016, Alt.=126.340881m. Speed=18.576000m/h.</desc>
<speed>5.160000</speed>
</trkpt>
<trkpt lat="56.004169" lon="26.683039">
<ele>126.415100</ele>
<time>2010-06-20T13:00:36Z</time>
<desc>lat.=56.004169, lon.=26.683039, Alt.=126.415100m. Speed=18.108000m/h.</desc>
<speed>5.030000</speed>
</trkpt>
<trkpt lat="56.004128" lon="26.683060">
<ele>126.372131</ele>
<time>2010-06-20T13:00:37Z</time>
<desc>lat.=56.004128, lon.=26.683060, Alt.=126.372131m. Speed=17.532000m/h.</desc>
<speed>4.870000</speed>
</trkpt>
<trkpt lat="56.004089" lon="26.683079">
<ele>126.249084</ele>
<time>2010-06-20T13:00:38Z</time>
<desc>lat.=56.004089, lon.=26.683079, Alt.=126.249084m. Speed=16.955999m/h.</desc>
<speed>4.710000</speed>
</trkpt>
<trkpt lat="56.004047" lon="26.683100">
<ele>126.335022</ele>
<time>2010-06-20T13:00:39Z</time>
<desc>lat.=56.004047, lon.=26.683100, Alt.=126.335022m. Speed=16.667999m/h.</desc>
<speed>4.630000</speed>
</trkpt>
<trkpt lat="56.004009" lon="26.683125">
<ele>126.297913</ele>
<time>2010-06-20T13:00:40Z</time>
<desc>lat.=56.004009, lon.=26.683125, Alt.=126.297913m. Speed=17.820000m/h.</desc>
<speed>4.950000</speed>
</trkpt>
<trkpt lat="56.003967" lon="26.683151">
<ele>126.028381</ele>
<time>2010-06-20T13:00:41Z</time>
<desc>lat.=56.003967, lon.=26.683151, Alt.=126.028381m. Speed=17.784000m/h.</desc>
<speed>4.940000</speed>
</trkpt>
<trkpt lat="56.003929" lon="26.683184">
<ele>126.075256</ele>
<time>2010-06-20T13:00:42Z</time>
<desc>lat.=56.003929, lon.=26.683184, Alt.=126.075256m. Speed=19.044001m/h.</desc>
<speed>5.290000</speed>
</trkpt>
<trkpt lat="56.003883" lon="26.683212">
<ele>126.239319</ele>
<time>2010-06-20T13:00:43Z</time>
<desc>lat.=56.003883, lon.=26.683212, Alt.=126.239319m. Speed=18.756001m/h.</desc>
<speed>5.210000</speed>
</trkpt>
<trkpt lat="56.003841" lon="26.683243">
<ele>126.268616</ele>
<time>2010-06-20T13:00:44Z</time>
<desc>lat.=56.003841, lon.=26.683243, Alt.=126.268616m. Speed=18.216000m/h.</desc>
<speed>5.060000</speed>
</trkpt>
<trkpt lat="56.003799" lon="26.683275">
<ele>126.278381</ele>
<time>2010-06-20T13:00:45Z</time>
<desc>lat.=56.003799, lon.=26.683275, Alt.=126.278381m. Speed=17.568001m/h.</desc>
<speed>4.880000</speed>
</trkpt>
<trkpt lat="56.003754" lon="26.683300">
<ele>126.460022</ele>
<time>2010-06-20T13:00:46Z</time>
<desc>lat.=56.003754, lon.=26.683300, Alt.=126.460022m. Speed=16.812000m/h.</desc>
<speed>4.670000</speed>
</trkpt>
<trkpt lat="56.003716" lon="26.683329">
<ele>126.438538</ele>
<time>2010-06-20T13:00:47Z</time>
<desc>lat.=56.003716, lon.=26.683329, Alt.=126.438538m. Speed=17.820000m/h.</desc>
<speed>4.950000</speed>
</trkpt>
<trkpt lat="56.003674" lon="26.683357">
<ele>126.483459</ele>
<time>2010-06-20T13:00:48Z</time>
<desc>lat.=56.003674, lon.=26.683357, Alt.=126.483459m. Speed=17.243999m/h.</desc>
<speed>4.790000</speed>
</trkpt>
<trkpt lat="56.003632" lon="26.683382">
<ele>126.411194</ele>
<time>2010-06-20T13:00:49Z</time>
<desc>lat.=56.003632, lon.=26.683382, Alt.=126.411194m. Speed=18.323999m/h.</desc>
<speed>5.090000</speed>
</trkpt>
<trkpt lat="56.003590" lon="26.683416">
<ele>126.350647</ele>
<time>2010-06-20T13:00:50Z</time>
<desc>lat.=56.003590, lon.=26.683416, Alt.=126.350647m. Speed=17.424000m/h.</desc>
<speed>4.840000</speed>
</trkpt>
<trkpt lat="56.003551" lon="26.683441">
<ele>126.301819</ele>
<time>2010-06-20T13:00:51Z</time>
<desc>lat.=56.003551, lon.=26.683441, Alt.=126.301819m. Speed=17.388000m/h.</desc>
<speed>4.830000</speed>
</trkpt>
<trkpt lat="56.003513" lon="26.683466">
<ele>126.335022</ele>
<time>2010-06-20T13:00:52Z</time>
<desc>lat.=56.003513, lon.=26.683466, Alt.=126.335022m. Speed=17.028000m/h.</desc>
<speed>4.730000</speed>
</trkpt>
<trkpt lat="56.003471" lon="26.683495">
<ele>126.422913</ele>
<time>2010-06-20T13:00:53Z</time>
<desc>lat.=56.003471, lon.=26.683495, Alt.=126.422913m. Speed=16.775999m/h.</desc>
<speed>4.660000</speed>
</trkpt>
<trkpt lat="56.003433" lon="26.683525">
<ele>126.637756</ele>
<time>2010-06-20T13:00:54Z</time>
<desc>lat.=56.003433, lon.=26.683525, Alt.=126.637756m. Speed=16.344000m/h.</desc>
<speed>4.540000</speed>
</trkpt>
<trkpt lat="56.003399" lon="26.683556">
<ele>126.993225</ele>
<time>2010-06-20T13:00:55Z</time>
<desc>lat.=56.003399, lon.=26.683556, Alt.=126.993225m. Speed=18.035999m/h.</desc>
<speed>5.010000</speed>
</trkpt>
<trkpt lat="56.003349" lon="26.683588">
<ele>126.672913</ele>
<time>2010-06-20T13:00:56Z</time>
<desc>lat.=56.003349, lon.=26.683588, Alt.=126.672913m. Speed=19.476000m/h.</desc>
<speed>5.410000</speed>
</trkpt>
<trkpt lat="56.003307" lon="26.683624">
<ele>127.256897</ele>
<time>2010-06-20T13:00:57Z</time>
<desc>lat.=56.003307, lon.=26.683624, Alt.=127.256897m. Speed=20.087999m/h.</desc>
<speed>5.580000</speed>
</trkpt>
<trkpt lat="56.003258" lon="26.683659">
<ele>127.485413</ele>
<time>2010-06-20T13:00:58Z</time>
<desc>lat.=56.003258, lon.=26.683659, Alt.=127.485413m. Speed=20.988001m/h.</desc>
<speed>5.830000</speed>
</trkpt>
<trkpt lat="56.003208" lon="26.683689">
<ele>127.645569</ele>
<time>2010-06-20T13:00:59Z</time>
<desc>lat.=56.003208, lon.=26.683689, Alt.=127.645569m. Speed=21.780001m/h.</desc>
<speed>6.050000</speed>
</trkpt>
<trkpt lat="56.003159" lon="26.683729">
<ele>127.795959</ele>
<time>2010-06-20T13:01:00Z</time>
<desc>lat.=56.003159, lon.=26.683729, Alt.=127.795959m. Speed=21.384001m/h.</desc>
<speed>5.940000</speed>
</trkpt>
<trkpt lat="56.003109" lon="26.683765">
<ele>127.897522</ele>
<time>2010-06-20T13:01:01Z</time>
<desc>lat.=56.003109, lon.=26.683765, Alt.=127.897522m. Speed=20.412001m/h.</desc>
<speed>5.670000</speed>
</trkpt>
<trkpt lat="56.003059" lon="26.683798">
<ele>127.965881</ele>
<time>2010-06-20T13:01:02Z</time>
<desc>lat.=56.003059, lon.=26.683798, Alt.=127.965881m. Speed=19.620001m/h.</desc>
<speed>5.450000</speed>
</trkpt>
<trkpt lat="56.003017" lon="26.683828">
<ele>127.971741</ele>
<time>2010-06-20T13:01:03Z</time>
<desc>lat.=56.003017, lon.=26.683828, Alt.=127.971741m. Speed=18.972000m/h.</desc>
<speed>5.270000</speed>
</trkpt>
<trkpt lat="56.002972" lon="26.683846">
<ele>127.756897</ele>
<time>2010-06-20T13:01:04Z</time>
<desc>lat.=56.002972, lon.=26.683846, Alt.=127.756897m. Speed=18.864000m/h.</desc>
<speed>5.240000</speed>
</trkpt>
<trkpt lat="56.002926" lon="26.683872">
<ele>127.969788</ele>
<time>2010-06-20T13:01:05Z</time>
<desc>lat.=56.002926, lon.=26.683872, Alt.=127.969788m. Speed=19.584000m/h.</desc>
<speed>5.440000</speed>
</trkpt>
<trkpt lat="56.002880" lon="26.683901">
<ele>128.185669</ele>
<time>2010-06-20T13:01:06Z</time>
<desc>lat.=56.002880, lon.=26.683901, Alt.=128.185669m. Speed=20.844000m/h.</desc>
<speed>5.790000</speed>
</trkpt>
<trkpt lat="56.002834" lon="26.683937">
<ele>128.420044</ele>
<time>2010-06-20T13:01:07Z</time>
<desc>lat.=56.002834, lon.=26.683937, Alt.=128.420044m. Speed=21.240000m/h.</desc>
<speed>5.900000</speed>
</trkpt>
<trkpt lat="56.002789" lon="26.683969">
<ele>128.494263</ele>
<time>2010-06-20T13:01:08Z</time>
<desc>lat.=56.002789, lon.=26.683969, Alt.=128.494263m. Speed=20.736000m/h.</desc>
<speed>5.760000</speed>
</trkpt>
<trkpt lat="56.002739" lon="26.684002">
<ele>128.662231</ele>
<time>2010-06-20T13:01:09Z</time>
<desc>lat.=56.002739, lon.=26.684002, Alt.=128.662231m. Speed=20.340000m/h.</desc>
<speed>5.650000</speed>
</trkpt>
<trkpt lat="56.002689" lon="26.684034">
<ele>128.670044</ele>
<time>2010-06-20T13:01:10Z</time>
<desc>lat.=56.002689, lon.=26.684034, Alt.=128.670044m. Speed=19.799999m/h.</desc>
<speed>5.500000</speed>
</trkpt>
<trkpt lat="56.002644" lon="26.684065">
<ele>128.646606</ele>
<time>2010-06-20T13:01:11Z</time>
<desc>lat.=56.002644, lon.=26.684065, Alt.=128.646606m. Speed=19.548000m/h.</desc>
<speed>5.430000</speed>
</trkpt>
<trkpt lat="56.002598" lon="26.684088">
<ele>128.564575</ele>
<time>2010-06-20T13:01:12Z</time>
<desc>lat.=56.002598, lon.=26.684088, Alt.=128.564575m. Speed=19.115999m/h.</desc>
<speed>5.310000</speed>
</trkpt>
<trkpt lat="56.002552" lon="26.684114">
<ele>128.365356</ele>
<time>2010-06-20T13:01:13Z</time>
<desc>lat.=56.002552, lon.=26.684114, Alt.=128.365356m. Speed=18.827999m/h.</desc>
<speed>5.230000</speed>
</trkpt>
<trkpt lat="56.002510" lon="26.684149">
<ele>128.220825</ele>
<time>2010-06-20T13:01:14Z</time>
<desc>lat.=56.002510, lon.=26.684149, Alt.=128.220825m. Speed=20.591999m/h.</desc>
<speed>5.720000</speed>
</trkpt>
<trkpt lat="56.002457" lon="26.684187">
<ele>128.322388</ele>
<time>2010-06-20T13:01:15Z</time>
<desc>lat.=56.002457, lon.=26.684187, Alt.=128.322388m. Speed=20.556000m/h.</desc>
<speed>5.710000</speed>
</trkpt>
<trkpt lat="56.002407" lon="26.684216">
<ele>128.287231</ele>
<time>2010-06-20T13:01:16Z</time>
<desc>lat.=56.002407, lon.=26.684216, Alt.=128.287231m. Speed=20.844000m/h.</desc>
<speed>5.790000</speed>
</trkpt>
<trkpt lat="56.002354" lon="26.684246">
<ele>128.275513</ele>
<time>2010-06-20T13:01:17Z</time>
<desc>lat.=56.002354, lon.=26.684246, Alt.=128.275513m. Speed=21.708000m/h.</desc>
<speed>6.030000</speed>
</trkpt>
<trkpt lat="56.002300" lon="26.684282">
<ele>128.365356</ele>
<time>2010-06-20T13:01:18Z</time>
<desc>lat.=56.002300, lon.=26.684282, Alt.=128.365356m. Speed=21.384001m/h.</desc>
<speed>5.940000</speed>
</trkpt>
<trkpt lat="56.002251" lon="26.684315">
<ele>128.330200</ele>
<time>2010-06-20T13:01:19Z</time>
<desc>lat.=56.002251, lon.=26.684315, Alt.=128.330200m. Speed=21.096001m/h.</desc>
<speed>5.860000</speed>
</trkpt>
<trkpt lat="56.002201" lon="26.684347">
<ele>128.224731</ele>
<time>2010-06-20T13:01:20Z</time>
<desc>lat.=56.002201, lon.=26.684347, Alt.=128.224731m. Speed=21.924000m/h.</desc>
<speed>6.090000</speed>
</trkpt>
<trkpt lat="56.002148" lon="26.684380">
<ele>128.166138</ele>
<time>2010-06-20T13:01:21Z</time>
<desc>lat.=56.002148, lon.=26.684380, Alt.=128.166138m. Speed=22.320000m/h.</desc>
<speed>6.200000</speed>
</trkpt>
<trkpt lat="56.002098" lon="26.684416">
<ele>128.142700</ele>
<time>2010-06-20T13:01:22Z</time>
<desc>lat.=56.002098, lon.=26.684416, Alt.=128.142700m. Speed=21.492001m/h.</desc>
<speed>5.970000</speed>
</trkpt>
<trkpt lat="56.002045" lon="26.684450">
<ele>128.244263</ele>
<time>2010-06-20T13:01:23Z</time>
<desc>lat.=56.002045, lon.=26.684450, Alt.=128.244263m. Speed=20.771999m/h.</desc>
<speed>5.770000</speed>
</trkpt>
<trkpt lat="56.001995" lon="26.684484">
<ele>128.380981</ele>
<time>2010-06-20T13:01:24Z</time>
<desc>lat.=56.001995, lon.=26.684484, Alt.=128.380981m. Speed=20.052000m/h.</desc>
<speed>5.570000</speed>
</trkpt>
<trkpt lat="56.001949" lon="26.684521">
<ele>128.689575</ele>
<time>2010-06-20T13:01:25Z</time>
<desc>lat.=56.001949, lon.=26.684521, Alt.=128.689575m. Speed=20.195999m/h.</desc>
<speed>5.610000</speed>
</trkpt>
<trkpt lat="56.001904" lon="26.684553">
<ele>128.783325</ele>
<time>2010-06-20T13:01:26Z</time>
<desc>lat.=56.001904, lon.=26.684553, Alt.=128.783325m. Speed=21.132000m/h.</desc>
<speed>5.870000</speed>
</trkpt>
<trkpt lat="56.001854" lon="26.684580">
<ele>128.513794</ele>
<time>2010-06-20T13:01:27Z</time>
<desc>lat.=56.001854, lon.=26.684580, Alt.=128.513794m. Speed=21.132000m/h.</desc>
<speed>5.870000</speed>
</trkpt>
<trkpt lat="56.001804" lon="26.684608">
<ele>128.525513</ele>
<time>2010-06-20T13:01:28Z</time>
<desc>lat.=56.001804, lon.=26.684608, Alt.=128.525513m. Speed=20.268000m/h.</desc>
<speed>5.630000</speed>
</trkpt>
<trkpt lat="56.001759" lon="26.684633">
<ele>128.466919</ele>
<time>2010-06-20T13:01:29Z</time>
<desc>lat.=56.001759, lon.=26.684633, Alt.=128.466919m. Speed=19.728001m/h.</desc>
<speed>5.480000</speed>
</trkpt>
<trkpt lat="56.001713" lon="26.684658">
<ele>128.404419</ele>
<time>2010-06-20T13:01:30Z</time>
<desc>lat.=56.001713, lon.=26.684658, Alt.=128.404419m. Speed=19.296000m/h.</desc>
<speed>5.360000</speed>
</trkpt>
<trkpt lat="56.001667" lon="26.684687">
<ele>128.576294</ele>
<time>2010-06-20T13:01:31Z</time>
<desc>lat.=56.001667, lon.=26.684687, Alt.=128.576294m. Speed=18.827999m/h.</desc>
<speed>5.230000</speed>
</trkpt>
<trkpt lat="56.001617" lon="26.684719">
<ele>128.357544</ele>
<time>2010-06-20T13:01:32Z</time>
<desc>lat.=56.001617, lon.=26.684719, Alt.=128.357544m. Speed=20.340000m/h.</desc>
<speed>5.650000</speed>
</trkpt>
<trkpt lat="56.001568" lon="26.684742">
<ele>127.743225</ele>
<time>2010-06-20T13:01:33Z</time>
<desc>lat.=56.001568, lon.=26.684742, Alt.=127.743225m. Speed=20.700001m/h.</desc>
<speed>5.750000</speed>
</trkpt>
<trkpt lat="56.001514" lon="26.684769">
<ele>127.588928</ele>
<time>2010-06-20T13:01:34Z</time>
<desc>lat.=56.001514, lon.=26.684769, Alt.=127.588928m. Speed=21.096001m/h.</desc>
<speed>5.860000</speed>
</trkpt>
<trkpt lat="56.001465" lon="26.684793">
<ele>127.389709</ele>
<time>2010-06-20T13:01:35Z</time>
<desc>lat.=56.001465, lon.=26.684793, Alt.=127.389709m. Speed=20.448000m/h.</desc>
<speed>5.680000</speed>
</trkpt>
<trkpt lat="56.001415" lon="26.684822">
<ele>127.440491</ele>
<time>2010-06-20T13:01:36Z</time>
<desc>lat.=56.001415, lon.=26.684822, Alt.=127.440491m. Speed=19.691999m/h.</desc>
<speed>5.470000</speed>
</trkpt>
<trkpt lat="56.001366" lon="26.684845">
<ele>127.331116</ele>
<time>2010-06-20T13:01:37Z</time>
<desc>lat.=56.001366, lon.=26.684845, Alt.=127.331116m. Speed=18.864000m/h.</desc>
<speed>5.240000</speed>
</trkpt>
<trkpt lat="56.001320" lon="26.684868">
<ele>127.258850</ele>
<time>2010-06-20T13:01:38Z</time>
<desc>lat.=56.001320, lon.=26.684868, Alt.=127.258850m. Speed=18.576000m/h.</desc>
<speed>5.160000</speed>
</trkpt>
<trkpt lat="56.001274" lon="26.684883">
<ele>127.364319</ele>
<time>2010-06-20T13:01:39Z</time>
<desc>lat.=56.001274, lon.=26.684883, Alt.=127.364319m. Speed=17.820000m/h.</desc>
<speed>4.950000</speed>
</trkpt>
<trkpt lat="56.001232" lon="26.684895">
<ele>127.169006</ele>
<time>2010-06-20T13:01:40Z</time>
<desc>lat.=56.001232, lon.=26.684895, Alt.=127.169006m. Speed=17.532000m/h.</desc>
<speed>4.870000</speed>
</trkpt>
<trkpt lat="56.001190" lon="26.684900">
<ele>127.030334</ele>
<time>2010-06-20T13:01:41Z</time>
<desc>lat.=56.001190, lon.=26.684900, Alt.=127.030334m. Speed=16.236000m/h.</desc>
<speed>4.510000</speed>
</trkpt>
<trkpt lat="56.001148" lon="26.684914">
<ele>126.754944</ele>
<time>2010-06-20T13:01:42Z</time>
<desc>lat.=56.001148, lon.=26.684914, Alt.=126.754944m. Speed=16.524000m/h.</desc>
<speed>4.590000</speed>
</trkpt>
<trkpt lat="56.001106" lon="26.684933">
<ele>126.139709</ele>
<time>2010-06-20T13:01:43Z</time>
<desc>lat.=56.001106, lon.=26.684933, Alt.=126.139709m. Speed=15.732000m/h.</desc>
<speed>4.370000</speed>
</trkpt>
<trkpt lat="56.001072" lon="26.684958">
<ele>125.797913</ele>
<time>2010-06-20T13:01:44Z</time>
<desc>lat.=56.001072, lon.=26.684958, Alt.=125.797913m. Speed=16.524000m/h.</desc>
<speed>4.590000</speed>
</trkpt>
<trkpt lat="56.001026" lon="26.684978">
<ele>125.661194</ele>
<time>2010-06-20T13:01:45Z</time>
<desc>lat.=56.001026, lon.=26.684978, Alt.=125.661194m. Speed=16.884001m/h.</desc>
<speed>4.690000</speed>
</trkpt>
<trkpt lat="56.000984" lon="26.684996">
<ele>125.647522</ele>
<time>2010-06-20T13:01:46Z</time>
<desc>lat.=56.000984, lon.=26.684996, Alt.=125.647522m. Speed=17.388000m/h.</desc>
<speed>4.830000</speed>
</trkpt>
<trkpt lat="56.000942" lon="26.685015">
<ele>125.641663</ele>
<time>2010-06-20T13:01:47Z</time>
<desc>lat.=56.000942, lon.=26.685015, Alt.=125.641663m. Speed=18.108000m/h.</desc>
<speed>5.030000</speed>
</trkpt>
<trkpt lat="56.000896" lon="26.685036">
<ele>125.754944</ele>
<time>2010-06-20T13:01:48Z</time>
<desc>lat.=56.000896, lon.=26.685036, Alt.=125.754944m. Speed=18.540001m/h.</desc>
<speed>5.150000</speed>
</trkpt>
<trkpt lat="56.000851" lon="26.685055">
<ele>125.741272</ele>
<time>2010-06-20T13:01:49Z</time>
<desc>lat.=56.000851, lon.=26.685055, Alt.=125.741272m. Speed=20.052000m/h.</desc>
<speed>5.570000</speed>
</trkpt>
<trkpt lat="56.000801" lon="26.685078">
<ele>125.631897</ele>
<time>2010-06-20T13:01:50Z</time>
<desc>lat.=56.000801, lon.=26.685078, Alt.=125.631897m. Speed=20.520000m/h.</desc>
<speed>5.700000</speed>
</trkpt>
<trkpt lat="56.000751" lon="26.685106">
<ele>125.680725</ele>
<time>2010-06-20T13:01:51Z</time>
<desc>lat.=56.000751, lon.=26.685106, Alt.=125.680725m. Speed=20.556000m/h.</desc>
<speed>5.710000</speed>
</trkpt>
<trkpt lat="56.000698" lon="26.685127">
<ele>125.801819</ele>
<time>2010-06-20T13:01:52Z</time>
<desc>lat.=56.000698, lon.=26.685127, Alt.=125.801819m. Speed=20.340000m/h.</desc>
<speed>5.650000</speed>
</trkpt>
<trkpt lat="56.000648" lon="26.685150">
<ele>125.950256</ele>
<time>2010-06-20T13:01:53Z</time>
<desc>lat.=56.000648, lon.=26.685150, Alt.=125.950256m. Speed=20.052000m/h.</desc>
<speed>5.570000</speed>
</trkpt>
<trkpt lat="56.000599" lon="26.685169">
<ele>126.088928</ele>
<time>2010-06-20T13:01:54Z</time>
<desc>lat.=56.000599, lon.=26.685169, Alt.=126.088928m. Speed=19.368000m/h.</desc>
<speed>5.380000</speed>
</trkpt>
<trkpt lat="56.000549" lon="26.685188">
<ele>126.331116</ele>
<time>2010-06-20T13:01:55Z</time>
<desc>lat.=56.000549, lon.=26.685188, Alt.=126.331116m. Speed=19.188000m/h.</desc>
<speed>5.330000</speed>
</trkpt>
<trkpt lat="56.000504" lon="26.685211">
<ele>126.608459</ele>
<time>2010-06-20T13:01:56Z</time>
<desc>lat.=56.000504, lon.=26.685211, Alt.=126.608459m. Speed=18.756001m/h.</desc>
<speed>5.210000</speed>
</trkpt>
<trkpt lat="56.000454" lon="26.685234">
<ele>126.751038</ele>
<time>2010-06-20T13:01:57Z</time>
<desc>lat.=56.000454, lon.=26.685234, Alt.=126.751038m. Speed=18.576000m/h.</desc>
<speed>5.160000</speed>
</trkpt>
<trkpt lat="56.000408" lon="26.685257">
<ele>126.776428</ele>
<time>2010-06-20T13:01:58Z</time>
<desc>lat.=56.000408, lon.=26.685257, Alt.=126.776428m. Speed=18.000000m/h.</desc>
<speed>5.000000</speed>
</trkpt>
<trkpt lat="56.000366" lon="26.685276">
<ele>126.905334</ele>
<time>2010-06-20T13:01:59Z</time>
<desc>lat.=56.000366, lon.=26.685276, Alt.=126.905334m. Speed=17.316000m/h.</desc>
<speed>4.810000</speed>
</trkpt>
<trkpt lat="56.000324" lon="26.685291">
<ele>127.040100</ele>
<time>2010-06-20T13:02:00Z</time>
<desc>lat.=56.000324, lon.=26.685291, Alt.=127.040100m. Speed=16.704000m/h.</desc>
<speed>4.640000</speed>
</trkpt>
<trkpt lat="56.000286" lon="26.685307">
<ele>127.290100</ele>
<time>2010-06-20T13:02:01Z</time>
<desc>lat.=56.000286, lon.=26.685307, Alt.=127.290100m. Speed=15.840000m/h.</desc>
<speed>4.400000</speed>
</trkpt>
<trkpt lat="56.000248" lon="26.685320">
<ele>127.549866</ele>
<time>2010-06-20T13:02:02Z</time>
<desc>lat.=56.000248, lon.=26.685320, Alt.=127.549866m. Speed=17.100000m/h.</desc>
<speed>4.750000</speed>
</trkpt>
<trkpt lat="56.000202" lon="26.685335">
<ele>127.788147</ele>
<time>2010-06-20T13:02:03Z</time>
<desc>lat.=56.000202, lon.=26.685335, Alt.=127.788147m. Speed=17.892000m/h.</desc>
<speed>4.970000</speed>
</trkpt>
<trkpt lat="56.000164" lon="26.685350">
<ele>127.829163</ele>
<time>2010-06-20T13:02:04Z</time>
<desc>lat.=56.000164, lon.=26.685350, Alt.=127.829163m. Speed=18.504000m/h.</desc>
<speed>5.140000</speed>
</trkpt>
<trkpt lat="56.000118" lon="26.685366">
<ele>127.981506</ele>
<time>2010-06-20T13:02:05Z</time>
<desc>lat.=56.000118, lon.=26.685366, Alt.=127.981506m. Speed=17.243999m/h.</desc>
<speed>4.790000</speed>
</trkpt>
<trkpt lat="56.000076" lon="26.685389">
<ele>128.338013</ele>
<time>2010-06-20T13:02:06Z</time>
<desc>lat.=56.000076, lon.=26.685389, Alt.=128.338013m. Speed=18.468000m/h.</desc>
<speed>5.130000</speed>
</trkpt>
<trkpt lat="56.000031" lon="26.685413">
<ele>128.552856</ele>
<time>2010-06-20T13:02:07Z</time>
<desc>lat.=56.000031, lon.=26.685413, Alt.=128.552856m. Speed=19.044001m/h.</desc>
<speed>5.290000</speed>
</trkpt>
<trkpt lat="55.999989" lon="26.685438">
<ele>128.759888</ele>
<time>2010-06-20T13:02:08Z</time>
<desc>lat.=55.999989, lon.=26.685438, Alt.=128.759888m. Speed=17.892000m/h.</desc>
<speed>4.970000</speed>
</trkpt>
<trkpt lat="55.999947" lon="26.685459">
<ele>128.666138</ele>
<time>2010-06-20T13:02:09Z</time>
<desc>lat.=55.999947, lon.=26.685459, Alt.=128.666138m. Speed=17.532000m/h.</desc>
<speed>4.870000</speed>
</trkpt>
<trkpt lat="55.999905" lon="26.685474">
<ele>128.767700</ele>
<time>2010-06-20T13:02:10Z</time>
<desc>lat.=55.999905, lon.=26.685474, Alt.=128.767700m. Speed=17.100000m/h.</desc>
<speed>4.750000</speed>
</trkpt>
<trkpt lat="55.999863" lon="26.685486">
<ele>128.630981</ele>
<time>2010-06-20T13:02:11Z</time>
<desc>lat.=55.999863, lon.=26.685486, Alt.=128.630981m. Speed=17.639999m/h.</desc>
<speed>4.900000</speed>
</trkpt>
<trkpt lat="55.999817" lon="26.685503">
<ele>128.634888</ele>
<time>2010-06-20T13:02:12Z</time>
<desc>lat.=55.999817, lon.=26.685503, Alt.=128.634888m. Speed=18.252001m/h.</desc>
<speed>5.070000</speed>
</trkpt>
<trkpt lat="55.999775" lon="26.685524">
<ele>128.892700</ele>
<time>2010-06-20T13:02:13Z</time>
<desc>lat.=55.999775, lon.=26.685524, Alt.=128.892700m. Speed=18.180000m/h.</desc>
<speed>5.050000</speed>
</trkpt>
<trkpt lat="55.999733" lon="26.685539">
<ele>129.252075</ele>
<time>2010-06-20T13:02:14Z</time>
<desc>lat.=55.999733, lon.=26.685539, Alt.=129.252075m. Speed=18.827999m/h.</desc>
<speed>5.230000</speed>
</trkpt>
<trkpt lat="55.999683" lon="26.685560">
<ele>129.654419</ele>
<time>2010-06-20T13:02:15Z</time>
<desc>lat.=55.999683, lon.=26.685560, Alt.=129.654419m. Speed=19.548000m/h.</desc>
<speed>5.430000</speed>
</trkpt>
<trkpt lat="55.999638" lon="26.685583">
<ele>129.978638</ele>
<time>2010-06-20T13:02:16Z</time>
<desc>lat.=55.999638, lon.=26.685583, Alt.=129.978638m. Speed=19.007999m/h.</desc>
<speed>5.280000</speed>
</trkpt>
<trkpt lat="55.999588" lon="26.685602">
<ele>129.654419</ele>
<time>2010-06-20T13:02:17Z</time>
<desc>lat.=55.999588, lon.=26.685602, Alt.=129.654419m. Speed=18.396000m/h.</desc>
<speed>5.110000</speed>
</trkpt>
<trkpt lat="55.999542" lon="26.685617">
<ele>129.685669</ele>
<time>2010-06-20T13:02:18Z</time>
<desc>lat.=55.999542, lon.=26.685617, Alt.=129.685669m. Speed=18.180000m/h.</desc>
<speed>5.050000</speed>
</trkpt>
<trkpt lat="55.999493" lon="26.685627">
<ele>129.677856</ele>
<time>2010-06-20T13:02:19Z</time>
<desc>lat.=55.999493, lon.=26.685627, Alt.=129.677856m. Speed=17.964001m/h.</desc>
<speed>4.990000</speed>
</trkpt>
<trkpt lat="55.999447" lon="26.685648">
<ele>129.673950</ele>
<time>2010-06-20T13:02:20Z</time>
<desc>lat.=55.999447, lon.=26.685648, Alt.=129.673950m. Speed=18.576000m/h.</desc>
<speed>5.160000</speed>
</trkpt>
<trkpt lat="55.999401" lon="26.685671">
<ele>129.935669</ele>
<time>2010-06-20T13:02:21Z</time>
<desc>lat.=55.999401, lon.=26.685671, Alt.=129.935669m. Speed=19.007999m/h.</desc>
<speed>5.280000</speed>
</trkpt>
<trkpt lat="55.999355" lon="26.685698">
<ele>129.959106</ele>
<time>2010-06-20T13:02:22Z</time>
<desc>lat.=55.999355, lon.=26.685698, Alt.=129.959106m. Speed=19.440001m/h.</desc>
<speed>5.400000</speed>
</trkpt>
<trkpt lat="55.999310" lon="26.685711">
<ele>129.642700</ele>
<time>2010-06-20T13:02:23Z</time>
<desc>lat.=55.999310, lon.=26.685711, Alt.=129.642700m. Speed=20.160000m/h.</desc>
<speed>5.600000</speed>
</trkpt>
<trkpt lat="55.999264" lon="26.685719">
<ele>129.525513</ele>
<time>2010-06-20T13:02:24Z</time>
<desc>lat.=55.999264, lon.=26.685719, Alt.=129.525513m. Speed=18.252001m/h.</desc>
<speed>5.070000</speed>
</trkpt>
<trkpt lat="55.999222" lon="26.685732">
<ele>129.533325</ele>
<time>2010-06-20T13:02:25Z</time>
<desc>lat.=55.999222, lon.=26.685732, Alt.=129.533325m. Speed=17.208000m/h.</desc>
<speed>4.780000</speed>
</trkpt>
<trkpt lat="55.999180" lon="26.685747">
<ele>129.611450</ele>
<time>2010-06-20T13:02:26Z</time>
<desc>lat.=55.999180, lon.=26.685747, Alt.=129.611450m. Speed=17.712000m/h.</desc>
<speed>4.920000</speed>
</trkpt>
<trkpt lat="55.999138" lon="26.685764">
<ele>129.693481</ele>
<time>2010-06-20T13:02:27Z</time>
<desc>lat.=55.999138, lon.=26.685764, Alt.=129.693481m. Speed=17.676001m/h.</desc>
<speed>4.910000</speed>
</trkpt>
<trkpt lat="55.999092" lon="26.685785">
<ele>129.716919</ele>
<time>2010-06-20T13:02:28Z</time>
<desc>lat.=55.999092, lon.=26.685785, Alt.=129.716919m. Speed=17.927999m/h.</desc>
<speed>4.980000</speed>
</trkpt>
<trkpt lat="55.999046" lon="26.685804">
<ele>130.064575</ele>
<time>2010-06-20T13:02:29Z</time>
<desc>lat.=55.999046, lon.=26.685804, Alt.=130.064575m. Speed=19.584000m/h.</desc>
<speed>5.440000</speed>
</trkpt>
<trkpt lat="55.998997" lon="26.685831">
<ele>130.384888</ele>
<time>2010-06-20T13:02:30Z</time>
<desc>lat.=55.998997, lon.=26.685831, Alt.=130.384888m. Speed=18.972000m/h.</desc>
<speed>5.270000</speed>
</trkpt>
<trkpt lat="55.998951" lon="26.685856">
<ele>130.552856</ele>
<time>2010-06-20T13:02:31Z</time>
<desc>lat.=55.998951, lon.=26.685856, Alt.=130.552856m. Speed=18.864000m/h.</desc>
<speed>5.240000</speed>
</trkpt>
<trkpt lat="55.998905" lon="26.685873">
<ele>130.673950</ele>
<time>2010-06-20T13:02:32Z</time>
<desc>lat.=55.998905, lon.=26.685873, Alt.=130.673950m. Speed=17.820000m/h.</desc>
<speed>4.950000</speed>
</trkpt>
<trkpt lat="55.998859" lon="26.685884">
<ele>130.720825</ele>
<time>2010-06-20T13:02:33Z</time>
<desc>lat.=55.998859, lon.=26.685884, Alt.=130.720825m. Speed=18.756001m/h.</desc>
<speed>5.210000</speed>
</trkpt>
<trkpt lat="55.998810" lon="26.685904">
<ele>130.810669</ele>
<time>2010-06-20T13:02:34Z</time>
<desc>lat.=55.998810, lon.=26.685904, Alt.=130.810669m. Speed=20.087999m/h.</desc>
<speed>5.580000</speed>
</trkpt>
<trkpt lat="55.998760" lon="26.685925">
<ele>130.377075</ele>
<time>2010-06-20T13:02:35Z</time>
<desc>lat.=55.998760, lon.=26.685925, Alt.=130.377075m. Speed=20.087999m/h.</desc>
<speed>5.580000</speed>
</trkpt>
<trkpt lat="55.998711" lon="26.685944">
<ele>130.150513</ele>
<time>2010-06-20T13:02:36Z</time>
<desc>lat.=55.998711, lon.=26.685944, Alt.=130.150513m. Speed=19.764000m/h.</desc>
<speed>5.490000</speed>
</trkpt>
<trkpt lat="55.998661" lon="26.685961">
<ele>130.091919</ele>
<time>2010-06-20T13:02:37Z</time>
<desc>lat.=55.998661, lon.=26.685961, Alt.=130.091919m. Speed=19.511999m/h.</desc>
<speed>5.420000</speed>
</trkpt>
<trkpt lat="55.998611" lon="26.685974">
<ele>130.084106</ele>
<time>2010-06-20T13:02:38Z</time>
<desc>lat.=55.998611, lon.=26.685974, Alt.=130.084106m. Speed=19.080000m/h.</desc>
<speed>5.300000</speed>
</trkpt>
<trkpt lat="55.998566" lon="26.685987">
<ele>129.861450</ele>
<time>2010-06-20T13:02:39Z</time>
<desc>lat.=55.998566, lon.=26.685987, Alt.=129.861450m. Speed=18.684000m/h.</desc>
<speed>5.190000</speed>
</trkpt>
<trkpt lat="55.998516" lon="26.686003">
<ele>129.427856</ele>
<time>2010-06-20T13:02:40Z</time>
<desc>lat.=55.998516, lon.=26.686003, Alt.=129.427856m. Speed=18.035999m/h.</desc>
<speed>5.010000</speed>
</trkpt>
<trkpt lat="55.998474" lon="26.686016">
<ele>129.283325</ele>
<time>2010-06-20T13:02:41Z</time>
<desc>lat.=55.998474, lon.=26.686016, Alt.=129.283325m. Speed=17.532000m/h.</desc>
<speed>4.870000</speed>
</trkpt>
<trkpt lat="55.998432" lon="26.686035">
<ele>129.002075</ele>
<time>2010-06-20T13:02:42Z</time>
<desc>lat.=55.998432, lon.=26.686035, Alt.=129.002075m. Speed=17.964001m/h.</desc>
<speed>4.990000</speed>
</trkpt>
<trkpt lat="55.998386" lon="26.686058">
<ele>128.880981</ele>
<time>2010-06-20T13:02:43Z</time>
<desc>lat.=55.998386, lon.=26.686058, Alt.=128.880981m. Speed=18.576000m/h.</desc>
<speed>5.160000</speed>
</trkpt>
<trkpt lat="55.998337" lon="26.686079">
<ele>128.990356</ele>
<time>2010-06-20T13:02:44Z</time>
<desc>lat.=55.998337, lon.=26.686079, Alt.=128.990356m. Speed=19.403999m/h.</desc>
<speed>5.390000</speed>
</trkpt>
<trkpt lat="55.998287" lon="26.686096">
<ele>129.025513</ele>
<time>2010-06-20T13:02:45Z</time>
<desc>lat.=55.998287, lon.=26.686096, Alt.=129.025513m. Speed=20.268000m/h.</desc>
<speed>5.630000</speed>
</trkpt>
<trkpt lat="55.998238" lon="26.686119">
<ele>129.365356</ele>
<time>2010-06-20T13:02:46Z</time>
<desc>lat.=55.998238, lon.=26.686119, Alt.=129.365356m. Speed=20.124001m/h.</desc>
<speed>5.590000</speed>
</trkpt>
<trkpt lat="55.998188" lon="26.686140">
<ele>129.849731</ele>
<time>2010-06-20T13:02:47Z</time>
<desc>lat.=55.998188, lon.=26.686140, Alt.=129.849731m. Speed=20.268000m/h.</desc>
<speed>5.630000</speed>
</trkpt>
<trkpt lat="55.998138" lon="26.686159">
<ele>130.275513</ele>
<time>2010-06-20T13:02:48Z</time>
<desc>lat.=55.998138, lon.=26.686159, Alt.=130.275513m. Speed=19.656000m/h.</desc>
<speed>5.460000</speed>
</trkpt>
<trkpt lat="55.998089" lon="26.686180">
<ele>130.861450</ele>
<time>2010-06-20T13:02:49Z</time>
<desc>lat.=55.998089, lon.=26.686180, Alt.=130.861450m. Speed=19.511999m/h.</desc>
<speed>5.420000</speed>
</trkpt>
<trkpt lat="55.998035" lon="26.686205">
<ele>131.017700</ele>
<time>2010-06-20T13:02:50Z</time>
<desc>lat.=55.998035, lon.=26.686205, Alt.=131.017700m. Speed=19.728001m/h.</desc>
<speed>5.480000</speed>
</trkpt>
<trkpt lat="55.997986" lon="26.686230">
<ele>131.357544</ele>
<time>2010-06-20T13:02:51Z</time>
<desc>lat.=55.997986, lon.=26.686230, Alt.=131.357544m. Speed=19.548000m/h.</desc>
<speed>5.430000</speed>
</trkpt>
<trkpt lat="55.997940" lon="26.686249">
<ele>131.654419</ele>
<time>2010-06-20T13:02:52Z</time>
<desc>lat.=55.997940, lon.=26.686249, Alt.=131.654419m. Speed=19.224001m/h.</desc>
<speed>5.340000</speed>
</trkpt>
<trkpt lat="55.997894" lon="26.686266">
<ele>131.849731</ele>
<time>2010-06-20T13:02:53Z</time>
<desc>lat.=55.997894, lon.=26.686266, Alt.=131.849731m. Speed=19.368000m/h.</desc>
<speed>5.380000</speed>
</trkpt>
<trkpt lat="55.997841" lon="26.686279">
<ele>131.314575</ele>
<time>2010-06-20T13:02:54Z</time>
<desc>lat.=55.997841, lon.=26.686279, Alt.=131.314575m. Speed=19.656000m/h.</desc>
<speed>5.460000</speed>
</trkpt>
<trkpt lat="55.997791" lon="26.686296">
<ele>131.396606</ele>
<time>2010-06-20T13:02:55Z</time>
<desc>lat.=55.997791, lon.=26.686296, Alt.=131.396606m. Speed=19.368000m/h.</desc>
<speed>5.380000</speed>
</trkpt>
<trkpt lat="55.997742" lon="26.686317">
<ele>131.416138</ele>
<time>2010-06-20T13:02:56Z</time>
<desc>lat.=55.997742, lon.=26.686317, Alt.=131.416138m. Speed=18.936001m/h.</desc>
<speed>5.260000</speed>
</trkpt>
<trkpt lat="55.997696" lon="26.686338">
<ele>131.525513</ele>
<time>2010-06-20T13:02:57Z</time>
<desc>lat.=55.997696, lon.=26.686338, Alt.=131.525513m. Speed=18.576000m/h.</desc>
<speed>5.160000</speed>
</trkpt>
<trkpt lat="55.997650" lon="26.686359">
<ele>131.697388</ele>
<time>2010-06-20T13:02:58Z</time>
<desc>lat.=55.997650, lon.=26.686359, Alt.=131.697388m. Speed=18.360001m/h.</desc>
<speed>5.100000</speed>
</trkpt>
<trkpt lat="55.997604" lon="26.686378">
<ele>131.763794</ele>
<time>2010-06-20T13:02:59Z</time>
<desc>lat.=55.997604, lon.=26.686378, Alt.=131.763794m. Speed=18.072001m/h.</desc>
<speed>5.020000</speed>
</trkpt>
<trkpt lat="55.997559" lon="26.686392">
<ele>131.673950</ele>
<time>2010-06-20T13:03:00Z</time>
<desc>lat.=55.997559, lon.=26.686392, Alt.=131.673950m. Speed=17.747999m/h.</desc>
<speed>4.930000</speed>
</trkpt>
<trkpt lat="55.997517" lon="26.686409">
<ele>131.779419</ele>
<time>2010-06-20T13:03:01Z</time>
<desc>lat.=55.997517, lon.=26.686409, Alt.=131.779419m. Speed=18.000000m/h.</desc>
<speed>5.000000</speed>
</trkpt>
<trkpt lat="55.997471" lon="26.686426">
<ele>131.650513</ele>
<time>2010-06-20T13:03:02Z</time>
<desc>lat.=55.997471, lon.=26.686426, Alt.=131.650513m. Speed=19.188000m/h.</desc>
<speed>5.330000</speed>
</trkpt>
<trkpt lat="55.997425" lon="26.686443">
<ele>131.572388</ele>
<time>2010-06-20T13:03:03Z</time>
<desc>lat.=55.997425, lon.=26.686443, Alt.=131.572388m. Speed=19.728001m/h.</desc>
<speed>5.480000</speed>
</trkpt>
<trkpt lat="55.997379" lon="26.686466">
<ele>131.533325</ele>
<time>2010-06-20T13:03:04Z</time>
<desc>lat.=55.997379, lon.=26.686466, Alt.=131.533325m. Speed=20.448000m/h.</desc>
<speed>5.680000</speed>
</trkpt>
<trkpt lat="55.997334" lon="26.686489">
<ele>131.494263</ele>
<time>2010-06-20T13:03:05Z</time>
<desc>lat.=55.997334, lon.=26.686489, Alt.=131.494263m. Speed=20.700001m/h.</desc>
<speed>5.750000</speed>
</trkpt>
<trkpt lat="55.997284" lon="26.686510">
<ele>131.466919</ele>
<time>2010-06-20T13:03:06Z</time>
<desc>lat.=55.997284, lon.=26.686510, Alt.=131.466919m. Speed=20.520000m/h.</desc>
<speed>5.700000</speed>
</trkpt>
<trkpt lat="55.997234" lon="26.686527">
<ele>131.388794</ele>
<time>2010-06-20T13:03:07Z</time>
<desc>lat.=55.997234, lon.=26.686527, Alt.=131.388794m. Speed=20.412001m/h.</desc>
<speed>5.670000</speed>
</trkpt>
<trkpt lat="55.997189" lon="26.686546">
<ele>131.322388</ele>
<time>2010-06-20T13:03:08Z</time>
<desc>lat.=55.997189, lon.=26.686546, Alt.=131.322388m. Speed=20.304001m/h.</desc>
<speed>5.640000</speed>
</trkpt>
<trkpt lat="55.997143" lon="26.686565">
<ele>131.330200</ele>
<time>2010-06-20T13:03:09Z</time>
<desc>lat.=55.997143, lon.=26.686565, Alt.=131.330200m. Speed=20.087999m/h.</desc>
<speed>5.580000</speed>
</trkpt>
<trkpt lat="55.997093" lon="26.686586">
<ele>131.361450</ele>
<time>2010-06-20T13:03:10Z</time>
<desc>lat.=55.997093, lon.=26.686586, Alt.=131.361450m. Speed=19.872000m/h.</desc>
<speed>5.520000</speed>
</trkpt>
<trkpt lat="55.997047" lon="26.686607">
<ele>131.287231</ele>
<time>2010-06-20T13:03:11Z</time>
<desc>lat.=55.997047, lon.=26.686607, Alt.=131.287231m. Speed=19.296000m/h.</desc>
<speed>5.360000</speed>
</trkpt>
<trkpt lat="55.997002" lon="26.686630">
<ele>131.400513</ele>
<time>2010-06-20T13:03:12Z</time>
<desc>lat.=55.997002, lon.=26.686630, Alt.=131.400513m. Speed=18.972000m/h.</desc>
<speed>5.270000</speed>
</trkpt>
<trkpt lat="55.996956" lon="26.686647">
<ele>131.216919</ele>
<time>2010-06-20T13:03:13Z</time>
<desc>lat.=55.996956, lon.=26.686647, Alt.=131.216919m. Speed=18.252001m/h.</desc>
<speed>5.070000</speed>
</trkpt>
<trkpt lat="55.996910" lon="26.686663">
<ele>131.068481</ele>
<time>2010-06-20T13:03:14Z</time>
<desc>lat.=55.996910, lon.=26.686663, Alt.=131.068481m. Speed=18.252001m/h.</desc>
<speed>5.070000</speed>
</trkpt>
<trkpt lat="55.996864" lon="26.686680">
<ele>131.060669</ele>
<time>2010-06-20T13:03:15Z</time>
<desc>lat.=55.996864, lon.=26.686680, Alt.=131.060669m. Speed=18.648001m/h.</desc>
<speed>5.180000</speed>
</trkpt>
<trkpt lat="55.996819" lon="26.686701">
<ele>131.084106</ele>
<time>2010-06-20T13:03:16Z</time>
<desc>lat.=55.996819, lon.=26.686701, Alt.=131.084106m. Speed=19.007999m/h.</desc>
<speed>5.280000</speed>
</trkpt>
<trkpt lat="55.996773" lon="26.686718">
<ele>131.099731</ele>
<time>2010-06-20T13:03:17Z</time>
<desc>lat.=55.996773, lon.=26.686718, Alt.=131.099731m. Speed=19.656000m/h.</desc>
<speed>5.460000</speed>
</trkpt>
<trkpt lat="55.996727" lon="26.686743">
<ele>131.213013</ele>
<time>2010-06-20T13:03:18Z</time>
<desc>lat.=55.996727, lon.=26.686743, Alt.=131.213013m. Speed=20.195999m/h.</desc>
<speed>5.610000</speed>
</trkpt>
<trkpt lat="55.996681" lon="26.686773">
<ele>130.994263</ele>
<time>2010-06-20T13:03:19Z</time>
<desc>lat.=55.996681, lon.=26.686773, Alt.=130.994263m. Speed=19.728001m/h.</desc>
<speed>5.480000</speed>
</trkpt>
<trkpt lat="55.996639" lon="26.686806">
<ele>131.080200</ele>
<time>2010-06-20T13:03:20Z</time>
<desc>lat.=55.996639, lon.=26.686806, Alt.=131.080200m. Speed=18.900000m/h.</desc>
<speed>5.250000</speed>
</trkpt>
<trkpt lat="55.996597" lon="26.686842">
<ele>130.970825</ele>
<time>2010-06-20T13:03:21Z</time>
<desc>lat.=55.996597, lon.=26.686842, Alt.=130.970825m. Speed=18.719999m/h.</desc>
<speed>5.200000</speed>
</trkpt>
<trkpt lat="55.996555" lon="26.686876">
<ele>130.888794</ele>
<time>2010-06-20T13:03:22Z</time>
<desc>lat.=55.996555, lon.=26.686876, Alt.=130.888794m. Speed=18.504000m/h.</desc>
<speed>5.140000</speed>
</trkpt>
<trkpt lat="55.996517" lon="26.686911">
<ele>130.791138</ele>
<time>2010-06-20T13:03:23Z</time>
<desc>lat.=55.996517, lon.=26.686911, Alt.=130.791138m. Speed=18.180000m/h.</desc>
<speed>5.050000</speed>
</trkpt>
<trkpt lat="55.996475" lon="26.686943">
<ele>130.861450</ele>
<time>2010-06-20T13:03:24Z</time>
<desc>lat.=55.996475, lon.=26.686943, Alt.=130.861450m. Speed=17.028000m/h.</desc>
<speed>4.730000</speed>
</trkpt>
<trkpt lat="55.996437" lon="26.686974">
<ele>130.904419</ele>
<time>2010-06-20T13:03:25Z</time>
<desc>lat.=55.996437, lon.=26.686974, Alt.=130.904419m. Speed=16.992001m/h.</desc>
<speed>4.720000</speed>
</trkpt>
<trkpt lat="55.996399" lon="26.687002">
<ele>130.759888</ele>
<time>2010-06-20T13:03:26Z</time>
<desc>lat.=55.996399, lon.=26.687002, Alt.=130.759888m. Speed=16.740000m/h.</desc>
<speed>4.650000</speed>
</trkpt>
<trkpt lat="55.996365" lon="26.687035">
<ele>130.490356</ele>
<time>2010-06-20T13:03:27Z</time>
<desc>lat.=55.996365, lon.=26.687035, Alt.=130.490356m. Speed=16.308001m/h.</desc>
<speed>4.530000</speed>
</trkpt>
<trkpt lat="55.996330" lon="26.687069">
<ele>130.463013</ele>
<time>2010-06-20T13:03:28Z</time>
<desc>lat.=55.996330, lon.=26.687069, Alt.=130.463013m. Speed=16.020000m/h.</desc>
<speed>4.450000</speed>
</trkpt>
<trkpt lat="55.996296" lon="26.687103">
<ele>130.416138</ele>
<time>2010-06-20T13:03:29Z</time>
<desc>lat.=55.996296, lon.=26.687103, Alt.=130.416138m. Speed=15.804000m/h.</desc>
<speed>4.390000</speed>
</trkpt>
<trkpt lat="55.996265" lon="26.687140">
<ele>130.197388</ele>
<time>2010-06-20T13:03:30Z</time>
<desc>lat.=55.996265, lon.=26.687140, Alt.=130.197388m. Speed=15.768000m/h.</desc>
<speed>4.380000</speed>
</trkpt>
<trkpt lat="55.996231" lon="26.687172">
<ele>130.017700</ele>
<time>2010-06-20T13:03:31Z</time>
<desc>lat.=55.996231, lon.=26.687172, Alt.=130.017700m. Speed=15.732000m/h.</desc>
<speed>4.370000</speed>
</trkpt>
<trkpt lat="55.996197" lon="26.687201">
<ele>129.416138</ele>
<time>2010-06-20T13:03:32Z</time>
<desc>lat.=55.996197, lon.=26.687201, Alt.=129.416138m. Speed=16.164000m/h.</desc>
<speed>4.490000</speed>
</trkpt>
<trkpt lat="55.996162" lon="26.687235">
<ele>129.197388</ele>
<time>2010-06-20T13:03:33Z</time>
<desc>lat.=55.996162, lon.=26.687235, Alt.=129.197388m. Speed=16.848000m/h.</desc>
<speed>4.680000</speed>
</trkpt>
<trkpt lat="55.996124" lon="26.687277">
<ele>129.111450</ele>
<time>2010-06-20T13:03:34Z</time>
<desc>lat.=55.996124, lon.=26.687277, Alt.=129.111450m. Speed=17.712000m/h.</desc>
<speed>4.920000</speed>
</trkpt>
<trkpt lat="55.996086" lon="26.687323">
<ele>128.521606</ele>
<time>2010-06-20T13:03:35Z</time>
<desc>lat.=55.996086, lon.=26.687323, Alt.=128.521606m. Speed=18.504000m/h.</desc>
<speed>5.140000</speed>
</trkpt>
<trkpt lat="55.996044" lon="26.687372">
<ele>128.275513</ele>
<time>2010-06-20T13:03:36Z</time>
<desc>lat.=55.996044, lon.=26.687372, Alt.=128.275513m. Speed=19.620001m/h.</desc>
<speed>5.450000</speed>
</trkpt>
<trkpt lat="55.995998" lon="26.687420">
<ele>127.758850</ele>
<time>2010-06-20T13:03:37Z</time>
<desc>lat.=55.995998, lon.=26.687420, Alt.=127.758850m. Speed=20.520000m/h.</desc>
<speed>5.700000</speed>
</trkpt>
<trkpt lat="55.995949" lon="26.687468">
<ele>127.307678</ele>
<time>2010-06-20T13:03:38Z</time>
<desc>lat.=55.995949, lon.=26.687468, Alt.=127.307678m. Speed=21.563999m/h.</desc>
<speed>5.990000</speed>
</trkpt>
<trkpt lat="55.995903" lon="26.687515">
<ele>127.102600</ele>
<time>2010-06-20T13:03:39Z</time>
<desc>lat.=55.995903, lon.=26.687515, Alt.=127.102600m. Speed=22.320000m/h.</desc>
<speed>6.200000</speed>
</trkpt>
<trkpt lat="55.995853" lon="26.687563">
<ele>126.670959</ele>
<time>2010-06-20T13:03:40Z</time>
<desc>lat.=55.995853, lon.=26.687563, Alt.=126.670959m. Speed=22.356001m/h.</desc>
<speed>6.210000</speed>
</trkpt>
<trkpt lat="55.995808" lon="26.687618">
<ele>126.379944</ele>
<time>2010-06-20T13:03:41Z</time>
<desc>lat.=55.995808, lon.=26.687618, Alt.=126.379944m. Speed=23.615999m/h.</desc>
<speed>6.560000</speed>
</trkpt>
<trkpt lat="55.995754" lon="26.687670">
<ele>125.999084</ele>
<time>2010-06-20T13:03:42Z</time>
<desc>lat.=55.995754, lon.=26.687670, Alt.=125.999084m. Speed=24.120001m/h.</desc>
<speed>6.700000</speed>
</trkpt>
<trkpt lat="55.995701" lon="26.687731">
<ele>125.907288</ele>
<time>2010-06-20T13:03:43Z</time>
<desc>lat.=55.995701, lon.=26.687731, Alt.=125.907288m. Speed=25.164000m/h.</desc>
<speed>6.990000</speed>
</trkpt>
<trkpt lat="55.995647" lon="26.687786">
<ele>125.715881</ele>
<time>2010-06-20T13:03:44Z</time>
<desc>lat.=55.995647, lon.=26.687786, Alt.=125.715881m. Speed=24.587999m/h.</desc>
<speed>6.830000</speed>
</trkpt>
<trkpt lat="55.995594" lon="26.687843">
<ele>125.526428</ele>
<time>2010-06-20T13:03:45Z</time>
<desc>lat.=55.995594, lon.=26.687843, Alt.=125.526428m. Speed=24.336000m/h.</desc>
<speed>6.760000</speed>
</trkpt>
<trkpt lat="55.995541" lon="26.687899">
<ele>125.368225</ele>
<time>2010-06-20T13:03:46Z</time>
<desc>lat.=55.995541, lon.=26.687899, Alt.=125.368225m. Speed=24.011999m/h.</desc>
<speed>6.670000</speed>
</trkpt>
<trkpt lat="55.995491" lon="26.687956">
<ele>125.260803</ele>
<time>2010-06-20T13:03:47Z</time>
<desc>lat.=55.995491, lon.=26.687956, Alt.=125.260803m. Speed=23.652000m/h.</desc>
<speed>6.570000</speed>
</trkpt>
<trkpt lat="55.995441" lon="26.688009">
<ele>125.127991</ele>
<time>2010-06-20T13:03:48Z</time>
<desc>lat.=55.995441, lon.=26.688009, Alt.=125.127991m. Speed=23.327999m/h.</desc>
<speed>6.480000</speed>
</trkpt>
<trkpt lat="55.995396" lon="26.688061">
<ele>125.001038</ele>
<time>2010-06-20T13:03:49Z</time>
<desc>lat.=55.995396, lon.=26.688061, Alt.=125.001038m. Speed=22.896000m/h.</desc>
<speed>6.360000</speed>
</trkpt>
<trkpt lat="55.995346" lon="26.688108">
<ele>124.944397</ele>
<time>2010-06-20T13:03:50Z</time>
<desc>lat.=55.995346, lon.=26.688108, Alt.=124.944397m. Speed=22.356001m/h.</desc>
<speed>6.210000</speed>
</trkpt>
<trkpt lat="55.995296" lon="26.688152">
<ele>124.877991</ele>
<time>2010-06-20T13:03:51Z</time>
<desc>lat.=55.995296, lon.=26.688152, Alt.=124.877991m. Speed=21.888000m/h.</desc>
<speed>6.080000</speed>
</trkpt>
<trkpt lat="55.995247" lon="26.688200">
<ele>124.821350</ele>
<time>2010-06-20T13:03:52Z</time>
<desc>lat.=55.995247, lon.=26.688200, Alt.=124.821350m. Speed=21.348000m/h.</desc>
<speed>5.930000</speed>
</trkpt>
<trkpt lat="55.995201" lon="26.688246">
<ele>124.434631</ele>
<time>2010-06-20T13:03:53Z</time>
<desc>lat.=55.995201, lon.=26.688246, Alt.=124.434631m. Speed=21.132000m/h.</desc>
<speed>5.870000</speed>
</trkpt>
<trkpt lat="55.995155" lon="26.688292">
<ele>124.006897</ele>
<time>2010-06-20T13:03:54Z</time>
<desc>lat.=55.995155, lon.=26.688292, Alt.=124.006897m. Speed=21.420000m/h.</desc>
<speed>5.950000</speed>
</trkpt>
<trkpt lat="55.995106" lon="26.688335">
<ele>123.938538</ele>
<time>2010-06-20T13:03:55Z</time>
<desc>lat.=55.995106, lon.=26.688335, Alt.=123.938538m. Speed=21.780001m/h.</desc>
<speed>6.050000</speed>
</trkpt>
<trkpt lat="55.995060" lon="26.688385">
<ele>123.920959</ele>
<time>2010-06-20T13:03:56Z</time>
<desc>lat.=55.995060, lon.=26.688385, Alt.=123.920959m. Speed=21.996000m/h.</desc>
<speed>6.110000</speed>
</trkpt>
<trkpt lat="55.995010" lon="26.688435">
<ele>123.946350</ele>
<time>2010-06-20T13:03:57Z</time>
<desc>lat.=55.995010, lon.=26.688435, Alt.=123.946350m. Speed=22.247999m/h.</desc>
<speed>6.180000</speed>
</trkpt>
<trkpt lat="55.994961" lon="26.688482">
<ele>123.661194</ele>
<time>2010-06-20T13:03:58Z</time>
<desc>lat.=55.994961, lon.=26.688482, Alt.=123.661194m. Speed=22.320000m/h.</desc>
<speed>6.200000</speed>
</trkpt>
<trkpt lat="55.994911" lon="26.688534">
<ele>123.655334</ele>
<time>2010-06-20T13:03:59Z</time>
<desc>lat.=55.994911, lon.=26.688534, Alt.=123.655334m. Speed=22.392000m/h.</desc>
<speed>6.220000</speed>
</trkpt>
<trkpt lat="55.994862" lon="26.688587">
<ele>123.823303</ele>
<time>2010-06-20T13:04:00Z</time>
<desc>lat.=55.994862, lon.=26.688587, Alt.=123.823303m. Speed=22.427999m/h.</desc>
<speed>6.230000</speed>
</trkpt>
<trkpt lat="55.994812" lon="26.688633">
<ele>123.905334</ele>
<time>2010-06-20T13:04:01Z</time>
<desc>lat.=55.994812, lon.=26.688633, Alt.=123.905334m. Speed=22.284000m/h.</desc>
<speed>6.190000</speed>
</trkpt>
<trkpt lat="55.994766" lon="26.688681">
<ele>123.905334</ele>
<time>2010-06-20T13:04:02Z</time>
<desc>lat.=55.994766, lon.=26.688681, Alt.=123.905334m. Speed=22.572001m/h.</desc>
<speed>6.270000</speed>
</trkpt>
<trkpt lat="55.994717" lon="26.688728">
<ele>124.215881</ele>
<time>2010-06-20T13:04:03Z</time>
<desc>lat.=55.994717, lon.=26.688728, Alt.=124.215881m. Speed=22.427999m/h.</desc>
<speed>6.230000</speed>
</trkpt>
<trkpt lat="55.994667" lon="26.688774">
<ele>124.092834</ele>
<time>2010-06-20T13:04:04Z</time>
<desc>lat.=55.994667, lon.=26.688774, Alt.=124.092834m. Speed=22.752001m/h.</desc>
<speed>6.320000</speed>
</trkpt>
<trkpt lat="55.994617" lon="26.688824">
<ele>123.778381</ele>
<time>2010-06-20T13:04:05Z</time>
<desc>lat.=55.994617, lon.=26.688824, Alt.=123.778381m. Speed=22.823999m/h.</desc>
<speed>6.340000</speed>
</trkpt>
<trkpt lat="55.994572" lon="26.688873">
<ele>123.706116</ele>
<time>2010-06-20T13:04:06Z</time>
<desc>lat.=55.994572, lon.=26.688873, Alt.=123.706116m. Speed=21.492001m/h.</desc>
<speed>5.970000</speed>
</trkpt>
<trkpt lat="55.994530" lon="26.688919">
<ele>123.526428</ele>
<time>2010-06-20T13:04:07Z</time>
<desc>lat.=55.994530, lon.=26.688919, Alt.=123.526428m. Speed=20.591999m/h.</desc>
<speed>5.720000</speed>
</trkpt>
<trkpt lat="55.994488" lon="26.688963">
<ele>123.213928</ele>
<time>2010-06-20T13:04:08Z</time>
<desc>lat.=55.994488, lon.=26.688963, Alt.=123.213928m. Speed=18.827999m/h.</desc>
<speed>5.230000</speed>
</trkpt>
<trkpt lat="55.994446" lon="26.689007">
<ele>122.887756</ele>
<time>2010-06-20T13:04:09Z</time>
<desc>lat.=55.994446, lon.=26.689007, Alt.=122.887756m. Speed=19.188000m/h.</desc>
<speed>5.330000</speed>
</trkpt>
<trkpt lat="55.994408" lon="26.689047">
<ele>122.811584</ele>
<time>2010-06-20T13:04:10Z</time>
<desc>lat.=55.994408, lon.=26.689047, Alt.=122.811584m. Speed=17.028000m/h.</desc>
<speed>4.730000</speed>
</trkpt>
<trkpt lat="55.994377" lon="26.689074">
<ele>122.553772</ele>
<time>2010-06-20T13:04:11Z</time>
<desc>lat.=55.994377, lon.=26.689074, Alt.=122.553772m. Speed=15.624000m/h.</desc>
<speed>4.340000</speed>
</trkpt>
<trkpt lat="55.994347" lon="26.689102">
<ele>122.561584</ele>
<time>2010-06-20T13:04:12Z</time>
<desc>lat.=55.994347, lon.=26.689102, Alt.=122.561584m. Speed=15.156000m/h.</desc>
<speed>4.210000</speed>
</trkpt>
<trkpt lat="55.994316" lon="26.689135">
<ele>122.018616</ele>
<time>2010-06-20T13:04:13Z</time>
<desc>lat.=55.994316, lon.=26.689135, Alt.=122.018616m. Speed=14.112000m/h.</desc>
<speed>3.920000</speed>
</trkpt>
<trkpt lat="55.994286" lon="26.689165">
<ele>122.260803</ele>
<time>2010-06-20T13:04:14Z</time>
<desc>lat.=55.994286, lon.=26.689165, Alt.=122.260803m. Speed=13.068000m/h.</desc>
<speed>3.630000</speed>
</trkpt>
<trkpt lat="55.994259" lon="26.689194">
<ele>122.147522</ele>
<time>2010-06-20T13:04:15Z</time>
<desc>lat.=55.994259, lon.=26.689194, Alt.=122.147522m. Speed=13.608000m/h.</desc>
<speed>3.780000</speed>
</trkpt>
<trkpt lat="55.994232" lon="26.689226">
<ele>122.237366</ele>
<time>2010-06-20T13:04:16Z</time>
<desc>lat.=55.994232, lon.=26.689226, Alt.=122.237366m. Speed=14.004000m/h.</desc>
<speed>3.890000</speed>
</trkpt>
<trkpt lat="55.994205" lon="26.689251">
<ele>122.389709</ele>
<time>2010-06-20T13:04:17Z</time>
<desc>lat.=55.994205, lon.=26.689251, Alt.=122.389709m. Speed=14.112000m/h.</desc>
<speed>3.920000</speed>
</trkpt>
<trkpt lat="55.994179" lon="26.689280">
<ele>122.567444</ele>
<time>2010-06-20T13:04:18Z</time>
<desc>lat.=55.994179, lon.=26.689280, Alt.=122.567444m. Speed=14.184000m/h.</desc>
<speed>3.940000</speed>
</trkpt>
<trkpt lat="55.994152" lon="26.689312">
<ele>122.586975</ele>
<time>2010-06-20T13:04:19Z</time>
<desc>lat.=55.994152, lon.=26.689312, Alt.=122.586975m. Speed=14.292000m/h.</desc>
<speed>3.970000</speed>
</trkpt>
<trkpt lat="55.994125" lon="26.689339">
<ele>122.622131</ele>
<time>2010-06-20T13:04:20Z</time>
<desc>lat.=55.994125, lon.=26.689339, Alt.=122.622131m. Speed=14.292000m/h.</desc>
<speed>3.970000</speed>
</trkpt>
<trkpt lat="55.994091" lon="26.689375">
<ele>122.958069</ele>
<time>2010-06-20T13:04:21Z</time>
<desc>lat.=55.994091, lon.=26.689375, Alt.=122.958069m. Speed=14.868000m/h.</desc>
<speed>4.130000</speed>
</trkpt>
<trkpt lat="55.994057" lon="26.689415">
<ele>122.893616</ele>
<time>2010-06-20T13:04:22Z</time>
<desc>lat.=55.994057, lon.=26.689415, Alt.=122.893616m. Speed=16.056000m/h.</desc>
<speed>4.460000</speed>
</trkpt>
<trkpt lat="55.994026" lon="26.689449">
<ele>122.868225</ele>
<time>2010-06-20T13:04:23Z</time>
<desc>lat.=55.994026, lon.=26.689449, Alt.=122.868225m. Speed=14.724000m/h.</desc>
<speed>4.090000</speed>
</trkpt>
<trkpt lat="55.993996" lon="26.689474">
<ele>123.053772</ele>
<time>2010-06-20T13:04:24Z</time>
<desc>lat.=55.993996, lon.=26.689474, Alt.=123.053772m. Speed=15.840000m/h.</desc>
<speed>4.400000</speed>
</trkpt>
<trkpt lat="55.993958" lon="26.689512">
<ele>123.073303</ele>
<time>2010-06-20T13:04:25Z</time>
<desc>lat.=55.993958, lon.=26.689512, Alt.=123.073303m. Speed=16.416000m/h.</desc>
<speed>4.560000</speed>
</trkpt>
<trkpt lat="55.993927" lon="26.689550">
<ele>123.866272</ele>
<time>2010-06-20T13:04:26Z</time>
<desc>lat.=55.993927, lon.=26.689550, Alt.=123.866272m. Speed=15.660000m/h.</desc>
<speed>4.350000</speed>
</trkpt>
<trkpt lat="55.993893" lon="26.689585">
<ele>123.479553</ele>
<time>2010-06-20T13:04:27Z</time>
<desc>lat.=55.993893, lon.=26.689585, Alt.=123.479553m. Speed=17.028000m/h.</desc>
<speed>4.730000</speed>
</trkpt>
<trkpt lat="55.993855" lon="26.689623">
<ele>123.405334</ele>
<time>2010-06-20T13:04:28Z</time>
<desc>lat.=55.993855, lon.=26.689623, Alt.=123.405334m. Speed=17.028000m/h.</desc>
<speed>4.730000</speed>
</trkpt>
<trkpt lat="55.993816" lon="26.689659">
<ele>123.397522</ele>
<time>2010-06-20T13:04:29Z</time>
<desc>lat.=55.993816, lon.=26.689659, Alt.=123.397522m. Speed=17.496000m/h.</desc>
<speed>4.860000</speed>
</trkpt>
<trkpt lat="55.993778" lon="26.689701">
<ele>123.401428</ele>
<time>2010-06-20T13:04:30Z</time>
<desc>lat.=55.993778, lon.=26.689701, Alt.=123.401428m. Speed=16.740000m/h.</desc>
<speed>4.650000</speed>
</trkpt>
<trkpt lat="55.993740" lon="26.689745">
<ele>123.485413</ele>
<time>2010-06-20T13:04:31Z</time>
<desc>lat.=55.993740, lon.=26.689745, Alt.=123.485413m. Speed=18.000000m/h.</desc>
<speed>5.000000</speed>
</trkpt>
<trkpt lat="55.993702" lon="26.689787">
<ele>123.391663</ele>
<time>2010-06-20T13:04:32Z</time>
<desc>lat.=55.993702, lon.=26.689787, Alt.=123.391663m. Speed=17.964001m/h.</desc>
<speed>4.990000</speed>
</trkpt>
<trkpt lat="55.993660" lon="26.689835">
<ele>123.252991</ele>
<time>2010-06-20T13:04:33Z</time>
<desc>lat.=55.993660, lon.=26.689835, Alt.=123.252991m. Speed=18.323999m/h.</desc>
<speed>5.090000</speed>
</trkpt>
<trkpt lat="55.993622" lon="26.689880">
<ele>123.213928</ele>
<time>2010-06-20T13:04:34Z</time>
<desc>lat.=55.993622, lon.=26.689880, Alt.=123.213928m. Speed=18.756001m/h.</desc>
<speed>5.210000</speed>
</trkpt>
<trkpt lat="55.993580" lon="26.689928">
<ele>123.344788</ele>
<time>2010-06-20T13:04:35Z</time>
<desc>lat.=55.993580, lon.=26.689928, Alt.=123.344788m. Speed=19.188000m/h.</desc>
<speed>5.330000</speed>
</trkpt>
<trkpt lat="55.993538" lon="26.689972">
<ele>123.645569</ele>
<time>2010-06-20T13:04:36Z</time>
<desc>lat.=55.993538, lon.=26.689972, Alt.=123.645569m. Speed=19.584000m/h.</desc>
<speed>5.440000</speed>
</trkpt>
<trkpt lat="55.993496" lon="26.690020">
<ele>123.813538</ele>
<time>2010-06-20T13:04:37Z</time>
<desc>lat.=55.993496, lon.=26.690020, Alt.=123.813538m. Speed=19.260000m/h.</desc>
<speed>5.350000</speed>
</trkpt>
<trkpt lat="55.993458" lon="26.690069">
<ele>123.788147</ele>
<time>2010-06-20T13:04:38Z</time>
<desc>lat.=55.993458, lon.=26.690069, Alt.=123.788147m. Speed=18.576000m/h.</desc>
<speed>5.160000</speed>
</trkpt>
<trkpt lat="55.993420" lon="26.690119">
<ele>123.809631</ele>
<time>2010-06-20T13:04:39Z</time>
<desc>lat.=55.993420, lon.=26.690119, Alt.=123.809631m. Speed=17.459999m/h.</desc>
<speed>4.850000</speed>
</trkpt>
<trkpt lat="55.993389" lon="26.690168">
<ele>123.946350</ele>
<time>2010-06-20T13:04:40Z</time>
<desc>lat.=55.993389, lon.=26.690168, Alt.=123.946350m. Speed=16.308001m/h.</desc>
<speed>4.530000</speed>
</trkpt>
<trkpt lat="55.993359" lon="26.690216">
<ele>124.047913</ele>
<time>2010-06-20T13:04:41Z</time>
<desc>lat.=55.993359, lon.=26.690216, Alt.=124.047913m. Speed=15.444000m/h.</desc>
<speed>4.290000</speed>
</trkpt>
<trkpt lat="55.993328" lon="26.690268">
<ele>124.249084</ele>
<time>2010-06-20T13:04:42Z</time>
<desc>lat.=55.993328, lon.=26.690268, Alt.=124.249084m. Speed=15.696000m/h.</desc>
<speed>4.360000</speed>
</trkpt>
<trkpt lat="55.993301" lon="26.690315">
<ele>124.542053</ele>
<time>2010-06-20T13:04:43Z</time>
<desc>lat.=55.993301, lon.=26.690315, Alt.=124.542053m. Speed=15.876000m/h.</desc>
<speed>4.410000</speed>
</trkpt>
<trkpt lat="55.993275" lon="26.690367">
<ele>124.719788</ele>
<time>2010-06-20T13:04:44Z</time>
<desc>lat.=55.993275, lon.=26.690367, Alt.=124.719788m. Speed=15.912000m/h.</desc>
<speed>4.420000</speed>
</trkpt>
<trkpt lat="55.993248" lon="26.690422">
<ele>125.001038</ele>
<time>2010-06-20T13:04:45Z</time>
<desc>lat.=55.993248, lon.=26.690422, Alt.=125.001038m. Speed=15.876000m/h.</desc>
<speed>4.410000</speed>
</trkpt>
<trkpt lat="55.993221" lon="26.690485">
<ele>125.053772</ele>
<time>2010-06-20T13:04:46Z</time>
<desc>lat.=55.993221, lon.=26.690485, Alt.=125.053772m. Speed=15.984000m/h.</desc>
<speed>4.440000</speed>
</trkpt>
<trkpt lat="55.993202" lon="26.690544">
<ele>125.221741</ele>
<time>2010-06-20T13:04:47Z</time>
<desc>lat.=55.993202, lon.=26.690544, Alt.=125.221741m. Speed=15.264000m/h.</desc>
<speed>4.240000</speed>
</trkpt>
<trkpt lat="55.993176" lon="26.690613">
<ele>125.602600</ele>
<time>2010-06-20T13:04:48Z</time>
<desc>lat.=55.993176, lon.=26.690613, Alt.=125.602600m. Speed=16.344000m/h.</desc>
<speed>4.540000</speed>
</trkpt>
<trkpt lat="55.993149" lon="26.690680">
<ele>126.024475</ele>
<time>2010-06-20T13:04:49Z</time>
<desc>lat.=55.993149, lon.=26.690680, Alt.=126.024475m. Speed=16.992001m/h.</desc>
<speed>4.720000</speed>
</trkpt>
<trkpt lat="55.993126" lon="26.690750">
<ele>126.297913</ele>
<time>2010-06-20T13:04:50Z</time>
<desc>lat.=55.993126, lon.=26.690750, Alt.=126.297913m. Speed=16.452000m/h.</desc>
<speed>4.570000</speed>
</trkpt>
<trkpt lat="55.993111" lon="26.690815">
<ele>126.461975</ele>
<time>2010-06-20T13:04:51Z</time>
<desc>lat.=55.993111, lon.=26.690815, Alt.=126.461975m. Speed=15.444000m/h.</desc>
<speed>4.290000</speed>
</trkpt>
<trkpt lat="55.993099" lon="26.690884">
<ele>126.641663</ele>
<time>2010-06-20T13:04:52Z</time>
<desc>lat.=55.993099, lon.=26.690884, Alt.=126.641663m. Speed=15.912000m/h.</desc>
<speed>4.420000</speed>
</trkpt>
<trkpt lat="55.993088" lon="26.690948">
<ele>126.844788</ele>
<time>2010-06-20T13:04:53Z</time>
<desc>lat.=55.993088, lon.=26.690948, Alt.=126.844788m. Speed=13.356000m/h.</desc>
<speed>3.710000</speed>
</trkpt>
<trkpt lat="55.993076" lon="26.691000">
<ele>126.981506</ele>
<time>2010-06-20T13:04:54Z</time>
<desc>lat.=55.993076, lon.=26.691000, Alt.=126.981506m. Speed=10.908000m/h.</desc>
<speed>3.030000</speed>
</trkpt>
<trkpt lat="55.993065" lon="26.691042">
<ele>127.743225</ele>
<time>2010-06-20T13:04:55Z</time>
<desc>lat.=55.993065, lon.=26.691042, Alt.=127.743225m. Speed=9.972000m/h.</desc>
<speed>2.770000</speed>
</trkpt>
<trkpt lat="55.993053" lon="26.691074">
<ele>128.271606</ele>
<time>2010-06-20T13:04:56Z</time>
<desc>lat.=55.993053, lon.=26.691074, Alt.=128.271606m. Speed=7.380000m/h.</desc>
<speed>2.050000</speed>
</trkpt>
<trkpt lat="55.993034" lon="26.691141">
<ele>128.990356</ele>
<time>2010-06-20T13:04:57Z</time>
<desc>lat.=55.993034, lon.=26.691141, Alt.=128.990356m. Speed=10.548000m/h.</desc>
<speed>2.930000</speed>
</trkpt>
<trkpt lat="55.993023" lon="26.691170">
<ele>129.384888</ele>
<time>2010-06-20T13:04:58Z</time>
<desc>lat.=55.993023, lon.=26.691170, Alt.=129.384888m. Speed=10.116000m/h.</desc>
<speed>2.810000</speed>
</trkpt>
<trkpt lat="55.993008" lon="26.691208">
<ele>129.873169</ele>
<time>2010-06-20T13:04:59Z</time>
<desc>lat.=55.993008, lon.=26.691208, Alt.=129.873169m. Speed=10.404000m/h.</desc>
<speed>2.890000</speed>
</trkpt>
<trkpt lat="55.993000" lon="26.691250">
<ele>130.380981</ele>
<time>2010-06-20T13:05:00Z</time>
<desc>lat.=55.993000, lon.=26.691250, Alt.=130.380981m. Speed=10.836000m/h.</desc>
<speed>3.010000</speed>
</trkpt>
<trkpt lat="55.992989" lon="26.691294">
<ele>130.767700</ele>
<time>2010-06-20T13:05:01Z</time>
<desc>lat.=55.992989, lon.=26.691294, Alt.=130.767700m. Speed=9.072000m/h.</desc>
<speed>2.520000</speed>
</trkpt>
<trkpt lat="55.992985" lon="26.691326">
<ele>131.138794</ele>
<time>2010-06-20T13:05:02Z</time>
<desc>lat.=55.992985, lon.=26.691326, Alt.=131.138794m. Speed=7.632000m/h.</desc>
<speed>2.120000</speed>
</trkpt>
<trkpt lat="55.992981" lon="26.691359">
<ele>131.638794</ele>
<time>2010-06-20T13:05:03Z</time>
<desc>lat.=55.992981, lon.=26.691359, Alt.=131.638794m. Speed=6.480000m/h.</desc>
<speed>1.800000</speed>
</trkpt>
<trkpt lat="55.992973" lon="26.691385">
<ele>132.005981</ele>
<time>2010-06-20T13:05:04Z</time>
<desc>lat.=55.992973, lon.=26.691385, Alt.=132.005981m. Speed=5.508000m/h.</desc>
<speed>1.530000</speed>
</trkpt>
<trkpt lat="55.992966" lon="26.691404">
<ele>132.255981</ele>
<time>2010-06-20T13:05:05Z</time>
<desc>lat.=55.992966, lon.=26.691404, Alt.=132.255981m. Speed=5.688000m/h.</desc>
<speed>1.580000</speed>
</trkpt>
<trkpt lat="55.992962" lon="26.691423">
<ele>132.486450</ele>
<time>2010-06-20T13:05:06Z</time>
<desc>lat.=55.992962, lon.=26.691423, Alt.=132.486450m. Speed=4.968000m/h.</desc>
<speed>1.380000</speed>
</trkpt>
<trkpt lat="55.992950" lon="26.691435">
<ele>132.486450</ele>
<time>2010-06-20T13:05:07Z</time>
<desc>lat.=55.992950, lon.=26.691435, Alt.=132.486450m. Speed=3.996000m/h.</desc>
<speed>1.110000</speed>
</trkpt>
<trkpt lat="55.992935" lon="26.691442">
<ele>131.423950</ele>
<time>2010-06-20T13:05:08Z</time>
<desc>lat.=55.992935, lon.=26.691442, Alt.=131.423950m. Speed=3.204000m/h.</desc>
<speed>0.890000</speed>
</trkpt>
<trkpt lat="55.992931" lon="26.691446">
<ele>131.127075</ele>
<time>2010-06-20T13:05:09Z</time>
<desc>lat.=55.992931, lon.=26.691446, Alt.=131.127075m. Speed=1.080000m/h.</desc>
<speed>0.300000</speed>
</trkpt>
<trkpt lat="55.992928" lon="26.691448">
<ele>131.025513</ele>
<time>2010-06-20T13:05:10Z</time>
<desc>lat.=55.992928, lon.=26.691448, Alt.=131.025513m. Speed=1.152000m/h.</desc>
<speed>0.320000</speed>
</trkpt>
<trkpt lat="55.992920" lon="26.691458">
<ele>130.810669</ele>
<time>2010-06-20T13:05:11Z</time>
<desc>lat.=55.992920, lon.=26.691458, Alt.=130.810669m. Speed=1.116000m/h.</desc>
<speed>0.310000</speed>
</trkpt>
<trkpt lat="55.992916" lon="26.691456">
<ele>130.560669</ele>
<time>2010-06-20T13:05:12Z</time>
<desc>lat.=55.992916, lon.=26.691456, Alt.=130.560669m. Speed=0.936000m/h.</desc>
<speed>0.260000</speed>
</trkpt>
<trkpt lat="55.992912" lon="26.691454">
<ele>130.388794</ele>
<time>2010-06-20T13:05:13Z</time>
<desc>lat.=55.992912, lon.=26.691454, Alt.=130.388794m. Speed=0.864000m/h.</desc>
<speed>0.240000</speed>
</trkpt>
<trkpt lat="55.992912" lon="26.691456">
<ele>130.263794</ele>
<time>2010-06-20T13:05:14Z</time>
<desc>lat.=55.992912, lon.=26.691456, Alt.=130.263794m. Speed=0.828000m/h.</desc>
<speed>0.230000</speed>
</trkpt>
<trkpt lat="55.992908" lon="26.691458">
<ele>130.228638</ele>
<time>2010-06-20T13:05:15Z</time>
<desc>lat.=55.992908, lon.=26.691458, Alt.=130.228638m. Speed=1.116000m/h.</desc>
<speed>0.310000</speed>
</trkpt>
<trkpt lat="55.992908" lon="26.691462">
<ele>130.279419</ele>
<time>2010-06-20T13:05:16Z</time>
<desc>lat.=55.992908, lon.=26.691462, Alt.=130.279419m. Speed=0.072000m/h.</desc>
<speed>0.020000</speed>
</trkpt>
<trkpt lat="55.992908" lon="26.691462">
<ele>130.248169</ele>
<time>2010-06-20T13:05:17Z</time>
<desc>lat.=55.992908, lon.=26.691462, Alt.=130.248169m. Speed=0.288000m/h.</desc>
<speed>0.080000</speed>
</trkpt>
<trkpt lat="55.992908" lon="26.691460">
<ele>130.310669</ele>
<time>2010-06-20T13:05:18Z</time>
<desc>lat.=55.992908, lon.=26.691460, Alt.=130.310669m. Speed=0.180000m/h.</desc>
<speed>0.050000</speed>
</trkpt>
<trkpt lat="55.992908" lon="26.691462">
<ele>130.349731</ele>
<time>2010-06-20T13:05:19Z</time>
<desc>lat.=55.992908, lon.=26.691462, Alt.=130.349731m. Speed=0.252000m/h.</desc>
<speed>0.070000</speed>
</trkpt>
<trkpt lat="55.992908" lon="26.691462">
<ele>130.349731</ele>
<time>2010-06-20T13:05:20Z</time>
<desc>lat.=55.992908, lon.=26.691462, Alt.=130.349731m. Speed=0.324000m/h.</desc>
<speed>0.090000</speed>
</trkpt>
<trkpt lat="55.992908" lon="26.691460">
<ele>130.240356</ele>
<time>2010-06-20T13:05:21Z</time>
<desc>lat.=55.992908, lon.=26.691460, Alt.=130.240356m. Speed=0.180000m/h.</desc>
<speed>0.050000</speed>
</trkpt>
<trkpt lat="55.992908" lon="26.691460">
<ele>130.119263</ele>
<time>2010-06-20T13:05:22Z</time>
<desc>lat.=55.992908, lon.=26.691460, Alt.=130.119263m. Speed=0.576000m/h.</desc>
<speed>0.160000</speed>
</trkpt>
<trkpt lat="55.992908" lon="26.691460">
<ele>130.033325</ele>
<time>2010-06-20T13:05:23Z</time>
<desc>lat.=55.992908, lon.=26.691460, Alt.=130.033325m. Speed=0.072000m/h.</desc>
<speed>0.020000</speed>
</trkpt>
<trkpt lat="55.992908" lon="26.691460">
<ele>129.963013</ele>
<time>2010-06-20T13:05:24Z</time>
<desc>lat.=55.992908, lon.=26.691460, Alt.=129.963013m. Speed=0.504000m/h.</desc>
<speed>0.140000</speed>
</trkpt>
<trkpt lat="55.992908" lon="26.691458">
<ele>129.908325</ele>
<time>2010-06-20T13:05:25Z</time>
<desc>lat.=55.992908, lon.=26.691458, Alt.=129.908325m. Speed=0.396000m/h.</desc>
<speed>0.110000</speed>
</trkpt>
<trkpt lat="55.992908" lon="26.691460">
<ele>129.974731</ele>
<time>2010-06-20T13:05:26Z</time>
<desc>lat.=55.992908, lon.=26.691460, Alt.=129.974731m. Speed=0.180000m/h.</desc>
<speed>0.050000</speed>
</trkpt>
<trkpt lat="55.992905" lon="26.691460">
<ele>129.959106</ele>
<time>2010-06-20T13:05:27Z</time>
<desc>lat.=55.992905, lon.=26.691460, Alt.=129.959106m. Speed=0.180000m/h.</desc>
<speed>0.050000</speed>
</trkpt>
<trkpt lat="55.992905" lon="26.691460">
<ele>129.931763</ele>
<time>2010-06-20T13:05:28Z</time>
<desc>lat.=55.992905, lon.=26.691460, Alt.=129.931763m. Speed=0.288000m/h.</desc>
<speed>0.080000</speed>
</trkpt>
<trkpt lat="55.992908" lon="26.691462">
<ele>129.888794</ele>
<time>2010-06-20T13:05:29Z</time>
<desc>lat.=55.992908, lon.=26.691462, Alt.=129.888794m. Speed=0.360000m/h.</desc>
<speed>0.100000</speed>
</trkpt>
<trkpt lat="55.992905" lon="26.691462">
<ele>129.865356</ele>
<time>2010-06-20T13:05:30Z</time>
<desc>lat.=55.992905, lon.=26.691462, Alt.=129.865356m. Speed=0.180000m/h.</desc>
<speed>0.050000</speed>
</trkpt>
<trkpt lat="55.992905" lon="26.691462">
<ele>129.880981</ele>
<time>2010-06-20T13:05:31Z</time>
<desc>lat.=55.992905, lon.=26.691462, Alt.=129.880981m. Speed=0.072000m/h.</desc>
<speed>0.020000</speed>
</trkpt>
<trkpt lat="55.992905" lon="26.691462">
<ele>129.877075</ele>
<time>2010-06-20T13:05:32Z</time>
<desc>lat.=55.992905, lon.=26.691462, Alt.=129.877075m. Speed=0.072000m/h.</desc>
<speed>0.020000</speed>
</trkpt>
<trkpt lat="55.992905" lon="26.691460">
<ele>129.880981</ele>
<time>2010-06-20T13:05:33Z</time>
<desc>lat.=55.992905, lon.=26.691460, Alt.=129.880981m. Speed=0.072000m/h.</desc>
<speed>0.020000</speed>
</trkpt>
<trkpt lat="55.992905" lon="26.691460">
<ele>129.888794</ele>
<time>2010-06-20T13:05:34Z</time>
<desc>lat.=55.992905, lon.=26.691460, Alt.=129.888794m. Speed=0.000000m/h.</desc>
<speed>0.000000</speed>
</trkpt>
<trkpt lat="55.992905" lon="26.691460">
<ele>129.892700</ele>
<time>2010-06-20T13:05:35Z</time>
<desc>lat.=55.992905, lon.=26.691460, Alt.=129.892700m. Speed=0.072000m/h.</desc>
<speed>0.020000</speed>
</trkpt>
<trkpt lat="55.992905" lon="26.691460">
<ele>129.865356</ele>
<time>2010-06-20T13:05:36Z</time>
<desc>lat.=55.992905, lon.=26.691460, Alt.=129.865356m. Speed=0.000000m/h.</desc>
<speed>0.000000</speed>
</trkpt>
<trkpt lat="55.992905" lon="26.691460">
<ele>129.853638</ele>
<time>2010-06-20T13:05:37Z</time>
<desc>lat.=55.992905, lon.=26.691460, Alt.=129.853638m. Speed=0.000000m/h.</desc>
<speed>0.000000</speed>
</trkpt>
<trkpt lat="55.992905" lon="26.691460">
<ele>129.841919</ele>
<time>2010-06-20T13:05:38Z</time>
<desc>lat.=55.992905, lon.=26.691460, Alt.=129.841919m. Speed=0.000000m/h.</desc>
<speed>0.000000</speed>
</trkpt>
<trkpt lat="55.992905" lon="26.691460">
<ele>129.826294</ele>
<time>2010-06-20T13:05:39Z</time>
<desc>lat.=55.992905, lon.=26.691460, Alt.=129.826294m. Speed=0.072000m/h.</desc>
<speed>0.020000</speed>
</trkpt>
<trkpt lat="55.992905" lon="26.691462">
<ele>129.822388</ele>
<time>2010-06-20T13:05:40Z</time>
<desc>lat.=55.992905, lon.=26.691462, Alt.=129.822388m. Speed=0.036000m/h.</desc>
<speed>0.010000</speed>
</trkpt>
<trkpt lat="55.992905" lon="26.691462">
<ele>129.830200</ele>
<time>2010-06-20T13:05:41Z</time>
<desc>lat.=55.992905, lon.=26.691462, Alt.=129.830200m. Speed=0.144000m/h.</desc>
<speed>0.040000</speed>
</trkpt>
<trkpt lat="55.992905" lon="26.691462">
<ele>129.845825</ele>
<time>2010-06-20T13:05:42Z</time>
<desc>lat.=55.992905, lon.=26.691462, Alt.=129.845825m. Speed=0.432000m/h.</desc>
<speed>0.120000</speed>
</trkpt>
<trkpt lat="55.992905" lon="26.691460">
<ele>129.795044</ele>
<time>2010-06-20T13:05:43Z</time>
<desc>lat.=55.992905, lon.=26.691460, Alt.=129.795044m. Speed=0.180000m/h.</desc>
<speed>0.050000</speed>
</trkpt>
<trkpt lat="55.992905" lon="26.691462">
<ele>129.814575</ele>
<time>2010-06-20T13:05:44Z</time>
<desc>lat.=55.992905, lon.=26.691462, Alt.=129.814575m. Speed=0.180000m/h.</desc>
<speed>0.050000</speed>
</trkpt>
<trkpt lat="55.992905" lon="26.691462">
<ele>129.814575</ele>
<time>2010-06-20T13:05:45Z</time>
<desc>lat.=55.992905, lon.=26.691462, Alt.=129.814575m. Speed=0.108000m/h.</desc>
<speed>0.030000</speed>
</trkpt>
<trkpt lat="55.992905" lon="26.691462">
<ele>129.818481</ele>
<time>2010-06-20T13:05:46Z</time>
<desc>lat.=55.992905, lon.=26.691462, Alt.=129.818481m. Speed=0.036000m/h.</desc>
<speed>0.010000</speed>
</trkpt>
<trkpt lat="55.992905" lon="26.691462">
<ele>129.818481</ele>
<time>2010-06-20T13:05:47Z</time>
<desc>lat.=55.992905, lon.=26.691462, Alt.=129.818481m. Speed=0.072000m/h.</desc>
<speed>0.020000</speed>
</trkpt>
<trkpt lat="55.992905" lon="26.691462">
<ele>129.822388</ele>
<time>2010-06-20T13:05:48Z</time>
<desc>lat.=55.992905, lon.=26.691462, Alt.=129.822388m. Speed=0.180000m/h.</desc>
<speed>0.050000</speed>
</trkpt>
<trkpt lat="55.992905" lon="26.691462">
<ele>129.826294</ele>
<time>2010-06-20T13:05:49Z</time>
<desc>lat.=55.992905, lon.=26.691462, Alt.=129.826294m. Speed=0.144000m/h.</desc>
<speed>0.040000</speed>
</trkpt>
<trkpt lat="55.992905" lon="26.691462">
<ele>129.841919</ele>
<time>2010-06-20T13:05:50Z</time>
<desc>lat.=55.992905, lon.=26.691462, Alt.=129.841919m. Speed=0.180000m/h.</desc>
<speed>0.050000</speed>
</trkpt>
<trkpt lat="55.992905" lon="26.691462">
<ele>129.845825</ele>
<time>2010-06-20T13:05:51Z</time>
<desc>lat.=55.992905, lon.=26.691462, Alt.=129.845825m. Speed=0.000000m/h.</desc>
<speed>0.000000</speed>
</trkpt>
<trkpt lat="55.992905" lon="26.691462">
<ele>129.841919</ele>
<time>2010-06-20T13:05:52Z</time>
<desc>lat.=55.992905, lon.=26.691462, Alt.=129.841919m. Speed=0.072000m/h.</desc>
<speed>0.020000</speed>
</trkpt>
<trkpt lat="55.992905" lon="26.691462">
<ele>129.849731</ele>
<time>2010-06-20T13:05:53Z</time>
<desc>lat.=55.992905, lon.=26.691462, Alt.=129.849731m. Speed=0.108000m/h.</desc>
<speed>0.030000</speed>
</trkpt>
<trkpt lat="55.992905" lon="26.691462">
<ele>129.849731</ele>
<time>2010-06-20T13:05:54Z</time>
<desc>lat.=55.992905, lon.=26.691462, Alt.=129.849731m. Speed=0.684000m/h.</desc>
<speed>0.190000</speed>
</trkpt>
<trkpt lat="55.992905" lon="26.691462">
<ele>129.841919</ele>
<time>2010-06-20T13:05:55Z</time>
<desc>lat.=55.992905, lon.=26.691462, Alt.=129.841919m. Speed=3.384000m/h.</desc>
<speed>0.940000</speed>
</trkpt>
<trkpt lat="55.992897" lon="26.691460">
<ele>129.658325</ele>
<time>2010-06-20T13:05:56Z</time>
<desc>lat.=55.992897, lon.=26.691460, Alt.=129.658325m. Speed=4.824000m/h.</desc>
<speed>1.340000</speed>
</trkpt>
<trkpt lat="55.992886" lon="26.691454">
<ele>129.654419</ele>
<time>2010-06-20T13:05:57Z</time>
<desc>lat.=55.992886, lon.=26.691454, Alt.=129.654419m. Speed=3.960000m/h.</desc>
<speed>1.100000</speed>
</trkpt>
<trkpt lat="55.992874" lon="26.691452">
<ele>129.806763</ele>
<time>2010-06-20T13:05:58Z</time>
<desc>lat.=55.992874, lon.=26.691452, Alt.=129.806763m. Speed=3.528000m/h.</desc>
<speed>0.980000</speed>
</trkpt>
<trkpt lat="55.992870" lon="26.691456">
<ele>129.955200</ele>
<time>2010-06-20T13:05:59Z</time>
<desc>lat.=55.992870, lon.=26.691456, Alt.=129.955200m. Speed=2.448000m/h.</desc>
<speed>0.680000</speed>
</trkpt>
<trkpt lat="55.992863" lon="26.691467">
<ele>130.384888</ele>
<time>2010-06-20T13:06:00Z</time>
<desc>lat.=55.992863, lon.=26.691467, Alt.=130.384888m. Speed=2.880000m/h.</desc>
<speed>0.800000</speed>
</trkpt>
<trkpt lat="55.992855" lon="26.691469">
<ele>130.412231</ele>
<time>2010-06-20T13:06:01Z</time>
<desc>lat.=55.992855, lon.=26.691469, Alt.=130.412231m. Speed=2.700000m/h.</desc>
<speed>0.750000</speed>
</trkpt>
<trkpt lat="55.992851" lon="26.691473">
<ele>129.896606</ele>
<time>2010-06-20T13:06:02Z</time>
<desc>lat.=55.992851, lon.=26.691473, Alt.=129.896606m. Speed=1.116000m/h.</desc>
<speed>0.310000</speed>
</trkpt>
<trkpt lat="55.992847" lon="26.691471">
<ele>129.689575</ele>
<time>2010-06-20T13:06:03Z</time>
<desc>lat.=55.992847, lon.=26.691471, Alt.=129.689575m. Speed=1.728000m/h.</desc>
<speed>0.480000</speed>
</trkpt>
<trkpt lat="55.992844" lon="26.691473">
<ele>129.869263</ele>
<time>2010-06-20T13:06:04Z</time>
<desc>lat.=55.992844, lon.=26.691473, Alt.=129.869263m. Speed=0.144000m/h.</desc>
<speed>0.040000</speed>
</trkpt>
<trkpt lat="55.992847" lon="26.691473">
<ele>130.201294</ele>
<time>2010-06-20T13:06:05Z</time>
<desc>lat.=55.992847, lon.=26.691473, Alt.=130.201294m. Speed=0.072000m/h.</desc>
<speed>0.020000</speed>
</trkpt>
<trkpt lat="55.992847" lon="26.691473">
<ele>130.326294</ele>
<time>2010-06-20T13:06:06Z</time>
<desc>lat.=55.992847, lon.=26.691473, Alt.=130.326294m. Speed=0.072000m/h.</desc>
<speed>0.020000</speed>
</trkpt>
<trkpt lat="55.992847" lon="26.691471">
<ele>130.259888</ele>
<time>2010-06-20T13:06:07Z</time>
<desc>lat.=55.992847, lon.=26.691471, Alt.=130.259888m. Speed=0.072000m/h.</desc>
<speed>0.020000</speed>
</trkpt>
<trkpt lat="55.992847" lon="26.691471">
<ele>130.283325</ele>
<time>2010-06-20T13:06:08Z</time>
<desc>lat.=55.992847, lon.=26.691471, Alt.=130.283325m. Speed=0.036000m/h.</desc>
<speed>0.010000</speed>
</trkpt>
<trkpt lat="55.992847" lon="26.691471">
<ele>130.298950</ele>
<time>2010-06-20T13:06:09Z</time>
<desc>lat.=55.992847, lon.=26.691471, Alt.=130.298950m. Speed=0.036000m/h.</desc>
<speed>0.010000</speed>
</trkpt>
<trkpt lat="55.992847" lon="26.691471">
<ele>130.314575</ele>
<time>2010-06-20T13:06:10Z</time>
<desc>lat.=55.992847, lon.=26.691471, Alt.=130.314575m. Speed=0.108000m/h.</desc>
<speed>0.030000</speed>
</trkpt>
<trkpt lat="55.992847" lon="26.691471">
<ele>130.326294</ele>
<time>2010-06-20T13:06:11Z</time>
<desc>lat.=55.992847, lon.=26.691471, Alt.=130.326294m. Speed=0.036000m/h.</desc>
<speed>0.010000</speed>
</trkpt>
<trkpt lat="55.992847" lon="26.691471">
<ele>130.334106</ele>
<time>2010-06-20T13:06:12Z</time>
<desc>lat.=55.992847, lon.=26.691471, Alt.=130.334106m. Speed=0.000000m/h.</desc>
<speed>0.000000</speed>
</trkpt>
<trkpt lat="55.992847" lon="26.691471">
<ele>130.345825</ele>
<time>2010-06-20T13:06:13Z</time>
<desc>lat.=55.992847, lon.=26.691471, Alt.=130.345825m. Speed=0.000000m/h.</desc>
<speed>0.000000</speed>
</trkpt>
<trkpt lat="55.992847" lon="26.691471">
<ele>130.349731</ele>
<time>2010-06-20T13:06:14Z</time>
<desc>lat.=55.992847, lon.=26.691471, Alt.=130.349731m. Speed=0.000000m/h.</desc>
<speed>0.000000</speed>
</trkpt>
<trkpt lat="55.992847" lon="26.691471">
<ele>130.345825</ele>
<time>2010-06-20T13:06:15Z</time>
<desc>lat.=55.992847, lon.=26.691471, Alt.=130.345825m. Speed=0.000000m/h.</desc>
<speed>0.000000</speed>
</trkpt>
<trkpt lat="55.992847" lon="26.691471">
<ele>130.349731</ele>
<time>2010-06-20T13:06:16Z</time>
<desc>lat.=55.992847, lon.=26.691471, Alt.=130.349731m. Speed=0.000000m/h.</desc>
<speed>0.000000</speed>
</trkpt>
<trkpt lat="55.992847" lon="26.691471">
<ele>130.349731</ele>
<time>2010-06-20T13:06:17Z</time>
<desc>lat.=55.992847, lon.=26.691471, Alt.=130.349731m. Speed=0.000000m/h.</desc>
<speed>0.000000</speed>
</trkpt>
<trkpt lat="55.992847" lon="26.691471">
<ele>130.345825</ele>
<time>2010-06-20T13:06:18Z</time>
<desc>lat.=55.992847, lon.=26.691471, Alt.=130.345825m. Speed=0.000000m/h.</desc>
<speed>0.000000</speed>
</trkpt>
<trkpt lat="55.992847" lon="26.691471">
<ele>130.341919</ele>
<time>2010-06-20T13:06:19Z</time>
<desc>lat.=55.992847, lon.=26.691471, Alt.=130.341919m. Speed=0.000000m/h.</desc>
<speed>0.000000</speed>
</trkpt>
<trkpt lat="55.992847" lon="26.691471">
<ele>130.334106</ele>
<time>2010-06-20T13:06:20Z</time>
<desc>lat.=55.992847, lon.=26.691471, Alt.=130.334106m. Speed=0.000000m/h.</desc>
<speed>0.000000</speed>
</trkpt>
<trkpt lat="55.992847" lon="26.691471">
<ele>130.326294</ele>
<time>2010-06-20T13:06:21Z</time>
<desc>lat.=55.992847, lon.=26.691471, Alt.=130.326294m. Speed=0.000000m/h.</desc>
<speed>0.000000</speed>
</trkpt>
<trkpt lat="55.992847" lon="26.691471">
<ele>130.318481</ele>
<time>2010-06-20T13:06:22Z</time>
<desc>lat.=55.992847, lon.=26.691471, Alt.=130.318481m. Speed=0.000000m/h.</desc>
<speed>0.000000</speed>
</trkpt>
<trkpt lat="55.992847" lon="26.691471">
<ele>130.310669</ele>
<time>2010-06-20T13:06:23Z</time>
<desc>lat.=55.992847, lon.=26.691471, Alt.=130.310669m. Speed=0.000000m/h.</desc>
<speed>0.000000</speed>
</trkpt>
<trkpt lat="55.992847" lon="26.691471">
<ele>130.306763</ele>
<time>2010-06-20T13:06:24Z</time>
<desc>lat.=55.992847, lon.=26.691471, Alt.=130.306763m. Speed=0.000000m/h.</desc>
<speed>0.000000</speed>
</trkpt>
<trkpt lat="55.992847" lon="26.691471">
<ele>130.295044</ele>
<time>2010-06-20T13:06:25Z</time>
<desc>lat.=55.992847, lon.=26.691471, Alt.=130.295044m. Speed=0.000000m/h.</desc>
<speed>0.000000</speed>
</trkpt>
<trkpt lat="55.992847" lon="26.691471">
<ele>130.279419</ele>
<time>2010-06-20T13:06:26Z</time>
<desc>lat.=55.992847, lon.=26.691471, Alt.=130.279419m. Speed=0.000000m/h.</desc>
<speed>0.000000</speed>
</trkpt>
<trkpt lat="55.992847" lon="26.691471">
<ele>130.267700</ele>
<time>2010-06-20T13:06:27Z</time>
<desc>lat.=55.992847, lon.=26.691471, Alt.=130.267700m. Speed=0.000000m/h.</desc>
<speed>0.000000</speed>
</trkpt>
<trkpt lat="55.992847" lon="26.691471">
<ele>130.252075</ele>
<time>2010-06-20T13:06:28Z</time>
<desc>lat.=55.992847, lon.=26.691471, Alt.=130.252075m. Speed=0.000000m/h.</desc>
<speed>0.000000</speed>
</trkpt>
<trkpt lat="55.992847" lon="26.691471">
<ele>130.240356</ele>
<time>2010-06-20T13:06:29Z</time>
<desc>lat.=55.992847, lon.=26.691471, Alt.=130.240356m. Speed=0.000000m/h.</desc>
<speed>0.000000</speed>
</trkpt>
<trkpt lat="55.992847" lon="26.691471">
<ele>130.232544</ele>
<time>2010-06-20T13:06:30Z</time>
<desc>lat.=55.992847, lon.=26.691471, Alt.=130.232544m. Speed=0.000000m/h.</desc>
<speed>0.000000</speed>
</trkpt>
<trkpt lat="55.992847" lon="26.691471">
<ele>130.220825</ele>
<time>2010-06-20T13:06:31Z</time>
<desc>lat.=55.992847, lon.=26.691471, Alt.=130.220825m. Speed=0.000000m/h.</desc>
<speed>0.000000</speed>
</trkpt>
<trkpt lat="55.992847" lon="26.691471">
<ele>130.213013</ele>
<time>2010-06-20T13:06:32Z</time>
<desc>lat.=55.992847, lon.=26.691471, Alt.=130.213013m. Speed=0.000000m/h.</desc>
<speed>0.000000</speed>
</trkpt>
<trkpt lat="55.992847" lon="26.691471">
<ele>130.205200</ele>
<time>2010-06-20T13:06:33Z</time>
<desc>lat.=55.992847, lon.=26.691471, Alt.=130.205200m. Speed=0.000000m/h.</desc>
<speed>0.000000</speed>
</trkpt>
<trkpt lat="55.992847" lon="26.691471">
<ele>130.201294</ele>
<time>2010-06-20T13:06:34Z</time>
<desc>lat.=55.992847, lon.=26.691471, Alt.=130.201294m. Speed=0.000000m/h.</desc>
<speed>0.000000</speed>
</trkpt>
<trkpt lat="55.992847" lon="26.691471">
<ele>130.201294</ele>
<time>2010-06-20T13:06:35Z</time>
<desc>lat.=55.992847, lon.=26.691471, Alt.=130.201294m. Speed=0.000000m/h.</desc>
<speed>0.000000</speed>
</trkpt>
<trkpt lat="55.992847" lon="26.691471">
<ele>130.193481</ele>
<time>2010-06-20T13:06:36Z</time>
<desc>lat.=55.992847, lon.=26.691471, Alt.=130.193481m. Speed=0.000000m/h.</desc>
<speed>0.000000</speed>
</trkpt>
<trkpt lat="55.992847" lon="26.691471">
<ele>130.189575</ele>
<time>2010-06-20T13:06:37Z</time>
<desc>lat.=55.992847, lon.=26.691471, Alt.=130.189575m. Speed=0.000000m/h.</desc>
<speed>0.000000</speed>
</trkpt>
<trkpt lat="55.992847" lon="26.691471">
<ele>130.185669</ele>
<time>2010-06-20T13:06:38Z</time>
<desc>lat.=55.992847, lon.=26.691471, Alt.=130.185669m. Speed=0.000000m/h.</desc>
<speed>0.000000</speed>
</trkpt>
<trkpt lat="55.992847" lon="26.691471">
<ele>130.177856</ele>
<time>2010-06-20T13:06:39Z</time>
<desc>lat.=55.992847, lon.=26.691471, Alt.=130.177856m. Speed=0.000000m/h.</desc>
<speed>0.000000</speed>
</trkpt>
<trkpt lat="55.992847" lon="26.691471">
<ele>130.177856</ele>
<time>2010-06-20T13:06:40Z</time>
<desc>lat.=55.992847, lon.=26.691471, Alt.=130.177856m. Speed=0.000000m/h.</desc>
<speed>0.000000</speed>
</trkpt>
<trkpt lat="55.992847" lon="26.691471">
<ele>130.173950</ele>
<time>2010-06-20T13:06:41Z</time>
<desc>lat.=55.992847, lon.=26.691471, Alt.=130.173950m. Speed=0.000000m/h.</desc>
<speed>0.000000</speed>
</trkpt>
<trkpt lat="55.992847" lon="26.691471">
<ele>130.173950</ele>
<time>2010-06-20T13:06:42Z</time>
<desc>lat.=55.992847, lon.=26.691471, Alt.=130.173950m. Speed=0.000000m/h.</desc>
<speed>0.000000</speed>
</trkpt>
<trkpt lat="55.992847" lon="26.691471">
<ele>130.170044</ele>
<time>2010-06-20T13:06:43Z</time>
<desc>lat.=55.992847, lon.=26.691471, Alt.=130.170044m. Speed=0.000000m/h.</desc>
<speed>0.000000</speed>
</trkpt>
<trkpt lat="55.992847" lon="26.691471">
<ele>130.170044</ele>
<time>2010-06-20T13:06:44Z</time>
<desc>lat.=55.992847, lon.=26.691471, Alt.=130.170044m. Speed=0.000000m/h.</desc>
<speed>0.000000</speed>
</trkpt>
<trkpt lat="55.992847" lon="26.691471">
<ele>130.170044</ele>
<time>2010-06-20T13:06:45Z</time>
<desc>lat.=55.992847, lon.=26.691471, Alt.=130.170044m. Speed=0.000000m/h.</desc>
<speed>0.000000</speed>
</trkpt>
<trkpt lat="55.992847" lon="26.691471">
<ele>130.170044</ele>
<time>2010-06-20T13:06:46Z</time>
<desc>lat.=55.992847, lon.=26.691471, Alt.=130.170044m. Speed=0.000000m/h.</desc>
<speed>0.000000</speed>
</trkpt>
<trkpt lat="55.992847" lon="26.691471">
<ele>130.170044</ele>
<time>2010-06-20T13:06:47Z</time>
<desc>lat.=55.992847, lon.=26.691471, Alt.=130.170044m. Speed=0.000000m/h.</desc>
<speed>0.000000</speed>
</trkpt>
<trkpt lat="55.992847" lon="26.691471">
<ele>130.166138</ele>
<time>2010-06-20T13:06:48Z</time>
<desc>lat.=55.992847, lon.=26.691471, Alt.=130.166138m. Speed=0.000000m/h.</desc>
<speed>0.000000</speed>
</trkpt>
<trkpt lat="55.992847" lon="26.691471">
<ele>130.166138</ele>
<time>2010-06-20T13:06:49Z</time>
<desc>lat.=55.992847, lon.=26.691471, Alt.=130.166138m. Speed=0.000000m/h.</desc>
<speed>0.000000</speed>
</trkpt>
<trkpt lat="55.992847" lon="26.691471">
<ele>130.166138</ele>
<time>2010-06-20T13:06:50Z</time>
<desc>lat.=55.992847, lon.=26.691471, Alt.=130.166138m. Speed=0.000000m/h.</desc>
<speed>0.000000</speed>
</trkpt>
<trkpt lat="55.992847" lon="26.691471">
<ele>130.170044</ele>
<time>2010-06-20T13:06:51Z</time>
<desc>lat.=55.992847, lon.=26.691471, Alt.=130.170044m. Speed=0.000000m/h.</desc>
<speed>0.000000</speed>
</trkpt>
<trkpt lat="55.992847" lon="26.691471">
<ele>130.170044</ele>
<time>2010-06-20T13:06:52Z</time>
<desc>lat.=55.992847, lon.=26.691471, Alt.=130.170044m. Speed=0.000000m/h.</desc>
<speed>0.000000</speed>
</trkpt>
<trkpt lat="55.992847" lon="26.691471">
<ele>130.170044</ele>
<time>2010-06-20T13:06:53Z</time>
<desc>lat.=55.992847, lon.=26.691471, Alt.=130.170044m. Speed=0.000000m/h.</desc>
<speed>0.000000</speed>
</trkpt>
<trkpt lat="55.992847" lon="26.691471">
<ele>130.170044</ele>
<time>2010-06-20T13:06:54Z</time>
<desc>lat.=55.992847, lon.=26.691471, Alt.=130.170044m. Speed=0.000000m/h.</desc>
<speed>0.000000</speed>
</trkpt>
<trkpt lat="55.992847" lon="26.691471">
<ele>130.173950</ele>
<time>2010-06-20T13:06:55Z</time>
<desc>lat.=55.992847, lon.=26.691471, Alt.=130.173950m. Speed=0.000000m/h.</desc>
<speed>0.000000</speed>
</trkpt>
<trkpt lat="55.992847" lon="26.691471">
<ele>130.173950</ele>
<time>2010-06-20T13:06:56Z</time>
<desc>lat.=55.992847, lon.=26.691471, Alt.=130.173950m. Speed=0.000000m/h.</desc>
<speed>0.000000</speed>
</trkpt>
<trkpt lat="55.992847" lon="26.691471">
<ele>130.173950</ele>
<time>2010-06-20T13:06:57Z</time>
<desc>lat.=55.992847, lon.=26.691471, Alt.=130.173950m. Speed=0.000000m/h.</desc>
<speed>0.000000</speed>
</trkpt>
<trkpt lat="55.992847" lon="26.691471">
<ele>130.177856</ele>
<time>2010-06-20T13:06:58Z</time>
<desc>lat.=55.992847, lon.=26.691471, Alt.=130.177856m. Speed=0.000000m/h.</desc>
<speed>0.000000</speed>
</trkpt>
<trkpt lat="55.992847" lon="26.691471">
<ele>130.177856</ele>
<time>2010-06-20T13:06:59Z</time>
<desc>lat.=55.992847, lon.=26.691471, Alt.=130.177856m. Speed=0.000000m/h.</desc>
<speed>0.000000</speed>
</trkpt>
<trkpt lat="55.992847" lon="26.691471">
<ele>130.181763</ele>
<time>2010-06-20T13:07:00Z</time>
<desc>lat.=55.992847, lon.=26.691471, Alt.=130.181763m. Speed=0.000000m/h.</desc>
<speed>0.000000</speed>
</trkpt>
<trkpt lat="55.992847" lon="26.691471">
<ele>130.177856</ele>
<time>2010-06-20T13:07:01Z</time>
<desc>lat.=55.992847, lon.=26.691471, Alt.=130.177856m. Speed=0.000000m/h.</desc>
<speed>0.000000</speed>
</trkpt>
<trkpt lat="55.992847" lon="26.691471">
<ele>130.181763</ele>
<time>2010-06-20T13:07:02Z</time>
<desc>lat.=55.992847, lon.=26.691471, Alt.=130.181763m. Speed=0.000000m/h.</desc>
<speed>0.000000</speed>
</trkpt>
<trkpt lat="55.992847" lon="26.691471">
<ele>130.181763</ele>
<time>2010-06-20T13:07:03Z</time>
<desc>lat.=55.992847, lon.=26.691471, Alt.=130.181763m. Speed=0.000000m/h.</desc>
<speed>0.000000</speed>
</trkpt>
<trkpt lat="55.992847" lon="26.691471">
<ele>130.181763</ele>
<time>2010-06-20T13:07:04Z</time>
<desc>lat.=55.992847, lon.=26.691471, Alt.=130.181763m. Speed=0.000000m/h.</desc>
<speed>0.000000</speed>
</trkpt>
<trkpt lat="55.992847" lon="26.691471">
<ele>130.181763</ele>
<time>2010-06-20T13:07:05Z</time>
<desc>lat.=55.992847, lon.=26.691471, Alt.=130.181763m. Speed=0.000000m/h.</desc>
<speed>0.000000</speed>
</trkpt>
<trkpt lat="55.992847" lon="26.691471">
<ele>130.181763</ele>
<time>2010-06-20T13:07:06Z</time>
<desc>lat.=55.992847, lon.=26.691471, Alt.=130.181763m. Speed=0.000000m/h.</desc>
<speed>0.000000</speed>
</trkpt>
<trkpt lat="55.992847" lon="26.691471">
<ele>130.181763</ele>
<time>2010-06-20T13:07:07Z</time>
<desc>lat.=55.992847, lon.=26.691471, Alt.=130.181763m. Speed=0.000000m/h.</desc>
<speed>0.000000</speed>
</trkpt>
<trkpt lat="55.992847" lon="26.691471">
<ele>130.181763</ele>
<time>2010-06-20T13:07:08Z</time>
<desc>lat.=55.992847, lon.=26.691471, Alt.=130.181763m. Speed=0.000000m/h.</desc>
<speed>0.000000</speed>
</trkpt>
<trkpt lat="55.992847" lon="26.691471">
<ele>130.177856</ele>
<time>2010-06-20T13:07:09Z</time>
<desc>lat.=55.992847, lon.=26.691471, Alt.=130.177856m. Speed=0.000000m/h.</desc>
<speed>0.000000</speed>
</trkpt>
<trkpt lat="55.992847" lon="26.691471">
<ele>130.173950</ele>
<time>2010-06-20T13:07:10Z</time>
<desc>lat.=55.992847, lon.=26.691471, Alt.=130.173950m. Speed=0.000000m/h.</desc>
<speed>0.000000</speed>
</trkpt>
<trkpt lat="55.992847" lon="26.691471">
<ele>130.170044</ele>
<time>2010-06-20T13:07:11Z</time>
<desc>lat.=55.992847, lon.=26.691471, Alt.=130.170044m. Speed=0.000000m/h.</desc>
<speed>0.000000</speed>
</trkpt>
<trkpt lat="55.992847" lon="26.691471">
<ele>130.170044</ele>
<time>2010-06-20T13:07:12Z</time>
<desc>lat.=55.992847, lon.=26.691471, Alt.=130.170044m. Speed=0.000000m/h.</desc>
<speed>0.000000</speed>
</trkpt>
<trkpt lat="55.992847" lon="26.691471">
<ele>130.166138</ele>
<time>2010-06-20T13:07:13Z</time>
<desc>lat.=55.992847, lon.=26.691471, Alt.=130.166138m. Speed=0.000000m/h.</desc>
<speed>0.000000</speed>
</trkpt>
<trkpt lat="55.992847" lon="26.691471">
<ele>130.162231</ele>
<time>2010-06-20T13:07:14Z</time>
<desc>lat.=55.992847, lon.=26.691471, Alt.=130.162231m. Speed=0.000000m/h.</desc>
<speed>0.000000</speed>
</trkpt>
<trkpt lat="55.992847" lon="26.691471">
<ele>130.158325</ele>
<time>2010-06-20T13:07:15Z</time>
<desc>lat.=55.992847, lon.=26.691471, Alt.=130.158325m. Speed=0.000000m/h.</desc>
<speed>0.000000</speed>
</trkpt>
<trkpt lat="55.992847" lon="26.691471">
<ele>130.154419</ele>
<time>2010-06-20T13:07:16Z</time>
<desc>lat.=55.992847, lon.=26.691471, Alt.=130.154419m. Speed=0.000000m/h.</desc>
<speed>0.000000</speed>
</trkpt>
<trkpt lat="55.992847" lon="26.691471">
<ele>130.150513</ele>
<time>2010-06-20T13:07:17Z</time>
<desc>lat.=55.992847, lon.=26.691471, Alt.=130.150513m. Speed=0.000000m/h.</desc>
<speed>0.000000</speed>
</trkpt>
<trkpt lat="55.992847" lon="26.691471">
<ele>130.150513</ele>
<time>2010-06-20T13:07:18Z</time>
<desc>lat.=55.992847, lon.=26.691471, Alt.=130.150513m. Speed=0.000000m/h.</desc>
<speed>0.000000</speed>
</trkpt>
<trkpt lat="55.992847" lon="26.691471">
<ele>130.146606</ele>
<time>2010-06-20T13:07:19Z</time>
<desc>lat.=55.992847, lon.=26.691471, Alt.=130.146606m. Speed=0.000000m/h.</desc>
<speed>0.000000</speed>
</trkpt>
<trkpt lat="55.992847" lon="26.691471">
<ele>130.142700</ele>
<time>2010-06-20T13:07:20Z</time>
<desc>lat.=55.992847, lon.=26.691471, Alt.=130.142700m. Speed=0.000000m/h.</desc>
<speed>0.000000</speed>
</trkpt>
<trkpt lat="55.992847" lon="26.691471">
<ele>130.138794</ele>
<time>2010-06-20T13:07:21Z</time>
<desc>lat.=55.992847, lon.=26.691471, Alt.=130.138794m. Speed=0.000000m/h.</desc>
<speed>0.000000</speed>
</trkpt>
<trkpt lat="55.992847" lon="26.691471">
<ele>130.134888</ele>
<time>2010-06-20T13:07:22Z</time>
<desc>lat.=55.992847, lon.=26.691471, Alt.=130.134888m. Speed=0.000000m/h.</desc>
<speed>0.000000</speed>
</trkpt>
<trkpt lat="55.992847" lon="26.691471">
<ele>130.130981</ele>
<time>2010-06-20T13:07:23Z</time>
<desc>lat.=55.992847, lon.=26.691471, Alt.=130.130981m. Speed=0.000000m/h.</desc>
<speed>0.000000</speed>
</trkpt>
<trkpt lat="55.992847" lon="26.691471">
<ele>130.127075</ele>
<time>2010-06-20T13:07:24Z</time>
<desc>lat.=55.992847, lon.=26.691471, Alt.=130.127075m. Speed=0.000000m/h.</desc>
<speed>0.000000</speed>
</trkpt>
<trkpt lat="55.992847" lon="26.691471">
<ele>130.123169</ele>
<time>2010-06-20T13:07:25Z</time>
<desc>lat.=55.992847, lon.=26.691471, Alt.=130.123169m. Speed=0.000000m/h.</desc>
<speed>0.000000</speed>
</trkpt>
<trkpt lat="55.992847" lon="26.691471">
<ele>130.119263</ele>
<time>2010-06-20T13:07:26Z</time>
<desc>lat.=55.992847, lon.=26.691471, Alt.=130.119263m. Speed=0.000000m/h.</desc>
<speed>0.000000</speed>
</trkpt>
<trkpt lat="55.992847" lon="26.691471">
<ele>130.115356</ele>
<time>2010-06-20T13:07:27Z</time>
<desc>lat.=55.992847, lon.=26.691471, Alt.=130.115356m. Speed=0.000000m/h.</desc>
<speed>0.000000</speed>
</trkpt>
<trkpt lat="55.992847" lon="26.691471">
<ele>130.115356</ele>
<time>2010-06-20T13:07:28Z</time>
<desc>lat.=55.992847, lon.=26.691471, Alt.=130.115356m. Speed=0.000000m/h.</desc>
<speed>0.000000</speed>
</trkpt>
<trkpt lat="55.992847" lon="26.691471">
<ele>130.115356</ele>
<time>2010-06-20T13:07:29Z</time>
<desc>lat.=55.992847, lon.=26.691471, Alt.=130.115356m. Speed=0.000000m/h.</desc>
<speed>0.000000</speed>
</trkpt>
<trkpt lat="55.992847" lon="26.691471">
<ele>130.111450</ele>
<time>2010-06-20T13:07:30Z</time>
<desc>lat.=55.992847, lon.=26.691471, Alt.=130.111450m. Speed=0.000000m/h.</desc>
<speed>0.000000</speed>
</trkpt>
<trkpt lat="55.992847" lon="26.691471">
<ele>130.111450</ele>
<time>2010-06-20T13:07:31Z</time>
<desc>lat.=55.992847, lon.=26.691471, Alt.=130.111450m. Speed=0.000000m/h.</desc>
<speed>0.000000</speed>
</trkpt>
<trkpt lat="55.992847" lon="26.691471">
<ele>130.107544</ele>
<time>2010-06-20T13:07:32Z</time>
<desc>lat.=55.992847, lon.=26.691471, Alt.=130.107544m. Speed=0.000000m/h.</desc>
<speed>0.000000</speed>
</trkpt>
<trkpt lat="55.992847" lon="26.691471">
<ele>130.107544</ele>
<time>2010-06-20T13:07:33Z</time>
<desc>lat.=55.992847, lon.=26.691471, Alt.=130.107544m. Speed=0.000000m/h.</desc>
<speed>0.000000</speed>
</trkpt>
<trkpt lat="55.992847" lon="26.691471">
<ele>130.107544</ele>
<time>2010-06-20T13:07:34Z</time>
<desc>lat.=55.992847, lon.=26.691471, Alt.=130.107544m. Speed=0.000000m/h.</desc>
<speed>0.000000</speed>
</trkpt>
<trkpt lat="55.992847" lon="26.691471">
<ele>130.103638</ele>
<time>2010-06-20T13:07:35Z</time>
<desc>lat.=55.992847, lon.=26.691471, Alt.=130.103638m. Speed=0.036000m/h.</desc>
<speed>0.010000</speed>
</trkpt>
<trkpt lat="55.992847" lon="26.691471">
<ele>130.103638</ele>
<time>2010-06-20T13:07:36Z</time>
<desc>lat.=55.992847, lon.=26.691471, Alt.=130.103638m. Speed=0.000000m/h.</desc>
<speed>0.000000</speed>
</trkpt>
<trkpt lat="55.992847" lon="26.691471">
<ele>130.099731</ele>
<time>2010-06-20T13:07:37Z</time>
<desc>lat.=55.992847, lon.=26.691471, Alt.=130.099731m. Speed=0.000000m/h.</desc>
<speed>0.000000</speed>
</trkpt>
<trkpt lat="55.992847" lon="26.691471">
<ele>130.095825</ele>
<time>2010-06-20T13:07:38Z</time>
<desc>lat.=55.992847, lon.=26.691471, Alt.=130.095825m. Speed=0.000000m/h.</desc>
<speed>0.000000</speed>
</trkpt>
<trkpt lat="55.992847" lon="26.691471">
<ele>130.091919</ele>
<time>2010-06-20T13:07:39Z</time>
<desc>lat.=55.992847, lon.=26.691471, Alt.=130.091919m. Speed=0.000000m/h.</desc>
<speed>0.000000</speed>
</trkpt>
<trkpt lat="55.992847" lon="26.691471">
<ele>130.088013</ele>
<time>2010-06-20T13:07:40Z</time>
<desc>lat.=55.992847, lon.=26.691471, Alt.=130.088013m. Speed=0.000000m/h.</desc>
<speed>0.000000</speed>
</trkpt>
<trkpt lat="55.992847" lon="26.691471">
<ele>130.080200</ele>
<time>2010-06-20T13:07:41Z</time>
<desc>lat.=55.992847, lon.=26.691471, Alt.=130.080200m. Speed=0.000000m/h.</desc>
<speed>0.000000</speed>
</trkpt>
<trkpt lat="55.992847" lon="26.691471">
<ele>130.076294</ele>
<time>2010-06-20T13:07:42Z</time>
<desc>lat.=55.992847, lon.=26.691471, Alt.=130.076294m. Speed=0.000000m/h.</desc>
<speed>0.000000</speed>
</trkpt>
<trkpt lat="55.992847" lon="26.691471">
<ele>130.072388</ele>
<time>2010-06-20T13:07:43Z</time>
<desc>lat.=55.992847, lon.=26.691471, Alt.=130.072388m. Speed=0.000000m/h.</desc>
<speed>0.000000</speed>
</trkpt>
<trkpt lat="55.992847" lon="26.691471">
<ele>130.064575</ele>
<time>2010-06-20T13:07:44Z</time>
<desc>lat.=55.992847, lon.=26.691471, Alt.=130.064575m. Speed=0.000000m/h.</desc>
<speed>0.000000</speed>
</trkpt>
<trkpt lat="55.992847" lon="26.691471">
<ele>130.060669</ele>
<time>2010-06-20T13:07:45Z</time>
<desc>lat.=55.992847, lon.=26.691471, Alt.=130.060669m. Speed=0.000000m/h.</desc>
<speed>0.000000</speed>
</trkpt>
<trkpt lat="55.992847" lon="26.691471">
<ele>130.056763</ele>
<time>2010-06-20T13:07:46Z</time>
<desc>lat.=55.992847, lon.=26.691471, Alt.=130.056763m. Speed=0.000000m/h.</desc>
<speed>0.000000</speed>
</trkpt>
<trkpt lat="55.992847" lon="26.691471">
<ele>130.056763</ele>
<time>2010-06-20T13:07:47Z</time>
<desc>lat.=55.992847, lon.=26.691471, Alt.=130.056763m. Speed=0.000000m/h.</desc>
<speed>0.000000</speed>
</trkpt>
<trkpt lat="55.992847" lon="26.691471">
<ele>130.052856</ele>
<time>2010-06-20T13:07:48Z</time>
<desc>lat.=55.992847, lon.=26.691471, Alt.=130.052856m. Speed=0.000000m/h.</desc>
<speed>0.000000</speed>
</trkpt>
<trkpt lat="55.992847" lon="26.691471">
<ele>130.052856</ele>
<time>2010-06-20T13:07:49Z</time>
<desc>lat.=55.992847, lon.=26.691471, Alt.=130.052856m. Speed=0.000000m/h.</desc>
<speed>0.000000</speed>
</trkpt>
<trkpt lat="55.992847" lon="26.691471">
<ele>130.052856</ele>
<time>2010-06-20T13:07:50Z</time>
<desc>lat.=55.992847, lon.=26.691471, Alt.=130.052856m. Speed=0.000000m/h.</desc>
<speed>0.000000</speed>
</trkpt>
<trkpt lat="55.992847" lon="26.691471">
<ele>130.048950</ele>
<time>2010-06-20T13:07:51Z</time>
<desc>lat.=55.992847, lon.=26.691471, Alt.=130.048950m. Speed=0.000000m/h.</desc>
<speed>0.000000</speed>
</trkpt>
<trkpt lat="55.992847" lon="26.691471">
<ele>130.048950</ele>
<time>2010-06-20T13:07:52Z</time>
<desc>lat.=55.992847, lon.=26.691471, Alt.=130.048950m. Speed=0.000000m/h.</desc>
<speed>0.000000</speed>
</trkpt>
<trkpt lat="55.992847" lon="26.691471">
<ele>130.045044</ele>
<time>2010-06-20T13:07:53Z</time>
<desc>lat.=55.992847, lon.=26.691471, Alt.=130.045044m. Speed=0.000000m/h.</desc>
<speed>0.000000</speed>
</trkpt>
<trkpt lat="55.992847" lon="26.691471">
<ele>130.045044</ele>
<time>2010-06-20T13:07:54Z</time>
<desc>lat.=55.992847, lon.=26.691471, Alt.=130.045044m. Speed=0.000000m/h.</desc>
<speed>0.000000</speed>
</trkpt>
<trkpt lat="55.992847" lon="26.691471">
<ele>130.045044</ele>
<time>2010-06-20T13:07:55Z</time>
<desc>lat.=55.992847, lon.=26.691471, Alt.=130.045044m. Speed=0.000000m/h.</desc>
<speed>0.000000</speed>
</trkpt>
<trkpt lat="55.992847" lon="26.691471">
<ele>130.045044</ele>
<time>2010-06-20T13:07:56Z</time>
<desc>lat.=55.992847, lon.=26.691471, Alt.=130.045044m. Speed=0.000000m/h.</desc>
<speed>0.000000</speed>
</trkpt>
<trkpt lat="55.992847" lon="26.691471">
<ele>130.041138</ele>
<time>2010-06-20T13:07:57Z</time>
<desc>lat.=55.992847, lon.=26.691471, Alt.=130.041138m. Speed=0.000000m/h.</desc>
<speed>0.000000</speed>
</trkpt>
<trkpt lat="55.992847" lon="26.691471">
<ele>130.041138</ele>
<time>2010-06-20T13:07:58Z</time>
<desc>lat.=55.992847, lon.=26.691471, Alt.=130.041138m. Speed=0.000000m/h.</desc>
<speed>0.000000</speed>
</trkpt>
<trkpt lat="55.992847" lon="26.691471">
<ele>130.041138</ele>
<time>2010-06-20T13:07:59Z</time>
<desc>lat.=55.992847, lon.=26.691471, Alt.=130.041138m. Speed=0.000000m/h.</desc>
<speed>0.000000</speed>
</trkpt>
<trkpt lat="55.992847" lon="26.691471">
<ele>130.041138</ele>
<time>2010-06-20T13:08:00Z</time>
<desc>lat.=55.992847, lon.=26.691471, Alt.=130.041138m. Speed=0.000000m/h.</desc>
<speed>0.000000</speed>
</trkpt>
<trkpt lat="55.992847" lon="26.691471">
<ele>130.037231</ele>
<time>2010-06-20T13:08:01Z</time>
<desc>lat.=55.992847, lon.=26.691471, Alt.=130.037231m. Speed=0.000000m/h.</desc>
<speed>0.000000</speed>
</trkpt>
<trkpt lat="55.992847" lon="26.691471">
<ele>130.033325</ele>
<time>2010-06-20T13:08:02Z</time>
<desc>lat.=55.992847, lon.=26.691471, Alt.=130.033325m. Speed=0.000000m/h.</desc>
<speed>0.000000</speed>
</trkpt>
<trkpt lat="55.992847" lon="26.691471">
<ele>130.033325</ele>
<time>2010-06-20T13:08:03Z</time>
<desc>lat.=55.992847, lon.=26.691471, Alt.=130.033325m. Speed=0.000000m/h.</desc>
<speed>0.000000</speed>
</trkpt>
<trkpt lat="55.992847" lon="26.691471">
<ele>130.029419</ele>
<time>2010-06-20T13:08:04Z</time>
<desc>lat.=55.992847, lon.=26.691471, Alt.=130.029419m. Speed=0.000000m/h.</desc>
<speed>0.000000</speed>
</trkpt>
<trkpt lat="55.992847" lon="26.691471">
<ele>130.029419</ele>
<time>2010-06-20T13:08:05Z</time>
<desc>lat.=55.992847, lon.=26.691471, Alt.=130.029419m. Speed=0.000000m/h.</desc>
<speed>0.000000</speed>
</trkpt>
<trkpt lat="55.992847" lon="26.691471">
<ele>130.025513</ele>
<time>2010-06-20T13:08:06Z</time>
<desc>lat.=55.992847, lon.=26.691471, Alt.=130.025513m. Speed=0.000000m/h.</desc>
<speed>0.000000</speed>
</trkpt>
<trkpt lat="55.992847" lon="26.691471">
<ele>130.025513</ele>
<time>2010-06-20T13:08:07Z</time>
<desc>lat.=55.992847, lon.=26.691471, Alt.=130.025513m. Speed=0.000000m/h.</desc>
<speed>0.000000</speed>
</trkpt>
<trkpt lat="55.992847" lon="26.691471">
<ele>130.021606</ele>
<time>2010-06-20T13:08:08Z</time>
<desc>lat.=55.992847, lon.=26.691471, Alt.=130.021606m. Speed=0.000000m/h.</desc>
<speed>0.000000</speed>
</trkpt>
<trkpt lat="55.992847" lon="26.691471">
<ele>130.017700</ele>
<time>2010-06-20T13:08:09Z</time>
<desc>lat.=55.992847, lon.=26.691471, Alt.=130.017700m. Speed=0.000000m/h.</desc>
<speed>0.000000</speed>
</trkpt>
<trkpt lat="55.992847" lon="26.691471">
<ele>130.017700</ele>
<time>2010-06-20T13:08:10Z</time>
<desc>lat.=55.992847, lon.=26.691471, Alt.=130.017700m. Speed=0.000000m/h.</desc>
<speed>0.000000</speed>
</trkpt>
<trkpt lat="55.992847" lon="26.691471">
<ele>130.013794</ele>
<time>2010-06-20T13:08:11Z</time>
<desc>lat.=55.992847, lon.=26.691471, Alt.=130.013794m. Speed=0.000000m/h.</desc>
<speed>0.000000</speed>
</trkpt>
<trkpt lat="55.992847" lon="26.691471">
<ele>130.009888</ele>
<time>2010-06-20T13:08:12Z</time>
<desc>lat.=55.992847, lon.=26.691471, Alt.=130.009888m. Speed=0.000000m/h.</desc>
<speed>0.000000</speed>
</trkpt>
<trkpt lat="55.992847" lon="26.691471">
<ele>130.009888</ele>
<time>2010-06-20T13:08:13Z</time>
<desc>lat.=55.992847, lon.=26.691471, Alt.=130.009888m. Speed=0.000000m/h.</desc>
<speed>0.000000</speed>
</trkpt>
<trkpt lat="55.992847" lon="26.691471">
<ele>130.005981</ele>
<time>2010-06-20T13:08:14Z</time>
<desc>lat.=55.992847, lon.=26.691471, Alt.=130.005981m. Speed=0.000000m/h.</desc>
<speed>0.000000</speed>
</trkpt>
<trkpt lat="55.992847" lon="26.691471">
<ele>130.002075</ele>
<time>2010-06-20T13:08:15Z</time>
<desc>lat.=55.992847, lon.=26.691471, Alt.=130.002075m. Speed=0.000000m/h.</desc>
<speed>0.000000</speed>
</trkpt>
<trkpt lat="55.992847" lon="26.691471">
<ele>129.998169</ele>
<time>2010-06-20T13:08:16Z</time>
<desc>lat.=55.992847, lon.=26.691471, Alt.=129.998169m. Speed=0.000000m/h.</desc>
<speed>0.000000</speed>
</trkpt>
<trkpt lat="55.992847" lon="26.691471">
<ele>129.994263</ele>
<time>2010-06-20T13:08:17Z</time>
<desc>lat.=55.992847, lon.=26.691471, Alt.=129.994263m. Speed=0.000000m/h.</desc>
<speed>0.000000</speed>
</trkpt>
<trkpt lat="55.992847" lon="26.691471">
<ele>129.990356</ele>
<time>2010-06-20T13:08:18Z</time>
<desc>lat.=55.992847, lon.=26.691471, Alt.=129.990356m. Speed=0.000000m/h.</desc>
<speed>0.000000</speed>
</trkpt>
<trkpt lat="55.992847" lon="26.691471">
<ele>129.982544</ele>
<time>2010-06-20T13:08:19Z</time>
<desc>lat.=55.992847, lon.=26.691471, Alt.=129.982544m. Speed=0.000000m/h.</desc>
<speed>0.000000</speed>
</trkpt>
<trkpt lat="55.992847" lon="26.691471">
<ele>129.978638</ele>
<time>2010-06-20T13:08:20Z</time>
<desc>lat.=55.992847, lon.=26.691471, Alt.=129.978638m. Speed=0.000000m/h.</desc>
<speed>0.000000</speed>
</trkpt>
<trkpt lat="55.992847" lon="26.691471">
<ele>129.974731</ele>
<time>2010-06-20T13:08:21Z</time>
<desc>lat.=55.992847, lon.=26.691471, Alt.=129.974731m. Speed=0.000000m/h.</desc>
<speed>0.000000</speed>
</trkpt>
<trkpt lat="55.992847" lon="26.691471">
<ele>129.970825</ele>
<time>2010-06-20T13:08:22Z</time>
<desc>lat.=55.992847, lon.=26.691471, Alt.=129.970825m. Speed=0.000000m/h.</desc>
<speed>0.000000</speed>
</trkpt>
<trkpt lat="55.992847" lon="26.691471">
<ele>129.966919</ele>
<time>2010-06-20T13:08:23Z</time>
<desc>lat.=55.992847, lon.=26.691471, Alt.=129.966919m. Speed=0.000000m/h.</desc>
<speed>0.000000</speed>
</trkpt>
<trkpt lat="55.992847" lon="26.691471">
<ele>129.966919</ele>
<time>2010-06-20T13:08:24Z</time>
<desc>lat.=55.992847, lon.=26.691471, Alt.=129.966919m. Speed=0.000000m/h.</desc>
<speed>0.000000</speed>
</trkpt>
<trkpt lat="55.992847" lon="26.691471">
<ele>129.963013</ele>
<time>2010-06-20T13:08:25Z</time>
<desc>lat.=55.992847, lon.=26.691471, Alt.=129.963013m. Speed=0.000000m/h.</desc>
<speed>0.000000</speed>
</trkpt>
<trkpt lat="55.992847" lon="26.691471">
<ele>129.959106</ele>
<time>2010-06-20T13:08:26Z</time>
<desc>lat.=55.992847, lon.=26.691471, Alt.=129.959106m. Speed=0.000000m/h.</desc>
<speed>0.000000</speed>
</trkpt>
<trkpt lat="55.992847" lon="26.691471">
<ele>129.959106</ele>
<time>2010-06-20T13:08:27Z</time>
<desc>lat.=55.992847, lon.=26.691471, Alt.=129.959106m. Speed=0.000000m/h.</desc>
<speed>0.000000</speed>
</trkpt>
<trkpt lat="55.992847" lon="26.691471">
<ele>129.955200</ele>
<time>2010-06-20T13:08:28Z</time>
<desc>lat.=55.992847, lon.=26.691471, Alt.=129.955200m. Speed=0.000000m/h.</desc>
<speed>0.000000</speed>
</trkpt>
<trkpt lat="55.992847" lon="26.691471">
<ele>129.955200</ele>
<time>2010-06-20T13:08:29Z</time>
<desc>lat.=55.992847, lon.=26.691471, Alt.=129.955200m. Speed=0.000000m/h.</desc>
<speed>0.000000</speed>
</trkpt>
<trkpt lat="55.992847" lon="26.691471">
<ele>129.951294</ele>
<time>2010-06-20T13:08:30Z</time>
<desc>lat.=55.992847, lon.=26.691471, Alt.=129.951294m. Speed=0.000000m/h.</desc>
<speed>0.000000</speed>
</trkpt>
<trkpt lat="55.992847" lon="26.691471">
<ele>129.947388</ele>
<time>2010-06-20T13:08:31Z</time>
<desc>lat.=55.992847, lon.=26.691471, Alt.=129.947388m. Speed=0.000000m/h.</desc>
<speed>0.000000</speed>
</trkpt>
<trkpt lat="55.992847" lon="26.691471">
<ele>129.943481</ele>
<time>2010-06-20T13:08:32Z</time>
<desc>lat.=55.992847, lon.=26.691471, Alt.=129.943481m. Speed=0.000000m/h.</desc>
<speed>0.000000</speed>
</trkpt>
<trkpt lat="55.992847" lon="26.691471">
<ele>129.939575</ele>
<time>2010-06-20T13:08:33Z</time>
<desc>lat.=55.992847, lon.=26.691471, Alt.=129.939575m. Speed=0.000000m/h.</desc>
<speed>0.000000</speed>
</trkpt>
<trkpt lat="55.992847" lon="26.691471">
<ele>129.935669</ele>
<time>2010-06-20T13:08:34Z</time>
<desc>lat.=55.992847, lon.=26.691471, Alt.=129.935669m. Speed=0.000000m/h.</desc>
<speed>0.000000</speed>
</trkpt>
<trkpt lat="55.992847" lon="26.691471">
<ele>129.931763</ele>
<time>2010-06-20T13:08:35Z</time>
<desc>lat.=55.992847, lon.=26.691471, Alt.=129.931763m. Speed=0.000000m/h.</desc>
<speed>0.000000</speed>
</trkpt>
<trkpt lat="55.992847" lon="26.691471">
<ele>129.927856</ele>
<time>2010-06-20T13:08:36Z</time>
<desc>lat.=55.992847, lon.=26.691471, Alt.=129.927856m. Speed=0.000000m/h.</desc>
<speed>0.000000</speed>
</trkpt>
<trkpt lat="55.992847" lon="26.691471">
<ele>129.923950</ele>
<time>2010-06-20T13:08:37Z</time>
<desc>lat.=55.992847, lon.=26.691471, Alt.=129.923950m. Speed=0.000000m/h.</desc>
<speed>0.000000</speed>
</trkpt>
<trkpt lat="55.992847" lon="26.691471">
<ele>129.923950</ele>
<time>2010-06-20T13:08:38Z</time>
<desc>lat.=55.992847, lon.=26.691471, Alt.=129.923950m. Speed=0.000000m/h.</desc>
<speed>0.000000</speed>
</trkpt>
<trkpt lat="55.992847" lon="26.691471">
<ele>129.920044</ele>
<time>2010-06-20T13:08:39Z</time>
<desc>lat.=55.992847, lon.=26.691471, Alt.=129.920044m. Speed=0.000000m/h.</desc>
<speed>0.000000</speed>
</trkpt>
<trkpt lat="55.992847" lon="26.691471">
<ele>129.916138</ele>
<time>2010-06-20T13:08:40Z</time>
<desc>lat.=55.992847, lon.=26.691471, Alt.=129.916138m. Speed=0.000000m/h.</desc>
<speed>0.000000</speed>
</trkpt>
<trkpt lat="55.992847" lon="26.691471">
<ele>129.912231</ele>
<time>2010-06-20T13:08:41Z</time>
<desc>lat.=55.992847, lon.=26.691471, Alt.=129.912231m. Speed=0.000000m/h.</desc>
<speed>0.000000</speed>
</trkpt>
<trkpt lat="55.992847" lon="26.691471">
<ele>129.908325</ele>
<time>2010-06-20T13:08:42Z</time>
<desc>lat.=55.992847, lon.=26.691471, Alt.=129.908325m. Speed=0.000000m/h.</desc>
<speed>0.000000</speed>
</trkpt>
<trkpt lat="55.992847" lon="26.691471">
<ele>129.904419</ele>
<time>2010-06-20T13:08:43Z</time>
<desc>lat.=55.992847, lon.=26.691471, Alt.=129.904419m. Speed=0.000000m/h.</desc>
<speed>0.000000</speed>
</trkpt>
<trkpt lat="55.992847" lon="26.691471">
<ele>129.904419</ele>
<time>2010-06-20T13:08:44Z</time>
<desc>lat.=55.992847, lon.=26.691471, Alt.=129.904419m. Speed=0.000000m/h.</desc>
<speed>0.000000</speed>
</trkpt>
<trkpt lat="55.992847" lon="26.691471">
<ele>129.900513</ele>
<time>2010-06-20T13:08:45Z</time>
<desc>lat.=55.992847, lon.=26.691471, Alt.=129.900513m. Speed=0.000000m/h.</desc>
<speed>0.000000</speed>
</trkpt>
<trkpt lat="55.992847" lon="26.691471">
<ele>129.896606</ele>
<time>2010-06-20T13:08:46Z</time>
<desc>lat.=55.992847, lon.=26.691471, Alt.=129.896606m. Speed=0.000000m/h.</desc>
<speed>0.000000</speed>
</trkpt>
<trkpt lat="55.992847" lon="26.691471">
<ele>129.896606</ele>
<time>2010-06-20T13:08:47Z</time>
<desc>lat.=55.992847, lon.=26.691471, Alt.=129.896606m. Speed=0.000000m/h.</desc>
<speed>0.000000</speed>
</trkpt>
<trkpt lat="55.992847" lon="26.691471">
<ele>129.892700</ele>
<time>2010-06-20T13:08:48Z</time>
<desc>lat.=55.992847, lon.=26.691471, Alt.=129.892700m. Speed=0.000000m/h.</desc>
<speed>0.000000</speed>
</trkpt>
<trkpt lat="55.992847" lon="26.691469">
<ele>129.888794</ele>
<time>2010-06-20T13:08:49Z</time>
<desc>lat.=55.992847, lon.=26.691469, Alt.=129.888794m. Speed=0.000000m/h.</desc>
<speed>0.000000</speed>
</trkpt>
<trkpt lat="55.992847" lon="26.691469">
<ele>129.884888</ele>
<time>2010-06-20T13:08:50Z</time>
<desc>lat.=55.992847, lon.=26.691469, Alt.=129.884888m. Speed=0.036000m/h.</desc>
<speed>0.010000</speed>
</trkpt>
<trkpt lat="55.992847" lon="26.691469">
<ele>129.884888</ele>
<time>2010-06-20T13:08:51Z</time>
<desc>lat.=55.992847, lon.=26.691469, Alt.=129.884888m. Speed=0.000000m/h.</desc>
<speed>0.000000</speed>
</trkpt>
<trkpt lat="55.992847" lon="26.691469">
<ele>129.884888</ele>
<time>2010-06-20T13:08:52Z</time>
<desc>lat.=55.992847, lon.=26.691469, Alt.=129.884888m. Speed=0.000000m/h.</desc>
<speed>0.000000</speed>
</trkpt>
<trkpt lat="55.992847" lon="26.691469">
<ele>129.884888</ele>
<time>2010-06-20T13:08:53Z</time>
<desc>lat.=55.992847, lon.=26.691469, Alt.=129.884888m. Speed=0.000000m/h.</desc>
<speed>0.000000</speed>
</trkpt>
<trkpt lat="55.992847" lon="26.691469">
<ele>129.884888</ele>
<time>2010-06-20T13:08:54Z</time>
<desc>lat.=55.992847, lon.=26.691469, Alt.=129.884888m. Speed=0.000000m/h.</desc>
<speed>0.000000</speed>
</trkpt>
<trkpt lat="55.992847" lon="26.691469">
<ele>129.884888</ele>
<time>2010-06-20T13:08:55Z</time>
<desc>lat.=55.992847, lon.=26.691469, Alt.=129.884888m. Speed=0.000000m/h.</desc>
<speed>0.000000</speed>
</trkpt>
<trkpt lat="55.992847" lon="26.691469">
<ele>129.884888</ele>
<time>2010-06-20T13:08:56Z</time>
<desc>lat.=55.992847, lon.=26.691469, Alt.=129.884888m. Speed=0.000000m/h.</desc>
<speed>0.000000</speed>
</trkpt>
<trkpt lat="55.992847" lon="26.691469">
<ele>129.884888</ele>
<time>2010-06-20T13:08:57Z</time>
<desc>lat.=55.992847, lon.=26.691469, Alt.=129.884888m. Speed=0.000000m/h.</desc>
<speed>0.000000</speed>
</trkpt>
<trkpt lat="55.992847" lon="26.691469">
<ele>129.888794</ele>
<time>2010-06-20T13:08:58Z</time>
<desc>lat.=55.992847, lon.=26.691469, Alt.=129.888794m. Speed=0.000000m/h.</desc>
<speed>0.000000</speed>
</trkpt>
<trkpt lat="55.992847" lon="26.691469">
<ele>129.892700</ele>
<time>2010-06-20T13:08:59Z</time>
<desc>lat.=55.992847, lon.=26.691469, Alt.=129.892700m. Speed=0.000000m/h.</desc>
<speed>0.000000</speed>
</trkpt>
<trkpt lat="55.992847" lon="26.691469">
<ele>129.892700</ele>
<time>2010-06-20T13:09:00Z</time>
<desc>lat.=55.992847, lon.=26.691469, Alt.=129.892700m. Speed=0.000000m/h.</desc>
<speed>0.000000</speed>
</trkpt>
<trkpt lat="55.992847" lon="26.691469">
<ele>129.896606</ele>
<time>2010-06-20T13:09:01Z</time>
<desc>lat.=55.992847, lon.=26.691469, Alt.=129.896606m. Speed=0.000000m/h.</desc>
<speed>0.000000</speed>
</trkpt>
<trkpt lat="55.992847" lon="26.691469">
<ele>129.896606</ele>
<time>2010-06-20T13:09:02Z</time>
<desc>lat.=55.992847, lon.=26.691469, Alt.=129.896606m. Speed=0.000000m/h.</desc>
<speed>0.000000</speed>
</trkpt>
<trkpt lat="55.992847" lon="26.691469">
<ele>129.892700</ele>
<time>2010-06-20T13:09:03Z</time>
<desc>lat.=55.992847, lon.=26.691469, Alt.=129.892700m. Speed=0.000000m/h.</desc>
<speed>0.000000</speed>
</trkpt>
<trkpt lat="55.992847" lon="26.691469">
<ele>129.892700</ele>
<time>2010-06-20T13:09:04Z</time>
<desc>lat.=55.992847, lon.=26.691469, Alt.=129.892700m. Speed=0.000000m/h.</desc>
<speed>0.000000</speed>
</trkpt>
<trkpt lat="55.992847" lon="26.691469">
<ele>129.892700</ele>
<time>2010-06-20T13:09:05Z</time>
<desc>lat.=55.992847, lon.=26.691469, Alt.=129.892700m. Speed=0.000000m/h.</desc>
<speed>0.000000</speed>
</trkpt>
<trkpt lat="55.992847" lon="26.691469">
<ele>129.892700</ele>
<time>2010-06-20T13:09:06Z</time>
<desc>lat.=55.992847, lon.=26.691469, Alt.=129.892700m. Speed=0.000000m/h.</desc>
<speed>0.000000</speed>
</trkpt>
<trkpt lat="55.992847" lon="26.691469">
<ele>129.888794</ele>
<time>2010-06-20T13:09:07Z</time>
<desc>lat.=55.992847, lon.=26.691469, Alt.=129.888794m. Speed=0.036000m/h.</desc>
<speed>0.010000</speed>
</trkpt>
<trkpt lat="55.992847" lon="26.691469">
<ele>129.888794</ele>
<time>2010-06-20T13:09:08Z</time>
<desc>lat.=55.992847, lon.=26.691469, Alt.=129.888794m. Speed=0.000000m/h.</desc>
<speed>0.000000</speed>
</trkpt>
<trkpt lat="55.992847" lon="26.691469">
<ele>129.888794</ele>
<time>2010-06-20T13:09:09Z</time>
<desc>lat.=55.992847, lon.=26.691469, Alt.=129.888794m. Speed=0.000000m/h.</desc>
<speed>0.000000</speed>
</trkpt>
<trkpt lat="55.992847" lon="26.691469">
<ele>129.888794</ele>
<time>2010-06-20T13:09:10Z</time>
<desc>lat.=55.992847, lon.=26.691469, Alt.=129.888794m. Speed=0.000000m/h.</desc>
<speed>0.000000</speed>
</trkpt>
<trkpt lat="55.992847" lon="26.691469">
<ele>129.888794</ele>
<time>2010-06-20T13:09:11Z</time>
<desc>lat.=55.992847, lon.=26.691469, Alt.=129.888794m. Speed=0.000000m/h.</desc>
<speed>0.000000</speed>
</trkpt>
<trkpt lat="55.992847" lon="26.691469">
<ele>129.888794</ele>
<time>2010-06-20T13:09:12Z</time>
<desc>lat.=55.992847, lon.=26.691469, Alt.=129.888794m. Speed=0.000000m/h.</desc>
<speed>0.000000</speed>
</trkpt>
<trkpt lat="55.992847" lon="26.691469">
<ele>129.888794</ele>
<time>2010-06-20T13:09:13Z</time>
<desc>lat.=55.992847, lon.=26.691469, Alt.=129.888794m. Speed=0.000000m/h.</desc>
<speed>0.000000</speed>
</trkpt>
<trkpt lat="55.992847" lon="26.691469">
<ele>129.888794</ele>
<time>2010-06-20T13:09:14Z</time>
<desc>lat.=55.992847, lon.=26.691469, Alt.=129.888794m. Speed=0.000000m/h.</desc>
<speed>0.000000</speed>
</trkpt>
<trkpt lat="55.992847" lon="26.691469">
<ele>129.888794</ele>
<time>2010-06-20T13:09:15Z</time>
<desc>lat.=55.992847, lon.=26.691469, Alt.=129.888794m. Speed=0.000000m/h.</desc>
<speed>0.000000</speed>
</trkpt>
<trkpt lat="55.992847" lon="26.691469">
<ele>129.884888</ele>
<time>2010-06-20T13:09:16Z</time>
<desc>lat.=55.992847, lon.=26.691469, Alt.=129.884888m. Speed=0.000000m/h.</desc>
<speed>0.000000</speed>
</trkpt>
<trkpt lat="55.992847" lon="26.691469">
<ele>129.884888</ele>
<time>2010-06-20T13:09:17Z</time>
<desc>lat.=55.992847, lon.=26.691469, Alt.=129.884888m. Speed=0.000000m/h.</desc>
<speed>0.000000</speed>
</trkpt>
<trkpt lat="55.992847" lon="26.691469">
<ele>129.884888</ele>
<time>2010-06-20T13:09:18Z</time>
<desc>lat.=55.992847, lon.=26.691469, Alt.=129.884888m. Speed=0.000000m/h.</desc>
<speed>0.000000</speed>
</trkpt>
<trkpt lat="55.992847" lon="26.691469">
<ele>129.884888</ele>
<time>2010-06-20T13:09:19Z</time>
<desc>lat.=55.992847, lon.=26.691469, Alt.=129.884888m. Speed=0.000000m/h.</desc>
<speed>0.000000</speed>
</trkpt>
<trkpt lat="55.992847" lon="26.691469">
<ele>129.884888</ele>
<time>2010-06-20T13:09:20Z</time>
<desc>lat.=55.992847, lon.=26.691469, Alt.=129.884888m. Speed=0.000000m/h.</desc>
<speed>0.000000</speed>
</trkpt>
<trkpt lat="55.992847" lon="26.691469">
<ele>129.884888</ele>
<time>2010-06-20T13:09:21Z</time>
<desc>lat.=55.992847, lon.=26.691469, Alt.=129.884888m. Speed=0.000000m/h.</desc>
<speed>0.000000</speed>
</trkpt>
<trkpt lat="55.992847" lon="26.691469">
<ele>129.884888</ele>
<time>2010-06-20T13:09:22Z</time>
<desc>lat.=55.992847, lon.=26.691469, Alt.=129.884888m. Speed=0.000000m/h.</desc>
<speed>0.000000</speed>
</trkpt>
<trkpt lat="55.992847" lon="26.691469">
<ele>129.884888</ele>
<time>2010-06-20T13:09:23Z</time>
<desc>lat.=55.992847, lon.=26.691469, Alt.=129.884888m. Speed=0.000000m/h.</desc>
<speed>0.000000</speed>
</trkpt>
<trkpt lat="55.992847" lon="26.691469">
<ele>129.884888</ele>
<time>2010-06-20T13:09:24Z</time>
<desc>lat.=55.992847, lon.=26.691469, Alt.=129.884888m. Speed=0.000000m/h.</desc>
<speed>0.000000</speed>
</trkpt>
<trkpt lat="55.992847" lon="26.691469">
<ele>129.888794</ele>
<time>2010-06-20T13:09:25Z</time>
<desc>lat.=55.992847, lon.=26.691469, Alt.=129.888794m. Speed=0.000000m/h.</desc>
<speed>0.000000</speed>
</trkpt>
<trkpt lat="55.992847" lon="26.691469">
<ele>129.888794</ele>
<time>2010-06-20T13:09:26Z</time>
<desc>lat.=55.992847, lon.=26.691469, Alt.=129.888794m. Speed=0.000000m/h.</desc>
<speed>0.000000</speed>
</trkpt>
<trkpt lat="55.992847" lon="26.691469">
<ele>129.888794</ele>
<time>2010-06-20T13:09:27Z</time>
<desc>lat.=55.992847, lon.=26.691469, Alt.=129.888794m. Speed=0.000000m/h.</desc>
<speed>0.000000</speed>
</trkpt>
<trkpt lat="55.992847" lon="26.691469">
<ele>129.888794</ele>
<time>2010-06-20T13:09:28Z</time>
<desc>lat.=55.992847, lon.=26.691469, Alt.=129.888794m. Speed=0.000000m/h.</desc>
<speed>0.000000</speed>
</trkpt>
<trkpt lat="55.992847" lon="26.691469">
<ele>129.888794</ele>
<time>2010-06-20T13:09:29Z</time>
<desc>lat.=55.992847, lon.=26.691469, Alt.=129.888794m. Speed=0.000000m/h.</desc>
<speed>0.000000</speed>
</trkpt>
<trkpt lat="55.992847" lon="26.691469">
<ele>129.884888</ele>
<time>2010-06-20T13:09:30Z</time>
<desc>lat.=55.992847, lon.=26.691469, Alt.=129.884888m. Speed=0.000000m/h.</desc>
<speed>0.000000</speed>
</trkpt>
<trkpt lat="55.992847" lon="26.691469">
<ele>129.884888</ele>
<time>2010-06-20T13:09:31Z</time>
<desc>lat.=55.992847, lon.=26.691469, Alt.=129.884888m. Speed=0.000000m/h.</desc>
<speed>0.000000</speed>
</trkpt>
<trkpt lat="55.992847" lon="26.691469">
<ele>129.880981</ele>
<time>2010-06-20T13:09:32Z</time>
<desc>lat.=55.992847, lon.=26.691469, Alt.=129.880981m. Speed=0.000000m/h.</desc>
<speed>0.000000</speed>
</trkpt>
<trkpt lat="55.992847" lon="26.691469">
<ele>129.877075</ele>
<time>2010-06-20T13:09:33Z</time>
<desc>lat.=55.992847, lon.=26.691469, Alt.=129.877075m. Speed=0.000000m/h.</desc>
<speed>0.000000</speed>
</trkpt>
<trkpt lat="55.992847" lon="26.691469">
<ele>129.877075</ele>
<time>2010-06-20T13:09:34Z</time>
<desc>lat.=55.992847, lon.=26.691469, Alt.=129.877075m. Speed=0.000000m/h.</desc>
<speed>0.000000</speed>
</trkpt>
<trkpt lat="55.992847" lon="26.691469">
<ele>129.873169</ele>
<time>2010-06-20T13:09:35Z</time>
<desc>lat.=55.992847, lon.=26.691469, Alt.=129.873169m. Speed=0.000000m/h.</desc>
<speed>0.000000</speed>
</trkpt>
<trkpt lat="55.992847" lon="26.691469">
<ele>129.869263</ele>
<time>2010-06-20T13:09:36Z</time>
<desc>lat.=55.992847, lon.=26.691469, Alt.=129.869263m. Speed=0.000000m/h.</desc>
<speed>0.000000</speed>
</trkpt>
<trkpt lat="55.992847" lon="26.691469">
<ele>129.865356</ele>
<time>2010-06-20T13:09:37Z</time>
<desc>lat.=55.992847, lon.=26.691469, Alt.=129.865356m. Speed=0.000000m/h.</desc>
<speed>0.000000</speed>
</trkpt>
<trkpt lat="55.992847" lon="26.691469">
<ele>129.865356</ele>
<time>2010-06-20T13:09:38Z</time>
<desc>lat.=55.992847, lon.=26.691469, Alt.=129.865356m. Speed=0.000000m/h.</desc>
<speed>0.000000</speed>
</trkpt>
<trkpt lat="55.992847" lon="26.691469">
<ele>129.861450</ele>
<time>2010-06-20T13:09:39Z</time>
<desc>lat.=55.992847, lon.=26.691469, Alt.=129.861450m. Speed=0.000000m/h.</desc>
<speed>0.000000</speed>
</trkpt>
<trkpt lat="55.992847" lon="26.691469">
<ele>129.861450</ele>
<time>2010-06-20T13:09:40Z</time>
<desc>lat.=55.992847, lon.=26.691469, Alt.=129.861450m. Speed=0.000000m/h.</desc>
<speed>0.000000</speed>
</trkpt>
<trkpt lat="55.992847" lon="26.691469">
<ele>129.857544</ele>
<time>2010-06-20T13:09:41Z</time>
<desc>lat.=55.992847, lon.=26.691469, Alt.=129.857544m. Speed=0.000000m/h.</desc>
<speed>0.000000</speed>
</trkpt>
<trkpt lat="55.992847" lon="26.691469">
<ele>129.853638</ele>
<time>2010-06-20T13:09:42Z</time>
<desc>lat.=55.992847, lon.=26.691469, Alt.=129.853638m. Speed=0.000000m/h.</desc>
<speed>0.000000</speed>
</trkpt>
<trkpt lat="55.992847" lon="26.691469">
<ele>129.849731</ele>
<time>2010-06-20T13:09:43Z</time>
<desc>lat.=55.992847, lon.=26.691469, Alt.=129.849731m. Speed=0.000000m/h.</desc>
<speed>0.000000</speed>
</trkpt>
<trkpt lat="55.992847" lon="26.691469">
<ele>129.841919</ele>
<time>2010-06-20T13:09:44Z</time>
<desc>lat.=55.992847, lon.=26.691469, Alt.=129.841919m. Speed=0.000000m/h.</desc>
<speed>0.000000</speed>
</trkpt>
<trkpt lat="55.992847" lon="26.691469">
<ele>129.841919</ele>
<time>2010-06-20T13:09:45Z</time>
<desc>lat.=55.992847, lon.=26.691469, Alt.=129.841919m. Speed=0.000000m/h.</desc>
<speed>0.000000</speed>
</trkpt>
<trkpt lat="55.992847" lon="26.691469">
<ele>129.838013</ele>
<time>2010-06-20T13:09:46Z</time>
<desc>lat.=55.992847, lon.=26.691469, Alt.=129.838013m. Speed=0.000000m/h.</desc>
<speed>0.000000</speed>
</trkpt>
<trkpt lat="55.992847" lon="26.691469">
<ele>129.838013</ele>
<time>2010-06-20T13:09:47Z</time>
<desc>lat.=55.992847, lon.=26.691469, Alt.=129.838013m. Speed=0.000000m/h.</desc>
<speed>0.000000</speed>
</trkpt>
<trkpt lat="55.992847" lon="26.691469">
<ele>129.838013</ele>
<time>2010-06-20T13:09:48Z</time>
<desc>lat.=55.992847, lon.=26.691469, Alt.=129.838013m. Speed=0.000000m/h.</desc>
<speed>0.000000</speed>
</trkpt>
<trkpt lat="55.992847" lon="26.691469">
<ele>129.834106</ele>
<time>2010-06-20T13:09:49Z</time>
<desc>lat.=55.992847, lon.=26.691469, Alt.=129.834106m. Speed=0.000000m/h.</desc>
<speed>0.000000</speed>
</trkpt>
<trkpt lat="55.992847" lon="26.691469">
<ele>129.834106</ele>
<time>2010-06-20T13:09:50Z</time>
<desc>lat.=55.992847, lon.=26.691469, Alt.=129.834106m. Speed=0.000000m/h.</desc>
<speed>0.000000</speed>
</trkpt>
<trkpt lat="55.992847" lon="26.691469">
<ele>129.830200</ele>
<time>2010-06-20T13:09:51Z</time>
<desc>lat.=55.992847, lon.=26.691469, Alt.=129.830200m. Speed=0.000000m/h.</desc>
<speed>0.000000</speed>
</trkpt>
<trkpt lat="55.992847" lon="26.691469">
<ele>129.830200</ele>
<time>2010-06-20T13:09:52Z</time>
<desc>lat.=55.992847, lon.=26.691469, Alt.=129.830200m. Speed=0.000000m/h.</desc>
<speed>0.000000</speed>
</trkpt>
<trkpt lat="55.992847" lon="26.691469">
<ele>129.830200</ele>
<time>2010-06-20T13:09:53Z</time>
<desc>lat.=55.992847, lon.=26.691469, Alt.=129.830200m. Speed=0.000000m/h.</desc>
<speed>0.000000</speed>
</trkpt>
<trkpt lat="55.992847" lon="26.691469">
<ele>129.830200</ele>
<time>2010-06-20T13:09:54Z</time>
<desc>lat.=55.992847, lon.=26.691469, Alt.=129.830200m. Speed=0.000000m/h.</desc>
<speed>0.000000</speed>
</trkpt>
<trkpt lat="55.992847" lon="26.691469">
<ele>129.830200</ele>
<time>2010-06-20T13:09:55Z</time>
<desc>lat.=55.992847, lon.=26.691469, Alt.=129.830200m. Speed=0.000000m/h.</desc>
<speed>0.000000</speed>
</trkpt>
<trkpt lat="55.992847" lon="26.691469">
<ele>129.830200</ele>
<time>2010-06-20T13:09:56Z</time>
<desc>lat.=55.992847, lon.=26.691469, Alt.=129.830200m. Speed=0.000000m/h.</desc>
<speed>0.000000</speed>
</trkpt>
<trkpt lat="55.992847" lon="26.691469">
<ele>129.830200</ele>
<time>2010-06-20T13:09:57Z</time>
<desc>lat.=55.992847, lon.=26.691469, Alt.=129.830200m. Speed=0.000000m/h.</desc>
<speed>0.000000</speed>
</trkpt>
<trkpt lat="55.992847" lon="26.691469">
<ele>129.834106</ele>
<time>2010-06-20T13:09:58Z</time>
<desc>lat.=55.992847, lon.=26.691469, Alt.=129.834106m. Speed=0.000000m/h.</desc>
<speed>0.000000</speed>
</trkpt>
<trkpt lat="55.992847" lon="26.691469">
<ele>129.834106</ele>
<time>2010-06-20T13:09:59Z</time>
<desc>lat.=55.992847, lon.=26.691469, Alt.=129.834106m. Speed=0.000000m/h.</desc>
<speed>0.000000</speed>
</trkpt>
<trkpt lat="55.992847" lon="26.691469">
<ele>129.838013</ele>
<time>2010-06-20T13:10:00Z</time>
<desc>lat.=55.992847, lon.=26.691469, Alt.=129.838013m. Speed=0.000000m/h.</desc>
<speed>0.000000</speed>
</trkpt>
<trkpt lat="55.992847" lon="26.691469">
<ele>129.838013</ele>
<time>2010-06-20T13:10:01Z</time>
<desc>lat.=55.992847, lon.=26.691469, Alt.=129.838013m. Speed=0.000000m/h.</desc>
<speed>0.000000</speed>
</trkpt>
<trkpt lat="55.992847" lon="26.691469">
<ele>129.838013</ele>
<time>2010-06-20T13:10:02Z</time>
<desc>lat.=55.992847, lon.=26.691469, Alt.=129.838013m. Speed=0.036000m/h.</desc>
<speed>0.010000</speed>
</trkpt>
<trkpt lat="55.992847" lon="26.691469">
<ele>129.834106</ele>
<time>2010-06-20T13:10:03Z</time>
<desc>lat.=55.992847, lon.=26.691469, Alt.=129.834106m. Speed=0.000000m/h.</desc>
<speed>0.000000</speed>
</trkpt>
<trkpt lat="55.992847" lon="26.691469">
<ele>129.834106</ele>
<time>2010-06-20T13:10:04Z</time>
<desc>lat.=55.992847, lon.=26.691469, Alt.=129.834106m. Speed=0.000000m/h.</desc>
<speed>0.000000</speed>
</trkpt>
<trkpt lat="55.992847" lon="26.691469">
<ele>129.834106</ele>
<time>2010-06-20T13:10:05Z</time>
<desc>lat.=55.992847, lon.=26.691469, Alt.=129.834106m. Speed=0.000000m/h.</desc>
<speed>0.000000</speed>
</trkpt>
<trkpt lat="55.992847" lon="26.691469">
<ele>129.834106</ele>
<time>2010-06-20T13:10:06Z</time>
<desc>lat.=55.992847, lon.=26.691469, Alt.=129.834106m. Speed=0.000000m/h.</desc>
<speed>0.000000</speed>
</trkpt>
<trkpt lat="55.992844" lon="26.691469">
<ele>129.834106</ele>
<time>2010-06-20T13:10:07Z</time>
<desc>lat.=55.992844, lon.=26.691469, Alt.=129.834106m. Speed=0.000000m/h.</desc>
<speed>0.000000</speed>
</trkpt>
<trkpt lat="55.992844" lon="26.691469">
<ele>129.834106</ele>
<time>2010-06-20T13:10:08Z</time>
<desc>lat.=55.992844, lon.=26.691469, Alt.=129.834106m. Speed=0.000000m/h.</desc>
<speed>0.000000</speed>
</trkpt>
<trkpt lat="55.992844" lon="26.691469">
<ele>129.834106</ele>
<time>2010-06-20T13:10:09Z</time>
<desc>lat.=55.992844, lon.=26.691469, Alt.=129.834106m. Speed=0.000000m/h.</desc>
<speed>0.000000</speed>
</trkpt>
<trkpt lat="55.992844" lon="26.691469">
<ele>129.834106</ele>
<time>2010-06-20T13:10:10Z</time>
<desc>lat.=55.992844, lon.=26.691469, Alt.=129.834106m. Speed=0.000000m/h.</desc>
<speed>0.000000</speed>
</trkpt>
<trkpt lat="55.992844" lon="26.691469">
<ele>129.834106</ele>
<time>2010-06-20T13:10:11Z</time>
<desc>lat.=55.992844, lon.=26.691469, Alt.=129.834106m. Speed=0.036000m/h.</desc>
<speed>0.010000</speed>
</trkpt>
<trkpt lat="55.992844" lon="26.691469">
<ele>129.834106</ele>
<time>2010-06-20T13:10:12Z</time>
<desc>lat.=55.992844, lon.=26.691469, Alt.=129.834106m. Speed=0.000000m/h.</desc>
<speed>0.000000</speed>
</trkpt>
<trkpt lat="55.992844" lon="26.691469">
<ele>129.834106</ele>
<time>2010-06-20T13:10:13Z</time>
<desc>lat.=55.992844, lon.=26.691469, Alt.=129.834106m. Speed=0.000000m/h.</desc>
<speed>0.000000</speed>
</trkpt>
<trkpt lat="55.992844" lon="26.691469">
<ele>129.838013</ele>
<time>2010-06-20T13:10:14Z</time>
<desc>lat.=55.992844, lon.=26.691469, Alt.=129.838013m. Speed=0.000000m/h.</desc>
<speed>0.000000</speed>
</trkpt>
<trkpt lat="55.992844" lon="26.691469">
<ele>129.838013</ele>
<time>2010-06-20T13:10:15Z</time>
<desc>lat.=55.992844, lon.=26.691469, Alt.=129.838013m. Speed=0.000000m/h.</desc>
<speed>0.000000</speed>
</trkpt>
<trkpt lat="55.992844" lon="26.691469">
<ele>129.838013</ele>
<time>2010-06-20T13:10:16Z</time>
<desc>lat.=55.992844, lon.=26.691469, Alt.=129.838013m. Speed=0.000000m/h.</desc>
<speed>0.000000</speed>
</trkpt>
<trkpt lat="55.992844" lon="26.691469">
<ele>129.841919</ele>
<time>2010-06-20T13:10:17Z</time>
<desc>lat.=55.992844, lon.=26.691469, Alt.=129.841919m. Speed=0.000000m/h.</desc>
<speed>0.000000</speed>
</trkpt>
<trkpt lat="55.992844" lon="26.691469">
<ele>129.841919</ele>
<time>2010-06-20T13:10:18Z</time>
<desc>lat.=55.992844, lon.=26.691469, Alt.=129.841919m. Speed=0.000000m/h.</desc>
<speed>0.000000</speed>
</trkpt>
<trkpt lat="55.992844" lon="26.691469">
<ele>129.845825</ele>
<time>2010-06-20T13:10:19Z</time>
<desc>lat.=55.992844, lon.=26.691469, Alt.=129.845825m. Speed=0.000000m/h.</desc>
<speed>0.000000</speed>
</trkpt>
<trkpt lat="55.992844" lon="26.691469">
<ele>129.845825</ele>
<time>2010-06-20T13:10:20Z</time>
<desc>lat.=55.992844, lon.=26.691469, Alt.=129.845825m. Speed=0.000000m/h.</desc>
<speed>0.000000</speed>
</trkpt>
<trkpt lat="55.992844" lon="26.691469">
<ele>129.845825</ele>
<time>2010-06-20T13:10:21Z</time>
<desc>lat.=55.992844, lon.=26.691469, Alt.=129.845825m. Speed=0.000000m/h.</desc>
<speed>0.000000</speed>
</trkpt>
<trkpt lat="55.992844" lon="26.691467">
<ele>129.845825</ele>
<time>2010-06-20T13:10:22Z</time>
<desc>lat.=55.992844, lon.=26.691467, Alt.=129.845825m. Speed=0.000000m/h.</desc>
<speed>0.000000</speed>
</trkpt>
<trkpt lat="55.992844" lon="26.691467">
<ele>129.849731</ele>
<time>2010-06-20T13:10:23Z</time>
<desc>lat.=55.992844, lon.=26.691467, Alt.=129.849731m. Speed=0.000000m/h.</desc>
<speed>0.000000</speed>
</trkpt>
<trkpt lat="55.992844" lon="26.691467">
<ele>129.849731</ele>
<time>2010-06-20T13:10:24Z</time>
<desc>lat.=55.992844, lon.=26.691467, Alt.=129.849731m. Speed=0.036000m/h.</desc>
<speed>0.010000</speed>
</trkpt>
<trkpt lat="55.992844" lon="26.691467">
<ele>129.849731</ele>
<time>2010-06-20T13:10:25Z</time>
<desc>lat.=55.992844, lon.=26.691467, Alt.=129.849731m. Speed=0.000000m/h.</desc>
<speed>0.000000</speed>
</trkpt>
<trkpt lat="55.992844" lon="26.691467">
<ele>129.849731</ele>
<time>2010-06-20T13:10:26Z</time>
<desc>lat.=55.992844, lon.=26.691467, Alt.=129.849731m. Speed=0.000000m/h.</desc>
<speed>0.000000</speed>
</trkpt>
<trkpt lat="55.992844" lon="26.691467">
<ele>129.849731</ele>
<time>2010-06-20T13:10:27Z</time>
<desc>lat.=55.992844, lon.=26.691467, Alt.=129.849731m. Speed=0.000000m/h.</desc>
<speed>0.000000</speed>
</trkpt>
<trkpt lat="55.992844" lon="26.691467">
<ele>129.853638</ele>
<time>2010-06-20T13:10:28Z</time>
<desc>lat.=55.992844, lon.=26.691467, Alt.=129.853638m. Speed=0.000000m/h.</desc>
<speed>0.000000</speed>
</trkpt>
<trkpt lat="55.992844" lon="26.691467">
<ele>129.853638</ele>
<time>2010-06-20T13:10:29Z</time>
<desc>lat.=55.992844, lon.=26.691467, Alt.=129.853638m. Speed=0.000000m/h.</desc>
<speed>0.000000</speed>
</trkpt>
<trkpt lat="55.992844" lon="26.691467">
<ele>129.857544</ele>
<time>2010-06-20T13:10:30Z</time>
<desc>lat.=55.992844, lon.=26.691467, Alt.=129.857544m. Speed=0.000000m/h.</desc>
<speed>0.000000</speed>
</trkpt>
<trkpt lat="55.992844" lon="26.691467">
<ele>129.861450</ele>
<time>2010-06-20T13:10:31Z</time>
<desc>lat.=55.992844, lon.=26.691467, Alt.=129.861450m. Speed=0.000000m/h.</desc>
<speed>0.000000</speed>
</trkpt>
<trkpt lat="55.992844" lon="26.691467">
<ele>129.861450</ele>
<time>2010-06-20T13:10:32Z</time>
<desc>lat.=55.992844, lon.=26.691467, Alt.=129.861450m. Speed=0.000000m/h.</desc>
<speed>0.000000</speed>
</trkpt>
<trkpt lat="55.992844" lon="26.691467">
<ele>129.865356</ele>
<time>2010-06-20T13:10:33Z</time>
<desc>lat.=55.992844, lon.=26.691467, Alt.=129.865356m. Speed=0.000000m/h.</desc>
<speed>0.000000</speed>
</trkpt>
<trkpt lat="55.992844" lon="26.691467">
<ele>129.869263</ele>
<time>2010-06-20T13:10:34Z</time>
<desc>lat.=55.992844, lon.=26.691467, Alt.=129.869263m. Speed=0.000000m/h.</desc>
<speed>0.000000</speed>
</trkpt>
<trkpt lat="55.992844" lon="26.691467">
<ele>129.869263</ele>
<time>2010-06-20T13:10:35Z</time>
<desc>lat.=55.992844, lon.=26.691467, Alt.=129.869263m. Speed=0.000000m/h.</desc>
<speed>0.000000</speed>
</trkpt>
<trkpt lat="55.992844" lon="26.691467">
<ele>129.873169</ele>
<time>2010-06-20T13:10:36Z</time>
<desc>lat.=55.992844, lon.=26.691467, Alt.=129.873169m. Speed=0.000000m/h.</desc>
<speed>0.000000</speed>
</trkpt>
<trkpt lat="55.992844" lon="26.691467">
<ele>129.873169</ele>
<time>2010-06-20T13:10:37Z</time>
<desc>lat.=55.992844, lon.=26.691467, Alt.=129.873169m. Speed=0.000000m/h.</desc>
<speed>0.000000</speed>
</trkpt>
<trkpt lat="55.992844" lon="26.691467">
<ele>129.877075</ele>
<time>2010-06-20T13:10:38Z</time>
<desc>lat.=55.992844, lon.=26.691467, Alt.=129.877075m. Speed=0.000000m/h.</desc>
<speed>0.000000</speed>
</trkpt>
<trkpt lat="55.992844" lon="26.691467">
<ele>129.877075</ele>
<time>2010-06-20T13:10:39Z</time>
<desc>lat.=55.992844, lon.=26.691467, Alt.=129.877075m. Speed=0.000000m/h.</desc>
<speed>0.000000</speed>
</trkpt>
<trkpt lat="55.992844" lon="26.691467">
<ele>129.880981</ele>
<time>2010-06-20T13:10:40Z</time>
<desc>lat.=55.992844, lon.=26.691467, Alt.=129.880981m. Speed=0.000000m/h.</desc>
<speed>0.000000</speed>
</trkpt>
<trkpt lat="55.992844" lon="26.691467">
<ele>129.880981</ele>
<time>2010-06-20T13:10:41Z</time>
<desc>lat.=55.992844, lon.=26.691467, Alt.=129.880981m. Speed=0.000000m/h.</desc>
<speed>0.000000</speed>
</trkpt>
<trkpt lat="55.992844" lon="26.691467">
<ele>129.880981</ele>
<time>2010-06-20T13:10:42Z</time>
<desc>lat.=55.992844, lon.=26.691467, Alt.=129.880981m. Speed=0.000000m/h.</desc>
<speed>0.000000</speed>
</trkpt>
<trkpt lat="55.992844" lon="26.691467">
<ele>129.877075</ele>
<time>2010-06-20T13:10:43Z</time>
<desc>lat.=55.992844, lon.=26.691467, Alt.=129.877075m. Speed=0.000000m/h.</desc>
<speed>0.000000</speed>
</trkpt>
<trkpt lat="55.992844" lon="26.691467">
<ele>129.877075</ele>
<time>2010-06-20T13:10:44Z</time>
<desc>lat.=55.992844, lon.=26.691467, Alt.=129.877075m. Speed=0.036000m/h.</desc>
<speed>0.010000</speed>
</trkpt>
<trkpt lat="55.992844" lon="26.691467">
<ele>129.877075</ele>
<time>2010-06-20T13:10:45Z</time>
<desc>lat.=55.992844, lon.=26.691467, Alt.=129.877075m. Speed=0.252000m/h.</desc>
<speed>0.070000</speed>
</trkpt>
<trkpt lat="55.992844" lon="26.691467">
<ele>129.877075</ele>
<time>2010-06-20T13:10:46Z</time>
<desc>lat.=55.992844, lon.=26.691467, Alt.=129.877075m. Speed=0.684000m/h.</desc>
<speed>0.190000</speed>
</trkpt>
<trkpt lat="55.992847" lon="26.691471">
<ele>129.791138</ele>
<time>2010-06-20T13:10:47Z</time>
<desc>lat.=55.992847, lon.=26.691471, Alt.=129.791138m. Speed=1.476000m/h.</desc>
<speed>0.410000</speed>
</trkpt>
<trkpt lat="55.992847" lon="26.691477">
<ele>129.685669</ele>
<time>2010-06-20T13:10:48Z</time>
<desc>lat.=55.992847, lon.=26.691477, Alt.=129.685669m. Speed=1.188000m/h.</desc>
<speed>0.330000</speed>
</trkpt>
<trkpt lat="55.992847" lon="26.691477">
<ele>129.814575</ele>
<time>2010-06-20T13:10:49Z</time>
<desc>lat.=55.992847, lon.=26.691477, Alt.=129.814575m. Speed=1.116000m/h.</desc>
<speed>0.310000</speed>
</trkpt>
<trkpt lat="55.992851" lon="26.691473">
<ele>130.115356</ele>
<time>2010-06-20T13:10:50Z</time>
<desc>lat.=55.992851, lon.=26.691473, Alt.=130.115356m. Speed=2.736000m/h.</desc>
<speed>0.760000</speed>
</trkpt>
<trkpt lat="55.992851" lon="26.691467">
<ele>130.408325</ele>
<time>2010-06-20T13:10:51Z</time>
<desc>lat.=55.992851, lon.=26.691467, Alt.=130.408325m. Speed=1.224000m/h.</desc>
<speed>0.340000</speed>
</trkpt>
<trkpt lat="55.992851" lon="26.691462">
<ele>130.630981</ele>
<time>2010-06-20T13:10:52Z</time>
<desc>lat.=55.992851, lon.=26.691462, Alt.=130.630981m. Speed=0.432000m/h.</desc>
<speed>0.120000</speed>
</trkpt>
<trkpt lat="55.992855" lon="26.691458">
<ele>130.763794</ele>
<time>2010-06-20T13:10:53Z</time>
<desc>lat.=55.992855, lon.=26.691458, Alt.=130.763794m. Speed=2.664000m/h.</desc>
<speed>0.740000</speed>
</trkpt>
<trkpt lat="55.992867" lon="26.691452">
<ele>130.884888</ele>
<time>2010-06-20T13:10:54Z</time>
<desc>lat.=55.992867, lon.=26.691452, Alt.=130.884888m. Speed=3.456000m/h.</desc>
<speed>0.960000</speed>
</trkpt>
<trkpt lat="55.992874" lon="26.691448">
<ele>130.795044</ele>
<time>2010-06-20T13:10:55Z</time>
<desc>lat.=55.992874, lon.=26.691448, Alt.=130.795044m. Speed=3.852000m/h.</desc>
<speed>1.070000</speed>
</trkpt>
<trkpt lat="55.992878" lon="26.691441">
<ele>130.755981</ele>
<time>2010-06-20T13:10:56Z</time>
<desc>lat.=55.992878, lon.=26.691441, Alt.=130.755981m. Speed=2.592000m/h.</desc>
<speed>0.720000</speed>
</trkpt>
<trkpt lat="55.992886" lon="26.691433">
<ele>130.744263</ele>
<time>2010-06-20T13:10:57Z</time>
<desc>lat.=55.992886, lon.=26.691433, Alt.=130.744263m. Speed=2.808000m/h.</desc>
<speed>0.780000</speed>
</trkpt>
<trkpt lat="55.992886" lon="26.691425">
<ele>130.771606</ele>
<time>2010-06-20T13:10:58Z</time>
<desc>lat.=55.992886, lon.=26.691425, Alt.=130.771606m. Speed=2.628000m/h.</desc>
<speed>0.730000</speed>
</trkpt>
<trkpt lat="55.992886" lon="26.691412">
<ele>130.564575</ele>
<time>2010-06-20T13:10:59Z</time>
<desc>lat.=55.992886, lon.=26.691412, Alt.=130.564575m. Speed=2.556000m/h.</desc>
<speed>0.710000</speed>
</trkpt>
<trkpt lat="55.992886" lon="26.691399">
<ele>130.431763</ele>
<time>2010-06-20T13:11:00Z</time>
<desc>lat.=55.992886, lon.=26.691399, Alt.=130.431763m. Speed=1.980000m/h.</desc>
<speed>0.550000</speed>
</trkpt>
<trkpt lat="55.992886" lon="26.691397">
<ele>130.326294</ele>
<time>2010-06-20T13:11:01Z</time>
<desc>lat.=55.992886, lon.=26.691397, Alt.=130.326294m. Speed=0.180000m/h.</desc>
<speed>0.050000</speed>
</trkpt>
<trkpt lat="55.992889" lon="26.691395">
<ele>130.310669</ele>
<time>2010-06-20T13:11:02Z</time>
<desc>lat.=55.992889, lon.=26.691395, Alt.=130.310669m. Speed=0.684000m/h.</desc>
<speed>0.190000</speed>
</trkpt>
<trkpt lat="55.992889" lon="26.691395">
<ele>130.295044</ele>
<time>2010-06-20T13:11:03Z</time>
<desc>lat.=55.992889, lon.=26.691395, Alt.=130.295044m. Speed=0.324000m/h.</desc>
<speed>0.090000</speed>
</trkpt>
<trkpt lat="55.992893" lon="26.691395">
<ele>130.302856</ele>
<time>2010-06-20T13:11:04Z</time>
<desc>lat.=55.992893, lon.=26.691395, Alt.=130.302856m. Speed=0.360000m/h.</desc>
<speed>0.100000</speed>
</trkpt>
<trkpt lat="55.992893" lon="26.691395">
<ele>130.298950</ele>
<time>2010-06-20T13:11:05Z</time>
<desc>lat.=55.992893, lon.=26.691395, Alt.=130.298950m. Speed=0.216000m/h.</desc>
<speed>0.060000</speed>
</trkpt>
<trkpt lat="55.992893" lon="26.691395">
<ele>130.298950</ele>
<time>2010-06-20T13:11:06Z</time>
<desc>lat.=55.992893, lon.=26.691395, Alt.=130.298950m. Speed=0.036000m/h.</desc>
<speed>0.010000</speed>
</trkpt>
<trkpt lat="55.992893" lon="26.691395">
<ele>130.298950</ele>
<time>2010-06-20T13:11:07Z</time>
<desc>lat.=55.992893, lon.=26.691395, Alt.=130.298950m. Speed=0.036000m/h.</desc>
<speed>0.010000</speed>
</trkpt>
<trkpt lat="55.992893" lon="26.691395">
<ele>130.295044</ele>
<time>2010-06-20T13:11:08Z</time>
<desc>lat.=55.992893, lon.=26.691395, Alt.=130.295044m. Speed=0.000000m/h.</desc>
<speed>0.000000</speed>
</trkpt>
<trkpt lat="55.992893" lon="26.691395">
<ele>130.287231</ele>
<time>2010-06-20T13:11:09Z</time>
<desc>lat.=55.992893, lon.=26.691395, Alt.=130.287231m. Speed=0.036000m/h.</desc>
<speed>0.010000</speed>
</trkpt>
<trkpt lat="55.992893" lon="26.691395">
<ele>130.302856</ele>
<time>2010-06-20T13:11:10Z</time>
<desc>lat.=55.992893, lon.=26.691395, Alt.=130.302856m. Speed=0.000000m/h.</desc>
<speed>0.000000</speed>
</trkpt>
<trkpt lat="55.992893" lon="26.691395">
<ele>130.306763</ele>
<time>2010-06-20T13:11:11Z</time>
<desc>lat.=55.992893, lon.=26.691395, Alt.=130.306763m. Speed=0.000000m/h.</desc>
<speed>0.000000</speed>
</trkpt>
<trkpt lat="55.992893" lon="26.691395">
<ele>130.318481</ele>
<time>2010-06-20T13:11:12Z</time>
<desc>lat.=55.992893, lon.=26.691395, Alt.=130.318481m. Speed=0.000000m/h.</desc>
<speed>0.000000</speed>
</trkpt>
<trkpt lat="55.992893" lon="26.691395">
<ele>130.318481</ele>
<time>2010-06-20T13:11:13Z</time>
<desc>lat.=55.992893, lon.=26.691395, Alt.=130.318481m. Speed=0.144000m/h.</desc>
<speed>0.040000</speed>
</trkpt>
<trkpt lat="55.992893" lon="26.691395">
<ele>130.326294</ele>
<time>2010-06-20T13:11:14Z</time>
<desc>lat.=55.992893, lon.=26.691395, Alt.=130.326294m. Speed=0.540000m/h.</desc>
<speed>0.150000</speed>
</trkpt>
<trkpt lat="55.992893" lon="26.691395">
<ele>130.220825</ele>
<time>2010-06-20T13:11:15Z</time>
<desc>lat.=55.992893, lon.=26.691395, Alt.=130.220825m. Speed=0.396000m/h.</desc>
<speed>0.110000</speed>
</trkpt>
<trkpt lat="55.992893" lon="26.691393">
<ele>130.103638</ele>
<time>2010-06-20T13:11:16Z</time>
<desc>lat.=55.992893, lon.=26.691393, Alt.=130.103638m. Speed=0.396000m/h.</desc>
<speed>0.110000</speed>
</trkpt>
<trkpt lat="55.992897" lon="26.691391">
<ele>129.986450</ele>
<time>2010-06-20T13:11:17Z</time>
<desc>lat.=55.992897, lon.=26.691391, Alt.=129.986450m. Speed=0.324000m/h.</desc>
<speed>0.090000</speed>
</trkpt>
<trkpt lat="55.992897" lon="26.691391">
<ele>129.896606</ele>
<time>2010-06-20T13:11:18Z</time>
<desc>lat.=55.992897, lon.=26.691391, Alt.=129.896606m. Speed=0.108000m/h.</desc>
<speed>0.030000</speed>
</trkpt>
<trkpt lat="55.992897" lon="26.691391">
<ele>129.900513</ele>
<time>2010-06-20T13:11:19Z</time>
<desc>lat.=55.992897, lon.=26.691391, Alt.=129.900513m. Speed=0.252000m/h.</desc>
<speed>0.070000</speed>
</trkpt>
<trkpt lat="55.992897" lon="26.691391">
<ele>129.904419</ele>
<time>2010-06-20T13:11:20Z</time>
<desc>lat.=55.992897, lon.=26.691391, Alt.=129.904419m. Speed=0.036000m/h.</desc>
<speed>0.010000</speed>
</trkpt>
<trkpt lat="55.992897" lon="26.691391">
<ele>129.869263</ele>
<time>2010-06-20T13:11:21Z</time>
<desc>lat.=55.992897, lon.=26.691391, Alt.=129.869263m. Speed=0.072000m/h.</desc>
<speed>0.020000</speed>
</trkpt>
<trkpt lat="55.992897" lon="26.691391">
<ele>129.869263</ele>
<time>2010-06-20T13:11:22Z</time>
<desc>lat.=55.992897, lon.=26.691391, Alt.=129.869263m. Speed=0.540000m/h.</desc>
<speed>0.150000</speed>
</trkpt>
<trkpt lat="55.992897" lon="26.691391">
<ele>129.869263</ele>
<time>2010-06-20T13:11:23Z</time>
<desc>lat.=55.992897, lon.=26.691391, Alt.=129.869263m. Speed=0.720000m/h.</desc>
<speed>0.200000</speed>
</trkpt>
<trkpt lat="55.992897" lon="26.691389">
<ele>129.877075</ele>
<time>2010-06-20T13:11:24Z</time>
<desc>lat.=55.992897, lon.=26.691389, Alt.=129.877075m. Speed=0.108000m/h.</desc>
<speed>0.030000</speed>
</trkpt>
<trkpt lat="55.992897" lon="26.691389">
<ele>129.869263</ele>
<time>2010-06-20T13:11:25Z</time>
<desc>lat.=55.992897, lon.=26.691389, Alt.=129.869263m. Speed=0.000000m/h.</desc>
<speed>0.000000</speed>
</trkpt>
<trkpt lat="55.992897" lon="26.691389">
<ele>129.873169</ele>
<time>2010-06-20T13:11:26Z</time>
<desc>lat.=55.992897, lon.=26.691389, Alt.=129.873169m. Speed=0.000000m/h.</desc>
<speed>0.000000</speed>
</trkpt>
<trkpt lat="55.992897" lon="26.691389">
<ele>129.873169</ele>
<time>2010-06-20T13:11:27Z</time>
<desc>lat.=55.992897, lon.=26.691389, Alt.=129.873169m. Speed=0.036000m/h.</desc>
<speed>0.010000</speed>
</trkpt>
<trkpt lat="55.992897" lon="26.691389">
<ele>129.877075</ele>
<time>2010-06-20T13:11:28Z</time>
<desc>lat.=55.992897, lon.=26.691389, Alt.=129.877075m. Speed=0.108000m/h.</desc>
<speed>0.030000</speed>
</trkpt>
<trkpt lat="55.992897" lon="26.691389">
<ele>129.877075</ele>
<time>2010-06-20T13:11:29Z</time>
<desc>lat.=55.992897, lon.=26.691389, Alt.=129.877075m. Speed=0.576000m/h.</desc>
<speed>0.160000</speed>
</trkpt>
<trkpt lat="55.992897" lon="26.691389">
<ele>129.880981</ele>
<time>2010-06-20T13:11:30Z</time>
<desc>lat.=55.992897, lon.=26.691389, Alt.=129.880981m. Speed=0.324000m/h.</desc>
<speed>0.090000</speed>
</trkpt>
<trkpt lat="55.992897" lon="26.691387">
<ele>129.931763</ele>
<time>2010-06-20T13:11:31Z</time>
<desc>lat.=55.992897, lon.=26.691387, Alt.=129.931763m. Speed=0.036000m/h.</desc>
<speed>0.010000</speed>
</trkpt>
<trkpt lat="55.992897" lon="26.691387">
<ele>129.966919</ele>
<time>2010-06-20T13:11:32Z</time>
<desc>lat.=55.992897, lon.=26.691387, Alt.=129.966919m. Speed=0.036000m/h.</desc>
<speed>0.010000</speed>
</trkpt>
<trkpt lat="55.992897" lon="26.691387">
<ele>129.966919</ele>
<time>2010-06-20T13:11:33Z</time>
<desc>lat.=55.992897, lon.=26.691387, Alt.=129.966919m. Speed=0.036000m/h.</desc>
<speed>0.010000</speed>
</trkpt>
<trkpt lat="55.992897" lon="26.691387">
<ele>129.966919</ele>
<time>2010-06-20T13:11:34Z</time>
<desc>lat.=55.992897, lon.=26.691387, Alt.=129.966919m. Speed=0.000000m/h.</desc>
<speed>0.000000</speed>
</trkpt>
<trkpt lat="55.992897" lon="26.691387">
<ele>129.966919</ele>
<time>2010-06-20T13:11:35Z</time>
<desc>lat.=55.992897, lon.=26.691387, Alt.=129.966919m. Speed=0.036000m/h.</desc>
<speed>0.010000</speed>
</trkpt>
<trkpt lat="55.992897" lon="26.691387">
<ele>129.966919</ele>
<time>2010-06-20T13:11:36Z</time>
<desc>lat.=55.992897, lon.=26.691387, Alt.=129.966919m. Speed=0.000000m/h.</desc>
<speed>0.000000</speed>
</trkpt>
<trkpt lat="55.992897" lon="26.691387">
<ele>129.966919</ele>
<time>2010-06-20T13:11:37Z</time>
<desc>lat.=55.992897, lon.=26.691387, Alt.=129.966919m. Speed=0.000000m/h.</desc>
<speed>0.000000</speed>
</trkpt>
<trkpt lat="55.992897" lon="26.691387">
<ele>129.963013</ele>
<time>2010-06-20T13:11:38Z</time>
<desc>lat.=55.992897, lon.=26.691387, Alt.=129.963013m. Speed=0.000000m/h.</desc>
<speed>0.000000</speed>
</trkpt>
<trkpt lat="55.992897" lon="26.691387">
<ele>129.963013</ele>
<time>2010-06-20T13:11:39Z</time>
<desc>lat.=55.992897, lon.=26.691387, Alt.=129.963013m. Speed=0.036000m/h.</desc>
<speed>0.010000</speed>
</trkpt>
<trkpt lat="55.992897" lon="26.691387">
<ele>129.959106</ele>
<time>2010-06-20T13:11:40Z</time>
<desc>lat.=55.992897, lon.=26.691387, Alt.=129.959106m. Speed=0.000000m/h.</desc>
<speed>0.000000</speed>
</trkpt>
<trkpt lat="55.992897" lon="26.691387">
<ele>129.955200</ele>
<time>2010-06-20T13:11:41Z</time>
<desc>lat.=55.992897, lon.=26.691387, Alt.=129.955200m. Speed=0.072000m/h.</desc>
<speed>0.020000</speed>
</trkpt>
<trkpt lat="55.992897" lon="26.691387">
<ele>129.955200</ele>
<time>2010-06-20T13:11:42Z</time>
<desc>lat.=55.992897, lon.=26.691387, Alt.=129.955200m. Speed=0.936000m/h.</desc>
<speed>0.260000</speed>
</trkpt>
<trkpt lat="55.992897" lon="26.691387">
<ele>129.951294</ele>
<time>2010-06-20T13:11:43Z</time>
<desc>lat.=55.992897, lon.=26.691387, Alt.=129.951294m. Speed=2.664000m/h.</desc>
<speed>0.740000</speed>
</trkpt>
<trkpt lat="55.992901" lon="26.691401">
<ele>129.900513</ele>
<time>2010-06-20T13:11:44Z</time>
<desc>lat.=55.992901, lon.=26.691401, Alt.=129.900513m. Speed=2.232000m/h.</desc>
<speed>0.620000</speed>
</trkpt>
<trkpt lat="55.992905" lon="26.691410">
<ele>129.795044</ele>
<time>2010-06-20T13:11:45Z</time>
<desc>lat.=55.992905, lon.=26.691410, Alt.=129.795044m. Speed=2.232000m/h.</desc>
<speed>0.620000</speed>
</trkpt>
<trkpt lat="55.992908" lon="26.691418">
<ele>129.978638</ele>
<time>2010-06-20T13:11:46Z</time>
<desc>lat.=55.992908, lon.=26.691418, Alt.=129.978638m. Speed=2.340000m/h.</desc>
<speed>0.650000</speed>
</trkpt>
<trkpt lat="55.992912" lon="26.691427">
<ele>130.146606</ele>
<time>2010-06-20T13:11:47Z</time>
<desc>lat.=55.992912, lon.=26.691427, Alt.=130.146606m. Speed=3.384000m/h.</desc>
<speed>0.940000</speed>
</trkpt>
<trkpt lat="55.992920" lon="26.691437">
<ele>130.361450</ele>
<time>2010-06-20T13:11:48Z</time>
<desc>lat.=55.992920, lon.=26.691437, Alt.=130.361450m. Speed=2.232000m/h.</desc>
<speed>0.620000</speed>
</trkpt>
<trkpt lat="55.992920" lon="26.691441">
<ele>130.377075</ele>
<time>2010-06-20T13:11:49Z</time>
<desc>lat.=55.992920, lon.=26.691441, Alt.=130.377075m. Speed=1.368000m/h.</desc>
<speed>0.380000</speed>
</trkpt>
<trkpt lat="55.992912" lon="26.691441">
<ele>130.404419</ele>
<time>2010-06-20T13:11:50Z</time>
<desc>lat.=55.992912, lon.=26.691441, Alt.=130.404419m. Speed=1.440000m/h.</desc>
<speed>0.400000</speed>
</trkpt>
<trkpt lat="55.992912" lon="26.691441">
<ele>130.455200</ele>
<time>2010-06-20T13:11:51Z</time>
<desc>lat.=55.992912, lon.=26.691441, Alt.=130.455200m. Speed=1.152000m/h.</desc>
<speed>0.320000</speed>
</trkpt>
<trkpt lat="55.992916" lon="26.691433">
<ele>130.486450</ele>
<time>2010-06-20T13:11:52Z</time>
<desc>lat.=55.992916, lon.=26.691433, Alt.=130.486450m. Speed=0.360000m/h.</desc>
<speed>0.100000</speed>
</trkpt>
<trkpt lat="55.992916" lon="26.691427">
<ele>130.525513</ele>
<time>2010-06-20T13:11:53Z</time>
<desc>lat.=55.992916, lon.=26.691427, Alt.=130.525513m. Speed=0.432000m/h.</desc>
<speed>0.120000</speed>
</trkpt>
<trkpt lat="55.992916" lon="26.691423">
<ele>130.533325</ele>
<time>2010-06-20T13:11:54Z</time>
<desc>lat.=55.992916, lon.=26.691423, Alt.=130.533325m. Speed=0.396000m/h.</desc>
<speed>0.110000</speed>
</trkpt>
<trkpt lat="55.992920" lon="26.691422">
<ele>130.541138</ele>
<time>2010-06-20T13:11:55Z</time>
<desc>lat.=55.992920, lon.=26.691422, Alt.=130.541138m. Speed=0.180000m/h.</desc>
<speed>0.050000</speed>
</trkpt>
<trkpt lat="55.992920" lon="26.691422">
<ele>130.552856</ele>
<time>2010-06-20T13:11:56Z</time>
<desc>lat.=55.992920, lon.=26.691422, Alt.=130.552856m. Speed=0.108000m/h.</desc>
<speed>0.030000</speed>
</trkpt>
<trkpt lat="55.992920" lon="26.691422">
<ele>130.560669</ele>
<time>2010-06-20T13:11:57Z</time>
<desc>lat.=55.992920, lon.=26.691422, Alt.=130.560669m. Speed=0.036000m/h.</desc>
<speed>0.010000</speed>
</trkpt>
<trkpt lat="55.992920" lon="26.691422">
<ele>130.580200</ele>
<time>2010-06-20T13:11:58Z</time>
<desc>lat.=55.992920, lon.=26.691422, Alt.=130.580200m. Speed=0.576000m/h.</desc>
<speed>0.160000</speed>
</trkpt>
<trkpt lat="55.992920" lon="26.691420">
<ele>130.595825</ele>
<time>2010-06-20T13:11:59Z</time>
<desc>lat.=55.992920, lon.=26.691420, Alt.=130.595825m. Speed=1.044000m/h.</desc>
<speed>0.290000</speed>
</trkpt>
<trkpt lat="55.992916" lon="26.691422">
<ele>130.611450</ele>
<time>2010-06-20T13:12:00Z</time>
<desc>lat.=55.992916, lon.=26.691422, Alt.=130.611450m. Speed=0.324000m/h.</desc>
<speed>0.090000</speed>
</trkpt>
<trkpt lat="55.992916" lon="26.691423">
<ele>130.619263</ele>
<time>2010-06-20T13:12:01Z</time>
<desc>lat.=55.992916, lon.=26.691423, Alt.=130.619263m. Speed=0.324000m/h.</desc>
<speed>0.090000</speed>
</trkpt>
<trkpt lat="55.992920" lon="26.691423">
<ele>130.623169</ele>
<time>2010-06-20T13:12:02Z</time>
<desc>lat.=55.992920, lon.=26.691423, Alt.=130.623169m. Speed=0.360000m/h.</desc>
<speed>0.100000</speed>
</trkpt>
<trkpt lat="55.992920" lon="26.691425">
<ele>130.627075</ele>
<time>2010-06-20T13:12:03Z</time>
<desc>lat.=55.992920, lon.=26.691425, Alt.=130.627075m. Speed=0.360000m/h.</desc>
<speed>0.100000</speed>
</trkpt>
<trkpt lat="55.992920" lon="26.691427">
<ele>130.627075</ele>
<time>2010-06-20T13:12:04Z</time>
<desc>lat.=55.992920, lon.=26.691427, Alt.=130.627075m. Speed=0.792000m/h.</desc>
<speed>0.220000</speed>
</trkpt>
<trkpt lat="55.992920" lon="26.691431">
<ele>130.630981</ele>
<time>2010-06-20T13:12:05Z</time>
<desc>lat.=55.992920, lon.=26.691431, Alt.=130.630981m. Speed=2.124000m/h.</desc>
<speed>0.590000</speed>
</trkpt>
<trkpt lat="55.992916" lon="26.691444">
<ele>130.244263</ele>
<time>2010-06-20T13:12:06Z</time>
<desc>lat.=55.992916, lon.=26.691444, Alt.=130.244263m. Speed=1.800000m/h.</desc>
<speed>0.500000</speed>
</trkpt>
<trkpt lat="55.992912" lon="26.691454">
<ele>130.275513</ele>
<time>2010-06-20T13:12:07Z</time>
<desc>lat.=55.992912, lon.=26.691454, Alt.=130.275513m. Speed=1.116000m/h.</desc>
<speed>0.310000</speed>
</trkpt>
<trkpt lat="55.992912" lon="26.691463">
<ele>130.259888</ele>
<time>2010-06-20T13:12:08Z</time>
<desc>lat.=55.992912, lon.=26.691463, Alt.=130.259888m. Speed=1.044000m/h.</desc>
<speed>0.290000</speed>
</trkpt>
<trkpt lat="55.992912" lon="26.691469">
<ele>130.236450</ele>
<time>2010-06-20T13:12:09Z</time>
<desc>lat.=55.992912, lon.=26.691469, Alt.=130.236450m. Speed=1.008000m/h.</desc>
<speed>0.280000</speed>
</trkpt>
<trkpt lat="55.992916" lon="26.691473">
<ele>130.209106</ele>
<time>2010-06-20T13:12:10Z</time>
<desc>lat.=55.992916, lon.=26.691473, Alt.=130.209106m. Speed=0.720000m/h.</desc>
<speed>0.200000</speed>
</trkpt>
<trkpt lat="55.992916" lon="26.691484">
<ele>129.896606</ele>
<time>2010-06-20T13:12:11Z</time>
<desc>lat.=55.992916, lon.=26.691484, Alt.=129.896606m. Speed=1.008000m/h.</desc>
<speed>0.280000</speed>
</trkpt>
<trkpt lat="55.992912" lon="26.691488">
<ele>129.857544</ele>
<time>2010-06-20T13:12:12Z</time>
<desc>lat.=55.992912, lon.=26.691488, Alt.=129.857544m. Speed=1.116000m/h.</desc>
<speed>0.310000</speed>
</trkpt>
<trkpt lat="55.992905" lon="26.691509">
<ele>129.630981</ele>
<time>2010-06-20T13:12:13Z</time>
<desc>lat.=55.992905, lon.=26.691509, Alt.=129.630981m. Speed=2.592000m/h.</desc>
<speed>0.720000</speed>
</trkpt>
<trkpt lat="55.992905" lon="26.691526">
<ele>129.451294</ele>
<time>2010-06-20T13:12:14Z</time>
<desc>lat.=55.992905, lon.=26.691526, Alt.=129.451294m. Speed=2.952000m/h.</desc>
<speed>0.820000</speed>
</trkpt>
<trkpt lat="55.992901" lon="26.691542">
<ele>129.189575</ele>
<time>2010-06-20T13:12:15Z</time>
<desc>lat.=55.992901, lon.=26.691542, Alt.=129.189575m. Speed=1.908000m/h.</desc>
<speed>0.530000</speed>
</trkpt>
<trkpt lat="55.992901" lon="26.691549">
<ele>129.091919</ele>
<time>2010-06-20T13:12:16Z</time>
<desc>lat.=55.992901, lon.=26.691549, Alt.=129.091919m. Speed=1.872000m/h.</desc>
<speed>0.520000</speed>
</trkpt>
<trkpt lat="55.992901" lon="26.691563">
<ele>129.177856</ele>
<time>2010-06-20T13:12:17Z</time>
<desc>lat.=55.992901, lon.=26.691563, Alt.=129.177856m. Speed=2.664000m/h.</desc>
<speed>0.740000</speed>
</trkpt>
<trkpt lat="55.992893" lon="26.691576">
<ele>129.021606</ele>
<time>2010-06-20T13:12:18Z</time>
<desc>lat.=55.992893, lon.=26.691576, Alt.=129.021606m. Speed=3.384000m/h.</desc>
<speed>0.940000</speed>
</trkpt>
<trkpt lat="55.992889" lon="26.691591">
<ele>128.904419</ele>
<time>2010-06-20T13:12:19Z</time>
<desc>lat.=55.992889, lon.=26.691591, Alt.=128.904419m. Speed=3.492000m/h.</desc>
<speed>0.970000</speed>
</trkpt>
<trkpt lat="55.992886" lon="26.691595">
<ele>128.267700</ele>
<time>2010-06-20T13:12:20Z</time>
<desc>lat.=55.992886, lon.=26.691595, Alt.=128.267700m. Speed=4.428000m/h.</desc>
<speed>1.230000</speed>
</trkpt>
<trkpt lat="55.992878" lon="26.691618">
<ele>128.150513</ele>
<time>2010-06-20T13:12:21Z</time>
<desc>lat.=55.992878, lon.=26.691618, Alt.=128.150513m. Speed=5.364000m/h.</desc>
<speed>1.490000</speed>
</trkpt>
<trkpt lat="55.992874" lon="26.691639">
<ele>128.021606</ele>
<time>2010-06-20T13:12:22Z</time>
<desc>lat.=55.992874, lon.=26.691639, Alt.=128.021606m. Speed=5.220000m/h.</desc>
<speed>1.450000</speed>
</trkpt>
<trkpt lat="55.992867" lon="26.691662">
<ele>127.975647</ele>
<time>2010-06-20T13:12:23Z</time>
<desc>lat.=55.992867, lon.=26.691662, Alt.=127.975647m. Speed=5.724000m/h.</desc>
<speed>1.590000</speed>
</trkpt>
<trkpt lat="55.992859" lon="26.691685">
<ele>127.745178</ele>
<time>2010-06-20T13:12:24Z</time>
<desc>lat.=55.992859, lon.=26.691685, Alt.=127.745178m. Speed=6.336000m/h.</desc>
<speed>1.760000</speed>
</trkpt>
<trkpt lat="55.992851" lon="26.691708">
<ele>127.717834</ele>
<time>2010-06-20T13:12:25Z</time>
<desc>lat.=55.992851, lon.=26.691708, Alt.=127.717834m. Speed=6.084000m/h.</desc>
<speed>1.690000</speed>
</trkpt>
<trkpt lat="55.992847" lon="26.691732">
<ele>127.663147</ele>
<time>2010-06-20T13:12:26Z</time>
<desc>lat.=55.992847, lon.=26.691732, Alt.=127.663147m. Speed=5.976000m/h.</desc>
<speed>1.660000</speed>
</trkpt>
<trkpt lat="55.992836" lon="26.691759">
<ele>127.411194</ele>
<time>2010-06-20T13:12:27Z</time>
<desc>lat.=55.992836, lon.=26.691759, Alt.=127.411194m. Speed=6.696000m/h.</desc>
<speed>1.860000</speed>
</trkpt>
<trkpt lat="55.992832" lon="26.691801">
<ele>127.643616</ele>
<time>2010-06-20T13:12:28Z</time>
<desc>lat.=55.992832, lon.=26.691801, Alt.=127.643616m. Speed=7.200000m/h.</desc>
<speed>2.000000</speed>
</trkpt>
<trkpt lat="55.992821" lon="26.691837">
<ele>127.778381</ele>
<time>2010-06-20T13:12:29Z</time>
<desc>lat.=55.992821, lon.=26.691837, Alt.=127.778381m. Speed=7.164000m/h.</desc>
<speed>1.990000</speed>
</trkpt>
<trkpt lat="55.992809" lon="26.691872">
<ele>127.780334</ele>
<time>2010-06-20T13:12:30Z</time>
<desc>lat.=55.992809, lon.=26.691872, Alt.=127.780334m. Speed=7.488000m/h.</desc>
<speed>2.080000</speed>
</trkpt>
<trkpt lat="55.992798" lon="26.691896">
<ele>127.794006</ele>
<time>2010-06-20T13:12:31Z</time>
<desc>lat.=55.992798, lon.=26.691896, Alt.=127.794006m. Speed=7.884000m/h.</desc>
<speed>2.190000</speed>
</trkpt>
<trkpt lat="55.992790" lon="26.691927">
<ele>127.825256</ele>
<time>2010-06-20T13:12:32Z</time>
<desc>lat.=55.992790, lon.=26.691927, Alt.=127.825256m. Speed=7.920000m/h.</desc>
<speed>2.200000</speed>
</trkpt>
<trkpt lat="55.992783" lon="26.691961">
<ele>127.706116</ele>
<time>2010-06-20T13:12:33Z</time>
<desc>lat.=55.992783, lon.=26.691961, Alt.=127.706116m. Speed=7.776000m/h.</desc>
<speed>2.160000</speed>
</trkpt>
<trkpt lat="55.992775" lon="26.691994">
<ele>127.614319</ele>
<time>2010-06-20T13:12:34Z</time>
<desc>lat.=55.992775, lon.=26.691994, Alt.=127.614319m. Speed=8.604000m/h.</desc>
<speed>2.390000</speed>
</trkpt>
<trkpt lat="55.992767" lon="26.692026">
<ele>127.649475</ele>
<time>2010-06-20T13:12:35Z</time>
<desc>lat.=55.992767, lon.=26.692026, Alt.=127.649475m. Speed=8.748000m/h.</desc>
<speed>2.430000</speed>
</trkpt>
<trkpt lat="55.992756" lon="26.692060">
<ele>127.674866</ele>
<time>2010-06-20T13:12:36Z</time>
<desc>lat.=55.992756, lon.=26.692060, Alt.=127.674866m. Speed=9.684000m/h.</desc>
<speed>2.690000</speed>
</trkpt>
<trkpt lat="55.992744" lon="26.692095">
<ele>127.588928</ele>
<time>2010-06-20T13:12:37Z</time>
<desc>lat.=55.992744, lon.=26.692095, Alt.=127.588928m. Speed=9.792000m/h.</desc>
<speed>2.720000</speed>
</trkpt>
<trkpt lat="55.992733" lon="26.692133">
<ele>127.438538</ele>
<time>2010-06-20T13:12:38Z</time>
<desc>lat.=55.992733, lon.=26.692133, Alt.=127.438538m. Speed=9.360000m/h.</desc>
<speed>2.600000</speed>
</trkpt>
<trkpt lat="55.992718" lon="26.692165">
<ele>127.270569</ele>
<time>2010-06-20T13:12:39Z</time>
<desc>lat.=55.992718, lon.=26.692165, Alt.=127.270569m. Speed=8.892000m/h.</desc>
<speed>2.470000</speed>
</trkpt>
<trkpt lat="55.992706" lon="26.692194">
<ele>127.032288</ele>
<time>2010-06-20T13:12:40Z</time>
<desc>lat.=55.992706, lon.=26.692194, Alt.=127.032288m. Speed=8.424000m/h.</desc>
<speed>2.340000</speed>
</trkpt>
<trkpt lat="55.992695" lon="26.692226">
<ele>126.924866</ele>
<time>2010-06-20T13:12:41Z</time>
<desc>lat.=55.992695, lon.=26.692226, Alt.=126.924866m. Speed=7.812000m/h.</desc>
<speed>2.170000</speed>
</trkpt>
<trkpt lat="55.992683" lon="26.692259">
<ele>126.819397</ele>
<time>2010-06-20T13:12:42Z</time>
<desc>lat.=55.992683, lon.=26.692259, Alt.=126.819397m. Speed=7.344000m/h.</desc>
<speed>2.040000</speed>
</trkpt>
<trkpt lat="55.992676" lon="26.692293">
<ele>126.819397</ele>
<time>2010-06-20T13:12:43Z</time>
<desc>lat.=55.992676, lon.=26.692293, Alt.=126.819397m. Speed=6.912000m/h.</desc>
<speed>1.920000</speed>
</trkpt>
<trkpt lat="55.992664" lon="26.692326">
<ele>126.688538</ele>
<time>2010-06-20T13:12:44Z</time>
<desc>lat.=55.992664, lon.=26.692326, Alt.=126.688538m. Speed=7.128000m/h.</desc>
<speed>1.980000</speed>
</trkpt>
<trkpt lat="55.992657" lon="26.692354">
<ele>126.622131</ele>
<time>2010-06-20T13:12:45Z</time>
<desc>lat.=55.992657, lon.=26.692354, Alt.=126.622131m. Speed=7.812000m/h.</desc>
<speed>2.170000</speed>
</trkpt>
<trkpt lat="55.992649" lon="26.692381">
<ele>126.665100</ele>
<time>2010-06-20T13:12:46Z</time>
<desc>lat.=55.992649, lon.=26.692381, Alt.=126.665100m. Speed=8.352000m/h.</desc>
<speed>2.320000</speed>
</trkpt>
<trkpt lat="55.992634" lon="26.692408">
<ele>126.649475</ele>
<time>2010-06-20T13:12:47Z</time>
<desc>lat.=55.992634, lon.=26.692408, Alt.=126.649475m. Speed=9.792000m/h.</desc>
<speed>2.720000</speed>
</trkpt>
<trkpt lat="55.992622" lon="26.692448">
<ele>126.649475</ele>
<time>2010-06-20T13:12:48Z</time>
<desc>lat.=55.992622, lon.=26.692448, Alt.=126.649475m. Speed=9.432000m/h.</desc>
<speed>2.620000</speed>
</trkpt>
<trkpt lat="55.992611" lon="26.692505">
<ele>127.114319</ele>
<time>2010-06-20T13:12:49Z</time>
<desc>lat.=55.992611, lon.=26.692505, Alt.=127.114319m. Speed=10.152000m/h.</desc>
<speed>2.820000</speed>
</trkpt>
<trkpt lat="55.992599" lon="26.692545">
<ele>127.083069</ele>
<time>2010-06-20T13:12:50Z</time>
<desc>lat.=55.992599, lon.=26.692545, Alt.=127.083069m. Speed=9.468000m/h.</desc>
<speed>2.630000</speed>
</trkpt>
<trkpt lat="55.992588" lon="26.692585">
<ele>127.127991</ele>
<time>2010-06-20T13:12:51Z</time>
<desc>lat.=55.992588, lon.=26.692585, Alt.=127.127991m. Speed=9.468000m/h.</desc>
<speed>2.630000</speed>
</trkpt>
<trkpt lat="55.992580" lon="26.692625">
<ele>127.206116</ele>
<time>2010-06-20T13:12:52Z</time>
<desc>lat.=55.992580, lon.=26.692625, Alt.=127.206116m. Speed=9.324000m/h.</desc>
<speed>2.590000</speed>
</trkpt>
<trkpt lat="55.992569" lon="26.692669">
<ele>127.368225</ele>
<time>2010-06-20T13:12:53Z</time>
<desc>lat.=55.992569, lon.=26.692669, Alt.=127.368225m. Speed=10.260000m/h.</desc>
<speed>2.850000</speed>
</trkpt>
<trkpt lat="55.992558" lon="26.692711">
<ele>127.325256</ele>
<time>2010-06-20T13:12:54Z</time>
<desc>lat.=55.992558, lon.=26.692711, Alt.=127.325256m. Speed=9.864000m/h.</desc>
<speed>2.740000</speed>
</trkpt>
<trkpt lat="55.992550" lon="26.692753">
<ele>127.274475</ele>
<time>2010-06-20T13:12:55Z</time>
<desc>lat.=55.992550, lon.=26.692753, Alt.=127.274475m. Speed=9.432000m/h.</desc>
<speed>2.620000</speed>
</trkpt>
<trkpt lat="55.992535" lon="26.692787">
<ele>127.049866</ele>
<time>2010-06-20T13:12:56Z</time>
<desc>lat.=55.992535, lon.=26.692787, Alt.=127.049866m. Speed=8.100000m/h.</desc>
<speed>2.250000</speed>
</trkpt>
<trkpt lat="55.992527" lon="26.692816">
<ele>127.002991</ele>
<time>2010-06-20T13:12:57Z</time>
<desc>lat.=55.992527, lon.=26.692816, Alt.=127.002991m. Speed=7.884000m/h.</desc>
<speed>2.190000</speed>
</trkpt>
<trkpt lat="55.992516" lon="26.692852">
<ele>127.153381</ele>
<time>2010-06-20T13:12:58Z</time>
<desc>lat.=55.992516, lon.=26.692852, Alt.=127.153381m. Speed=9.828000m/h.</desc>
<speed>2.730000</speed>
</trkpt>
<trkpt lat="55.992504" lon="26.692884">
<ele>127.194397</ele>
<time>2010-06-20T13:12:59Z</time>
<desc>lat.=55.992504, lon.=26.692884, Alt.=127.194397m. Speed=7.524000m/h.</desc>
<speed>2.090000</speed>
</trkpt>
<trkpt lat="55.992493" lon="26.692911">
<ele>127.495178</ele>
<time>2010-06-20T13:13:00Z</time>
<desc>lat.=55.992493, lon.=26.692911, Alt.=127.495178m. Speed=7.272000m/h.</desc>
<speed>2.020000</speed>
</trkpt>
<trkpt lat="55.992489" lon="26.692940">
<ele>127.627991</ele>
<time>2010-06-20T13:13:01Z</time>
<desc>lat.=55.992489, lon.=26.692940, Alt.=127.627991m. Speed=5.796000m/h.</desc>
<speed>1.610000</speed>
</trkpt>
<trkpt lat="55.992481" lon="26.692965">
<ele>127.844788</ele>
<time>2010-06-20T13:13:02Z</time>
<desc>lat.=55.992481, lon.=26.692965, Alt.=127.844788m. Speed=4.032000m/h.</desc>
<speed>1.120000</speed>
</trkpt>
<trkpt lat="55.992470" lon="26.692970">
<ele>128.056763</ele>
<time>2010-06-20T13:13:03Z</time>
<desc>lat.=55.992470, lon.=26.692970, Alt.=128.056763m. Speed=5.220000m/h.</desc>
<speed>1.450000</speed>
</trkpt>
<trkpt lat="55.992462" lon="26.692982">
<ele>128.244263</ele>
<time>2010-06-20T13:13:04Z</time>
<desc>lat.=55.992462, lon.=26.692982, Alt.=128.244263m. Speed=4.824000m/h.</desc>
<speed>1.340000</speed>
</trkpt>
<trkpt lat="55.992458" lon="26.692999">
<ele>128.681763</ele>
<time>2010-06-20T13:13:05Z</time>
<desc>lat.=55.992458, lon.=26.692999, Alt.=128.681763m. Speed=3.852000m/h.</desc>
<speed>1.070000</speed>
</trkpt>
<trkpt lat="55.992455" lon="26.693007">
<ele>128.888794</ele>
<time>2010-06-20T13:13:06Z</time>
<desc>lat.=55.992455, lon.=26.693007, Alt.=128.888794m. Speed=1.152000m/h.</desc>
<speed>0.320000</speed>
</trkpt>
<trkpt lat="55.992455" lon="26.693010">
<ele>129.076294</ele>
<time>2010-06-20T13:13:07Z</time>
<desc>lat.=55.992455, lon.=26.693010, Alt.=129.076294m. Speed=0.864000m/h.</desc>
<speed>0.240000</speed>
</trkpt>
<trkpt lat="55.992458" lon="26.693012">
<ele>129.123169</ele>
<time>2010-06-20T13:13:08Z</time>
<desc>lat.=55.992458, lon.=26.693012, Alt.=129.123169m. Speed=0.720000m/h.</desc>
<speed>0.200000</speed>
</trkpt>
<trkpt lat="55.992455" lon="26.693010">
<ele>129.158325</ele>
<time>2010-06-20T13:13:09Z</time>
<desc>lat.=55.992455, lon.=26.693010, Alt.=129.158325m. Speed=0.144000m/h.</desc>
<speed>0.040000</speed>
</trkpt>
<trkpt lat="55.992455" lon="26.693012">
<ele>129.252075</ele>
<time>2010-06-20T13:13:10Z</time>
<desc>lat.=55.992455, lon.=26.693012, Alt.=129.252075m. Speed=0.360000m/h.</desc>
<speed>0.100000</speed>
</trkpt>
<trkpt lat="55.992455" lon="26.693014">
<ele>129.338013</ele>
<time>2010-06-20T13:13:11Z</time>
<desc>lat.=55.992455, lon.=26.693014, Alt.=129.338013m. Speed=0.396000m/h.</desc>
<speed>0.110000</speed>
</trkpt>
<trkpt lat="55.992455" lon="26.693016">
<ele>129.408325</ele>
<time>2010-06-20T13:13:12Z</time>
<desc>lat.=55.992455, lon.=26.693016, Alt.=129.408325m. Speed=0.792000m/h.</desc>
<speed>0.220000</speed>
</trkpt>
<trkpt lat="55.992451" lon="26.693018">
<ele>129.463013</ele>
<time>2010-06-20T13:13:13Z</time>
<desc>lat.=55.992451, lon.=26.693018, Alt.=129.463013m. Speed=0.828000m/h.</desc>
<speed>0.230000</speed>
</trkpt>
<trkpt lat="55.992451" lon="26.693022">
<ele>129.505981</ele>
<time>2010-06-20T13:13:14Z</time>
<desc>lat.=55.992451, lon.=26.693022, Alt.=129.505981m. Speed=0.576000m/h.</desc>
<speed>0.160000</speed>
</trkpt>
<trkpt lat="55.992451" lon="26.693024">
<ele>129.545044</ele>
<time>2010-06-20T13:13:15Z</time>
<desc>lat.=55.992451, lon.=26.693024, Alt.=129.545044m. Speed=0.576000m/h.</desc>
<speed>0.160000</speed>
</trkpt>
<trkpt lat="55.992447" lon="26.693026">
<ele>129.572388</ele>
<time>2010-06-20T13:13:16Z</time>
<desc>lat.=55.992447, lon.=26.693026, Alt.=129.572388m. Speed=0.504000m/h.</desc>
<speed>0.140000</speed>
</trkpt>
<trkpt lat="55.992447" lon="26.693027">
<ele>129.603638</ele>
<time>2010-06-20T13:13:17Z</time>
<desc>lat.=55.992447, lon.=26.693027, Alt.=129.603638m. Speed=0.972000m/h.</desc>
<speed>0.270000</speed>
</trkpt>
<trkpt lat="55.992447" lon="26.693029">
<ele>129.630981</ele>
<time>2010-06-20T13:13:18Z</time>
<desc>lat.=55.992447, lon.=26.693029, Alt.=129.630981m. Speed=2.304000m/h.</desc>
<speed>0.640000</speed>
</trkpt>
<trkpt lat="55.992416" lon="26.693010">
<ele>129.630981</ele>
<time>2010-06-20T13:13:19Z</time>
<desc>lat.=55.992416, lon.=26.693010, Alt.=129.630981m. Speed=4.284000m/h.</desc>
<speed>1.190000</speed>
</trkpt>
<trkpt lat="55.992409" lon="26.693018">
<ele>129.779419</ele>
<time>2010-06-20T13:13:20Z</time>
<desc>lat.=55.992409, lon.=26.693018, Alt.=129.779419m. Speed=5.796000m/h.</desc>
<speed>1.610000</speed>
</trkpt>
<trkpt lat="55.992397" lon="26.693001">
<ele>129.791138</ele>
<time>2010-06-20T13:13:21Z</time>
<desc>lat.=55.992397, lon.=26.693001, Alt.=129.791138m. Speed=7.884000m/h.</desc>
<speed>2.190000</speed>
</trkpt>
<trkpt lat="55.992371" lon="26.692980">
<ele>129.763794</ele>
<time>2010-06-20T13:13:22Z</time>
<desc>lat.=55.992371, lon.=26.692980, Alt.=129.763794m. Speed=9.036000m/h.</desc>
<speed>2.510000</speed>
</trkpt>
<trkpt lat="55.992348" lon="26.692957">
<ele>129.798950</ele>
<time>2010-06-20T13:13:23Z</time>
<desc>lat.=55.992348, lon.=26.692957, Alt.=129.798950m. Speed=10.800000m/h.</desc>
<speed>3.000000</speed>
</trkpt>
<trkpt lat="55.992325" lon="26.692934">
<ele>129.791138</ele>
<time>2010-06-20T13:13:24Z</time>
<desc>lat.=55.992325, lon.=26.692934, Alt.=129.791138m. Speed=9.684000m/h.</desc>
<speed>2.690000</speed>
</trkpt>
<trkpt lat="55.992306" lon="26.692915">
<ele>129.755981</ele>
<time>2010-06-20T13:13:25Z</time>
<desc>lat.=55.992306, lon.=26.692915, Alt.=129.755981m. Speed=9.468000m/h.</desc>
<speed>2.630000</speed>
</trkpt>
<trkpt lat="55.992287" lon="26.692898">
<ele>129.486450</ele>
<time>2010-06-20T13:13:26Z</time>
<desc>lat.=55.992287, lon.=26.692898, Alt.=129.486450m. Speed=9.144000m/h.</desc>
<speed>2.540000</speed>
</trkpt>
<trkpt lat="55.992268" lon="26.692884">
<ele>129.451294</ele>
<time>2010-06-20T13:13:27Z</time>
<desc>lat.=55.992268, lon.=26.692884, Alt.=129.451294m. Speed=8.424000m/h.</desc>
<speed>2.340000</speed>
</trkpt>
<trkpt lat="55.992249" lon="26.692871">
<ele>129.482544</ele>
<time>2010-06-20T13:13:28Z</time>
<desc>lat.=55.992249, lon.=26.692871, Alt.=129.482544m. Speed=8.388000m/h.</desc>
<speed>2.330000</speed>
</trkpt>
<trkpt lat="55.992233" lon="26.692860">
<ele>129.435669</ele>
<time>2010-06-20T13:13:29Z</time>
<desc>lat.=55.992233, lon.=26.692860, Alt.=129.435669m. Speed=7.488000m/h.</desc>
<speed>2.080000</speed>
</trkpt>
<trkpt lat="55.992218" lon="26.692848">
<ele>129.338013</ele>
<time>2010-06-20T13:13:30Z</time>
<desc>lat.=55.992218, lon.=26.692848, Alt.=129.338013m. Speed=7.380000m/h.</desc>
<speed>2.050000</speed>
</trkpt>
<trkpt lat="55.992203" lon="26.692829">
<ele>129.423950</ele>
<time>2010-06-20T13:13:31Z</time>
<desc>lat.=55.992203, lon.=26.692829, Alt.=129.423950m. Speed=7.596000m/h.</desc>
<speed>2.110000</speed>
</trkpt>
<trkpt lat="55.992184" lon="26.692812">
<ele>129.318481</ele>
<time>2010-06-20T13:13:32Z</time>
<desc>lat.=55.992184, lon.=26.692812, Alt.=129.318481m. Speed=9.000000m/h.</desc>
<speed>2.500000</speed>
</trkpt>
<trkpt lat="55.992161" lon="26.692795">
<ele>129.127075</ele>
<time>2010-06-20T13:13:33Z</time>
<desc>lat.=55.992161, lon.=26.692795, Alt.=129.127075m. Speed=9.648000m/h.</desc>
<speed>2.680000</speed>
</trkpt>
<trkpt lat="55.992138" lon="26.692780">
<ele>129.173950</ele>
<time>2010-06-20T13:13:34Z</time>
<desc>lat.=55.992138, lon.=26.692780, Alt.=129.173950m. Speed=9.720000m/h.</desc>
<speed>2.700000</speed>
</trkpt>
<trkpt lat="55.992119" lon="26.692766">
<ele>129.170044</ele>
<time>2010-06-20T13:13:35Z</time>
<desc>lat.=55.992119, lon.=26.692766, Alt.=129.170044m. Speed=9.972000m/h.</desc>
<speed>2.770000</speed>
</trkpt>
<trkpt lat="55.992092" lon="26.692753">
<ele>129.170044</ele>
<time>2010-06-20T13:13:36Z</time>
<desc>lat.=55.992092, lon.=26.692753, Alt.=129.170044m. Speed=11.772000m/h.</desc>
<speed>3.270000</speed>
</trkpt>
<trkpt lat="55.992062" lon="26.692736">
<ele>129.029419</ele>
<time>2010-06-20T13:13:37Z</time>
<desc>lat.=55.992062, lon.=26.692736, Alt.=129.029419m. Speed=12.816000m/h.</desc>
<speed>3.560000</speed>
</trkpt>
<trkpt lat="55.992027" lon="26.692719">
<ele>129.088013</ele>
<time>2010-06-20T13:13:38Z</time>
<desc>lat.=55.992027, lon.=26.692719, Alt.=129.088013m. Speed=14.904000m/h.</desc>
<speed>4.140000</speed>
</trkpt>
<trkpt lat="55.991989" lon="26.692692">
<ele>129.228638</ele>
<time>2010-06-20T13:13:39Z</time>
<desc>lat.=55.991989, lon.=26.692692, Alt.=129.228638m. Speed=16.667999m/h.</desc>
<speed>4.630000</speed>
</trkpt>
<trkpt lat="55.991947" lon="26.692659">
<ele>129.279419</ele>
<time>2010-06-20T13:13:40Z</time>
<desc>lat.=55.991947, lon.=26.692659, Alt.=129.279419m. Speed=17.927999m/h.</desc>
<speed>4.980000</speed>
</trkpt>
<trkpt lat="55.991905" lon="26.692625">
<ele>129.498169</ele>
<time>2010-06-20T13:13:41Z</time>
<desc>lat.=55.991905, lon.=26.692625, Alt.=129.498169m. Speed=18.576000m/h.</desc>
<speed>5.160000</speed>
</trkpt>
<trkpt lat="55.991859" lon="26.692583">
<ele>129.564575</ele>
<time>2010-06-20T13:13:42Z</time>
<desc>lat.=55.991859, lon.=26.692583, Alt.=129.564575m. Speed=18.756001m/h.</desc>
<speed>5.210000</speed>
</trkpt>
<trkpt lat="55.991814" lon="26.692545">
<ele>129.584106</ele>
<time>2010-06-20T13:13:43Z</time>
<desc>lat.=55.991814, lon.=26.692545, Alt.=129.584106m. Speed=21.059999m/h.</desc>
<speed>5.850000</speed>
</trkpt>
<trkpt lat="55.991764" lon="26.692505">
<ele>129.853638</ele>
<time>2010-06-20T13:13:44Z</time>
<desc>lat.=55.991764, lon.=26.692505, Alt.=129.853638m. Speed=21.528000m/h.</desc>
<speed>5.980000</speed>
</trkpt>
<trkpt lat="55.991714" lon="26.692459">
<ele>130.005981</ele>
<time>2010-06-20T13:13:45Z</time>
<desc>lat.=55.991714, lon.=26.692459, Alt.=130.005981m. Speed=22.931999m/h.</desc>
<speed>6.370000</speed>
</trkpt>
<trkpt lat="55.991661" lon="26.692410">
<ele>130.072388</ele>
<time>2010-06-20T13:13:46Z</time>
<desc>lat.=55.991661, lon.=26.692410, Alt.=130.072388m. Speed=23.832001m/h.</desc>
<speed>6.620000</speed>
</trkpt>
<trkpt lat="55.991608" lon="26.692358">
<ele>130.271606</ele>
<time>2010-06-20T13:13:47Z</time>
<desc>lat.=55.991608, lon.=26.692358, Alt.=130.271606m. Speed=25.200001m/h.</desc>
<speed>7.000000</speed>
</trkpt>
<trkpt lat="55.991547" lon="26.692307">
<ele>130.443481</ele>
<time>2010-06-20T13:13:48Z</time>
<desc>lat.=55.991547, lon.=26.692307, Alt.=130.443481m. Speed=26.351999m/h.</desc>
<speed>7.320000</speed>
</trkpt>
<trkpt lat="55.991486" lon="26.692257">
<ele>130.775513</ele>
<time>2010-06-20T13:13:49Z</time>
<desc>lat.=55.991486, lon.=26.692257, Alt.=130.775513m. Speed=27.431999m/h.</desc>
<speed>7.620000</speed>
</trkpt>
<trkpt lat="55.991421" lon="26.692204">
<ele>130.896606</ele>
<time>2010-06-20T13:13:50Z</time>
<desc>lat.=55.991421, lon.=26.692204, Alt.=130.896606m. Speed=28.296000m/h.</desc>
<speed>7.860000</speed>
</trkpt>
<trkpt lat="55.991356" lon="26.692148">
<ele>130.994263</ele>
<time>2010-06-20T13:13:51Z</time>
<desc>lat.=55.991356, lon.=26.692148, Alt.=130.994263m. Speed=29.087999m/h.</desc>
<speed>8.080000</speed>
</trkpt>
<trkpt lat="55.991287" lon="26.692091">
<ele>131.189575</ele>
<time>2010-06-20T13:13:52Z</time>
<desc>lat.=55.991287, lon.=26.692091, Alt.=131.189575m. Speed=29.124001m/h.</desc>
<speed>8.090000</speed>
</trkpt>
<trkpt lat="55.991222" lon="26.692030">
<ele>131.173950</ele>
<time>2010-06-20T13:13:53Z</time>
<desc>lat.=55.991222, lon.=26.692030, Alt.=131.173950m. Speed=30.455999m/h.</desc>
<speed>8.460000</speed>
</trkpt>
<trkpt lat="55.991154" lon="26.691967">
<ele>131.158325</ele>
<time>2010-06-20T13:13:54Z</time>
<desc>lat.=55.991154, lon.=26.691967, Alt.=131.158325m. Speed=30.492001m/h.</desc>
<speed>8.470000</speed>
</trkpt>
<trkpt lat="55.991085" lon="26.691904">
<ele>131.236450</ele>
<time>2010-06-20T13:13:55Z</time>
<desc>lat.=55.991085, lon.=26.691904, Alt.=131.236450m. Speed=30.059999m/h.</desc>
<speed>8.350000</speed>
</trkpt>
<trkpt lat="55.991020" lon="26.691841">
<ele>131.291138</ele>
<time>2010-06-20T13:13:56Z</time>
<desc>lat.=55.991020, lon.=26.691841, Alt.=131.291138m. Speed=29.771999m/h.</desc>
<speed>8.270000</speed>
</trkpt>
<trkpt lat="55.990952" lon="26.691782">
<ele>131.322388</ele>
<time>2010-06-20T13:13:57Z</time>
<desc>lat.=55.990952, lon.=26.691782, Alt.=131.322388m. Speed=29.591999m/h.</desc>
<speed>8.220000</speed>
</trkpt>
<trkpt lat="55.990883" lon="26.691723">
<ele>131.404419</ele>
<time>2010-06-20T13:13:58Z</time>
<desc>lat.=55.990883, lon.=26.691723, Alt.=131.404419m. Speed=29.448000m/h.</desc>
<speed>8.180000</speed>
</trkpt>
<trkpt lat="55.990814" lon="26.691662">
<ele>131.486450</ele>
<time>2010-06-20T13:13:59Z</time>
<desc>lat.=55.990814, lon.=26.691662, Alt.=131.486450m. Speed=29.340000m/h.</desc>
<speed>8.150000</speed>
</trkpt>
<trkpt lat="55.990749" lon="26.691603">
<ele>131.400513</ele>
<time>2010-06-20T13:14:00Z</time>
<desc>lat.=55.990749, lon.=26.691603, Alt.=131.400513m. Speed=29.664000m/h.</desc>
<speed>8.240000</speed>
</trkpt>
<trkpt lat="55.990681" lon="26.691545">
<ele>131.259888</ele>
<time>2010-06-20T13:14:01Z</time>
<desc>lat.=55.990681, lon.=26.691545, Alt.=131.259888m. Speed=29.844000m/h.</desc>
<speed>8.290000</speed>
</trkpt>
<trkpt lat="55.990612" lon="26.691488">
<ele>131.213013</ele>
<time>2010-06-20T13:14:02Z</time>
<desc>lat.=55.990612, lon.=26.691488, Alt.=131.213013m. Speed=30.600000m/h.</desc>
<speed>8.500000</speed>
</trkpt>
<trkpt lat="55.990543" lon="26.691435">
<ele>131.236450</ele>
<time>2010-06-20T13:14:03Z</time>
<desc>lat.=55.990543, lon.=26.691435, Alt.=131.236450m. Speed=31.284000m/h.</desc>
<speed>8.690000</speed>
</trkpt>
<trkpt lat="55.990471" lon="26.691376">
<ele>131.263794</ele>
<time>2010-06-20T13:14:04Z</time>
<desc>lat.=55.990471, lon.=26.691376, Alt.=131.263794m. Speed=32.220001m/h.</desc>
<speed>8.950000</speed>
</trkpt>
<trkpt lat="55.990398" lon="26.691307">
<ele>131.701294</ele>
<time>2010-06-20T13:14:05Z</time>
<desc>lat.=55.990398, lon.=26.691307, Alt.=131.701294m. Speed=33.264000m/h.</desc>
<speed>9.240000</speed>
</trkpt>
<trkpt lat="55.990322" lon="26.691242">
<ele>131.498169</ele>
<time>2010-06-20T13:14:06Z</time>
<desc>lat.=55.990322, lon.=26.691242, Alt.=131.498169m. Speed=33.840000m/h.</desc>
<speed>9.400000</speed>
</trkpt>
<trkpt lat="55.990242" lon="26.691174">
<ele>131.173950</ele>
<time>2010-06-20T13:14:07Z</time>
<desc>lat.=55.990242, lon.=26.691174, Alt.=131.173950m. Speed=34.020000m/h.</desc>
<speed>9.450000</speed>
</trkpt>
<trkpt lat="55.990162" lon="26.691107">
<ele>130.845825</ele>
<time>2010-06-20T13:14:08Z</time>
<desc>lat.=55.990162, lon.=26.691107, Alt.=130.845825m. Speed=34.020000m/h.</desc>
<speed>9.450000</speed>
</trkpt>
<trkpt lat="55.990086" lon="26.691036">
<ele>130.623169</ele>
<time>2010-06-20T13:14:09Z</time>
<desc>lat.=55.990086, lon.=26.691036, Alt.=130.623169m. Speed=33.624001m/h.</desc>
<speed>9.340000</speed>
</trkpt>
<trkpt lat="55.990005" lon="26.690969">
<ele>130.568481</ele>
<time>2010-06-20T13:14:10Z</time>
<desc>lat.=55.990005, lon.=26.690969, Alt.=130.568481m. Speed=33.228001m/h.</desc>
<speed>9.230000</speed>
</trkpt>
<trkpt lat="55.989929" lon="26.690897">
<ele>130.853638</ele>
<time>2010-06-20T13:14:11Z</time>
<desc>lat.=55.989929, lon.=26.690897, Alt.=130.853638m. Speed=33.228001m/h.</desc>
<speed>9.230000</speed>
</trkpt>
<trkpt lat="55.989857" lon="26.690830">
<ele>130.736450</ele>
<time>2010-06-20T13:14:12Z</time>
<desc>lat.=55.989857, lon.=26.690830, Alt.=130.736450m. Speed=33.084000m/h.</desc>
<speed>9.190000</speed>
</trkpt>
<trkpt lat="55.989784" lon="26.690769">
<ele>130.146606</ele>
<time>2010-06-20T13:14:13Z</time>
<desc>lat.=55.989784, lon.=26.690769, Alt.=130.146606m. Speed=32.040001m/h.</desc>
<speed>8.900000</speed>
</trkpt>
<trkpt lat="55.989727" lon="26.690720">
<ele>129.314575</ele>
<time>2010-06-20T13:14:14Z</time>
<desc>lat.=55.989727, lon.=26.690720, Alt.=129.314575m. Speed=22.968000m/h.</desc>
<speed>6.380000</speed>
</trkpt>
<trkpt lat="55.989689" lon="26.690680">
<ele>128.463013</ele>
<time>2010-06-20T13:14:15Z</time>
<desc>lat.=55.989689, lon.=26.690680, Alt.=128.463013m. Speed=13.932000m/h.</desc>
<speed>3.870000</speed>
</trkpt>
<trkpt lat="55.989666" lon="26.690638">
<ele>128.302856</ele>
<time>2010-06-20T13:14:16Z</time>
<desc>lat.=55.989666, lon.=26.690638, Alt.=128.302856m. Speed=12.240000m/h.</desc>
<speed>3.400000</speed>
</trkpt>
<trkpt lat="55.989651" lon="26.690619">
<ele>127.870178</ele>
<time>2010-06-20T13:14:17Z</time>
<desc>lat.=55.989651, lon.=26.690619, Alt.=127.870178m. Speed=6.120000m/h.</desc>
<speed>1.700000</speed>
</trkpt>
<trkpt lat="55.989647" lon="26.690611">
<ele>127.479553</ele>
<time>2010-06-20T13:14:18Z</time>
<desc>lat.=55.989647, lon.=26.690611, Alt.=127.479553m. Speed=0.432000m/h.</desc>
<speed>0.120000</speed>
</trkpt>
<trkpt lat="55.989647" lon="26.690609">
<ele>127.391663</ele>
<time>2010-06-20T13:14:19Z</time>
<desc>lat.=55.989647, lon.=26.690609, Alt.=127.391663m. Speed=0.324000m/h.</desc>
<speed>0.090000</speed>
</trkpt>
<trkpt lat="55.989647" lon="26.690613">
<ele>127.342834</ele>
<time>2010-06-20T13:14:20Z</time>
<desc>lat.=55.989647, lon.=26.690613, Alt.=127.342834m. Speed=0.504000m/h.</desc>
<speed>0.140000</speed>
</trkpt>
<trkpt lat="55.989647" lon="26.690617">
<ele>127.440491</ele>
<time>2010-06-20T13:14:21Z</time>
<desc>lat.=55.989647, lon.=26.690617, Alt.=127.440491m. Speed=0.180000m/h.</desc>
<speed>0.050000</speed>
</trkpt>
<trkpt lat="55.989647" lon="26.690619">
<ele>127.360413</ele>
<time>2010-06-20T13:14:22Z</time>
<desc>lat.=55.989647, lon.=26.690619, Alt.=127.360413m. Speed=0.396000m/h.</desc>
<speed>0.110000</speed>
</trkpt>
<trkpt lat="55.989647" lon="26.690620">
<ele>127.297913</ele>
<time>2010-06-20T13:14:23Z</time>
<desc>lat.=55.989647, lon.=26.690620, Alt.=127.297913m. Speed=0.360000m/h.</desc>
<speed>0.100000</speed>
</trkpt>
<trkpt lat="55.989647" lon="26.690620">
<ele>127.243225</ele>
<time>2010-06-20T13:14:24Z</time>
<desc>lat.=55.989647, lon.=26.690620, Alt.=127.243225m. Speed=0.144000m/h.</desc>
<speed>0.040000</speed>
</trkpt>
<trkpt lat="55.989651" lon="26.690622">
<ele>127.200256</ele>
<time>2010-06-20T13:14:25Z</time>
<desc>lat.=55.989651, lon.=26.690622, Alt.=127.200256m. Speed=0.036000m/h.</desc>
<speed>0.010000</speed>
</trkpt>
<trkpt lat="55.989651" lon="26.690620">
<ele>127.167053</ele>
<time>2010-06-20T13:14:26Z</time>
<desc>lat.=55.989651, lon.=26.690620, Alt.=127.167053m. Speed=0.180000m/h.</desc>
<speed>0.050000</speed>
</trkpt>
<trkpt lat="55.989647" lon="26.690622">
<ele>127.137756</ele>
<time>2010-06-20T13:14:27Z</time>
<desc>lat.=55.989647, lon.=26.690622, Alt.=127.137756m. Speed=0.036000m/h.</desc>
<speed>0.010000</speed>
</trkpt>
<trkpt lat="55.989647" lon="26.690622">
<ele>127.114319</ele>
<time>2010-06-20T13:14:28Z</time>
<desc>lat.=55.989647, lon.=26.690622, Alt.=127.114319m. Speed=1.764000m/h.</desc>
<speed>0.490000</speed>
</trkpt>
<trkpt lat="55.989643" lon="26.690620">
<ele>127.106506</ele>
<time>2010-06-20T13:14:29Z</time>
<desc>lat.=55.989643, lon.=26.690620, Alt.=127.106506m. Speed=2.340000m/h.</desc>
<speed>0.650000</speed>
</trkpt>
<trkpt lat="55.989639" lon="26.690626">
<ele>127.202209</ele>
<time>2010-06-20T13:14:30Z</time>
<desc>lat.=55.989639, lon.=26.690626, Alt.=127.202209m. Speed=0.288000m/h.</desc>
<speed>0.080000</speed>
</trkpt>
<trkpt lat="55.989639" lon="26.690624">
<ele>127.180725</ele>
<time>2010-06-20T13:14:31Z</time>
<desc>lat.=55.989639, lon.=26.690624, Alt.=127.180725m. Speed=0.216000m/h.</desc>
<speed>0.060000</speed>
</trkpt>
<trkpt lat="55.989639" lon="26.690624">
<ele>127.186584</ele>
<time>2010-06-20T13:14:32Z</time>
<desc>lat.=55.989639, lon.=26.690624, Alt.=127.186584m. Speed=0.036000m/h.</desc>
<speed>0.010000</speed>
</trkpt>
<trkpt lat="55.989639" lon="26.690624">
<ele>127.182678</ele>
<time>2010-06-20T13:14:33Z</time>
<desc>lat.=55.989639, lon.=26.690624, Alt.=127.182678m. Speed=0.216000m/h.</desc>
<speed>0.060000</speed>
</trkpt>
<trkpt lat="55.989639" lon="26.690626">
<ele>127.182678</ele>
<time>2010-06-20T13:14:34Z</time>
<desc>lat.=55.989639, lon.=26.690626, Alt.=127.182678m. Speed=0.540000m/h.</desc>
<speed>0.150000</speed>
</trkpt>
<trkpt lat="55.989639" lon="26.690624">
<ele>127.165100</ele>
<time>2010-06-20T13:14:35Z</time>
<desc>lat.=55.989639, lon.=26.690624, Alt.=127.165100m. Speed=3.924000m/h.</desc>
<speed>1.090000</speed>
</trkpt>
<trkpt lat="55.989628" lon="26.690615">
<ele>126.733459</ele>
<time>2010-06-20T13:14:36Z</time>
<desc>lat.=55.989628, lon.=26.690615, Alt.=126.733459m. Speed=5.328000m/h.</desc>
<speed>1.480000</speed>
</trkpt>
<trkpt lat="55.989620" lon="26.690613">
<ele>126.346741</ele>
<time>2010-06-20T13:14:37Z</time>
<desc>lat.=55.989620, lon.=26.690613, Alt.=126.346741m. Speed=3.888000m/h.</desc>
<speed>1.080000</speed>
</trkpt>
<trkpt lat="55.989613" lon="26.690605">
<ele>126.104553</ele>
<time>2010-06-20T13:14:38Z</time>
<desc>lat.=55.989613, lon.=26.690605, Alt.=126.104553m. Speed=6.264000m/h.</desc>
<speed>1.740000</speed>
</trkpt>
<trkpt lat="55.989597" lon="26.690592">
<ele>125.920959</ele>
<time>2010-06-20T13:14:39Z</time>
<desc>lat.=55.989597, lon.=26.690592, Alt.=125.920959m. Speed=8.316000m/h.</desc>
<speed>2.310000</speed>
</trkpt>
<trkpt lat="55.989582" lon="26.690578">
<ele>126.977600</ele>
<time>2010-06-20T13:14:40Z</time>
<desc>lat.=55.989582, lon.=26.690578, Alt.=126.977600m. Speed=8.676000m/h.</desc>
<speed>2.410000</speed>
</trkpt>
<trkpt lat="55.989559" lon="26.690563">
<ele>127.251038</ele>
<time>2010-06-20T13:14:41Z</time>
<desc>lat.=55.989559, lon.=26.690563, Alt.=127.251038m. Speed=10.368000m/h.</desc>
<speed>2.880000</speed>
</trkpt>
<trkpt lat="55.989532" lon="26.690544">
<ele>127.454163</ele>
<time>2010-06-20T13:14:42Z</time>
<desc>lat.=55.989532, lon.=26.690544, Alt.=127.454163m. Speed=12.348000m/h.</desc>
<speed>3.430000</speed>
</trkpt>
<trkpt lat="55.989502" lon="26.690519">
<ele>127.545959</ele>
<time>2010-06-20T13:14:43Z</time>
<desc>lat.=55.989502, lon.=26.690519, Alt.=127.545959m. Speed=14.652000m/h.</desc>
<speed>4.070000</speed>
</trkpt>
<trkpt lat="55.989468" lon="26.690487">
<ele>127.524475</ele>
<time>2010-06-20T13:14:44Z</time>
<desc>lat.=55.989468, lon.=26.690487, Alt.=127.524475m. Speed=16.596001m/h.</desc>
<speed>4.610000</speed>
</trkpt>
<trkpt lat="55.989429" lon="26.690454">
<ele>127.633850</ele>
<time>2010-06-20T13:14:45Z</time>
<desc>lat.=55.989429, lon.=26.690454, Alt.=127.633850m. Speed=17.388000m/h.</desc>
<speed>4.830000</speed>
</trkpt>
<trkpt lat="55.989391" lon="26.690418">
<ele>127.655334</ele>
<time>2010-06-20T13:14:46Z</time>
<desc>lat.=55.989391, lon.=26.690418, Alt.=127.655334m. Speed=18.216000m/h.</desc>
<speed>5.060000</speed>
</trkpt>
<trkpt lat="55.989346" lon="26.690382">
<ele>127.631897</ele>
<time>2010-06-20T13:14:47Z</time>
<desc>lat.=55.989346, lon.=26.690382, Alt.=127.631897m. Speed=19.691999m/h.</desc>
<speed>5.470000</speed>
</trkpt>
<trkpt lat="55.989300" lon="26.690350">
<ele>127.733459</ele>
<time>2010-06-20T13:14:48Z</time>
<desc>lat.=55.989300, lon.=26.690350, Alt.=127.733459m. Speed=17.316000m/h.</desc>
<speed>4.810000</speed>
</trkpt>
<trkpt lat="55.989269" lon="26.690319">
<ele>127.708069</ele>
<time>2010-06-20T13:14:49Z</time>
<desc>lat.=55.989269, lon.=26.690319, Alt.=127.708069m. Speed=13.068000m/h.</desc>
<speed>3.630000</speed>
</trkpt>
<trkpt lat="55.989246" lon="26.690296">
<ele>127.778381</ele>
<time>2010-06-20T13:14:50Z</time>
<desc>lat.=55.989246, lon.=26.690296, Alt.=127.778381m. Speed=9.828000m/h.</desc>
<speed>2.730000</speed>
</trkpt>
<trkpt lat="55.989231" lon="26.690269">
<ele>127.743225</ele>
<time>2010-06-20T13:14:51Z</time>
<desc>lat.=55.989231, lon.=26.690269, Alt.=127.743225m. Speed=9.036000m/h.</desc>
<speed>2.510000</speed>
</trkpt>
<trkpt lat="55.989212" lon="26.690245">
<ele>127.454163</ele>
<time>2010-06-20T13:14:52Z</time>
<desc>lat.=55.989212, lon.=26.690245, Alt.=127.454163m. Speed=8.820000m/h.</desc>
<speed>2.450000</speed>
</trkpt>
<trkpt lat="55.989197" lon="26.690222">
<ele>127.663147</ele>
<time>2010-06-20T13:14:53Z</time>
<desc>lat.=55.989197, lon.=26.690222, Alt.=127.663147m. Speed=8.280000m/h.</desc>
<speed>2.300000</speed>
</trkpt>
<trkpt lat="55.989178" lon="26.690208">
<ele>127.862366</ele>
<time>2010-06-20T13:14:54Z</time>
<desc>lat.=55.989178, lon.=26.690208, Alt.=127.862366m. Speed=8.784000m/h.</desc>
<speed>2.440000</speed>
</trkpt>
<trkpt lat="55.989155" lon="26.690201">
<ele>127.958069</ele>
<time>2010-06-20T13:14:55Z</time>
<desc>lat.=55.989155, lon.=26.690201, Alt.=127.958069m. Speed=8.820000m/h.</desc>
<speed>2.450000</speed>
</trkpt>
<trkpt lat="55.989136" lon="26.690189">
<ele>127.926819</ele>
<time>2010-06-20T13:14:56Z</time>
<desc>lat.=55.989136, lon.=26.690189, Alt.=127.926819m. Speed=9.036000m/h.</desc>
<speed>2.510000</speed>
</trkpt>
<trkpt lat="55.989117" lon="26.690168">
<ele>127.838928</ele>
<time>2010-06-20T13:14:57Z</time>
<desc>lat.=55.989117, lon.=26.690168, Alt.=127.838928m. Speed=8.928000m/h.</desc>
<speed>2.480000</speed>
</trkpt>
<trkpt lat="55.989105" lon="26.690157">
<ele>128.775513</ele>
<time>2010-06-20T13:14:58Z</time>
<desc>lat.=55.989105, lon.=26.690157, Alt.=128.775513m. Speed=9.036000m/h.</desc>
<speed>2.510000</speed>
</trkpt>
<trkpt lat="55.989086" lon="26.690136">
<ele>128.791138</ele>
<time>2010-06-20T13:14:59Z</time>
<desc>lat.=55.989086, lon.=26.690136, Alt.=128.791138m. Speed=9.504000m/h.</desc>
<speed>2.640000</speed>
</trkpt>
<trkpt lat="55.989063" lon="26.690113">
<ele>128.537231</ele>
<time>2010-06-20T13:15:00Z</time>
<desc>lat.=55.989063, lon.=26.690113, Alt.=128.537231m. Speed=9.792000m/h.</desc>
<speed>2.720000</speed>
</trkpt>
<trkpt lat="55.989040" lon="26.690096">
<ele>128.627075</ele>
<time>2010-06-20T13:15:01Z</time>
<desc>lat.=55.989040, lon.=26.690096, Alt.=128.627075m. Speed=10.656000m/h.</desc>
<speed>2.960000</speed>
</trkpt>
<trkpt lat="55.989014" lon="26.690077">
<ele>128.670044</ele>
<time>2010-06-20T13:15:02Z</time>
<desc>lat.=55.989014, lon.=26.690077, Alt.=128.670044m. Speed=11.664000m/h.</desc>
<speed>3.240000</speed>
</trkpt>
<trkpt lat="55.988991" lon="26.690054">
<ele>128.884888</ele>
<time>2010-06-20T13:15:03Z</time>
<desc>lat.=55.988991, lon.=26.690054, Alt.=128.884888m. Speed=10.872000m/h.</desc>
<speed>3.020000</speed>
</trkpt>
<trkpt lat="55.988968" lon="26.690027">
<ele>128.400513</ele>
<time>2010-06-20T13:15:04Z</time>
<desc>lat.=55.988968, lon.=26.690027, Alt.=128.400513m. Speed=9.828000m/h.</desc>
<speed>2.730000</speed>
</trkpt>
<trkpt lat="55.988949" lon="26.690006">
<ele>128.447388</ele>
<time>2010-06-20T13:15:05Z</time>
<desc>lat.=55.988949, lon.=26.690006, Alt.=128.447388m. Speed=8.640000m/h.</desc>
<speed>2.400000</speed>
</trkpt>
<trkpt lat="55.988930" lon="26.689991">
<ele>128.459106</ele>
<time>2010-06-20T13:15:06Z</time>
<desc>lat.=55.988930, lon.=26.689991, Alt.=128.459106m. Speed=8.352000m/h.</desc>
<speed>2.320000</speed>
</trkpt>
<trkpt lat="55.988914" lon="26.689976">
<ele>128.400513</ele>
<time>2010-06-20T13:15:07Z</time>
<desc>lat.=55.988914, lon.=26.689976, Alt.=128.400513m. Speed=6.192000m/h.</desc>
<speed>1.720000</speed>
</trkpt>
<trkpt lat="55.988899" lon="26.689964">
<ele>128.603638</ele>
<time>2010-06-20T13:15:08Z</time>
<desc>lat.=55.988899, lon.=26.689964, Alt.=128.603638m. Speed=4.896000m/h.</desc>
<speed>1.360000</speed>
</trkpt>
<trkpt lat="55.988888" lon="26.689957">
<ele>128.580200</ele>
<time>2010-06-20T13:15:09Z</time>
<desc>lat.=55.988888, lon.=26.689957, Alt.=128.580200m. Speed=5.328000m/h.</desc>
<speed>1.480000</speed>
</trkpt>
<trkpt lat="55.988876" lon="26.689949">
<ele>128.627075</ele>
<time>2010-06-20T13:15:10Z</time>
<desc>lat.=55.988876, lon.=26.689949, Alt.=128.627075m. Speed=4.968000m/h.</desc>
<speed>1.380000</speed>
</trkpt>
<trkpt lat="55.988865" lon="26.689934">
<ele>128.349731</ele>
<time>2010-06-20T13:15:11Z</time>
<desc>lat.=55.988865, lon.=26.689934, Alt.=128.349731m. Speed=5.580000m/h.</desc>
<speed>1.550000</speed>
</trkpt>
<trkpt lat="55.988857" lon="26.689915">
<ele>128.470825</ele>
<time>2010-06-20T13:15:12Z</time>
<desc>lat.=55.988857, lon.=26.689915, Alt.=128.470825m. Speed=6.444000m/h.</desc>
<speed>1.790000</speed>
</trkpt>
<trkpt lat="55.988846" lon="26.689898">
<ele>128.611450</ele>
<time>2010-06-20T13:15:13Z</time>
<desc>lat.=55.988846, lon.=26.689898, Alt.=128.611450m. Speed=6.984000m/h.</desc>
<speed>1.940000</speed>
</trkpt>
<trkpt lat="55.988834" lon="26.689888">
<ele>128.841919</ele>
<time>2010-06-20T13:15:14Z</time>
<desc>lat.=55.988834, lon.=26.689888, Alt.=128.841919m. Speed=4.716000m/h.</desc>
<speed>1.310000</speed>
</trkpt>
<trkpt lat="55.988823" lon="26.689884">
<ele>128.755981</ele>
<time>2010-06-20T13:15:15Z</time>
<desc>lat.=55.988823, lon.=26.689884, Alt.=128.755981m. Speed=4.896000m/h.</desc>
<speed>1.360000</speed>
</trkpt>
<trkpt lat="55.988815" lon="26.689877">
<ele>128.623169</ele>
<time>2010-06-20T13:15:16Z</time>
<desc>lat.=55.988815, lon.=26.689877, Alt.=128.623169m. Speed=4.068000m/h.</desc>
<speed>1.130000</speed>
</trkpt>
<trkpt lat="55.988804" lon="26.689875">
<ele>128.880981</ele>
<time>2010-06-20T13:15:17Z</time>
<desc>lat.=55.988804, lon.=26.689875, Alt.=128.880981m. Speed=5.544000m/h.</desc>
<speed>1.540000</speed>
</trkpt>
<trkpt lat="55.988785" lon="26.689867">
<ele>128.670044</ele>
<time>2010-06-20T13:15:18Z</time>
<desc>lat.=55.988785, lon.=26.689867, Alt.=128.670044m. Speed=6.948000m/h.</desc>
<speed>1.930000</speed>
</trkpt>
<trkpt lat="55.988766" lon="26.689856">
<ele>128.673950</ele>
<time>2010-06-20T13:15:19Z</time>
<desc>lat.=55.988766, lon.=26.689856, Alt.=128.673950m. Speed=9.360000m/h.</desc>
<speed>2.600000</speed>
</trkpt>
<trkpt lat="55.988739" lon="26.689838">
<ele>128.548950</ele>
<time>2010-06-20T13:15:20Z</time>
<desc>lat.=55.988739, lon.=26.689838, Alt.=128.548950m. Speed=10.656000m/h.</desc>
<speed>2.960000</speed>
</trkpt>
<trkpt lat="55.988712" lon="26.689823">
<ele>128.478638</ele>
<time>2010-06-20T13:15:21Z</time>
<desc>lat.=55.988712, lon.=26.689823, Alt.=128.478638m. Speed=13.032000m/h.</desc>
<speed>3.620000</speed>
</trkpt>
<trkpt lat="55.988686" lon="26.689800">
<ele>128.732544</ele>
<time>2010-06-20T13:15:22Z</time>
<desc>lat.=55.988686, lon.=26.689800, Alt.=128.732544m. Speed=14.364000m/h.</desc>
<speed>3.990000</speed>
</trkpt>
<trkpt lat="55.988651" lon="26.689775">
<ele>128.830200</ele>
<time>2010-06-20T13:15:23Z</time>
<desc>lat.=55.988651, lon.=26.689775, Alt.=128.830200m. Speed=15.444000m/h.</desc>
<speed>4.290000</speed>
</trkpt>
<trkpt lat="55.988613" lon="26.689739">
<ele>128.611450</ele>
<time>2010-06-20T13:15:24Z</time>
<desc>lat.=55.988613, lon.=26.689739, Alt.=128.611450m. Speed=17.388000m/h.</desc>
<speed>4.830000</speed>
</trkpt>
<trkpt lat="55.988571" lon="26.689701">
<ele>128.677856</ele>
<time>2010-06-20T13:15:25Z</time>
<desc>lat.=55.988571, lon.=26.689701, Alt.=128.677856m. Speed=18.612000m/h.</desc>
<speed>5.170000</speed>
</trkpt>
<trkpt lat="55.988529" lon="26.689661">
<ele>128.880981</ele>
<time>2010-06-20T13:15:26Z</time>
<desc>lat.=55.988529, lon.=26.689661, Alt.=128.880981m. Speed=20.052000m/h.</desc>
<speed>5.570000</speed>
</trkpt>
<trkpt lat="55.988483" lon="26.689619">
<ele>129.029419</ele>
<time>2010-06-20T13:15:27Z</time>
<desc>lat.=55.988483, lon.=26.689619, Alt.=129.029419m. Speed=20.771999m/h.</desc>
<speed>5.770000</speed>
</trkpt>
<trkpt lat="55.988434" lon="26.689575">
<ele>129.099731</ele>
<time>2010-06-20T13:15:28Z</time>
<desc>lat.=55.988434, lon.=26.689575, Alt.=129.099731m. Speed=21.528000m/h.</desc>
<speed>5.980000</speed>
</trkpt>
<trkpt lat="55.988384" lon="26.689529">
<ele>129.130981</ele>
<time>2010-06-20T13:15:29Z</time>
<desc>lat.=55.988384, lon.=26.689529, Alt.=129.130981m. Speed=21.600000m/h.</desc>
<speed>6.000000</speed>
</trkpt>
<trkpt lat="55.988335" lon="26.689487">
<ele>129.267700</ele>
<time>2010-06-20T13:15:30Z</time>
<desc>lat.=55.988335, lon.=26.689487, Alt.=129.267700m. Speed=21.708000m/h.</desc>
<speed>6.030000</speed>
</trkpt>
<trkpt lat="55.988285" lon="26.689449">
<ele>129.455200</ele>
<time>2010-06-20T13:15:31Z</time>
<desc>lat.=55.988285, lon.=26.689449, Alt.=129.455200m. Speed=21.851999m/h.</desc>
<speed>6.070000</speed>
</trkpt>
<trkpt lat="55.988235" lon="26.689407">
<ele>129.373169</ele>
<time>2010-06-20T13:15:32Z</time>
<desc>lat.=55.988235, lon.=26.689407, Alt.=129.373169m. Speed=22.032000m/h.</desc>
<speed>6.120000</speed>
</trkpt>
<trkpt lat="55.988178" lon="26.689362">
<ele>129.392700</ele>
<time>2010-06-20T13:15:33Z</time>
<desc>lat.=55.988178, lon.=26.689362, Alt.=129.392700m. Speed=24.336000m/h.</desc>
<speed>6.760000</speed>
</trkpt>
<trkpt lat="55.988125" lon="26.689302">
<ele>129.338013</ele>
<time>2010-06-20T13:15:34Z</time>
<desc>lat.=55.988125, lon.=26.689302, Alt.=129.338013m. Speed=25.344000m/h.</desc>
<speed>7.040000</speed>
</trkpt>
<trkpt lat="55.988064" lon="26.689247">
<ele>129.447388</ele>
<time>2010-06-20T13:15:35Z</time>
<desc>lat.=55.988064, lon.=26.689247, Alt.=129.447388m. Speed=25.812000m/h.</desc>
<speed>7.170000</speed>
</trkpt>
<trkpt lat="55.988003" lon="26.689201">
<ele>127.702209</ele>
<time>2010-06-20T13:15:36Z</time>
<desc>lat.=55.988003, lon.=26.689201, Alt.=127.702209m. Speed=26.676001m/h.</desc>
<speed>7.410000</speed>
</trkpt>
<trkpt lat="55.987942" lon="26.689154">
<ele>126.954163</ele>
<time>2010-06-20T13:15:37Z</time>
<desc>lat.=55.987942, lon.=26.689154, Alt.=126.954163m. Speed=26.316000m/h.</desc>
<speed>7.310000</speed>
</trkpt>
<trkpt lat="55.987885" lon="26.689108">
<ele>126.264709</ele>
<time>2010-06-20T13:15:38Z</time>
<desc>lat.=55.987885, lon.=26.689108, Alt.=126.264709m. Speed=24.948000m/h.</desc>
<speed>6.930000</speed>
</trkpt>
<trkpt lat="55.987823" lon="26.689049">
<ele>125.985413</ele>
<time>2010-06-20T13:15:39Z</time>
<desc>lat.=55.987823, lon.=26.689049, Alt.=125.985413m. Speed=26.243999m/h.</desc>
<speed>7.290000</speed>
</trkpt>
<trkpt lat="55.987762" lon="26.689001">
<ele>125.719788</ele>
<time>2010-06-20T13:15:40Z</time>
<desc>lat.=55.987762, lon.=26.689001, Alt.=125.719788m. Speed=27.252001m/h.</desc>
<speed>7.570000</speed>
</trkpt>
<trkpt lat="55.987705" lon="26.688944">
<ele>125.583069</ele>
<time>2010-06-20T13:15:41Z</time>
<desc>lat.=55.987705, lon.=26.688944, Alt.=125.583069m. Speed=26.316000m/h.</desc>
<speed>7.310000</speed>
</trkpt>
<trkpt lat="55.987648" lon="26.688896">
<ele>126.294006</ele>
<time>2010-06-20T13:15:42Z</time>
<desc>lat.=55.987648, lon.=26.688896, Alt.=126.294006m. Speed=26.712000m/h.</desc>
<speed>7.420000</speed>
</trkpt>
<trkpt lat="55.987591" lon="26.688839">
<ele>126.389709</ele>
<time>2010-06-20T13:15:43Z</time>
<desc>lat.=55.987591, lon.=26.688839, Alt.=126.389709m. Speed=27.143999m/h.</desc>
<speed>7.540000</speed>
</trkpt>
<trkpt lat="55.987526" lon="26.688776">
<ele>125.989319</ele>
<time>2010-06-20T13:15:44Z</time>
<desc>lat.=55.987526, lon.=26.688776, Alt.=125.989319m. Speed=27.396000m/h.</desc>
<speed>7.610000</speed>
</trkpt>
<trkpt lat="55.987465" lon="26.688725">
<ele>126.055725</ele>
<time>2010-06-20T13:15:45Z</time>
<desc>lat.=55.987465, lon.=26.688725, Alt.=126.055725m. Speed=27.431999m/h.</desc>
<speed>7.620000</speed>
</trkpt>
<trkpt lat="55.987404" lon="26.688665">
<ele>126.022522</ele>
<time>2010-06-20T13:15:46Z</time>
<desc>lat.=55.987404, lon.=26.688665, Alt.=126.022522m. Speed=28.584000m/h.</desc>
<speed>7.940000</speed>
</trkpt>
<trkpt lat="55.987339" lon="26.688612">
<ele>125.674866</ele>
<time>2010-06-20T13:15:47Z</time>
<desc>lat.=55.987339, lon.=26.688612, Alt.=125.674866m. Speed=28.799999m/h.</desc>
<speed>8.000000</speed>
</trkpt>
<trkpt lat="55.987274" lon="26.688559">
<ele>125.364319</ele>
<time>2010-06-20T13:15:48Z</time>
<desc>lat.=55.987274, lon.=26.688559, Alt.=125.364319m. Speed=29.340000m/h.</desc>
<speed>8.150000</speed>
</trkpt>
<trkpt lat="55.987206" lon="26.688501">
<ele>125.135803</ele>
<time>2010-06-20T13:15:49Z</time>
<desc>lat.=55.987206, lon.=26.688501, Alt.=125.135803m. Speed=29.808001m/h.</desc>
<speed>8.280000</speed>
</trkpt>
<trkpt lat="55.987137" lon="26.688444">
<ele>125.112366</ele>
<time>2010-06-20T13:15:50Z</time>
<desc>lat.=55.987137, lon.=26.688444, Alt.=125.112366m. Speed=30.024000m/h.</desc>
<speed>8.340000</speed>
</trkpt>
<trkpt lat="55.987068" lon="26.688385">
<ele>125.022522</ele>
<time>2010-06-20T13:15:51Z</time>
<desc>lat.=55.987068, lon.=26.688385, Alt.=125.022522m. Speed=30.240000m/h.</desc>
<speed>8.400000</speed>
</trkpt>
<trkpt lat="55.987003" lon="26.688328">
<ele>125.053772</ele>
<time>2010-06-20T13:15:52Z</time>
<desc>lat.=55.987003, lon.=26.688328, Alt.=125.053772m. Speed=26.712000m/h.</desc>
<speed>7.420000</speed>
</trkpt>
<trkpt lat="55.986946" lon="26.688274">
<ele>125.051819</ele>
<time>2010-06-20T13:15:53Z</time>
<desc>lat.=55.986946, lon.=26.688274, Alt.=125.051819m. Speed=24.624001m/h.</desc>
<speed>6.840000</speed>
</trkpt>
<trkpt lat="55.986889" lon="26.688227">
<ele>125.229553</ele>
<time>2010-06-20T13:15:54Z</time>
<desc>lat.=55.986889, lon.=26.688227, Alt.=125.229553m. Speed=24.875999m/h.</desc>
<speed>6.910000</speed>
</trkpt>
<trkpt lat="55.986832" lon="26.688177">
<ele>125.151428</ele>
<time>2010-06-20T13:15:55Z</time>
<desc>lat.=55.986832, lon.=26.688177, Alt.=125.151428m. Speed=25.488001m/h.</desc>
<speed>7.080000</speed>
</trkpt>
<trkpt lat="55.986774" lon="26.688129">
<ele>125.303772</ele>
<time>2010-06-20T13:15:56Z</time>
<desc>lat.=55.986774, lon.=26.688129, Alt.=125.303772m. Speed=25.020000m/h.</desc>
<speed>6.950000</speed>
</trkpt>
<trkpt lat="55.986721" lon="26.688082">
<ele>125.473694</ele>
<time>2010-06-20T13:15:57Z</time>
<desc>lat.=55.986721, lon.=26.688082, Alt.=125.473694m. Speed=24.804001m/h.</desc>
<speed>6.890000</speed>
</trkpt>
<trkpt lat="55.986668" lon="26.688040">
<ele>125.190491</ele>
<time>2010-06-20T13:15:58Z</time>
<desc>lat.=55.986668, lon.=26.688040, Alt.=125.190491m. Speed=22.392000m/h.</desc>
<speed>6.220000</speed>
</trkpt>
<trkpt lat="55.986622" lon="26.688000">
<ele>124.792053</ele>
<time>2010-06-20T13:15:59Z</time>
<desc>lat.=55.986622, lon.=26.688000, Alt.=124.792053m. Speed=19.368000m/h.</desc>
<speed>5.380000</speed>
</trkpt>
<trkpt lat="55.986584" lon="26.687965">
<ele>124.608459</ele>
<time>2010-06-20T13:16:00Z</time>
<desc>lat.=55.986584, lon.=26.687965, Alt.=124.608459m. Speed=17.568001m/h.</desc>
<speed>4.880000</speed>
</trkpt>
<trkpt lat="55.986549" lon="26.687935">
<ele>124.354553</ele>
<time>2010-06-20T13:16:01Z</time>
<desc>lat.=55.986549, lon.=26.687935, Alt.=124.354553m. Speed=14.976000m/h.</desc>
<speed>4.160000</speed>
</trkpt>
<trkpt lat="55.986523" lon="26.687906">
<ele>124.432678</ele>
<time>2010-06-20T13:16:02Z</time>
<desc>lat.=55.986523, lon.=26.687906, Alt.=124.432678m. Speed=11.556000m/h.</desc>
<speed>3.210000</speed>
</trkpt>
<trkpt lat="55.986500" lon="26.687868">
<ele>124.405334</ele>
<time>2010-06-20T13:16:03Z</time>
<desc>lat.=55.986500, lon.=26.687868, Alt.=124.405334m. Speed=9.828000m/h.</desc>
<speed>2.730000</speed>
</trkpt>
<trkpt lat="55.986485" lon="26.687840">
<ele>124.049866</ele>
<time>2010-06-20T13:16:04Z</time>
<desc>lat.=55.986485, lon.=26.687840, Alt.=124.049866m. Speed=8.640000m/h.</desc>
<speed>2.400000</speed>
</trkpt>
<trkpt lat="55.986473" lon="26.687826">
<ele>124.006897</ele>
<time>2010-06-20T13:16:05Z</time>
<desc>lat.=55.986473, lon.=26.687826, Alt.=124.006897m. Speed=4.824000m/h.</desc>
<speed>1.340000</speed>
</trkpt>
<trkpt lat="55.986469" lon="26.687822">
<ele>124.051819</ele>
<time>2010-06-20T13:16:06Z</time>
<desc>lat.=55.986469, lon.=26.687822, Alt.=124.051819m. Speed=1.080000m/h.</desc>
<speed>0.300000</speed>
</trkpt>
<trkpt lat="55.986469" lon="26.687820">
<ele>124.083069</ele>
<time>2010-06-20T13:16:07Z</time>
<desc>lat.=55.986469, lon.=26.687820, Alt.=124.083069m. Speed=1.152000m/h.</desc>
<speed>0.320000</speed>
</trkpt>
<trkpt lat="55.986473" lon="26.687819">
<ele>124.012756</ele>
<time>2010-06-20T13:16:08Z</time>
<desc>lat.=55.986473, lon.=26.687819, Alt.=124.012756m. Speed=0.828000m/h.</desc>
<speed>0.230000</speed>
</trkpt>
<trkpt lat="55.986473" lon="26.687824">
<ele>124.151428</ele>
<time>2010-06-20T13:16:09Z</time>
<desc>lat.=55.986473, lon.=26.687824, Alt.=124.151428m. Speed=0.864000m/h.</desc>
<speed>0.240000</speed>
</trkpt>
<trkpt lat="55.986477" lon="26.687824">
<ele>124.055725</ele>
<time>2010-06-20T13:16:10Z</time>
<desc>lat.=55.986477, lon.=26.687824, Alt.=124.055725m. Speed=0.576000m/h.</desc>
<speed>0.160000</speed>
</trkpt>
<trkpt lat="55.986477" lon="26.687826">
<ele>123.952209</ele>
<time>2010-06-20T13:16:11Z</time>
<desc>lat.=55.986477, lon.=26.687826, Alt.=123.952209m. Speed=0.612000m/h.</desc>
<speed>0.170000</speed>
</trkpt>
<trkpt lat="55.986477" lon="26.687826">
<ele>123.879944</ele>
<time>2010-06-20T13:16:12Z</time>
<desc>lat.=55.986477, lon.=26.687826, Alt.=123.879944m. Speed=0.072000m/h.</desc>
<speed>0.020000</speed>
</trkpt>
<trkpt lat="55.986477" lon="26.687826">
<ele>123.835022</ele>
<time>2010-06-20T13:16:13Z</time>
<desc>lat.=55.986477, lon.=26.687826, Alt.=123.835022m. Speed=0.144000m/h.</desc>
<speed>0.040000</speed>
</trkpt>
<trkpt lat="55.986477" lon="26.687826">
<ele>123.795959</ele>
<time>2010-06-20T13:16:14Z</time>
<desc>lat.=55.986477, lon.=26.687826, Alt.=123.795959m. Speed=0.000000m/h.</desc>
<speed>0.000000</speed>
</trkpt>
<trkpt lat="55.986477" lon="26.687826">
<ele>123.772522</ele>
<time>2010-06-20T13:16:15Z</time>
<desc>lat.=55.986477, lon.=26.687826, Alt.=123.772522m. Speed=0.072000m/h.</desc>
<speed>0.020000</speed>
</trkpt>
<trkpt lat="55.986477" lon="26.687826">
<ele>123.760803</ele>
<time>2010-06-20T13:16:16Z</time>
<desc>lat.=55.986477, lon.=26.687826, Alt.=123.760803m. Speed=0.072000m/h.</desc>
<speed>0.020000</speed>
</trkpt>
<trkpt lat="55.986477" lon="26.687826">
<ele>123.741272</ele>
<time>2010-06-20T13:16:17Z</time>
<desc>lat.=55.986477, lon.=26.687826, Alt.=123.741272m. Speed=0.252000m/h.</desc>
<speed>0.070000</speed>
</trkpt>
<trkpt lat="55.986477" lon="26.687824">
<ele>123.704163</ele>
<time>2010-06-20T13:16:18Z</time>
<desc>lat.=55.986477, lon.=26.687824, Alt.=123.704163m. Speed=0.252000m/h.</desc>
<speed>0.070000</speed>
</trkpt>
<trkpt lat="55.986477" lon="26.687824">
<ele>123.661194</ele>
<time>2010-06-20T13:16:19Z</time>
<desc>lat.=55.986477, lon.=26.687824, Alt.=123.661194m. Speed=0.036000m/h.</desc>
<speed>0.010000</speed>
</trkpt>
<trkpt lat="55.986477" lon="26.687824">
<ele>123.624084</ele>
<time>2010-06-20T13:16:20Z</time>
<desc>lat.=55.986477, lon.=26.687824, Alt.=123.624084m. Speed=0.180000m/h.</desc>
<speed>0.050000</speed>
</trkpt>
<trkpt lat="55.986477" lon="26.687824">
<ele>123.577209</ele>
<time>2010-06-20T13:16:21Z</time>
<desc>lat.=55.986477, lon.=26.687824, Alt.=123.577209m. Speed=0.252000m/h.</desc>
<speed>0.070000</speed>
</trkpt>
<trkpt lat="55.986477" lon="26.687822">
<ele>123.532288</ele>
<time>2010-06-20T13:16:22Z</time>
<desc>lat.=55.986477, lon.=26.687822, Alt.=123.532288m. Speed=0.108000m/h.</desc>
<speed>0.030000</speed>
</trkpt>
<trkpt lat="55.986473" lon="26.687822">
<ele>123.518616</ele>
<time>2010-06-20T13:16:23Z</time>
<desc>lat.=55.986473, lon.=26.687822, Alt.=123.518616m. Speed=0.216000m/h.</desc>
<speed>0.060000</speed>
</trkpt>
<trkpt lat="55.986473" lon="26.687822">
<ele>123.510803</ele>
<time>2010-06-20T13:16:24Z</time>
<desc>lat.=55.986473, lon.=26.687822, Alt.=123.510803m. Speed=0.432000m/h.</desc>
<speed>0.120000</speed>
</trkpt>
<trkpt lat="55.986473" lon="26.687820">
<ele>123.493225</ele>
<time>2010-06-20T13:16:25Z</time>
<desc>lat.=55.986473, lon.=26.687820, Alt.=123.493225m. Speed=0.288000m/h.</desc>
<speed>0.080000</speed>
</trkpt>
<trkpt lat="55.986473" lon="26.687820">
<ele>123.475647</ele>
<time>2010-06-20T13:16:26Z</time>
<desc>lat.=55.986473, lon.=26.687820, Alt.=123.475647m. Speed=0.036000m/h.</desc>
<speed>0.010000</speed>
</trkpt>
<trkpt lat="55.986473" lon="26.687820">
<ele>123.454163</ele>
<time>2010-06-20T13:16:27Z</time>
<desc>lat.=55.986473, lon.=26.687820, Alt.=123.454163m. Speed=0.144000m/h.</desc>
<speed>0.040000</speed>
</trkpt>
<trkpt lat="55.986473" lon="26.687820">
<ele>123.430725</ele>
<time>2010-06-20T13:16:28Z</time>
<desc>lat.=55.986473, lon.=26.687820, Alt.=123.430725m. Speed=0.000000m/h.</desc>
<speed>0.000000</speed>
</trkpt>
<trkpt lat="55.986473" lon="26.687820">
<ele>123.399475</ele>
<time>2010-06-20T13:16:29Z</time>
<desc>lat.=55.986473, lon.=26.687820, Alt.=123.399475m. Speed=0.072000m/h.</desc>
<speed>0.020000</speed>
</trkpt>
<trkpt lat="55.986473" lon="26.687820">
<ele>123.356506</ele>
<time>2010-06-20T13:16:30Z</time>
<desc>lat.=55.986473, lon.=26.687820, Alt.=123.356506m. Speed=0.144000m/h.</desc>
<speed>0.040000</speed>
</trkpt>
<trkpt lat="55.986473" lon="26.687820">
<ele>123.329163</ele>
<time>2010-06-20T13:16:31Z</time>
<desc>lat.=55.986473, lon.=26.687820, Alt.=123.329163m. Speed=0.000000m/h.</desc>
<speed>0.000000</speed>
</trkpt>
<trkpt lat="55.986469" lon="26.687820">
<ele>123.301819</ele>
<time>2010-06-20T13:16:32Z</time>
<desc>lat.=55.986469, lon.=26.687820, Alt.=123.301819m. Speed=0.108000m/h.</desc>
<speed>0.030000</speed>
</trkpt>
<trkpt lat="55.986469" lon="26.687819">
<ele>123.262756</ele>
<time>2010-06-20T13:16:33Z</time>
<desc>lat.=55.986469, lon.=26.687819, Alt.=123.262756m. Speed=0.036000m/h.</desc>
<speed>0.010000</speed>
</trkpt>
<trkpt lat="55.986469" lon="26.687819">
<ele>123.229553</ele>
<time>2010-06-20T13:16:34Z</time>
<desc>lat.=55.986469, lon.=26.687819, Alt.=123.229553m. Speed=0.072000m/h.</desc>
<speed>0.020000</speed>
</trkpt>
<trkpt lat="55.986469" lon="26.687819">
<ele>123.198303</ele>
<time>2010-06-20T13:16:35Z</time>
<desc>lat.=55.986469, lon.=26.687819, Alt.=123.198303m. Speed=0.036000m/h.</desc>
<speed>0.010000</speed>
</trkpt>
<trkpt lat="55.986469" lon="26.687819">
<ele>123.174866</ele>
<time>2010-06-20T13:16:36Z</time>
<desc>lat.=55.986469, lon.=26.687819, Alt.=123.174866m. Speed=0.000000m/h.</desc>
<speed>0.000000</speed>
</trkpt>
<trkpt lat="55.986469" lon="26.687819">
<ele>123.149475</ele>
<time>2010-06-20T13:16:37Z</time>
<desc>lat.=55.986469, lon.=26.687819, Alt.=123.149475m. Speed=0.036000m/h.</desc>
<speed>0.010000</speed>
</trkpt>
<trkpt lat="55.986469" lon="26.687819">
<ele>123.127991</ele>
<time>2010-06-20T13:16:38Z</time>
<desc>lat.=55.986469, lon.=26.687819, Alt.=123.127991m. Speed=0.000000m/h.</desc>
<speed>0.000000</speed>
</trkpt>
<trkpt lat="55.986469" lon="26.687819">
<ele>123.110413</ele>
<time>2010-06-20T13:16:39Z</time>
<desc>lat.=55.986469, lon.=26.687819, Alt.=123.110413m. Speed=0.000000m/h.</desc>
<speed>0.000000</speed>
</trkpt>
<trkpt lat="55.986469" lon="26.687819">
<ele>123.094788</ele>
<time>2010-06-20T13:16:40Z</time>
<desc>lat.=55.986469, lon.=26.687819, Alt.=123.094788m. Speed=0.000000m/h.</desc>
<speed>0.000000</speed>
</trkpt>
<trkpt lat="55.986469" lon="26.687819">
<ele>123.081116</ele>
<time>2010-06-20T13:16:41Z</time>
<desc>lat.=55.986469, lon.=26.687819, Alt.=123.081116m. Speed=0.000000m/h.</desc>
<speed>0.000000</speed>
</trkpt>
<trkpt lat="55.986469" lon="26.687819">
<ele>123.057678</ele>
<time>2010-06-20T13:16:42Z</time>
<desc>lat.=55.986469, lon.=26.687819, Alt.=123.057678m. Speed=0.072000m/h.</desc>
<speed>0.020000</speed>
</trkpt>
<trkpt lat="55.986469" lon="26.687819">
<ele>123.051819</ele>
<time>2010-06-20T13:16:43Z</time>
<desc>lat.=55.986469, lon.=26.687819, Alt.=123.051819m. Speed=0.036000m/h.</desc>
<speed>0.010000</speed>
</trkpt>
<trkpt lat="55.986469" lon="26.687819">
<ele>123.049866</ele>
<time>2010-06-20T13:16:44Z</time>
<desc>lat.=55.986469, lon.=26.687819, Alt.=123.049866m. Speed=0.000000m/h.</desc>
<speed>0.000000</speed>
</trkpt>
<trkpt lat="55.986469" lon="26.687819">
<ele>123.049866</ele>
<time>2010-06-20T13:16:45Z</time>
<desc>lat.=55.986469, lon.=26.687819, Alt.=123.049866m. Speed=0.000000m/h.</desc>
<speed>0.000000</speed>
</trkpt>
<trkpt lat="55.986469" lon="26.687819">
<ele>123.047913</ele>
<time>2010-06-20T13:16:46Z</time>
<desc>lat.=55.986469, lon.=26.687819, Alt.=123.047913m. Speed=0.108000m/h.</desc>
<speed>0.030000</speed>
</trkpt>
<trkpt lat="55.986469" lon="26.687819">
<ele>123.049866</ele>
<time>2010-06-20T13:16:47Z</time>
<desc>lat.=55.986469, lon.=26.687819, Alt.=123.049866m. Speed=0.288000m/h.</desc>
<speed>0.080000</speed>
</trkpt>
<trkpt lat="55.986469" lon="26.687819">
<ele>123.051819</ele>
<time>2010-06-20T13:16:48Z</time>
<desc>lat.=55.986469, lon.=26.687819, Alt.=123.051819m. Speed=0.180000m/h.</desc>
<speed>0.050000</speed>
</trkpt>
<trkpt lat="55.986469" lon="26.687819">
<ele>123.053772</ele>
<time>2010-06-20T13:16:49Z</time>
<desc>lat.=55.986469, lon.=26.687819, Alt.=123.053772m. Speed=0.000000m/h.</desc>
<speed>0.000000</speed>
</trkpt>
<trkpt lat="55.986469" lon="26.687819">
<ele>123.053772</ele>
<time>2010-06-20T13:16:50Z</time>
<desc>lat.=55.986469, lon.=26.687819, Alt.=123.053772m. Speed=0.288000m/h.</desc>
<speed>0.080000</speed>
</trkpt>
<trkpt lat="55.986469" lon="26.687819">
<ele>123.051819</ele>
<time>2010-06-20T13:16:51Z</time>
<desc>lat.=55.986469, lon.=26.687819, Alt.=123.051819m. Speed=0.216000m/h.</desc>
<speed>0.060000</speed>
</trkpt>
<trkpt lat="55.986469" lon="26.687819">
<ele>123.047913</ele>
<time>2010-06-20T13:16:52Z</time>
<desc>lat.=55.986469, lon.=26.687819, Alt.=123.047913m. Speed=0.036000m/h.</desc>
<speed>0.010000</speed>
</trkpt>
<trkpt lat="55.986469" lon="26.687819">
<ele>123.049866</ele>
<time>2010-06-20T13:16:53Z</time>
<desc>lat.=55.986469, lon.=26.687819, Alt.=123.049866m. Speed=0.000000m/h.</desc>
<speed>0.000000</speed>
</trkpt>
<trkpt lat="55.986469" lon="26.687819">
<ele>123.051819</ele>
<time>2010-06-20T13:16:54Z</time>
<desc>lat.=55.986469, lon.=26.687819, Alt.=123.051819m. Speed=0.648000m/h.</desc>
<speed>0.180000</speed>
</trkpt>
<trkpt lat="55.986469" lon="26.687819">
<ele>123.053772</ele>
<time>2010-06-20T13:16:55Z</time>
<desc>lat.=55.986469, lon.=26.687819, Alt.=123.053772m. Speed=0.180000m/h.</desc>
<speed>0.050000</speed>
</trkpt>
<trkpt lat="55.986469" lon="26.687819">
<ele>123.040100</ele>
<time>2010-06-20T13:16:56Z</time>
<desc>lat.=55.986469, lon.=26.687819, Alt.=123.040100m. Speed=0.432000m/h.</desc>
<speed>0.120000</speed>
</trkpt>
<trkpt lat="55.986469" lon="26.687819">
<ele>123.044006</ele>
<time>2010-06-20T13:16:57Z</time>
<desc>lat.=55.986469, lon.=26.687819, Alt.=123.044006m. Speed=0.144000m/h.</desc>
<speed>0.040000</speed>
</trkpt>
<trkpt lat="55.986469" lon="26.687819">
<ele>123.042053</ele>
<time>2010-06-20T13:16:58Z</time>
<desc>lat.=55.986469, lon.=26.687819, Alt.=123.042053m. Speed=0.396000m/h.</desc>
<speed>0.110000</speed>
</trkpt>
<trkpt lat="55.986469" lon="26.687819">
<ele>123.044006</ele>
<time>2010-06-20T13:16:59Z</time>
<desc>lat.=55.986469, lon.=26.687819, Alt.=123.044006m. Speed=0.000000m/h.</desc>
<speed>0.000000</speed>
</trkpt>
<trkpt lat="55.986469" lon="26.687819">
<ele>123.049866</ele>
<time>2010-06-20T13:17:00Z</time>
<desc>lat.=55.986469, lon.=26.687819, Alt.=123.049866m. Speed=0.036000m/h.</desc>
<speed>0.010000</speed>
</trkpt>
<trkpt lat="55.986469" lon="26.687819">
<ele>123.051819</ele>
<time>2010-06-20T13:17:01Z</time>
<desc>lat.=55.986469, lon.=26.687819, Alt.=123.051819m. Speed=0.000000m/h.</desc>
<speed>0.000000</speed>
</trkpt>
<trkpt lat="55.986469" lon="26.687819">
<ele>123.053772</ele>
<time>2010-06-20T13:17:02Z</time>
<desc>lat.=55.986469, lon.=26.687819, Alt.=123.053772m. Speed=0.036000m/h.</desc>
<speed>0.010000</speed>
</trkpt>
<trkpt lat="55.986469" lon="26.687819">
<ele>123.055725</ele>
<time>2010-06-20T13:17:03Z</time>
<desc>lat.=55.986469, lon.=26.687819, Alt.=123.055725m. Speed=0.396000m/h.</desc>
<speed>0.110000</speed>
</trkpt>
<trkpt lat="55.986469" lon="26.687817">
<ele>123.057678</ele>
<time>2010-06-20T13:17:04Z</time>
<desc>lat.=55.986469, lon.=26.687817, Alt.=123.057678m. Speed=0.216000m/h.</desc>
<speed>0.060000</speed>
</trkpt>
<trkpt lat="55.986469" lon="26.687819">
<ele>123.057678</ele>
<time>2010-06-20T13:17:05Z</time>
<desc>lat.=55.986469, lon.=26.687819, Alt.=123.057678m. Speed=0.036000m/h.</desc>
<speed>0.010000</speed>
</trkpt>
<trkpt lat="55.986469" lon="26.687819">
<ele>123.061584</ele>
<time>2010-06-20T13:17:06Z</time>
<desc>lat.=55.986469, lon.=26.687819, Alt.=123.061584m. Speed=0.288000m/h.</desc>
<speed>0.080000</speed>
</trkpt>
<trkpt lat="55.986469" lon="26.687819">
<ele>123.057678</ele>
<time>2010-06-20T13:17:07Z</time>
<desc>lat.=55.986469, lon.=26.687819, Alt.=123.057678m. Speed=0.072000m/h.</desc>
<speed>0.020000</speed>
</trkpt>
<trkpt lat="55.986469" lon="26.687819">
<ele>123.051819</ele>
<time>2010-06-20T13:17:08Z</time>
<desc>lat.=55.986469, lon.=26.687819, Alt.=123.051819m. Speed=0.432000m/h.</desc>
<speed>0.120000</speed>
</trkpt>
<trkpt lat="55.986469" lon="26.687817">
<ele>123.051819</ele>
<time>2010-06-20T13:17:09Z</time>
<desc>lat.=55.986469, lon.=26.687817, Alt.=123.051819m. Speed=0.108000m/h.</desc>
<speed>0.030000</speed>
</trkpt>
<trkpt lat="55.986469" lon="26.687817">
<ele>123.049866</ele>
<time>2010-06-20T13:17:10Z</time>
<desc>lat.=55.986469, lon.=26.687817, Alt.=123.049866m. Speed=0.216000m/h.</desc>
<speed>0.060000</speed>
</trkpt>
<trkpt lat="55.986469" lon="26.687817">
<ele>123.053772</ele>
<time>2010-06-20T13:17:11Z</time>
<desc>lat.=55.986469, lon.=26.687817, Alt.=123.053772m. Speed=0.036000m/h.</desc>
<speed>0.010000</speed>
</trkpt>
<trkpt lat="55.986469" lon="26.687817">
<ele>123.053772</ele>
<time>2010-06-20T13:17:12Z</time>
<desc>lat.=55.986469, lon.=26.687817, Alt.=123.053772m. Speed=0.000000m/h.</desc>
<speed>0.000000</speed>
</trkpt>
<trkpt lat="55.986469" lon="26.687817">
<ele>123.053772</ele>
<time>2010-06-20T13:17:13Z</time>
<desc>lat.=55.986469, lon.=26.687817, Alt.=123.053772m. Speed=0.000000m/h.</desc>
<speed>0.000000</speed>
</trkpt>
<trkpt lat="55.986469" lon="26.687817">
<ele>123.055725</ele>
<time>2010-06-20T13:17:14Z</time>
<desc>lat.=55.986469, lon.=26.687817, Alt.=123.055725m. Speed=0.036000m/h.</desc>
<speed>0.010000</speed>
</trkpt>
<trkpt lat="55.986469" lon="26.687817">
<ele>123.059631</ele>
<time>2010-06-20T13:17:15Z</time>
<desc>lat.=55.986469, lon.=26.687817, Alt.=123.059631m. Speed=0.324000m/h.</desc>
<speed>0.090000</speed>
</trkpt>
<trkpt lat="55.986469" lon="26.687817">
<ele>123.063538</ele>
<time>2010-06-20T13:17:16Z</time>
<desc>lat.=55.986469, lon.=26.687817, Alt.=123.063538m. Speed=0.072000m/h.</desc>
<speed>0.020000</speed>
</trkpt>
<trkpt lat="55.986469" lon="26.687819">
<ele>123.069397</ele>
<time>2010-06-20T13:17:17Z</time>
<desc>lat.=55.986469, lon.=26.687819, Alt.=123.069397m. Speed=0.144000m/h.</desc>
<speed>0.040000</speed>
</trkpt>
<trkpt lat="55.986469" lon="26.687819">
<ele>123.071350</ele>
<time>2010-06-20T13:17:18Z</time>
<desc>lat.=55.986469, lon.=26.687819, Alt.=123.071350m. Speed=0.144000m/h.</desc>
<speed>0.040000</speed>
</trkpt>
<trkpt lat="55.986469" lon="26.687819">
<ele>123.075256</ele>
<time>2010-06-20T13:17:19Z</time>
<desc>lat.=55.986469, lon.=26.687819, Alt.=123.075256m. Speed=0.108000m/h.</desc>
<speed>0.030000</speed>
</trkpt>
<trkpt lat="55.986469" lon="26.687817">
<ele>123.081116</ele>
<time>2010-06-20T13:17:20Z</time>
<desc>lat.=55.986469, lon.=26.687817, Alt.=123.081116m. Speed=0.216000m/h.</desc>
<speed>0.060000</speed>
</trkpt>
<trkpt lat="55.986469" lon="26.687817">
<ele>123.090881</ele>
<time>2010-06-20T13:17:21Z</time>
<desc>lat.=55.986469, lon.=26.687817, Alt.=123.090881m. Speed=1.836000m/h.</desc>
<speed>0.510000</speed>
</trkpt>
<trkpt lat="55.986465" lon="26.687809">
<ele>123.108459</ele>
<time>2010-06-20T13:17:22Z</time>
<desc>lat.=55.986465, lon.=26.687809, Alt.=123.108459m. Speed=4.212000m/h.</desc>
<speed>1.170000</speed>
</trkpt>
<trkpt lat="55.986450" lon="26.687805">
<ele>123.354553</ele>
<time>2010-06-20T13:17:23Z</time>
<desc>lat.=55.986450, lon.=26.687805, Alt.=123.354553m. Speed=5.544000m/h.</desc>
<speed>1.540000</speed>
</trkpt>
<trkpt lat="55.986435" lon="26.687798">
<ele>123.661194</ele>
<time>2010-06-20T13:17:24Z</time>
<desc>lat.=55.986435, lon.=26.687798, Alt.=123.661194m. Speed=6.408000m/h.</desc>
<speed>1.780000</speed>
</trkpt>
<trkpt lat="55.986412" lon="26.687782">
<ele>123.985413</ele>
<time>2010-06-20T13:17:25Z</time>
<desc>lat.=55.986412, lon.=26.687782, Alt.=123.985413m. Speed=7.632000m/h.</desc>
<speed>2.120000</speed>
</trkpt>
<trkpt lat="55.986393" lon="26.687769">
<ele>124.401428</ele>
<time>2010-06-20T13:17:26Z</time>
<desc>lat.=55.986393, lon.=26.687769, Alt.=124.401428m. Speed=7.344000m/h.</desc>
<speed>2.040000</speed>
</trkpt>
<trkpt lat="55.986370" lon="26.687756">
<ele>125.026428</ele>
<time>2010-06-20T13:17:27Z</time>
<desc>lat.=55.986370, lon.=26.687756, Alt.=125.026428m. Speed=8.748000m/h.</desc>
<speed>2.430000</speed>
</trkpt>
<trkpt lat="55.986343" lon="26.687735">
<ele>125.077209</ele>
<time>2010-06-20T13:17:28Z</time>
<desc>lat.=55.986343, lon.=26.687735, Alt.=125.077209m. Speed=11.016000m/h.</desc>
<speed>3.060000</speed>
</trkpt>
<trkpt lat="55.986320" lon="26.687714">
<ele>124.872131</ele>
<time>2010-06-20T13:17:29Z</time>
<desc>lat.=55.986320, lon.=26.687714, Alt.=124.872131m. Speed=10.404000m/h.</desc>
<speed>2.890000</speed>
</trkpt>
<trkpt lat="55.986294" lon="26.687693">
<ele>124.813538</ele>
<time>2010-06-20T13:17:30Z</time>
<desc>lat.=55.986294, lon.=26.687693, Alt.=124.813538m. Speed=11.088000m/h.</desc>
<speed>3.080000</speed>
</trkpt>
<trkpt lat="55.986263" lon="26.687670">
<ele>124.639709</ele>
<time>2010-06-20T13:17:31Z</time>
<desc>lat.=55.986263, lon.=26.687670, Alt.=124.639709m. Speed=12.528000m/h.</desc>
<speed>3.480000</speed>
</trkpt>
<trkpt lat="55.986229" lon="26.687645">
<ele>124.264709</ele>
<time>2010-06-20T13:17:32Z</time>
<desc>lat.=55.986229, lon.=26.687645, Alt.=124.264709m. Speed=13.464000m/h.</desc>
<speed>3.740000</speed>
</trkpt>
<trkpt lat="55.986198" lon="26.687624">
<ele>125.555725</ele>
<time>2010-06-20T13:17:33Z</time>
<desc>lat.=55.986198, lon.=26.687624, Alt.=125.555725m. Speed=14.256000m/h.</desc>
<speed>3.960000</speed>
</trkpt>
<trkpt lat="55.986164" lon="26.687597">
<ele>125.721741</ele>
<time>2010-06-20T13:17:34Z</time>
<desc>lat.=55.986164, lon.=26.687597, Alt.=125.721741m. Speed=13.860000m/h.</desc>
<speed>3.850000</speed>
</trkpt>
<trkpt lat="55.986130" lon="26.687565">
<ele>125.702209</ele>
<time>2010-06-20T13:17:35Z</time>
<desc>lat.=55.986130, lon.=26.687565, Alt.=125.702209m. Speed=14.472000m/h.</desc>
<speed>4.020000</speed>
</trkpt>
<trkpt lat="55.986099" lon="26.687536">
<ele>125.903381</ele>
<time>2010-06-20T13:17:36Z</time>
<desc>lat.=55.986099, lon.=26.687536, Alt.=125.903381m. Speed=14.292000m/h.</desc>
<speed>3.970000</speed>
</trkpt>
<trkpt lat="55.986069" lon="26.687510">
<ele>126.004944</ele>
<time>2010-06-20T13:17:37Z</time>
<desc>lat.=55.986069, lon.=26.687510, Alt.=126.004944m. Speed=13.320000m/h.</desc>
<speed>3.700000</speed>
</trkpt>
<trkpt lat="55.986038" lon="26.687485">
<ele>126.389709</ele>
<time>2010-06-20T13:17:38Z</time>
<desc>lat.=55.986038, lon.=26.687485, Alt.=126.389709m. Speed=13.968000m/h.</desc>
<speed>3.880000</speed>
</trkpt>
<trkpt lat="55.986004" lon="26.687454">
<ele>126.532288</ele>
<time>2010-06-20T13:17:39Z</time>
<desc>lat.=55.986004, lon.=26.687454, Alt.=126.532288m. Speed=14.580000m/h.</desc>
<speed>4.050000</speed>
</trkpt>
<trkpt lat="55.985970" lon="26.687420">
<ele>126.786194</ele>
<time>2010-06-20T13:17:40Z</time>
<desc>lat.=55.985970, lon.=26.687420, Alt.=126.786194m. Speed=15.300000m/h.</desc>
<speed>4.250000</speed>
</trkpt>
<trkpt lat="55.985931" lon="26.687386">
<ele>126.772522</ele>
<time>2010-06-20T13:17:41Z</time>
<desc>lat.=55.985931, lon.=26.687386, Alt.=126.772522m. Speed=15.804000m/h.</desc>
<speed>4.390000</speed>
</trkpt>
<trkpt lat="55.985909" lon="26.687353">
<ele>127.637756</ele>
<time>2010-06-20T13:17:42Z</time>
<desc>lat.=55.985909, lon.=26.687353, Alt.=127.637756m. Speed=12.708000m/h.</desc>
<speed>3.530000</speed>
</trkpt>
<trkpt lat="55.985874" lon="26.687315">
<ele>127.993225</ele>
<time>2010-06-20T13:17:43Z</time>
<desc>lat.=55.985874, lon.=26.687315, Alt.=127.993225m. Speed=17.712000m/h.</desc>
<speed>4.920000</speed>
</trkpt>
<trkpt lat="55.985825" lon="26.687279">
<ele>127.225647</ele>
<time>2010-06-20T13:17:44Z</time>
<desc>lat.=55.985825, lon.=26.687279, Alt.=127.225647m. Speed=20.340000m/h.</desc>
<speed>5.650000</speed>
</trkpt>
<trkpt lat="55.985775" lon="26.687241">
<ele>127.165100</ele>
<time>2010-06-20T13:17:45Z</time>
<desc>lat.=55.985775, lon.=26.687241, Alt.=127.165100m. Speed=20.520000m/h.</desc>
<speed>5.700000</speed>
</trkpt>
<trkpt lat="55.985729" lon="26.687201">
<ele>127.713928</ele>
<time>2010-06-20T13:17:46Z</time>
<desc>lat.=55.985729, lon.=26.687201, Alt.=127.713928m. Speed=21.059999m/h.</desc>
<speed>5.850000</speed>
</trkpt>
<trkpt lat="55.985680" lon="26.687162">
<ele>127.713928</ele>
<time>2010-06-20T13:17:47Z</time>
<desc>lat.=55.985680, lon.=26.687162, Alt.=127.713928m. Speed=20.232000m/h.</desc>
<speed>5.620000</speed>
</trkpt>
<trkpt lat="55.985630" lon="26.687120">
<ele>127.780334</ele>
<time>2010-06-20T13:17:48Z</time>
<desc>lat.=55.985630, lon.=26.687120, Alt.=127.780334m. Speed=20.879999m/h.</desc>
<speed>5.800000</speed>
</trkpt>
<trkpt lat="55.985588" lon="26.687080">
<ele>127.903381</ele>
<time>2010-06-20T13:17:49Z</time>
<desc>lat.=55.985588, lon.=26.687080, Alt.=127.903381m. Speed=20.232000m/h.</desc>
<speed>5.620000</speed>
</trkpt>
<trkpt lat="55.985538" lon="26.687040">
<ele>127.479553</ele>
<time>2010-06-20T13:17:50Z</time>
<desc>lat.=55.985538, lon.=26.687040, Alt.=127.479553m. Speed=20.016001m/h.</desc>
<speed>5.560000</speed>
</trkpt>
<trkpt lat="55.985489" lon="26.686993">
<ele>127.307678</ele>
<time>2010-06-20T13:17:51Z</time>
<desc>lat.=55.985489, lon.=26.686993, Alt.=127.307678m. Speed=19.511999m/h.</desc>
<speed>5.420000</speed>
</trkpt>
<trkpt lat="55.985443" lon="26.686954">
<ele>127.602600</ele>
<time>2010-06-20T13:17:52Z</time>
<desc>lat.=55.985443, lon.=26.686954, Alt.=127.602600m. Speed=19.548000m/h.</desc>
<speed>5.430000</speed>
</trkpt>
<trkpt lat="55.985397" lon="26.686913">
<ele>127.874084</ele>
<time>2010-06-20T13:17:53Z</time>
<desc>lat.=55.985397, lon.=26.686913, Alt.=127.874084m. Speed=19.476000m/h.</desc>
<speed>5.410000</speed>
</trkpt>
<trkpt lat="55.985348" lon="26.686872">
<ele>127.879944</ele>
<time>2010-06-20T13:17:54Z</time>
<desc>lat.=55.985348, lon.=26.686872, Alt.=127.879944m. Speed=20.879999m/h.</desc>
<speed>5.800000</speed>
</trkpt>
<trkpt lat="55.985298" lon="26.686829">
<ele>126.885803</ele>
<time>2010-06-20T13:17:55Z</time>
<desc>lat.=55.985298, lon.=26.686829, Alt.=126.885803m. Speed=20.916000m/h.</desc>
<speed>5.810000</speed>
</trkpt>
<trkpt lat="55.985249" lon="26.686789">
<ele>126.637756</ele>
<time>2010-06-20T13:17:56Z</time>
<desc>lat.=55.985249, lon.=26.686789, Alt.=126.637756m. Speed=21.600000m/h.</desc>
<speed>6.000000</speed>
</trkpt>
<trkpt lat="55.985191" lon="26.686745">
<ele>126.213928</ele>
<time>2010-06-20T13:17:57Z</time>
<desc>lat.=55.985191, lon.=26.686745, Alt.=126.213928m. Speed=24.228001m/h.</desc>
<speed>6.730000</speed>
</trkpt>
<trkpt lat="55.985134" lon="26.686693">
<ele>126.194397</ele>
<time>2010-06-20T13:17:58Z</time>
<desc>lat.=55.985134, lon.=26.686693, Alt.=126.194397m. Speed=25.452000m/h.</desc>
<speed>7.070000</speed>
</trkpt>
<trkpt lat="55.985073" lon="26.686638">
<ele>125.678772</ele>
<time>2010-06-20T13:17:59Z</time>
<desc>lat.=55.985073, lon.=26.686638, Alt.=125.678772m. Speed=25.955999m/h.</desc>
<speed>7.210000</speed>
</trkpt>
<trkpt lat="55.985004" lon="26.686579">
<ele>125.116272</ele>
<time>2010-06-20T13:18:00Z</time>
<desc>lat.=55.985004, lon.=26.686579, Alt.=125.116272m. Speed=27.576000m/h.</desc>
<speed>7.660000</speed>
</trkpt>
<trkpt lat="55.984940" lon="26.686518">
<ele>125.415100</ele>
<time>2010-06-20T13:18:01Z</time>
<desc>lat.=55.984940, lon.=26.686518, Alt.=125.415100m. Speed=27.143999m/h.</desc>
<speed>7.540000</speed>
</trkpt>
<trkpt lat="55.984871" lon="26.686466">
<ele>125.284241</ele>
<time>2010-06-20T13:18:02Z</time>
<desc>lat.=55.984871, lon.=26.686466, Alt.=125.284241m. Speed=29.879999m/h.</desc>
<speed>8.300000</speed>
</trkpt>
<trkpt lat="55.984806" lon="26.686413">
<ele>125.983459</ele>
<time>2010-06-20T13:18:03Z</time>
<desc>lat.=55.984806, lon.=26.686413, Alt.=125.983459m. Speed=27.936001m/h.</desc>
<speed>7.760000</speed>
</trkpt>
<trkpt lat="55.984741" lon="26.686356">
<ele>126.051819</ele>
<time>2010-06-20T13:18:04Z</time>
<desc>lat.=55.984741, lon.=26.686356, Alt.=126.051819m. Speed=29.195999m/h.</desc>
<speed>8.110000</speed>
</trkpt>
<trkpt lat="55.984673" lon="26.686296">
<ele>125.778381</ele>
<time>2010-06-20T13:18:05Z</time>
<desc>lat.=55.984673, lon.=26.686296, Alt.=125.778381m. Speed=30.312000m/h.</desc>
<speed>8.420000</speed>
</trkpt>
<trkpt lat="55.984604" lon="26.686237">
<ele>125.733459</ele>
<time>2010-06-20T13:18:06Z</time>
<desc>lat.=55.984604, lon.=26.686237, Alt.=125.733459m. Speed=31.032000m/h.</desc>
<speed>8.620000</speed>
</trkpt>
<trkpt lat="55.984531" lon="26.686182">
<ele>125.739319</ele>
<time>2010-06-20T13:18:07Z</time>
<desc>lat.=55.984531, lon.=26.686182, Alt.=125.739319m. Speed=30.312000m/h.</desc>
<speed>8.420000</speed>
</trkpt>
<trkpt lat="55.984463" lon="26.686125">
<ele>125.778381</ele>
<time>2010-06-20T13:18:08Z</time>
<desc>lat.=55.984463, lon.=26.686125, Alt.=125.778381m. Speed=29.808001m/h.</desc>
<speed>8.280000</speed>
</trkpt>
<trkpt lat="55.984394" lon="26.686064">
<ele>125.651428</ele>
<time>2010-06-20T13:18:09Z</time>
<desc>lat.=55.984394, lon.=26.686064, Alt.=125.651428m. Speed=30.924000m/h.</desc>
<speed>8.590000</speed>
</trkpt>
<trkpt lat="55.984318" lon="26.685995">
<ele>125.081116</ele>
<time>2010-06-20T13:18:10Z</time>
<desc>lat.=55.984318, lon.=26.685995, Alt.=125.081116m. Speed=31.068001m/h.</desc>
<speed>8.630000</speed>
</trkpt>
<trkpt lat="55.984245" lon="26.685932">
<ele>124.596741</ele>
<time>2010-06-20T13:18:11Z</time>
<desc>lat.=55.984245, lon.=26.685932, Alt.=124.596741m. Speed=31.680000m/h.</desc>
<speed>8.800000</speed>
</trkpt>
<trkpt lat="55.984169" lon="26.685867">
<ele>123.991272</ele>
<time>2010-06-20T13:18:12Z</time>
<desc>lat.=55.984169, lon.=26.685867, Alt.=123.991272m. Speed=32.256001m/h.</desc>
<speed>8.960000</speed>
</trkpt>
<trkpt lat="55.984093" lon="26.685799">
<ele>123.321350</ele>
<time>2010-06-20T13:18:13Z</time>
<desc>lat.=55.984093, lon.=26.685799, Alt.=123.321350m. Speed=33.012001m/h.</desc>
<speed>9.170000</speed>
</trkpt>
<trkpt lat="55.984016" lon="26.685730">
<ele>122.698303</ele>
<time>2010-06-20T13:18:14Z</time>
<desc>lat.=55.984016, lon.=26.685730, Alt.=122.698303m. Speed=33.660000m/h.</desc>
<speed>9.350000</speed>
</trkpt>
<trkpt lat="55.983940" lon="26.685663">
<ele>122.479553</ele>
<time>2010-06-20T13:18:15Z</time>
<desc>lat.=55.983940, lon.=26.685663, Alt.=122.479553m. Speed=33.948002m/h.</desc>
<speed>9.430001</speed>
</trkpt>
<trkpt lat="55.983864" lon="26.685591">
<ele>121.844788</ele>
<time>2010-06-20T13:18:16Z</time>
<desc>lat.=55.983864, lon.=26.685591, Alt.=121.844788m. Speed=34.452000m/h.</desc>
<speed>9.570000</speed>
</trkpt>
<trkpt lat="55.983788" lon="26.685520">
<ele>121.376038</ele>
<time>2010-06-20T13:18:17Z</time>
<desc>lat.=55.983788, lon.=26.685520, Alt.=121.376038m. Speed=34.487999m/h.</desc>
<speed>9.580000</speed>
</trkpt>
<trkpt lat="55.983707" lon="26.685453">
<ele>121.297913</ele>
<time>2010-06-20T13:18:18Z</time>
<desc>lat.=55.983707, lon.=26.685453, Alt.=121.297913m. Speed=35.028000m/h.</desc>
<speed>9.730000</speed>
</trkpt>
<trkpt lat="55.983631" lon="26.685385">
<ele>121.114319</ele>
<time>2010-06-20T13:18:19Z</time>
<desc>lat.=55.983631, lon.=26.685385, Alt.=121.114319m. Speed=35.316002m/h.</desc>
<speed>9.810001</speed>
</trkpt>
<trkpt lat="55.983547" lon="26.685314">
<ele>121.192444</ele>
<time>2010-06-20T13:18:20Z</time>
<desc>lat.=55.983547, lon.=26.685314, Alt.=121.192444m. Speed=36.108002m/h.</desc>
<speed>10.030000</speed>
</trkpt>
<trkpt lat="55.983471" lon="26.685242">
<ele>120.817444</ele>
<time>2010-06-20T13:18:21Z</time>
<desc>lat.=55.983471, lon.=26.685242, Alt.=120.817444m. Speed=36.108002m/h.</desc>
<speed>10.030000</speed>
</trkpt>
<trkpt lat="55.983387" lon="26.685169">
<ele>120.672913</ele>
<time>2010-06-20T13:18:22Z</time>
<desc>lat.=55.983387, lon.=26.685169, Alt.=120.672913m. Speed=36.216000m/h.</desc>
<speed>10.060000</speed>
</trkpt>
<trkpt lat="55.983307" lon="26.685097">
<ele>120.561584</ele>
<time>2010-06-20T13:18:23Z</time>
<desc>lat.=55.983307, lon.=26.685097, Alt.=120.561584m. Speed=36.540001m/h.</desc>
<speed>10.150000</speed>
</trkpt>
<trkpt lat="55.983227" lon="26.685026">
<ele>120.499084</ele>
<time>2010-06-20T13:18:24Z</time>
<desc>lat.=55.983227, lon.=26.685026, Alt.=120.499084m. Speed=36.504002m/h.</desc>
<speed>10.140000</speed>
</trkpt>
<trkpt lat="55.983143" lon="26.684956">
<ele>120.280334</ele>
<time>2010-06-20T13:18:25Z</time>
<desc>lat.=55.983143, lon.=26.684956, Alt.=120.280334m. Speed=36.756001m/h.</desc>
<speed>10.210000</speed>
</trkpt>
<trkpt lat="55.983059" lon="26.684883">
<ele>119.983459</ele>
<time>2010-06-20T13:18:26Z</time>
<desc>lat.=55.983059, lon.=26.684883, Alt.=119.983459m. Speed=36.720001m/h.</desc>
<speed>10.200000</speed>
</trkpt>
<trkpt lat="55.982975" lon="26.684809">
<ele>119.915100</ele>
<time>2010-06-20T13:18:27Z</time>
<desc>lat.=55.982975, lon.=26.684809, Alt.=119.915100m. Speed=37.152000m/h.</desc>
<speed>10.320000</speed>
</trkpt>
<trkpt lat="55.982891" lon="26.684734">
<ele>119.825256</ele>
<time>2010-06-20T13:18:28Z</time>
<desc>lat.=55.982891, lon.=26.684734, Alt.=119.825256m. Speed=37.403999m/h.</desc>
<speed>10.390000</speed>
</trkpt>
<trkpt lat="55.982807" lon="26.684660">
<ele>120.088928</ele>
<time>2010-06-20T13:18:29Z</time>
<desc>lat.=55.982807, lon.=26.684660, Alt.=120.088928m. Speed=35.352001m/h.</desc>
<speed>9.820000</speed>
</trkpt>
<trkpt lat="55.982727" lon="26.684586">
<ele>120.442444</ele>
<time>2010-06-20T13:18:30Z</time>
<desc>lat.=55.982727, lon.=26.684586, Alt.=120.442444m. Speed=37.619999m/h.</desc>
<speed>10.450000</speed>
</trkpt>
<trkpt lat="55.982639" lon="26.684509">
<ele>120.085022</ele>
<time>2010-06-20T13:18:31Z</time>
<desc>lat.=55.982639, lon.=26.684509, Alt.=120.085022m. Speed=38.231998m/h.</desc>
<speed>10.620000</speed>
</trkpt>
<trkpt lat="55.982548" lon="26.684435">
<ele>119.868225</ele>
<time>2010-06-20T13:18:32Z</time>
<desc>lat.=55.982548, lon.=26.684435, Alt.=119.868225m. Speed=38.268002m/h.</desc>
<speed>10.630000</speed>
</trkpt>
<trkpt lat="55.982460" lon="26.684359">
<ele>119.696350</ele>
<time>2010-06-20T13:18:33Z</time>
<desc>lat.=55.982460, lon.=26.684359, Alt.=119.696350m. Speed=39.419998m/h.</desc>
<speed>10.949999</speed>
</trkpt>
<trkpt lat="55.982368" lon="26.684280">
<ele>119.567444</ele>
<time>2010-06-20T13:18:34Z</time>
<desc>lat.=55.982368, lon.=26.684280, Alt.=119.567444m. Speed=39.348000m/h.</desc>
<speed>10.930000</speed>
</trkpt>
<trkpt lat="55.982277" lon="26.684200">
<ele>119.399475</ele>
<time>2010-06-20T13:18:35Z</time>
<desc>lat.=55.982277, lon.=26.684200, Alt.=119.399475m. Speed=39.708000m/h.</desc>
<speed>11.030000</speed>
</trkpt>
<trkpt lat="55.982189" lon="26.684116">
<ele>119.127991</ele>
<time>2010-06-20T13:18:36Z</time>
<desc>lat.=55.982189, lon.=26.684116, Alt.=119.127991m. Speed=39.456001m/h.</desc>
<speed>10.960000</speed>
</trkpt>
<trkpt lat="55.982101" lon="26.684038">
<ele>119.102600</ele>
<time>2010-06-20T13:18:37Z</time>
<desc>lat.=55.982101, lon.=26.684038, Alt.=119.102600m. Speed=39.419998m/h.</desc>
<speed>10.949999</speed>
</trkpt>
<trkpt lat="55.982014" lon="26.683962">
<ele>119.200256</ele>
<time>2010-06-20T13:18:38Z</time>
<desc>lat.=55.982014, lon.=26.683962, Alt.=119.200256m. Speed=40.068001m/h.</desc>
<speed>11.130000</speed>
</trkpt>
<trkpt lat="55.981922" lon="26.683882">
<ele>119.143616</ele>
<time>2010-06-20T13:18:39Z</time>
<desc>lat.=55.981922, lon.=26.683882, Alt.=119.143616m. Speed=40.751999m/h.</desc>
<speed>11.320000</speed>
</trkpt>
<trkpt lat="55.981827" lon="26.683800">
<ele>118.770569</ele>
<time>2010-06-20T13:18:40Z</time>
<desc>lat.=55.981827, lon.=26.683800, Alt.=118.770569m. Speed=41.183998m/h.</desc>
<speed>11.439999</speed>
</trkpt>
<trkpt lat="55.981739" lon="26.683723">
<ele>119.090881</ele>
<time>2010-06-20T13:18:41Z</time>
<desc>lat.=55.981739, lon.=26.683723, Alt.=119.090881m. Speed=40.355999m/h.</desc>
<speed>11.210000</speed>
</trkpt>
<trkpt lat="55.981644" lon="26.683641">
<ele>119.081116</ele>
<time>2010-06-20T13:18:42Z</time>
<desc>lat.=55.981644, lon.=26.683641, Alt.=119.081116m. Speed=41.688000m/h.</desc>
<speed>11.580000</speed>
</trkpt>
<trkpt lat="55.981552" lon="26.683558">
<ele>119.377991</ele>
<time>2010-06-20T13:18:43Z</time>
<desc>lat.=55.981552, lon.=26.683558, Alt.=119.377991m. Speed=41.220001m/h.</desc>
<speed>11.450000</speed>
</trkpt>
<trkpt lat="55.981457" lon="26.683477">
<ele>119.448303</ele>
<time>2010-06-20T13:18:44Z</time>
<desc>lat.=55.981457, lon.=26.683477, Alt.=119.448303m. Speed=41.832001m/h.</desc>
<speed>11.620000</speed>
</trkpt>
<trkpt lat="55.981365" lon="26.683395">
<ele>119.604553</ele>
<time>2010-06-20T13:18:45Z</time>
<desc>lat.=55.981365, lon.=26.683395, Alt.=119.604553m. Speed=41.400002m/h.</desc>
<speed>11.500000</speed>
</trkpt>
<trkpt lat="55.981270" lon="26.683311">
<ele>119.528381</ele>
<time>2010-06-20T13:18:46Z</time>
<desc>lat.=55.981270, lon.=26.683311, Alt.=119.528381m. Speed=42.984001m/h.</desc>
<speed>11.940000</speed>
</trkpt>
<trkpt lat="55.981174" lon="26.683228">
<ele>119.590881</ele>
<time>2010-06-20T13:18:47Z</time>
<desc>lat.=55.981174, lon.=26.683228, Alt.=119.590881m. Speed=41.868000m/h.</desc>
<speed>11.630000</speed>
</trkpt>
<trkpt lat="55.981075" lon="26.683146">
<ele>119.526428</ele>
<time>2010-06-20T13:18:48Z</time>
<desc>lat.=55.981075, lon.=26.683146, Alt.=119.526428m. Speed=43.020000m/h.</desc>
<speed>11.950000</speed>
</trkpt>
<trkpt lat="55.980980" lon="26.683062">
<ele>119.835022</ele>
<time>2010-06-20T13:18:49Z</time>
<desc>lat.=55.980980, lon.=26.683062, Alt.=119.835022m. Speed=41.832001m/h.</desc>
<speed>11.620000</speed>
</trkpt>
<trkpt lat="55.980885" lon="26.682980">
<ele>119.999084</ele>
<time>2010-06-20T13:18:50Z</time>
<desc>lat.=55.980885, lon.=26.682980, Alt.=119.999084m. Speed=42.084000m/h.</desc>
<speed>11.690000</speed>
</trkpt>
<trkpt lat="55.980793" lon="26.682896">
<ele>120.221741</ele>
<time>2010-06-20T13:18:51Z</time>
<desc>lat.=55.980793, lon.=26.682896, Alt.=120.221741m. Speed=41.507999m/h.</desc>
<speed>11.530000</speed>
</trkpt>
<trkpt lat="55.980698" lon="26.682812">
<ele>120.213928</ele>
<time>2010-06-20T13:18:52Z</time>
<desc>lat.=55.980698, lon.=26.682812, Alt.=120.213928m. Speed=43.056000m/h.</desc>
<speed>11.960000</speed>
</trkpt>
<trkpt lat="55.980602" lon="26.682728">
<ele>120.385803</ele>
<time>2010-06-20T13:18:53Z</time>
<desc>lat.=55.980602, lon.=26.682728, Alt.=120.385803m. Speed=41.723999m/h.</desc>
<speed>11.590000</speed>
</trkpt>
<trkpt lat="55.980503" lon="26.682648">
<ele>120.544006</ele>
<time>2010-06-20T13:18:54Z</time>
<desc>lat.=55.980503, lon.=26.682648, Alt.=120.544006m. Speed=43.056000m/h.</desc>
<speed>11.960000</speed>
</trkpt>
<trkpt lat="55.980408" lon="26.682568">
<ele>120.514709</ele>
<time>2010-06-20T13:18:55Z</time>
<desc>lat.=55.980408, lon.=26.682568, Alt.=120.514709m. Speed=41.616001m/h.</desc>
<speed>11.560000</speed>
</trkpt>
<trkpt lat="55.980316" lon="26.682482">
<ele>120.504944</ele>
<time>2010-06-20T13:18:56Z</time>
<desc>lat.=55.980316, lon.=26.682482, Alt.=120.504944m. Speed=40.824001m/h.</desc>
<speed>11.340000</speed>
</trkpt>
<trkpt lat="55.980225" lon="26.682394">
<ele>120.805725</ele>
<time>2010-06-20T13:18:57Z</time>
<desc>lat.=55.980225, lon.=26.682394, Alt.=120.805725m. Speed=39.888000m/h.</desc>
<speed>11.080000</speed>
</trkpt>
<trkpt lat="55.980137" lon="26.682312">
<ele>120.850647</ele>
<time>2010-06-20T13:18:58Z</time>
<desc>lat.=55.980137, lon.=26.682312, Alt.=120.850647m. Speed=39.203999m/h.</desc>
<speed>10.890000</speed>
</trkpt>
<trkpt lat="55.980049" lon="26.682228">
<ele>120.973694</ele>
<time>2010-06-20T13:18:59Z</time>
<desc>lat.=55.980049, lon.=26.682228, Alt.=120.973694m. Speed=38.304001m/h.</desc>
<speed>10.640000</speed>
</trkpt>
<trkpt lat="55.979961" lon="26.682150">
<ele>121.335022</ele>
<time>2010-06-20T13:19:00Z</time>
<desc>lat.=55.979961, lon.=26.682150, Alt.=121.335022m. Speed=36.683998m/h.</desc>
<speed>10.189999</speed>
</trkpt>
<trkpt lat="55.979881" lon="26.682076">
<ele>121.710022</ele>
<time>2010-06-20T13:19:01Z</time>
<desc>lat.=55.979881, lon.=26.682076, Alt.=121.710022m. Speed=36.396000m/h.</desc>
<speed>10.110000</speed>
</trkpt>
<trkpt lat="55.979797" lon="26.682003">
<ele>122.085022</ele>
<time>2010-06-20T13:19:02Z</time>
<desc>lat.=55.979797, lon.=26.682003, Alt.=122.085022m. Speed=35.675999m/h.</desc>
<speed>9.910000</speed>
</trkpt>
<trkpt lat="55.979713" lon="26.681923">
<ele>122.301819</ele>
<time>2010-06-20T13:19:03Z</time>
<desc>lat.=55.979713, lon.=26.681923, Alt.=122.301819m. Speed=36.071999m/h.</desc>
<speed>10.020000</speed>
</trkpt>
<trkpt lat="55.979630" lon="26.681850">
<ele>122.536194</ele>
<time>2010-06-20T13:19:04Z</time>
<desc>lat.=55.979630, lon.=26.681850, Alt.=122.536194m. Speed=35.532001m/h.</desc>
<speed>9.870000</speed>
</trkpt>
<trkpt lat="55.979546" lon="26.681774">
<ele>122.745178</ele>
<time>2010-06-20T13:19:05Z</time>
<desc>lat.=55.979546, lon.=26.681774, Alt.=122.745178m. Speed=35.784000m/h.</desc>
<speed>9.940000</speed>
</trkpt>
<trkpt lat="55.979462" lon="26.681700">
<ele>122.758850</ele>
<time>2010-06-20T13:19:06Z</time>
<desc>lat.=55.979462, lon.=26.681700, Alt.=122.758850m. Speed=34.200001m/h.</desc>
<speed>9.500000</speed>
</trkpt>
<trkpt lat="55.979385" lon="26.681627">
<ele>123.057678</ele>
<time>2010-06-20T13:19:07Z</time>
<desc>lat.=55.979385, lon.=26.681627, Alt.=123.057678m. Speed=32.832001m/h.</desc>
<speed>9.120000</speed>
</trkpt>
<trkpt lat="55.979313" lon="26.681562">
<ele>123.340881</ele>
<time>2010-06-20T13:19:08Z</time>
<desc>lat.=55.979313, lon.=26.681562, Alt.=123.340881m. Speed=31.068001m/h.</desc>
<speed>8.630000</speed>
</trkpt>
<trkpt lat="55.979244" lon="26.681501">
<ele>123.463928</ele>
<time>2010-06-20T13:19:09Z</time>
<desc>lat.=55.979244, lon.=26.681501, Alt.=123.463928m. Speed=30.780001m/h.</desc>
<speed>8.550000</speed>
</trkpt>
<trkpt lat="55.979172" lon="26.681437">
<ele>123.540100</ele>
<time>2010-06-20T13:19:10Z</time>
<desc>lat.=55.979172, lon.=26.681437, Alt.=123.540100m. Speed=30.240000m/h.</desc>
<speed>8.400000</speed>
</trkpt>
<trkpt lat="55.979107" lon="26.681379">
<ele>123.665100</ele>
<time>2010-06-20T13:19:11Z</time>
<desc>lat.=55.979107, lon.=26.681379, Alt.=123.665100m. Speed=28.944000m/h.</desc>
<speed>8.040000</speed>
</trkpt>
<trkpt lat="55.979042" lon="26.681320">
<ele>123.651428</ele>
<time>2010-06-20T13:19:12Z</time>
<desc>lat.=55.979042, lon.=26.681320, Alt.=123.651428m. Speed=28.007999m/h.</desc>
<speed>7.780000</speed>
</trkpt>
<trkpt lat="55.978981" lon="26.681267">
<ele>123.862366</ele>
<time>2010-06-20T13:19:13Z</time>
<desc>lat.=55.978981, lon.=26.681267, Alt.=123.862366m. Speed=27.540001m/h.</desc>
<speed>7.650000</speed>
</trkpt>
<trkpt lat="55.978924" lon="26.681219">
<ele>123.467834</ele>
<time>2010-06-20T13:19:14Z</time>
<desc>lat.=55.978924, lon.=26.681219, Alt.=123.467834m. Speed=27.323999m/h.</desc>
<speed>7.590000</speed>
</trkpt>
<trkpt lat="55.978867" lon="26.681173">
<ele>123.221741</ele>
<time>2010-06-20T13:19:15Z</time>
<desc>lat.=55.978867, lon.=26.681173, Alt.=123.221741m. Speed=26.532000m/h.</desc>
<speed>7.370000</speed>
</trkpt>
<trkpt lat="55.978809" lon="26.681126">
<ele>123.147522</ele>
<time>2010-06-20T13:19:16Z</time>
<desc>lat.=55.978809, lon.=26.681126, Alt.=123.147522m. Speed=26.459999m/h.</desc>
<speed>7.350000</speed>
</trkpt>
<trkpt lat="55.978752" lon="26.681076">
<ele>123.061584</ele>
<time>2010-06-20T13:19:17Z</time>
<desc>lat.=55.978752, lon.=26.681076, Alt.=123.061584m. Speed=26.676001m/h.</desc>
<speed>7.410000</speed>
</trkpt>
<trkpt lat="55.978695" lon="26.681032">
<ele>122.842834</ele>
<time>2010-06-20T13:19:18Z</time>
<desc>lat.=55.978695, lon.=26.681032, Alt.=122.842834m. Speed=26.639999m/h.</desc>
<speed>7.400000</speed>
</trkpt>
<trkpt lat="55.978634" lon="26.680984">
<ele>122.877991</ele>
<time>2010-06-20T13:19:19Z</time>
<desc>lat.=55.978634, lon.=26.680984, Alt.=122.877991m. Speed=27.035999m/h.</desc>
<speed>7.510000</speed>
</trkpt>
<trkpt lat="55.978573" lon="26.680929">
<ele>123.135803</ele>
<time>2010-06-20T13:19:20Z</time>
<desc>lat.=55.978573, lon.=26.680929, Alt.=123.135803m. Speed=27.431999m/h.</desc>
<speed>7.620000</speed>
</trkpt>
<trkpt lat="55.978516" lon="26.680880">
<ele>123.192444</ele>
<time>2010-06-20T13:19:21Z</time>
<desc>lat.=55.978516, lon.=26.680880, Alt.=123.192444m. Speed=27.108000m/h.</desc>
<speed>7.530000</speed>
</trkpt>
<trkpt lat="55.978458" lon="26.680826">
<ele>123.206116</ele>
<time>2010-06-20T13:19:22Z</time>
<desc>lat.=55.978458, lon.=26.680826, Alt.=123.206116m. Speed=26.316000m/h.</desc>
<speed>7.310000</speed>
</trkpt>
<trkpt lat="55.978401" lon="26.680775">
<ele>123.251038</ele>
<time>2010-06-20T13:19:23Z</time>
<desc>lat.=55.978401, lon.=26.680775, Alt.=123.251038m. Speed=25.344000m/h.</desc>
<speed>7.040000</speed>
</trkpt>
<trkpt lat="55.978348" lon="26.680731">
<ele>123.186584</ele>
<time>2010-06-20T13:19:24Z</time>
<desc>lat.=55.978348, lon.=26.680731, Alt.=123.186584m. Speed=23.903999m/h.</desc>
<speed>6.640000</speed>
</trkpt>
<trkpt lat="55.978298" lon="26.680681">
<ele>122.879944</ele>
<time>2010-06-20T13:19:25Z</time>
<desc>lat.=55.978298, lon.=26.680681, Alt.=122.879944m. Speed=22.968000m/h.</desc>
<speed>6.380000</speed>
</trkpt>
<trkpt lat="55.978252" lon="26.680635">
<ele>122.807678</ele>
<time>2010-06-20T13:19:26Z</time>
<desc>lat.=55.978252, lon.=26.680635, Alt.=122.807678m. Speed=22.680000m/h.</desc>
<speed>6.300000</speed>
</trkpt>
<trkpt lat="55.978203" lon="26.680593">
<ele>122.719788</ele>
<time>2010-06-20T13:19:27Z</time>
<desc>lat.=55.978203, lon.=26.680593, Alt.=122.719788m. Speed=21.851999m/h.</desc>
<speed>6.070000</speed>
</trkpt>
<trkpt lat="55.978157" lon="26.680555">
<ele>122.602600</ele>
<time>2010-06-20T13:19:28Z</time>
<desc>lat.=55.978157, lon.=26.680555, Alt.=122.602600m. Speed=20.916000m/h.</desc>
<speed>5.810000</speed>
</trkpt>
<trkpt lat="55.978115" lon="26.680517">
<ele>122.840881</ele>
<time>2010-06-20T13:19:29Z</time>
<desc>lat.=55.978115, lon.=26.680517, Alt.=122.840881m. Speed=20.195999m/h.</desc>
<speed>5.610000</speed>
</trkpt>
<trkpt lat="55.978073" lon="26.680481">
<ele>123.372131</ele>
<time>2010-06-20T13:19:30Z</time>
<desc>lat.=55.978073, lon.=26.680481, Alt.=123.372131m. Speed=19.728001m/h.</desc>
<speed>5.480000</speed>
</trkpt>
<trkpt lat="55.978031" lon="26.680447">
<ele>123.569397</ele>
<time>2010-06-20T13:19:31Z</time>
<desc>lat.=55.978031, lon.=26.680447, Alt.=123.569397m. Speed=19.656000m/h.</desc>
<speed>5.460000</speed>
</trkpt>
<trkpt lat="55.977985" lon="26.680414">
<ele>123.292053</ele>
<time>2010-06-20T13:19:32Z</time>
<desc>lat.=55.977985, lon.=26.680414, Alt.=123.292053m. Speed=19.584000m/h.</desc>
<speed>5.440000</speed>
</trkpt>
<trkpt lat="55.977940" lon="26.680374">
<ele>123.258850</ele>
<time>2010-06-20T13:19:33Z</time>
<desc>lat.=55.977940, lon.=26.680374, Alt.=123.258850m. Speed=21.384001m/h.</desc>
<speed>5.940000</speed>
</trkpt>
<trkpt lat="55.977894" lon="26.680332">
<ele>123.028381</ele>
<time>2010-06-20T13:19:34Z</time>
<desc>lat.=55.977894, lon.=26.680332, Alt.=123.028381m. Speed=22.752001m/h.</desc>
<speed>6.320000</speed>
</trkpt>
<trkpt lat="55.977840" lon="26.680288">
<ele>122.963928</ele>
<time>2010-06-20T13:19:35Z</time>
<desc>lat.=55.977840, lon.=26.680288, Alt.=122.963928m. Speed=24.372000m/h.</desc>
<speed>6.770000</speed>
</trkpt>
<trkpt lat="55.977787" lon="26.680237">
<ele>122.969788</ele>
<time>2010-06-20T13:19:36Z</time>
<desc>lat.=55.977787, lon.=26.680237, Alt.=122.969788m. Speed=25.128000m/h.</desc>
<speed>6.980000</speed>
</trkpt>
<trkpt lat="55.977726" lon="26.680182">
<ele>122.819397</ele>
<time>2010-06-20T13:19:37Z</time>
<desc>lat.=55.977726, lon.=26.680182, Alt.=122.819397m. Speed=26.316000m/h.</desc>
<speed>7.310000</speed>
</trkpt>
<trkpt lat="55.977665" lon="26.680128">
<ele>122.717834</ele>
<time>2010-06-20T13:19:38Z</time>
<desc>lat.=55.977665, lon.=26.680128, Alt.=122.717834m. Speed=27.180000m/h.</desc>
<speed>7.550000</speed>
</trkpt>
<trkpt lat="55.977604" lon="26.680071">
<ele>122.653381</ele>
<time>2010-06-20T13:19:39Z</time>
<desc>lat.=55.977604, lon.=26.680071, Alt.=122.653381m. Speed=27.648001m/h.</desc>
<speed>7.680000</speed>
</trkpt>
<trkpt lat="55.977543" lon="26.680016">
<ele>122.413147</ele>
<time>2010-06-20T13:19:40Z</time>
<desc>lat.=55.977543, lon.=26.680016, Alt.=122.413147m. Speed=28.332001m/h.</desc>
<speed>7.870000</speed>
</trkpt>
<trkpt lat="55.977478" lon="26.679964">
<ele>122.305725</ele>
<time>2010-06-20T13:19:41Z</time>
<desc>lat.=55.977478, lon.=26.679964, Alt.=122.305725m. Speed=25.884001m/h.</desc>
<speed>7.190000</speed>
</trkpt>
<trkpt lat="55.977421" lon="26.679914">
<ele>122.286194</ele>
<time>2010-06-20T13:19:42Z</time>
<desc>lat.=55.977421, lon.=26.679914, Alt.=122.286194m. Speed=26.496000m/h.</desc>
<speed>7.360000</speed>
</trkpt>
<trkpt lat="55.977356" lon="26.679863">
<ele>122.354553</ele>
<time>2010-06-20T13:19:43Z</time>
<desc>lat.=55.977356, lon.=26.679863, Alt.=122.354553m. Speed=27.827999m/h.</desc>
<speed>7.730000</speed>
</trkpt>
<trkpt lat="55.977295" lon="26.679808">
<ele>122.405334</ele>
<time>2010-06-20T13:19:44Z</time>
<desc>lat.=55.977295, lon.=26.679808, Alt.=122.405334m. Speed=28.476000m/h.</desc>
<speed>7.910000</speed>
</trkpt>
<trkpt lat="55.977230" lon="26.679750">
<ele>122.387756</ele>
<time>2010-06-20T13:19:45Z</time>
<desc>lat.=55.977230, lon.=26.679750, Alt.=122.387756m. Speed=27.936001m/h.</desc>
<speed>7.760000</speed>
</trkpt>
<trkpt lat="55.977169" lon="26.679695">
<ele>122.397522</ele>
<time>2010-06-20T13:19:46Z</time>
<desc>lat.=55.977169, lon.=26.679695, Alt.=122.397522m. Speed=25.704000m/h.</desc>
<speed>7.140000</speed>
</trkpt>
<trkpt lat="55.977112" lon="26.679638">
<ele>122.413147</ele>
<time>2010-06-20T13:19:47Z</time>
<desc>lat.=55.977112, lon.=26.679638, Alt.=122.413147m. Speed=27.396000m/h.</desc>
<speed>7.610000</speed>
</trkpt>
<trkpt lat="55.977055" lon="26.679586">
<ele>122.774475</ele>
<time>2010-06-20T13:19:48Z</time>
<desc>lat.=55.977055, lon.=26.679586, Alt.=122.774475m. Speed=25.308001m/h.</desc>
<speed>7.030000</speed>
</trkpt>
<trkpt lat="55.976997" lon="26.679537">
<ele>122.971741</ele>
<time>2010-06-20T13:19:49Z</time>
<desc>lat.=55.976997, lon.=26.679537, Alt.=122.971741m. Speed=25.416000m/h.</desc>
<speed>7.060000</speed>
</trkpt>
<trkpt lat="55.976936" lon="26.679485">
<ele>123.133850</ele>
<time>2010-06-20T13:19:50Z</time>
<desc>lat.=55.976936, lon.=26.679485, Alt.=123.133850m. Speed=26.028000m/h.</desc>
<speed>7.230000</speed>
</trkpt>
<trkpt lat="55.976875" lon="26.679438">
<ele>123.192444</ele>
<time>2010-06-20T13:19:51Z</time>
<desc>lat.=55.976875, lon.=26.679438, Alt.=123.192444m. Speed=25.812000m/h.</desc>
<speed>7.170000</speed>
</trkpt>
<trkpt lat="55.976818" lon="26.679384">
<ele>123.213928</ele>
<time>2010-06-20T13:19:52Z</time>
<desc>lat.=55.976818, lon.=26.679384, Alt.=123.213928m. Speed=26.351999m/h.</desc>
<speed>7.320000</speed>
</trkpt>
<trkpt lat="55.976757" lon="26.679329">
<ele>123.272522</ele>
<time>2010-06-20T13:19:53Z</time>
<desc>lat.=55.976757, lon.=26.679329, Alt.=123.272522m. Speed=27.360001m/h.</desc>
<speed>7.600000</speed>
</trkpt>
<trkpt lat="55.976696" lon="26.679277">
<ele>123.186584</ele>
<time>2010-06-20T13:19:54Z</time>
<desc>lat.=55.976696, lon.=26.679277, Alt.=123.186584m. Speed=27.396000m/h.</desc>
<speed>7.610000</speed>
</trkpt>
<trkpt lat="55.976635" lon="26.679224">
<ele>123.085022</ele>
<time>2010-06-20T13:19:55Z</time>
<desc>lat.=55.976635, lon.=26.679224, Alt.=123.085022m. Speed=27.972000m/h.</desc>
<speed>7.770000</speed>
</trkpt>
<trkpt lat="55.976566" lon="26.679167">
<ele>122.549866</ele>
<time>2010-06-20T13:19:56Z</time>
<desc>lat.=55.976566, lon.=26.679167, Alt.=122.549866m. Speed=29.375999m/h.</desc>
<speed>8.160000</speed>
</trkpt>
<trkpt lat="55.976501" lon="26.679111">
<ele>122.176819</ele>
<time>2010-06-20T13:19:57Z</time>
<desc>lat.=55.976501, lon.=26.679111, Alt.=122.176819m. Speed=29.628000m/h.</desc>
<speed>8.230000</speed>
</trkpt>
<trkpt lat="55.976433" lon="26.679052">
<ele>121.913147</ele>
<time>2010-06-20T13:19:58Z</time>
<desc>lat.=55.976433, lon.=26.679052, Alt.=121.913147m. Speed=31.212000m/h.</desc>
<speed>8.670000</speed>
</trkpt>
<trkpt lat="55.976360" lon="26.678991">
<ele>121.635803</ele>
<time>2010-06-20T13:19:59Z</time>
<desc>lat.=55.976360, lon.=26.678991, Alt.=121.635803m. Speed=29.771999m/h.</desc>
<speed>8.270000</speed>
</trkpt>
<trkpt lat="55.976292" lon="26.678928">
<ele>121.346741</ele>
<time>2010-06-20T13:20:00Z</time>
<desc>lat.=55.976292, lon.=26.678928, Alt.=121.346741m. Speed=30.275999m/h.</desc>
<speed>8.410000</speed>
</trkpt>
<trkpt lat="55.976223" lon="26.678871">
<ele>121.754944</ele>
<time>2010-06-20T13:20:01Z</time>
<desc>lat.=55.976223, lon.=26.678871, Alt.=121.754944m. Speed=31.068001m/h.</desc>
<speed>8.630000</speed>
</trkpt>
<trkpt lat="55.976158" lon="26.678812">
<ele>122.313538</ele>
<time>2010-06-20T13:20:02Z</time>
<desc>lat.=55.976158, lon.=26.678812, Alt.=122.313538m. Speed=30.743999m/h.</desc>
<speed>8.540000</speed>
</trkpt>
<trkpt lat="55.976089" lon="26.678751">
<ele>122.879944</ele>
<time>2010-06-20T13:20:03Z</time>
<desc>lat.=55.976089, lon.=26.678751, Alt.=122.879944m. Speed=28.044001m/h.</desc>
<speed>7.790000</speed>
</trkpt>
<trkpt lat="55.976025" lon="26.678694">
<ele>123.471741</ele>
<time>2010-06-20T13:20:04Z</time>
<desc>lat.=55.976025, lon.=26.678694, Alt.=123.471741m. Speed=30.528000m/h.</desc>
<speed>8.480000</speed>
</trkpt>
<trkpt lat="55.975956" lon="26.678635">
<ele>123.647522</ele>
<time>2010-06-20T13:20:05Z</time>
<desc>lat.=55.975956, lon.=26.678635, Alt.=123.647522m. Speed=30.455999m/h.</desc>
<speed>8.460000</speed>
</trkpt>
<trkpt lat="55.975887" lon="26.678570">
<ele>124.047913</ele>
<time>2010-06-20T13:20:06Z</time>
<desc>lat.=55.975887, lon.=26.678570, Alt.=124.047913m. Speed=29.556000m/h.</desc>
<speed>8.210000</speed>
</trkpt>
<trkpt lat="55.975819" lon="26.678507">
<ele>124.377991</ele>
<time>2010-06-20T13:20:07Z</time>
<desc>lat.=55.975819, lon.=26.678507, Alt.=124.377991m. Speed=28.980000m/h.</desc>
<speed>8.050000</speed>
</trkpt>
<trkpt lat="55.975746" lon="26.678446">
<ele>124.799866</ele>
<time>2010-06-20T13:20:08Z</time>
<desc>lat.=55.975746, lon.=26.678446, Alt.=124.799866m. Speed=28.440001m/h.</desc>
<speed>7.900000</speed>
</trkpt>
<trkpt lat="55.975685" lon="26.678398">
<ele>125.313538</ele>
<time>2010-06-20T13:20:09Z</time>
<desc>lat.=55.975685, lon.=26.678398, Alt.=125.313538m. Speed=26.316000m/h.</desc>
<speed>7.310000</speed>
</trkpt>
<trkpt lat="55.975609" lon="26.678324">
<ele>120.204163</ele>
<time>2010-06-20T13:20:10Z</time>
<desc>lat.=55.975609, lon.=26.678324, Alt.=120.204163m. Speed=25.955999m/h.</desc>
<speed>7.210000</speed>
</trkpt>
<trkpt lat="55.975552" lon="26.678268">
<ele>120.319397</ele>
<time>2010-06-20T13:20:11Z</time>
<desc>lat.=55.975552, lon.=26.678268, Alt.=120.319397m. Speed=25.884001m/h.</desc>
<speed>7.190000</speed>
</trkpt>
<trkpt lat="55.975494" lon="26.678217">
<ele>120.592834</ele>
<time>2010-06-20T13:20:12Z</time>
<desc>lat.=55.975494, lon.=26.678217, Alt.=120.592834m. Speed=26.496000m/h.</desc>
<speed>7.360000</speed>
</trkpt>
<trkpt lat="55.975433" lon="26.678167">
<ele>120.561584</ele>
<time>2010-06-20T13:20:13Z</time>
<desc>lat.=55.975433, lon.=26.678167, Alt.=120.561584m. Speed=25.667999m/h.</desc>
<speed>7.130000</speed>
</trkpt>
<trkpt lat="55.975372" lon="26.678118">
<ele>120.700256</ele>
<time>2010-06-20T13:20:14Z</time>
<desc>lat.=55.975372, lon.=26.678118, Alt.=120.700256m. Speed=26.676001m/h.</desc>
<speed>7.410000</speed>
</trkpt>
<trkpt lat="55.975319" lon="26.678066">
<ele>121.227600</ele>
<time>2010-06-20T13:20:15Z</time>
<desc>lat.=55.975319, lon.=26.678066, Alt.=121.227600m. Speed=26.568001m/h.</desc>
<speed>7.380000</speed>
</trkpt>
<trkpt lat="55.975258" lon="26.678013">
<ele>121.573303</ele>
<time>2010-06-20T13:20:16Z</time>
<desc>lat.=55.975258, lon.=26.678013, Alt.=121.573303m. Speed=26.604000m/h.</desc>
<speed>7.390000</speed>
</trkpt>
<trkpt lat="55.975201" lon="26.677959">
<ele>121.911194</ele>
<time>2010-06-20T13:20:17Z</time>
<desc>lat.=55.975201, lon.=26.677959, Alt.=121.911194m. Speed=25.236000m/h.</desc>
<speed>7.010000</speed>
</trkpt>
<trkpt lat="55.975147" lon="26.677908">
<ele>122.131897</ele>
<time>2010-06-20T13:20:18Z</time>
<desc>lat.=55.975147, lon.=26.677908, Alt.=122.131897m. Speed=25.452000m/h.</desc>
<speed>7.070000</speed>
</trkpt>
<trkpt lat="55.975090" lon="26.677864">
<ele>122.401428</ele>
<time>2010-06-20T13:20:19Z</time>
<desc>lat.=55.975090, lon.=26.677864, Alt.=122.401428m. Speed=25.271999m/h.</desc>
<speed>7.020000</speed>
</trkpt>
<trkpt lat="55.975037" lon="26.677814">
<ele>122.739319</ele>
<time>2010-06-20T13:20:20Z</time>
<desc>lat.=55.975037, lon.=26.677814, Alt.=122.739319m. Speed=23.436001m/h.</desc>
<speed>6.510000</speed>
</trkpt>
<trkpt lat="55.974979" lon="26.677757">
<ele>122.876038</ele>
<time>2010-06-20T13:20:21Z</time>
<desc>lat.=55.974979, lon.=26.677757, Alt.=122.876038m. Speed=22.392000m/h.</desc>
<speed>6.220000</speed>
</trkpt>
<trkpt lat="55.974922" lon="26.677702">
<ele>122.874084</ele>
<time>2010-06-20T13:20:22Z</time>
<desc>lat.=55.974922, lon.=26.677702, Alt.=122.874084m. Speed=23.219999m/h.</desc>
<speed>6.450000</speed>
</trkpt>
<trkpt lat="55.974873" lon="26.677656">
<ele>123.139709</ele>
<time>2010-06-20T13:20:23Z</time>
<desc>lat.=55.974873, lon.=26.677656, Alt.=123.139709m. Speed=22.176001m/h.</desc>
<speed>6.160000</speed>
</trkpt>
<trkpt lat="55.974823" lon="26.677616">
<ele>123.360413</ele>
<time>2010-06-20T13:20:24Z</time>
<desc>lat.=55.974823, lon.=26.677616, Alt.=123.360413m. Speed=22.572001m/h.</desc>
<speed>6.270000</speed>
</trkpt>
<trkpt lat="55.974781" lon="26.677580">
<ele>123.676819</ele>
<time>2010-06-20T13:20:25Z</time>
<desc>lat.=55.974781, lon.=26.677580, Alt.=123.676819m. Speed=14.220000m/h.</desc>
<speed>3.950000</speed>
</trkpt>
<trkpt lat="55.974739" lon="26.677542">
<ele>124.061584</ele>
<time>2010-06-20T13:20:26Z</time>
<desc>lat.=55.974739, lon.=26.677542, Alt.=124.061584m. Speed=23.040001m/h.</desc>
<speed>6.400000</speed>
</trkpt>
<trkpt lat="55.974689" lon="26.677500">
<ele>124.264709</ele>
<time>2010-06-20T13:20:27Z</time>
<desc>lat.=55.974689, lon.=26.677500, Alt.=124.264709m. Speed=21.851999m/h.</desc>
<speed>6.070000</speed>
</trkpt>
<trkpt lat="55.974640" lon="26.677458">
<ele>124.442444</ele>
<time>2010-06-20T13:20:28Z</time>
<desc>lat.=55.974640, lon.=26.677458, Alt.=124.442444m. Speed=22.104000m/h.</desc>
<speed>6.140000</speed>
</trkpt>
<trkpt lat="55.974586" lon="26.677414">
<ele>124.549866</ele>
<time>2010-06-20T13:20:29Z</time>
<desc>lat.=55.974586, lon.=26.677414, Alt.=124.549866m. Speed=21.636000m/h.</desc>
<speed>6.010000</speed>
</trkpt>
<trkpt lat="55.974533" lon="26.677366">
<ele>124.360413</ele>
<time>2010-06-20T13:20:30Z</time>
<desc>lat.=55.974533, lon.=26.677366, Alt.=124.360413m. Speed=24.048000m/h.</desc>
<speed>6.680000</speed>
</trkpt>
<trkpt lat="55.974483" lon="26.677328">
<ele>124.460022</ele>
<time>2010-06-20T13:20:31Z</time>
<desc>lat.=55.974483, lon.=26.677328, Alt.=124.460022m. Speed=22.788000m/h.</desc>
<speed>6.330000</speed>
</trkpt>
<trkpt lat="55.974430" lon="26.677284">
<ele>124.561584</ele>
<time>2010-06-20T13:20:32Z</time>
<desc>lat.=55.974430, lon.=26.677284, Alt.=124.561584m. Speed=23.112000m/h.</desc>
<speed>6.420000</speed>
</trkpt>
<trkpt lat="55.974373" lon="26.677237">
<ele>123.956116</ele>
<time>2010-06-20T13:20:33Z</time>
<desc>lat.=55.974373, lon.=26.677237, Alt.=123.956116m. Speed=23.184000m/h.</desc>
<speed>6.440000</speed>
</trkpt>
<trkpt lat="55.974319" lon="26.677191">
<ele>123.616272</ele>
<time>2010-06-20T13:20:34Z</time>
<desc>lat.=55.974319, lon.=26.677191, Alt.=123.616272m. Speed=22.212000m/h.</desc>
<speed>6.170000</speed>
</trkpt>
<trkpt lat="55.974270" lon="26.677147">
<ele>123.442444</ele>
<time>2010-06-20T13:20:35Z</time>
<desc>lat.=55.974270, lon.=26.677147, Alt.=123.442444m. Speed=21.780001m/h.</desc>
<speed>6.050000</speed>
</trkpt>
<trkpt lat="55.974224" lon="26.677107">
<ele>123.454163</ele>
<time>2010-06-20T13:20:36Z</time>
<desc>lat.=55.974224, lon.=26.677107, Alt.=123.454163m. Speed=21.059999m/h.</desc>
<speed>5.850000</speed>
</trkpt>
<trkpt lat="55.974174" lon="26.677067">
<ele>123.741272</ele>
<time>2010-06-20T13:20:37Z</time>
<desc>lat.=55.974174, lon.=26.677067, Alt.=123.741272m. Speed=21.563999m/h.</desc>
<speed>5.990000</speed>
</trkpt>
<trkpt lat="55.974129" lon="26.677027">
<ele>123.678772</ele>
<time>2010-06-20T13:20:38Z</time>
<desc>lat.=55.974129, lon.=26.677027, Alt.=123.678772m. Speed=21.348000m/h.</desc>
<speed>5.930000</speed>
</trkpt>
<trkpt lat="55.974075" lon="26.676985">
<ele>123.788147</ele>
<time>2010-06-20T13:20:39Z</time>
<desc>lat.=55.974075, lon.=26.676985, Alt.=123.788147m. Speed=23.760000m/h.</desc>
<speed>6.600000</speed>
</trkpt>
<trkpt lat="55.974022" lon="26.676943">
<ele>123.922913</ele>
<time>2010-06-20T13:20:40Z</time>
<desc>lat.=55.974022, lon.=26.676943, Alt.=123.922913m. Speed=23.580000m/h.</desc>
<speed>6.550000</speed>
</trkpt>
<trkpt lat="55.973972" lon="26.676899">
<ele>124.118225</ele>
<time>2010-06-20T13:20:41Z</time>
<desc>lat.=55.973972, lon.=26.676899, Alt.=124.118225m. Speed=23.615999m/h.</desc>
<speed>6.560000</speed>
</trkpt>
<trkpt lat="55.973919" lon="26.676853">
<ele>124.225647</ele>
<time>2010-06-20T13:20:42Z</time>
<desc>lat.=55.973919, lon.=26.676853, Alt.=124.225647m. Speed=22.284000m/h.</desc>
<speed>6.190000</speed>
</trkpt>
<trkpt lat="55.973866" lon="26.676807">
<ele>124.192444</ele>
<time>2010-06-20T13:20:43Z</time>
<desc>lat.=55.973866, lon.=26.676807, Alt.=124.192444m. Speed=22.139999m/h.</desc>
<speed>6.150000</speed>
</trkpt>
<trkpt lat="55.973816" lon="26.676765">
<ele>124.198303</ele>
<time>2010-06-20T13:20:44Z</time>
<desc>lat.=55.973816, lon.=26.676765, Alt.=124.198303m. Speed=22.464001m/h.</desc>
<speed>6.240000</speed>
</trkpt>
<trkpt lat="55.973759" lon="26.676716">
<ele>124.877991</ele>
<time>2010-06-20T13:20:45Z</time>
<desc>lat.=55.973759, lon.=26.676716, Alt.=124.877991m. Speed=23.976000m/h.</desc>
<speed>6.660000</speed>
</trkpt>
<trkpt lat="55.973701" lon="26.676666">
<ele>124.815491</ele>
<time>2010-06-20T13:20:46Z</time>
<desc>lat.=55.973701, lon.=26.676666, Alt.=124.815491m. Speed=22.823999m/h.</desc>
<speed>6.340000</speed>
</trkpt>
<trkpt lat="55.973644" lon="26.676619">
<ele>124.942444</ele>
<time>2010-06-20T13:20:47Z</time>
<desc>lat.=55.973644, lon.=26.676619, Alt.=124.942444m. Speed=25.632000m/h.</desc>
<speed>7.120000</speed>
</trkpt>
<trkpt lat="55.973579" lon="26.676563">
<ele>124.704163</ele>
<time>2010-06-20T13:20:48Z</time>
<desc>lat.=55.973579, lon.=26.676563, Alt.=124.704163m. Speed=24.408001m/h.</desc>
<speed>6.780000</speed>
</trkpt>
<trkpt lat="55.973518" lon="26.676514">
<ele>124.676819</ele>
<time>2010-06-20T13:20:49Z</time>
<desc>lat.=55.973518, lon.=26.676514, Alt.=124.676819m. Speed=26.208000m/h.</desc>
<speed>7.280000</speed>
</trkpt>
<trkpt lat="55.973454" lon="26.676460">
<ele>124.571350</ele>
<time>2010-06-20T13:20:50Z</time>
<desc>lat.=55.973454, lon.=26.676460, Alt.=124.571350m. Speed=26.639999m/h.</desc>
<speed>7.400000</speed>
</trkpt>
<trkpt lat="55.973396" lon="26.676407">
<ele>124.858459</ele>
<time>2010-06-20T13:20:51Z</time>
<desc>lat.=55.973396, lon.=26.676407, Alt.=124.858459m. Speed=26.100000m/h.</desc>
<speed>7.250000</speed>
</trkpt>
<trkpt lat="55.973335" lon="26.676350">
<ele>124.670959</ele>
<time>2010-06-20T13:20:52Z</time>
<desc>lat.=55.973335, lon.=26.676350, Alt.=124.670959m. Speed=25.812000m/h.</desc>
<speed>7.170000</speed>
</trkpt>
<trkpt lat="55.973278" lon="26.676296">
<ele>124.596741</ele>
<time>2010-06-20T13:20:53Z</time>
<desc>lat.=55.973278, lon.=26.676296, Alt.=124.596741m. Speed=25.488001m/h.</desc>
<speed>7.080000</speed>
</trkpt>
<trkpt lat="55.973217" lon="26.676243">
<ele>124.458069</ele>
<time>2010-06-20T13:20:54Z</time>
<desc>lat.=55.973217, lon.=26.676243, Alt.=124.458069m. Speed=25.164000m/h.</desc>
<speed>6.990000</speed>
</trkpt>
<trkpt lat="55.973160" lon="26.676189">
<ele>124.420959</ele>
<time>2010-06-20T13:20:55Z</time>
<desc>lat.=55.973160, lon.=26.676189, Alt.=124.420959m. Speed=24.372000m/h.</desc>
<speed>6.770000</speed>
</trkpt>
<trkpt lat="55.973106" lon="26.676146">
<ele>124.690491</ele>
<time>2010-06-20T13:20:56Z</time>
<desc>lat.=55.973106, lon.=26.676146, Alt.=124.690491m. Speed=22.896000m/h.</desc>
<speed>6.360000</speed>
</trkpt>
<trkpt lat="55.973057" lon="26.676100">
<ele>124.782288</ele>
<time>2010-06-20T13:20:57Z</time>
<desc>lat.=55.973057, lon.=26.676100, Alt.=124.782288m. Speed=22.247999m/h.</desc>
<speed>6.180000</speed>
</trkpt>
<trkpt lat="55.973003" lon="26.676058">
<ele>125.290100</ele>
<time>2010-06-20T13:20:58Z</time>
<desc>lat.=55.973003, lon.=26.676058, Alt.=125.290100m. Speed=22.320000m/h.</desc>
<speed>6.200000</speed>
</trkpt>
<trkpt lat="55.972950" lon="26.676012">
<ele>125.393616</ele>
<time>2010-06-20T13:20:59Z</time>
<desc>lat.=55.972950, lon.=26.676012, Alt.=125.393616m. Speed=24.732000m/h.</desc>
<speed>6.870000</speed>
</trkpt>
<trkpt lat="55.972897" lon="26.675961">
<ele>125.579163</ele>
<time>2010-06-20T13:21:00Z</time>
<desc>lat.=55.972897, lon.=26.675961, Alt.=125.579163m. Speed=25.308001m/h.</desc>
<speed>7.030000</speed>
</trkpt>
<trkpt lat="55.972843" lon="26.675909">
<ele>125.973694</ele>
<time>2010-06-20T13:21:01Z</time>
<desc>lat.=55.972843, lon.=26.675909, Alt.=125.973694m. Speed=24.587999m/h.</desc>
<speed>6.830000</speed>
</trkpt>
<trkpt lat="55.972778" lon="26.675856">
<ele>125.856506</ele>
<time>2010-06-20T13:21:02Z</time>
<desc>lat.=55.972778, lon.=26.675856, Alt.=125.856506m. Speed=25.164000m/h.</desc>
<speed>6.990000</speed>
</trkpt>
<trkpt lat="55.972721" lon="26.675798">
<ele>125.663147</ele>
<time>2010-06-20T13:21:03Z</time>
<desc>lat.=55.972721, lon.=26.675798, Alt.=125.663147m. Speed=25.775999m/h.</desc>
<speed>7.160000</speed>
</trkpt>
<trkpt lat="55.972660" lon="26.675745">
<ele>125.524475</ele>
<time>2010-06-20T13:21:04Z</time>
<desc>lat.=55.972660, lon.=26.675745, Alt.=125.524475m. Speed=25.200001m/h.</desc>
<speed>7.000000</speed>
</trkpt>
<trkpt lat="55.972610" lon="26.675697">
<ele>125.616272</ele>
<time>2010-06-20T13:21:05Z</time>
<desc>lat.=55.972610, lon.=26.675697, Alt.=125.616272m. Speed=24.695999m/h.</desc>
<speed>6.860000</speed>
</trkpt>
<trkpt lat="55.972553" lon="26.675648">
<ele>125.508850</ele>
<time>2010-06-20T13:21:06Z</time>
<desc>lat.=55.972553, lon.=26.675648, Alt.=125.508850m. Speed=25.271999m/h.</desc>
<speed>7.020000</speed>
</trkpt>
<trkpt lat="55.972496" lon="26.675596">
<ele>125.483459</ele>
<time>2010-06-20T13:21:07Z</time>
<desc>lat.=55.972496, lon.=26.675596, Alt.=125.483459m. Speed=28.115999m/h.</desc>
<speed>7.810000</speed>
</trkpt>
<trkpt lat="55.972435" lon="26.675547">
<ele>125.684631</ele>
<time>2010-06-20T13:21:08Z</time>
<desc>lat.=55.972435, lon.=26.675547, Alt.=125.684631m. Speed=28.476000m/h.</desc>
<speed>7.910000</speed>
</trkpt>
<trkpt lat="55.972370" lon="26.675499">
<ele>126.436584</ele>
<time>2010-06-20T13:21:09Z</time>
<desc>lat.=55.972370, lon.=26.675499, Alt.=126.436584m. Speed=28.691999m/h.</desc>
<speed>7.970000</speed>
</trkpt>
<trkpt lat="55.972305" lon="26.675449">
<ele>126.479553</ele>
<time>2010-06-20T13:21:10Z</time>
<desc>lat.=55.972305, lon.=26.675449, Alt.=126.479553m. Speed=28.007999m/h.</desc>
<speed>7.780000</speed>
</trkpt>
<trkpt lat="55.972244" lon="26.675390">
<ele>126.348694</ele>
<time>2010-06-20T13:21:11Z</time>
<desc>lat.=55.972244, lon.=26.675390, Alt.=126.348694m. Speed=27.719999m/h.</desc>
<speed>7.700000</speed>
</trkpt>
<trkpt lat="55.972183" lon="26.675331">
<ele>126.114319</ele>
<time>2010-06-20T13:21:12Z</time>
<desc>lat.=55.972183, lon.=26.675331, Alt.=126.114319m. Speed=26.892000m/h.</desc>
<speed>7.470000</speed>
</trkpt>
<trkpt lat="55.972122" lon="26.675282">
<ele>126.122131</ele>
<time>2010-06-20T13:21:13Z</time>
<desc>lat.=55.972122, lon.=26.675282, Alt.=126.122131m. Speed=26.712000m/h.</desc>
<speed>7.420000</speed>
</trkpt>
<trkpt lat="55.972065" lon="26.675226">
<ele>125.913147</ele>
<time>2010-06-20T13:21:14Z</time>
<desc>lat.=55.972065, lon.=26.675226, Alt.=125.913147m. Speed=26.351999m/h.</desc>
<speed>7.320000</speed>
</trkpt>
<trkpt lat="55.972008" lon="26.675173">
<ele>125.602600</ele>
<time>2010-06-20T13:21:15Z</time>
<desc>lat.=55.972008, lon.=26.675173, Alt.=125.602600m. Speed=25.920000m/h.</desc>
<speed>7.200000</speed>
</trkpt>
<trkpt lat="55.971951" lon="26.675117">
<ele>125.446350</ele>
<time>2010-06-20T13:21:16Z</time>
<desc>lat.=55.971951, lon.=26.675117, Alt.=125.446350m. Speed=25.344000m/h.</desc>
<speed>7.040000</speed>
</trkpt>
<trkpt lat="55.971897" lon="26.675066">
<ele>125.389709</ele>
<time>2010-06-20T13:21:17Z</time>
<desc>lat.=55.971897, lon.=26.675066, Alt.=125.389709m. Speed=24.840000m/h.</desc>
<speed>6.900000</speed>
</trkpt>
<trkpt lat="55.971844" lon="26.675013">
<ele>125.444397</ele>
<time>2010-06-20T13:21:18Z</time>
<desc>lat.=55.971844, lon.=26.675013, Alt.=125.444397m. Speed=24.084000m/h.</desc>
<speed>6.690000</speed>
</trkpt>
<trkpt lat="55.971790" lon="26.674961">
<ele>125.422913</ele>
<time>2010-06-20T13:21:19Z</time>
<desc>lat.=55.971790, lon.=26.674961, Alt.=125.422913m. Speed=23.688000m/h.</desc>
<speed>6.580000</speed>
</trkpt>
<trkpt lat="55.971737" lon="26.674910">
<ele>125.374084</ele>
<time>2010-06-20T13:21:20Z</time>
<desc>lat.=55.971737, lon.=26.674910, Alt.=125.374084m. Speed=23.544001m/h.</desc>
<speed>6.540000</speed>
</trkpt>
<trkpt lat="55.971691" lon="26.674862">
<ele>124.981506</ele>
<time>2010-06-20T13:21:21Z</time>
<desc>lat.=55.971691, lon.=26.674862, Alt.=124.981506m. Speed=23.400000m/h.</desc>
<speed>6.500000</speed>
</trkpt>
<trkpt lat="55.971642" lon="26.674816">
<ele>124.950256</ele>
<time>2010-06-20T13:21:22Z</time>
<desc>lat.=55.971642, lon.=26.674816, Alt.=124.950256m. Speed=22.608000m/h.</desc>
<speed>6.280000</speed>
</trkpt>
<trkpt lat="55.971592" lon="26.674767">
<ele>124.518616</ele>
<time>2010-06-20T13:21:23Z</time>
<desc>lat.=55.971592, lon.=26.674767, Alt.=124.518616m. Speed=22.608000m/h.</desc>
<speed>6.280000</speed>
</trkpt>
<trkpt lat="55.971542" lon="26.674726">
<ele>124.211975</ele>
<time>2010-06-20T13:21:24Z</time>
<desc>lat.=55.971542, lon.=26.674726, Alt.=124.211975m. Speed=22.572001m/h.</desc>
<speed>6.270000</speed>
</trkpt>
<trkpt lat="55.971489" lon="26.674681">
<ele>124.028381</ele>
<time>2010-06-20T13:21:25Z</time>
<desc>lat.=55.971489, lon.=26.674681, Alt.=124.028381m. Speed=22.680000m/h.</desc>
<speed>6.300000</speed>
</trkpt>
<trkpt lat="55.971439" lon="26.674635">
<ele>123.565491</ele>
<time>2010-06-20T13:21:26Z</time>
<desc>lat.=55.971439, lon.=26.674635, Alt.=123.565491m. Speed=22.896000m/h.</desc>
<speed>6.360000</speed>
</trkpt>
<trkpt lat="55.971390" lon="26.674591">
<ele>123.393616</ele>
<time>2010-06-20T13:21:27Z</time>
<desc>lat.=55.971390, lon.=26.674591, Alt.=123.393616m. Speed=22.752001m/h.</desc>
<speed>6.320000</speed>
</trkpt>
<trkpt lat="55.971336" lon="26.674553">
<ele>123.262756</ele>
<time>2010-06-20T13:21:28Z</time>
<desc>lat.=55.971336, lon.=26.674553, Alt.=123.262756m. Speed=22.823999m/h.</desc>
<speed>6.340000</speed>
</trkpt>
<trkpt lat="55.971279" lon="26.674520">
<ele>122.917053</ele>
<time>2010-06-20T13:21:29Z</time>
<desc>lat.=55.971279, lon.=26.674520, Alt.=122.917053m. Speed=23.184000m/h.</desc>
<speed>6.440000</speed>
</trkpt>
<trkpt lat="55.971226" lon="26.674482">
<ele>122.700256</ele>
<time>2010-06-20T13:21:30Z</time>
<desc>lat.=55.971226, lon.=26.674482, Alt.=122.700256m. Speed=23.544001m/h.</desc>
<speed>6.540000</speed>
</trkpt>
<trkpt lat="55.971172" lon="26.674442">
<ele>122.368225</ele>
<time>2010-06-20T13:21:31Z</time>
<desc>lat.=55.971172, lon.=26.674442, Alt.=122.368225m. Speed=23.724001m/h.</desc>
<speed>6.590000</speed>
</trkpt>
<trkpt lat="55.971115" lon="26.674397">
<ele>122.090881</ele>
<time>2010-06-20T13:21:32Z</time>
<desc>lat.=55.971115, lon.=26.674397, Alt.=122.090881m. Speed=23.868000m/h.</desc>
<speed>6.630000</speed>
</trkpt>
<trkpt lat="55.971062" lon="26.674353">
<ele>121.944397</ele>
<time>2010-06-20T13:21:33Z</time>
<desc>lat.=55.971062, lon.=26.674353, Alt.=121.944397m. Speed=24.011999m/h.</desc>
<speed>6.670000</speed>
</trkpt>
<trkpt lat="55.971008" lon="26.674313">
<ele>121.854553</ele>
<time>2010-06-20T13:21:34Z</time>
<desc>lat.=55.971008, lon.=26.674313, Alt.=121.854553m. Speed=23.976000m/h.</desc>
<speed>6.660000</speed>
</trkpt>
<trkpt lat="55.970951" lon="26.674265">
<ele>121.657288</ele>
<time>2010-06-20T13:21:35Z</time>
<desc>lat.=55.970951, lon.=26.674265, Alt.=121.657288m. Speed=23.219999m/h.</desc>
<speed>6.450000</speed>
</trkpt>
<trkpt lat="55.970898" lon="26.674223">
<ele>121.495178</ele>
<time>2010-06-20T13:21:36Z</time>
<desc>lat.=55.970898, lon.=26.674223, Alt.=121.495178m. Speed=24.480000m/h.</desc>
<speed>6.800000</speed>
</trkpt>
<trkpt lat="55.970844" lon="26.674175">
<ele>121.430725</ele>
<time>2010-06-20T13:21:37Z</time>
<desc>lat.=55.970844, lon.=26.674175, Alt.=121.430725m. Speed=23.724001m/h.</desc>
<speed>6.590000</speed>
</trkpt>
<trkpt lat="55.970787" lon="26.674126">
<ele>121.221741</ele>
<time>2010-06-20T13:21:38Z</time>
<desc>lat.=55.970787, lon.=26.674126, Alt.=121.221741m. Speed=24.372000m/h.</desc>
<speed>6.770000</speed>
</trkpt>
<trkpt lat="55.970737" lon="26.674080">
<ele>121.122131</ele>
<time>2010-06-20T13:21:39Z</time>
<desc>lat.=55.970737, lon.=26.674080, Alt.=121.122131m. Speed=24.480000m/h.</desc>
<speed>6.800000</speed>
</trkpt>
<trkpt lat="55.970680" lon="26.674030">
<ele>121.024475</ele>
<time>2010-06-20T13:21:40Z</time>
<desc>lat.=55.970680, lon.=26.674030, Alt.=121.024475m. Speed=25.488001m/h.</desc>
<speed>7.080000</speed>
</trkpt>
<trkpt lat="55.970623" lon="26.673979">
<ele>121.126038</ele>
<time>2010-06-20T13:21:41Z</time>
<desc>lat.=55.970623, lon.=26.673979, Alt.=121.126038m. Speed=26.172001m/h.</desc>
<speed>7.270000</speed>
</trkpt>
<trkpt lat="55.970562" lon="26.673927">
<ele>121.024475</ele>
<time>2010-06-20T13:21:42Z</time>
<desc>lat.=55.970562, lon.=26.673927, Alt.=121.024475m. Speed=26.784000m/h.</desc>
<speed>7.440000</speed>
</trkpt>
<trkpt lat="55.970501" lon="26.673874">
<ele>120.919006</ele>
<time>2010-06-20T13:21:43Z</time>
<desc>lat.=55.970501, lon.=26.673874, Alt.=120.919006m. Speed=27.684000m/h.</desc>
<speed>7.690000</speed>
</trkpt>
<trkpt lat="55.970440" lon="26.673820">
<ele>120.805725</ele>
<time>2010-06-20T13:21:44Z</time>
<desc>lat.=55.970440, lon.=26.673820, Alt.=120.805725m. Speed=28.260000m/h.</desc>
<speed>7.850000</speed>
</trkpt>
<trkpt lat="55.970375" lon="26.673761">
<ele>120.544006</ele>
<time>2010-06-20T13:21:45Z</time>
<desc>lat.=55.970375, lon.=26.673761, Alt.=120.544006m. Speed=28.368000m/h.</desc>
<speed>7.880000</speed>
</trkpt>
<trkpt lat="55.970310" lon="26.673710">
<ele>120.424866</ele>
<time>2010-06-20T13:21:46Z</time>
<desc>lat.=55.970310, lon.=26.673710, Alt.=120.424866m. Speed=28.044001m/h.</desc>
<speed>7.790000</speed>
</trkpt>
<trkpt lat="55.970245" lon="26.673653">
<ele>120.409241</ele>
<time>2010-06-20T13:21:47Z</time>
<desc>lat.=55.970245, lon.=26.673653, Alt.=120.409241m. Speed=27.792000m/h.</desc>
<speed>7.720000</speed>
</trkpt>
<trkpt lat="55.970184" lon="26.673599">
<ele>120.272522</ele>
<time>2010-06-20T13:21:48Z</time>
<desc>lat.=55.970184, lon.=26.673599, Alt.=120.272522m. Speed=27.360001m/h.</desc>
<speed>7.600000</speed>
</trkpt>
<trkpt lat="55.970119" lon="26.673550">
<ele>119.952209</ele>
<time>2010-06-20T13:21:49Z</time>
<desc>lat.=55.970119, lon.=26.673550, Alt.=119.952209m. Speed=26.927999m/h.</desc>
<speed>7.480000</speed>
</trkpt>
<trkpt lat="55.970058" lon="26.673504">
<ele>120.036194</ele>
<time>2010-06-20T13:21:50Z</time>
<desc>lat.=55.970058, lon.=26.673504, Alt.=120.036194m. Speed=26.532000m/h.</desc>
<speed>7.370000</speed>
</trkpt>
<trkpt lat="55.969997" lon="26.673460">
<ele>120.026428</ele>
<time>2010-06-20T13:21:51Z</time>
<desc>lat.=55.969997, lon.=26.673460, Alt.=120.026428m. Speed=25.955999m/h.</desc>
<speed>7.210000</speed>
</trkpt>
<trkpt lat="55.969936" lon="26.673416">
<ele>119.829163</ele>
<time>2010-06-20T13:21:52Z</time>
<desc>lat.=55.969936, lon.=26.673416, Alt.=119.829163m. Speed=25.416000m/h.</desc>
<speed>7.060000</speed>
</trkpt>
<trkpt lat="55.969879" lon="26.673374">
<ele>119.555725</ele>
<time>2010-06-20T13:21:53Z</time>
<desc>lat.=55.969879, lon.=26.673374, Alt.=119.555725m. Speed=24.732000m/h.</desc>
<speed>6.870000</speed>
</trkpt>
<trkpt lat="55.969822" lon="26.673334">
<ele>119.215881</ele>
<time>2010-06-20T13:21:54Z</time>
<desc>lat.=55.969822, lon.=26.673334, Alt.=119.215881m. Speed=24.156000m/h.</desc>
<speed>6.710000</speed>
</trkpt>
<trkpt lat="55.969769" lon="26.673292">
<ele>119.026428</ele>
<time>2010-06-20T13:21:55Z</time>
<desc>lat.=55.969769, lon.=26.673292, Alt.=119.026428m. Speed=23.148001m/h.</desc>
<speed>6.430000</speed>
</trkpt>
<trkpt lat="55.969711" lon="26.673248">
<ele>118.606506</ele>
<time>2010-06-20T13:21:56Z</time>
<desc>lat.=55.969711, lon.=26.673248, Alt.=118.606506m. Speed=23.903999m/h.</desc>
<speed>6.640000</speed>
</trkpt>
<trkpt lat="55.969654" lon="26.673212">
<ele>118.504944</ele>
<time>2010-06-20T13:21:57Z</time>
<desc>lat.=55.969654, lon.=26.673212, Alt.=118.504944m. Speed=24.336000m/h.</desc>
<speed>6.760000</speed>
</trkpt>
<trkpt lat="55.969597" lon="26.673174">
<ele>118.254944</ele>
<time>2010-06-20T13:21:58Z</time>
<desc>lat.=55.969597, lon.=26.673174, Alt.=118.254944m. Speed=24.372000m/h.</desc>
<speed>6.770000</speed>
</trkpt>
<trkpt lat="55.969543" lon="26.673138">
<ele>117.954163</ele>
<time>2010-06-20T13:21:59Z</time>
<desc>lat.=55.969543, lon.=26.673138, Alt.=117.954163m. Speed=24.768000m/h.</desc>
<speed>6.880000</speed>
</trkpt>
<trkpt lat="55.969486" lon="26.673100">
<ele>117.850647</ele>
<time>2010-06-20T13:22:00Z</time>
<desc>lat.=55.969486, lon.=26.673100, Alt.=117.850647m. Speed=24.587999m/h.</desc>
<speed>6.830000</speed>
</trkpt>
<trkpt lat="55.969429" lon="26.673061">
<ele>117.780334</ele>
<time>2010-06-20T13:22:01Z</time>
<desc>lat.=55.969429, lon.=26.673061, Alt.=117.780334m. Speed=24.768000m/h.</desc>
<speed>6.880000</speed>
</trkpt>
<trkpt lat="55.969372" lon="26.673025">
<ele>118.356506</ele>
<time>2010-06-20T13:22:02Z</time>
<desc>lat.=55.969372, lon.=26.673025, Alt.=118.356506m. Speed=24.587999m/h.</desc>
<speed>6.830000</speed>
</trkpt>
<trkpt lat="55.969311" lon="26.672993">
<ele>118.770569</ele>
<time>2010-06-20T13:22:03Z</time>
<desc>lat.=55.969311, lon.=26.672993, Alt.=118.770569m. Speed=25.164000m/h.</desc>
<speed>6.990000</speed>
</trkpt>
<trkpt lat="55.969250" lon="26.672956">
<ele>118.860413</ele>
<time>2010-06-20T13:22:04Z</time>
<desc>lat.=55.969250, lon.=26.672956, Alt.=118.860413m. Speed=25.056000m/h.</desc>
<speed>6.960000</speed>
</trkpt>
<trkpt lat="55.969189" lon="26.672918">
<ele>118.889709</ele>
<time>2010-06-20T13:22:05Z</time>
<desc>lat.=55.969189, lon.=26.672918, Alt.=118.889709m. Speed=24.516001m/h.</desc>
<speed>6.810000</speed>
</trkpt>
<trkpt lat="55.969131" lon="26.672882">
<ele>119.131897</ele>
<time>2010-06-20T13:22:06Z</time>
<desc>lat.=55.969131, lon.=26.672882, Alt.=119.131897m. Speed=24.191999m/h.</desc>
<speed>6.720000</speed>
</trkpt>
<trkpt lat="55.969074" lon="26.672840">
<ele>119.044006</ele>
<time>2010-06-20T13:22:07Z</time>
<desc>lat.=55.969074, lon.=26.672840, Alt.=119.044006m. Speed=24.191999m/h.</desc>
<speed>6.720000</speed>
</trkpt>
<trkpt lat="55.969013" lon="26.672796">
<ele>119.172913</ele>
<time>2010-06-20T13:22:08Z</time>
<desc>lat.=55.969013, lon.=26.672796, Alt.=119.172913m. Speed=25.379999m/h.</desc>
<speed>7.050000</speed>
</trkpt>
<trkpt lat="55.968956" lon="26.672762">
<ele>119.501038</ele>
<time>2010-06-20T13:22:09Z</time>
<desc>lat.=55.968956, lon.=26.672762, Alt.=119.501038m. Speed=24.120001m/h.</desc>
<speed>6.700000</speed>
</trkpt>
<trkpt lat="55.968895" lon="26.672726">
<ele>119.372131</ele>
<time>2010-06-20T13:22:10Z</time>
<desc>lat.=55.968895, lon.=26.672726, Alt.=119.372131m. Speed=25.559999m/h.</desc>
<speed>7.100000</speed>
</trkpt>
<trkpt lat="55.968830" lon="26.672684">
<ele>119.493225</ele>
<time>2010-06-20T13:22:11Z</time>
<desc>lat.=55.968830, lon.=26.672684, Alt.=119.493225m. Speed=25.128000m/h.</desc>
<speed>6.980000</speed>
</trkpt>
<trkpt lat="55.968769" lon="26.672649">
<ele>119.760803</ele>
<time>2010-06-20T13:22:12Z</time>
<desc>lat.=55.968769, lon.=26.672649, Alt.=119.760803m. Speed=24.732000m/h.</desc>
<speed>6.870000</speed>
</trkpt>
<trkpt lat="55.968712" lon="26.672613">
<ele>120.028381</ele>
<time>2010-06-20T13:22:13Z</time>
<desc>lat.=55.968712, lon.=26.672613, Alt.=120.028381m. Speed=25.128000m/h.</desc>
<speed>6.980000</speed>
</trkpt>
<trkpt lat="55.968651" lon="26.672573">
<ele>120.377991</ele>
<time>2010-06-20T13:22:14Z</time>
<desc>lat.=55.968651, lon.=26.672573, Alt.=120.377991m. Speed=24.516001m/h.</desc>
<speed>6.810000</speed>
</trkpt>
<trkpt lat="55.968594" lon="26.672535">
<ele>120.776428</ele>
<time>2010-06-20T13:22:15Z</time>
<desc>lat.=55.968594, lon.=26.672535, Alt.=120.776428m. Speed=24.084000m/h.</desc>
<speed>6.690000</speed>
</trkpt>
<trkpt lat="55.968533" lon="26.672491">
<ele>121.165100</ele>
<time>2010-06-20T13:22:16Z</time>
<desc>lat.=55.968533, lon.=26.672491, Alt.=121.165100m. Speed=24.444000m/h.</desc>
<speed>6.790000</speed>
</trkpt>
<trkpt lat="55.968475" lon="26.672457">
<ele>122.170959</ele>
<time>2010-06-20T13:22:17Z</time>
<desc>lat.=55.968475, lon.=26.672457, Alt.=122.170959m. Speed=22.356001m/h.</desc>
<speed>6.210000</speed>
</trkpt>
<trkpt lat="55.968422" lon="26.672421">
<ele>122.106506</ele>
<time>2010-06-20T13:22:18Z</time>
<desc>lat.=55.968422, lon.=26.672421, Alt.=122.106506m. Speed=21.132000m/h.</desc>
<speed>5.870000</speed>
</trkpt>
<trkpt lat="55.968372" lon="26.672388">
<ele>122.219788</ele>
<time>2010-06-20T13:22:19Z</time>
<desc>lat.=55.968372, lon.=26.672388, Alt.=122.219788m. Speed=19.656000m/h.</desc>
<speed>5.460000</speed>
</trkpt>
<trkpt lat="55.968323" lon="26.672359">
<ele>122.413147</ele>
<time>2010-06-20T13:22:20Z</time>
<desc>lat.=55.968323, lon.=26.672359, Alt.=122.413147m. Speed=18.072001m/h.</desc>
<speed>5.020000</speed>
</trkpt>
<trkpt lat="55.968281" lon="26.672325">
<ele>122.362366</ele>
<time>2010-06-20T13:22:21Z</time>
<desc>lat.=55.968281, lon.=26.672325, Alt.=122.362366m. Speed=17.136000m/h.</desc>
<speed>4.760000</speed>
</trkpt>
<trkpt lat="55.968235" lon="26.672298">
<ele>122.491272</ele>
<time>2010-06-20T13:22:22Z</time>
<desc>lat.=55.968235, lon.=26.672298, Alt.=122.491272m. Speed=18.252001m/h.</desc>
<speed>5.070000</speed>
</trkpt>
<trkpt lat="55.968193" lon="26.672262">
<ele>122.446350</ele>
<time>2010-06-20T13:22:23Z</time>
<desc>lat.=55.968193, lon.=26.672262, Alt.=122.446350m. Speed=15.480000m/h.</desc>
<speed>4.300000</speed>
</trkpt>
<trkpt lat="55.968159" lon="26.672237">
<ele>122.706116</ele>
<time>2010-06-20T13:22:24Z</time>
<desc>lat.=55.968159, lon.=26.672237, Alt.=122.706116m. Speed=16.416000m/h.</desc>
<speed>4.560000</speed>
</trkpt>
<trkpt lat="55.968121" lon="26.672213">
<ele>122.917053</ele>
<time>2010-06-20T13:22:25Z</time>
<desc>lat.=55.968121, lon.=26.672213, Alt.=122.917053m. Speed=13.860000m/h.</desc>
<speed>3.850000</speed>
</trkpt>
<trkpt lat="55.968082" lon="26.672186">
<ele>122.670959</ele>
<time>2010-06-20T13:22:26Z</time>
<desc>lat.=55.968082, lon.=26.672186, Alt.=122.670959m. Speed=15.768000m/h.</desc>
<speed>4.380000</speed>
</trkpt>
<trkpt lat="55.968048" lon="26.672155">
<ele>122.868225</ele>
<time>2010-06-20T13:22:27Z</time>
<desc>lat.=55.968048, lon.=26.672155, Alt.=122.868225m. Speed=15.660000m/h.</desc>
<speed>4.350000</speed>
</trkpt>
<trkpt lat="55.968006" lon="26.672123">
<ele>123.202209</ele>
<time>2010-06-20T13:22:28Z</time>
<desc>lat.=55.968006, lon.=26.672123, Alt.=123.202209m. Speed=18.396000m/h.</desc>
<speed>5.110000</speed>
</trkpt>
<trkpt lat="55.967968" lon="26.672089">
<ele>123.540100</ele>
<time>2010-06-20T13:22:29Z</time>
<desc>lat.=55.967968, lon.=26.672089, Alt.=123.540100m. Speed=16.020000m/h.</desc>
<speed>4.450000</speed>
</trkpt>
<trkpt lat="55.967930" lon="26.672058">
<ele>123.876038</ele>
<time>2010-06-20T13:22:30Z</time>
<desc>lat.=55.967930, lon.=26.672058, Alt.=123.876038m. Speed=15.984000m/h.</desc>
<speed>4.440000</speed>
</trkpt>
<trkpt lat="55.967888" lon="26.672020">
<ele>123.811584</ele>
<time>2010-06-20T13:22:31Z</time>
<desc>lat.=55.967888, lon.=26.672020, Alt.=123.811584m. Speed=19.764000m/h.</desc>
<speed>5.490000</speed>
</trkpt>
<trkpt lat="55.967842" lon="26.671988">
<ele>124.286194</ele>
<time>2010-06-20T13:22:32Z</time>
<desc>lat.=55.967842, lon.=26.671988, Alt.=124.286194m. Speed=20.195999m/h.</desc>
<speed>5.610000</speed>
</trkpt>
<trkpt lat="55.967796" lon="26.671951">
<ele>124.504944</ele>
<time>2010-06-20T13:22:33Z</time>
<desc>lat.=55.967796, lon.=26.671951, Alt.=124.504944m. Speed=20.016001m/h.</desc>
<speed>5.560000</speed>
</trkpt>
<trkpt lat="55.967751" lon="26.671913">
<ele>124.897522</ele>
<time>2010-06-20T13:22:34Z</time>
<desc>lat.=55.967751, lon.=26.671913, Alt.=124.897522m. Speed=19.620001m/h.</desc>
<speed>5.450000</speed>
</trkpt>
<trkpt lat="55.967705" lon="26.671867">
<ele>125.294006</ele>
<time>2010-06-20T13:22:35Z</time>
<desc>lat.=55.967705, lon.=26.671867, Alt.=125.294006m. Speed=20.304001m/h.</desc>
<speed>5.640000</speed>
</trkpt>
<trkpt lat="55.967659" lon="26.671827">
<ele>125.481506</ele>
<time>2010-06-20T13:22:36Z</time>
<desc>lat.=55.967659, lon.=26.671827, Alt.=125.481506m. Speed=18.648001m/h.</desc>
<speed>5.180000</speed>
</trkpt>
<trkpt lat="55.967613" lon="26.671789">
<ele>125.436584</ele>
<time>2010-06-20T13:22:37Z</time>
<desc>lat.=55.967613, lon.=26.671789, Alt.=125.436584m. Speed=19.656000m/h.</desc>
<speed>5.460000</speed>
</trkpt>
<trkpt lat="55.967567" lon="26.671749">
<ele>125.223694</ele>
<time>2010-06-20T13:22:38Z</time>
<desc>lat.=55.967567, lon.=26.671749, Alt.=125.223694m. Speed=20.844000m/h.</desc>
<speed>5.790000</speed>
</trkpt>
<trkpt lat="55.967525" lon="26.671713">
<ele>125.534241</ele>
<time>2010-06-20T13:22:39Z</time>
<desc>lat.=55.967525, lon.=26.671713, Alt.=125.534241m. Speed=16.236000m/h.</desc>
<speed>4.510000</speed>
</trkpt>
<trkpt lat="55.967487" lon="26.671677">
<ele>125.657288</ele>
<time>2010-06-20T13:22:40Z</time>
<desc>lat.=55.967487, lon.=26.671677, Alt.=125.657288m. Speed=17.388000m/h.</desc>
<speed>4.830000</speed>
</trkpt>
<trkpt lat="55.967449" lon="26.671646">
<ele>125.698303</ele>
<time>2010-06-20T13:22:41Z</time>
<desc>lat.=55.967449, lon.=26.671646, Alt.=125.698303m. Speed=15.984000m/h.</desc>
<speed>4.440000</speed>
</trkpt>
<trkpt lat="55.967396" lon="26.671604">
<ele>127.079163</ele>
<time>2010-06-20T13:22:42Z</time>
<desc>lat.=55.967396, lon.=26.671604, Alt.=127.079163m. Speed=17.927999m/h.</desc>
<speed>4.980000</speed>
</trkpt>
<trkpt lat="55.967369" lon="26.671577">
<ele>127.661194</ele>
<time>2010-06-20T13:22:43Z</time>
<desc>lat.=55.967369, lon.=26.671577, Alt.=127.661194m. Speed=15.264000m/h.</desc>
<speed>4.240000</speed>
</trkpt>
<trkpt lat="55.967327" lon="26.671543">
<ele>127.924866</ele>
<time>2010-06-20T13:22:44Z</time>
<desc>lat.=55.967327, lon.=26.671543, Alt.=127.924866m. Speed=17.208000m/h.</desc>
<speed>4.780000</speed>
</trkpt>
<trkpt lat="55.967285" lon="26.671503">
<ele>127.688538</ele>
<time>2010-06-20T13:22:45Z</time>
<desc>lat.=55.967285, lon.=26.671503, Alt.=127.688538m. Speed=17.243999m/h.</desc>
<speed>4.790000</speed>
</trkpt>
<trkpt lat="55.967247" lon="26.671465">
<ele>127.407288</ele>
<time>2010-06-20T13:22:46Z</time>
<desc>lat.=55.967247, lon.=26.671465, Alt.=127.407288m. Speed=17.063999m/h.</desc>
<speed>4.740000</speed>
</trkpt>
<trkpt lat="55.967205" lon="26.671431">
<ele>127.413147</ele>
<time>2010-06-20T13:22:47Z</time>
<desc>lat.=55.967205, lon.=26.671431, Alt.=127.413147m. Speed=16.920000m/h.</desc>
<speed>4.700000</speed>
</trkpt>
<trkpt lat="55.967163" lon="26.671392">
<ele>127.497131</ele>
<time>2010-06-20T13:22:48Z</time>
<desc>lat.=55.967163, lon.=26.671392, Alt.=127.497131m. Speed=16.379999m/h.</desc>
<speed>4.550000</speed>
</trkpt>
<trkpt lat="55.967129" lon="26.671358">
<ele>127.538147</ele>
<time>2010-06-20T13:22:49Z</time>
<desc>lat.=55.967129, lon.=26.671358, Alt.=127.538147m. Speed=15.984000m/h.</desc>
<speed>4.440000</speed>
</trkpt>
<trkpt lat="55.967091" lon="26.671324">
<ele>127.563538</ele>
<time>2010-06-20T13:22:50Z</time>
<desc>lat.=55.967091, lon.=26.671324, Alt.=127.563538m. Speed=15.372000m/h.</desc>
<speed>4.270000</speed>
</trkpt>
<trkpt lat="55.967052" lon="26.671291">
<ele>127.547913</ele>
<time>2010-06-20T13:22:51Z</time>
<desc>lat.=55.967052, lon.=26.671291, Alt.=127.547913m. Speed=14.868000m/h.</desc>
<speed>4.130000</speed>
</trkpt>
<trkpt lat="55.967022" lon="26.671261">
<ele>127.534241</ele>
<time>2010-06-20T13:22:52Z</time>
<desc>lat.=55.967022, lon.=26.671261, Alt.=127.534241m. Speed=14.616000m/h.</desc>
<speed>4.060000</speed>
</trkpt>
<trkpt lat="55.966988" lon="26.671228">
<ele>127.600647</ele>
<time>2010-06-20T13:22:53Z</time>
<desc>lat.=55.966988, lon.=26.671228, Alt.=127.600647m. Speed=13.752000m/h.</desc>
<speed>3.820000</speed>
</trkpt>
<trkpt lat="55.966957" lon="26.671204">
<ele>127.551819</ele>
<time>2010-06-20T13:22:54Z</time>
<desc>lat.=55.966957, lon.=26.671204, Alt.=127.551819m. Speed=13.644000m/h.</desc>
<speed>3.790000</speed>
</trkpt>
<trkpt lat="55.966927" lon="26.671177">
<ele>127.663147</ele>
<time>2010-06-20T13:22:55Z</time>
<desc>lat.=55.966927, lon.=26.671177, Alt.=127.663147m. Speed=13.356000m/h.</desc>
<speed>3.710000</speed>
</trkpt>
<trkpt lat="55.966900" lon="26.671152">
<ele>127.836975</ele>
<time>2010-06-20T13:22:56Z</time>
<desc>lat.=55.966900, lon.=26.671152, Alt.=127.836975m. Speed=13.068000m/h.</desc>
<speed>3.630000</speed>
</trkpt>
<trkpt lat="55.966869" lon="26.671131">
<ele>128.279419</ele>
<time>2010-06-20T13:22:57Z</time>
<desc>lat.=55.966869, lon.=26.671131, Alt.=128.279419m. Speed=12.348000m/h.</desc>
<speed>3.430000</speed>
</trkpt>
<trkpt lat="55.966843" lon="26.671106">
<ele>128.537231</ele>
<time>2010-06-20T13:22:58Z</time>
<desc>lat.=55.966843, lon.=26.671106, Alt.=128.537231m. Speed=11.772000m/h.</desc>
<speed>3.270000</speed>
</trkpt>
<trkpt lat="55.966816" lon="26.671083">
<ele>128.791138</ele>
<time>2010-06-20T13:22:59Z</time>
<desc>lat.=55.966816, lon.=26.671083, Alt.=128.791138m. Speed=11.484000m/h.</desc>
<speed>3.190000</speed>
</trkpt>
<trkpt lat="55.966793" lon="26.671061">
<ele>129.060669</ele>
<time>2010-06-20T13:23:00Z</time>
<desc>lat.=55.966793, lon.=26.671061, Alt.=129.060669m. Speed=11.088000m/h.</desc>
<speed>3.080000</speed>
</trkpt>
<trkpt lat="55.966766" lon="26.671040">
<ele>129.220825</ele>
<time>2010-06-20T13:23:01Z</time>
<desc>lat.=55.966766, lon.=26.671040, Alt.=129.220825m. Speed=10.404000m/h.</desc>
<speed>2.890000</speed>
</trkpt>
<trkpt lat="55.966743" lon="26.671021">
<ele>129.213013</ele>
<time>2010-06-20T13:23:02Z</time>
<desc>lat.=55.966743, lon.=26.671021, Alt.=129.213013m. Speed=10.080000m/h.</desc>
<speed>2.800000</speed>
</trkpt>
<trkpt lat="55.966724" lon="26.670990">
<ele>129.548950</ele>
<time>2010-06-20T13:23:03Z</time>
<desc>lat.=55.966724, lon.=26.670990, Alt.=129.548950m. Speed=11.088000m/h.</desc>
<speed>3.080000</speed>
</trkpt>
<trkpt lat="55.966709" lon="26.670959">
<ele>130.185669</ele>
<time>2010-06-20T13:23:04Z</time>
<desc>lat.=55.966709, lon.=26.670959, Alt.=130.185669m. Speed=6.444000m/h.</desc>
<speed>1.790000</speed>
</trkpt>
<trkpt lat="55.966705" lon="26.670935">
<ele>130.709106</ele>
<time>2010-06-20T13:23:05Z</time>
<desc>lat.=55.966705, lon.=26.670935, Alt.=130.709106m. Speed=4.860000m/h.</desc>
<speed>1.350000</speed>
</trkpt>
<trkpt lat="55.966698" lon="26.670918">
<ele>131.275513</ele>
<time>2010-06-20T13:23:06Z</time>
<desc>lat.=55.966698, lon.=26.670918, Alt.=131.275513m. Speed=4.392000m/h.</desc>
<speed>1.220000</speed>
</trkpt>
<trkpt lat="55.966686" lon="26.670906">
<ele>131.670044</ele>
<time>2010-06-20T13:23:07Z</time>
<desc>lat.=55.966686, lon.=26.670906, Alt.=131.670044m. Speed=5.472000m/h.</desc>
<speed>1.520000</speed>
</trkpt>
<trkpt lat="55.966667" lon="26.670883">
<ele>131.361450</ele>
<time>2010-06-20T13:23:08Z</time>
<desc>lat.=55.966667, lon.=26.670883, Alt.=131.361450m. Speed=6.804000m/h.</desc>
<speed>1.890000</speed>
</trkpt>
<trkpt lat="55.966648" lon="26.670876">
<ele>131.720825</ele>
<time>2010-06-20T13:23:09Z</time>
<desc>lat.=55.966648, lon.=26.670876, Alt.=131.720825m. Speed=6.984000m/h.</desc>
<speed>1.940000</speed>
</trkpt>
<trkpt lat="55.966629" lon="26.670870">
<ele>131.974731</ele>
<time>2010-06-20T13:23:10Z</time>
<desc>lat.=55.966629, lon.=26.670870, Alt.=131.974731m. Speed=6.264000m/h.</desc>
<speed>1.740000</speed>
</trkpt>
<trkpt lat="55.966614" lon="26.670860">
<ele>131.904419</ele>
<time>2010-06-20T13:23:11Z</time>
<desc>lat.=55.966614, lon.=26.670860, Alt.=131.904419m. Speed=6.408000m/h.</desc>
<speed>1.780000</speed>
</trkpt>
<trkpt lat="55.966595" lon="26.670849">
<ele>132.005981</ele>
<time>2010-06-20T13:23:12Z</time>
<desc>lat.=55.966595, lon.=26.670849, Alt.=132.005981m. Speed=7.056000m/h.</desc>
<speed>1.960000</speed>
</trkpt>
<trkpt lat="55.966579" lon="26.670837">
<ele>132.107544</ele>
<time>2010-06-20T13:23:13Z</time>
<desc>lat.=55.966579, lon.=26.670837, Alt.=132.107544m. Speed=6.300000m/h.</desc>
<speed>1.750000</speed>
</trkpt>
<trkpt lat="55.966568" lon="26.670830">
<ele>132.263794</ele>
<time>2010-06-20T13:23:14Z</time>
<desc>lat.=55.966568, lon.=26.670830, Alt.=132.263794m. Speed=5.112000m/h.</desc>
<speed>1.420000</speed>
</trkpt>
<trkpt lat="55.966553" lon="26.670824">
<ele>132.177856</ele>
<time>2010-06-20T13:23:15Z</time>
<desc>lat.=55.966553, lon.=26.670824, Alt.=132.177856m. Speed=2.808000m/h.</desc>
<speed>0.780000</speed>
</trkpt>
<trkpt lat="55.966537" lon="26.670797">
<ele>131.521606</ele>
<time>2010-06-20T13:23:16Z</time>
<desc>lat.=55.966537, lon.=26.670797, Alt.=131.521606m. Speed=7.416000m/h.</desc>
<speed>2.060000</speed>
</trkpt>
<trkpt lat="55.966526" lon="26.670776">
<ele>130.697388</ele>
<time>2010-06-20T13:23:17Z</time>
<desc>lat.=55.966526, lon.=26.670776, Alt.=130.697388m. Speed=8.928000m/h.</desc>
<speed>2.480000</speed>
</trkpt>
<trkpt lat="55.966518" lon="26.670769">
<ele>130.033325</ele>
<time>2010-06-20T13:23:18Z</time>
<desc>lat.=55.966518, lon.=26.670769, Alt.=130.033325m. Speed=3.096000m/h.</desc>
<speed>0.860000</speed>
</trkpt>
<trkpt lat="55.966515" lon="26.670763">
<ele>129.384888</ele>
<time>2010-06-20T13:23:19Z</time>
<desc>lat.=55.966515, lon.=26.670763, Alt.=129.384888m. Speed=1.836000m/h.</desc>
<speed>0.510000</speed>
</trkpt>
<trkpt lat="55.966507" lon="26.670767">
<ele>128.724731</ele>
<time>2010-06-20T13:23:20Z</time>
<desc>lat.=55.966507, lon.=26.670767, Alt.=128.724731m. Speed=1.944000m/h.</desc>
<speed>0.540000</speed>
</trkpt>
<trkpt lat="55.966499" lon="26.670769">
<ele>128.088013</ele>
<time>2010-06-20T13:23:21Z</time>
<desc>lat.=55.966499, lon.=26.670769, Alt.=128.088013m. Speed=1.224000m/h.</desc>
<speed>0.340000</speed>
</trkpt>
<trkpt lat="55.966496" lon="26.670765">
<ele>127.407288</ele>
<time>2010-06-20T13:23:22Z</time>
<desc>lat.=55.966496, lon.=26.670765, Alt.=127.407288m. Speed=2.448000m/h.</desc>
<speed>0.680000</speed>
</trkpt>
<trkpt lat="55.966492" lon="26.670761">
<ele>126.733459</ele>
<time>2010-06-20T13:23:23Z</time>
<desc>lat.=55.966492, lon.=26.670761, Alt.=126.733459m. Speed=1.080000m/h.</desc>
<speed>0.300000</speed>
</trkpt>
<trkpt lat="55.966488" lon="26.670761">
<ele>126.045959</ele>
<time>2010-06-20T13:23:24Z</time>
<desc>lat.=55.966488, lon.=26.670761, Alt.=126.045959m. Speed=1.188000m/h.</desc>
<speed>0.330000</speed>
</trkpt>
<trkpt lat="55.966484" lon="26.670759">
<ele>125.364319</ele>
<time>2010-06-20T13:23:25Z</time>
<desc>lat.=55.966484, lon.=26.670759, Alt.=125.364319m. Speed=1.188000m/h.</desc>
<speed>0.330000</speed>
</trkpt>
<trkpt lat="55.966480" lon="26.670757">
<ele>124.891663</ele>
<time>2010-06-20T13:23:26Z</time>
<desc>lat.=55.966480, lon.=26.670757, Alt.=124.891663m. Speed=1.080000m/h.</desc>
<speed>0.300000</speed>
</trkpt>
<trkpt lat="55.966476" lon="26.670755">
<ele>124.432678</ele>
<time>2010-06-20T13:23:27Z</time>
<desc>lat.=55.966476, lon.=26.670755, Alt.=124.432678m. Speed=2.304000m/h.</desc>
<speed>0.640000</speed>
</trkpt>
<trkpt lat="55.966473" lon="26.670752">
<ele>124.106506</ele>
<time>2010-06-20T13:23:28Z</time>
<desc>lat.=55.966473, lon.=26.670752, Alt.=124.106506m. Speed=2.520000m/h.</desc>
<speed>0.700000</speed>
</trkpt>
<trkpt lat="55.966469" lon="26.670746">
<ele>123.788147</ele>
<time>2010-06-20T13:23:29Z</time>
<desc>lat.=55.966469, lon.=26.670746, Alt.=123.788147m. Speed=2.520000m/h.</desc>
<speed>0.700000</speed>
</trkpt>
<trkpt lat="55.966461" lon="26.670740">
<ele>123.473694</ele>
<time>2010-06-20T13:23:30Z</time>
<desc>lat.=55.966461, lon.=26.670740, Alt.=123.473694m. Speed=2.520000m/h.</desc>
<speed>0.700000</speed>
</trkpt>
<trkpt lat="55.966457" lon="26.670734">
<ele>123.159241</ele>
<time>2010-06-20T13:23:31Z</time>
<desc>lat.=55.966457, lon.=26.670734, Alt.=123.159241m. Speed=2.664000m/h.</desc>
<speed>0.740000</speed>
</trkpt>
<trkpt lat="55.966450" lon="26.670731">
<ele>122.854553</ele>
<time>2010-06-20T13:23:32Z</time>
<desc>lat.=55.966450, lon.=26.670731, Alt.=122.854553m. Speed=2.556000m/h.</desc>
<speed>0.710000</speed>
</trkpt>
<trkpt lat="55.966446" lon="26.670727">
<ele>122.559631</ele>
<time>2010-06-20T13:23:33Z</time>
<desc>lat.=55.966446, lon.=26.670727, Alt.=122.559631m. Speed=2.376000m/h.</desc>
<speed>0.660000</speed>
</trkpt>
<trkpt lat="55.966438" lon="26.670721">
<ele>122.258850</ele>
<time>2010-06-20T13:23:34Z</time>
<desc>lat.=55.966438, lon.=26.670721, Alt.=122.258850m. Speed=2.412000m/h.</desc>
<speed>0.670000</speed>
</trkpt>
<trkpt lat="55.966434" lon="26.670717">
<ele>121.969788</ele>
<time>2010-06-20T13:23:35Z</time>
<desc>lat.=55.966434, lon.=26.670717, Alt.=121.969788m. Speed=2.268000m/h.</desc>
<speed>0.630000</speed>
</trkpt>
<trkpt lat="55.966431" lon="26.670712">
<ele>121.694397</ele>
<time>2010-06-20T13:23:36Z</time>
<desc>lat.=55.966431, lon.=26.670712, Alt.=121.694397m. Speed=2.088000m/h.</desc>
<speed>0.580000</speed>
</trkpt>
<trkpt lat="55.966423" lon="26.670708">
<ele>121.450256</ele>
<time>2010-06-20T13:23:37Z</time>
<desc>lat.=55.966423, lon.=26.670708, Alt.=121.450256m. Speed=1.080000m/h.</desc>
<speed>0.300000</speed>
</trkpt>
<trkpt lat="55.966423" lon="26.670708">
<ele>121.362366</ele>
<time>2010-06-20T13:23:38Z</time>
<desc>lat.=55.966423, lon.=26.670708, Alt.=121.362366m. Speed=0.900000m/h.</desc>
<speed>0.250000</speed>
</trkpt>
<trkpt lat="55.966419" lon="26.670708">
<ele>121.305725</ele>
<time>2010-06-20T13:23:39Z</time>
<desc>lat.=55.966419, lon.=26.670708, Alt.=121.305725m. Speed=0.144000m/h.</desc>
<speed>0.040000</speed>
</trkpt>
<trkpt lat="55.966419" lon="26.670708">
<ele>121.264709</ele>
<time>2010-06-20T13:23:40Z</time>
<desc>lat.=55.966419, lon.=26.670708, Alt.=121.264709m. Speed=0.972000m/h.</desc>
<speed>0.270000</speed>
</trkpt>
<trkpt lat="55.966419" lon="26.670712">
<ele>121.245178</ele>
<time>2010-06-20T13:23:41Z</time>
<desc>lat.=55.966419, lon.=26.670712, Alt.=121.245178m. Speed=0.504000m/h.</desc>
<speed>0.140000</speed>
</trkpt>
<trkpt lat="55.966419" lon="26.670712">
<ele>121.237366</ele>
<time>2010-06-20T13:23:42Z</time>
<desc>lat.=55.966419, lon.=26.670712, Alt.=121.237366m. Speed=0.792000m/h.</desc>
<speed>0.220000</speed>
</trkpt>
<trkpt lat="55.966419" lon="26.670712">
<ele>121.229553</ele>
<time>2010-06-20T13:23:43Z</time>
<desc>lat.=55.966419, lon.=26.670712, Alt.=121.229553m. Speed=0.180000m/h.</desc>
<speed>0.050000</speed>
</trkpt>
<trkpt lat="55.966419" lon="26.670712">
<ele>121.233459</ele>
<time>2010-06-20T13:23:44Z</time>
<desc>lat.=55.966419, lon.=26.670712, Alt.=121.233459m. Speed=0.036000m/h.</desc>
<speed>0.010000</speed>
</trkpt>
<trkpt lat="55.966419" lon="26.670712">
<ele>121.241272</ele>
<time>2010-06-20T13:23:45Z</time>
<desc>lat.=55.966419, lon.=26.670712, Alt.=121.241272m. Speed=0.000000m/h.</desc>
<speed>0.000000</speed>
</trkpt>
<trkpt lat="55.966419" lon="26.670712">
<ele>121.247131</ele>
<time>2010-06-20T13:23:46Z</time>
<desc>lat.=55.966419, lon.=26.670712, Alt.=121.247131m. Speed=0.036000m/h.</desc>
<speed>0.010000</speed>
</trkpt>
<trkpt lat="55.966419" lon="26.670712">
<ele>121.235413</ele>
<time>2010-06-20T13:23:47Z</time>
<desc>lat.=55.966419, lon.=26.670712, Alt.=121.235413m. Speed=0.108000m/h.</desc>
<speed>0.030000</speed>
</trkpt>
<trkpt lat="55.966423" lon="26.670712">
<ele>121.252991</ele>
<time>2010-06-20T13:23:48Z</time>
<desc>lat.=55.966423, lon.=26.670712, Alt.=121.252991m. Speed=0.108000m/h.</desc>
<speed>0.030000</speed>
</trkpt>
<trkpt lat="55.966423" lon="26.670712">
<ele>121.256897</ele>
<time>2010-06-20T13:23:49Z</time>
<desc>lat.=55.966423, lon.=26.670712, Alt.=121.256897m. Speed=0.108000m/h.</desc>
<speed>0.030000</speed>
</trkpt>
<trkpt lat="55.966423" lon="26.670712">
<ele>121.262756</ele>
<time>2010-06-20T13:23:50Z</time>
<desc>lat.=55.966423, lon.=26.670712, Alt.=121.262756m. Speed=0.072000m/h.</desc>
<speed>0.020000</speed>
</trkpt>
<trkpt lat="55.966423" lon="26.670712">
<ele>121.272522</ele>
<time>2010-06-20T13:23:51Z</time>
<desc>lat.=55.966423, lon.=26.670712, Alt.=121.272522m. Speed=0.000000m/h.</desc>
<speed>0.000000</speed>
</trkpt>
<trkpt lat="55.966423" lon="26.670712">
<ele>121.278381</ele>
<time>2010-06-20T13:23:52Z</time>
<desc>lat.=55.966423, lon.=26.670712, Alt.=121.278381m. Speed=0.036000m/h.</desc>
<speed>0.010000</speed>
</trkpt>
<trkpt lat="55.966423" lon="26.670712">
<ele>121.284241</ele>
<time>2010-06-20T13:23:53Z</time>
<desc>lat.=55.966423, lon.=26.670712, Alt.=121.284241m. Speed=0.072000m/h.</desc>
<speed>0.020000</speed>
</trkpt>
<trkpt lat="55.966423" lon="26.670712">
<ele>121.295959</ele>
<time>2010-06-20T13:23:54Z</time>
<desc>lat.=55.966423, lon.=26.670712, Alt.=121.295959m. Speed=0.108000m/h.</desc>
<speed>0.030000</speed>
</trkpt>
<trkpt lat="55.966423" lon="26.670712">
<ele>121.301819</ele>
<time>2010-06-20T13:23:55Z</time>
<desc>lat.=55.966423, lon.=26.670712, Alt.=121.301819m. Speed=0.036000m/h.</desc>
<speed>0.010000</speed>
</trkpt>
<trkpt lat="55.966423" lon="26.670712">
<ele>121.313538</ele>
<time>2010-06-20T13:23:56Z</time>
<desc>lat.=55.966423, lon.=26.670712, Alt.=121.313538m. Speed=0.036000m/h.</desc>
<speed>0.010000</speed>
</trkpt>
<trkpt lat="55.966423" lon="26.670712">
<ele>121.319397</ele>
<time>2010-06-20T13:23:57Z</time>
<desc>lat.=55.966423, lon.=26.670712, Alt.=121.319397m. Speed=0.000000m/h.</desc>
<speed>0.000000</speed>
</trkpt>
<trkpt lat="55.966423" lon="26.670712">
<ele>121.329163</ele>
<time>2010-06-20T13:23:58Z</time>
<desc>lat.=55.966423, lon.=26.670712, Alt.=121.329163m. Speed=0.036000m/h.</desc>
<speed>0.010000</speed>
</trkpt>
<trkpt lat="55.966423" lon="26.670712">
<ele>121.336975</ele>
<time>2010-06-20T13:23:59Z</time>
<desc>lat.=55.966423, lon.=26.670712, Alt.=121.336975m. Speed=0.036000m/h.</desc>
<speed>0.010000</speed>
</trkpt>
<trkpt lat="55.966423" lon="26.670712">
<ele>121.346741</ele>
<time>2010-06-20T13:24:00Z</time>
<desc>lat.=55.966423, lon.=26.670712, Alt.=121.346741m. Speed=0.036000m/h.</desc>
<speed>0.010000</speed>
</trkpt>
<trkpt lat="55.966423" lon="26.670712">
<ele>121.350647</ele>
<time>2010-06-20T13:24:01Z</time>
<desc>lat.=55.966423, lon.=26.670712, Alt.=121.350647m. Speed=0.000000m/h.</desc>
<speed>0.000000</speed>
</trkpt>
<trkpt lat="55.966423" lon="26.670712">
<ele>121.356506</ele>
<time>2010-06-20T13:24:02Z</time>
<desc>lat.=55.966423, lon.=26.670712, Alt.=121.356506m. Speed=0.036000m/h.</desc>
<speed>0.010000</speed>
</trkpt>
<trkpt lat="55.966423" lon="26.670712">
<ele>121.358459</ele>
<time>2010-06-20T13:24:03Z</time>
<desc>lat.=55.966423, lon.=26.670712, Alt.=121.358459m. Speed=0.108000m/h.</desc>
<speed>0.030000</speed>
</trkpt>
<trkpt lat="55.966423" lon="26.670712">
<ele>121.362366</ele>
<time>2010-06-20T13:24:04Z</time>
<desc>lat.=55.966423, lon.=26.670712, Alt.=121.362366m. Speed=0.072000m/h.</desc>
<speed>0.020000</speed>
</trkpt>
<trkpt lat="55.966423" lon="26.670712">
<ele>121.368225</ele>
<time>2010-06-20T13:24:05Z</time>
<desc>lat.=55.966423, lon.=26.670712, Alt.=121.368225m. Speed=0.036000m/h.</desc>
<speed>0.010000</speed>
</trkpt>
<trkpt lat="55.966423" lon="26.670712">
<ele>121.372131</ele>
<time>2010-06-20T13:24:06Z</time>
<desc>lat.=55.966423, lon.=26.670712, Alt.=121.372131m. Speed=0.000000m/h.</desc>
<speed>0.000000</speed>
</trkpt>
<trkpt lat="55.966423" lon="26.670712">
<ele>121.376038</ele>
<time>2010-06-20T13:24:07Z</time>
<desc>lat.=55.966423, lon.=26.670712, Alt.=121.376038m. Speed=0.000000m/h.</desc>
<speed>0.000000</speed>
</trkpt>
<trkpt lat="55.966423" lon="26.670713">
<ele>121.387756</ele>
<time>2010-06-20T13:24:08Z</time>
<desc>lat.=55.966423, lon.=26.670713, Alt.=121.387756m. Speed=0.036000m/h.</desc>
<speed>0.010000</speed>
</trkpt>
<trkpt lat="55.966423" lon="26.670713">
<ele>121.395569</ele>
<time>2010-06-20T13:24:09Z</time>
<desc>lat.=55.966423, lon.=26.670713, Alt.=121.395569m. Speed=0.000000m/h.</desc>
<speed>0.000000</speed>
</trkpt>
<trkpt lat="55.966423" lon="26.670713">
<ele>121.405334</ele>
<time>2010-06-20T13:24:10Z</time>
<desc>lat.=55.966423, lon.=26.670713, Alt.=121.405334m. Speed=0.000000m/h.</desc>
<speed>0.000000</speed>
</trkpt>
<trkpt lat="55.966423" lon="26.670713">
<ele>121.411194</ele>
<time>2010-06-20T13:24:11Z</time>
<desc>lat.=55.966423, lon.=26.670713, Alt.=121.411194m. Speed=0.000000m/h.</desc>
<speed>0.000000</speed>
</trkpt>
<trkpt lat="55.966423" lon="26.670713">
<ele>121.415100</ele>
<time>2010-06-20T13:24:12Z</time>
<desc>lat.=55.966423, lon.=26.670713, Alt.=121.415100m. Speed=0.000000m/h.</desc>
<speed>0.000000</speed>
</trkpt>
<trkpt lat="55.966423" lon="26.670713">
<ele>121.419006</ele>
<time>2010-06-20T13:24:13Z</time>
<desc>lat.=55.966423, lon.=26.670713, Alt.=121.419006m. Speed=0.000000m/h.</desc>
<speed>0.000000</speed>
</trkpt>
<trkpt lat="55.966423" lon="26.670713">
<ele>121.422913</ele>
<time>2010-06-20T13:24:14Z</time>
<desc>lat.=55.966423, lon.=26.670713, Alt.=121.422913m. Speed=0.144000m/h.</desc>
<speed>0.040000</speed>
</trkpt>
<trkpt lat="55.966423" lon="26.670713">
<ele>121.424866</ele>
<time>2010-06-20T13:24:15Z</time>
<desc>lat.=55.966423, lon.=26.670713, Alt.=121.424866m. Speed=0.324000m/h.</desc>
<speed>0.090000</speed>
</trkpt>
<trkpt lat="55.966423" lon="26.670713">
<ele>121.426819</ele>
<time>2010-06-20T13:24:16Z</time>
<desc>lat.=55.966423, lon.=26.670713, Alt.=121.426819m. Speed=0.288000m/h.</desc>
<speed>0.080000</speed>
</trkpt>
<trkpt lat="55.966423" lon="26.670713">
<ele>121.428772</ele>
<time>2010-06-20T13:24:17Z</time>
<desc>lat.=55.966423, lon.=26.670713, Alt.=121.428772m. Speed=0.396000m/h.</desc>
<speed>0.110000</speed>
</trkpt>
<trkpt lat="55.966423" lon="26.670713">
<ele>121.430725</ele>
<time>2010-06-20T13:24:18Z</time>
<desc>lat.=55.966423, lon.=26.670713, Alt.=121.430725m. Speed=0.000000m/h.</desc>
<speed>0.000000</speed>
</trkpt>
<trkpt lat="55.966423" lon="26.670713">
<ele>121.432678</ele>
<time>2010-06-20T13:24:19Z</time>
<desc>lat.=55.966423, lon.=26.670713, Alt.=121.432678m. Speed=0.108000m/h.</desc>
<speed>0.030000</speed>
</trkpt>
<trkpt lat="55.966423" lon="26.670713">
<ele>121.434631</ele>
<time>2010-06-20T13:24:20Z</time>
<desc>lat.=55.966423, lon.=26.670713, Alt.=121.434631m. Speed=0.072000m/h.</desc>
<speed>0.020000</speed>
</trkpt>
<trkpt lat="55.966423" lon="26.670713">
<ele>121.440491</ele>
<time>2010-06-20T13:24:21Z</time>
<desc>lat.=55.966423, lon.=26.670713, Alt.=121.440491m. Speed=0.036000m/h.</desc>
<speed>0.010000</speed>
</trkpt>
<trkpt lat="55.966423" lon="26.670713">
<ele>121.444397</ele>
<time>2010-06-20T13:24:22Z</time>
<desc>lat.=55.966423, lon.=26.670713, Alt.=121.444397m. Speed=0.036000m/h.</desc>
<speed>0.010000</speed>
</trkpt>
<trkpt lat="55.966423" lon="26.670713">
<ele>121.448303</ele>
<time>2010-06-20T13:24:23Z</time>
<desc>lat.=55.966423, lon.=26.670713, Alt.=121.448303m. Speed=0.036000m/h.</desc>
<speed>0.010000</speed>
</trkpt>
<trkpt lat="55.966423" lon="26.670713">
<ele>121.450256</ele>
<time>2010-06-20T13:24:24Z</time>
<desc>lat.=55.966423, lon.=26.670713, Alt.=121.450256m. Speed=0.036000m/h.</desc>
<speed>0.010000</speed>
</trkpt>
<trkpt lat="55.966423" lon="26.670713">
<ele>121.450256</ele>
<time>2010-06-20T13:24:25Z</time>
<desc>lat.=55.966423, lon.=26.670713, Alt.=121.450256m. Speed=0.072000m/h.</desc>
<speed>0.020000</speed>
</trkpt>
<trkpt lat="55.966423" lon="26.670713">
<ele>121.454163</ele>
<time>2010-06-20T13:24:26Z</time>
<desc>lat.=55.966423, lon.=26.670713, Alt.=121.454163m. Speed=0.144000m/h.</desc>
<speed>0.040000</speed>
</trkpt>
<trkpt lat="55.966423" lon="26.670713">
<ele>121.458069</ele>
<time>2010-06-20T13:24:27Z</time>
<desc>lat.=55.966423, lon.=26.670713, Alt.=121.458069m. Speed=0.036000m/h.</desc>
<speed>0.010000</speed>
</trkpt>
<trkpt lat="55.966423" lon="26.670713">
<ele>121.460022</ele>
<time>2010-06-20T13:24:28Z</time>
<desc>lat.=55.966423, lon.=26.670713, Alt.=121.460022m. Speed=0.000000m/h.</desc>
<speed>0.000000</speed>
</trkpt>
<trkpt lat="55.966423" lon="26.670713">
<ele>121.461975</ele>
<time>2010-06-20T13:24:29Z</time>
<desc>lat.=55.966423, lon.=26.670713, Alt.=121.461975m. Speed=0.036000m/h.</desc>
<speed>0.010000</speed>
</trkpt>
<trkpt lat="55.966423" lon="26.670713">
<ele>121.463928</ele>
<time>2010-06-20T13:24:30Z</time>
<desc>lat.=55.966423, lon.=26.670713, Alt.=121.463928m. Speed=0.036000m/h.</desc>
<speed>0.010000</speed>
</trkpt>
<trkpt lat="55.966423" lon="26.670713">
<ele>121.458069</ele>
<time>2010-06-20T13:24:31Z</time>
<desc>lat.=55.966423, lon.=26.670713, Alt.=121.458069m. Speed=0.252000m/h.</desc>
<speed>0.070000</speed>
</trkpt>
<trkpt lat="55.966423" lon="26.670713">
<ele>121.452209</ele>
<time>2010-06-20T13:24:32Z</time>
<desc>lat.=55.966423, lon.=26.670713, Alt.=121.452209m. Speed=0.144000m/h.</desc>
<speed>0.040000</speed>
</trkpt>
<trkpt lat="55.966423" lon="26.670713">
<ele>121.446350</ele>
<time>2010-06-20T13:24:33Z</time>
<desc>lat.=55.966423, lon.=26.670713, Alt.=121.446350m. Speed=0.540000m/h.</desc>
<speed>0.150000</speed>
</trkpt>
<trkpt lat="55.966423" lon="26.670715">
<ele>121.446350</ele>
<time>2010-06-20T13:24:34Z</time>
<desc>lat.=55.966423, lon.=26.670715, Alt.=121.446350m. Speed=0.648000m/h.</desc>
<speed>0.180000</speed>
</trkpt>
<trkpt lat="55.966423" lon="26.670717">
<ele>121.450256</ele>
<time>2010-06-20T13:24:35Z</time>
<desc>lat.=55.966423, lon.=26.670717, Alt.=121.450256m. Speed=0.576000m/h.</desc>
<speed>0.160000</speed>
</trkpt>
<trkpt lat="55.966419" lon="26.670719">
<ele>121.446350</ele>
<time>2010-06-20T13:24:36Z</time>
<desc>lat.=55.966419, lon.=26.670719, Alt.=121.446350m. Speed=3.384000m/h.</desc>
<speed>0.940000</speed>
</trkpt>
<trkpt lat="55.966415" lon="26.670706">
<ele>121.436584</ele>
<time>2010-06-20T13:24:37Z</time>
<desc>lat.=55.966415, lon.=26.670706, Alt.=121.436584m. Speed=5.688000m/h.</desc>
<speed>1.580000</speed>
</trkpt>
<trkpt lat="55.966400" lon="26.670694">
<ele>121.501038</ele>
<time>2010-06-20T13:24:38Z</time>
<desc>lat.=55.966400, lon.=26.670694, Alt.=121.501038m. Speed=7.884000m/h.</desc>
<speed>2.190000</speed>
</trkpt>
<trkpt lat="55.966373" lon="26.670677">
<ele>121.626038</ele>
<time>2010-06-20T13:24:39Z</time>
<desc>lat.=55.966373, lon.=26.670677, Alt.=121.626038m. Speed=11.340000m/h.</desc>
<speed>3.150000</speed>
</trkpt>
<trkpt lat="55.966351" lon="26.670652">
<ele>121.725647</ele>
<time>2010-06-20T13:24:40Z</time>
<desc>lat.=55.966351, lon.=26.670652, Alt.=121.725647m. Speed=13.284000m/h.</desc>
<speed>3.690000</speed>
</trkpt>
<trkpt lat="55.966316" lon="26.670622">
<ele>121.696350</ele>
<time>2010-06-20T13:24:41Z</time>
<desc>lat.=55.966316, lon.=26.670622, Alt.=121.696350m. Speed=16.884001m/h.</desc>
<speed>4.690000</speed>
</trkpt>
<trkpt lat="55.966278" lon="26.670591">
<ele>121.801819</ele>
<time>2010-06-20T13:24:42Z</time>
<desc>lat.=55.966278, lon.=26.670591, Alt.=121.801819m. Speed=14.904000m/h.</desc>
<speed>4.140000</speed>
</trkpt>
<trkpt lat="55.966244" lon="26.670561">
<ele>121.872131</ele>
<time>2010-06-20T13:24:43Z</time>
<desc>lat.=55.966244, lon.=26.670561, Alt.=121.872131m. Speed=17.388000m/h.</desc>
<speed>4.830000</speed>
</trkpt>
<trkpt lat="55.966206" lon="26.670523">
<ele>121.870178</ele>
<time>2010-06-20T13:24:44Z</time>
<desc>lat.=55.966206, lon.=26.670523, Alt.=121.870178m. Speed=18.756001m/h.</desc>
<speed>5.210000</speed>
</trkpt>
<trkpt lat="55.966164" lon="26.670485">
<ele>121.895569</ele>
<time>2010-06-20T13:24:45Z</time>
<desc>lat.=55.966164, lon.=26.670485, Alt.=121.895569m. Speed=20.340000m/h.</desc>
<speed>5.650000</speed>
</trkpt>
<trkpt lat="55.966133" lon="26.670456">
<ele>122.708069</ele>
<time>2010-06-20T13:24:46Z</time>
<desc>lat.=55.966133, lon.=26.670456, Alt.=122.708069m. Speed=17.424000m/h.</desc>
<speed>4.840000</speed>
</trkpt>
<trkpt lat="55.966095" lon="26.670414">
<ele>122.784241</ele>
<time>2010-06-20T13:24:47Z</time>
<desc>lat.=55.966095, lon.=26.670414, Alt.=122.784241m. Speed=19.944000m/h.</desc>
<speed>5.540000</speed>
</trkpt>
<trkpt lat="55.966049" lon="26.670376">
<ele>122.797913</ele>
<time>2010-06-20T13:24:48Z</time>
<desc>lat.=55.966049, lon.=26.670376, Alt.=122.797913m. Speed=20.448000m/h.</desc>
<speed>5.680000</speed>
</trkpt>
<trkpt lat="55.966007" lon="26.670336">
<ele>122.700256</ele>
<time>2010-06-20T13:24:49Z</time>
<desc>lat.=55.966007, lon.=26.670336, Alt.=122.700256m. Speed=20.087999m/h.</desc>
<speed>5.580000</speed>
</trkpt>
<trkpt lat="55.965965" lon="26.670296">
<ele>122.588928</ele>
<time>2010-06-20T13:24:50Z</time>
<desc>lat.=55.965965, lon.=26.670296, Alt.=122.588928m. Speed=20.808001m/h.</desc>
<speed>5.780000</speed>
</trkpt>
<trkpt lat="55.965919" lon="26.670258">
<ele>122.592834</ele>
<time>2010-06-20T13:24:51Z</time>
<desc>lat.=55.965919, lon.=26.670258, Alt.=122.592834m. Speed=21.059999m/h.</desc>
<speed>5.850000</speed>
</trkpt>
<trkpt lat="55.965870" lon="26.670219">
<ele>122.645569</ele>
<time>2010-06-20T13:24:52Z</time>
<desc>lat.=55.965870, lon.=26.670219, Alt.=122.645569m. Speed=21.996000m/h.</desc>
<speed>6.110000</speed>
</trkpt>
<trkpt lat="55.965820" lon="26.670177">
<ele>122.553772</ele>
<time>2010-06-20T13:24:53Z</time>
<desc>lat.=55.965820, lon.=26.670177, Alt.=122.553772m. Speed=22.356001m/h.</desc>
<speed>6.210000</speed>
</trkpt>
<trkpt lat="55.965771" lon="26.670134">
<ele>122.430725</ele>
<time>2010-06-20T13:24:54Z</time>
<desc>lat.=55.965771, lon.=26.670134, Alt.=122.430725m. Speed=22.931999m/h.</desc>
<speed>6.370000</speed>
</trkpt>
<trkpt lat="55.965717" lon="26.670097">
<ele>122.202209</ele>
<time>2010-06-20T13:24:55Z</time>
<desc>lat.=55.965717, lon.=26.670097, Alt.=122.202209m. Speed=23.903999m/h.</desc>
<speed>6.640000</speed>
</trkpt>
<trkpt lat="55.965664" lon="26.670050">
<ele>121.627991</ele>
<time>2010-06-20T13:24:56Z</time>
<desc>lat.=55.965664, lon.=26.670050, Alt.=121.627991m. Speed=24.660000m/h.</desc>
<speed>6.850000</speed>
</trkpt>
<trkpt lat="55.965607" lon="26.669998">
<ele>121.495178</ele>
<time>2010-06-20T13:24:57Z</time>
<desc>lat.=55.965607, lon.=26.669998, Alt.=121.495178m. Speed=26.208000m/h.</desc>
<speed>7.280000</speed>
</trkpt>
<trkpt lat="55.965546" lon="26.669949">
<ele>121.169006</ele>
<time>2010-06-20T13:24:58Z</time>
<desc>lat.=55.965546, lon.=26.669949, Alt.=121.169006m. Speed=27.108000m/h.</desc>
<speed>7.530000</speed>
</trkpt>
<trkpt lat="55.965481" lon="26.669893">
<ele>120.733459</ele>
<time>2010-06-20T13:24:59Z</time>
<desc>lat.=55.965481, lon.=26.669893, Alt.=120.733459m. Speed=28.691999m/h.</desc>
<speed>7.970000</speed>
</trkpt>
<trkpt lat="55.965416" lon="26.669836">
<ele>119.917053</ele>
<time>2010-06-20T13:25:00Z</time>
<desc>lat.=55.965416, lon.=26.669836, Alt.=119.917053m. Speed=30.204000m/h.</desc>
<speed>8.390000</speed>
</trkpt>
<trkpt lat="55.965351" lon="26.669781">
<ele>120.610413</ele>
<time>2010-06-20T13:25:01Z</time>
<desc>lat.=55.965351, lon.=26.669781, Alt.=120.610413m. Speed=29.988001m/h.</desc>
<speed>8.330000</speed>
</trkpt>
<trkpt lat="55.965286" lon="26.669722">
<ele>120.692444</ele>
<time>2010-06-20T13:25:02Z</time>
<desc>lat.=55.965286, lon.=26.669722, Alt.=120.692444m. Speed=28.224001m/h.</desc>
<speed>7.840000</speed>
</trkpt>
<trkpt lat="55.965225" lon="26.669668">
<ele>120.588928</ele>
<time>2010-06-20T13:25:03Z</time>
<desc>lat.=55.965225, lon.=26.669668, Alt.=120.588928m. Speed=25.884001m/h.</desc>
<speed>7.190000</speed>
</trkpt>
<trkpt lat="55.965168" lon="26.669619">
<ele>120.862366</ele>
<time>2010-06-20T13:25:04Z</time>
<desc>lat.=55.965168, lon.=26.669619, Alt.=120.862366m. Speed=24.336000m/h.</desc>
<speed>6.760000</speed>
</trkpt>
<trkpt lat="55.965115" lon="26.669575">
<ele>120.667053</ele>
<time>2010-06-20T13:25:05Z</time>
<desc>lat.=55.965115, lon.=26.669575, Alt.=120.667053m. Speed=23.544001m/h.</desc>
<speed>6.540000</speed>
</trkpt>
<trkpt lat="55.965069" lon="26.669529">
<ele>120.745178</ele>
<time>2010-06-20T13:25:06Z</time>
<desc>lat.=55.965069, lon.=26.669529, Alt.=120.745178m. Speed=20.916000m/h.</desc>
<speed>5.810000</speed>
</trkpt>
<trkpt lat="55.965027" lon="26.669485">
<ele>120.795959</ele>
<time>2010-06-20T13:25:07Z</time>
<desc>lat.=55.965027, lon.=26.669485, Alt.=120.795959m. Speed=19.584000m/h.</desc>
<speed>5.440000</speed>
</trkpt>
<trkpt lat="55.964989" lon="26.669441">
<ele>120.854553</ele>
<time>2010-06-20T13:25:08Z</time>
<desc>lat.=55.964989, lon.=26.669441, Alt.=120.854553m. Speed=18.936001m/h.</desc>
<speed>5.260000</speed>
</trkpt>
<trkpt lat="55.964947" lon="26.669407">
<ele>120.948303</ele>
<time>2010-06-20T13:25:09Z</time>
<desc>lat.=55.964947, lon.=26.669407, Alt.=120.948303m. Speed=18.827999m/h.</desc>
<speed>5.230000</speed>
</trkpt>
<trkpt lat="55.964905" lon="26.669374">
<ele>120.948303</ele>
<time>2010-06-20T13:25:10Z</time>
<desc>lat.=55.964905, lon.=26.669374, Alt.=120.948303m. Speed=18.756001m/h.</desc>
<speed>5.210000</speed>
</trkpt>
<trkpt lat="55.964867" lon="26.669346">
<ele>120.821350</ele>
<time>2010-06-20T13:25:11Z</time>
<desc>lat.=55.964867, lon.=26.669346, Alt.=120.821350m. Speed=15.372000m/h.</desc>
<speed>4.270000</speed>
</trkpt>
<trkpt lat="55.964836" lon="26.669319">
<ele>120.725647</ele>
<time>2010-06-20T13:25:12Z</time>
<desc>lat.=55.964836, lon.=26.669319, Alt.=120.725647m. Speed=10.260000m/h.</desc>
<speed>2.850000</speed>
</trkpt>
<trkpt lat="55.964817" lon="26.669298">
<ele>120.639709</ele>
<time>2010-06-20T13:25:13Z</time>
<desc>lat.=55.964817, lon.=26.669298, Alt.=120.639709m. Speed=6.120000m/h.</desc>
<speed>1.700000</speed>
</trkpt>
<trkpt lat="55.964806" lon="26.669289">
<ele>120.301819</ele>
<time>2010-06-20T13:25:14Z</time>
<desc>lat.=55.964806, lon.=26.669289, Alt.=120.301819m. Speed=2.592000m/h.</desc>
<speed>0.720000</speed>
</trkpt>
<trkpt lat="55.964802" lon="26.669287">
<ele>120.083069</ele>
<time>2010-06-20T13:25:15Z</time>
<desc>lat.=55.964802, lon.=26.669287, Alt.=120.083069m. Speed=2.520000m/h.</desc>
<speed>0.700000</speed>
</trkpt>
<trkpt lat="55.964798" lon="26.669294">
<ele>120.428772</ele>
<time>2010-06-20T13:25:16Z</time>
<desc>lat.=55.964798, lon.=26.669294, Alt.=120.428772m. Speed=0.612000m/h.</desc>
<speed>0.170000</speed>
</trkpt>
<trkpt lat="55.964798" lon="26.669296">
<ele>120.495178</ele>
<time>2010-06-20T13:25:17Z</time>
<desc>lat.=55.964798, lon.=26.669296, Alt.=120.495178m. Speed=1.368000m/h.</desc>
<speed>0.380000</speed>
</trkpt>
<trkpt lat="55.964802" lon="26.669296">
<ele>120.549866</ele>
<time>2010-06-20T13:25:18Z</time>
<desc>lat.=55.964802, lon.=26.669296, Alt.=120.549866m. Speed=1.368000m/h.</desc>
<speed>0.380000</speed>
</trkpt>
<trkpt lat="55.964806" lon="26.669294">
<ele>120.602600</ele>
<time>2010-06-20T13:25:19Z</time>
<desc>lat.=55.964806, lon.=26.669294, Alt.=120.602600m. Speed=1.116000m/h.</desc>
<speed>0.310000</speed>
</trkpt>
<trkpt lat="55.964806" lon="26.669294">
<ele>120.651428</ele>
<time>2010-06-20T13:25:20Z</time>
<desc>lat.=55.964806, lon.=26.669294, Alt.=120.651428m. Speed=0.432000m/h.</desc>
<speed>0.120000</speed>
</trkpt>
<trkpt lat="55.964806" lon="26.669292">
<ele>120.688538</ele>
<time>2010-06-20T13:25:21Z</time>
<desc>lat.=55.964806, lon.=26.669292, Alt.=120.688538m. Speed=0.072000m/h.</desc>
<speed>0.020000</speed>
</trkpt>
<trkpt lat="55.964806" lon="26.669292">
<ele>120.717834</ele>
<time>2010-06-20T13:25:22Z</time>
<desc>lat.=55.964806, lon.=26.669292, Alt.=120.717834m. Speed=0.072000m/h.</desc>
<speed>0.020000</speed>
</trkpt>
<trkpt lat="55.964806" lon="26.669292">
<ele>120.743225</ele>
<time>2010-06-20T13:25:23Z</time>
<desc>lat.=55.964806, lon.=26.669292, Alt.=120.743225m. Speed=0.684000m/h.</desc>
<speed>0.190000</speed>
</trkpt>
<trkpt lat="55.964809" lon="26.669289">
<ele>120.752991</ele>
<time>2010-06-20T13:25:24Z</time>
<desc>lat.=55.964809, lon.=26.669289, Alt.=120.752991m. Speed=0.828000m/h.</desc>
<speed>0.230000</speed>
</trkpt>
<trkpt lat="55.964809" lon="26.669285">
<ele>120.758850</ele>
<time>2010-06-20T13:25:25Z</time>
<desc>lat.=55.964809, lon.=26.669285, Alt.=120.758850m. Speed=0.288000m/h.</desc>
<speed>0.080000</speed>
</trkpt>
<trkpt lat="55.964809" lon="26.669287">
<ele>120.772522</ele>
<time>2010-06-20T13:25:26Z</time>
<desc>lat.=55.964809, lon.=26.669287, Alt.=120.772522m. Speed=0.540000m/h.</desc>
<speed>0.150000</speed>
</trkpt>
<trkpt lat="55.964809" lon="26.669289">
<ele>120.788147</ele>
<time>2010-06-20T13:25:27Z</time>
<desc>lat.=55.964809, lon.=26.669289, Alt.=120.788147m. Speed=0.180000m/h.</desc>
<speed>0.050000</speed>
</trkpt>
<trkpt lat="55.964809" lon="26.669289">
<ele>120.799866</ele>
<time>2010-06-20T13:25:28Z</time>
<desc>lat.=55.964809, lon.=26.669289, Alt.=120.799866m. Speed=0.144000m/h.</desc>
<speed>0.040000</speed>
</trkpt>
<trkpt lat="55.964809" lon="26.669289">
<ele>120.811584</ele>
<time>2010-06-20T13:25:29Z</time>
<desc>lat.=55.964809, lon.=26.669289, Alt.=120.811584m. Speed=0.180000m/h.</desc>
<speed>0.050000</speed>
</trkpt>
<trkpt lat="55.964809" lon="26.669287">
<ele>120.819397</ele>
<time>2010-06-20T13:25:30Z</time>
<desc>lat.=55.964809, lon.=26.669287, Alt.=120.819397m. Speed=0.504000m/h.</desc>
<speed>0.140000</speed>
</trkpt>
<trkpt lat="55.964809" lon="26.669287">
<ele>120.821350</ele>
<time>2010-06-20T13:25:31Z</time>
<desc>lat.=55.964809, lon.=26.669287, Alt.=120.821350m. Speed=0.360000m/h.</desc>
<speed>0.100000</speed>
</trkpt>
<trkpt lat="55.964809" lon="26.669287">
<ele>120.780334</ele>
<time>2010-06-20T13:25:32Z</time>
<desc>lat.=55.964809, lon.=26.669287, Alt.=120.780334m. Speed=0.072000m/h.</desc>
<speed>0.020000</speed>
</trkpt>
<trkpt lat="55.964809" lon="26.669287">
<ele>120.733459</ele>
<time>2010-06-20T13:25:33Z</time>
<desc>lat.=55.964809, lon.=26.669287, Alt.=120.733459m. Speed=0.072000m/h.</desc>
<speed>0.020000</speed>
</trkpt>
<trkpt lat="55.964809" lon="26.669287">
<ele>120.711975</ele>
<time>2010-06-20T13:25:34Z</time>
<desc>lat.=55.964809, lon.=26.669287, Alt.=120.711975m. Speed=0.252000m/h.</desc>
<speed>0.070000</speed>
</trkpt>
<trkpt lat="55.964806" lon="26.669287">
<ele>120.708069</ele>
<time>2010-06-20T13:25:35Z</time>
<desc>lat.=55.964806, lon.=26.669287, Alt.=120.708069m. Speed=0.720000m/h.</desc>
<speed>0.200000</speed>
</trkpt>
<trkpt lat="55.964806" lon="26.669283">
<ele>120.711975</ele>
<time>2010-06-20T13:25:36Z</time>
<desc>lat.=55.964806, lon.=26.669283, Alt.=120.711975m. Speed=0.144000m/h.</desc>
<speed>0.040000</speed>
</trkpt>
<trkpt lat="55.964806" lon="26.669283">
<ele>120.688538</ele>
<time>2010-06-20T13:25:37Z</time>
<desc>lat.=55.964806, lon.=26.669283, Alt.=120.688538m. Speed=0.396000m/h.</desc>
<speed>0.110000</speed>
</trkpt>
<trkpt lat="55.964806" lon="26.669285">
<ele>120.665100</ele>
<time>2010-06-20T13:25:38Z</time>
<desc>lat.=55.964806, lon.=26.669285, Alt.=120.665100m. Speed=0.000000m/h.</desc>
<speed>0.000000</speed>
</trkpt>
<trkpt lat="55.964806" lon="26.669285">
<ele>120.614319</ele>
<time>2010-06-20T13:25:39Z</time>
<desc>lat.=55.964806, lon.=26.669285, Alt.=120.614319m. Speed=0.108000m/h.</desc>
<speed>0.030000</speed>
</trkpt>
<trkpt lat="55.964806" lon="26.669285">
<ele>120.598694</ele>
<time>2010-06-20T13:25:40Z</time>
<desc>lat.=55.964806, lon.=26.669285, Alt.=120.598694m. Speed=0.432000m/h.</desc>
<speed>0.120000</speed>
</trkpt>
<trkpt lat="55.964806" lon="26.669283">
<ele>120.592834</ele>
<time>2010-06-20T13:25:41Z</time>
<desc>lat.=55.964806, lon.=26.669283, Alt.=120.592834m. Speed=0.612000m/h.</desc>
<speed>0.170000</speed>
</trkpt>
<trkpt lat="55.964806" lon="26.669285">
<ele>120.641663</ele>
<time>2010-06-20T13:25:42Z</time>
<desc>lat.=55.964806, lon.=26.669285, Alt.=120.641663m. Speed=1.188000m/h.</desc>
<speed>0.330000</speed>
</trkpt>
<trkpt lat="55.964809" lon="26.669289">
<ele>120.710022</ele>
<time>2010-06-20T13:25:43Z</time>
<desc>lat.=55.964809, lon.=26.669289, Alt.=120.710022m. Speed=1.512000m/h.</desc>
<speed>0.420000</speed>
</trkpt>
<trkpt lat="55.964809" lon="26.669294">
<ele>120.788147</ele>
<time>2010-06-20T13:25:44Z</time>
<desc>lat.=55.964809, lon.=26.669294, Alt.=120.788147m. Speed=1.260000m/h.</desc>
<speed>0.350000</speed>
</trkpt>
<trkpt lat="55.964813" lon="26.669298">
<ele>120.842834</ele>
<time>2010-06-20T13:25:45Z</time>
<desc>lat.=55.964813, lon.=26.669298, Alt.=120.842834m. Speed=1.836000m/h.</desc>
<speed>0.510000</speed>
</trkpt>
<trkpt lat="55.964817" lon="26.669302">
<ele>120.905334</ele>
<time>2010-06-20T13:25:46Z</time>
<desc>lat.=55.964817, lon.=26.669302, Alt.=120.905334m. Speed=0.792000m/h.</desc>
<speed>0.220000</speed>
</trkpt>
<trkpt lat="55.964817" lon="26.669304">
<ele>120.950256</ele>
<time>2010-06-20T13:25:47Z</time>
<desc>lat.=55.964817, lon.=26.669304, Alt.=120.950256m. Speed=0.108000m/h.</desc>
<speed>0.030000</speed>
</trkpt>
<trkpt lat="55.964817" lon="26.669304">
<ele>120.977600</ele>
<time>2010-06-20T13:25:48Z</time>
<desc>lat.=55.964817, lon.=26.669304, Alt.=120.977600m. Speed=0.036000m/h.</desc>
<speed>0.010000</speed>
</trkpt>
<trkpt lat="55.964817" lon="26.669304">
<ele>120.993225</ele>
<time>2010-06-20T13:25:49Z</time>
<desc>lat.=55.964817, lon.=26.669304, Alt.=120.993225m. Speed=0.792000m/h.</desc>
<speed>0.220000</speed>
</trkpt>
<trkpt lat="55.964817" lon="26.669302">
<ele>120.977600</ele>
<time>2010-06-20T13:25:50Z</time>
<desc>lat.=55.964817, lon.=26.669302, Alt.=120.977600m. Speed=0.720000m/h.</desc>
<speed>0.200000</speed>
</trkpt>
<trkpt lat="55.964813" lon="26.669302">
<ele>120.965881</ele>
<time>2010-06-20T13:25:51Z</time>
<desc>lat.=55.964813, lon.=26.669302, Alt.=120.965881m. Speed=0.144000m/h.</desc>
<speed>0.040000</speed>
</trkpt>
<trkpt lat="55.964813" lon="26.669304">
<ele>120.924866</ele>
<time>2010-06-20T13:25:52Z</time>
<desc>lat.=55.964813, lon.=26.669304, Alt.=120.924866m. Speed=0.036000m/h.</desc>
<speed>0.010000</speed>
</trkpt>
<trkpt lat="55.964813" lon="26.669304">
<ele>120.889709</ele>
<time>2010-06-20T13:25:53Z</time>
<desc>lat.=55.964813, lon.=26.669304, Alt.=120.889709m. Speed=0.144000m/h.</desc>
<speed>0.040000</speed>
</trkpt>
<trkpt lat="55.964813" lon="26.669302">
<ele>120.874084</ele>
<time>2010-06-20T13:25:54Z</time>
<desc>lat.=55.964813, lon.=26.669302, Alt.=120.874084m. Speed=0.000000m/h.</desc>
<speed>0.000000</speed>
</trkpt>
<trkpt lat="55.964813" lon="26.669302">
<ele>120.850647</ele>
<time>2010-06-20T13:25:55Z</time>
<desc>lat.=55.964813, lon.=26.669302, Alt.=120.850647m. Speed=0.072000m/h.</desc>
<speed>0.020000</speed>
</trkpt>
<trkpt lat="55.964813" lon="26.669302">
<ele>120.817444</ele>
<time>2010-06-20T13:25:56Z</time>
<desc>lat.=55.964813, lon.=26.669302, Alt.=120.817444m. Speed=0.036000m/h.</desc>
<speed>0.010000</speed>
</trkpt>
<trkpt lat="55.964813" lon="26.669302">
<ele>120.809631</ele>
<time>2010-06-20T13:25:57Z</time>
<desc>lat.=55.964813, lon.=26.669302, Alt.=120.809631m. Speed=0.072000m/h.</desc>
<speed>0.020000</speed>
</trkpt>
<trkpt lat="55.964813" lon="26.669304">
<ele>120.817444</ele>
<time>2010-06-20T13:25:58Z</time>
<desc>lat.=55.964813, lon.=26.669304, Alt.=120.817444m. Speed=0.108000m/h.</desc>
<speed>0.030000</speed>
</trkpt>
<trkpt lat="55.964813" lon="26.669302">
<ele>120.803772</ele>
<time>2010-06-20T13:25:59Z</time>
<desc>lat.=55.964813, lon.=26.669302, Alt.=120.803772m. Speed=0.036000m/h.</desc>
<speed>0.010000</speed>
</trkpt>
<trkpt lat="55.964813" lon="26.669302">
<ele>120.801819</ele>
<time>2010-06-20T13:26:00Z</time>
<desc>lat.=55.964813, lon.=26.669302, Alt.=120.801819m. Speed=0.108000m/h.</desc>
<speed>0.030000</speed>
</trkpt>
<trkpt lat="55.964813" lon="26.669302">
<ele>120.801819</ele>
<time>2010-06-20T13:26:01Z</time>
<desc>lat.=55.964813, lon.=26.669302, Alt.=120.801819m. Speed=0.072000m/h.</desc>
<speed>0.020000</speed>
</trkpt>
<trkpt lat="55.964813" lon="26.669302">
<ele>120.795959</ele>
<time>2010-06-20T13:26:02Z</time>
<desc>lat.=55.964813, lon.=26.669302, Alt.=120.795959m. Speed=0.144000m/h.</desc>
<speed>0.040000</speed>
</trkpt>
<trkpt lat="55.964813" lon="26.669302">
<ele>120.794006</ele>
<time>2010-06-20T13:26:03Z</time>
<desc>lat.=55.964813, lon.=26.669302, Alt.=120.794006m. Speed=0.072000m/h.</desc>
<speed>0.020000</speed>
</trkpt>
<trkpt lat="55.964813" lon="26.669302">
<ele>120.794006</ele>
<time>2010-06-20T13:26:04Z</time>
<desc>lat.=55.964813, lon.=26.669302, Alt.=120.794006m. Speed=0.036000m/h.</desc>
<speed>0.010000</speed>
</trkpt>
<trkpt lat="55.964813" lon="26.669302">
<ele>120.788147</ele>
<time>2010-06-20T13:26:05Z</time>
<desc>lat.=55.964813, lon.=26.669302, Alt.=120.788147m. Speed=0.000000m/h.</desc>
<speed>0.000000</speed>
</trkpt>
<trkpt lat="55.964813" lon="26.669302">
<ele>120.790100</ele>
<time>2010-06-20T13:26:06Z</time>
<desc>lat.=55.964813, lon.=26.669302, Alt.=120.790100m. Speed=0.036000m/h.</desc>
<speed>0.010000</speed>
</trkpt>
<trkpt lat="55.964813" lon="26.669302">
<ele>120.792053</ele>
<time>2010-06-20T13:26:07Z</time>
<desc>lat.=55.964813, lon.=26.669302, Alt.=120.792053m. Speed=0.000000m/h.</desc>
<speed>0.000000</speed>
</trkpt>
<trkpt lat="55.964813" lon="26.669302">
<ele>120.790100</ele>
<time>2010-06-20T13:26:08Z</time>
<desc>lat.=55.964813, lon.=26.669302, Alt.=120.790100m. Speed=0.072000m/h.</desc>
<speed>0.020000</speed>
</trkpt>
<trkpt lat="55.964813" lon="26.669302">
<ele>120.788147</ele>
<time>2010-06-20T13:26:09Z</time>
<desc>lat.=55.964813, lon.=26.669302, Alt.=120.788147m. Speed=0.324000m/h.</desc>
<speed>0.090000</speed>
</trkpt>
<trkpt lat="55.964813" lon="26.669302">
<ele>120.790100</ele>
<time>2010-06-20T13:26:10Z</time>
<desc>lat.=55.964813, lon.=26.669302, Alt.=120.790100m. Speed=0.036000m/h.</desc>
<speed>0.010000</speed>
</trkpt>
<trkpt lat="55.964813" lon="26.669302">
<ele>120.790100</ele>
<time>2010-06-20T13:26:11Z</time>
<desc>lat.=55.964813, lon.=26.669302, Alt.=120.790100m. Speed=0.000000m/h.</desc>
<speed>0.000000</speed>
</trkpt>
<trkpt lat="55.964813" lon="26.669302">
<ele>120.790100</ele>
<time>2010-06-20T13:26:12Z</time>
<desc>lat.=55.964813, lon.=26.669302, Alt.=120.790100m. Speed=0.000000m/h.</desc>
<speed>0.000000</speed>
</trkpt>
<trkpt lat="55.964813" lon="26.669302">
<ele>120.790100</ele>
<time>2010-06-20T13:26:13Z</time>
<desc>lat.=55.964813, lon.=26.669302, Alt.=120.790100m. Speed=0.000000m/h.</desc>
<speed>0.000000</speed>
</trkpt>
<trkpt lat="55.964813" lon="26.669302">
<ele>120.792053</ele>
<time>2010-06-20T13:26:14Z</time>
<desc>lat.=55.964813, lon.=26.669302, Alt.=120.792053m. Speed=0.000000m/h.</desc>
<speed>0.000000</speed>
</trkpt>
<trkpt lat="55.964813" lon="26.669302">
<ele>120.792053</ele>
<time>2010-06-20T13:26:15Z</time>
<desc>lat.=55.964813, lon.=26.669302, Alt.=120.792053m. Speed=0.000000m/h.</desc>
<speed>0.000000</speed>
</trkpt>
<trkpt lat="55.964813" lon="26.669302">
<ele>120.794006</ele>
<time>2010-06-20T13:26:16Z</time>
<desc>lat.=55.964813, lon.=26.669302, Alt.=120.794006m. Speed=0.000000m/h.</desc>
<speed>0.000000</speed>
</trkpt>
<trkpt lat="55.964813" lon="26.669304">
<ele>120.795959</ele>
<time>2010-06-20T13:26:17Z</time>
<desc>lat.=55.964813, lon.=26.669304, Alt.=120.795959m. Speed=0.000000m/h.</desc>
<speed>0.000000</speed>
</trkpt>
<trkpt lat="55.964813" lon="26.669304">
<ele>120.797913</ele>
<time>2010-06-20T13:26:18Z</time>
<desc>lat.=55.964813, lon.=26.669304, Alt.=120.797913m. Speed=0.000000m/h.</desc>
<speed>0.000000</speed>
</trkpt>
<trkpt lat="55.964813" lon="26.669304">
<ele>120.799866</ele>
<time>2010-06-20T13:26:19Z</time>
<desc>lat.=55.964813, lon.=26.669304, Alt.=120.799866m. Speed=0.000000m/h.</desc>
<speed>0.000000</speed>
</trkpt>
<trkpt lat="55.964813" lon="26.669304">
<ele>120.805725</ele>
<time>2010-06-20T13:26:20Z</time>
<desc>lat.=55.964813, lon.=26.669304, Alt.=120.805725m. Speed=0.144000m/h.</desc>
<speed>0.040000</speed>
</trkpt>
<trkpt lat="55.964813" lon="26.669312">
<ele>121.229553</ele>
<time>2010-06-20T13:26:21Z</time>
<desc>lat.=55.964813, lon.=26.669312, Alt.=121.229553m. Speed=0.108000m/h.</desc>
<speed>0.030000</speed>
</trkpt>
<trkpt lat="55.964813" lon="26.669312">
<ele>121.233459</ele>
<time>2010-06-20T13:26:22Z</time>
<desc>lat.=55.964813, lon.=26.669312, Alt.=121.233459m. Speed=0.108000m/h.</desc>
<speed>0.030000</speed>
</trkpt>
<trkpt lat="55.964813" lon="26.669312">
<ele>121.237366</ele>
<time>2010-06-20T13:26:23Z</time>
<desc>lat.=55.964813, lon.=26.669312, Alt.=121.237366m. Speed=0.036000m/h.</desc>
<speed>0.010000</speed>
</trkpt>
<trkpt lat="55.964813" lon="26.669312">
<ele>121.243225</ele>
<time>2010-06-20T13:26:24Z</time>
<desc>lat.=55.964813, lon.=26.669312, Alt.=121.243225m. Speed=0.072000m/h.</desc>
<speed>0.020000</speed>
</trkpt>
<trkpt lat="55.964813" lon="26.669312">
<ele>121.247131</ele>
<time>2010-06-20T13:26:25Z</time>
<desc>lat.=55.964813, lon.=26.669312, Alt.=121.247131m. Speed=0.036000m/h.</desc>
<speed>0.010000</speed>
</trkpt>
<trkpt lat="55.964813" lon="26.669312">
<ele>121.251038</ele>
<time>2010-06-20T13:26:26Z</time>
<desc>lat.=55.964813, lon.=26.669312, Alt.=121.251038m. Speed=0.036000m/h.</desc>
<speed>0.010000</speed>
</trkpt>
<trkpt lat="55.964813" lon="26.669312">
<ele>121.252991</ele>
<time>2010-06-20T13:26:27Z</time>
<desc>lat.=55.964813, lon.=26.669312, Alt.=121.252991m. Speed=0.216000m/h.</desc>
<speed>0.060000</speed>
</trkpt>
<trkpt lat="55.964813" lon="26.669312">
<ele>121.256897</ele>
<time>2010-06-20T13:26:28Z</time>
<desc>lat.=55.964813, lon.=26.669312, Alt.=121.256897m. Speed=0.072000m/h.</desc>
<speed>0.020000</speed>
</trkpt>
<trkpt lat="55.964813" lon="26.669312">
<ele>121.254944</ele>
<time>2010-06-20T13:26:29Z</time>
<desc>lat.=55.964813, lon.=26.669312, Alt.=121.254944m. Speed=0.000000m/h.</desc>
<speed>0.000000</speed>
</trkpt>
<trkpt lat="55.964813" lon="26.669312">
<ele>121.243225</ele>
<time>2010-06-20T13:26:30Z</time>
<desc>lat.=55.964813, lon.=26.669312, Alt.=121.243225m. Speed=0.324000m/h.</desc>
<speed>0.090000</speed>
</trkpt>
<trkpt lat="55.964813" lon="26.669310">
<ele>121.198303</ele>
<time>2010-06-20T13:26:31Z</time>
<desc>lat.=55.964813, lon.=26.669310, Alt.=121.198303m. Speed=0.468000m/h.</desc>
<speed>0.130000</speed>
</trkpt>
<trkpt lat="55.964813" lon="26.669312">
<ele>121.165100</ele>
<time>2010-06-20T13:26:32Z</time>
<desc>lat.=55.964813, lon.=26.669312, Alt.=121.165100m. Speed=0.684000m/h.</desc>
<speed>0.190000</speed>
</trkpt>
<trkpt lat="55.964817" lon="26.669315">
<ele>121.143616</ele>
<time>2010-06-20T13:26:33Z</time>
<desc>lat.=55.964817, lon.=26.669315, Alt.=121.143616m. Speed=0.216000m/h.</desc>
<speed>0.060000</speed>
</trkpt>
<trkpt lat="55.964817" lon="26.669315">
<ele>121.133850</ele>
<time>2010-06-20T13:26:34Z</time>
<desc>lat.=55.964817, lon.=26.669315, Alt.=121.133850m. Speed=0.288000m/h.</desc>
<speed>0.080000</speed>
</trkpt>
<trkpt lat="55.964817" lon="26.669313">
<ele>121.129944</ele>
<time>2010-06-20T13:26:35Z</time>
<desc>lat.=55.964817, lon.=26.669313, Alt.=121.129944m. Speed=0.036000m/h.</desc>
<speed>0.010000</speed>
</trkpt>
<trkpt lat="55.964817" lon="26.669313">
<ele>121.118225</ele>
<time>2010-06-20T13:26:36Z</time>
<desc>lat.=55.964817, lon.=26.669313, Alt.=121.118225m. Speed=0.144000m/h.</desc>
<speed>0.040000</speed>
</trkpt>
<trkpt lat="55.964817" lon="26.669315">
<ele>121.104553</ele>
<time>2010-06-20T13:26:37Z</time>
<desc>lat.=55.964817, lon.=26.669315, Alt.=121.104553m. Speed=0.324000m/h.</desc>
<speed>0.090000</speed>
</trkpt>
<trkpt lat="55.964817" lon="26.669315">
<ele>121.112366</ele>
<time>2010-06-20T13:26:38Z</time>
<desc>lat.=55.964817, lon.=26.669315, Alt.=121.112366m. Speed=0.036000m/h.</desc>
<speed>0.010000</speed>
</trkpt>
<trkpt lat="55.964817" lon="26.669315">
<ele>121.127991</ele>
<time>2010-06-20T13:26:39Z</time>
<desc>lat.=55.964817, lon.=26.669315, Alt.=121.127991m. Speed=0.324000m/h.</desc>
<speed>0.090000</speed>
</trkpt>
<trkpt lat="55.964817" lon="26.669317">
<ele>121.157288</ele>
<time>2010-06-20T13:26:40Z</time>
<desc>lat.=55.964817, lon.=26.669317, Alt.=121.157288m. Speed=0.396000m/h.</desc>
<speed>0.110000</speed>
</trkpt>
<trkpt lat="55.964817" lon="26.669315">
<ele>121.188538</ele>
<time>2010-06-20T13:26:41Z</time>
<desc>lat.=55.964817, lon.=26.669315, Alt.=121.188538m. Speed=0.036000m/h.</desc>
<speed>0.010000</speed>
</trkpt>
<trkpt lat="55.964817" lon="26.669315">
<ele>121.192444</ele>
<time>2010-06-20T13:26:42Z</time>
<desc>lat.=55.964817, lon.=26.669315, Alt.=121.192444m. Speed=0.036000m/h.</desc>
<speed>0.010000</speed>
</trkpt>
<trkpt lat="55.964817" lon="26.669315">
<ele>121.200256</ele>
<time>2010-06-20T13:26:43Z</time>
<desc>lat.=55.964817, lon.=26.669315, Alt.=121.200256m. Speed=0.288000m/h.</desc>
<speed>0.080000</speed>
</trkpt>
<trkpt lat="55.964817" lon="26.669315">
<ele>121.208069</ele>
<time>2010-06-20T13:26:44Z</time>
<desc>lat.=55.964817, lon.=26.669315, Alt.=121.208069m. Speed=0.216000m/h.</desc>
<speed>0.060000</speed>
</trkpt>
<trkpt lat="55.964817" lon="26.669313">
<ele>121.188538</ele>
<time>2010-06-20T13:26:45Z</time>
<desc>lat.=55.964817, lon.=26.669313, Alt.=121.188538m. Speed=0.180000m/h.</desc>
<speed>0.050000</speed>
</trkpt>
<trkpt lat="55.964817" lon="26.669313">
<ele>121.165100</ele>
<time>2010-06-20T13:26:46Z</time>
<desc>lat.=55.964817, lon.=26.669313, Alt.=121.165100m. Speed=0.252000m/h.</desc>
<speed>0.070000</speed>
</trkpt>
<trkpt lat="55.964817" lon="26.669313">
<ele>121.174866</ele>
<time>2010-06-20T13:26:47Z</time>
<desc>lat.=55.964817, lon.=26.669313, Alt.=121.174866m. Speed=0.540000m/h.</desc>
<speed>0.150000</speed>
</trkpt>
<trkpt lat="55.964817" lon="26.669312">
<ele>121.211975</ele>
<time>2010-06-20T13:26:48Z</time>
<desc>lat.=55.964817, lon.=26.669312, Alt.=121.211975m. Speed=0.684000m/h.</desc>
<speed>0.190000</speed>
</trkpt>
<trkpt lat="55.964817" lon="26.669313">
<ele>121.211975</ele>
<time>2010-06-20T13:26:49Z</time>
<desc>lat.=55.964817, lon.=26.669313, Alt.=121.211975m. Speed=0.936000m/h.</desc>
<speed>0.260000</speed>
</trkpt>
<trkpt lat="55.964817" lon="26.669310">
<ele>121.245178</ele>
<time>2010-06-20T13:26:50Z</time>
<desc>lat.=55.964817, lon.=26.669310, Alt.=121.245178m. Speed=1.044000m/h.</desc>
<speed>0.290000</speed>
</trkpt>
<trkpt lat="55.964813" lon="26.669308">
<ele>121.292053</ele>
<time>2010-06-20T13:26:51Z</time>
<desc>lat.=55.964813, lon.=26.669308, Alt.=121.292053m. Speed=0.756000m/h.</desc>
<speed>0.210000</speed>
</trkpt>
<trkpt lat="55.964813" lon="26.669306">
<ele>121.270569</ele>
<time>2010-06-20T13:26:52Z</time>
<desc>lat.=55.964813, lon.=26.669306, Alt.=121.270569m. Speed=1.548000m/h.</desc>
<speed>0.430000</speed>
</trkpt>
<trkpt lat="55.964809" lon="26.669302">
<ele>121.204163</ele>
<time>2010-06-20T13:26:53Z</time>
<desc>lat.=55.964809, lon.=26.669302, Alt.=121.204163m. Speed=0.324000m/h.</desc>
<speed>0.090000</speed>
</trkpt>
<trkpt lat="55.964809" lon="26.669302">
<ele>121.030334</ele>
<time>2010-06-20T13:26:54Z</time>
<desc>lat.=55.964809, lon.=26.669302, Alt.=121.030334m. Speed=1.008000m/h.</desc>
<speed>0.280000</speed>
</trkpt>
<trkpt lat="55.964809" lon="26.669306">
<ele>120.891663</ele>
<time>2010-06-20T13:26:55Z</time>
<desc>lat.=55.964809, lon.=26.669306, Alt.=120.891663m. Speed=1.404000m/h.</desc>
<speed>0.390000</speed>
</trkpt>
<trkpt lat="55.964806" lon="26.669310">
<ele>120.778381</ele>
<time>2010-06-20T13:26:56Z</time>
<desc>lat.=55.964806, lon.=26.669310, Alt.=120.778381m. Speed=1.008000m/h.</desc>
<speed>0.280000</speed>
</trkpt>
<trkpt lat="55.964802" lon="26.669312">
<ele>120.670959</ele>
<time>2010-06-20T13:26:57Z</time>
<desc>lat.=55.964802, lon.=26.669312, Alt.=120.670959m. Speed=1.728000m/h.</desc>
<speed>0.480000</speed>
</trkpt>
<trkpt lat="55.964798" lon="26.669315">
<ele>120.596741</ele>
<time>2010-06-20T13:26:58Z</time>
<desc>lat.=55.964798, lon.=26.669315, Alt.=120.596741m. Speed=2.412000m/h.</desc>
<speed>0.670000</speed>
</trkpt>
<trkpt lat="55.964794" lon="26.669319">
<ele>120.530334</ele>
<time>2010-06-20T13:26:59Z</time>
<desc>lat.=55.964794, lon.=26.669319, Alt.=120.530334m. Speed=3.780000m/h.</desc>
<speed>1.050000</speed>
</trkpt>
<trkpt lat="55.964779" lon="26.669312">
<ele>120.604553</ele>
<time>2010-06-20T13:27:00Z</time>
<desc>lat.=55.964779, lon.=26.669312, Alt.=120.604553m. Speed=5.220000m/h.</desc>
<speed>1.450000</speed>
</trkpt>
<trkpt lat="55.964764" lon="26.669306">
<ele>120.713928</ele>
<time>2010-06-20T13:27:01Z</time>
<desc>lat.=55.964764, lon.=26.669306, Alt.=120.713928m. Speed=6.588000m/h.</desc>
<speed>1.830000</speed>
</trkpt>
<trkpt lat="55.964741" lon="26.669296">
<ele>120.678772</ele>
<time>2010-06-20T13:27:02Z</time>
<desc>lat.=55.964741, lon.=26.669296, Alt.=120.678772m. Speed=7.416000m/h.</desc>
<speed>2.060000</speed>
</trkpt>
<trkpt lat="55.964722" lon="26.669281">
<ele>120.842834</ele>
<time>2010-06-20T13:27:03Z</time>
<desc>lat.=55.964722, lon.=26.669281, Alt.=120.842834m. Speed=8.244000m/h.</desc>
<speed>2.290000</speed>
</trkpt>
<trkpt lat="55.964703" lon="26.669268">
<ele>121.104553</ele>
<time>2010-06-20T13:27:04Z</time>
<desc>lat.=55.964703, lon.=26.669268, Alt.=121.104553m. Speed=8.460000m/h.</desc>
<speed>2.350000</speed>
</trkpt>
<trkpt lat="55.964680" lon="26.669250">
<ele>121.200256</ele>
<time>2010-06-20T13:27:05Z</time>
<desc>lat.=55.964680, lon.=26.669250, Alt.=121.200256m. Speed=10.332000m/h.</desc>
<speed>2.870000</speed>
</trkpt>
<trkpt lat="55.964657" lon="26.669235">
<ele>121.034241</ele>
<time>2010-06-20T13:27:06Z</time>
<desc>lat.=55.964657, lon.=26.669235, Alt.=121.034241m. Speed=10.872000m/h.</desc>
<speed>3.020000</speed>
</trkpt>
<trkpt lat="55.964630" lon="26.669222">
<ele>121.174866</ele>
<time>2010-06-20T13:27:07Z</time>
<desc>lat.=55.964630, lon.=26.669222, Alt.=121.174866m. Speed=10.548000m/h.</desc>
<speed>2.930000</speed>
</trkpt>
<trkpt lat="55.964603" lon="26.669203">
<ele>121.493225</ele>
<time>2010-06-20T13:27:08Z</time>
<desc>lat.=55.964603, lon.=26.669203, Alt.=121.493225m. Speed=10.944000m/h.</desc>
<speed>3.040000</speed>
</trkpt>
<trkpt lat="55.964584" lon="26.669178">
<ele>121.520569</ele>
<time>2010-06-20T13:27:09Z</time>
<desc>lat.=55.964584, lon.=26.669178, Alt.=121.520569m. Speed=10.440000m/h.</desc>
<speed>2.900000</speed>
</trkpt>
<trkpt lat="55.964565" lon="26.669155">
<ele>121.526428</ele>
<time>2010-06-20T13:27:10Z</time>
<desc>lat.=55.964565, lon.=26.669155, Alt.=121.526428m. Speed=9.360000m/h.</desc>
<speed>2.600000</speed>
</trkpt>
<trkpt lat="55.964546" lon="26.669130">
<ele>121.813538</ele>
<time>2010-06-20T13:27:11Z</time>
<desc>lat.=55.964546, lon.=26.669130, Alt.=121.813538m. Speed=8.712000m/h.</desc>
<speed>2.420000</speed>
</trkpt>
<trkpt lat="55.964523" lon="26.669115">
<ele>122.170959</ele>
<time>2010-06-20T13:27:12Z</time>
<desc>lat.=55.964523, lon.=26.669115, Alt.=122.170959m. Speed=10.080000m/h.</desc>
<speed>2.800000</speed>
</trkpt>
<trkpt lat="55.964500" lon="26.669098">
<ele>122.346741</ele>
<time>2010-06-20T13:27:13Z</time>
<desc>lat.=55.964500, lon.=26.669098, Alt.=122.346741m. Speed=10.800000m/h.</desc>
<speed>3.000000</speed>
</trkpt>
<trkpt lat="55.964474" lon="26.669081">
<ele>122.518616</ele>
<time>2010-06-20T13:27:14Z</time>
<desc>lat.=55.964474, lon.=26.669081, Alt.=122.518616m. Speed=11.520000m/h.</desc>
<speed>3.200000</speed>
</trkpt>
<trkpt lat="55.964455" lon="26.669048">
<ele>122.817444</ele>
<time>2010-06-20T13:27:15Z</time>
<desc>lat.=55.964455, lon.=26.669048, Alt.=122.817444m. Speed=11.700000m/h.</desc>
<speed>3.250000</speed>
</trkpt>
<trkpt lat="55.964428" lon="26.669022">
<ele>122.752991</ele>
<time>2010-06-20T13:27:16Z</time>
<desc>lat.=55.964428, lon.=26.669022, Alt.=122.752991m. Speed=12.204000m/h.</desc>
<speed>3.390000</speed>
</trkpt>
<trkpt lat="55.964401" lon="26.668995">
<ele>122.856506</ele>
<time>2010-06-20T13:27:17Z</time>
<desc>lat.=55.964401, lon.=26.668995, Alt.=122.856506m. Speed=12.528000m/h.</desc>
<speed>3.480000</speed>
</trkpt>
<trkpt lat="55.964371" lon="26.668970">
<ele>122.833069</ele>
<time>2010-06-20T13:27:18Z</time>
<desc>lat.=55.964371, lon.=26.668970, Alt.=122.833069m. Speed=13.320000m/h.</desc>
<speed>3.700000</speed>
</trkpt>
<trkpt lat="55.964340" lon="26.668938">
<ele>121.321350</ele>
<time>2010-06-20T13:27:19Z</time>
<desc>lat.=55.964340, lon.=26.668938, Alt.=121.321350m. Speed=14.220000m/h.</desc>
<speed>3.950000</speed>
</trkpt>
<trkpt lat="55.964306" lon="26.668909">
<ele>121.561584</ele>
<time>2010-06-20T13:27:20Z</time>
<desc>lat.=55.964306, lon.=26.668909, Alt.=121.561584m. Speed=15.444000m/h.</desc>
<speed>4.290000</speed>
</trkpt>
<trkpt lat="55.964272" lon="26.668875">
<ele>121.836975</ele>
<time>2010-06-20T13:27:21Z</time>
<desc>lat.=55.964272, lon.=26.668875, Alt.=121.836975m. Speed=16.164000m/h.</desc>
<speed>4.490000</speed>
</trkpt>
<trkpt lat="55.964237" lon="26.668844">
<ele>121.686584</ele>
<time>2010-06-20T13:27:22Z</time>
<desc>lat.=55.964237, lon.=26.668844, Alt.=121.686584m. Speed=17.316000m/h.</desc>
<speed>4.810000</speed>
</trkpt>
<trkpt lat="55.964195" lon="26.668808">
<ele>121.590881</ele>
<time>2010-06-20T13:27:23Z</time>
<desc>lat.=55.964195, lon.=26.668808, Alt.=121.590881m. Speed=18.143999m/h.</desc>
<speed>5.040000</speed>
</trkpt>
<trkpt lat="55.964157" lon="26.668770">
<ele>121.768616</ele>
<time>2010-06-20T13:27:24Z</time>
<desc>lat.=55.964157, lon.=26.668770, Alt.=121.768616m. Speed=19.007999m/h.</desc>
<speed>5.280000</speed>
</trkpt>
<trkpt lat="55.964115" lon="26.668732">
<ele>122.141663</ele>
<time>2010-06-20T13:27:25Z</time>
<desc>lat.=55.964115, lon.=26.668732, Alt.=122.141663m. Speed=19.691999m/h.</desc>
<speed>5.470000</speed>
</trkpt>
<trkpt lat="55.964069" lon="26.668692">
<ele>122.145569</ele>
<time>2010-06-20T13:27:26Z</time>
<desc>lat.=55.964069, lon.=26.668692, Alt.=122.145569m. Speed=20.160000m/h.</desc>
<speed>5.600000</speed>
</trkpt>
<trkpt lat="55.964027" lon="26.668650">
<ele>122.475647</ele>
<time>2010-06-20T13:27:27Z</time>
<desc>lat.=55.964027, lon.=26.668650, Alt.=122.475647m. Speed=20.808001m/h.</desc>
<speed>5.780000</speed>
</trkpt>
<trkpt lat="55.963982" lon="26.668608">
<ele>123.217834</ele>
<time>2010-06-20T13:27:28Z</time>
<desc>lat.=55.963982, lon.=26.668608, Alt.=123.217834m. Speed=20.988001m/h.</desc>
<speed>5.830000</speed>
</trkpt>
<trkpt lat="55.963936" lon="26.668568">
<ele>123.252991</ele>
<time>2010-06-20T13:27:29Z</time>
<desc>lat.=55.963936, lon.=26.668568, Alt.=123.252991m. Speed=21.275999m/h.</desc>
<speed>5.910000</speed>
</trkpt>
<trkpt lat="55.963886" lon="26.668524">
<ele>123.409241</ele>
<time>2010-06-20T13:27:30Z</time>
<desc>lat.=55.963886, lon.=26.668524, Alt.=123.409241m. Speed=21.816000m/h.</desc>
<speed>6.060000</speed>
</trkpt>
<trkpt lat="55.963837" lon="26.668484">
<ele>124.936584</ele>
<time>2010-06-20T13:27:31Z</time>
<desc>lat.=55.963837, lon.=26.668484, Alt.=124.936584m. Speed=21.816000m/h.</desc>
<speed>6.060000</speed>
</trkpt>
<trkpt lat="55.963787" lon="26.668440">
<ele>125.491272</ele>
<time>2010-06-20T13:27:32Z</time>
<desc>lat.=55.963787, lon.=26.668440, Alt.=125.491272m. Speed=22.032000m/h.</desc>
<speed>6.120000</speed>
</trkpt>
<trkpt lat="55.963734" lon="26.668394">
<ele>126.026428</ele>
<time>2010-06-20T13:27:33Z</time>
<desc>lat.=55.963734, lon.=26.668394, Alt.=126.026428m. Speed=22.247999m/h.</desc>
<speed>6.180000</speed>
</trkpt>
<trkpt lat="55.963684" lon="26.668348">
<ele>126.573303</ele>
<time>2010-06-20T13:27:34Z</time>
<desc>lat.=55.963684, lon.=26.668348, Alt.=126.573303m. Speed=23.903999m/h.</desc>
<speed>6.640000</speed>
</trkpt>
<trkpt lat="55.963623" lon="26.668301">
<ele>124.815491</ele>
<time>2010-06-20T13:27:35Z</time>
<desc>lat.=55.963623, lon.=26.668301, Alt.=124.815491m. Speed=25.128000m/h.</desc>
<speed>6.980000</speed>
</trkpt>
<trkpt lat="55.963570" lon="26.668253">
<ele>125.153381</ele>
<time>2010-06-20T13:27:36Z</time>
<desc>lat.=55.963570, lon.=26.668253, Alt.=125.153381m. Speed=23.400000m/h.</desc>
<speed>6.500000</speed>
</trkpt>
<trkpt lat="55.963516" lon="26.668205">
<ele>125.417053</ele>
<time>2010-06-20T13:27:37Z</time>
<desc>lat.=55.963516, lon.=26.668205, Alt.=125.417053m. Speed=25.091999m/h.</desc>
<speed>6.970000</speed>
</trkpt>
<trkpt lat="55.963459" lon="26.668154">
<ele>124.698303</ele>
<time>2010-06-20T13:27:38Z</time>
<desc>lat.=55.963459, lon.=26.668154, Alt.=124.698303m. Speed=25.091999m/h.</desc>
<speed>6.970000</speed>
</trkpt>
<trkpt lat="55.963402" lon="26.668102">
<ele>124.831116</ele>
<time>2010-06-20T13:27:39Z</time>
<desc>lat.=55.963402, lon.=26.668102, Alt.=124.831116m. Speed=24.840000m/h.</desc>
<speed>6.900000</speed>
</trkpt>
<trkpt lat="55.963348" lon="26.668051">
<ele>125.530334</ele>
<time>2010-06-20T13:27:40Z</time>
<desc>lat.=55.963348, lon.=26.668051, Alt.=125.530334m. Speed=25.848000m/h.</desc>
<speed>7.180000</speed>
</trkpt>
<trkpt lat="55.963291" lon="26.667997">
<ele>126.354553</ele>
<time>2010-06-20T13:27:41Z</time>
<desc>lat.=55.963291, lon.=26.667997, Alt.=126.354553m. Speed=25.884001m/h.</desc>
<speed>7.190000</speed>
</trkpt>
<trkpt lat="55.963226" lon="26.667944">
<ele>126.960022</ele>
<time>2010-06-20T13:27:42Z</time>
<desc>lat.=55.963226, lon.=26.667944, Alt.=126.960022m. Speed=27.072001m/h.</desc>
<speed>7.520000</speed>
</trkpt>
<trkpt lat="55.963165" lon="26.667892">
<ele>127.210022</ele>
<time>2010-06-20T13:27:43Z</time>
<desc>lat.=55.963165, lon.=26.667892, Alt.=127.210022m. Speed=26.568001m/h.</desc>
<speed>7.380000</speed>
</trkpt>
<trkpt lat="55.963108" lon="26.667845">
<ele>127.717834</ele>
<time>2010-06-20T13:27:44Z</time>
<desc>lat.=55.963108, lon.=26.667845, Alt.=127.717834m. Speed=24.624001m/h.</desc>
<speed>6.840000</speed>
</trkpt>
<trkpt lat="55.963047" lon="26.667793">
<ele>128.232544</ele>
<time>2010-06-20T13:27:45Z</time>
<desc>lat.=55.963047, lon.=26.667793, Alt.=128.232544m. Speed=27.180000m/h.</desc>
<speed>7.550000</speed>
</trkpt>
<trkpt lat="55.962986" lon="26.667736">
<ele>127.387756</ele>
<time>2010-06-20T13:27:46Z</time>
<desc>lat.=55.962986, lon.=26.667736, Alt.=127.387756m. Speed=27.216000m/h.</desc>
<speed>7.560000</speed>
</trkpt>
<trkpt lat="55.962925" lon="26.667685">
<ele>127.846741</ele>
<time>2010-06-20T13:27:47Z</time>
<desc>lat.=55.962925, lon.=26.667685, Alt.=127.846741m. Speed=26.676001m/h.</desc>
<speed>7.410000</speed>
</trkpt>
<trkpt lat="55.962868" lon="26.667633">
<ele>127.889709</ele>
<time>2010-06-20T13:27:48Z</time>
<desc>lat.=55.962868, lon.=26.667633, Alt.=127.889709m. Speed=27.936001m/h.</desc>
<speed>7.760000</speed>
</trkpt>
<trkpt lat="55.962807" lon="26.667578">
<ele>127.741272</ele>
<time>2010-06-20T13:27:49Z</time>
<desc>lat.=55.962807, lon.=26.667578, Alt.=127.741272m. Speed=27.792000m/h.</desc>
<speed>7.720000</speed>
</trkpt>
<trkpt lat="55.962746" lon="26.667521">
<ele>127.762756</ele>
<time>2010-06-20T13:27:50Z</time>
<desc>lat.=55.962746, lon.=26.667521, Alt.=127.762756m. Speed=26.496000m/h.</desc>
<speed>7.360000</speed>
</trkpt>
<trkpt lat="55.962692" lon="26.667465">
<ele>127.932678</ele>
<time>2010-06-20T13:27:51Z</time>
<desc>lat.=55.962692, lon.=26.667465, Alt.=127.932678m. Speed=25.740000m/h.</desc>
<speed>7.150000</speed>
</trkpt>
<trkpt lat="55.962635" lon="26.667414">
<ele>127.934631</ele>
<time>2010-06-20T13:27:52Z</time>
<desc>lat.=55.962635, lon.=26.667414, Alt.=127.934631m. Speed=27.827999m/h.</desc>
<speed>7.730000</speed>
</trkpt>
<trkpt lat="55.962570" lon="26.667355">
<ele>127.497131</ele>
<time>2010-06-20T13:27:53Z</time>
<desc>lat.=55.962570, lon.=26.667355, Alt.=127.497131m. Speed=28.007999m/h.</desc>
<speed>7.780000</speed>
</trkpt>
<trkpt lat="55.962513" lon="26.667297">
<ele>127.823303</ele>
<time>2010-06-20T13:27:54Z</time>
<desc>lat.=55.962513, lon.=26.667297, Alt.=127.823303m. Speed=27.000000m/h.</desc>
<speed>7.500000</speed>
</trkpt>
<trkpt lat="55.962452" lon="26.667238">
<ele>127.833069</ele>
<time>2010-06-20T13:27:55Z</time>
<desc>lat.=55.962452, lon.=26.667238, Alt.=127.833069m. Speed=28.440001m/h.</desc>
<speed>7.900000</speed>
</trkpt>
<trkpt lat="55.962391" lon="26.667175">
<ele>127.544006</ele>
<time>2010-06-20T13:27:56Z</time>
<desc>lat.=55.962391, lon.=26.667175, Alt.=127.544006m. Speed=28.332001m/h.</desc>
<speed>7.870000</speed>
</trkpt>
<trkpt lat="55.962326" lon="26.667118">
<ele>127.122131</ele>
<time>2010-06-20T13:27:57Z</time>
<desc>lat.=55.962326, lon.=26.667118, Alt.=127.122131m. Speed=28.440001m/h.</desc>
<speed>7.900000</speed>
</trkpt>
<trkpt lat="55.962261" lon="26.667059">
<ele>127.167053</ele>
<time>2010-06-20T13:27:58Z</time>
<desc>lat.=55.962261, lon.=26.667059, Alt.=127.167053m. Speed=30.275999m/h.</desc>
<speed>8.410000</speed>
</trkpt>
<trkpt lat="55.962193" lon="26.667004">
<ele>127.118225</ele>
<time>2010-06-20T13:27:59Z</time>
<desc>lat.=55.962193, lon.=26.667004, Alt.=127.118225m. Speed=29.340000m/h.</desc>
<speed>8.150000</speed>
</trkpt>
<trkpt lat="55.962128" lon="26.666945">
<ele>127.391663</ele>
<time>2010-06-20T13:28:00Z</time>
<desc>lat.=55.962128, lon.=26.666945, Alt.=127.391663m. Speed=30.204000m/h.</desc>
<speed>8.390000</speed>
</trkpt>
<trkpt lat="55.962059" lon="26.666885">
<ele>127.547913</ele>
<time>2010-06-20T13:28:01Z</time>
<desc>lat.=55.962059, lon.=26.666885, Alt.=127.547913m. Speed=29.412001m/h.</desc>
<speed>8.170000</speed>
</trkpt>
<trkpt lat="55.961990" lon="26.666826">
<ele>127.499084</ele>
<time>2010-06-20T13:28:02Z</time>
<desc>lat.=55.961990, lon.=26.666826, Alt.=127.499084m. Speed=29.736000m/h.</desc>
<speed>8.260000</speed>
</trkpt>
<trkpt lat="55.961926" lon="26.666769">
<ele>127.637756</ele>
<time>2010-06-20T13:28:03Z</time>
<desc>lat.=55.961926, lon.=26.666769, Alt.=127.637756m. Speed=29.087999m/h.</desc>
<speed>8.080000</speed>
</trkpt>
<trkpt lat="55.961861" lon="26.666710">
<ele>127.545959</ele>
<time>2010-06-20T13:28:04Z</time>
<desc>lat.=55.961861, lon.=26.666710, Alt.=127.545959m. Speed=28.980000m/h.</desc>
<speed>8.050000</speed>
</trkpt>
<trkpt lat="55.961796" lon="26.666651">
<ele>127.272522</ele>
<time>2010-06-20T13:28:05Z</time>
<desc>lat.=55.961796, lon.=26.666651, Alt.=127.272522m. Speed=29.052000m/h.</desc>
<speed>8.070000</speed>
</trkpt>
<trkpt lat="55.961731" lon="26.666592">
<ele>127.118225</ele>
<time>2010-06-20T13:28:06Z</time>
<desc>lat.=55.961731, lon.=26.666592, Alt.=127.118225m. Speed=28.656000m/h.</desc>
<speed>7.960000</speed>
</trkpt>
<trkpt lat="55.961666" lon="26.666533">
<ele>127.221741</ele>
<time>2010-06-20T13:28:07Z</time>
<desc>lat.=55.961666, lon.=26.666533, Alt.=127.221741m. Speed=28.368000m/h.</desc>
<speed>7.880000</speed>
</trkpt>
<trkpt lat="55.961605" lon="26.666473">
<ele>127.501038</ele>
<time>2010-06-20T13:28:08Z</time>
<desc>lat.=55.961605, lon.=26.666473, Alt.=127.501038m. Speed=27.540001m/h.</desc>
<speed>7.650000</speed>
</trkpt>
<trkpt lat="55.961544" lon="26.666418">
<ele>126.866272</ele>
<time>2010-06-20T13:28:09Z</time>
<desc>lat.=55.961544, lon.=26.666418, Alt.=126.866272m. Speed=27.288000m/h.</desc>
<speed>7.580000</speed>
</trkpt>
<trkpt lat="55.961483" lon="26.666359">
<ele>126.432678</ele>
<time>2010-06-20T13:28:10Z</time>
<desc>lat.=55.961483, lon.=26.666359, Alt.=126.432678m. Speed=27.216000m/h.</desc>
<speed>7.560000</speed>
</trkpt>
<trkpt lat="55.961422" lon="26.666296">
<ele>126.085022</ele>
<time>2010-06-20T13:28:11Z</time>
<desc>lat.=55.961422, lon.=26.666296, Alt.=126.085022m. Speed=27.431999m/h.</desc>
<speed>7.620000</speed>
</trkpt>
<trkpt lat="55.961361" lon="26.666241">
<ele>125.811584</ele>
<time>2010-06-20T13:28:12Z</time>
<desc>lat.=55.961361, lon.=26.666241, Alt.=125.811584m. Speed=27.648001m/h.</desc>
<speed>7.680000</speed>
</trkpt>
<trkpt lat="55.961296" lon="26.666185">
<ele>125.633850</ele>
<time>2010-06-20T13:28:13Z</time>
<desc>lat.=55.961296, lon.=26.666185, Alt.=125.633850m. Speed=27.792000m/h.</desc>
<speed>7.720000</speed>
</trkpt>
<trkpt lat="55.961231" lon="26.666126">
<ele>125.754944</ele>
<time>2010-06-20T13:28:14Z</time>
<desc>lat.=55.961231, lon.=26.666126, Alt.=125.754944m. Speed=27.576000m/h.</desc>
<speed>7.660000</speed>
</trkpt>
<trkpt lat="55.961174" lon="26.666075">
<ele>125.430725</ele>
<time>2010-06-20T13:28:15Z</time>
<desc>lat.=55.961174, lon.=26.666075, Alt.=125.430725m. Speed=25.524000m/h.</desc>
<speed>7.090000</speed>
</trkpt>
<trkpt lat="55.961113" lon="26.666019">
<ele>125.473694</ele>
<time>2010-06-20T13:28:16Z</time>
<desc>lat.=55.961113, lon.=26.666019, Alt.=125.473694m. Speed=27.396000m/h.</desc>
<speed>7.610000</speed>
</trkpt>
<trkpt lat="55.961052" lon="26.665964">
<ele>125.727600</ele>
<time>2010-06-20T13:28:17Z</time>
<desc>lat.=55.961052, lon.=26.665964, Alt.=125.727600m. Speed=27.216000m/h.</desc>
<speed>7.560000</speed>
</trkpt>
<trkpt lat="55.960991" lon="26.665907">
<ele>125.528381</ele>
<time>2010-06-20T13:28:18Z</time>
<desc>lat.=55.960991, lon.=26.665907, Alt.=125.528381m. Speed=27.612000m/h.</desc>
<speed>7.670000</speed>
</trkpt>
<trkpt lat="55.960930" lon="26.665854">
<ele>125.563538</ele>
<time>2010-06-20T13:28:19Z</time>
<desc>lat.=55.960930, lon.=26.665854, Alt.=125.563538m. Speed=27.756001m/h.</desc>
<speed>7.710000</speed>
</trkpt>
<trkpt lat="55.960865" lon="26.665794">
<ele>124.833069</ele>
<time>2010-06-20T13:28:20Z</time>
<desc>lat.=55.960865, lon.=26.665794, Alt.=124.833069m. Speed=28.476000m/h.</desc>
<speed>7.910000</speed>
</trkpt>
<trkpt lat="55.960796" lon="26.665735">
<ele>124.102600</ele>
<time>2010-06-20T13:28:21Z</time>
<desc>lat.=55.960796, lon.=26.665735, Alt.=124.102600m. Speed=28.511999m/h.</desc>
<speed>7.920000</speed>
</trkpt>
<trkpt lat="55.960735" lon="26.665676">
<ele>123.846741</ele>
<time>2010-06-20T13:28:22Z</time>
<desc>lat.=55.960735, lon.=26.665676, Alt.=123.846741m. Speed=28.980000m/h.</desc>
<speed>8.050000</speed>
</trkpt>
<trkpt lat="55.960670" lon="26.665617">
<ele>123.086975</ele>
<time>2010-06-20T13:28:23Z</time>
<desc>lat.=55.960670, lon.=26.665617, Alt.=123.086975m. Speed=26.927999m/h.</desc>
<speed>7.480000</speed>
</trkpt>
<trkpt lat="55.960606" lon="26.665558">
<ele>122.600647</ele>
<time>2010-06-20T13:28:24Z</time>
<desc>lat.=55.960606, lon.=26.665558, Alt.=122.600647m. Speed=29.124001m/h.</desc>
<speed>8.090000</speed>
</trkpt>
<trkpt lat="55.960537" lon="26.665499">
<ele>122.323303</ele>
<time>2010-06-20T13:28:25Z</time>
<desc>lat.=55.960537, lon.=26.665499, Alt.=122.323303m. Speed=29.448000m/h.</desc>
<speed>8.180000</speed>
</trkpt>
<trkpt lat="55.960472" lon="26.665438">
<ele>122.147522</ele>
<time>2010-06-20T13:28:26Z</time>
<desc>lat.=55.960472, lon.=26.665438, Alt.=122.147522m. Speed=29.700001m/h.</desc>
<speed>8.250000</speed>
</trkpt>
<trkpt lat="55.960403" lon="26.665373">
<ele>121.895569</ele>
<time>2010-06-20T13:28:27Z</time>
<desc>lat.=55.960403, lon.=26.665373, Alt.=121.895569m. Speed=29.916000m/h.</desc>
<speed>8.310000</speed>
</trkpt>
<trkpt lat="55.960335" lon="26.665312">
<ele>121.604553</ele>
<time>2010-06-20T13:28:28Z</time>
<desc>lat.=55.960335, lon.=26.665312, Alt.=121.604553m. Speed=30.096001m/h.</desc>
<speed>8.360000</speed>
</trkpt>
<trkpt lat="55.960270" lon="26.665255">
<ele>121.606506</ele>
<time>2010-06-20T13:28:29Z</time>
<desc>lat.=55.960270, lon.=26.665255, Alt.=121.606506m. Speed=30.312000m/h.</desc>
<speed>8.420000</speed>
</trkpt>
<trkpt lat="55.960197" lon="26.665190">
<ele>120.737366</ele>
<time>2010-06-20T13:28:30Z</time>
<desc>lat.=55.960197, lon.=26.665190, Alt.=120.737366m. Speed=30.312000m/h.</desc>
<speed>8.420000</speed>
</trkpt>
<trkpt lat="55.960129" lon="26.665129">
<ele>120.920959</ele>
<time>2010-06-20T13:28:31Z</time>
<desc>lat.=55.960129, lon.=26.665129, Alt.=120.920959m. Speed=31.716000m/h.</desc>
<speed>8.810000</speed>
</trkpt>
<trkpt lat="55.960056" lon="26.665066">
<ele>120.335022</ele>
<time>2010-06-20T13:28:32Z</time>
<desc>lat.=55.960056, lon.=26.665066, Alt.=120.335022m. Speed=32.759998m/h.</desc>
<speed>9.100000</speed>
</trkpt>
<trkpt lat="55.959988" lon="26.664995">
<ele>120.434631</ele>
<time>2010-06-20T13:28:33Z</time>
<desc>lat.=55.959988, lon.=26.664995, Alt.=120.434631m. Speed=33.264000m/h.</desc>
<speed>9.240000</speed>
</trkpt>
<trkpt lat="55.959915" lon="26.664925">
<ele>120.667053</ele>
<time>2010-06-20T13:28:34Z</time>
<desc>lat.=55.959915, lon.=26.664925, Alt.=120.667053m. Speed=33.299999m/h.</desc>
<speed>9.250000</speed>
</trkpt>
<trkpt lat="55.959846" lon="26.664867">
<ele>122.540100</ele>
<time>2010-06-20T13:28:35Z</time>
<desc>lat.=55.959846, lon.=26.664867, Alt.=122.540100m. Speed=32.580002m/h.</desc>
<speed>9.050001</speed>
</trkpt>
<trkpt lat="55.959770" lon="26.664806">
<ele>122.850647</ele>
<time>2010-06-20T13:28:36Z</time>
<desc>lat.=55.959770, lon.=26.664806, Alt.=122.850647m. Speed=33.372002m/h.</desc>
<speed>9.270000</speed>
</trkpt>
<trkpt lat="55.959698" lon="26.664742">
<ele>123.067444</ele>
<time>2010-06-20T13:28:37Z</time>
<desc>lat.=55.959698, lon.=26.664742, Alt.=123.067444m. Speed=33.048000m/h.</desc>
<speed>9.180000</speed>
</trkpt>
<trkpt lat="55.959621" lon="26.664675">
<ele>123.045959</ele>
<time>2010-06-20T13:28:38Z</time>
<desc>lat.=55.959621, lon.=26.664675, Alt.=123.045959m. Speed=34.236000m/h.</desc>
<speed>9.510000</speed>
</trkpt>
<trkpt lat="55.959545" lon="26.664608">
<ele>122.874084</ele>
<time>2010-06-20T13:28:39Z</time>
<desc>lat.=55.959545, lon.=26.664608, Alt.=122.874084m. Speed=34.344002m/h.</desc>
<speed>9.540000</speed>
</trkpt>
<trkpt lat="55.959465" lon="26.664541">
<ele>122.860413</ele>
<time>2010-06-20T13:28:40Z</time>
<desc>lat.=55.959465, lon.=26.664541, Alt.=122.860413m. Speed=34.200001m/h.</desc>
<speed>9.500000</speed>
</trkpt>
<trkpt lat="55.959385" lon="26.664474">
<ele>123.106506</ele>
<time>2010-06-20T13:28:41Z</time>
<desc>lat.=55.959385, lon.=26.664474, Alt.=123.106506m. Speed=34.632000m/h.</desc>
<speed>9.620000</speed>
</trkpt>
<trkpt lat="55.959309" lon="26.664406">
<ele>123.307678</ele>
<time>2010-06-20T13:28:42Z</time>
<desc>lat.=55.959309, lon.=26.664406, Alt.=123.307678m. Speed=35.279999m/h.</desc>
<speed>9.800000</speed>
</trkpt>
<trkpt lat="55.959232" lon="26.664335">
<ele>123.417053</ele>
<time>2010-06-20T13:28:43Z</time>
<desc>lat.=55.959232, lon.=26.664335, Alt.=123.417053m. Speed=35.316002m/h.</desc>
<speed>9.810001</speed>
</trkpt>
<trkpt lat="55.959152" lon="26.664267">
<ele>123.538147</ele>
<time>2010-06-20T13:28:44Z</time>
<desc>lat.=55.959152, lon.=26.664267, Alt.=123.538147m. Speed=34.992001m/h.</desc>
<speed>9.720000</speed>
</trkpt>
<trkpt lat="55.959076" lon="26.664194">
<ele>123.067444</ele>
<time>2010-06-20T13:28:45Z</time>
<desc>lat.=55.959076, lon.=26.664194, Alt.=123.067444m. Speed=34.452000m/h.</desc>
<speed>9.570000</speed>
</trkpt>
<trkpt lat="55.959000" lon="26.664125">
<ele>122.934631</ele>
<time>2010-06-20T13:28:46Z</time>
<desc>lat.=55.959000, lon.=26.664125, Alt.=122.934631m. Speed=34.812000m/h.</desc>
<speed>9.670000</speed>
</trkpt>
<trkpt lat="55.958923" lon="26.664057">
<ele>123.297913</ele>
<time>2010-06-20T13:28:47Z</time>
<desc>lat.=55.958923, lon.=26.664057, Alt.=123.297913m. Speed=34.667999m/h.</desc>
<speed>9.630000</speed>
</trkpt>
<trkpt lat="55.958843" lon="26.663988">
<ele>123.137756</ele>
<time>2010-06-20T13:28:48Z</time>
<desc>lat.=55.958843, lon.=26.663988, Alt.=123.137756m. Speed=34.523998m/h.</desc>
<speed>9.590000</speed>
</trkpt>
<trkpt lat="55.958767" lon="26.663925">
<ele>122.991272</ele>
<time>2010-06-20T13:28:49Z</time>
<desc>lat.=55.958767, lon.=26.663925, Alt.=122.991272m. Speed=34.560001m/h.</desc>
<speed>9.600000</speed>
</trkpt>
<trkpt lat="55.958691" lon="26.663860">
<ele>123.045959</ele>
<time>2010-06-20T13:28:50Z</time>
<desc>lat.=55.958691, lon.=26.663860, Alt.=123.045959m. Speed=34.380001m/h.</desc>
<speed>9.550000</speed>
</trkpt>
<trkpt lat="55.958614" lon="26.663792">
<ele>123.163147</ele>
<time>2010-06-20T13:28:51Z</time>
<desc>lat.=55.958614, lon.=26.663792, Alt.=123.163147m. Speed=34.271999m/h.</desc>
<speed>9.520000</speed>
</trkpt>
<trkpt lat="55.958538" lon="26.663723">
<ele>123.282288</ele>
<time>2010-06-20T13:28:52Z</time>
<desc>lat.=55.958538, lon.=26.663723, Alt.=123.282288m. Speed=34.380001m/h.</desc>
<speed>9.550000</speed>
</trkpt>
<trkpt lat="55.958462" lon="26.663652">
<ele>123.145569</ele>
<time>2010-06-20T13:28:53Z</time>
<desc>lat.=55.958462, lon.=26.663652, Alt.=123.145569m. Speed=34.560001m/h.</desc>
<speed>9.600000</speed>
</trkpt>
<trkpt lat="55.958382" lon="26.663582">
<ele>122.725647</ele>
<time>2010-06-20T13:28:54Z</time>
<desc>lat.=55.958382, lon.=26.663582, Alt.=122.725647m. Speed=34.848000m/h.</desc>
<speed>9.680000</speed>
</trkpt>
<trkpt lat="55.958302" lon="26.663513">
<ele>122.381897</ele>
<time>2010-06-20T13:28:55Z</time>
<desc>lat.=55.958302, lon.=26.663513, Alt.=122.381897m. Speed=34.812000m/h.</desc>
<speed>9.670000</speed>
</trkpt>
<trkpt lat="55.958225" lon="26.663443">
<ele>122.637756</ele>
<time>2010-06-20T13:28:56Z</time>
<desc>lat.=55.958225, lon.=26.663443, Alt.=122.637756m. Speed=34.740002m/h.</desc>
<speed>9.650000</speed>
</trkpt>
<trkpt lat="55.958149" lon="26.663376">
<ele>122.571350</ele>
<time>2010-06-20T13:28:57Z</time>
<desc>lat.=55.958149, lon.=26.663376, Alt.=122.571350m. Speed=34.380001m/h.</desc>
<speed>9.550000</speed>
</trkpt>
<trkpt lat="55.958069" lon="26.663307">
<ele>122.629944</ele>
<time>2010-06-20T13:28:58Z</time>
<desc>lat.=55.958069, lon.=26.663307, Alt.=122.629944m. Speed=34.056000m/h.</desc>
<speed>9.460000</speed>
</trkpt>
<trkpt lat="55.957993" lon="26.663240">
<ele>122.526428</ele>
<time>2010-06-20T13:28:59Z</time>
<desc>lat.=55.957993, lon.=26.663240, Alt.=122.526428m. Speed=34.020000m/h.</desc>
<speed>9.450000</speed>
</trkpt>
<trkpt lat="55.957916" lon="26.663174">
<ele>122.600647</ele>
<time>2010-06-20T13:29:00Z</time>
<desc>lat.=55.957916, lon.=26.663174, Alt.=122.600647m. Speed=33.804001m/h.</desc>
<speed>9.390000</speed>
</trkpt>
<trkpt lat="55.957844" lon="26.663105">
<ele>123.001038</ele>
<time>2010-06-20T13:29:01Z</time>
<desc>lat.=55.957844, lon.=26.663105, Alt.=123.001038m. Speed=33.515999m/h.</desc>
<speed>9.310000</speed>
</trkpt>
<trkpt lat="55.957767" lon="26.663040">
<ele>122.514709</ele>
<time>2010-06-20T13:29:02Z</time>
<desc>lat.=55.957767, lon.=26.663040, Alt.=122.514709m. Speed=33.660000m/h.</desc>
<speed>9.350000</speed>
</trkpt>
<trkpt lat="55.957691" lon="26.662971">
<ele>122.920959</ele>
<time>2010-06-20T13:29:03Z</time>
<desc>lat.=55.957691, lon.=26.662971, Alt.=122.920959m. Speed=33.624001m/h.</desc>
<speed>9.340000</speed>
</trkpt>
<trkpt lat="55.957615" lon="26.662901">
<ele>122.907288</ele>
<time>2010-06-20T13:29:04Z</time>
<desc>lat.=55.957615, lon.=26.662901, Alt.=122.907288m. Speed=33.335999m/h.</desc>
<speed>9.260000</speed>
</trkpt>
<trkpt lat="55.957542" lon="26.662834">
<ele>122.508850</ele>
<time>2010-06-20T13:29:05Z</time>
<desc>lat.=55.957542, lon.=26.662834, Alt.=122.508850m. Speed=33.048000m/h.</desc>
<speed>9.180000</speed>
</trkpt>
<trkpt lat="55.957470" lon="26.662766">
<ele>122.895569</ele>
<time>2010-06-20T13:29:06Z</time>
<desc>lat.=55.957470, lon.=26.662766, Alt.=122.895569m. Speed=32.976002m/h.</desc>
<speed>9.160000</speed>
</trkpt>
<trkpt lat="55.957397" lon="26.662697">
<ele>123.096741</ele>
<time>2010-06-20T13:29:07Z</time>
<desc>lat.=55.957397, lon.=26.662697, Alt.=123.096741m. Speed=33.408001m/h.</desc>
<speed>9.280000</speed>
</trkpt>
<trkpt lat="55.957321" lon="26.662632">
<ele>123.028381</ele>
<time>2010-06-20T13:29:08Z</time>
<desc>lat.=55.957321, lon.=26.662632, Alt.=123.028381m. Speed=33.551998m/h.</desc>
<speed>9.319999</speed>
</trkpt>
<trkpt lat="55.957245" lon="26.662569">
<ele>123.030334</ele>
<time>2010-06-20T13:29:09Z</time>
<desc>lat.=55.957245, lon.=26.662569, Alt.=123.030334m. Speed=33.408001m/h.</desc>
<speed>9.280000</speed>
</trkpt>
<trkpt lat="55.957172" lon="26.662508">
<ele>126.438538</ele>
<time>2010-06-20T13:29:10Z</time>
<desc>lat.=55.957172, lon.=26.662508, Alt.=126.438538m. Speed=32.436001m/h.</desc>
<speed>9.010000</speed>
</trkpt>
<trkpt lat="55.957100" lon="26.662443">
<ele>126.315491</ele>
<time>2010-06-20T13:29:11Z</time>
<desc>lat.=55.957100, lon.=26.662443, Alt.=126.315491m. Speed=32.796001m/h.</desc>
<speed>9.110000</speed>
</trkpt>
<trkpt lat="55.957024" lon="26.662378">
<ele>126.770569</ele>
<time>2010-06-20T13:29:12Z</time>
<desc>lat.=55.957024, lon.=26.662378, Alt.=126.770569m. Speed=33.660000m/h.</desc>
<speed>9.350000</speed>
</trkpt>
<trkpt lat="55.956947" lon="26.662315">
<ele>127.077209</ele>
<time>2010-06-20T13:29:13Z</time>
<desc>lat.=55.956947, lon.=26.662315, Alt.=127.077209m. Speed=33.119999m/h.</desc>
<speed>9.200000</speed>
</trkpt>
<trkpt lat="55.956875" lon="26.662247">
<ele>127.292053</ele>
<time>2010-06-20T13:29:14Z</time>
<desc>lat.=55.956875, lon.=26.662247, Alt.=127.292053m. Speed=32.688000m/h.</desc>
<speed>9.080000</speed>
</trkpt>
<trkpt lat="55.956802" lon="26.662182">
<ele>127.081116</ele>
<time>2010-06-20T13:29:15Z</time>
<desc>lat.=55.956802, lon.=26.662182, Alt.=127.081116m. Speed=32.688000m/h.</desc>
<speed>9.080000</speed>
</trkpt>
<trkpt lat="55.956730" lon="26.662117">
<ele>127.256897</ele>
<time>2010-06-20T13:29:16Z</time>
<desc>lat.=55.956730, lon.=26.662117, Alt.=127.256897m. Speed=32.076000m/h.</desc>
<speed>8.910000</speed>
</trkpt>
<trkpt lat="55.956657" lon="26.662050">
<ele>126.710022</ele>
<time>2010-06-20T13:29:17Z</time>
<desc>lat.=55.956657, lon.=26.662050, Alt.=126.710022m. Speed=32.580002m/h.</desc>
<speed>9.050001</speed>
</trkpt>
<trkpt lat="55.956585" lon="26.661982">
<ele>126.907288</ele>
<time>2010-06-20T13:29:18Z</time>
<desc>lat.=55.956585, lon.=26.661982, Alt.=126.907288m. Speed=32.543999m/h.</desc>
<speed>9.040000</speed>
</trkpt>
<trkpt lat="55.956512" lon="26.661917">
<ele>126.794006</ele>
<time>2010-06-20T13:29:19Z</time>
<desc>lat.=55.956512, lon.=26.661917, Alt.=126.794006m. Speed=31.716000m/h.</desc>
<speed>8.810000</speed>
</trkpt>
<trkpt lat="55.956440" lon="26.661856">
<ele>126.794006</ele>
<time>2010-06-20T13:29:20Z</time>
<desc>lat.=55.956440, lon.=26.661856, Alt.=126.794006m. Speed=31.572001m/h.</desc>
<speed>8.770000</speed>
</trkpt>
<trkpt lat="55.956371" lon="26.661791">
<ele>126.223694</ele>
<time>2010-06-20T13:29:21Z</time>
<desc>lat.=55.956371, lon.=26.661791, Alt.=126.223694m. Speed=31.356001m/h.</desc>
<speed>8.710000</speed>
</trkpt>
<trkpt lat="55.956299" lon="26.661726">
<ele>125.973694</ele>
<time>2010-06-20T13:29:22Z</time>
<desc>lat.=55.956299, lon.=26.661726, Alt.=125.973694m. Speed=31.608000m/h.</desc>
<speed>8.780000</speed>
</trkpt>
<trkpt lat="55.956230" lon="26.661665">
<ele>126.022522</ele>
<time>2010-06-20T13:29:23Z</time>
<desc>lat.=55.956230, lon.=26.661665, Alt.=126.022522m. Speed=31.752001m/h.</desc>
<speed>8.820000</speed>
</trkpt>
<trkpt lat="55.956158" lon="26.661602">
<ele>125.952209</ele>
<time>2010-06-20T13:29:24Z</time>
<desc>lat.=55.956158, lon.=26.661602, Alt.=125.952209m. Speed=31.643999m/h.</desc>
<speed>8.790000</speed>
</trkpt>
<trkpt lat="55.956089" lon="26.661537">
<ele>125.710022</ele>
<time>2010-06-20T13:29:25Z</time>
<desc>lat.=55.956089, lon.=26.661537, Alt.=125.710022m. Speed=32.004002m/h.</desc>
<speed>8.890000</speed>
</trkpt>
<trkpt lat="55.956020" lon="26.661465">
<ele>125.159241</ele>
<time>2010-06-20T13:29:26Z</time>
<desc>lat.=55.956020, lon.=26.661465, Alt.=125.159241m. Speed=32.616001m/h.</desc>
<speed>9.060000</speed>
</trkpt>
<trkpt lat="55.955948" lon="26.661396">
<ele>124.856506</ele>
<time>2010-06-20T13:29:27Z</time>
<desc>lat.=55.955948, lon.=26.661396, Alt.=124.856506m. Speed=33.155998m/h.</desc>
<speed>9.210000</speed>
</trkpt>
<trkpt lat="55.955872" lon="26.661327">
<ele>124.657288</ele>
<time>2010-06-20T13:29:28Z</time>
<desc>lat.=55.955872, lon.=26.661327, Alt.=124.657288m. Speed=33.444000m/h.</desc>
<speed>9.290000</speed>
</trkpt>
<trkpt lat="55.955799" lon="26.661259">
<ele>124.602600</ele>
<time>2010-06-20T13:29:29Z</time>
<desc>lat.=55.955799, lon.=26.661259, Alt.=124.602600m. Speed=33.804001m/h.</desc>
<speed>9.390000</speed>
</trkpt>
<trkpt lat="55.955727" lon="26.661179">
<ele>124.081116</ele>
<time>2010-06-20T13:29:30Z</time>
<desc>lat.=55.955727, lon.=26.661179, Alt.=124.081116m. Speed=34.307999m/h.</desc>
<speed>9.530000</speed>
</trkpt>
<trkpt lat="55.955650" lon="26.661108">
<ele>123.729553</ele>
<time>2010-06-20T13:29:31Z</time>
<desc>lat.=55.955650, lon.=26.661108, Alt.=123.729553m. Speed=34.487999m/h.</desc>
<speed>9.580000</speed>
</trkpt>
<trkpt lat="55.955570" lon="26.661036">
<ele>122.780334</ele>
<time>2010-06-20T13:29:32Z</time>
<desc>lat.=55.955570, lon.=26.661036, Alt.=122.780334m. Speed=35.243999m/h.</desc>
<speed>9.790000</speed>
</trkpt>
<trkpt lat="55.955498" lon="26.660969">
<ele>122.288147</ele>
<time>2010-06-20T13:29:33Z</time>
<desc>lat.=55.955498, lon.=26.660969, Alt.=122.288147m. Speed=32.327999m/h.</desc>
<speed>8.980000</speed>
</trkpt>
<trkpt lat="55.955433" lon="26.660906">
<ele>121.727600</ele>
<time>2010-06-20T13:29:34Z</time>
<desc>lat.=55.955433, lon.=26.660906, Alt.=121.727600m. Speed=27.864000m/h.</desc>
<speed>7.740000</speed>
</trkpt>
<trkpt lat="55.955379" lon="26.660852">
<ele>121.581116</ele>
<time>2010-06-20T13:29:35Z</time>
<desc>lat.=55.955379, lon.=26.660852, Alt.=121.581116m. Speed=24.120001m/h.</desc>
<speed>6.700000</speed>
</trkpt>
<trkpt lat="55.955330" lon="26.660810">
<ele>120.653381</ele>
<time>2010-06-20T13:29:36Z</time>
<desc>lat.=55.955330, lon.=26.660810, Alt.=120.653381m. Speed=22.931999m/h.</desc>
<speed>6.370000</speed>
</trkpt>
<trkpt lat="55.955284" lon="26.660767">
<ele>121.055725</ele>
<time>2010-06-20T13:29:37Z</time>
<desc>lat.=55.955284, lon.=26.660767, Alt.=121.055725m. Speed=22.356001m/h.</desc>
<speed>6.210000</speed>
</trkpt>
<trkpt lat="55.955235" lon="26.660715">
<ele>120.801819</ele>
<time>2010-06-20T13:29:38Z</time>
<desc>lat.=55.955235, lon.=26.660715, Alt.=120.801819m. Speed=23.256001m/h.</desc>
<speed>6.460000</speed>
</trkpt>
<trkpt lat="55.955185" lon="26.660673">
<ele>121.085022</ele>
<time>2010-06-20T13:29:39Z</time>
<desc>lat.=55.955185, lon.=26.660673, Alt.=121.085022m. Speed=23.292000m/h.</desc>
<speed>6.470000</speed>
</trkpt>
<trkpt lat="55.955132" lon="26.660624">
<ele>120.192444</ele>
<time>2010-06-20T13:29:40Z</time>
<desc>lat.=55.955132, lon.=26.660624, Alt.=120.192444m. Speed=24.120001m/h.</desc>
<speed>6.700000</speed>
</trkpt>
<trkpt lat="55.955078" lon="26.660570">
<ele>120.176819</ele>
<time>2010-06-20T13:29:41Z</time>
<desc>lat.=55.955078, lon.=26.660570, Alt.=120.176819m. Speed=24.912001m/h.</desc>
<speed>6.920000</speed>
</trkpt>
<trkpt lat="55.955021" lon="26.660519">
<ele>120.100647</ele>
<time>2010-06-20T13:29:42Z</time>
<desc>lat.=55.955021, lon.=26.660519, Alt.=120.100647m. Speed=24.912001m/h.</desc>
<speed>6.920000</speed>
</trkpt>
<trkpt lat="55.954964" lon="26.660463">
<ele>119.840881</ele>
<time>2010-06-20T13:29:43Z</time>
<desc>lat.=55.954964, lon.=26.660463, Alt.=119.840881m. Speed=25.200001m/h.</desc>
<speed>7.000000</speed>
</trkpt>
<trkpt lat="55.954906" lon="26.660412">
<ele>119.883850</ele>
<time>2010-06-20T13:29:44Z</time>
<desc>lat.=55.954906, lon.=26.660412, Alt.=119.883850m. Speed=25.452000m/h.</desc>
<speed>7.070000</speed>
</trkpt>
<trkpt lat="55.954849" lon="26.660360">
<ele>119.887756</ele>
<time>2010-06-20T13:29:45Z</time>
<desc>lat.=55.954849, lon.=26.660360, Alt.=119.887756m. Speed=25.524000m/h.</desc>
<speed>7.090000</speed>
</trkpt>
<trkpt lat="55.954796" lon="26.660305">
<ele>120.006897</ele>
<time>2010-06-20T13:29:46Z</time>
<desc>lat.=55.954796, lon.=26.660305, Alt.=120.006897m. Speed=25.667999m/h.</desc>
<speed>7.130000</speed>
</trkpt>
<trkpt lat="55.954735" lon="26.660255">
<ele>119.922913</ele>
<time>2010-06-20T13:29:47Z</time>
<desc>lat.=55.954735, lon.=26.660255, Alt.=119.922913m. Speed=25.704000m/h.</desc>
<speed>7.140000</speed>
</trkpt>
<trkpt lat="55.954678" lon="26.660200">
<ele>119.911194</ele>
<time>2010-06-20T13:29:48Z</time>
<desc>lat.=55.954678, lon.=26.660200, Alt.=119.911194m. Speed=25.992001m/h.</desc>
<speed>7.220000</speed>
</trkpt>
<trkpt lat="55.954617" lon="26.660145">
<ele>119.870178</ele>
<time>2010-06-20T13:29:49Z</time>
<desc>lat.=55.954617, lon.=26.660145, Alt.=119.870178m. Speed=27.323999m/h.</desc>
<speed>7.590000</speed>
</trkpt>
<trkpt lat="55.954556" lon="26.660088">
<ele>119.842834</ele>
<time>2010-06-20T13:29:50Z</time>
<desc>lat.=55.954556, lon.=26.660088, Alt.=119.842834m. Speed=27.252001m/h.</desc>
<speed>7.570000</speed>
</trkpt>
<trkpt lat="55.954498" lon="26.660027">
<ele>119.735413</ele>
<time>2010-06-20T13:29:51Z</time>
<desc>lat.=55.954498, lon.=26.660027, Alt.=119.735413m. Speed=28.115999m/h.</desc>
<speed>7.810000</speed>
</trkpt>
<trkpt lat="55.954437" lon="26.659967">
<ele>119.629944</ele>
<time>2010-06-20T13:29:52Z</time>
<desc>lat.=55.954437, lon.=26.659967, Alt.=119.629944m. Speed=28.152000m/h.</desc>
<speed>7.820000</speed>
</trkpt>
<trkpt lat="55.954372" lon="26.659910">
<ele>120.083069</ele>
<time>2010-06-20T13:29:53Z</time>
<desc>lat.=55.954372, lon.=26.659910, Alt.=120.083069m. Speed=28.044001m/h.</desc>
<speed>7.790000</speed>
</trkpt>
<trkpt lat="55.954308" lon="26.659855">
<ele>120.294006</ele>
<time>2010-06-20T13:29:54Z</time>
<desc>lat.=55.954308, lon.=26.659855, Alt.=120.294006m. Speed=28.403999m/h.</desc>
<speed>7.890000</speed>
</trkpt>
<trkpt lat="55.954243" lon="26.659798">
<ele>120.071350</ele>
<time>2010-06-20T13:29:55Z</time>
<desc>lat.=55.954243, lon.=26.659798, Alt.=120.071350m. Speed=28.728001m/h.</desc>
<speed>7.980000</speed>
</trkpt>
<trkpt lat="55.954178" lon="26.659746">
<ele>120.329163</ele>
<time>2010-06-20T13:29:56Z</time>
<desc>lat.=55.954178, lon.=26.659746, Alt.=120.329163m. Speed=28.944000m/h.</desc>
<speed>8.040000</speed>
</trkpt>
<trkpt lat="55.954117" lon="26.659689">
<ele>119.936584</ele>
<time>2010-06-20T13:29:57Z</time>
<desc>lat.=55.954117, lon.=26.659689, Alt.=119.936584m. Speed=29.375999m/h.</desc>
<speed>8.160000</speed>
</trkpt>
<trkpt lat="55.954048" lon="26.659634">
<ele>120.038147</ele>
<time>2010-06-20T13:29:58Z</time>
<desc>lat.=55.954048, lon.=26.659634, Alt.=120.038147m. Speed=29.628000m/h.</desc>
<speed>8.230000</speed>
</trkpt>
<trkpt lat="55.953983" lon="26.659573">
<ele>119.819397</ele>
<time>2010-06-20T13:29:59Z</time>
<desc>lat.=55.953983, lon.=26.659573, Alt.=119.819397m. Speed=29.591999m/h.</desc>
<speed>8.220000</speed>
</trkpt>
<trkpt lat="55.953915" lon="26.659512">
<ele>119.399475</ele>
<time>2010-06-20T13:30:00Z</time>
<desc>lat.=55.953915, lon.=26.659512, Alt.=119.399475m. Speed=29.736000m/h.</desc>
<speed>8.260000</speed>
</trkpt>
<trkpt lat="55.953850" lon="26.659452">
<ele>119.374084</ele>
<time>2010-06-20T13:30:01Z</time>
<desc>lat.=55.953850, lon.=26.659452, Alt.=119.374084m. Speed=29.520000m/h.</desc>
<speed>8.200000</speed>
</trkpt>
<trkpt lat="55.953781" lon="26.659389">
<ele>118.897522</ele>
<time>2010-06-20T13:30:02Z</time>
<desc>lat.=55.953781, lon.=26.659389, Alt.=118.897522m. Speed=30.059999m/h.</desc>
<speed>8.350000</speed>
</trkpt>
<trkpt lat="55.953716" lon="26.659328">
<ele>118.864319</ele>
<time>2010-06-20T13:30:03Z</time>
<desc>lat.=55.953716, lon.=26.659328, Alt.=118.864319m. Speed=29.771999m/h.</desc>
<speed>8.270000</speed>
</trkpt>
<trkpt lat="55.953644" lon="26.659267">
<ele>118.811584</ele>
<time>2010-06-20T13:30:04Z</time>
<desc>lat.=55.953644, lon.=26.659267, Alt.=118.811584m. Speed=29.808001m/h.</desc>
<speed>8.280000</speed>
</trkpt>
<trkpt lat="55.953579" lon="26.659212">
<ele>118.493225</ele>
<time>2010-06-20T13:30:05Z</time>
<desc>lat.=55.953579, lon.=26.659212, Alt.=118.493225m. Speed=29.700001m/h.</desc>
<speed>8.250000</speed>
</trkpt>
<trkpt lat="55.953510" lon="26.659155">
<ele>118.940491</ele>
<time>2010-06-20T13:30:06Z</time>
<desc>lat.=55.953510, lon.=26.659155, Alt.=118.940491m. Speed=29.952000m/h.</desc>
<speed>8.320000</speed>
</trkpt>
<trkpt lat="55.953445" lon="26.659098">
<ele>119.034241</ele>
<time>2010-06-20T13:30:07Z</time>
<desc>lat.=55.953445, lon.=26.659098, Alt.=119.034241m. Speed=28.656000m/h.</desc>
<speed>7.960000</speed>
</trkpt>
<trkpt lat="55.953384" lon="26.659042">
<ele>118.374084</ele>
<time>2010-06-20T13:30:08Z</time>
<desc>lat.=55.953384, lon.=26.659042, Alt.=118.374084m. Speed=26.316000m/h.</desc>
<speed>7.310000</speed>
</trkpt>
<trkpt lat="55.953331" lon="26.658991">
<ele>118.141663</ele>
<time>2010-06-20T13:30:09Z</time>
<desc>lat.=55.953331, lon.=26.658991, Alt.=118.141663m. Speed=22.860001m/h.</desc>
<speed>6.350000</speed>
</trkpt>
<trkpt lat="55.953281" lon="26.658947">
<ele>118.524475</ele>
<time>2010-06-20T13:30:10Z</time>
<desc>lat.=55.953281, lon.=26.658947, Alt.=118.524475m. Speed=20.052000m/h.</desc>
<speed>5.570000</speed>
</trkpt>
<trkpt lat="55.953243" lon="26.658905">
<ele>118.430725</ele>
<time>2010-06-20T13:30:11Z</time>
<desc>lat.=55.953243, lon.=26.658905, Alt.=118.430725m. Speed=19.152000m/h.</desc>
<speed>5.320000</speed>
</trkpt>
<trkpt lat="55.953201" lon="26.658867">
<ele>118.559631</ele>
<time>2010-06-20T13:30:12Z</time>
<desc>lat.=55.953201, lon.=26.658867, Alt.=118.559631m. Speed=19.188000m/h.</desc>
<speed>5.330000</speed>
</trkpt>
<trkpt lat="55.953159" lon="26.658831">
<ele>118.073303</ele>
<time>2010-06-20T13:30:13Z</time>
<desc>lat.=55.953159, lon.=26.658831, Alt.=118.073303m. Speed=19.224001m/h.</desc>
<speed>5.340000</speed>
</trkpt>
<trkpt lat="55.953121" lon="26.658791">
<ele>117.551819</ele>
<time>2010-06-20T13:30:14Z</time>
<desc>lat.=55.953121, lon.=26.658791, Alt.=117.551819m. Speed=19.403999m/h.</desc>
<speed>5.390000</speed>
</trkpt>
<trkpt lat="55.953083" lon="26.658747">
<ele>117.741272</ele>
<time>2010-06-20T13:30:15Z</time>
<desc>lat.=55.953083, lon.=26.658747, Alt.=117.741272m. Speed=19.944000m/h.</desc>
<speed>5.540000</speed>
</trkpt>
<trkpt lat="55.953041" lon="26.658707">
<ele>117.592834</ele>
<time>2010-06-20T13:30:16Z</time>
<desc>lat.=55.953041, lon.=26.658707, Alt.=117.592834m. Speed=20.916000m/h.</desc>
<speed>5.810000</speed>
</trkpt>
<trkpt lat="55.952988" lon="26.658670">
<ele>116.688538</ele>
<time>2010-06-20T13:30:17Z</time>
<desc>lat.=55.952988, lon.=26.658670, Alt.=116.688538m. Speed=21.420000m/h.</desc>
<speed>5.950000</speed>
</trkpt>
<trkpt lat="55.952942" lon="26.658623">
<ele>116.569397</ele>
<time>2010-06-20T13:30:18Z</time>
<desc>lat.=55.952942, lon.=26.658623, Alt.=116.569397m. Speed=21.780001m/h.</desc>
<speed>6.050000</speed>
</trkpt>
<trkpt lat="55.952888" lon="26.658579">
<ele>116.581116</ele>
<time>2010-06-20T13:30:19Z</time>
<desc>lat.=55.952888, lon.=26.658579, Alt.=116.581116m. Speed=22.212000m/h.</desc>
<speed>6.170000</speed>
</trkpt>
<trkpt lat="55.952839" lon="26.658537">
<ele>116.610413</ele>
<time>2010-06-20T13:30:20Z</time>
<desc>lat.=55.952839, lon.=26.658537, Alt.=116.610413m. Speed=22.464001m/h.</desc>
<speed>6.240000</speed>
</trkpt>
<trkpt lat="55.952785" lon="26.658489">
<ele>116.624084</ele>
<time>2010-06-20T13:30:21Z</time>
<desc>lat.=55.952785, lon.=26.658489, Alt.=116.624084m. Speed=23.760000m/h.</desc>
<speed>6.600000</speed>
</trkpt>
<trkpt lat="55.952732" lon="26.658440">
<ele>116.469788</ele>
<time>2010-06-20T13:30:22Z</time>
<desc>lat.=55.952732, lon.=26.658440, Alt.=116.469788m. Speed=23.580000m/h.</desc>
<speed>6.550000</speed>
</trkpt>
<trkpt lat="55.952679" lon="26.658388">
<ele>116.348694</ele>
<time>2010-06-20T13:30:23Z</time>
<desc>lat.=55.952679, lon.=26.658388, Alt.=116.348694m. Speed=24.444000m/h.</desc>
<speed>6.790000</speed>
</trkpt>
<trkpt lat="55.952625" lon="26.658339">
<ele>116.174866</ele>
<time>2010-06-20T13:30:24Z</time>
<desc>lat.=55.952625, lon.=26.658339, Alt.=116.174866m. Speed=25.056000m/h.</desc>
<speed>6.960000</speed>
</trkpt>
<trkpt lat="55.952568" lon="26.658289">
<ele>116.045959</ele>
<time>2010-06-20T13:30:25Z</time>
<desc>lat.=55.952568, lon.=26.658289, Alt.=116.045959m. Speed=25.740000m/h.</desc>
<speed>7.150000</speed>
</trkpt>
<trkpt lat="55.952511" lon="26.658237">
<ele>116.001038</ele>
<time>2010-06-20T13:30:26Z</time>
<desc>lat.=55.952511, lon.=26.658237, Alt.=116.001038m. Speed=26.208000m/h.</desc>
<speed>7.280000</speed>
</trkpt>
<trkpt lat="55.952454" lon="26.658186">
<ele>116.129944</ele>
<time>2010-06-20T13:30:27Z</time>
<desc>lat.=55.952454, lon.=26.658186, Alt.=116.129944m. Speed=26.568001m/h.</desc>
<speed>7.380000</speed>
</trkpt>
<trkpt lat="55.952389" lon="26.658134">
<ele>116.200256</ele>
<time>2010-06-20T13:30:28Z</time>
<desc>lat.=55.952389, lon.=26.658134, Alt.=116.200256m. Speed=26.820000m/h.</desc>
<speed>7.450000</speed>
</trkpt>
<trkpt lat="55.952332" lon="26.658079">
<ele>116.026428</ele>
<time>2010-06-20T13:30:29Z</time>
<desc>lat.=55.952332, lon.=26.658079, Alt.=116.026428m. Speed=27.000000m/h.</desc>
<speed>7.500000</speed>
</trkpt>
<trkpt lat="55.952267" lon="26.658028">
<ele>116.149475</ele>
<time>2010-06-20T13:30:30Z</time>
<desc>lat.=55.952267, lon.=26.658028, Alt.=116.149475m. Speed=27.252001m/h.</desc>
<speed>7.570000</speed>
</trkpt>
<trkpt lat="55.952206" lon="26.657970">
<ele>116.286194</ele>
<time>2010-06-20T13:30:31Z</time>
<desc>lat.=55.952206, lon.=26.657970, Alt.=116.286194m. Speed=26.747999m/h.</desc>
<speed>7.430000</speed>
</trkpt>
<trkpt lat="55.952145" lon="26.657915">
<ele>116.178772</ele>
<time>2010-06-20T13:30:32Z</time>
<desc>lat.=55.952145, lon.=26.657915, Alt.=116.178772m. Speed=27.216000m/h.</desc>
<speed>7.560000</speed>
</trkpt>
<trkpt lat="55.952084" lon="26.657862">
<ele>116.465881</ele>
<time>2010-06-20T13:30:33Z</time>
<desc>lat.=55.952084, lon.=26.657862, Alt.=116.465881m. Speed=27.468000m/h.</desc>
<speed>7.630000</speed>
</trkpt>
<trkpt lat="55.952019" lon="26.657806">
<ele>116.268616</ele>
<time>2010-06-20T13:30:34Z</time>
<desc>lat.=55.952019, lon.=26.657806, Alt.=116.268616m. Speed=28.440001m/h.</desc>
<speed>7.900000</speed>
</trkpt>
<trkpt lat="55.951954" lon="26.657749">
<ele>116.106506</ele>
<time>2010-06-20T13:30:35Z</time>
<desc>lat.=55.951954, lon.=26.657749, Alt.=116.106506m. Speed=28.584000m/h.</desc>
<speed>7.940000</speed>
</trkpt>
<trkpt lat="55.951885" lon="26.657692">
<ele>116.200256</ele>
<time>2010-06-20T13:30:36Z</time>
<desc>lat.=55.951885, lon.=26.657692, Alt.=116.200256m. Speed=29.087999m/h.</desc>
<speed>8.080000</speed>
</trkpt>
<trkpt lat="55.951820" lon="26.657631">
<ele>116.227600</ele>
<time>2010-06-20T13:30:37Z</time>
<desc>lat.=55.951820, lon.=26.657631, Alt.=116.227600m. Speed=30.096001m/h.</desc>
<speed>8.360000</speed>
</trkpt>
<trkpt lat="55.951752" lon="26.657572">
<ele>116.200256</ele>
<time>2010-06-20T13:30:38Z</time>
<desc>lat.=55.951752, lon.=26.657572, Alt.=116.200256m. Speed=30.708000m/h.</desc>
<speed>8.530000</speed>
</trkpt>
<trkpt lat="55.951679" lon="26.657507">
<ele>115.739319</ele>
<time>2010-06-20T13:30:39Z</time>
<desc>lat.=55.951679, lon.=26.657507, Alt.=115.739319m. Speed=32.652000m/h.</desc>
<speed>9.070000</speed>
</trkpt>
<trkpt lat="55.951607" lon="26.657440">
<ele>115.577209</ele>
<time>2010-06-20T13:30:40Z</time>
<desc>lat.=55.951607, lon.=26.657440, Alt.=115.577209m. Speed=31.931999m/h.</desc>
<speed>8.870000</speed>
</trkpt>
<trkpt lat="55.951530" lon="26.657373">
<ele>115.460022</ele>
<time>2010-06-20T13:30:41Z</time>
<desc>lat.=55.951530, lon.=26.657373, Alt.=115.460022m. Speed=31.608000m/h.</desc>
<speed>8.780000</speed>
</trkpt>
<trkpt lat="55.951458" lon="26.657309">
<ele>115.362366</ele>
<time>2010-06-20T13:30:42Z</time>
<desc>lat.=55.951458, lon.=26.657309, Alt.=115.362366m. Speed=32.616001m/h.</desc>
<speed>9.060000</speed>
</trkpt>
<trkpt lat="55.951385" lon="26.657240">
<ele>115.167053</ele>
<time>2010-06-20T13:30:43Z</time>
<desc>lat.=55.951385, lon.=26.657240, Alt.=115.167053m. Speed=32.363998m/h.</desc>
<speed>8.990000</speed>
</trkpt>
<trkpt lat="55.951317" lon="26.657175">
<ele>115.258850</ele>
<time>2010-06-20T13:30:44Z</time>
<desc>lat.=55.951317, lon.=26.657175, Alt.=115.258850m. Speed=32.327999m/h.</desc>
<speed>8.980000</speed>
</trkpt>
<trkpt lat="55.951241" lon="26.657110">
<ele>115.169006</ele>
<time>2010-06-20T13:30:45Z</time>
<desc>lat.=55.951241, lon.=26.657110, Alt.=115.169006m. Speed=33.335999m/h.</desc>
<speed>9.260000</speed>
</trkpt>
<trkpt lat="55.951164" lon="26.657042">
<ele>114.663147</ele>
<time>2010-06-20T13:30:46Z</time>
<desc>lat.=55.951164, lon.=26.657042, Alt.=114.663147m. Speed=33.192001m/h.</desc>
<speed>9.220000</speed>
</trkpt>
<trkpt lat="55.951088" lon="26.656977">
<ele>114.670959</ele>
<time>2010-06-20T13:30:47Z</time>
<desc>lat.=55.951088, lon.=26.656977, Alt.=114.670959m. Speed=33.875999m/h.</desc>
<speed>9.410000</speed>
</trkpt>
<trkpt lat="55.951012" lon="26.656912">
<ele>114.655334</ele>
<time>2010-06-20T13:30:48Z</time>
<desc>lat.=55.951012, lon.=26.656912, Alt.=114.655334m. Speed=33.731998m/h.</desc>
<speed>9.370000</speed>
</trkpt>
<trkpt lat="55.950935" lon="26.656841">
<ele>114.676819</ele>
<time>2010-06-20T13:30:49Z</time>
<desc>lat.=55.950935, lon.=26.656841, Alt.=114.676819m. Speed=32.939999m/h.</desc>
<speed>9.150000</speed>
</trkpt>
<trkpt lat="55.950863" lon="26.656771">
<ele>114.569397</ele>
<time>2010-06-20T13:30:50Z</time>
<desc>lat.=55.950863, lon.=26.656771, Alt.=114.569397m. Speed=32.004002m/h.</desc>
<speed>8.890000</speed>
</trkpt>
<trkpt lat="55.950790" lon="26.656702">
<ele>114.626038</ele>
<time>2010-06-20T13:30:51Z</time>
<desc>lat.=55.950790, lon.=26.656702, Alt.=114.626038m. Speed=32.688000m/h.</desc>
<speed>9.080000</speed>
</trkpt>
<trkpt lat="55.950718" lon="26.656637">
<ele>115.106506</ele>
<time>2010-06-20T13:30:52Z</time>
<desc>lat.=55.950718, lon.=26.656637, Alt.=115.106506m. Speed=33.084000m/h.</desc>
<speed>9.190000</speed>
</trkpt>
<trkpt lat="55.950649" lon="26.656574">
<ele>115.510803</ele>
<time>2010-06-20T13:30:53Z</time>
<desc>lat.=55.950649, lon.=26.656574, Alt.=115.510803m. Speed=31.464001m/h.</desc>
<speed>8.740000</speed>
</trkpt>
<trkpt lat="55.950581" lon="26.656513">
<ele>116.012756</ele>
<time>2010-06-20T13:30:54Z</time>
<desc>lat.=55.950581, lon.=26.656513, Alt.=116.012756m. Speed=29.879999m/h.</desc>
<speed>8.300000</speed>
</trkpt>
<trkpt lat="55.950512" lon="26.656454">
<ele>116.491272</ele>
<time>2010-06-20T13:30:55Z</time>
<desc>lat.=55.950512, lon.=26.656454, Alt.=116.491272m. Speed=31.284000m/h.</desc>
<speed>8.690000</speed>
</trkpt>
<trkpt lat="55.950439" lon="26.656389">
<ele>116.733459</ele>
<time>2010-06-20T13:30:56Z</time>
<desc>lat.=55.950439, lon.=26.656389, Alt.=116.733459m. Speed=32.076000m/h.</desc>
<speed>8.910000</speed>
</trkpt>
<trkpt lat="55.950367" lon="26.656326">
<ele>116.981506</ele>
<time>2010-06-20T13:30:57Z</time>
<desc>lat.=55.950367, lon.=26.656326, Alt.=116.981506m. Speed=31.860001m/h.</desc>
<speed>8.850000</speed>
</trkpt>
<trkpt lat="55.950291" lon="26.656258">
<ele>117.163147</ele>
<time>2010-06-20T13:30:58Z</time>
<desc>lat.=55.950291, lon.=26.656258, Alt.=117.163147m. Speed=33.480000m/h.</desc>
<speed>9.300000</speed>
</trkpt>
<trkpt lat="55.950214" lon="26.656191">
<ele>117.352600</ele>
<time>2010-06-20T13:30:59Z</time>
<desc>lat.=55.950214, lon.=26.656191, Alt.=117.352600m. Speed=33.192001m/h.</desc>
<speed>9.220000</speed>
</trkpt>
<trkpt lat="55.950138" lon="26.656118">
<ele>117.030334</ele>
<time>2010-06-20T13:31:00Z</time>
<desc>lat.=55.950138, lon.=26.656118, Alt.=117.030334m. Speed=34.271999m/h.</desc>
<speed>9.520000</speed>
</trkpt>
<trkpt lat="55.950062" lon="26.656052">
<ele>117.456116</ele>
<time>2010-06-20T13:31:01Z</time>
<desc>lat.=55.950062, lon.=26.656052, Alt.=117.456116m. Speed=33.299999m/h.</desc>
<speed>9.250000</speed>
</trkpt>
<trkpt lat="55.949986" lon="26.655983">
<ele>117.711975</ele>
<time>2010-06-20T13:31:02Z</time>
<desc>lat.=55.949986, lon.=26.655983, Alt.=117.711975m. Speed=34.236000m/h.</desc>
<speed>9.510000</speed>
</trkpt>
<trkpt lat="55.949909" lon="26.655918">
<ele>118.170959</ele>
<time>2010-06-20T13:31:03Z</time>
<desc>lat.=55.949909, lon.=26.655918, Alt.=118.170959m. Speed=34.452000m/h.</desc>
<speed>9.570000</speed>
</trkpt>
<trkpt lat="55.949833" lon="26.655853">
<ele>118.563538</ele>
<time>2010-06-20T13:31:04Z</time>
<desc>lat.=55.949833, lon.=26.655853, Alt.=118.563538m. Speed=33.515999m/h.</desc>
<speed>9.310000</speed>
</trkpt>
<trkpt lat="55.949757" lon="26.655787">
<ele>118.817444</ele>
<time>2010-06-20T13:31:05Z</time>
<desc>lat.=55.949757, lon.=26.655787, Alt.=118.817444m. Speed=34.919998m/h.</desc>
<speed>9.699999</speed>
</trkpt>
<trkpt lat="55.949673" lon="26.655714">
<ele>117.211975</ele>
<time>2010-06-20T13:31:06Z</time>
<desc>lat.=55.949673, lon.=26.655714, Alt.=117.211975m. Speed=34.127998m/h.</desc>
<speed>9.480000</speed>
</trkpt>
<trkpt lat="55.949604" lon="26.655649">
<ele>118.614319</ele>
<time>2010-06-20T13:31:07Z</time>
<desc>lat.=55.949604, lon.=26.655649, Alt.=118.614319m. Speed=32.292000m/h.</desc>
<speed>8.970000</speed>
</trkpt>
<trkpt lat="55.949528" lon="26.655586">
<ele>118.948303</ele>
<time>2010-06-20T13:31:08Z</time>
<desc>lat.=55.949528, lon.=26.655586, Alt.=118.948303m. Speed=32.436001m/h.</desc>
<speed>9.010000</speed>
</trkpt>
<trkpt lat="55.949455" lon="26.655518">
<ele>118.657288</ele>
<time>2010-06-20T13:31:09Z</time>
<desc>lat.=55.949455, lon.=26.655518, Alt.=118.657288m. Speed=30.600000m/h.</desc>
<speed>8.500000</speed>
</trkpt>
<trkpt lat="55.949387" lon="26.655453">
<ele>119.034241</ele>
<time>2010-06-20T13:31:10Z</time>
<desc>lat.=55.949387, lon.=26.655453, Alt.=119.034241m. Speed=32.004002m/h.</desc>
<speed>8.890000</speed>
</trkpt>
<trkpt lat="55.949318" lon="26.655388">
<ele>119.485413</ele>
<time>2010-06-20T13:31:11Z</time>
<desc>lat.=55.949318, lon.=26.655388, Alt.=119.485413m. Speed=31.320000m/h.</desc>
<speed>8.700000</speed>
</trkpt>
<trkpt lat="55.949249" lon="26.655323">
<ele>119.270569</ele>
<time>2010-06-20T13:31:12Z</time>
<desc>lat.=55.949249, lon.=26.655323, Alt.=119.270569m. Speed=30.888000m/h.</desc>
<speed>8.580000</speed>
</trkpt>
<trkpt lat="55.949181" lon="26.655262">
<ele>118.877991</ele>
<time>2010-06-20T13:31:13Z</time>
<desc>lat.=55.949181, lon.=26.655262, Alt.=118.877991m. Speed=31.176001m/h.</desc>
<speed>8.660000</speed>
</trkpt>
<trkpt lat="55.949108" lon="26.655199">
<ele>118.622131</ele>
<time>2010-06-20T13:31:14Z</time>
<desc>lat.=55.949108, lon.=26.655199, Alt.=118.622131m. Speed=33.012001m/h.</desc>
<speed>9.170000</speed>
</trkpt>
<trkpt lat="55.949032" lon="26.655146">
<ele>118.544006</ele>
<time>2010-06-20T13:31:15Z</time>
<desc>lat.=55.949032, lon.=26.655146, Alt.=118.544006m. Speed=32.796001m/h.</desc>
<speed>9.110000</speed>
</trkpt>
<trkpt lat="55.948956" lon="26.655083">
<ele>118.331116</ele>
<time>2010-06-20T13:31:16Z</time>
<desc>lat.=55.948956, lon.=26.655083, Alt.=118.331116m. Speed=32.256001m/h.</desc>
<speed>8.960000</speed>
</trkpt>
<trkpt lat="55.948879" lon="26.655014">
<ele>117.897522</ele>
<time>2010-06-20T13:31:17Z</time>
<desc>lat.=55.948879, lon.=26.655014, Alt.=117.897522m. Speed=33.408001m/h.</desc>
<speed>9.280000</speed>
</trkpt>
<trkpt lat="55.948807" lon="26.654942">
<ele>117.465881</ele>
<time>2010-06-20T13:31:18Z</time>
<desc>lat.=55.948807, lon.=26.654942, Alt.=117.465881m. Speed=33.155998m/h.</desc>
<speed>9.210000</speed>
</trkpt>
<trkpt lat="55.948738" lon="26.654871">
<ele>118.200256</ele>
<time>2010-06-20T13:31:19Z</time>
<desc>lat.=55.948738, lon.=26.654871, Alt.=118.200256m. Speed=31.464001m/h.</desc>
<speed>8.740000</speed>
</trkpt>
<trkpt lat="55.948666" lon="26.654806">
<ele>118.624084</ele>
<time>2010-06-20T13:31:20Z</time>
<desc>lat.=55.948666, lon.=26.654806, Alt.=118.624084m. Speed=34.056000m/h.</desc>
<speed>9.460000</speed>
</trkpt>
<trkpt lat="55.948593" lon="26.654745">
<ele>117.799866</ele>
<time>2010-06-20T13:31:21Z</time>
<desc>lat.=55.948593, lon.=26.654745, Alt.=117.799866m. Speed=33.155998m/h.</desc>
<speed>9.210000</speed>
</trkpt>
<trkpt lat="55.948517" lon="26.654678">
<ele>117.172913</ele>
<time>2010-06-20T13:31:22Z</time>
<desc>lat.=55.948517, lon.=26.654678, Alt.=117.172913m. Speed=32.723999m/h.</desc>
<speed>9.090000</speed>
</trkpt>
<trkpt lat="55.948448" lon="26.654615">
<ele>117.444397</ele>
<time>2010-06-20T13:31:23Z</time>
<desc>lat.=55.948448, lon.=26.654615, Alt.=117.444397m. Speed=32.147999m/h.</desc>
<speed>8.930000</speed>
</trkpt>
<trkpt lat="55.948380" lon="26.654556">
<ele>117.485413</ele>
<time>2010-06-20T13:31:24Z</time>
<desc>lat.=55.948380, lon.=26.654556, Alt.=117.485413m. Speed=30.672001m/h.</desc>
<speed>8.520000</speed>
</trkpt>
<trkpt lat="55.948315" lon="26.654497">
<ele>117.631897</ele>
<time>2010-06-20T13:31:25Z</time>
<desc>lat.=55.948315, lon.=26.654497, Alt.=117.631897m. Speed=28.872000m/h.</desc>
<speed>8.020000</speed>
</trkpt>
<trkpt lat="55.948257" lon="26.654444">
<ele>117.481506</ele>
<time>2010-06-20T13:31:26Z</time>
<desc>lat.=55.948257, lon.=26.654444, Alt.=117.481506m. Speed=27.540001m/h.</desc>
<speed>7.650000</speed>
</trkpt>
<trkpt lat="55.948200" lon="26.654392">
<ele>117.430725</ele>
<time>2010-06-20T13:31:27Z</time>
<desc>lat.=55.948200, lon.=26.654392, Alt.=117.430725m. Speed=26.604000m/h.</desc>
<speed>7.390000</speed>
</trkpt>
<trkpt lat="55.948143" lon="26.654345">
<ele>117.608459</ele>
<time>2010-06-20T13:31:28Z</time>
<desc>lat.=55.948143, lon.=26.654345, Alt.=117.608459m. Speed=25.920000m/h.</desc>
<speed>7.200000</speed>
</trkpt>
<trkpt lat="55.948090" lon="26.654293">
<ele>117.909241</ele>
<time>2010-06-20T13:31:29Z</time>
<desc>lat.=55.948090, lon.=26.654293, Alt.=117.909241m. Speed=25.056000m/h.</desc>
<speed>6.960000</speed>
</trkpt>
<trkpt lat="55.948036" lon="26.654243">
<ele>117.659241</ele>
<time>2010-06-20T13:31:30Z</time>
<desc>lat.=55.948036, lon.=26.654243, Alt.=117.659241m. Speed=24.732000m/h.</desc>
<speed>6.870000</speed>
</trkpt>
<trkpt lat="55.947983" lon="26.654190">
<ele>117.479553</ele>
<time>2010-06-20T13:31:31Z</time>
<desc>lat.=55.947983, lon.=26.654190, Alt.=117.479553m. Speed=24.264000m/h.</desc>
<speed>6.740000</speed>
</trkpt>
<trkpt lat="55.947933" lon="26.654129">
<ele>117.395569</ele>
<time>2010-06-20T13:31:32Z</time>
<desc>lat.=55.947933, lon.=26.654129, Alt.=117.395569m. Speed=23.760000m/h.</desc>
<speed>6.600000</speed>
</trkpt>
<trkpt lat="55.947887" lon="26.654076">
<ele>117.846741</ele>
<time>2010-06-20T13:31:33Z</time>
<desc>lat.=55.947887, lon.=26.654076, Alt.=117.846741m. Speed=21.528000m/h.</desc>
<speed>5.980000</speed>
</trkpt>
<trkpt lat="55.947838" lon="26.654028">
<ele>117.389709</ele>
<time>2010-06-20T13:31:34Z</time>
<desc>lat.=55.947838, lon.=26.654028, Alt.=117.389709m. Speed=19.368000m/h.</desc>
<speed>5.380000</speed>
</trkpt>
<trkpt lat="55.947800" lon="26.653990">
<ele>117.229553</ele>
<time>2010-06-20T13:31:35Z</time>
<desc>lat.=55.947800, lon.=26.653990, Alt.=117.229553m. Speed=15.948000m/h.</desc>
<speed>4.430000</speed>
</trkpt>
<trkpt lat="55.947777" lon="26.653961">
<ele>117.626038</ele>
<time>2010-06-20T13:31:36Z</time>
<desc>lat.=55.947777, lon.=26.653961, Alt.=117.626038m. Speed=9.828000m/h.</desc>
<speed>2.730000</speed>
</trkpt>
<trkpt lat="55.947765" lon="26.653946">
<ele>117.420959</ele>
<time>2010-06-20T13:31:37Z</time>
<desc>lat.=55.947765, lon.=26.653946, Alt.=117.420959m. Speed=2.412000m/h.</desc>
<speed>0.670000</speed>
</trkpt>
<trkpt lat="55.947765" lon="26.653942">
<ele>117.409241</ele>
<time>2010-06-20T13:31:38Z</time>
<desc>lat.=55.947765, lon.=26.653942, Alt.=117.409241m. Speed=1.008000m/h.</desc>
<speed>0.280000</speed>
</trkpt>
<trkpt lat="55.947762" lon="26.653944">
<ele>117.436584</ele>
<time>2010-06-20T13:31:39Z</time>
<desc>lat.=55.947762, lon.=26.653944, Alt.=117.436584m. Speed=1.908000m/h.</desc>
<speed>0.530000</speed>
</trkpt>
<trkpt lat="55.947758" lon="26.653948">
<ele>117.590881</ele>
<time>2010-06-20T13:31:40Z</time>
<desc>lat.=55.947758, lon.=26.653948, Alt.=117.590881m. Speed=0.576000m/h.</desc>
<speed>0.160000</speed>
</trkpt>
<trkpt lat="55.947754" lon="26.653946">
<ele>117.542053</ele>
<time>2010-06-20T13:31:41Z</time>
<desc>lat.=55.947754, lon.=26.653946, Alt.=117.542053m. Speed=0.216000m/h.</desc>
<speed>0.060000</speed>
</trkpt>
<trkpt lat="55.947754" lon="26.653946">
<ele>117.508850</ele>
<time>2010-06-20T13:31:42Z</time>
<desc>lat.=55.947754, lon.=26.653946, Alt.=117.508850m. Speed=0.036000m/h.</desc>
<speed>0.010000</speed>
</trkpt>
<trkpt lat="55.947754" lon="26.653946">
<ele>117.491272</ele>
<time>2010-06-20T13:31:43Z</time>
<desc>lat.=55.947754, lon.=26.653946, Alt.=117.491272m. Speed=0.036000m/h.</desc>
<speed>0.010000</speed>
</trkpt>
<trkpt lat="55.947754" lon="26.653946">
<ele>117.485413</ele>
<time>2010-06-20T13:31:44Z</time>
<desc>lat.=55.947754, lon.=26.653946, Alt.=117.485413m. Speed=0.000000m/h.</desc>
<speed>0.000000</speed>
</trkpt>
<trkpt lat="55.947754" lon="26.653946">
<ele>117.481506</ele>
<time>2010-06-20T13:31:45Z</time>
<desc>lat.=55.947754, lon.=26.653946, Alt.=117.481506m. Speed=0.000000m/h.</desc>
<speed>0.000000</speed>
</trkpt>
<trkpt lat="55.947754" lon="26.653946">
<ele>117.475647</ele>
<time>2010-06-20T13:31:46Z</time>
<desc>lat.=55.947754, lon.=26.653946, Alt.=117.475647m. Speed=0.036000m/h.</desc>
<speed>0.010000</speed>
</trkpt>
<trkpt lat="55.947754" lon="26.653946">
<ele>117.475647</ele>
<time>2010-06-20T13:31:47Z</time>
<desc>lat.=55.947754, lon.=26.653946, Alt.=117.475647m. Speed=0.216000m/h.</desc>
<speed>0.060000</speed>
</trkpt>
<trkpt lat="55.947754" lon="26.653948">
<ele>117.460022</ele>
<time>2010-06-20T13:31:48Z</time>
<desc>lat.=55.947754, lon.=26.653948, Alt.=117.460022m. Speed=0.396000m/h.</desc>
<speed>0.110000</speed>
</trkpt>
<trkpt lat="55.947754" lon="26.653946">
<ele>117.481506</ele>
<time>2010-06-20T13:31:49Z</time>
<desc>lat.=55.947754, lon.=26.653946, Alt.=117.481506m. Speed=0.072000m/h.</desc>
<speed>0.020000</speed>
</trkpt>
<trkpt lat="55.947754" lon="26.653946">
<ele>117.491272</ele>
<time>2010-06-20T13:31:50Z</time>
<desc>lat.=55.947754, lon.=26.653946, Alt.=117.491272m. Speed=0.000000m/h.</desc>
<speed>0.000000</speed>
</trkpt>
<trkpt lat="55.947754" lon="26.653946">
<ele>117.489319</ele>
<time>2010-06-20T13:31:51Z</time>
<desc>lat.=55.947754, lon.=26.653946, Alt.=117.489319m. Speed=0.072000m/h.</desc>
<speed>0.020000</speed>
</trkpt>
<trkpt lat="55.947754" lon="26.653946">
<ele>117.489319</ele>
<time>2010-06-20T13:31:52Z</time>
<desc>lat.=55.947754, lon.=26.653946, Alt.=117.489319m. Speed=0.000000m/h.</desc>
<speed>0.000000</speed>
</trkpt>
<trkpt lat="55.947754" lon="26.653946">
<ele>117.487366</ele>
<time>2010-06-20T13:31:53Z</time>
<desc>lat.=55.947754, lon.=26.653946, Alt.=117.487366m. Speed=0.036000m/h.</desc>
<speed>0.010000</speed>
</trkpt>
<trkpt lat="55.947754" lon="26.653946">
<ele>117.487366</ele>
<time>2010-06-20T13:31:54Z</time>
<desc>lat.=55.947754, lon.=26.653946, Alt.=117.487366m. Speed=0.036000m/h.</desc>
<speed>0.010000</speed>
</trkpt>
<trkpt lat="55.947754" lon="26.653946">
<ele>117.485413</ele>
<time>2010-06-20T13:31:55Z</time>
<desc>lat.=55.947754, lon.=26.653946, Alt.=117.485413m. Speed=0.036000m/h.</desc>
<speed>0.010000</speed>
</trkpt>
<trkpt lat="55.947754" lon="26.653946">
<ele>117.483459</ele>
<time>2010-06-20T13:31:56Z</time>
<desc>lat.=55.947754, lon.=26.653946, Alt.=117.483459m. Speed=0.000000m/h.</desc>
<speed>0.000000</speed>
</trkpt>
<trkpt lat="55.947754" lon="26.653946">
<ele>117.483459</ele>
<time>2010-06-20T13:31:57Z</time>
<desc>lat.=55.947754, lon.=26.653946, Alt.=117.483459m. Speed=0.000000m/h.</desc>
<speed>0.000000</speed>
</trkpt>
<trkpt lat="55.947754" lon="26.653946">
<ele>117.481506</ele>
<time>2010-06-20T13:31:58Z</time>
<desc>lat.=55.947754, lon.=26.653946, Alt.=117.481506m. Speed=0.036000m/h.</desc>
<speed>0.010000</speed>
</trkpt>
<trkpt lat="55.947754" lon="26.653946">
<ele>117.481506</ele>
<time>2010-06-20T13:31:59Z</time>
<desc>lat.=55.947754, lon.=26.653946, Alt.=117.481506m. Speed=0.000000m/h.</desc>
<speed>0.000000</speed>
</trkpt>
<trkpt lat="55.947754" lon="26.653946">
<ele>117.479553</ele>
<time>2010-06-20T13:32:00Z</time>
<desc>lat.=55.947754, lon.=26.653946, Alt.=117.479553m. Speed=0.072000m/h.</desc>
<speed>0.020000</speed>
</trkpt>
<trkpt lat="55.947754" lon="26.653946">
<ele>117.477600</ele>
<time>2010-06-20T13:32:01Z</time>
<desc>lat.=55.947754, lon.=26.653946, Alt.=117.477600m. Speed=0.072000m/h.</desc>
<speed>0.020000</speed>
</trkpt>
<trkpt lat="55.947754" lon="26.653946">
<ele>117.475647</ele>
<time>2010-06-20T13:32:02Z</time>
<desc>lat.=55.947754, lon.=26.653946, Alt.=117.475647m. Speed=0.036000m/h.</desc>
<speed>0.010000</speed>
</trkpt>
<trkpt lat="55.947754" lon="26.653946">
<ele>117.475647</ele>
<time>2010-06-20T13:32:03Z</time>
<desc>lat.=55.947754, lon.=26.653946, Alt.=117.475647m. Speed=0.000000m/h.</desc>
<speed>0.000000</speed>
</trkpt>
<trkpt lat="55.947754" lon="26.653946">
<ele>117.471741</ele>
<time>2010-06-20T13:32:04Z</time>
<desc>lat.=55.947754, lon.=26.653946, Alt.=117.471741m. Speed=0.036000m/h.</desc>
<speed>0.010000</speed>
</trkpt>
<trkpt lat="55.947754" lon="26.653946">
<ele>117.471741</ele>
<time>2010-06-20T13:32:05Z</time>
<desc>lat.=55.947754, lon.=26.653946, Alt.=117.471741m. Speed=0.036000m/h.</desc>
<speed>0.010000</speed>
</trkpt>
<trkpt lat="55.947754" lon="26.653946">
<ele>117.469788</ele>
<time>2010-06-20T13:32:06Z</time>
<desc>lat.=55.947754, lon.=26.653946, Alt.=117.469788m. Speed=0.036000m/h.</desc>
<speed>0.010000</speed>
</trkpt>
<trkpt lat="55.947754" lon="26.653946">
<ele>117.465881</ele>
<time>2010-06-20T13:32:07Z</time>
<desc>lat.=55.947754, lon.=26.653946, Alt.=117.465881m. Speed=0.072000m/h.</desc>
<speed>0.020000</speed>
</trkpt>
<trkpt lat="55.947754" lon="26.653946">
<ele>117.460022</ele>
<time>2010-06-20T13:32:08Z</time>
<desc>lat.=55.947754, lon.=26.653946, Alt.=117.460022m. Speed=0.360000m/h.</desc>
<speed>0.100000</speed>
</trkpt>
<trkpt lat="55.947754" lon="26.653946">
<ele>117.461975</ele>
<time>2010-06-20T13:32:09Z</time>
<desc>lat.=55.947754, lon.=26.653946, Alt.=117.461975m. Speed=0.396000m/h.</desc>
<speed>0.110000</speed>
</trkpt>
<trkpt lat="55.947754" lon="26.653946">
<ele>117.463928</ele>
<time>2010-06-20T13:32:10Z</time>
<desc>lat.=55.947754, lon.=26.653946, Alt.=117.463928m. Speed=0.288000m/h.</desc>
<speed>0.080000</speed>
</trkpt>
<trkpt lat="55.947754" lon="26.653946">
<ele>117.465881</ele>
<time>2010-06-20T13:32:11Z</time>
<desc>lat.=55.947754, lon.=26.653946, Alt.=117.465881m. Speed=0.072000m/h.</desc>
<speed>0.020000</speed>
</trkpt>
<trkpt lat="55.947754" lon="26.653946">
<ele>117.463928</ele>
<time>2010-06-20T13:32:12Z</time>
<desc>lat.=55.947754, lon.=26.653946, Alt.=117.463928m. Speed=0.036000m/h.</desc>
<speed>0.010000</speed>
</trkpt>
<trkpt lat="55.947754" lon="26.653946">
<ele>117.463928</ele>
<time>2010-06-20T13:32:13Z</time>
<desc>lat.=55.947754, lon.=26.653946, Alt.=117.463928m. Speed=0.108000m/h.</desc>
<speed>0.030000</speed>
</trkpt>
<trkpt lat="55.947754" lon="26.653946">
<ele>117.469788</ele>
<time>2010-06-20T13:32:14Z</time>
<desc>lat.=55.947754, lon.=26.653946, Alt.=117.469788m. Speed=0.036000m/h.</desc>
<speed>0.010000</speed>
</trkpt>
<trkpt lat="55.947754" lon="26.653946">
<ele>117.475647</ele>
<time>2010-06-20T13:32:15Z</time>
<desc>lat.=55.947754, lon.=26.653946, Alt.=117.475647m. Speed=0.144000m/h.</desc>
<speed>0.040000</speed>
</trkpt>
<trkpt lat="55.947754" lon="26.653946">
<ele>117.479553</ele>
<time>2010-06-20T13:32:16Z</time>
<desc>lat.=55.947754, lon.=26.653946, Alt.=117.479553m. Speed=0.036000m/h.</desc>
<speed>0.010000</speed>
</trkpt>
<trkpt lat="55.947754" lon="26.653946">
<ele>117.481506</ele>
<time>2010-06-20T13:32:17Z</time>
<desc>lat.=55.947754, lon.=26.653946, Alt.=117.481506m. Speed=0.000000m/h.</desc>
<speed>0.000000</speed>
</trkpt>
<trkpt lat="55.947754" lon="26.653946">
<ele>117.485413</ele>
<time>2010-06-20T13:32:18Z</time>
<desc>lat.=55.947754, lon.=26.653946, Alt.=117.485413m. Speed=0.000000m/h.</desc>
<speed>0.000000</speed>
</trkpt>
<trkpt lat="55.947754" lon="26.653946">
<ele>117.489319</ele>
<time>2010-06-20T13:32:19Z</time>
<desc>lat.=55.947754, lon.=26.653946, Alt.=117.489319m. Speed=0.072000m/h.</desc>
<speed>0.020000</speed>
</trkpt>
<trkpt lat="55.947754" lon="26.653946">
<ele>117.491272</ele>
<time>2010-06-20T13:32:20Z</time>
<desc>lat.=55.947754, lon.=26.653946, Alt.=117.491272m. Speed=0.000000m/h.</desc>
<speed>0.000000</speed>
</trkpt>
<trkpt lat="55.947754" lon="26.653946">
<ele>117.493225</ele>
<time>2010-06-20T13:32:21Z</time>
<desc>lat.=55.947754, lon.=26.653946, Alt.=117.493225m. Speed=0.000000m/h.</desc>
<speed>0.000000</speed>
</trkpt>
<trkpt lat="55.947754" lon="26.653946">
<ele>117.495178</ele>
<time>2010-06-20T13:32:22Z</time>
<desc>lat.=55.947754, lon.=26.653946, Alt.=117.495178m. Speed=0.000000m/h.</desc>
<speed>0.000000</speed>
</trkpt>
<trkpt lat="55.947754" lon="26.653946">
<ele>117.497131</ele>
<time>2010-06-20T13:32:23Z</time>
<desc>lat.=55.947754, lon.=26.653946, Alt.=117.497131m. Speed=0.036000m/h.</desc>
<speed>0.010000</speed>
</trkpt>
<trkpt lat="55.947754" lon="26.653946">
<ele>117.499084</ele>
<time>2010-06-20T13:32:24Z</time>
<desc>lat.=55.947754, lon.=26.653946, Alt.=117.499084m. Speed=0.036000m/h.</desc>
<speed>0.010000</speed>
</trkpt>
<trkpt lat="55.947754" lon="26.653946">
<ele>117.499084</ele>
<time>2010-06-20T13:32:25Z</time>
<desc>lat.=55.947754, lon.=26.653946, Alt.=117.499084m. Speed=0.036000m/h.</desc>
<speed>0.010000</speed>
</trkpt>
<trkpt lat="55.947754" lon="26.653946">
<ele>117.499084</ele>
<time>2010-06-20T13:32:26Z</time>
<desc>lat.=55.947754, lon.=26.653946, Alt.=117.499084m. Speed=0.000000m/h.</desc>
<speed>0.000000</speed>
</trkpt>
<trkpt lat="55.947754" lon="26.653944">
<ele>117.499084</ele>
<time>2010-06-20T13:32:27Z</time>
<desc>lat.=55.947754, lon.=26.653944, Alt.=117.499084m. Speed=0.036000m/h.</desc>
<speed>0.010000</speed>
</trkpt>
<trkpt lat="55.947754" lon="26.653944">
<ele>117.497131</ele>
<time>2010-06-20T13:32:28Z</time>
<desc>lat.=55.947754, lon.=26.653944, Alt.=117.497131m. Speed=0.000000m/h.</desc>
<speed>0.000000</speed>
</trkpt>
<trkpt lat="55.947754" lon="26.653944">
<ele>117.497131</ele>
<time>2010-06-20T13:32:29Z</time>
<desc>lat.=55.947754, lon.=26.653944, Alt.=117.497131m. Speed=0.036000m/h.</desc>
<speed>0.010000</speed>
</trkpt>
<trkpt lat="55.947754" lon="26.653944">
<ele>117.495178</ele>
<time>2010-06-20T13:32:30Z</time>
<desc>lat.=55.947754, lon.=26.653944, Alt.=117.495178m. Speed=0.000000m/h.</desc>
<speed>0.000000</speed>
</trkpt>
<trkpt lat="55.947754" lon="26.653944">
<ele>117.491272</ele>
<time>2010-06-20T13:32:31Z</time>
<desc>lat.=55.947754, lon.=26.653944, Alt.=117.491272m. Speed=0.036000m/h.</desc>
<speed>0.010000</speed>
</trkpt>
<trkpt lat="55.947754" lon="26.653944">
<ele>117.491272</ele>
<time>2010-06-20T13:32:32Z</time>
<desc>lat.=55.947754, lon.=26.653944, Alt.=117.491272m. Speed=0.072000m/h.</desc>
<speed>0.020000</speed>
</trkpt>
<trkpt lat="55.947754" lon="26.653944">
<ele>117.491272</ele>
<time>2010-06-20T13:32:33Z</time>
<desc>lat.=55.947754, lon.=26.653944, Alt.=117.491272m. Speed=0.036000m/h.</desc>
<speed>0.010000</speed>
</trkpt>
<trkpt lat="55.947754" lon="26.653944">
<ele>117.491272</ele>
<time>2010-06-20T13:32:34Z</time>
<desc>lat.=55.947754, lon.=26.653944, Alt.=117.491272m. Speed=0.036000m/h.</desc>
<speed>0.010000</speed>
</trkpt>
<trkpt lat="55.947754" lon="26.653944">
<ele>117.493225</ele>
<time>2010-06-20T13:32:35Z</time>
<desc>lat.=55.947754, lon.=26.653944, Alt.=117.493225m. Speed=0.036000m/h.</desc>
<speed>0.010000</speed>
</trkpt>
<trkpt lat="55.947754" lon="26.653944">
<ele>117.493225</ele>
<time>2010-06-20T13:32:36Z</time>
<desc>lat.=55.947754, lon.=26.653944, Alt.=117.493225m. Speed=0.072000m/h.</desc>
<speed>0.020000</speed>
</trkpt>
<trkpt lat="55.947754" lon="26.653944">
<ele>117.493225</ele>
<time>2010-06-20T13:32:37Z</time>
<desc>lat.=55.947754, lon.=26.653944, Alt.=117.493225m. Speed=0.036000m/h.</desc>
<speed>0.010000</speed>
</trkpt>
<trkpt lat="55.947754" lon="26.653944">
<ele>117.489319</ele>
<time>2010-06-20T13:32:38Z</time>
<desc>lat.=55.947754, lon.=26.653944, Alt.=117.489319m. Speed=0.000000m/h.</desc>
<speed>0.000000</speed>
</trkpt>
<trkpt lat="55.947754" lon="26.653944">
<ele>117.485413</ele>
<time>2010-06-20T13:32:39Z</time>
<desc>lat.=55.947754, lon.=26.653944, Alt.=117.485413m. Speed=0.000000m/h.</desc>
<speed>0.000000</speed>
</trkpt>
<trkpt lat="55.947754" lon="26.653944">
<ele>117.481506</ele>
<time>2010-06-20T13:32:40Z</time>
<desc>lat.=55.947754, lon.=26.653944, Alt.=117.481506m. Speed=0.072000m/h.</desc>
<speed>0.020000</speed>
</trkpt>
<trkpt lat="55.947754" lon="26.653944">
<ele>117.481506</ele>
<time>2010-06-20T13:32:41Z</time>
<desc>lat.=55.947754, lon.=26.653944, Alt.=117.481506m. Speed=0.108000m/h.</desc>
<speed>0.030000</speed>
</trkpt>
<trkpt lat="55.947754" lon="26.653944">
<ele>117.481506</ele>
<time>2010-06-20T13:32:42Z</time>
<desc>lat.=55.947754, lon.=26.653944, Alt.=117.481506m. Speed=0.000000m/h.</desc>
<speed>0.000000</speed>
</trkpt>
<trkpt lat="55.947754" lon="26.653944">
<ele>117.479553</ele>
<time>2010-06-20T13:32:43Z</time>
<desc>lat.=55.947754, lon.=26.653944, Alt.=117.479553m. Speed=0.000000m/h.</desc>
<speed>0.000000</speed>
</trkpt>
<trkpt lat="55.947754" lon="26.653944">
<ele>117.479553</ele>
<time>2010-06-20T13:32:44Z</time>
<desc>lat.=55.947754, lon.=26.653944, Alt.=117.479553m. Speed=0.072000m/h.</desc>
<speed>0.020000</speed>
</trkpt>
<trkpt lat="55.947754" lon="26.653944">
<ele>117.479553</ele>
<time>2010-06-20T13:32:45Z</time>
<desc>lat.=55.947754, lon.=26.653944, Alt.=117.479553m. Speed=0.036000m/h.</desc>
<speed>0.010000</speed>
</trkpt>
<trkpt lat="55.947754" lon="26.653944">
<ele>117.479553</ele>
<time>2010-06-20T13:32:46Z</time>
<desc>lat.=55.947754, lon.=26.653944, Alt.=117.479553m. Speed=0.036000m/h.</desc>
<speed>0.010000</speed>
</trkpt>
<trkpt lat="55.947754" lon="26.653944">
<ele>117.473694</ele>
<time>2010-06-20T13:32:47Z</time>
<desc>lat.=55.947754, lon.=26.653944, Alt.=117.473694m. Speed=0.000000m/h.</desc>
<speed>0.000000</speed>
</trkpt>
<trkpt lat="55.947754" lon="26.653944">
<ele>117.471741</ele>
<time>2010-06-20T13:32:48Z</time>
<desc>lat.=55.947754, lon.=26.653944, Alt.=117.471741m. Speed=0.072000m/h.</desc>
<speed>0.020000</speed>
</trkpt>
<trkpt lat="55.947754" lon="26.653944">
<ele>117.471741</ele>
<time>2010-06-20T13:32:49Z</time>
<desc>lat.=55.947754, lon.=26.653944, Alt.=117.471741m. Speed=0.072000m/h.</desc>
<speed>0.020000</speed>
</trkpt>
<trkpt lat="55.947754" lon="26.653944">
<ele>117.469788</ele>
<time>2010-06-20T13:32:50Z</time>
<desc>lat.=55.947754, lon.=26.653944, Alt.=117.469788m. Speed=0.000000m/h.</desc>
<speed>0.000000</speed>
</trkpt>
<trkpt lat="55.947754" lon="26.653944">
<ele>117.467834</ele>
<time>2010-06-20T13:32:51Z</time>
<desc>lat.=55.947754, lon.=26.653944, Alt.=117.467834m. Speed=0.036000m/h.</desc>
<speed>0.010000</speed>
</trkpt>
<trkpt lat="55.947754" lon="26.653944">
<ele>117.467834</ele>
<time>2010-06-20T13:32:52Z</time>
<desc>lat.=55.947754, lon.=26.653944, Alt.=117.467834m. Speed=0.000000m/h.</desc>
<speed>0.000000</speed>
</trkpt>
<trkpt lat="55.947754" lon="26.653944">
<ele>117.467834</ele>
<time>2010-06-20T13:32:53Z</time>
<desc>lat.=55.947754, lon.=26.653944, Alt.=117.467834m. Speed=0.036000m/h.</desc>
<speed>0.010000</speed>
</trkpt>
<trkpt lat="55.947754" lon="26.653944">
<ele>117.465881</ele>
<time>2010-06-20T13:32:54Z</time>
<desc>lat.=55.947754, lon.=26.653944, Alt.=117.465881m. Speed=0.324000m/h.</desc>
<speed>0.090000</speed>
</trkpt>
<trkpt lat="55.947754" lon="26.653944">
<ele>117.458069</ele>
<time>2010-06-20T13:32:55Z</time>
<desc>lat.=55.947754, lon.=26.653944, Alt.=117.458069m. Speed=0.036000m/h.</desc>
<speed>0.010000</speed>
</trkpt>
<trkpt lat="55.947754" lon="26.653944">
<ele>117.438538</ele>
<time>2010-06-20T13:32:56Z</time>
<desc>lat.=55.947754, lon.=26.653944, Alt.=117.438538m. Speed=0.468000m/h.</desc>
<speed>0.130000</speed>
</trkpt>
<trkpt lat="55.947754" lon="26.653946">
<ele>117.422913</ele>
<time>2010-06-20T13:32:57Z</time>
<desc>lat.=55.947754, lon.=26.653946, Alt.=117.422913m. Speed=1.980000m/h.</desc>
<speed>0.550000</speed>
</trkpt>
<trkpt lat="55.947750" lon="26.653948">
<ele>117.405334</ele>
<time>2010-06-20T13:32:58Z</time>
<desc>lat.=55.947750, lon.=26.653948, Alt.=117.405334m. Speed=2.916000m/h.</desc>
<speed>0.810000</speed>
</trkpt>
<trkpt lat="55.947742" lon="26.653946">
<ele>117.372131</ele>
<time>2010-06-20T13:32:59Z</time>
<desc>lat.=55.947742, lon.=26.653946, Alt.=117.372131m. Speed=4.068000m/h.</desc>
<speed>1.130000</speed>
</trkpt>
<trkpt lat="55.947735" lon="26.653940">
<ele>117.157288</ele>
<time>2010-06-20T13:33:00Z</time>
<desc>lat.=55.947735, lon.=26.653940, Alt.=117.157288m. Speed=5.580000m/h.</desc>
<speed>1.550000</speed>
</trkpt>
<trkpt lat="55.947720" lon="26.653929">
<ele>116.981506</ele>
<time>2010-06-20T13:33:01Z</time>
<desc>lat.=55.947720, lon.=26.653929, Alt.=116.981506m. Speed=7.776000m/h.</desc>
<speed>2.160000</speed>
</trkpt>
<trkpt lat="55.947701" lon="26.653915">
<ele>117.100647</ele>
<time>2010-06-20T13:33:02Z</time>
<desc>lat.=55.947701, lon.=26.653915, Alt.=117.100647m. Speed=8.136000m/h.</desc>
<speed>2.260000</speed>
</trkpt>
<trkpt lat="55.947681" lon="26.653898">
<ele>117.053772</ele>
<time>2010-06-20T13:33:03Z</time>
<desc>lat.=55.947681, lon.=26.653898, Alt.=117.053772m. Speed=8.280000m/h.</desc>
<speed>2.300000</speed>
</trkpt>
<trkpt lat="55.947659" lon="26.653885">
<ele>117.518616</ele>
<time>2010-06-20T13:33:04Z</time>
<desc>lat.=55.947659, lon.=26.653885, Alt.=117.518616m. Speed=10.944000m/h.</desc>
<speed>3.040000</speed>
</trkpt>
<trkpt lat="55.947632" lon="26.653862">
<ele>117.268616</ele>
<time>2010-06-20T13:33:05Z</time>
<desc>lat.=55.947632, lon.=26.653862, Alt.=117.268616m. Speed=10.908000m/h.</desc>
<speed>3.030000</speed>
</trkpt>
<trkpt lat="55.947605" lon="26.653845">
<ele>117.538147</ele>
<time>2010-06-20T13:33:06Z</time>
<desc>lat.=55.947605, lon.=26.653845, Alt.=117.538147m. Speed=11.268000m/h.</desc>
<speed>3.130000</speed>
</trkpt>
<trkpt lat="55.947582" lon="26.653818">
<ele>118.034241</ele>
<time>2010-06-20T13:33:07Z</time>
<desc>lat.=55.947582, lon.=26.653818, Alt.=118.034241m. Speed=11.520000m/h.</desc>
<speed>3.200000</speed>
</trkpt>
<trkpt lat="55.947556" lon="26.653793">
<ele>118.544006</ele>
<time>2010-06-20T13:33:08Z</time>
<desc>lat.=55.947556, lon.=26.653793, Alt.=118.544006m. Speed=13.032000m/h.</desc>
<speed>3.620000</speed>
</trkpt>
<trkpt lat="55.947521" lon="26.653770">
<ele>118.823303</ele>
<time>2010-06-20T13:33:09Z</time>
<desc>lat.=55.947521, lon.=26.653770, Alt.=118.823303m. Speed=14.976000m/h.</desc>
<speed>4.160000</speed>
</trkpt>
<trkpt lat="55.947487" lon="26.653736">
<ele>119.133850</ele>
<time>2010-06-20T13:33:10Z</time>
<desc>lat.=55.947487, lon.=26.653736, Alt.=119.133850m. Speed=16.884001m/h.</desc>
<speed>4.690000</speed>
</trkpt>
<trkpt lat="55.947449" lon="26.653702">
<ele>119.454163</ele>
<time>2010-06-20T13:33:11Z</time>
<desc>lat.=55.947449, lon.=26.653702, Alt.=119.454163m. Speed=18.540001m/h.</desc>
<speed>5.150000</speed>
</trkpt>
<trkpt lat="55.947407" lon="26.653667">
<ele>119.411194</ele>
<time>2010-06-20T13:33:12Z</time>
<desc>lat.=55.947407, lon.=26.653667, Alt.=119.411194m. Speed=17.747999m/h.</desc>
<speed>4.930000</speed>
</trkpt>
<trkpt lat="55.947365" lon="26.653635">
<ele>119.211975</ele>
<time>2010-06-20T13:33:13Z</time>
<desc>lat.=55.947365, lon.=26.653635, Alt.=119.211975m. Speed=18.864000m/h.</desc>
<speed>5.240000</speed>
</trkpt>
<trkpt lat="55.947327" lon="26.653599">
<ele>119.295959</ele>
<time>2010-06-20T13:33:14Z</time>
<desc>lat.=55.947327, lon.=26.653599, Alt.=119.295959m. Speed=16.200001m/h.</desc>
<speed>4.500000</speed>
</trkpt>
<trkpt lat="55.947292" lon="26.653564">
<ele>119.545959</ele>
<time>2010-06-20T13:33:15Z</time>
<desc>lat.=55.947292, lon.=26.653564, Alt.=119.545959m. Speed=15.840000m/h.</desc>
<speed>4.400000</speed>
</trkpt>
<trkpt lat="55.947254" lon="26.653534">
<ele>119.801819</ele>
<time>2010-06-20T13:33:16Z</time>
<desc>lat.=55.947254, lon.=26.653534, Alt.=119.801819m. Speed=15.588000m/h.</desc>
<speed>4.330000</speed>
</trkpt>
<trkpt lat="55.947212" lon="26.653496">
<ele>120.360413</ele>
<time>2010-06-20T13:33:17Z</time>
<desc>lat.=55.947212, lon.=26.653496, Alt.=120.360413m. Speed=19.691999m/h.</desc>
<speed>5.470000</speed>
</trkpt>
<trkpt lat="55.947166" lon="26.653458">
<ele>120.881897</ele>
<time>2010-06-20T13:33:18Z</time>
<desc>lat.=55.947166, lon.=26.653458, Alt.=120.881897m. Speed=21.708000m/h.</desc>
<speed>6.030000</speed>
</trkpt>
<trkpt lat="55.947124" lon="26.653418">
<ele>121.260803</ele>
<time>2010-06-20T13:33:19Z</time>
<desc>lat.=55.947124, lon.=26.653418, Alt.=121.260803m. Speed=19.332001m/h.</desc>
<speed>5.370000</speed>
</trkpt>
<trkpt lat="55.947083" lon="26.653381">
<ele>121.659241</ele>
<time>2010-06-20T13:33:20Z</time>
<desc>lat.=55.947083, lon.=26.653381, Alt.=121.659241m. Speed=19.080000m/h.</desc>
<speed>5.300000</speed>
</trkpt>
<trkpt lat="55.947041" lon="26.653343">
<ele>122.950256</ele>
<time>2010-06-20T13:33:21Z</time>
<desc>lat.=55.947041, lon.=26.653343, Alt.=122.950256m. Speed=19.188000m/h.</desc>
<speed>5.330000</speed>
</trkpt>
<trkpt lat="55.946995" lon="26.653299">
<ele>123.251038</ele>
<time>2010-06-20T13:33:22Z</time>
<desc>lat.=55.946995, lon.=26.653299, Alt.=123.251038m. Speed=18.323999m/h.</desc>
<speed>5.090000</speed>
</trkpt>
<trkpt lat="55.946953" lon="26.653259">
<ele>123.680725</ele>
<time>2010-06-20T13:33:23Z</time>
<desc>lat.=55.946953, lon.=26.653259, Alt.=123.680725m. Speed=18.323999m/h.</desc>
<speed>5.090000</speed>
</trkpt>
<trkpt lat="55.946907" lon="26.653217">
<ele>122.413147</ele>
<time>2010-06-20T13:33:24Z</time>
<desc>lat.=55.946907, lon.=26.653217, Alt.=122.413147m. Speed=18.035999m/h.</desc>
<speed>5.010000</speed>
</trkpt>
<trkpt lat="55.946865" lon="26.653177">
<ele>122.376038</ele>
<time>2010-06-20T13:33:25Z</time>
<desc>lat.=55.946865, lon.=26.653177, Alt.=122.376038m. Speed=18.180000m/h.</desc>
<speed>5.050000</speed>
</trkpt>
<trkpt lat="55.946819" lon="26.653141">
<ele>122.305725</ele>
<time>2010-06-20T13:33:26Z</time>
<desc>lat.=55.946819, lon.=26.653141, Alt.=122.305725m. Speed=17.856001m/h.</desc>
<speed>4.960000</speed>
</trkpt>
<trkpt lat="55.946777" lon="26.653107">
<ele>122.131897</ele>
<time>2010-06-20T13:33:27Z</time>
<desc>lat.=55.946777, lon.=26.653107, Alt.=122.131897m. Speed=18.000000m/h.</desc>
<speed>5.000000</speed>
</trkpt>
<trkpt lat="55.946732" lon="26.653076">
<ele>121.737366</ele>
<time>2010-06-20T13:33:28Z</time>
<desc>lat.=55.946732, lon.=26.653076, Alt.=121.737366m. Speed=18.540001m/h.</desc>
<speed>5.150000</speed>
</trkpt>
<trkpt lat="55.946686" lon="26.653036">
<ele>121.573303</ele>
<time>2010-06-20T13:33:29Z</time>
<desc>lat.=55.946686, lon.=26.653036, Alt.=121.573303m. Speed=18.719999m/h.</desc>
<speed>5.200000</speed>
</trkpt>
<trkpt lat="55.946644" lon="26.653000">
<ele>121.633850</ele>
<time>2010-06-20T13:33:30Z</time>
<desc>lat.=55.946644, lon.=26.653000, Alt.=121.633850m. Speed=18.972000m/h.</desc>
<speed>5.270000</speed>
</trkpt>
<trkpt lat="55.946602" lon="26.652962">
<ele>121.784241</ele>
<time>2010-06-20T13:33:31Z</time>
<desc>lat.=55.946602, lon.=26.652962, Alt.=121.784241m. Speed=19.260000m/h.</desc>
<speed>5.350000</speed>
</trkpt>
<trkpt lat="55.946556" lon="26.652922">
<ele>121.967834</ele>
<time>2010-06-20T13:33:32Z</time>
<desc>lat.=55.946556, lon.=26.652922, Alt.=121.967834m. Speed=19.511999m/h.</desc>
<speed>5.420000</speed>
</trkpt>
<trkpt lat="55.946507" lon="26.652884">
<ele>121.799866</ele>
<time>2010-06-20T13:33:33Z</time>
<desc>lat.=55.946507, lon.=26.652884, Alt.=121.799866m. Speed=19.728001m/h.</desc>
<speed>5.480000</speed>
</trkpt>
<trkpt lat="55.946461" lon="26.652843">
<ele>121.608459</ele>
<time>2010-06-20T13:33:34Z</time>
<desc>lat.=55.946461, lon.=26.652843, Alt.=121.608459m. Speed=19.980000m/h.</desc>
<speed>5.550000</speed>
</trkpt>
<trkpt lat="55.946415" lon="26.652803">
<ele>121.504944</ele>
<time>2010-06-20T13:33:35Z</time>
<desc>lat.=55.946415, lon.=26.652803, Alt.=121.504944m. Speed=20.195999m/h.</desc>
<speed>5.610000</speed>
</trkpt>
<trkpt lat="55.946369" lon="26.652765">
<ele>121.528381</ele>
<time>2010-06-20T13:33:36Z</time>
<desc>lat.=55.946369, lon.=26.652765, Alt.=121.528381m. Speed=19.728001m/h.</desc>
<speed>5.480000</speed>
</trkpt>
<trkpt lat="55.946323" lon="26.652729">
<ele>121.465881</ele>
<time>2010-06-20T13:33:37Z</time>
<desc>lat.=55.946323, lon.=26.652729, Alt.=121.465881m. Speed=18.827999m/h.</desc>
<speed>5.230000</speed>
</trkpt>
<trkpt lat="55.946281" lon="26.652693">
<ele>121.436584</ele>
<time>2010-06-20T13:33:38Z</time>
<desc>lat.=55.946281, lon.=26.652693, Alt.=121.436584m. Speed=18.612000m/h.</desc>
<speed>5.170000</speed>
</trkpt>
<trkpt lat="55.946239" lon="26.652658">
<ele>121.573303</ele>
<time>2010-06-20T13:33:39Z</time>
<desc>lat.=55.946239, lon.=26.652658, Alt.=121.573303m. Speed=18.216000m/h.</desc>
<speed>5.060000</speed>
</trkpt>
<trkpt lat="55.946198" lon="26.652624">
<ele>121.458069</ele>
<time>2010-06-20T13:33:40Z</time>
<desc>lat.=55.946198, lon.=26.652624, Alt.=121.458069m. Speed=17.892000m/h.</desc>
<speed>4.970000</speed>
</trkpt>
<trkpt lat="55.946159" lon="26.652590">
<ele>121.473694</ele>
<time>2010-06-20T13:33:41Z</time>
<desc>lat.=55.946159, lon.=26.652590, Alt.=121.473694m. Speed=17.532000m/h.</desc>
<speed>4.870000</speed>
</trkpt>
<trkpt lat="55.946121" lon="26.652555">
<ele>121.764709</ele>
<time>2010-06-20T13:33:42Z</time>
<desc>lat.=55.946121, lon.=26.652555, Alt.=121.764709m. Speed=17.496000m/h.</desc>
<speed>4.860000</speed>
</trkpt>
<trkpt lat="55.946087" lon="26.652519">
<ele>122.016663</ele>
<time>2010-06-20T13:33:43Z</time>
<desc>lat.=55.946087, lon.=26.652519, Alt.=122.016663m. Speed=16.920000m/h.</desc>
<speed>4.700000</speed>
</trkpt>
<trkpt lat="55.946045" lon="26.652485">
<ele>121.920959</ele>
<time>2010-06-20T13:33:44Z</time>
<desc>lat.=55.946045, lon.=26.652485, Alt.=121.920959m. Speed=16.416000m/h.</desc>
<speed>4.560000</speed>
</trkpt>
<trkpt lat="55.946011" lon="26.652454">
<ele>122.141663</ele>
<time>2010-06-20T13:33:45Z</time>
<desc>lat.=55.946011, lon.=26.652454, Alt.=122.141663m. Speed=15.876000m/h.</desc>
<speed>4.410000</speed>
</trkpt>
<trkpt lat="55.945976" lon="26.652420">
<ele>121.501038</ele>
<time>2010-06-20T13:33:46Z</time>
<desc>lat.=55.945976, lon.=26.652420, Alt.=121.501038m. Speed=15.660000m/h.</desc>
<speed>4.350000</speed>
</trkpt>
<trkpt lat="55.945942" lon="26.652390">
<ele>121.577209</ele>
<time>2010-06-20T13:33:47Z</time>
<desc>lat.=55.945942, lon.=26.652390, Alt.=121.577209m. Speed=15.588000m/h.</desc>
<speed>4.330000</speed>
</trkpt>
<trkpt lat="55.945911" lon="26.652355">
<ele>121.190491</ele>
<time>2010-06-20T13:33:48Z</time>
<desc>lat.=55.945911, lon.=26.652355, Alt.=121.190491m. Speed=15.768000m/h.</desc>
<speed>4.380000</speed>
</trkpt>
<trkpt lat="55.945881" lon="26.652323">
<ele>120.850647</ele>
<time>2010-06-20T13:33:49Z</time>
<desc>lat.=55.945881, lon.=26.652323, Alt.=120.850647m. Speed=15.552000m/h.</desc>
<speed>4.320000</speed>
</trkpt>
<trkpt lat="55.945847" lon="26.652292">
<ele>120.891663</ele>
<time>2010-06-20T13:33:50Z</time>
<desc>lat.=55.945847, lon.=26.652292, Alt.=120.891663m. Speed=15.804000m/h.</desc>
<speed>4.390000</speed>
</trkpt>
<trkpt lat="55.945812" lon="26.652258">
<ele>120.661194</ele>
<time>2010-06-20T13:33:51Z</time>
<desc>lat.=55.945812, lon.=26.652258, Alt.=120.661194m. Speed=16.164000m/h.</desc>
<speed>4.490000</speed>
</trkpt>
<trkpt lat="55.945774" lon="26.652225">
<ele>120.692444</ele>
<time>2010-06-20T13:33:52Z</time>
<desc>lat.=55.945774, lon.=26.652225, Alt.=120.692444m. Speed=17.063999m/h.</desc>
<speed>4.740000</speed>
</trkpt>
<trkpt lat="55.945736" lon="26.652191">
<ele>120.467834</ele>
<time>2010-06-20T13:33:53Z</time>
<desc>lat.=55.945736, lon.=26.652191, Alt.=120.467834m. Speed=17.927999m/h.</desc>
<speed>4.980000</speed>
</trkpt>
<trkpt lat="55.945694" lon="26.652153">
<ele>120.044006</ele>
<time>2010-06-20T13:33:54Z</time>
<desc>lat.=55.945694, lon.=26.652153, Alt.=120.044006m. Speed=18.431999m/h.</desc>
<speed>5.120000</speed>
</trkpt>
<trkpt lat="55.945656" lon="26.652117">
<ele>119.876038</ele>
<time>2010-06-20T13:33:55Z</time>
<desc>lat.=55.945656, lon.=26.652117, Alt.=119.876038m. Speed=18.143999m/h.</desc>
<speed>5.040000</speed>
</trkpt>
<trkpt lat="55.945618" lon="26.652081">
<ele>119.618225</ele>
<time>2010-06-20T13:33:56Z</time>
<desc>lat.=55.945618, lon.=26.652081, Alt.=119.618225m. Speed=17.712000m/h.</desc>
<speed>4.920000</speed>
</trkpt>
<trkpt lat="55.945580" lon="26.652044">
<ele>119.772522</ele>
<time>2010-06-20T13:33:57Z</time>
<desc>lat.=55.945580, lon.=26.652044, Alt.=119.772522m. Speed=18.323999m/h.</desc>
<speed>5.090000</speed>
</trkpt>
<trkpt lat="55.945538" lon="26.652004">
<ele>119.657288</ele>
<time>2010-06-20T13:33:58Z</time>
<desc>lat.=55.945538, lon.=26.652004, Alt.=119.657288m. Speed=19.511999m/h.</desc>
<speed>5.420000</speed>
</trkpt>
<trkpt lat="55.945496" lon="26.651968">
<ele>119.329163</ele>
<time>2010-06-20T13:33:59Z</time>
<desc>lat.=55.945496, lon.=26.651968, Alt.=119.329163m. Speed=20.412001m/h.</desc>
<speed>5.670000</speed>
</trkpt>
<trkpt lat="55.945446" lon="26.651930">
<ele>119.086975</ele>
<time>2010-06-20T13:34:00Z</time>
<desc>lat.=55.945446, lon.=26.651930, Alt.=119.086975m. Speed=20.916000m/h.</desc>
<speed>5.810000</speed>
</trkpt>
<trkpt lat="55.945396" lon="26.651888">
<ele>118.973694</ele>
<time>2010-06-20T13:34:01Z</time>
<desc>lat.=55.945396, lon.=26.651888, Alt.=118.973694m. Speed=21.636000m/h.</desc>
<speed>6.010000</speed>
</trkpt>
<trkpt lat="55.945347" lon="26.651844">
<ele>118.956116</ele>
<time>2010-06-20T13:34:02Z</time>
<desc>lat.=55.945347, lon.=26.651844, Alt.=118.956116m. Speed=22.068001m/h.</desc>
<speed>6.130000</speed>
</trkpt>
<trkpt lat="55.945297" lon="26.651802">
<ele>118.977600</ele>
<time>2010-06-20T13:34:03Z</time>
<desc>lat.=55.945297, lon.=26.651802, Alt.=118.977600m. Speed=21.708000m/h.</desc>
<speed>6.030000</speed>
</trkpt>
<trkpt lat="55.945251" lon="26.651758">
<ele>118.946350</ele>
<time>2010-06-20T13:34:04Z</time>
<desc>lat.=55.945251, lon.=26.651758, Alt.=118.946350m. Speed=21.240000m/h.</desc>
<speed>5.900000</speed>
</trkpt>
<trkpt lat="55.945202" lon="26.651711">
<ele>118.698303</ele>
<time>2010-06-20T13:34:05Z</time>
<desc>lat.=55.945202, lon.=26.651711, Alt.=118.698303m. Speed=20.916000m/h.</desc>
<speed>5.810000</speed>
</trkpt>
<trkpt lat="55.945152" lon="26.651665">
<ele>118.627991</ele>
<time>2010-06-20T13:34:06Z</time>
<desc>lat.=55.945152, lon.=26.651665, Alt.=118.627991m. Speed=21.492001m/h.</desc>
<speed>5.970000</speed>
</trkpt>
<trkpt lat="55.945103" lon="26.651617">
<ele>118.674866</ele>
<time>2010-06-20T13:34:07Z</time>
<desc>lat.=55.945103, lon.=26.651617, Alt.=118.674866m. Speed=22.356001m/h.</desc>
<speed>6.210000</speed>
</trkpt>
<trkpt lat="55.945053" lon="26.651575">
<ele>118.766663</ele>
<time>2010-06-20T13:34:08Z</time>
<desc>lat.=55.945053, lon.=26.651575, Alt.=118.766663m. Speed=22.284000m/h.</desc>
<speed>6.190000</speed>
</trkpt>
<trkpt lat="55.945004" lon="26.651533">
<ele>118.893616</ele>
<time>2010-06-20T13:34:09Z</time>
<desc>lat.=55.945004, lon.=26.651533, Alt.=118.893616m. Speed=21.816000m/h.</desc>
<speed>6.060000</speed>
</trkpt>
<trkpt lat="55.944954" lon="26.651491">
<ele>118.889709</ele>
<time>2010-06-20T13:34:10Z</time>
<desc>lat.=55.944954, lon.=26.651491, Alt.=118.889709m. Speed=21.348000m/h.</desc>
<speed>5.930000</speed>
</trkpt>
<trkpt lat="55.944908" lon="26.651447">
<ele>118.647522</ele>
<time>2010-06-20T13:34:11Z</time>
<desc>lat.=55.944908, lon.=26.651447, Alt.=118.647522m. Speed=21.132000m/h.</desc>
<speed>5.870000</speed>
</trkpt>
<trkpt lat="55.944862" lon="26.651403">
<ele>118.684631</ele>
<time>2010-06-20T13:34:12Z</time>
<desc>lat.=55.944862, lon.=26.651403, Alt.=118.684631m. Speed=21.708000m/h.</desc>
<speed>6.030000</speed>
</trkpt>
<trkpt lat="55.944813" lon="26.651360">
<ele>118.874084</ele>
<time>2010-06-20T13:34:13Z</time>
<desc>lat.=55.944813, lon.=26.651360, Alt.=118.874084m. Speed=22.643999m/h.</desc>
<speed>6.290000</speed>
</trkpt>
<trkpt lat="55.944759" lon="26.651312">
<ele>118.745178</ele>
<time>2010-06-20T13:34:14Z</time>
<desc>lat.=55.944759, lon.=26.651312, Alt.=118.745178m. Speed=23.148001m/h.</desc>
<speed>6.430000</speed>
</trkpt>
<trkpt lat="55.944702" lon="26.651266">
<ele>118.338928</ele>
<time>2010-06-20T13:34:15Z</time>
<desc>lat.=55.944702, lon.=26.651266, Alt.=118.338928m. Speed=23.615999m/h.</desc>
<speed>6.560000</speed>
</trkpt>
<trkpt lat="55.944649" lon="26.651218">
<ele>118.475647</ele>
<time>2010-06-20T13:34:16Z</time>
<desc>lat.=55.944649, lon.=26.651218, Alt.=118.475647m. Speed=24.444000m/h.</desc>
<speed>6.790000</speed>
</trkpt>
<trkpt lat="55.944595" lon="26.651167">
<ele>118.489319</ele>
<time>2010-06-20T13:34:17Z</time>
<desc>lat.=55.944595, lon.=26.651167, Alt.=118.489319m. Speed=24.084000m/h.</desc>
<speed>6.690000</speed>
</trkpt>
<trkpt lat="55.944542" lon="26.651112">
<ele>118.520569</ele>
<time>2010-06-20T13:34:18Z</time>
<desc>lat.=55.944542, lon.=26.651112, Alt.=118.520569m. Speed=23.327999m/h.</desc>
<speed>6.480000</speed>
</trkpt>
<trkpt lat="55.944489" lon="26.651060">
<ele>118.335022</ele>
<time>2010-06-20T13:34:19Z</time>
<desc>lat.=55.944489, lon.=26.651060, Alt.=118.335022m. Speed=22.931999m/h.</desc>
<speed>6.370000</speed>
</trkpt>
<trkpt lat="55.944439" lon="26.651012">
<ele>118.288147</ele>
<time>2010-06-20T13:34:20Z</time>
<desc>lat.=55.944439, lon.=26.651012, Alt.=118.288147m. Speed=22.464001m/h.</desc>
<speed>6.240000</speed>
</trkpt>
<trkpt lat="55.944386" lon="26.650969">
<ele>118.344788</ele>
<time>2010-06-20T13:34:21Z</time>
<desc>lat.=55.944386, lon.=26.650969, Alt.=118.344788m. Speed=22.247999m/h.</desc>
<speed>6.180000</speed>
</trkpt>
<trkpt lat="55.944336" lon="26.650927">
<ele>118.268616</ele>
<time>2010-06-20T13:34:22Z</time>
<desc>lat.=55.944336, lon.=26.650927, Alt.=118.268616m. Speed=23.507999m/h.</desc>
<speed>6.530000</speed>
</trkpt>
<trkpt lat="55.944279" lon="26.650875">
<ele>117.920959</ele>
<time>2010-06-20T13:34:23Z</time>
<desc>lat.=55.944279, lon.=26.650875, Alt.=117.920959m. Speed=23.615999m/h.</desc>
<speed>6.560000</speed>
</trkpt>
<trkpt lat="55.944225" lon="26.650826">
<ele>117.768616</ele>
<time>2010-06-20T13:34:24Z</time>
<desc>lat.=55.944225, lon.=26.650826, Alt.=117.768616m. Speed=23.760000m/h.</desc>
<speed>6.600000</speed>
</trkpt>
<trkpt lat="55.944172" lon="26.650780">
<ele>117.622131</ele>
<time>2010-06-20T13:34:25Z</time>
<desc>lat.=55.944172, lon.=26.650780, Alt.=117.622131m. Speed=23.832001m/h.</desc>
<speed>6.620000</speed>
</trkpt>
<trkpt lat="55.944118" lon="26.650734">
<ele>117.616272</ele>
<time>2010-06-20T13:34:26Z</time>
<desc>lat.=55.944118, lon.=26.650734, Alt.=117.616272m. Speed=23.327999m/h.</desc>
<speed>6.480000</speed>
</trkpt>
<trkpt lat="55.944069" lon="26.650692">
<ele>117.616272</ele>
<time>2010-06-20T13:34:27Z</time>
<desc>lat.=55.944069, lon.=26.650692, Alt.=117.616272m. Speed=22.788000m/h.</desc>
<speed>6.330000</speed>
</trkpt>
<trkpt lat="55.944027" lon="26.650652">
<ele>117.469788</ele>
<time>2010-06-20T13:34:28Z</time>
<desc>lat.=55.944027, lon.=26.650652, Alt.=117.469788m. Speed=22.535999m/h.</desc>
<speed>6.260000</speed>
</trkpt>
<trkpt lat="55.943977" lon="26.650608">
<ele>117.411194</ele>
<time>2010-06-20T13:34:29Z</time>
<desc>lat.=55.943977, lon.=26.650608, Alt.=117.411194m. Speed=22.176001m/h.</desc>
<speed>6.160000</speed>
</trkpt>
<trkpt lat="55.943924" lon="26.650566">
<ele>117.385803</ele>
<time>2010-06-20T13:34:30Z</time>
<desc>lat.=55.943924, lon.=26.650566, Alt.=117.385803m. Speed=21.816000m/h.</desc>
<speed>6.060000</speed>
</trkpt>
<trkpt lat="55.943878" lon="26.650522">
<ele>117.346741</ele>
<time>2010-06-20T13:34:31Z</time>
<desc>lat.=55.943878, lon.=26.650522, Alt.=117.346741m. Speed=21.348000m/h.</desc>
<speed>5.930000</speed>
</trkpt>
<trkpt lat="55.943829" lon="26.650478">
<ele>117.088928</ele>
<time>2010-06-20T13:34:32Z</time>
<desc>lat.=55.943829, lon.=26.650478, Alt.=117.088928m. Speed=21.348000m/h.</desc>
<speed>5.930000</speed>
</trkpt>
<trkpt lat="55.943779" lon="26.650431">
<ele>117.030334</ele>
<time>2010-06-20T13:34:33Z</time>
<desc>lat.=55.943779, lon.=26.650431, Alt.=117.030334m. Speed=22.104000m/h.</desc>
<speed>6.140000</speed>
</trkpt>
<trkpt lat="55.943729" lon="26.650383">
<ele>116.948303</ele>
<time>2010-06-20T13:34:34Z</time>
<desc>lat.=55.943729, lon.=26.650383, Alt.=116.948303m. Speed=23.040001m/h.</desc>
<speed>6.400000</speed>
</trkpt>
<trkpt lat="55.943676" lon="26.650335">
<ele>116.952209</ele>
<time>2010-06-20T13:34:35Z</time>
<desc>lat.=55.943676, lon.=26.650335, Alt.=116.952209m. Speed=24.444000m/h.</desc>
<speed>6.790000</speed>
</trkpt>
<trkpt lat="55.943619" lon="26.650284">
<ele>116.838928</ele>
<time>2010-06-20T13:34:36Z</time>
<desc>lat.=55.943619, lon.=26.650284, Alt.=116.838928m. Speed=24.840000m/h.</desc>
<speed>6.900000</speed>
</trkpt>
<trkpt lat="55.943565" lon="26.650234">
<ele>116.893616</ele>
<time>2010-06-20T13:34:37Z</time>
<desc>lat.=55.943565, lon.=26.650234, Alt.=116.893616m. Speed=25.128000m/h.</desc>
<speed>6.980000</speed>
</trkpt>
<trkpt lat="55.943508" lon="26.650185">
<ele>116.794006</ele>
<time>2010-06-20T13:34:38Z</time>
<desc>lat.=55.943508, lon.=26.650185, Alt.=116.794006m. Speed=24.948000m/h.</desc>
<speed>6.930000</speed>
</trkpt>
<trkpt lat="55.943455" lon="26.650137">
<ele>116.903381</ele>
<time>2010-06-20T13:34:39Z</time>
<desc>lat.=55.943455, lon.=26.650137, Alt.=116.903381m. Speed=24.768000m/h.</desc>
<speed>6.880000</speed>
</trkpt>
<trkpt lat="55.943401" lon="26.650087">
<ele>116.872131</ele>
<time>2010-06-20T13:34:40Z</time>
<desc>lat.=55.943401, lon.=26.650087, Alt.=116.872131m. Speed=24.480000m/h.</desc>
<speed>6.800000</speed>
</trkpt>
<trkpt lat="55.943348" lon="26.650036">
<ele>116.963928</ele>
<time>2010-06-20T13:34:41Z</time>
<desc>lat.=55.943348, lon.=26.650036, Alt.=116.963928m. Speed=23.148001m/h.</desc>
<speed>6.430000</speed>
</trkpt>
<trkpt lat="55.943302" lon="26.649988">
<ele>116.739319</ele>
<time>2010-06-20T13:34:42Z</time>
<desc>lat.=55.943302, lon.=26.649988, Alt.=116.739319m. Speed=21.240000m/h.</desc>
<speed>5.900000</speed>
</trkpt>
<trkpt lat="55.943253" lon="26.649944">
<ele>116.766663</ele>
<time>2010-06-20T13:34:43Z</time>
<desc>lat.=55.943253, lon.=26.649944, Alt.=116.766663m. Speed=22.356001m/h.</desc>
<speed>6.210000</speed>
</trkpt>
<trkpt lat="55.943203" lon="26.649900">
<ele>116.657288</ele>
<time>2010-06-20T13:34:44Z</time>
<desc>lat.=55.943203, lon.=26.649900, Alt.=116.657288m. Speed=22.823999m/h.</desc>
<speed>6.340000</speed>
</trkpt>
<trkpt lat="55.943146" lon="26.649857">
<ele>116.528381</ele>
<time>2010-06-20T13:34:45Z</time>
<desc>lat.=55.943146, lon.=26.649857, Alt.=116.528381m. Speed=23.615999m/h.</desc>
<speed>6.560000</speed>
</trkpt>
<trkpt lat="55.943092" lon="26.649807">
<ele>116.645569</ele>
<time>2010-06-20T13:34:46Z</time>
<desc>lat.=55.943092, lon.=26.649807, Alt.=116.645569m. Speed=24.299999m/h.</desc>
<speed>6.750000</speed>
</trkpt>
<trkpt lat="55.943039" lon="26.649757">
<ele>116.540100</ele>
<time>2010-06-20T13:34:47Z</time>
<desc>lat.=55.943039, lon.=26.649757, Alt.=116.540100m. Speed=24.120001m/h.</desc>
<speed>6.700000</speed>
</trkpt>
<trkpt lat="55.942986" lon="26.649708">
<ele>116.708069</ele>
<time>2010-06-20T13:34:48Z</time>
<desc>lat.=55.942986, lon.=26.649708, Alt.=116.708069m. Speed=23.507999m/h.</desc>
<speed>6.530000</speed>
</trkpt>
<trkpt lat="55.942932" lon="26.649660">
<ele>116.610413</ele>
<time>2010-06-20T13:34:49Z</time>
<desc>lat.=55.942932, lon.=26.649660, Alt.=116.610413m. Speed=23.292000m/h.</desc>
<speed>6.470000</speed>
</trkpt>
<trkpt lat="55.942883" lon="26.649614">
<ele>116.454163</ele>
<time>2010-06-20T13:34:50Z</time>
<desc>lat.=55.942883, lon.=26.649614, Alt.=116.454163m. Speed=22.643999m/h.</desc>
<speed>6.290000</speed>
</trkpt>
<trkpt lat="55.942829" lon="26.649570">
<ele>116.383850</ele>
<time>2010-06-20T13:34:51Z</time>
<desc>lat.=55.942829, lon.=26.649570, Alt.=116.383850m. Speed=21.816000m/h.</desc>
<speed>6.060000</speed>
</trkpt>
<trkpt lat="55.942780" lon="26.649532">
<ele>116.542053</ele>
<time>2010-06-20T13:34:52Z</time>
<desc>lat.=55.942780, lon.=26.649532, Alt.=116.542053m. Speed=20.700001m/h.</desc>
<speed>5.750000</speed>
</trkpt>
<trkpt lat="55.942734" lon="26.649494">
<ele>116.338928</ele>
<time>2010-06-20T13:34:53Z</time>
<desc>lat.=55.942734, lon.=26.649494, Alt.=116.338928m. Speed=19.620001m/h.</desc>
<speed>5.450000</speed>
</trkpt>
<trkpt lat="55.942692" lon="26.649456">
<ele>116.108459</ele>
<time>2010-06-20T13:34:54Z</time>
<desc>lat.=55.942692, lon.=26.649456, Alt.=116.108459m. Speed=19.620001m/h.</desc>
<speed>5.450000</speed>
</trkpt>
<trkpt lat="55.942646" lon="26.649416">
<ele>115.680725</ele>
<time>2010-06-20T13:34:55Z</time>
<desc>lat.=55.942646, lon.=26.649416, Alt.=115.680725m. Speed=20.304001m/h.</desc>
<speed>5.640000</speed>
</trkpt>
<trkpt lat="55.942596" lon="26.649372">
<ele>115.485413</ele>
<time>2010-06-20T13:34:56Z</time>
<desc>lat.=55.942596, lon.=26.649372, Alt.=115.485413m. Speed=20.844000m/h.</desc>
<speed>5.790000</speed>
</trkpt>
<trkpt lat="55.942551" lon="26.649330">
<ele>115.850647</ele>
<time>2010-06-20T13:34:57Z</time>
<desc>lat.=55.942551, lon.=26.649330, Alt.=115.850647m. Speed=21.348000m/h.</desc>
<speed>5.930000</speed>
</trkpt>
<trkpt lat="55.942501" lon="26.649284">
<ele>115.883850</ele>
<time>2010-06-20T13:34:58Z</time>
<desc>lat.=55.942501, lon.=26.649284, Alt.=115.883850m. Speed=21.816000m/h.</desc>
<speed>6.060000</speed>
</trkpt>
<trkpt lat="55.942451" lon="26.649237">
<ele>115.731506</ele>
<time>2010-06-20T13:34:59Z</time>
<desc>lat.=55.942451, lon.=26.649237, Alt.=115.731506m. Speed=21.996000m/h.</desc>
<speed>6.110000</speed>
</trkpt>
<trkpt lat="55.942402" lon="26.649191">
<ele>115.678772</ele>
<time>2010-06-20T13:35:00Z</time>
<desc>lat.=55.942402, lon.=26.649191, Alt.=115.678772m. Speed=21.888000m/h.</desc>
<speed>6.080000</speed>
</trkpt>
<trkpt lat="55.942352" lon="26.649145">
<ele>115.684631</ele>
<time>2010-06-20T13:35:01Z</time>
<desc>lat.=55.942352, lon.=26.649145, Alt.=115.684631m. Speed=21.888000m/h.</desc>
<speed>6.080000</speed>
</trkpt>
<trkpt lat="55.942307" lon="26.649099">
<ele>115.303772</ele>
<time>2010-06-20T13:35:02Z</time>
<desc>lat.=55.942307, lon.=26.649099, Alt.=115.303772m. Speed=21.996000m/h.</desc>
<speed>6.110000</speed>
</trkpt>
<trkpt lat="55.942257" lon="26.649054">
<ele>114.899475</ele>
<time>2010-06-20T13:35:03Z</time>
<desc>lat.=55.942257, lon.=26.649054, Alt.=114.899475m. Speed=21.636000m/h.</desc>
<speed>6.010000</speed>
</trkpt>
<trkpt lat="55.942207" lon="26.649010">
<ele>114.977600</ele>
<time>2010-06-20T13:35:04Z</time>
<desc>lat.=55.942207, lon.=26.649010, Alt.=114.977600m. Speed=22.247999m/h.</desc>
<speed>6.180000</speed>
</trkpt>
<trkpt lat="55.942158" lon="26.648964">
<ele>114.887756</ele>
<time>2010-06-20T13:35:05Z</time>
<desc>lat.=55.942158, lon.=26.648964, Alt.=114.887756m. Speed=22.896000m/h.</desc>
<speed>6.360000</speed>
</trkpt>
<trkpt lat="55.942104" lon="26.648918">
<ele>114.942444</ele>
<time>2010-06-20T13:35:06Z</time>
<desc>lat.=55.942104, lon.=26.648918, Alt.=114.942444m. Speed=23.436001m/h.</desc>
<speed>6.510000</speed>
</trkpt>
<trkpt lat="55.942051" lon="26.648872">
<ele>115.010803</ele>
<time>2010-06-20T13:35:07Z</time>
<desc>lat.=55.942051, lon.=26.648872, Alt.=115.010803m. Speed=23.796000m/h.</desc>
<speed>6.610000</speed>
</trkpt>
<trkpt lat="55.941998" lon="26.648823">
<ele>115.192444</ele>
<time>2010-06-20T13:35:08Z</time>
<desc>lat.=55.941998, lon.=26.648823, Alt.=115.192444m. Speed=24.011999m/h.</desc>
<speed>6.670000</speed>
</trkpt>
<trkpt lat="55.941944" lon="26.648771">
<ele>115.256897</ele>
<time>2010-06-20T13:35:09Z</time>
<desc>lat.=55.941944, lon.=26.648771, Alt.=115.256897m. Speed=24.156000m/h.</desc>
<speed>6.710000</speed>
</trkpt>
<trkpt lat="55.941891" lon="26.648722">
<ele>114.977600</ele>
<time>2010-06-20T13:35:10Z</time>
<desc>lat.=55.941891, lon.=26.648722, Alt.=114.977600m. Speed=24.516001m/h.</desc>
<speed>6.810000</speed>
</trkpt>
<trkpt lat="55.941837" lon="26.648670">
<ele>115.182678</ele>
<time>2010-06-20T13:35:11Z</time>
<desc>lat.=55.941837, lon.=26.648670, Alt.=115.182678m. Speed=24.768000m/h.</desc>
<speed>6.880000</speed>
</trkpt>
<trkpt lat="55.941780" lon="26.648619">
<ele>115.184631</ele>
<time>2010-06-20T13:35:12Z</time>
<desc>lat.=55.941780, lon.=26.648619, Alt.=115.184631m. Speed=24.983999m/h.</desc>
<speed>6.940000</speed>
</trkpt>
<trkpt lat="55.941723" lon="26.648571">
<ele>115.075256</ele>
<time>2010-06-20T13:35:13Z</time>
<desc>lat.=55.941723, lon.=26.648571, Alt.=115.075256m. Speed=24.875999m/h.</desc>
<speed>6.910000</speed>
</trkpt>
<trkpt lat="55.941666" lon="26.648518">
<ele>115.301819</ele>
<time>2010-06-20T13:35:14Z</time>
<desc>lat.=55.941666, lon.=26.648518, Alt.=115.301819m. Speed=25.091999m/h.</desc>
<speed>6.970000</speed>
</trkpt>
<trkpt lat="55.941612" lon="26.648460">
<ele>115.159241</ele>
<time>2010-06-20T13:35:15Z</time>
<desc>lat.=55.941612, lon.=26.648460, Alt.=115.159241m. Speed=25.236000m/h.</desc>
<speed>7.010000</speed>
</trkpt>
<trkpt lat="55.941555" lon="26.648407">
<ele>114.987366</ele>
<time>2010-06-20T13:35:16Z</time>
<desc>lat.=55.941555, lon.=26.648407, Alt.=114.987366m. Speed=25.416000m/h.</desc>
<speed>7.060000</speed>
</trkpt>
<trkpt lat="55.941498" lon="26.648359">
<ele>114.997131</ele>
<time>2010-06-20T13:35:17Z</time>
<desc>lat.=55.941498, lon.=26.648359, Alt.=114.997131m. Speed=25.524000m/h.</desc>
<speed>7.090000</speed>
</trkpt>
<trkpt lat="55.941437" lon="26.648310">
<ele>114.836975</ele>
<time>2010-06-20T13:35:18Z</time>
<desc>lat.=55.941437, lon.=26.648310, Alt.=114.836975m. Speed=25.704000m/h.</desc>
<speed>7.140000</speed>
</trkpt>
<trkpt lat="55.941383" lon="26.648262">
<ele>114.635803</ele>
<time>2010-06-20T13:35:19Z</time>
<desc>lat.=55.941383, lon.=26.648262, Alt.=114.635803m. Speed=25.632000m/h.</desc>
<speed>7.120000</speed>
</trkpt>
<trkpt lat="55.941326" lon="26.648211">
<ele>114.389709</ele>
<time>2010-06-20T13:35:20Z</time>
<desc>lat.=55.941326, lon.=26.648211, Alt.=114.389709m. Speed=25.848000m/h.</desc>
<speed>7.180000</speed>
</trkpt>
<trkpt lat="55.941265" lon="26.648159">
<ele>114.280334</ele>
<time>2010-06-20T13:35:21Z</time>
<desc>lat.=55.941265, lon.=26.648159, Alt.=114.280334m. Speed=26.388000m/h.</desc>
<speed>7.330000</speed>
</trkpt>
<trkpt lat="55.941208" lon="26.648109">
<ele>114.573303</ele>
<time>2010-06-20T13:35:22Z</time>
<desc>lat.=55.941208, lon.=26.648109, Alt.=114.573303m. Speed=26.424000m/h.</desc>
<speed>7.340000</speed>
</trkpt>
<trkpt lat="55.941151" lon="26.648056">
<ele>114.594788</ele>
<time>2010-06-20T13:35:23Z</time>
<desc>lat.=55.941151, lon.=26.648056, Alt.=114.594788m. Speed=26.568001m/h.</desc>
<speed>7.380000</speed>
</trkpt>
<trkpt lat="55.941093" lon="26.648003">
<ele>114.258850</ele>
<time>2010-06-20T13:35:24Z</time>
<desc>lat.=55.941093, lon.=26.648003, Alt.=114.258850m. Speed=26.280001m/h.</desc>
<speed>7.300000</speed>
</trkpt>
<trkpt lat="55.941032" lon="26.647949">
<ele>113.942444</ele>
<time>2010-06-20T13:35:25Z</time>
<desc>lat.=55.941032, lon.=26.647949, Alt.=113.942444m. Speed=26.459999m/h.</desc>
<speed>7.350000</speed>
</trkpt>
<trkpt lat="55.940975" lon="26.647898">
<ele>113.809631</ele>
<time>2010-06-20T13:35:26Z</time>
<desc>lat.=55.940975, lon.=26.647898, Alt.=113.809631m. Speed=26.964001m/h.</desc>
<speed>7.490000</speed>
</trkpt>
<trkpt lat="55.940910" lon="26.647848">
<ele>113.792053</ele>
<time>2010-06-20T13:35:27Z</time>
<desc>lat.=55.940910, lon.=26.647848, Alt.=113.792053m. Speed=26.964001m/h.</desc>
<speed>7.490000</speed>
</trkpt>
<trkpt lat="55.940853" lon="26.647791">
<ele>113.665100</ele>
<time>2010-06-20T13:35:28Z</time>
<desc>lat.=55.940853, lon.=26.647791, Alt.=113.665100m. Speed=26.568001m/h.</desc>
<speed>7.380000</speed>
</trkpt>
<trkpt lat="55.940792" lon="26.647738">
<ele>113.764709</ele>
<time>2010-06-20T13:35:29Z</time>
<desc>lat.=55.940792, lon.=26.647738, Alt.=113.764709m. Speed=26.172001m/h.</desc>
<speed>7.270000</speed>
</trkpt>
<trkpt lat="55.940735" lon="26.647686">
<ele>113.969788</ele>
<time>2010-06-20T13:35:30Z</time>
<desc>lat.=55.940735, lon.=26.647686, Alt.=113.969788m. Speed=26.243999m/h.</desc>
<speed>7.290000</speed>
</trkpt>
<trkpt lat="55.940678" lon="26.647636">
<ele>114.044006</ele>
<time>2010-06-20T13:35:31Z</time>
<desc>lat.=55.940678, lon.=26.647636, Alt.=114.044006m. Speed=26.784000m/h.</desc>
<speed>7.440000</speed>
</trkpt>
<trkpt lat="55.940617" lon="26.647585">
<ele>114.085022</ele>
<time>2010-06-20T13:35:32Z</time>
<desc>lat.=55.940617, lon.=26.647585, Alt.=114.085022m. Speed=27.323999m/h.</desc>
<speed>7.590000</speed>
</trkpt>
<trkpt lat="55.940552" lon="26.647535">
<ele>114.047913</ele>
<time>2010-06-20T13:35:33Z</time>
<desc>lat.=55.940552, lon.=26.647535, Alt.=114.047913m. Speed=27.612000m/h.</desc>
<speed>7.670000</speed>
</trkpt>
<trkpt lat="55.940491" lon="26.647484">
<ele>114.127991</ele>
<time>2010-06-20T13:35:34Z</time>
<desc>lat.=55.940491, lon.=26.647484, Alt.=114.127991m. Speed=27.396000m/h.</desc>
<speed>7.610000</speed>
</trkpt>
<trkpt lat="55.940430" lon="26.647430">
<ele>114.354553</ele>
<time>2010-06-20T13:35:35Z</time>
<desc>lat.=55.940430, lon.=26.647430, Alt.=114.354553m. Speed=27.468000m/h.</desc>
<speed>7.630000</speed>
</trkpt>
<trkpt lat="55.940369" lon="26.647379">
<ele>114.044006</ele>
<time>2010-06-20T13:35:36Z</time>
<desc>lat.=55.940369, lon.=26.647379, Alt.=114.044006m. Speed=27.252001m/h.</desc>
<speed>7.570000</speed>
</trkpt>
<trkpt lat="55.940311" lon="26.647327">
<ele>113.795959</ele>
<time>2010-06-20T13:35:37Z</time>
<desc>lat.=55.940311, lon.=26.647327, Alt.=113.795959m. Speed=26.100000m/h.</desc>
<speed>7.250000</speed>
</trkpt>
<trkpt lat="55.940254" lon="26.647278">
<ele>113.528381</ele>
<time>2010-06-20T13:35:38Z</time>
<desc>lat.=55.940254, lon.=26.647278, Alt.=113.528381m. Speed=25.200001m/h.</desc>
<speed>7.000000</speed>
</trkpt>
<trkpt lat="55.940197" lon="26.647230">
<ele>113.629944</ele>
<time>2010-06-20T13:35:39Z</time>
<desc>lat.=55.940197, lon.=26.647230, Alt.=113.629944m. Speed=24.948000m/h.</desc>
<speed>6.930000</speed>
</trkpt>
<trkpt lat="55.940144" lon="26.647184">
<ele>113.807678</ele>
<time>2010-06-20T13:35:40Z</time>
<desc>lat.=55.940144, lon.=26.647184, Alt.=113.807678m. Speed=24.120001m/h.</desc>
<speed>6.700000</speed>
</trkpt>
<trkpt lat="55.940090" lon="26.647135">
<ele>113.506897</ele>
<time>2010-06-20T13:35:41Z</time>
<desc>lat.=55.940090, lon.=26.647135, Alt.=113.506897m. Speed=23.076000m/h.</desc>
<speed>6.410000</speed>
</trkpt>
<trkpt lat="55.940044" lon="26.647079">
<ele>113.835022</ele>
<time>2010-06-20T13:35:42Z</time>
<desc>lat.=55.940044, lon.=26.647079, Alt.=113.835022m. Speed=22.572001m/h.</desc>
<speed>6.270000</speed>
</trkpt>
<trkpt lat="55.939995" lon="26.647024">
<ele>113.784241</ele>
<time>2010-06-20T13:35:43Z</time>
<desc>lat.=55.939995, lon.=26.647024, Alt.=113.784241m. Speed=23.004000m/h.</desc>
<speed>6.390000</speed>
</trkpt>
<trkpt lat="55.939949" lon="26.646971">
<ele>113.801819</ele>
<time>2010-06-20T13:35:44Z</time>
<desc>lat.=55.939949, lon.=26.646971, Alt.=113.801819m. Speed=23.256001m/h.</desc>
<speed>6.460000</speed>
</trkpt>
<trkpt lat="55.939899" lon="26.646919">
<ele>113.643616</ele>
<time>2010-06-20T13:35:45Z</time>
<desc>lat.=55.939899, lon.=26.646919, Alt.=113.643616m. Speed=23.256001m/h.</desc>
<speed>6.460000</speed>
</trkpt>
<trkpt lat="55.939850" lon="26.646868">
<ele>114.032288</ele>
<time>2010-06-20T13:35:46Z</time>
<desc>lat.=55.939850, lon.=26.646868, Alt.=114.032288m. Speed=22.320000m/h.</desc>
<speed>6.200000</speed>
</trkpt>
<trkpt lat="55.939800" lon="26.646824">
<ele>114.147522</ele>
<time>2010-06-20T13:35:47Z</time>
<desc>lat.=55.939800, lon.=26.646824, Alt.=114.147522m. Speed=21.455999m/h.</desc>
<speed>5.960000</speed>
</trkpt>
<trkpt lat="55.939751" lon="26.646786">
<ele>114.307678</ele>
<time>2010-06-20T13:35:48Z</time>
<desc>lat.=55.939751, lon.=26.646786, Alt.=114.307678m. Speed=21.348000m/h.</desc>
<speed>5.930000</speed>
</trkpt>
<trkpt lat="55.939701" lon="26.646746">
<ele>114.422913</ele>
<time>2010-06-20T13:35:49Z</time>
<desc>lat.=55.939701, lon.=26.646746, Alt.=114.422913m. Speed=21.708000m/h.</desc>
<speed>6.030000</speed>
</trkpt>
<trkpt lat="55.939648" lon="26.646711">
<ele>114.536194</ele>
<time>2010-06-20T13:35:50Z</time>
<desc>lat.=55.939648, lon.=26.646711, Alt.=114.536194m. Speed=21.996000m/h.</desc>
<speed>6.110000</speed>
</trkpt>
<trkpt lat="55.939598" lon="26.646673">
<ele>114.460022</ele>
<time>2010-06-20T13:35:51Z</time>
<desc>lat.=55.939598, lon.=26.646673, Alt.=114.460022m. Speed=21.851999m/h.</desc>
<speed>6.070000</speed>
</trkpt>
<trkpt lat="55.939545" lon="26.646629">
<ele>114.227600</ele>
<time>2010-06-20T13:35:52Z</time>
<desc>lat.=55.939545, lon.=26.646629, Alt.=114.227600m. Speed=22.176001m/h.</desc>
<speed>6.160000</speed>
</trkpt>
<trkpt lat="55.939495" lon="26.646584">
<ele>114.436584</ele>
<time>2010-06-20T13:35:53Z</time>
<desc>lat.=55.939495, lon.=26.646584, Alt.=114.436584m. Speed=22.680000m/h.</desc>
<speed>6.300000</speed>
</trkpt>
<trkpt lat="55.939445" lon="26.646536">
<ele>114.167053</ele>
<time>2010-06-20T13:35:54Z</time>
<desc>lat.=55.939445, lon.=26.646536, Alt.=114.167053m. Speed=23.219999m/h.</desc>
<speed>6.450000</speed>
</trkpt>
<trkpt lat="55.939392" lon="26.646488">
<ele>114.077209</ele>
<time>2010-06-20T13:35:55Z</time>
<desc>lat.=55.939392, lon.=26.646488, Alt.=114.077209m. Speed=23.580000m/h.</desc>
<speed>6.550000</speed>
</trkpt>
<trkpt lat="55.939339" lon="26.646442">
<ele>114.110413</ele>
<time>2010-06-20T13:35:56Z</time>
<desc>lat.=55.939339, lon.=26.646442, Alt.=114.110413m. Speed=23.004000m/h.</desc>
<speed>6.390000</speed>
</trkpt>
<trkpt lat="55.939289" lon="26.646397">
<ele>114.153381</ele>
<time>2010-06-20T13:35:57Z</time>
<desc>lat.=55.939289, lon.=26.646397, Alt.=114.153381m. Speed=23.327999m/h.</desc>
<speed>6.480000</speed>
</trkpt>
<trkpt lat="55.939236" lon="26.646347">
<ele>114.186584</ele>
<time>2010-06-20T13:35:58Z</time>
<desc>lat.=55.939236, lon.=26.646347, Alt.=114.186584m. Speed=23.688000m/h.</desc>
<speed>6.580000</speed>
</trkpt>
<trkpt lat="55.939178" lon="26.646299">
<ele>114.350647</ele>
<time>2010-06-20T13:35:59Z</time>
<desc>lat.=55.939178, lon.=26.646299, Alt.=114.350647m. Speed=23.976000m/h.</desc>
<speed>6.660000</speed>
</trkpt>
<trkpt lat="55.939125" lon="26.646250">
<ele>114.411194</ele>
<time>2010-06-20T13:36:00Z</time>
<desc>lat.=55.939125, lon.=26.646250, Alt.=114.411194m. Speed=24.228001m/h.</desc>
<speed>6.730000</speed>
</trkpt>
<trkpt lat="55.939072" lon="26.646200">
<ele>114.510803</ele>
<time>2010-06-20T13:36:01Z</time>
<desc>lat.=55.939072, lon.=26.646200, Alt.=114.510803m. Speed=24.408001m/h.</desc>
<speed>6.780000</speed>
</trkpt>
<trkpt lat="55.939018" lon="26.646149">
<ele>114.758850</ele>
<time>2010-06-20T13:36:02Z</time>
<desc>lat.=55.939018, lon.=26.646149, Alt.=114.758850m. Speed=24.624001m/h.</desc>
<speed>6.840000</speed>
</trkpt>
<trkpt lat="55.938961" lon="26.646099">
<ele>114.836975</ele>
<time>2010-06-20T13:36:03Z</time>
<desc>lat.=55.938961, lon.=26.646099, Alt.=114.836975m. Speed=24.587999m/h.</desc>
<speed>6.830000</speed>
</trkpt>
<trkpt lat="55.938908" lon="26.646049">
<ele>114.926819</ele>
<time>2010-06-20T13:36:04Z</time>
<desc>lat.=55.938908, lon.=26.646049, Alt.=114.926819m. Speed=24.480000m/h.</desc>
<speed>6.800000</speed>
</trkpt>
<trkpt lat="55.938854" lon="26.646002">
<ele>115.073303</ele>
<time>2010-06-20T13:36:05Z</time>
<desc>lat.=55.938854, lon.=26.646002, Alt.=115.073303m. Speed=24.299999m/h.</desc>
<speed>6.750000</speed>
</trkpt>
<trkpt lat="55.938797" lon="26.645960">
<ele>115.237366</ele>
<time>2010-06-20T13:36:06Z</time>
<desc>lat.=55.938797, lon.=26.645960, Alt.=115.237366m. Speed=24.156000m/h.</desc>
<speed>6.710000</speed>
</trkpt>
<trkpt lat="55.938744" lon="26.645912">
<ele>115.350647</ele>
<time>2010-06-20T13:36:07Z</time>
<desc>lat.=55.938744, lon.=26.645912, Alt.=115.350647m. Speed=24.444000m/h.</desc>
<speed>6.790000</speed>
</trkpt>
<trkpt lat="55.938690" lon="26.645863">
<ele>115.401428</ele>
<time>2010-06-20T13:36:08Z</time>
<desc>lat.=55.938690, lon.=26.645863, Alt.=115.401428m. Speed=23.868000m/h.</desc>
<speed>6.630000</speed>
</trkpt>
<trkpt lat="55.938641" lon="26.645811">
<ele>115.670959</ele>
<time>2010-06-20T13:36:09Z</time>
<desc>lat.=55.938641, lon.=26.645811, Alt.=115.670959m. Speed=23.652000m/h.</desc>
<speed>6.570000</speed>
</trkpt>
<trkpt lat="55.938587" lon="26.645763">
<ele>115.670959</ele>
<time>2010-06-20T13:36:10Z</time>
<desc>lat.=55.938587, lon.=26.645763, Alt.=115.670959m. Speed=23.688000m/h.</desc>
<speed>6.580000</speed>
</trkpt>
<trkpt lat="55.938534" lon="26.645712">
<ele>115.610413</ele>
<time>2010-06-20T13:36:11Z</time>
<desc>lat.=55.938534, lon.=26.645712, Alt.=115.610413m. Speed=24.191999m/h.</desc>
<speed>6.720000</speed>
</trkpt>
<trkpt lat="55.938477" lon="26.645666">
<ele>115.838928</ele>
<time>2010-06-20T13:36:12Z</time>
<desc>lat.=55.938477, lon.=26.645666, Alt.=115.838928m. Speed=24.156000m/h.</desc>
<speed>6.710000</speed>
</trkpt>
<trkpt lat="55.938423" lon="26.645620">
<ele>115.946350</ele>
<time>2010-06-20T13:36:13Z</time>
<desc>lat.=55.938423, lon.=26.645620, Alt.=115.946350m. Speed=24.516001m/h.</desc>
<speed>6.810000</speed>
</trkpt>
<trkpt lat="55.938366" lon="26.645575">
<ele>115.985413</ele>
<time>2010-06-20T13:36:14Z</time>
<desc>lat.=55.938366, lon.=26.645575, Alt.=115.985413m. Speed=24.660000m/h.</desc>
<speed>6.850000</speed>
</trkpt>
<trkpt lat="55.938313" lon="26.645527">
<ele>116.098694</ele>
<time>2010-06-20T13:36:15Z</time>
<desc>lat.=55.938313, lon.=26.645527, Alt.=116.098694m. Speed=24.875999m/h.</desc>
<speed>6.910000</speed>
</trkpt>
<trkpt lat="55.938255" lon="26.645481">
<ele>116.196350</ele>
<time>2010-06-20T13:36:16Z</time>
<desc>lat.=55.938255, lon.=26.645481, Alt.=116.196350m. Speed=25.091999m/h.</desc>
<speed>6.970000</speed>
</trkpt>
<trkpt lat="55.938202" lon="26.645432">
<ele>116.276428</ele>
<time>2010-06-20T13:36:17Z</time>
<desc>lat.=55.938202, lon.=26.645432, Alt.=116.276428m. Speed=25.488001m/h.</desc>
<speed>7.080000</speed>
</trkpt>
<trkpt lat="55.938145" lon="26.645378">
<ele>116.411194</ele>
<time>2010-06-20T13:36:18Z</time>
<desc>lat.=55.938145, lon.=26.645378, Alt.=116.411194m. Speed=25.559999m/h.</desc>
<speed>7.100000</speed>
</trkpt>
<trkpt lat="55.938091" lon="26.645327">
<ele>116.399475</ele>
<time>2010-06-20T13:36:19Z</time>
<desc>lat.=55.938091, lon.=26.645327, Alt.=116.399475m. Speed=25.775999m/h.</desc>
<speed>7.160000</speed>
</trkpt>
<trkpt lat="55.938034" lon="26.645279">
<ele>116.471741</ele>
<time>2010-06-20T13:36:20Z</time>
<desc>lat.=55.938034, lon.=26.645279, Alt.=116.471741m. Speed=26.351999m/h.</desc>
<speed>7.320000</speed>
</trkpt>
<trkpt lat="55.937973" lon="26.645226">
<ele>116.354553</ele>
<time>2010-06-20T13:36:21Z</time>
<desc>lat.=55.937973, lon.=26.645226, Alt.=116.354553m. Speed=26.532000m/h.</desc>
<speed>7.370000</speed>
</trkpt>
<trkpt lat="55.937920" lon="26.645174">
<ele>116.307678</ele>
<time>2010-06-20T13:36:22Z</time>
<desc>lat.=55.937920, lon.=26.645174, Alt.=116.307678m. Speed=27.035999m/h.</desc>
<speed>7.510000</speed>
</trkpt>
<trkpt lat="55.937859" lon="26.645113">
<ele>116.618225</ele>
<time>2010-06-20T13:36:23Z</time>
<desc>lat.=55.937859, lon.=26.645113, Alt.=116.618225m. Speed=27.431999m/h.</desc>
<speed>7.620000</speed>
</trkpt>
<trkpt lat="55.937798" lon="26.645056">
<ele>116.633850</ele>
<time>2010-06-20T13:36:24Z</time>
<desc>lat.=55.937798, lon.=26.645056, Alt.=116.633850m. Speed=27.684000m/h.</desc>
<speed>7.690000</speed>
</trkpt>
<trkpt lat="55.937733" lon="26.645000">
<ele>116.846741</ele>
<time>2010-06-20T13:36:25Z</time>
<desc>lat.=55.937733, lon.=26.645000, Alt.=116.846741m. Speed=27.756001m/h.</desc>
<speed>7.710000</speed>
</trkpt>
<trkpt lat="55.937672" lon="26.644943">
<ele>116.911194</ele>
<time>2010-06-20T13:36:26Z</time>
<desc>lat.=55.937672, lon.=26.644943, Alt.=116.911194m. Speed=28.115999m/h.</desc>
<speed>7.810000</speed>
</trkpt>
<trkpt lat="55.937611" lon="26.644886">
<ele>117.170959</ele>
<time>2010-06-20T13:36:27Z</time>
<desc>lat.=55.937611, lon.=26.644886, Alt.=117.170959m. Speed=28.260000m/h.</desc>
<speed>7.850000</speed>
</trkpt>
<trkpt lat="55.937550" lon="26.644831">
<ele>117.540100</ele>
<time>2010-06-20T13:36:28Z</time>
<desc>lat.=55.937550, lon.=26.644831, Alt.=117.540100m. Speed=28.476000m/h.</desc>
<speed>7.910000</speed>
</trkpt>
<trkpt lat="55.937485" lon="26.644772">
<ele>117.114319</ele>
<time>2010-06-20T13:36:29Z</time>
<desc>lat.=55.937485, lon.=26.644772, Alt.=117.114319m. Speed=28.944000m/h.</desc>
<speed>8.040000</speed>
</trkpt>
<trkpt lat="55.937420" lon="26.644712">
<ele>117.190491</ele>
<time>2010-06-20T13:36:30Z</time>
<desc>lat.=55.937420, lon.=26.644712, Alt.=117.190491m. Speed=28.764000m/h.</desc>
<speed>7.990000</speed>
</trkpt>
<trkpt lat="55.937355" lon="26.644655">
<ele>117.629944</ele>
<time>2010-06-20T13:36:31Z</time>
<desc>lat.=55.937355, lon.=26.644655, Alt.=117.629944m. Speed=28.728001m/h.</desc>
<speed>7.980000</speed>
</trkpt>
<trkpt lat="55.937290" lon="26.644592">
<ele>117.590881</ele>
<time>2010-06-20T13:36:32Z</time>
<desc>lat.=55.937290, lon.=26.644592, Alt.=117.590881m. Speed=28.764000m/h.</desc>
<speed>7.990000</speed>
</trkpt>
<trkpt lat="55.937225" lon="26.644531">
<ele>117.469788</ele>
<time>2010-06-20T13:36:33Z</time>
<desc>lat.=55.937225, lon.=26.644531, Alt.=117.469788m. Speed=28.511999m/h.</desc>
<speed>7.920000</speed>
</trkpt>
<trkpt lat="55.937160" lon="26.644476">
<ele>117.545959</ele>
<time>2010-06-20T13:36:34Z</time>
<desc>lat.=55.937160, lon.=26.644476, Alt.=117.545959m. Speed=28.403999m/h.</desc>
<speed>7.890000</speed>
</trkpt>
<trkpt lat="55.937099" lon="26.644417">
<ele>117.831116</ele>
<time>2010-06-20T13:36:35Z</time>
<desc>lat.=55.937099, lon.=26.644417, Alt.=117.831116m. Speed=28.440001m/h.</desc>
<speed>7.900000</speed>
</trkpt>
<trkpt lat="55.937035" lon="26.644360">
<ele>117.944397</ele>
<time>2010-06-20T13:36:36Z</time>
<desc>lat.=55.937035, lon.=26.644360, Alt.=117.944397m. Speed=28.548000m/h.</desc>
<speed>7.930000</speed>
</trkpt>
<trkpt lat="55.936970" lon="26.644304">
<ele>117.842834</ele>
<time>2010-06-20T13:36:37Z</time>
<desc>lat.=55.936970, lon.=26.644304, Alt.=117.842834m. Speed=28.764000m/h.</desc>
<speed>7.990000</speed>
</trkpt>
<trkpt lat="55.936905" lon="26.644251">
<ele>118.059631</ele>
<time>2010-06-20T13:36:38Z</time>
<desc>lat.=55.936905, lon.=26.644251, Alt.=118.059631m. Speed=29.087999m/h.</desc>
<speed>8.080000</speed>
</trkpt>
<trkpt lat="55.936836" lon="26.644194">
<ele>118.085022</ele>
<time>2010-06-20T13:36:39Z</time>
<desc>lat.=55.936836, lon.=26.644194, Alt.=118.085022m. Speed=28.980000m/h.</desc>
<speed>8.050000</speed>
</trkpt>
<trkpt lat="55.936771" lon="26.644140">
<ele>118.237366</ele>
<time>2010-06-20T13:36:40Z</time>
<desc>lat.=55.936771, lon.=26.644140, Alt.=118.237366m. Speed=28.115999m/h.</desc>
<speed>7.810000</speed>
</trkpt>
<trkpt lat="55.936714" lon="26.644089">
<ele>118.471741</ele>
<time>2010-06-20T13:36:41Z</time>
<desc>lat.=55.936714, lon.=26.644089, Alt.=118.471741m. Speed=25.775999m/h.</desc>
<speed>7.160000</speed>
</trkpt>
<trkpt lat="55.936661" lon="26.644039">
<ele>118.577209</ele>
<time>2010-06-20T13:36:42Z</time>
<desc>lat.=55.936661, lon.=26.644039, Alt.=118.577209m. Speed=20.879999m/h.</desc>
<speed>5.800000</speed>
</trkpt>
<trkpt lat="55.936615" lon="26.643995">
<ele>118.596741</ele>
<time>2010-06-20T13:36:43Z</time>
<desc>lat.=55.936615, lon.=26.643995, Alt.=118.596741m. Speed=20.340000m/h.</desc>
<speed>5.650000</speed>
</trkpt>
<trkpt lat="55.936569" lon="26.643955">
<ele>118.819397</ele>
<time>2010-06-20T13:36:44Z</time>
<desc>lat.=55.936569, lon.=26.643955, Alt.=118.819397m. Speed=20.952000m/h.</desc>
<speed>5.820000</speed>
</trkpt>
<trkpt lat="55.936520" lon="26.643915">
<ele>119.448303</ele>
<time>2010-06-20T13:36:45Z</time>
<desc>lat.=55.936520, lon.=26.643915, Alt.=119.448303m. Speed=21.275999m/h.</desc>
<speed>5.910000</speed>
</trkpt>
<trkpt lat="55.936470" lon="26.643869">
<ele>119.659241</ele>
<time>2010-06-20T13:36:46Z</time>
<desc>lat.=55.936470, lon.=26.643869, Alt.=119.659241m. Speed=22.427999m/h.</desc>
<speed>6.230000</speed>
</trkpt>
<trkpt lat="55.936420" lon="26.643822">
<ele>119.676819</ele>
<time>2010-06-20T13:36:47Z</time>
<desc>lat.=55.936420, lon.=26.643822, Alt.=119.676819m. Speed=23.112000m/h.</desc>
<speed>6.420000</speed>
</trkpt>
<trkpt lat="55.936367" lon="26.643776">
<ele>119.725647</ele>
<time>2010-06-20T13:36:48Z</time>
<desc>lat.=55.936367, lon.=26.643776, Alt.=119.725647m. Speed=23.760000m/h.</desc>
<speed>6.600000</speed>
</trkpt>
<trkpt lat="55.936314" lon="26.643728">
<ele>119.942444</ele>
<time>2010-06-20T13:36:49Z</time>
<desc>lat.=55.936314, lon.=26.643728, Alt.=119.942444m. Speed=24.516001m/h.</desc>
<speed>6.810000</speed>
</trkpt>
<trkpt lat="55.936260" lon="26.643679">
<ele>120.118225</ele>
<time>2010-06-20T13:36:50Z</time>
<desc>lat.=55.936260, lon.=26.643679, Alt.=120.118225m. Speed=25.128000m/h.</desc>
<speed>6.980000</speed>
</trkpt>
<trkpt lat="55.936203" lon="26.643631">
<ele>120.237366</ele>
<time>2010-06-20T13:36:51Z</time>
<desc>lat.=55.936203, lon.=26.643631, Alt.=120.237366m. Speed=25.740000m/h.</desc>
<speed>7.150000</speed>
</trkpt>
<trkpt lat="55.936146" lon="26.643579">
<ele>120.346741</ele>
<time>2010-06-20T13:36:52Z</time>
<desc>lat.=55.936146, lon.=26.643579, Alt.=120.346741m. Speed=26.351999m/h.</desc>
<speed>7.320000</speed>
</trkpt>
<trkpt lat="55.936089" lon="26.643528">
<ele>120.452209</ele>
<time>2010-06-20T13:36:53Z</time>
<desc>lat.=55.936089, lon.=26.643528, Alt.=120.452209m. Speed=26.208000m/h.</desc>
<speed>7.280000</speed>
</trkpt>
<trkpt lat="55.936028" lon="26.643478">
<ele>120.333069</ele>
<time>2010-06-20T13:36:54Z</time>
<desc>lat.=55.936028, lon.=26.643478, Alt.=120.333069m. Speed=26.208000m/h.</desc>
<speed>7.280000</speed>
</trkpt>
<trkpt lat="55.935970" lon="26.643423">
<ele>119.987366</ele>
<time>2010-06-20T13:36:55Z</time>
<desc>lat.=55.935970, lon.=26.643423, Alt.=119.987366m. Speed=26.459999m/h.</desc>
<speed>7.350000</speed>
</trkpt>
<trkpt lat="55.935913" lon="26.643366">
<ele>120.178772</ele>
<time>2010-06-20T13:36:56Z</time>
<desc>lat.=55.935913, lon.=26.643366, Alt.=120.178772m. Speed=26.568001m/h.</desc>
<speed>7.380000</speed>
</trkpt>
<trkpt lat="55.935852" lon="26.643307">
<ele>120.186584</ele>
<time>2010-06-20T13:36:57Z</time>
<desc>lat.=55.935852, lon.=26.643307, Alt.=120.186584m. Speed=26.784000m/h.</desc>
<speed>7.440000</speed>
</trkpt>
<trkpt lat="55.935791" lon="26.643250">
<ele>120.096741</ele>
<time>2010-06-20T13:36:58Z</time>
<desc>lat.=55.935791, lon.=26.643250, Alt.=120.096741m. Speed=26.856001m/h.</desc>
<speed>7.460000</speed>
</trkpt>
<trkpt lat="55.935734" lon="26.643198">
<ele>120.235413</ele>
<time>2010-06-20T13:36:59Z</time>
<desc>lat.=55.935734, lon.=26.643198, Alt.=120.235413m. Speed=27.323999m/h.</desc>
<speed>7.590000</speed>
</trkpt>
<trkpt lat="55.935673" lon="26.643145">
<ele>120.629944</ele>
<time>2010-06-20T13:37:00Z</time>
<desc>lat.=55.935673, lon.=26.643145, Alt.=120.629944m. Speed=27.360001m/h.</desc>
<speed>7.600000</speed>
</trkpt>
<trkpt lat="55.935608" lon="26.643093">
<ele>120.940491</ele>
<time>2010-06-20T13:37:01Z</time>
<desc>lat.=55.935608, lon.=26.643093, Alt.=120.940491m. Speed=28.007999m/h.</desc>
<speed>7.780000</speed>
</trkpt>
<trkpt lat="55.935547" lon="26.643044">
<ele>120.967834</ele>
<time>2010-06-20T13:37:02Z</time>
<desc>lat.=55.935547, lon.=26.643044, Alt.=120.967834m. Speed=27.827999m/h.</desc>
<speed>7.730000</speed>
</trkpt>
<trkpt lat="55.935482" lon="26.642994">
<ele>120.639709</ele>
<time>2010-06-20T13:37:03Z</time>
<desc>lat.=55.935482, lon.=26.642994, Alt.=120.639709m. Speed=27.648001m/h.</desc>
<speed>7.680000</speed>
</trkpt>
<trkpt lat="55.935421" lon="26.642941">
<ele>121.049866</ele>
<time>2010-06-20T13:37:04Z</time>
<desc>lat.=55.935421, lon.=26.642941, Alt.=121.049866m. Speed=27.936001m/h.</desc>
<speed>7.760000</speed>
</trkpt>
<trkpt lat="55.935364" lon="26.642885">
<ele>120.577209</ele>
<time>2010-06-20T13:37:05Z</time>
<desc>lat.=55.935364, lon.=26.642885, Alt.=120.577209m. Speed=27.504000m/h.</desc>
<speed>7.640000</speed>
</trkpt>
<trkpt lat="55.935303" lon="26.642832">
<ele>120.481506</ele>
<time>2010-06-20T13:37:06Z</time>
<desc>lat.=55.935303, lon.=26.642832, Alt.=120.481506m. Speed=27.792000m/h.</desc>
<speed>7.720000</speed>
</trkpt>
<trkpt lat="55.935242" lon="26.642773">
<ele>120.487366</ele>
<time>2010-06-20T13:37:07Z</time>
<desc>lat.=55.935242, lon.=26.642773, Alt.=120.487366m. Speed=27.972000m/h.</desc>
<speed>7.770000</speed>
</trkpt>
<trkpt lat="55.935177" lon="26.642714">
<ele>120.821350</ele>
<time>2010-06-20T13:37:08Z</time>
<desc>lat.=55.935177, lon.=26.642714, Alt.=120.821350m. Speed=28.224001m/h.</desc>
<speed>7.840000</speed>
</trkpt>
<trkpt lat="55.935116" lon="26.642656">
<ele>120.936584</ele>
<time>2010-06-20T13:37:09Z</time>
<desc>lat.=55.935116, lon.=26.642656, Alt.=120.936584m. Speed=28.224001m/h.</desc>
<speed>7.840000</speed>
</trkpt>
<trkpt lat="55.935055" lon="26.642599">
<ele>121.030334</ele>
<time>2010-06-20T13:37:10Z</time>
<desc>lat.=55.935055, lon.=26.642599, Alt.=121.030334m. Speed=28.403999m/h.</desc>
<speed>7.890000</speed>
</trkpt>
<trkpt lat="55.934994" lon="26.642544">
<ele>120.905334</ele>
<time>2010-06-20T13:37:11Z</time>
<desc>lat.=55.934994, lon.=26.642544, Alt.=120.905334m. Speed=28.403999m/h.</desc>
<speed>7.890000</speed>
</trkpt>
<trkpt lat="55.934929" lon="26.642490">
<ele>121.040100</ele>
<time>2010-06-20T13:37:12Z</time>
<desc>lat.=55.934929, lon.=26.642490, Alt.=121.040100m. Speed=28.476000m/h.</desc>
<speed>7.910000</speed>
</trkpt>
<trkpt lat="55.934864" lon="26.642433">
<ele>120.967834</ele>
<time>2010-06-20T13:37:13Z</time>
<desc>lat.=55.934864, lon.=26.642433, Alt.=120.967834m. Speed=28.368000m/h.</desc>
<speed>7.880000</speed>
</trkpt>
<trkpt lat="55.934803" lon="26.642380">
<ele>120.979553</ele>
<time>2010-06-20T13:37:14Z</time>
<desc>lat.=55.934803, lon.=26.642380, Alt.=120.979553m. Speed=28.152000m/h.</desc>
<speed>7.820000</speed>
</trkpt>
<trkpt lat="55.934746" lon="26.642324">
<ele>120.993225</ele>
<time>2010-06-20T13:37:15Z</time>
<desc>lat.=55.934746, lon.=26.642324, Alt.=120.993225m. Speed=27.792000m/h.</desc>
<speed>7.720000</speed>
</trkpt>
<trkpt lat="55.934685" lon="26.642269">
<ele>120.989319</ele>
<time>2010-06-20T13:37:16Z</time>
<desc>lat.=55.934685, lon.=26.642269, Alt.=120.989319m. Speed=27.719999m/h.</desc>
<speed>7.700000</speed>
</trkpt>
<trkpt lat="55.934624" lon="26.642218">
<ele>121.002991</ele>
<time>2010-06-20T13:37:17Z</time>
<desc>lat.=55.934624, lon.=26.642218, Alt.=121.002991m. Speed=27.540001m/h.</desc>
<speed>7.650000</speed>
</trkpt>
<trkpt lat="55.934563" lon="26.642160">
<ele>120.993225</ele>
<time>2010-06-20T13:37:18Z</time>
<desc>lat.=55.934563, lon.=26.642160, Alt.=120.993225m. Speed=27.180000m/h.</desc>
<speed>7.550000</speed>
</trkpt>
<trkpt lat="55.934505" lon="26.642105">
<ele>120.975647</ele>
<time>2010-06-20T13:37:19Z</time>
<desc>lat.=55.934505, lon.=26.642105, Alt.=120.975647m. Speed=27.143999m/h.</desc>
<speed>7.540000</speed>
</trkpt>
<trkpt lat="55.934444" lon="26.642056">
<ele>120.915100</ele>
<time>2010-06-20T13:37:20Z</time>
<desc>lat.=55.934444, lon.=26.642056, Alt.=120.915100m. Speed=27.323999m/h.</desc>
<speed>7.590000</speed>
</trkpt>
<trkpt lat="55.934380" lon="26.642002">
<ele>120.790100</ele>
<time>2010-06-20T13:37:21Z</time>
<desc>lat.=55.934380, lon.=26.642002, Alt.=120.790100m. Speed=27.323999m/h.</desc>
<speed>7.590000</speed>
</trkpt>
<trkpt lat="55.934319" lon="26.641949">
<ele>120.678772</ele>
<time>2010-06-20T13:37:22Z</time>
<desc>lat.=55.934319, lon.=26.641949, Alt.=120.678772m. Speed=27.360001m/h.</desc>
<speed>7.600000</speed>
</trkpt>
<trkpt lat="55.934258" lon="26.641893">
<ele>120.579163</ele>
<time>2010-06-20T13:37:23Z</time>
<desc>lat.=55.934258, lon.=26.641893, Alt.=120.579163m. Speed=27.323999m/h.</desc>
<speed>7.590000</speed>
</trkpt>
<trkpt lat="55.934196" lon="26.641842">
<ele>120.561584</ele>
<time>2010-06-20T13:37:24Z</time>
<desc>lat.=55.934196, lon.=26.641842, Alt.=120.561584m. Speed=27.143999m/h.</desc>
<speed>7.540000</speed>
</trkpt>
<trkpt lat="55.934135" lon="26.641787">
<ele>120.633850</ele>
<time>2010-06-20T13:37:25Z</time>
<desc>lat.=55.934135, lon.=26.641787, Alt.=120.633850m. Speed=27.288000m/h.</desc>
<speed>7.580000</speed>
</trkpt>
<trkpt lat="55.934074" lon="26.641733">
<ele>120.842834</ele>
<time>2010-06-20T13:37:26Z</time>
<desc>lat.=55.934074, lon.=26.641733, Alt.=120.842834m. Speed=27.396000m/h.</desc>
<speed>7.610000</speed>
</trkpt>
<trkpt lat="55.934013" lon="26.641678">
<ele>120.752991</ele>
<time>2010-06-20T13:37:27Z</time>
<desc>lat.=55.934013, lon.=26.641678, Alt.=120.752991m. Speed=27.540001m/h.</desc>
<speed>7.650000</speed>
</trkpt>
<trkpt lat="55.933949" lon="26.641623">
<ele>120.622131</ele>
<time>2010-06-20T13:37:28Z</time>
<desc>lat.=55.933949, lon.=26.641623, Alt.=120.622131m. Speed=27.684000m/h.</desc>
<speed>7.690000</speed>
</trkpt>
<trkpt lat="55.933887" lon="26.641565">
<ele>120.338928</ele>
<time>2010-06-20T13:37:29Z</time>
<desc>lat.=55.933887, lon.=26.641565, Alt.=120.338928m. Speed=27.540001m/h.</desc>
<speed>7.650000</speed>
</trkpt>
<trkpt lat="55.933830" lon="26.641512">
<ele>120.268616</ele>
<time>2010-06-20T13:37:30Z</time>
<desc>lat.=55.933830, lon.=26.641512, Alt.=120.268616m. Speed=26.927999m/h.</desc>
<speed>7.480000</speed>
</trkpt>
<trkpt lat="55.933769" lon="26.641459">
<ele>120.127991</ele>
<time>2010-06-20T13:37:31Z</time>
<desc>lat.=55.933769, lon.=26.641459, Alt.=120.127991m. Speed=27.108000m/h.</desc>
<speed>7.530000</speed>
</trkpt>
<trkpt lat="55.933708" lon="26.641403">
<ele>120.092834</ele>
<time>2010-06-20T13:37:32Z</time>
<desc>lat.=55.933708, lon.=26.641403, Alt.=120.092834m. Speed=27.216000m/h.</desc>
<speed>7.560000</speed>
</trkpt>
<trkpt lat="55.933647" lon="26.641350">
<ele>120.088928</ele>
<time>2010-06-20T13:37:33Z</time>
<desc>lat.=55.933647, lon.=26.641350, Alt.=120.088928m. Speed=27.252001m/h.</desc>
<speed>7.570000</speed>
</trkpt>
<trkpt lat="55.933582" lon="26.641291">
<ele>119.889709</ele>
<time>2010-06-20T13:37:34Z</time>
<desc>lat.=55.933582, lon.=26.641291, Alt.=119.889709m. Speed=27.431999m/h.</desc>
<speed>7.620000</speed>
</trkpt>
<trkpt lat="55.933521" lon="26.641235">
<ele>120.028381</ele>
<time>2010-06-20T13:37:35Z</time>
<desc>lat.=55.933521, lon.=26.641235, Alt.=120.028381m. Speed=27.000000m/h.</desc>
<speed>7.500000</speed>
</trkpt>
<trkpt lat="55.933460" lon="26.641178">
<ele>120.073303</ele>
<time>2010-06-20T13:37:36Z</time>
<desc>lat.=55.933460, lon.=26.641178, Alt.=120.073303m. Speed=27.468000m/h.</desc>
<speed>7.630000</speed>
</trkpt>
<trkpt lat="55.933399" lon="26.641123">
<ele>120.254944</ele>
<time>2010-06-20T13:37:37Z</time>
<desc>lat.=55.933399, lon.=26.641123, Alt.=120.254944m. Speed=27.468000m/h.</desc>
<speed>7.630000</speed>
</trkpt>
<trkpt lat="55.933338" lon="26.641068">
<ele>120.256897</ele>
<time>2010-06-20T13:37:38Z</time>
<desc>lat.=55.933338, lon.=26.641068, Alt.=120.256897m. Speed=27.504000m/h.</desc>
<speed>7.640000</speed>
</trkpt>
<trkpt lat="55.933273" lon="26.641008">
<ele>120.126038</ele>
<time>2010-06-20T13:37:39Z</time>
<desc>lat.=55.933273, lon.=26.641008, Alt.=120.126038m. Speed=27.576000m/h.</desc>
<speed>7.660000</speed>
</trkpt>
<trkpt lat="55.933212" lon="26.640947">
<ele>120.034241</ele>
<time>2010-06-20T13:37:40Z</time>
<desc>lat.=55.933212, lon.=26.640947, Alt.=120.034241m. Speed=27.288000m/h.</desc>
<speed>7.580000</speed>
</trkpt>
<trkpt lat="55.933147" lon="26.640888">
<ele>119.895569</ele>
<time>2010-06-20T13:37:41Z</time>
<desc>lat.=55.933147, lon.=26.640888, Alt.=119.895569m. Speed=27.576000m/h.</desc>
<speed>7.660000</speed>
</trkpt>
<trkpt lat="55.933083" lon="26.640831">
<ele>119.581116</ele>
<time>2010-06-20T13:37:42Z</time>
<desc>lat.=55.933083, lon.=26.640831, Alt.=119.581116m. Speed=28.007999m/h.</desc>
<speed>7.780000</speed>
</trkpt>
<trkpt lat="55.933022" lon="26.640776">
<ele>119.493225</ele>
<time>2010-06-20T13:37:43Z</time>
<desc>lat.=55.933022, lon.=26.640776, Alt.=119.493225m. Speed=28.260000m/h.</desc>
<speed>7.850000</speed>
</trkpt>
<trkpt lat="55.932957" lon="26.640713">
<ele>119.512756</ele>
<time>2010-06-20T13:37:44Z</time>
<desc>lat.=55.932957, lon.=26.640713, Alt.=119.512756m. Speed=28.620001m/h.</desc>
<speed>7.950000</speed>
</trkpt>
<trkpt lat="55.932892" lon="26.640657">
<ele>119.399475</ele>
<time>2010-06-20T13:37:45Z</time>
<desc>lat.=55.932892, lon.=26.640657, Alt.=119.399475m. Speed=28.980000m/h.</desc>
<speed>8.050000</speed>
</trkpt>
<trkpt lat="55.932827" lon="26.640602">
<ele>119.469788</ele>
<time>2010-06-20T13:37:46Z</time>
<desc>lat.=55.932827, lon.=26.640602, Alt.=119.469788m. Speed=29.016001m/h.</desc>
<speed>8.060000</speed>
</trkpt>
<trkpt lat="55.932758" lon="26.640545">
<ele>119.352600</ele>
<time>2010-06-20T13:37:47Z</time>
<desc>lat.=55.932758, lon.=26.640545, Alt.=119.352600m. Speed=29.340000m/h.</desc>
<speed>8.150000</speed>
</trkpt>
<trkpt lat="55.932690" lon="26.640486">
<ele>119.374084</ele>
<time>2010-06-20T13:37:48Z</time>
<desc>lat.=55.932690, lon.=26.640486, Alt.=119.374084m. Speed=29.340000m/h.</desc>
<speed>8.150000</speed>
</trkpt>
<trkpt lat="55.932625" lon="26.640427">
<ele>117.327209</ele>
<time>2010-06-20T13:37:49Z</time>
<desc>lat.=55.932625, lon.=26.640427, Alt.=117.327209m. Speed=30.420000m/h.</desc>
<speed>8.450000</speed>
</trkpt>
<trkpt lat="55.932549" lon="26.640369">
<ele>116.643616</ele>
<time>2010-06-20T13:37:50Z</time>
<desc>lat.=55.932549, lon.=26.640369, Alt.=116.643616m. Speed=31.176001m/h.</desc>
<speed>8.660000</speed>
</trkpt>
<trkpt lat="55.932476" lon="26.640305">
<ele>116.317444</ele>
<time>2010-06-20T13:37:51Z</time>
<desc>lat.=55.932476, lon.=26.640305, Alt.=116.317444m. Speed=29.700001m/h.</desc>
<speed>8.250000</speed>
</trkpt>
<trkpt lat="55.932407" lon="26.640242">
<ele>115.889709</ele>
<time>2010-06-20T13:37:52Z</time>
<desc>lat.=55.932407, lon.=26.640242, Alt.=115.889709m. Speed=29.916000m/h.</desc>
<speed>8.310000</speed>
</trkpt>
<trkpt lat="55.932343" lon="26.640179">
<ele>115.614319</ele>
<time>2010-06-20T13:37:53Z</time>
<desc>lat.=55.932343, lon.=26.640179, Alt.=115.614319m. Speed=30.600000m/h.</desc>
<speed>8.500000</speed>
</trkpt>
<trkpt lat="55.932274" lon="26.640121">
<ele>115.338928</ele>
<time>2010-06-20T13:37:54Z</time>
<desc>lat.=55.932274, lon.=26.640121, Alt.=115.338928m. Speed=30.384001m/h.</desc>
<speed>8.440000</speed>
</trkpt>
<trkpt lat="55.932205" lon="26.640060">
<ele>114.999084</ele>
<time>2010-06-20T13:37:55Z</time>
<desc>lat.=55.932205, lon.=26.640060, Alt.=114.999084m. Speed=31.427999m/h.</desc>
<speed>8.730000</speed>
</trkpt>
<trkpt lat="55.932137" lon="26.639997">
<ele>115.051819</ele>
<time>2010-06-20T13:37:56Z</time>
<desc>lat.=55.932137, lon.=26.639997, Alt.=115.051819m. Speed=31.788000m/h.</desc>
<speed>8.830000</speed>
</trkpt>
<trkpt lat="55.932064" lon="26.639929">
<ele>115.280334</ele>
<time>2010-06-20T13:37:57Z</time>
<desc>lat.=55.932064, lon.=26.639929, Alt.=115.280334m. Speed=31.931999m/h.</desc>
<speed>8.870000</speed>
</trkpt>
<trkpt lat="55.931992" lon="26.639866">
<ele>115.153381</ele>
<time>2010-06-20T13:37:58Z</time>
<desc>lat.=55.931992, lon.=26.639866, Alt.=115.153381m. Speed=31.608000m/h.</desc>
<speed>8.780000</speed>
</trkpt>
<trkpt lat="55.931923" lon="26.639797">
<ele>115.122131</ele>
<time>2010-06-20T13:37:59Z</time>
<desc>lat.=55.931923, lon.=26.639797, Alt.=115.122131m. Speed=31.788000m/h.</desc>
<speed>8.830000</speed>
</trkpt>
<trkpt lat="55.931850" lon="26.639732">
<ele>114.760803</ele>
<time>2010-06-20T13:38:00Z</time>
<desc>lat.=55.931850, lon.=26.639732, Alt.=114.760803m. Speed=31.931999m/h.</desc>
<speed>8.870000</speed>
</trkpt>
<trkpt lat="55.931778" lon="26.639668">
<ele>114.624084</ele>
<time>2010-06-20T13:38:01Z</time>
<desc>lat.=55.931778, lon.=26.639668, Alt.=114.624084m. Speed=32.147999m/h.</desc>
<speed>8.930000</speed>
</trkpt>
<trkpt lat="55.931705" lon="26.639603">
<ele>114.600647</ele>
<time>2010-06-20T13:38:02Z</time>
<desc>lat.=55.931705, lon.=26.639603, Alt.=114.600647m. Speed=32.112000m/h.</desc>
<speed>8.920000</speed>
</trkpt>
<trkpt lat="55.931633" lon="26.639536">
<ele>114.698303</ele>
<time>2010-06-20T13:38:03Z</time>
<desc>lat.=55.931633, lon.=26.639536, Alt.=114.698303m. Speed=32.183998m/h.</desc>
<speed>8.939999</speed>
</trkpt>
<trkpt lat="55.931561" lon="26.639471">
<ele>114.579163</ele>
<time>2010-06-20T13:38:04Z</time>
<desc>lat.=55.931561, lon.=26.639471, Alt.=114.579163m. Speed=32.363998m/h.</desc>
<speed>8.990000</speed>
</trkpt>
<trkpt lat="55.931488" lon="26.639406">
<ele>114.434631</ele>
<time>2010-06-20T13:38:05Z</time>
<desc>lat.=55.931488, lon.=26.639406, Alt.=114.434631m. Speed=32.543999m/h.</desc>
<speed>9.040000</speed>
</trkpt>
<trkpt lat="55.931412" lon="26.639345">
<ele>114.540100</ele>
<time>2010-06-20T13:38:06Z</time>
<desc>lat.=55.931412, lon.=26.639345, Alt.=114.540100m. Speed=32.688000m/h.</desc>
<speed>9.080000</speed>
</trkpt>
<trkpt lat="55.931339" lon="26.639284">
<ele>114.067444</ele>
<time>2010-06-20T13:38:07Z</time>
<desc>lat.=55.931339, lon.=26.639284, Alt.=114.067444m. Speed=32.796001m/h.</desc>
<speed>9.110000</speed>
</trkpt>
<trkpt lat="55.931263" lon="26.639215">
<ele>113.819397</ele>
<time>2010-06-20T13:38:08Z</time>
<desc>lat.=55.931263, lon.=26.639215, Alt.=113.819397m. Speed=32.580002m/h.</desc>
<speed>9.050001</speed>
</trkpt>
<trkpt lat="55.931190" lon="26.639153">
<ele>113.678772</ele>
<time>2010-06-20T13:38:09Z</time>
<desc>lat.=55.931190, lon.=26.639153, Alt.=113.678772m. Speed=32.688000m/h.</desc>
<speed>9.080000</speed>
</trkpt>
<trkpt lat="55.931118" lon="26.639090">
<ele>113.612366</ele>
<time>2010-06-20T13:38:10Z</time>
<desc>lat.=55.931118, lon.=26.639090, Alt.=113.612366m. Speed=33.155998m/h.</desc>
<speed>9.210000</speed>
</trkpt>
<trkpt lat="55.931042" lon="26.639025">
<ele>113.456116</ele>
<time>2010-06-20T13:38:11Z</time>
<desc>lat.=55.931042, lon.=26.639025, Alt.=113.456116m. Speed=32.759998m/h.</desc>
<speed>9.100000</speed>
</trkpt>
<trkpt lat="55.930965" lon="26.638958">
<ele>113.227600</ele>
<time>2010-06-20T13:38:12Z</time>
<desc>lat.=55.930965, lon.=26.638958, Alt.=113.227600m. Speed=32.759998m/h.</desc>
<speed>9.100000</speed>
</trkpt>
<trkpt lat="55.930889" lon="26.638893">
<ele>112.930725</ele>
<time>2010-06-20T13:38:13Z</time>
<desc>lat.=55.930889, lon.=26.638893, Alt.=112.930725m. Speed=32.147999m/h.</desc>
<speed>8.930000</speed>
</trkpt>
<trkpt lat="55.930813" lon="26.638834">
<ele>112.676819</ele>
<time>2010-06-20T13:38:14Z</time>
<desc>lat.=55.930813, lon.=26.638834, Alt.=112.676819m. Speed=32.327999m/h.</desc>
<speed>8.980000</speed>
</trkpt>
<trkpt lat="55.930740" lon="26.638771">
<ele>112.522522</ele>
<time>2010-06-20T13:38:15Z</time>
<desc>lat.=55.930740, lon.=26.638771, Alt.=112.522522m. Speed=32.004002m/h.</desc>
<speed>8.890000</speed>
</trkpt>
<trkpt lat="55.930668" lon="26.638702">
<ele>112.323303</ele>
<time>2010-06-20T13:38:16Z</time>
<desc>lat.=55.930668, lon.=26.638702, Alt.=112.323303m. Speed=31.572001m/h.</desc>
<speed>8.770000</speed>
</trkpt>
<trkpt lat="55.930599" lon="26.638638">
<ele>112.262756</ele>
<time>2010-06-20T13:38:17Z</time>
<desc>lat.=55.930599, lon.=26.638638, Alt.=112.262756m. Speed=31.823999m/h.</desc>
<speed>8.840000</speed>
</trkpt>
<trkpt lat="55.930527" lon="26.638575">
<ele>112.481506</ele>
<time>2010-06-20T13:38:18Z</time>
<desc>lat.=55.930527, lon.=26.638575, Alt.=112.481506m. Speed=31.608000m/h.</desc>
<speed>8.780000</speed>
</trkpt>
<trkpt lat="55.930454" lon="26.638514">
<ele>112.479553</ele>
<time>2010-06-20T13:38:19Z</time>
<desc>lat.=55.930454, lon.=26.638514, Alt.=112.479553m. Speed=31.427999m/h.</desc>
<speed>8.730000</speed>
</trkpt>
<trkpt lat="55.930386" lon="26.638451">
<ele>112.516663</ele>
<time>2010-06-20T13:38:20Z</time>
<desc>lat.=55.930386, lon.=26.638451, Alt.=112.516663m. Speed=31.320000m/h.</desc>
<speed>8.700000</speed>
</trkpt>
<trkpt lat="55.930317" lon="26.638390">
<ele>112.651428</ele>
<time>2010-06-20T13:38:21Z</time>
<desc>lat.=55.930317, lon.=26.638390, Alt.=112.651428m. Speed=30.816000m/h.</desc>
<speed>8.560000</speed>
</trkpt>
<trkpt lat="55.930248" lon="26.638327">
<ele>112.583069</ele>
<time>2010-06-20T13:38:22Z</time>
<desc>lat.=55.930248, lon.=26.638327, Alt.=112.583069m. Speed=30.204000m/h.</desc>
<speed>8.390000</speed>
</trkpt>
<trkpt lat="55.930180" lon="26.638264">
<ele>112.559631</ele>
<time>2010-06-20T13:38:23Z</time>
<desc>lat.=55.930180, lon.=26.638264, Alt.=112.559631m. Speed=30.455999m/h.</desc>
<speed>8.460000</speed>
</trkpt>
<trkpt lat="55.930115" lon="26.638201">
<ele>112.567444</ele>
<time>2010-06-20T13:38:24Z</time>
<desc>lat.=55.930115, lon.=26.638201, Alt.=112.567444m. Speed=29.808001m/h.</desc>
<speed>8.280000</speed>
</trkpt>
<trkpt lat="55.930050" lon="26.638136">
<ele>112.538147</ele>
<time>2010-06-20T13:38:25Z</time>
<desc>lat.=55.930050, lon.=26.638136, Alt.=112.538147m. Speed=29.556000m/h.</desc>
<speed>8.210000</speed>
</trkpt>
<trkpt lat="55.929985" lon="26.638081">
<ele>112.606506</ele>
<time>2010-06-20T13:38:26Z</time>
<desc>lat.=55.929985, lon.=26.638081, Alt.=112.606506m. Speed=26.639999m/h.</desc>
<speed>7.400000</speed>
</trkpt>
<trkpt lat="55.929935" lon="26.638033">
<ele>112.686584</ele>
<time>2010-06-20T13:38:27Z</time>
<desc>lat.=55.929935, lon.=26.638033, Alt.=112.686584m. Speed=19.476000m/h.</desc>
<speed>5.410000</speed>
</trkpt>
<trkpt lat="55.929901" lon="26.637999">
<ele>112.877991</ele>
<time>2010-06-20T13:38:28Z</time>
<desc>lat.=55.929901, lon.=26.637999, Alt.=112.877991m. Speed=13.284000m/h.</desc>
<speed>3.690000</speed>
</trkpt>
<trkpt lat="55.929882" lon="26.637970">
<ele>112.805725</ele>
<time>2010-06-20T13:38:29Z</time>
<desc>lat.=55.929882, lon.=26.637970, Alt.=112.805725m. Speed=8.568000m/h.</desc>
<speed>2.380000</speed>
</trkpt>
<trkpt lat="55.929871" lon="26.637951">
<ele>112.569397</ele>
<time>2010-06-20T13:38:30Z</time>
<desc>lat.=55.929871, lon.=26.637951, Alt.=112.569397m. Speed=4.824000m/h.</desc>
<speed>1.340000</speed>
</trkpt>
<trkpt lat="55.929867" lon="26.637938">
<ele>112.485413</ele>
<time>2010-06-20T13:38:31Z</time>
<desc>lat.=55.929867, lon.=26.637938, Alt.=112.485413m. Speed=0.360000m/h.</desc>
<speed>0.100000</speed>
</trkpt>
<trkpt lat="55.929867" lon="26.637947">
<ele>112.335022</ele>
<time>2010-06-20T13:38:32Z</time>
<desc>lat.=55.929867, lon.=26.637947, Alt.=112.335022m. Speed=0.828000m/h.</desc>
<speed>0.230000</speed>
</trkpt>
<trkpt lat="55.929871" lon="26.637949">
<ele>112.358459</ele>
<time>2010-06-20T13:38:33Z</time>
<desc>lat.=55.929871, lon.=26.637949, Alt.=112.358459m. Speed=0.684000m/h.</desc>
<speed>0.190000</speed>
</trkpt>
<trkpt lat="55.929874" lon="26.637953">
<ele>112.200256</ele>
<time>2010-06-20T13:38:34Z</time>
<desc>lat.=55.929874, lon.=26.637953, Alt.=112.200256m. Speed=0.612000m/h.</desc>
<speed>0.170000</speed>
</trkpt>
<trkpt lat="55.929874" lon="26.637955">
<ele>112.167053</ele>
<time>2010-06-20T13:38:35Z</time>
<desc>lat.=55.929874, lon.=26.637955, Alt.=112.167053m. Speed=0.396000m/h.</desc>
<speed>0.110000</speed>
</trkpt>
<trkpt lat="55.929874" lon="26.637957">
<ele>112.133850</ele>
<time>2010-06-20T13:38:36Z</time>
<desc>lat.=55.929874, lon.=26.637957, Alt.=112.133850m. Speed=0.540000m/h.</desc>
<speed>0.150000</speed>
</trkpt>
<trkpt lat="55.929874" lon="26.637959">
<ele>112.104553</ele>
<time>2010-06-20T13:38:37Z</time>
<desc>lat.=55.929874, lon.=26.637959, Alt.=112.104553m. Speed=0.360000m/h.</desc>
<speed>0.100000</speed>
</trkpt>
<trkpt lat="55.929874" lon="26.637960">
<ele>112.077209</ele>
<time>2010-06-20T13:38:38Z</time>
<desc>lat.=55.929874, lon.=26.637960, Alt.=112.077209m. Speed=0.216000m/h.</desc>
<speed>0.060000</speed>
</trkpt>
<trkpt lat="55.929878" lon="26.637960">
<ele>112.055725</ele>
<time>2010-06-20T13:38:39Z</time>
<desc>lat.=55.929878, lon.=26.637960, Alt.=112.055725m. Speed=0.144000m/h.</desc>
<speed>0.040000</speed>
</trkpt>
<trkpt lat="55.929878" lon="26.637960">
<ele>112.038147</ele>
<time>2010-06-20T13:38:40Z</time>
<desc>lat.=55.929878, lon.=26.637960, Alt.=112.038147m. Speed=0.252000m/h.</desc>
<speed>0.070000</speed>
</trkpt>
<trkpt lat="55.929878" lon="26.637962">
<ele>112.022522</ele>
<time>2010-06-20T13:38:41Z</time>
<desc>lat.=55.929878, lon.=26.637962, Alt.=112.022522m. Speed=0.108000m/h.</desc>
<speed>0.030000</speed>
</trkpt>
<trkpt lat="55.929878" lon="26.637962">
<ele>112.016663</ele>
<time>2010-06-20T13:38:42Z</time>
<desc>lat.=55.929878, lon.=26.637962, Alt.=112.016663m. Speed=0.072000m/h.</desc>
<speed>0.020000</speed>
</trkpt>
<trkpt lat="55.929878" lon="26.637962">
<ele>112.020569</ele>
<time>2010-06-20T13:38:43Z</time>
<desc>lat.=55.929878, lon.=26.637962, Alt.=112.020569m. Speed=0.432000m/h.</desc>
<speed>0.120000</speed>
</trkpt>
<trkpt lat="55.929878" lon="26.637960">
<ele>112.020569</ele>
<time>2010-06-20T13:38:44Z</time>
<desc>lat.=55.929878, lon.=26.637960, Alt.=112.020569m. Speed=1.620000m/h.</desc>
<speed>0.450000</speed>
</trkpt>
<trkpt lat="55.929874" lon="26.637953">
<ele>112.188538</ele>
<time>2010-06-20T13:38:45Z</time>
<desc>lat.=55.929874, lon.=26.637953, Alt.=112.188538m. Speed=4.608000m/h.</desc>
<speed>1.280000</speed>
</trkpt>
<trkpt lat="55.929867" lon="26.637928">
<ele>112.155334</ele>
<time>2010-06-20T13:38:46Z</time>
<desc>lat.=55.929867, lon.=26.637928, Alt.=112.155334m. Speed=6.228000m/h.</desc>
<speed>1.730000</speed>
</trkpt>
<trkpt lat="55.929855" lon="26.637897">
<ele>112.221741</ele>
<time>2010-06-20T13:38:47Z</time>
<desc>lat.=55.929855, lon.=26.637897, Alt.=112.221741m. Speed=6.516000m/h.</desc>
<speed>1.810000</speed>
</trkpt>
<trkpt lat="55.929852" lon="26.637875">
<ele>112.243225</ele>
<time>2010-06-20T13:38:48Z</time>
<desc>lat.=55.929852, lon.=26.637875, Alt.=112.243225m. Speed=4.572000m/h.</desc>
<speed>1.270000</speed>
</trkpt>
<trkpt lat="55.929848" lon="26.637846">
<ele>111.790100</ele>
<time>2010-06-20T13:38:49Z</time>
<desc>lat.=55.929848, lon.=26.637846, Alt.=111.790100m. Speed=6.336000m/h.</desc>
<speed>1.760000</speed>
</trkpt>
<trkpt lat="55.929844" lon="26.637814">
<ele>111.717834</ele>
<time>2010-06-20T13:38:50Z</time>
<desc>lat.=55.929844, lon.=26.637814, Alt.=111.717834m. Speed=5.364000m/h.</desc>
<speed>1.490000</speed>
</trkpt>
<trkpt lat="55.929844" lon="26.637785">
<ele>111.600647</ele>
<time>2010-06-20T13:38:51Z</time>
<desc>lat.=55.929844, lon.=26.637785, Alt.=111.600647m. Speed=4.968000m/h.</desc>
<speed>1.380000</speed>
</trkpt>
<trkpt lat="55.929840" lon="26.637758">
<ele>111.575256</ele>
<time>2010-06-20T13:38:52Z</time>
<desc>lat.=55.929840, lon.=26.637758, Alt.=111.575256m. Speed=5.436000m/h.</desc>
<speed>1.510000</speed>
</trkpt>
<trkpt lat="55.929836" lon="26.637735">
<ele>111.600647</ele>
<time>2010-06-20T13:38:53Z</time>
<desc>lat.=55.929836, lon.=26.637735, Alt.=111.600647m. Speed=5.508000m/h.</desc>
<speed>1.530000</speed>
</trkpt>
<trkpt lat="55.929832" lon="26.637703">
<ele>111.575256</ele>
<time>2010-06-20T13:38:54Z</time>
<desc>lat.=55.929832, lon.=26.637703, Alt.=111.575256m. Speed=6.984000m/h.</desc>
<speed>1.940000</speed>
</trkpt>
<trkpt lat="55.929832" lon="26.637667">
<ele>111.342834</ele>
<time>2010-06-20T13:38:55Z</time>
<desc>lat.=55.929832, lon.=26.637667, Alt.=111.342834m. Speed=8.028000m/h.</desc>
<speed>2.230000</speed>
</trkpt>
<trkpt lat="55.929825" lon="26.637621">
<ele>111.256897</ele>
<time>2010-06-20T13:38:56Z</time>
<desc>lat.=55.929825, lon.=26.637621, Alt.=111.256897m. Speed=6.984000m/h.</desc>
<speed>1.940000</speed>
</trkpt>
<trkpt lat="55.929821" lon="26.637579">
<ele>111.090881</ele>
<time>2010-06-20T13:38:57Z</time>
<desc>lat.=55.929821, lon.=26.637579, Alt.=111.090881m. Speed=9.072000m/h.</desc>
<speed>2.520000</speed>
</trkpt>
<trkpt lat="55.929813" lon="26.637535">
<ele>110.954163</ele>
<time>2010-06-20T13:38:58Z</time>
<desc>lat.=55.929813, lon.=26.637535, Alt.=110.954163m. Speed=9.072000m/h.</desc>
<speed>2.520000</speed>
</trkpt>
<trkpt lat="55.929810" lon="26.637497">
<ele>110.715881</ele>
<time>2010-06-20T13:38:59Z</time>
<desc>lat.=55.929810, lon.=26.637497, Alt.=110.715881m. Speed=9.216000m/h.</desc>
<speed>2.560000</speed>
</trkpt>
<trkpt lat="55.929806" lon="26.637451">
<ele>110.657288</ele>
<time>2010-06-20T13:39:00Z</time>
<desc>lat.=55.929806, lon.=26.637451, Alt.=110.657288m. Speed=9.360000m/h.</desc>
<speed>2.600000</speed>
</trkpt>
<trkpt lat="55.929794" lon="26.637407">
<ele>110.508850</ele>
<time>2010-06-20T13:39:01Z</time>
<desc>lat.=55.929794, lon.=26.637407, Alt.=110.508850m. Speed=9.432000m/h.</desc>
<speed>2.620000</speed>
</trkpt>
<trkpt lat="55.929787" lon="26.637365">
<ele>110.370178</ele>
<time>2010-06-20T13:39:02Z</time>
<desc>lat.=55.929787, lon.=26.637365, Alt.=110.370178m. Speed=8.928000m/h.</desc>
<speed>2.480000</speed>
</trkpt>
<trkpt lat="55.929779" lon="26.637329">
<ele>110.879944</ele>
<time>2010-06-20T13:39:03Z</time>
<desc>lat.=55.929779, lon.=26.637329, Alt.=110.879944m. Speed=8.928000m/h.</desc>
<speed>2.480000</speed>
</trkpt>
<trkpt lat="55.929768" lon="26.637297">
<ele>111.268616</ele>
<time>2010-06-20T13:39:04Z</time>
<desc>lat.=55.929768, lon.=26.637297, Alt.=111.268616m. Speed=8.532000m/h.</desc>
<speed>2.370000</speed>
</trkpt>
<trkpt lat="55.929756" lon="26.637264">
<ele>111.083069</ele>
<time>2010-06-20T13:39:05Z</time>
<desc>lat.=55.929756, lon.=26.637264, Alt.=111.083069m. Speed=8.424000m/h.</desc>
<speed>2.340000</speed>
</trkpt>
<trkpt lat="55.929737" lon="26.637245">
<ele>110.657288</ele>
<time>2010-06-20T13:39:06Z</time>
<desc>lat.=55.929737, lon.=26.637245, Alt.=110.657288m. Speed=10.008000m/h.</desc>
<speed>2.780000</speed>
</trkpt>
<trkpt lat="55.929714" lon="26.637249">
<ele>110.579163</ele>
<time>2010-06-20T13:39:07Z</time>
<desc>lat.=55.929714, lon.=26.637249, Alt.=110.579163m. Speed=8.208000m/h.</desc>
<speed>2.280000</speed>
</trkpt>
<trkpt lat="55.929695" lon="26.637270">
<ele>110.643616</ele>
<time>2010-06-20T13:39:08Z</time>
<desc>lat.=55.929695, lon.=26.637270, Alt.=110.643616m. Speed=8.928000m/h.</desc>
<speed>2.480000</speed>
</trkpt>
<trkpt lat="55.929676" lon="26.637293">
<ele>110.739319</ele>
<time>2010-06-20T13:39:09Z</time>
<desc>lat.=55.929676, lon.=26.637293, Alt.=110.739319m. Speed=9.324000m/h.</desc>
<speed>2.590000</speed>
</trkpt>
<trkpt lat="55.929661" lon="26.637320">
<ele>110.663147</ele>
<time>2010-06-20T13:39:10Z</time>
<desc>lat.=55.929661, lon.=26.637320, Alt.=110.663147m. Speed=9.216000m/h.</desc>
<speed>2.560000</speed>
</trkpt>
<trkpt lat="55.929646" lon="26.637346">
<ele>110.792053</ele>
<time>2010-06-20T13:39:11Z</time>
<desc>lat.=55.929646, lon.=26.637346, Alt.=110.792053m. Speed=10.044000m/h.</desc>
<speed>2.790000</speed>
</trkpt>
<trkpt lat="55.929630" lon="26.637373">
<ele>111.169006</ele>
<time>2010-06-20T13:39:12Z</time>
<desc>lat.=55.929630, lon.=26.637373, Alt.=111.169006m. Speed=8.712000m/h.</desc>
<speed>2.420000</speed>
</trkpt>
<trkpt lat="55.929607" lon="26.637398">
<ele>111.559631</ele>
<time>2010-06-20T13:39:13Z</time>
<desc>lat.=55.929607, lon.=26.637398, Alt.=111.559631m. Speed=11.124000m/h.</desc>
<speed>3.090000</speed>
</trkpt>
<trkpt lat="55.929585" lon="26.637415">
<ele>111.702209</ele>
<time>2010-06-20T13:39:14Z</time>
<desc>lat.=55.929585, lon.=26.637415, Alt.=111.702209m. Speed=9.504000m/h.</desc>
<speed>2.640000</speed>
</trkpt>
<trkpt lat="55.929562" lon="26.637428">
<ele>112.260803</ele>
<time>2010-06-20T13:39:15Z</time>
<desc>lat.=55.929562, lon.=26.637428, Alt.=112.260803m. Speed=9.324000m/h.</desc>
<speed>2.590000</speed>
</trkpt>
<trkpt lat="55.929539" lon="26.637440">
<ele>112.147522</ele>
<time>2010-06-20T13:39:16Z</time>
<desc>lat.=55.929539, lon.=26.637440, Alt.=112.147522m. Speed=8.100000m/h.</desc>
<speed>2.250000</speed>
</trkpt>
<trkpt lat="55.929523" lon="26.637449">
<ele>112.540100</ele>
<time>2010-06-20T13:39:17Z</time>
<desc>lat.=55.929523, lon.=26.637449, Alt.=112.540100m. Speed=6.696000m/h.</desc>
<speed>1.860000</speed>
</trkpt>
<trkpt lat="55.929508" lon="26.637457">
<ele>113.002991</ele>
<time>2010-06-20T13:39:18Z</time>
<desc>lat.=55.929508, lon.=26.637457, Alt.=113.002991m. Speed=5.688000m/h.</desc>
<speed>1.580000</speed>
</trkpt>
<trkpt lat="55.929497" lon="26.637457">
<ele>113.424866</ele>
<time>2010-06-20T13:39:19Z</time>
<desc>lat.=55.929497, lon.=26.637457, Alt.=113.424866m. Speed=3.996000m/h.</desc>
<speed>1.110000</speed>
</trkpt>
<trkpt lat="55.929493" lon="26.637453">
<ele>113.752991</ele>
<time>2010-06-20T13:39:20Z</time>
<desc>lat.=55.929493, lon.=26.637453, Alt.=113.752991m. Speed=0.396000m/h.</desc>
<speed>0.110000</speed>
</trkpt>
<trkpt lat="55.929493" lon="26.637449">
<ele>114.004944</ele>
<time>2010-06-20T13:39:21Z</time>
<desc>lat.=55.929493, lon.=26.637449, Alt.=114.004944m. Speed=0.144000m/h.</desc>
<speed>0.040000</speed>
</trkpt>
<trkpt lat="55.929493" lon="26.637445">
<ele>114.215881</ele>
<time>2010-06-20T13:39:22Z</time>
<desc>lat.=55.929493, lon.=26.637445, Alt.=114.215881m. Speed=0.216000m/h.</desc>
<speed>0.060000</speed>
</trkpt>
<trkpt lat="55.929493" lon="26.637445">
<ele>114.258850</ele>
<time>2010-06-20T13:39:23Z</time>
<desc>lat.=55.929493, lon.=26.637445, Alt.=114.258850m. Speed=0.036000m/h.</desc>
<speed>0.010000</speed>
</trkpt>
<trkpt lat="55.929493" lon="26.637445">
<ele>114.247131</ele>
<time>2010-06-20T13:39:24Z</time>
<desc>lat.=55.929493, lon.=26.637445, Alt.=114.247131m. Speed=0.144000m/h.</desc>
<speed>0.040000</speed>
</trkpt>
<trkpt lat="55.929497" lon="26.637444">
<ele>114.229553</ele>
<time>2010-06-20T13:39:25Z</time>
<desc>lat.=55.929497, lon.=26.637444, Alt.=114.229553m. Speed=0.144000m/h.</desc>
<speed>0.040000</speed>
</trkpt>
<trkpt lat="55.929493" lon="26.637444">
<ele>114.206116</ele>
<time>2010-06-20T13:39:26Z</time>
<desc>lat.=55.929493, lon.=26.637444, Alt.=114.206116m. Speed=0.072000m/h.</desc>
<speed>0.020000</speed>
</trkpt>
<trkpt lat="55.929493" lon="26.637444">
<ele>114.192444</ele>
<time>2010-06-20T13:39:27Z</time>
<desc>lat.=55.929493, lon.=26.637444, Alt.=114.192444m. Speed=0.108000m/h.</desc>
<speed>0.030000</speed>
</trkpt>
<trkpt lat="55.929493" lon="26.637444">
<ele>114.167053</ele>
<time>2010-06-20T13:39:28Z</time>
<desc>lat.=55.929493, lon.=26.637444, Alt.=114.167053m. Speed=0.036000m/h.</desc>
<speed>0.010000</speed>
</trkpt>
<trkpt lat="55.929497" lon="26.637444">
<ele>114.186584</ele>
<time>2010-06-20T13:39:29Z</time>
<desc>lat.=55.929497, lon.=26.637444, Alt.=114.186584m. Speed=0.792000m/h.</desc>
<speed>0.220000</speed>
</trkpt>
<trkpt lat="55.929493" lon="26.637445">
<ele>114.210022</ele>
<time>2010-06-20T13:39:30Z</time>
<desc>lat.=55.929493, lon.=26.637445, Alt.=114.210022m. Speed=3.672000m/h.</desc>
<speed>1.020000</speed>
</trkpt>
<trkpt lat="55.929485" lon="26.637457">
<ele>114.409241</ele>
<time>2010-06-20T13:39:31Z</time>
<desc>lat.=55.929485, lon.=26.637457, Alt.=114.409241m. Speed=5.400000m/h.</desc>
<speed>1.500000</speed>
</trkpt>
<trkpt lat="55.929470" lon="26.637465">
<ele>114.676819</ele>
<time>2010-06-20T13:39:32Z</time>
<desc>lat.=55.929470, lon.=26.637465, Alt.=114.676819m. Speed=6.444000m/h.</desc>
<speed>1.790000</speed>
</trkpt>
<trkpt lat="55.929455" lon="26.637474">
<ele>114.954163</ele>
<time>2010-06-20T13:39:33Z</time>
<desc>lat.=55.929455, lon.=26.637474, Alt.=114.954163m. Speed=7.884000m/h.</desc>
<speed>2.190000</speed>
</trkpt>
<trkpt lat="55.929432" lon="26.637470">
<ele>114.897522</ele>
<time>2010-06-20T13:39:34Z</time>
<desc>lat.=55.929432, lon.=26.637470, Alt.=114.897522m. Speed=8.352000m/h.</desc>
<speed>2.320000</speed>
</trkpt>
<trkpt lat="55.929409" lon="26.637457">
<ele>115.012756</ele>
<time>2010-06-20T13:39:35Z</time>
<desc>lat.=55.929409, lon.=26.637457, Alt.=115.012756m. Speed=11.052000m/h.</desc>
<speed>3.070000</speed>
</trkpt>
<trkpt lat="55.929379" lon="26.637438">
<ele>115.169006</ele>
<time>2010-06-20T13:39:36Z</time>
<desc>lat.=55.929379, lon.=26.637438, Alt.=115.169006m. Speed=12.708000m/h.</desc>
<speed>3.530000</speed>
</trkpt>
<trkpt lat="55.929344" lon="26.637415">
<ele>115.286194</ele>
<time>2010-06-20T13:39:37Z</time>
<desc>lat.=55.929344, lon.=26.637415, Alt.=115.286194m. Speed=13.824000m/h.</desc>
<speed>3.840000</speed>
</trkpt>
<trkpt lat="55.929314" lon="26.637388">
<ele>115.395569</ele>
<time>2010-06-20T13:39:38Z</time>
<desc>lat.=55.929314, lon.=26.637388, Alt.=115.395569m. Speed=14.220000m/h.</desc>
<speed>3.950000</speed>
</trkpt>
<trkpt lat="55.929276" lon="26.637358">
<ele>115.323303</ele>
<time>2010-06-20T13:39:39Z</time>
<desc>lat.=55.929276, lon.=26.637358, Alt.=115.323303m. Speed=15.228000m/h.</desc>
<speed>4.230000</speed>
</trkpt>
<trkpt lat="55.929241" lon="26.637323">
<ele>115.249084</ele>
<time>2010-06-20T13:39:40Z</time>
<desc>lat.=55.929241, lon.=26.637323, Alt.=115.249084m. Speed=16.020000m/h.</desc>
<speed>4.450000</speed>
</trkpt>
<trkpt lat="55.929203" lon="26.637291">
<ele>115.053772</ele>
<time>2010-06-20T13:39:41Z</time>
<desc>lat.=55.929203, lon.=26.637291, Alt.=115.053772m. Speed=16.667999m/h.</desc>
<speed>4.630000</speed>
</trkpt>
<trkpt lat="55.929169" lon="26.637255">
<ele>114.944397</ele>
<time>2010-06-20T13:39:42Z</time>
<desc>lat.=55.929169, lon.=26.637255, Alt.=114.944397m. Speed=17.388000m/h.</desc>
<speed>4.830000</speed>
</trkpt>
<trkpt lat="55.929127" lon="26.637213">
<ele>114.786194</ele>
<time>2010-06-20T13:39:43Z</time>
<desc>lat.=55.929127, lon.=26.637213, Alt.=114.786194m. Speed=18.504000m/h.</desc>
<speed>5.140000</speed>
</trkpt>
<trkpt lat="55.929085" lon="26.637177">
<ele>114.805725</ele>
<time>2010-06-20T13:39:44Z</time>
<desc>lat.=55.929085, lon.=26.637177, Alt.=114.805725m. Speed=18.288000m/h.</desc>
<speed>5.080000</speed>
</trkpt>
<trkpt lat="55.929039" lon="26.637140">
<ele>114.727600</ele>
<time>2010-06-20T13:39:45Z</time>
<desc>lat.=55.929039, lon.=26.637140, Alt.=114.727600m. Speed=19.115999m/h.</desc>
<speed>5.310000</speed>
</trkpt>
<trkpt lat="55.928993" lon="26.637102">
<ele>114.752991</ele>
<time>2010-06-20T13:39:46Z</time>
<desc>lat.=55.928993, lon.=26.637102, Alt.=114.752991m. Speed=20.195999m/h.</desc>
<speed>5.610000</speed>
</trkpt>
<trkpt lat="55.928947" lon="26.637058">
<ele>114.635803</ele>
<time>2010-06-20T13:39:47Z</time>
<desc>lat.=55.928947, lon.=26.637058, Alt.=114.635803m. Speed=19.691999m/h.</desc>
<speed>5.470000</speed>
</trkpt>
<trkpt lat="55.928902" lon="26.637020">
<ele>114.499084</ele>
<time>2010-06-20T13:39:48Z</time>
<desc>lat.=55.928902, lon.=26.637020, Alt.=114.499084m. Speed=20.052000m/h.</desc>
<speed>5.570000</speed>
</trkpt>
<trkpt lat="55.928852" lon="26.636984">
<ele>114.807678</ele>
<time>2010-06-20T13:39:49Z</time>
<desc>lat.=55.928852, lon.=26.636984, Alt.=114.807678m. Speed=20.304001m/h.</desc>
<speed>5.640000</speed>
</trkpt>
<trkpt lat="55.928802" lon="26.636951">
<ele>114.961975</ele>
<time>2010-06-20T13:39:50Z</time>
<desc>lat.=55.928802, lon.=26.636951, Alt.=114.961975m. Speed=20.916000m/h.</desc>
<speed>5.810000</speed>
</trkpt>
<trkpt lat="55.928749" lon="26.636919">
<ele>115.081116</ele>
<time>2010-06-20T13:39:51Z</time>
<desc>lat.=55.928749, lon.=26.636919, Alt.=115.081116m. Speed=21.312000m/h.</desc>
<speed>5.920000</speed>
</trkpt>
<trkpt lat="55.928696" lon="26.636881">
<ele>114.928772</ele>
<time>2010-06-20T13:39:52Z</time>
<desc>lat.=55.928696, lon.=26.636881, Alt.=114.928772m. Speed=21.780001m/h.</desc>
<speed>6.050000</speed>
</trkpt>
<trkpt lat="55.928646" lon="26.636839">
<ele>114.827209</ele>
<time>2010-06-20T13:39:53Z</time>
<desc>lat.=55.928646, lon.=26.636839, Alt.=114.827209m. Speed=22.392000m/h.</desc>
<speed>6.220000</speed>
</trkpt>
<trkpt lat="55.928593" lon="26.636795">
<ele>115.008850</ele>
<time>2010-06-20T13:39:54Z</time>
<desc>lat.=55.928593, lon.=26.636795, Alt.=115.008850m. Speed=22.680000m/h.</desc>
<speed>6.300000</speed>
</trkpt>
<trkpt lat="55.928543" lon="26.636749">
<ele>115.028381</ele>
<time>2010-06-20T13:39:55Z</time>
<desc>lat.=55.928543, lon.=26.636749, Alt.=115.028381m. Speed=23.076000m/h.</desc>
<speed>6.410000</speed>
</trkpt>
<trkpt lat="55.928490" lon="26.636703">
<ele>115.045959</ele>
<time>2010-06-20T13:39:56Z</time>
<desc>lat.=55.928490, lon.=26.636703, Alt.=115.045959m. Speed=23.219999m/h.</desc>
<speed>6.450000</speed>
</trkpt>
<trkpt lat="55.928440" lon="26.636656">
<ele>114.987366</ele>
<time>2010-06-20T13:39:57Z</time>
<desc>lat.=55.928440, lon.=26.636656, Alt.=114.987366m. Speed=22.608000m/h.</desc>
<speed>6.280000</speed>
</trkpt>
<trkpt lat="55.928391" lon="26.636612">
<ele>114.930725</ele>
<time>2010-06-20T13:39:58Z</time>
<desc>lat.=55.928391, lon.=26.636612, Alt.=114.930725m. Speed=23.040001m/h.</desc>
<speed>6.400000</speed>
</trkpt>
<trkpt lat="55.928337" lon="26.636564">
<ele>115.092834</ele>
<time>2010-06-20T13:39:59Z</time>
<desc>lat.=55.928337, lon.=26.636564, Alt.=115.092834m. Speed=23.148001m/h.</desc>
<speed>6.430000</speed>
</trkpt>
<trkpt lat="55.928288" lon="26.636517">
<ele>115.145569</ele>
<time>2010-06-20T13:40:00Z</time>
<desc>lat.=55.928288, lon.=26.636517, Alt.=115.145569m. Speed=22.680000m/h.</desc>
<speed>6.300000</speed>
</trkpt>
<trkpt lat="55.928238" lon="26.636473">
<ele>115.489319</ele>
<time>2010-06-20T13:40:01Z</time>
<desc>lat.=55.928238, lon.=26.636473, Alt.=115.489319m. Speed=23.507999m/h.</desc>
<speed>6.530000</speed>
</trkpt>
<trkpt lat="55.928185" lon="26.636425">
<ele>116.085022</ele>
<time>2010-06-20T13:40:02Z</time>
<desc>lat.=55.928185, lon.=26.636425, Alt.=116.085022m. Speed=24.804001m/h.</desc>
<speed>6.890000</speed>
</trkpt>
<trkpt lat="55.928131" lon="26.636379">
<ele>116.290100</ele>
<time>2010-06-20T13:40:03Z</time>
<desc>lat.=55.928131, lon.=26.636379, Alt.=116.290100m. Speed=23.327999m/h.</desc>
<speed>6.480000</speed>
</trkpt>
<trkpt lat="55.928078" lon="26.636332">
<ele>116.338928</ele>
<time>2010-06-20T13:40:04Z</time>
<desc>lat.=55.928078, lon.=26.636332, Alt.=116.338928m. Speed=22.860001m/h.</desc>
<speed>6.350000</speed>
</trkpt>
<trkpt lat="55.928024" lon="26.636286">
<ele>116.260803</ele>
<time>2010-06-20T13:40:05Z</time>
<desc>lat.=55.928024, lon.=26.636286, Alt.=116.260803m. Speed=23.327999m/h.</desc>
<speed>6.480000</speed>
</trkpt>
<trkpt lat="55.927979" lon="26.636248">
<ele>116.919006</ele>
<time>2010-06-20T13:40:06Z</time>
<desc>lat.=55.927979, lon.=26.636248, Alt.=116.919006m. Speed=18.180000m/h.</desc>
<speed>5.050000</speed>
</trkpt>
<trkpt lat="55.927925" lon="26.636202">
<ele>117.088928</ele>
<time>2010-06-20T13:40:07Z</time>
<desc>lat.=55.927925, lon.=26.636202, Alt.=117.088928m. Speed=23.868000m/h.</desc>
<speed>6.630000</speed>
</trkpt>
<trkpt lat="55.927868" lon="26.636145">
<ele>117.379944</ele>
<time>2010-06-20T13:40:08Z</time>
<desc>lat.=55.927868, lon.=26.636145, Alt.=117.379944m. Speed=23.544001m/h.</desc>
<speed>6.540000</speed>
</trkpt>
<trkpt lat="55.927811" lon="26.636095">
<ele>117.670959</ele>
<time>2010-06-20T13:40:09Z</time>
<desc>lat.=55.927811, lon.=26.636095, Alt.=117.670959m. Speed=23.256001m/h.</desc>
<speed>6.460000</speed>
</trkpt>
<trkpt lat="55.927753" lon="26.636053">
<ele>118.133850</ele>
<time>2010-06-20T13:40:10Z</time>
<desc>lat.=55.927753, lon.=26.636053, Alt.=118.133850m. Speed=21.996000m/h.</desc>
<speed>6.110000</speed>
</trkpt>
<trkpt lat="55.927700" lon="26.636002">
<ele>118.303772</ele>
<time>2010-06-20T13:40:11Z</time>
<desc>lat.=55.927700, lon.=26.636002, Alt.=118.303772m. Speed=22.068001m/h.</desc>
<speed>6.130000</speed>
</trkpt>
<trkpt lat="55.927647" lon="26.635956">
<ele>118.477600</ele>
<time>2010-06-20T13:40:12Z</time>
<desc>lat.=55.927647, lon.=26.635956, Alt.=118.477600m. Speed=21.275999m/h.</desc>
<speed>5.910000</speed>
</trkpt>
<trkpt lat="55.927601" lon="26.635914">
<ele>119.075256</ele>
<time>2010-06-20T13:40:13Z</time>
<desc>lat.=55.927601, lon.=26.635914, Alt.=119.075256m. Speed=22.284000m/h.</desc>
<speed>6.190000</speed>
</trkpt>
<trkpt lat="55.927547" lon="26.635868">
<ele>119.446350</ele>
<time>2010-06-20T13:40:14Z</time>
<desc>lat.=55.927547, lon.=26.635868, Alt.=119.446350m. Speed=21.996000m/h.</desc>
<speed>6.110000</speed>
</trkpt>
<trkpt lat="55.927498" lon="26.635828">
<ele>119.967834</ele>
<time>2010-06-20T13:40:15Z</time>
<desc>lat.=55.927498, lon.=26.635828, Alt.=119.967834m. Speed=21.059999m/h.</desc>
<speed>5.850000</speed>
</trkpt>
<trkpt lat="55.927448" lon="26.635782">
<ele>119.934631</ele>
<time>2010-06-20T13:40:16Z</time>
<desc>lat.=55.927448, lon.=26.635782, Alt.=119.934631m. Speed=22.392000m/h.</desc>
<speed>6.220000</speed>
</trkpt>
<trkpt lat="55.927395" lon="26.635738">
<ele>119.626038</ele>
<time>2010-06-20T13:40:17Z</time>
<desc>lat.=55.927395, lon.=26.635738, Alt.=119.626038m. Speed=22.068001m/h.</desc>
<speed>6.130000</speed>
</trkpt>
<trkpt lat="55.927345" lon="26.635696">
<ele>119.840881</ele>
<time>2010-06-20T13:40:18Z</time>
<desc>lat.=55.927345, lon.=26.635696, Alt.=119.840881m. Speed=21.563999m/h.</desc>
<speed>5.990000</speed>
</trkpt>
<trkpt lat="55.927296" lon="26.635653">
<ele>120.092834</ele>
<time>2010-06-20T13:40:19Z</time>
<desc>lat.=55.927296, lon.=26.635653, Alt.=120.092834m. Speed=21.851999m/h.</desc>
<speed>6.070000</speed>
</trkpt>
<trkpt lat="55.927242" lon="26.635609">
<ele>120.483459</ele>
<time>2010-06-20T13:40:20Z</time>
<desc>lat.=55.927242, lon.=26.635609, Alt.=120.483459m. Speed=22.968000m/h.</desc>
<speed>6.380000</speed>
</trkpt>
<trkpt lat="55.927189" lon="26.635565">
<ele>120.534241</ele>
<time>2010-06-20T13:40:21Z</time>
<desc>lat.=55.927189, lon.=26.635565, Alt.=120.534241m. Speed=22.860001m/h.</desc>
<speed>6.350000</speed>
</trkpt>
<trkpt lat="55.927135" lon="26.635515">
<ele>119.817444</ele>
<time>2010-06-20T13:40:22Z</time>
<desc>lat.=55.927135, lon.=26.635515, Alt.=119.817444m. Speed=21.959999m/h.</desc>
<speed>6.100000</speed>
</trkpt>
<trkpt lat="55.927090" lon="26.635469">
<ele>119.852600</ele>
<time>2010-06-20T13:40:23Z</time>
<desc>lat.=55.927090, lon.=26.635469, Alt.=119.852600m. Speed=22.896000m/h.</desc>
<speed>6.360000</speed>
</trkpt>
<trkpt lat="55.927040" lon="26.635424">
<ele>120.165100</ele>
<time>2010-06-20T13:40:24Z</time>
<desc>lat.=55.927040, lon.=26.635424, Alt.=120.165100m. Speed=23.796000m/h.</desc>
<speed>6.610000</speed>
</trkpt>
<trkpt lat="55.926983" lon="26.635374">
<ele>120.127991</ele>
<time>2010-06-20T13:40:25Z</time>
<desc>lat.=55.926983, lon.=26.635374, Alt.=120.127991m. Speed=22.104000m/h.</desc>
<speed>6.140000</speed>
</trkpt>
<trkpt lat="55.926933" lon="26.635326">
<ele>120.221741</ele>
<time>2010-06-20T13:40:26Z</time>
<desc>lat.=55.926933, lon.=26.635326, Alt.=120.221741m. Speed=22.680000m/h.</desc>
<speed>6.300000</speed>
</trkpt>
<trkpt lat="55.926880" lon="26.635283">
<ele>120.461975</ele>
<time>2010-06-20T13:40:27Z</time>
<desc>lat.=55.926880, lon.=26.635283, Alt.=120.461975m. Speed=22.643999m/h.</desc>
<speed>6.290000</speed>
</trkpt>
<trkpt lat="55.926826" lon="26.635235">
<ele>120.665100</ele>
<time>2010-06-20T13:40:28Z</time>
<desc>lat.=55.926826, lon.=26.635235, Alt.=120.665100m. Speed=22.608000m/h.</desc>
<speed>6.280000</speed>
</trkpt>
<trkpt lat="55.926773" lon="26.635189">
<ele>120.446350</ele>
<time>2010-06-20T13:40:29Z</time>
<desc>lat.=55.926773, lon.=26.635189, Alt.=120.446350m. Speed=24.624001m/h.</desc>
<speed>6.840000</speed>
</trkpt>
<trkpt lat="55.926716" lon="26.635145">
<ele>120.194397</ele>
<time>2010-06-20T13:40:30Z</time>
<desc>lat.=55.926716, lon.=26.635145, Alt.=120.194397m. Speed=21.743999m/h.</desc>
<speed>6.040000</speed>
</trkpt>
<trkpt lat="55.926662" lon="26.635098">
<ele>119.967834</ele>
<time>2010-06-20T13:40:31Z</time>
<desc>lat.=55.926662, lon.=26.635098, Alt.=119.967834m. Speed=23.040001m/h.</desc>
<speed>6.400000</speed>
</trkpt>
<trkpt lat="55.926609" lon="26.635054">
<ele>119.754944</ele>
<time>2010-06-20T13:40:32Z</time>
<desc>lat.=55.926609, lon.=26.635054, Alt.=119.754944m. Speed=21.348000m/h.</desc>
<speed>5.930000</speed>
</trkpt>
<trkpt lat="55.926556" lon="26.635002">
<ele>119.692444</ele>
<time>2010-06-20T13:40:33Z</time>
<desc>lat.=55.926556, lon.=26.635002, Alt.=119.692444m. Speed=22.500000m/h.</desc>
<speed>6.250000</speed>
</trkpt>
<trkpt lat="55.926510" lon="26.634958">
<ele>119.446350</ele>
<time>2010-06-20T13:40:34Z</time>
<desc>lat.=55.926510, lon.=26.634958, Alt.=119.446350m. Speed=21.384001m/h.</desc>
<speed>5.940000</speed>
</trkpt>
<trkpt lat="55.926456" lon="26.634914">
<ele>119.165100</ele>
<time>2010-06-20T13:40:35Z</time>
<desc>lat.=55.926456, lon.=26.634914, Alt.=119.165100m. Speed=21.420000m/h.</desc>
<speed>5.950000</speed>
</trkpt>
<trkpt lat="55.926414" lon="26.634871">
<ele>119.135803</ele>
<time>2010-06-20T13:40:36Z</time>
<desc>lat.=55.926414, lon.=26.634871, Alt.=119.135803m. Speed=20.340000m/h.</desc>
<speed>5.650000</speed>
</trkpt>
<trkpt lat="55.926369" lon="26.634830">
<ele>118.702209</ele>
<time>2010-06-20T13:40:37Z</time>
<desc>lat.=55.926369, lon.=26.634830, Alt.=118.702209m. Speed=19.511999m/h.</desc>
<speed>5.420000</speed>
</trkpt>
<trkpt lat="55.926327" lon="26.634789">
<ele>118.374084</ele>
<time>2010-06-20T13:40:38Z</time>
<desc>lat.=55.926327, lon.=26.634789, Alt.=118.374084m. Speed=19.296000m/h.</desc>
<speed>5.360000</speed>
</trkpt>
<trkpt lat="55.926281" lon="26.634748">
<ele>118.114319</ele>
<time>2010-06-20T13:40:39Z</time>
<desc>lat.=55.926281, lon.=26.634748, Alt.=118.114319m. Speed=19.799999m/h.</desc>
<speed>5.500000</speed>
</trkpt>
<trkpt lat="55.926235" lon="26.634701">
<ele>118.190491</ele>
<time>2010-06-20T13:40:40Z</time>
<desc>lat.=55.926235, lon.=26.634701, Alt.=118.190491m. Speed=19.799999m/h.</desc>
<speed>5.500000</speed>
</trkpt>
<trkpt lat="55.926186" lon="26.634661">
<ele>117.815491</ele>
<time>2010-06-20T13:40:41Z</time>
<desc>lat.=55.926186, lon.=26.634661, Alt.=117.815491m. Speed=20.520000m/h.</desc>
<speed>5.700000</speed>
</trkpt>
<trkpt lat="55.926136" lon="26.634623">
<ele>117.501038</ele>
<time>2010-06-20T13:40:42Z</time>
<desc>lat.=55.926136, lon.=26.634623, Alt.=117.501038m. Speed=19.368000m/h.</desc>
<speed>5.380000</speed>
</trkpt>
<trkpt lat="55.926094" lon="26.634583">
<ele>117.452209</ele>
<time>2010-06-20T13:40:43Z</time>
<desc>lat.=55.926094, lon.=26.634583, Alt.=117.452209m. Speed=20.195999m/h.</desc>
<speed>5.610000</speed>
</trkpt>
<trkpt lat="55.926044" lon="26.634550">
<ele>117.135803</ele>
<time>2010-06-20T13:40:44Z</time>
<desc>lat.=55.926044, lon.=26.634550, Alt.=117.135803m. Speed=20.664000m/h.</desc>
<speed>5.740000</speed>
</trkpt>
<trkpt lat="55.925995" lon="26.634510">
<ele>116.754944</ele>
<time>2010-06-20T13:40:45Z</time>
<desc>lat.=55.925995, lon.=26.634510, Alt.=116.754944m. Speed=20.771999m/h.</desc>
<speed>5.770000</speed>
</trkpt>
<trkpt lat="55.925945" lon="26.634455">
<ele>116.981506</ele>
<time>2010-06-20T13:40:46Z</time>
<desc>lat.=55.925945, lon.=26.634455, Alt.=116.981506m. Speed=22.608000m/h.</desc>
<speed>6.280000</speed>
</trkpt>
<trkpt lat="55.925892" lon="26.634409">
<ele>116.866272</ele>
<time>2010-06-20T13:40:47Z</time>
<desc>lat.=55.925892, lon.=26.634409, Alt.=116.866272m. Speed=22.284000m/h.</desc>
<speed>6.190000</speed>
</trkpt>
<trkpt lat="55.925842" lon="26.634363">
<ele>116.774475</ele>
<time>2010-06-20T13:40:48Z</time>
<desc>lat.=55.925842, lon.=26.634363, Alt.=116.774475m. Speed=22.104000m/h.</desc>
<speed>6.140000</speed>
</trkpt>
<trkpt lat="55.925785" lon="26.634321">
<ele>116.419006</ele>
<time>2010-06-20T13:40:49Z</time>
<desc>lat.=55.925785, lon.=26.634321, Alt.=116.419006m. Speed=23.507999m/h.</desc>
<speed>6.530000</speed>
</trkpt>
<trkpt lat="55.925728" lon="26.634275">
<ele>115.692444</ele>
<time>2010-06-20T13:40:50Z</time>
<desc>lat.=55.925728, lon.=26.634275, Alt.=115.692444m. Speed=22.788000m/h.</desc>
<speed>6.330000</speed>
</trkpt>
<trkpt lat="55.925671" lon="26.634226">
<ele>115.551819</ele>
<time>2010-06-20T13:40:51Z</time>
<desc>lat.=55.925671, lon.=26.634226, Alt.=115.551819m. Speed=24.552000m/h.</desc>
<speed>6.820000</speed>
</trkpt>
<trkpt lat="55.925617" lon="26.634184">
<ele>113.989319</ele>
<time>2010-06-20T13:40:52Z</time>
<desc>lat.=55.925617, lon.=26.634184, Alt.=113.989319m. Speed=24.120001m/h.</desc>
<speed>6.700000</speed>
</trkpt>
<trkpt lat="55.925564" lon="26.634138">
<ele>114.415100</ele>
<time>2010-06-20T13:40:53Z</time>
<desc>lat.=55.925564, lon.=26.634138, Alt.=114.415100m. Speed=24.408001m/h.</desc>
<speed>6.780000</speed>
</trkpt>
<trkpt lat="55.925510" lon="26.634089">
<ele>114.235413</ele>
<time>2010-06-20T13:40:54Z</time>
<desc>lat.=55.925510, lon.=26.634089, Alt.=114.235413m. Speed=25.344000m/h.</desc>
<speed>7.040000</speed>
</trkpt>
<trkpt lat="55.925457" lon="26.634037">
<ele>113.797913</ele>
<time>2010-06-20T13:40:55Z</time>
<desc>lat.=55.925457, lon.=26.634037, Alt.=113.797913m. Speed=24.516001m/h.</desc>
<speed>6.810000</speed>
</trkpt>
<trkpt lat="55.925404" lon="26.633987">
<ele>113.469788</ele>
<time>2010-06-20T13:40:56Z</time>
<desc>lat.=55.925404, lon.=26.633987, Alt.=113.469788m. Speed=24.983999m/h.</desc>
<speed>6.940000</speed>
</trkpt>
<trkpt lat="55.925350" lon="26.633936">
<ele>113.325256</ele>
<time>2010-06-20T13:40:57Z</time>
<desc>lat.=55.925350, lon.=26.633936, Alt.=113.325256m. Speed=25.128000m/h.</desc>
<speed>6.980000</speed>
</trkpt>
<trkpt lat="55.925297" lon="26.633890">
<ele>112.835022</ele>
<time>2010-06-20T13:40:58Z</time>
<desc>lat.=55.925297, lon.=26.633890, Alt.=112.835022m. Speed=25.488001m/h.</desc>
<speed>7.080000</speed>
</trkpt>
<trkpt lat="55.925243" lon="26.633846">
<ele>112.762756</ele>
<time>2010-06-20T13:40:59Z</time>
<desc>lat.=55.925243, lon.=26.633846, Alt.=112.762756m. Speed=25.452000m/h.</desc>
<speed>7.070000</speed>
</trkpt>
<trkpt lat="55.925182" lon="26.633802">
<ele>112.227600</ele>
<time>2010-06-20T13:41:00Z</time>
<desc>lat.=55.925182, lon.=26.633802, Alt.=112.227600m. Speed=25.667999m/h.</desc>
<speed>7.130000</speed>
</trkpt>
<trkpt lat="55.925125" lon="26.633759">
<ele>111.737366</ele>
<time>2010-06-20T13:41:01Z</time>
<desc>lat.=55.925125, lon.=26.633759, Alt.=111.737366m. Speed=26.388000m/h.</desc>
<speed>7.330000</speed>
</trkpt>
<trkpt lat="55.925068" lon="26.633717">
<ele>111.401428</ele>
<time>2010-06-20T13:41:02Z</time>
<desc>lat.=55.925068, lon.=26.633717, Alt.=111.401428m. Speed=25.740000m/h.</desc>
<speed>7.150000</speed>
</trkpt>
<trkpt lat="55.925011" lon="26.633665">
<ele>111.311584</ele>
<time>2010-06-20T13:41:03Z</time>
<desc>lat.=55.925011, lon.=26.633665, Alt.=111.311584m. Speed=25.920000m/h.</desc>
<speed>7.200000</speed>
</trkpt>
<trkpt lat="55.924953" lon="26.633612">
<ele>110.979553</ele>
<time>2010-06-20T13:41:04Z</time>
<desc>lat.=55.924953, lon.=26.633612, Alt.=110.979553m. Speed=25.559999m/h.</desc>
<speed>7.100000</speed>
</trkpt>
<trkpt lat="55.924896" lon="26.633562">
<ele>110.805725</ele>
<time>2010-06-20T13:41:05Z</time>
<desc>lat.=55.924896, lon.=26.633562, Alt.=110.805725m. Speed=25.488001m/h.</desc>
<speed>7.080000</speed>
</trkpt>
<trkpt lat="55.924839" lon="26.633512">
<ele>110.694397</ele>
<time>2010-06-20T13:41:06Z</time>
<desc>lat.=55.924839, lon.=26.633512, Alt.=110.694397m. Speed=25.812000m/h.</desc>
<speed>7.170000</speed>
</trkpt>
<trkpt lat="55.924778" lon="26.633467">
<ele>110.383850</ele>
<time>2010-06-20T13:41:07Z</time>
<desc>lat.=55.924778, lon.=26.633467, Alt.=110.383850m. Speed=27.108000m/h.</desc>
<speed>7.530000</speed>
</trkpt>
<trkpt lat="55.924713" lon="26.633421">
<ele>109.786194</ele>
<time>2010-06-20T13:41:08Z</time>
<desc>lat.=55.924713, lon.=26.633421, Alt.=109.786194m. Speed=26.604000m/h.</desc>
<speed>7.390000</speed>
</trkpt>
<trkpt lat="55.924656" lon="26.633366">
<ele>109.239319</ele>
<time>2010-06-20T13:41:09Z</time>
<desc>lat.=55.924656, lon.=26.633366, Alt.=109.239319m. Speed=26.063999m/h.</desc>
<speed>7.240000</speed>
</trkpt>
<trkpt lat="55.924599" lon="26.633314">
<ele>109.085022</ele>
<time>2010-06-20T13:41:10Z</time>
<desc>lat.=55.924599, lon.=26.633314, Alt.=109.085022m. Speed=25.596001m/h.</desc>
<speed>7.110000</speed>
</trkpt>
<trkpt lat="55.924545" lon="26.633266">
<ele>109.002991</ele>
<time>2010-06-20T13:41:11Z</time>
<desc>lat.=55.924545, lon.=26.633266, Alt.=109.002991m. Speed=26.208000m/h.</desc>
<speed>7.280000</speed>
</trkpt>
<trkpt lat="55.924480" lon="26.633211">
<ele>109.032288</ele>
<time>2010-06-20T13:41:12Z</time>
<desc>lat.=55.924480, lon.=26.633211, Alt.=109.032288m. Speed=26.676001m/h.</desc>
<speed>7.410000</speed>
</trkpt>
<trkpt lat="55.924427" lon="26.633162">
<ele>109.026428</ele>
<time>2010-06-20T13:41:13Z</time>
<desc>lat.=55.924427, lon.=26.633162, Alt.=109.026428m. Speed=26.424000m/h.</desc>
<speed>7.340000</speed>
</trkpt>
<trkpt lat="55.924366" lon="26.633110">
<ele>108.729553</ele>
<time>2010-06-20T13:41:14Z</time>
<desc>lat.=55.924366, lon.=26.633110, Alt.=108.729553m. Speed=26.459999m/h.</desc>
<speed>7.350000</speed>
</trkpt>
<trkpt lat="55.924309" lon="26.633053">
<ele>108.479553</ele>
<time>2010-06-20T13:41:15Z</time>
<desc>lat.=55.924309, lon.=26.633053, Alt.=108.479553m. Speed=26.784000m/h.</desc>
<speed>7.440000</speed>
</trkpt>
<trkpt lat="55.924244" lon="26.633001">
<ele>108.487366</ele>
<time>2010-06-20T13:41:16Z</time>
<desc>lat.=55.924244, lon.=26.633001, Alt.=108.487366m. Speed=27.180000m/h.</desc>
<speed>7.550000</speed>
</trkpt>
<trkpt lat="55.924183" lon="26.632950">
<ele>108.124084</ele>
<time>2010-06-20T13:41:17Z</time>
<desc>lat.=55.924183, lon.=26.632950, Alt.=108.124084m. Speed=26.568001m/h.</desc>
<speed>7.380000</speed>
</trkpt>
<trkpt lat="55.924118" lon="26.632898">
<ele>108.133850</ele>
<time>2010-06-20T13:41:18Z</time>
<desc>lat.=55.924118, lon.=26.632898, Alt.=108.133850m. Speed=27.180000m/h.</desc>
<speed>7.550000</speed>
</trkpt>
<trkpt lat="55.924057" lon="26.632847">
<ele>108.118225</ele>
<time>2010-06-20T13:41:19Z</time>
<desc>lat.=55.924057, lon.=26.632847, Alt.=108.118225m. Speed=27.719999m/h.</desc>
<speed>7.700000</speed>
</trkpt>
<trkpt lat="55.923992" lon="26.632792">
<ele>108.038147</ele>
<time>2010-06-20T13:41:20Z</time>
<desc>lat.=55.923992, lon.=26.632792, Alt.=108.038147m. Speed=26.820000m/h.</desc>
<speed>7.450000</speed>
</trkpt>
<trkpt lat="55.923931" lon="26.632730">
<ele>107.942444</ele>
<time>2010-06-20T13:41:21Z</time>
<desc>lat.=55.923931, lon.=26.632730, Alt.=107.942444m. Speed=27.143999m/h.</desc>
<speed>7.540000</speed>
</trkpt>
<trkpt lat="55.923870" lon="26.632671">
<ele>107.930725</ele>
<time>2010-06-20T13:41:22Z</time>
<desc>lat.=55.923870, lon.=26.632671, Alt.=107.930725m. Speed=27.000000m/h.</desc>
<speed>7.500000</speed>
</trkpt>
<trkpt lat="55.923809" lon="26.632616">
<ele>107.975647</ele>
<time>2010-06-20T13:41:23Z</time>
<desc>lat.=55.923809, lon.=26.632616, Alt.=107.975647m. Speed=27.576000m/h.</desc>
<speed>7.660000</speed>
</trkpt>
<trkpt lat="55.923748" lon="26.632565">
<ele>108.047913</ele>
<time>2010-06-20T13:41:24Z</time>
<desc>lat.=55.923748, lon.=26.632565, Alt.=108.047913m. Speed=27.323999m/h.</desc>
<speed>7.590000</speed>
</trkpt>
<trkpt lat="55.923687" lon="26.632511">
<ele>107.950256</ele>
<time>2010-06-20T13:41:25Z</time>
<desc>lat.=55.923687, lon.=26.632511, Alt.=107.950256m. Speed=27.612000m/h.</desc>
<speed>7.670000</speed>
</trkpt>
<trkpt lat="55.923626" lon="26.632460">
<ele>107.889709</ele>
<time>2010-06-20T13:41:26Z</time>
<desc>lat.=55.923626, lon.=26.632460, Alt.=107.889709m. Speed=27.936001m/h.</desc>
<speed>7.760000</speed>
</trkpt>
<trkpt lat="55.923565" lon="26.632402">
<ele>107.741272</ele>
<time>2010-06-20T13:41:27Z</time>
<desc>lat.=55.923565, lon.=26.632402, Alt.=107.741272m. Speed=28.296000m/h.</desc>
<speed>7.860000</speed>
</trkpt>
<trkpt lat="55.923500" lon="26.632349">
<ele>107.805725</ele>
<time>2010-06-20T13:41:28Z</time>
<desc>lat.=55.923500, lon.=26.632349, Alt.=107.805725m. Speed=26.856001m/h.</desc>
<speed>7.460000</speed>
</trkpt>
<trkpt lat="55.923439" lon="26.632294">
<ele>107.903381</ele>
<time>2010-06-20T13:41:29Z</time>
<desc>lat.=55.923439, lon.=26.632294, Alt.=107.903381m. Speed=27.756001m/h.</desc>
<speed>7.710000</speed>
</trkpt>
<trkpt lat="55.923378" lon="26.632242">
<ele>107.676819</ele>
<time>2010-06-20T13:41:30Z</time>
<desc>lat.=55.923378, lon.=26.632242, Alt.=107.676819m. Speed=27.072001m/h.</desc>
<speed>7.520000</speed>
</trkpt>
<trkpt lat="55.923317" lon="26.632187">
<ele>107.612366</ele>
<time>2010-06-20T13:41:31Z</time>
<desc>lat.=55.923317, lon.=26.632187, Alt.=107.612366m. Speed=27.216000m/h.</desc>
<speed>7.560000</speed>
</trkpt>
<trkpt lat="55.923252" lon="26.632135">
<ele>107.633850</ele>
<time>2010-06-20T13:41:32Z</time>
<desc>lat.=55.923252, lon.=26.632135, Alt.=107.633850m. Speed=28.872000m/h.</desc>
<speed>8.020000</speed>
</trkpt>
<trkpt lat="55.923191" lon="26.632084">
<ele>107.581116</ele>
<time>2010-06-20T13:41:33Z</time>
<desc>lat.=55.923191, lon.=26.632084, Alt.=107.581116m. Speed=26.639999m/h.</desc>
<speed>7.400000</speed>
</trkpt>
<trkpt lat="55.923134" lon="26.632027">
<ele>107.565491</ele>
<time>2010-06-20T13:41:34Z</time>
<desc>lat.=55.923134, lon.=26.632027, Alt.=107.565491m. Speed=28.584000m/h.</desc>
<speed>7.940000</speed>
</trkpt>
<trkpt lat="55.923069" lon="26.631977">
<ele>107.717834</ele>
<time>2010-06-20T13:41:35Z</time>
<desc>lat.=55.923069, lon.=26.631977, Alt.=107.717834m. Speed=29.124001m/h.</desc>
<speed>8.090000</speed>
</trkpt>
<trkpt lat="55.923008" lon="26.631916">
<ele>107.788147</ele>
<time>2010-06-20T13:41:36Z</time>
<desc>lat.=55.923008, lon.=26.631916, Alt.=107.788147m. Speed=27.936001m/h.</desc>
<speed>7.760000</speed>
</trkpt>
<trkpt lat="55.922943" lon="26.631857">
<ele>107.694397</ele>
<time>2010-06-20T13:41:37Z</time>
<desc>lat.=55.922943, lon.=26.631857, Alt.=107.694397m. Speed=27.792000m/h.</desc>
<speed>7.720000</speed>
</trkpt>
<trkpt lat="55.922882" lon="26.631794">
<ele>107.594788</ele>
<time>2010-06-20T13:41:38Z</time>
<desc>lat.=55.922882, lon.=26.631794, Alt.=107.594788m. Speed=29.087999m/h.</desc>
<speed>8.080000</speed>
</trkpt>
<trkpt lat="55.922810" lon="26.631733">
<ele>107.663147</ele>
<time>2010-06-20T13:41:39Z</time>
<desc>lat.=55.922810, lon.=26.631733, Alt.=107.663147m. Speed=32.147999m/h.</desc>
<speed>8.930000</speed>
</trkpt>
<trkpt lat="55.922745" lon="26.631672">
<ele>107.545959</ele>
<time>2010-06-20T13:41:40Z</time>
<desc>lat.=55.922745, lon.=26.631672, Alt.=107.545959m. Speed=27.360001m/h.</desc>
<speed>7.600000</speed>
</trkpt>
<trkpt lat="55.922680" lon="26.631617">
<ele>107.131897</ele>
<time>2010-06-20T13:41:41Z</time>
<desc>lat.=55.922680, lon.=26.631617, Alt.=107.131897m. Speed=27.000000m/h.</desc>
<speed>7.500000</speed>
</trkpt>
<trkpt lat="55.922623" lon="26.631567">
<ele>106.194397</ele>
<time>2010-06-20T13:41:42Z</time>
<desc>lat.=55.922623, lon.=26.631567, Alt.=106.194397m. Speed=25.524000m/h.</desc>
<speed>7.090000</speed>
</trkpt>
<trkpt lat="55.922562" lon="26.631512">
<ele>105.985413</ele>
<time>2010-06-20T13:41:43Z</time>
<desc>lat.=55.922562, lon.=26.631512, Alt.=105.985413m. Speed=28.872000m/h.</desc>
<speed>8.020000</speed>
</trkpt>
<trkpt lat="55.922504" lon="26.631460">
<ele>105.602600</ele>
<time>2010-06-20T13:41:44Z</time>
<desc>lat.=55.922504, lon.=26.631460, Alt.=105.602600m. Speed=26.172001m/h.</desc>
<speed>7.270000</speed>
</trkpt>
<trkpt lat="55.922451" lon="26.631407">
<ele>105.200256</ele>
<time>2010-06-20T13:41:45Z</time>
<desc>lat.=55.922451, lon.=26.631407, Alt.=105.200256m. Speed=25.344000m/h.</desc>
<speed>7.040000</speed>
</trkpt>
<trkpt lat="55.922390" lon="26.631348">
<ele>105.100647</ele>
<time>2010-06-20T13:41:46Z</time>
<desc>lat.=55.922390, lon.=26.631348, Alt.=105.100647m. Speed=27.431999m/h.</desc>
<speed>7.620000</speed>
</trkpt>
<trkpt lat="55.922329" lon="26.631290">
<ele>104.819397</ele>
<time>2010-06-20T13:41:47Z</time>
<desc>lat.=55.922329, lon.=26.631290, Alt.=104.819397m. Speed=26.459999m/h.</desc>
<speed>7.350000</speed>
</trkpt>
<trkpt lat="55.922272" lon="26.631237">
<ele>104.340881</ele>
<time>2010-06-20T13:41:48Z</time>
<desc>lat.=55.922272, lon.=26.631237, Alt.=104.340881m. Speed=26.243999m/h.</desc>
<speed>7.290000</speed>
</trkpt>
<trkpt lat="55.922215" lon="26.631180">
<ele>104.210022</ele>
<time>2010-06-20T13:41:49Z</time>
<desc>lat.=55.922215, lon.=26.631180, Alt.=104.210022m. Speed=26.208000m/h.</desc>
<speed>7.280000</speed>
</trkpt>
<trkpt lat="55.922153" lon="26.631124">
<ele>104.653381</ele>
<time>2010-06-20T13:41:50Z</time>
<desc>lat.=55.922153, lon.=26.631124, Alt.=104.653381m. Speed=26.604000m/h.</desc>
<speed>7.390000</speed>
</trkpt>
<trkpt lat="55.922096" lon="26.631073">
<ele>104.518616</ele>
<time>2010-06-20T13:41:51Z</time>
<desc>lat.=55.922096, lon.=26.631073, Alt.=104.518616m. Speed=26.388000m/h.</desc>
<speed>7.330000</speed>
</trkpt>
<trkpt lat="55.922031" lon="26.631021">
<ele>104.508850</ele>
<time>2010-06-20T13:41:52Z</time>
<desc>lat.=55.922031, lon.=26.631021, Alt.=104.508850m. Speed=26.820000m/h.</desc>
<speed>7.450000</speed>
</trkpt>
<trkpt lat="55.921974" lon="26.630976">
<ele>104.520569</ele>
<time>2010-06-20T13:41:53Z</time>
<desc>lat.=55.921974, lon.=26.630976, Alt.=104.520569m. Speed=26.351999m/h.</desc>
<speed>7.320000</speed>
</trkpt>
<trkpt lat="55.921913" lon="26.630926">
<ele>104.077209</ele>
<time>2010-06-20T13:41:54Z</time>
<desc>lat.=55.921913, lon.=26.630926, Alt.=104.077209m. Speed=25.128000m/h.</desc>
<speed>6.980000</speed>
</trkpt>
<trkpt lat="55.921852" lon="26.630873">
<ele>104.049866</ele>
<time>2010-06-20T13:41:55Z</time>
<desc>lat.=55.921852, lon.=26.630873, Alt.=104.049866m. Speed=25.632000m/h.</desc>
<speed>7.120000</speed>
</trkpt>
<trkpt lat="55.921791" lon="26.630821">
<ele>104.299866</ele>
<time>2010-06-20T13:41:56Z</time>
<desc>lat.=55.921791, lon.=26.630821, Alt.=104.299866m. Speed=27.468000m/h.</desc>
<speed>7.630000</speed>
</trkpt>
<trkpt lat="55.921730" lon="26.630768">
<ele>104.100647</ele>
<time>2010-06-20T13:41:57Z</time>
<desc>lat.=55.921730, lon.=26.630768, Alt.=104.100647m. Speed=25.955999m/h.</desc>
<speed>7.210000</speed>
</trkpt>
<trkpt lat="55.921673" lon="26.630713">
<ele>103.678772</ele>
<time>2010-06-20T13:41:58Z</time>
<desc>lat.=55.921673, lon.=26.630713, Alt.=103.678772m. Speed=23.976000m/h.</desc>
<speed>6.660000</speed>
</trkpt>
<trkpt lat="55.921619" lon="26.630663">
<ele>103.532288</ele>
<time>2010-06-20T13:41:59Z</time>
<desc>lat.=55.921619, lon.=26.630663, Alt.=103.532288m. Speed=25.848000m/h.</desc>
<speed>7.180000</speed>
</trkpt>
<trkpt lat="55.921562" lon="26.630610">
<ele>103.895569</ele>
<time>2010-06-20T13:42:00Z</time>
<desc>lat.=55.921562, lon.=26.630610, Alt.=103.895569m. Speed=29.448000m/h.</desc>
<speed>8.180000</speed>
</trkpt>
<trkpt lat="55.921505" lon="26.630558">
<ele>104.026428</ele>
<time>2010-06-20T13:42:01Z</time>
<desc>lat.=55.921505, lon.=26.630558, Alt.=104.026428m. Speed=25.992001m/h.</desc>
<speed>7.220000</speed>
</trkpt>
<trkpt lat="55.921448" lon="26.630503">
<ele>103.854553</ele>
<time>2010-06-20T13:42:02Z</time>
<desc>lat.=55.921448, lon.=26.630503, Alt.=103.854553m. Speed=25.271999m/h.</desc>
<speed>7.020000</speed>
</trkpt>
<trkpt lat="55.921394" lon="26.630449">
<ele>103.780334</ele>
<time>2010-06-20T13:42:03Z</time>
<desc>lat.=55.921394, lon.=26.630449, Alt.=103.780334m. Speed=25.128000m/h.</desc>
<speed>6.980000</speed>
</trkpt>
<trkpt lat="55.921337" lon="26.630400">
<ele>103.821350</ele>
<time>2010-06-20T13:42:04Z</time>
<desc>lat.=55.921337, lon.=26.630400, Alt.=103.821350m. Speed=26.172001m/h.</desc>
<speed>7.270000</speed>
</trkpt>
<trkpt lat="55.921280" lon="26.630352">
<ele>104.112366</ele>
<time>2010-06-20T13:42:05Z</time>
<desc>lat.=55.921280, lon.=26.630352, Alt.=104.112366m. Speed=25.740000m/h.</desc>
<speed>7.150000</speed>
</trkpt>
<trkpt lat="55.921219" lon="26.630304">
<ele>104.241272</ele>
<time>2010-06-20T13:42:06Z</time>
<desc>lat.=55.921219, lon.=26.630304, Alt.=104.241272m. Speed=25.992001m/h.</desc>
<speed>7.220000</speed>
</trkpt>
<trkpt lat="55.921158" lon="26.630255">
<ele>104.559631</ele>
<time>2010-06-20T13:42:07Z</time>
<desc>lat.=55.921158, lon.=26.630255, Alt.=104.559631m. Speed=25.667999m/h.</desc>
<speed>7.130000</speed>
</trkpt>
<trkpt lat="55.921101" lon="26.630201">
<ele>104.647522</ele>
<time>2010-06-20T13:42:08Z</time>
<desc>lat.=55.921101, lon.=26.630201, Alt.=104.647522m. Speed=25.955999m/h.</desc>
<speed>7.210000</speed>
</trkpt>
<trkpt lat="55.921040" lon="26.630148">
<ele>104.622131</ele>
<time>2010-06-20T13:42:09Z</time>
<desc>lat.=55.921040, lon.=26.630148, Alt.=104.622131m. Speed=26.063999m/h.</desc>
<speed>7.240000</speed>
</trkpt>
<trkpt lat="55.920979" lon="26.630095">
<ele>104.655334</ele>
<time>2010-06-20T13:42:10Z</time>
<desc>lat.=55.920979, lon.=26.630095, Alt.=104.655334m. Speed=25.704000m/h.</desc>
<speed>7.140000</speed>
</trkpt>
<trkpt lat="55.920925" lon="26.630037">
<ele>104.745178</ele>
<time>2010-06-20T13:42:11Z</time>
<desc>lat.=55.920925, lon.=26.630037, Alt.=104.745178m. Speed=25.704000m/h.</desc>
<speed>7.140000</speed>
</trkpt>
<trkpt lat="55.920868" lon="26.629982">
<ele>104.665100</ele>
<time>2010-06-20T13:42:12Z</time>
<desc>lat.=55.920868, lon.=26.629982, Alt.=104.665100m. Speed=25.848000m/h.</desc>
<speed>7.180000</speed>
</trkpt>
<trkpt lat="55.920811" lon="26.629930">
<ele>104.577209</ele>
<time>2010-06-20T13:42:13Z</time>
<desc>lat.=55.920811, lon.=26.629930, Alt.=104.577209m. Speed=25.596001m/h.</desc>
<speed>7.110000</speed>
</trkpt>
<trkpt lat="55.920757" lon="26.629881">
<ele>104.555725</ele>
<time>2010-06-20T13:42:14Z</time>
<desc>lat.=55.920757, lon.=26.629881, Alt.=104.555725m. Speed=25.416000m/h.</desc>
<speed>7.060000</speed>
</trkpt>
<trkpt lat="55.920700" lon="26.629833">
<ele>104.614319</ele>
<time>2010-06-20T13:42:15Z</time>
<desc>lat.=55.920700, lon.=26.629833, Alt.=104.614319m. Speed=25.308001m/h.</desc>
<speed>7.030000</speed>
</trkpt>
<trkpt lat="55.920650" lon="26.629786">
<ele>104.364319</ele>
<time>2010-06-20T13:42:16Z</time>
<desc>lat.=55.920650, lon.=26.629786, Alt.=104.364319m. Speed=24.084000m/h.</desc>
<speed>6.690000</speed>
</trkpt>
<trkpt lat="55.920589" lon="26.629736">
<ele>104.149475</ele>
<time>2010-06-20T13:42:17Z</time>
<desc>lat.=55.920589, lon.=26.629736, Alt.=104.149475m. Speed=24.948000m/h.</desc>
<speed>6.930000</speed>
</trkpt>
<trkpt lat="55.920532" lon="26.629683">
<ele>104.073303</ele>
<time>2010-06-20T13:42:18Z</time>
<desc>lat.=55.920532, lon.=26.629683, Alt.=104.073303m. Speed=25.559999m/h.</desc>
<speed>7.100000</speed>
</trkpt>
<trkpt lat="55.920471" lon="26.629629">
<ele>103.780334</ele>
<time>2010-06-20T13:42:19Z</time>
<desc>lat.=55.920471, lon.=26.629629, Alt.=103.780334m. Speed=25.452000m/h.</desc>
<speed>7.070000</speed>
</trkpt>
<trkpt lat="55.920410" lon="26.629578">
<ele>103.575256</ele>
<time>2010-06-20T13:42:20Z</time>
<desc>lat.=55.920410, lon.=26.629578, Alt.=103.575256m. Speed=26.712000m/h.</desc>
<speed>7.420000</speed>
</trkpt>
<trkpt lat="55.920353" lon="26.629528">
<ele>103.653381</ele>
<time>2010-06-20T13:42:21Z</time>
<desc>lat.=55.920353, lon.=26.629528, Alt.=103.653381m. Speed=25.775999m/h.</desc>
<speed>7.160000</speed>
</trkpt>
<trkpt lat="55.920300" lon="26.629477">
<ele>103.450256</ele>
<time>2010-06-20T13:42:22Z</time>
<desc>lat.=55.920300, lon.=26.629477, Alt.=103.450256m. Speed=24.516001m/h.</desc>
<speed>6.810000</speed>
</trkpt>
<trkpt lat="55.920246" lon="26.629425">
<ele>103.659241</ele>
<time>2010-06-20T13:42:23Z</time>
<desc>lat.=55.920246, lon.=26.629425, Alt.=103.659241m. Speed=24.299999m/h.</desc>
<speed>6.750000</speed>
</trkpt>
<trkpt lat="55.920193" lon="26.629375">
<ele>103.792053</ele>
<time>2010-06-20T13:42:24Z</time>
<desc>lat.=55.920193, lon.=26.629375, Alt.=103.792053m. Speed=25.056000m/h.</desc>
<speed>6.960000</speed>
</trkpt>
<trkpt lat="55.920135" lon="26.629324">
<ele>103.829163</ele>
<time>2010-06-20T13:42:25Z</time>
<desc>lat.=55.920135, lon.=26.629324, Alt.=103.829163m. Speed=24.587999m/h.</desc>
<speed>6.830000</speed>
</trkpt>
<trkpt lat="55.920074" lon="26.629265">
<ele>104.034241</ele>
<time>2010-06-20T13:42:26Z</time>
<desc>lat.=55.920074, lon.=26.629265, Alt.=104.034241m. Speed=27.288000m/h.</desc>
<speed>7.580000</speed>
</trkpt>
<trkpt lat="55.920013" lon="26.629213">
<ele>104.352600</ele>
<time>2010-06-20T13:42:27Z</time>
<desc>lat.=55.920013, lon.=26.629213, Alt.=104.352600m. Speed=26.351999m/h.</desc>
<speed>7.320000</speed>
</trkpt>
<trkpt lat="55.919952" lon="26.629162">
<ele>104.573303</ele>
<time>2010-06-20T13:42:28Z</time>
<desc>lat.=55.919952, lon.=26.629162, Alt.=104.573303m. Speed=25.955999m/h.</desc>
<speed>7.210000</speed>
</trkpt>
<trkpt lat="55.919888" lon="26.629110">
<ele>104.758850</ele>
<time>2010-06-20T13:42:29Z</time>
<desc>lat.=55.919888, lon.=26.629110, Alt.=104.758850m. Speed=25.992001m/h.</desc>
<speed>7.220000</speed>
</trkpt>
<trkpt lat="55.919827" lon="26.629057">
<ele>104.807678</ele>
<time>2010-06-20T13:42:30Z</time>
<desc>lat.=55.919827, lon.=26.629057, Alt.=104.807678m. Speed=25.992001m/h.</desc>
<speed>7.220000</speed>
</trkpt>
<trkpt lat="55.919769" lon="26.629007">
<ele>104.758850</ele>
<time>2010-06-20T13:42:31Z</time>
<desc>lat.=55.919769, lon.=26.629007, Alt.=104.758850m. Speed=26.028000m/h.</desc>
<speed>7.230000</speed>
</trkpt>
<trkpt lat="55.919708" lon="26.628958">
<ele>104.934631</ele>
<time>2010-06-20T13:42:32Z</time>
<desc>lat.=55.919708, lon.=26.628958, Alt.=104.934631m. Speed=26.028000m/h.</desc>
<speed>7.230000</speed>
</trkpt>
<trkpt lat="55.919651" lon="26.628904">
<ele>105.006897</ele>
<time>2010-06-20T13:42:33Z</time>
<desc>lat.=55.919651, lon.=26.628904, Alt.=105.006897m. Speed=26.208000m/h.</desc>
<speed>7.280000</speed>
</trkpt>
<trkpt lat="55.919594" lon="26.628851">
<ele>105.167053</ele>
<time>2010-06-20T13:42:34Z</time>
<desc>lat.=55.919594, lon.=26.628851, Alt.=105.167053m. Speed=26.388000m/h.</desc>
<speed>7.330000</speed>
</trkpt>
<trkpt lat="55.919537" lon="26.628799">
<ele>105.370178</ele>
<time>2010-06-20T13:42:35Z</time>
<desc>lat.=55.919537, lon.=26.628799, Alt.=105.370178m. Speed=26.316000m/h.</desc>
<speed>7.310000</speed>
</trkpt>
<trkpt lat="55.919479" lon="26.628748">
<ele>105.309631</ele>
<time>2010-06-20T13:42:36Z</time>
<desc>lat.=55.919479, lon.=26.628748, Alt.=105.309631m. Speed=26.676001m/h.</desc>
<speed>7.410000</speed>
</trkpt>
<trkpt lat="55.919418" lon="26.628696">
<ele>105.592834</ele>
<time>2010-06-20T13:42:37Z</time>
<desc>lat.=55.919418, lon.=26.628696, Alt.=105.592834m. Speed=27.540001m/h.</desc>
<speed>7.650000</speed>
</trkpt>
<trkpt lat="55.919361" lon="26.628643">
<ele>105.549866</ele>
<time>2010-06-20T13:42:38Z</time>
<desc>lat.=55.919361, lon.=26.628643, Alt.=105.549866m. Speed=27.252001m/h.</desc>
<speed>7.570000</speed>
</trkpt>
<trkpt lat="55.919304" lon="26.628588">
<ele>105.579163</ele>
<time>2010-06-20T13:42:39Z</time>
<desc>lat.=55.919304, lon.=26.628588, Alt.=105.579163m. Speed=26.892000m/h.</desc>
<speed>7.470000</speed>
</trkpt>
<trkpt lat="55.919247" lon="26.628544">
<ele>105.608459</ele>
<time>2010-06-20T13:42:40Z</time>
<desc>lat.=55.919247, lon.=26.628544, Alt.=105.608459m. Speed=26.351999m/h.</desc>
<speed>7.320000</speed>
</trkpt>
<trkpt lat="55.919186" lon="26.628489">
<ele>105.596741</ele>
<time>2010-06-20T13:42:41Z</time>
<desc>lat.=55.919186, lon.=26.628489, Alt.=105.596741m. Speed=26.784000m/h.</desc>
<speed>7.440000</speed>
</trkpt>
<trkpt lat="55.919125" lon="26.628433">
<ele>105.307678</ele>
<time>2010-06-20T13:42:42Z</time>
<desc>lat.=55.919125, lon.=26.628433, Alt.=105.307678m. Speed=26.532000m/h.</desc>
<speed>7.370000</speed>
</trkpt>
<trkpt lat="55.919064" lon="26.628376">
<ele>105.374084</ele>
<time>2010-06-20T13:42:43Z</time>
<desc>lat.=55.919064, lon.=26.628376, Alt.=105.374084m. Speed=26.351999m/h.</desc>
<speed>7.320000</speed>
</trkpt>
<trkpt lat="55.918999" lon="26.628321">
<ele>105.698303</ele>
<time>2010-06-20T13:42:44Z</time>
<desc>lat.=55.918999, lon.=26.628321, Alt.=105.698303m. Speed=27.396000m/h.</desc>
<speed>7.610000</speed>
</trkpt>
<trkpt lat="55.918938" lon="26.628267">
<ele>105.561584</ele>
<time>2010-06-20T13:42:45Z</time>
<desc>lat.=55.918938, lon.=26.628267, Alt.=105.561584m. Speed=26.964001m/h.</desc>
<speed>7.490000</speed>
</trkpt>
<trkpt lat="55.918880" lon="26.628212">
<ele>105.590881</ele>
<time>2010-06-20T13:42:46Z</time>
<desc>lat.=55.918880, lon.=26.628212, Alt.=105.590881m. Speed=26.892000m/h.</desc>
<speed>7.470000</speed>
</trkpt>
<trkpt lat="55.918823" lon="26.628159">
<ele>105.547913</ele>
<time>2010-06-20T13:42:47Z</time>
<desc>lat.=55.918823, lon.=26.628159, Alt.=105.547913m. Speed=27.648001m/h.</desc>
<speed>7.680000</speed>
</trkpt>
<trkpt lat="55.918762" lon="26.628099">
<ele>105.567444</ele>
<time>2010-06-20T13:42:48Z</time>
<desc>lat.=55.918762, lon.=26.628099, Alt.=105.567444m. Speed=29.052000m/h.</desc>
<speed>8.070000</speed>
</trkpt>
<trkpt lat="55.918697" lon="26.628035">
<ele>105.364319</ele>
<time>2010-06-20T13:42:49Z</time>
<desc>lat.=55.918697, lon.=26.628035, Alt.=105.364319m. Speed=27.143999m/h.</desc>
<speed>7.540000</speed>
</trkpt>
<trkpt lat="55.918640" lon="26.627974">
<ele>105.311584</ele>
<time>2010-06-20T13:42:50Z</time>
<desc>lat.=55.918640, lon.=26.627974, Alt.=105.311584m. Speed=27.288000m/h.</desc>
<speed>7.580000</speed>
</trkpt>
<trkpt lat="55.918583" lon="26.627920">
<ele>105.358459</ele>
<time>2010-06-20T13:42:51Z</time>
<desc>lat.=55.918583, lon.=26.627920, Alt.=105.358459m. Speed=26.784000m/h.</desc>
<speed>7.440000</speed>
</trkpt>
<trkpt lat="55.918522" lon="26.627872">
<ele>105.409241</ele>
<time>2010-06-20T13:42:52Z</time>
<desc>lat.=55.918522, lon.=26.627872, Alt.=105.409241m. Speed=26.568001m/h.</desc>
<speed>7.380000</speed>
</trkpt>
<trkpt lat="55.918457" lon="26.627827">
<ele>105.456116</ele>
<time>2010-06-20T13:42:53Z</time>
<desc>lat.=55.918457, lon.=26.627827, Alt.=105.456116m. Speed=27.504000m/h.</desc>
<speed>7.640000</speed>
</trkpt>
<trkpt lat="55.918396" lon="26.627777">
<ele>105.442444</ele>
<time>2010-06-20T13:42:54Z</time>
<desc>lat.=55.918396, lon.=26.627777, Alt.=105.442444m. Speed=27.035999m/h.</desc>
<speed>7.510000</speed>
</trkpt>
<trkpt lat="55.918335" lon="26.627729">
<ele>105.813538</ele>
<time>2010-06-20T13:42:55Z</time>
<desc>lat.=55.918335, lon.=26.627729, Alt.=105.813538m. Speed=27.504000m/h.</desc>
<speed>7.640000</speed>
</trkpt>
<trkpt lat="55.918274" lon="26.627680">
<ele>105.727600</ele>
<time>2010-06-20T13:42:56Z</time>
<desc>lat.=55.918274, lon.=26.627680, Alt.=105.727600m. Speed=27.612000m/h.</desc>
<speed>7.670000</speed>
</trkpt>
<trkpt lat="55.918209" lon="26.627626">
<ele>105.778381</ele>
<time>2010-06-20T13:42:57Z</time>
<desc>lat.=55.918209, lon.=26.627626, Alt.=105.778381m. Speed=27.252001m/h.</desc>
<speed>7.570000</speed>
</trkpt>
<trkpt lat="55.918148" lon="26.627571">
<ele>105.723694</ele>
<time>2010-06-20T13:42:58Z</time>
<desc>lat.=55.918148, lon.=26.627571, Alt.=105.723694m. Speed=27.612000m/h.</desc>
<speed>7.670000</speed>
</trkpt>
<trkpt lat="55.918087" lon="26.627516">
<ele>105.887756</ele>
<time>2010-06-20T13:42:59Z</time>
<desc>lat.=55.918087, lon.=26.627516, Alt.=105.887756m. Speed=27.360001m/h.</desc>
<speed>7.600000</speed>
</trkpt>
<trkpt lat="55.918026" lon="26.627457">
<ele>105.979553</ele>
<time>2010-06-20T13:43:00Z</time>
<desc>lat.=55.918026, lon.=26.627457, Alt.=105.979553m. Speed=28.080000m/h.</desc>
<speed>7.800000</speed>
</trkpt>
<trkpt lat="55.917965" lon="26.627396">
<ele>106.067444</ele>
<time>2010-06-20T13:43:01Z</time>
<desc>lat.=55.917965, lon.=26.627396, Alt.=106.067444m. Speed=27.719999m/h.</desc>
<speed>7.700000</speed>
</trkpt>
<trkpt lat="55.917904" lon="26.627333">
<ele>105.905334</ele>
<time>2010-06-20T13:43:02Z</time>
<desc>lat.=55.917904, lon.=26.627333, Alt.=105.905334m. Speed=27.719999m/h.</desc>
<speed>7.700000</speed>
</trkpt>
<trkpt lat="55.917839" lon="26.627283">
<ele>106.051819</ele>
<time>2010-06-20T13:43:03Z</time>
<desc>lat.=55.917839, lon.=26.627283, Alt.=106.051819m. Speed=27.936001m/h.</desc>
<speed>7.760000</speed>
</trkpt>
<trkpt lat="55.917778" lon="26.627234">
<ele>105.836975</ele>
<time>2010-06-20T13:43:04Z</time>
<desc>lat.=55.917778, lon.=26.627234, Alt.=105.836975m. Speed=27.108000m/h.</desc>
<speed>7.530000</speed>
</trkpt>
<trkpt lat="55.917713" lon="26.627178">
<ele>106.001038</ele>
<time>2010-06-20T13:43:05Z</time>
<desc>lat.=55.917713, lon.=26.627178, Alt.=106.001038m. Speed=27.648001m/h.</desc>
<speed>7.680000</speed>
</trkpt>
<trkpt lat="55.917648" lon="26.627127">
<ele>106.001038</ele>
<time>2010-06-20T13:43:06Z</time>
<desc>lat.=55.917648, lon.=26.627127, Alt.=106.001038m. Speed=27.431999m/h.</desc>
<speed>7.620000</speed>
</trkpt>
<trkpt lat="55.917587" lon="26.627073">
<ele>106.116272</ele>
<time>2010-06-20T13:43:07Z</time>
<desc>lat.=55.917587, lon.=26.627073, Alt.=106.116272m. Speed=26.676001m/h.</desc>
<speed>7.410000</speed>
</trkpt>
<trkpt lat="55.917530" lon="26.627018">
<ele>105.960022</ele>
<time>2010-06-20T13:43:08Z</time>
<desc>lat.=55.917530, lon.=26.627018, Alt.=105.960022m. Speed=27.216000m/h.</desc>
<speed>7.560000</speed>
</trkpt>
<trkpt lat="55.917465" lon="26.626966">
<ele>106.018616</ele>
<time>2010-06-20T13:43:09Z</time>
<desc>lat.=55.917465, lon.=26.626966, Alt.=106.018616m. Speed=28.944000m/h.</desc>
<speed>8.040000</speed>
</trkpt>
<trkpt lat="55.917404" lon="26.626915">
<ele>106.192444</ele>
<time>2010-06-20T13:43:10Z</time>
<desc>lat.=55.917404, lon.=26.626915, Alt.=106.192444m. Speed=26.712000m/h.</desc>
<speed>7.420000</speed>
</trkpt>
<trkpt lat="55.917351" lon="26.626860">
<ele>106.206116</ele>
<time>2010-06-20T13:43:11Z</time>
<desc>lat.=55.917351, lon.=26.626860, Alt.=106.206116m. Speed=27.108000m/h.</desc>
<speed>7.530000</speed>
</trkpt>
<trkpt lat="55.917290" lon="26.626799">
<ele>105.924866</ele>
<time>2010-06-20T13:43:12Z</time>
<desc>lat.=55.917290, lon.=26.626799, Alt.=105.924866m. Speed=28.115999m/h.</desc>
<speed>7.810000</speed>
</trkpt>
<trkpt lat="55.917233" lon="26.626741">
<ele>105.905334</ele>
<time>2010-06-20T13:43:13Z</time>
<desc>lat.=55.917233, lon.=26.626741, Alt.=105.905334m. Speed=27.035999m/h.</desc>
<speed>7.510000</speed>
</trkpt>
<trkpt lat="55.917171" lon="26.626690">
<ele>105.928772</ele>
<time>2010-06-20T13:43:14Z</time>
<desc>lat.=55.917171, lon.=26.626690, Alt.=105.928772m. Speed=26.388000m/h.</desc>
<speed>7.330000</speed>
</trkpt>
<trkpt lat="55.917110" lon="26.626637">
<ele>105.938538</ele>
<time>2010-06-20T13:43:15Z</time>
<desc>lat.=55.917110, lon.=26.626637, Alt.=105.938538m. Speed=27.576000m/h.</desc>
<speed>7.660000</speed>
</trkpt>
<trkpt lat="55.917049" lon="26.626575">
<ele>105.835022</ele>
<time>2010-06-20T13:43:16Z</time>
<desc>lat.=55.917049, lon.=26.626575, Alt.=105.835022m. Speed=26.747999m/h.</desc>
<speed>7.430000</speed>
</trkpt>
<trkpt lat="55.916992" lon="26.626516">
<ele>105.805725</ele>
<time>2010-06-20T13:43:17Z</time>
<desc>lat.=55.916992, lon.=26.626516, Alt.=105.805725m. Speed=26.316000m/h.</desc>
<speed>7.310000</speed>
</trkpt>
<trkpt lat="55.916927" lon="26.626465">
<ele>105.696350</ele>
<time>2010-06-20T13:43:18Z</time>
<desc>lat.=55.916927, lon.=26.626465, Alt.=105.696350m. Speed=25.955999m/h.</desc>
<speed>7.210000</speed>
</trkpt>
<trkpt lat="55.916866" lon="26.626406">
<ele>104.907288</ele>
<time>2010-06-20T13:43:19Z</time>
<desc>lat.=55.916866, lon.=26.626406, Alt.=104.907288m. Speed=26.388000m/h.</desc>
<speed>7.330000</speed>
</trkpt>
<trkpt lat="55.916805" lon="26.626350">
<ele>104.858459</ele>
<time>2010-06-20T13:43:20Z</time>
<desc>lat.=55.916805, lon.=26.626350, Alt.=104.858459m. Speed=27.900000m/h.</desc>
<speed>7.750000</speed>
</trkpt>
<trkpt lat="55.916740" lon="26.626297">
<ele>104.963928</ele>
<time>2010-06-20T13:43:21Z</time>
<desc>lat.=55.916740, lon.=26.626297, Alt.=104.963928m. Speed=28.476000m/h.</desc>
<speed>7.910000</speed>
</trkpt>
<trkpt lat="55.916672" lon="26.626238">
<ele>104.893616</ele>
<time>2010-06-20T13:43:22Z</time>
<desc>lat.=55.916672, lon.=26.626238, Alt.=104.893616m. Speed=29.268000m/h.</desc>
<speed>8.130000</speed>
</trkpt>
<trkpt lat="55.916611" lon="26.626183">
<ele>104.946350</ele>
<time>2010-06-20T13:43:23Z</time>
<desc>lat.=55.916611, lon.=26.626183, Alt.=104.946350m. Speed=27.431999m/h.</desc>
<speed>7.620000</speed>
</trkpt>
<trkpt lat="55.916546" lon="26.626125">
<ele>104.958069</ele>
<time>2010-06-20T13:43:24Z</time>
<desc>lat.=55.916546, lon.=26.626125, Alt.=104.958069m. Speed=27.431999m/h.</desc>
<speed>7.620000</speed>
</trkpt>
<trkpt lat="55.916485" lon="26.626070">
<ele>104.801819</ele>
<time>2010-06-20T13:43:25Z</time>
<desc>lat.=55.916485, lon.=26.626070, Alt.=104.801819m. Speed=27.612000m/h.</desc>
<speed>7.670000</speed>
</trkpt>
<trkpt lat="55.916424" lon="26.626011">
<ele>105.141663</ele>
<time>2010-06-20T13:43:26Z</time>
<desc>lat.=55.916424, lon.=26.626011, Alt.=105.141663m. Speed=27.540001m/h.</desc>
<speed>7.650000</speed>
</trkpt>
<trkpt lat="55.916363" lon="26.625956">
<ele>104.995178</ele>
<time>2010-06-20T13:43:27Z</time>
<desc>lat.=55.916363, lon.=26.625956, Alt.=104.995178m. Speed=26.927999m/h.</desc>
<speed>7.480000</speed>
</trkpt>
<trkpt lat="55.916298" lon="26.625902">
<ele>104.764709</ele>
<time>2010-06-20T13:43:28Z</time>
<desc>lat.=55.916298, lon.=26.625902, Alt.=104.764709m. Speed=29.700001m/h.</desc>
<speed>8.250000</speed>
</trkpt>
<trkpt lat="55.916237" lon="26.625843">
<ele>105.006897</ele>
<time>2010-06-20T13:43:29Z</time>
<desc>lat.=55.916237, lon.=26.625843, Alt.=105.006897m. Speed=27.180000m/h.</desc>
<speed>7.550000</speed>
</trkpt>
<trkpt lat="55.916176" lon="26.625786">
<ele>104.969788</ele>
<time>2010-06-20T13:43:30Z</time>
<desc>lat.=55.916176, lon.=26.625786, Alt.=104.969788m. Speed=27.540001m/h.</desc>
<speed>7.650000</speed>
</trkpt>
<trkpt lat="55.916115" lon="26.625732">
<ele>105.333069</ele>
<time>2010-06-20T13:43:31Z</time>
<desc>lat.=55.916115, lon.=26.625732, Alt.=105.333069m. Speed=27.972000m/h.</desc>
<speed>7.770000</speed>
</trkpt>
<trkpt lat="55.916054" lon="26.625683">
<ele>105.639709</ele>
<time>2010-06-20T13:43:32Z</time>
<desc>lat.=55.916054, lon.=26.625683, Alt.=105.639709m. Speed=28.368000m/h.</desc>
<speed>7.880000</speed>
</trkpt>
<trkpt lat="55.915993" lon="26.625628">
<ele>105.735413</ele>
<time>2010-06-20T13:43:33Z</time>
<desc>lat.=55.915993, lon.=26.625628, Alt.=105.735413m. Speed=26.100000m/h.</desc>
<speed>7.250000</speed>
</trkpt>
<trkpt lat="55.915932" lon="26.625572">
<ele>105.764709</ele>
<time>2010-06-20T13:43:34Z</time>
<desc>lat.=55.915932, lon.=26.625572, Alt.=105.764709m. Speed=28.224001m/h.</desc>
<speed>7.840000</speed>
</trkpt>
<trkpt lat="55.915867" lon="26.625515">
<ele>105.647522</ele>
<time>2010-06-20T13:43:35Z</time>
<desc>lat.=55.915867, lon.=26.625515, Alt.=105.647522m. Speed=25.775999m/h.</desc>
<speed>7.160000</speed>
</trkpt>
<trkpt lat="55.915806" lon="26.625452">
<ele>104.737366</ele>
<time>2010-06-20T13:43:36Z</time>
<desc>lat.=55.915806, lon.=26.625452, Alt.=104.737366m. Speed=25.379999m/h.</desc>
<speed>7.050000</speed>
</trkpt>
<trkpt lat="55.915745" lon="26.625397">
<ele>104.669006</ele>
<time>2010-06-20T13:43:37Z</time>
<desc>lat.=55.915745, lon.=26.625397, Alt.=104.669006m. Speed=28.188000m/h.</desc>
<speed>7.830000</speed>
</trkpt>
<trkpt lat="55.915680" lon="26.625336">
<ele>104.159241</ele>
<time>2010-06-20T13:43:38Z</time>
<desc>lat.=55.915680, lon.=26.625336, Alt.=104.159241m. Speed=28.188000m/h.</desc>
<speed>7.830000</speed>
</trkpt>
<trkpt lat="55.915611" lon="26.625278">
<ele>103.790100</ele>
<time>2010-06-20T13:43:39Z</time>
<desc>lat.=55.915611, lon.=26.625278, Alt.=103.790100m. Speed=28.656000m/h.</desc>
<speed>7.960000</speed>
</trkpt>
<trkpt lat="55.915546" lon="26.625214">
<ele>103.538147</ele>
<time>2010-06-20T13:43:40Z</time>
<desc>lat.=55.915546, lon.=26.625214, Alt.=103.538147m. Speed=29.016001m/h.</desc>
<speed>8.060000</speed>
</trkpt>
<trkpt lat="55.915478" lon="26.625156">
<ele>103.540100</ele>
<time>2010-06-20T13:43:41Z</time>
<desc>lat.=55.915478, lon.=26.625156, Alt.=103.540100m. Speed=28.224001m/h.</desc>
<speed>7.840000</speed>
</trkpt>
<trkpt lat="55.915417" lon="26.625097">
<ele>103.489319</ele>
<time>2010-06-20T13:43:42Z</time>
<desc>lat.=55.915417, lon.=26.625097, Alt.=103.489319m. Speed=28.764000m/h.</desc>
<speed>7.990000</speed>
</trkpt>
<trkpt lat="55.915348" lon="26.625034">
<ele>103.188538</ele>
<time>2010-06-20T13:43:43Z</time>
<desc>lat.=55.915348, lon.=26.625034, Alt.=103.188538m. Speed=28.511999m/h.</desc>
<speed>7.920000</speed>
</trkpt>
<trkpt lat="55.915283" lon="26.624971">
<ele>103.085022</ele>
<time>2010-06-20T13:43:44Z</time>
<desc>lat.=55.915283, lon.=26.624971, Alt.=103.085022m. Speed=29.304001m/h.</desc>
<speed>8.140000</speed>
</trkpt>
<trkpt lat="55.915215" lon="26.624912">
<ele>103.137756</ele>
<time>2010-06-20T13:43:45Z</time>
<desc>lat.=55.915215, lon.=26.624912, Alt.=103.137756m. Speed=29.736000m/h.</desc>
<speed>8.260000</speed>
</trkpt>
<trkpt lat="55.915146" lon="26.624855">
<ele>103.256897</ele>
<time>2010-06-20T13:43:46Z</time>
<desc>lat.=55.915146, lon.=26.624855, Alt.=103.256897m. Speed=28.332001m/h.</desc>
<speed>7.870000</speed>
</trkpt>
<trkpt lat="55.915081" lon="26.624804">
<ele>103.409241</ele>
<time>2010-06-20T13:43:47Z</time>
<desc>lat.=55.915081, lon.=26.624804, Alt.=103.409241m. Speed=29.736000m/h.</desc>
<speed>8.260000</speed>
</trkpt>
<trkpt lat="55.915009" lon="26.624746">
<ele>103.723694</ele>
<time>2010-06-20T13:43:48Z</time>
<desc>lat.=55.915009, lon.=26.624746, Alt.=103.723694m. Speed=30.780001m/h.</desc>
<speed>8.550000</speed>
</trkpt>
<trkpt lat="55.914944" lon="26.624689">
<ele>104.387756</ele>
<time>2010-06-20T13:43:49Z</time>
<desc>lat.=55.914944, lon.=26.624689, Alt.=104.387756m. Speed=29.844000m/h.</desc>
<speed>8.290000</speed>
</trkpt>
<trkpt lat="55.914879" lon="26.624634">
<ele>104.706116</ele>
<time>2010-06-20T13:43:50Z</time>
<desc>lat.=55.914879, lon.=26.624634, Alt.=104.706116m. Speed=31.572001m/h.</desc>
<speed>8.770000</speed>
</trkpt>
<trkpt lat="55.914806" lon="26.624573">
<ele>104.752991</ele>
<time>2010-06-20T13:43:51Z</time>
<desc>lat.=55.914806, lon.=26.624573, Alt.=104.752991m. Speed=29.988001m/h.</desc>
<speed>8.330000</speed>
</trkpt>
<trkpt lat="55.914738" lon="26.624506">
<ele>105.085022</ele>
<time>2010-06-20T13:43:52Z</time>
<desc>lat.=55.914738, lon.=26.624506, Alt.=105.085022m. Speed=31.716000m/h.</desc>
<speed>8.810000</speed>
</trkpt>
<trkpt lat="55.914665" lon="26.624449">
<ele>105.206116</ele>
<time>2010-06-20T13:43:53Z</time>
<desc>lat.=55.914665, lon.=26.624449, Alt.=105.206116m. Speed=29.988001m/h.</desc>
<speed>8.330000</speed>
</trkpt>
<trkpt lat="55.914597" lon="26.624390">
<ele>105.213928</ele>
<time>2010-06-20T13:43:54Z</time>
<desc>lat.=55.914597, lon.=26.624390, Alt.=105.213928m. Speed=30.563999m/h.</desc>
<speed>8.490000</speed>
</trkpt>
<trkpt lat="55.914528" lon="26.624334">
<ele>105.409241</ele>
<time>2010-06-20T13:43:55Z</time>
<desc>lat.=55.914528, lon.=26.624334, Alt.=105.409241m. Speed=30.959999m/h.</desc>
<speed>8.600000</speed>
</trkpt>
<trkpt lat="55.914459" lon="26.624275">
<ele>105.585022</ele>
<time>2010-06-20T13:43:56Z</time>
<desc>lat.=55.914459, lon.=26.624275, Alt.=105.585022m. Speed=30.384001m/h.</desc>
<speed>8.440000</speed>
</trkpt>
<trkpt lat="55.914394" lon="26.624222">
<ele>106.069397</ele>
<time>2010-06-20T13:43:57Z</time>
<desc>lat.=55.914394, lon.=26.624222, Alt.=106.069397m. Speed=29.520000m/h.</desc>
<speed>8.200000</speed>
</trkpt>
<trkpt lat="55.914326" lon="26.624157">
<ele>105.792053</ele>
<time>2010-06-20T13:43:58Z</time>
<desc>lat.=55.914326, lon.=26.624157, Alt.=105.792053m. Speed=29.700001m/h.</desc>
<speed>8.250000</speed>
</trkpt>
<trkpt lat="55.914265" lon="26.624096">
<ele>105.661194</ele>
<time>2010-06-20T13:43:59Z</time>
<desc>lat.=55.914265, lon.=26.624096, Alt.=105.661194m. Speed=29.087999m/h.</desc>
<speed>8.080000</speed>
</trkpt>
<trkpt lat="55.914196" lon="26.624035">
<ele>105.698303</ele>
<time>2010-06-20T13:44:00Z</time>
<desc>lat.=55.914196, lon.=26.624035, Alt.=105.698303m. Speed=30.024000m/h.</desc>
<speed>8.340000</speed>
</trkpt>
<trkpt lat="55.914127" lon="26.623974">
<ele>105.624084</ele>
<time>2010-06-20T13:44:01Z</time>
<desc>lat.=55.914127, lon.=26.623974, Alt.=105.624084m. Speed=29.268000m/h.</desc>
<speed>8.130000</speed>
</trkpt>
<trkpt lat="55.914066" lon="26.623909">
<ele>106.028381</ele>
<time>2010-06-20T13:44:02Z</time>
<desc>lat.=55.914066, lon.=26.623909, Alt.=106.028381m. Speed=29.771999m/h.</desc>
<speed>8.270000</speed>
</trkpt>
<trkpt lat="55.913998" lon="26.623846">
<ele>106.448303</ele>
<time>2010-06-20T13:44:03Z</time>
<desc>lat.=55.913998, lon.=26.623846, Alt.=106.448303m. Speed=29.052000m/h.</desc>
<speed>8.070000</speed>
</trkpt>
<trkpt lat="55.913933" lon="26.623789">
<ele>106.520569</ele>
<time>2010-06-20T13:44:04Z</time>
<desc>lat.=55.913933, lon.=26.623789, Alt.=106.520569m. Speed=29.268000m/h.</desc>
<speed>8.130000</speed>
</trkpt>
<trkpt lat="55.913860" lon="26.623734">
<ele>107.096741</ele>
<time>2010-06-20T13:44:05Z</time>
<desc>lat.=55.913860, lon.=26.623734, Alt.=107.096741m. Speed=30.059999m/h.</desc>
<speed>8.350000</speed>
</trkpt>
<trkpt lat="55.913792" lon="26.623676">
<ele>107.411194</ele>
<time>2010-06-20T13:44:06Z</time>
<desc>lat.=55.913792, lon.=26.623676, Alt.=107.411194m. Speed=29.664000m/h.</desc>
<speed>8.240000</speed>
</trkpt>
<trkpt lat="55.913723" lon="26.623617">
<ele>107.444397</ele>
<time>2010-06-20T13:44:07Z</time>
<desc>lat.=55.913723, lon.=26.623617, Alt.=107.444397m. Speed=30.024000m/h.</desc>
<speed>8.340000</speed>
</trkpt>
<trkpt lat="55.913651" lon="26.623556">
<ele>107.426819</ele>
<time>2010-06-20T13:44:08Z</time>
<desc>lat.=55.913651, lon.=26.623556, Alt.=107.426819m. Speed=29.340000m/h.</desc>
<speed>8.150000</speed>
</trkpt>
<trkpt lat="55.913582" lon="26.623495">
<ele>107.594788</ele>
<time>2010-06-20T13:44:09Z</time>
<desc>lat.=55.913582, lon.=26.623495, Alt.=107.594788m. Speed=29.628000m/h.</desc>
<speed>8.230000</speed>
</trkpt>
<trkpt lat="55.913517" lon="26.623436">
<ele>107.641663</ele>
<time>2010-06-20T13:44:10Z</time>
<desc>lat.=55.913517, lon.=26.623436, Alt.=107.641663m. Speed=27.252001m/h.</desc>
<speed>7.570000</speed>
</trkpt>
<trkpt lat="55.913452" lon="26.623373">
<ele>107.438538</ele>
<time>2010-06-20T13:44:11Z</time>
<desc>lat.=55.913452, lon.=26.623373, Alt.=107.438538m. Speed=28.872000m/h.</desc>
<speed>8.020000</speed>
</trkpt>
<trkpt lat="55.913391" lon="26.623316">
<ele>107.678772</ele>
<time>2010-06-20T13:44:12Z</time>
<desc>lat.=55.913391, lon.=26.623316, Alt.=107.678772m. Speed=28.476000m/h.</desc>
<speed>7.910000</speed>
</trkpt>
<trkpt lat="55.913322" lon="26.623260">
<ele>107.891663</ele>
<time>2010-06-20T13:44:13Z</time>
<desc>lat.=55.913322, lon.=26.623260, Alt.=107.891663m. Speed=27.900000m/h.</desc>
<speed>7.750000</speed>
</trkpt>
<trkpt lat="55.913265" lon="26.623207">
<ele>108.211975</ele>
<time>2010-06-20T13:44:14Z</time>
<desc>lat.=55.913265, lon.=26.623207, Alt.=108.211975m. Speed=27.827999m/h.</desc>
<speed>7.730000</speed>
</trkpt>
<trkpt lat="55.913204" lon="26.623152">
<ele>108.467834</ele>
<time>2010-06-20T13:44:15Z</time>
<desc>lat.=55.913204, lon.=26.623152, Alt.=108.467834m. Speed=27.108000m/h.</desc>
<speed>7.530000</speed>
</trkpt>
<trkpt lat="55.913143" lon="26.623096">
<ele>108.592834</ele>
<time>2010-06-20T13:44:16Z</time>
<desc>lat.=55.913143, lon.=26.623096, Alt.=108.592834m. Speed=27.864000m/h.</desc>
<speed>7.740000</speed>
</trkpt>
<trkpt lat="55.913078" lon="26.623047">
<ele>108.204163</ele>
<time>2010-06-20T13:44:17Z</time>
<desc>lat.=55.913078, lon.=26.623047, Alt.=108.204163m. Speed=25.775999m/h.</desc>
<speed>7.160000</speed>
</trkpt>
<trkpt lat="55.913017" lon="26.622992">
<ele>108.426819</ele>
<time>2010-06-20T13:44:18Z</time>
<desc>lat.=55.913017, lon.=26.622992, Alt.=108.426819m. Speed=28.980000m/h.</desc>
<speed>8.050000</speed>
</trkpt>
<trkpt lat="55.912956" lon="26.622934">
<ele>107.915100</ele>
<time>2010-06-20T13:44:19Z</time>
<desc>lat.=55.912956, lon.=26.622934, Alt.=107.915100m. Speed=24.875999m/h.</desc>
<speed>6.910000</speed>
</trkpt>
<trkpt lat="55.912903" lon="26.622877">
<ele>107.954163</ele>
<time>2010-06-20T13:44:20Z</time>
<desc>lat.=55.912903, lon.=26.622877, Alt.=107.954163m. Speed=29.268000m/h.</desc>
<speed>8.130000</speed>
</trkpt>
<trkpt lat="55.912838" lon="26.622828">
<ele>107.934631</ele>
<time>2010-06-20T13:44:21Z</time>
<desc>lat.=55.912838, lon.=26.622828, Alt.=107.934631m. Speed=26.747999m/h.</desc>
<speed>7.430000</speed>
</trkpt>
<trkpt lat="55.912777" lon="26.622774">
<ele>108.167053</ele>
<time>2010-06-20T13:44:22Z</time>
<desc>lat.=55.912777, lon.=26.622774, Alt.=108.167053m. Speed=26.927999m/h.</desc>
<speed>7.480000</speed>
</trkpt>
<trkpt lat="55.912720" lon="26.622721">
<ele>108.475647</ele>
<time>2010-06-20T13:44:23Z</time>
<desc>lat.=55.912720, lon.=26.622721, Alt.=108.475647m. Speed=27.827999m/h.</desc>
<speed>7.730000</speed>
</trkpt>
<trkpt lat="55.912666" lon="26.622671">
<ele>108.370178</ele>
<time>2010-06-20T13:44:24Z</time>
<desc>lat.=55.912666, lon.=26.622671, Alt.=108.370178m. Speed=27.360001m/h.</desc>
<speed>7.600000</speed>
</trkpt>
<trkpt lat="55.912609" lon="26.622616">
<ele>108.374084</ele>
<time>2010-06-20T13:44:25Z</time>
<desc>lat.=55.912609, lon.=26.622616, Alt.=108.374084m. Speed=27.288000m/h.</desc>
<speed>7.580000</speed>
</trkpt>
<trkpt lat="55.912552" lon="26.622559">
<ele>108.545959</ele>
<time>2010-06-20T13:44:26Z</time>
<desc>lat.=55.912552, lon.=26.622559, Alt.=108.545959m. Speed=27.252001m/h.</desc>
<speed>7.570000</speed>
</trkpt>
<trkpt lat="55.912491" lon="26.622509">
<ele>110.055725</ele>
<time>2010-06-20T13:44:27Z</time>
<desc>lat.=55.912491, lon.=26.622509, Alt.=110.055725m. Speed=26.712000m/h.</desc>
<speed>7.420000</speed>
</trkpt>
<trkpt lat="55.912430" lon="26.622456">
<ele>110.387756</ele>
<time>2010-06-20T13:44:28Z</time>
<desc>lat.=55.912430, lon.=26.622456, Alt.=110.387756m. Speed=25.992001m/h.</desc>
<speed>7.220000</speed>
</trkpt>
<trkpt lat="55.912373" lon="26.622398">
<ele>110.383850</ele>
<time>2010-06-20T13:44:29Z</time>
<desc>lat.=55.912373, lon.=26.622398, Alt.=110.383850m. Speed=26.532000m/h.</desc>
<speed>7.370000</speed>
</trkpt>
<trkpt lat="55.912315" lon="26.622341">
<ele>110.815491</ele>
<time>2010-06-20T13:44:30Z</time>
<desc>lat.=55.912315, lon.=26.622341, Alt.=110.815491m. Speed=25.056000m/h.</desc>
<speed>6.960000</speed>
</trkpt>
<trkpt lat="55.912262" lon="26.622282">
<ele>110.782288</ele>
<time>2010-06-20T13:44:31Z</time>
<desc>lat.=55.912262, lon.=26.622282, Alt.=110.782288m. Speed=25.596001m/h.</desc>
<speed>7.110000</speed>
</trkpt>
<trkpt lat="55.912205" lon="26.622227">
<ele>111.098694</ele>
<time>2010-06-20T13:44:32Z</time>
<desc>lat.=55.912205, lon.=26.622227, Alt.=111.098694m. Speed=25.524000m/h.</desc>
<speed>7.090000</speed>
</trkpt>
<trkpt lat="55.912148" lon="26.622168">
<ele>110.577209</ele>
<time>2010-06-20T13:44:33Z</time>
<desc>lat.=55.912148, lon.=26.622168, Alt.=110.577209m. Speed=25.596001m/h.</desc>
<speed>7.110000</speed>
</trkpt>
<trkpt lat="55.912094" lon="26.622116">
<ele>110.555725</ele>
<time>2010-06-20T13:44:34Z</time>
<desc>lat.=55.912094, lon.=26.622116, Alt.=110.555725m. Speed=24.912001m/h.</desc>
<speed>6.920000</speed>
</trkpt>
<trkpt lat="55.912037" lon="26.622061">
<ele>110.588928</ele>
<time>2010-06-20T13:44:35Z</time>
<desc>lat.=55.912037, lon.=26.622061, Alt.=110.588928m. Speed=24.552000m/h.</desc>
<speed>6.820000</speed>
</trkpt>
<trkpt lat="55.911983" lon="26.622004">
<ele>110.604553</ele>
<time>2010-06-20T13:44:36Z</time>
<desc>lat.=55.911983, lon.=26.622004, Alt.=110.604553m. Speed=24.336000m/h.</desc>
<speed>6.760000</speed>
</trkpt>
<trkpt lat="55.911926" lon="26.621956">
<ele>110.866272</ele>
<time>2010-06-20T13:44:37Z</time>
<desc>lat.=55.911926, lon.=26.621956, Alt.=110.866272m. Speed=24.624001m/h.</desc>
<speed>6.840000</speed>
</trkpt>
<trkpt lat="55.911873" lon="26.621908">
<ele>111.108459</ele>
<time>2010-06-20T13:44:38Z</time>
<desc>lat.=55.911873, lon.=26.621908, Alt.=111.108459m. Speed=24.336000m/h.</desc>
<speed>6.760000</speed>
</trkpt>
<trkpt lat="55.911819" lon="26.621853">
<ele>111.303772</ele>
<time>2010-06-20T13:44:39Z</time>
<desc>lat.=55.911819, lon.=26.621853, Alt.=111.303772m. Speed=24.732000m/h.</desc>
<speed>6.870000</speed>
</trkpt>
<trkpt lat="55.911762" lon="26.621803">
<ele>111.239319</ele>
<time>2010-06-20T13:44:40Z</time>
<desc>lat.=55.911762, lon.=26.621803, Alt.=111.239319m. Speed=24.912001m/h.</desc>
<speed>6.920000</speed>
</trkpt>
<trkpt lat="55.911705" lon="26.621754">
<ele>111.153381</ele>
<time>2010-06-20T13:44:41Z</time>
<desc>lat.=55.911705, lon.=26.621754, Alt.=111.153381m. Speed=24.948000m/h.</desc>
<speed>6.930000</speed>
</trkpt>
<trkpt lat="55.911648" lon="26.621704">
<ele>111.045959</ele>
<time>2010-06-20T13:44:42Z</time>
<desc>lat.=55.911648, lon.=26.621704, Alt.=111.045959m. Speed=24.804001m/h.</desc>
<speed>6.890000</speed>
</trkpt>
<trkpt lat="55.911591" lon="26.621653">
<ele>111.251038</ele>
<time>2010-06-20T13:44:43Z</time>
<desc>lat.=55.911591, lon.=26.621653, Alt.=111.251038m. Speed=25.020000m/h.</desc>
<speed>6.950000</speed>
</trkpt>
<trkpt lat="55.911537" lon="26.621597">
<ele>111.336975</ele>
<time>2010-06-20T13:44:44Z</time>
<desc>lat.=55.911537, lon.=26.621597, Alt.=111.336975m. Speed=25.091999m/h.</desc>
<speed>6.970000</speed>
</trkpt>
<trkpt lat="55.911484" lon="26.621544">
<ele>111.309631</ele>
<time>2010-06-20T13:44:45Z</time>
<desc>lat.=55.911484, lon.=26.621544, Alt.=111.309631m. Speed=25.308001m/h.</desc>
<speed>7.030000</speed>
</trkpt>
<trkpt lat="55.911427" lon="26.621494">
<ele>111.706116</ele>
<time>2010-06-20T13:44:46Z</time>
<desc>lat.=55.911427, lon.=26.621494, Alt.=111.706116m. Speed=25.091999m/h.</desc>
<speed>6.970000</speed>
</trkpt>
<trkpt lat="55.911373" lon="26.621445">
<ele>111.870178</ele>
<time>2010-06-20T13:44:47Z</time>
<desc>lat.=55.911373, lon.=26.621445, Alt.=111.870178m. Speed=25.128000m/h.</desc>
<speed>6.980000</speed>
</trkpt>
<trkpt lat="55.911316" lon="26.621389">
<ele>111.938538</ele>
<time>2010-06-20T13:44:48Z</time>
<desc>lat.=55.911316, lon.=26.621389, Alt.=111.938538m. Speed=25.236000m/h.</desc>
<speed>7.010000</speed>
</trkpt>
<trkpt lat="55.911259" lon="26.621334">
<ele>112.278381</ele>
<time>2010-06-20T13:44:49Z</time>
<desc>lat.=55.911259, lon.=26.621334, Alt.=112.278381m. Speed=24.444000m/h.</desc>
<speed>6.790000</speed>
</trkpt>
<trkpt lat="55.911209" lon="26.621279">
<ele>112.495178</ele>
<time>2010-06-20T13:44:50Z</time>
<desc>lat.=55.911209, lon.=26.621279, Alt.=112.495178m. Speed=24.336000m/h.</desc>
<speed>6.760000</speed>
</trkpt>
<trkpt lat="55.911152" lon="26.621227">
<ele>112.633850</ele>
<time>2010-06-20T13:44:51Z</time>
<desc>lat.=55.911152, lon.=26.621227, Alt.=112.633850m. Speed=23.436001m/h.</desc>
<speed>6.510000</speed>
</trkpt>
<trkpt lat="55.911098" lon="26.621185">
<ele>112.717834</ele>
<time>2010-06-20T13:44:52Z</time>
<desc>lat.=55.911098, lon.=26.621185, Alt.=112.717834m. Speed=24.336000m/h.</desc>
<speed>6.760000</speed>
</trkpt>
<trkpt lat="55.911041" lon="26.621141">
<ele>112.827209</ele>
<time>2010-06-20T13:44:53Z</time>
<desc>lat.=55.911041, lon.=26.621141, Alt.=112.827209m. Speed=24.156000m/h.</desc>
<speed>6.710000</speed>
</trkpt>
<trkpt lat="55.910992" lon="26.621090">
<ele>113.028381</ele>
<time>2010-06-20T13:44:54Z</time>
<desc>lat.=55.910992, lon.=26.621090, Alt.=113.028381m. Speed=24.228001m/h.</desc>
<speed>6.730000</speed>
</trkpt>
<trkpt lat="55.910938" lon="26.621037">
<ele>112.983459</ele>
<time>2010-06-20T13:44:55Z</time>
<desc>lat.=55.910938, lon.=26.621037, Alt.=112.983459m. Speed=24.048000m/h.</desc>
<speed>6.680000</speed>
</trkpt>
<trkpt lat="55.910889" lon="26.620987">
<ele>113.108459</ele>
<time>2010-06-20T13:44:56Z</time>
<desc>lat.=55.910889, lon.=26.620987, Alt.=113.108459m. Speed=23.688000m/h.</desc>
<speed>6.580000</speed>
</trkpt>
<trkpt lat="55.910835" lon="26.620937">
<ele>113.184631</ele>
<time>2010-06-20T13:44:57Z</time>
<desc>lat.=55.910835, lon.=26.620937, Alt.=113.184631m. Speed=22.931999m/h.</desc>
<speed>6.370000</speed>
</trkpt>
<trkpt lat="55.910786" lon="26.620893">
<ele>113.534241</ele>
<time>2010-06-20T13:44:58Z</time>
<desc>lat.=55.910786, lon.=26.620893, Alt.=113.534241m. Speed=22.032000m/h.</desc>
<speed>6.120000</speed>
</trkpt>
<trkpt lat="55.910740" lon="26.620850">
<ele>113.794006</ele>
<time>2010-06-20T13:44:59Z</time>
<desc>lat.=55.910740, lon.=26.620850, Alt.=113.794006m. Speed=21.455999m/h.</desc>
<speed>5.960000</speed>
</trkpt>
<trkpt lat="55.910694" lon="26.620808">
<ele>114.077209</ele>
<time>2010-06-20T13:45:00Z</time>
<desc>lat.=55.910694, lon.=26.620808, Alt.=114.077209m. Speed=21.132000m/h.</desc>
<speed>5.870000</speed>
</trkpt>
<trkpt lat="55.910645" lon="26.620766">
<ele>114.502991</ele>
<time>2010-06-20T13:45:01Z</time>
<desc>lat.=55.910645, lon.=26.620766, Alt.=114.502991m. Speed=21.132000m/h.</desc>
<speed>5.870000</speed>
</trkpt>
<trkpt lat="55.910599" lon="26.620728">
<ele>114.639709</ele>
<time>2010-06-20T13:45:02Z</time>
<desc>lat.=55.910599, lon.=26.620728, Alt.=114.639709m. Speed=21.455999m/h.</desc>
<speed>5.960000</speed>
</trkpt>
<trkpt lat="55.910553" lon="26.620687">
<ele>114.840881</ele>
<time>2010-06-20T13:45:03Z</time>
<desc>lat.=55.910553, lon.=26.620687, Alt.=114.840881m. Speed=21.851999m/h.</desc>
<speed>6.070000</speed>
</trkpt>
<trkpt lat="55.910503" lon="26.620644">
<ele>115.426819</ele>
<time>2010-06-20T13:45:04Z</time>
<desc>lat.=55.910503, lon.=26.620644, Alt.=115.426819m. Speed=21.384001m/h.</desc>
<speed>5.940000</speed>
</trkpt>
<trkpt lat="55.910454" lon="26.620604">
<ele>116.444397</ele>
<time>2010-06-20T13:45:05Z</time>
<desc>lat.=55.910454, lon.=26.620604, Alt.=116.444397m. Speed=21.959999m/h.</desc>
<speed>6.100000</speed>
</trkpt>
<trkpt lat="55.910404" lon="26.620564">
<ele>117.506897</ele>
<time>2010-06-20T13:45:06Z</time>
<desc>lat.=55.910404, lon.=26.620564, Alt.=117.506897m. Speed=21.024000m/h.</desc>
<speed>5.840000</speed>
</trkpt>
<trkpt lat="55.910358" lon="26.620523">
<ele>117.737366</ele>
<time>2010-06-20T13:45:07Z</time>
<desc>lat.=55.910358, lon.=26.620523, Alt.=117.737366m. Speed=21.167999m/h.</desc>
<speed>5.880000</speed>
</trkpt>
<trkpt lat="55.910313" lon="26.620481">
<ele>117.876038</ele>
<time>2010-06-20T13:45:08Z</time>
<desc>lat.=55.910313, lon.=26.620481, Alt.=117.876038m. Speed=20.988001m/h.</desc>
<speed>5.830000</speed>
</trkpt>
<trkpt lat="55.910267" lon="26.620436">
<ele>117.815491</ele>
<time>2010-06-20T13:45:09Z</time>
<desc>lat.=55.910267, lon.=26.620436, Alt.=117.815491m. Speed=21.851999m/h.</desc>
<speed>6.070000</speed>
</trkpt>
<trkpt lat="55.910221" lon="26.620392">
<ele>118.428772</ele>
<time>2010-06-20T13:45:10Z</time>
<desc>lat.=55.910221, lon.=26.620392, Alt.=118.428772m. Speed=21.455999m/h.</desc>
<speed>5.960000</speed>
</trkpt>
<trkpt lat="55.910175" lon="26.620356">
<ele>118.639709</ele>
<time>2010-06-20T13:45:11Z</time>
<desc>lat.=55.910175, lon.=26.620356, Alt.=118.639709m. Speed=21.492001m/h.</desc>
<speed>5.970000</speed>
</trkpt>
<trkpt lat="55.910126" lon="26.620325">
<ele>119.327209</ele>
<time>2010-06-20T13:45:12Z</time>
<desc>lat.=55.910126, lon.=26.620325, Alt.=119.327209m. Speed=22.032000m/h.</desc>
<speed>6.120000</speed>
</trkpt>
<trkpt lat="55.910076" lon="26.620289">
<ele>120.532288</ele>
<time>2010-06-20T13:45:13Z</time>
<desc>lat.=55.910076, lon.=26.620289, Alt.=120.532288m. Speed=22.500000m/h.</desc>
<speed>6.250000</speed>
</trkpt>
<trkpt lat="55.910023" lon="26.620258">
<ele>122.497131</ele>
<time>2010-06-20T13:45:14Z</time>
<desc>lat.=55.910023, lon.=26.620258, Alt.=122.497131m. Speed=23.507999m/h.</desc>
<speed>6.530000</speed>
</trkpt>
<trkpt lat="55.909969" lon="26.620216">
<ele>123.952209</ele>
<time>2010-06-20T13:45:15Z</time>
<desc>lat.=55.909969, lon.=26.620216, Alt.=123.952209m. Speed=23.112000m/h.</desc>
<speed>6.420000</speed>
</trkpt>
<trkpt lat="55.909912" lon="26.620155">
<ele>124.905334</ele>
<time>2010-06-20T13:45:16Z</time>
<desc>lat.=55.909912, lon.=26.620155, Alt.=124.905334m. Speed=24.768000m/h.</desc>
<speed>6.880000</speed>
</trkpt>
<trkpt lat="55.909855" lon="26.620096">
<ele>125.879944</ele>
<time>2010-06-20T13:45:17Z</time>
<desc>lat.=55.909855, lon.=26.620096, Alt.=125.879944m. Speed=25.704000m/h.</desc>
<speed>7.140000</speed>
</trkpt>
<trkpt lat="55.909794" lon="26.620039">
<ele>127.264709</ele>
<time>2010-06-20T13:45:18Z</time>
<desc>lat.=55.909794, lon.=26.620039, Alt.=127.264709m. Speed=26.532000m/h.</desc>
<speed>7.370000</speed>
</trkpt>
<trkpt lat="55.909733" lon="26.619978">
<ele>129.088013</ele>
<time>2010-06-20T13:45:19Z</time>
<desc>lat.=55.909733, lon.=26.619978, Alt.=129.088013m. Speed=27.180000m/h.</desc>
<speed>7.550000</speed>
</trkpt>
<trkpt lat="55.909676" lon="26.619928">
<ele>130.459106</ele>
<time>2010-06-20T13:45:20Z</time>
<desc>lat.=55.909676, lon.=26.619928, Alt.=130.459106m. Speed=27.684000m/h.</desc>
<speed>7.690000</speed>
</trkpt>
<trkpt lat="55.909618" lon="26.619867">
<ele>131.740356</ele>
<time>2010-06-20T13:45:21Z</time>
<desc>lat.=55.909618, lon.=26.619867, Alt.=131.740356m. Speed=27.143999m/h.</desc>
<speed>7.540000</speed>
</trkpt>
<trkpt lat="55.909561" lon="26.619810">
<ele>131.630981</ele>
<time>2010-06-20T13:45:22Z</time>
<desc>lat.=55.909561, lon.=26.619810, Alt.=131.630981m. Speed=26.424000m/h.</desc>
<speed>7.340000</speed>
</trkpt>
<trkpt lat="55.909504" lon="26.619761">
<ele>131.818481</ele>
<time>2010-06-20T13:45:23Z</time>
<desc>lat.=55.909504, lon.=26.619761, Alt.=131.818481m. Speed=26.280001m/h.</desc>
<speed>7.300000</speed>
</trkpt>
<trkpt lat="55.909443" lon="26.619705">
<ele>132.677856</ele>
<time>2010-06-20T13:45:24Z</time>
<desc>lat.=55.909443, lon.=26.619705, Alt.=132.677856m. Speed=26.747999m/h.</desc>
<speed>7.430000</speed>
</trkpt>
<trkpt lat="55.909378" lon="26.619642">
<ele>132.220825</ele>
<time>2010-06-20T13:45:25Z</time>
<desc>lat.=55.909378, lon.=26.619642, Alt.=132.220825m. Speed=27.108000m/h.</desc>
<speed>7.530000</speed>
</trkpt>
<trkpt lat="55.909321" lon="26.619581">
<ele>131.877075</ele>
<time>2010-06-20T13:45:26Z</time>
<desc>lat.=55.909321, lon.=26.619581, Alt.=131.877075m. Speed=27.252001m/h.</desc>
<speed>7.570000</speed>
</trkpt>
<trkpt lat="55.909256" lon="26.619514">
<ele>130.744263</ele>
<time>2010-06-20T13:45:27Z</time>
<desc>lat.=55.909256, lon.=26.619514, Alt.=130.744263m. Speed=27.612000m/h.</desc>
<speed>7.670000</speed>
</trkpt>
<trkpt lat="55.909191" lon="26.619453">
<ele>128.638794</ele>
<time>2010-06-20T13:45:28Z</time>
<desc>lat.=55.909191, lon.=26.619453, Alt.=128.638794m. Speed=28.115999m/h.</desc>
<speed>7.810000</speed>
</trkpt>
<trkpt lat="55.909130" lon="26.619396">
<ele>128.154419</ele>
<time>2010-06-20T13:45:29Z</time>
<desc>lat.=55.909130, lon.=26.619396, Alt.=128.154419m. Speed=28.296000m/h.</desc>
<speed>7.860000</speed>
</trkpt>
<trkpt lat="55.909065" lon="26.619339">
<ele>128.130981</ele>
<time>2010-06-20T13:45:30Z</time>
<desc>lat.=55.909065, lon.=26.619339, Alt.=128.130981m. Speed=28.980000m/h.</desc>
<speed>8.050000</speed>
</trkpt>
<trkpt lat="55.909000" lon="26.619280">
<ele>128.318481</ele>
<time>2010-06-20T13:45:31Z</time>
<desc>lat.=55.909000, lon.=26.619280, Alt.=128.318481m. Speed=29.412001m/h.</desc>
<speed>8.170000</speed>
</trkpt>
<trkpt lat="55.908936" lon="26.619225">
<ele>128.236450</ele>
<time>2010-06-20T13:45:32Z</time>
<desc>lat.=55.908936, lon.=26.619225, Alt.=128.236450m. Speed=29.556000m/h.</desc>
<speed>8.210000</speed>
</trkpt>
<trkpt lat="55.908871" lon="26.619171">
<ele>128.158325</ele>
<time>2010-06-20T13:45:33Z</time>
<desc>lat.=55.908871, lon.=26.619171, Alt.=128.158325m. Speed=29.664000m/h.</desc>
<speed>8.240000</speed>
</trkpt>
<trkpt lat="55.908806" lon="26.619116">
<ele>128.588013</ele>
<time>2010-06-20T13:45:34Z</time>
<desc>lat.=55.908806, lon.=26.619116, Alt.=128.588013m. Speed=29.304001m/h.</desc>
<speed>8.140000</speed>
</trkpt>
<trkpt lat="55.908741" lon="26.619055">
<ele>128.814575</ele>
<time>2010-06-20T13:45:35Z</time>
<desc>lat.=55.908741, lon.=26.619055, Alt.=128.814575m. Speed=28.764000m/h.</desc>
<speed>7.990000</speed>
</trkpt>
<trkpt lat="55.908676" lon="26.618994">
<ele>129.314575</ele>
<time>2010-06-20T13:45:36Z</time>
<desc>lat.=55.908676, lon.=26.618994, Alt.=129.314575m. Speed=28.872000m/h.</desc>
<speed>8.020000</speed>
</trkpt>
<trkpt lat="55.908611" lon="26.618937">
<ele>129.236450</ele>
<time>2010-06-20T13:45:37Z</time>
<desc>lat.=55.908611, lon.=26.618937, Alt.=129.236450m. Speed=28.440001m/h.</desc>
<speed>7.900000</speed>
</trkpt>
<trkpt lat="55.908550" lon="26.618881">
<ele>129.209106</ele>
<time>2010-06-20T13:45:38Z</time>
<desc>lat.=55.908550, lon.=26.618881, Alt.=129.209106m. Speed=28.115999m/h.</desc>
<speed>7.810000</speed>
</trkpt>
<trkpt lat="55.908489" lon="26.618828">
<ele>128.095825</ele>
<time>2010-06-20T13:45:39Z</time>
<desc>lat.=55.908489, lon.=26.618828, Alt.=128.095825m. Speed=27.504000m/h.</desc>
<speed>7.640000</speed>
</trkpt>
<trkpt lat="55.908428" lon="26.618776">
<ele>126.932678</ele>
<time>2010-06-20T13:45:40Z</time>
<desc>lat.=55.908428, lon.=26.618776, Alt.=126.932678m. Speed=26.964001m/h.</desc>
<speed>7.490000</speed>
</trkpt>
<trkpt lat="55.908371" lon="26.618721">
<ele>126.526428</ele>
<time>2010-06-20T13:45:41Z</time>
<desc>lat.=55.908371, lon.=26.618721, Alt.=126.526428m. Speed=27.108000m/h.</desc>
<speed>7.530000</speed>
</trkpt>
<trkpt lat="55.908310" lon="26.618662">
<ele>125.999084</ele>
<time>2010-06-20T13:45:42Z</time>
<desc>lat.=55.908310, lon.=26.618662, Alt.=125.999084m. Speed=27.216000m/h.</desc>
<speed>7.560000</speed>
</trkpt>
<trkpt lat="55.908253" lon="26.618607">
<ele>125.987366</ele>
<time>2010-06-20T13:45:43Z</time>
<desc>lat.=55.908253, lon.=26.618607, Alt.=125.987366m. Speed=26.063999m/h.</desc>
<speed>7.240000</speed>
</trkpt>
<trkpt lat="55.908195" lon="26.618553">
<ele>125.999084</ele>
<time>2010-06-20T13:45:44Z</time>
<desc>lat.=55.908195, lon.=26.618553, Alt.=125.999084m. Speed=24.840000m/h.</desc>
<speed>6.900000</speed>
</trkpt>
<trkpt lat="55.908138" lon="26.618502">
<ele>125.987366</ele>
<time>2010-06-20T13:45:45Z</time>
<desc>lat.=55.908138, lon.=26.618502, Alt.=125.987366m. Speed=24.516001m/h.</desc>
<speed>6.810000</speed>
</trkpt>
<trkpt lat="55.908085" lon="26.618446">
<ele>126.067444</ele>
<time>2010-06-20T13:45:46Z</time>
<desc>lat.=55.908085, lon.=26.618446, Alt.=126.067444m. Speed=23.796000m/h.</desc>
<speed>6.610000</speed>
</trkpt>
<trkpt lat="55.908035" lon="26.618391">
<ele>125.176819</ele>
<time>2010-06-20T13:45:47Z</time>
<desc>lat.=55.908035, lon.=26.618391, Alt.=125.176819m. Speed=22.643999m/h.</desc>
<speed>6.290000</speed>
</trkpt>
<trkpt lat="55.907990" lon="26.618341">
<ele>125.274475</ele>
<time>2010-06-20T13:45:48Z</time>
<desc>lat.=55.907990, lon.=26.618341, Alt.=125.274475m. Speed=20.916000m/h.</desc>
<speed>5.810000</speed>
</trkpt>
<trkpt lat="55.907944" lon="26.618292">
<ele>124.903381</ele>
<time>2010-06-20T13:45:49Z</time>
<desc>lat.=55.907944, lon.=26.618292, Alt.=124.903381m. Speed=19.548000m/h.</desc>
<speed>5.430000</speed>
</trkpt>
<trkpt lat="55.907906" lon="26.618242">
<ele>124.819397</ele>
<time>2010-06-20T13:45:50Z</time>
<desc>lat.=55.907906, lon.=26.618242, Alt.=124.819397m. Speed=18.576000m/h.</desc>
<speed>5.160000</speed>
</trkpt>
<trkpt lat="55.907871" lon="26.618198">
<ele>124.829163</ele>
<time>2010-06-20T13:45:51Z</time>
<desc>lat.=55.907871, lon.=26.618198, Alt.=124.829163m. Speed=15.660000m/h.</desc>
<speed>4.350000</speed>
</trkpt>
<trkpt lat="55.907841" lon="26.618155">
<ele>124.524475</ele>
<time>2010-06-20T13:45:52Z</time>
<desc>lat.=55.907841, lon.=26.618155, Alt.=124.524475m. Speed=14.076000m/h.</desc>
<speed>3.910000</speed>
</trkpt>
<trkpt lat="55.907814" lon="26.618120">
<ele>124.563538</ele>
<time>2010-06-20T13:45:53Z</time>
<desc>lat.=55.907814, lon.=26.618120, Alt.=124.563538m. Speed=12.204000m/h.</desc>
<speed>3.390000</speed>
</trkpt>
<trkpt lat="55.907795" lon="26.618099">
<ele>124.756897</ele>
<time>2010-06-20T13:45:54Z</time>
<desc>lat.=55.907795, lon.=26.618099, Alt.=124.756897m. Speed=9.900000m/h.</desc>
<speed>2.750000</speed>
</trkpt>
<trkpt lat="55.907776" lon="26.618080">
<ele>124.079163</ele>
<time>2010-06-20T13:45:55Z</time>
<desc>lat.=55.907776, lon.=26.618080, Alt.=124.079163m. Speed=7.416000m/h.</desc>
<speed>2.060000</speed>
</trkpt>
<trkpt lat="55.907761" lon="26.618071">
<ele>123.059631</ele>
<time>2010-06-20T13:45:56Z</time>
<desc>lat.=55.907761, lon.=26.618071, Alt.=123.059631m. Speed=2.376000m/h.</desc>
<speed>0.660000</speed>
</trkpt>
<trkpt lat="55.907757" lon="26.618071">
<ele>122.528381</ele>
<time>2010-06-20T13:45:57Z</time>
<desc>lat.=55.907757, lon.=26.618071, Alt.=122.528381m. Speed=0.684000m/h.</desc>
<speed>0.190000</speed>
</trkpt>
<trkpt lat="55.907761" lon="26.618073">
<ele>122.465881</ele>
<time>2010-06-20T13:45:58Z</time>
<desc>lat.=55.907761, lon.=26.618073, Alt.=122.465881m. Speed=0.684000m/h.</desc>
<speed>0.190000</speed>
</trkpt>
<trkpt lat="55.907757" lon="26.618067">
<ele>122.286194</ele>
<time>2010-06-20T13:45:59Z</time>
<desc>lat.=55.907757, lon.=26.618067, Alt.=122.286194m. Speed=0.180000m/h.</desc>
<speed>0.050000</speed>
</trkpt>
<trkpt lat="55.907757" lon="26.618067">
<ele>122.239319</ele>
<time>2010-06-20T13:46:00Z</time>
<desc>lat.=55.907757, lon.=26.618067, Alt.=122.239319m. Speed=0.216000m/h.</desc>
<speed>0.060000</speed>
</trkpt>
<trkpt lat="55.907757" lon="26.618067">
<ele>122.200256</ele>
<time>2010-06-20T13:46:01Z</time>
<desc>lat.=55.907757, lon.=26.618067, Alt.=122.200256m. Speed=0.432000m/h.</desc>
<speed>0.120000</speed>
</trkpt>
<trkpt lat="55.907757" lon="26.618065">
<ele>122.165100</ele>
<time>2010-06-20T13:46:02Z</time>
<desc>lat.=55.907757, lon.=26.618065, Alt.=122.165100m. Speed=0.324000m/h.</desc>
<speed>0.090000</speed>
</trkpt>
<trkpt lat="55.907753" lon="26.618065">
<ele>122.137756</ele>
<time>2010-06-20T13:46:03Z</time>
<desc>lat.=55.907753, lon.=26.618065, Alt.=122.137756m. Speed=0.612000m/h.</desc>
<speed>0.170000</speed>
</trkpt>
<trkpt lat="55.907757" lon="26.618067">
<ele>122.120178</ele>
<time>2010-06-20T13:46:04Z</time>
<desc>lat.=55.907757, lon.=26.618067, Alt.=122.120178m. Speed=0.396000m/h.</desc>
<speed>0.110000</speed>
</trkpt>
<trkpt lat="55.907757" lon="26.618067">
<ele>122.106506</ele>
<time>2010-06-20T13:46:05Z</time>
<desc>lat.=55.907757, lon.=26.618067, Alt.=122.106506m. Speed=0.108000m/h.</desc>
<speed>0.030000</speed>
</trkpt>
<trkpt lat="55.907757" lon="26.618067">
<ele>122.098694</ele>
<time>2010-06-20T13:46:06Z</time>
<desc>lat.=55.907757, lon.=26.618067, Alt.=122.098694m. Speed=0.072000m/h.</desc>
<speed>0.020000</speed>
</trkpt>
<trkpt lat="55.907757" lon="26.618067">
<ele>122.092834</ele>
<time>2010-06-20T13:46:07Z</time>
<desc>lat.=55.907757, lon.=26.618067, Alt.=122.092834m. Speed=0.144000m/h.</desc>
<speed>0.040000</speed>
</trkpt>
<trkpt lat="55.907757" lon="26.618069">
<ele>122.077209</ele>
<time>2010-06-20T13:46:08Z</time>
<desc>lat.=55.907757, lon.=26.618069, Alt.=122.077209m. Speed=0.036000m/h.</desc>
<speed>0.010000</speed>
</trkpt>
<trkpt lat="55.907757" lon="26.618069">
<ele>122.081116</ele>
<time>2010-06-20T13:46:09Z</time>
<desc>lat.=55.907757, lon.=26.618069, Alt.=122.081116m. Speed=0.036000m/h.</desc>
<speed>0.010000</speed>
</trkpt>
<trkpt lat="55.907757" lon="26.618067">
<ele>122.069397</ele>
<time>2010-06-20T13:46:10Z</time>
<desc>lat.=55.907757, lon.=26.618067, Alt.=122.069397m. Speed=0.000000m/h.</desc>
<speed>0.000000</speed>
</trkpt>
<trkpt lat="55.907757" lon="26.618067">
<ele>122.067444</ele>
<time>2010-06-20T13:46:11Z</time>
<desc>lat.=55.907757, lon.=26.618067, Alt.=122.067444m. Speed=0.036000m/h.</desc>
<speed>0.010000</speed>
</trkpt>
<trkpt lat="55.907757" lon="26.618067">
<ele>122.067444</ele>
<time>2010-06-20T13:46:12Z</time>
<desc>lat.=55.907757, lon.=26.618067, Alt.=122.067444m. Speed=0.036000m/h.</desc>
<speed>0.010000</speed>
</trkpt>
<trkpt lat="55.907757" lon="26.618067">
<ele>122.059631</ele>
<time>2010-06-20T13:46:13Z</time>
<desc>lat.=55.907757, lon.=26.618067, Alt.=122.059631m. Speed=0.108000m/h.</desc>
<speed>0.030000</speed>
</trkpt>
<trkpt lat="55.907757" lon="26.618067">
<ele>122.053772</ele>
<time>2010-06-20T13:46:14Z</time>
<desc>lat.=55.907757, lon.=26.618067, Alt.=122.053772m. Speed=0.432000m/h.</desc>
<speed>0.120000</speed>
</trkpt>
<trkpt lat="55.907757" lon="26.618065">
<ele>122.049866</ele>
<time>2010-06-20T13:46:15Z</time>
<desc>lat.=55.907757, lon.=26.618065, Alt.=122.049866m. Speed=2.484000m/h.</desc>
<speed>0.690000</speed>
</trkpt>
<trkpt lat="55.907753" lon="26.618065">
<ele>122.059631</ele>
<time>2010-06-20T13:46:16Z</time>
<desc>lat.=55.907753, lon.=26.618065, Alt.=122.059631m. Speed=1.152000m/h.</desc>
<speed>0.320000</speed>
</trkpt>
<trkpt lat="55.907749" lon="26.618061">
<ele>122.098694</ele>
<time>2010-06-20T13:46:17Z</time>
<desc>lat.=55.907749, lon.=26.618061, Alt.=122.098694m. Speed=2.772000m/h.</desc>
<speed>0.770000</speed>
</trkpt>
<trkpt lat="55.907745" lon="26.618052">
<ele>122.172913</ele>
<time>2010-06-20T13:46:18Z</time>
<desc>lat.=55.907745, lon.=26.618052, Alt.=122.172913m. Speed=2.916000m/h.</desc>
<speed>0.810000</speed>
</trkpt>
<trkpt lat="55.907742" lon="26.618040">
<ele>122.217834</ele>
<time>2010-06-20T13:46:19Z</time>
<desc>lat.=55.907742, lon.=26.618040, Alt.=122.217834m. Speed=2.592000m/h.</desc>
<speed>0.720000</speed>
</trkpt>
<trkpt lat="55.907738" lon="26.618029">
<ele>122.235413</ele>
<time>2010-06-20T13:46:20Z</time>
<desc>lat.=55.907738, lon.=26.618029, Alt.=122.235413m. Speed=2.268000m/h.</desc>
<speed>0.630000</speed>
</trkpt>
<trkpt lat="55.907738" lon="26.618019">
<ele>122.233459</ele>
<time>2010-06-20T13:46:21Z</time>
<desc>lat.=55.907738, lon.=26.618019, Alt.=122.233459m. Speed=2.052000m/h.</desc>
<speed>0.570000</speed>
</trkpt>
<trkpt lat="55.907738" lon="26.618010">
<ele>122.219788</ele>
<time>2010-06-20T13:46:22Z</time>
<desc>lat.=55.907738, lon.=26.618010, Alt.=122.219788m. Speed=2.628000m/h.</desc>
<speed>0.730000</speed>
</trkpt>
<trkpt lat="55.907734" lon="26.618002">
<ele>122.237366</ele>
<time>2010-06-20T13:46:23Z</time>
<desc>lat.=55.907734, lon.=26.618002, Alt.=122.237366m. Speed=2.952000m/h.</desc>
<speed>0.820000</speed>
</trkpt>
<trkpt lat="55.907734" lon="26.617989">
<ele>122.206116</ele>
<time>2010-06-20T13:46:24Z</time>
<desc>lat.=55.907734, lon.=26.617989, Alt.=122.206116m. Speed=2.376000m/h.</desc>
<speed>0.660000</speed>
</trkpt>
<trkpt lat="55.907730" lon="26.617979">
<ele>122.249084</ele>
<time>2010-06-20T13:46:25Z</time>
<desc>lat.=55.907730, lon.=26.617979, Alt.=122.249084m. Speed=1.548000m/h.</desc>
<speed>0.430000</speed>
</trkpt>
<trkpt lat="55.907726" lon="26.617973">
<ele>122.292053</ele>
<time>2010-06-20T13:46:26Z</time>
<desc>lat.=55.907726, lon.=26.617973, Alt.=122.292053m. Speed=1.152000m/h.</desc>
<speed>0.320000</speed>
</trkpt>
<trkpt lat="55.907730" lon="26.617968">
<ele>122.329163</ele>
<time>2010-06-20T13:46:27Z</time>
<desc>lat.=55.907730, lon.=26.617968, Alt.=122.329163m. Speed=0.756000m/h.</desc>
<speed>0.210000</speed>
</trkpt>
<trkpt lat="55.907730" lon="26.617966">
<ele>122.366272</ele>
<time>2010-06-20T13:46:28Z</time>
<desc>lat.=55.907730, lon.=26.617966, Alt.=122.366272m. Speed=0.504000m/h.</desc>
<speed>0.140000</speed>
</trkpt>
<trkpt lat="55.907730" lon="26.617964">
<ele>122.389709</ele>
<time>2010-06-20T13:46:29Z</time>
<desc>lat.=55.907730, lon.=26.617964, Alt.=122.389709m. Speed=0.288000m/h.</desc>
<speed>0.080000</speed>
</trkpt>
<trkpt lat="55.907726" lon="26.617962">
<ele>122.409241</ele>
<time>2010-06-20T13:46:30Z</time>
<desc>lat.=55.907726, lon.=26.617962, Alt.=122.409241m. Speed=0.252000m/h.</desc>
<speed>0.070000</speed>
</trkpt>
<trkpt lat="55.907726" lon="26.617962">
<ele>122.420959</ele>
<time>2010-06-20T13:46:31Z</time>
<desc>lat.=55.907726, lon.=26.617962, Alt.=122.420959m. Speed=0.540000m/h.</desc>
<speed>0.150000</speed>
</trkpt>
<trkpt lat="55.907726" lon="26.617962">
<ele>122.432678</ele>
<time>2010-06-20T13:46:32Z</time>
<desc>lat.=55.907726, lon.=26.617962, Alt.=122.432678m. Speed=0.468000m/h.</desc>
<speed>0.130000</speed>
</trkpt>
<trkpt lat="55.907726" lon="26.617962">
<ele>122.438538</ele>
<time>2010-06-20T13:46:33Z</time>
<desc>lat.=55.907726, lon.=26.617962, Alt.=122.438538m. Speed=0.432000m/h.</desc>
<speed>0.120000</speed>
</trkpt>
<trkpt lat="55.907722" lon="26.617960">
<ele>122.444397</ele>
<time>2010-06-20T13:46:34Z</time>
<desc>lat.=55.907722, lon.=26.617960, Alt.=122.444397m. Speed=0.612000m/h.</desc>
<speed>0.170000</speed>
</trkpt>
<trkpt lat="55.907722" lon="26.617958">
<ele>122.450256</ele>
<time>2010-06-20T13:46:35Z</time>
<desc>lat.=55.907722, lon.=26.617958, Alt.=122.450256m. Speed=0.540000m/h.</desc>
<speed>0.150000</speed>
</trkpt>
<trkpt lat="55.907722" lon="26.617956">
<ele>122.458069</ele>
<time>2010-06-20T13:46:36Z</time>
<desc>lat.=55.907722, lon.=26.617956, Alt.=122.458069m. Speed=0.576000m/h.</desc>
<speed>0.160000</speed>
</trkpt>
<trkpt lat="55.907722" lon="26.617954">
<ele>122.465881</ele>
<time>2010-06-20T13:46:37Z</time>
<desc>lat.=55.907722, lon.=26.617954, Alt.=122.465881m. Speed=0.252000m/h.</desc>
<speed>0.070000</speed>
</trkpt>
<trkpt lat="55.907722" lon="26.617954">
<ele>122.471741</ele>
<time>2010-06-20T13:46:38Z</time>
<desc>lat.=55.907722, lon.=26.617954, Alt.=122.471741m. Speed=0.360000m/h.</desc>
<speed>0.100000</speed>
</trkpt>
<trkpt lat="55.907719" lon="26.617954">
<ele>122.471741</ele>
<time>2010-06-20T13:46:39Z</time>
<desc>lat.=55.907719, lon.=26.617954, Alt.=122.471741m. Speed=0.612000m/h.</desc>
<speed>0.170000</speed>
</trkpt>
<trkpt lat="55.907719" lon="26.617956">
<ele>122.469788</ele>
<time>2010-06-20T13:46:40Z</time>
<desc>lat.=55.907719, lon.=26.617956, Alt.=122.469788m. Speed=0.648000m/h.</desc>
<speed>0.180000</speed>
</trkpt>
<trkpt lat="55.907715" lon="26.617956">
<ele>122.463928</ele>
<time>2010-06-20T13:46:41Z</time>
<desc>lat.=55.907715, lon.=26.617956, Alt.=122.463928m. Speed=0.756000m/h.</desc>
<speed>0.210000</speed>
</trkpt>
<trkpt lat="55.907715" lon="26.617956">
<ele>122.460022</ele>
<time>2010-06-20T13:46:42Z</time>
<desc>lat.=55.907715, lon.=26.617956, Alt.=122.460022m. Speed=0.864000m/h.</desc>
<speed>0.240000</speed>
</trkpt>
<trkpt lat="55.907711" lon="26.617954">
<ele>122.456116</ele>
<time>2010-06-20T13:46:43Z</time>
<desc>lat.=55.907711, lon.=26.617954, Alt.=122.456116m. Speed=0.936000m/h.</desc>
<speed>0.260000</speed>
</trkpt>
<trkpt lat="55.907711" lon="26.617958">
<ele>122.452209</ele>
<time>2010-06-20T13:46:44Z</time>
<desc>lat.=55.907711, lon.=26.617958, Alt.=122.452209m. Speed=0.972000m/h.</desc>
<speed>0.270000</speed>
</trkpt>
<trkpt lat="55.907711" lon="26.617962">
<ele>122.450256</ele>
<time>2010-06-20T13:46:45Z</time>
<desc>lat.=55.907711, lon.=26.617962, Alt.=122.450256m. Speed=1.044000m/h.</desc>
<speed>0.290000</speed>
</trkpt>
<trkpt lat="55.907711" lon="26.617966">
<ele>122.463928</ele>
<time>2010-06-20T13:46:46Z</time>
<desc>lat.=55.907711, lon.=26.617966, Alt.=122.463928m. Speed=1.296000m/h.</desc>
<speed>0.360000</speed>
</trkpt>
<trkpt lat="55.907707" lon="26.617971">
<ele>122.475647</ele>
<time>2010-06-20T13:46:47Z</time>
<desc>lat.=55.907707, lon.=26.617971, Alt.=122.475647m. Speed=1.440000m/h.</desc>
<speed>0.400000</speed>
</trkpt>
<trkpt lat="55.907707" lon="26.617977">
<ele>122.479553</ele>
<time>2010-06-20T13:46:48Z</time>
<desc>lat.=55.907707, lon.=26.617977, Alt.=122.479553m. Speed=1.296000m/h.</desc>
<speed>0.360000</speed>
</trkpt>
<trkpt lat="55.907703" lon="26.617979">
<ele>122.477600</ele>
<time>2010-06-20T13:46:49Z</time>
<desc>lat.=55.907703, lon.=26.617979, Alt.=122.477600m. Speed=0.108000m/h.</desc>
<speed>0.030000</speed>
</trkpt>
<trkpt lat="55.907703" lon="26.617981">
<ele>122.467834</ele>
<time>2010-06-20T13:46:50Z</time>
<desc>lat.=55.907703, lon.=26.617981, Alt.=122.467834m. Speed=0.108000m/h.</desc>
<speed>0.030000</speed>
</trkpt>
<trkpt lat="55.907703" lon="26.617981">
<ele>122.434631</ele>
<time>2010-06-20T13:46:51Z</time>
<desc>lat.=55.907703, lon.=26.617981, Alt.=122.434631m. Speed=0.108000m/h.</desc>
<speed>0.030000</speed>
</trkpt>
<trkpt lat="55.907703" lon="26.617981">
<ele>122.411194</ele>
<time>2010-06-20T13:46:52Z</time>
<desc>lat.=55.907703, lon.=26.617981, Alt.=122.411194m. Speed=0.036000m/h.</desc>
<speed>0.010000</speed>
</trkpt>
<trkpt lat="55.907703" lon="26.617981">
<ele>122.391663</ele>
<time>2010-06-20T13:46:53Z</time>
<desc>lat.=55.907703, lon.=26.617981, Alt.=122.391663m. Speed=0.108000m/h.</desc>
<speed>0.030000</speed>
</trkpt>
<trkpt lat="55.907703" lon="26.617981">
<ele>122.376038</ele>
<time>2010-06-20T13:46:54Z</time>
<desc>lat.=55.907703, lon.=26.617981, Alt.=122.376038m. Speed=0.036000m/h.</desc>
<speed>0.010000</speed>
</trkpt>
<trkpt lat="55.907703" lon="26.617981">
<ele>122.362366</ele>
<time>2010-06-20T13:46:55Z</time>
<desc>lat.=55.907703, lon.=26.617981, Alt.=122.362366m. Speed=0.000000m/h.</desc>
<speed>0.000000</speed>
</trkpt>
<trkpt lat="55.907703" lon="26.617981">
<ele>122.352600</ele>
<time>2010-06-20T13:46:56Z</time>
<desc>lat.=55.907703, lon.=26.617981, Alt.=122.352600m. Speed=0.108000m/h.</desc>
<speed>0.030000</speed>
</trkpt>
<trkpt lat="55.907703" lon="26.617981">
<ele>122.342834</ele>
<time>2010-06-20T13:46:57Z</time>
<desc>lat.=55.907703, lon.=26.617981, Alt.=122.342834m. Speed=0.180000m/h.</desc>
<speed>0.050000</speed>
</trkpt>
<trkpt lat="55.907703" lon="26.617983">
<ele>122.335022</ele>
<time>2010-06-20T13:46:58Z</time>
<desc>lat.=55.907703, lon.=26.617983, Alt.=122.335022m. Speed=0.108000m/h.</desc>
<speed>0.030000</speed>
</trkpt>
<trkpt lat="55.907703" lon="26.617983">
<ele>122.329163</ele>
<time>2010-06-20T13:46:59Z</time>
<desc>lat.=55.907703, lon.=26.617983, Alt.=122.329163m. Speed=0.036000m/h.</desc>
<speed>0.010000</speed>
</trkpt>
<trkpt lat="55.907703" lon="26.617983">
<ele>122.323303</ele>
<time>2010-06-20T13:47:00Z</time>
<desc>lat.=55.907703, lon.=26.617983, Alt.=122.323303m. Speed=0.108000m/h.</desc>
<speed>0.030000</speed>
</trkpt>
<trkpt lat="55.907703" lon="26.617983">
<ele>122.321350</ele>
<time>2010-06-20T13:47:01Z</time>
<desc>lat.=55.907703, lon.=26.617983, Alt.=122.321350m. Speed=0.144000m/h.</desc>
<speed>0.040000</speed>
</trkpt>
<trkpt lat="55.907703" lon="26.617985">
<ele>122.315491</ele>
<time>2010-06-20T13:47:02Z</time>
<desc>lat.=55.907703, lon.=26.617985, Alt.=122.315491m. Speed=0.072000m/h.</desc>
<speed>0.020000</speed>
</trkpt>
<trkpt lat="55.907703" lon="26.617985">
<ele>122.311584</ele>
<time>2010-06-20T13:47:03Z</time>
<desc>lat.=55.907703, lon.=26.617985, Alt.=122.311584m. Speed=0.216000m/h.</desc>
<speed>0.060000</speed>
</trkpt>
<trkpt lat="55.907703" lon="26.617985">
<ele>122.305725</ele>
<time>2010-06-20T13:47:04Z</time>
<desc>lat.=55.907703, lon.=26.617985, Alt.=122.305725m. Speed=0.180000m/h.</desc>
<speed>0.050000</speed>
</trkpt>
<trkpt lat="55.907703" lon="26.617985">
<ele>122.303772</ele>
<time>2010-06-20T13:47:05Z</time>
<desc>lat.=55.907703, lon.=26.617985, Alt.=122.303772m. Speed=0.072000m/h.</desc>
<speed>0.020000</speed>
</trkpt>
<trkpt lat="55.907703" lon="26.617985">
<ele>122.303772</ele>
<time>2010-06-20T13:47:06Z</time>
<desc>lat.=55.907703, lon.=26.617985, Alt.=122.303772m. Speed=0.036000m/h.</desc>
<speed>0.010000</speed>
</trkpt>
<trkpt lat="55.907703" lon="26.617985">
<ele>122.307678</ele>
<time>2010-06-20T13:47:07Z</time>
<desc>lat.=55.907703, lon.=26.617985, Alt.=122.307678m. Speed=0.072000m/h.</desc>
<speed>0.020000</speed>
</trkpt>
<trkpt lat="55.907703" lon="26.617985">
<ele>122.311584</ele>
<time>2010-06-20T13:47:08Z</time>
<desc>lat.=55.907703, lon.=26.617985, Alt.=122.311584m. Speed=0.000000m/h.</desc>
<speed>0.000000</speed>
</trkpt>
<trkpt lat="55.907703" lon="26.617985">
<ele>122.317444</ele>
<time>2010-06-20T13:47:09Z</time>
<desc>lat.=55.907703, lon.=26.617985, Alt.=122.317444m. Speed=0.108000m/h.</desc>
<speed>0.030000</speed>
</trkpt>
<trkpt lat="55.907703" lon="26.617985">
<ele>122.325256</ele>
<time>2010-06-20T13:47:10Z</time>
<desc>lat.=55.907703, lon.=26.617985, Alt.=122.325256m. Speed=0.216000m/h.</desc>
<speed>0.060000</speed>
</trkpt>
<trkpt lat="55.907703" lon="26.617987">
<ele>122.333069</ele>
<time>2010-06-20T13:47:11Z</time>
<desc>lat.=55.907703, lon.=26.617987, Alt.=122.333069m. Speed=0.036000m/h.</desc>
<speed>0.010000</speed>
</trkpt>
<trkpt lat="55.907703" lon="26.617987">
<ele>122.342834</ele>
<time>2010-06-20T13:47:12Z</time>
<desc>lat.=55.907703, lon.=26.617987, Alt.=122.342834m. Speed=0.108000m/h.</desc>
<speed>0.030000</speed>
</trkpt>
<trkpt lat="55.907703" lon="26.617987">
<ele>122.348694</ele>
<time>2010-06-20T13:47:13Z</time>
<desc>lat.=55.907703, lon.=26.617987, Alt.=122.348694m. Speed=0.108000m/h.</desc>
<speed>0.030000</speed>
</trkpt>
<trkpt lat="55.907703" lon="26.617987">
<ele>122.356506</ele>
<time>2010-06-20T13:47:14Z</time>
<desc>lat.=55.907703, lon.=26.617987, Alt.=122.356506m. Speed=0.036000m/h.</desc>
<speed>0.010000</speed>
</trkpt>
<trkpt lat="55.907703" lon="26.617987">
<ele>122.362366</ele>
<time>2010-06-20T13:47:15Z</time>
<desc>lat.=55.907703, lon.=26.617987, Alt.=122.362366m. Speed=0.036000m/h.</desc>
<speed>0.010000</speed>
</trkpt>
<trkpt lat="55.907703" lon="26.617987">
<ele>122.366272</ele>
<time>2010-06-20T13:47:16Z</time>
<desc>lat.=55.907703, lon.=26.617987, Alt.=122.366272m. Speed=0.036000m/h.</desc>
<speed>0.010000</speed>
</trkpt>
<trkpt lat="55.907703" lon="26.617985">
<ele>122.368225</ele>
<time>2010-06-20T13:47:17Z</time>
<desc>lat.=55.907703, lon.=26.617985, Alt.=122.368225m. Speed=0.216000m/h.</desc>
<speed>0.060000</speed>
</trkpt>
<trkpt lat="55.907703" lon="26.617985">
<ele>122.368225</ele>
<time>2010-06-20T13:47:18Z</time>
<desc>lat.=55.907703, lon.=26.617985, Alt.=122.368225m. Speed=0.216000m/h.</desc>
<speed>0.060000</speed>
</trkpt>
<trkpt lat="55.907703" lon="26.617985">
<ele>122.366272</ele>
<time>2010-06-20T13:47:19Z</time>
<desc>lat.=55.907703, lon.=26.617985, Alt.=122.366272m. Speed=0.108000m/h.</desc>
<speed>0.030000</speed>
</trkpt>
<trkpt lat="55.907703" lon="26.617983">
<ele>122.366272</ele>
<time>2010-06-20T13:47:20Z</time>
<desc>lat.=55.907703, lon.=26.617983, Alt.=122.366272m. Speed=0.180000m/h.</desc>
<speed>0.050000</speed>
</trkpt>
<trkpt lat="55.907703" lon="26.617985">
<ele>122.368225</ele>
<time>2010-06-20T13:47:21Z</time>
<desc>lat.=55.907703, lon.=26.617985, Alt.=122.368225m. Speed=0.036000m/h.</desc>
<speed>0.010000</speed>
</trkpt>
<trkpt lat="55.907703" lon="26.617985">
<ele>122.366272</ele>
<time>2010-06-20T13:47:22Z</time>
<desc>lat.=55.907703, lon.=26.617985, Alt.=122.366272m. Speed=0.072000m/h.</desc>
<speed>0.020000</speed>
</trkpt>
<trkpt lat="55.907703" lon="26.617985">
<ele>122.364319</ele>
<time>2010-06-20T13:47:23Z</time>
<desc>lat.=55.907703, lon.=26.617985, Alt.=122.364319m. Speed=0.108000m/h.</desc>
<speed>0.030000</speed>
</trkpt>
<trkpt lat="55.907703" lon="26.617985">
<ele>122.360413</ele>
<time>2010-06-20T13:47:24Z</time>
<desc>lat.=55.907703, lon.=26.617985, Alt.=122.360413m. Speed=0.216000m/h.</desc>
<speed>0.060000</speed>
</trkpt>
<trkpt lat="55.907703" lon="26.617987">
<ele>122.358459</ele>
<time>2010-06-20T13:47:25Z</time>
<desc>lat.=55.907703, lon.=26.617987, Alt.=122.358459m. Speed=0.396000m/h.</desc>
<speed>0.110000</speed>
</trkpt>
<trkpt lat="55.907703" lon="26.617989">
<ele>122.356506</ele>
<time>2010-06-20T13:47:26Z</time>
<desc>lat.=55.907703, lon.=26.617989, Alt.=122.356506m. Speed=0.468000m/h.</desc>
<speed>0.130000</speed>
</trkpt>
<trkpt lat="55.907707" lon="26.617990">
<ele>122.354553</ele>
<time>2010-06-20T13:47:27Z</time>
<desc>lat.=55.907707, lon.=26.617990, Alt.=122.354553m. Speed=0.324000m/h.</desc>
<speed>0.090000</speed>
</trkpt>
<trkpt lat="55.907707" lon="26.617990">
<ele>122.350647</ele>
<time>2010-06-20T13:47:28Z</time>
<desc>lat.=55.907707, lon.=26.617990, Alt.=122.350647m. Speed=0.252000m/h.</desc>
<speed>0.070000</speed>
</trkpt>
<trkpt lat="55.907707" lon="26.617992">
<ele>122.348694</ele>
<time>2010-06-20T13:47:29Z</time>
<desc>lat.=55.907707, lon.=26.617992, Alt.=122.348694m. Speed=0.432000m/h.</desc>
<speed>0.120000</speed>
</trkpt>
<trkpt lat="55.907707" lon="26.617994">
<ele>122.348694</ele>
<time>2010-06-20T13:47:30Z</time>
<desc>lat.=55.907707, lon.=26.617994, Alt.=122.348694m. Speed=0.432000m/h.</desc>
<speed>0.120000</speed>
</trkpt>
<trkpt lat="55.907707" lon="26.617996">
<ele>122.348694</ele>
<time>2010-06-20T13:47:31Z</time>
<desc>lat.=55.907707, lon.=26.617996, Alt.=122.348694m. Speed=0.288000m/h.</desc>
<speed>0.080000</speed>
</trkpt>
<trkpt lat="55.907707" lon="26.617996">
<ele>122.348694</ele>
<time>2010-06-20T13:47:32Z</time>
<desc>lat.=55.907707, lon.=26.617996, Alt.=122.348694m. Speed=0.216000m/h.</desc>
<speed>0.060000</speed>
</trkpt>
<trkpt lat="55.907711" lon="26.617998">
<ele>122.348694</ele>
<time>2010-06-20T13:47:33Z</time>
<desc>lat.=55.907711, lon.=26.617998, Alt.=122.348694m. Speed=0.216000m/h.</desc>
<speed>0.060000</speed>
</trkpt>
<trkpt lat="55.907711" lon="26.617998">
<ele>122.348694</ele>
<time>2010-06-20T13:47:34Z</time>
<desc>lat.=55.907711, lon.=26.617998, Alt.=122.348694m. Speed=0.216000m/h.</desc>
<speed>0.060000</speed>
</trkpt>
<trkpt lat="55.907711" lon="26.617998">
<ele>122.348694</ele>
<time>2010-06-20T13:47:35Z</time>
<desc>lat.=55.907711, lon.=26.617998, Alt.=122.348694m. Speed=0.324000m/h.</desc>
<speed>0.090000</speed>
</trkpt>
<trkpt lat="55.907711" lon="26.618000">
<ele>122.348694</ele>
<time>2010-06-20T13:47:36Z</time>
<desc>lat.=55.907711, lon.=26.618000, Alt.=122.348694m. Speed=0.468000m/h.</desc>
<speed>0.130000</speed>
</trkpt>
<trkpt lat="55.907711" lon="26.618002">
<ele>122.348694</ele>
<time>2010-06-20T13:47:37Z</time>
<desc>lat.=55.907711, lon.=26.618002, Alt.=122.348694m. Speed=0.324000m/h.</desc>
<speed>0.090000</speed>
</trkpt>
<trkpt lat="55.907711" lon="26.618002">
<ele>122.348694</ele>
<time>2010-06-20T13:47:38Z</time>
<desc>lat.=55.907711, lon.=26.618002, Alt.=122.348694m. Speed=0.396000m/h.</desc>
<speed>0.110000</speed>
</trkpt>
<trkpt lat="55.907707" lon="26.618004">
<ele>122.348694</ele>
<time>2010-06-20T13:47:39Z</time>
<desc>lat.=55.907707, lon.=26.618004, Alt.=122.348694m. Speed=0.504000m/h.</desc>
<speed>0.140000</speed>
</trkpt>
<trkpt lat="55.907707" lon="26.618006">
<ele>122.350647</ele>
<time>2010-06-20T13:47:40Z</time>
<desc>lat.=55.907707, lon.=26.618006, Alt.=122.350647m. Speed=0.720000m/h.</desc>
<speed>0.200000</speed>
</trkpt>
<trkpt lat="55.907707" lon="26.618008">
<ele>122.350647</ele>
<time>2010-06-20T13:47:41Z</time>
<desc>lat.=55.907707, lon.=26.618008, Alt.=122.350647m. Speed=0.504000m/h.</desc>
<speed>0.140000</speed>
</trkpt>
<trkpt lat="55.907707" lon="26.618010">
<ele>122.352600</ele>
<time>2010-06-20T13:47:42Z</time>
<desc>lat.=55.907707, lon.=26.618010, Alt.=122.352600m. Speed=0.396000m/h.</desc>
<speed>0.110000</speed>
</trkpt>
<trkpt lat="55.907703" lon="26.618011">
<ele>122.350647</ele>
<time>2010-06-20T13:47:43Z</time>
<desc>lat.=55.907703, lon.=26.618011, Alt.=122.350647m. Speed=0.396000m/h.</desc>
<speed>0.110000</speed>
</trkpt>
<trkpt lat="55.907703" lon="26.618011">
<ele>122.350647</ele>
<time>2010-06-20T13:47:44Z</time>
<desc>lat.=55.907703, lon.=26.618011, Alt.=122.350647m. Speed=0.252000m/h.</desc>
<speed>0.070000</speed>
</trkpt>
<trkpt lat="55.907703" lon="26.618010">
<ele>122.348694</ele>
<time>2010-06-20T13:47:45Z</time>
<desc>lat.=55.907703, lon.=26.618010, Alt.=122.348694m. Speed=0.504000m/h.</desc>
<speed>0.140000</speed>
</trkpt>
<trkpt lat="55.907703" lon="26.618010">
<ele>122.346741</ele>
<time>2010-06-20T13:47:46Z</time>
<desc>lat.=55.907703, lon.=26.618010, Alt.=122.346741m. Speed=0.000000m/h.</desc>
<speed>0.000000</speed>
</trkpt>
<trkpt lat="55.907703" lon="26.618010">
<ele>122.342834</ele>
<time>2010-06-20T13:47:47Z</time>
<desc>lat.=55.907703, lon.=26.618010, Alt.=122.342834m. Speed=0.684000m/h.</desc>
<speed>0.190000</speed>
</trkpt>
<trkpt lat="55.907700" lon="26.618013">
<ele>122.338928</ele>
<time>2010-06-20T13:47:48Z</time>
<desc>lat.=55.907700, lon.=26.618013, Alt.=122.338928m. Speed=0.468000m/h.</desc>
<speed>0.130000</speed>
</trkpt>
<trkpt lat="55.907700" lon="26.618013">
<ele>122.336975</ele>
<time>2010-06-20T13:47:49Z</time>
<desc>lat.=55.907700, lon.=26.618013, Alt.=122.336975m. Speed=0.432000m/h.</desc>
<speed>0.120000</speed>
</trkpt>
<trkpt lat="55.907700" lon="26.618015">
<ele>122.333069</ele>
<time>2010-06-20T13:47:50Z</time>
<desc>lat.=55.907700, lon.=26.618015, Alt.=122.333069m. Speed=0.720000m/h.</desc>
<speed>0.200000</speed>
</trkpt>
<trkpt lat="55.907696" lon="26.618017">
<ele>122.329163</ele>
<time>2010-06-20T13:47:51Z</time>
<desc>lat.=55.907696, lon.=26.618017, Alt.=122.329163m. Speed=0.576000m/h.</desc>
<speed>0.160000</speed>
</trkpt>
<trkpt lat="55.907696" lon="26.618019">
<ele>122.327209</ele>
<time>2010-06-20T13:47:52Z</time>
<desc>lat.=55.907696, lon.=26.618019, Alt.=122.327209m. Speed=0.576000m/h.</desc>
<speed>0.160000</speed>
</trkpt>
<trkpt lat="55.907696" lon="26.618021">
<ele>122.321350</ele>
<time>2010-06-20T13:47:53Z</time>
<desc>lat.=55.907696, lon.=26.618021, Alt.=122.321350m. Speed=0.396000m/h.</desc>
<speed>0.110000</speed>
</trkpt>
<trkpt lat="55.907696" lon="26.618021">
<ele>122.317444</ele>
<time>2010-06-20T13:47:54Z</time>
<desc>lat.=55.907696, lon.=26.618021, Alt.=122.317444m. Speed=0.288000m/h.</desc>
<speed>0.080000</speed>
</trkpt>
<trkpt lat="55.907696" lon="26.618023">
<ele>122.315491</ele>
<time>2010-06-20T13:47:55Z</time>
<desc>lat.=55.907696, lon.=26.618023, Alt.=122.315491m. Speed=0.396000m/h.</desc>
<speed>0.110000</speed>
</trkpt>
<trkpt lat="55.907692" lon="26.618023">
<ele>122.313538</ele>
<time>2010-06-20T13:47:56Z</time>
<desc>lat.=55.907692, lon.=26.618023, Alt.=122.313538m. Speed=0.360000m/h.</desc>
<speed>0.100000</speed>
</trkpt>
<trkpt lat="55.907692" lon="26.618025">
<ele>122.315491</ele>
<time>2010-06-20T13:47:57Z</time>
<desc>lat.=55.907692, lon.=26.618025, Alt.=122.315491m. Speed=0.576000m/h.</desc>
<speed>0.160000</speed>
</trkpt>
<trkpt lat="55.907692" lon="26.618027">
<ele>122.315491</ele>
<time>2010-06-20T13:47:58Z</time>
<desc>lat.=55.907692, lon.=26.618027, Alt.=122.315491m. Speed=0.540000m/h.</desc>
<speed>0.150000</speed>
</trkpt>
<trkpt lat="55.907692" lon="26.618029">
<ele>122.313538</ele>
<time>2010-06-20T13:47:59Z</time>
<desc>lat.=55.907692, lon.=26.618029, Alt.=122.313538m. Speed=0.612000m/h.</desc>
<speed>0.170000</speed>
</trkpt>
<trkpt lat="55.907688" lon="26.618031">
<ele>122.313538</ele>
<time>2010-06-20T13:48:00Z</time>
<desc>lat.=55.907688, lon.=26.618031, Alt.=122.313538m. Speed=0.648000m/h.</desc>
<speed>0.180000</speed>
</trkpt>
<trkpt lat="55.907688" lon="26.618032">
<ele>122.313538</ele>
<time>2010-06-20T13:48:01Z</time>
<desc>lat.=55.907688, lon.=26.618032, Alt.=122.313538m. Speed=0.720000m/h.</desc>
<speed>0.200000</speed>
</trkpt>
<trkpt lat="55.907688" lon="26.618034">
<ele>122.317444</ele>
<time>2010-06-20T13:48:02Z</time>
<desc>lat.=55.907688, lon.=26.618034, Alt.=122.317444m. Speed=0.540000m/h.</desc>
<speed>0.150000</speed>
</trkpt>
<trkpt lat="55.907688" lon="26.618038">
<ele>122.317444</ele>
<time>2010-06-20T13:48:03Z</time>
<desc>lat.=55.907688, lon.=26.618038, Alt.=122.317444m. Speed=0.360000m/h.</desc>
<speed>0.100000</speed>
</trkpt>
<trkpt lat="55.907684" lon="26.618038">
<ele>122.319397</ele>
<time>2010-06-20T13:48:04Z</time>
<desc>lat.=55.907684, lon.=26.618038, Alt.=122.319397m. Speed=0.360000m/h.</desc>
<speed>0.100000</speed>
</trkpt>
<trkpt lat="55.907688" lon="26.618040">
<ele>122.321350</ele>
<time>2010-06-20T13:48:05Z</time>
<desc>lat.=55.907688, lon.=26.618040, Alt.=122.321350m. Speed=0.252000m/h.</desc>
<speed>0.070000</speed>
</trkpt>
<trkpt lat="55.907688" lon="26.618042">
<ele>122.321350</ele>
<time>2010-06-20T13:48:06Z</time>
<desc>lat.=55.907688, lon.=26.618042, Alt.=122.321350m. Speed=0.180000m/h.</desc>
<speed>0.050000</speed>
</trkpt>
<trkpt lat="55.907688" lon="26.618042">
<ele>122.323303</ele>
<time>2010-06-20T13:48:07Z</time>
<desc>lat.=55.907688, lon.=26.618042, Alt.=122.323303m. Speed=0.324000m/h.</desc>
<speed>0.090000</speed>
</trkpt>
<trkpt lat="55.907688" lon="26.618044">
<ele>122.325256</ele>
<time>2010-06-20T13:48:08Z</time>
<desc>lat.=55.907688, lon.=26.618044, Alt.=122.325256m. Speed=0.180000m/h.</desc>
<speed>0.050000</speed>
</trkpt>
<trkpt lat="55.907688" lon="26.618046">
<ele>122.327209</ele>
<time>2010-06-20T13:48:09Z</time>
<desc>lat.=55.907688, lon.=26.618046, Alt.=122.327209m. Speed=0.288000m/h.</desc>
<speed>0.080000</speed>
</trkpt>
<trkpt lat="55.907688" lon="26.618046">
<ele>122.331116</ele>
<time>2010-06-20T13:48:10Z</time>
<desc>lat.=55.907688, lon.=26.618046, Alt.=122.331116m. Speed=0.468000m/h.</desc>
<speed>0.130000</speed>
</trkpt>
<trkpt lat="55.907688" lon="26.618048">
<ele>122.335022</ele>
<time>2010-06-20T13:48:11Z</time>
<desc>lat.=55.907688, lon.=26.618048, Alt.=122.335022m. Speed=0.324000m/h.</desc>
<speed>0.090000</speed>
</trkpt>
<trkpt lat="55.907688" lon="26.618050">
<ele>122.338928</ele>
<time>2010-06-20T13:48:12Z</time>
<desc>lat.=55.907688, lon.=26.618050, Alt.=122.338928m. Speed=0.180000m/h.</desc>
<speed>0.050000</speed>
</trkpt>
<trkpt lat="55.907688" lon="26.618050">
<ele>122.340881</ele>
<time>2010-06-20T13:48:13Z</time>
<desc>lat.=55.907688, lon.=26.618050, Alt.=122.340881m. Speed=0.072000m/h.</desc>
<speed>0.020000</speed>
</trkpt>
<trkpt lat="55.907688" lon="26.618050">
<ele>122.342834</ele>
<time>2010-06-20T13:48:14Z</time>
<desc>lat.=55.907688, lon.=26.618050, Alt.=122.342834m. Speed=0.180000m/h.</desc>
<speed>0.050000</speed>
</trkpt>
<trkpt lat="55.907688" lon="26.618052">
<ele>122.344788</ele>
<time>2010-06-20T13:48:15Z</time>
<desc>lat.=55.907688, lon.=26.618052, Alt.=122.344788m. Speed=0.540000m/h.</desc>
<speed>0.150000</speed>
</trkpt>
<trkpt lat="55.907688" lon="26.618053">
<ele>122.346741</ele>
<time>2010-06-20T13:48:16Z</time>
<desc>lat.=55.907688, lon.=26.618053, Alt.=122.346741m. Speed=0.360000m/h.</desc>
<speed>0.100000</speed>
</trkpt>
<trkpt lat="55.907688" lon="26.618055">
<ele>122.348694</ele>
<time>2010-06-20T13:48:17Z</time>
<desc>lat.=55.907688, lon.=26.618055, Alt.=122.348694m. Speed=0.468000m/h.</desc>
<speed>0.130000</speed>
</trkpt>
<trkpt lat="55.907688" lon="26.618057">
<ele>122.348694</ele>
<time>2010-06-20T13:48:18Z</time>
<desc>lat.=55.907688, lon.=26.618057, Alt.=122.348694m. Speed=0.540000m/h.</desc>
<speed>0.150000</speed>
</trkpt>
<trkpt lat="55.907688" lon="26.618057">
<ele>122.346741</ele>
<time>2010-06-20T13:48:19Z</time>
<desc>lat.=55.907688, lon.=26.618057, Alt.=122.346741m. Speed=0.036000m/h.</desc>
<speed>0.010000</speed>
</trkpt>
<trkpt lat="55.907684" lon="26.618059">
<ele>122.338928</ele>
<time>2010-06-20T13:48:20Z</time>
<desc>lat.=55.907684, lon.=26.618059, Alt.=122.338928m. Speed=0.036000m/h.</desc>
<speed>0.010000</speed>
</trkpt>
<trkpt lat="55.907684" lon="26.618059">
<ele>122.327209</ele>
<time>2010-06-20T13:48:21Z</time>
<desc>lat.=55.907684, lon.=26.618059, Alt.=122.327209m. Speed=0.108000m/h.</desc>
<speed>0.030000</speed>
</trkpt>
<trkpt lat="55.907684" lon="26.618059">
<ele>122.315491</ele>
<time>2010-06-20T13:48:22Z</time>
<desc>lat.=55.907684, lon.=26.618059, Alt.=122.315491m. Speed=0.180000m/h.</desc>
<speed>0.050000</speed>
</trkpt>
<trkpt lat="55.907684" lon="26.618059">
<ele>122.305725</ele>
<time>2010-06-20T13:48:23Z</time>
<desc>lat.=55.907684, lon.=26.618059, Alt.=122.305725m. Speed=0.612000m/h.</desc>
<speed>0.170000</speed>
</trkpt>
<trkpt lat="55.907684" lon="26.618061">
<ele>122.305725</ele>
<time>2010-06-20T13:48:24Z</time>
<desc>lat.=55.907684, lon.=26.618061, Alt.=122.305725m. Speed=0.360000m/h.</desc>
<speed>0.100000</speed>
</trkpt>
<trkpt lat="55.907684" lon="26.618063">
<ele>122.301819</ele>
<time>2010-06-20T13:48:25Z</time>
<desc>lat.=55.907684, lon.=26.618063, Alt.=122.301819m. Speed=0.144000m/h.</desc>
<speed>0.040000</speed>
</trkpt>
<trkpt lat="55.907684" lon="26.618063">
<ele>122.295959</ele>
<time>2010-06-20T13:48:26Z</time>
<desc>lat.=55.907684, lon.=26.618063, Alt.=122.295959m. Speed=0.216000m/h.</desc>
<speed>0.060000</speed>
</trkpt>
<trkpt lat="55.907684" lon="26.618063">
<ele>122.290100</ele>
<time>2010-06-20T13:48:27Z</time>
<desc>lat.=55.907684, lon.=26.618063, Alt.=122.290100m. Speed=0.468000m/h.</desc>
<speed>0.130000</speed>
</trkpt>
<trkpt lat="55.907684" lon="26.618061">
<ele>122.284241</ele>
<time>2010-06-20T13:48:28Z</time>
<desc>lat.=55.907684, lon.=26.618061, Alt.=122.284241m. Speed=0.108000m/h.</desc>
<speed>0.030000</speed>
</trkpt>
<trkpt lat="55.907684" lon="26.618061">
<ele>122.280334</ele>
<time>2010-06-20T13:48:29Z</time>
<desc>lat.=55.907684, lon.=26.618061, Alt.=122.280334m. Speed=0.000000m/h.</desc>
<speed>0.000000</speed>
</trkpt>
<trkpt lat="55.907684" lon="26.618061">
<ele>122.274475</ele>
<time>2010-06-20T13:48:30Z</time>
<desc>lat.=55.907684, lon.=26.618061, Alt.=122.274475m. Speed=0.000000m/h.</desc>
<speed>0.000000</speed>
</trkpt>
<trkpt lat="55.907684" lon="26.618061">
<ele>122.266663</ele>
<time>2010-06-20T13:48:31Z</time>
<desc>lat.=55.907684, lon.=26.618061, Alt.=122.266663m. Speed=0.072000m/h.</desc>
<speed>0.020000</speed>
</trkpt>
<trkpt lat="55.907684" lon="26.618061">
<ele>122.256897</ele>
<time>2010-06-20T13:48:32Z</time>
<desc>lat.=55.907684, lon.=26.618061, Alt.=122.256897m. Speed=0.000000m/h.</desc>
<speed>0.000000</speed>
</trkpt>
<trkpt lat="55.907684" lon="26.618061">
<ele>122.245178</ele>
<time>2010-06-20T13:48:33Z</time>
<desc>lat.=55.907684, lon.=26.618061, Alt.=122.245178m. Speed=0.108000m/h.</desc>
<speed>0.030000</speed>
</trkpt>
<trkpt lat="55.907684" lon="26.618063">
<ele>122.241272</ele>
<time>2010-06-20T13:48:34Z</time>
<desc>lat.=55.907684, lon.=26.618063, Alt.=122.241272m. Speed=0.108000m/h.</desc>
<speed>0.030000</speed>
</trkpt>
<trkpt lat="55.907684" lon="26.618063">
<ele>122.239319</ele>
<time>2010-06-20T13:48:35Z</time>
<desc>lat.=55.907684, lon.=26.618063, Alt.=122.239319m. Speed=0.072000m/h.</desc>
<speed>0.020000</speed>
</trkpt>
<trkpt lat="55.907684" lon="26.618063">
<ele>122.239319</ele>
<time>2010-06-20T13:48:36Z</time>
<desc>lat.=55.907684, lon.=26.618063, Alt.=122.239319m. Speed=0.144000m/h.</desc>
<speed>0.040000</speed>
</trkpt>
<trkpt lat="55.907684" lon="26.618063">
<ele>122.239319</ele>
<time>2010-06-20T13:48:37Z</time>
<desc>lat.=55.907684, lon.=26.618063, Alt.=122.239319m. Speed=0.396000m/h.</desc>
<speed>0.110000</speed>
</trkpt>
<trkpt lat="55.907684" lon="26.618065">
<ele>122.243225</ele>
<time>2010-06-20T13:48:38Z</time>
<desc>lat.=55.907684, lon.=26.618065, Alt.=122.243225m. Speed=0.396000m/h.</desc>
<speed>0.110000</speed>
</trkpt>
<trkpt lat="55.907684" lon="26.618067">
<ele>122.245178</ele>
<time>2010-06-20T13:48:39Z</time>
<desc>lat.=55.907684, lon.=26.618067, Alt.=122.245178m. Speed=0.108000m/h.</desc>
<speed>0.030000</speed>
</trkpt>
<trkpt lat="55.907684" lon="26.618067">
<ele>122.237366</ele>
<time>2010-06-20T13:48:40Z</time>
<desc>lat.=55.907684, lon.=26.618067, Alt.=122.237366m. Speed=0.108000m/h.</desc>
<speed>0.030000</speed>
</trkpt>
<trkpt lat="55.907684" lon="26.618067">
<ele>122.227600</ele>
<time>2010-06-20T13:48:41Z</time>
<desc>lat.=55.907684, lon.=26.618067, Alt.=122.227600m. Speed=0.324000m/h.</desc>
<speed>0.090000</speed>
</trkpt>
<trkpt lat="55.907684" lon="26.618069">
<ele>122.219788</ele>
<time>2010-06-20T13:48:42Z</time>
<desc>lat.=55.907684, lon.=26.618069, Alt.=122.219788m. Speed=0.324000m/h.</desc>
<speed>0.090000</speed>
</trkpt>
<trkpt lat="55.907684" lon="26.618071">
<ele>122.215881</ele>
<time>2010-06-20T13:48:43Z</time>
<desc>lat.=55.907684, lon.=26.618071, Alt.=122.215881m. Speed=0.324000m/h.</desc>
<speed>0.090000</speed>
</trkpt>
<trkpt lat="55.907681" lon="26.618073">
<ele>122.210022</ele>
<time>2010-06-20T13:48:44Z</time>
<desc>lat.=55.907681, lon.=26.618073, Alt.=122.210022m. Speed=0.432000m/h.</desc>
<speed>0.120000</speed>
</trkpt>
<trkpt lat="55.907681" lon="26.618074">
<ele>122.208069</ele>
<time>2010-06-20T13:48:45Z</time>
<desc>lat.=55.907681, lon.=26.618074, Alt.=122.208069m. Speed=0.252000m/h.</desc>
<speed>0.070000</speed>
</trkpt>
<trkpt lat="55.907681" lon="26.618074">
<ele>122.204163</ele>
<time>2010-06-20T13:48:46Z</time>
<desc>lat.=55.907681, lon.=26.618074, Alt.=122.204163m. Speed=0.000000m/h.</desc>
<speed>0.000000</speed>
</trkpt>
<trkpt lat="55.907681" lon="26.618074">
<ele>122.200256</ele>
<time>2010-06-20T13:48:47Z</time>
<desc>lat.=55.907681, lon.=26.618074, Alt.=122.200256m. Speed=0.396000m/h.</desc>
<speed>0.110000</speed>
</trkpt>
<trkpt lat="55.907681" lon="26.618076">
<ele>122.196350</ele>
<time>2010-06-20T13:48:48Z</time>
<desc>lat.=55.907681, lon.=26.618076, Alt.=122.196350m. Speed=0.144000m/h.</desc>
<speed>0.040000</speed>
</trkpt>
<trkpt lat="55.907681" lon="26.618078">
<ele>122.190491</ele>
<time>2010-06-20T13:48:49Z</time>
<desc>lat.=55.907681, lon.=26.618078, Alt.=122.190491m. Speed=0.504000m/h.</desc>
<speed>0.140000</speed>
</trkpt>
<trkpt lat="55.907684" lon="26.618078">
<ele>122.188538</ele>
<time>2010-06-20T13:48:50Z</time>
<desc>lat.=55.907684, lon.=26.618078, Alt.=122.188538m. Speed=0.504000m/h.</desc>
<speed>0.140000</speed>
</trkpt>
<trkpt lat="55.907684" lon="26.618080">
<ele>122.188538</ele>
<time>2010-06-20T13:48:51Z</time>
<desc>lat.=55.907684, lon.=26.618080, Alt.=122.188538m. Speed=0.288000m/h.</desc>
<speed>0.080000</speed>
</trkpt>
<trkpt lat="55.907684" lon="26.618082">
<ele>122.188538</ele>
<time>2010-06-20T13:48:52Z</time>
<desc>lat.=55.907684, lon.=26.618082, Alt.=122.188538m. Speed=0.252000m/h.</desc>
<speed>0.070000</speed>
</trkpt>
<trkpt lat="55.907684" lon="26.618082">
<ele>122.186584</ele>
<time>2010-06-20T13:48:53Z</time>
<desc>lat.=55.907684, lon.=26.618082, Alt.=122.186584m. Speed=0.108000m/h.</desc>
<speed>0.030000</speed>
</trkpt>
<trkpt lat="55.907684" lon="26.618082">
<ele>122.186584</ele>
<time>2010-06-20T13:48:54Z</time>
<desc>lat.=55.907684, lon.=26.618082, Alt.=122.186584m. Speed=0.108000m/h.</desc>
<speed>0.030000</speed>
</trkpt>
<trkpt lat="55.907684" lon="26.618082">
<ele>122.184631</ele>
<time>2010-06-20T13:48:55Z</time>
<desc>lat.=55.907684, lon.=26.618082, Alt.=122.184631m. Speed=0.108000m/h.</desc>
<speed>0.030000</speed>
</trkpt>
<trkpt lat="55.907684" lon="26.618082">
<ele>122.182678</ele>
<time>2010-06-20T13:48:56Z</time>
<desc>lat.=55.907684, lon.=26.618082, Alt.=122.182678m. Speed=0.288000m/h.</desc>
<speed>0.080000</speed>
</trkpt>
<trkpt lat="55.907684" lon="26.618082">
<ele>122.178772</ele>
<time>2010-06-20T13:48:57Z</time>
<desc>lat.=55.907684, lon.=26.618082, Alt.=122.178772m. Speed=0.324000m/h.</desc>
<speed>0.090000</speed>
</trkpt>
<trkpt lat="55.907684" lon="26.618080">
<ele>122.176819</ele>
<time>2010-06-20T13:48:58Z</time>
<desc>lat.=55.907684, lon.=26.618080, Alt.=122.176819m. Speed=0.144000m/h.</desc>
<speed>0.040000</speed>
</trkpt>
<trkpt lat="55.907684" lon="26.618080">
<ele>122.172913</ele>
<time>2010-06-20T13:48:59Z</time>
<desc>lat.=55.907684, lon.=26.618080, Alt.=122.172913m. Speed=0.144000m/h.</desc>
<speed>0.040000</speed>
</trkpt>
<trkpt lat="55.907684" lon="26.618078">
<ele>122.174866</ele>
<time>2010-06-20T13:49:00Z</time>
<desc>lat.=55.907684, lon.=26.618078, Alt.=122.174866m. Speed=0.144000m/h.</desc>
<speed>0.040000</speed>
</trkpt>
<trkpt lat="55.907684" lon="26.618078">
<ele>122.170959</ele>
<time>2010-06-20T13:49:01Z</time>
<desc>lat.=55.907684, lon.=26.618078, Alt.=122.170959m. Speed=0.036000m/h.</desc>
<speed>0.010000</speed>
</trkpt>
<trkpt lat="55.907684" lon="26.618078">
<ele>122.169006</ele>
<time>2010-06-20T13:49:02Z</time>
<desc>lat.=55.907684, lon.=26.618078, Alt.=122.169006m. Speed=0.252000m/h.</desc>
<speed>0.070000</speed>
</trkpt>
<trkpt lat="55.907684" lon="26.618080">
<ele>122.170959</ele>
<time>2010-06-20T13:49:03Z</time>
<desc>lat.=55.907684, lon.=26.618080, Alt.=122.170959m. Speed=0.036000m/h.</desc>
<speed>0.010000</speed>
</trkpt>
<trkpt lat="55.907684" lon="26.618080">
<ele>122.172913</ele>
<time>2010-06-20T13:49:04Z</time>
<desc>lat.=55.907684, lon.=26.618080, Alt.=122.172913m. Speed=0.036000m/h.</desc>
<speed>0.010000</speed>
</trkpt>
<trkpt lat="55.907684" lon="26.618080">
<ele>122.178772</ele>
<time>2010-06-20T13:49:05Z</time>
<desc>lat.=55.907684, lon.=26.618080, Alt.=122.178772m. Speed=0.036000m/h.</desc>
<speed>0.010000</speed>
</trkpt>
<trkpt lat="55.907684" lon="26.618080">
<ele>122.174866</ele>
<time>2010-06-20T13:49:06Z</time>
<desc>lat.=55.907684, lon.=26.618080, Alt.=122.174866m. Speed=0.108000m/h.</desc>
<speed>0.030000</speed>
</trkpt>
<trkpt lat="55.907684" lon="26.618078">
<ele>122.167053</ele>
<time>2010-06-20T13:49:07Z</time>
<desc>lat.=55.907684, lon.=26.618078, Alt.=122.167053m. Speed=0.072000m/h.</desc>
<speed>0.020000</speed>
</trkpt>
<trkpt lat="55.907684" lon="26.618078">
<ele>122.159241</ele>
<time>2010-06-20T13:49:08Z</time>
<desc>lat.=55.907684, lon.=26.618078, Alt.=122.159241m. Speed=0.036000m/h.</desc>
<speed>0.010000</speed>
</trkpt>
<trkpt lat="55.907684" lon="26.618080">
<ele>122.151428</ele>
<time>2010-06-20T13:49:09Z</time>
<desc>lat.=55.907684, lon.=26.618080, Alt.=122.151428m. Speed=0.072000m/h.</desc>
<speed>0.020000</speed>
</trkpt>
<trkpt lat="55.907684" lon="26.618080">
<ele>122.141663</ele>
<time>2010-06-20T13:49:10Z</time>
<desc>lat.=55.907684, lon.=26.618080, Alt.=122.141663m. Speed=0.108000m/h.</desc>
<speed>0.030000</speed>
</trkpt>
<trkpt lat="55.907684" lon="26.618080">
<ele>122.133850</ele>
<time>2010-06-20T13:49:11Z</time>
<desc>lat.=55.907684, lon.=26.618080, Alt.=122.133850m. Speed=0.252000m/h.</desc>
<speed>0.070000</speed>
</trkpt>
<trkpt lat="55.907684" lon="26.618082">
<ele>122.127991</ele>
<time>2010-06-20T13:49:12Z</time>
<desc>lat.=55.907684, lon.=26.618082, Alt.=122.127991m. Speed=0.108000m/h.</desc>
<speed>0.030000</speed>
</trkpt>
<trkpt lat="55.907684" lon="26.618082">
<ele>122.122131</ele>
<time>2010-06-20T13:49:13Z</time>
<desc>lat.=55.907684, lon.=26.618082, Alt.=122.122131m. Speed=0.288000m/h.</desc>
<speed>0.080000</speed>
</trkpt>
<trkpt lat="55.907684" lon="26.618080">
<ele>122.114319</ele>
<time>2010-06-20T13:49:14Z</time>
<desc>lat.=55.907684, lon.=26.618080, Alt.=122.114319m. Speed=0.216000m/h.</desc>
<speed>0.060000</speed>
</trkpt>
<trkpt lat="55.907684" lon="26.618080">
<ele>122.108459</ele>
<time>2010-06-20T13:49:15Z</time>
<desc>lat.=55.907684, lon.=26.618080, Alt.=122.108459m. Speed=0.324000m/h.</desc>
<speed>0.090000</speed>
</trkpt>
<trkpt lat="55.907684" lon="26.618078">
<ele>122.102600</ele>
<time>2010-06-20T13:49:16Z</time>
<desc>lat.=55.907684, lon.=26.618078, Alt.=122.102600m. Speed=0.108000m/h.</desc>
<speed>0.030000</speed>
</trkpt>
<trkpt lat="55.907684" lon="26.618078">
<ele>122.096741</ele>
<time>2010-06-20T13:49:17Z</time>
<desc>lat.=55.907684, lon.=26.618078, Alt.=122.096741m. Speed=0.180000m/h.</desc>
<speed>0.050000</speed>
</trkpt>
<trkpt lat="55.907684" lon="26.618076">
<ele>122.094788</ele>
<time>2010-06-20T13:49:18Z</time>
<desc>lat.=55.907684, lon.=26.618076, Alt.=122.094788m. Speed=0.216000m/h.</desc>
<speed>0.060000</speed>
</trkpt>
<trkpt lat="55.907684" lon="26.618076">
<ele>122.092834</ele>
<time>2010-06-20T13:49:19Z</time>
<desc>lat.=55.907684, lon.=26.618076, Alt.=122.092834m. Speed=0.396000m/h.</desc>
<speed>0.110000</speed>
</trkpt>
<trkpt lat="55.907684" lon="26.618074">
<ele>122.090881</ele>
<time>2010-06-20T13:49:20Z</time>
<desc>lat.=55.907684, lon.=26.618074, Alt.=122.090881m. Speed=0.504000m/h.</desc>
<speed>0.140000</speed>
</trkpt>
<trkpt lat="55.907688" lon="26.618073">
<ele>122.088928</ele>
<time>2010-06-20T13:49:21Z</time>
<desc>lat.=55.907688, lon.=26.618073, Alt.=122.088928m. Speed=0.504000m/h.</desc>
<speed>0.140000</speed>
</trkpt>
<trkpt lat="55.907688" lon="26.618071">
<ele>122.086975</ele>
<time>2010-06-20T13:49:22Z</time>
<desc>lat.=55.907688, lon.=26.618071, Alt.=122.086975m. Speed=0.612000m/h.</desc>
<speed>0.170000</speed>
</trkpt>
<trkpt lat="55.907688" lon="26.618069">
<ele>122.085022</ele>
<time>2010-06-20T13:49:23Z</time>
<desc>lat.=55.907688, lon.=26.618069, Alt.=122.085022m. Speed=0.396000m/h.</desc>
<speed>0.110000</speed>
</trkpt>
<trkpt lat="55.907688" lon="26.618067">
<ele>122.081116</ele>
<time>2010-06-20T13:49:24Z</time>
<desc>lat.=55.907688, lon.=26.618067, Alt.=122.081116m. Speed=0.396000m/h.</desc>
<speed>0.110000</speed>
</trkpt>
<trkpt lat="55.907688" lon="26.618065">
<ele>122.079163</ele>
<time>2010-06-20T13:49:25Z</time>
<desc>lat.=55.907688, lon.=26.618065, Alt.=122.079163m. Speed=0.072000m/h.</desc>
<speed>0.020000</speed>
</trkpt>
<trkpt lat="55.907688" lon="26.618065">
<ele>122.077209</ele>
<time>2010-06-20T13:49:26Z</time>
<desc>lat.=55.907688, lon.=26.618065, Alt.=122.077209m. Speed=0.252000m/h.</desc>
<speed>0.070000</speed>
</trkpt>
<trkpt lat="55.907688" lon="26.618067">
<ele>122.077209</ele>
<time>2010-06-20T13:49:27Z</time>
<desc>lat.=55.907688, lon.=26.618067, Alt.=122.077209m. Speed=0.360000m/h.</desc>
<speed>0.100000</speed>
</trkpt>
<trkpt lat="55.907688" lon="26.618069">
<ele>122.077209</ele>
<time>2010-06-20T13:49:28Z</time>
<desc>lat.=55.907688, lon.=26.618069, Alt.=122.077209m. Speed=0.432000m/h.</desc>
<speed>0.120000</speed>
</trkpt>
<trkpt lat="55.907688" lon="26.618071">
<ele>122.079163</ele>
<time>2010-06-20T13:49:29Z</time>
<desc>lat.=55.907688, lon.=26.618071, Alt.=122.079163m. Speed=0.576000m/h.</desc>
<speed>0.160000</speed>
</trkpt>
<trkpt lat="55.907688" lon="26.618073">
<ele>122.079163</ele>
<time>2010-06-20T13:49:30Z</time>
<desc>lat.=55.907688, lon.=26.618073, Alt.=122.079163m. Speed=0.864000m/h.</desc>
<speed>0.240000</speed>
</trkpt>
<trkpt lat="55.907688" lon="26.618076">
<ele>122.081116</ele>
<time>2010-06-20T13:49:31Z</time>
<desc>lat.=55.907688, lon.=26.618076, Alt.=122.081116m. Speed=0.648000m/h.</desc>
<speed>0.180000</speed>
</trkpt>
<trkpt lat="55.907688" lon="26.618078">
<ele>122.075256</ele>
<time>2010-06-20T13:49:32Z</time>
<desc>lat.=55.907688, lon.=26.618078, Alt.=122.075256m. Speed=0.360000m/h.</desc>
<speed>0.100000</speed>
</trkpt>
<trkpt lat="55.907688" lon="26.618080">
<ele>122.065491</ele>
<time>2010-06-20T13:49:33Z</time>
<desc>lat.=55.907688, lon.=26.618080, Alt.=122.065491m. Speed=0.108000m/h.</desc>
<speed>0.030000</speed>
</trkpt>
<trkpt lat="55.907688" lon="26.618080">
<ele>122.057678</ele>
<time>2010-06-20T13:49:34Z</time>
<desc>lat.=55.907688, lon.=26.618080, Alt.=122.057678m. Speed=0.072000m/h.</desc>
<speed>0.020000</speed>
</trkpt>
<trkpt lat="55.907688" lon="26.618080">
<ele>122.049866</ele>
<time>2010-06-20T13:49:35Z</time>
<desc>lat.=55.907688, lon.=26.618080, Alt.=122.049866m. Speed=0.000000m/h.</desc>
<speed>0.000000</speed>
</trkpt>
<trkpt lat="55.907688" lon="26.618080">
<ele>122.049866</ele>
<time>2010-06-20T13:49:36Z</time>
<desc>lat.=55.907688, lon.=26.618080, Alt.=122.049866m. Speed=0.072000m/h.</desc>
<speed>0.020000</speed>
</trkpt>
<trkpt lat="55.907688" lon="26.618078">
<ele>122.049866</ele>
<time>2010-06-20T13:49:37Z</time>
<desc>lat.=55.907688, lon.=26.618078, Alt.=122.049866m. Speed=0.144000m/h.</desc>
<speed>0.040000</speed>
</trkpt>
<trkpt lat="55.907688" lon="26.618078">
<ele>122.049866</ele>
<time>2010-06-20T13:49:38Z</time>
<desc>lat.=55.907688, lon.=26.618078, Alt.=122.049866m. Speed=0.252000m/h.</desc>
<speed>0.070000</speed>
</trkpt>
<trkpt lat="55.907688" lon="26.618078">
<ele>122.051819</ele>
<time>2010-06-20T13:49:39Z</time>
<desc>lat.=55.907688, lon.=26.618078, Alt.=122.051819m. Speed=0.036000m/h.</desc>
<speed>0.010000</speed>
</trkpt>
<trkpt lat="55.907688" lon="26.618076">
<ele>122.053772</ele>
<time>2010-06-20T13:49:40Z</time>
<desc>lat.=55.907688, lon.=26.618076, Alt.=122.053772m. Speed=0.036000m/h.</desc>
<speed>0.010000</speed>
</trkpt>
<trkpt lat="55.907688" lon="26.618078">
<ele>122.047913</ele>
<time>2010-06-20T13:49:41Z</time>
<desc>lat.=55.907688, lon.=26.618078, Alt.=122.047913m. Speed=0.072000m/h.</desc>
<speed>0.020000</speed>
</trkpt>
<trkpt lat="55.907688" lon="26.618078">
<ele>122.038147</ele>
<time>2010-06-20T13:49:42Z</time>
<desc>lat.=55.907688, lon.=26.618078, Alt.=122.038147m. Speed=0.036000m/h.</desc>
<speed>0.010000</speed>
</trkpt>
<trkpt lat="55.907688" lon="26.618078">
<ele>122.032288</ele>
<time>2010-06-20T13:49:43Z</time>
<desc>lat.=55.907688, lon.=26.618078, Alt.=122.032288m. Speed=0.108000m/h.</desc>
<speed>0.030000</speed>
</trkpt>
<trkpt lat="55.907688" lon="26.618078">
<ele>122.034241</ele>
<time>2010-06-20T13:49:44Z</time>
<desc>lat.=55.907688, lon.=26.618078, Alt.=122.034241m. Speed=0.108000m/h.</desc>
<speed>0.030000</speed>
</trkpt>
<trkpt lat="55.907688" lon="26.618078">
<ele>122.038147</ele>
<time>2010-06-20T13:49:45Z</time>
<desc>lat.=55.907688, lon.=26.618078, Alt.=122.038147m. Speed=0.000000m/h.</desc>
<speed>0.000000</speed>
</trkpt>
<trkpt lat="55.907688" lon="26.618078">
<ele>122.032288</ele>
<time>2010-06-20T13:49:46Z</time>
<desc>lat.=55.907688, lon.=26.618078, Alt.=122.032288m. Speed=0.072000m/h.</desc>
<speed>0.020000</speed>
</trkpt>
<trkpt lat="55.907688" lon="26.618078">
<ele>122.028381</ele>
<time>2010-06-20T13:49:47Z</time>
<desc>lat.=55.907688, lon.=26.618078, Alt.=122.028381m. Speed=0.036000m/h.</desc>
<speed>0.010000</speed>
</trkpt>
<trkpt lat="55.907688" lon="26.618078">
<ele>122.022522</ele>
<time>2010-06-20T13:49:48Z</time>
<desc>lat.=55.907688, lon.=26.618078, Alt.=122.022522m. Speed=0.072000m/h.</desc>
<speed>0.020000</speed>
</trkpt>
<trkpt lat="55.907688" lon="26.618078">
<ele>122.014709</ele>
<time>2010-06-20T13:49:49Z</time>
<desc>lat.=55.907688, lon.=26.618078, Alt.=122.014709m. Speed=0.036000m/h.</desc>
<speed>0.010000</speed>
</trkpt>
<trkpt lat="55.907688" lon="26.618078">
<ele>122.016663</ele>
<time>2010-06-20T13:49:50Z</time>
<desc>lat.=55.907688, lon.=26.618078, Alt.=122.016663m. Speed=0.000000m/h.</desc>
<speed>0.000000</speed>
</trkpt>
<trkpt lat="55.907688" lon="26.618078">
<ele>122.004944</ele>
<time>2010-06-20T13:49:51Z</time>
<desc>lat.=55.907688, lon.=26.618078, Alt.=122.004944m. Speed=0.000000m/h.</desc>
<speed>0.000000</speed>
</trkpt>
<trkpt lat="55.907688" lon="26.618078">
<ele>121.991272</ele>
<time>2010-06-20T13:49:52Z</time>
<desc>lat.=55.907688, lon.=26.618078, Alt.=121.991272m. Speed=0.288000m/h.</desc>
<speed>0.080000</speed>
</trkpt>
<trkpt lat="55.907688" lon="26.618080">
<ele>121.983459</ele>
<time>2010-06-20T13:49:53Z</time>
<desc>lat.=55.907688, lon.=26.618080, Alt.=121.983459m. Speed=0.360000m/h.</desc>
<speed>0.100000</speed>
</trkpt>
<trkpt lat="55.907684" lon="26.618080">
<ele>121.975647</ele>
<time>2010-06-20T13:49:54Z</time>
<desc>lat.=55.907684, lon.=26.618080, Alt.=121.975647m. Speed=0.396000m/h.</desc>
<speed>0.110000</speed>
</trkpt>
<trkpt lat="55.907684" lon="26.618082">
<ele>121.967834</ele>
<time>2010-06-20T13:49:55Z</time>
<desc>lat.=55.907684, lon.=26.618082, Alt.=121.967834m. Speed=0.432000m/h.</desc>
<speed>0.120000</speed>
</trkpt>
<trkpt lat="55.907684" lon="26.618084">
<ele>121.961975</ele>
<time>2010-06-20T13:49:56Z</time>
<desc>lat.=55.907684, lon.=26.618084, Alt.=121.961975m. Speed=0.180000m/h.</desc>
<speed>0.050000</speed>
</trkpt>
<trkpt lat="55.907684" lon="26.618082">
<ele>121.956116</ele>
<time>2010-06-20T13:49:57Z</time>
<desc>lat.=55.907684, lon.=26.618082, Alt.=121.956116m. Speed=0.288000m/h.</desc>
<speed>0.080000</speed>
</trkpt>
<trkpt lat="55.907684" lon="26.618082">
<ele>121.950256</ele>
<time>2010-06-20T13:49:58Z</time>
<desc>lat.=55.907684, lon.=26.618082, Alt.=121.950256m. Speed=0.288000m/h.</desc>
<speed>0.080000</speed>
</trkpt>
<trkpt lat="55.907684" lon="26.618080">
<ele>121.946350</ele>
<time>2010-06-20T13:49:59Z</time>
<desc>lat.=55.907684, lon.=26.618080, Alt.=121.946350m. Speed=0.432000m/h.</desc>
<speed>0.120000</speed>
</trkpt>
<trkpt lat="55.907684" lon="26.618082">
<ele>121.960022</ele>
<time>2010-06-20T13:50:00Z</time>
<desc>lat.=55.907684, lon.=26.618082, Alt.=121.960022m. Speed=0.504000m/h.</desc>
<speed>0.140000</speed>
</trkpt>
<trkpt lat="55.907684" lon="26.618084">
<ele>121.965881</ele>
<time>2010-06-20T13:50:01Z</time>
<desc>lat.=55.907684, lon.=26.618084, Alt.=121.965881m. Speed=0.612000m/h.</desc>
<speed>0.170000</speed>
</trkpt>
<trkpt lat="55.907684" lon="26.618086">
<ele>121.969788</ele>
<time>2010-06-20T13:50:02Z</time>
<desc>lat.=55.907684, lon.=26.618086, Alt.=121.969788m. Speed=0.072000m/h.</desc>
<speed>0.020000</speed>
</trkpt>
<trkpt lat="55.907684" lon="26.618086">
<ele>121.971741</ele>
<time>2010-06-20T13:50:03Z</time>
<desc>lat.=55.907684, lon.=26.618086, Alt.=121.971741m. Speed=0.432000m/h.</desc>
<speed>0.120000</speed>
</trkpt>
<trkpt lat="55.907684" lon="26.618084">
<ele>121.975647</ele>
<time>2010-06-20T13:50:04Z</time>
<desc>lat.=55.907684, lon.=26.618084, Alt.=121.975647m. Speed=0.540000m/h.</desc>
<speed>0.150000</speed>
</trkpt>
<trkpt lat="55.907684" lon="26.618082">
<ele>121.971741</ele>
<time>2010-06-20T13:50:05Z</time>
<desc>lat.=55.907684, lon.=26.618082, Alt.=121.971741m. Speed=0.360000m/h.</desc>
<speed>0.100000</speed>
</trkpt>
<trkpt lat="55.907684" lon="26.618080">
<ele>121.965881</ele>
<time>2010-06-20T13:50:06Z</time>
<desc>lat.=55.907684, lon.=26.618080, Alt.=121.965881m. Speed=0.324000m/h.</desc>
<speed>0.090000</speed>
</trkpt>
<trkpt lat="55.907684" lon="26.618078">
<ele>121.960022</ele>
<time>2010-06-20T13:50:07Z</time>
<desc>lat.=55.907684, lon.=26.618078, Alt.=121.960022m. Speed=0.360000m/h.</desc>
<speed>0.100000</speed>
</trkpt>
<trkpt lat="55.907684" lon="26.618078">
<ele>121.952209</ele>
<time>2010-06-20T13:50:08Z</time>
<desc>lat.=55.907684, lon.=26.618078, Alt.=121.952209m. Speed=0.216000m/h.</desc>
<speed>0.060000</speed>
</trkpt>
<trkpt lat="55.907684" lon="26.618076">
<ele>121.948303</ele>
<time>2010-06-20T13:50:09Z</time>
<desc>lat.=55.907684, lon.=26.618076, Alt.=121.948303m. Speed=0.108000m/h.</desc>
<speed>0.030000</speed>
</trkpt>
<trkpt lat="55.907684" lon="26.618076">
<ele>121.942444</ele>
<time>2010-06-20T13:50:10Z</time>
<desc>lat.=55.907684, lon.=26.618076, Alt.=121.942444m. Speed=0.036000m/h.</desc>
<speed>0.010000</speed>
</trkpt>
<trkpt lat="55.907684" lon="26.618076">
<ele>121.936584</ele>
<time>2010-06-20T13:50:11Z</time>
<desc>lat.=55.907684, lon.=26.618076, Alt.=121.936584m. Speed=0.216000m/h.</desc>
<speed>0.060000</speed>
</trkpt>
<trkpt lat="55.907684" lon="26.618074">
<ele>121.930725</ele>
<time>2010-06-20T13:50:12Z</time>
<desc>lat.=55.907684, lon.=26.618074, Alt.=121.930725m. Speed=0.828000m/h.</desc>
<speed>0.230000</speed>
</trkpt>
<trkpt lat="55.907681" lon="26.618073">
<ele>121.920959</ele>
<time>2010-06-20T13:50:13Z</time>
<desc>lat.=55.907681, lon.=26.618073, Alt.=121.920959m. Speed=0.252000m/h.</desc>
<speed>0.070000</speed>
</trkpt>
<trkpt lat="55.907681" lon="26.618073">
<ele>121.913147</ele>
<time>2010-06-20T13:50:14Z</time>
<desc>lat.=55.907681, lon.=26.618073, Alt.=121.913147m. Speed=0.540000m/h.</desc>
<speed>0.150000</speed>
</trkpt>
<trkpt lat="55.907684" lon="26.618071">
<ele>121.907288</ele>
<time>2010-06-20T13:50:15Z</time>
<desc>lat.=55.907684, lon.=26.618071, Alt.=121.907288m. Speed=0.108000m/h.</desc>
<speed>0.030000</speed>
</trkpt>
<trkpt lat="55.907684" lon="26.618071">
<ele>121.897522</ele>
<time>2010-06-20T13:50:16Z</time>
<desc>lat.=55.907684, lon.=26.618071, Alt.=121.897522m. Speed=0.252000m/h.</desc>
<speed>0.070000</speed>
</trkpt>
<trkpt lat="55.907684" lon="26.618071">
<ele>121.885803</ele>
<time>2010-06-20T13:50:17Z</time>
<desc>lat.=55.907684, lon.=26.618071, Alt.=121.885803m. Speed=0.252000m/h.</desc>
<speed>0.070000</speed>
</trkpt>
<trkpt lat="55.907684" lon="26.618071">
<ele>121.881897</ele>
<time>2010-06-20T13:50:18Z</time>
<desc>lat.=55.907684, lon.=26.618071, Alt.=121.881897m. Speed=0.756000m/h.</desc>
<speed>0.210000</speed>
</trkpt>
<trkpt lat="55.907681" lon="26.618071">
<ele>121.877991</ele>
<time>2010-06-20T13:50:19Z</time>
<desc>lat.=55.907681, lon.=26.618071, Alt.=121.877991m. Speed=0.576000m/h.</desc>
<speed>0.160000</speed>
</trkpt>
<trkpt lat="55.907681" lon="26.618073">
<ele>121.872131</ele>
<time>2010-06-20T13:50:20Z</time>
<desc>lat.=55.907681, lon.=26.618073, Alt.=121.872131m. Speed=0.900000m/h.</desc>
<speed>0.250000</speed>
</trkpt>
<trkpt lat="55.907677" lon="26.618074">
<ele>121.872131</ele>
<time>2010-06-20T13:50:21Z</time>
<desc>lat.=55.907677, lon.=26.618074, Alt.=121.872131m. Speed=0.972000m/h.</desc>
<speed>0.270000</speed>
</trkpt>
<trkpt lat="55.907677" lon="26.618076">
<ele>121.872131</ele>
<time>2010-06-20T13:50:22Z</time>
<desc>lat.=55.907677, lon.=26.618076, Alt.=121.872131m. Speed=0.432000m/h.</desc>
<speed>0.120000</speed>
</trkpt>
<trkpt lat="55.907673" lon="26.618076">
<ele>121.868225</ele>
<time>2010-06-20T13:50:23Z</time>
<desc>lat.=55.907673, lon.=26.618076, Alt.=121.868225m. Speed=0.108000m/h.</desc>
<speed>0.030000</speed>
</trkpt>
<trkpt lat="55.907673" lon="26.618076">
<ele>121.862366</ele>
<time>2010-06-20T13:50:24Z</time>
<desc>lat.=55.907673, lon.=26.618076, Alt.=121.862366m. Speed=0.288000m/h.</desc>
<speed>0.080000</speed>
</trkpt>
<trkpt lat="55.907677" lon="26.618078">
<ele>121.856506</ele>
<time>2010-06-20T13:50:25Z</time>
<desc>lat.=55.907677, lon.=26.618078, Alt.=121.856506m. Speed=0.180000m/h.</desc>
<speed>0.050000</speed>
</trkpt>
<trkpt lat="55.907673" lon="26.618078">
<ele>121.854553</ele>
<time>2010-06-20T13:50:26Z</time>
<desc>lat.=55.907673, lon.=26.618078, Alt.=121.854553m. Speed=0.180000m/h.</desc>
<speed>0.050000</speed>
</trkpt>
<trkpt lat="55.907677" lon="26.618078">
<ele>121.850647</ele>
<time>2010-06-20T13:50:27Z</time>
<desc>lat.=55.907677, lon.=26.618078, Alt.=121.850647m. Speed=0.756000m/h.</desc>
<speed>0.210000</speed>
</trkpt>
<trkpt lat="55.907673" lon="26.618082">
<ele>121.848694</ele>
<time>2010-06-20T13:50:28Z</time>
<desc>lat.=55.907673, lon.=26.618082, Alt.=121.848694m. Speed=2.088000m/h.</desc>
<speed>0.580000</speed>
</trkpt>
<trkpt lat="55.907661" lon="26.618069">
<ele>121.299866</ele>
<time>2010-06-20T13:50:29Z</time>
<desc>lat.=55.907661, lon.=26.618069, Alt.=121.299866m. Speed=3.168000m/h.</desc>
<speed>0.880000</speed>
</trkpt>
<trkpt lat="55.907646" lon="26.618057">
<ele>120.649475</ele>
<time>2010-06-20T13:50:30Z</time>
<desc>lat.=55.907646, lon.=26.618057, Alt.=120.649475m. Speed=5.544000m/h.</desc>
<speed>1.540000</speed>
</trkpt>
<trkpt lat="55.907635" lon="26.618048">
<ele>120.270569</ele>
<time>2010-06-20T13:50:31Z</time>
<desc>lat.=55.907635, lon.=26.618048, Alt.=120.270569m. Speed=5.976000m/h.</desc>
<speed>1.660000</speed>
</trkpt>
<trkpt lat="55.907612" lon="26.618052">
<ele>119.725647</ele>
<time>2010-06-20T13:50:32Z</time>
<desc>lat.=55.907612, lon.=26.618052, Alt.=119.725647m. Speed=6.336000m/h.</desc>
<speed>1.760000</speed>
</trkpt>
<trkpt lat="55.907593" lon="26.618038">
<ele>119.184631</ele>
<time>2010-06-20T13:50:33Z</time>
<desc>lat.=55.907593, lon.=26.618038, Alt.=119.184631m. Speed=8.496000m/h.</desc>
<speed>2.360000</speed>
</trkpt>
<trkpt lat="55.907589" lon="26.618011">
<ele>120.040100</ele>
<time>2010-06-20T13:50:34Z</time>
<desc>lat.=55.907589, lon.=26.618011, Alt.=120.040100m. Speed=9.252000m/h.</desc>
<speed>2.570000</speed>
</trkpt>
<trkpt lat="55.907570" lon="26.617989">
<ele>120.110413</ele>
<time>2010-06-20T13:50:35Z</time>
<desc>lat.=55.907570, lon.=26.617989, Alt.=120.110413m. Speed=9.432000m/h.</desc>
<speed>2.620000</speed>
</trkpt>
<trkpt lat="55.907547" lon="26.617970">
<ele>120.151428</ele>
<time>2010-06-20T13:50:36Z</time>
<desc>lat.=55.907547, lon.=26.617970, Alt.=120.151428m. Speed=11.412000m/h.</desc>
<speed>3.170000</speed>
</trkpt>
<trkpt lat="55.907520" lon="26.617949">
<ele>120.360413</ele>
<time>2010-06-20T13:50:37Z</time>
<desc>lat.=55.907520, lon.=26.617949, Alt.=120.360413m. Speed=12.708000m/h.</desc>
<speed>3.530000</speed>
</trkpt>
<trkpt lat="55.907490" lon="26.617916">
<ele>119.950256</ele>
<time>2010-06-20T13:50:38Z</time>
<desc>lat.=55.907490, lon.=26.617916, Alt.=119.950256m. Speed=13.464000m/h.</desc>
<speed>3.740000</speed>
</trkpt>
<trkpt lat="55.907455" lon="26.617887">
<ele>119.934631</ele>
<time>2010-06-20T13:50:39Z</time>
<desc>lat.=55.907455, lon.=26.617887, Alt.=119.934631m. Speed=13.716000m/h.</desc>
<speed>3.810000</speed>
</trkpt>
<trkpt lat="55.907417" lon="26.617857">
<ele>119.374084</ele>
<time>2010-06-20T13:50:40Z</time>
<desc>lat.=55.907417, lon.=26.617857, Alt.=119.374084m. Speed=13.572000m/h.</desc>
<speed>3.770000</speed>
</trkpt>
<trkpt lat="55.907383" lon="26.617834">
<ele>118.827209</ele>
<time>2010-06-20T13:50:41Z</time>
<desc>lat.=55.907383, lon.=26.617834, Alt.=118.827209m. Speed=15.480000m/h.</desc>
<speed>4.300000</speed>
</trkpt>
<trkpt lat="55.907349" lon="26.617798">
<ele>118.835022</ele>
<time>2010-06-20T13:50:42Z</time>
<desc>lat.=55.907349, lon.=26.617798, Alt.=118.835022m. Speed=16.271999m/h.</desc>
<speed>4.520000</speed>
</trkpt>
<trkpt lat="55.907310" lon="26.617758">
<ele>118.835022</ele>
<time>2010-06-20T13:50:43Z</time>
<desc>lat.=55.907310, lon.=26.617758, Alt.=118.835022m. Speed=18.288000m/h.</desc>
<speed>5.080000</speed>
</trkpt>
<trkpt lat="55.907272" lon="26.617718">
<ele>119.301819</ele>
<time>2010-06-20T13:50:44Z</time>
<desc>lat.=55.907272, lon.=26.617718, Alt.=119.301819m. Speed=18.360001m/h.</desc>
<speed>5.100000</speed>
</trkpt>
<trkpt lat="55.907234" lon="26.617678">
<ele>119.700256</ele>
<time>2010-06-20T13:50:45Z</time>
<desc>lat.=55.907234, lon.=26.617678, Alt.=119.700256m. Speed=17.712000m/h.</desc>
<speed>4.920000</speed>
</trkpt>
<trkpt lat="55.907196" lon="26.617641">
<ele>119.528381</ele>
<time>2010-06-20T13:50:46Z</time>
<desc>lat.=55.907196, lon.=26.617641, Alt.=119.528381m. Speed=18.504000m/h.</desc>
<speed>5.140000</speed>
</trkpt>
<trkpt lat="55.907162" lon="26.617590">
<ele>119.952209</ele>
<time>2010-06-20T13:50:47Z</time>
<desc>lat.=55.907162, lon.=26.617590, Alt.=119.952209m. Speed=19.188000m/h.</desc>
<speed>5.330000</speed>
</trkpt>
<trkpt lat="55.907124" lon="26.617544">
<ele>120.090881</ele>
<time>2010-06-20T13:50:48Z</time>
<desc>lat.=55.907124, lon.=26.617544, Alt.=120.090881m. Speed=19.332001m/h.</desc>
<speed>5.370000</speed>
</trkpt>
<trkpt lat="55.907082" lon="26.617514">
<ele>120.126038</ele>
<time>2010-06-20T13:50:49Z</time>
<desc>lat.=55.907082, lon.=26.617514, Alt.=120.126038m. Speed=19.620001m/h.</desc>
<speed>5.450000</speed>
</trkpt>
<trkpt lat="55.907043" lon="26.617479">
<ele>120.723694</ele>
<time>2010-06-20T13:50:50Z</time>
<desc>lat.=55.907043, lon.=26.617479, Alt.=120.723694m. Speed=19.944000m/h.</desc>
<speed>5.540000</speed>
</trkpt>
<trkpt lat="55.906998" lon="26.617439">
<ele>120.879944</ele>
<time>2010-06-20T13:50:51Z</time>
<desc>lat.=55.906998, lon.=26.617439, Alt.=120.879944m. Speed=20.375999m/h.</desc>
<speed>5.660000</speed>
</trkpt>
<trkpt lat="55.906948" lon="26.617401">
<ele>121.104553</ele>
<time>2010-06-20T13:50:52Z</time>
<desc>lat.=55.906948, lon.=26.617401, Alt.=121.104553m. Speed=20.520000m/h.</desc>
<speed>5.700000</speed>
</trkpt>
<trkpt lat="55.906902" lon="26.617367">
<ele>121.323303</ele>
<time>2010-06-20T13:50:53Z</time>
<desc>lat.=55.906902, lon.=26.617367, Alt.=121.323303m. Speed=20.700001m/h.</desc>
<speed>5.750000</speed>
</trkpt>
<trkpt lat="55.906853" lon="26.617329">
<ele>121.067444</ele>
<time>2010-06-20T13:50:54Z</time>
<desc>lat.=55.906853, lon.=26.617329, Alt.=121.067444m. Speed=21.348000m/h.</desc>
<speed>5.930000</speed>
</trkpt>
<trkpt lat="55.906803" lon="26.617279">
<ele>120.948303</ele>
<time>2010-06-20T13:50:55Z</time>
<desc>lat.=55.906803, lon.=26.617279, Alt.=120.948303m. Speed=21.420000m/h.</desc>
<speed>5.950000</speed>
</trkpt>
<trkpt lat="55.906757" lon="26.617233">
<ele>120.633850</ele>
<time>2010-06-20T13:50:56Z</time>
<desc>lat.=55.906757, lon.=26.617233, Alt.=120.633850m. Speed=20.232000m/h.</desc>
<speed>5.620000</speed>
</trkpt>
<trkpt lat="55.906704" lon="26.617195">
<ele>120.676819</ele>
<time>2010-06-20T13:50:57Z</time>
<desc>lat.=55.906704, lon.=26.617195, Alt.=120.676819m. Speed=21.924000m/h.</desc>
<speed>6.090000</speed>
</trkpt>
<trkpt lat="55.906651" lon="26.617153">
<ele>120.483459</ele>
<time>2010-06-20T13:50:58Z</time>
<desc>lat.=55.906651, lon.=26.617153, Alt.=120.483459m. Speed=21.816000m/h.</desc>
<speed>6.060000</speed>
</trkpt>
<trkpt lat="55.906593" lon="26.617109">
<ele>119.840881</ele>
<time>2010-06-20T13:50:59Z</time>
<desc>lat.=55.906593, lon.=26.617109, Alt.=119.840881m. Speed=21.528000m/h.</desc>
<speed>5.980000</speed>
</trkpt>
<trkpt lat="55.906540" lon="26.617064">
<ele>119.553772</ele>
<time>2010-06-20T13:51:00Z</time>
<desc>lat.=55.906540, lon.=26.617064, Alt.=119.553772m. Speed=22.176001m/h.</desc>
<speed>6.160000</speed>
</trkpt>
<trkpt lat="55.906494" lon="26.617018">
<ele>119.251038</ele>
<time>2010-06-20T13:51:01Z</time>
<desc>lat.=55.906494, lon.=26.617018, Alt.=119.251038m. Speed=22.643999m/h.</desc>
<speed>6.290000</speed>
</trkpt>
<trkpt lat="55.906445" lon="26.616968">
<ele>119.161194</ele>
<time>2010-06-20T13:51:02Z</time>
<desc>lat.=55.906445, lon.=26.616968, Alt.=119.161194m. Speed=23.148001m/h.</desc>
<speed>6.430000</speed>
</trkpt>
<trkpt lat="55.906391" lon="26.616922">
<ele>118.706116</ele>
<time>2010-06-20T13:51:03Z</time>
<desc>lat.=55.906391, lon.=26.616922, Alt.=118.706116m. Speed=22.788000m/h.</desc>
<speed>6.330000</speed>
</trkpt>
<trkpt lat="55.906342" lon="26.616886">
<ele>118.129944</ele>
<time>2010-06-20T13:51:04Z</time>
<desc>lat.=55.906342, lon.=26.616886, Alt.=118.129944m. Speed=22.356001m/h.</desc>
<speed>6.210000</speed>
</trkpt>
<trkpt lat="55.906296" lon="26.616842">
<ele>117.346741</ele>
<time>2010-06-20T13:51:05Z</time>
<desc>lat.=55.906296, lon.=26.616842, Alt.=117.346741m. Speed=23.219999m/h.</desc>
<speed>6.450000</speed>
</trkpt>
<trkpt lat="55.906242" lon="26.616796">
<ele>117.604553</ele>
<time>2010-06-20T13:51:06Z</time>
<desc>lat.=55.906242, lon.=26.616796, Alt.=117.604553m. Speed=22.931999m/h.</desc>
<speed>6.370000</speed>
</trkpt>
<trkpt lat="55.906193" lon="26.616756">
<ele>117.579163</ele>
<time>2010-06-20T13:51:07Z</time>
<desc>lat.=55.906193, lon.=26.616756, Alt.=117.579163m. Speed=23.112000m/h.</desc>
<speed>6.420000</speed>
</trkpt>
<trkpt lat="55.906136" lon="26.616718">
<ele>117.004944</ele>
<time>2010-06-20T13:51:08Z</time>
<desc>lat.=55.906136, lon.=26.616718, Alt.=117.004944m. Speed=22.896000m/h.</desc>
<speed>6.360000</speed>
</trkpt>
<trkpt lat="55.906078" lon="26.616674">
<ele>116.126038</ele>
<time>2010-06-20T13:51:09Z</time>
<desc>lat.=55.906078, lon.=26.616674, Alt.=116.126038m. Speed=23.148001m/h.</desc>
<speed>6.430000</speed>
</trkpt>
<trkpt lat="55.906025" lon="26.616634">
<ele>116.047913</ele>
<time>2010-06-20T13:51:10Z</time>
<desc>lat.=55.906025, lon.=26.616634, Alt.=116.047913m. Speed=22.392000m/h.</desc>
<speed>6.220000</speed>
</trkpt>
<trkpt lat="55.905975" lon="26.616592">
<ele>116.379944</ele>
<time>2010-06-20T13:51:11Z</time>
<desc>lat.=55.905975, lon.=26.616592, Alt.=116.379944m. Speed=23.507999m/h.</desc>
<speed>6.530000</speed>
</trkpt>
<trkpt lat="55.905918" lon="26.616554">
<ele>117.157288</ele>
<time>2010-06-20T13:51:12Z</time>
<desc>lat.=55.905918, lon.=26.616554, Alt.=117.157288m. Speed=23.148001m/h.</desc>
<speed>6.430000</speed>
</trkpt>
<trkpt lat="55.905865" lon="26.616537">
<ele>117.475647</ele>
<time>2010-06-20T13:51:13Z</time>
<desc>lat.=55.905865, lon.=26.616537, Alt.=117.475647m. Speed=21.312000m/h.</desc>
<speed>5.920000</speed>
</trkpt>
<trkpt lat="55.905807" lon="26.616541">
<ele>117.690491</ele>
<time>2010-06-20T13:51:14Z</time>
<desc>lat.=55.905807, lon.=26.616541, Alt.=117.690491m. Speed=21.743999m/h.</desc>
<speed>6.040000</speed>
</trkpt>
<trkpt lat="55.905754" lon="26.616547">
<ele>118.069397</ele>
<time>2010-06-20T13:51:15Z</time>
<desc>lat.=55.905754, lon.=26.616547, Alt.=118.069397m. Speed=22.032000m/h.</desc>
<speed>6.120000</speed>
</trkpt>
<trkpt lat="55.905704" lon="26.616535">
<ele>118.210022</ele>
<time>2010-06-20T13:51:16Z</time>
<desc>lat.=55.905704, lon.=26.616535, Alt.=118.210022m. Speed=22.572001m/h.</desc>
<speed>6.270000</speed>
</trkpt>
<trkpt lat="55.905655" lon="26.616505">
<ele>118.514709</ele>
<time>2010-06-20T13:51:17Z</time>
<desc>lat.=55.905655, lon.=26.616505, Alt.=118.514709m. Speed=21.600000m/h.</desc>
<speed>6.000000</speed>
</trkpt>
<trkpt lat="55.905605" lon="26.616465">
<ele>118.588928</ele>
<time>2010-06-20T13:51:18Z</time>
<desc>lat.=55.905605, lon.=26.616465, Alt.=118.588928m. Speed=23.940001m/h.</desc>
<speed>6.650000</speed>
</trkpt>
<trkpt lat="55.905548" lon="26.616419">
<ele>118.655334</ele>
<time>2010-06-20T13:51:19Z</time>
<desc>lat.=55.905548, lon.=26.616419, Alt.=118.655334m. Speed=24.120001m/h.</desc>
<speed>6.700000</speed>
</trkpt>
<trkpt lat="55.905495" lon="26.616371">
<ele>118.493225</ele>
<time>2010-06-20T13:51:20Z</time>
<desc>lat.=55.905495, lon.=26.616371, Alt.=118.493225m. Speed=23.364000m/h.</desc>
<speed>6.490000</speed>
</trkpt>
<trkpt lat="55.905441" lon="26.616327">
<ele>118.360413</ele>
<time>2010-06-20T13:51:21Z</time>
<desc>lat.=55.905441, lon.=26.616327, Alt.=118.360413m. Speed=23.976000m/h.</desc>
<speed>6.660000</speed>
</trkpt>
<trkpt lat="55.905384" lon="26.616280">
<ele>118.167053</ele>
<time>2010-06-20T13:51:22Z</time>
<desc>lat.=55.905384, lon.=26.616280, Alt.=118.167053m. Speed=23.868000m/h.</desc>
<speed>6.630000</speed>
</trkpt>
<trkpt lat="55.905331" lon="26.616234">
<ele>118.073303</ele>
<time>2010-06-20T13:51:23Z</time>
<desc>lat.=55.905331, lon.=26.616234, Alt.=118.073303m. Speed=24.048000m/h.</desc>
<speed>6.680000</speed>
</trkpt>
<trkpt lat="55.905277" lon="26.616184">
<ele>117.360413</ele>
<time>2010-06-20T13:51:24Z</time>
<desc>lat.=55.905277, lon.=26.616184, Alt.=117.360413m. Speed=23.544001m/h.</desc>
<speed>6.540000</speed>
</trkpt>
<trkpt lat="55.905224" lon="26.616140">
<ele>116.456116</ele>
<time>2010-06-20T13:51:25Z</time>
<desc>lat.=55.905224, lon.=26.616140, Alt.=116.456116m. Speed=23.507999m/h.</desc>
<speed>6.530000</speed>
</trkpt>
<trkpt lat="55.905167" lon="26.616098">
<ele>115.727600</ele>
<time>2010-06-20T13:51:26Z</time>
<desc>lat.=55.905167, lon.=26.616098, Alt.=115.727600m. Speed=23.327999m/h.</desc>
<speed>6.480000</speed>
</trkpt>
<trkpt lat="55.905113" lon="26.616060">
<ele>115.120178</ele>
<time>2010-06-20T13:51:27Z</time>
<desc>lat.=55.905113, lon.=26.616060, Alt.=115.120178m. Speed=22.427999m/h.</desc>
<speed>6.230000</speed>
</trkpt>
<trkpt lat="55.905060" lon="26.616022">
<ele>114.874084</ele>
<time>2010-06-20T13:51:28Z</time>
<desc>lat.=55.905060, lon.=26.616022, Alt.=114.874084m. Speed=22.716000m/h.</desc>
<speed>6.310000</speed>
</trkpt>
<trkpt lat="55.905006" lon="26.615984">
<ele>114.143616</ele>
<time>2010-06-20T13:51:29Z</time>
<desc>lat.=55.905006, lon.=26.615984, Alt.=114.143616m. Speed=22.680000m/h.</desc>
<speed>6.300000</speed>
</trkpt>
<trkpt lat="55.904957" lon="26.615944">
<ele>113.635803</ele>
<time>2010-06-20T13:51:30Z</time>
<desc>lat.=55.904957, lon.=26.615944, Alt.=113.635803m. Speed=22.572001m/h.</desc>
<speed>6.270000</speed>
</trkpt>
<trkpt lat="55.904907" lon="26.615898">
<ele>113.549866</ele>
<time>2010-06-20T13:51:31Z</time>
<desc>lat.=55.904907, lon.=26.615898, Alt.=113.549866m. Speed=22.608000m/h.</desc>
<speed>6.280000</speed>
</trkpt>
<trkpt lat="55.904858" lon="26.615839">
<ele>114.592834</ele>
<time>2010-06-20T13:51:32Z</time>
<desc>lat.=55.904858, lon.=26.615839, Alt.=114.592834m. Speed=22.752001m/h.</desc>
<speed>6.320000</speed>
</trkpt>
<trkpt lat="55.904808" lon="26.615795">
<ele>114.454163</ele>
<time>2010-06-20T13:51:33Z</time>
<desc>lat.=55.904808, lon.=26.615795, Alt.=114.454163m. Speed=23.148001m/h.</desc>
<speed>6.430000</speed>
</trkpt>
<trkpt lat="55.904755" lon="26.615749">
<ele>114.405334</ele>
<time>2010-06-20T13:51:34Z</time>
<desc>lat.=55.904755, lon.=26.615749, Alt.=114.405334m. Speed=23.256001m/h.</desc>
<speed>6.460000</speed>
</trkpt>
<trkpt lat="55.904701" lon="26.615700">
<ele>114.581116</ele>
<time>2010-06-20T13:51:35Z</time>
<desc>lat.=55.904701, lon.=26.615700, Alt.=114.581116m. Speed=22.896000m/h.</desc>
<speed>6.360000</speed>
</trkpt>
<trkpt lat="55.904648" lon="26.615650">
<ele>115.073303</ele>
<time>2010-06-20T13:51:36Z</time>
<desc>lat.=55.904648, lon.=26.615650, Alt.=115.073303m. Speed=23.327999m/h.</desc>
<speed>6.480000</speed>
</trkpt>
<trkpt lat="55.904594" lon="26.615602">
<ele>115.504944</ele>
<time>2010-06-20T13:51:37Z</time>
<desc>lat.=55.904594, lon.=26.615602, Alt.=115.504944m. Speed=23.219999m/h.</desc>
<speed>6.450000</speed>
</trkpt>
<trkpt lat="55.904545" lon="26.615564">
<ele>115.614319</ele>
<time>2010-06-20T13:51:38Z</time>
<desc>lat.=55.904545, lon.=26.615564, Alt.=115.614319m. Speed=23.507999m/h.</desc>
<speed>6.530000</speed>
</trkpt>
<trkpt lat="55.904491" lon="26.615520">
<ele>115.829163</ele>
<time>2010-06-20T13:51:39Z</time>
<desc>lat.=55.904491, lon.=26.615520, Alt.=115.829163m. Speed=23.400000m/h.</desc>
<speed>6.500000</speed>
</trkpt>
<trkpt lat="55.904434" lon="26.615471">
<ele>116.211975</ele>
<time>2010-06-20T13:51:40Z</time>
<desc>lat.=55.904434, lon.=26.615471, Alt.=116.211975m. Speed=23.760000m/h.</desc>
<speed>6.600000</speed>
</trkpt>
<trkpt lat="55.904381" lon="26.615425">
<ele>116.844788</ele>
<time>2010-06-20T13:51:41Z</time>
<desc>lat.=55.904381, lon.=26.615425, Alt.=116.844788m. Speed=23.760000m/h.</desc>
<speed>6.600000</speed>
</trkpt>
<trkpt lat="55.904327" lon="26.615374">
<ele>117.020569</ele>
<time>2010-06-20T13:51:42Z</time>
<desc>lat.=55.904327, lon.=26.615374, Alt.=117.020569m. Speed=23.688000m/h.</desc>
<speed>6.580000</speed>
</trkpt>
<trkpt lat="55.904278" lon="26.615324">
<ele>117.307678</ele>
<time>2010-06-20T13:51:43Z</time>
<desc>lat.=55.904278, lon.=26.615324, Alt.=117.307678m. Speed=23.184000m/h.</desc>
<speed>6.440000</speed>
</trkpt>
<trkpt lat="55.904224" lon="26.615280">
<ele>117.877991</ele>
<time>2010-06-20T13:51:44Z</time>
<desc>lat.=55.904224, lon.=26.615280, Alt.=117.877991m. Speed=24.264000m/h.</desc>
<speed>6.740000</speed>
</trkpt>
<trkpt lat="55.904171" lon="26.615231">
<ele>118.098694</ele>
<time>2010-06-20T13:51:45Z</time>
<desc>lat.=55.904171, lon.=26.615231, Alt.=118.098694m. Speed=24.552000m/h.</desc>
<speed>6.820000</speed>
</trkpt>
<trkpt lat="55.904114" lon="26.615181">
<ele>118.362366</ele>
<time>2010-06-20T13:51:46Z</time>
<desc>lat.=55.904114, lon.=26.615181, Alt.=118.362366m. Speed=24.444000m/h.</desc>
<speed>6.790000</speed>
</trkpt>
<trkpt lat="55.904060" lon="26.615131">
<ele>118.520569</ele>
<time>2010-06-20T13:51:47Z</time>
<desc>lat.=55.904060, lon.=26.615131, Alt.=118.520569m. Speed=24.228001m/h.</desc>
<speed>6.730000</speed>
</trkpt>
<trkpt lat="55.904007" lon="26.615084">
<ele>118.647522</ele>
<time>2010-06-20T13:51:48Z</time>
<desc>lat.=55.904007, lon.=26.615084, Alt.=118.647522m. Speed=24.084000m/h.</desc>
<speed>6.690000</speed>
</trkpt>
<trkpt lat="55.903954" lon="26.615034">
<ele>119.133850</ele>
<time>2010-06-20T13:51:49Z</time>
<desc>lat.=55.903954, lon.=26.615034, Alt.=119.133850m. Speed=24.804001m/h.</desc>
<speed>6.890000</speed>
</trkpt>
<trkpt lat="55.903893" lon="26.614983">
<ele>120.924866</ele>
<time>2010-06-20T13:51:50Z</time>
<desc>lat.=55.903893, lon.=26.614983, Alt.=120.924866m. Speed=25.164000m/h.</desc>
<speed>6.990000</speed>
</trkpt>
<trkpt lat="55.903835" lon="26.614933">
<ele>120.680725</ele>
<time>2010-06-20T13:51:51Z</time>
<desc>lat.=55.903835, lon.=26.614933, Alt.=120.680725m. Speed=25.164000m/h.</desc>
<speed>6.990000</speed>
</trkpt>
<trkpt lat="55.903778" lon="26.614883">
<ele>121.969788</ele>
<time>2010-06-20T13:51:52Z</time>
<desc>lat.=55.903778, lon.=26.614883, Alt.=121.969788m. Speed=25.775999m/h.</desc>
<speed>7.160000</speed>
</trkpt>
<trkpt lat="55.903717" lon="26.614834">
<ele>122.047913</ele>
<time>2010-06-20T13:51:53Z</time>
<desc>lat.=55.903717, lon.=26.614834, Alt.=122.047913m. Speed=25.920000m/h.</desc>
<speed>7.200000</speed>
</trkpt>
<trkpt lat="55.903660" lon="26.614784">
<ele>122.141663</ele>
<time>2010-06-20T13:51:54Z</time>
<desc>lat.=55.903660, lon.=26.614784, Alt.=122.141663m. Speed=25.164000m/h.</desc>
<speed>6.990000</speed>
</trkpt>
<trkpt lat="55.903606" lon="26.614742">
<ele>121.932678</ele>
<time>2010-06-20T13:51:55Z</time>
<desc>lat.=55.903606, lon.=26.614742, Alt.=121.932678m. Speed=25.379999m/h.</desc>
<speed>7.050000</speed>
</trkpt>
<trkpt lat="55.903549" lon="26.614691">
<ele>120.596741</ele>
<time>2010-06-20T13:51:56Z</time>
<desc>lat.=55.903549, lon.=26.614691, Alt.=120.596741m. Speed=24.480000m/h.</desc>
<speed>6.800000</speed>
</trkpt>
<trkpt lat="55.903496" lon="26.614637">
<ele>120.258850</ele>
<time>2010-06-20T13:51:57Z</time>
<desc>lat.=55.903496, lon.=26.614637, Alt.=120.258850m. Speed=25.091999m/h.</desc>
<speed>6.970000</speed>
</trkpt>
<trkpt lat="55.903439" lon="26.614586">
<ele>120.118225</ele>
<time>2010-06-20T13:51:58Z</time>
<desc>lat.=55.903439, lon.=26.614586, Alt.=120.118225m. Speed=25.667999m/h.</desc>
<speed>7.130000</speed>
</trkpt>
<trkpt lat="55.903381" lon="26.614532">
<ele>120.407288</ele>
<time>2010-06-20T13:51:59Z</time>
<desc>lat.=55.903381, lon.=26.614532, Alt.=120.407288m. Speed=25.667999m/h.</desc>
<speed>7.130000</speed>
</trkpt>
<trkpt lat="55.903324" lon="26.614473">
<ele>121.106506</ele>
<time>2010-06-20T13:52:00Z</time>
<desc>lat.=55.903324, lon.=26.614473, Alt.=121.106506m. Speed=25.884001m/h.</desc>
<speed>7.190000</speed>
</trkpt>
<trkpt lat="55.903267" lon="26.614418">
<ele>122.040100</ele>
<time>2010-06-20T13:52:01Z</time>
<desc>lat.=55.903267, lon.=26.614418, Alt.=122.040100m. Speed=25.740000m/h.</desc>
<speed>7.150000</speed>
</trkpt>
<trkpt lat="55.903206" lon="26.614363">
<ele>122.522522</ele>
<time>2010-06-20T13:52:02Z</time>
<desc>lat.=55.903206, lon.=26.614363, Alt.=122.522522m. Speed=25.920000m/h.</desc>
<speed>7.200000</speed>
</trkpt>
<trkpt lat="55.903160" lon="26.614305">
<ele>121.813538</ele>
<time>2010-06-20T13:52:03Z</time>
<desc>lat.=55.903160, lon.=26.614305, Alt.=121.813538m. Speed=23.148001m/h.</desc>
<speed>6.430000</speed>
</trkpt>
<trkpt lat="55.903107" lon="26.614258">
<ele>121.684631</ele>
<time>2010-06-20T13:52:04Z</time>
<desc>lat.=55.903107, lon.=26.614258, Alt.=121.684631m. Speed=25.020000m/h.</desc>
<speed>6.950000</speed>
</trkpt>
<trkpt lat="55.903053" lon="26.614208">
<ele>121.159241</ele>
<time>2010-06-20T13:52:05Z</time>
<desc>lat.=55.903053, lon.=26.614208, Alt.=121.159241m. Speed=25.056000m/h.</desc>
<speed>6.960000</speed>
</trkpt>
<trkpt lat="55.903000" lon="26.614151">
<ele>120.452209</ele>
<time>2010-06-20T13:52:06Z</time>
<desc>lat.=55.903000, lon.=26.614151, Alt.=120.452209m. Speed=24.948000m/h.</desc>
<speed>6.930000</speed>
</trkpt>
<trkpt lat="55.902943" lon="26.614094">
<ele>122.018616</ele>
<time>2010-06-20T13:52:07Z</time>
<desc>lat.=55.902943, lon.=26.614094, Alt.=122.018616m. Speed=25.452000m/h.</desc>
<speed>7.070000</speed>
</trkpt>
<trkpt lat="55.902885" lon="26.614046">
<ele>122.549866</ele>
<time>2010-06-20T13:52:08Z</time>
<desc>lat.=55.902885, lon.=26.614046, Alt.=122.549866m. Speed=25.596001m/h.</desc>
<speed>7.110000</speed>
</trkpt>
<trkpt lat="55.902832" lon="26.613995">
<ele>122.247131</ele>
<time>2010-06-20T13:52:09Z</time>
<desc>lat.=55.902832, lon.=26.613995, Alt.=122.247131m. Speed=24.768000m/h.</desc>
<speed>6.880000</speed>
</trkpt>
<trkpt lat="55.902775" lon="26.613941">
<ele>122.098694</ele>
<time>2010-06-20T13:52:10Z</time>
<desc>lat.=55.902775, lon.=26.613941, Alt.=122.098694m. Speed=25.128000m/h.</desc>
<speed>6.980000</speed>
</trkpt>
<trkpt lat="55.902725" lon="26.613890">
<ele>122.381897</ele>
<time>2010-06-20T13:52:11Z</time>
<desc>lat.=55.902725, lon.=26.613890, Alt.=122.381897m. Speed=22.788000m/h.</desc>
<speed>6.330000</speed>
</trkpt>
<trkpt lat="55.902672" lon="26.613836">
<ele>122.299866</ele>
<time>2010-06-20T13:52:12Z</time>
<desc>lat.=55.902672, lon.=26.613836, Alt.=122.299866m. Speed=21.455999m/h.</desc>
<speed>5.960000</speed>
</trkpt>
<trkpt lat="55.902618" lon="26.613779">
<ele>121.825256</ele>
<time>2010-06-20T13:52:13Z</time>
<desc>lat.=55.902618, lon.=26.613779, Alt.=121.825256m. Speed=25.271999m/h.</desc>
<speed>7.020000</speed>
</trkpt>
<trkpt lat="55.902561" lon="26.613724">
<ele>121.559631</ele>
<time>2010-06-20T13:52:14Z</time>
<desc>lat.=55.902561, lon.=26.613724, Alt.=121.559631m. Speed=25.920000m/h.</desc>
<speed>7.200000</speed>
</trkpt>
<trkpt lat="55.902500" lon="26.613670">
<ele>121.180725</ele>
<time>2010-06-20T13:52:15Z</time>
<desc>lat.=55.902500, lon.=26.613670, Alt.=121.180725m. Speed=25.740000m/h.</desc>
<speed>7.150000</speed>
</trkpt>
<trkpt lat="55.902443" lon="26.613611">
<ele>120.899475</ele>
<time>2010-06-20T13:52:16Z</time>
<desc>lat.=55.902443, lon.=26.613611, Alt.=120.899475m. Speed=25.848000m/h.</desc>
<speed>7.180000</speed>
</trkpt>
<trkpt lat="55.902382" lon="26.613562">
<ele>121.151428</ele>
<time>2010-06-20T13:52:17Z</time>
<desc>lat.=55.902382, lon.=26.613562, Alt.=121.151428m. Speed=25.632000m/h.</desc>
<speed>7.120000</speed>
</trkpt>
<trkpt lat="55.902317" lon="26.613516">
<ele>121.260803</ele>
<time>2010-06-20T13:52:18Z</time>
<desc>lat.=55.902317, lon.=26.613516, Alt.=121.260803m. Speed=26.172001m/h.</desc>
<speed>7.270000</speed>
</trkpt>
<trkpt lat="55.902256" lon="26.613455">
<ele>121.442444</ele>
<time>2010-06-20T13:52:19Z</time>
<desc>lat.=55.902256, lon.=26.613455, Alt.=121.442444m. Speed=26.459999m/h.</desc>
<speed>7.350000</speed>
</trkpt>
<trkpt lat="55.902195" lon="26.613405">
<ele>121.315491</ele>
<time>2010-06-20T13:52:20Z</time>
<desc>lat.=55.902195, lon.=26.613405, Alt.=121.315491m. Speed=25.271999m/h.</desc>
<speed>7.020000</speed>
</trkpt>
<trkpt lat="55.902138" lon="26.613358">
<ele>120.645569</ele>
<time>2010-06-20T13:52:21Z</time>
<desc>lat.=55.902138, lon.=26.613358, Alt.=120.645569m. Speed=25.632000m/h.</desc>
<speed>7.120000</speed>
</trkpt>
<trkpt lat="55.902081" lon="26.613304">
<ele>120.321350</ele>
<time>2010-06-20T13:52:22Z</time>
<desc>lat.=55.902081, lon.=26.613304, Alt.=120.321350m. Speed=25.775999m/h.</desc>
<speed>7.160000</speed>
</trkpt>
<trkpt lat="55.902023" lon="26.613247">
<ele>120.141663</ele>
<time>2010-06-20T13:52:23Z</time>
<desc>lat.=55.902023, lon.=26.613247, Alt.=120.141663m. Speed=25.452000m/h.</desc>
<speed>7.070000</speed>
</trkpt>
<trkpt lat="55.901970" lon="26.613197">
<ele>120.233459</ele>
<time>2010-06-20T13:52:24Z</time>
<desc>lat.=55.901970, lon.=26.613197, Alt.=120.233459m. Speed=25.164000m/h.</desc>
<speed>6.990000</speed>
</trkpt>
<trkpt lat="55.901913" lon="26.613146">
<ele>120.086975</ele>
<time>2010-06-20T13:52:25Z</time>
<desc>lat.=55.901913, lon.=26.613146, Alt.=120.086975m. Speed=25.236000m/h.</desc>
<speed>7.010000</speed>
</trkpt>
<trkpt lat="55.901855" lon="26.613096">
<ele>120.256897</ele>
<time>2010-06-20T13:52:26Z</time>
<desc>lat.=55.901855, lon.=26.613096, Alt.=120.256897m. Speed=25.091999m/h.</desc>
<speed>6.970000</speed>
</trkpt>
<trkpt lat="55.901802" lon="26.613049">
<ele>120.254944</ele>
<time>2010-06-20T13:52:27Z</time>
<desc>lat.=55.901802, lon.=26.613049, Alt.=120.254944m. Speed=24.732000m/h.</desc>
<speed>6.870000</speed>
</trkpt>
<trkpt lat="55.901749" lon="26.612997">
<ele>120.190491</ele>
<time>2010-06-20T13:52:28Z</time>
<desc>lat.=55.901749, lon.=26.612997, Alt.=120.190491m. Speed=24.120001m/h.</desc>
<speed>6.700000</speed>
</trkpt>
<trkpt lat="55.901695" lon="26.612946">
<ele>120.194397</ele>
<time>2010-06-20T13:52:29Z</time>
<desc>lat.=55.901695, lon.=26.612946, Alt.=120.194397m. Speed=24.048000m/h.</desc>
<speed>6.680000</speed>
</trkpt>
<trkpt lat="55.901642" lon="26.612896">
<ele>120.319397</ele>
<time>2010-06-20T13:52:30Z</time>
<desc>lat.=55.901642, lon.=26.612896, Alt.=120.319397m. Speed=23.940001m/h.</desc>
<speed>6.650000</speed>
</trkpt>
<trkpt lat="55.901585" lon="26.612850">
<ele>120.458069</ele>
<time>2010-06-20T13:52:31Z</time>
<desc>lat.=55.901585, lon.=26.612850, Alt.=120.458069m. Speed=23.796000m/h.</desc>
<speed>6.610000</speed>
</trkpt>
<trkpt lat="55.901531" lon="26.612801">
<ele>120.325256</ele>
<time>2010-06-20T13:52:32Z</time>
<desc>lat.=55.901531, lon.=26.612801, Alt.=120.325256m. Speed=23.400000m/h.</desc>
<speed>6.500000</speed>
</trkpt>
<trkpt lat="55.901474" lon="26.612761">
<ele>120.547913</ele>
<time>2010-06-20T13:52:33Z</time>
<desc>lat.=55.901474, lon.=26.612761, Alt.=120.547913m. Speed=23.040001m/h.</desc>
<speed>6.400000</speed>
</trkpt>
<trkpt lat="55.901421" lon="26.612713">
<ele>120.756897</ele>
<time>2010-06-20T13:52:34Z</time>
<desc>lat.=55.901421, lon.=26.612713, Alt.=120.756897m. Speed=23.544001m/h.</desc>
<speed>6.540000</speed>
</trkpt>
<trkpt lat="55.901367" lon="26.612663">
<ele>120.883850</ele>
<time>2010-06-20T13:52:35Z</time>
<desc>lat.=55.901367, lon.=26.612663, Alt.=120.883850m. Speed=22.788000m/h.</desc>
<speed>6.330000</speed>
</trkpt>
<trkpt lat="55.901314" lon="26.612617">
<ele>120.792053</ele>
<time>2010-06-20T13:52:36Z</time>
<desc>lat.=55.901314, lon.=26.612617, Alt.=120.792053m. Speed=23.219999m/h.</desc>
<speed>6.450000</speed>
</trkpt>
<trkpt lat="55.901264" lon="26.612574">
<ele>120.557678</ele>
<time>2010-06-20T13:52:37Z</time>
<desc>lat.=55.901264, lon.=26.612574, Alt.=120.557678m. Speed=23.256001m/h.</desc>
<speed>6.460000</speed>
</trkpt>
<trkpt lat="55.901207" lon="26.612530">
<ele>120.942444</ele>
<time>2010-06-20T13:52:38Z</time>
<desc>lat.=55.901207, lon.=26.612530, Alt.=120.942444m. Speed=23.615999m/h.</desc>
<speed>6.560000</speed>
</trkpt>
<trkpt lat="55.901154" lon="26.612484">
<ele>120.954163</ele>
<time>2010-06-20T13:52:39Z</time>
<desc>lat.=55.901154, lon.=26.612484, Alt.=120.954163m. Speed=23.688000m/h.</desc>
<speed>6.580000</speed>
</trkpt>
<trkpt lat="55.901100" lon="26.612438">
<ele>121.086975</ele>
<time>2010-06-20T13:52:40Z</time>
<desc>lat.=55.901100, lon.=26.612438, Alt.=121.086975m. Speed=23.724001m/h.</desc>
<speed>6.590000</speed>
</trkpt>
<trkpt lat="55.901047" lon="26.612392">
<ele>121.018616</ele>
<time>2010-06-20T13:52:41Z</time>
<desc>lat.=55.901047, lon.=26.612392, Alt.=121.018616m. Speed=23.436001m/h.</desc>
<speed>6.510000</speed>
</trkpt>
<trkpt lat="55.900990" lon="26.612350">
<ele>121.008850</ele>
<time>2010-06-20T13:52:42Z</time>
<desc>lat.=55.900990, lon.=26.612350, Alt.=121.008850m. Speed=23.436001m/h.</desc>
<speed>6.510000</speed>
</trkpt>
<trkpt lat="55.900936" lon="26.612301">
<ele>121.100647</ele>
<time>2010-06-20T13:52:43Z</time>
<desc>lat.=55.900936, lon.=26.612301, Alt.=121.100647m. Speed=23.796000m/h.</desc>
<speed>6.610000</speed>
</trkpt>
<trkpt lat="55.900883" lon="26.612251">
<ele>120.735413</ele>
<time>2010-06-20T13:52:44Z</time>
<desc>lat.=55.900883, lon.=26.612251, Alt.=120.735413m. Speed=23.436001m/h.</desc>
<speed>6.510000</speed>
</trkpt>
<trkpt lat="55.900833" lon="26.612200">
<ele>120.458069</ele>
<time>2010-06-20T13:52:45Z</time>
<desc>lat.=55.900833, lon.=26.612200, Alt.=120.458069m. Speed=23.615999m/h.</desc>
<speed>6.560000</speed>
</trkpt>
<trkpt lat="55.900780" lon="26.612150">
<ele>120.008850</ele>
<time>2010-06-20T13:52:46Z</time>
<desc>lat.=55.900780, lon.=26.612150, Alt.=120.008850m. Speed=23.256001m/h.</desc>
<speed>6.460000</speed>
</trkpt>
<trkpt lat="55.900726" lon="26.612106">
<ele>119.901428</ele>
<time>2010-06-20T13:52:47Z</time>
<desc>lat.=55.900726, lon.=26.612106, Alt.=119.901428m. Speed=23.040001m/h.</desc>
<speed>6.400000</speed>
</trkpt>
<trkpt lat="55.900673" lon="26.612064">
<ele>120.163147</ele>
<time>2010-06-20T13:52:48Z</time>
<desc>lat.=55.900673, lon.=26.612064, Alt.=120.163147m. Speed=22.896000m/h.</desc>
<speed>6.360000</speed>
</trkpt>
<trkpt lat="55.900623" lon="26.612024">
<ele>120.264709</ele>
<time>2010-06-20T13:52:49Z</time>
<desc>lat.=55.900623, lon.=26.612024, Alt.=120.264709m. Speed=24.048000m/h.</desc>
<speed>6.680000</speed>
</trkpt>
<trkpt lat="55.900570" lon="26.611984">
<ele>120.372131</ele>
<time>2010-06-20T13:52:50Z</time>
<desc>lat.=55.900570, lon.=26.611984, Alt.=120.372131m. Speed=24.048000m/h.</desc>
<speed>6.680000</speed>
</trkpt>
<trkpt lat="55.900517" lon="26.611938">
<ele>120.210022</ele>
<time>2010-06-20T13:52:51Z</time>
<desc>lat.=55.900517, lon.=26.611938, Alt.=120.210022m. Speed=24.191999m/h.</desc>
<speed>6.720000</speed>
</trkpt>
<trkpt lat="55.900463" lon="26.611893">
<ele>120.200256</ele>
<time>2010-06-20T13:52:52Z</time>
<desc>lat.=55.900463, lon.=26.611893, Alt.=120.200256m. Speed=24.120001m/h.</desc>
<speed>6.700000</speed>
</trkpt>
<trkpt lat="55.900414" lon="26.611845">
<ele>120.102600</ele>
<time>2010-06-20T13:52:53Z</time>
<desc>lat.=55.900414, lon.=26.611845, Alt.=120.102600m. Speed=24.084000m/h.</desc>
<speed>6.690000</speed>
</trkpt>
<trkpt lat="55.900360" lon="26.611801">
<ele>120.317444</ele>
<time>2010-06-20T13:52:54Z</time>
<desc>lat.=55.900360, lon.=26.611801, Alt.=120.317444m. Speed=23.796000m/h.</desc>
<speed>6.610000</speed>
</trkpt>
<trkpt lat="55.900311" lon="26.611752">
<ele>120.147522</ele>
<time>2010-06-20T13:52:55Z</time>
<desc>lat.=55.900311, lon.=26.611752, Alt.=120.147522m. Speed=23.436001m/h.</desc>
<speed>6.510000</speed>
</trkpt>
<trkpt lat="55.900261" lon="26.611700">
<ele>120.227600</ele>
<time>2010-06-20T13:52:56Z</time>
<desc>lat.=55.900261, lon.=26.611700, Alt.=120.227600m. Speed=23.652000m/h.</desc>
<speed>6.570000</speed>
</trkpt>
<trkpt lat="55.900215" lon="26.611641">
<ele>119.844788</ele>
<time>2010-06-20T13:52:57Z</time>
<desc>lat.=55.900215, lon.=26.611641, Alt.=119.844788m. Speed=21.240000m/h.</desc>
<speed>5.900000</speed>
</trkpt>
<trkpt lat="55.900188" lon="26.611588">
<ele>120.108459</ele>
<time>2010-06-20T13:52:58Z</time>
<desc>lat.=55.900188, lon.=26.611588, Alt.=120.108459m. Speed=14.508000m/h.</desc>
<speed>4.030000</speed>
</trkpt>
<trkpt lat="55.900162" lon="26.611553">
<ele>120.047913</ele>
<time>2010-06-20T13:52:59Z</time>
<desc>lat.=55.900162, lon.=26.611553, Alt.=120.047913m. Speed=11.736000m/h.</desc>
<speed>3.260000</speed>
</trkpt>
<trkpt lat="55.900135" lon="26.611532">
<ele>120.376038</ele>
<time>2010-06-20T13:53:00Z</time>
<desc>lat.=55.900135, lon.=26.611532, Alt.=120.376038m. Speed=11.232000m/h.</desc>
<speed>3.120000</speed>
</trkpt>
<trkpt lat="55.900105" lon="26.611534">
<ele>120.258850</ele>
<time>2010-06-20T13:53:01Z</time>
<desc>lat.=55.900105, lon.=26.611534, Alt.=120.258850m. Speed=12.564000m/h.</desc>
<speed>3.490000</speed>
</trkpt>
<trkpt lat="55.900074" lon="26.611534">
<ele>120.508850</ele>
<time>2010-06-20T13:53:02Z</time>
<desc>lat.=55.900074, lon.=26.611534, Alt.=120.508850m. Speed=12.276000m/h.</desc>
<speed>3.410000</speed>
</trkpt>
<trkpt lat="55.900040" lon="26.611530">
<ele>120.780334</ele>
<time>2010-06-20T13:53:03Z</time>
<desc>lat.=55.900040, lon.=26.611530, Alt.=120.780334m. Speed=11.844000m/h.</desc>
<speed>3.290000</speed>
</trkpt>
<trkpt lat="55.900005" lon="26.611511">
<ele>120.926819</ele>
<time>2010-06-20T13:53:04Z</time>
<desc>lat.=55.900005, lon.=26.611511, Alt.=120.926819m. Speed=13.752000m/h.</desc>
<speed>3.820000</speed>
</trkpt>
<trkpt lat="55.899975" lon="26.611477">
<ele>120.977600</ele>
<time>2010-06-20T13:53:05Z</time>
<desc>lat.=55.899975, lon.=26.611477, Alt.=120.977600m. Speed=13.680000m/h.</desc>
<speed>3.800000</speed>
</trkpt>
<trkpt lat="55.899940" lon="26.611443">
<ele>121.409241</ele>
<time>2010-06-20T13:53:06Z</time>
<desc>lat.=55.899940, lon.=26.611443, Alt.=121.409241m. Speed=14.328000m/h.</desc>
<speed>3.980000</speed>
</trkpt>
<trkpt lat="55.899906" lon="26.611422">
<ele>121.766663</ele>
<time>2010-06-20T13:53:07Z</time>
<desc>lat.=55.899906, lon.=26.611422, Alt.=121.766663m. Speed=13.536000m/h.</desc>
<speed>3.760000</speed>
</trkpt>
<trkpt lat="55.899876" lon="26.611397">
<ele>121.948303</ele>
<time>2010-06-20T13:53:08Z</time>
<desc>lat.=55.899876, lon.=26.611397, Alt.=121.948303m. Speed=13.356000m/h.</desc>
<speed>3.710000</speed>
</trkpt>
<trkpt lat="55.899845" lon="26.611372">
<ele>122.063538</ele>
<time>2010-06-20T13:53:09Z</time>
<desc>lat.=55.899845, lon.=26.611372, Alt.=122.063538m. Speed=13.428000m/h.</desc>
<speed>3.730000</speed>
</trkpt>
<trkpt lat="55.899815" lon="26.611347">
<ele>122.139709</ele>
<time>2010-06-20T13:53:10Z</time>
<desc>lat.=55.899815, lon.=26.611347, Alt.=122.139709m. Speed=13.536000m/h.</desc>
<speed>3.760000</speed>
</trkpt>
<trkpt lat="55.899784" lon="26.611319">
<ele>122.442444</ele>
<time>2010-06-20T13:53:11Z</time>
<desc>lat.=55.899784, lon.=26.611319, Alt.=122.442444m. Speed=14.148000m/h.</desc>
<speed>3.930000</speed>
</trkpt>
<trkpt lat="55.899754" lon="26.611292">
<ele>122.415100</ele>
<time>2010-06-20T13:53:12Z</time>
<desc>lat.=55.899754, lon.=26.611292, Alt.=122.415100m. Speed=14.040000m/h.</desc>
<speed>3.900000</speed>
</trkpt>
<trkpt lat="55.899719" lon="26.611259">
<ele>122.403381</ele>
<time>2010-06-20T13:53:13Z</time>
<desc>lat.=55.899719, lon.=26.611259, Alt.=122.403381m. Speed=14.436000m/h.</desc>
<speed>4.010000</speed>
</trkpt>
<trkpt lat="55.899685" lon="26.611237">
<ele>122.708069</ele>
<time>2010-06-20T13:53:14Z</time>
<desc>lat.=55.899685, lon.=26.611237, Alt.=122.708069m. Speed=14.112000m/h.</desc>
<speed>3.920000</speed>
</trkpt>
<trkpt lat="55.899651" lon="26.611219">
<ele>122.704163</ele>
<time>2010-06-20T13:53:15Z</time>
<desc>lat.=55.899651, lon.=26.611219, Alt.=122.704163m. Speed=12.960000m/h.</desc>
<speed>3.600000</speed>
</trkpt>
<trkpt lat="55.899628" lon="26.611187">
<ele>122.725647</ele>
<time>2010-06-20T13:53:16Z</time>
<desc>lat.=55.899628, lon.=26.611187, Alt.=122.725647m. Speed=11.268000m/h.</desc>
<speed>3.130000</speed>
</trkpt>
<trkpt lat="55.899612" lon="26.611156">
<ele>122.354553</ele>
<time>2010-06-20T13:53:17Z</time>
<desc>lat.=55.899612, lon.=26.611156, Alt.=122.354553m. Speed=7.560000m/h.</desc>
<speed>2.100000</speed>
</trkpt>
<trkpt lat="55.899601" lon="26.611124">
<ele>122.292053</ele>
<time>2010-06-20T13:53:18Z</time>
<desc>lat.=55.899601, lon.=26.611124, Alt.=122.292053m. Speed=6.444000m/h.</desc>
<speed>1.790000</speed>
</trkpt>
<trkpt lat="55.899597" lon="26.611109">
<ele>122.475647</ele>
<time>2010-06-20T13:53:19Z</time>
<desc>lat.=55.899597, lon.=26.611109, Alt.=122.475647m. Speed=1.728000m/h.</desc>
<speed>0.480000</speed>
</trkpt>
<trkpt lat="55.899601" lon="26.611094">
<ele>122.319397</ele>
<time>2010-06-20T13:53:20Z</time>
<desc>lat.=55.899601, lon.=26.611094, Alt.=122.319397m. Speed=3.528000m/h.</desc>
<speed>0.980000</speed>
</trkpt>
<trkpt lat="55.899593" lon="26.611073">
<ele>122.186584</ele>
<time>2010-06-20T13:53:21Z</time>
<desc>lat.=55.899593, lon.=26.611073, Alt.=122.186584m. Speed=6.156000m/h.</desc>
<speed>1.710000</speed>
</trkpt>
<trkpt lat="55.899586" lon="26.611053">
<ele>122.012756</ele>
<time>2010-06-20T13:53:22Z</time>
<desc>lat.=55.899586, lon.=26.611053, Alt.=122.012756m. Speed=5.400000m/h.</desc>
<speed>1.500000</speed>
</trkpt>
<trkpt lat="55.899570" lon="26.611032">
<ele>121.909241</ele>
<time>2010-06-20T13:53:23Z</time>
<desc>lat.=55.899570, lon.=26.611032, Alt.=121.909241m. Speed=5.580000m/h.</desc>
<speed>1.550000</speed>
</trkpt>
<trkpt lat="55.899567" lon="26.611012">
<ele>121.868225</ele>
<time>2010-06-20T13:53:24Z</time>
<desc>lat.=55.899567, lon.=26.611012, Alt.=121.868225m. Speed=5.292000m/h.</desc>
<speed>1.470000</speed>
</trkpt>
<trkpt lat="55.899559" lon="26.610996">
<ele>121.883850</ele>
<time>2010-06-20T13:53:25Z</time>
<desc>lat.=55.899559, lon.=26.610996, Alt.=121.883850m. Speed=3.816000m/h.</desc>
<speed>1.060000</speed>
</trkpt>
<trkpt lat="55.899555" lon="26.610989">
<ele>122.110413</ele>
<time>2010-06-20T13:53:26Z</time>
<desc>lat.=55.899555, lon.=26.610989, Alt.=122.110413m. Speed=0.612000m/h.</desc>
<speed>0.170000</speed>
</trkpt>
<trkpt lat="55.899559" lon="26.610985">
<ele>121.979553</ele>
<time>2010-06-20T13:53:27Z</time>
<desc>lat.=55.899559, lon.=26.610985, Alt.=121.979553m. Speed=0.072000m/h.</desc>
<speed>0.020000</speed>
</trkpt>
<trkpt lat="55.899559" lon="26.610985">
<ele>122.170959</ele>
<time>2010-06-20T13:53:28Z</time>
<desc>lat.=55.899559, lon.=26.610985, Alt.=122.170959m. Speed=0.000000m/h.</desc>
<speed>0.000000</speed>
</trkpt>
<trkpt lat="55.899563" lon="26.610987">
<ele>122.325256</ele>
<time>2010-06-20T13:53:29Z</time>
<desc>lat.=55.899563, lon.=26.610987, Alt.=122.325256m. Speed=0.216000m/h.</desc>
<speed>0.060000</speed>
</trkpt>
<trkpt lat="55.899563" lon="26.610987">
<ele>122.329163</ele>
<time>2010-06-20T13:53:30Z</time>
<desc>lat.=55.899563, lon.=26.610987, Alt.=122.329163m. Speed=0.036000m/h.</desc>
<speed>0.010000</speed>
</trkpt>
<trkpt lat="55.899563" lon="26.610987">
<ele>122.319397</ele>
<time>2010-06-20T13:53:31Z</time>
<desc>lat.=55.899563, lon.=26.610987, Alt.=122.319397m. Speed=0.036000m/h.</desc>
<speed>0.010000</speed>
</trkpt>
<trkpt lat="55.899563" lon="26.610987">
<ele>122.319397</ele>
<time>2010-06-20T13:53:32Z</time>
<desc>lat.=55.899563, lon.=26.610987, Alt.=122.319397m. Speed=0.180000m/h.</desc>
<speed>0.050000</speed>
</trkpt>
<trkpt lat="55.899563" lon="26.610985">
<ele>122.333069</ele>
<time>2010-06-20T13:53:33Z</time>
<desc>lat.=55.899563, lon.=26.610985, Alt.=122.333069m. Speed=0.216000m/h.</desc>
<speed>0.060000</speed>
</trkpt>
<trkpt lat="55.899563" lon="26.610985">
<ele>122.356506</ele>
<time>2010-06-20T13:53:34Z</time>
<desc>lat.=55.899563, lon.=26.610985, Alt.=122.356506m. Speed=0.216000m/h.</desc>
<speed>0.060000</speed>
</trkpt>
<trkpt lat="55.899559" lon="26.610985">
<ele>122.370178</ele>
<time>2010-06-20T13:53:35Z</time>
<desc>lat.=55.899559, lon.=26.610985, Alt.=122.370178m. Speed=0.216000m/h.</desc>
<speed>0.060000</speed>
</trkpt>
<trkpt lat="55.899559" lon="26.610985">
<ele>122.374084</ele>
<time>2010-06-20T13:53:36Z</time>
<desc>lat.=55.899559, lon.=26.610985, Alt.=122.374084m. Speed=0.288000m/h.</desc>
<speed>0.080000</speed>
</trkpt>
<trkpt lat="55.899559" lon="26.610985">
<ele>122.358459</ele>
<time>2010-06-20T13:53:37Z</time>
<desc>lat.=55.899559, lon.=26.610985, Alt.=122.358459m. Speed=0.000000m/h.</desc>
<speed>0.000000</speed>
</trkpt>
<trkpt lat="55.899559" lon="26.610985">
<ele>122.342834</ele>
<time>2010-06-20T13:53:38Z</time>
<desc>lat.=55.899559, lon.=26.610985, Alt.=122.342834m. Speed=0.180000m/h.</desc>
<speed>0.050000</speed>
</trkpt>
<trkpt lat="55.899559" lon="26.610985">
<ele>122.331116</ele>
<time>2010-06-20T13:53:39Z</time>
<desc>lat.=55.899559, lon.=26.610985, Alt.=122.331116m. Speed=0.360000m/h.</desc>
<speed>0.100000</speed>
</trkpt>
<trkpt lat="55.899559" lon="26.610985">
<ele>122.315491</ele>
<time>2010-06-20T13:53:40Z</time>
<desc>lat.=55.899559, lon.=26.610985, Alt.=122.315491m. Speed=0.252000m/h.</desc>
<speed>0.070000</speed>
</trkpt>
<trkpt lat="55.899563" lon="26.610983">
<ele>122.301819</ele>
<time>2010-06-20T13:53:41Z</time>
<desc>lat.=55.899563, lon.=26.610983, Alt.=122.301819m. Speed=0.144000m/h.</desc>
<speed>0.040000</speed>
</trkpt>
<trkpt lat="55.899563" lon="26.610983">
<ele>122.290100</ele>
<time>2010-06-20T13:53:42Z</time>
<desc>lat.=55.899563, lon.=26.610983, Alt.=122.290100m. Speed=0.612000m/h.</desc>
<speed>0.170000</speed>
</trkpt>
<trkpt lat="55.899563" lon="26.610985">
<ele>122.280334</ele>
<time>2010-06-20T13:53:43Z</time>
<desc>lat.=55.899563, lon.=26.610985, Alt.=122.280334m. Speed=0.252000m/h.</desc>
<speed>0.070000</speed>
</trkpt>
<trkpt lat="55.899563" lon="26.610985">
<ele>122.270569</ele>
<time>2010-06-20T13:53:44Z</time>
<desc>lat.=55.899563, lon.=26.610985, Alt.=122.270569m. Speed=3.564000m/h.</desc>
<speed>0.990000</speed>
</trkpt>
<trkpt lat="55.899567" lon="26.611000">
<ele>122.268616</ele>
<time>2010-06-20T13:53:45Z</time>
<desc>lat.=55.899567, lon.=26.611000, Alt.=122.268616m. Speed=4.500000m/h.</desc>
<speed>1.250000</speed>
</trkpt>
<trkpt lat="55.899563" lon="26.611021">
<ele>122.169006</ele>
<time>2010-06-20T13:53:46Z</time>
<desc>lat.=55.899563, lon.=26.611021, Alt.=122.169006m. Speed=6.012000m/h.</desc>
<speed>1.670000</speed>
</trkpt>
<trkpt lat="55.899555" lon="26.611050">
<ele>122.311584</ele>
<time>2010-06-20T13:53:47Z</time>
<desc>lat.=55.899555, lon.=26.611050, Alt.=122.311584m. Speed=6.228000m/h.</desc>
<speed>1.730000</speed>
</trkpt>
<trkpt lat="55.899555" lon="26.611071">
<ele>122.393616</ele>
<time>2010-06-20T13:53:48Z</time>
<desc>lat.=55.899555, lon.=26.611071, Alt.=122.393616m. Speed=5.976000m/h.</desc>
<speed>1.660000</speed>
</trkpt>
<trkpt lat="55.899551" lon="26.611094">
<ele>122.444397</ele>
<time>2010-06-20T13:53:49Z</time>
<desc>lat.=55.899551, lon.=26.611094, Alt.=122.444397m. Speed=4.644000m/h.</desc>
<speed>1.290000</speed>
</trkpt>
<trkpt lat="55.899548" lon="26.611116">
<ele>122.350647</ele>
<time>2010-06-20T13:53:50Z</time>
<desc>lat.=55.899548, lon.=26.611116, Alt.=122.350647m. Speed=6.120000m/h.</desc>
<speed>1.700000</speed>
</trkpt>
<trkpt lat="55.899536" lon="26.611139">
<ele>122.270569</ele>
<time>2010-06-20T13:53:51Z</time>
<desc>lat.=55.899536, lon.=26.611139, Alt.=122.270569m. Speed=8.712000m/h.</desc>
<speed>2.420000</speed>
</trkpt>
<trkpt lat="55.899509" lon="26.611156">
<ele>122.165100</ele>
<time>2010-06-20T13:53:52Z</time>
<desc>lat.=55.899509, lon.=26.611156, Alt.=122.165100m. Speed=7.848000m/h.</desc>
<speed>2.180000</speed>
</trkpt>
<trkpt lat="55.899487" lon="26.611177">
<ele>121.922913</ele>
<time>2010-06-20T13:53:53Z</time>
<desc>lat.=55.899487, lon.=26.611177, Alt.=121.922913m. Speed=9.540000m/h.</desc>
<speed>2.650000</speed>
</trkpt>
<trkpt lat="55.899460" lon="26.611214">
<ele>122.024475</ele>
<time>2010-06-20T13:53:54Z</time>
<desc>lat.=55.899460, lon.=26.611214, Alt.=122.024475m. Speed=11.952000m/h.</desc>
<speed>3.320000</speed>
</trkpt>
<trkpt lat="55.899437" lon="26.611248">
<ele>121.377991</ele>
<time>2010-06-20T13:53:55Z</time>
<desc>lat.=55.899437, lon.=26.611248, Alt.=121.377991m. Speed=11.556000m/h.</desc>
<speed>3.210000</speed>
</trkpt>
<trkpt lat="55.899418" lon="26.611286">
<ele>121.208069</ele>
<time>2010-06-20T13:53:56Z</time>
<desc>lat.=55.899418, lon.=26.611286, Alt.=121.208069m. Speed=12.960000m/h.</desc>
<speed>3.600000</speed>
</trkpt>
<trkpt lat="55.899391" lon="26.611322">
<ele>121.409241</ele>
<time>2010-06-20T13:53:57Z</time>
<desc>lat.=55.899391, lon.=26.611322, Alt.=121.409241m. Speed=12.384000m/h.</desc>
<speed>3.440000</speed>
</trkpt>
<trkpt lat="55.899364" lon="26.611361">
<ele>121.348694</ele>
<time>2010-06-20T13:53:58Z</time>
<desc>lat.=55.899364, lon.=26.611361, Alt.=121.348694m. Speed=13.392000m/h.</desc>
<speed>3.720000</speed>
</trkpt>
<trkpt lat="55.899342" lon="26.611404">
<ele>121.167053</ele>
<time>2010-06-20T13:53:59Z</time>
<desc>lat.=55.899342, lon.=26.611404, Alt.=121.167053m. Speed=13.788000m/h.</desc>
<speed>3.830000</speed>
</trkpt>
<trkpt lat="55.899315" lon="26.611446">
<ele>121.182678</ele>
<time>2010-06-20T13:54:00Z</time>
<desc>lat.=55.899315, lon.=26.611446, Alt.=121.182678m. Speed=14.076000m/h.</desc>
<speed>3.910000</speed>
</trkpt>
<trkpt lat="55.899284" lon="26.611481">
<ele>121.112366</ele>
<time>2010-06-20T13:54:01Z</time>
<desc>lat.=55.899284, lon.=26.611481, Alt.=121.112366m. Speed=11.628000m/h.</desc>
<speed>3.230000</speed>
</trkpt>
<trkpt lat="55.899265" lon="26.611506">
<ele>121.184631</ele>
<time>2010-06-20T13:54:02Z</time>
<desc>lat.=55.899265, lon.=26.611506, Alt.=121.184631m. Speed=8.892000m/h.</desc>
<speed>2.470000</speed>
</trkpt>
<trkpt lat="55.899246" lon="26.611523">
<ele>121.022522</ele>
<time>2010-06-20T13:54:03Z</time>
<desc>lat.=55.899246, lon.=26.611523, Alt.=121.022522m. Speed=6.156000m/h.</desc>
<speed>1.710000</speed>
</trkpt>
<trkpt lat="55.899231" lon="26.611534">
<ele>120.930725</ele>
<time>2010-06-20T13:54:04Z</time>
<desc>lat.=55.899231, lon.=26.611534, Alt.=120.930725m. Speed=5.436000m/h.</desc>
<speed>1.510000</speed>
</trkpt>
<trkpt lat="55.899220" lon="26.611549">
<ele>120.852600</ele>
<time>2010-06-20T13:54:05Z</time>
<desc>lat.=55.899220, lon.=26.611549, Alt.=120.852600m. Speed=5.004000m/h.</desc>
<speed>1.390000</speed>
</trkpt>
<trkpt lat="55.899204" lon="26.611557">
<ele>120.823303</ele>
<time>2010-06-20T13:54:06Z</time>
<desc>lat.=55.899204, lon.=26.611557, Alt.=120.823303m. Speed=5.760000m/h.</desc>
<speed>1.600000</speed>
</trkpt>
<trkpt lat="55.899189" lon="26.611563">
<ele>120.745178</ele>
<time>2010-06-20T13:54:07Z</time>
<desc>lat.=55.899189, lon.=26.611563, Alt.=120.745178m. Speed=5.976000m/h.</desc>
<speed>1.660000</speed>
</trkpt>
<trkpt lat="55.899174" lon="26.611555">
<ele>120.877991</ele>
<time>2010-06-20T13:54:08Z</time>
<desc>lat.=55.899174, lon.=26.611555, Alt.=120.877991m. Speed=10.044000m/h.</desc>
<speed>2.790000</speed>
</trkpt>
<trkpt lat="55.899151" lon="26.611542">
<ele>120.260803</ele>
<time>2010-06-20T13:54:09Z</time>
<desc>lat.=55.899151, lon.=26.611542, Alt.=120.260803m. Speed=10.620000m/h.</desc>
<speed>2.950000</speed>
</trkpt>
<trkpt lat="55.899136" lon="26.611504">
<ele>118.602600</ele>
<time>2010-06-20T13:54:10Z</time>
<desc>lat.=55.899136, lon.=26.611504, Alt.=118.602600m. Speed=11.664000m/h.</desc>
<speed>3.240000</speed>
</trkpt>
<trkpt lat="55.899136" lon="26.611452">
<ele>118.053772</ele>
<time>2010-06-20T13:54:11Z</time>
<desc>lat.=55.899136, lon.=26.611452, Alt.=118.053772m. Speed=13.068000m/h.</desc>
<speed>3.630000</speed>
</trkpt>
<trkpt lat="55.899136" lon="26.611393">
<ele>117.567444</ele>
<time>2010-06-20T13:54:12Z</time>
<desc>lat.=55.899136, lon.=26.611393, Alt.=117.567444m. Speed=13.680000m/h.</desc>
<speed>3.800000</speed>
</trkpt>
<trkpt lat="55.899143" lon="26.611330">
<ele>116.901428</ele>
<time>2010-06-20T13:54:13Z</time>
<desc>lat.=55.899143, lon.=26.611330, Alt.=116.901428m. Speed=14.796000m/h.</desc>
<speed>4.110000</speed>
</trkpt>
<trkpt lat="55.899151" lon="26.611261">
<ele>116.747131</ele>
<time>2010-06-20T13:54:14Z</time>
<desc>lat.=55.899151, lon.=26.611261, Alt.=116.747131m. Speed=15.048000m/h.</desc>
<speed>4.180000</speed>
</trkpt>
<trkpt lat="55.899158" lon="26.611197">
<ele>116.211975</ele>
<time>2010-06-20T13:54:15Z</time>
<desc>lat.=55.899158, lon.=26.611197, Alt.=116.211975m. Speed=15.624000m/h.</desc>
<speed>4.340000</speed>
</trkpt>
<trkpt lat="55.899170" lon="26.611139">
<ele>115.676819</ele>
<time>2010-06-20T13:54:16Z</time>
<desc>lat.=55.899170, lon.=26.611139, Alt.=115.676819m. Speed=15.084000m/h.</desc>
<speed>4.190000</speed>
</trkpt>
<trkpt lat="55.899181" lon="26.611082">
<ele>115.252991</ele>
<time>2010-06-20T13:54:17Z</time>
<desc>lat.=55.899181, lon.=26.611082, Alt.=115.252991m. Speed=13.284000m/h.</desc>
<speed>3.690000</speed>
</trkpt>
<trkpt lat="55.899197" lon="26.611036">
<ele>114.893616</ele>
<time>2010-06-20T13:54:18Z</time>
<desc>lat.=55.899197, lon.=26.611036, Alt.=114.893616m. Speed=10.836000m/h.</desc>
<speed>3.010000</speed>
</trkpt>
<trkpt lat="55.899208" lon="26.610996">
<ele>114.567444</ele>
<time>2010-06-20T13:54:19Z</time>
<desc>lat.=55.899208, lon.=26.610996, Alt.=114.567444m. Speed=9.216000m/h.</desc>
<speed>2.560000</speed>
</trkpt>
<trkpt lat="55.899220" lon="26.610964">
<ele>114.403381</ele>
<time>2010-06-20T13:54:20Z</time>
<desc>lat.=55.899220, lon.=26.610964, Alt.=114.403381m. Speed=8.100000m/h.</desc>
<speed>2.250000</speed>
</trkpt>
<trkpt lat="55.899227" lon="26.610933">
<ele>114.114319</ele>
<time>2010-06-20T13:54:21Z</time>
<desc>lat.=55.899227, lon.=26.610933, Alt.=114.114319m. Speed=6.372000m/h.</desc>
<speed>1.770000</speed>
</trkpt>
<trkpt lat="55.899231" lon="26.610909">
<ele>113.983459</ele>
<time>2010-06-20T13:54:22Z</time>
<desc>lat.=55.899231, lon.=26.610909, Alt.=113.983459m. Speed=4.104000m/h.</desc>
<speed>1.140000</speed>
</trkpt>
<trkpt lat="55.899231" lon="26.610888">
<ele>113.731506</ele>
<time>2010-06-20T13:54:23Z</time>
<desc>lat.=55.899231, lon.=26.610888, Alt.=113.731506m. Speed=2.916000m/h.</desc>
<speed>0.810000</speed>
</trkpt>
<trkpt lat="55.899235" lon="26.610870">
<ele>113.426819</ele>
<time>2010-06-20T13:54:24Z</time>
<desc>lat.=55.899235, lon.=26.610870, Alt.=113.426819m. Speed=2.700000m/h.</desc>
<speed>0.750000</speed>
</trkpt>
<trkpt lat="55.899239" lon="26.610853">
<ele>113.325256</ele>
<time>2010-06-20T13:54:25Z</time>
<desc>lat.=55.899239, lon.=26.610853, Alt.=113.325256m. Speed=4.248000m/h.</desc>
<speed>1.180000</speed>
</trkpt>
<trkpt lat="55.899242" lon="26.610836">
<ele>113.190491</ele>
<time>2010-06-20T13:54:26Z</time>
<desc>lat.=55.899242, lon.=26.610836, Alt.=113.190491m. Speed=4.716000m/h.</desc>
<speed>1.310000</speed>
</trkpt>
<trkpt lat="55.899246" lon="26.610815">
<ele>113.317444</ele>
<time>2010-06-20T13:54:27Z</time>
<desc>lat.=55.899246, lon.=26.610815, Alt.=113.317444m. Speed=5.580000m/h.</desc>
<speed>1.550000</speed>
</trkpt>
<trkpt lat="55.899254" lon="26.610800">
<ele>113.184631</ele>
<time>2010-06-20T13:54:28Z</time>
<desc>lat.=55.899254, lon.=26.610800, Alt.=113.184631m. Speed=4.068000m/h.</desc>
<speed>1.130000</speed>
</trkpt>
<trkpt lat="55.899258" lon="26.610788">
<ele>113.092834</ele>
<time>2010-06-20T13:54:29Z</time>
<desc>lat.=55.899258, lon.=26.610788, Alt.=113.092834m. Speed=3.276000m/h.</desc>
<speed>0.910000</speed>
</trkpt>
<trkpt lat="55.899261" lon="26.610779">
<ele>112.922913</ele>
<time>2010-06-20T13:54:30Z</time>
<desc>lat.=55.899261, lon.=26.610779, Alt.=112.922913m. Speed=3.420000m/h.</desc>
<speed>0.950000</speed>
</trkpt>
<trkpt lat="55.899261" lon="26.610767">
<ele>112.551819</ele>
<time>2010-06-20T13:54:31Z</time>
<desc>lat.=55.899261, lon.=26.610767, Alt.=112.551819m. Speed=3.060000m/h.</desc>
<speed>0.850000</speed>
</trkpt>
<trkpt lat="55.899265" lon="26.610756">
<ele>112.434631</ele>
<time>2010-06-20T13:54:32Z</time>
<desc>lat.=55.899265, lon.=26.610756, Alt.=112.434631m. Speed=2.268000m/h.</desc>
<speed>0.630000</speed>
</trkpt>
<trkpt lat="55.899269" lon="26.610746">
<ele>112.252991</ele>
<time>2010-06-20T13:54:33Z</time>
<desc>lat.=55.899269, lon.=26.610746, Alt.=112.252991m. Speed=1.872000m/h.</desc>
<speed>0.520000</speed>
</trkpt>
<trkpt lat="55.899269" lon="26.610741">
<ele>112.100647</ele>
<time>2010-06-20T13:54:34Z</time>
<desc>lat.=55.899269, lon.=26.610741, Alt.=112.100647m. Speed=2.124000m/h.</desc>
<speed>0.590000</speed>
</trkpt>
<trkpt lat="55.899269" lon="26.610731">
<ele>112.075256</ele>
<time>2010-06-20T13:54:35Z</time>
<desc>lat.=55.899269, lon.=26.610731, Alt.=112.075256m. Speed=3.060000m/h.</desc>
<speed>0.850000</speed>
</trkpt>
<trkpt lat="55.899269" lon="26.610716">
<ele>112.014709</ele>
<time>2010-06-20T13:54:36Z</time>
<desc>lat.=55.899269, lon.=26.610716, Alt.=112.014709m. Speed=6.912000m/h.</desc>
<speed>1.920000</speed>
</trkpt>
<trkpt lat="55.899269" lon="26.610676">
<ele>111.829163</ele>
<time>2010-06-20T13:54:37Z</time>
<desc>lat.=55.899269, lon.=26.610676, Alt.=111.829163m. Speed=9.468000m/h.</desc>
<speed>2.630000</speed>
</trkpt>
<trkpt lat="55.899265" lon="26.610626">
<ele>111.776428</ele>
<time>2010-06-20T13:54:38Z</time>
<desc>lat.=55.899265, lon.=26.610626, Alt.=111.776428m. Speed=11.268000m/h.</desc>
<speed>3.130000</speed>
</trkpt>
<trkpt lat="55.899246" lon="26.610577">
<ele>112.020569</ele>
<time>2010-06-20T13:54:39Z</time>
<desc>lat.=55.899246, lon.=26.610577, Alt.=112.020569m. Speed=13.104000m/h.</desc>
<speed>3.640000</speed>
</trkpt>
<trkpt lat="55.899223" lon="26.610533">
<ele>111.934631</ele>
<time>2010-06-20T13:54:40Z</time>
<desc>lat.=55.899223, lon.=26.610533, Alt.=111.934631m. Speed=14.076000m/h.</desc>
<speed>3.910000</speed>
</trkpt>
<trkpt lat="55.899197" lon="26.610491">
<ele>111.993225</ele>
<time>2010-06-20T13:54:41Z</time>
<desc>lat.=55.899197, lon.=26.610491, Alt.=111.993225m. Speed=14.688000m/h.</desc>
<speed>4.080000</speed>
</trkpt>
<trkpt lat="55.899162" lon="26.610460">
<ele>112.006897</ele>
<time>2010-06-20T13:54:42Z</time>
<desc>lat.=55.899162, lon.=26.610460, Alt.=112.006897m. Speed=15.660000m/h.</desc>
<speed>4.350000</speed>
</trkpt>
<trkpt lat="55.899124" lon="26.610435">
<ele>111.624084</ele>
<time>2010-06-20T13:54:43Z</time>
<desc>lat.=55.899124, lon.=26.610435, Alt.=111.624084m. Speed=16.056000m/h.</desc>
<speed>4.460000</speed>
</trkpt>
<trkpt lat="55.899086" lon="26.610395">
<ele>111.760803</ele>
<time>2010-06-20T13:54:44Z</time>
<desc>lat.=55.899086, lon.=26.610395, Alt.=111.760803m. Speed=17.459999m/h.</desc>
<speed>4.850000</speed>
</trkpt>
<trkpt lat="55.899044" lon="26.610353">
<ele>111.897522</ele>
<time>2010-06-20T13:54:45Z</time>
<desc>lat.=55.899044, lon.=26.610353, Alt.=111.897522m. Speed=18.576000m/h.</desc>
<speed>5.160000</speed>
</trkpt>
<trkpt lat="55.898998" lon="26.610304">
<ele>111.887756</ele>
<time>2010-06-20T13:54:46Z</time>
<desc>lat.=55.898998, lon.=26.610304, Alt.=111.887756m. Speed=19.584000m/h.</desc>
<speed>5.440000</speed>
</trkpt>
<trkpt lat="55.898952" lon="26.610264">
<ele>112.094788</ele>
<time>2010-06-20T13:54:47Z</time>
<desc>lat.=55.898952, lon.=26.610264, Alt.=112.094788m. Speed=20.448000m/h.</desc>
<speed>5.680000</speed>
</trkpt>
<trkpt lat="55.898907" lon="26.610228">
<ele>112.237366</ele>
<time>2010-06-20T13:54:48Z</time>
<desc>lat.=55.898907, lon.=26.610228, Alt.=112.237366m. Speed=20.195999m/h.</desc>
<speed>5.610000</speed>
</trkpt>
<trkpt lat="55.898857" lon="26.610193">
<ele>112.376038</ele>
<time>2010-06-20T13:54:49Z</time>
<desc>lat.=55.898857, lon.=26.610193, Alt.=112.376038m. Speed=21.384001m/h.</desc>
<speed>5.940000</speed>
</trkpt>
<trkpt lat="55.898811" lon="26.610153">
<ele>112.471741</ele>
<time>2010-06-20T13:54:50Z</time>
<desc>lat.=55.898811, lon.=26.610153, Alt.=112.471741m. Speed=21.563999m/h.</desc>
<speed>5.990000</speed>
</trkpt>
<trkpt lat="55.898762" lon="26.610107">
<ele>112.573303</ele>
<time>2010-06-20T13:54:51Z</time>
<desc>lat.=55.898762, lon.=26.610107, Alt.=112.573303m. Speed=22.139999m/h.</desc>
<speed>6.150000</speed>
</trkpt>
<trkpt lat="55.898712" lon="26.610058">
<ele>112.557678</ele>
<time>2010-06-20T13:54:52Z</time>
<desc>lat.=55.898712, lon.=26.610058, Alt.=112.557678m. Speed=23.004000m/h.</desc>
<speed>6.390000</speed>
</trkpt>
<trkpt lat="55.898659" lon="26.610008">
<ele>112.491272</ele>
<time>2010-06-20T13:54:53Z</time>
<desc>lat.=55.898659, lon.=26.610008, Alt.=112.491272m. Speed=23.760000m/h.</desc>
<speed>6.600000</speed>
</trkpt>
<trkpt lat="55.898605" lon="26.609961">
<ele>112.563538</ele>
<time>2010-06-20T13:54:54Z</time>
<desc>lat.=55.898605, lon.=26.609961, Alt.=112.563538m. Speed=24.372000m/h.</desc>
<speed>6.770000</speed>
</trkpt>
<trkpt lat="55.898552" lon="26.609905">
<ele>112.079163</ele>
<time>2010-06-20T13:54:55Z</time>
<desc>lat.=55.898552, lon.=26.609905, Alt.=112.079163m. Speed=25.308001m/h.</desc>
<speed>7.030000</speed>
</trkpt>
<trkpt lat="55.898491" lon="26.609854">
<ele>112.051819</ele>
<time>2010-06-20T13:54:56Z</time>
<desc>lat.=55.898491, lon.=26.609854, Alt.=112.051819m. Speed=26.136000m/h.</desc>
<speed>7.260000</speed>
</trkpt>
<trkpt lat="55.898430" lon="26.609806">
<ele>112.182678</ele>
<time>2010-06-20T13:54:57Z</time>
<desc>lat.=55.898430, lon.=26.609806, Alt.=112.182678m. Speed=26.820000m/h.</desc>
<speed>7.450000</speed>
</trkpt>
<trkpt lat="55.898373" lon="26.609758">
<ele>112.042053</ele>
<time>2010-06-20T13:54:58Z</time>
<desc>lat.=55.898373, lon.=26.609758, Alt.=112.042053m. Speed=26.532000m/h.</desc>
<speed>7.370000</speed>
</trkpt>
<trkpt lat="55.898312" lon="26.609707">
<ele>112.180725</ele>
<time>2010-06-20T13:54:59Z</time>
<desc>lat.=55.898312, lon.=26.609707, Alt.=112.180725m. Speed=26.100000m/h.</desc>
<speed>7.250000</speed>
</trkpt>
<trkpt lat="55.898258" lon="26.609650">
<ele>112.018616</ele>
<time>2010-06-20T13:55:00Z</time>
<desc>lat.=55.898258, lon.=26.609650, Alt.=112.018616m. Speed=26.028000m/h.</desc>
<speed>7.230000</speed>
</trkpt>
<trkpt lat="55.898201" lon="26.609592">
<ele>111.926819</ele>
<time>2010-06-20T13:55:01Z</time>
<desc>lat.=55.898201, lon.=26.609592, Alt.=111.926819m. Speed=25.992001m/h.</desc>
<speed>7.220000</speed>
</trkpt>
<trkpt lat="55.898144" lon="26.609537">
<ele>111.887756</ele>
<time>2010-06-20T13:55:02Z</time>
<desc>lat.=55.898144, lon.=26.609537, Alt.=111.887756m. Speed=26.172001m/h.</desc>
<speed>7.270000</speed>
</trkpt>
<trkpt lat="55.898087" lon="26.609489">
<ele>112.313538</ele>
<time>2010-06-20T13:55:03Z</time>
<desc>lat.=55.898087, lon.=26.609489, Alt.=112.313538m. Speed=26.424000m/h.</desc>
<speed>7.340000</speed>
</trkpt>
<trkpt lat="55.898026" lon="26.609438">
<ele>112.126038</ele>
<time>2010-06-20T13:55:04Z</time>
<desc>lat.=55.898026, lon.=26.609438, Alt.=112.126038m. Speed=27.323999m/h.</desc>
<speed>7.590000</speed>
</trkpt>
<trkpt lat="55.897968" lon="26.609383">
<ele>111.881897</ele>
<time>2010-06-20T13:55:05Z</time>
<desc>lat.=55.897968, lon.=26.609383, Alt.=111.881897m. Speed=27.719999m/h.</desc>
<speed>7.700000</speed>
</trkpt>
<trkpt lat="55.897903" lon="26.609327">
<ele>111.635803</ele>
<time>2010-06-20T13:55:06Z</time>
<desc>lat.=55.897903, lon.=26.609327, Alt.=111.635803m. Speed=28.152000m/h.</desc>
<speed>7.820000</speed>
</trkpt>
<trkpt lat="55.897839" lon="26.609270">
<ele>111.397522</ele>
<time>2010-06-20T13:55:07Z</time>
<desc>lat.=55.897839, lon.=26.609270, Alt.=111.397522m. Speed=29.016001m/h.</desc>
<speed>8.060000</speed>
</trkpt>
<trkpt lat="55.897774" lon="26.609217">
<ele>111.377991</ele>
<time>2010-06-20T13:55:08Z</time>
<desc>lat.=55.897774, lon.=26.609217, Alt.=111.377991m. Speed=29.052000m/h.</desc>
<speed>8.070000</speed>
</trkpt>
<trkpt lat="55.897709" lon="26.609163">
<ele>111.661194</ele>
<time>2010-06-20T13:55:09Z</time>
<desc>lat.=55.897709, lon.=26.609163, Alt.=111.661194m. Speed=29.448000m/h.</desc>
<speed>8.180000</speed>
</trkpt>
<trkpt lat="55.897640" lon="26.609104">
<ele>111.858459</ele>
<time>2010-06-20T13:55:10Z</time>
<desc>lat.=55.897640, lon.=26.609104, Alt.=111.858459m. Speed=29.304001m/h.</desc>
<speed>8.140000</speed>
</trkpt>
<trkpt lat="55.897575" lon="26.609043">
<ele>112.729553</ele>
<time>2010-06-20T13:55:11Z</time>
<desc>lat.=55.897575, lon.=26.609043, Alt.=112.729553m. Speed=30.096001m/h.</desc>
<speed>8.360000</speed>
</trkpt>
<trkpt lat="55.897507" lon="26.608986">
<ele>112.393616</ele>
<time>2010-06-20T13:55:12Z</time>
<desc>lat.=55.897507, lon.=26.608986, Alt.=112.393616m. Speed=29.520000m/h.</desc>
<speed>8.200000</speed>
</trkpt>
<trkpt lat="55.897442" lon="26.608934">
<ele>112.659241</ele>
<time>2010-06-20T13:55:13Z</time>
<desc>lat.=55.897442, lon.=26.608934, Alt.=112.659241m. Speed=29.556000m/h.</desc>
<speed>8.210000</speed>
</trkpt>
<trkpt lat="55.897373" lon="26.608877">
<ele>112.518616</ele>
<time>2010-06-20T13:55:14Z</time>
<desc>lat.=55.897373, lon.=26.608877, Alt.=112.518616m. Speed=29.664000m/h.</desc>
<speed>8.240000</speed>
</trkpt>
<trkpt lat="55.897308" lon="26.608818">
<ele>112.182678</ele>
<time>2010-06-20T13:55:15Z</time>
<desc>lat.=55.897308, lon.=26.608818, Alt.=112.182678m. Speed=29.483999m/h.</desc>
<speed>8.190000</speed>
</trkpt>
<trkpt lat="55.897240" lon="26.608759">
<ele>112.424866</ele>
<time>2010-06-20T13:55:16Z</time>
<desc>lat.=55.897240, lon.=26.608759, Alt.=112.424866m. Speed=29.124001m/h.</desc>
<speed>8.090000</speed>
</trkpt>
<trkpt lat="55.897175" lon="26.608706">
<ele>111.672913</ele>
<time>2010-06-20T13:55:17Z</time>
<desc>lat.=55.897175, lon.=26.608706, Alt.=111.672913m. Speed=28.944000m/h.</desc>
<speed>8.040000</speed>
</trkpt>
<trkpt lat="55.897110" lon="26.608646">
<ele>111.635803</ele>
<time>2010-06-20T13:55:18Z</time>
<desc>lat.=55.897110, lon.=26.608646, Alt.=111.635803m. Speed=29.160000m/h.</desc>
<speed>8.100000</speed>
</trkpt>
<trkpt lat="55.897041" lon="26.608587">
<ele>111.680725</ele>
<time>2010-06-20T13:55:19Z</time>
<desc>lat.=55.897041, lon.=26.608587, Alt.=111.680725m. Speed=28.872000m/h.</desc>
<speed>8.020000</speed>
</trkpt>
<trkpt lat="55.896973" lon="26.608524">
<ele>111.434631</ele>
<time>2010-06-20T13:55:20Z</time>
<desc>lat.=55.896973, lon.=26.608524, Alt.=111.434631m. Speed=28.908001m/h.</desc>
<speed>8.030000</speed>
</trkpt>
<trkpt lat="55.896912" lon="26.608463">
<ele>110.942444</ele>
<time>2010-06-20T13:55:21Z</time>
<desc>lat.=55.896912, lon.=26.608463, Alt.=110.942444m. Speed=28.836000m/h.</desc>
<speed>8.010000</speed>
</trkpt>
<trkpt lat="55.896843" lon="26.608402">
<ele>110.989319</ele>
<time>2010-06-20T13:55:22Z</time>
<desc>lat.=55.896843, lon.=26.608402, Alt.=110.989319m. Speed=28.908001m/h.</desc>
<speed>8.030000</speed>
</trkpt>
<trkpt lat="55.896774" lon="26.608349">
<ele>110.885803</ele>
<time>2010-06-20T13:55:23Z</time>
<desc>lat.=55.896774, lon.=26.608349, Alt.=110.885803m. Speed=29.591999m/h.</desc>
<speed>8.220000</speed>
</trkpt>
<trkpt lat="55.896709" lon="26.608295">
<ele>110.864319</ele>
<time>2010-06-20T13:55:24Z</time>
<desc>lat.=55.896709, lon.=26.608295, Alt.=110.864319m. Speed=28.728001m/h.</desc>
<speed>7.980000</speed>
</trkpt>
<trkpt lat="55.896645" lon="26.608234">
<ele>111.040100</ele>
<time>2010-06-20T13:55:25Z</time>
<desc>lat.=55.896645, lon.=26.608234, Alt.=111.040100m. Speed=27.827999m/h.</desc>
<speed>7.730000</speed>
</trkpt>
<trkpt lat="55.896584" lon="26.608173">
<ele>110.663147</ele>
<time>2010-06-20T13:55:26Z</time>
<desc>lat.=55.896584, lon.=26.608173, Alt.=110.663147m. Speed=27.035999m/h.</desc>
<speed>7.510000</speed>
</trkpt>
<trkpt lat="55.896519" lon="26.608120">
<ele>110.463928</ele>
<time>2010-06-20T13:55:27Z</time>
<desc>lat.=55.896519, lon.=26.608120, Alt.=110.463928m. Speed=26.856001m/h.</desc>
<speed>7.460000</speed>
</trkpt>
<trkpt lat="55.896458" lon="26.608065">
<ele>110.385803</ele>
<time>2010-06-20T13:55:28Z</time>
<desc>lat.=55.896458, lon.=26.608065, Alt.=110.385803m. Speed=27.827999m/h.</desc>
<speed>7.730000</speed>
</trkpt>
<trkpt lat="55.896397" lon="26.608019">
<ele>110.481506</ele>
<time>2010-06-20T13:55:29Z</time>
<desc>lat.=55.896397, lon.=26.608019, Alt.=110.481506m. Speed=26.028000m/h.</desc>
<speed>7.230000</speed>
</trkpt>
<trkpt lat="55.896336" lon="26.607981">
<ele>110.430725</ele>
<time>2010-06-20T13:55:30Z</time>
<desc>lat.=55.896336, lon.=26.607981, Alt.=110.430725m. Speed=24.120001m/h.</desc>
<speed>6.700000</speed>
</trkpt>
<trkpt lat="55.896278" lon="26.607937">
<ele>110.360413</ele>
<time>2010-06-20T13:55:31Z</time>
<desc>lat.=55.896278, lon.=26.607937, Alt.=110.360413m. Speed=24.875999m/h.</desc>
<speed>6.910000</speed>
</trkpt>
<trkpt lat="55.896221" lon="26.607878">
<ele>110.422913</ele>
<time>2010-06-20T13:55:32Z</time>
<desc>lat.=55.896221, lon.=26.607878, Alt.=110.422913m. Speed=24.983999m/h.</desc>
<speed>6.940000</speed>
</trkpt>
<trkpt lat="55.896168" lon="26.607828">
<ele>110.176819</ele>
<time>2010-06-20T13:55:33Z</time>
<desc>lat.=55.896168, lon.=26.607828, Alt.=110.176819m. Speed=24.228001m/h.</desc>
<speed>6.730000</speed>
</trkpt>
<trkpt lat="55.896111" lon="26.607784">
<ele>110.104553</ele>
<time>2010-06-20T13:55:34Z</time>
<desc>lat.=55.896111, lon.=26.607784, Alt.=110.104553m. Speed=24.299999m/h.</desc>
<speed>6.750000</speed>
</trkpt>
<trkpt lat="55.896057" lon="26.607742">
<ele>109.920959</ele>
<time>2010-06-20T13:55:35Z</time>
<desc>lat.=55.896057, lon.=26.607742, Alt.=109.920959m. Speed=23.652000m/h.</desc>
<speed>6.570000</speed>
</trkpt>
<trkpt lat="55.896000" lon="26.607695">
<ele>110.030334</ele>
<time>2010-06-20T13:55:36Z</time>
<desc>lat.=55.896000, lon.=26.607695, Alt.=110.030334m. Speed=23.507999m/h.</desc>
<speed>6.530000</speed>
</trkpt>
<trkpt lat="55.895950" lon="26.607647">
<ele>110.698303</ele>
<time>2010-06-20T13:55:37Z</time>
<desc>lat.=55.895950, lon.=26.607647, Alt.=110.698303m. Speed=22.896000m/h.</desc>
<speed>6.360000</speed>
</trkpt>
<trkpt lat="55.895901" lon="26.607601">
<ele>110.667053</ele>
<time>2010-06-20T13:55:38Z</time>
<desc>lat.=55.895901, lon.=26.607601, Alt.=110.667053m. Speed=22.068001m/h.</desc>
<speed>6.130000</speed>
</trkpt>
<trkpt lat="55.895851" lon="26.607557">
<ele>110.938538</ele>
<time>2010-06-20T13:55:39Z</time>
<desc>lat.=55.895851, lon.=26.607557, Alt.=110.938538m. Speed=19.620001m/h.</desc>
<speed>5.450000</speed>
</trkpt>
<trkpt lat="55.895805" lon="26.607513">
<ele>111.202209</ele>
<time>2010-06-20T13:55:40Z</time>
<desc>lat.=55.895805, lon.=26.607513, Alt.=111.202209m. Speed=22.356001m/h.</desc>
<speed>6.210000</speed>
</trkpt>
<trkpt lat="55.895756" lon="26.607464">
<ele>111.391663</ele>
<time>2010-06-20T13:55:41Z</time>
<desc>lat.=55.895756, lon.=26.607464, Alt.=111.391663m. Speed=21.924000m/h.</desc>
<speed>6.090000</speed>
</trkpt>
<trkpt lat="55.895721" lon="26.607403">
<ele>110.938538</ele>
<time>2010-06-20T13:55:42Z</time>
<desc>lat.=55.895721, lon.=26.607403, Alt.=110.938538m. Speed=22.427999m/h.</desc>
<speed>6.230000</speed>
</trkpt>
<trkpt lat="55.895679" lon="26.607338">
<ele>111.047913</ele>
<time>2010-06-20T13:55:43Z</time>
<desc>lat.=55.895679, lon.=26.607338, Alt.=111.047913m. Speed=22.716000m/h.</desc>
<speed>6.310000</speed>
</trkpt>
<trkpt lat="55.895645" lon="26.607260">
<ele>110.856506</ele>
<time>2010-06-20T13:55:44Z</time>
<desc>lat.=55.895645, lon.=26.607260, Alt.=110.856506m. Speed=23.112000m/h.</desc>
<speed>6.420000</speed>
</trkpt>
<trkpt lat="55.895607" lon="26.607187">
<ele>110.202209</ele>
<time>2010-06-20T13:55:45Z</time>
<desc>lat.=55.895607, lon.=26.607187, Alt.=110.202209m. Speed=23.076000m/h.</desc>
<speed>6.410000</speed>
</trkpt>
<trkpt lat="55.895565" lon="26.607119">
<ele>110.131897</ele>
<time>2010-06-20T13:55:46Z</time>
<desc>lat.=55.895565, lon.=26.607119, Alt.=110.131897m. Speed=23.184000m/h.</desc>
<speed>6.440000</speed>
</trkpt>
<trkpt lat="55.895523" lon="26.607044">
<ele>109.899475</ele>
<time>2010-06-20T13:55:47Z</time>
<desc>lat.=55.895523, lon.=26.607044, Alt.=109.899475m. Speed=23.219999m/h.</desc>
<speed>6.450000</speed>
</trkpt>
<trkpt lat="55.895485" lon="26.606968">
<ele>109.694397</ele>
<time>2010-06-20T13:55:48Z</time>
<desc>lat.=55.895485, lon.=26.606968, Alt.=109.694397m. Speed=23.040001m/h.</desc>
<speed>6.400000</speed>
</trkpt>
<trkpt lat="55.895443" lon="26.606894">
<ele>109.524475</ele>
<time>2010-06-20T13:55:49Z</time>
<desc>lat.=55.895443, lon.=26.606894, Alt.=109.524475m. Speed=22.931999m/h.</desc>
<speed>6.370000</speed>
</trkpt>
<trkpt lat="55.895405" lon="26.606817">
<ele>109.467834</ele>
<time>2010-06-20T13:55:50Z</time>
<desc>lat.=55.895405, lon.=26.606817, Alt.=109.467834m. Speed=22.968000m/h.</desc>
<speed>6.380000</speed>
</trkpt>
<trkpt lat="55.895370" lon="26.606733">
<ele>109.239319</ele>
<time>2010-06-20T13:55:51Z</time>
<desc>lat.=55.895370, lon.=26.606733, Alt.=109.239319m. Speed=22.032000m/h.</desc>
<speed>6.120000</speed>
</trkpt>
<trkpt lat="55.895340" lon="26.606644">
<ele>108.792053</ele>
<time>2010-06-20T13:55:52Z</time>
<desc>lat.=55.895340, lon.=26.606644, Alt.=108.792053m. Speed=23.076000m/h.</desc>
<speed>6.410000</speed>
</trkpt>
<trkpt lat="55.895309" lon="26.606554">
<ele>108.600647</ele>
<time>2010-06-20T13:55:53Z</time>
<desc>lat.=55.895309, lon.=26.606554, Alt.=108.600647m. Speed=23.184000m/h.</desc>
<speed>6.440000</speed>
</trkpt>
<trkpt lat="55.895279" lon="26.606462">
<ele>108.663147</ele>
<time>2010-06-20T13:55:54Z</time>
<desc>lat.=55.895279, lon.=26.606462, Alt.=108.663147m. Speed=22.823999m/h.</desc>
<speed>6.340000</speed>
</trkpt>
<trkpt lat="55.895252" lon="26.606365">
<ele>109.047913</ele>
<time>2010-06-20T13:55:55Z</time>
<desc>lat.=55.895252, lon.=26.606365, Alt.=109.047913m. Speed=23.292000m/h.</desc>
<speed>6.470000</speed>
</trkpt>
<trkpt lat="55.895226" lon="26.606270">
<ele>109.278381</ele>
<time>2010-06-20T13:55:56Z</time>
<desc>lat.=55.895226, lon.=26.606270, Alt.=109.278381m. Speed=22.860001m/h.</desc>
<speed>6.350000</speed>
</trkpt>
<trkpt lat="55.895203" lon="26.606174">
<ele>109.198303</ele>
<time>2010-06-20T13:55:57Z</time>
<desc>lat.=55.895203, lon.=26.606174, Alt.=109.198303m. Speed=21.816000m/h.</desc>
<speed>6.060000</speed>
</trkpt>
<trkpt lat="55.895176" lon="26.606081">
<ele>108.825256</ele>
<time>2010-06-20T13:55:58Z</time>
<desc>lat.=55.895176, lon.=26.606081, Alt.=108.825256m. Speed=23.652000m/h.</desc>
<speed>6.570000</speed>
</trkpt>
<trkpt lat="55.895149" lon="26.605984">
<ele>108.721741</ele>
<time>2010-06-20T13:55:59Z</time>
<desc>lat.=55.895149, lon.=26.605984, Alt.=108.721741m. Speed=23.544001m/h.</desc>
<speed>6.540000</speed>
</trkpt>
<trkpt lat="55.895123" lon="26.605888">
<ele>108.821350</ele>
<time>2010-06-20T13:56:00Z</time>
<desc>lat.=55.895123, lon.=26.605888, Alt.=108.821350m. Speed=23.364000m/h.</desc>
<speed>6.490000</speed>
</trkpt>
<trkpt lat="55.895100" lon="26.605793">
<ele>108.854553</ele>
<time>2010-06-20T13:56:01Z</time>
<desc>lat.=55.895100, lon.=26.605793, Alt.=108.854553m. Speed=23.219999m/h.</desc>
<speed>6.450000</speed>
</trkpt>
<trkpt lat="55.895069" lon="26.605698">
<ele>108.874084</ele>
<time>2010-06-20T13:56:02Z</time>
<desc>lat.=55.895069, lon.=26.605698, Alt.=108.874084m. Speed=22.427999m/h.</desc>
<speed>6.230000</speed>
</trkpt>
<trkpt lat="55.895046" lon="26.605610">
<ele>108.483459</ele>
<time>2010-06-20T13:56:03Z</time>
<desc>lat.=55.895046, lon.=26.605610, Alt.=108.483459m. Speed=21.851999m/h.</desc>
<speed>6.070000</speed>
</trkpt>
<trkpt lat="55.895023" lon="26.605524">
<ele>108.721741</ele>
<time>2010-06-20T13:56:04Z</time>
<desc>lat.=55.895023, lon.=26.605524, Alt.=108.721741m. Speed=21.059999m/h.</desc>
<speed>5.850000</speed>
</trkpt>
<trkpt lat="55.895000" lon="26.605440">
<ele>108.833069</ele>
<time>2010-06-20T13:56:05Z</time>
<desc>lat.=55.895000, lon.=26.605440, Alt.=108.833069m. Speed=20.195999m/h.</desc>
<speed>5.610000</speed>
</trkpt>
<trkpt lat="55.894981" lon="26.605360">
<ele>108.827209</ele>
<time>2010-06-20T13:56:06Z</time>
<desc>lat.=55.894981, lon.=26.605360, Alt.=108.827209m. Speed=19.152000m/h.</desc>
<speed>5.320000</speed>
</trkpt>
<trkpt lat="55.894966" lon="26.605282">
<ele>108.723694</ele>
<time>2010-06-20T13:56:07Z</time>
<desc>lat.=55.894966, lon.=26.605282, Alt.=108.723694m. Speed=18.072001m/h.</desc>
<speed>5.020000</speed>
</trkpt>
<trkpt lat="55.894951" lon="26.605204">
<ele>109.081116</ele>
<time>2010-06-20T13:56:08Z</time>
<desc>lat.=55.894951, lon.=26.605204, Alt.=109.081116m. Speed=17.639999m/h.</desc>
<speed>4.900000</speed>
</trkpt>
<trkpt lat="55.894932" lon="26.605129">
<ele>109.049866</ele>
<time>2010-06-20T13:56:09Z</time>
<desc>lat.=55.894932, lon.=26.605129, Alt.=109.049866m. Speed=17.496000m/h.</desc>
<speed>4.860000</speed>
</trkpt>
<trkpt lat="55.894917" lon="26.605053">
<ele>109.206116</ele>
<time>2010-06-20T13:56:10Z</time>
<desc>lat.=55.894917, lon.=26.605053, Alt.=109.206116m. Speed=17.316000m/h.</desc>
<speed>4.810000</speed>
</trkpt>
<trkpt lat="55.894901" lon="26.604975">
<ele>109.422913</ele>
<time>2010-06-20T13:56:11Z</time>
<desc>lat.=55.894901, lon.=26.604975, Alt.=109.422913m. Speed=16.488001m/h.</desc>
<speed>4.580000</speed>
</trkpt>
<trkpt lat="55.894886" lon="26.604908">
<ele>109.170959</ele>
<time>2010-06-20T13:56:12Z</time>
<desc>lat.=55.894886, lon.=26.604908, Alt.=109.170959m. Speed=17.784000m/h.</desc>
<speed>4.940000</speed>
</trkpt>
<trkpt lat="55.894863" lon="26.604836">
<ele>109.083069</ele>
<time>2010-06-20T13:56:13Z</time>
<desc>lat.=55.894863, lon.=26.604836, Alt.=109.083069m. Speed=17.856001m/h.</desc>
<speed>4.960000</speed>
</trkpt>
<trkpt lat="55.894844" lon="26.604773">
<ele>108.284241</ele>
<time>2010-06-20T13:56:14Z</time>
<desc>lat.=55.894844, lon.=26.604773, Alt.=108.284241m. Speed=17.856001m/h.</desc>
<speed>4.960000</speed>
</trkpt>
<trkpt lat="55.894821" lon="26.604700">
<ele>108.272522</ele>
<time>2010-06-20T13:56:15Z</time>
<desc>lat.=55.894821, lon.=26.604700, Alt.=108.272522m. Speed=18.216000m/h.</desc>
<speed>5.060000</speed>
</trkpt>
<trkpt lat="55.894802" lon="26.604624">
<ele>108.288147</ele>
<time>2010-06-20T13:56:16Z</time>
<desc>lat.=55.894802, lon.=26.604624, Alt.=108.288147m. Speed=18.719999m/h.</desc>
<speed>5.200000</speed>
</trkpt>
<trkpt lat="55.894783" lon="26.604542">
<ele>108.571350</ele>
<time>2010-06-20T13:56:17Z</time>
<desc>lat.=55.894783, lon.=26.604542, Alt.=108.571350m. Speed=18.612000m/h.</desc>
<speed>5.170000</speed>
</trkpt>
<trkpt lat="55.894760" lon="26.604456">
<ele>109.331116</ele>
<time>2010-06-20T13:56:18Z</time>
<desc>lat.=55.894760, lon.=26.604456, Alt.=109.331116m. Speed=19.260000m/h.</desc>
<speed>5.350000</speed>
</trkpt>
<trkpt lat="55.894741" lon="26.604376">
<ele>109.225647</ele>
<time>2010-06-20T13:56:19Z</time>
<desc>lat.=55.894741, lon.=26.604376, Alt.=109.225647m. Speed=19.908001m/h.</desc>
<speed>5.530000</speed>
</trkpt>
<trkpt lat="55.894718" lon="26.604290">
<ele>109.147522</ele>
<time>2010-06-20T13:56:20Z</time>
<desc>lat.=55.894718, lon.=26.604290, Alt.=109.147522m. Speed=20.483999m/h.</desc>
<speed>5.690000</speed>
</trkpt>
<trkpt lat="55.894695" lon="26.604210">
<ele>109.061584</ele>
<time>2010-06-20T13:56:21Z</time>
<desc>lat.=55.894695, lon.=26.604210, Alt.=109.061584m. Speed=19.476000m/h.</desc>
<speed>5.410000</speed>
</trkpt>
<trkpt lat="55.894676" lon="26.604132">
<ele>108.891663</ele>
<time>2010-06-20T13:56:22Z</time>
<desc>lat.=55.894676, lon.=26.604132, Alt.=108.891663m. Speed=19.691999m/h.</desc>
<speed>5.470000</speed>
</trkpt>
<trkpt lat="55.894653" lon="26.604050">
<ele>109.081116</ele>
<time>2010-06-20T13:56:23Z</time>
<desc>lat.=55.894653, lon.=26.604050, Alt.=109.081116m. Speed=19.872000m/h.</desc>
<speed>5.520000</speed>
</trkpt>
<trkpt lat="55.894630" lon="26.603970">
<ele>109.079163</ele>
<time>2010-06-20T13:56:24Z</time>
<desc>lat.=55.894630, lon.=26.603970, Alt.=109.079163m. Speed=19.440001m/h.</desc>
<speed>5.400000</speed>
</trkpt>
<trkpt lat="55.894608" lon="26.603899">
<ele>109.319397</ele>
<time>2010-06-20T13:56:25Z</time>
<desc>lat.=55.894608, lon.=26.603899, Alt.=109.319397m. Speed=19.908001m/h.</desc>
<speed>5.530000</speed>
</trkpt>
<trkpt lat="55.894585" lon="26.603815">
<ele>109.370178</ele>
<time>2010-06-20T13:56:26Z</time>
<desc>lat.=55.894585, lon.=26.603815, Alt.=109.370178m. Speed=19.944000m/h.</desc>
<speed>5.540000</speed>
</trkpt>
<trkpt lat="55.894562" lon="26.603737">
<ele>109.780334</ele>
<time>2010-06-20T13:56:27Z</time>
<desc>lat.=55.894562, lon.=26.603737, Alt.=109.780334m. Speed=18.936001m/h.</desc>
<speed>5.260000</speed>
</trkpt>
<trkpt lat="55.894539" lon="26.603657">
<ele>110.596741</ele>
<time>2010-06-20T13:56:28Z</time>
<desc>lat.=55.894539, lon.=26.603657, Alt.=110.596741m. Speed=18.648001m/h.</desc>
<speed>5.180000</speed>
</trkpt>
<trkpt lat="55.894520" lon="26.603579">
<ele>110.766663</ele>
<time>2010-06-20T13:56:29Z</time>
<desc>lat.=55.894520, lon.=26.603579, Alt.=110.766663m. Speed=20.195999m/h.</desc>
<speed>5.610000</speed>
</trkpt>
<trkpt lat="55.894501" lon="26.603497">
<ele>110.819397</ele>
<time>2010-06-20T13:56:30Z</time>
<desc>lat.=55.894501, lon.=26.603497, Alt.=110.819397m. Speed=20.087999m/h.</desc>
<speed>5.580000</speed>
</trkpt>
<trkpt lat="55.894482" lon="26.603416">
<ele>110.721741</ele>
<time>2010-06-20T13:56:31Z</time>
<desc>lat.=55.894482, lon.=26.603416, Alt.=110.721741m. Speed=20.304001m/h.</desc>
<speed>5.640000</speed>
</trkpt>
<trkpt lat="55.894455" lon="26.603325">
<ele>111.616272</ele>
<time>2010-06-20T13:56:32Z</time>
<desc>lat.=55.894455, lon.=26.603325, Alt.=111.616272m. Speed=20.771999m/h.</desc>
<speed>5.770000</speed>
</trkpt>
<trkpt lat="55.894436" lon="26.603239">
<ele>111.588928</ele>
<time>2010-06-20T13:56:33Z</time>
<desc>lat.=55.894436, lon.=26.603239, Alt.=111.588928m. Speed=20.952000m/h.</desc>
<speed>5.820000</speed>
</trkpt>
<trkpt lat="55.894413" lon="26.603151">
<ele>112.065491</ele>
<time>2010-06-20T13:56:34Z</time>
<desc>lat.=55.894413, lon.=26.603151, Alt.=112.065491m. Speed=21.096001m/h.</desc>
<speed>5.860000</speed>
</trkpt>
<trkpt lat="55.894390" lon="26.603064">
<ele>112.485413</ele>
<time>2010-06-20T13:56:35Z</time>
<desc>lat.=55.894390, lon.=26.603064, Alt.=112.485413m. Speed=21.240000m/h.</desc>
<speed>5.900000</speed>
</trkpt>
<trkpt lat="55.894367" lon="26.602976">
<ele>112.993225</ele>
<time>2010-06-20T13:56:36Z</time>
<desc>lat.=55.894367, lon.=26.602976, Alt.=112.993225m. Speed=21.455999m/h.</desc>
<speed>5.960000</speed>
</trkpt>
<trkpt lat="55.894344" lon="26.602888">
<ele>113.317444</ele>
<time>2010-06-20T13:56:37Z</time>
<desc>lat.=55.894344, lon.=26.602888, Alt.=113.317444m. Speed=22.032000m/h.</desc>
<speed>6.120000</speed>
</trkpt>
<trkpt lat="55.894325" lon="26.602798">
<ele>113.028381</ele>
<time>2010-06-20T13:56:38Z</time>
<desc>lat.=55.894325, lon.=26.602798, Alt.=113.028381m. Speed=21.780001m/h.</desc>
<speed>6.050000</speed>
</trkpt>
<trkpt lat="55.894302" lon="26.602713">
<ele>112.856506</ele>
<time>2010-06-20T13:56:39Z</time>
<desc>lat.=55.894302, lon.=26.602713, Alt.=112.856506m. Speed=22.572001m/h.</desc>
<speed>6.270000</speed>
</trkpt>
<trkpt lat="55.894276" lon="26.602619">
<ele>112.741272</ele>
<time>2010-06-20T13:56:40Z</time>
<desc>lat.=55.894276, lon.=26.602619, Alt.=112.741272m. Speed=23.327999m/h.</desc>
<speed>6.480000</speed>
</trkpt>
<trkpt lat="55.894249" lon="26.602526">
<ele>112.754944</ele>
<time>2010-06-20T13:56:41Z</time>
<desc>lat.=55.894249, lon.=26.602526, Alt.=112.754944m. Speed=23.364000m/h.</desc>
<speed>6.490000</speed>
</trkpt>
<trkpt lat="55.894222" lon="26.602430">
<ele>112.917053</ele>
<time>2010-06-20T13:56:42Z</time>
<desc>lat.=55.894222, lon.=26.602430, Alt.=112.917053m. Speed=22.680000m/h.</desc>
<speed>6.300000</speed>
</trkpt>
<trkpt lat="55.894199" lon="26.602337">
<ele>112.995178</ele>
<time>2010-06-20T13:56:43Z</time>
<desc>lat.=55.894199, lon.=26.602337, Alt.=112.995178m. Speed=23.688000m/h.</desc>
<speed>6.580000</speed>
</trkpt>
<trkpt lat="55.894176" lon="26.602243">
<ele>112.920959</ele>
<time>2010-06-20T13:56:44Z</time>
<desc>lat.=55.894176, lon.=26.602243, Alt.=112.920959m. Speed=23.507999m/h.</desc>
<speed>6.530000</speed>
</trkpt>
<trkpt lat="55.894154" lon="26.602148">
<ele>113.102600</ele>
<time>2010-06-20T13:56:45Z</time>
<desc>lat.=55.894154, lon.=26.602148, Alt.=113.102600m. Speed=23.292000m/h.</desc>
<speed>6.470000</speed>
</trkpt>
<trkpt lat="55.894127" lon="26.602057">
<ele>113.452209</ele>
<time>2010-06-20T13:56:46Z</time>
<desc>lat.=55.894127, lon.=26.602057, Alt.=113.452209m. Speed=22.356001m/h.</desc>
<speed>6.210000</speed>
</trkpt>
<trkpt lat="55.894104" lon="26.601961">
<ele>113.413147</ele>
<time>2010-06-20T13:56:47Z</time>
<desc>lat.=55.894104, lon.=26.601961, Alt.=113.413147m. Speed=24.408001m/h.</desc>
<speed>6.780000</speed>
</trkpt>
<trkpt lat="55.894077" lon="26.601866">
<ele>112.952209</ele>
<time>2010-06-20T13:56:48Z</time>
<desc>lat.=55.894077, lon.=26.601866, Alt.=112.952209m. Speed=23.112000m/h.</desc>
<speed>6.420000</speed>
</trkpt>
<trkpt lat="55.894054" lon="26.601774">
<ele>112.991272</ele>
<time>2010-06-20T13:56:49Z</time>
<desc>lat.=55.894054, lon.=26.601774, Alt.=112.991272m. Speed=22.500000m/h.</desc>
<speed>6.250000</speed>
</trkpt>
<trkpt lat="55.894032" lon="26.601677">
<ele>113.475647</ele>
<time>2010-06-20T13:56:50Z</time>
<desc>lat.=55.894032, lon.=26.601677, Alt.=113.475647m. Speed=23.976000m/h.</desc>
<speed>6.660000</speed>
</trkpt>
<trkpt lat="55.894005" lon="26.601576">
<ele>113.647522</ele>
<time>2010-06-20T13:56:51Z</time>
<desc>lat.=55.894005, lon.=26.601576, Alt.=113.647522m. Speed=24.552000m/h.</desc>
<speed>6.820000</speed>
</trkpt>
<trkpt lat="55.893978" lon="26.601469">
<ele>113.762756</ele>
<time>2010-06-20T13:56:52Z</time>
<desc>lat.=55.893978, lon.=26.601469, Alt.=113.762756m. Speed=24.768000m/h.</desc>
<speed>6.880000</speed>
</trkpt>
<trkpt lat="55.893948" lon="26.601353">
<ele>114.715881</ele>
<time>2010-06-20T13:56:53Z</time>
<desc>lat.=55.893948, lon.=26.601353, Alt.=114.715881m. Speed=24.084000m/h.</desc>
<speed>6.690000</speed>
</trkpt>
<trkpt lat="55.893925" lon="26.601252">
<ele>115.147522</ele>
<time>2010-06-20T13:56:54Z</time>
<desc>lat.=55.893925, lon.=26.601252, Alt.=115.147522m. Speed=23.004000m/h.</desc>
<speed>6.390000</speed>
</trkpt>
<trkpt lat="55.893902" lon="26.601151">
<ele>115.502991</ele>
<time>2010-06-20T13:56:55Z</time>
<desc>lat.=55.893902, lon.=26.601151, Alt.=115.502991m. Speed=24.480000m/h.</desc>
<speed>6.800000</speed>
</trkpt>
<trkpt lat="55.893875" lon="26.601048">
<ele>115.917053</ele>
<time>2010-06-20T13:56:56Z</time>
<desc>lat.=55.893875, lon.=26.601048, Alt.=115.917053m. Speed=24.048000m/h.</desc>
<speed>6.680000</speed>
</trkpt>
<trkpt lat="55.893845" lon="26.600945">
<ele>115.364319</ele>
<time>2010-06-20T13:56:57Z</time>
<desc>lat.=55.893845, lon.=26.600945, Alt.=115.364319m. Speed=25.452000m/h.</desc>
<speed>7.070000</speed>
</trkpt>
<trkpt lat="55.893822" lon="26.600836">
<ele>115.079163</ele>
<time>2010-06-20T13:56:58Z</time>
<desc>lat.=55.893822, lon.=26.600836, Alt.=115.079163m. Speed=25.164000m/h.</desc>
<speed>6.990000</speed>
</trkpt>
<trkpt lat="55.893795" lon="26.600735">
<ele>114.383850</ele>
<time>2010-06-20T13:56:59Z</time>
<desc>lat.=55.893795, lon.=26.600735, Alt.=114.383850m. Speed=25.056000m/h.</desc>
<speed>6.960000</speed>
</trkpt>
<trkpt lat="55.893761" lon="26.600634">
<ele>114.083069</ele>
<time>2010-06-20T13:57:00Z</time>
<desc>lat.=55.893761, lon.=26.600634, Alt.=114.083069m. Speed=25.488001m/h.</desc>
<speed>7.080000</speed>
</trkpt>
<trkpt lat="55.893738" lon="26.600531">
<ele>113.885803</ele>
<time>2010-06-20T13:57:01Z</time>
<desc>lat.=55.893738, lon.=26.600531, Alt.=113.885803m. Speed=23.724001m/h.</desc>
<speed>6.590000</speed>
</trkpt>
<trkpt lat="55.893711" lon="26.600428">
<ele>113.604553</ele>
<time>2010-06-20T13:57:02Z</time>
<desc>lat.=55.893711, lon.=26.600428, Alt.=113.604553m. Speed=26.639999m/h.</desc>
<speed>7.400000</speed>
</trkpt>
<trkpt lat="55.893684" lon="26.600319">
<ele>113.631897</ele>
<time>2010-06-20T13:57:03Z</time>
<desc>lat.=55.893684, lon.=26.600319, Alt.=113.631897m. Speed=25.704000m/h.</desc>
<speed>7.140000</speed>
</trkpt>
<trkpt lat="55.893658" lon="26.600214">
<ele>113.124084</ele>
<time>2010-06-20T13:57:04Z</time>
<desc>lat.=55.893658, lon.=26.600214, Alt.=113.124084m. Speed=25.271999m/h.</desc>
<speed>7.020000</speed>
</trkpt>
<trkpt lat="55.893631" lon="26.600105">
<ele>112.942444</ele>
<time>2010-06-20T13:57:05Z</time>
<desc>lat.=55.893631, lon.=26.600105, Alt.=112.942444m. Speed=27.035999m/h.</desc>
<speed>7.510000</speed>
</trkpt>
<trkpt lat="55.893597" lon="26.599993">
<ele>112.653381</ele>
<time>2010-06-20T13:57:06Z</time>
<desc>lat.=55.893597, lon.=26.599993, Alt.=112.653381m. Speed=27.468000m/h.</desc>
<speed>7.630000</speed>
</trkpt>
<trkpt lat="55.893562" lon="26.599876">
<ele>112.594788</ele>
<time>2010-06-20T13:57:07Z</time>
<desc>lat.=55.893562, lon.=26.599876, Alt.=112.594788m. Speed=28.007999m/h.</desc>
<speed>7.780000</speed>
</trkpt>
<trkpt lat="55.893532" lon="26.599756">
<ele>112.711975</ele>
<time>2010-06-20T13:57:08Z</time>
<desc>lat.=55.893532, lon.=26.599756, Alt.=112.711975m. Speed=28.115999m/h.</desc>
<speed>7.810000</speed>
</trkpt>
<trkpt lat="55.893501" lon="26.599649">
<ele>111.639709</ele>
<time>2010-06-20T13:57:09Z</time>
<desc>lat.=55.893501, lon.=26.599649, Alt.=111.639709m. Speed=28.115999m/h.</desc>
<speed>7.810000</speed>
</trkpt>
<trkpt lat="55.893467" lon="26.599527">
<ele>111.045959</ele>
<time>2010-06-20T13:57:10Z</time>
<desc>lat.=55.893467, lon.=26.599527, Alt.=111.045959m. Speed=28.836000m/h.</desc>
<speed>8.010000</speed>
</trkpt>
<trkpt lat="55.893433" lon="26.599403">
<ele>110.514709</ele>
<time>2010-06-20T13:57:11Z</time>
<desc>lat.=55.893433, lon.=26.599403, Alt.=110.514709m. Speed=28.908001m/h.</desc>
<speed>8.030000</speed>
</trkpt>
<trkpt lat="55.893398" lon="26.599287">
<ele>110.303772</ele>
<time>2010-06-20T13:57:12Z</time>
<desc>lat.=55.893398, lon.=26.599287, Alt.=110.303772m. Speed=28.944000m/h.</desc>
<speed>8.040000</speed>
</trkpt>
<trkpt lat="55.893368" lon="26.599180">
<ele>109.694397</ele>
<time>2010-06-20T13:57:13Z</time>
<desc>lat.=55.893368, lon.=26.599180, Alt.=109.694397m. Speed=28.764000m/h.</desc>
<speed>7.990000</speed>
</trkpt>
<trkpt lat="55.893330" lon="26.599062">
<ele>109.827209</ele>
<time>2010-06-20T13:57:14Z</time>
<desc>lat.=55.893330, lon.=26.599062, Alt.=109.827209m. Speed=29.304001m/h.</desc>
<speed>8.140000</speed>
</trkpt>
<trkpt lat="55.893299" lon="26.598953">
<ele>109.104553</ele>
<time>2010-06-20T13:57:15Z</time>
<desc>lat.=55.893299, lon.=26.598953, Alt.=109.104553m. Speed=28.799999m/h.</desc>
<speed>8.000000</speed>
</trkpt>
<trkpt lat="55.893272" lon="26.598845">
<ele>108.284241</ele>
<time>2010-06-20T13:57:16Z</time>
<desc>lat.=55.893272, lon.=26.598845, Alt.=108.284241m. Speed=29.087999m/h.</desc>
<speed>8.080000</speed>
</trkpt>
<trkpt lat="55.893242" lon="26.598730">
<ele>107.879944</ele>
<time>2010-06-20T13:57:17Z</time>
<desc>lat.=55.893242, lon.=26.598730, Alt.=107.879944m. Speed=29.700001m/h.</desc>
<speed>8.250000</speed>
</trkpt>
<trkpt lat="55.893208" lon="26.598614">
<ele>107.708069</ele>
<time>2010-06-20T13:57:18Z</time>
<desc>lat.=55.893208, lon.=26.598614, Alt.=107.708069m. Speed=29.052000m/h.</desc>
<speed>8.070000</speed>
</trkpt>
<trkpt lat="55.893177" lon="26.598495">
<ele>107.694397</ele>
<time>2010-06-20T13:57:19Z</time>
<desc>lat.=55.893177, lon.=26.598495, Alt.=107.694397m. Speed=29.340000m/h.</desc>
<speed>8.150000</speed>
</trkpt>
<trkpt lat="55.893143" lon="26.598366">
<ele>108.026428</ele>
<time>2010-06-20T13:57:20Z</time>
<desc>lat.=55.893143, lon.=26.598366, Alt.=108.026428m. Speed=29.628000m/h.</desc>
<speed>8.230000</speed>
</trkpt>
<trkpt lat="55.893112" lon="26.598244">
<ele>108.100647</ele>
<time>2010-06-20T13:57:21Z</time>
<desc>lat.=55.893112, lon.=26.598244, Alt.=108.100647m. Speed=29.448000m/h.</desc>
<speed>8.180000</speed>
</trkpt>
<trkpt lat="55.893078" lon="26.598124">
<ele>108.118225</ele>
<time>2010-06-20T13:57:22Z</time>
<desc>lat.=55.893078, lon.=26.598124, Alt.=108.118225m. Speed=28.908001m/h.</desc>
<speed>8.030000</speed>
</trkpt>
<trkpt lat="55.893047" lon="26.598009">
<ele>108.225647</ele>
<time>2010-06-20T13:57:23Z</time>
<desc>lat.=55.893047, lon.=26.598009, Alt.=108.225647m. Speed=28.872000m/h.</desc>
<speed>8.020000</speed>
</trkpt>
<trkpt lat="55.893017" lon="26.597891">
<ele>108.260803</ele>
<time>2010-06-20T13:57:24Z</time>
<desc>lat.=55.893017, lon.=26.597891, Alt.=108.260803m. Speed=28.836000m/h.</desc>
<speed>8.010000</speed>
</trkpt>
<trkpt lat="55.892982" lon="26.597776">
<ele>108.401428</ele>
<time>2010-06-20T13:57:25Z</time>
<desc>lat.=55.892982, lon.=26.597776, Alt.=108.401428m. Speed=28.944000m/h.</desc>
<speed>8.040000</speed>
</trkpt>
<trkpt lat="55.892948" lon="26.597658">
<ele>109.094788</ele>
<time>2010-06-20T13:57:26Z</time>
<desc>lat.=55.892948, lon.=26.597658, Alt.=109.094788m. Speed=28.152000m/h.</desc>
<speed>7.820000</speed>
</trkpt>
<trkpt lat="55.892918" lon="26.597544">
<ele>109.211975</ele>
<time>2010-06-20T13:57:27Z</time>
<desc>lat.=55.892918, lon.=26.597544, Alt.=109.211975m. Speed=27.936001m/h.</desc>
<speed>7.760000</speed>
</trkpt>
<trkpt lat="55.892887" lon="26.597425">
<ele>109.403381</ele>
<time>2010-06-20T13:57:28Z</time>
<desc>lat.=55.892887, lon.=26.597425, Alt.=109.403381m. Speed=27.504000m/h.</desc>
<speed>7.640000</speed>
</trkpt>
<trkpt lat="55.892860" lon="26.597317">
<ele>109.295959</ele>
<time>2010-06-20T13:57:29Z</time>
<desc>lat.=55.892860, lon.=26.597317, Alt.=109.295959m. Speed=26.927999m/h.</desc>
<speed>7.480000</speed>
</trkpt>
<trkpt lat="55.892830" lon="26.597210">
<ele>109.633850</ele>
<time>2010-06-20T13:57:30Z</time>
<desc>lat.=55.892830, lon.=26.597210, Alt.=109.633850m. Speed=26.568001m/h.</desc>
<speed>7.380000</speed>
</trkpt>
<trkpt lat="55.892799" lon="26.597103">
<ele>110.256897</ele>
<time>2010-06-20T13:57:31Z</time>
<desc>lat.=55.892799, lon.=26.597103, Alt.=110.256897m. Speed=25.416000m/h.</desc>
<speed>7.060000</speed>
</trkpt>
<trkpt lat="55.892769" lon="26.597000">
<ele>110.669006</ele>
<time>2010-06-20T13:57:32Z</time>
<desc>lat.=55.892769, lon.=26.597000, Alt.=110.669006m. Speed=24.912001m/h.</desc>
<speed>6.920000</speed>
</trkpt>
<trkpt lat="55.892742" lon="26.596897">
<ele>111.055725</ele>
<time>2010-06-20T13:57:33Z</time>
<desc>lat.=55.892742, lon.=26.596897, Alt.=111.055725m. Speed=24.983999m/h.</desc>
<speed>6.940000</speed>
</trkpt>
<trkpt lat="55.892715" lon="26.596794">
<ele>111.053772</ele>
<time>2010-06-20T13:57:34Z</time>
<desc>lat.=55.892715, lon.=26.596794, Alt.=111.053772m. Speed=24.732000m/h.</desc>
<speed>6.870000</speed>
</trkpt>
<trkpt lat="55.892693" lon="26.596699">
<ele>111.083069</ele>
<time>2010-06-20T13:57:35Z</time>
<desc>lat.=55.892693, lon.=26.596699, Alt.=111.083069m. Speed=24.120001m/h.</desc>
<speed>6.700000</speed>
</trkpt>
<trkpt lat="55.892670" lon="26.596613">
<ele>110.528381</ele>
<time>2010-06-20T13:57:36Z</time>
<desc>lat.=55.892670, lon.=26.596613, Alt.=110.528381m. Speed=23.688000m/h.</desc>
<speed>6.580000</speed>
</trkpt>
<trkpt lat="55.892647" lon="26.596519">
<ele>110.153381</ele>
<time>2010-06-20T13:57:37Z</time>
<desc>lat.=55.892647, lon.=26.596519, Alt.=110.153381m. Speed=23.580000m/h.</desc>
<speed>6.550000</speed>
</trkpt>
<trkpt lat="55.892616" lon="26.596420">
<ele>111.178772</ele>
<time>2010-06-20T13:57:38Z</time>
<desc>lat.=55.892616, lon.=26.596420, Alt.=111.178772m. Speed=23.615999m/h.</desc>
<speed>6.560000</speed>
</trkpt>
<trkpt lat="55.892590" lon="26.596333">
<ele>110.950256</ele>
<time>2010-06-20T13:57:39Z</time>
<desc>lat.=55.892590, lon.=26.596333, Alt.=110.950256m. Speed=23.832001m/h.</desc>
<speed>6.620000</speed>
</trkpt>
<trkpt lat="55.892567" lon="26.596239">
<ele>111.063538</ele>
<time>2010-06-20T13:57:40Z</time>
<desc>lat.=55.892567, lon.=26.596239, Alt.=111.063538m. Speed=24.156000m/h.</desc>
<speed>6.710000</speed>
</trkpt>
<trkpt lat="55.892544" lon="26.596142">
<ele>110.651428</ele>
<time>2010-06-20T13:57:41Z</time>
<desc>lat.=55.892544, lon.=26.596142, Alt.=110.651428m. Speed=24.048000m/h.</desc>
<speed>6.680000</speed>
</trkpt>
<trkpt lat="55.892521" lon="26.596046">
<ele>110.352600</ele>
<time>2010-06-20T13:57:42Z</time>
<desc>lat.=55.892521, lon.=26.596046, Alt.=110.352600m. Speed=24.624001m/h.</desc>
<speed>6.840000</speed>
</trkpt>
<trkpt lat="55.892494" lon="26.595945">
<ele>110.092834</ele>
<time>2010-06-20T13:57:43Z</time>
<desc>lat.=55.892494, lon.=26.595945, Alt.=110.092834m. Speed=25.344000m/h.</desc>
<speed>7.040000</speed>
</trkpt>
<trkpt lat="55.892467" lon="26.595844">
<ele>109.502991</ele>
<time>2010-06-20T13:57:44Z</time>
<desc>lat.=55.892467, lon.=26.595844, Alt.=109.502991m. Speed=25.920000m/h.</desc>
<speed>7.200000</speed>
</trkpt>
<trkpt lat="55.892441" lon="26.595743">
<ele>108.989319</ele>
<time>2010-06-20T13:57:45Z</time>
<desc>lat.=55.892441, lon.=26.595743, Alt.=108.989319m. Speed=26.747999m/h.</desc>
<speed>7.430000</speed>
</trkpt>
<trkpt lat="55.892414" lon="26.595640">
<ele>108.288147</ele>
<time>2010-06-20T13:57:46Z</time>
<desc>lat.=55.892414, lon.=26.595640, Alt.=108.288147m. Speed=27.468000m/h.</desc>
<speed>7.630000</speed>
</trkpt>
<trkpt lat="55.892384" lon="26.595533">
<ele>108.047913</ele>
<time>2010-06-20T13:57:47Z</time>
<desc>lat.=55.892384, lon.=26.595533, Alt.=108.047913m. Speed=28.188000m/h.</desc>
<speed>7.830000</speed>
</trkpt>
<trkpt lat="55.892357" lon="26.595423">
<ele>107.397522</ele>
<time>2010-06-20T13:57:48Z</time>
<desc>lat.=55.892357, lon.=26.595423, Alt.=107.397522m. Speed=29.628000m/h.</desc>
<speed>8.230000</speed>
</trkpt>
<trkpt lat="55.892323" lon="26.595308">
<ele>106.774475</ele>
<time>2010-06-20T13:57:49Z</time>
<desc>lat.=55.892323, lon.=26.595308, Alt.=106.774475m. Speed=31.464001m/h.</desc>
<speed>8.740000</speed>
</trkpt>
<trkpt lat="55.892292" lon="26.595184">
<ele>106.106506</ele>
<time>2010-06-20T13:57:50Z</time>
<desc>lat.=55.892292, lon.=26.595184, Alt.=106.106506m. Speed=32.543999m/h.</desc>
<speed>9.040000</speed>
</trkpt>
<trkpt lat="55.892254" lon="26.595047">
<ele>105.456116</ele>
<time>2010-06-20T13:57:51Z</time>
<desc>lat.=55.892254, lon.=26.595047, Alt.=105.456116m. Speed=33.551998m/h.</desc>
<speed>9.319999</speed>
</trkpt>
<trkpt lat="55.892216" lon="26.594910">
<ele>105.282288</ele>
<time>2010-06-20T13:57:52Z</time>
<desc>lat.=55.892216, lon.=26.594910, Alt.=105.282288m. Speed=33.335999m/h.</desc>
<speed>9.260000</speed>
</trkpt>
<trkpt lat="55.892181" lon="26.594770">
<ele>105.143616</ele>
<time>2010-06-20T13:57:53Z</time>
<desc>lat.=55.892181, lon.=26.594770, Alt.=105.143616m. Speed=33.984001m/h.</desc>
<speed>9.440000</speed>
</trkpt>
<trkpt lat="55.892143" lon="26.594635">
<ele>104.909241</ele>
<time>2010-06-20T13:57:54Z</time>
<desc>lat.=55.892143, lon.=26.594635, Alt.=104.909241m. Speed=33.768002m/h.</desc>
<speed>9.380000</speed>
</trkpt>
<trkpt lat="55.892109" lon="26.594496">
<ele>104.831116</ele>
<time>2010-06-20T13:57:55Z</time>
<desc>lat.=55.892109, lon.=26.594496, Alt.=104.831116m. Speed=33.155998m/h.</desc>
<speed>9.210000</speed>
</trkpt>
<trkpt lat="55.892075" lon="26.594357">
<ele>105.247131</ele>
<time>2010-06-20T13:57:56Z</time>
<desc>lat.=55.892075, lon.=26.594357, Alt.=105.247131m. Speed=32.292000m/h.</desc>
<speed>8.970000</speed>
</trkpt>
<trkpt lat="55.892044" lon="26.594223">
<ele>106.163147</ele>
<time>2010-06-20T13:57:57Z</time>
<desc>lat.=55.892044, lon.=26.594223, Alt.=106.163147m. Speed=30.959999m/h.</desc>
<speed>8.600000</speed>
</trkpt>
<trkpt lat="55.892014" lon="26.594091">
<ele>106.549866</ele>
<time>2010-06-20T13:57:58Z</time>
<desc>lat.=55.892014, lon.=26.594091, Alt.=106.549866m. Speed=31.968000m/h.</desc>
<speed>8.880000</speed>
</trkpt>
<trkpt lat="55.891983" lon="26.593962">
<ele>106.282288</ele>
<time>2010-06-20T13:57:59Z</time>
<desc>lat.=55.891983, lon.=26.593962, Alt.=106.282288m. Speed=31.860001m/h.</desc>
<speed>8.850000</speed>
</trkpt>
<trkpt lat="55.891945" lon="26.593830">
<ele>106.286194</ele>
<time>2010-06-20T13:58:00Z</time>
<desc>lat.=55.891945, lon.=26.593830, Alt.=106.286194m. Speed=32.004002m/h.</desc>
<speed>8.890000</speed>
</trkpt>
<trkpt lat="55.891911" lon="26.593704">
<ele>106.374084</ele>
<time>2010-06-20T13:58:01Z</time>
<desc>lat.=55.891911, lon.=26.593704, Alt.=106.374084m. Speed=31.860001m/h.</desc>
<speed>8.850000</speed>
</trkpt>
<trkpt lat="55.891872" lon="26.593573">
<ele>106.440491</ele>
<time>2010-06-20T13:58:02Z</time>
<desc>lat.=55.891872, lon.=26.593573, Alt.=106.440491m. Speed=31.500000m/h.</desc>
<speed>8.750000</speed>
</trkpt>
<trkpt lat="55.891842" lon="26.593447">
<ele>106.399475</ele>
<time>2010-06-20T13:58:03Z</time>
<desc>lat.=55.891842, lon.=26.593447, Alt.=106.399475m. Speed=31.608000m/h.</desc>
<speed>8.780000</speed>
</trkpt>
<trkpt lat="55.891808" lon="26.593319">
<ele>106.149475</ele>
<time>2010-06-20T13:58:04Z</time>
<desc>lat.=55.891808, lon.=26.593319, Alt.=106.149475m. Speed=31.247999m/h.</desc>
<speed>8.680000</speed>
</trkpt>
<trkpt lat="55.891777" lon="26.593199">
<ele>106.188538</ele>
<time>2010-06-20T13:58:05Z</time>
<desc>lat.=55.891777, lon.=26.593199, Alt.=106.188538m. Speed=30.420000m/h.</desc>
<speed>8.450000</speed>
</trkpt>
<trkpt lat="55.891747" lon="26.593079">
<ele>106.419006</ele>
<time>2010-06-20T13:58:06Z</time>
<desc>lat.=55.891747, lon.=26.593079, Alt.=106.419006m. Speed=28.007999m/h.</desc>
<speed>7.780000</speed>
</trkpt>
<trkpt lat="55.891720" lon="26.592968">
<ele>106.491272</ele>
<time>2010-06-20T13:58:07Z</time>
<desc>lat.=55.891720, lon.=26.592968, Alt.=106.491272m. Speed=25.704000m/h.</desc>
<speed>7.140000</speed>
</trkpt>
<trkpt lat="55.891689" lon="26.592857">
<ele>106.725647</ele>
<time>2010-06-20T13:58:08Z</time>
<desc>lat.=55.891689, lon.=26.592857, Alt.=106.725647m. Speed=28.764000m/h.</desc>
<speed>7.990000</speed>
</trkpt>
<trkpt lat="55.891655" lon="26.592743">
<ele>106.991272</ele>
<time>2010-06-20T13:58:09Z</time>
<desc>lat.=55.891655, lon.=26.592743, Alt.=106.991272m. Speed=27.719999m/h.</desc>
<speed>7.700000</speed>
</trkpt>
<trkpt lat="55.891624" lon="26.592638">
<ele>107.629944</ele>
<time>2010-06-20T13:58:10Z</time>
<desc>lat.=55.891624, lon.=26.592638, Alt.=107.629944m. Speed=26.316000m/h.</desc>
<speed>7.310000</speed>
</trkpt>
<trkpt lat="55.891590" lon="26.592525">
<ele>107.786194</ele>
<time>2010-06-20T13:58:11Z</time>
<desc>lat.=55.891590, lon.=26.592525, Alt.=107.786194m. Speed=27.180000m/h.</desc>
<speed>7.550000</speed>
</trkpt>
<trkpt lat="55.891560" lon="26.592411">
<ele>107.860413</ele>
<time>2010-06-20T13:58:12Z</time>
<desc>lat.=55.891560, lon.=26.592411, Alt.=107.860413m. Speed=26.532000m/h.</desc>
<speed>7.370000</speed>
</trkpt>
<trkpt lat="55.891529" lon="26.592302">
<ele>107.928772</ele>
<time>2010-06-20T13:58:13Z</time>
<desc>lat.=55.891529, lon.=26.592302, Alt.=107.928772m. Speed=25.812000m/h.</desc>
<speed>7.170000</speed>
</trkpt>
<trkpt lat="55.891502" lon="26.592197">
<ele>108.249084</ele>
<time>2010-06-20T13:58:14Z</time>
<desc>lat.=55.891502, lon.=26.592197, Alt.=108.249084m. Speed=24.948000m/h.</desc>
<speed>6.930000</speed>
</trkpt>
<trkpt lat="55.891476" lon="26.592104">
<ele>108.391663</ele>
<time>2010-06-20T13:58:15Z</time>
<desc>lat.=55.891476, lon.=26.592104, Alt.=108.391663m. Speed=23.688000m/h.</desc>
<speed>6.580000</speed>
</trkpt>
<trkpt lat="55.891457" lon="26.592012">
<ele>108.815491</ele>
<time>2010-06-20T13:58:16Z</time>
<desc>lat.=55.891457, lon.=26.592012, Alt.=108.815491m. Speed=21.924000m/h.</desc>
<speed>6.090000</speed>
</trkpt>
<trkpt lat="55.891434" lon="26.591923">
<ele>109.122131</ele>
<time>2010-06-20T13:58:17Z</time>
<desc>lat.=55.891434, lon.=26.591923, Alt.=109.122131m. Speed=21.420000m/h.</desc>
<speed>5.950000</speed>
</trkpt>
<trkpt lat="55.891415" lon="26.591837">
<ele>108.819397</ele>
<time>2010-06-20T13:58:18Z</time>
<desc>lat.=55.891415, lon.=26.591837, Alt.=108.819397m. Speed=19.980000m/h.</desc>
<speed>5.550000</speed>
</trkpt>
<trkpt lat="55.891392" lon="26.591761">
<ele>108.754944</ele>
<time>2010-06-20T13:58:19Z</time>
<desc>lat.=55.891392, lon.=26.591761, Alt.=108.754944m. Speed=19.115999m/h.</desc>
<speed>5.310000</speed>
</trkpt>
<trkpt lat="55.891373" lon="26.591690">
<ele>108.547913</ele>
<time>2010-06-20T13:58:20Z</time>
<desc>lat.=55.891373, lon.=26.591690, Alt.=108.547913m. Speed=18.468000m/h.</desc>
<speed>5.130000</speed>
</trkpt>
<trkpt lat="55.891354" lon="26.591618">
<ele>108.776428</ele>
<time>2010-06-20T13:58:21Z</time>
<desc>lat.=55.891354, lon.=26.591618, Alt.=108.776428m. Speed=17.568001m/h.</desc>
<speed>4.880000</speed>
</trkpt>
<trkpt lat="55.891335" lon="26.591543">
<ele>108.938538</ele>
<time>2010-06-20T13:58:22Z</time>
<desc>lat.=55.891335, lon.=26.591543, Alt.=108.938538m. Speed=16.740000m/h.</desc>
<speed>4.650000</speed>
</trkpt>
<trkpt lat="55.891319" lon="26.591478">
<ele>109.036194</ele>
<time>2010-06-20T13:58:23Z</time>
<desc>lat.=55.891319, lon.=26.591478, Alt.=109.036194m. Speed=15.552000m/h.</desc>
<speed>4.320000</speed>
</trkpt>
<trkpt lat="55.891304" lon="26.591413">
<ele>109.083069</ele>
<time>2010-06-20T13:58:24Z</time>
<desc>lat.=55.891304, lon.=26.591413, Alt.=109.083069m. Speed=15.372000m/h.</desc>
<speed>4.270000</speed>
</trkpt>
<trkpt lat="55.891289" lon="26.591352">
<ele>109.069397</ele>
<time>2010-06-20T13:58:25Z</time>
<desc>lat.=55.891289, lon.=26.591352, Alt.=109.069397m. Speed=13.932000m/h.</desc>
<speed>3.870000</speed>
</trkpt>
<trkpt lat="55.891273" lon="26.591288">
<ele>109.116272</ele>
<time>2010-06-20T13:58:26Z</time>
<desc>lat.=55.891273, lon.=26.591288, Alt.=109.116272m. Speed=13.536000m/h.</desc>
<speed>3.760000</speed>
</trkpt>
<trkpt lat="55.891258" lon="26.591234">
<ele>109.139709</ele>
<time>2010-06-20T13:58:27Z</time>
<desc>lat.=55.891258, lon.=26.591234, Alt.=109.139709m. Speed=13.248000m/h.</desc>
<speed>3.680000</speed>
</trkpt>
<trkpt lat="55.891247" lon="26.591177">
<ele>109.264709</ele>
<time>2010-06-20T13:58:28Z</time>
<desc>lat.=55.891247, lon.=26.591177, Alt.=109.264709m. Speed=13.428000m/h.</desc>
<speed>3.730000</speed>
</trkpt>
<trkpt lat="55.891235" lon="26.591116">
<ele>109.452209</ele>
<time>2010-06-20T13:58:29Z</time>
<desc>lat.=55.891235, lon.=26.591116, Alt.=109.452209m. Speed=13.572000m/h.</desc>
<speed>3.770000</speed>
</trkpt>
<trkpt lat="55.891224" lon="26.591045">
<ele>110.276428</ele>
<time>2010-06-20T13:58:30Z</time>
<desc>lat.=55.891224, lon.=26.591045, Alt.=110.276428m. Speed=14.040000m/h.</desc>
<speed>3.900000</speed>
</trkpt>
<trkpt lat="55.891209" lon="26.590975">
<ele>110.409241</ele>
<time>2010-06-20T13:58:31Z</time>
<desc>lat.=55.891209, lon.=26.590975, Alt.=110.409241m. Speed=16.271999m/h.</desc>
<speed>4.520000</speed>
</trkpt>
<trkpt lat="55.891197" lon="26.590910">
<ele>109.801819</ele>
<time>2010-06-20T13:58:32Z</time>
<desc>lat.=55.891197, lon.=26.590910, Alt.=109.801819m. Speed=16.632000m/h.</desc>
<speed>4.620000</speed>
</trkpt>
<trkpt lat="55.891186" lon="26.590843">
<ele>109.151428</ele>
<time>2010-06-20T13:58:33Z</time>
<desc>lat.=55.891186, lon.=26.590843, Alt.=109.151428m. Speed=17.424000m/h.</desc>
<speed>4.840000</speed>
</trkpt>
<trkpt lat="55.891171" lon="26.590767">
<ele>109.653381</ele>
<time>2010-06-20T13:58:34Z</time>
<desc>lat.=55.891171, lon.=26.590767, Alt.=109.653381m. Speed=18.000000m/h.</desc>
<speed>5.000000</speed>
</trkpt>
<trkpt lat="55.891148" lon="26.590691">
<ele>109.948303</ele>
<time>2010-06-20T13:58:35Z</time>
<desc>lat.=55.891148, lon.=26.590691, Alt.=109.948303m. Speed=19.152000m/h.</desc>
<speed>5.320000</speed>
</trkpt>
<trkpt lat="55.891125" lon="26.590616">
<ele>109.831116</ele>
<time>2010-06-20T13:58:36Z</time>
<desc>lat.=55.891125, lon.=26.590616, Alt.=109.831116m. Speed=19.476000m/h.</desc>
<speed>5.410000</speed>
</trkpt>
<trkpt lat="55.891094" lon="26.590542">
<ele>110.215881</ele>
<time>2010-06-20T13:58:37Z</time>
<desc>lat.=55.891094, lon.=26.590542, Alt.=110.215881m. Speed=19.836000m/h.</desc>
<speed>5.510000</speed>
</trkpt>
<trkpt lat="55.891068" lon="26.590462">
<ele>110.010803</ele>
<time>2010-06-20T13:58:38Z</time>
<desc>lat.=55.891068, lon.=26.590462, Alt.=110.010803m. Speed=20.628000m/h.</desc>
<speed>5.730000</speed>
</trkpt>
<trkpt lat="55.891045" lon="26.590378">
<ele>110.303772</ele>
<time>2010-06-20T13:58:39Z</time>
<desc>lat.=55.891045, lon.=26.590378, Alt.=110.303772m. Speed=20.160000m/h.</desc>
<speed>5.600000</speed>
</trkpt>
<trkpt lat="55.891022" lon="26.590300">
<ele>110.692444</ele>
<time>2010-06-20T13:58:40Z</time>
<desc>lat.=55.891022, lon.=26.590300, Alt.=110.692444m. Speed=20.844000m/h.</desc>
<speed>5.790000</speed>
</trkpt>
<trkpt lat="55.890999" lon="26.590225">
<ele>111.319397</ele>
<time>2010-06-20T13:58:41Z</time>
<desc>lat.=55.890999, lon.=26.590225, Alt.=111.319397m. Speed=19.476000m/h.</desc>
<speed>5.410000</speed>
</trkpt>
<trkpt lat="55.890976" lon="26.590145">
<ele>111.700256</ele>
<time>2010-06-20T13:58:42Z</time>
<desc>lat.=55.890976, lon.=26.590145, Alt.=111.700256m. Speed=20.195999m/h.</desc>
<speed>5.610000</speed>
</trkpt>
<trkpt lat="55.890953" lon="26.590073">
<ele>112.354553</ele>
<time>2010-06-20T13:58:43Z</time>
<desc>lat.=55.890953, lon.=26.590073, Alt.=112.354553m. Speed=15.804000m/h.</desc>
<speed>4.390000</speed>
</trkpt>
<trkpt lat="55.890926" lon="26.590014">
<ele>113.219788</ele>
<time>2010-06-20T13:58:44Z</time>
<desc>lat.=55.890926, lon.=26.590014, Alt.=113.219788m. Speed=18.756001m/h.</desc>
<speed>5.210000</speed>
</trkpt>
<trkpt lat="55.890907" lon="26.589945">
<ele>113.737366</ele>
<time>2010-06-20T13:58:45Z</time>
<desc>lat.=55.890907, lon.=26.589945, Alt.=113.737366m. Speed=16.920000m/h.</desc>
<speed>4.700000</speed>
</trkpt>
<trkpt lat="55.890884" lon="26.589870">
<ele>113.610413</ele>
<time>2010-06-20T13:58:46Z</time>
<desc>lat.=55.890884, lon.=26.589870, Alt.=113.610413m. Speed=19.440001m/h.</desc>
<speed>5.400000</speed>
</trkpt>
<trkpt lat="55.890865" lon="26.589790">
<ele>113.891663</ele>
<time>2010-06-20T13:58:47Z</time>
<desc>lat.=55.890865, lon.=26.589790, Alt.=113.891663m. Speed=19.403999m/h.</desc>
<speed>5.390000</speed>
</trkpt>
<trkpt lat="55.890842" lon="26.589710">
<ele>113.932678</ele>
<time>2010-06-20T13:58:48Z</time>
<desc>lat.=55.890842, lon.=26.589710, Alt.=113.932678m. Speed=19.224001m/h.</desc>
<speed>5.340000</speed>
</trkpt>
<trkpt lat="55.890827" lon="26.589632">
<ele>114.110413</ele>
<time>2010-06-20T13:58:49Z</time>
<desc>lat.=55.890827, lon.=26.589632, Alt.=114.110413m. Speed=19.044001m/h.</desc>
<speed>5.290000</speed>
</trkpt>
<trkpt lat="55.890808" lon="26.589550">
<ele>114.688538</ele>
<time>2010-06-20T13:58:50Z</time>
<desc>lat.=55.890808, lon.=26.589550, Alt.=114.688538m. Speed=17.856001m/h.</desc>
<speed>4.960000</speed>
</trkpt>
<trkpt lat="55.890785" lon="26.589478">
<ele>114.999084</ele>
<time>2010-06-20T13:58:51Z</time>
<desc>lat.=55.890785, lon.=26.589478, Alt.=114.999084m. Speed=18.360001m/h.</desc>
<speed>5.100000</speed>
</trkpt>
<trkpt lat="55.890766" lon="26.589399">
<ele>115.069397</ele>
<time>2010-06-20T13:58:52Z</time>
<desc>lat.=55.890766, lon.=26.589399, Alt.=115.069397m. Speed=17.568001m/h.</desc>
<speed>4.880000</speed>
</trkpt>
<trkpt lat="55.890743" lon="26.589338">
<ele>115.469788</ele>
<time>2010-06-20T13:58:53Z</time>
<desc>lat.=55.890743, lon.=26.589338, Alt.=115.469788m. Speed=17.136000m/h.</desc>
<speed>4.760000</speed>
</trkpt>
<trkpt lat="55.890720" lon="26.589275">
<ele>116.081116</ele>
<time>2010-06-20T13:58:54Z</time>
<desc>lat.=55.890720, lon.=26.589275, Alt.=116.081116m. Speed=16.884001m/h.</desc>
<speed>4.690000</speed>
</trkpt>
<trkpt lat="55.890701" lon="26.589203">
<ele>116.374084</ele>
<time>2010-06-20T13:58:55Z</time>
<desc>lat.=55.890701, lon.=26.589203, Alt.=116.374084m. Speed=17.316000m/h.</desc>
<speed>4.810000</speed>
</trkpt>
<trkpt lat="55.890682" lon="26.589127">
<ele>116.506897</ele>
<time>2010-06-20T13:58:56Z</time>
<desc>lat.=55.890682, lon.=26.589127, Alt.=116.506897m. Speed=16.955999m/h.</desc>
<speed>4.710000</speed>
</trkpt>
<trkpt lat="55.890667" lon="26.589064">
<ele>116.420959</ele>
<time>2010-06-20T13:58:57Z</time>
<desc>lat.=55.890667, lon.=26.589064, Alt.=116.420959m. Speed=16.488001m/h.</desc>
<speed>4.580000</speed>
</trkpt>
<trkpt lat="55.890652" lon="26.588995">
<ele>116.530334</ele>
<time>2010-06-20T13:58:58Z</time>
<desc>lat.=55.890652, lon.=26.588995, Alt.=116.530334m. Speed=17.063999m/h.</desc>
<speed>4.740000</speed>
</trkpt>
<trkpt lat="55.890629" lon="26.588926">
<ele>116.504944</ele>
<time>2010-06-20T13:58:59Z</time>
<desc>lat.=55.890629, lon.=26.588926, Alt.=116.504944m. Speed=16.740000m/h.</desc>
<speed>4.650000</speed>
</trkpt>
<trkpt lat="55.890610" lon="26.588856">
<ele>116.501038</ele>
<time>2010-06-20T13:59:00Z</time>
<desc>lat.=55.890610, lon.=26.588856, Alt.=116.501038m. Speed=16.271999m/h.</desc>
<speed>4.520000</speed>
</trkpt>
<trkpt lat="55.890594" lon="26.588789">
<ele>116.573303</ele>
<time>2010-06-20T13:59:01Z</time>
<desc>lat.=55.890594, lon.=26.588789, Alt.=116.573303m. Speed=15.264000m/h.</desc>
<speed>4.240000</speed>
</trkpt>
<trkpt lat="55.890575" lon="26.588722">
<ele>116.426819</ele>
<time>2010-06-20T13:59:02Z</time>
<desc>lat.=55.890575, lon.=26.588722, Alt.=116.426819m. Speed=14.544000m/h.</desc>
<speed>4.040000</speed>
</trkpt>
<trkpt lat="55.890564" lon="26.588659">
<ele>116.442444</ele>
<time>2010-06-20T13:59:03Z</time>
<desc>lat.=55.890564, lon.=26.588659, Alt.=116.442444m. Speed=14.472000m/h.</desc>
<speed>4.020000</speed>
</trkpt>
<trkpt lat="55.890549" lon="26.588600">
<ele>116.352600</ele>
<time>2010-06-20T13:59:04Z</time>
<desc>lat.=55.890549, lon.=26.588600, Alt.=116.352600m. Speed=13.572000m/h.</desc>
<speed>3.770000</speed>
</trkpt>
<trkpt lat="55.890533" lon="26.588549">
<ele>116.409241</ele>
<time>2010-06-20T13:59:05Z</time>
<desc>lat.=55.890533, lon.=26.588549, Alt.=116.409241m. Speed=13.212000m/h.</desc>
<speed>3.670000</speed>
</trkpt>
<trkpt lat="55.890518" lon="26.588495">
<ele>116.204163</ele>
<time>2010-06-20T13:59:06Z</time>
<desc>lat.=55.890518, lon.=26.588495, Alt.=116.204163m. Speed=13.284000m/h.</desc>
<speed>3.690000</speed>
</trkpt>
<trkpt lat="55.890507" lon="26.588440">
<ele>116.299866</ele>
<time>2010-06-20T13:59:07Z</time>
<desc>lat.=55.890507, lon.=26.588440, Alt.=116.299866m. Speed=12.996000m/h.</desc>
<speed>3.610000</speed>
</trkpt>
<trkpt lat="55.890495" lon="26.588387">
<ele>115.657288</ele>
<time>2010-06-20T13:59:08Z</time>
<desc>lat.=55.890495, lon.=26.588387, Alt.=115.657288m. Speed=13.032000m/h.</desc>
<speed>3.620000</speed>
</trkpt>
<trkpt lat="55.890476" lon="26.588331">
<ele>115.883850</ele>
<time>2010-06-20T13:59:09Z</time>
<desc>lat.=55.890476, lon.=26.588331, Alt.=115.883850m. Speed=13.428000m/h.</desc>
<speed>3.730000</speed>
</trkpt>
<trkpt lat="55.890461" lon="26.588270">
<ele>115.856506</ele>
<time>2010-06-20T13:59:10Z</time>
<desc>lat.=55.890461, lon.=26.588270, Alt.=115.856506m. Speed=14.112000m/h.</desc>
<speed>3.920000</speed>
</trkpt>
<trkpt lat="55.890446" lon="26.588213">
<ele>115.288147</ele>
<time>2010-06-20T13:59:11Z</time>
<desc>lat.=55.890446, lon.=26.588213, Alt.=115.288147m. Speed=14.184000m/h.</desc>
<speed>3.940000</speed>
</trkpt>
<trkpt lat="55.890430" lon="26.588150">
<ele>115.272522</ele>
<time>2010-06-20T13:59:12Z</time>
<desc>lat.=55.890430, lon.=26.588150, Alt.=115.272522m. Speed=15.516000m/h.</desc>
<speed>4.310000</speed>
</trkpt>
<trkpt lat="55.890411" lon="26.588079">
<ele>115.122131</ele>
<time>2010-06-20T13:59:13Z</time>
<desc>lat.=55.890411, lon.=26.588079, Alt.=115.122131m. Speed=16.200001m/h.</desc>
<speed>4.500000</speed>
</trkpt>
<trkpt lat="55.890392" lon="26.588011">
<ele>114.819397</ele>
<time>2010-06-20T13:59:14Z</time>
<desc>lat.=55.890392, lon.=26.588011, Alt.=114.819397m. Speed=18.323999m/h.</desc>
<speed>5.090000</speed>
</trkpt>
<trkpt lat="55.890369" lon="26.587934">
<ele>114.678772</ele>
<time>2010-06-20T13:59:15Z</time>
<desc>lat.=55.890369, lon.=26.587934, Alt.=114.678772m. Speed=19.260000m/h.</desc>
<speed>5.350000</speed>
</trkpt>
<trkpt lat="55.890350" lon="26.587858">
<ele>114.030334</ele>
<time>2010-06-20T13:59:16Z</time>
<desc>lat.=55.890350, lon.=26.587858, Alt.=114.030334m. Speed=21.059999m/h.</desc>
<speed>5.850000</speed>
</trkpt>
<trkpt lat="55.890324" lon="26.587772">
<ele>113.329163</ele>
<time>2010-06-20T13:59:17Z</time>
<desc>lat.=55.890324, lon.=26.587772, Alt.=113.329163m. Speed=23.148001m/h.</desc>
<speed>6.430000</speed>
</trkpt>
<trkpt lat="55.890297" lon="26.587667">
<ele>112.575256</ele>
<time>2010-06-20T13:59:18Z</time>
<desc>lat.=55.890297, lon.=26.587667, Alt.=112.575256m. Speed=25.488001m/h.</desc>
<speed>7.080000</speed>
</trkpt>
<trkpt lat="55.890270" lon="26.587561">
<ele>112.110413</ele>
<time>2010-06-20T13:59:19Z</time>
<desc>lat.=55.890270, lon.=26.587561, Alt.=112.110413m. Speed=27.468000m/h.</desc>
<speed>7.630000</speed>
</trkpt>
<trkpt lat="55.890240" lon="26.587448">
<ele>111.325256</ele>
<time>2010-06-20T13:59:20Z</time>
<desc>lat.=55.890240, lon.=26.587448, Alt.=111.325256m. Speed=29.304001m/h.</desc>
<speed>8.140000</speed>
</trkpt>
<trkpt lat="55.890205" lon="26.587317">
<ele>111.153381</ele>
<time>2010-06-20T13:59:21Z</time>
<desc>lat.=55.890205, lon.=26.587317, Alt.=111.153381m. Speed=30.096001m/h.</desc>
<speed>8.360000</speed>
</trkpt>
<trkpt lat="55.890171" lon="26.587187">
<ele>110.794006</ele>
<time>2010-06-20T13:59:22Z</time>
<desc>lat.=55.890171, lon.=26.587187, Alt.=110.794006m. Speed=32.076000m/h.</desc>
<speed>8.910000</speed>
</trkpt>
<trkpt lat="55.890133" lon="26.587053">
<ele>110.465881</ele>
<time>2010-06-20T13:59:23Z</time>
<desc>lat.=55.890133, lon.=26.587053, Alt.=110.465881m. Speed=32.256001m/h.</desc>
<speed>8.960000</speed>
</trkpt>
<trkpt lat="55.890091" lon="26.586912">
<ele>110.456116</ele>
<time>2010-06-20T13:59:24Z</time>
<desc>lat.=55.890091, lon.=26.586912, Alt.=110.456116m. Speed=35.352001m/h.</desc>
<speed>9.820000</speed>
</trkpt>
<trkpt lat="55.890053" lon="26.586769">
<ele>110.206116</ele>
<time>2010-06-20T13:59:25Z</time>
<desc>lat.=55.890053, lon.=26.586769, Alt.=110.206116m. Speed=34.416000m/h.</desc>
<speed>9.560000</speed>
</trkpt>
<trkpt lat="55.890015" lon="26.586618">
<ele>110.715881</ele>
<time>2010-06-20T13:59:26Z</time>
<desc>lat.=55.890015, lon.=26.586618, Alt.=110.715881m. Speed=35.279999m/h.</desc>
<speed>9.800000</speed>
</trkpt>
<trkpt lat="55.889977" lon="26.586472">
<ele>110.797913</ele>
<time>2010-06-20T13:59:27Z</time>
<desc>lat.=55.889977, lon.=26.586472, Alt.=110.797913m. Speed=36.504002m/h.</desc>
<speed>10.140000</speed>
</trkpt>
<trkpt lat="55.889938" lon="26.586329">
<ele>111.065491</ele>
<time>2010-06-20T13:59:28Z</time>
<desc>lat.=55.889938, lon.=26.586329, Alt.=111.065491m. Speed=35.424000m/h.</desc>
<speed>9.840000</speed>
</trkpt>
<trkpt lat="55.889904" lon="26.586187">
<ele>111.643616</ele>
<time>2010-06-20T13:59:29Z</time>
<desc>lat.=55.889904, lon.=26.586187, Alt.=111.643616m. Speed=34.632000m/h.</desc>
<speed>9.620000</speed>
</trkpt>
<trkpt lat="55.889866" lon="26.586054">
<ele>112.104553</ele>
<time>2010-06-20T13:59:30Z</time>
<desc>lat.=55.889866, lon.=26.586054, Alt.=112.104553m. Speed=33.084000m/h.</desc>
<speed>9.190000</speed>
</trkpt>
<trkpt lat="55.889832" lon="26.585924">
<ele>112.555725</ele>
<time>2010-06-20T13:59:31Z</time>
<desc>lat.=55.889832, lon.=26.585924, Alt.=112.555725m. Speed=31.139999m/h.</desc>
<speed>8.650000</speed>
</trkpt>
<trkpt lat="55.889801" lon="26.585802">
<ele>113.028381</ele>
<time>2010-06-20T13:59:32Z</time>
<desc>lat.=55.889801, lon.=26.585802, Alt.=113.028381m. Speed=29.052000m/h.</desc>
<speed>8.070000</speed>
</trkpt>
<trkpt lat="55.889767" lon="26.585690">
<ele>113.379944</ele>
<time>2010-06-20T13:59:33Z</time>
<desc>lat.=55.889767, lon.=26.585690, Alt.=113.379944m. Speed=28.115999m/h.</desc>
<speed>7.810000</speed>
</trkpt>
<trkpt lat="55.889740" lon="26.585583">
<ele>113.641663</ele>
<time>2010-06-20T13:59:34Z</time>
<desc>lat.=55.889740, lon.=26.585583, Alt.=113.641663m. Speed=26.208000m/h.</desc>
<speed>7.280000</speed>
</trkpt>
<trkpt lat="55.889717" lon="26.585480">
<ele>113.835022</ele>
<time>2010-06-20T13:59:35Z</time>
<desc>lat.=55.889717, lon.=26.585480, Alt.=113.835022m. Speed=24.912001m/h.</desc>
<speed>6.920000</speed>
</trkpt>
<trkpt lat="55.889694" lon="26.585379">
<ele>113.575256</ele>
<time>2010-06-20T13:59:36Z</time>
<desc>lat.=55.889694, lon.=26.585379, Alt.=113.575256m. Speed=25.344000m/h.</desc>
<speed>7.040000</speed>
</trkpt>
<trkpt lat="55.889664" lon="26.585274">
<ele>113.426819</ele>
<time>2010-06-20T13:59:37Z</time>
<desc>lat.=55.889664, lon.=26.585274, Alt.=113.426819m. Speed=27.431999m/h.</desc>
<speed>7.620000</speed>
</trkpt>
<trkpt lat="55.889637" lon="26.585161">
<ele>113.516663</ele>
<time>2010-06-20T13:59:38Z</time>
<desc>lat.=55.889637, lon.=26.585161, Alt.=113.516663m. Speed=28.368000m/h.</desc>
<speed>7.880000</speed>
</trkpt>
<trkpt lat="55.889603" lon="26.585049">
<ele>113.362366</ele>
<time>2010-06-20T13:59:39Z</time>
<desc>lat.=55.889603, lon.=26.585049, Alt.=113.362366m. Speed=28.799999m/h.</desc>
<speed>8.000000</speed>
</trkpt>
<trkpt lat="55.889572" lon="26.584938">
<ele>112.991272</ele>
<time>2010-06-20T13:59:40Z</time>
<desc>lat.=55.889572, lon.=26.584938, Alt.=112.991272m. Speed=28.728001m/h.</desc>
<speed>7.980000</speed>
</trkpt>
<trkpt lat="55.889542" lon="26.584824">
<ele>113.085022</ele>
<time>2010-06-20T13:59:41Z</time>
<desc>lat.=55.889542, lon.=26.584824, Alt.=113.085022m. Speed=29.304001m/h.</desc>
<speed>8.140000</speed>
</trkpt>
<trkpt lat="55.889511" lon="26.584709">
<ele>113.112366</ele>
<time>2010-06-20T13:59:42Z</time>
<desc>lat.=55.889511, lon.=26.584709, Alt.=113.112366m. Speed=28.944000m/h.</desc>
<speed>8.040000</speed>
</trkpt>
<trkpt lat="55.889481" lon="26.584593">
<ele>113.497131</ele>
<time>2010-06-20T13:59:43Z</time>
<desc>lat.=55.889481, lon.=26.584593, Alt.=113.497131m. Speed=27.756001m/h.</desc>
<speed>7.710000</speed>
</trkpt>
<trkpt lat="55.889454" lon="26.584480">
<ele>113.524475</ele>
<time>2010-06-20T13:59:44Z</time>
<desc>lat.=55.889454, lon.=26.584480, Alt.=113.524475m. Speed=27.576000m/h.</desc>
<speed>7.660000</speed>
</trkpt>
<trkpt lat="55.889423" lon="26.584360">
<ele>113.887756</ele>
<time>2010-06-20T13:59:45Z</time>
<desc>lat.=55.889423, lon.=26.584360, Alt.=113.887756m. Speed=27.504000m/h.</desc>
<speed>7.640000</speed>
</trkpt>
<trkpt lat="55.889397" lon="26.584240">
<ele>114.506897</ele>
<time>2010-06-20T13:59:46Z</time>
<desc>lat.=55.889397, lon.=26.584240, Alt.=114.506897m. Speed=27.648001m/h.</desc>
<speed>7.680000</speed>
</trkpt>
<trkpt lat="55.889362" lon="26.584129">
<ele>115.118225</ele>
<time>2010-06-20T13:59:47Z</time>
<desc>lat.=55.889362, lon.=26.584129, Alt.=115.118225m. Speed=27.540001m/h.</desc>
<speed>7.650000</speed>
</trkpt>
<trkpt lat="55.889336" lon="26.584015">
<ele>115.313538</ele>
<time>2010-06-20T13:59:48Z</time>
<desc>lat.=55.889336, lon.=26.584015, Alt.=115.313538m. Speed=28.260000m/h.</desc>
<speed>7.850000</speed>
</trkpt>
<trkpt lat="55.889305" lon="26.583897">
<ele>115.448303</ele>
<time>2010-06-20T13:59:49Z</time>
<desc>lat.=55.889305, lon.=26.583897, Alt.=115.448303m. Speed=29.591999m/h.</desc>
<speed>8.220000</speed>
</trkpt>
<trkpt lat="55.889271" lon="26.583776">
<ele>115.254944</ele>
<time>2010-06-20T13:59:50Z</time>
<desc>lat.=55.889271, lon.=26.583776, Alt.=115.254944m. Speed=29.771999m/h.</desc>
<speed>8.270000</speed>
</trkpt>
<trkpt lat="55.889236" lon="26.583658">
<ele>114.922913</ele>
<time>2010-06-20T13:59:51Z</time>
<desc>lat.=55.889236, lon.=26.583658, Alt.=114.922913m. Speed=29.700001m/h.</desc>
<speed>8.250000</speed>
</trkpt>
<trkpt lat="55.889202" lon="26.583534">
<ele>115.118225</ele>
<time>2010-06-20T13:59:52Z</time>
<desc>lat.=55.889202, lon.=26.583534, Alt.=115.118225m. Speed=29.771999m/h.</desc>
<speed>8.270000</speed>
</trkpt>
<trkpt lat="55.889168" lon="26.583414">
<ele>114.907288</ele>
<time>2010-06-20T13:59:53Z</time>
<desc>lat.=55.889168, lon.=26.583414, Alt.=114.907288m. Speed=29.879999m/h.</desc>
<speed>8.300000</speed>
</trkpt>
<trkpt lat="55.889137" lon="26.583294">
<ele>114.581116</ele>
<time>2010-06-20T13:59:54Z</time>
<desc>lat.=55.889137, lon.=26.583294, Alt.=114.581116m. Speed=29.808001m/h.</desc>
<speed>8.280000</speed>
</trkpt>
<trkpt lat="55.889103" lon="26.583174">
<ele>113.538147</ele>
<time>2010-06-20T13:59:55Z</time>
<desc>lat.=55.889103, lon.=26.583174, Alt.=113.538147m. Speed=29.195999m/h.</desc>
<speed>8.110000</speed>
</trkpt>
<trkpt lat="55.889076" lon="26.583048">
<ele>112.819397</ele>
<time>2010-06-20T13:59:56Z</time>
<desc>lat.=55.889076, lon.=26.583048, Alt.=112.819397m. Speed=29.483999m/h.</desc>
<speed>8.190000</speed>
</trkpt>
<trkpt lat="55.889050" lon="26.582918">
<ele>112.096741</ele>
<time>2010-06-20T13:59:57Z</time>
<desc>lat.=55.889050, lon.=26.582918, Alt.=112.096741m. Speed=29.448000m/h.</desc>
<speed>8.180000</speed>
</trkpt>
<trkpt lat="55.889019" lon="26.582794">
<ele>111.809631</ele>
<time>2010-06-20T13:59:58Z</time>
<desc>lat.=55.889019, lon.=26.582794, Alt.=111.809631m. Speed=29.232000m/h.</desc>
<speed>8.120000</speed>
</trkpt>
<trkpt lat="55.888988" lon="26.582670">
<ele>111.266663</ele>
<time>2010-06-20T13:59:59Z</time>
<desc>lat.=55.888988, lon.=26.582670, Alt.=111.266663m. Speed=29.879999m/h.</desc>
<speed>8.300000</speed>
</trkpt>
<trkpt lat="55.888954" lon="26.582552">
<ele>111.126038</ele>
<time>2010-06-20T14:00:00Z</time>
<desc>lat.=55.888954, lon.=26.582552, Alt.=111.126038m. Speed=29.556000m/h.</desc>
<speed>8.210000</speed>
</trkpt>
<trkpt lat="55.888924" lon="26.582430">
<ele>111.145569</ele>
<time>2010-06-20T14:00:01Z</time>
<desc>lat.=55.888924, lon.=26.582430, Alt.=111.145569m. Speed=28.980000m/h.</desc>
<speed>8.050000</speed>
</trkpt>
<trkpt lat="55.888889" lon="26.582310">
<ele>111.381897</ele>
<time>2010-06-20T14:00:02Z</time>
<desc>lat.=55.888889, lon.=26.582310, Alt.=111.381897m. Speed=29.448000m/h.</desc>
<speed>8.180000</speed>
</trkpt>
<trkpt lat="55.888859" lon="26.582197">
<ele>111.309631</ele>
<time>2010-06-20T14:00:03Z</time>
<desc>lat.=55.888859, lon.=26.582197, Alt.=111.309631m. Speed=28.836000m/h.</desc>
<speed>8.010000</speed>
</trkpt>
<trkpt lat="55.888832" lon="26.582085">
<ele>111.907288</ele>
<time>2010-06-20T14:00:04Z</time>
<desc>lat.=55.888832, lon.=26.582085, Alt.=111.907288m. Speed=26.604000m/h.</desc>
<speed>7.390000</speed>
</trkpt>
<trkpt lat="55.888809" lon="26.581974">
<ele>112.655334</ele>
<time>2010-06-20T14:00:05Z</time>
<desc>lat.=55.888809, lon.=26.581974, Alt.=112.655334m. Speed=26.172001m/h.</desc>
<speed>7.270000</speed>
</trkpt>
<trkpt lat="55.888790" lon="26.581863">
<ele>113.604553</ele>
<time>2010-06-20T14:00:06Z</time>
<desc>lat.=55.888790, lon.=26.581863, Alt.=113.604553m. Speed=25.128000m/h.</desc>
<speed>6.980000</speed>
</trkpt>
<trkpt lat="55.888763" lon="26.581760">
<ele>114.151428</ele>
<time>2010-06-20T14:00:07Z</time>
<desc>lat.=55.888763, lon.=26.581760, Alt.=114.151428m. Speed=25.091999m/h.</desc>
<speed>6.970000</speed>
</trkpt>
<trkpt lat="55.888737" lon="26.581656">
<ele>114.940491</ele>
<time>2010-06-20T14:00:08Z</time>
<desc>lat.=55.888737, lon.=26.581656, Alt.=114.940491m. Speed=25.344000m/h.</desc>
<speed>7.040000</speed>
</trkpt>
<trkpt lat="55.888706" lon="26.581554">
<ele>114.885803</ele>
<time>2010-06-20T14:00:09Z</time>
<desc>lat.=55.888706, lon.=26.581554, Alt.=114.885803m. Speed=25.200001m/h.</desc>
<speed>7.000000</speed>
</trkpt>
<trkpt lat="55.888672" lon="26.581448">
<ele>114.116272</ele>
<time>2010-06-20T14:00:10Z</time>
<desc>lat.=55.888672, lon.=26.581448, Alt.=114.116272m. Speed=24.336000m/h.</desc>
<speed>6.760000</speed>
</trkpt>
<trkpt lat="55.888641" lon="26.581350">
<ele>114.170959</ele>
<time>2010-06-20T14:00:11Z</time>
<desc>lat.=55.888641, lon.=26.581350, Alt.=114.170959m. Speed=24.264000m/h.</desc>
<speed>6.740000</speed>
</trkpt>
<trkpt lat="55.888618" lon="26.581257">
<ele>114.127991</ele>
<time>2010-06-20T14:00:12Z</time>
<desc>lat.=55.888618, lon.=26.581257, Alt.=114.127991m. Speed=22.860001m/h.</desc>
<speed>6.350000</speed>
</trkpt>
<trkpt lat="55.888592" lon="26.581169">
<ele>114.170959</ele>
<time>2010-06-20T14:00:13Z</time>
<desc>lat.=55.888592, lon.=26.581169, Alt.=114.170959m. Speed=22.284000m/h.</desc>
<speed>6.190000</speed>
</trkpt>
<trkpt lat="55.888569" lon="26.581093">
<ele>114.161194</ele>
<time>2010-06-20T14:00:14Z</time>
<desc>lat.=55.888569, lon.=26.581093, Alt.=114.161194m. Speed=19.115999m/h.</desc>
<speed>5.310000</speed>
</trkpt>
<trkpt lat="55.888550" lon="26.581018">
<ele>113.973694</ele>
<time>2010-06-20T14:00:15Z</time>
<desc>lat.=55.888550, lon.=26.581018, Alt.=113.973694m. Speed=18.180000m/h.</desc>
<speed>5.050000</speed>
</trkpt>
<trkpt lat="55.888531" lon="26.580952">
<ele>114.870178</ele>
<time>2010-06-20T14:00:16Z</time>
<desc>lat.=55.888531, lon.=26.580952, Alt.=114.870178m. Speed=16.271999m/h.</desc>
<speed>4.520000</speed>
</trkpt>
<trkpt lat="55.888508" lon="26.580881">
<ele>115.579163</ele>
<time>2010-06-20T14:00:17Z</time>
<desc>lat.=55.888508, lon.=26.580881, Alt.=115.579163m. Speed=17.532000m/h.</desc>
<speed>4.870000</speed>
</trkpt>
<trkpt lat="55.888489" lon="26.580811">
<ele>116.018616</ele>
<time>2010-06-20T14:00:18Z</time>
<desc>lat.=55.888489, lon.=26.580811, Alt.=116.018616m. Speed=15.228000m/h.</desc>
<speed>4.230000</speed>
</trkpt>
<trkpt lat="55.888474" lon="26.580751">
<ele>116.157288</ele>
<time>2010-06-20T14:00:19Z</time>
<desc>lat.=55.888474, lon.=26.580751, Alt.=116.157288m. Speed=14.220000m/h.</desc>
<speed>3.950000</speed>
</trkpt>
<trkpt lat="55.888454" lon="26.580690">
<ele>116.227600</ele>
<time>2010-06-20T14:00:20Z</time>
<desc>lat.=55.888454, lon.=26.580690, Alt.=116.227600m. Speed=15.480000m/h.</desc>
<speed>4.300000</speed>
</trkpt>
<trkpt lat="55.888435" lon="26.580629">
<ele>116.010803</ele>
<time>2010-06-20T14:00:21Z</time>
<desc>lat.=55.888435, lon.=26.580629, Alt.=116.010803m. Speed=14.976000m/h.</desc>
<speed>4.160000</speed>
</trkpt>
<trkpt lat="55.888420" lon="26.580576">
<ele>116.266663</ele>
<time>2010-06-20T14:00:22Z</time>
<desc>lat.=55.888420, lon.=26.580576, Alt.=116.266663m. Speed=13.716000m/h.</desc>
<speed>3.810000</speed>
</trkpt>
<trkpt lat="55.888405" lon="26.580523">
<ele>116.569397</ele>
<time>2010-06-20T14:00:23Z</time>
<desc>lat.=55.888405, lon.=26.580523, Alt.=116.569397m. Speed=13.104000m/h.</desc>
<speed>3.640000</speed>
</trkpt>
<trkpt lat="55.888393" lon="26.580467">
<ele>117.092834</ele>
<time>2010-06-20T14:00:24Z</time>
<desc>lat.=55.888393, lon.=26.580467, Alt.=117.092834m. Speed=13.104000m/h.</desc>
<speed>3.640000</speed>
</trkpt>
<trkpt lat="55.888390" lon="26.580414">
<ele>117.243225</ele>
<time>2010-06-20T14:00:25Z</time>
<desc>lat.=55.888390, lon.=26.580414, Alt.=117.243225m. Speed=13.284000m/h.</desc>
<speed>3.690000</speed>
</trkpt>
<trkpt lat="55.888390" lon="26.580355">
<ele>117.467834</ele>
<time>2010-06-20T14:00:26Z</time>
<desc>lat.=55.888390, lon.=26.580355, Alt.=117.467834m. Speed=12.996000m/h.</desc>
<speed>3.610000</speed>
</trkpt>
<trkpt lat="55.888405" lon="26.580307">
<ele>117.622131</ele>
<time>2010-06-20T14:00:27Z</time>
<desc>lat.=55.888405, lon.=26.580307, Alt.=117.622131m. Speed=11.520000m/h.</desc>
<speed>3.200000</speed>
</trkpt>
<trkpt lat="55.888424" lon="26.580282">
<ele>117.294006</ele>
<time>2010-06-20T14:00:28Z</time>
<desc>lat.=55.888424, lon.=26.580282, Alt.=117.294006m. Speed=9.324000m/h.</desc>
<speed>2.590000</speed>
</trkpt>
<trkpt lat="55.888443" lon="26.580276">
<ele>117.190491</ele>
<time>2010-06-20T14:00:29Z</time>
<desc>lat.=55.888443, lon.=26.580276, Alt.=117.190491m. Speed=5.076000m/h.</desc>
<speed>1.410000</speed>
</trkpt>
<trkpt lat="55.888454" lon="26.580284">
<ele>116.965881</ele>
<time>2010-06-20T14:00:30Z</time>
<desc>lat.=55.888454, lon.=26.580284, Alt.=116.965881m. Speed=2.664000m/h.</desc>
<speed>0.740000</speed>
</trkpt>
<trkpt lat="55.888458" lon="26.580288">
<ele>116.915100</ele>
<time>2010-06-20T14:00:31Z</time>
<desc>lat.=55.888458, lon.=26.580288, Alt.=116.915100m. Speed=2.412000m/h.</desc>
<speed>0.670000</speed>
</trkpt>
<trkpt lat="55.888466" lon="26.580294">
<ele>116.536194</ele>
<time>2010-06-20T14:00:32Z</time>
<desc>lat.=55.888466, lon.=26.580294, Alt.=116.536194m. Speed=1.476000m/h.</desc>
<speed>0.410000</speed>
</trkpt>
<trkpt lat="55.888466" lon="26.580301">
<ele>116.323303</ele>
<time>2010-06-20T14:00:33Z</time>
<desc>lat.=55.888466, lon.=26.580301, Alt.=116.323303m. Speed=1.260000m/h.</desc>
<speed>0.350000</speed>
</trkpt>
<trkpt lat="55.888466" lon="26.580305">
<ele>116.278381</ele>
<time>2010-06-20T14:00:34Z</time>
<desc>lat.=55.888466, lon.=26.580305, Alt.=116.278381m. Speed=1.152000m/h.</desc>
<speed>0.320000</speed>
</trkpt>
<trkpt lat="55.888470" lon="26.580309">
<ele>116.229553</ele>
<time>2010-06-20T14:00:35Z</time>
<desc>lat.=55.888470, lon.=26.580309, Alt.=116.229553m. Speed=0.900000m/h.</desc>
<speed>0.250000</speed>
</trkpt>
<trkpt lat="55.888474" lon="26.580309">
<ele>116.180725</ele>
<time>2010-06-20T14:00:36Z</time>
<desc>lat.=55.888474, lon.=26.580309, Alt.=116.180725m. Speed=1.116000m/h.</desc>
<speed>0.310000</speed>
</trkpt>
<trkpt lat="55.888474" lon="26.580309">
<ele>116.133850</ele>
<time>2010-06-20T14:00:37Z</time>
<desc>lat.=55.888474, lon.=26.580309, Alt.=116.133850m. Speed=1.404000m/h.</desc>
<speed>0.390000</speed>
</trkpt>
<trkpt lat="55.888477" lon="26.580307">
<ele>116.098694</ele>
<time>2010-06-20T14:00:38Z</time>
<desc>lat.=55.888477, lon.=26.580307, Alt.=116.098694m. Speed=0.864000m/h.</desc>
<speed>0.240000</speed>
</trkpt>
<trkpt lat="55.888481" lon="26.580307">
<ele>116.063538</ele>
<time>2010-06-20T14:00:39Z</time>
<desc>lat.=55.888481, lon.=26.580307, Alt.=116.063538m. Speed=0.576000m/h.</desc>
<speed>0.160000</speed>
</trkpt>
<trkpt lat="55.888481" lon="26.580307">
<ele>116.030334</ele>
<time>2010-06-20T14:00:40Z</time>
<desc>lat.=55.888481, lon.=26.580307, Alt.=116.030334m. Speed=0.900000m/h.</desc>
<speed>0.250000</speed>
</trkpt>
<trkpt lat="55.888485" lon="26.580305">
<ele>116.016663</ele>
<time>2010-06-20T14:00:41Z</time>
<desc>lat.=55.888485, lon.=26.580305, Alt.=116.016663m. Speed=0.792000m/h.</desc>
<speed>0.220000</speed>
</trkpt>
<trkpt lat="55.888485" lon="26.580303">
<ele>116.004944</ele>
<time>2010-06-20T14:00:42Z</time>
<desc>lat.=55.888485, lon.=26.580303, Alt.=116.004944m. Speed=0.792000m/h.</desc>
<speed>0.220000</speed>
</trkpt>
<trkpt lat="55.888489" lon="26.580303">
<ele>115.993225</ele>
<time>2010-06-20T14:00:43Z</time>
<desc>lat.=55.888489, lon.=26.580303, Alt.=115.993225m. Speed=0.684000m/h.</desc>
<speed>0.190000</speed>
</trkpt>
<trkpt lat="55.888489" lon="26.580303">
<ele>115.977600</ele>
<time>2010-06-20T14:00:44Z</time>
<desc>lat.=55.888489, lon.=26.580303, Alt.=115.977600m. Speed=0.540000m/h.</desc>
<speed>0.150000</speed>
</trkpt>
<trkpt lat="55.888493" lon="26.580305">
<ele>115.971741</ele>
<time>2010-06-20T14:00:45Z</time>
<desc>lat.=55.888493, lon.=26.580305, Alt.=115.971741m. Speed=0.756000m/h.</desc>
<speed>0.210000</speed>
</trkpt>
<trkpt lat="55.888493" lon="26.580305">
<ele>115.981506</ele>
<time>2010-06-20T14:00:46Z</time>
<desc>lat.=55.888493, lon.=26.580305, Alt.=115.981506m. Speed=0.648000m/h.</desc>
<speed>0.180000</speed>
</trkpt>
<trkpt lat="55.888496" lon="26.580307">
<ele>116.004944</ele>
<time>2010-06-20T14:00:47Z</time>
<desc>lat.=55.888496, lon.=26.580307, Alt.=116.004944m. Speed=0.864000m/h.</desc>
<speed>0.240000</speed>
</trkpt>
<trkpt lat="55.888496" lon="26.580307">
<ele>116.038147</ele>
<time>2010-06-20T14:00:48Z</time>
<desc>lat.=55.888496, lon.=26.580307, Alt.=116.038147m. Speed=0.396000m/h.</desc>
<speed>0.110000</speed>
</trkpt>
<trkpt lat="55.888496" lon="26.580309">
<ele>116.081116</ele>
<time>2010-06-20T14:00:49Z</time>
<desc>lat.=55.888496, lon.=26.580309, Alt.=116.081116m. Speed=0.108000m/h.</desc>
<speed>0.030000</speed>
</trkpt>
<trkpt lat="55.888496" lon="26.580309">
<ele>116.118225</ele>
<time>2010-06-20T14:00:50Z</time>
<desc>lat.=55.888496, lon.=26.580309, Alt.=116.118225m. Speed=0.396000m/h.</desc>
<speed>0.110000</speed>
</trkpt>
<trkpt lat="55.888496" lon="26.580307">
<ele>116.155334</ele>
<time>2010-06-20T14:00:51Z</time>
<desc>lat.=55.888496, lon.=26.580307, Alt.=116.155334m. Speed=0.288000m/h.</desc>
<speed>0.080000</speed>
</trkpt>
<trkpt lat="55.888496" lon="26.580307">
<ele>116.184631</ele>
<time>2010-06-20T14:00:52Z</time>
<desc>lat.=55.888496, lon.=26.580307, Alt.=116.184631m. Speed=0.072000m/h.</desc>
<speed>0.020000</speed>
</trkpt>
<trkpt lat="55.888496" lon="26.580307">
<ele>116.211975</ele>
<time>2010-06-20T14:00:53Z</time>
<desc>lat.=55.888496, lon.=26.580307, Alt.=116.211975m. Speed=0.144000m/h.</desc>
<speed>0.040000</speed>
</trkpt>
<trkpt lat="55.888496" lon="26.580305">
<ele>116.231506</ele>
<time>2010-06-20T14:00:54Z</time>
<desc>lat.=55.888496, lon.=26.580305, Alt.=116.231506m. Speed=0.144000m/h.</desc>
<speed>0.040000</speed>
</trkpt>
<trkpt lat="55.888496" lon="26.580305">
<ele>116.249084</ele>
<time>2010-06-20T14:00:55Z</time>
<desc>lat.=55.888496, lon.=26.580305, Alt.=116.249084m. Speed=0.324000m/h.</desc>
<speed>0.090000</speed>
</trkpt>
<trkpt lat="55.888496" lon="26.580305">
<ele>116.260803</ele>
<time>2010-06-20T14:00:56Z</time>
<desc>lat.=55.888496, lon.=26.580305, Alt.=116.260803m. Speed=0.504000m/h.</desc>
<speed>0.140000</speed>
</trkpt>
<trkpt lat="55.888496" lon="26.580303">
<ele>116.272522</ele>
<time>2010-06-20T14:00:57Z</time>
<desc>lat.=55.888496, lon.=26.580303, Alt.=116.272522m. Speed=0.468000m/h.</desc>
<speed>0.130000</speed>
</trkpt>
<trkpt lat="55.888496" lon="26.580301">
<ele>116.280334</ele>
<time>2010-06-20T14:00:58Z</time>
<desc>lat.=55.888496, lon.=26.580301, Alt.=116.280334m. Speed=0.288000m/h.</desc>
<speed>0.080000</speed>
</trkpt>
<trkpt lat="55.888496" lon="26.580299">
<ele>116.282288</ele>
<time>2010-06-20T14:00:59Z</time>
<desc>lat.=55.888496, lon.=26.580299, Alt.=116.282288m. Speed=0.252000m/h.</desc>
<speed>0.070000</speed>
</trkpt>
<trkpt lat="55.888496" lon="26.580297">
<ele>116.286194</ele>
<time>2010-06-20T14:01:00Z</time>
<desc>lat.=55.888496, lon.=26.580297, Alt.=116.286194m. Speed=0.288000m/h.</desc>
<speed>0.080000</speed>
</trkpt>
<trkpt lat="55.888496" lon="26.580297">
<ele>116.288147</ele>
<time>2010-06-20T14:01:01Z</time>
<desc>lat.=55.888496, lon.=26.580297, Alt.=116.288147m. Speed=0.288000m/h.</desc>
<speed>0.080000</speed>
</trkpt>
<trkpt lat="55.888500" lon="26.580297">
<ele>116.288147</ele>
<time>2010-06-20T14:01:02Z</time>
<desc>lat.=55.888500, lon.=26.580297, Alt.=116.288147m. Speed=0.360000m/h.</desc>
<speed>0.100000</speed>
</trkpt>
<trkpt lat="55.888500" lon="26.580297">
<ele>116.282288</ele>
<time>2010-06-20T14:01:03Z</time>
<desc>lat.=55.888500, lon.=26.580297, Alt.=116.282288m. Speed=0.432000m/h.</desc>
<speed>0.120000</speed>
</trkpt>
<trkpt lat="55.888496" lon="26.580299">
<ele>116.286194</ele>
<time>2010-06-20T14:01:04Z</time>
<desc>lat.=55.888496, lon.=26.580299, Alt.=116.286194m. Speed=0.576000m/h.</desc>
<speed>0.160000</speed>
</trkpt>
<trkpt lat="55.888496" lon="26.580299">
<ele>116.290100</ele>
<time>2010-06-20T14:01:05Z</time>
<desc>lat.=55.888496, lon.=26.580299, Alt.=116.290100m. Speed=0.360000m/h.</desc>
<speed>0.100000</speed>
</trkpt>
<trkpt lat="55.888496" lon="26.580299">
<ele>116.295959</ele>
<time>2010-06-20T14:01:06Z</time>
<desc>lat.=55.888496, lon.=26.580299, Alt.=116.295959m. Speed=0.252000m/h.</desc>
<speed>0.070000</speed>
</trkpt>
<trkpt lat="55.888496" lon="26.580301">
<ele>116.305725</ele>
<time>2010-06-20T14:01:07Z</time>
<desc>lat.=55.888496, lon.=26.580301, Alt.=116.305725m. Speed=0.000000m/h.</desc>
<speed>0.000000</speed>
</trkpt>
<trkpt lat="55.888496" lon="26.580301">
<ele>116.338928</ele>
<time>2010-06-20T14:01:08Z</time>
<desc>lat.=55.888496, lon.=26.580301, Alt.=116.338928m. Speed=0.648000m/h.</desc>
<speed>0.180000</speed>
</trkpt>
<trkpt lat="55.888496" lon="26.580297">
<ele>116.356506</ele>
<time>2010-06-20T14:01:09Z</time>
<desc>lat.=55.888496, lon.=26.580297, Alt.=116.356506m. Speed=0.792000m/h.</desc>
<speed>0.220000</speed>
</trkpt>
<trkpt lat="55.888496" lon="26.580296">
<ele>116.374084</ele>
<time>2010-06-20T14:01:10Z</time>
<desc>lat.=55.888496, lon.=26.580296, Alt.=116.374084m. Speed=0.540000m/h.</desc>
<speed>0.150000</speed>
</trkpt>
<trkpt lat="55.888496" lon="26.580294">
<ele>116.399475</ele>
<time>2010-06-20T14:01:11Z</time>
<desc>lat.=55.888496, lon.=26.580294, Alt.=116.399475m. Speed=0.828000m/h.</desc>
<speed>0.230000</speed>
</trkpt>
<trkpt lat="55.888493" lon="26.580294">
<ele>116.426819</ele>
<time>2010-06-20T14:01:12Z</time>
<desc>lat.=55.888493, lon.=26.580294, Alt.=116.426819m. Speed=0.468000m/h.</desc>
<speed>0.130000</speed>
</trkpt>
<trkpt lat="55.888493" lon="26.580294">
<ele>116.450256</ele>
<time>2010-06-20T14:01:13Z</time>
<desc>lat.=55.888493, lon.=26.580294, Alt.=116.450256m. Speed=0.216000m/h.</desc>
<speed>0.060000</speed>
</trkpt>
<trkpt lat="55.888493" lon="26.580294">
<ele>116.461975</ele>
<time>2010-06-20T14:01:14Z</time>
<desc>lat.=55.888493, lon.=26.580294, Alt.=116.461975m. Speed=1.332000m/h.</desc>
<speed>0.370000</speed>
</trkpt>
<trkpt lat="55.888493" lon="26.580288">
<ele>116.458069</ele>
<time>2010-06-20T14:01:15Z</time>
<desc>lat.=55.888493, lon.=26.580288, Alt.=116.458069m. Speed=0.252000m/h.</desc>
<speed>0.070000</speed>
</trkpt>
<trkpt lat="55.888493" lon="26.580288">
<ele>116.434631</ele>
<time>2010-06-20T14:01:16Z</time>
<desc>lat.=55.888493, lon.=26.580288, Alt.=116.434631m. Speed=0.252000m/h.</desc>
<speed>0.070000</speed>
</trkpt>
<trkpt lat="55.888493" lon="26.580286">
<ele>116.417053</ele>
<time>2010-06-20T14:01:17Z</time>
<desc>lat.=55.888493, lon.=26.580286, Alt.=116.417053m. Speed=0.468000m/h.</desc>
<speed>0.130000</speed>
</trkpt>
<trkpt lat="55.888493" lon="26.580286">
<ele>116.403381</ele>
<time>2010-06-20T14:01:18Z</time>
<desc>lat.=55.888493, lon.=26.580286, Alt.=116.403381m. Speed=0.252000m/h.</desc>
<speed>0.070000</speed>
</trkpt>
<trkpt lat="55.888489" lon="26.580286">
<ele>116.393616</ele>
<time>2010-06-20T14:01:19Z</time>
<desc>lat.=55.888489, lon.=26.580286, Alt.=116.393616m. Speed=0.288000m/h.</desc>
<speed>0.080000</speed>
</trkpt>
<trkpt lat="55.888489" lon="26.580286">
<ele>116.387756</ele>
<time>2010-06-20T14:01:20Z</time>
<desc>lat.=55.888489, lon.=26.580286, Alt.=116.387756m. Speed=0.324000m/h.</desc>
<speed>0.090000</speed>
</trkpt>
<trkpt lat="55.888489" lon="26.580284">
<ele>116.387756</ele>
<time>2010-06-20T14:01:21Z</time>
<desc>lat.=55.888489, lon.=26.580284, Alt.=116.387756m. Speed=0.504000m/h.</desc>
<speed>0.140000</speed>
</trkpt>
<trkpt lat="55.888489" lon="26.580282">
<ele>116.393616</ele>
<time>2010-06-20T14:01:22Z</time>
<desc>lat.=55.888489, lon.=26.580282, Alt.=116.393616m. Speed=0.288000m/h.</desc>
<speed>0.080000</speed>
</trkpt>
<trkpt lat="55.888489" lon="26.580282">
<ele>116.401428</ele>
<time>2010-06-20T14:01:23Z</time>
<desc>lat.=55.888489, lon.=26.580282, Alt.=116.401428m. Speed=0.756000m/h.</desc>
<speed>0.210000</speed>
</trkpt>
<trkpt lat="55.888493" lon="26.580278">
<ele>116.422913</ele>
<time>2010-06-20T14:01:24Z</time>
<desc>lat.=55.888493, lon.=26.580278, Alt.=116.422913m. Speed=1.008000m/h.</desc>
<speed>0.280000</speed>
</trkpt>
<trkpt lat="55.888493" lon="26.580276">
<ele>116.446350</ele>
<time>2010-06-20T14:01:25Z</time>
<desc>lat.=55.888493, lon.=26.580276, Alt.=116.446350m. Speed=0.828000m/h.</desc>
<speed>0.230000</speed>
</trkpt>
<trkpt lat="55.888496" lon="26.580275">
<ele>116.473694</ele>
<time>2010-06-20T14:01:26Z</time>
<desc>lat.=55.888496, lon.=26.580275, Alt.=116.473694m. Speed=0.828000m/h.</desc>
<speed>0.230000</speed>
</trkpt>
<trkpt lat="55.888496" lon="26.580273">
<ele>116.501038</ele>
<time>2010-06-20T14:01:27Z</time>
<desc>lat.=55.888496, lon.=26.580273, Alt.=116.501038m. Speed=1.332000m/h.</desc>
<speed>0.370000</speed>
</trkpt>
<trkpt lat="55.888500" lon="26.580271">
<ele>116.530334</ele>
<time>2010-06-20T14:01:28Z</time>
<desc>lat.=55.888500, lon.=26.580271, Alt.=116.530334m. Speed=1.620000m/h.</desc>
<speed>0.450000</speed>
</trkpt>
<trkpt lat="55.888504" lon="26.580271">
<ele>116.557678</ele>
<time>2010-06-20T14:01:29Z</time>
<desc>lat.=55.888504, lon.=26.580271, Alt.=116.557678m. Speed=1.188000m/h.</desc>
<speed>0.330000</speed>
</trkpt>
<trkpt lat="55.888508" lon="26.580267">
<ele>116.592834</ele>
<time>2010-06-20T14:01:30Z</time>
<desc>lat.=55.888508, lon.=26.580267, Alt.=116.592834m. Speed=1.656000m/h.</desc>
<speed>0.460000</speed>
</trkpt>
<trkpt lat="55.888512" lon="26.580265">
<ele>116.633850</ele>
<time>2010-06-20T14:01:31Z</time>
<desc>lat.=55.888512, lon.=26.580265, Alt.=116.633850m. Speed=1.260000m/h.</desc>
<speed>0.350000</speed>
</trkpt>
<trkpt lat="55.888515" lon="26.580263">
<ele>116.686584</ele>
<time>2010-06-20T14:01:32Z</time>
<desc>lat.=55.888515, lon.=26.580263, Alt.=116.686584m. Speed=1.368000m/h.</desc>
<speed>0.380000</speed>
</trkpt>
<trkpt lat="55.888519" lon="26.580259">
<ele>116.741272</ele>
<time>2010-06-20T14:01:33Z</time>
<desc>lat.=55.888519, lon.=26.580259, Alt.=116.741272m. Speed=1.764000m/h.</desc>
<speed>0.490000</speed>
</trkpt>
<trkpt lat="55.888527" lon="26.580256">
<ele>116.797913</ele>
<time>2010-06-20T14:01:34Z</time>
<desc>lat.=55.888527, lon.=26.580256, Alt.=116.797913m. Speed=1.548000m/h.</desc>
<speed>0.430000</speed>
</trkpt>
<trkpt lat="55.888531" lon="26.580254">
<ele>116.856506</ele>
<time>2010-06-20T14:01:35Z</time>
<desc>lat.=55.888531, lon.=26.580254, Alt.=116.856506m. Speed=1.620000m/h.</desc>
<speed>0.450000</speed>
</trkpt>
<trkpt lat="55.888535" lon="26.580250">
<ele>116.915100</ele>
<time>2010-06-20T14:01:36Z</time>
<desc>lat.=55.888535, lon.=26.580250, Alt.=116.915100m. Speed=1.908000m/h.</desc>
<speed>0.530000</speed>
</trkpt>
<trkpt lat="55.888538" lon="26.580246">
<ele>116.977600</ele>
<time>2010-06-20T14:01:37Z</time>
<desc>lat.=55.888538, lon.=26.580246, Alt.=116.977600m. Speed=1.872000m/h.</desc>
<speed>0.520000</speed>
</trkpt>
<trkpt lat="55.888542" lon="26.580242">
<ele>117.034241</ele>
<time>2010-06-20T14:01:38Z</time>
<desc>lat.=55.888542, lon.=26.580242, Alt.=117.034241m. Speed=0.468000m/h.</desc>
<speed>0.130000</speed>
</trkpt>
<trkpt lat="55.888542" lon="26.580240">
<ele>117.102600</ele>
<time>2010-06-20T14:01:39Z</time>
<desc>lat.=55.888542, lon.=26.580240, Alt.=117.102600m. Speed=0.252000m/h.</desc>
<speed>0.070000</speed>
</trkpt>
<trkpt lat="55.888542" lon="26.580240">
<ele>117.188538</ele>
<time>2010-06-20T14:01:40Z</time>
<desc>lat.=55.888542, lon.=26.580240, Alt.=117.188538m. Speed=0.216000m/h.</desc>
<speed>0.060000</speed>
</trkpt>
<trkpt lat="55.888546" lon="26.580240">
<ele>117.256897</ele>
<time>2010-06-20T14:01:41Z</time>
<desc>lat.=55.888546, lon.=26.580240, Alt.=117.256897m. Speed=1.368000m/h.</desc>
<speed>0.380000</speed>
</trkpt>
<trkpt lat="55.888542" lon="26.580238">
<ele>117.280334</ele>
<time>2010-06-20T14:01:42Z</time>
<desc>lat.=55.888542, lon.=26.580238, Alt.=117.280334m. Speed=1.944000m/h.</desc>
<speed>0.540000</speed>
</trkpt>
<trkpt lat="55.888538" lon="26.580231">
<ele>117.299866</ele>
<time>2010-06-20T14:01:43Z</time>
<desc>lat.=55.888538, lon.=26.580231, Alt.=117.299866m. Speed=1.800000m/h.</desc>
<speed>0.500000</speed>
</trkpt>
<trkpt lat="55.888531" lon="26.580231">
<ele>117.364319</ele>
<time>2010-06-20T14:01:44Z</time>
<desc>lat.=55.888531, lon.=26.580231, Alt.=117.364319m. Speed=2.808000m/h.</desc>
<speed>0.780000</speed>
</trkpt>
<trkpt lat="55.888523" lon="26.580231">
<ele>117.489319</ele>
<time>2010-06-20T14:01:45Z</time>
<desc>lat.=55.888523, lon.=26.580231, Alt.=117.489319m. Speed=1.548000m/h.</desc>
<speed>0.430000</speed>
</trkpt>
<trkpt lat="55.888519" lon="26.580233">
<ele>117.573303</ele>
<time>2010-06-20T14:01:46Z</time>
<desc>lat.=55.888519, lon.=26.580233, Alt.=117.573303m. Speed=0.216000m/h.</desc>
<speed>0.060000</speed>
</trkpt>
<trkpt lat="55.888519" lon="26.580233">
<ele>117.612366</ele>
<time>2010-06-20T14:01:47Z</time>
<desc>lat.=55.888519, lon.=26.580233, Alt.=117.612366m. Speed=0.036000m/h.</desc>
<speed>0.010000</speed>
</trkpt>
<trkpt lat="55.888519" lon="26.580235">
<ele>117.635803</ele>
<time>2010-06-20T14:01:48Z</time>
<desc>lat.=55.888519, lon.=26.580235, Alt.=117.635803m. Speed=0.036000m/h.</desc>
<speed>0.010000</speed>
</trkpt>
<trkpt lat="55.888519" lon="26.580235">
<ele>117.620178</ele>
<time>2010-06-20T14:01:49Z</time>
<desc>lat.=55.888519, lon.=26.580235, Alt.=117.620178m. Speed=0.036000m/h.</desc>
<speed>0.010000</speed>
</trkpt>
<trkpt lat="55.888519" lon="26.580235">
<ele>117.610413</ele>
<time>2010-06-20T14:01:50Z</time>
<desc>lat.=55.888519, lon.=26.580235, Alt.=117.610413m. Speed=0.072000m/h.</desc>
<speed>0.020000</speed>
</trkpt>
<trkpt lat="55.888519" lon="26.580235">
<ele>117.610413</ele>
<time>2010-06-20T14:01:51Z</time>
<desc>lat.=55.888519, lon.=26.580235, Alt.=117.610413m. Speed=0.072000m/h.</desc>
<speed>0.020000</speed>
</trkpt>
<trkpt lat="55.888519" lon="26.580235">
<ele>117.612366</ele>
<time>2010-06-20T14:01:52Z</time>
<desc>lat.=55.888519, lon.=26.580235, Alt.=117.612366m. Speed=0.144000m/h.</desc>
<speed>0.040000</speed>
</trkpt>
<trkpt lat="55.888519" lon="26.580235">
<ele>117.610413</ele>
<time>2010-06-20T14:01:53Z</time>
<desc>lat.=55.888519, lon.=26.580235, Alt.=117.610413m. Speed=0.864000m/h.</desc>
<speed>0.240000</speed>
</trkpt>
<trkpt lat="55.888519" lon="26.580231">
<ele>117.626038</ele>
<time>2010-06-20T14:01:54Z</time>
<desc>lat.=55.888519, lon.=26.580231, Alt.=117.626038m. Speed=1.800000m/h.</desc>
<speed>0.500000</speed>
</trkpt>
<trkpt lat="55.888523" lon="26.580227">
<ele>117.682678</ele>
<time>2010-06-20T14:01:55Z</time>
<desc>lat.=55.888523, lon.=26.580227, Alt.=117.682678m. Speed=0.036000m/h.</desc>
<speed>0.010000</speed>
</trkpt>
<trkpt lat="55.888523" lon="26.580227">
<ele>117.725647</ele>
<time>2010-06-20T14:01:56Z</time>
<desc>lat.=55.888523, lon.=26.580227, Alt.=117.725647m. Speed=0.180000m/h.</desc>
<speed>0.050000</speed>
</trkpt>
<trkpt lat="55.888523" lon="26.580227">
<ele>117.747131</ele>
<time>2010-06-20T14:01:57Z</time>
<desc>lat.=55.888523, lon.=26.580227, Alt.=117.747131m. Speed=0.144000m/h.</desc>
<speed>0.040000</speed>
</trkpt>
<trkpt lat="55.888523" lon="26.580227">
<ele>117.756897</ele>
<time>2010-06-20T14:01:58Z</time>
<desc>lat.=55.888523, lon.=26.580227, Alt.=117.756897m. Speed=0.360000m/h.</desc>
<speed>0.100000</speed>
</trkpt>
<trkpt lat="55.888523" lon="26.580225">
<ele>117.758850</ele>
<time>2010-06-20T14:01:59Z</time>
<desc>lat.=55.888523, lon.=26.580225, Alt.=117.758850m. Speed=0.576000m/h.</desc>
<speed>0.160000</speed>
</trkpt>
<trkpt lat="55.888523" lon="26.580227">
<ele>117.756897</ele>
<time>2010-06-20T14:02:00Z</time>
<desc>lat.=55.888523, lon.=26.580227, Alt.=117.756897m. Speed=0.468000m/h.</desc>
<speed>0.130000</speed>
</trkpt>
<trkpt lat="55.888523" lon="26.580229">
<ele>117.760803</ele>
<time>2010-06-20T14:02:01Z</time>
<desc>lat.=55.888523, lon.=26.580229, Alt.=117.760803m. Speed=0.036000m/h.</desc>
<speed>0.010000</speed>
</trkpt>
<trkpt lat="55.888523" lon="26.580229">
<ele>117.764709</ele>
<time>2010-06-20T14:02:02Z</time>
<desc>lat.=55.888523, lon.=26.580229, Alt.=117.764709m. Speed=0.216000m/h.</desc>
<speed>0.060000</speed>
</trkpt>
<trkpt lat="55.888523" lon="26.580229">
<ele>117.758850</ele>
<time>2010-06-20T14:02:03Z</time>
<desc>lat.=55.888523, lon.=26.580229, Alt.=117.758850m. Speed=0.072000m/h.</desc>
<speed>0.020000</speed>
</trkpt>
<trkpt lat="55.888523" lon="26.580229">
<ele>117.770569</ele>
<time>2010-06-20T14:02:04Z</time>
<desc>lat.=55.888523, lon.=26.580229, Alt.=117.770569m. Speed=0.108000m/h.</desc>
<speed>0.030000</speed>
</trkpt>
<trkpt lat="55.888523" lon="26.580229">
<ele>117.790100</ele>
<time>2010-06-20T14:02:05Z</time>
<desc>lat.=55.888523, lon.=26.580229, Alt.=117.790100m. Speed=0.072000m/h.</desc>
<speed>0.020000</speed>
</trkpt>
<trkpt lat="55.888523" lon="26.580229">
<ele>117.776428</ele>
<time>2010-06-20T14:02:06Z</time>
<desc>lat.=55.888523, lon.=26.580229, Alt.=117.776428m. Speed=0.036000m/h.</desc>
<speed>0.010000</speed>
</trkpt>
<trkpt lat="55.888523" lon="26.580229">
<ele>117.782288</ele>
<time>2010-06-20T14:02:07Z</time>
<desc>lat.=55.888523, lon.=26.580229, Alt.=117.782288m. Speed=0.000000m/h.</desc>
<speed>0.000000</speed>
</trkpt>
<trkpt lat="55.888523" lon="26.580231">
<ele>117.784241</ele>
<time>2010-06-20T14:02:08Z</time>
<desc>lat.=55.888523, lon.=26.580231, Alt.=117.784241m. Speed=0.108000m/h.</desc>
<speed>0.030000</speed>
</trkpt>
<trkpt lat="55.888523" lon="26.580231">
<ele>117.794006</ele>
<time>2010-06-20T14:02:09Z</time>
<desc>lat.=55.888523, lon.=26.580231, Alt.=117.794006m. Speed=0.072000m/h.</desc>
<speed>0.020000</speed>
</trkpt>
<trkpt lat="55.888523" lon="26.580231">
<ele>117.794006</ele>
<time>2010-06-20T14:02:10Z</time>
<desc>lat.=55.888523, lon.=26.580231, Alt.=117.794006m. Speed=0.144000m/h.</desc>
<speed>0.040000</speed>
</trkpt>
<trkpt lat="55.888523" lon="26.580229">
<ele>117.766663</ele>
<time>2010-06-20T14:02:11Z</time>
<desc>lat.=55.888523, lon.=26.580229, Alt.=117.766663m. Speed=0.036000m/h.</desc>
<speed>0.010000</speed>
</trkpt>
<trkpt lat="55.888523" lon="26.580229">
<ele>117.774475</ele>
<time>2010-06-20T14:02:12Z</time>
<desc>lat.=55.888523, lon.=26.580229, Alt.=117.774475m. Speed=0.180000m/h.</desc>
<speed>0.050000</speed>
</trkpt>
<trkpt lat="55.888523" lon="26.580229">
<ele>117.795959</ele>
<time>2010-06-20T14:02:13Z</time>
<desc>lat.=55.888523, lon.=26.580229, Alt.=117.795959m. Speed=0.360000m/h.</desc>
<speed>0.100000</speed>
</trkpt>
<trkpt lat="55.888523" lon="26.580231">
<ele>117.844788</ele>
<time>2010-06-20T14:02:14Z</time>
<desc>lat.=55.888523, lon.=26.580231, Alt.=117.844788m. Speed=0.072000m/h.</desc>
<speed>0.020000</speed>
</trkpt>
<trkpt lat="55.888523" lon="26.580231">
<ele>117.881897</ele>
<time>2010-06-20T14:02:15Z</time>
<desc>lat.=55.888523, lon.=26.580231, Alt.=117.881897m. Speed=0.072000m/h.</desc>
<speed>0.020000</speed>
</trkpt>
<trkpt lat="55.888523" lon="26.580231">
<ele>117.911194</ele>
<time>2010-06-20T14:02:16Z</time>
<desc>lat.=55.888523, lon.=26.580231, Alt.=117.911194m. Speed=0.036000m/h.</desc>
<speed>0.010000</speed>
</trkpt>
<trkpt lat="55.888523" lon="26.580231">
<ele>117.940491</ele>
<time>2010-06-20T14:02:17Z</time>
<desc>lat.=55.888523, lon.=26.580231, Alt.=117.940491m. Speed=0.000000m/h.</desc>
<speed>0.000000</speed>
</trkpt>
<trkpt lat="55.888523" lon="26.580231">
<ele>117.969788</ele>
<time>2010-06-20T14:02:18Z</time>
<desc>lat.=55.888523, lon.=26.580231, Alt.=117.969788m. Speed=0.036000m/h.</desc>
<speed>0.010000</speed>
</trkpt>
<trkpt lat="55.888523" lon="26.580231">
<ele>117.995178</ele>
<time>2010-06-20T14:02:19Z</time>
<desc>lat.=55.888523, lon.=26.580231, Alt.=117.995178m. Speed=0.072000m/h.</desc>
<speed>0.020000</speed>
</trkpt>
<trkpt lat="55.888523" lon="26.580231">
<ele>118.020569</ele>
<time>2010-06-20T14:02:20Z</time>
<desc>lat.=55.888523, lon.=26.580231, Alt.=118.020569m. Speed=0.108000m/h.</desc>
<speed>0.030000</speed>
</trkpt>
<trkpt lat="55.888523" lon="26.580231">
<ele>118.049866</ele>
<time>2010-06-20T14:02:21Z</time>
<desc>lat.=55.888523, lon.=26.580231, Alt.=118.049866m. Speed=0.072000m/h.</desc>
<speed>0.020000</speed>
</trkpt>
<trkpt lat="55.888523" lon="26.580231">
<ele>118.079163</ele>
<time>2010-06-20T14:02:22Z</time>
<desc>lat.=55.888523, lon.=26.580231, Alt.=118.079163m. Speed=0.180000m/h.</desc>
<speed>0.050000</speed>
</trkpt>
<trkpt lat="55.888523" lon="26.580231">
<ele>118.106506</ele>
<time>2010-06-20T14:02:23Z</time>
<desc>lat.=55.888523, lon.=26.580231, Alt.=118.106506m. Speed=0.144000m/h.</desc>
<speed>0.040000</speed>
</trkpt>
<trkpt lat="55.888523" lon="26.580231">
<ele>118.127991</ele>
<time>2010-06-20T14:02:24Z</time>
<desc>lat.=55.888523, lon.=26.580231, Alt.=118.127991m. Speed=0.144000m/h.</desc>
<speed>0.040000</speed>
</trkpt>
<trkpt lat="55.888523" lon="26.580231">
<ele>118.147522</ele>
<time>2010-06-20T14:02:25Z</time>
<desc>lat.=55.888523, lon.=26.580231, Alt.=118.147522m. Speed=0.000000m/h.</desc>
<speed>0.000000</speed>
</trkpt>
<trkpt lat="55.888523" lon="26.580231">
<ele>118.163147</ele>
<time>2010-06-20T14:02:26Z</time>
<desc>lat.=55.888523, lon.=26.580231, Alt.=118.163147m. Speed=0.036000m/h.</desc>
<speed>0.010000</speed>
</trkpt>
<trkpt lat="55.888523" lon="26.580231">
<ele>118.161194</ele>
<time>2010-06-20T14:02:27Z</time>
<desc>lat.=55.888523, lon.=26.580231, Alt.=118.161194m. Speed=0.144000m/h.</desc>
<speed>0.040000</speed>
</trkpt>
<trkpt lat="55.888523" lon="26.580231">
<ele>118.206116</ele>
<time>2010-06-20T14:02:28Z</time>
<desc>lat.=55.888523, lon.=26.580231, Alt.=118.206116m. Speed=0.216000m/h.</desc>
<speed>0.060000</speed>
</trkpt>
<trkpt lat="55.888523" lon="26.580233">
<ele>118.252991</ele>
<time>2010-06-20T14:02:29Z</time>
<desc>lat.=55.888523, lon.=26.580233, Alt.=118.252991m. Speed=0.072000m/h.</desc>
<speed>0.020000</speed>
</trkpt>
<trkpt lat="55.888523" lon="26.580233">
<ele>118.311584</ele>
<time>2010-06-20T14:02:30Z</time>
<desc>lat.=55.888523, lon.=26.580233, Alt.=118.311584m. Speed=0.072000m/h.</desc>
<speed>0.020000</speed>
</trkpt>
<trkpt lat="55.888523" lon="26.580233">
<ele>118.325256</ele>
<time>2010-06-20T14:02:31Z</time>
<desc>lat.=55.888523, lon.=26.580233, Alt.=118.325256m. Speed=0.072000m/h.</desc>
<speed>0.020000</speed>
</trkpt>
<trkpt lat="55.888523" lon="26.580233">
<ele>118.335022</ele>
<time>2010-06-20T14:02:32Z</time>
<desc>lat.=55.888523, lon.=26.580233, Alt.=118.335022m. Speed=0.072000m/h.</desc>
<speed>0.020000</speed>
</trkpt>
<trkpt lat="55.888523" lon="26.580233">
<ele>118.344788</ele>
<time>2010-06-20T14:02:33Z</time>
<desc>lat.=55.888523, lon.=26.580233, Alt.=118.344788m. Speed=0.144000m/h.</desc>
<speed>0.040000</speed>
</trkpt>
<trkpt lat="55.888523" lon="26.580235">
<ele>118.352600</ele>
<time>2010-06-20T14:02:34Z</time>
<desc>lat.=55.888523, lon.=26.580235, Alt.=118.352600m. Speed=0.072000m/h.</desc>
<speed>0.020000</speed>
</trkpt>
<trkpt lat="55.888523" lon="26.580235">
<ele>118.350647</ele>
<time>2010-06-20T14:02:35Z</time>
<desc>lat.=55.888523, lon.=26.580235, Alt.=118.350647m. Speed=0.000000m/h.</desc>
<speed>0.000000</speed>
</trkpt>
<trkpt lat="55.888523" lon="26.580235">
<ele>118.354553</ele>
<time>2010-06-20T14:02:36Z</time>
<desc>lat.=55.888523, lon.=26.580235, Alt.=118.354553m. Speed=0.000000m/h.</desc>
<speed>0.000000</speed>
</trkpt>
<trkpt lat="55.888523" lon="26.580235">
<ele>118.360413</ele>
<time>2010-06-20T14:02:37Z</time>
<desc>lat.=55.888523, lon.=26.580235, Alt.=118.360413m. Speed=0.000000m/h.</desc>
<speed>0.000000</speed>
</trkpt>
<trkpt lat="55.888523" lon="26.580235">
<ele>118.364319</ele>
<time>2010-06-20T14:02:38Z</time>
<desc>lat.=55.888523, lon.=26.580235, Alt.=118.364319m. Speed=0.036000m/h.</desc>
<speed>0.010000</speed>
</trkpt>
<trkpt lat="55.888523" lon="26.580235">
<ele>118.368225</ele>
<time>2010-06-20T14:02:39Z</time>
<desc>lat.=55.888523, lon.=26.580235, Alt.=118.368225m. Speed=0.000000m/h.</desc>
<speed>0.000000</speed>
</trkpt>
<trkpt lat="55.888523" lon="26.580235">
<ele>118.372131</ele>
<time>2010-06-20T14:02:40Z</time>
<desc>lat.=55.888523, lon.=26.580235, Alt.=118.372131m. Speed=0.036000m/h.</desc>
<speed>0.010000</speed>
</trkpt>
<trkpt lat="55.888523" lon="26.580235">
<ele>118.374084</ele>
<time>2010-06-20T14:02:41Z</time>
<desc>lat.=55.888523, lon.=26.580235, Alt.=118.374084m. Speed=0.036000m/h.</desc>
<speed>0.010000</speed>
</trkpt>
<trkpt lat="55.888523" lon="26.580235">
<ele>118.372131</ele>
<time>2010-06-20T14:02:42Z</time>
<desc>lat.=55.888523, lon.=26.580235, Alt.=118.372131m. Speed=0.000000m/h.</desc>
<speed>0.000000</speed>
</trkpt>
<trkpt lat="55.888523" lon="26.580235">
<ele>118.370178</ele>
<time>2010-06-20T14:02:43Z</time>
<desc>lat.=55.888523, lon.=26.580235, Alt.=118.370178m. Speed=0.036000m/h.</desc>
<speed>0.010000</speed>
</trkpt>
<trkpt lat="55.888523" lon="26.580235">
<ele>118.374084</ele>
<time>2010-06-20T14:02:44Z</time>
<desc>lat.=55.888523, lon.=26.580235, Alt.=118.374084m. Speed=0.000000m/h.</desc>
<speed>0.000000</speed>
</trkpt>
<trkpt lat="55.888523" lon="26.580235">
<ele>118.374084</ele>
<time>2010-06-20T14:02:45Z</time>
<desc>lat.=55.888523, lon.=26.580235, Alt.=118.374084m. Speed=0.108000m/h.</desc>
<speed>0.030000</speed>
</trkpt>
<trkpt lat="55.888523" lon="26.580235">
<ele>118.376038</ele>
<time>2010-06-20T14:02:46Z</time>
<desc>lat.=55.888523, lon.=26.580235, Alt.=118.376038m. Speed=0.036000m/h.</desc>
<speed>0.010000</speed>
</trkpt>
<trkpt lat="55.888523" lon="26.580235">
<ele>118.379944</ele>
<time>2010-06-20T14:02:47Z</time>
<desc>lat.=55.888523, lon.=26.580235, Alt.=118.379944m. Speed=0.000000m/h.</desc>
<speed>0.000000</speed>
</trkpt>
<trkpt lat="55.888523" lon="26.580235">
<ele>118.381897</ele>
<time>2010-06-20T14:02:48Z</time>
<desc>lat.=55.888523, lon.=26.580235, Alt.=118.381897m. Speed=0.036000m/h.</desc>
<speed>0.010000</speed>
</trkpt>
<trkpt lat="55.888523" lon="26.580235">
<ele>118.387756</ele>
<time>2010-06-20T14:02:49Z</time>
<desc>lat.=55.888523, lon.=26.580235, Alt.=118.387756m. Speed=0.000000m/h.</desc>
<speed>0.000000</speed>
</trkpt>
<trkpt lat="55.888523" lon="26.580235">
<ele>118.393616</ele>
<time>2010-06-20T14:02:50Z</time>
<desc>lat.=55.888523, lon.=26.580235, Alt.=118.393616m. Speed=0.036000m/h.</desc>
<speed>0.010000</speed>
</trkpt>
<trkpt lat="55.888523" lon="26.580235">
<ele>118.401428</ele>
<time>2010-06-20T14:02:51Z</time>
<desc>lat.=55.888523, lon.=26.580235, Alt.=118.401428m. Speed=0.000000m/h.</desc>
<speed>0.000000</speed>
</trkpt>
<trkpt lat="55.888523" lon="26.580236">
<ele>118.409241</ele>
<time>2010-06-20T14:02:52Z</time>
<desc>lat.=55.888523, lon.=26.580236, Alt.=118.409241m. Speed=0.036000m/h.</desc>
<speed>0.010000</speed>
</trkpt>
<trkpt lat="55.888523" lon="26.580236">
<ele>118.413147</ele>
<time>2010-06-20T14:02:53Z</time>
<desc>lat.=55.888523, lon.=26.580236, Alt.=118.413147m. Speed=0.036000m/h.</desc>
<speed>0.010000</speed>
</trkpt>
<trkpt lat="55.888523" lon="26.580236">
<ele>118.419006</ele>
<time>2010-06-20T14:02:54Z</time>
<desc>lat.=55.888523, lon.=26.580236, Alt.=118.419006m. Speed=0.036000m/h.</desc>
<speed>0.010000</speed>
</trkpt>
<trkpt lat="55.888523" lon="26.580236">
<ele>118.426819</ele>
<time>2010-06-20T14:02:55Z</time>
<desc>lat.=55.888523, lon.=26.580236, Alt.=118.426819m. Speed=0.072000m/h.</desc>
<speed>0.020000</speed>
</trkpt>
<trkpt lat="55.888523" lon="26.580236">
<ele>118.436584</ele>
<time>2010-06-20T14:02:56Z</time>
<desc>lat.=55.888523, lon.=26.580236, Alt.=118.436584m. Speed=0.036000m/h.</desc>
<speed>0.010000</speed>
</trkpt>
<trkpt lat="55.888523" lon="26.580236">
<ele>118.442444</ele>
<time>2010-06-20T14:02:57Z</time>
<desc>lat.=55.888523, lon.=26.580236, Alt.=118.442444m. Speed=0.216000m/h.</desc>
<speed>0.060000</speed>
</trkpt>
<trkpt lat="55.888523" lon="26.580236">
<ele>118.444397</ele>
<time>2010-06-20T14:02:58Z</time>
<desc>lat.=55.888523, lon.=26.580236, Alt.=118.444397m. Speed=0.000000m/h.</desc>
<speed>0.000000</speed>
</trkpt>
<trkpt lat="55.888523" lon="26.580236">
<ele>118.440491</ele>
<time>2010-06-20T14:02:59Z</time>
<desc>lat.=55.888523, lon.=26.580236, Alt.=118.440491m. Speed=0.396000m/h.</desc>
<speed>0.110000</speed>
</trkpt>
<trkpt lat="55.888523" lon="26.580236">
<ele>118.440491</ele>
<time>2010-06-20T14:03:00Z</time>
<desc>lat.=55.888523, lon.=26.580236, Alt.=118.440491m. Speed=0.108000m/h.</desc>
<speed>0.030000</speed>
</trkpt>
<trkpt lat="55.888523" lon="26.580236">
<ele>118.413147</ele>
<time>2010-06-20T14:03:01Z</time>
<desc>lat.=55.888523, lon.=26.580236, Alt.=118.413147m. Speed=0.432000m/h.</desc>
<speed>0.120000</speed>
</trkpt>
<trkpt lat="55.888523" lon="26.580236">
<ele>118.411194</ele>
<time>2010-06-20T14:03:02Z</time>
<desc>lat.=55.888523, lon.=26.580236, Alt.=118.411194m. Speed=0.108000m/h.</desc>
<speed>0.030000</speed>
</trkpt>
<trkpt lat="55.888523" lon="26.580236">
<ele>118.411194</ele>
<time>2010-06-20T14:03:03Z</time>
<desc>lat.=55.888523, lon.=26.580236, Alt.=118.411194m. Speed=0.288000m/h.</desc>
<speed>0.080000</speed>
</trkpt>
<trkpt lat="55.888523" lon="26.580236">
<ele>118.413147</ele>
<time>2010-06-20T14:03:04Z</time>
<desc>lat.=55.888523, lon.=26.580236, Alt.=118.413147m. Speed=0.108000m/h.</desc>
<speed>0.030000</speed>
</trkpt>
<trkpt lat="55.888523" lon="26.580236">
<ele>118.415100</ele>
<time>2010-06-20T14:03:05Z</time>
<desc>lat.=55.888523, lon.=26.580236, Alt.=118.415100m. Speed=0.180000m/h.</desc>
<speed>0.050000</speed>
</trkpt>
<trkpt lat="55.888523" lon="26.580236">
<ele>118.420959</ele>
<time>2010-06-20T14:03:06Z</time>
<desc>lat.=55.888523, lon.=26.580236, Alt.=118.420959m. Speed=0.036000m/h.</desc>
<speed>0.010000</speed>
</trkpt>
<trkpt lat="55.888523" lon="26.580236">
<ele>118.424866</ele>
<time>2010-06-20T14:03:07Z</time>
<desc>lat.=55.888523, lon.=26.580236, Alt.=118.424866m. Speed=0.000000m/h.</desc>
<speed>0.000000</speed>
</trkpt>
<trkpt lat="55.888523" lon="26.580236">
<ele>118.426819</ele>
<time>2010-06-20T14:03:08Z</time>
<desc>lat.=55.888523, lon.=26.580236, Alt.=118.426819m. Speed=0.036000m/h.</desc>
<speed>0.010000</speed>
</trkpt>
<trkpt lat="55.888523" lon="26.580236">
<ele>118.428772</ele>
<time>2010-06-20T14:03:09Z</time>
<desc>lat.=55.888523, lon.=26.580236, Alt.=118.428772m. Speed=0.036000m/h.</desc>
<speed>0.010000</speed>
</trkpt>
<trkpt lat="55.888523" lon="26.580236">
<ele>118.432678</ele>
<time>2010-06-20T14:03:10Z</time>
<desc>lat.=55.888523, lon.=26.580236, Alt.=118.432678m. Speed=0.036000m/h.</desc>
<speed>0.010000</speed>
</trkpt>
<trkpt lat="55.888523" lon="26.580236">
<ele>118.432678</ele>
<time>2010-06-20T14:03:11Z</time>
<desc>lat.=55.888523, lon.=26.580236, Alt.=118.432678m. Speed=0.072000m/h.</desc>
<speed>0.020000</speed>
</trkpt>
<trkpt lat="55.888523" lon="26.580236">
<ele>118.430725</ele>
<time>2010-06-20T14:03:12Z</time>
<desc>lat.=55.888523, lon.=26.580236, Alt.=118.430725m. Speed=0.072000m/h.</desc>
<speed>0.020000</speed>
</trkpt>
<trkpt lat="55.888523" lon="26.580236">
<ele>118.434631</ele>
<time>2010-06-20T14:03:13Z</time>
<desc>lat.=55.888523, lon.=26.580236, Alt.=118.434631m. Speed=0.072000m/h.</desc>
<speed>0.020000</speed>
</trkpt>
<trkpt lat="55.888523" lon="26.580236">
<ele>118.432678</ele>
<time>2010-06-20T14:03:14Z</time>
<desc>lat.=55.888523, lon.=26.580236, Alt.=118.432678m. Speed=0.036000m/h.</desc>
<speed>0.010000</speed>
</trkpt>
<trkpt lat="55.888523" lon="26.580236">
<ele>118.434631</ele>
<time>2010-06-20T14:03:15Z</time>
<desc>lat.=55.888523, lon.=26.580236, Alt.=118.434631m. Speed=0.036000m/h.</desc>
<speed>0.010000</speed>
</trkpt>
<trkpt lat="55.888523" lon="26.580236">
<ele>118.434631</ele>
<time>2010-06-20T14:03:16Z</time>
<desc>lat.=55.888523, lon.=26.580236, Alt.=118.434631m. Speed=0.036000m/h.</desc>
<speed>0.010000</speed>
</trkpt>
<trkpt lat="55.888523" lon="26.580236">
<ele>118.440491</ele>
<time>2010-06-20T14:03:17Z</time>
<desc>lat.=55.888523, lon.=26.580236, Alt.=118.440491m. Speed=0.432000m/h.</desc>
<speed>0.120000</speed>
</trkpt>
<trkpt lat="55.888523" lon="26.580236">
<ele>118.440491</ele>
<time>2010-06-20T14:03:18Z</time>
<desc>lat.=55.888523, lon.=26.580236, Alt.=118.440491m. Speed=1.224000m/h.</desc>
<speed>0.340000</speed>
</trkpt>
<trkpt lat="55.888527" lon="26.580238">
<ele>118.446350</ele>
<time>2010-06-20T14:03:19Z</time>
<desc>lat.=55.888527, lon.=26.580238, Alt.=118.446350m. Speed=0.576000m/h.</desc>
<speed>0.160000</speed>
</trkpt>
<trkpt lat="55.888527" lon="26.580240">
<ele>118.432678</ele>
<time>2010-06-20T14:03:20Z</time>
<desc>lat.=55.888527, lon.=26.580240, Alt.=118.432678m. Speed=1.044000m/h.</desc>
<speed>0.290000</speed>
</trkpt>
<trkpt lat="55.888527" lon="26.580240">
<ele>118.422913</ele>
<time>2010-06-20T14:03:21Z</time>
<desc>lat.=55.888527, lon.=26.580240, Alt.=118.422913m. Speed=0.108000m/h.</desc>
<speed>0.030000</speed>
</trkpt>
<trkpt lat="55.888527" lon="26.580240">
<ele>118.422913</ele>
<time>2010-06-20T14:03:22Z</time>
<desc>lat.=55.888527, lon.=26.580240, Alt.=118.422913m. Speed=0.000000m/h.</desc>
<speed>0.000000</speed>
</trkpt>
<trkpt lat="55.888527" lon="26.580240">
<ele>118.424866</ele>
<time>2010-06-20T14:03:23Z</time>
<desc>lat.=55.888527, lon.=26.580240, Alt.=118.424866m. Speed=0.072000m/h.</desc>
<speed>0.020000</speed>
</trkpt>
<trkpt lat="55.888527" lon="26.580240">
<ele>118.426819</ele>
<time>2010-06-20T14:03:24Z</time>
<desc>lat.=55.888527, lon.=26.580240, Alt.=118.426819m. Speed=0.072000m/h.</desc>
<speed>0.020000</speed>
</trkpt>
<trkpt lat="55.888527" lon="26.580240">
<ele>118.428772</ele>
<time>2010-06-20T14:03:25Z</time>
<desc>lat.=55.888527, lon.=26.580240, Alt.=118.428772m. Speed=0.072000m/h.</desc>
<speed>0.020000</speed>
</trkpt>
<trkpt lat="55.888527" lon="26.580240">
<ele>118.430725</ele>
<time>2010-06-20T14:03:26Z</time>
<desc>lat.=55.888527, lon.=26.580240, Alt.=118.430725m. Speed=0.036000m/h.</desc>
<speed>0.010000</speed>
</trkpt>
<trkpt lat="55.888527" lon="26.580240">
<ele>118.430725</ele>
<time>2010-06-20T14:03:27Z</time>
<desc>lat.=55.888527, lon.=26.580240, Alt.=118.430725m. Speed=0.000000m/h.</desc>
<speed>0.000000</speed>
</trkpt>
<trkpt lat="55.888527" lon="26.580240">
<ele>118.432678</ele>
<time>2010-06-20T14:03:28Z</time>
<desc>lat.=55.888527, lon.=26.580240, Alt.=118.432678m. Speed=0.036000m/h.</desc>
<speed>0.010000</speed>
</trkpt>
<trkpt lat="55.888527" lon="26.580240">
<ele>118.434631</ele>
<time>2010-06-20T14:03:29Z</time>
<desc>lat.=55.888527, lon.=26.580240, Alt.=118.434631m. Speed=0.072000m/h.</desc>
<speed>0.020000</speed>
</trkpt>
<trkpt lat="55.888527" lon="26.580240">
<ele>118.434631</ele>
<time>2010-06-20T14:03:30Z</time>
<desc>lat.=55.888527, lon.=26.580240, Alt.=118.434631m. Speed=0.180000m/h.</desc>
<speed>0.050000</speed>
</trkpt>
<trkpt lat="55.888527" lon="26.580240">
<ele>118.434631</ele>
<time>2010-06-20T14:03:31Z</time>
<desc>lat.=55.888527, lon.=26.580240, Alt.=118.434631m. Speed=0.072000m/h.</desc>
<speed>0.020000</speed>
</trkpt>
<trkpt lat="55.888527" lon="26.580240">
<ele>118.436584</ele>
<time>2010-06-20T14:03:32Z</time>
<desc>lat.=55.888527, lon.=26.580240, Alt.=118.436584m. Speed=0.108000m/h.</desc>
<speed>0.030000</speed>
</trkpt>
<trkpt lat="55.888527" lon="26.580240">
<ele>118.440491</ele>
<time>2010-06-20T14:03:33Z</time>
<desc>lat.=55.888527, lon.=26.580240, Alt.=118.440491m. Speed=0.108000m/h.</desc>
<speed>0.030000</speed>
</trkpt>
<trkpt lat="55.888527" lon="26.580240">
<ele>118.440491</ele>
<time>2010-06-20T14:03:34Z</time>
<desc>lat.=55.888527, lon.=26.580240, Alt.=118.440491m. Speed=0.036000m/h.</desc>
<speed>0.010000</speed>
</trkpt>
<trkpt lat="55.888527" lon="26.580240">
<ele>118.442444</ele>
<time>2010-06-20T14:03:35Z</time>
<desc>lat.=55.888527, lon.=26.580240, Alt.=118.442444m. Speed=0.144000m/h.</desc>
<speed>0.040000</speed>
</trkpt>
<trkpt lat="55.888527" lon="26.580240">
<ele>118.444397</ele>
<time>2010-06-20T14:03:36Z</time>
<desc>lat.=55.888527, lon.=26.580240, Alt.=118.444397m. Speed=0.036000m/h.</desc>
<speed>0.010000</speed>
</trkpt>
<trkpt lat="55.888527" lon="26.580240">
<ele>118.444397</ele>
<time>2010-06-20T14:03:37Z</time>
<desc>lat.=55.888527, lon.=26.580240, Alt.=118.444397m. Speed=0.036000m/h.</desc>
<speed>0.010000</speed>
</trkpt>
<trkpt lat="55.888527" lon="26.580240">
<ele>118.446350</ele>
<time>2010-06-20T14:03:38Z</time>
<desc>lat.=55.888527, lon.=26.580240, Alt.=118.446350m. Speed=0.036000m/h.</desc>
<speed>0.010000</speed>
</trkpt>
<trkpt lat="55.888527" lon="26.580240">
<ele>118.444397</ele>
<time>2010-06-20T14:03:39Z</time>
<desc>lat.=55.888527, lon.=26.580240, Alt.=118.444397m. Speed=0.108000m/h.</desc>
<speed>0.030000</speed>
</trkpt>
<trkpt lat="55.888527" lon="26.580240">
<ele>118.434631</ele>
<time>2010-06-20T14:03:40Z</time>
<desc>lat.=55.888527, lon.=26.580240, Alt.=118.434631m. Speed=0.000000m/h.</desc>
<speed>0.000000</speed>
</trkpt>
<trkpt lat="55.888527" lon="26.580240">
<ele>118.434631</ele>
<time>2010-06-20T14:03:41Z</time>
<desc>lat.=55.888527, lon.=26.580240, Alt.=118.434631m. Speed=0.000000m/h.</desc>
<speed>0.000000</speed>
</trkpt>
<trkpt lat="55.888527" lon="26.580240">
<ele>118.432678</ele>
<time>2010-06-20T14:03:42Z</time>
<desc>lat.=55.888527, lon.=26.580240, Alt.=118.432678m. Speed=0.000000m/h.</desc>
<speed>0.000000</speed>
</trkpt>
<trkpt lat="55.888527" lon="26.580240">
<ele>118.426819</ele>
<time>2010-06-20T14:03:43Z</time>
<desc>lat.=55.888527, lon.=26.580240, Alt.=118.426819m. Speed=0.108000m/h.</desc>
<speed>0.030000</speed>
</trkpt>
<trkpt lat="55.888527" lon="26.580240">
<ele>118.422913</ele>
<time>2010-06-20T14:03:44Z</time>
<desc>lat.=55.888527, lon.=26.580240, Alt.=118.422913m. Speed=0.144000m/h.</desc>
<speed>0.040000</speed>
</trkpt>
<trkpt lat="55.888527" lon="26.580240">
<ele>118.424866</ele>
<time>2010-06-20T14:03:45Z</time>
<desc>lat.=55.888527, lon.=26.580240, Alt.=118.424866m. Speed=0.000000m/h.</desc>
<speed>0.000000</speed>
</trkpt>
<trkpt lat="55.888527" lon="26.580240">
<ele>118.430725</ele>
<time>2010-06-20T14:03:46Z</time>
<desc>lat.=55.888527, lon.=26.580240, Alt.=118.430725m. Speed=0.180000m/h.</desc>
<speed>0.050000</speed>
</trkpt>
<trkpt lat="55.888527" lon="26.580240">
<ele>118.432678</ele>
<time>2010-06-20T14:03:47Z</time>
<desc>lat.=55.888527, lon.=26.580240, Alt.=118.432678m. Speed=0.036000m/h.</desc>
<speed>0.010000</speed>
</trkpt>
<trkpt lat="55.888527" lon="26.580240">
<ele>118.436584</ele>
<time>2010-06-20T14:03:48Z</time>
<desc>lat.=55.888527, lon.=26.580240, Alt.=118.436584m. Speed=0.180000m/h.</desc>
<speed>0.050000</speed>
</trkpt>
<trkpt lat="55.888527" lon="26.580240">
<ele>118.438538</ele>
<time>2010-06-20T14:03:49Z</time>
<desc>lat.=55.888527, lon.=26.580240, Alt.=118.438538m. Speed=0.072000m/h.</desc>
<speed>0.020000</speed>
</trkpt>
<trkpt lat="55.888527" lon="26.580240">
<ele>118.438538</ele>
<time>2010-06-20T14:03:50Z</time>
<desc>lat.=55.888527, lon.=26.580240, Alt.=118.438538m. Speed=0.000000m/h.</desc>
<speed>0.000000</speed>
</trkpt>
<trkpt lat="55.888527" lon="26.580240">
<ele>118.436584</ele>
<time>2010-06-20T14:03:51Z</time>
<desc>lat.=55.888527, lon.=26.580240, Alt.=118.436584m. Speed=0.000000m/h.</desc>
<speed>0.000000</speed>
</trkpt>
<trkpt lat="55.888527" lon="26.580240">
<ele>118.436584</ele>
<time>2010-06-20T14:03:52Z</time>
<desc>lat.=55.888527, lon.=26.580240, Alt.=118.436584m. Speed=0.000000m/h.</desc>
<speed>0.000000</speed>
</trkpt>
<trkpt lat="55.888527" lon="26.580240">
<ele>118.436584</ele>
<time>2010-06-20T14:03:53Z</time>
<desc>lat.=55.888527, lon.=26.580240, Alt.=118.436584m. Speed=0.000000m/h.</desc>
<speed>0.000000</speed>
</trkpt>
<trkpt lat="55.888527" lon="26.580240">
<ele>118.436584</ele>
<time>2010-06-20T14:03:54Z</time>
<desc>lat.=55.888527, lon.=26.580240, Alt.=118.436584m. Speed=0.000000m/h.</desc>
<speed>0.000000</speed>
</trkpt>
<trkpt lat="55.888527" lon="26.580240">
<ele>118.436584</ele>
<time>2010-06-20T14:03:55Z</time>
<desc>lat.=55.888527, lon.=26.580240, Alt.=118.436584m. Speed=0.036000m/h.</desc>
<speed>0.010000</speed>
</trkpt>
<trkpt lat="55.888527" lon="26.580240">
<ele>118.436584</ele>
<time>2010-06-20T14:03:56Z</time>
<desc>lat.=55.888527, lon.=26.580240, Alt.=118.436584m. Speed=0.036000m/h.</desc>
<speed>0.010000</speed>
</trkpt>
<trkpt lat="55.888527" lon="26.580240">
<ele>118.436584</ele>
<time>2010-06-20T14:03:57Z</time>
<desc>lat.=55.888527, lon.=26.580240, Alt.=118.436584m. Speed=0.000000m/h.</desc>
<speed>0.000000</speed>
</trkpt>
<trkpt lat="55.888527" lon="26.580240">
<ele>118.436584</ele>
<time>2010-06-20T14:03:58Z</time>
<desc>lat.=55.888527, lon.=26.580240, Alt.=118.436584m. Speed=0.000000m/h.</desc>
<speed>0.000000</speed>
</trkpt>
<trkpt lat="55.888523" lon="26.580240">
<ele>118.436584</ele>
<time>2010-06-20T14:03:59Z</time>
<desc>lat.=55.888523, lon.=26.580240, Alt.=118.436584m. Speed=0.072000m/h.</desc>
<speed>0.020000</speed>
</trkpt>
<trkpt lat="55.888523" lon="26.580240">
<ele>118.436584</ele>
<time>2010-06-20T14:04:00Z</time>
<desc>lat.=55.888523, lon.=26.580240, Alt.=118.436584m. Speed=0.036000m/h.</desc>
<speed>0.010000</speed>
</trkpt>
<trkpt lat="55.888523" lon="26.580240">
<ele>118.436584</ele>
<time>2010-06-20T14:04:01Z</time>
<desc>lat.=55.888523, lon.=26.580240, Alt.=118.436584m. Speed=0.072000m/h.</desc>
<speed>0.020000</speed>
</trkpt>
<trkpt lat="55.888523" lon="26.580240">
<ele>118.432678</ele>
<time>2010-06-20T14:04:02Z</time>
<desc>lat.=55.888523, lon.=26.580240, Alt.=118.432678m. Speed=0.432000m/h.</desc>
<speed>0.120000</speed>
</trkpt>
<trkpt lat="55.888523" lon="26.580240">
<ele>118.430725</ele>
<time>2010-06-20T14:04:03Z</time>
<desc>lat.=55.888523, lon.=26.580240, Alt.=118.430725m. Speed=0.288000m/h.</desc>
<speed>0.080000</speed>
</trkpt>
<trkpt lat="55.888527" lon="26.580238">
<ele>118.428772</ele>
<time>2010-06-20T14:04:04Z</time>
<desc>lat.=55.888527, lon.=26.580238, Alt.=118.428772m. Speed=0.504000m/h.</desc>
<speed>0.140000</speed>
</trkpt>
<trkpt lat="55.888527" lon="26.580236">
<ele>118.422913</ele>
<time>2010-06-20T14:04:05Z</time>
<desc>lat.=55.888527, lon.=26.580236, Alt.=118.422913m. Speed=4.968000m/h.</desc>
<speed>1.380000</speed>
</trkpt>
<trkpt lat="55.888538" lon="26.580236">
<ele>118.502991</ele>
<time>2010-06-20T14:04:06Z</time>
<desc>lat.=55.888538, lon.=26.580236, Alt.=118.502991m. Speed=5.148000m/h.</desc>
<speed>1.430000</speed>
</trkpt>
<trkpt lat="55.888550" lon="26.580236">
<ele>118.713928</ele>
<time>2010-06-20T14:04:07Z</time>
<desc>lat.=55.888550, lon.=26.580236, Alt.=118.713928m. Speed=6.120000m/h.</desc>
<speed>1.700000</speed>
</trkpt>
<trkpt lat="55.888561" lon="26.580242">
<ele>118.514709</ele>
<time>2010-06-20T14:04:08Z</time>
<desc>lat.=55.888561, lon.=26.580242, Alt.=118.514709m. Speed=6.084000m/h.</desc>
<speed>1.690000</speed>
</trkpt>
<trkpt lat="55.888580" lon="26.580246">
<ele>118.450256</ele>
<time>2010-06-20T14:04:09Z</time>
<desc>lat.=55.888580, lon.=26.580246, Alt.=118.450256m. Speed=9.612000m/h.</desc>
<speed>2.670000</speed>
</trkpt>
<trkpt lat="55.888607" lon="26.580252">
<ele>118.299866</ele>
<time>2010-06-20T14:04:10Z</time>
<desc>lat.=55.888607, lon.=26.580252, Alt.=118.299866m. Speed=11.340000m/h.</desc>
<speed>3.150000</speed>
</trkpt>
<trkpt lat="55.888634" lon="26.580257">
<ele>118.167053</ele>
<time>2010-06-20T14:04:11Z</time>
<desc>lat.=55.888634, lon.=26.580257, Alt.=118.167053m. Speed=12.132000m/h.</desc>
<speed>3.370000</speed>
</trkpt>
<trkpt lat="55.888668" lon="26.580265">
<ele>118.008850</ele>
<time>2010-06-20T14:04:12Z</time>
<desc>lat.=55.888668, lon.=26.580265, Alt.=118.008850m. Speed=13.680000m/h.</desc>
<speed>3.800000</speed>
</trkpt>
<trkpt lat="55.888699" lon="26.580275">
<ele>118.307678</ele>
<time>2010-06-20T14:04:13Z</time>
<desc>lat.=55.888699, lon.=26.580275, Alt.=118.307678m. Speed=13.680000m/h.</desc>
<speed>3.800000</speed>
</trkpt>
<trkpt lat="55.888733" lon="26.580276">
<ele>118.598694</ele>
<time>2010-06-20T14:04:14Z</time>
<desc>lat.=55.888733, lon.=26.580276, Alt.=118.598694m. Speed=12.132000m/h.</desc>
<speed>3.370000</speed>
</trkpt>
<trkpt lat="55.888767" lon="26.580284">
<ele>118.731506</ele>
<time>2010-06-20T14:04:15Z</time>
<desc>lat.=55.888767, lon.=26.580284, Alt.=118.731506m. Speed=13.104000m/h.</desc>
<speed>3.640000</speed>
</trkpt>
<trkpt lat="55.888798" lon="26.580294">
<ele>118.770569</ele>
<time>2010-06-20T14:04:16Z</time>
<desc>lat.=55.888798, lon.=26.580294, Alt.=118.770569m. Speed=12.024000m/h.</desc>
<speed>3.340000</speed>
</trkpt>
<trkpt lat="55.888832" lon="26.580303">
<ele>118.559631</ele>
<time>2010-06-20T14:04:17Z</time>
<desc>lat.=55.888832, lon.=26.580303, Alt.=118.559631m. Speed=14.112000m/h.</desc>
<speed>3.920000</speed>
</trkpt>
<trkpt lat="55.888870" lon="26.580313">
<ele>118.743225</ele>
<time>2010-06-20T14:04:18Z</time>
<desc>lat.=55.888870, lon.=26.580313, Alt.=118.743225m. Speed=14.472000m/h.</desc>
<speed>4.020000</speed>
</trkpt>
<trkpt lat="55.888908" lon="26.580317">
<ele>118.823303</ele>
<time>2010-06-20T14:04:19Z</time>
<desc>lat.=55.888908, lon.=26.580317, Alt.=118.823303m. Speed=13.140000m/h.</desc>
<speed>3.650000</speed>
</trkpt>
<trkpt lat="55.888958" lon="26.580318">
<ele>118.735413</ele>
<time>2010-06-20T14:04:20Z</time>
<desc>lat.=55.888958, lon.=26.580318, Alt.=118.735413m. Speed=18.396000m/h.</desc>
<speed>5.110000</speed>
</trkpt>
<trkpt lat="55.889004" lon="26.580320">
<ele>118.604553</ele>
<time>2010-06-20T14:04:21Z</time>
<desc>lat.=55.889004, lon.=26.580320, Alt.=118.604553m. Speed=16.632000m/h.</desc>
<speed>4.620000</speed>
</trkpt>
<trkpt lat="55.889050" lon="26.580324">
<ele>118.657288</ele>
<time>2010-06-20T14:04:22Z</time>
<desc>lat.=55.889050, lon.=26.580324, Alt.=118.657288m. Speed=20.232000m/h.</desc>
<speed>5.620000</speed>
</trkpt>
<trkpt lat="55.889103" lon="26.580338">
<ele>118.377991</ele>
<time>2010-06-20T14:04:23Z</time>
<desc>lat.=55.889103, lon.=26.580338, Alt.=118.377991m. Speed=22.427999m/h.</desc>
<speed>6.230000</speed>
</trkpt>
<trkpt lat="55.889160" lon="26.580355">
<ele>117.858459</ele>
<time>2010-06-20T14:04:24Z</time>
<desc>lat.=55.889160, lon.=26.580355, Alt.=117.858459m. Speed=22.068001m/h.</desc>
<speed>6.130000</speed>
</trkpt>
<trkpt lat="55.889217" lon="26.580370">
<ele>117.294006</ele>
<time>2010-06-20T14:04:25Z</time>
<desc>lat.=55.889217, lon.=26.580370, Alt.=117.294006m. Speed=22.032000m/h.</desc>
<speed>6.120000</speed>
</trkpt>
<trkpt lat="55.889275" lon="26.580381">
<ele>116.842834</ele>
<time>2010-06-20T14:04:26Z</time>
<desc>lat.=55.889275, lon.=26.580381, Alt.=116.842834m. Speed=22.535999m/h.</desc>
<speed>6.260000</speed>
</trkpt>
<trkpt lat="55.889332" lon="26.580414">
<ele>116.354553</ele>
<time>2010-06-20T14:04:27Z</time>
<desc>lat.=55.889332, lon.=26.580414, Alt.=116.354553m. Speed=22.572001m/h.</desc>
<speed>6.270000</speed>
</trkpt>
<trkpt lat="55.889393" lon="26.580427">
<ele>116.184631</ele>
<time>2010-06-20T14:04:28Z</time>
<desc>lat.=55.889393, lon.=26.580427, Alt.=116.184631m. Speed=22.788000m/h.</desc>
<speed>6.330000</speed>
</trkpt>
<trkpt lat="55.889462" lon="26.580446">
<ele>116.502991</ele>
<time>2010-06-20T14:04:29Z</time>
<desc>lat.=55.889462, lon.=26.580446, Alt.=116.502991m. Speed=23.472000m/h.</desc>
<speed>6.520000</speed>
</trkpt>
<trkpt lat="55.889523" lon="26.580467">
<ele>116.602600</ele>
<time>2010-06-20T14:04:30Z</time>
<desc>lat.=55.889523, lon.=26.580467, Alt.=116.602600m. Speed=21.240000m/h.</desc>
<speed>5.900000</speed>
</trkpt>
<trkpt lat="55.889580" lon="26.580494">
<ele>116.063538</ele>
<time>2010-06-20T14:04:31Z</time>
<desc>lat.=55.889580, lon.=26.580494, Alt.=116.063538m. Speed=21.996000m/h.</desc>
<speed>6.110000</speed>
</trkpt>
<trkpt lat="55.889645" lon="26.580503">
<ele>115.262756</ele>
<time>2010-06-20T14:04:32Z</time>
<desc>lat.=55.889645, lon.=26.580503, Alt.=115.262756m. Speed=22.392000m/h.</desc>
<speed>6.220000</speed>
</trkpt>
<trkpt lat="55.889713" lon="26.580540">
<ele>114.344788</ele>
<time>2010-06-20T14:04:33Z</time>
<desc>lat.=55.889713, lon.=26.580540, Alt.=114.344788m. Speed=26.639999m/h.</desc>
<speed>7.400000</speed>
</trkpt>
<trkpt lat="55.889790" lon="26.580566">
<ele>113.174866</ele>
<time>2010-06-20T14:04:34Z</time>
<desc>lat.=55.889790, lon.=26.580566, Alt.=113.174866m. Speed=26.568001m/h.</desc>
<speed>7.380000</speed>
</trkpt>
<trkpt lat="55.889858" lon="26.580585">
<ele>112.102600</ele>
<time>2010-06-20T14:04:35Z</time>
<desc>lat.=55.889858, lon.=26.580585, Alt.=112.102600m. Speed=21.780001m/h.</desc>
<speed>6.050000</speed>
</trkpt>
<trkpt lat="55.889923" lon="26.580593">
<ele>111.758850</ele>
<time>2010-06-20T14:04:36Z</time>
<desc>lat.=55.889923, lon.=26.580593, Alt.=111.758850m. Speed=23.148001m/h.</desc>
<speed>6.430000</speed>
</trkpt>
<trkpt lat="55.889984" lon="26.580599">
<ele>111.319397</ele>
<time>2010-06-20T14:04:37Z</time>
<desc>lat.=55.889984, lon.=26.580599, Alt.=111.319397m. Speed=20.916000m/h.</desc>
<speed>5.810000</speed>
</trkpt>
<trkpt lat="55.890049" lon="26.580614">
<ele>112.229553</ele>
<time>2010-06-20T14:04:38Z</time>
<desc>lat.=55.890049, lon.=26.580614, Alt.=112.229553m. Speed=20.664000m/h.</desc>
<speed>5.740000</speed>
</trkpt>
<trkpt lat="55.890118" lon="26.580643">
<ele>114.251038</ele>
<time>2010-06-20T14:04:39Z</time>
<desc>lat.=55.890118, lon.=26.580643, Alt.=114.251038m. Speed=23.688000m/h.</desc>
<speed>6.580000</speed>
</trkpt>
<trkpt lat="55.890194" lon="26.580662">
<ele>115.241272</ele>
<time>2010-06-20T14:04:40Z</time>
<desc>lat.=55.890194, lon.=26.580662, Alt.=115.241272m. Speed=22.139999m/h.</desc>
<speed>6.150000</speed>
</trkpt>
<trkpt lat="55.890247" lon="26.580681">
<ele>115.399475</ele>
<time>2010-06-20T14:04:41Z</time>
<desc>lat.=55.890247, lon.=26.580681, Alt.=115.399475m. Speed=19.908001m/h.</desc>
<speed>5.530000</speed>
</trkpt>
<trkpt lat="55.890312" lon="26.580687">
<ele>116.430725</ele>
<time>2010-06-20T14:04:42Z</time>
<desc>lat.=55.890312, lon.=26.580687, Alt.=116.430725m. Speed=18.468000m/h.</desc>
<speed>5.130000</speed>
</trkpt>
<trkpt lat="55.890358" lon="26.580696">
<ele>116.704163</ele>
<time>2010-06-20T14:04:43Z</time>
<desc>lat.=55.890358, lon.=26.580696, Alt.=116.704163m. Speed=23.184000m/h.</desc>
<speed>6.440000</speed>
</trkpt>
<trkpt lat="55.890430" lon="26.580708">
<ele>118.229553</ele>
<time>2010-06-20T14:04:44Z</time>
<desc>lat.=55.890430, lon.=26.580708, Alt.=118.229553m. Speed=26.063999m/h.</desc>
<speed>7.240000</speed>
</trkpt>
<trkpt lat="55.890495" lon="26.580730">
<ele>118.733459</ele>
<time>2010-06-20T14:04:45Z</time>
<desc>lat.=55.890495, lon.=26.580730, Alt.=118.733459m. Speed=21.312000m/h.</desc>
<speed>5.920000</speed>
</trkpt>
<trkpt lat="55.890575" lon="26.580729">
<ele>119.344788</ele>
<time>2010-06-20T14:04:46Z</time>
<desc>lat.=55.890575, lon.=26.580729, Alt.=119.344788m. Speed=23.436001m/h.</desc>
<speed>6.510000</speed>
</trkpt>
<trkpt lat="55.890640" lon="26.580742">
<ele>120.200256</ele>
<time>2010-06-20T14:04:47Z</time>
<desc>lat.=55.890640, lon.=26.580742, Alt.=120.200256m. Speed=22.139999m/h.</desc>
<speed>6.150000</speed>
</trkpt>
<trkpt lat="55.890717" lon="26.580746">
<ele>119.729553</ele>
<time>2010-06-20T14:04:48Z</time>
<desc>lat.=55.890717, lon.=26.580746, Alt.=119.729553m. Speed=22.247999m/h.</desc>
<speed>6.180000</speed>
</trkpt>
<trkpt lat="55.890781" lon="26.580753">
<ele>120.264709</ele>
<time>2010-06-20T14:04:49Z</time>
<desc>lat.=55.890781, lon.=26.580753, Alt.=120.264709m. Speed=22.032000m/h.</desc>
<speed>6.120000</speed>
</trkpt>
<trkpt lat="55.890842" lon="26.580750">
<ele>120.981506</ele>
<time>2010-06-20T14:04:50Z</time>
<desc>lat.=55.890842, lon.=26.580750, Alt.=120.981506m. Speed=22.104000m/h.</desc>
<speed>6.140000</speed>
</trkpt>
<trkpt lat="55.890915" lon="26.580744">
<ele>121.514709</ele>
<time>2010-06-20T14:04:51Z</time>
<desc>lat.=55.890915, lon.=26.580744, Alt.=121.514709m. Speed=21.851999m/h.</desc>
<speed>6.070000</speed>
</trkpt>
<trkpt lat="55.890987" lon="26.580738">
<ele>121.010803</ele>
<time>2010-06-20T14:04:52Z</time>
<desc>lat.=55.890987, lon.=26.580738, Alt.=121.010803m. Speed=22.212000m/h.</desc>
<speed>6.170000</speed>
</trkpt>
<trkpt lat="55.891045" lon="26.580763">
<ele>121.370178</ele>
<time>2010-06-20T14:04:53Z</time>
<desc>lat.=55.891045, lon.=26.580763, Alt.=121.370178m. Speed=19.836000m/h.</desc>
<speed>5.510000</speed>
</trkpt>
<trkpt lat="55.891098" lon="26.580774">
<ele>121.973694</ele>
<time>2010-06-20T14:04:54Z</time>
<desc>lat.=55.891098, lon.=26.580774, Alt.=121.973694m. Speed=18.288000m/h.</desc>
<speed>5.080000</speed>
</trkpt>
<trkpt lat="55.891151" lon="26.580784">
<ele>122.483459</ele>
<time>2010-06-20T14:04:55Z</time>
<desc>lat.=55.891151, lon.=26.580784, Alt.=122.483459m. Speed=20.232000m/h.</desc>
<speed>5.620000</speed>
</trkpt>
<trkpt lat="55.891216" lon="26.580807">
<ele>123.690491</ele>
<time>2010-06-20T14:04:56Z</time>
<desc>lat.=55.891216, lon.=26.580807, Alt.=123.690491m. Speed=21.996000m/h.</desc>
<speed>6.110000</speed>
</trkpt>
<trkpt lat="55.891270" lon="26.580824">
<ele>124.090881</ele>
<time>2010-06-20T14:04:57Z</time>
<desc>lat.=55.891270, lon.=26.580824, Alt.=124.090881m. Speed=20.700001m/h.</desc>
<speed>5.750000</speed>
</trkpt>
<trkpt lat="55.891323" lon="26.580843">
<ele>124.833069</ele>
<time>2010-06-20T14:04:58Z</time>
<desc>lat.=55.891323, lon.=26.580843, Alt.=124.833069m. Speed=17.028000m/h.</desc>
<speed>4.730000</speed>
</trkpt>
<trkpt lat="55.891376" lon="26.580862">
<ele>125.086975</ele>
<time>2010-06-20T14:04:59Z</time>
<desc>lat.=55.891376, lon.=26.580862, Alt.=125.086975m. Speed=18.216000m/h.</desc>
<speed>5.060000</speed>
</trkpt>
<trkpt lat="55.891426" lon="26.580889">
<ele>125.079163</ele>
<time>2010-06-20T14:05:00Z</time>
<desc>lat.=55.891426, lon.=26.580889, Alt.=125.079163m. Speed=18.072001m/h.</desc>
<speed>5.020000</speed>
</trkpt>
<trkpt lat="55.891472" lon="26.580915">
<ele>124.631897</ele>
<time>2010-06-20T14:05:01Z</time>
<desc>lat.=55.891472, lon.=26.580915, Alt.=124.631897m. Speed=16.884001m/h.</desc>
<speed>4.690000</speed>
</trkpt>
<trkpt lat="55.891514" lon="26.580933">
<ele>125.038147</ele>
<time>2010-06-20T14:05:02Z</time>
<desc>lat.=55.891514, lon.=26.580933, Alt.=125.038147m. Speed=22.427999m/h.</desc>
<speed>6.230000</speed>
</trkpt>
<trkpt lat="55.891582" lon="26.580952">
<ele>124.897522</ele>
<time>2010-06-20T14:05:03Z</time>
<desc>lat.=55.891582, lon.=26.580952, Alt.=124.897522m. Speed=24.695999m/h.</desc>
<speed>6.860000</speed>
</trkpt>
<trkpt lat="55.891678" lon="26.580956">
<ele>122.836975</ele>
<time>2010-06-20T14:05:04Z</time>
<desc>lat.=55.891678, lon.=26.580956, Alt.=122.836975m. Speed=22.931999m/h.</desc>
<speed>6.370000</speed>
</trkpt>
<trkpt lat="55.891739" lon="26.580978">
<ele>122.635803</ele>
<time>2010-06-20T14:05:05Z</time>
<desc>lat.=55.891739, lon.=26.580978, Alt.=122.635803m. Speed=19.728001m/h.</desc>
<speed>5.480000</speed>
</trkpt>
<trkpt lat="55.891808" lon="26.580990">
<ele>121.254944</ele>
<time>2010-06-20T14:05:06Z</time>
<desc>lat.=55.891808, lon.=26.580990, Alt.=121.254944m. Speed=20.844000m/h.</desc>
<speed>5.790000</speed>
</trkpt>
<trkpt lat="55.891869" lon="26.581005">
<ele>121.133850</ele>
<time>2010-06-20T14:05:07Z</time>
<desc>lat.=55.891869, lon.=26.581005, Alt.=121.133850m. Speed=21.851999m/h.</desc>
<speed>6.070000</speed>
</trkpt>
<trkpt lat="55.891941" lon="26.581036">
<ele>120.920959</ele>
<time>2010-06-20T14:05:08Z</time>
<desc>lat.=55.891941, lon.=26.581036, Alt.=120.920959m. Speed=21.204000m/h.</desc>
<speed>5.890000</speed>
</trkpt>
<trkpt lat="55.892014" lon="26.581057">
<ele>121.920959</ele>
<time>2010-06-20T14:05:09Z</time>
<desc>lat.=55.892014, lon.=26.581057, Alt.=121.920959m. Speed=20.700001m/h.</desc>
<speed>5.750000</speed>
</trkpt>
<trkpt lat="55.892120" lon="26.581112">
<ele>120.176819</ele>
<time>2010-06-20T14:05:10Z</time>
<desc>lat.=55.892120, lon.=26.581112, Alt.=120.176819m. Speed=23.327999m/h.</desc>
<speed>6.480000</speed>
</trkpt>
<trkpt lat="55.892193" lon="26.581131">
<ele>120.749084</ele>
<time>2010-06-20T14:05:11Z</time>
<desc>lat.=55.892193, lon.=26.581131, Alt.=120.749084m. Speed=22.896000m/h.</desc>
<speed>6.360000</speed>
</trkpt>
<trkpt lat="55.892269" lon="26.581144">
<ele>120.495178</ele>
<time>2010-06-20T14:05:12Z</time>
<desc>lat.=55.892269, lon.=26.581144, Alt.=120.495178m. Speed=22.356001m/h.</desc>
<speed>6.210000</speed>
</trkpt>
<trkpt lat="55.892361" lon="26.581167">
<ele>119.368225</ele>
<time>2010-06-20T14:05:13Z</time>
<desc>lat.=55.892361, lon.=26.581167, Alt.=119.368225m. Speed=22.320000m/h.</desc>
<speed>6.200000</speed>
</trkpt>
<trkpt lat="55.892418" lon="26.581181">
<ele>119.073303</ele>
<time>2010-06-20T14:05:14Z</time>
<desc>lat.=55.892418, lon.=26.581181, Alt.=119.073303m. Speed=20.124001m/h.</desc>
<speed>5.590000</speed>
</trkpt>
<trkpt lat="55.892460" lon="26.581207">
<ele>119.133850</ele>
<time>2010-06-20T14:05:15Z</time>
<desc>lat.=55.892460, lon.=26.581207, Alt.=119.133850m. Speed=9.756000m/h.</desc>
<speed>2.710000</speed>
</trkpt>
<trkpt lat="55.892506" lon="26.581236">
<ele>121.663147</ele>
<time>2010-06-20T14:05:16Z</time>
<desc>lat.=55.892506, lon.=26.581236, Alt.=121.663147m. Speed=14.364000m/h.</desc>
<speed>3.990000</speed>
</trkpt>
<trkpt lat="55.892574" lon="26.581261">
<ele>123.389709</ele>
<time>2010-06-20T14:05:17Z</time>
<desc>lat.=55.892574, lon.=26.581261, Alt.=123.389709m. Speed=17.459999m/h.</desc>
<speed>4.850000</speed>
</trkpt>
<trkpt lat="55.892632" lon="26.581278">
<ele>123.579163</ele>
<time>2010-06-20T14:05:18Z</time>
<desc>lat.=55.892632, lon.=26.581278, Alt.=123.579163m. Speed=18.576000m/h.</desc>
<speed>5.160000</speed>
</trkpt>
<trkpt lat="55.892689" lon="26.581274">
<ele>123.135803</ele>
<time>2010-06-20T14:05:19Z</time>
<desc>lat.=55.892689, lon.=26.581274, Alt.=123.135803m. Speed=14.184000m/h.</desc>
<speed>3.940000</speed>
</trkpt>
<trkpt lat="55.892742" lon="26.581278">
<ele>123.321350</ele>
<time>2010-06-20T14:05:20Z</time>
<desc>lat.=55.892742, lon.=26.581278, Alt.=123.321350m. Speed=15.948000m/h.</desc>
<speed>4.430000</speed>
</trkpt>
<trkpt lat="55.892796" lon="26.581291">
<ele>123.651428</ele>
<time>2010-06-20T14:05:21Z</time>
<desc>lat.=55.892796, lon.=26.581291, Alt.=123.651428m. Speed=18.323999m/h.</desc>
<speed>5.090000</speed>
</trkpt>
<trkpt lat="55.892853" lon="26.581299">
<ele>123.586975</ele>
<time>2010-06-20T14:05:22Z</time>
<desc>lat.=55.892853, lon.=26.581299, Alt.=123.586975m. Speed=18.252001m/h.</desc>
<speed>5.070000</speed>
</trkpt>
<trkpt lat="55.892918" lon="26.581316">
<ele>123.944397</ele>
<time>2010-06-20T14:05:23Z</time>
<desc>lat.=55.892918, lon.=26.581316, Alt.=123.944397m. Speed=18.216000m/h.</desc>
<speed>5.060000</speed>
</trkpt>
<trkpt lat="55.892967" lon="26.581327">
<ele>123.876038</ele>
<time>2010-06-20T14:05:24Z</time>
<desc>lat.=55.892967, lon.=26.581327, Alt.=123.876038m. Speed=17.208000m/h.</desc>
<speed>4.780000</speed>
</trkpt>
<trkpt lat="55.893036" lon="26.581335">
<ele>124.016663</ele>
<time>2010-06-20T14:05:25Z</time>
<desc>lat.=55.893036, lon.=26.581335, Alt.=124.016663m. Speed=19.836000m/h.</desc>
<speed>5.510000</speed>
</trkpt>
<trkpt lat="55.893089" lon="26.581345">
<ele>124.157288</ele>
<time>2010-06-20T14:05:26Z</time>
<desc>lat.=55.893089, lon.=26.581345, Alt.=124.157288m. Speed=19.908001m/h.</desc>
<speed>5.530000</speed>
</trkpt>
<trkpt lat="55.893143" lon="26.581354">
<ele>124.282288</ele>
<time>2010-06-20T14:05:27Z</time>
<desc>lat.=55.893143, lon.=26.581354, Alt.=124.282288m. Speed=19.836000m/h.</desc>
<speed>5.510000</speed>
</trkpt>
<trkpt lat="55.893192" lon="26.581360">
<ele>124.290100</ele>
<time>2010-06-20T14:05:28Z</time>
<desc>lat.=55.893192, lon.=26.581360, Alt.=124.290100m. Speed=15.480000m/h.</desc>
<speed>4.300000</speed>
</trkpt>
<trkpt lat="55.893238" lon="26.581381">
<ele>123.971741</ele>
<time>2010-06-20T14:05:29Z</time>
<desc>lat.=55.893238, lon.=26.581381, Alt.=123.971741m. Speed=15.444000m/h.</desc>
<speed>4.290000</speed>
</trkpt>
<trkpt lat="55.893272" lon="26.581423">
<ele>123.819397</ele>
<time>2010-06-20T14:05:30Z</time>
<desc>lat.=55.893272, lon.=26.581423, Alt.=123.819397m. Speed=14.040000m/h.</desc>
<speed>3.900000</speed>
</trkpt>
<trkpt lat="55.893318" lon="26.581438">
<ele>124.165100</ele>
<time>2010-06-20T14:05:31Z</time>
<desc>lat.=55.893318, lon.=26.581438, Alt.=124.165100m. Speed=15.192000m/h.</desc>
<speed>4.220000</speed>
</trkpt>
<trkpt lat="55.893368" lon="26.581442">
<ele>123.885803</ele>
<time>2010-06-20T14:05:32Z</time>
<desc>lat.=55.893368, lon.=26.581442, Alt.=123.885803m. Speed=15.192000m/h.</desc>
<speed>4.220000</speed>
</trkpt>
<trkpt lat="55.893421" lon="26.581444">
<ele>124.155334</ele>
<time>2010-06-20T14:05:33Z</time>
<desc>lat.=55.893421, lon.=26.581444, Alt.=124.155334m. Speed=15.588000m/h.</desc>
<speed>4.330000</speed>
</trkpt>
<trkpt lat="55.893478" lon="26.581434">
<ele>123.758850</ele>
<time>2010-06-20T14:05:34Z</time>
<desc>lat.=55.893478, lon.=26.581434, Alt.=123.758850m. Speed=14.436000m/h.</desc>
<speed>4.010000</speed>
</trkpt>
<trkpt lat="55.893532" lon="26.581440">
<ele>123.485413</ele>
<time>2010-06-20T14:05:35Z</time>
<desc>lat.=55.893532, lon.=26.581440, Alt.=123.485413m. Speed=17.136000m/h.</desc>
<speed>4.760000</speed>
</trkpt>
<trkpt lat="55.893597" lon="26.581469">
<ele>123.614319</ele>
<time>2010-06-20T14:05:36Z</time>
<desc>lat.=55.893597, lon.=26.581469, Alt.=123.614319m. Speed=18.719999m/h.</desc>
<speed>5.200000</speed>
</trkpt>
<trkpt lat="55.893658" lon="26.581474">
<ele>122.948303</ele>
<time>2010-06-20T14:05:37Z</time>
<desc>lat.=55.893658, lon.=26.581474, Alt.=122.948303m. Speed=18.540001m/h.</desc>
<speed>5.150000</speed>
</trkpt>
<trkpt lat="55.893723" lon="26.581478">
<ele>122.680725</ele>
<time>2010-06-20T14:05:38Z</time>
<desc>lat.=55.893723, lon.=26.581478, Alt.=122.680725m. Speed=20.952000m/h.</desc>
<speed>5.820000</speed>
</trkpt>
<trkpt lat="55.893784" lon="26.581499">
<ele>122.190491</ele>
<time>2010-06-20T14:05:39Z</time>
<desc>lat.=55.893784, lon.=26.581499, Alt.=122.190491m. Speed=19.044001m/h.</desc>
<speed>5.290000</speed>
</trkpt>
<trkpt lat="55.893852" lon="26.581512">
<ele>122.331116</ele>
<time>2010-06-20T14:05:40Z</time>
<desc>lat.=55.893852, lon.=26.581512, Alt.=122.331116m. Speed=20.016001m/h.</desc>
<speed>5.560000</speed>
</trkpt>
<trkpt lat="55.893909" lon="26.581537">
<ele>121.786194</ele>
<time>2010-06-20T14:05:41Z</time>
<desc>lat.=55.893909, lon.=26.581537, Alt.=121.786194m. Speed=18.792000m/h.</desc>
<speed>5.220000</speed>
</trkpt>
<trkpt lat="55.893970" lon="26.581562">
<ele>121.797913</ele>
<time>2010-06-20T14:05:42Z</time>
<desc>lat.=55.893970, lon.=26.581562, Alt.=121.797913m. Speed=19.908001m/h.</desc>
<speed>5.530000</speed>
</trkpt>
<trkpt lat="55.894039" lon="26.581591">
<ele>121.956116</ele>
<time>2010-06-20T14:05:43Z</time>
<desc>lat.=55.894039, lon.=26.581591, Alt.=121.956116m. Speed=20.304001m/h.</desc>
<speed>5.640000</speed>
</trkpt>
<trkpt lat="55.894096" lon="26.581598">
<ele>121.409241</ele>
<time>2010-06-20T14:05:44Z</time>
<desc>lat.=55.894096, lon.=26.581598, Alt.=121.409241m. Speed=18.900000m/h.</desc>
<speed>5.250000</speed>
</trkpt>
<trkpt lat="55.894157" lon="26.581635">
<ele>120.219788</ele>
<time>2010-06-20T14:05:45Z</time>
<desc>lat.=55.894157, lon.=26.581635, Alt.=120.219788m. Speed=19.007999m/h.</desc>
<speed>5.280000</speed>
</trkpt>
<trkpt lat="55.894203" lon="26.581644">
<ele>119.920959</ele>
<time>2010-06-20T14:05:46Z</time>
<desc>lat.=55.894203, lon.=26.581644, Alt.=119.920959m. Speed=20.483999m/h.</desc>
<speed>5.690000</speed>
</trkpt>
<trkpt lat="55.894268" lon="26.581667">
<ele>120.055725</ele>
<time>2010-06-20T14:05:47Z</time>
<desc>lat.=55.894268, lon.=26.581667, Alt.=120.055725m. Speed=19.152000m/h.</desc>
<speed>5.320000</speed>
</trkpt>
<trkpt lat="55.894329" lon="26.581692">
<ele>119.887756</ele>
<time>2010-06-20T14:05:48Z</time>
<desc>lat.=55.894329, lon.=26.581692, Alt.=119.887756m. Speed=20.736000m/h.</desc>
<speed>5.760000</speed>
</trkpt>
<trkpt lat="55.894409" lon="26.581701">
<ele>119.542053</ele>
<time>2010-06-20T14:05:49Z</time>
<desc>lat.=55.894409, lon.=26.581701, Alt.=119.542053m. Speed=22.896000m/h.</desc>
<speed>6.360000</speed>
</trkpt>
<trkpt lat="55.894512" lon="26.581724">
<ele>120.032288</ele>
<time>2010-06-20T14:05:50Z</time>
<desc>lat.=55.894512, lon.=26.581724, Alt.=120.032288m. Speed=24.840000m/h.</desc>
<speed>6.900000</speed>
</trkpt>
<trkpt lat="55.894592" lon="26.581739">
<ele>119.706116</ele>
<time>2010-06-20T14:05:51Z</time>
<desc>lat.=55.894592, lon.=26.581739, Alt.=119.706116m. Speed=25.200001m/h.</desc>
<speed>7.000000</speed>
</trkpt>
<trkpt lat="55.894661" lon="26.581779">
<ele>118.809631</ele>
<time>2010-06-20T14:05:52Z</time>
<desc>lat.=55.894661, lon.=26.581779, Alt.=118.809631m. Speed=25.164000m/h.</desc>
<speed>6.990000</speed>
</trkpt>
<trkpt lat="55.894726" lon="26.581802">
<ele>119.393616</ele>
<time>2010-06-20T14:05:53Z</time>
<desc>lat.=55.894726, lon.=26.581802, Alt.=119.393616m. Speed=23.184000m/h.</desc>
<speed>6.440000</speed>
</trkpt>
<trkpt lat="55.894787" lon="26.581823">
<ele>119.254944</ele>
<time>2010-06-20T14:05:54Z</time>
<desc>lat.=55.894787, lon.=26.581823, Alt.=119.254944m. Speed=22.356001m/h.</desc>
<speed>6.210000</speed>
</trkpt>
<trkpt lat="55.894844" lon="26.581846">
<ele>118.967834</ele>
<time>2010-06-20T14:05:55Z</time>
<desc>lat.=55.894844, lon.=26.581846, Alt.=118.967834m. Speed=20.340000m/h.</desc>
<speed>5.650000</speed>
</trkpt>
<trkpt lat="55.894909" lon="26.581861">
<ele>118.561584</ele>
<time>2010-06-20T14:05:56Z</time>
<desc>lat.=55.894909, lon.=26.581861, Alt.=118.561584m. Speed=21.024000m/h.</desc>
<speed>5.840000</speed>
</trkpt>
<trkpt lat="55.894981" lon="26.581871">
<ele>117.963928</ele>
<time>2010-06-20T14:05:57Z</time>
<desc>lat.=55.894981, lon.=26.581871, Alt.=117.963928m. Speed=21.996000m/h.</desc>
<speed>6.110000</speed>
</trkpt>
<trkpt lat="55.895042" lon="26.581923">
<ele>117.741272</ele>
<time>2010-06-20T14:05:58Z</time>
<desc>lat.=55.895042, lon.=26.581923, Alt.=117.741272m. Speed=23.724001m/h.</desc>
<speed>6.590000</speed>
</trkpt>
<trkpt lat="55.895123" lon="26.581936">
<ele>116.936584</ele>
<time>2010-06-20T14:05:59Z</time>
<desc>lat.=55.895123, lon.=26.581936, Alt.=116.936584m. Speed=22.860001m/h.</desc>
<speed>6.350000</speed>
</trkpt>
<trkpt lat="55.895191" lon="26.581963">
<ele>116.829163</ele>
<time>2010-06-20T14:06:00Z</time>
<desc>lat.=55.895191, lon.=26.581963, Alt.=116.829163m. Speed=19.440001m/h.</desc>
<speed>5.400000</speed>
</trkpt>
<trkpt lat="55.895245" lon="26.581985">
<ele>116.649475</ele>
<time>2010-06-20T14:06:01Z</time>
<desc>lat.=55.895245, lon.=26.581985, Alt.=116.649475m. Speed=18.936001m/h.</desc>
<speed>5.260000</speed>
</trkpt>
<trkpt lat="55.895298" lon="26.581995">
<ele>116.723694</ele>
<time>2010-06-20T14:06:02Z</time>
<desc>lat.=55.895298, lon.=26.581995, Alt.=116.723694m. Speed=16.416000m/h.</desc>
<speed>4.560000</speed>
</trkpt>
<trkpt lat="55.895348" lon="26.582010">
<ele>116.674866</ele>
<time>2010-06-20T14:06:03Z</time>
<desc>lat.=55.895348, lon.=26.582010, Alt.=116.674866m. Speed=14.760000m/h.</desc>
<speed>4.100000</speed>
</trkpt>
<trkpt lat="55.895397" lon="26.582039">
<ele>116.934631</ele>
<time>2010-06-20T14:06:04Z</time>
<desc>lat.=55.895397, lon.=26.582039, Alt.=116.934631m. Speed=15.876000m/h.</desc>
<speed>4.410000</speed>
</trkpt>
<trkpt lat="55.895462" lon="26.582058">
<ele>117.157288</ele>
<time>2010-06-20T14:06:05Z</time>
<desc>lat.=55.895462, lon.=26.582058, Alt.=117.157288m. Speed=19.332001m/h.</desc>
<speed>5.370000</speed>
</trkpt>
<trkpt lat="55.895523" lon="26.582087">
<ele>117.252991</ele>
<time>2010-06-20T14:06:06Z</time>
<desc>lat.=55.895523, lon.=26.582087, Alt.=117.252991m. Speed=21.996000m/h.</desc>
<speed>6.110000</speed>
</trkpt>
<trkpt lat="55.895588" lon="26.582113">
<ele>117.124084</ele>
<time>2010-06-20T14:06:07Z</time>
<desc>lat.=55.895588, lon.=26.582113, Alt.=117.124084m. Speed=19.368000m/h.</desc>
<speed>5.380000</speed>
</trkpt>
<trkpt lat="55.895653" lon="26.582132">
<ele>117.075256</ele>
<time>2010-06-20T14:06:08Z</time>
<desc>lat.=55.895653, lon.=26.582132, Alt.=117.075256m. Speed=19.511999m/h.</desc>
<speed>5.420000</speed>
</trkpt>
<trkpt lat="55.895718" lon="26.582174">
<ele>116.819397</ele>
<time>2010-06-20T14:06:09Z</time>
<desc>lat.=55.895718, lon.=26.582174, Alt.=116.819397m. Speed=19.799999m/h.</desc>
<speed>5.500000</speed>
</trkpt>
<trkpt lat="55.895798" lon="26.582186">
<ele>115.399475</ele>
<time>2010-06-20T14:06:10Z</time>
<desc>lat.=55.895798, lon.=26.582186, Alt.=115.399475m. Speed=21.996000m/h.</desc>
<speed>6.110000</speed>
</trkpt>
<trkpt lat="55.895851" lon="26.582193">
<ele>114.977600</ele>
<time>2010-06-20T14:06:11Z</time>
<desc>lat.=55.895851, lon.=26.582193, Alt.=114.977600m. Speed=21.348000m/h.</desc>
<speed>5.930000</speed>
</trkpt>
<trkpt lat="55.895920" lon="26.582201">
<ele>114.415100</ele>
<time>2010-06-20T14:06:12Z</time>
<desc>lat.=55.895920, lon.=26.582201, Alt.=114.415100m. Speed=20.304001m/h.</desc>
<speed>5.640000</speed>
</trkpt>
<trkpt lat="55.895988" lon="26.582220">
<ele>113.678772</ele>
<time>2010-06-20T14:06:13Z</time>
<desc>lat.=55.895988, lon.=26.582220, Alt.=113.678772m. Speed=20.628000m/h.</desc>
<speed>5.730000</speed>
</trkpt>
<trkpt lat="55.896065" lon="26.582233">
<ele>111.776428</ele>
<time>2010-06-20T14:06:14Z</time>
<desc>lat.=55.896065, lon.=26.582233, Alt.=111.776428m. Speed=21.240000m/h.</desc>
<speed>5.900000</speed>
</trkpt>
<trkpt lat="55.896118" lon="26.582239">
<ele>111.094788</ele>
<time>2010-06-20T14:06:15Z</time>
<desc>lat.=55.896118, lon.=26.582239, Alt.=111.094788m. Speed=18.864000m/h.</desc>
<speed>5.240000</speed>
</trkpt>
<trkpt lat="55.896210" lon="26.582268">
<ele>111.481506</ele>
<time>2010-06-20T14:06:16Z</time>
<desc>lat.=55.896210, lon.=26.582268, Alt.=111.481506m. Speed=22.320000m/h.</desc>
<speed>6.200000</speed>
</trkpt>
<trkpt lat="55.896282" lon="26.582283">
<ele>110.647522</ele>
<time>2010-06-20T14:06:17Z</time>
<desc>lat.=55.896282, lon.=26.582283, Alt.=110.647522m. Speed=22.572001m/h.</desc>
<speed>6.270000</speed>
</trkpt>
<trkpt lat="55.896351" lon="26.582312">
<ele>110.659241</ele>
<time>2010-06-20T14:06:18Z</time>
<desc>lat.=55.896351, lon.=26.582312, Alt.=110.659241m. Speed=23.688000m/h.</desc>
<speed>6.580000</speed>
</trkpt>
<trkpt lat="55.896446" lon="26.582361">
<ele>111.665100</ele>
<time>2010-06-20T14:06:19Z</time>
<desc>lat.=55.896446, lon.=26.582361, Alt.=111.665100m. Speed=24.695999m/h.</desc>
<speed>6.860000</speed>
</trkpt>
<trkpt lat="55.896534" lon="26.582386">
<ele>111.608459</ele>
<time>2010-06-20T14:06:20Z</time>
<desc>lat.=55.896534, lon.=26.582386, Alt.=111.608459m. Speed=26.100000m/h.</desc>
<speed>7.250000</speed>
</trkpt>
<trkpt lat="55.896610" lon="26.582415">
<ele>111.704163</ele>
<time>2010-06-20T14:06:21Z</time>
<desc>lat.=55.896610, lon.=26.582415, Alt.=111.704163m. Speed=26.243999m/h.</desc>
<speed>7.290000</speed>
</trkpt>
<trkpt lat="55.896683" lon="26.582457">
<ele>111.524475</ele>
<time>2010-06-20T14:06:22Z</time>
<desc>lat.=55.896683, lon.=26.582457, Alt.=111.524475m. Speed=25.632000m/h.</desc>
<speed>7.120000</speed>
</trkpt>
<trkpt lat="55.896770" lon="26.582481">
<ele>111.112366</ele>
<time>2010-06-20T14:06:23Z</time>
<desc>lat.=55.896770, lon.=26.582481, Alt.=111.112366m. Speed=25.992001m/h.</desc>
<speed>7.220000</speed>
</trkpt>
<trkpt lat="55.896889" lon="26.582504">
<ele>112.104553</ele>
<time>2010-06-20T14:06:24Z</time>
<desc>lat.=55.896889, lon.=26.582504, Alt.=112.104553m. Speed=27.468000m/h.</desc>
<speed>7.630000</speed>
</trkpt>
<trkpt lat="55.897003" lon="26.582537">
<ele>113.981506</ele>
<time>2010-06-20T14:06:25Z</time>
<desc>lat.=55.897003, lon.=26.582537, Alt.=113.981506m. Speed=29.916000m/h.</desc>
<speed>8.310000</speed>
</trkpt>
<trkpt lat="55.897083" lon="26.582558">
<ele>113.520569</ele>
<time>2010-06-20T14:06:26Z</time>
<desc>lat.=55.897083, lon.=26.582558, Alt.=113.520569m. Speed=24.587999m/h.</desc>
<speed>6.830000</speed>
</trkpt>
<trkpt lat="55.897160" lon="26.582577">
<ele>114.001038</ele>
<time>2010-06-20T14:06:27Z</time>
<desc>lat.=55.897160, lon.=26.582577, Alt.=114.001038m. Speed=26.028000m/h.</desc>
<speed>7.230000</speed>
</trkpt>
<trkpt lat="55.897240" lon="26.582611">
<ele>115.102600</ele>
<time>2010-06-20T14:06:28Z</time>
<desc>lat.=55.897240, lon.=26.582611, Alt.=115.102600m. Speed=26.747999m/h.</desc>
<speed>7.430000</speed>
</trkpt>
<trkpt lat="55.897308" lon="26.582636">
<ele>114.979553</ele>
<time>2010-06-20T14:06:29Z</time>
<desc>lat.=55.897308, lon.=26.582636, Alt.=114.979553m. Speed=26.496000m/h.</desc>
<speed>7.360000</speed>
</trkpt>
<trkpt lat="55.897385" lon="26.582664">
<ele>115.481506</ele>
<time>2010-06-20T14:06:30Z</time>
<desc>lat.=55.897385, lon.=26.582664, Alt.=115.481506m. Speed=26.316000m/h.</desc>
<speed>7.310000</speed>
</trkpt>
<trkpt lat="55.897453" lon="26.582705">
<ele>114.538147</ele>
<time>2010-06-20T14:06:31Z</time>
<desc>lat.=55.897453, lon.=26.582705, Alt.=114.538147m. Speed=23.472000m/h.</desc>
<speed>6.520000</speed>
</trkpt>
<trkpt lat="55.897533" lon="26.582731">
<ele>115.670959</ele>
<time>2010-06-20T14:06:32Z</time>
<desc>lat.=55.897533, lon.=26.582731, Alt.=115.670959m. Speed=24.228001m/h.</desc>
<speed>6.730000</speed>
</trkpt>
<trkpt lat="55.897594" lon="26.582783">
<ele>115.899475</ele>
<time>2010-06-20T14:06:33Z</time>
<desc>lat.=55.897594, lon.=26.582783, Alt.=115.899475m. Speed=21.492001m/h.</desc>
<speed>5.970000</speed>
</trkpt>
<trkpt lat="55.897655" lon="26.582846">
<ele>115.536194</ele>
<time>2010-06-20T14:06:34Z</time>
<desc>lat.=55.897655, lon.=26.582846, Alt.=115.536194m. Speed=22.212000m/h.</desc>
<speed>6.170000</speed>
</trkpt>
<trkpt lat="55.897709" lon="26.582865">
<ele>115.368225</ele>
<time>2010-06-20T14:06:35Z</time>
<desc>lat.=55.897709, lon.=26.582865, Alt.=115.368225m. Speed=20.124001m/h.</desc>
<speed>5.590000</speed>
</trkpt>
<trkpt lat="55.897766" lon="26.582884">
<ele>115.061584</ele>
<time>2010-06-20T14:06:36Z</time>
<desc>lat.=55.897766, lon.=26.582884, Alt.=115.061584m. Speed=21.167999m/h.</desc>
<speed>5.880000</speed>
</trkpt>
<trkpt lat="55.897831" lon="26.582901">
<ele>114.926819</ele>
<time>2010-06-20T14:06:37Z</time>
<desc>lat.=55.897831, lon.=26.582901, Alt.=114.926819m. Speed=20.448000m/h.</desc>
<speed>5.680000</speed>
</trkpt>
<trkpt lat="55.897892" lon="26.582912">
<ele>114.782288</ele>
<time>2010-06-20T14:06:38Z</time>
<desc>lat.=55.897892, lon.=26.582912, Alt.=114.782288m. Speed=20.160000m/h.</desc>
<speed>5.600000</speed>
</trkpt>
<trkpt lat="55.897942" lon="26.582970">
<ele>115.036194</ele>
<time>2010-06-20T14:06:39Z</time>
<desc>lat.=55.897942, lon.=26.582970, Alt.=115.036194m. Speed=18.972000m/h.</desc>
<speed>5.270000</speed>
</trkpt>
<trkpt lat="55.898010" lon="26.582996">
<ele>116.151428</ele>
<time>2010-06-20T14:06:40Z</time>
<desc>lat.=55.898010, lon.=26.582996, Alt.=116.151428m. Speed=18.900000m/h.</desc>
<speed>5.250000</speed>
</trkpt>
<trkpt lat="55.898071" lon="26.583031">
<ele>115.270569</ele>
<time>2010-06-20T14:06:41Z</time>
<desc>lat.=55.898071, lon.=26.583031, Alt.=115.270569m. Speed=19.548000m/h.</desc>
<speed>5.430000</speed>
</trkpt>
<trkpt lat="55.898136" lon="26.583082">
<ele>113.766663</ele>
<time>2010-06-20T14:06:42Z</time>
<desc>lat.=55.898136, lon.=26.583082, Alt.=113.766663m. Speed=19.080000m/h.</desc>
<speed>5.300000</speed>
</trkpt>
<trkpt lat="55.898193" lon="26.583132">
<ele>113.680725</ele>
<time>2010-06-20T14:06:43Z</time>
<desc>lat.=55.898193, lon.=26.583132, Alt.=113.680725m. Speed=19.332001m/h.</desc>
<speed>5.370000</speed>
</trkpt>
<trkpt lat="55.898243" lon="26.583164">
<ele>113.790100</ele>
<time>2010-06-20T14:06:44Z</time>
<desc>lat.=55.898243, lon.=26.583164, Alt.=113.790100m. Speed=17.820000m/h.</desc>
<speed>4.950000</speed>
</trkpt>
<trkpt lat="55.898293" lon="26.583179">
<ele>114.690491</ele>
<time>2010-06-20T14:06:45Z</time>
<desc>lat.=55.898293, lon.=26.583179, Alt.=114.690491m. Speed=14.220000m/h.</desc>
<speed>3.950000</speed>
</trkpt>
<trkpt lat="55.898338" lon="26.583197">
<ele>114.954163</ele>
<time>2010-06-20T14:06:46Z</time>
<desc>lat.=55.898338, lon.=26.583197, Alt.=114.954163m. Speed=16.667999m/h.</desc>
<speed>4.630000</speed>
</trkpt>
<trkpt lat="55.898384" lon="26.583210">
<ele>115.444397</ele>
<time>2010-06-20T14:06:47Z</time>
<desc>lat.=55.898384, lon.=26.583210, Alt.=115.444397m. Speed=13.464000m/h.</desc>
<speed>3.740000</speed>
</trkpt>
<trkpt lat="55.898434" lon="26.583233">
<ele>115.266663</ele>
<time>2010-06-20T14:06:48Z</time>
<desc>lat.=55.898434, lon.=26.583233, Alt.=115.266663m. Speed=15.804000m/h.</desc>
<speed>4.390000</speed>
</trkpt>
<trkpt lat="55.898487" lon="26.583248">
<ele>115.137756</ele>
<time>2010-06-20T14:06:49Z</time>
<desc>lat.=55.898487, lon.=26.583248, Alt.=115.137756m. Speed=16.667999m/h.</desc>
<speed>4.630000</speed>
</trkpt>
<trkpt lat="55.898548" lon="26.583260">
<ele>115.422913</ele>
<time>2010-06-20T14:06:50Z</time>
<desc>lat.=55.898548, lon.=26.583260, Alt.=115.422913m. Speed=15.156000m/h.</desc>
<speed>4.210000</speed>
</trkpt>
<trkpt lat="55.898609" lon="26.583271">
<ele>114.792053</ele>
<time>2010-06-20T14:06:51Z</time>
<desc>lat.=55.898609, lon.=26.583271, Alt.=114.792053m. Speed=16.128000m/h.</desc>
<speed>4.480000</speed>
</trkpt>
<trkpt lat="55.898655" lon="26.583284">
<ele>115.184631</ele>
<time>2010-06-20T14:06:52Z</time>
<desc>lat.=55.898655, lon.=26.583284, Alt.=115.184631m. Speed=15.984000m/h.</desc>
<speed>4.440000</speed>
</trkpt>
<trkpt lat="55.898693" lon="26.583296">
<ele>115.211975</ele>
<time>2010-06-20T14:06:53Z</time>
<desc>lat.=55.898693, lon.=26.583296, Alt.=115.211975m. Speed=18.684000m/h.</desc>
<speed>5.190000</speed>
</trkpt>
<trkpt lat="55.898743" lon="26.583326">
<ele>114.958069</ele>
<time>2010-06-20T14:06:54Z</time>
<desc>lat.=55.898743, lon.=26.583326, Alt.=114.958069m. Speed=18.143999m/h.</desc>
<speed>5.040000</speed>
</trkpt>
<trkpt lat="55.898804" lon="26.583344">
<ele>114.217834</ele>
<time>2010-06-20T14:06:55Z</time>
<desc>lat.=55.898804, lon.=26.583344, Alt.=114.217834m. Speed=16.740000m/h.</desc>
<speed>4.650000</speed>
</trkpt>
<trkpt lat="55.898857" lon="26.583351">
<ele>114.524475</ele>
<time>2010-06-20T14:06:56Z</time>
<desc>lat.=55.898857, lon.=26.583351, Alt.=114.524475m. Speed=14.004000m/h.</desc>
<speed>3.890000</speed>
</trkpt>
<trkpt lat="55.898914" lon="26.583357">
<ele>114.803772</ele>
<time>2010-06-20T14:06:57Z</time>
<desc>lat.=55.898914, lon.=26.583357, Alt.=114.803772m. Speed=17.604000m/h.</desc>
<speed>4.890000</speed>
</trkpt>
<trkpt lat="55.898972" lon="26.583366">
<ele>115.210022</ele>
<time>2010-06-20T14:06:58Z</time>
<desc>lat.=55.898972, lon.=26.583366, Alt.=115.210022m. Speed=14.544000m/h.</desc>
<speed>4.040000</speed>
</trkpt>
<trkpt lat="55.899021" lon="26.583382">
<ele>116.217834</ele>
<time>2010-06-20T14:06:59Z</time>
<desc>lat.=55.899021, lon.=26.583382, Alt.=116.217834m. Speed=15.012000m/h.</desc>
<speed>4.170000</speed>
</trkpt>
<trkpt lat="55.899067" lon="26.583391">
<ele>116.331116</ele>
<time>2010-06-20T14:07:00Z</time>
<desc>lat.=55.899067, lon.=26.583391, Alt.=116.331116m. Speed=14.292000m/h.</desc>
<speed>3.970000</speed>
</trkpt>
<trkpt lat="55.899113" lon="26.583395">
<ele>117.104553</ele>
<time>2010-06-20T14:07:01Z</time>
<desc>lat.=55.899113, lon.=26.583395, Alt.=117.104553m. Speed=12.168000m/h.</desc>
<speed>3.380000</speed>
</trkpt>
<trkpt lat="55.899155" lon="26.583435">
<ele>115.669006</ele>
<time>2010-06-20T14:07:02Z</time>
<desc>lat.=55.899155, lon.=26.583435, Alt.=115.669006m. Speed=14.544000m/h.</desc>
<speed>4.040000</speed>
</trkpt>
<trkpt lat="55.899212" lon="26.583439">
<ele>115.653381</ele>
<time>2010-06-20T14:07:03Z</time>
<desc>lat.=55.899212, lon.=26.583439, Alt.=115.653381m. Speed=14.976000m/h.</desc>
<speed>4.160000</speed>
</trkpt>
<trkpt lat="55.899258" lon="26.583462">
<ele>115.081116</ele>
<time>2010-06-20T14:07:04Z</time>
<desc>lat.=55.899258, lon.=26.583462, Alt.=115.081116m. Speed=14.760000m/h.</desc>
<speed>4.100000</speed>
</trkpt>
<trkpt lat="55.899292" lon="26.583477">
<ele>114.938538</ele>
<time>2010-06-20T14:07:05Z</time>
<desc>lat.=55.899292, lon.=26.583477, Alt.=114.938538m. Speed=11.772000m/h.</desc>
<speed>3.270000</speed>
</trkpt>
<trkpt lat="55.899342" lon="26.583488">
<ele>115.674866</ele>
<time>2010-06-20T14:07:06Z</time>
<desc>lat.=55.899342, lon.=26.583488, Alt.=115.674866m. Speed=14.580000m/h.</desc>
<speed>4.050000</speed>
</trkpt>
<trkpt lat="55.899387" lon="26.583498">
<ele>116.524475</ele>
<time>2010-06-20T14:07:07Z</time>
<desc>lat.=55.899387, lon.=26.583498, Alt.=116.524475m. Speed=18.648001m/h.</desc>
<speed>5.180000</speed>
</trkpt>
<trkpt lat="55.899456" lon="26.583519">
<ele>118.010803</ele>
<time>2010-06-20T14:07:08Z</time>
<desc>lat.=55.899456, lon.=26.583519, Alt.=118.010803m. Speed=19.080000m/h.</desc>
<speed>5.300000</speed>
</trkpt>
<trkpt lat="55.899513" lon="26.583523">
<ele>117.778381</ele>
<time>2010-06-20T14:07:09Z</time>
<desc>lat.=55.899513, lon.=26.583523, Alt.=117.778381m. Speed=18.323999m/h.</desc>
<speed>5.090000</speed>
</trkpt>
<trkpt lat="55.899559" lon="26.583532">
<ele>117.815491</ele>
<time>2010-06-20T14:07:10Z</time>
<desc>lat.=55.899559, lon.=26.583532, Alt.=117.815491m. Speed=18.719999m/h.</desc>
<speed>5.200000</speed>
</trkpt>
<trkpt lat="55.899620" lon="26.583540">
<ele>118.821350</ele>
<time>2010-06-20T14:07:11Z</time>
<desc>lat.=55.899620, lon.=26.583540, Alt.=118.821350m. Speed=17.424000m/h.</desc>
<speed>4.840000</speed>
</trkpt>
<trkpt lat="55.899673" lon="26.583538">
<ele>119.102600</ele>
<time>2010-06-20T14:07:12Z</time>
<desc>lat.=55.899673, lon.=26.583538, Alt.=119.102600m. Speed=18.000000m/h.</desc>
<speed>5.000000</speed>
</trkpt>
<trkpt lat="55.899738" lon="26.583532">
<ele>119.284241</ele>
<time>2010-06-20T14:07:13Z</time>
<desc>lat.=55.899738, lon.=26.583532, Alt.=119.284241m. Speed=17.927999m/h.</desc>
<speed>4.980000</speed>
</trkpt>
<trkpt lat="55.899792" lon="26.583527">
<ele>119.133850</ele>
<time>2010-06-20T14:07:14Z</time>
<desc>lat.=55.899792, lon.=26.583527, Alt.=119.133850m. Speed=18.756001m/h.</desc>
<speed>5.210000</speed>
</trkpt>
<trkpt lat="55.899853" lon="26.583530">
<ele>119.723694</ele>
<time>2010-06-20T14:07:15Z</time>
<desc>lat.=55.899853, lon.=26.583530, Alt.=119.723694m. Speed=22.823999m/h.</desc>
<speed>6.340000</speed>
</trkpt>
<trkpt lat="55.899956" lon="26.583517">
<ele>119.518616</ele>
<time>2010-06-20T14:07:16Z</time>
<desc>lat.=55.899956, lon.=26.583517, Alt.=119.518616m. Speed=22.716000m/h.</desc>
<speed>6.310000</speed>
</trkpt>
<trkpt lat="55.900024" lon="26.583519">
<ele>119.399475</ele>
<time>2010-06-20T14:07:17Z</time>
<desc>lat.=55.900024, lon.=26.583519, Alt.=119.399475m. Speed=20.952000m/h.</desc>
<speed>5.820000</speed>
</trkpt>
<trkpt lat="55.900089" lon="26.583529">
<ele>119.006897</ele>
<time>2010-06-20T14:07:18Z</time>
<desc>lat.=55.900089, lon.=26.583529, Alt.=119.006897m. Speed=20.016001m/h.</desc>
<speed>5.560000</speed>
</trkpt>
<trkpt lat="55.900150" lon="26.583565">
<ele>118.602600</ele>
<time>2010-06-20T14:07:19Z</time>
<desc>lat.=55.900150, lon.=26.583565, Alt.=118.602600m. Speed=20.087999m/h.</desc>
<speed>5.580000</speed>
</trkpt>
<trkpt lat="55.900211" lon="26.583578">
<ele>118.383850</ele>
<time>2010-06-20T14:07:20Z</time>
<desc>lat.=55.900211, lon.=26.583578, Alt.=118.383850m. Speed=20.556000m/h.</desc>
<speed>5.710000</speed>
</trkpt>
<trkpt lat="55.900269" lon="26.583588">
<ele>117.913147</ele>
<time>2010-06-20T14:07:21Z</time>
<desc>lat.=55.900269, lon.=26.583588, Alt.=117.913147m. Speed=19.980000m/h.</desc>
<speed>5.550000</speed>
</trkpt>
<trkpt lat="55.900330" lon="26.583601">
<ele>117.698303</ele>
<time>2010-06-20T14:07:22Z</time>
<desc>lat.=55.900330, lon.=26.583601, Alt.=117.698303m. Speed=19.908001m/h.</desc>
<speed>5.530000</speed>
</trkpt>
<trkpt lat="55.900394" lon="26.583618">
<ele>116.809631</ele>
<time>2010-06-20T14:07:23Z</time>
<desc>lat.=55.900394, lon.=26.583618, Alt.=116.809631m. Speed=20.160000m/h.</desc>
<speed>5.600000</speed>
</trkpt>
<trkpt lat="55.900459" lon="26.583622">
<ele>115.729553</ele>
<time>2010-06-20T14:07:24Z</time>
<desc>lat.=55.900459, lon.=26.583622, Alt.=115.729553m. Speed=20.952000m/h.</desc>
<speed>5.820000</speed>
</trkpt>
<trkpt lat="55.900532" lon="26.583645">
<ele>114.885803</ele>
<time>2010-06-20T14:07:25Z</time>
<desc>lat.=55.900532, lon.=26.583645, Alt.=114.885803m. Speed=20.916000m/h.</desc>
<speed>5.810000</speed>
</trkpt>
<trkpt lat="55.900604" lon="26.583666">
<ele>114.833069</ele>
<time>2010-06-20T14:07:26Z</time>
<desc>lat.=55.900604, lon.=26.583666, Alt.=114.833069m. Speed=24.804001m/h.</desc>
<speed>6.890000</speed>
</trkpt>
<trkpt lat="55.900681" lon="26.583681">
<ele>115.020569</ele>
<time>2010-06-20T14:07:27Z</time>
<desc>lat.=55.900681, lon.=26.583681, Alt.=115.020569m. Speed=25.379999m/h.</desc>
<speed>7.050000</speed>
</trkpt>
<trkpt lat="55.900761" lon="26.583723">
<ele>113.764709</ele>
<time>2010-06-20T14:07:28Z</time>
<desc>lat.=55.900761, lon.=26.583723, Alt.=113.764709m. Speed=23.688000m/h.</desc>
<speed>6.580000</speed>
</trkpt>
<trkpt lat="55.900814" lon="26.583778">
<ele>113.502991</ele>
<time>2010-06-20T14:07:29Z</time>
<desc>lat.=55.900814, lon.=26.583778, Alt.=113.502991m. Speed=19.368000m/h.</desc>
<speed>5.380000</speed>
</trkpt>
<trkpt lat="55.900875" lon="26.583826">
<ele>112.967834</ele>
<time>2010-06-20T14:07:30Z</time>
<desc>lat.=55.900875, lon.=26.583826, Alt.=112.967834m. Speed=23.868000m/h.</desc>
<speed>6.630000</speed>
</trkpt>
<trkpt lat="55.900940" lon="26.583887">
<ele>112.254944</ele>
<time>2010-06-20T14:07:31Z</time>
<desc>lat.=55.900940, lon.=26.583887, Alt.=112.254944m. Speed=22.896000m/h.</desc>
<speed>6.360000</speed>
</trkpt>
<trkpt lat="55.901001" lon="26.583927">
<ele>112.342834</ele>
<time>2010-06-20T14:07:32Z</time>
<desc>lat.=55.901001, lon.=26.583927, Alt.=112.342834m. Speed=19.511999m/h.</desc>
<speed>5.420000</speed>
</trkpt>
<trkpt lat="55.901062" lon="26.583952">
<ele>113.735413</ele>
<time>2010-06-20T14:07:33Z</time>
<desc>lat.=55.901062, lon.=26.583952, Alt.=113.735413m. Speed=20.988001m/h.</desc>
<speed>5.830000</speed>
</trkpt>
<trkpt lat="55.901123" lon="26.583984">
<ele>113.545959</ele>
<time>2010-06-20T14:07:34Z</time>
<desc>lat.=55.901123, lon.=26.583984, Alt.=113.545959m. Speed=21.096001m/h.</desc>
<speed>5.860000</speed>
</trkpt>
<trkpt lat="55.901203" lon="26.584007">
<ele>112.708069</ele>
<time>2010-06-20T14:07:35Z</time>
<desc>lat.=55.901203, lon.=26.584007, Alt.=112.708069m. Speed=23.688000m/h.</desc>
<speed>6.580000</speed>
</trkpt>
<trkpt lat="55.901276" lon="26.584023">
<ele>112.143616</ele>
<time>2010-06-20T14:07:36Z</time>
<desc>lat.=55.901276, lon.=26.584023, Alt.=112.143616m. Speed=22.931999m/h.</desc>
<speed>6.370000</speed>
</trkpt>
<trkpt lat="55.901348" lon="26.584024">
<ele>111.292053</ele>
<time>2010-06-20T14:07:37Z</time>
<desc>lat.=55.901348, lon.=26.584024, Alt.=111.292053m. Speed=20.736000m/h.</desc>
<speed>5.760000</speed>
</trkpt>
<trkpt lat="55.901417" lon="26.584047">
<ele>111.643616</ele>
<time>2010-06-20T14:07:38Z</time>
<desc>lat.=55.901417, lon.=26.584047, Alt.=111.643616m. Speed=22.247999m/h.</desc>
<speed>6.180000</speed>
</trkpt>
<trkpt lat="55.901489" lon="26.584061">
<ele>111.749084</ele>
<time>2010-06-20T14:07:39Z</time>
<desc>lat.=55.901489, lon.=26.584061, Alt.=111.749084m. Speed=23.400000m/h.</desc>
<speed>6.500000</speed>
</trkpt>
<trkpt lat="55.901554" lon="26.584070">
<ele>111.797913</ele>
<time>2010-06-20T14:07:40Z</time>
<desc>lat.=55.901554, lon.=26.584070, Alt.=111.797913m. Speed=23.327999m/h.</desc>
<speed>6.480000</speed>
</trkpt>
<trkpt lat="55.901623" lon="26.584101">
<ele>111.997131</ele>
<time>2010-06-20T14:07:41Z</time>
<desc>lat.=55.901623, lon.=26.584101, Alt.=111.997131m. Speed=26.784000m/h.</desc>
<speed>7.440000</speed>
</trkpt>
<trkpt lat="55.901703" lon="26.584129">
<ele>111.870178</ele>
<time>2010-06-20T14:07:42Z</time>
<desc>lat.=55.901703, lon.=26.584129, Alt.=111.870178m. Speed=27.323999m/h.</desc>
<speed>7.590000</speed>
</trkpt>
<trkpt lat="55.901772" lon="26.584158">
<ele>112.227600</ele>
<time>2010-06-20T14:07:43Z</time>
<desc>lat.=55.901772, lon.=26.584158, Alt.=112.227600m. Speed=25.812000m/h.</desc>
<speed>7.170000</speed>
</trkpt>
<trkpt lat="55.901840" lon="26.584185">
<ele>112.170959</ele>
<time>2010-06-20T14:07:44Z</time>
<desc>lat.=55.901840, lon.=26.584185, Alt.=112.170959m. Speed=25.992001m/h.</desc>
<speed>7.220000</speed>
</trkpt>
<trkpt lat="55.901917" lon="26.584202">
<ele>112.397522</ele>
<time>2010-06-20T14:07:45Z</time>
<desc>lat.=55.901917, lon.=26.584202, Alt.=112.397522m. Speed=26.280001m/h.</desc>
<speed>7.300000</speed>
</trkpt>
<trkpt lat="55.902016" lon="26.584211">
<ele>113.159241</ele>
<time>2010-06-20T14:07:46Z</time>
<desc>lat.=55.902016, lon.=26.584211, Alt.=113.159241m. Speed=26.856001m/h.</desc>
<speed>7.460000</speed>
</trkpt>
<trkpt lat="55.902096" lon="26.584225">
<ele>112.290100</ele>
<time>2010-06-20T14:07:47Z</time>
<desc>lat.=55.902096, lon.=26.584225, Alt.=112.290100m. Speed=27.468000m/h.</desc>
<speed>7.630000</speed>
</trkpt>
<trkpt lat="55.902168" lon="26.584238">
<ele>112.049866</ele>
<time>2010-06-20T14:07:48Z</time>
<desc>lat.=55.902168, lon.=26.584238, Alt.=112.049866m. Speed=25.128000m/h.</desc>
<speed>6.980000</speed>
</trkpt>
<trkpt lat="55.902241" lon="26.584248">
<ele>111.776428</ele>
<time>2010-06-20T14:07:49Z</time>
<desc>lat.=55.902241, lon.=26.584248, Alt.=111.776428m. Speed=26.100000m/h.</desc>
<speed>7.250000</speed>
</trkpt>
<trkpt lat="55.902325" lon="26.584251">
<ele>110.778381</ele>
<time>2010-06-20T14:07:50Z</time>
<desc>lat.=55.902325, lon.=26.584251, Alt.=110.778381m. Speed=27.756001m/h.</desc>
<speed>7.710000</speed>
</trkpt>
<trkpt lat="55.902397" lon="26.584278">
<ele>110.389709</ele>
<time>2010-06-20T14:07:51Z</time>
<desc>lat.=55.902397, lon.=26.584278, Alt.=110.389709m. Speed=27.864000m/h.</desc>
<speed>7.740000</speed>
</trkpt>
<trkpt lat="55.902473" lon="26.584307">
<ele>110.799866</ele>
<time>2010-06-20T14:07:52Z</time>
<desc>lat.=55.902473, lon.=26.584307, Alt.=110.799866m. Speed=25.740000m/h.</desc>
<speed>7.150000</speed>
</trkpt>
<trkpt lat="55.902573" lon="26.584318">
<ele>111.393616</ele>
<time>2010-06-20T14:07:53Z</time>
<desc>lat.=55.902573, lon.=26.584318, Alt.=111.393616m. Speed=29.375999m/h.</desc>
<speed>8.160000</speed>
</trkpt>
<trkpt lat="55.902660" lon="26.584328">
<ele>111.178772</ele>
<time>2010-06-20T14:07:54Z</time>
<desc>lat.=55.902660, lon.=26.584328, Alt.=111.178772m. Speed=28.007999m/h.</desc>
<speed>7.780000</speed>
</trkpt>
<trkpt lat="55.902725" lon="26.584364">
<ele>112.235413</ele>
<time>2010-06-20T14:07:55Z</time>
<desc>lat.=55.902725, lon.=26.584364, Alt.=112.235413m. Speed=25.200001m/h.</desc>
<speed>7.000000</speed>
</trkpt>
<trkpt lat="55.902813" lon="26.584385">
<ele>113.442444</ele>
<time>2010-06-20T14:07:56Z</time>
<desc>lat.=55.902813, lon.=26.584385, Alt.=113.442444m. Speed=29.087999m/h.</desc>
<speed>8.080000</speed>
</trkpt>
<trkpt lat="55.902889" lon="26.584406">
<ele>112.653381</ele>
<time>2010-06-20T14:07:57Z</time>
<desc>lat.=55.902889, lon.=26.584406, Alt.=112.653381m. Speed=28.115999m/h.</desc>
<speed>7.810000</speed>
</trkpt>
<trkpt lat="55.902962" lon="26.584431">
<ele>112.227600</ele>
<time>2010-06-20T14:07:58Z</time>
<desc>lat.=55.902962, lon.=26.584431, Alt.=112.227600m. Speed=27.684000m/h.</desc>
<speed>7.690000</speed>
</trkpt>
<trkpt lat="55.903034" lon="26.584465">
<ele>112.456116</ele>
<time>2010-06-20T14:07:59Z</time>
<desc>lat.=55.903034, lon.=26.584465, Alt.=112.456116m. Speed=27.792000m/h.</desc>
<speed>7.720000</speed>
</trkpt>
<trkpt lat="55.903111" lon="26.584475">
<ele>112.044006</ele>
<time>2010-06-20T14:08:00Z</time>
<desc>lat.=55.903111, lon.=26.584475, Alt.=112.044006m. Speed=26.820000m/h.</desc>
<speed>7.450000</speed>
</trkpt>
<trkpt lat="55.903175" lon="26.584494">
<ele>111.893616</ele>
<time>2010-06-20T14:08:01Z</time>
<desc>lat.=55.903175, lon.=26.584494, Alt.=111.893616m. Speed=23.976000m/h.</desc>
<speed>6.660000</speed>
</trkpt>
<trkpt lat="55.903252" lon="26.584520">
<ele>111.514709</ele>
<time>2010-06-20T14:08:02Z</time>
<desc>lat.=55.903252, lon.=26.584520, Alt.=111.514709m. Speed=27.756001m/h.</desc>
<speed>7.710000</speed>
</trkpt>
<trkpt lat="55.903324" lon="26.584560">
<ele>110.833069</ele>
<time>2010-06-20T14:08:03Z</time>
<desc>lat.=55.903324, lon.=26.584560, Alt.=110.833069m. Speed=25.596001m/h.</desc>
<speed>7.110000</speed>
</trkpt>
<trkpt lat="55.903404" lon="26.584587">
<ele>111.223694</ele>
<time>2010-06-20T14:08:04Z</time>
<desc>lat.=55.903404, lon.=26.584587, Alt.=111.223694m. Speed=27.504000m/h.</desc>
<speed>7.640000</speed>
</trkpt>
<trkpt lat="55.903481" lon="26.584608">
<ele>110.762756</ele>
<time>2010-06-20T14:08:05Z</time>
<desc>lat.=55.903481, lon.=26.584608, Alt.=110.762756m. Speed=27.143999m/h.</desc>
<speed>7.540000</speed>
</trkpt>
<trkpt lat="55.903561" lon="26.584633">
<ele>110.868225</ele>
<time>2010-06-20T14:08:06Z</time>
<desc>lat.=55.903561, lon.=26.584633, Alt.=110.868225m. Speed=27.252001m/h.</desc>
<speed>7.570000</speed>
</trkpt>
<trkpt lat="55.903633" lon="26.584660">
<ele>110.563538</ele>
<time>2010-06-20T14:08:07Z</time>
<desc>lat.=55.903633, lon.=26.584660, Alt.=110.563538m. Speed=29.771999m/h.</desc>
<speed>8.270000</speed>
</trkpt>
<trkpt lat="55.903702" lon="26.584684">
<ele>110.211975</ele>
<time>2010-06-20T14:08:08Z</time>
<desc>lat.=55.903702, lon.=26.584684, Alt.=110.211975m. Speed=26.280001m/h.</desc>
<speed>7.300000</speed>
</trkpt>
<trkpt lat="55.903774" lon="26.584721">
<ele>110.112366</ele>
<time>2010-06-20T14:08:09Z</time>
<desc>lat.=55.903774, lon.=26.584721, Alt.=110.112366m. Speed=28.080000m/h.</desc>
<speed>7.800000</speed>
</trkpt>
<trkpt lat="55.903851" lon="26.584751">
<ele>109.397522</ele>
<time>2010-06-20T14:08:10Z</time>
<desc>lat.=55.903851, lon.=26.584751, Alt.=109.397522m. Speed=28.656000m/h.</desc>
<speed>7.960000</speed>
</trkpt>
<trkpt lat="55.903923" lon="26.584799">
<ele>109.086975</ele>
<time>2010-06-20T14:08:11Z</time>
<desc>lat.=55.903923, lon.=26.584799, Alt.=109.086975m. Speed=26.820000m/h.</desc>
<speed>7.450000</speed>
</trkpt>
<trkpt lat="55.903984" lon="26.584864">
<ele>108.551819</ele>
<time>2010-06-20T14:08:12Z</time>
<desc>lat.=55.903984, lon.=26.584864, Alt.=108.551819m. Speed=27.000000m/h.</desc>
<speed>7.500000</speed>
</trkpt>
<trkpt lat="55.904034" lon="26.584965">
<ele>107.696350</ele>
<time>2010-06-20T14:08:13Z</time>
<desc>lat.=55.904034, lon.=26.584965, Alt.=107.696350m. Speed=29.412001m/h.</desc>
<speed>8.170000</speed>
</trkpt>
<trkpt lat="55.904083" lon="26.585073">
<ele>107.413147</ele>
<time>2010-06-20T14:08:14Z</time>
<desc>lat.=55.904083, lon.=26.585073, Alt.=107.413147m. Speed=31.716000m/h.</desc>
<speed>8.810000</speed>
</trkpt>
<trkpt lat="55.904137" lon="26.585184">
<ele>106.924866</ele>
<time>2010-06-20T14:08:15Z</time>
<desc>lat.=55.904137, lon.=26.585184, Alt.=106.924866m. Speed=29.771999m/h.</desc>
<speed>8.270000</speed>
</trkpt>
<trkpt lat="55.904186" lon="26.585295">
<ele>106.678772</ele>
<time>2010-06-20T14:08:16Z</time>
<desc>lat.=55.904186, lon.=26.585295, Alt.=106.678772m. Speed=29.448000m/h.</desc>
<speed>8.180000</speed>
</trkpt>
<trkpt lat="55.904240" lon="26.585402">
<ele>106.295959</ele>
<time>2010-06-20T14:08:17Z</time>
<desc>lat.=55.904240, lon.=26.585402, Alt.=106.295959m. Speed=28.980000m/h.</desc>
<speed>8.050000</speed>
</trkpt>
<trkpt lat="55.904285" lon="26.585510">
<ele>106.057678</ele>
<time>2010-06-20T14:08:18Z</time>
<desc>lat.=55.904285, lon.=26.585510, Alt.=106.057678m. Speed=29.520000m/h.</desc>
<speed>8.200000</speed>
</trkpt>
<trkpt lat="55.904335" lon="26.585615">
<ele>105.854553</ele>
<time>2010-06-20T14:08:19Z</time>
<desc>lat.=55.904335, lon.=26.585615, Alt.=105.854553m. Speed=29.700001m/h.</desc>
<speed>8.250000</speed>
</trkpt>
<trkpt lat="55.904388" lon="26.585722">
<ele>105.690491</ele>
<time>2010-06-20T14:08:20Z</time>
<desc>lat.=55.904388, lon.=26.585722, Alt.=105.690491m. Speed=29.844000m/h.</desc>
<speed>8.290000</speed>
</trkpt>
<trkpt lat="55.904438" lon="26.585825">
<ele>105.665100</ele>
<time>2010-06-20T14:08:21Z</time>
<desc>lat.=55.904438, lon.=26.585825, Alt.=105.665100m. Speed=29.988001m/h.</desc>
<speed>8.330000</speed>
</trkpt>
<trkpt lat="55.904491" lon="26.585920">
<ele>105.317444</ele>
<time>2010-06-20T14:08:22Z</time>
<desc>lat.=55.904491, lon.=26.585920, Alt.=105.317444m. Speed=29.375999m/h.</desc>
<speed>8.160000</speed>
</trkpt>
<trkpt lat="55.904549" lon="26.585999">
<ele>105.044006</ele>
<time>2010-06-20T14:08:23Z</time>
<desc>lat.=55.904549, lon.=26.585999, Alt.=105.044006m. Speed=29.340000m/h.</desc>
<speed>8.150000</speed>
</trkpt>
<trkpt lat="55.904606" lon="26.586050">
<ele>103.754944</ele>
<time>2010-06-20T14:08:24Z</time>
<desc>lat.=55.904606, lon.=26.586050, Alt.=103.754944m. Speed=28.115999m/h.</desc>
<speed>7.810000</speed>
</trkpt>
<trkpt lat="55.904671" lon="26.586067">
<ele>102.911194</ele>
<time>2010-06-20T14:08:25Z</time>
<desc>lat.=55.904671, lon.=26.586067, Alt.=102.911194m. Speed=22.356001m/h.</desc>
<speed>6.210000</speed>
</trkpt>
<trkpt lat="55.904736" lon="26.586052">
<ele>103.094788</ele>
<time>2010-06-20T14:08:26Z</time>
<desc>lat.=55.904736, lon.=26.586052, Alt.=103.094788m. Speed=26.351999m/h.</desc>
<speed>7.320000</speed>
</trkpt>
<trkpt lat="55.904812" lon="26.586008">
<ele>103.903381</ele>
<time>2010-06-20T14:08:27Z</time>
<desc>lat.=55.904812, lon.=26.586008, Alt.=103.903381m. Speed=26.712000m/h.</desc>
<speed>7.420000</speed>
</trkpt>
<trkpt lat="55.904873" lon="26.585951">
<ele>104.551819</ele>
<time>2010-06-20T14:08:28Z</time>
<desc>lat.=55.904873, lon.=26.585951, Alt.=104.551819m. Speed=25.955999m/h.</desc>
<speed>7.210000</speed>
</trkpt>
<trkpt lat="55.904930" lon="26.585878">
<ele>104.885803</ele>
<time>2010-06-20T14:08:29Z</time>
<desc>lat.=55.904930, lon.=26.585878, Alt.=104.885803m. Speed=26.784000m/h.</desc>
<speed>7.440000</speed>
</trkpt>
<trkpt lat="55.904984" lon="26.585804">
<ele>104.993225</ele>
<time>2010-06-20T14:08:30Z</time>
<desc>lat.=55.904984, lon.=26.585804, Alt.=104.993225m. Speed=26.243999m/h.</desc>
<speed>7.290000</speed>
</trkpt>
<trkpt lat="55.905041" lon="26.585730">
<ele>104.999084</ele>
<time>2010-06-20T14:08:31Z</time>
<desc>lat.=55.905041, lon.=26.585730, Alt.=104.999084m. Speed=26.784000m/h.</desc>
<speed>7.440000</speed>
</trkpt>
<trkpt lat="55.905094" lon="26.585663">
<ele>104.833069</ele>
<time>2010-06-20T14:08:32Z</time>
<desc>lat.=55.905094, lon.=26.585663, Alt.=104.833069m. Speed=26.639999m/h.</desc>
<speed>7.400000</speed>
</trkpt>
<trkpt lat="55.905144" lon="26.585590">
<ele>105.217834</ele>
<time>2010-06-20T14:08:33Z</time>
<desc>lat.=55.905144, lon.=26.585590, Alt.=105.217834m. Speed=26.532000m/h.</desc>
<speed>7.370000</speed>
</trkpt>
<trkpt lat="55.905201" lon="26.585518">
<ele>105.747131</ele>
<time>2010-06-20T14:08:34Z</time>
<desc>lat.=55.905201, lon.=26.585518, Alt.=105.747131m. Speed=26.927999m/h.</desc>
<speed>7.480000</speed>
</trkpt>
<trkpt lat="55.905251" lon="26.585445">
<ele>106.018616</ele>
<time>2010-06-20T14:08:35Z</time>
<desc>lat.=55.905251, lon.=26.585445, Alt.=106.018616m. Speed=25.775999m/h.</desc>
<speed>7.160000</speed>
</trkpt>
<trkpt lat="55.905304" lon="26.585375">
<ele>107.530334</ele>
<time>2010-06-20T14:08:36Z</time>
<desc>lat.=55.905304, lon.=26.585375, Alt.=107.530334m. Speed=27.035999m/h.</desc>
<speed>7.510000</speed>
</trkpt>
<trkpt lat="55.905361" lon="26.585308">
<ele>107.958069</ele>
<time>2010-06-20T14:08:37Z</time>
<desc>lat.=55.905361, lon.=26.585308, Alt.=107.958069m. Speed=28.080000m/h.</desc>
<speed>7.800000</speed>
</trkpt>
<trkpt lat="55.905415" lon="26.585236">
<ele>107.876038</ele>
<time>2010-06-20T14:08:38Z</time>
<desc>lat.=55.905415, lon.=26.585236, Alt.=107.876038m. Speed=26.243999m/h.</desc>
<speed>7.290000</speed>
</trkpt>
<trkpt lat="55.905468" lon="26.585161">
<ele>108.012756</ele>
<time>2010-06-20T14:08:39Z</time>
<desc>lat.=55.905468, lon.=26.585161, Alt.=108.012756m. Speed=27.576000m/h.</desc>
<speed>7.660000</speed>
</trkpt>
<trkpt lat="55.905521" lon="26.585087">
<ele>108.711975</ele>
<time>2010-06-20T14:08:40Z</time>
<desc>lat.=55.905521, lon.=26.585087, Alt.=108.711975m. Speed=26.927999m/h.</desc>
<speed>7.480000</speed>
</trkpt>
<trkpt lat="55.905571" lon="26.585011">
<ele>108.874084</ele>
<time>2010-06-20T14:08:41Z</time>
<desc>lat.=55.905571, lon.=26.585011, Alt.=108.874084m. Speed=26.028000m/h.</desc>
<speed>7.230000</speed>
</trkpt>
<trkpt lat="55.905617" lon="26.584934">
<ele>108.823303</ele>
<time>2010-06-20T14:08:42Z</time>
<desc>lat.=55.905617, lon.=26.584934, Alt.=108.823303m. Speed=25.992001m/h.</desc>
<speed>7.220000</speed>
</trkpt>
<trkpt lat="55.905670" lon="26.584860">
<ele>109.278381</ele>
<time>2010-06-20T14:08:43Z</time>
<desc>lat.=55.905670, lon.=26.584860, Alt.=109.278381m. Speed=26.316000m/h.</desc>
<speed>7.310000</speed>
</trkpt>
<trkpt lat="55.905716" lon="26.584778">
<ele>110.221741</ele>
<time>2010-06-20T14:08:44Z</time>
<desc>lat.=55.905716, lon.=26.584778, Alt.=110.221741m. Speed=25.488001m/h.</desc>
<speed>7.080000</speed>
</trkpt>
<trkpt lat="55.905766" lon="26.584698">
<ele>110.325256</ele>
<time>2010-06-20T14:08:45Z</time>
<desc>lat.=55.905766, lon.=26.584698, Alt.=110.325256m. Speed=25.992001m/h.</desc>
<speed>7.220000</speed>
</trkpt>
<trkpt lat="55.905811" lon="26.584625">
<ele>110.501038</ele>
<time>2010-06-20T14:08:46Z</time>
<desc>lat.=55.905811, lon.=26.584625, Alt.=110.501038m. Speed=23.580000m/h.</desc>
<speed>6.550000</speed>
</trkpt>
<trkpt lat="55.905849" lon="26.584553">
<ele>110.711975</ele>
<time>2010-06-20T14:08:47Z</time>
<desc>lat.=55.905849, lon.=26.584553, Alt.=110.711975m. Speed=21.959999m/h.</desc>
<speed>6.100000</speed>
</trkpt>
<trkpt lat="55.905880" lon="26.584469">
<ele>110.704163</ele>
<time>2010-06-20T14:08:48Z</time>
<desc>lat.=55.905880, lon.=26.584469, Alt.=110.704163m. Speed=20.160000m/h.</desc>
<speed>5.600000</speed>
</trkpt>
<trkpt lat="55.905895" lon="26.584391">
<ele>110.958069</ele>
<time>2010-06-20T14:08:49Z</time>
<desc>lat.=55.905895, lon.=26.584391, Alt.=110.958069m. Speed=16.920000m/h.</desc>
<speed>4.700000</speed>
</trkpt>
<trkpt lat="55.905895" lon="26.584322">
<ele>111.512756</ele>
<time>2010-06-20T14:08:50Z</time>
<desc>lat.=55.905895, lon.=26.584322, Alt.=111.512756m. Speed=14.184000m/h.</desc>
<speed>3.940000</speed>
</trkpt>
<trkpt lat="55.905888" lon="26.584265">
<ele>111.991272</ele>
<time>2010-06-20T14:08:51Z</time>
<desc>lat.=55.905888, lon.=26.584265, Alt.=111.991272m. Speed=12.744000m/h.</desc>
<speed>3.540000</speed>
</trkpt>
<trkpt lat="55.905876" lon="26.584209">
<ele>112.919006</ele>
<time>2010-06-20T14:08:52Z</time>
<desc>lat.=55.905876, lon.=26.584209, Alt.=112.919006m. Speed=15.192000m/h.</desc>
<speed>4.220000</speed>
</trkpt>
<trkpt lat="55.905846" lon="26.584162">
<ele>113.792053</ele>
<time>2010-06-20T14:08:53Z</time>
<desc>lat.=55.905846, lon.=26.584162, Alt.=113.792053m. Speed=15.660000m/h.</desc>
<speed>4.350000</speed>
</trkpt>
<trkpt lat="55.905815" lon="26.584122">
<ele>114.774475</ele>
<time>2010-06-20T14:08:54Z</time>
<desc>lat.=55.905815, lon.=26.584122, Alt.=114.774475m. Speed=14.796000m/h.</desc>
<speed>4.110000</speed>
</trkpt>
<trkpt lat="55.905785" lon="26.584080">
<ele>115.655334</ele>
<time>2010-06-20T14:08:55Z</time>
<desc>lat.=55.905785, lon.=26.584080, Alt.=115.655334m. Speed=14.364000m/h.</desc>
<speed>3.990000</speed>
</trkpt>
<trkpt lat="55.905750" lon="26.584040">
<ele>116.194397</ele>
<time>2010-06-20T14:08:56Z</time>
<desc>lat.=55.905750, lon.=26.584040, Alt.=116.194397m. Speed=14.796000m/h.</desc>
<speed>4.110000</speed>
</trkpt>
<trkpt lat="55.905716" lon="26.584000">
<ele>116.594788</ele>
<time>2010-06-20T14:08:57Z</time>
<desc>lat.=55.905716, lon.=26.584000, Alt.=116.594788m. Speed=16.596001m/h.</desc>
<speed>4.610000</speed>
</trkpt>
<trkpt lat="55.905682" lon="26.583969">
<ele>117.229553</ele>
<time>2010-06-20T14:08:58Z</time>
<desc>lat.=55.905682, lon.=26.583969, Alt.=117.229553m. Speed=16.056000m/h.</desc>
<speed>4.460000</speed>
</trkpt>
<trkpt lat="55.905647" lon="26.583921">
<ele>117.792053</ele>
<time>2010-06-20T14:08:59Z</time>
<desc>lat.=55.905647, lon.=26.583921, Alt.=117.792053m. Speed=16.632000m/h.</desc>
<speed>4.620000</speed>
</trkpt>
<trkpt lat="55.905613" lon="26.583879">
<ele>118.594788</ele>
<time>2010-06-20T14:09:00Z</time>
<desc>lat.=55.905613, lon.=26.583879, Alt.=118.594788m. Speed=16.379999m/h.</desc>
<speed>4.550000</speed>
</trkpt>
<trkpt lat="55.905579" lon="26.583822">
<ele>119.575256</ele>
<time>2010-06-20T14:09:01Z</time>
<desc>lat.=55.905579, lon.=26.583822, Alt.=119.575256m. Speed=16.992001m/h.</desc>
<speed>4.720000</speed>
</trkpt>
<trkpt lat="55.905548" lon="26.583757">
<ele>120.024475</ele>
<time>2010-06-20T14:09:02Z</time>
<desc>lat.=55.905548, lon.=26.583757, Alt.=120.024475m. Speed=17.424000m/h.</desc>
<speed>4.840000</speed>
</trkpt>
<trkpt lat="55.905514" lon="26.583685">
<ele>120.512756</ele>
<time>2010-06-20T14:09:03Z</time>
<desc>lat.=55.905514, lon.=26.583685, Alt.=120.512756m. Speed=19.296000m/h.</desc>
<speed>5.360000</speed>
</trkpt>
<trkpt lat="55.905479" lon="26.583603">
<ele>120.036194</ele>
<time>2010-06-20T14:09:04Z</time>
<desc>lat.=55.905479, lon.=26.583603, Alt.=120.036194m. Speed=21.492001m/h.</desc>
<speed>5.970000</speed>
</trkpt>
<trkpt lat="55.905445" lon="26.583530">
<ele>120.026428</ele>
<time>2010-06-20T14:09:05Z</time>
<desc>lat.=55.905445, lon.=26.583530, Alt.=120.026428m. Speed=18.288000m/h.</desc>
<speed>5.080000</speed>
</trkpt>
<trkpt lat="55.905411" lon="26.583464">
<ele>119.606506</ele>
<time>2010-06-20T14:09:06Z</time>
<desc>lat.=55.905411, lon.=26.583464, Alt.=119.606506m. Speed=20.808001m/h.</desc>
<speed>5.780000</speed>
</trkpt>
<trkpt lat="55.905380" lon="26.583376">
<ele>119.499084</ele>
<time>2010-06-20T14:09:07Z</time>
<desc>lat.=55.905380, lon.=26.583376, Alt.=119.499084m. Speed=19.403999m/h.</desc>
<speed>5.390000</speed>
</trkpt>
<trkpt lat="55.905354" lon="26.583284">
<ele>119.311584</ele>
<time>2010-06-20T14:09:08Z</time>
<desc>lat.=55.905354, lon.=26.583284, Alt.=119.311584m. Speed=19.368000m/h.</desc>
<speed>5.380000</speed>
</trkpt>
<trkpt lat="55.905323" lon="26.583189">
<ele>119.174866</ele>
<time>2010-06-20T14:09:09Z</time>
<desc>lat.=55.905323, lon.=26.583189, Alt.=119.174866m. Speed=20.232000m/h.</desc>
<speed>5.620000</speed>
</trkpt>
<trkpt lat="55.905293" lon="26.583117">
<ele>119.112366</ele>
<time>2010-06-20T14:09:10Z</time>
<desc>lat.=55.905293, lon.=26.583117, Alt.=119.112366m. Speed=19.584000m/h.</desc>
<speed>5.440000</speed>
</trkpt>
<trkpt lat="55.905266" lon="26.583035">
<ele>119.403381</ele>
<time>2010-06-20T14:09:11Z</time>
<desc>lat.=55.905266, lon.=26.583035, Alt.=119.403381m. Speed=19.368000m/h.</desc>
<speed>5.380000</speed>
</trkpt>
<trkpt lat="55.905239" lon="26.582956">
<ele>119.583069</ele>
<time>2010-06-20T14:09:12Z</time>
<desc>lat.=55.905239, lon.=26.582956, Alt.=119.583069m. Speed=18.972000m/h.</desc>
<speed>5.270000</speed>
</trkpt>
<trkpt lat="55.905209" lon="26.582874">
<ele>119.569397</ele>
<time>2010-06-20T14:09:13Z</time>
<desc>lat.=55.905209, lon.=26.582874, Alt.=119.569397m. Speed=19.260000m/h.</desc>
<speed>5.350000</speed>
</trkpt>
<trkpt lat="55.905178" lon="26.582800">
<ele>119.170959</ele>
<time>2010-06-20T14:09:14Z</time>
<desc>lat.=55.905178, lon.=26.582800, Alt.=119.170959m. Speed=19.224001m/h.</desc>
<speed>5.340000</speed>
</trkpt>
<trkpt lat="55.905151" lon="26.582733">
<ele>118.598694</ele>
<time>2010-06-20T14:09:15Z</time>
<desc>lat.=55.905151, lon.=26.582733, Alt.=118.598694m. Speed=19.440001m/h.</desc>
<speed>5.400000</speed>
</trkpt>
<trkpt lat="55.905121" lon="26.582663">
<ele>118.274475</ele>
<time>2010-06-20T14:09:16Z</time>
<desc>lat.=55.905121, lon.=26.582663, Alt.=118.274475m. Speed=19.511999m/h.</desc>
<speed>5.420000</speed>
</trkpt>
<trkpt lat="55.905094" lon="26.582592">
<ele>118.131897</ele>
<time>2010-06-20T14:09:17Z</time>
<desc>lat.=55.905094, lon.=26.582592, Alt.=118.131897m. Speed=19.044001m/h.</desc>
<speed>5.290000</speed>
</trkpt>
<trkpt lat="55.905064" lon="26.582523">
<ele>118.243225</ele>
<time>2010-06-20T14:09:18Z</time>
<desc>lat.=55.905064, lon.=26.582523, Alt.=118.243225m. Speed=19.224001m/h.</desc>
<speed>5.340000</speed>
</trkpt>
<trkpt lat="55.905037" lon="26.582462">
<ele>117.770569</ele>
<time>2010-06-20T14:09:19Z</time>
<desc>lat.=55.905037, lon.=26.582462, Alt.=117.770569m. Speed=19.152000m/h.</desc>
<speed>5.320000</speed>
</trkpt>
<trkpt lat="55.905006" lon="26.582384">
<ele>118.454163</ele>
<time>2010-06-20T14:09:20Z</time>
<desc>lat.=55.905006, lon.=26.582384, Alt.=118.454163m. Speed=19.188000m/h.</desc>
<speed>5.330000</speed>
</trkpt>
<trkpt lat="55.904980" lon="26.582338">
<ele>117.420959</ele>
<time>2010-06-20T14:09:21Z</time>
<desc>lat.=55.904980, lon.=26.582338, Alt.=117.420959m. Speed=17.856001m/h.</desc>
<speed>4.960000</speed>
</trkpt>
<trkpt lat="55.904945" lon="26.582283">
<ele>118.045959</ele>
<time>2010-06-20T14:09:22Z</time>
<desc>lat.=55.904945, lon.=26.582283, Alt.=118.045959m. Speed=17.243999m/h.</desc>
<speed>4.790000</speed>
</trkpt>
<trkpt lat="55.904919" lon="26.582214">
<ele>118.305725</ele>
<time>2010-06-20T14:09:23Z</time>
<desc>lat.=55.904919, lon.=26.582214, Alt.=118.305725m. Speed=17.712000m/h.</desc>
<speed>4.920000</speed>
</trkpt>
<trkpt lat="55.904892" lon="26.582144">
<ele>118.768616</ele>
<time>2010-06-20T14:09:24Z</time>
<desc>lat.=55.904892, lon.=26.582144, Alt.=118.768616m. Speed=18.576000m/h.</desc>
<speed>5.160000</speed>
</trkpt>
<trkpt lat="55.904861" lon="26.582081">
<ele>118.963928</ele>
<time>2010-06-20T14:09:25Z</time>
<desc>lat.=55.904861, lon.=26.582081, Alt.=118.963928m. Speed=16.271999m/h.</desc>
<speed>4.520000</speed>
</trkpt>
<trkpt lat="55.904842" lon="26.582012">
<ele>119.239319</ele>
<time>2010-06-20T14:09:26Z</time>
<desc>lat.=55.904842, lon.=26.582012, Alt.=119.239319m. Speed=16.955999m/h.</desc>
<speed>4.710000</speed>
</trkpt>
<trkpt lat="55.904827" lon="26.581924">
<ele>119.368225</ele>
<time>2010-06-20T14:09:27Z</time>
<desc>lat.=55.904827, lon.=26.581924, Alt.=119.368225m. Speed=18.576000m/h.</desc>
<speed>5.160000</speed>
</trkpt>
<trkpt lat="55.904812" lon="26.581823">
<ele>120.077209</ele>
<time>2010-06-20T14:09:28Z</time>
<desc>lat.=55.904812, lon.=26.581823, Alt.=120.077209m. Speed=18.252001m/h.</desc>
<speed>5.070000</speed>
</trkpt>
<trkpt lat="55.904797" lon="26.581749">
<ele>120.385803</ele>
<time>2010-06-20T14:09:29Z</time>
<desc>lat.=55.904797, lon.=26.581749, Alt.=120.385803m. Speed=18.143999m/h.</desc>
<speed>5.040000</speed>
</trkpt>
<trkpt lat="55.904774" lon="26.581682">
<ele>120.481506</ele>
<time>2010-06-20T14:09:30Z</time>
<desc>lat.=55.904774, lon.=26.581682, Alt.=120.481506m. Speed=16.848000m/h.</desc>
<speed>4.680000</speed>
</trkpt>
<trkpt lat="55.904747" lon="26.581627">
<ele>120.710022</ele>
<time>2010-06-20T14:09:31Z</time>
<desc>lat.=55.904747, lon.=26.581627, Alt.=120.710022m. Speed=15.624000m/h.</desc>
<speed>4.340000</speed>
</trkpt>
<trkpt lat="55.904716" lon="26.581583">
<ele>120.774475</ele>
<time>2010-06-20T14:09:32Z</time>
<desc>lat.=55.904716, lon.=26.581583, Alt.=120.774475m. Speed=15.876000m/h.</desc>
<speed>4.410000</speed>
</trkpt>
<trkpt lat="55.904690" lon="26.581533">
<ele>120.911194</ele>
<time>2010-06-20T14:09:33Z</time>
<desc>lat.=55.904690, lon.=26.581533, Alt.=120.911194m. Speed=15.372000m/h.</desc>
<speed>4.270000</speed>
</trkpt>
<trkpt lat="55.904667" lon="26.581488">
<ele>120.909241</ele>
<time>2010-06-20T14:09:34Z</time>
<desc>lat.=55.904667, lon.=26.581488, Alt.=120.909241m. Speed=14.364000m/h.</desc>
<speed>3.990000</speed>
</trkpt>
<trkpt lat="55.904644" lon="26.581432">
<ele>120.858459</ele>
<time>2010-06-20T14:09:35Z</time>
<desc>lat.=55.904644, lon.=26.581432, Alt.=120.858459m. Speed=14.292000m/h.</desc>
<speed>3.970000</speed>
</trkpt>
<trkpt lat="55.904621" lon="26.581375">
<ele>120.299866</ele>
<time>2010-06-20T14:09:36Z</time>
<desc>lat.=55.904621, lon.=26.581375, Alt.=120.299866m. Speed=14.688000m/h.</desc>
<speed>4.080000</speed>
</trkpt>
<trkpt lat="55.904598" lon="26.581329">
<ele>119.944397</ele>
<time>2010-06-20T14:09:37Z</time>
<desc>lat.=55.904598, lon.=26.581329, Alt.=119.944397m. Speed=14.616000m/h.</desc>
<speed>4.060000</speed>
</trkpt>
<trkpt lat="55.904564" lon="26.581293">
<ele>121.260803</ele>
<time>2010-06-20T14:09:38Z</time>
<desc>lat.=55.904564, lon.=26.581293, Alt.=121.260803m. Speed=11.700000m/h.</desc>
<speed>3.250000</speed>
</trkpt>
<trkpt lat="55.904537" lon="26.581276">
<ele>121.913147</ele>
<time>2010-06-20T14:09:39Z</time>
<desc>lat.=55.904537, lon.=26.581276, Alt.=121.913147m. Speed=10.764000m/h.</desc>
<speed>2.990000</speed>
</trkpt>
<trkpt lat="55.904510" lon="26.581234">
<ele>122.704163</ele>
<time>2010-06-20T14:09:40Z</time>
<desc>lat.=55.904510, lon.=26.581234, Alt.=122.704163m. Speed=11.700000m/h.</desc>
<speed>3.250000</speed>
</trkpt>
<trkpt lat="55.904495" lon="26.581175">
<ele>123.694397</ele>
<time>2010-06-20T14:09:41Z</time>
<desc>lat.=55.904495, lon.=26.581175, Alt.=123.694397m. Speed=13.212000m/h.</desc>
<speed>3.670000</speed>
</trkpt>
<trkpt lat="55.904469" lon="26.581137">
<ele>124.501038</ele>
<time>2010-06-20T14:09:42Z</time>
<desc>lat.=55.904469, lon.=26.581137, Alt.=124.501038m. Speed=13.752000m/h.</desc>
<speed>3.820000</speed>
</trkpt>
<trkpt lat="55.904427" lon="26.581083">
<ele>126.536194</ele>
<time>2010-06-20T14:09:43Z</time>
<desc>lat.=55.904427, lon.=26.581083, Alt.=126.536194m. Speed=12.564000m/h.</desc>
<speed>3.490000</speed>
</trkpt>
<trkpt lat="55.904388" lon="26.581020">
<ele>128.052856</ele>
<time>2010-06-20T14:09:44Z</time>
<desc>lat.=55.904388, lon.=26.581020, Alt.=128.052856m. Speed=13.536000m/h.</desc>
<speed>3.760000</speed>
</trkpt>
<trkpt lat="55.904358" lon="26.580980">
<ele>128.755981</ele>
<time>2010-06-20T14:09:45Z</time>
<desc>lat.=55.904358, lon.=26.580980, Alt.=128.755981m. Speed=12.852000m/h.</desc>
<speed>3.570000</speed>
</trkpt>
<trkpt lat="55.904331" lon="26.580944">
<ele>129.509888</ele>
<time>2010-06-20T14:09:46Z</time>
<desc>lat.=55.904331, lon.=26.580944, Alt.=129.509888m. Speed=12.276000m/h.</desc>
<speed>3.410000</speed>
</trkpt>
<trkpt lat="55.904305" lon="26.580904">
<ele>130.158325</ele>
<time>2010-06-20T14:09:47Z</time>
<desc>lat.=55.904305, lon.=26.580904, Alt.=130.158325m. Speed=13.104000m/h.</desc>
<speed>3.640000</speed>
</trkpt>
<trkpt lat="55.904270" lon="26.580866">
<ele>129.795044</ele>
<time>2010-06-20T14:09:48Z</time>
<desc>lat.=55.904270, lon.=26.580866, Alt.=129.795044m. Speed=14.076000m/h.</desc>
<speed>3.910000</speed>
</trkpt>
<trkpt lat="55.904240" lon="26.580830">
<ele>130.486450</ele>
<time>2010-06-20T14:09:49Z</time>
<desc>lat.=55.904240, lon.=26.580830, Alt.=130.486450m. Speed=11.844000m/h.</desc>
<speed>3.290000</speed>
</trkpt>
<trkpt lat="55.904221" lon="26.580790">
<ele>131.611450</ele>
<time>2010-06-20T14:09:50Z</time>
<desc>lat.=55.904221, lon.=26.580790, Alt.=131.611450m. Speed=11.052000m/h.</desc>
<speed>3.070000</speed>
</trkpt>
<trkpt lat="55.904194" lon="26.580750">
<ele>132.232544</ele>
<time>2010-06-20T14:09:51Z</time>
<desc>lat.=55.904194, lon.=26.580750, Alt.=132.232544m. Speed=10.008000m/h.</desc>
<speed>2.780000</speed>
</trkpt>
<trkpt lat="55.904175" lon="26.580700">
<ele>132.470825</ele>
<time>2010-06-20T14:09:52Z</time>
<desc>lat.=55.904175, lon.=26.580700, Alt.=132.470825m. Speed=11.196000m/h.</desc>
<speed>3.110000</speed>
</trkpt>
<trkpt lat="55.904152" lon="26.580650">
<ele>132.779419</ele>
<time>2010-06-20T14:09:53Z</time>
<desc>lat.=55.904152, lon.=26.580650, Alt.=132.779419m. Speed=10.764000m/h.</desc>
<speed>2.990000</speed>
</trkpt>
<trkpt lat="55.904129" lon="26.580622">
<ele>133.392700</ele>
<time>2010-06-20T14:09:54Z</time>
<desc>lat.=55.904129, lon.=26.580622, Alt.=133.392700m. Speed=10.728000m/h.</desc>
<speed>2.980000</speed>
</trkpt>
<trkpt lat="55.904110" lon="26.580532">
<ele>131.580200</ele>
<time>2010-06-20T14:09:55Z</time>
<desc>lat.=55.904110, lon.=26.580532, Alt.=131.580200m. Speed=16.488001m/h.</desc>
<speed>4.580000</speed>
</trkpt>
<trkpt lat="55.904091" lon="26.580467">
<ele>131.798950</ele>
<time>2010-06-20T14:09:56Z</time>
<desc>lat.=55.904091, lon.=26.580467, Alt.=131.798950m. Speed=15.408000m/h.</desc>
<speed>4.280000</speed>
</trkpt>
<trkpt lat="55.904068" lon="26.580395">
<ele>131.228638</ele>
<time>2010-06-20T14:09:57Z</time>
<desc>lat.=55.904068, lon.=26.580395, Alt.=131.228638m. Speed=15.156000m/h.</desc>
<speed>4.210000</speed>
</trkpt>
<trkpt lat="55.904045" lon="26.580317">
<ele>131.525513</ele>
<time>2010-06-20T14:09:58Z</time>
<desc>lat.=55.904045, lon.=26.580317, Alt.=131.525513m. Speed=14.256000m/h.</desc>
<speed>3.960000</speed>
</trkpt>
<trkpt lat="55.904026" lon="26.580242">
<ele>130.834106</ele>
<time>2010-06-20T14:09:59Z</time>
<desc>lat.=55.904026, lon.=26.580242, Alt.=130.834106m. Speed=17.351999m/h.</desc>
<speed>4.820000</speed>
</trkpt>
<trkpt lat="55.904007" lon="26.580162">
<ele>132.310669</ele>
<time>2010-06-20T14:10:00Z</time>
<desc>lat.=55.904007, lon.=26.580162, Alt.=132.310669m. Speed=14.940000m/h.</desc>
<speed>4.150000</speed>
</trkpt>
<trkpt lat="55.903988" lon="26.580103">
<ele>132.681763</ele>
<time>2010-06-20T14:10:01Z</time>
<desc>lat.=55.903988, lon.=26.580103, Alt.=132.681763m. Speed=13.428000m/h.</desc>
<speed>3.730000</speed>
</trkpt>
<trkpt lat="55.903965" lon="26.580042">
<ele>132.287231</ele>
<time>2010-06-20T14:10:02Z</time>
<desc>lat.=55.903965, lon.=26.580042, Alt.=132.287231m. Speed=12.960000m/h.</desc>
<speed>3.600000</speed>
</trkpt>
<trkpt lat="55.903946" lon="26.579966">
<ele>131.193481</ele>
<time>2010-06-20T14:10:03Z</time>
<desc>lat.=55.903946, lon.=26.579966, Alt.=131.193481m. Speed=14.652000m/h.</desc>
<speed>4.070000</speed>
</trkpt>
<trkpt lat="55.903919" lon="26.579882">
<ele>130.728638</ele>
<time>2010-06-20T14:10:04Z</time>
<desc>lat.=55.903919, lon.=26.579882, Alt.=130.728638m. Speed=15.804000m/h.</desc>
<speed>4.390000</speed>
</trkpt>
<trkpt lat="55.903904" lon="26.579796">
<ele>128.556763</ele>
<time>2010-06-20T14:10:05Z</time>
<desc>lat.=55.903904, lon.=26.579796, Alt.=128.556763m. Speed=22.716000m/h.</desc>
<speed>6.310000</speed>
</trkpt>
<trkpt lat="55.903877" lon="26.579712">
<ele>128.697388</ele>
<time>2010-06-20T14:10:06Z</time>
<desc>lat.=55.903877, lon.=26.579712, Alt.=128.697388m. Speed=15.192000m/h.</desc>
<speed>4.220000</speed>
</trkpt>
<trkpt lat="55.903862" lon="26.579615">
<ele>125.583069</ele>
<time>2010-06-20T14:10:07Z</time>
<desc>lat.=55.903862, lon.=26.579615, Alt.=125.583069m. Speed=15.516000m/h.</desc>
<speed>4.310000</speed>
</trkpt>
<trkpt lat="55.903843" lon="26.579535">
<ele>122.176819</ele>
<time>2010-06-20T14:10:08Z</time>
<desc>lat.=55.903843, lon.=26.579535, Alt.=122.176819m. Speed=17.243999m/h.</desc>
<speed>4.790000</speed>
</trkpt>
<trkpt lat="55.903820" lon="26.579468">
<ele>121.454163</ele>
<time>2010-06-20T14:10:09Z</time>
<desc>lat.=55.903820, lon.=26.579468, Alt.=121.454163m. Speed=15.876000m/h.</desc>
<speed>4.410000</speed>
</trkpt>
<trkpt lat="55.903801" lon="26.579401">
<ele>119.903381</ele>
<time>2010-06-20T14:10:10Z</time>
<desc>lat.=55.903801, lon.=26.579401, Alt.=119.903381m. Speed=15.696000m/h.</desc>
<speed>4.360000</speed>
</trkpt>
<trkpt lat="55.903786" lon="26.579317">
<ele>118.475647</ele>
<time>2010-06-20T14:10:11Z</time>
<desc>lat.=55.903786, lon.=26.579317, Alt.=118.475647m. Speed=16.236000m/h.</desc>
<speed>4.510000</speed>
</trkpt>
<trkpt lat="55.903774" lon="26.579222">
<ele>117.073303</ele>
<time>2010-06-20T14:10:12Z</time>
<desc>lat.=55.903774, lon.=26.579222, Alt.=117.073303m. Speed=16.091999m/h.</desc>
<speed>4.470000</speed>
</trkpt>
<trkpt lat="55.903755" lon="26.579153">
<ele>117.135803</ele>
<time>2010-06-20T14:10:13Z</time>
<desc>lat.=55.903755, lon.=26.579153, Alt.=117.135803m. Speed=14.364000m/h.</desc>
<speed>3.990000</speed>
</trkpt>
<trkpt lat="55.903725" lon="26.579092">
<ele>117.700256</ele>
<time>2010-06-20T14:10:14Z</time>
<desc>lat.=55.903725, lon.=26.579092, Alt.=117.700256m. Speed=16.091999m/h.</desc>
<speed>4.470000</speed>
</trkpt>
<trkpt lat="55.903702" lon="26.579029">
<ele>118.383850</ele>
<time>2010-06-20T14:10:15Z</time>
<desc>lat.=55.903702, lon.=26.579029, Alt.=118.383850m. Speed=16.596001m/h.</desc>
<speed>4.610000</speed>
</trkpt>
<trkpt lat="55.903671" lon="26.578966">
<ele>119.389709</ele>
<time>2010-06-20T14:10:16Z</time>
<desc>lat.=55.903671, lon.=26.578966, Alt.=119.389709m. Speed=16.452000m/h.</desc>
<speed>4.570000</speed>
</trkpt>
<trkpt lat="55.903645" lon="26.578905">
<ele>119.737366</ele>
<time>2010-06-20T14:10:17Z</time>
<desc>lat.=55.903645, lon.=26.578905, Alt.=119.737366m. Speed=17.172001m/h.</desc>
<speed>4.770000</speed>
</trkpt>
<trkpt lat="55.903622" lon="26.578840">
<ele>119.870178</ele>
<time>2010-06-20T14:10:18Z</time>
<desc>lat.=55.903622, lon.=26.578840, Alt.=119.870178m. Speed=17.028000m/h.</desc>
<speed>4.730000</speed>
</trkpt>
<trkpt lat="55.903599" lon="26.578772">
<ele>120.227600</ele>
<time>2010-06-20T14:10:19Z</time>
<desc>lat.=55.903599, lon.=26.578772, Alt.=120.227600m. Speed=17.208000m/h.</desc>
<speed>4.780000</speed>
</trkpt>
<trkpt lat="55.903572" lon="26.578703">
<ele>120.754944</ele>
<time>2010-06-20T14:10:20Z</time>
<desc>lat.=55.903572, lon.=26.578703, Alt.=120.754944m. Speed=16.704000m/h.</desc>
<speed>4.640000</speed>
</trkpt>
<trkpt lat="55.903542" lon="26.578648">
<ele>120.991272</ele>
<time>2010-06-20T14:10:21Z</time>
<desc>lat.=55.903542, lon.=26.578648, Alt.=120.991272m. Speed=16.128000m/h.</desc>
<speed>4.480000</speed>
</trkpt>
<trkpt lat="55.903511" lon="26.578585">
<ele>122.266663</ele>
<time>2010-06-20T14:10:22Z</time>
<desc>lat.=55.903511, lon.=26.578585, Alt.=122.266663m. Speed=14.472000m/h.</desc>
<speed>4.020000</speed>
</trkpt>
<trkpt lat="55.903484" lon="26.578541">
<ele>122.622131</ele>
<time>2010-06-20T14:10:23Z</time>
<desc>lat.=55.903484, lon.=26.578541, Alt.=122.622131m. Speed=15.516000m/h.</desc>
<speed>4.310000</speed>
</trkpt>
<trkpt lat="55.903450" lon="26.578468">
<ele>123.745178</ele>
<time>2010-06-20T14:10:24Z</time>
<desc>lat.=55.903450, lon.=26.578468, Alt.=123.745178m. Speed=16.308001m/h.</desc>
<speed>4.530000</speed>
</trkpt>
<trkpt lat="55.903416" lon="26.578396">
<ele>124.905334</ele>
<time>2010-06-20T14:10:25Z</time>
<desc>lat.=55.903416, lon.=26.578396, Alt.=124.905334m. Speed=17.063999m/h.</desc>
<speed>4.740000</speed>
</trkpt>
<trkpt lat="55.903381" lon="26.578333">
<ele>126.626038</ele>
<time>2010-06-20T14:10:26Z</time>
<desc>lat.=55.903381, lon.=26.578333, Alt.=126.626038m. Speed=16.884001m/h.</desc>
<speed>4.690000</speed>
</trkpt>
<trkpt lat="55.903355" lon="26.578253">
<ele>127.077209</ele>
<time>2010-06-20T14:10:27Z</time>
<desc>lat.=55.903355, lon.=26.578253, Alt.=127.077209m. Speed=20.591999m/h.</desc>
<speed>5.720000</speed>
</trkpt>
<trkpt lat="55.903328" lon="26.578173">
<ele>127.633850</ele>
<time>2010-06-20T14:10:28Z</time>
<desc>lat.=55.903328, lon.=26.578173, Alt.=127.633850m. Speed=19.728001m/h.</desc>
<speed>5.480000</speed>
</trkpt>
<trkpt lat="55.903301" lon="26.578098">
<ele>127.788147</ele>
<time>2010-06-20T14:10:29Z</time>
<desc>lat.=55.903301, lon.=26.578098, Alt.=127.788147m. Speed=17.496000m/h.</desc>
<speed>4.860000</speed>
</trkpt>
<trkpt lat="55.903271" lon="26.578032">
<ele>127.741272</ele>
<time>2010-06-20T14:10:30Z</time>
<desc>lat.=55.903271, lon.=26.578032, Alt.=127.741272m. Speed=18.180000m/h.</desc>
<speed>5.050000</speed>
</trkpt>
<trkpt lat="55.903263" lon="26.577946">
<ele>128.912231</ele>
<time>2010-06-20T14:10:31Z</time>
<desc>lat.=55.903263, lon.=26.577946, Alt.=128.912231m. Speed=16.344000m/h.</desc>
<speed>4.540000</speed>
</trkpt>
<trkpt lat="55.903244" lon="26.577883">
<ele>130.056763</ele>
<time>2010-06-20T14:10:32Z</time>
<desc>lat.=55.903244, lon.=26.577883, Alt.=130.056763m. Speed=12.024000m/h.</desc>
<speed>3.340000</speed>
</trkpt>
<trkpt lat="55.903233" lon="26.577839">
<ele>130.826294</ele>
<time>2010-06-20T14:10:33Z</time>
<desc>lat.=55.903233, lon.=26.577839, Alt.=130.826294m. Speed=9.216000m/h.</desc>
<speed>2.560000</speed>
</trkpt>
<trkpt lat="55.903225" lon="26.577801">
<ele>131.353638</ele>
<time>2010-06-20T14:10:34Z</time>
<desc>lat.=55.903225, lon.=26.577801, Alt.=131.353638m. Speed=7.524000m/h.</desc>
<speed>2.090000</speed>
</trkpt>
<trkpt lat="55.903214" lon="26.577751">
<ele>130.556763</ele>
<time>2010-06-20T14:10:35Z</time>
<desc>lat.=55.903214, lon.=26.577751, Alt.=130.556763m. Speed=14.796000m/h.</desc>
<speed>4.110000</speed>
</trkpt>
<trkpt lat="55.903210" lon="26.577665">
<ele>129.853638</ele>
<time>2010-06-20T14:10:36Z</time>
<desc>lat.=55.903210, lon.=26.577665, Alt.=129.853638m. Speed=17.568001m/h.</desc>
<speed>4.880000</speed>
</trkpt>
<trkpt lat="55.903206" lon="26.577602">
<ele>130.158325</ele>
<time>2010-06-20T14:10:37Z</time>
<desc>lat.=55.903206, lon.=26.577602, Alt.=130.158325m. Speed=14.652000m/h.</desc>
<speed>4.070000</speed>
</trkpt>
<trkpt lat="55.903194" lon="26.577539">
<ele>130.658325</ele>
<time>2010-06-20T14:10:38Z</time>
<desc>lat.=55.903194, lon.=26.577539, Alt.=130.658325m. Speed=14.184000m/h.</desc>
<speed>3.940000</speed>
</trkpt>
<trkpt lat="55.903172" lon="26.577501">
<ele>131.298950</ele>
<time>2010-06-20T14:10:39Z</time>
<desc>lat.=55.903172, lon.=26.577501, Alt.=131.298950m. Speed=12.168000m/h.</desc>
<speed>3.380000</speed>
</trkpt>
<trkpt lat="55.903145" lon="26.577471">
<ele>131.974731</ele>
<time>2010-06-20T14:10:40Z</time>
<desc>lat.=55.903145, lon.=26.577471, Alt.=131.974731m. Speed=9.864000m/h.</desc>
<speed>2.740000</speed>
</trkpt>
<trkpt lat="55.903141" lon="26.577435">
<ele>132.451294</ele>
<time>2010-06-20T14:10:41Z</time>
<desc>lat.=55.903141, lon.=26.577435, Alt.=132.451294m. Speed=6.732000m/h.</desc>
<speed>1.870000</speed>
</trkpt>
<trkpt lat="55.903141" lon="26.577393">
<ele>133.677856</ele>
<time>2010-06-20T14:10:42Z</time>
<desc>lat.=55.903141, lon.=26.577393, Alt.=133.677856m. Speed=6.120000m/h.</desc>
<speed>1.700000</speed>
</trkpt>
<trkpt lat="55.903133" lon="26.577372">
<ele>134.482544</ele>
<time>2010-06-20T14:10:43Z</time>
<desc>lat.=55.903133, lon.=26.577372, Alt.=134.482544m. Speed=3.888000m/h.</desc>
<speed>1.080000</speed>
</trkpt>
<trkpt lat="55.903133" lon="26.577316">
<ele>135.404419</ele>
<time>2010-06-20T14:10:44Z</time>
<desc>lat.=55.903133, lon.=26.577316, Alt.=135.404419m. Speed=6.264000m/h.</desc>
<speed>1.740000</speed>
</trkpt>
<trkpt lat="55.903133" lon="26.577267">
<ele>135.130981</ele>
<time>2010-06-20T14:10:45Z</time>
<desc>lat.=55.903133, lon.=26.577267, Alt.=135.130981m. Speed=5.436000m/h.</desc>
<speed>1.510000</speed>
</trkpt>
<trkpt lat="55.903122" lon="26.577219">
<ele>135.064575</ele>
<time>2010-06-20T14:10:46Z</time>
<desc>lat.=55.903122, lon.=26.577219, Alt.=135.064575m. Speed=7.056000m/h.</desc>
<speed>1.960000</speed>
</trkpt>
<trkpt lat="55.903114" lon="26.577187">
<ele>134.970825</ele>
<time>2010-06-20T14:10:47Z</time>
<desc>lat.=55.903114, lon.=26.577187, Alt.=134.970825m. Speed=9.144000m/h.</desc>
<speed>2.540000</speed>
</trkpt>
<trkpt lat="55.903103" lon="26.577150">
<ele>135.209106</ele>
<time>2010-06-20T14:10:48Z</time>
<desc>lat.=55.903103, lon.=26.577150, Alt.=135.209106m. Speed=7.740000m/h.</desc>
<speed>2.150000</speed>
</trkpt>
<trkpt lat="55.903095" lon="26.577114">
<ele>135.209106</ele>
<time>2010-06-20T14:10:49Z</time>
<desc>lat.=55.903095, lon.=26.577114, Alt.=135.209106m. Speed=7.992000m/h.</desc>
<speed>2.220000</speed>
</trkpt>
<trkpt lat="55.903088" lon="26.577074">
<ele>134.755981</ele>
<time>2010-06-20T14:10:50Z</time>
<desc>lat.=55.903088, lon.=26.577074, Alt.=134.755981m. Speed=7.920000m/h.</desc>
<speed>2.200000</speed>
</trkpt>
<trkpt lat="55.903076" lon="26.577023">
<ele>134.134888</ele>
<time>2010-06-20T14:10:51Z</time>
<desc>lat.=55.903076, lon.=26.577023, Alt.=134.134888m. Speed=10.404000m/h.</desc>
<speed>2.890000</speed>
</trkpt>
<trkpt lat="55.903069" lon="26.576929">
<ele>133.115356</ele>
<time>2010-06-20T14:10:52Z</time>
<desc>lat.=55.903069, lon.=26.576929, Alt.=133.115356m. Speed=16.452000m/h.</desc>
<speed>4.570000</speed>
</trkpt>
<trkpt lat="55.903072" lon="26.576851">
<ele>132.787231</ele>
<time>2010-06-20T14:10:53Z</time>
<desc>lat.=55.903072, lon.=26.576851, Alt.=132.787231m. Speed=15.372000m/h.</desc>
<speed>4.270000</speed>
</trkpt>
<trkpt lat="55.903069" lon="26.576778">
<ele>132.373169</ele>
<time>2010-06-20T14:10:54Z</time>
<desc>lat.=55.903069, lon.=26.576778, Alt.=132.373169m. Speed=13.932000m/h.</desc>
<speed>3.870000</speed>
</trkpt>
<trkpt lat="55.903065" lon="26.576719">
<ele>132.857544</ele>
<time>2010-06-20T14:10:55Z</time>
<desc>lat.=55.903065, lon.=26.576719, Alt.=132.857544m. Speed=10.764000m/h.</desc>
<speed>2.990000</speed>
</trkpt>
<trkpt lat="55.903065" lon="26.576628">
<ele>132.474731</ele>
<time>2010-06-20T14:10:56Z</time>
<desc>lat.=55.903065, lon.=26.576628, Alt.=132.474731m. Speed=10.368000m/h.</desc>
<speed>2.880000</speed>
</trkpt>
<trkpt lat="55.903061" lon="26.576542">
<ele>131.486450</ele>
<time>2010-06-20T14:10:57Z</time>
<desc>lat.=55.903061, lon.=26.576542, Alt.=131.486450m. Speed=9.504000m/h.</desc>
<speed>2.640000</speed>
</trkpt>
<trkpt lat="55.903057" lon="26.576456">
<ele>130.353638</ele>
<time>2010-06-20T14:10:58Z</time>
<desc>lat.=55.903057, lon.=26.576456, Alt.=130.353638m. Speed=10.836000m/h.</desc>
<speed>3.010000</speed>
</trkpt>
<trkpt lat="55.903053" lon="26.576382">
<ele>129.666138</ele>
<time>2010-06-20T14:10:59Z</time>
<desc>lat.=55.903053, lon.=26.576382, Alt.=129.666138m. Speed=11.412000m/h.</desc>
<speed>3.170000</speed>
</trkpt>
<trkpt lat="55.903042" lon="26.576286">
<ele>128.384888</ele>
<time>2010-06-20T14:11:00Z</time>
<desc>lat.=55.903042, lon.=26.576286, Alt.=128.384888m. Speed=13.392000m/h.</desc>
<speed>3.720000</speed>
</trkpt>
<trkpt lat="55.903027" lon="26.576221">
<ele>128.486450</ele>
<time>2010-06-20T14:11:01Z</time>
<desc>lat.=55.903027, lon.=26.576221, Alt.=128.486450m. Speed=13.140000m/h.</desc>
<speed>3.650000</speed>
</trkpt>
<trkpt lat="55.903008" lon="26.576181">
<ele>129.029419</ele>
<time>2010-06-20T14:11:02Z</time>
<desc>lat.=55.903008, lon.=26.576181, Alt.=129.029419m. Speed=11.376000m/h.</desc>
<speed>3.160000</speed>
</trkpt>
<trkpt lat="55.902985" lon="26.576141">
<ele>129.041138</ele>
<time>2010-06-20T14:11:03Z</time>
<desc>lat.=55.902985, lon.=26.576141, Alt.=129.041138m. Speed=9.972000m/h.</desc>
<speed>2.770000</speed>
</trkpt>
<trkpt lat="55.902962" lon="26.576075">
<ele>128.658325</ele>
<time>2010-06-20T14:11:04Z</time>
<desc>lat.=55.902962, lon.=26.576075, Alt.=128.658325m. Speed=12.276000m/h.</desc>
<speed>3.410000</speed>
</trkpt>
<trkpt lat="55.902943" lon="26.575998">
<ele>127.891663</ele>
<time>2010-06-20T14:11:05Z</time>
<desc>lat.=55.902943, lon.=26.575998, Alt.=127.891663m. Speed=15.984000m/h.</desc>
<speed>4.440000</speed>
</trkpt>
<trkpt lat="55.902924" lon="26.575920">
<ele>127.292053</ele>
<time>2010-06-20T14:11:06Z</time>
<desc>lat.=55.902924, lon.=26.575920, Alt.=127.292053m. Speed=14.220000m/h.</desc>
<speed>3.950000</speed>
</trkpt>
<trkpt lat="55.902897" lon="26.575836">
<ele>126.963928</ele>
<time>2010-06-20T14:11:07Z</time>
<desc>lat.=55.902897, lon.=26.575836, Alt.=126.963928m. Speed=18.143999m/h.</desc>
<speed>5.040000</speed>
</trkpt>
<trkpt lat="55.902863" lon="26.575766">
<ele>126.624084</ele>
<time>2010-06-20T14:11:08Z</time>
<desc>lat.=55.902863, lon.=26.575766, Alt.=126.624084m. Speed=17.388000m/h.</desc>
<speed>4.830000</speed>
</trkpt>
<trkpt lat="55.902840" lon="26.575712">
<ele>126.893616</ele>
<time>2010-06-20T14:11:09Z</time>
<desc>lat.=55.902840, lon.=26.575712, Alt.=126.893616m. Speed=12.564000m/h.</desc>
<speed>3.490000</speed>
</trkpt>
<trkpt lat="55.902821" lon="26.575653">
<ele>126.852600</ele>
<time>2010-06-20T14:11:10Z</time>
<desc>lat.=55.902821, lon.=26.575653, Alt.=126.852600m. Speed=11.736000m/h.</desc>
<speed>3.260000</speed>
</trkpt>
<trkpt lat="55.902794" lon="26.575607">
<ele>126.512756</ele>
<time>2010-06-20T14:11:11Z</time>
<desc>lat.=55.902794, lon.=26.575607, Alt.=126.512756m. Speed=11.268000m/h.</desc>
<speed>3.130000</speed>
</trkpt>
<trkpt lat="55.902782" lon="26.575544">
<ele>126.602600</ele>
<time>2010-06-20T14:11:12Z</time>
<desc>lat.=55.902782, lon.=26.575544, Alt.=126.602600m. Speed=13.248000m/h.</desc>
<speed>3.680000</speed>
</trkpt>
<trkpt lat="55.902767" lon="26.575415">
<ele>124.532288</ele>
<time>2010-06-20T14:11:13Z</time>
<desc>lat.=55.902767, lon.=26.575415, Alt.=124.532288m. Speed=20.448000m/h.</desc>
<speed>5.680000</speed>
</trkpt>
<trkpt lat="55.902756" lon="26.575279">
<ele>123.301819</ele>
<time>2010-06-20T14:11:14Z</time>
<desc>lat.=55.902756, lon.=26.575279, Alt.=123.301819m. Speed=22.427999m/h.</desc>
<speed>6.230000</speed>
</trkpt>
<trkpt lat="55.902744" lon="26.575157">
<ele>122.170959</ele>
<time>2010-06-20T14:11:15Z</time>
<desc>lat.=55.902744, lon.=26.575157, Alt.=122.170959m. Speed=23.436001m/h.</desc>
<speed>6.510000</speed>
</trkpt>
<trkpt lat="55.902725" lon="26.575052">
<ele>121.088928</ele>
<time>2010-06-20T14:11:16Z</time>
<desc>lat.=55.902725, lon.=26.575052, Alt.=121.088928m. Speed=22.752001m/h.</desc>
<speed>6.320000</speed>
</trkpt>
<trkpt lat="55.902702" lon="26.574938">
<ele>119.879944</ele>
<time>2010-06-20T14:11:17Z</time>
<desc>lat.=55.902702, lon.=26.574938, Alt.=119.879944m. Speed=25.416000m/h.</desc>
<speed>7.060000</speed>
</trkpt>
<trkpt lat="55.902691" lon="26.574816">
<ele>118.833069</ele>
<time>2010-06-20T14:11:18Z</time>
<desc>lat.=55.902691, lon.=26.574816, Alt.=118.833069m. Speed=22.320000m/h.</desc>
<speed>6.200000</speed>
</trkpt>
<trkpt lat="55.902668" lon="26.574703">
<ele>117.922913</ele>
<time>2010-06-20T14:11:19Z</time>
<desc>lat.=55.902668, lon.=26.574703, Alt.=117.922913m. Speed=22.680000m/h.</desc>
<speed>6.300000</speed>
</trkpt>
<trkpt lat="55.902645" lon="26.574587">
<ele>117.442444</ele>
<time>2010-06-20T14:11:20Z</time>
<desc>lat.=55.902645, lon.=26.574587, Alt.=117.442444m. Speed=22.680000m/h.</desc>
<speed>6.300000</speed>
</trkpt>
<trkpt lat="55.902622" lon="26.574457">
<ele>118.016663</ele>
<time>2010-06-20T14:11:21Z</time>
<desc>lat.=55.902622, lon.=26.574457, Alt.=118.016663m. Speed=24.048000m/h.</desc>
<speed>6.680000</speed>
</trkpt>
<trkpt lat="55.902603" lon="26.574335">
<ele>119.024475</ele>
<time>2010-06-20T14:11:22Z</time>
<desc>lat.=55.902603, lon.=26.574335, Alt.=119.024475m. Speed=22.212000m/h.</desc>
<speed>6.170000</speed>
</trkpt>
<trkpt lat="55.902592" lon="26.574207">
<ele>120.157288</ele>
<time>2010-06-20T14:11:23Z</time>
<desc>lat.=55.902592, lon.=26.574207, Alt.=120.157288m. Speed=23.040001m/h.</desc>
<speed>6.400000</speed>
</trkpt>
<trkpt lat="55.902584" lon="26.574116">
<ele>120.118225</ele>
<time>2010-06-20T14:11:24Z</time>
<desc>lat.=55.902584, lon.=26.574116, Alt.=120.118225m. Speed=17.964001m/h.</desc>
<speed>4.990000</speed>
</trkpt>
<trkpt lat="55.902588" lon="26.573992">
<ele>119.649475</ele>
<time>2010-06-20T14:11:25Z</time>
<desc>lat.=55.902588, lon.=26.573992, Alt.=119.649475m. Speed=22.176001m/h.</desc>
<speed>6.160000</speed>
</trkpt>
<trkpt lat="55.902584" lon="26.573872">
<ele>119.297913</ele>
<time>2010-06-20T14:11:26Z</time>
<desc>lat.=55.902584, lon.=26.573872, Alt.=119.297913m. Speed=21.563999m/h.</desc>
<speed>5.990000</speed>
</trkpt>
<trkpt lat="55.902573" lon="26.573795">
<ele>119.913147</ele>
<time>2010-06-20T14:11:27Z</time>
<desc>lat.=55.902573, lon.=26.573795, Alt.=119.913147m. Speed=14.436000m/h.</desc>
<speed>4.010000</speed>
</trkpt>
<trkpt lat="55.902557" lon="26.573736">
<ele>120.231506</ele>
<time>2010-06-20T14:11:28Z</time>
<desc>lat.=55.902557, lon.=26.573736, Alt.=120.231506m. Speed=13.536000m/h.</desc>
<speed>3.760000</speed>
</trkpt>
<trkpt lat="55.902542" lon="26.573668">
<ele>120.940491</ele>
<time>2010-06-20T14:11:29Z</time>
<desc>lat.=55.902542, lon.=26.573668, Alt.=120.940491m. Speed=14.652000m/h.</desc>
<speed>4.070000</speed>
</trkpt>
<trkpt lat="55.902523" lon="26.573597">
<ele>121.932678</ele>
<time>2010-06-20T14:11:30Z</time>
<desc>lat.=55.902523, lon.=26.573597, Alt.=121.932678m. Speed=15.372000m/h.</desc>
<speed>4.270000</speed>
</trkpt>
<trkpt lat="55.902496" lon="26.573528">
<ele>122.323303</ele>
<time>2010-06-20T14:11:31Z</time>
<desc>lat.=55.902496, lon.=26.573528, Alt.=122.323303m. Speed=16.416000m/h.</desc>
<speed>4.560000</speed>
</trkpt>
<trkpt lat="55.902473" lon="26.573458">
<ele>122.649475</ele>
<time>2010-06-20T14:11:32Z</time>
<desc>lat.=55.902473, lon.=26.573458, Alt.=122.649475m. Speed=14.220000m/h.</desc>
<speed>3.950000</speed>
</trkpt>
<trkpt lat="55.902454" lon="26.573406">
<ele>122.696350</ele>
<time>2010-06-20T14:11:33Z</time>
<desc>lat.=55.902454, lon.=26.573406, Alt.=122.696350m. Speed=19.368000m/h.</desc>
<speed>5.380000</speed>
</trkpt>
<trkpt lat="55.902443" lon="26.573309">
<ele>123.208069</ele>
<time>2010-06-20T14:11:34Z</time>
<desc>lat.=55.902443, lon.=26.573309, Alt.=123.208069m. Speed=20.052000m/h.</desc>
<speed>5.570000</speed>
</trkpt>
<trkpt lat="55.902416" lon="26.573227">
<ele>123.165100</ele>
<time>2010-06-20T14:11:35Z</time>
<desc>lat.=55.902416, lon.=26.573227, Alt.=123.165100m. Speed=18.827999m/h.</desc>
<speed>5.230000</speed>
</trkpt>
<trkpt lat="55.902393" lon="26.573107">
<ele>123.610413</ele>
<time>2010-06-20T14:11:36Z</time>
<desc>lat.=55.902393, lon.=26.573107, Alt.=123.610413m. Speed=19.511999m/h.</desc>
<speed>5.420000</speed>
</trkpt>
<trkpt lat="55.902363" lon="26.573030">
<ele>125.055725</ele>
<time>2010-06-20T14:11:37Z</time>
<desc>lat.=55.902363, lon.=26.573030, Alt.=125.055725m. Speed=17.496000m/h.</desc>
<speed>4.860000</speed>
</trkpt>
<trkpt lat="55.902332" lon="26.572954">
<ele>126.001038</ele>
<time>2010-06-20T14:11:38Z</time>
<desc>lat.=55.902332, lon.=26.572954, Alt.=126.001038m. Speed=18.288000m/h.</desc>
<speed>5.080000</speed>
</trkpt>
<trkpt lat="55.902298" lon="26.572870">
<ele>126.950256</ele>
<time>2010-06-20T14:11:39Z</time>
<desc>lat.=55.902298, lon.=26.572870, Alt.=126.950256m. Speed=20.591999m/h.</desc>
<speed>5.720000</speed>
</trkpt>
<trkpt lat="55.902256" lon="26.572765">
<ele>129.978638</ele>
<time>2010-06-20T14:11:40Z</time>
<desc>lat.=55.902256, lon.=26.572765, Alt.=129.978638m. Speed=19.980000m/h.</desc>
<speed>5.550000</speed>
</trkpt>
<trkpt lat="55.902229" lon="26.572666">
<ele>131.963013</ele>
<time>2010-06-20T14:11:41Z</time>
<desc>lat.=55.902229, lon.=26.572666, Alt.=131.963013m. Speed=19.836000m/h.</desc>
<speed>5.510000</speed>
</trkpt>
<trkpt lat="55.902206" lon="26.572563">
<ele>133.869263</ele>
<time>2010-06-20T14:11:42Z</time>
<desc>lat.=55.902206, lon.=26.572563, Alt.=133.869263m. Speed=19.656000m/h.</desc>
<speed>5.460000</speed>
</trkpt>
<trkpt lat="55.902195" lon="26.572470">
<ele>134.744263</ele>
<time>2010-06-20T14:11:43Z</time>
<desc>lat.=55.902195, lon.=26.572470, Alt.=134.744263m. Speed=20.268000m/h.</desc>
<speed>5.630000</speed>
</trkpt>
<trkpt lat="55.902180" lon="26.572392">
<ele>135.291138</ele>
<time>2010-06-20T14:11:44Z</time>
<desc>lat.=55.902180, lon.=26.572392, Alt.=135.291138m. Speed=16.955999m/h.</desc>
<speed>4.710000</speed>
</trkpt>
<trkpt lat="55.902153" lon="26.572311">
<ele>135.783325</ele>
<time>2010-06-20T14:11:45Z</time>
<desc>lat.=55.902153, lon.=26.572311, Alt.=135.783325m. Speed=19.403999m/h.</desc>
<speed>5.390000</speed>
</trkpt>
<trkpt lat="55.902126" lon="26.572227">
<ele>135.521606</ele>
<time>2010-06-20T14:11:46Z</time>
<desc>lat.=55.902126, lon.=26.572227, Alt.=135.521606m. Speed=17.028000m/h.</desc>
<speed>4.730000</speed>
</trkpt>
<trkpt lat="55.902096" lon="26.572121">
<ele>135.849731</ele>
<time>2010-06-20T14:11:47Z</time>
<desc>lat.=55.902096, lon.=26.572121, Alt.=135.849731m. Speed=19.080000m/h.</desc>
<speed>5.300000</speed>
</trkpt>
<trkpt lat="55.902073" lon="26.572025">
<ele>135.841919</ele>
<time>2010-06-20T14:11:48Z</time>
<desc>lat.=55.902073, lon.=26.572025, Alt.=135.841919m. Speed=20.412001m/h.</desc>
<speed>5.670000</speed>
</trkpt>
<trkpt lat="55.902054" lon="26.571918">
<ele>136.677856</ele>
<time>2010-06-20T14:11:49Z</time>
<desc>lat.=55.902054, lon.=26.571918, Alt.=136.677856m. Speed=20.628000m/h.</desc>
<speed>5.730000</speed>
</trkpt>
<trkpt lat="55.902039" lon="26.571791">
<ele>138.185669</ele>
<time>2010-06-20T14:11:50Z</time>
<desc>lat.=55.902039, lon.=26.571791, Alt.=138.185669m. Speed=22.823999m/h.</desc>
<speed>6.340000</speed>
</trkpt>
<trkpt lat="55.902035" lon="26.571676">
<ele>139.455200</ele>
<time>2010-06-20T14:11:51Z</time>
<desc>lat.=55.902035, lon.=26.571676, Alt.=139.455200m. Speed=22.500000m/h.</desc>
<speed>6.250000</speed>
</trkpt>
<trkpt lat="55.902035" lon="26.571554">
<ele>139.127075</ele>
<time>2010-06-20T14:11:52Z</time>
<desc>lat.=55.902035, lon.=26.571554, Alt.=139.127075m. Speed=22.427999m/h.</desc>
<speed>6.230000</speed>
</trkpt>
<trkpt lat="55.902031" lon="26.571459">
<ele>140.150513</ele>
<time>2010-06-20T14:11:53Z</time>
<desc>lat.=55.902031, lon.=26.571459, Alt.=140.150513m. Speed=19.476000m/h.</desc>
<speed>5.410000</speed>
</trkpt>
<trkpt lat="55.902031" lon="26.571363">
<ele>141.138794</ele>
<time>2010-06-20T14:11:54Z</time>
<desc>lat.=55.902031, lon.=26.571363, Alt.=141.138794m. Speed=17.136000m/h.</desc>
<speed>4.760000</speed>
</trkpt>
<trkpt lat="55.902031" lon="26.571295">
<ele>141.619263</ele>
<time>2010-06-20T14:11:55Z</time>
<desc>lat.=55.902031, lon.=26.571295, Alt.=141.619263m. Speed=13.320000m/h.</desc>
<speed>3.700000</speed>
</trkpt>
<trkpt lat="55.902039" lon="26.571207">
<ele>142.423950</ele>
<time>2010-06-20T14:11:56Z</time>
<desc>lat.=55.902039, lon.=26.571207, Alt.=142.423950m. Speed=14.400000m/h.</desc>
<speed>4.000000</speed>
</trkpt>
<trkpt lat="55.902054" lon="26.571079">
<ele>142.966919</ele>
<time>2010-06-20T14:11:57Z</time>
<desc>lat.=55.902054, lon.=26.571079, Alt.=142.966919m. Speed=22.968000m/h.</desc>
<speed>6.380000</speed>
</trkpt>
<trkpt lat="55.902069" lon="26.570953">
<ele>142.978638</ele>
<time>2010-06-20T14:11:58Z</time>
<desc>lat.=55.902069, lon.=26.570953, Alt.=142.978638m. Speed=26.063999m/h.</desc>
<speed>7.240000</speed>
</trkpt>
<trkpt lat="55.902077" lon="26.570827">
<ele>143.338013</ele>
<time>2010-06-20T14:11:59Z</time>
<desc>lat.=55.902077, lon.=26.570827, Alt.=143.338013m. Speed=23.327999m/h.</desc>
<speed>6.480000</speed>
</trkpt>
<trkpt lat="55.902084" lon="26.570705">
<ele>143.248169</ele>
<time>2010-06-20T14:12:00Z</time>
<desc>lat.=55.902084, lon.=26.570705, Alt.=143.248169m. Speed=20.195999m/h.</desc>
<speed>5.610000</speed>
</trkpt>
<trkpt lat="55.902088" lon="26.570585">
<ele>143.310669</ele>
<time>2010-06-20T14:12:01Z</time>
<desc>lat.=55.902088, lon.=26.570585, Alt.=143.310669m. Speed=25.596001m/h.</desc>
<speed>7.110000</speed>
</trkpt>
<trkpt lat="55.902081" lon="26.570446">
<ele>143.611450</ele>
<time>2010-06-20T14:12:02Z</time>
<desc>lat.=55.902081, lon.=26.570446, Alt.=143.611450m. Speed=28.476000m/h.</desc>
<speed>7.910000</speed>
</trkpt>
<trkpt lat="55.902073" lon="26.570307">
<ele>144.509888</ele>
<time>2010-06-20T14:12:03Z</time>
<desc>lat.=55.902073, lon.=26.570307, Alt.=144.509888m. Speed=25.271999m/h.</desc>
<speed>7.020000</speed>
</trkpt>
<trkpt lat="55.902054" lon="26.570189">
<ele>143.572388</ele>
<time>2010-06-20T14:12:04Z</time>
<desc>lat.=55.902054, lon.=26.570189, Alt.=143.572388m. Speed=25.740000m/h.</desc>
<speed>7.150000</speed>
</trkpt>
<trkpt lat="55.902016" lon="26.570087">
<ele>143.822388</ele>
<time>2010-06-20T14:12:05Z</time>
<desc>lat.=55.902016, lon.=26.570087, Alt.=143.822388m. Speed=25.379999m/h.</desc>
<speed>7.050000</speed>
</trkpt>
<trkpt lat="55.901978" lon="26.569996">
<ele>144.009888</ele>
<time>2010-06-20T14:12:06Z</time>
<desc>lat.=55.901978, lon.=26.569996, Alt.=144.009888m. Speed=24.228001m/h.</desc>
<speed>6.730000</speed>
</trkpt>
<trkpt lat="55.901943" lon="26.569912">
<ele>143.908325</ele>
<time>2010-06-20T14:12:07Z</time>
<desc>lat.=55.901943, lon.=26.569912, Alt.=143.908325m. Speed=20.844000m/h.</desc>
<speed>5.790000</speed>
</trkpt>
<trkpt lat="55.901909" lon="26.569811">
<ele>144.478638</ele>
<time>2010-06-20T14:12:08Z</time>
<desc>lat.=55.901909, lon.=26.569811, Alt.=144.478638m. Speed=23.940001m/h.</desc>
<speed>6.650000</speed>
</trkpt>
<trkpt lat="55.901871" lon="26.569708">
<ele>144.259888</ele>
<time>2010-06-20T14:12:09Z</time>
<desc>lat.=55.901871, lon.=26.569708, Alt.=144.259888m. Speed=27.576000m/h.</desc>
<speed>7.660000</speed>
</trkpt>
<trkpt lat="55.901821" lon="26.569595">
<ele>142.982544</ele>
<time>2010-06-20T14:12:10Z</time>
<desc>lat.=55.901821, lon.=26.569595, Alt.=142.982544m. Speed=26.712000m/h.</desc>
<speed>7.420000</speed>
</trkpt>
<trkpt lat="55.901783" lon="26.569494">
<ele>142.431763</ele>
<time>2010-06-20T14:12:11Z</time>
<desc>lat.=55.901783, lon.=26.569494, Alt.=142.431763m. Speed=25.091999m/h.</desc>
<speed>6.970000</speed>
</trkpt>
<trkpt lat="55.901737" lon="26.569393">
<ele>141.427856</ele>
<time>2010-06-20T14:12:12Z</time>
<desc>lat.=55.901737, lon.=26.569393, Alt.=141.427856m. Speed=26.568001m/h.</desc>
<speed>7.380000</speed>
</trkpt>
<trkpt lat="55.901695" lon="26.569296">
<ele>140.314575</ele>
<time>2010-06-20T14:12:13Z</time>
<desc>lat.=55.901695, lon.=26.569296, Alt.=140.314575m. Speed=26.028000m/h.</desc>
<speed>7.230000</speed>
</trkpt>
<trkpt lat="55.901653" lon="26.569197">
<ele>139.533325</ele>
<time>2010-06-20T14:12:14Z</time>
<desc>lat.=55.901653, lon.=26.569197, Alt.=139.533325m. Speed=26.208000m/h.</desc>
<speed>7.280000</speed>
</trkpt>
<trkpt lat="55.901611" lon="26.569096">
<ele>138.615356</ele>
<time>2010-06-20T14:12:15Z</time>
<desc>lat.=55.901611, lon.=26.569096, Alt.=138.615356m. Speed=25.740000m/h.</desc>
<speed>7.150000</speed>
</trkpt>
<trkpt lat="55.901569" lon="26.569006">
<ele>138.572388</ele>
<time>2010-06-20T14:12:16Z</time>
<desc>lat.=55.901569, lon.=26.569006, Alt.=138.572388m. Speed=24.768000m/h.</desc>
<speed>6.880000</speed>
</trkpt>
<trkpt lat="55.901524" lon="26.568892">
<ele>139.353638</ele>
<time>2010-06-20T14:12:17Z</time>
<desc>lat.=55.901524, lon.=26.568892, Alt.=139.353638m. Speed=25.920000m/h.</desc>
<speed>7.200000</speed>
</trkpt>
<trkpt lat="55.901474" lon="26.568748">
<ele>142.013794</ele>
<time>2010-06-20T14:12:18Z</time>
<desc>lat.=55.901474, lon.=26.568748, Alt.=142.013794m. Speed=26.172001m/h.</desc>
<speed>7.270000</speed>
</trkpt>
<trkpt lat="55.901424" lon="26.568640">
<ele>142.568481</ele>
<time>2010-06-20T14:12:19Z</time>
<desc>lat.=55.901424, lon.=26.568640, Alt.=142.568481m. Speed=25.992001m/h.</desc>
<speed>7.220000</speed>
</trkpt>
<trkpt lat="55.901379" lon="26.568537">
<ele>142.388794</ele>
<time>2010-06-20T14:12:20Z</time>
<desc>lat.=55.901379, lon.=26.568537, Alt.=142.388794m. Speed=25.955999m/h.</desc>
<speed>7.210000</speed>
</trkpt>
<trkpt lat="55.901333" lon="26.568449">
<ele>143.236450</ele>
<time>2010-06-20T14:12:21Z</time>
<desc>lat.=55.901333, lon.=26.568449, Alt.=143.236450m. Speed=25.559999m/h.</desc>
<speed>7.100000</speed>
</trkpt>
<trkpt lat="55.901291" lon="26.568361">
<ele>143.111450</ele>
<time>2010-06-20T14:12:22Z</time>
<desc>lat.=55.901291, lon.=26.568361, Alt.=143.111450m. Speed=25.955999m/h.</desc>
<speed>7.210000</speed>
</trkpt>
<trkpt lat="55.901257" lon="26.568237">
<ele>140.494263</ele>
<time>2010-06-20T14:12:23Z</time>
<desc>lat.=55.901257, lon.=26.568237, Alt.=140.494263m. Speed=25.452000m/h.</desc>
<speed>7.070000</speed>
</trkpt>
<trkpt lat="55.901215" lon="26.568151">
<ele>140.220825</ele>
<time>2010-06-20T14:12:24Z</time>
<desc>lat.=55.901215, lon.=26.568151, Alt.=140.220825m. Speed=25.128000m/h.</desc>
<speed>6.980000</speed>
</trkpt>
<trkpt lat="55.901169" lon="26.568069">
<ele>140.088013</ele>
<time>2010-06-20T14:12:25Z</time>
<desc>lat.=55.901169, lon.=26.568069, Alt.=140.088013m. Speed=25.884001m/h.</desc>
<speed>7.190000</speed>
</trkpt>
<trkpt lat="55.901123" lon="26.567982">
<ele>140.134888</ele>
<time>2010-06-20T14:12:26Z</time>
<desc>lat.=55.901123, lon.=26.567982, Alt.=140.134888m. Speed=27.396000m/h.</desc>
<speed>7.610000</speed>
</trkpt>
<trkpt lat="55.901077" lon="26.567894">
<ele>140.037231</ele>
<time>2010-06-20T14:12:27Z</time>
<desc>lat.=55.901077, lon.=26.567894, Alt.=140.037231m. Speed=26.172001m/h.</desc>
<speed>7.270000</speed>
</trkpt>
<trkpt lat="55.901035" lon="26.567804">
<ele>139.673950</ele>
<time>2010-06-20T14:12:28Z</time>
<desc>lat.=55.901035, lon.=26.567804, Alt.=139.673950m. Speed=24.768000m/h.</desc>
<speed>6.880000</speed>
</trkpt>
<trkpt lat="55.900993" lon="26.567720">
<ele>139.408325</ele>
<time>2010-06-20T14:12:29Z</time>
<desc>lat.=55.900993, lon.=26.567720, Alt.=139.408325m. Speed=25.091999m/h.</desc>
<speed>6.970000</speed>
</trkpt>
<trkpt lat="55.900951" lon="26.567642">
<ele>139.431763</ele>
<time>2010-06-20T14:12:30Z</time>
<desc>lat.=55.900951, lon.=26.567642, Alt.=139.431763m. Speed=23.436001m/h.</desc>
<speed>6.510000</speed>
</trkpt>
<trkpt lat="55.900902" lon="26.567583">
<ele>140.033325</ele>
<time>2010-06-20T14:12:31Z</time>
<desc>lat.=55.900902, lon.=26.567583, Alt.=140.033325m. Speed=22.860001m/h.</desc>
<speed>6.350000</speed>
</trkpt>
<trkpt lat="55.900864" lon="26.567511">
<ele>139.955200</ele>
<time>2010-06-20T14:12:32Z</time>
<desc>lat.=55.900864, lon.=26.567511, Alt.=139.955200m. Speed=22.716000m/h.</desc>
<speed>6.310000</speed>
</trkpt>
<trkpt lat="55.900810" lon="26.567444">
<ele>140.060669</ele>
<time>2010-06-20T14:12:33Z</time>
<desc>lat.=55.900810, lon.=26.567444, Alt.=140.060669m. Speed=24.552000m/h.</desc>
<speed>6.820000</speed>
</trkpt>
<trkpt lat="55.900761" lon="26.567369">
<ele>140.021606</ele>
<time>2010-06-20T14:12:34Z</time>
<desc>lat.=55.900761, lon.=26.567369, Alt.=140.021606m. Speed=24.408001m/h.</desc>
<speed>6.780000</speed>
</trkpt>
<trkpt lat="55.900715" lon="26.567293">
<ele>140.088013</ele>
<time>2010-06-20T14:12:35Z</time>
<desc>lat.=55.900715, lon.=26.567293, Alt.=140.088013m. Speed=22.176001m/h.</desc>
<speed>6.160000</speed>
</trkpt>
<trkpt lat="55.900677" lon="26.567230">
<ele>140.134888</ele>
<time>2010-06-20T14:12:36Z</time>
<desc>lat.=55.900677, lon.=26.567230, Alt.=140.134888m. Speed=18.288000m/h.</desc>
<speed>5.080000</speed>
</trkpt>
<trkpt lat="55.900635" lon="26.567139">
<ele>140.088013</ele>
<time>2010-06-20T14:12:37Z</time>
<desc>lat.=55.900635, lon.=26.567139, Alt.=140.088013m. Speed=18.288000m/h.</desc>
<speed>5.080000</speed>
</trkpt>
<trkpt lat="55.900600" lon="26.567070">
<ele>139.560669</ele>
<time>2010-06-20T14:12:38Z</time>
<desc>lat.=55.900600, lon.=26.567070, Alt.=139.560669m. Speed=21.600000m/h.</desc>
<speed>6.000000</speed>
</trkpt>
<trkpt lat="55.900547" lon="26.567005">
<ele>139.216919</ele>
<time>2010-06-20T14:12:39Z</time>
<desc>lat.=55.900547, lon.=26.567005, Alt.=139.216919m. Speed=21.708000m/h.</desc>
<speed>6.030000</speed>
</trkpt>
<trkpt lat="55.900482" lon="26.566906">
<ele>137.814575</ele>
<time>2010-06-20T14:12:40Z</time>
<desc>lat.=55.900482, lon.=26.566906, Alt.=137.814575m. Speed=27.431999m/h.</desc>
<speed>7.620000</speed>
</trkpt>
<trkpt lat="55.900421" lon="26.566851">
<ele>137.349731</ele>
<time>2010-06-20T14:12:41Z</time>
<desc>lat.=55.900421, lon.=26.566851, Alt.=137.349731m. Speed=24.948000m/h.</desc>
<speed>6.930000</speed>
</trkpt>
<trkpt lat="55.900364" lon="26.566792">
<ele>136.630981</ele>
<time>2010-06-20T14:12:42Z</time>
<desc>lat.=55.900364, lon.=26.566792, Alt.=136.630981m. Speed=25.379999m/h.</desc>
<speed>7.050000</speed>
</trkpt>
<trkpt lat="55.900291" lon="26.566719">
<ele>135.486450</ele>
<time>2010-06-20T14:12:43Z</time>
<desc>lat.=55.900291, lon.=26.566719, Alt.=135.486450m. Speed=31.464001m/h.</desc>
<speed>8.740000</speed>
</trkpt>
<trkpt lat="55.900219" lon="26.566599">
<ele>132.240356</ele>
<time>2010-06-20T14:12:44Z</time>
<desc>lat.=55.900219, lon.=26.566599, Alt.=132.240356m. Speed=32.652000m/h.</desc>
<speed>9.070000</speed>
</trkpt>
<trkpt lat="55.900154" lon="26.566525">
<ele>131.224731</ele>
<time>2010-06-20T14:12:45Z</time>
<desc>lat.=55.900154, lon.=26.566525, Alt.=131.224731m. Speed=30.240000m/h.</desc>
<speed>8.400000</speed>
</trkpt>
<trkpt lat="55.900097" lon="26.566448">
<ele>130.494263</ele>
<time>2010-06-20T14:12:46Z</time>
<desc>lat.=55.900097, lon.=26.566448, Alt.=130.494263m. Speed=25.920000m/h.</desc>
<speed>7.200000</speed>
</trkpt>
<trkpt lat="55.900043" lon="26.566380">
<ele>130.373169</ele>
<time>2010-06-20T14:12:47Z</time>
<desc>lat.=55.900043, lon.=26.566380, Alt.=130.373169m. Speed=24.264000m/h.</desc>
<speed>6.740000</speed>
</trkpt>
<trkpt lat="55.899971" lon="26.566273">
<ele>129.545044</ele>
<time>2010-06-20T14:12:48Z</time>
<desc>lat.=55.899971, lon.=26.566273, Alt.=129.545044m. Speed=27.000000m/h.</desc>
<speed>7.500000</speed>
</trkpt>
<trkpt lat="55.899914" lon="26.566210">
<ele>129.830200</ele>
<time>2010-06-20T14:12:49Z</time>
<desc>lat.=55.899914, lon.=26.566210, Alt.=129.830200m. Speed=26.784000m/h.</desc>
<speed>7.440000</speed>
</trkpt>
<trkpt lat="55.899837" lon="26.566133">
<ele>130.662231</ele>
<time>2010-06-20T14:12:50Z</time>
<desc>lat.=55.899837, lon.=26.566133, Alt.=130.662231m. Speed=28.403999m/h.</desc>
<speed>7.890000</speed>
</trkpt>
<trkpt lat="55.899765" lon="26.566032">
<ele>128.755981</ele>
<time>2010-06-20T14:12:51Z</time>
<desc>lat.=55.899765, lon.=26.566032, Alt.=128.755981m. Speed=27.648001m/h.</desc>
<speed>7.680000</speed>
</trkpt>
<trkpt lat="55.899704" lon="26.565981">
<ele>127.928772</ele>
<time>2010-06-20T14:12:52Z</time>
<desc>lat.=55.899704, lon.=26.565981, Alt.=127.928772m. Speed=27.576000m/h.</desc>
<speed>7.660000</speed>
</trkpt>
<trkpt lat="55.899643" lon="26.565931">
<ele>127.760803</ele>
<time>2010-06-20T14:12:53Z</time>
<desc>lat.=55.899643, lon.=26.565931, Alt.=127.760803m. Speed=26.820000m/h.</desc>
<speed>7.450000</speed>
</trkpt>
<trkpt lat="55.899590" lon="26.565865">
<ele>127.377991</ele>
<time>2010-06-20T14:12:54Z</time>
<desc>lat.=55.899590, lon.=26.565865, Alt.=127.377991m. Speed=26.639999m/h.</desc>
<speed>7.400000</speed>
</trkpt>
<trkpt lat="55.899529" lon="26.565794">
<ele>127.391663</ele>
<time>2010-06-20T14:12:55Z</time>
<desc>lat.=55.899529, lon.=26.565794, Alt.=127.391663m. Speed=27.504000m/h.</desc>
<speed>7.640000</speed>
</trkpt>
<trkpt lat="55.899467" lon="26.565723">
<ele>127.196350</ele>
<time>2010-06-20T14:12:56Z</time>
<desc>lat.=55.899467, lon.=26.565723, Alt.=127.196350m. Speed=29.195999m/h.</desc>
<speed>8.110000</speed>
</trkpt>
<trkpt lat="55.899406" lon="26.565641">
<ele>127.299866</ele>
<time>2010-06-20T14:12:57Z</time>
<desc>lat.=55.899406, lon.=26.565641, Alt.=127.299866m. Speed=30.167999m/h.</desc>
<speed>8.380000</speed>
</trkpt>
<trkpt lat="55.899326" lon="26.565540">
<ele>122.754944</ele>
<time>2010-06-20T14:12:58Z</time>
<desc>lat.=55.899326, lon.=26.565540, Alt.=122.754944m. Speed=33.948002m/h.</desc>
<speed>9.430001</speed>
</trkpt>
<trkpt lat="55.899223" lon="26.565474">
<ele>121.782288</ele>
<time>2010-06-20T14:12:59Z</time>
<desc>lat.=55.899223, lon.=26.565474, Alt.=121.782288m. Speed=36.360001m/h.</desc>
<speed>10.100000</speed>
</trkpt>
<trkpt lat="55.899155" lon="26.565388">
<ele>121.497131</ele>
<time>2010-06-20T14:13:00Z</time>
<desc>lat.=55.899155, lon.=26.565388, Alt.=121.497131m. Speed=30.240000m/h.</desc>
<speed>8.400000</speed>
</trkpt>
<trkpt lat="55.899094" lon="26.565311">
<ele>120.817444</ele>
<time>2010-06-20T14:13:01Z</time>
<desc>lat.=55.899094, lon.=26.565311, Alt.=120.817444m. Speed=26.820000m/h.</desc>
<speed>7.450000</speed>
</trkpt>
<trkpt lat="55.899025" lon="26.565239">
<ele>121.034241</ele>
<time>2010-06-20T14:13:02Z</time>
<desc>lat.=55.899025, lon.=26.565239, Alt.=121.034241m. Speed=25.992001m/h.</desc>
<speed>7.220000</speed>
</trkpt>
<trkpt lat="55.898952" lon="26.565166">
<ele>120.452209</ele>
<time>2010-06-20T14:13:03Z</time>
<desc>lat.=55.898952, lon.=26.565166, Alt.=120.452209m. Speed=27.612000m/h.</desc>
<speed>7.670000</speed>
</trkpt>
<trkpt lat="55.898880" lon="26.565075">
<ele>121.286194</ele>
<time>2010-06-20T14:13:04Z</time>
<desc>lat.=55.898880, lon.=26.565075, Alt.=121.286194m. Speed=27.360001m/h.</desc>
<speed>7.600000</speed>
</trkpt>
<trkpt lat="55.898815" lon="26.565023">
<ele>120.063538</ele>
<time>2010-06-20T14:13:05Z</time>
<desc>lat.=55.898815, lon.=26.565023, Alt.=120.063538m. Speed=24.120001m/h.</desc>
<speed>6.700000</speed>
</trkpt>
<trkpt lat="55.898762" lon="26.564951">
<ele>120.526428</ele>
<time>2010-06-20T14:13:06Z</time>
<desc>lat.=55.898762, lon.=26.564951, Alt.=120.526428m. Speed=21.455999m/h.</desc>
<speed>5.960000</speed>
</trkpt>
<trkpt lat="55.898705" lon="26.564880">
<ele>121.288147</ele>
<time>2010-06-20T14:13:07Z</time>
<desc>lat.=55.898705, lon.=26.564880, Alt.=121.288147m. Speed=20.736000m/h.</desc>
<speed>5.760000</speed>
</trkpt>
<trkpt lat="55.898632" lon="26.564831">
<ele>120.815491</ele>
<time>2010-06-20T14:13:08Z</time>
<desc>lat.=55.898632, lon.=26.564831, Alt.=120.815491m. Speed=20.916000m/h.</desc>
<speed>5.810000</speed>
</trkpt>
<trkpt lat="55.898582" lon="26.564774">
<ele>120.163147</ele>
<time>2010-06-20T14:13:09Z</time>
<desc>lat.=55.898582, lon.=26.564774, Alt.=120.163147m. Speed=16.848000m/h.</desc>
<speed>4.680000</speed>
</trkpt>
<trkpt lat="55.898537" lon="26.564713">
<ele>119.760803</ele>
<time>2010-06-20T14:13:10Z</time>
<desc>lat.=55.898537, lon.=26.564713, Alt.=119.760803m. Speed=16.704000m/h.</desc>
<speed>4.640000</speed>
</trkpt>
<trkpt lat="55.898502" lon="26.564682">
<ele>119.063538</ele>
<time>2010-06-20T14:13:11Z</time>
<desc>lat.=55.898502, lon.=26.564682, Alt.=119.063538m. Speed=14.796000m/h.</desc>
<speed>4.110000</speed>
</trkpt>
<trkpt lat="55.898464" lon="26.564608">
<ele>120.096741</ele>
<time>2010-06-20T14:13:12Z</time>
<desc>lat.=55.898464, lon.=26.564608, Alt.=120.096741m. Speed=13.500000m/h.</desc>
<speed>3.750000</speed>
</trkpt>
<trkpt lat="55.898438" lon="26.564581">
<ele>120.350647</ele>
<time>2010-06-20T14:13:13Z</time>
<desc>lat.=55.898438, lon.=26.564581, Alt.=120.350647m. Speed=10.440000m/h.</desc>
<speed>2.900000</speed>
</trkpt>
<trkpt lat="55.898399" lon="26.564547">
<ele>122.356506</ele>
<time>2010-06-20T14:13:14Z</time>
<desc>lat.=55.898399, lon.=26.564547, Alt.=122.356506m. Speed=8.496000m/h.</desc>
<speed>2.360000</speed>
</trkpt>
<trkpt lat="55.898369" lon="26.564543">
<ele>120.106506</ele>
<time>2010-06-20T14:13:15Z</time>
<desc>lat.=55.898369, lon.=26.564543, Alt.=120.106506m. Speed=15.372000m/h.</desc>
<speed>4.270000</speed>
</trkpt>
<trkpt lat="55.898323" lon="26.564531">
<ele>120.174866</ele>
<time>2010-06-20T14:13:16Z</time>
<desc>lat.=55.898323, lon.=26.564531, Alt.=120.174866m. Speed=14.508000m/h.</desc>
<speed>4.030000</speed>
</trkpt>
<trkpt lat="55.898285" lon="26.564505">
<ele>120.202209</ele>
<time>2010-06-20T14:13:17Z</time>
<desc>lat.=55.898285, lon.=26.564505, Alt.=120.202209m. Speed=17.892000m/h.</desc>
<speed>4.970000</speed>
</trkpt>
<trkpt lat="55.898239" lon="26.564472">
<ele>120.846741</ele>
<time>2010-06-20T14:13:18Z</time>
<desc>lat.=55.898239, lon.=26.564472, Alt.=120.846741m. Speed=18.396000m/h.</desc>
<speed>5.110000</speed>
</trkpt>
<trkpt lat="55.898186" lon="26.564438">
<ele>120.116272</ele>
<time>2010-06-20T14:13:19Z</time>
<desc>lat.=55.898186, lon.=26.564438, Alt.=120.116272m. Speed=19.403999m/h.</desc>
<speed>5.390000</speed>
</trkpt>
<trkpt lat="55.898132" lon="26.564379">
<ele>120.868225</ele>
<time>2010-06-20T14:13:20Z</time>
<desc>lat.=55.898132, lon.=26.564379, Alt.=120.868225m. Speed=19.260000m/h.</desc>
<speed>5.350000</speed>
</trkpt>
<trkpt lat="55.898075" lon="26.564348">
<ele>120.786194</ele>
<time>2010-06-20T14:13:21Z</time>
<desc>lat.=55.898075, lon.=26.564348, Alt.=120.786194m. Speed=19.691999m/h.</desc>
<speed>5.470000</speed>
</trkpt>
<trkpt lat="55.898029" lon="26.564297">
<ele>120.969788</ele>
<time>2010-06-20T14:13:22Z</time>
<desc>lat.=55.898029, lon.=26.564297, Alt.=120.969788m. Speed=20.988001m/h.</desc>
<speed>5.830000</speed>
</trkpt>
<trkpt lat="55.897980" lon="26.564247">
<ele>121.016663</ele>
<time>2010-06-20T14:13:23Z</time>
<desc>lat.=55.897980, lon.=26.564247, Alt.=121.016663m. Speed=22.032000m/h.</desc>
<speed>6.120000</speed>
</trkpt>
<trkpt lat="55.897930" lon="26.564173">
<ele>120.606506</ele>
<time>2010-06-20T14:13:24Z</time>
<desc>lat.=55.897930, lon.=26.564173, Alt.=120.606506m. Speed=21.132000m/h.</desc>
<speed>5.870000</speed>
</trkpt>
<trkpt lat="55.897881" lon="26.564100">
<ele>120.108459</ele>
<time>2010-06-20T14:13:25Z</time>
<desc>lat.=55.897881, lon.=26.564100, Alt.=120.108459m. Speed=21.420000m/h.</desc>
<speed>5.950000</speed>
</trkpt>
<trkpt lat="55.897827" lon="26.564054">
<ele>119.870178</ele>
<time>2010-06-20T14:13:26Z</time>
<desc>lat.=55.897827, lon.=26.564054, Alt.=119.870178m. Speed=23.292000m/h.</desc>
<speed>6.470000</speed>
</trkpt>
<trkpt lat="55.897770" lon="26.564016">
<ele>119.881897</ele>
<time>2010-06-20T14:13:27Z</time>
<desc>lat.=55.897770, lon.=26.564016, Alt.=119.881897m. Speed=23.219999m/h.</desc>
<speed>6.450000</speed>
</trkpt>
<trkpt lat="55.897720" lon="26.563944">
<ele>119.627991</ele>
<time>2010-06-20T14:13:28Z</time>
<desc>lat.=55.897720, lon.=26.563944, Alt.=119.627991m. Speed=23.868000m/h.</desc>
<speed>6.630000</speed>
</trkpt>
<trkpt lat="55.897671" lon="26.563866">
<ele>118.823303</ele>
<time>2010-06-20T14:13:29Z</time>
<desc>lat.=55.897671, lon.=26.563866, Alt.=118.823303m. Speed=24.444000m/h.</desc>
<speed>6.790000</speed>
</trkpt>
<trkpt lat="55.897625" lon="26.563765">
<ele>118.305725</ele>
<time>2010-06-20T14:13:30Z</time>
<desc>lat.=55.897625, lon.=26.563765, Alt.=118.305725m. Speed=24.587999m/h.</desc>
<speed>6.830000</speed>
</trkpt>
<trkpt lat="55.897575" lon="26.563696">
<ele>118.417053</ele>
<time>2010-06-20T14:13:31Z</time>
<desc>lat.=55.897575, lon.=26.563696, Alt.=118.417053m. Speed=25.704000m/h.</desc>
<speed>7.140000</speed>
</trkpt>
<trkpt lat="55.897518" lon="26.563637">
<ele>118.182678</ele>
<time>2010-06-20T14:13:32Z</time>
<desc>lat.=55.897518, lon.=26.563637, Alt.=118.182678m. Speed=25.091999m/h.</desc>
<speed>6.970000</speed>
</trkpt>
<trkpt lat="55.897465" lon="26.563566">
<ele>117.323303</ele>
<time>2010-06-20T14:13:33Z</time>
<desc>lat.=55.897465, lon.=26.563566, Alt.=117.323303m. Speed=24.587999m/h.</desc>
<speed>6.830000</speed>
</trkpt>
<trkpt lat="55.897411" lon="26.563494">
<ele>116.811584</ele>
<time>2010-06-20T14:13:34Z</time>
<desc>lat.=55.897411, lon.=26.563494, Alt.=116.811584m. Speed=23.615999m/h.</desc>
<speed>6.560000</speed>
</trkpt>
<trkpt lat="55.897366" lon="26.563419">
<ele>116.686584</ele>
<time>2010-06-20T14:13:35Z</time>
<desc>lat.=55.897366, lon.=26.563419, Alt.=116.686584m. Speed=22.860001m/h.</desc>
<speed>6.350000</speed>
</trkpt>
<trkpt lat="55.897320" lon="26.563347">
<ele>116.629944</ele>
<time>2010-06-20T14:13:36Z</time>
<desc>lat.=55.897320, lon.=26.563347, Alt.=116.629944m. Speed=23.004000m/h.</desc>
<speed>6.390000</speed>
</trkpt>
<trkpt lat="55.897282" lon="26.563271">
<ele>116.725647</ele>
<time>2010-06-20T14:13:37Z</time>
<desc>lat.=55.897282, lon.=26.563271, Alt.=116.725647m. Speed=22.068001m/h.</desc>
<speed>6.130000</speed>
</trkpt>
<trkpt lat="55.897240" lon="26.563204">
<ele>117.176819</ele>
<time>2010-06-20T14:13:38Z</time>
<desc>lat.=55.897240, lon.=26.563204, Alt.=117.176819m. Speed=20.052000m/h.</desc>
<speed>5.570000</speed>
</trkpt>
<trkpt lat="55.897202" lon="26.563120">
<ele>116.819397</ele>
<time>2010-06-20T14:13:39Z</time>
<desc>lat.=55.897202, lon.=26.563120, Alt.=116.819397m. Speed=21.275999m/h.</desc>
<speed>5.910000</speed>
</trkpt>
<trkpt lat="55.897179" lon="26.563034">
<ele>116.915100</ele>
<time>2010-06-20T14:13:40Z</time>
<desc>lat.=55.897179, lon.=26.563034, Alt.=116.915100m. Speed=20.304001m/h.</desc>
<speed>5.640000</speed>
</trkpt>
<trkpt lat="55.897152" lon="26.562952">
<ele>116.233459</ele>
<time>2010-06-20T14:13:41Z</time>
<desc>lat.=55.897152, lon.=26.562952, Alt.=116.233459m. Speed=20.340000m/h.</desc>
<speed>5.650000</speed>
</trkpt>
<trkpt lat="55.897133" lon="26.562860">
<ele>115.405334</ele>
<time>2010-06-20T14:13:42Z</time>
<desc>lat.=55.897133, lon.=26.562860, Alt.=115.405334m. Speed=20.412001m/h.</desc>
<speed>5.670000</speed>
</trkpt>
<trkpt lat="55.897114" lon="26.562765">
<ele>115.094788</ele>
<time>2010-06-20T14:13:43Z</time>
<desc>lat.=55.897114, lon.=26.562765, Alt.=115.094788m. Speed=20.483999m/h.</desc>
<speed>5.690000</speed>
</trkpt>
<trkpt lat="55.897102" lon="26.562670">
<ele>115.122131</ele>
<time>2010-06-20T14:13:44Z</time>
<desc>lat.=55.897102, lon.=26.562670, Alt.=115.122131m. Speed=20.520000m/h.</desc>
<speed>5.700000</speed>
</trkpt>
<trkpt lat="55.897091" lon="26.562574">
<ele>115.040100</ele>
<time>2010-06-20T14:13:45Z</time>
<desc>lat.=55.897091, lon.=26.562574, Alt.=115.040100m. Speed=19.728001m/h.</desc>
<speed>5.480000</speed>
</trkpt>
<trkpt lat="55.897079" lon="26.562481">
<ele>115.419006</ele>
<time>2010-06-20T14:13:46Z</time>
<desc>lat.=55.897079, lon.=26.562481, Alt.=115.419006m. Speed=19.332001m/h.</desc>
<speed>5.370000</speed>
</trkpt>
<trkpt lat="55.897068" lon="26.562393">
<ele>115.569397</ele>
<time>2010-06-20T14:13:47Z</time>
<desc>lat.=55.897068, lon.=26.562393, Alt.=115.569397m. Speed=18.792000m/h.</desc>
<speed>5.220000</speed>
</trkpt>
<trkpt lat="55.897057" lon="26.562304">
<ele>116.159241</ele>
<time>2010-06-20T14:13:48Z</time>
<desc>lat.=55.897057, lon.=26.562304, Alt.=116.159241m. Speed=18.719999m/h.</desc>
<speed>5.200000</speed>
</trkpt>
<trkpt lat="55.897045" lon="26.562220">
<ele>115.883850</ele>
<time>2010-06-20T14:13:49Z</time>
<desc>lat.=55.897045, lon.=26.562220, Alt.=115.883850m. Speed=18.216000m/h.</desc>
<speed>5.060000</speed>
</trkpt>
<trkpt lat="55.897038" lon="26.562141">
<ele>115.143616</ele>
<time>2010-06-20T14:13:50Z</time>
<desc>lat.=55.897038, lon.=26.562141, Alt.=115.143616m. Speed=17.676001m/h.</desc>
<speed>4.910000</speed>
</trkpt>
<trkpt lat="55.897034" lon="26.562052">
<ele>114.936584</ele>
<time>2010-06-20T14:13:51Z</time>
<desc>lat.=55.897034, lon.=26.562052, Alt.=114.936584m. Speed=17.784000m/h.</desc>
<speed>4.940000</speed>
</trkpt>
<trkpt lat="55.897030" lon="26.561974">
<ele>114.510803</ele>
<time>2010-06-20T14:13:52Z</time>
<desc>lat.=55.897030, lon.=26.561974, Alt.=114.510803m. Speed=17.496000m/h.</desc>
<speed>4.860000</speed>
</trkpt>
<trkpt lat="55.897022" lon="26.561892">
<ele>114.426819</ele>
<time>2010-06-20T14:13:53Z</time>
<desc>lat.=55.897022, lon.=26.561892, Alt.=114.426819m. Speed=17.496000m/h.</desc>
<speed>4.860000</speed>
</trkpt>
<trkpt lat="55.897007" lon="26.561815">
<ele>114.440491</ele>
<time>2010-06-20T14:13:54Z</time>
<desc>lat.=55.897007, lon.=26.561815, Alt.=114.440491m. Speed=17.243999m/h.</desc>
<speed>4.790000</speed>
</trkpt>
<trkpt lat="55.896996" lon="26.561737">
<ele>114.002991</ele>
<time>2010-06-20T14:13:55Z</time>
<desc>lat.=55.896996, lon.=26.561737, Alt.=114.002991m. Speed=17.351999m/h.</desc>
<speed>4.820000</speed>
</trkpt>
<trkpt lat="55.896988" lon="26.561661">
<ele>113.502991</ele>
<time>2010-06-20T14:13:56Z</time>
<desc>lat.=55.896988, lon.=26.561661, Alt.=113.502991m. Speed=17.856001m/h.</desc>
<speed>4.960000</speed>
</trkpt>
<trkpt lat="55.896980" lon="26.561586">
<ele>113.206116</ele>
<time>2010-06-20T14:13:57Z</time>
<desc>lat.=55.896980, lon.=26.561586, Alt.=113.206116m. Speed=17.892000m/h.</desc>
<speed>4.970000</speed>
</trkpt>
<trkpt lat="55.896973" lon="26.561508">
<ele>112.969788</ele>
<time>2010-06-20T14:13:58Z</time>
<desc>lat.=55.896973, lon.=26.561508, Alt.=112.969788m. Speed=17.496000m/h.</desc>
<speed>4.860000</speed>
</trkpt>
<trkpt lat="55.896961" lon="26.561430">
<ele>112.639709</ele>
<time>2010-06-20T14:13:59Z</time>
<desc>lat.=55.896961, lon.=26.561430, Alt.=112.639709m. Speed=17.856001m/h.</desc>
<speed>4.960000</speed>
</trkpt>
<trkpt lat="55.896950" lon="26.561350">
<ele>112.319397</ele>
<time>2010-06-20T14:14:00Z</time>
<desc>lat.=55.896950, lon.=26.561350, Alt.=112.319397m. Speed=17.747999m/h.</desc>
<speed>4.930000</speed>
</trkpt>
<trkpt lat="55.896935" lon="26.561272">
<ele>112.012756</ele>
<time>2010-06-20T14:14:01Z</time>
<desc>lat.=55.896935, lon.=26.561272, Alt.=112.012756m. Speed=17.927999m/h.</desc>
<speed>4.980000</speed>
</trkpt>
<trkpt lat="55.896923" lon="26.561193">
<ele>111.688538</ele>
<time>2010-06-20T14:14:02Z</time>
<desc>lat.=55.896923, lon.=26.561193, Alt.=111.688538m. Speed=18.072001m/h.</desc>
<speed>5.020000</speed>
</trkpt>
<trkpt lat="55.896912" lon="26.561108">
<ele>111.508850</ele>
<time>2010-06-20T14:14:03Z</time>
<desc>lat.=55.896912, lon.=26.561108, Alt.=111.508850m. Speed=17.820000m/h.</desc>
<speed>4.950000</speed>
</trkpt>
<trkpt lat="55.896900" lon="26.561024">
<ele>111.530334</ele>
<time>2010-06-20T14:14:04Z</time>
<desc>lat.=55.896900, lon.=26.561024, Alt.=111.530334m. Speed=18.972000m/h.</desc>
<speed>5.270000</speed>
</trkpt>
<trkpt lat="55.896885" lon="26.560938">
<ele>111.014709</ele>
<time>2010-06-20T14:14:05Z</time>
<desc>lat.=55.896885, lon.=26.560938, Alt.=111.014709m. Speed=19.007999m/h.</desc>
<speed>5.280000</speed>
</trkpt>
<trkpt lat="55.896866" lon="26.560844">
<ele>112.004944</ele>
<time>2010-06-20T14:14:06Z</time>
<desc>lat.=55.896866, lon.=26.560844, Alt.=112.004944m. Speed=18.648001m/h.</desc>
<speed>5.180000</speed>
</trkpt>
<trkpt lat="55.896851" lon="26.560757">
<ele>112.229553</ele>
<time>2010-06-20T14:14:07Z</time>
<desc>lat.=55.896851, lon.=26.560757, Alt.=112.229553m. Speed=19.728001m/h.</desc>
<speed>5.480000</speed>
</trkpt>
<trkpt lat="55.896835" lon="26.560656">
<ele>112.881897</ele>
<time>2010-06-20T14:14:08Z</time>
<desc>lat.=55.896835, lon.=26.560656, Alt.=112.881897m. Speed=20.340000m/h.</desc>
<speed>5.650000</speed>
</trkpt>
<trkpt lat="55.896820" lon="26.560566">
<ele>113.186584</ele>
<time>2010-06-20T14:14:09Z</time>
<desc>lat.=55.896820, lon.=26.560566, Alt.=113.186584m. Speed=20.232000m/h.</desc>
<speed>5.620000</speed>
</trkpt>
<trkpt lat="55.896809" lon="26.560480">
<ele>112.770569</ele>
<time>2010-06-20T14:14:10Z</time>
<desc>lat.=55.896809, lon.=26.560480, Alt.=112.770569m. Speed=20.232000m/h.</desc>
<speed>5.620000</speed>
</trkpt>
<trkpt lat="55.896793" lon="26.560387">
<ele>112.573303</ele>
<time>2010-06-20T14:14:11Z</time>
<desc>lat.=55.896793, lon.=26.560387, Alt.=112.573303m. Speed=20.232000m/h.</desc>
<speed>5.620000</speed>
</trkpt>
<trkpt lat="55.896778" lon="26.560289">
<ele>112.932678</ele>
<time>2010-06-20T14:14:12Z</time>
<desc>lat.=55.896778, lon.=26.560289, Alt.=112.932678m. Speed=20.304001m/h.</desc>
<speed>5.640000</speed>
</trkpt>
<trkpt lat="55.896763" lon="26.560196">
<ele>113.030334</ele>
<time>2010-06-20T14:14:13Z</time>
<desc>lat.=55.896763, lon.=26.560196, Alt.=113.030334m. Speed=20.412001m/h.</desc>
<speed>5.670000</speed>
</trkpt>
<trkpt lat="55.896748" lon="26.560099">
<ele>113.344788</ele>
<time>2010-06-20T14:14:14Z</time>
<desc>lat.=55.896748, lon.=26.560099, Alt.=113.344788m. Speed=20.304001m/h.</desc>
<speed>5.640000</speed>
</trkpt>
<trkpt lat="55.896732" lon="26.560009">
<ele>113.586975</ele>
<time>2010-06-20T14:14:15Z</time>
<desc>lat.=55.896732, lon.=26.560009, Alt.=113.586975m. Speed=20.736000m/h.</desc>
<speed>5.760000</speed>
</trkpt>
<trkpt lat="55.896717" lon="26.559921">
<ele>113.645569</ele>
<time>2010-06-20T14:14:16Z</time>
<desc>lat.=55.896717, lon.=26.559921, Alt.=113.645569m. Speed=20.952000m/h.</desc>
<speed>5.820000</speed>
</trkpt>
<trkpt lat="55.896702" lon="26.559832">
<ele>113.612366</ele>
<time>2010-06-20T14:14:17Z</time>
<desc>lat.=55.896702, lon.=26.559832, Alt.=113.612366m. Speed=21.059999m/h.</desc>
<speed>5.850000</speed>
</trkpt>
<trkpt lat="55.896687" lon="26.559742">
<ele>113.575256</ele>
<time>2010-06-20T14:14:18Z</time>
<desc>lat.=55.896687, lon.=26.559742, Alt.=113.575256m. Speed=21.132000m/h.</desc>
<speed>5.870000</speed>
</trkpt>
<trkpt lat="55.896671" lon="26.559652">
<ele>113.549866</ele>
<time>2010-06-20T14:14:19Z</time>
<desc>lat.=55.896671, lon.=26.559652, Alt.=113.549866m. Speed=20.844000m/h.</desc>
<speed>5.790000</speed>
</trkpt>
<trkpt lat="55.896656" lon="26.559563">
<ele>113.856506</ele>
<time>2010-06-20T14:14:20Z</time>
<desc>lat.=55.896656, lon.=26.559563, Alt.=113.856506m. Speed=20.988001m/h.</desc>
<speed>5.830000</speed>
</trkpt>
<trkpt lat="55.896645" lon="26.559469">
<ele>113.795959</ele>
<time>2010-06-20T14:14:21Z</time>
<desc>lat.=55.896645, lon.=26.559469, Alt.=113.795959m. Speed=20.664000m/h.</desc>
<speed>5.740000</speed>
</trkpt>
<trkpt lat="55.896626" lon="26.559378">
<ele>114.411194</ele>
<time>2010-06-20T14:14:22Z</time>
<desc>lat.=55.896626, lon.=26.559378, Alt.=114.411194m. Speed=21.708000m/h.</desc>
<speed>6.030000</speed>
</trkpt>
<trkpt lat="55.896606" lon="26.559275">
<ele>115.481506</ele>
<time>2010-06-20T14:14:23Z</time>
<desc>lat.=55.896606, lon.=26.559275, Alt.=115.481506m. Speed=22.068001m/h.</desc>
<speed>6.130000</speed>
</trkpt>
<trkpt lat="55.896587" lon="26.559177">
<ele>116.649475</ele>
<time>2010-06-20T14:14:24Z</time>
<desc>lat.=55.896587, lon.=26.559177, Alt.=116.649475m. Speed=22.392000m/h.</desc>
<speed>6.220000</speed>
</trkpt>
<trkpt lat="55.896561" lon="26.559082">
<ele>117.491272</ele>
<time>2010-06-20T14:14:25Z</time>
<desc>lat.=55.896561, lon.=26.559082, Alt.=117.491272m. Speed=22.427999m/h.</desc>
<speed>6.230000</speed>
</trkpt>
<trkpt lat="55.896549" lon="26.558989">
<ele>117.825256</ele>
<time>2010-06-20T14:14:26Z</time>
<desc>lat.=55.896549, lon.=26.558989, Alt.=117.825256m. Speed=22.427999m/h.</desc>
<speed>6.230000</speed>
</trkpt>
<trkpt lat="55.896530" lon="26.558899">
<ele>117.952209</ele>
<time>2010-06-20T14:14:27Z</time>
<desc>lat.=55.896530, lon.=26.558899, Alt.=117.952209m. Speed=21.780001m/h.</desc>
<speed>6.050000</speed>
</trkpt>
<trkpt lat="55.896515" lon="26.558807">
<ele>117.881897</ele>
<time>2010-06-20T14:14:28Z</time>
<desc>lat.=55.896515, lon.=26.558807, Alt.=117.881897m. Speed=22.500000m/h.</desc>
<speed>6.250000</speed>
</trkpt>
<trkpt lat="55.896500" lon="26.558716">
<ele>117.631897</ele>
<time>2010-06-20T14:14:29Z</time>
<desc>lat.=55.896500, lon.=26.558716, Alt.=117.631897m. Speed=22.500000m/h.</desc>
<speed>6.250000</speed>
</trkpt>
<trkpt lat="55.896488" lon="26.558624">
<ele>117.090881</ele>
<time>2010-06-20T14:14:30Z</time>
<desc>lat.=55.896488, lon.=26.558624, Alt.=117.090881m. Speed=22.608000m/h.</desc>
<speed>6.280000</speed>
</trkpt>
<trkpt lat="55.896477" lon="26.558531">
<ele>116.815491</ele>
<time>2010-06-20T14:14:31Z</time>
<desc>lat.=55.896477, lon.=26.558531, Alt.=116.815491m. Speed=22.752001m/h.</desc>
<speed>6.320000</speed>
</trkpt>
<trkpt lat="55.896469" lon="26.558432">
<ele>116.770569</ele>
<time>2010-06-20T14:14:32Z</time>
<desc>lat.=55.896469, lon.=26.558432, Alt.=116.770569m. Speed=22.500000m/h.</desc>
<speed>6.250000</speed>
</trkpt>
<trkpt lat="55.896458" lon="26.558338">
<ele>116.211975</ele>
<time>2010-06-20T14:14:33Z</time>
<desc>lat.=55.896458, lon.=26.558338, Alt.=116.211975m. Speed=22.608000m/h.</desc>
<speed>6.280000</speed>
</trkpt>
<trkpt lat="55.896442" lon="26.558247">
<ele>116.047913</ele>
<time>2010-06-20T14:14:34Z</time>
<desc>lat.=55.896442, lon.=26.558247, Alt.=116.047913m. Speed=22.572001m/h.</desc>
<speed>6.270000</speed>
</trkpt>
<trkpt lat="55.896427" lon="26.558155">
<ele>115.669006</ele>
<time>2010-06-20T14:14:35Z</time>
<desc>lat.=55.896427, lon.=26.558155, Alt.=115.669006m. Speed=22.860001m/h.</desc>
<speed>6.350000</speed>
</trkpt>
<trkpt lat="55.896412" lon="26.558060">
<ele>115.403381</ele>
<time>2010-06-20T14:14:36Z</time>
<desc>lat.=55.896412, lon.=26.558060, Alt.=115.403381m. Speed=23.112000m/h.</desc>
<speed>6.420000</speed>
</trkpt>
<trkpt lat="55.896393" lon="26.557959">
<ele>115.383850</ele>
<time>2010-06-20T14:14:37Z</time>
<desc>lat.=55.896393, lon.=26.557959, Alt.=115.383850m. Speed=23.507999m/h.</desc>
<speed>6.530000</speed>
</trkpt>
<trkpt lat="55.896378" lon="26.557859">
<ele>115.139709</ele>
<time>2010-06-20T14:14:38Z</time>
<desc>lat.=55.896378, lon.=26.557859, Alt.=115.139709m. Speed=23.615999m/h.</desc>
<speed>6.560000</speed>
</trkpt>
<trkpt lat="55.896358" lon="26.557756">
<ele>115.366272</ele>
<time>2010-06-20T14:14:39Z</time>
<desc>lat.=55.896358, lon.=26.557756, Alt.=115.366272m. Speed=24.011999m/h.</desc>
<speed>6.670000</speed>
</trkpt>
<trkpt lat="55.896343" lon="26.557655">
<ele>115.290100</ele>
<time>2010-06-20T14:14:40Z</time>
<desc>lat.=55.896343, lon.=26.557655, Alt.=115.290100m. Speed=23.868000m/h.</desc>
<speed>6.630000</speed>
</trkpt>
<trkpt lat="55.896328" lon="26.557552">
<ele>115.294006</ele>
<time>2010-06-20T14:14:41Z</time>
<desc>lat.=55.896328, lon.=26.557552, Alt.=115.294006m. Speed=24.552000m/h.</desc>
<speed>6.820000</speed>
</trkpt>
<trkpt lat="55.896313" lon="26.557449">
<ele>115.256897</ele>
<time>2010-06-20T14:14:42Z</time>
<desc>lat.=55.896313, lon.=26.557449, Alt.=115.256897m. Speed=24.228001m/h.</desc>
<speed>6.730000</speed>
</trkpt>
<trkpt lat="55.896297" lon="26.557344">
<ele>115.335022</ele>
<time>2010-06-20T14:14:43Z</time>
<desc>lat.=55.896297, lon.=26.557344, Alt.=115.335022m. Speed=24.912001m/h.</desc>
<speed>6.920000</speed>
</trkpt>
<trkpt lat="55.896278" lon="26.557240">
<ele>115.155334</ele>
<time>2010-06-20T14:14:44Z</time>
<desc>lat.=55.896278, lon.=26.557240, Alt.=115.155334m. Speed=25.308001m/h.</desc>
<speed>7.030000</speed>
</trkpt>
<trkpt lat="55.896259" lon="26.557140">
<ele>115.239319</ele>
<time>2010-06-20T14:14:45Z</time>
<desc>lat.=55.896259, lon.=26.557140, Alt.=115.239319m. Speed=24.983999m/h.</desc>
<speed>6.940000</speed>
</trkpt>
<trkpt lat="55.896240" lon="26.557030">
<ele>115.465881</ele>
<time>2010-06-20T14:14:46Z</time>
<desc>lat.=55.896240, lon.=26.557030, Alt.=115.465881m. Speed=25.488001m/h.</desc>
<speed>7.080000</speed>
</trkpt>
<trkpt lat="55.896221" lon="26.556917">
<ele>115.534241</ele>
<time>2010-06-20T14:14:47Z</time>
<desc>lat.=55.896221, lon.=26.556917, Alt.=115.534241m. Speed=25.596001m/h.</desc>
<speed>7.110000</speed>
</trkpt>
<trkpt lat="55.896202" lon="26.556805">
<ele>115.436584</ele>
<time>2010-06-20T14:14:48Z</time>
<desc>lat.=55.896202, lon.=26.556805, Alt.=115.436584m. Speed=26.280001m/h.</desc>
<speed>7.300000</speed>
</trkpt>
<trkpt lat="55.896183" lon="26.556690">
<ele>115.237366</ele>
<time>2010-06-20T14:14:49Z</time>
<desc>lat.=55.896183, lon.=26.556690, Alt.=115.237366m. Speed=26.459999m/h.</desc>
<speed>7.350000</speed>
</trkpt>
<trkpt lat="55.896168" lon="26.556581">
<ele>115.149475</ele>
<time>2010-06-20T14:14:50Z</time>
<desc>lat.=55.896168, lon.=26.556581, Alt.=115.149475m. Speed=26.316000m/h.</desc>
<speed>7.310000</speed>
</trkpt>
<trkpt lat="55.896152" lon="26.556469">
<ele>114.909241</ele>
<time>2010-06-20T14:14:51Z</time>
<desc>lat.=55.896152, lon.=26.556469, Alt.=114.909241m. Speed=25.884001m/h.</desc>
<speed>7.190000</speed>
</trkpt>
<trkpt lat="55.896137" lon="26.556356">
<ele>114.710022</ele>
<time>2010-06-20T14:14:52Z</time>
<desc>lat.=55.896137, lon.=26.556356, Alt.=114.710022m. Speed=26.496000m/h.</desc>
<speed>7.360000</speed>
</trkpt>
<trkpt lat="55.896118" lon="26.556242">
<ele>114.653381</ele>
<time>2010-06-20T14:14:53Z</time>
<desc>lat.=55.896118, lon.=26.556242, Alt.=114.653381m. Speed=25.704000m/h.</desc>
<speed>7.140000</speed>
</trkpt>
<trkpt lat="55.896099" lon="26.556126">
<ele>114.627991</ele>
<time>2010-06-20T14:14:54Z</time>
<desc>lat.=55.896099, lon.=26.556126, Alt.=114.627991m. Speed=26.568001m/h.</desc>
<speed>7.380000</speed>
</trkpt>
<trkpt lat="55.896076" lon="26.555996">
<ele>115.784241</ele>
<time>2010-06-20T14:14:55Z</time>
<desc>lat.=55.896076, lon.=26.555996, Alt.=115.784241m. Speed=27.360001m/h.</desc>
<speed>7.600000</speed>
</trkpt>
<trkpt lat="55.896057" lon="26.555887">
<ele>115.463928</ele>
<time>2010-06-20T14:14:56Z</time>
<desc>lat.=55.896057, lon.=26.555887, Alt.=115.463928m. Speed=27.288000m/h.</desc>
<speed>7.580000</speed>
</trkpt>
<trkpt lat="55.896038" lon="26.555769">
<ele>115.637756</ele>
<time>2010-06-20T14:14:57Z</time>
<desc>lat.=55.896038, lon.=26.555769, Alt.=115.637756m. Speed=27.504000m/h.</desc>
<speed>7.640000</speed>
</trkpt>
<trkpt lat="55.896015" lon="26.555653">
<ele>115.588928</ele>
<time>2010-06-20T14:14:58Z</time>
<desc>lat.=55.896015, lon.=26.555653, Alt.=115.588928m. Speed=27.180000m/h.</desc>
<speed>7.550000</speed>
</trkpt>
<trkpt lat="55.895996" lon="26.555534">
<ele>115.649475</ele>
<time>2010-06-20T14:14:59Z</time>
<desc>lat.=55.895996, lon.=26.555534, Alt.=115.649475m. Speed=27.900000m/h.</desc>
<speed>7.750000</speed>
</trkpt>
<trkpt lat="55.895977" lon="26.555418">
<ele>115.438538</ele>
<time>2010-06-20T14:15:00Z</time>
<desc>lat.=55.895977, lon.=26.555418, Alt.=115.438538m. Speed=27.827999m/h.</desc>
<speed>7.730000</speed>
</trkpt>
<trkpt lat="55.895958" lon="26.555298">
<ele>115.481506</ele>
<time>2010-06-20T14:15:01Z</time>
<desc>lat.=55.895958, lon.=26.555298, Alt.=115.481506m. Speed=27.576000m/h.</desc>
<speed>7.660000</speed>
</trkpt>
<trkpt lat="55.895939" lon="26.555182">
<ele>115.237366</ele>
<time>2010-06-20T14:15:02Z</time>
<desc>lat.=55.895939, lon.=26.555182, Alt.=115.237366m. Speed=28.188000m/h.</desc>
<speed>7.830000</speed>
</trkpt>
<trkpt lat="55.895920" lon="26.555065">
<ele>114.958069</ele>
<time>2010-06-20T14:15:03Z</time>
<desc>lat.=55.895920, lon.=26.555065, Alt.=114.958069m. Speed=28.296000m/h.</desc>
<speed>7.860000</speed>
</trkpt>
<trkpt lat="55.895897" lon="26.554941">
<ele>114.872131</ele>
<time>2010-06-20T14:15:04Z</time>
<desc>lat.=55.895897, lon.=26.554941, Alt.=114.872131m. Speed=28.511999m/h.</desc>
<speed>7.920000</speed>
</trkpt>
<trkpt lat="55.895882" lon="26.554815">
<ele>114.794006</ele>
<time>2010-06-20T14:15:05Z</time>
<desc>lat.=55.895882, lon.=26.554815, Alt.=114.794006m. Speed=28.799999m/h.</desc>
<speed>8.000000</speed>
</trkpt>
<trkpt lat="55.895859" lon="26.554676">
<ele>115.674866</ele>
<time>2010-06-20T14:15:06Z</time>
<desc>lat.=55.895859, lon.=26.554676, Alt.=115.674866m. Speed=29.195999m/h.</desc>
<speed>8.110000</speed>
</trkpt>
<trkpt lat="55.895836" lon="26.554552">
<ele>115.856506</ele>
<time>2010-06-20T14:15:07Z</time>
<desc>lat.=55.895836, lon.=26.554552, Alt.=115.856506m. Speed=28.511999m/h.</desc>
<speed>7.920000</speed>
</trkpt>
<trkpt lat="55.895813" lon="26.554430">
<ele>116.211975</ele>
<time>2010-06-20T14:15:08Z</time>
<desc>lat.=55.895813, lon.=26.554430, Alt.=116.211975m. Speed=28.511999m/h.</desc>
<speed>7.920000</speed>
</trkpt>
<trkpt lat="55.895794" lon="26.554306">
<ele>116.309631</ele>
<time>2010-06-20T14:15:09Z</time>
<desc>lat.=55.895794, lon.=26.554306, Alt.=116.309631m. Speed=28.872000m/h.</desc>
<speed>8.020000</speed>
</trkpt>
<trkpt lat="55.895775" lon="26.554192">
<ele>115.438538</ele>
<time>2010-06-20T14:15:10Z</time>
<desc>lat.=55.895775, lon.=26.554192, Alt.=115.438538m. Speed=28.115999m/h.</desc>
<speed>7.810000</speed>
</trkpt>
<trkpt lat="55.895752" lon="26.554070">
<ele>115.432678</ele>
<time>2010-06-20T14:15:11Z</time>
<desc>lat.=55.895752, lon.=26.554070, Alt.=115.432678m. Speed=28.440001m/h.</desc>
<speed>7.900000</speed>
</trkpt>
<trkpt lat="55.895737" lon="26.553940">
<ele>115.985413</ele>
<time>2010-06-20T14:15:12Z</time>
<desc>lat.=55.895737, lon.=26.553940, Alt.=115.985413m. Speed=28.080000m/h.</desc>
<speed>7.800000</speed>
</trkpt>
<trkpt lat="55.895725" lon="26.553820">
<ele>115.889709</ele>
<time>2010-06-20T14:15:13Z</time>
<desc>lat.=55.895725, lon.=26.553820, Alt.=115.889709m. Speed=27.323999m/h.</desc>
<speed>7.590000</speed>
</trkpt>
<trkpt lat="55.895718" lon="26.553711">
<ele>115.403381</ele>
<time>2010-06-20T14:15:14Z</time>
<desc>lat.=55.895718, lon.=26.553711, Alt.=115.403381m. Speed=26.676001m/h.</desc>
<speed>7.410000</speed>
</trkpt>
<trkpt lat="55.895702" lon="26.553593">
<ele>115.420959</ele>
<time>2010-06-20T14:15:15Z</time>
<desc>lat.=55.895702, lon.=26.553593, Alt.=115.420959m. Speed=27.504000m/h.</desc>
<speed>7.640000</speed>
</trkpt>
<trkpt lat="55.895683" lon="26.553478">
<ele>114.981506</ele>
<time>2010-06-20T14:15:16Z</time>
<desc>lat.=55.895683, lon.=26.553478, Alt.=114.981506m. Speed=27.576000m/h.</desc>
<speed>7.660000</speed>
</trkpt>
<trkpt lat="55.895660" lon="26.553364">
<ele>114.555725</ele>
<time>2010-06-20T14:15:17Z</time>
<desc>lat.=55.895660, lon.=26.553364, Alt.=114.555725m. Speed=27.792000m/h.</desc>
<speed>7.720000</speed>
</trkpt>
<trkpt lat="55.895638" lon="26.553246">
<ele>114.544006</ele>
<time>2010-06-20T14:15:18Z</time>
<desc>lat.=55.895638, lon.=26.553246, Alt.=114.544006m. Speed=28.188000m/h.</desc>
<speed>7.830000</speed>
</trkpt>
<trkpt lat="55.895611" lon="26.553120">
<ele>115.196350</ele>
<time>2010-06-20T14:15:19Z</time>
<desc>lat.=55.895611, lon.=26.553120, Alt.=115.196350m. Speed=30.743999m/h.</desc>
<speed>8.540000</speed>
</trkpt>
<trkpt lat="55.895588" lon="26.552994">
<ele>115.206116</ele>
<time>2010-06-20T14:15:20Z</time>
<desc>lat.=55.895588, lon.=26.552994, Alt.=115.206116m. Speed=30.096001m/h.</desc>
<speed>8.360000</speed>
</trkpt>
<trkpt lat="55.895565" lon="26.552866">
<ele>115.083069</ele>
<time>2010-06-20T14:15:21Z</time>
<desc>lat.=55.895565, lon.=26.552866, Alt.=115.083069m. Speed=30.312000m/h.</desc>
<speed>8.420000</speed>
</trkpt>
<trkpt lat="55.895542" lon="26.552740">
<ele>115.155334</ele>
<time>2010-06-20T14:15:22Z</time>
<desc>lat.=55.895542, lon.=26.552740, Alt.=115.155334m. Speed=30.672001m/h.</desc>
<speed>8.520000</speed>
</trkpt>
<trkpt lat="55.895519" lon="26.552608">
<ele>115.315491</ele>
<time>2010-06-20T14:15:23Z</time>
<desc>lat.=55.895519, lon.=26.552608, Alt.=115.315491m. Speed=31.968000m/h.</desc>
<speed>8.880000</speed>
</trkpt>
<trkpt lat="55.895496" lon="26.552469">
<ele>115.368225</ele>
<time>2010-06-20T14:15:24Z</time>
<desc>lat.=55.895496, lon.=26.552469, Alt.=115.368225m. Speed=32.076000m/h.</desc>
<speed>8.910000</speed>
</trkpt>
<trkpt lat="55.895473" lon="26.552330">
<ele>115.151428</ele>
<time>2010-06-20T14:15:25Z</time>
<desc>lat.=55.895473, lon.=26.552330, Alt.=115.151428m. Speed=32.327999m/h.</desc>
<speed>8.980000</speed>
</trkpt>
<trkpt lat="55.895451" lon="26.552195">
<ele>114.508850</ele>
<time>2010-06-20T14:15:26Z</time>
<desc>lat.=55.895451, lon.=26.552195, Alt.=114.508850m. Speed=32.436001m/h.</desc>
<speed>9.010000</speed>
</trkpt>
<trkpt lat="55.895428" lon="26.552052">
<ele>114.213928</ele>
<time>2010-06-20T14:15:27Z</time>
<desc>lat.=55.895428, lon.=26.552052, Alt.=114.213928m. Speed=33.084000m/h.</desc>
<speed>9.190000</speed>
</trkpt>
<trkpt lat="55.895401" lon="26.551907">
<ele>114.317444</ele>
<time>2010-06-20T14:15:28Z</time>
<desc>lat.=55.895401, lon.=26.551907, Alt.=114.317444m. Speed=33.012001m/h.</desc>
<speed>9.170000</speed>
</trkpt>
<trkpt lat="55.895378" lon="26.551769">
<ele>113.973694</ele>
<time>2010-06-20T14:15:29Z</time>
<desc>lat.=55.895378, lon.=26.551769, Alt.=113.973694m. Speed=33.119999m/h.</desc>
<speed>9.200000</speed>
</trkpt>
<trkpt lat="55.895359" lon="26.551632">
<ele>113.342834</ele>
<time>2010-06-20T14:15:30Z</time>
<desc>lat.=55.895359, lon.=26.551632, Alt.=113.342834m. Speed=33.768002m/h.</desc>
<speed>9.380000</speed>
</trkpt>
<trkpt lat="55.895336" lon="26.551489">
<ele>112.903381</ele>
<time>2010-06-20T14:15:31Z</time>
<desc>lat.=55.895336, lon.=26.551489, Alt.=112.903381m. Speed=33.660000m/h.</desc>
<speed>9.350000</speed>
</trkpt>
<trkpt lat="55.895309" lon="26.551348">
<ele>112.612366</ele>
<time>2010-06-20T14:15:32Z</time>
<desc>lat.=55.895309, lon.=26.551348, Alt.=112.612366m. Speed=33.480000m/h.</desc>
<speed>9.300000</speed>
</trkpt>
<trkpt lat="55.895290" lon="26.551212">
<ele>111.967834</ele>
<time>2010-06-20T14:15:33Z</time>
<desc>lat.=55.895290, lon.=26.551212, Alt.=111.967834m. Speed=33.048000m/h.</desc>
<speed>9.180000</speed>
</trkpt>
<trkpt lat="55.895267" lon="26.551064">
<ele>111.561584</ele>
<time>2010-06-20T14:15:34Z</time>
<desc>lat.=55.895267, lon.=26.551064, Alt.=111.561584m. Speed=32.976002m/h.</desc>
<speed>9.160000</speed>
</trkpt>
<trkpt lat="55.895245" lon="26.550919">
<ele>111.354553</ele>
<time>2010-06-20T14:15:35Z</time>
<desc>lat.=55.895245, lon.=26.550919, Alt.=111.354553m. Speed=33.119999m/h.</desc>
<speed>9.200000</speed>
</trkpt>
<trkpt lat="55.895222" lon="26.550777">
<ele>111.108459</ele>
<time>2010-06-20T14:15:36Z</time>
<desc>lat.=55.895222, lon.=26.550777, Alt.=111.108459m. Speed=33.335999m/h.</desc>
<speed>9.260000</speed>
</trkpt>
<trkpt lat="55.895203" lon="26.550634">
<ele>110.747131</ele>
<time>2010-06-20T14:15:37Z</time>
<desc>lat.=55.895203, lon.=26.550634, Alt.=110.747131m. Speed=33.012001m/h.</desc>
<speed>9.170000</speed>
</trkpt>
<trkpt lat="55.895180" lon="26.550491">
<ele>110.585022</ele>
<time>2010-06-20T14:15:38Z</time>
<desc>lat.=55.895180, lon.=26.550491, Alt.=110.585022m. Speed=32.868000m/h.</desc>
<speed>9.130000</speed>
</trkpt>
<trkpt lat="55.895157" lon="26.550348">
<ele>110.333069</ele>
<time>2010-06-20T14:15:39Z</time>
<desc>lat.=55.895157, lon.=26.550348, Alt.=110.333069m. Speed=32.363998m/h.</desc>
<speed>8.990000</speed>
</trkpt>
<trkpt lat="55.895130" lon="26.550200">
<ele>110.889709</ele>
<time>2010-06-20T14:15:40Z</time>
<desc>lat.=55.895130, lon.=26.550200, Alt.=110.889709m. Speed=31.788000m/h.</desc>
<speed>8.830000</speed>
</trkpt>
<trkpt lat="55.895107" lon="26.550062">
<ele>110.934631</ele>
<time>2010-06-20T14:15:41Z</time>
<desc>lat.=55.895107, lon.=26.550062, Alt.=110.934631m. Speed=31.427999m/h.</desc>
<speed>8.730000</speed>
</trkpt>
<trkpt lat="55.895088" lon="26.549934">
<ele>110.690491</ele>
<time>2010-06-20T14:15:42Z</time>
<desc>lat.=55.895088, lon.=26.549934, Alt.=110.690491m. Speed=31.104000m/h.</desc>
<speed>8.640000</speed>
</trkpt>
<trkpt lat="55.895065" lon="26.549809">
<ele>110.743225</ele>
<time>2010-06-20T14:15:43Z</time>
<desc>lat.=55.895065, lon.=26.549809, Alt.=110.743225m. Speed=30.851999m/h.</desc>
<speed>8.570000</speed>
</trkpt>
<trkpt lat="55.895042" lon="26.549679">
<ele>110.768616</ele>
<time>2010-06-20T14:15:44Z</time>
<desc>lat.=55.895042, lon.=26.549679, Alt.=110.768616m. Speed=30.528000m/h.</desc>
<speed>8.480000</speed>
</trkpt>
<trkpt lat="55.895016" lon="26.549547">
<ele>110.913147</ele>
<time>2010-06-20T14:15:45Z</time>
<desc>lat.=55.895016, lon.=26.549547, Alt.=110.913147m. Speed=29.808001m/h.</desc>
<speed>8.280000</speed>
</trkpt>
<trkpt lat="55.894993" lon="26.549417">
<ele>110.944397</ele>
<time>2010-06-20T14:15:46Z</time>
<desc>lat.=55.894993, lon.=26.549417, Alt.=110.944397m. Speed=30.132000m/h.</desc>
<speed>8.370000</speed>
</trkpt>
<trkpt lat="55.894974" lon="26.549288">
<ele>110.799866</ele>
<time>2010-06-20T14:15:47Z</time>
<desc>lat.=55.894974, lon.=26.549288, Alt.=110.799866m. Speed=30.132000m/h.</desc>
<speed>8.370000</speed>
</trkpt>
<trkpt lat="55.894951" lon="26.549160">
<ele>110.758850</ele>
<time>2010-06-20T14:15:48Z</time>
<desc>lat.=55.894951, lon.=26.549160, Alt.=110.758850m. Speed=29.664000m/h.</desc>
<speed>8.240000</speed>
</trkpt>
<trkpt lat="55.894932" lon="26.549032">
<ele>110.774475</ele>
<time>2010-06-20T14:15:49Z</time>
<desc>lat.=55.894932, lon.=26.549032, Alt.=110.774475m. Speed=29.375999m/h.</desc>
<speed>8.160000</speed>
</trkpt>
<trkpt lat="55.894913" lon="26.548908">
<ele>110.819397</ele>
<time>2010-06-20T14:15:50Z</time>
<desc>lat.=55.894913, lon.=26.548908, Alt.=110.819397m. Speed=28.944000m/h.</desc>
<speed>8.040000</speed>
</trkpt>
<trkpt lat="55.894894" lon="26.548792">
<ele>110.542053</ele>
<time>2010-06-20T14:15:51Z</time>
<desc>lat.=55.894894, lon.=26.548792, Alt.=110.542053m. Speed=28.620001m/h.</desc>
<speed>7.950000</speed>
</trkpt>
<trkpt lat="55.894871" lon="26.548681">
<ele>110.877991</ele>
<time>2010-06-20T14:15:52Z</time>
<desc>lat.=55.894871, lon.=26.548681, Alt.=110.877991m. Speed=28.080000m/h.</desc>
<speed>7.800000</speed>
</trkpt>
<trkpt lat="55.894848" lon="26.548561">
<ele>111.020569</ele>
<time>2010-06-20T14:15:53Z</time>
<desc>lat.=55.894848, lon.=26.548561, Alt.=111.020569m. Speed=28.044001m/h.</desc>
<speed>7.790000</speed>
</trkpt>
<trkpt lat="55.894829" lon="26.548443">
<ele>111.268616</ele>
<time>2010-06-20T14:15:54Z</time>
<desc>lat.=55.894829, lon.=26.548443, Alt.=111.268616m. Speed=27.756001m/h.</desc>
<speed>7.710000</speed>
</trkpt>
<trkpt lat="55.894806" lon="26.548325">
<ele>111.536194</ele>
<time>2010-06-20T14:15:55Z</time>
<desc>lat.=55.894806, lon.=26.548325, Alt.=111.536194m. Speed=27.864000m/h.</desc>
<speed>7.740000</speed>
</trkpt>
<trkpt lat="55.894787" lon="26.548210">
<ele>111.571350</ele>
<time>2010-06-20T14:15:56Z</time>
<desc>lat.=55.894787, lon.=26.548210, Alt.=111.571350m. Speed=27.972000m/h.</desc>
<speed>7.770000</speed>
</trkpt>
<trkpt lat="55.894764" lon="26.548092">
<ele>111.678772</ele>
<time>2010-06-20T14:15:57Z</time>
<desc>lat.=55.894764, lon.=26.548092, Alt.=111.678772m. Speed=28.548000m/h.</desc>
<speed>7.930000</speed>
</trkpt>
<trkpt lat="55.894745" lon="26.547970">
<ele>111.698303</ele>
<time>2010-06-20T14:15:58Z</time>
<desc>lat.=55.894745, lon.=26.547970, Alt.=111.698303m. Speed=28.656000m/h.</desc>
<speed>7.960000</speed>
</trkpt>
<trkpt lat="55.894726" lon="26.547852">
<ele>111.438538</ele>
<time>2010-06-20T14:15:59Z</time>
<desc>lat.=55.894726, lon.=26.547852, Alt.=111.438538m. Speed=28.368000m/h.</desc>
<speed>7.880000</speed>
</trkpt>
<trkpt lat="55.894707" lon="26.547728">
<ele>111.395569</ele>
<time>2010-06-20T14:16:00Z</time>
<desc>lat.=55.894707, lon.=26.547728, Alt.=111.395569m. Speed=28.511999m/h.</desc>
<speed>7.920000</speed>
</trkpt>
<trkpt lat="55.894688" lon="26.547607">
<ele>111.327209</ele>
<time>2010-06-20T14:16:01Z</time>
<desc>lat.=55.894688, lon.=26.547607, Alt.=111.327209m. Speed=27.864000m/h.</desc>
<speed>7.740000</speed>
</trkpt>
<trkpt lat="55.894665" lon="26.547491">
<ele>111.188538</ele>
<time>2010-06-20T14:16:02Z</time>
<desc>lat.=55.894665, lon.=26.547491, Alt.=111.188538m. Speed=26.604000m/h.</desc>
<speed>7.390000</speed>
</trkpt>
<trkpt lat="55.894642" lon="26.547375">
<ele>111.245178</ele>
<time>2010-06-20T14:16:03Z</time>
<desc>lat.=55.894642, lon.=26.547375, Alt.=111.245178m. Speed=27.360001m/h.</desc>
<speed>7.600000</speed>
</trkpt>
<trkpt lat="55.894623" lon="26.547255">
<ele>111.270569</ele>
<time>2010-06-20T14:16:04Z</time>
<desc>lat.=55.894623, lon.=26.547255, Alt.=111.270569m. Speed=28.511999m/h.</desc>
<speed>7.920000</speed>
</trkpt>
<trkpt lat="55.894604" lon="26.547129">
<ele>111.024475</ele>
<time>2010-06-20T14:16:05Z</time>
<desc>lat.=55.894604, lon.=26.547129, Alt.=111.024475m. Speed=28.296000m/h.</desc>
<speed>7.860000</speed>
</trkpt>
<trkpt lat="55.894588" lon="26.546999">
<ele>111.151428</ele>
<time>2010-06-20T14:16:06Z</time>
<desc>lat.=55.894588, lon.=26.546999, Alt.=111.151428m. Speed=28.511999m/h.</desc>
<speed>7.920000</speed>
</trkpt>
<trkpt lat="55.894569" lon="26.546873">
<ele>111.321350</ele>
<time>2010-06-20T14:16:07Z</time>
<desc>lat.=55.894569, lon.=26.546873, Alt.=111.321350m. Speed=28.728001m/h.</desc>
<speed>7.980000</speed>
</trkpt>
<trkpt lat="55.894547" lon="26.546747">
<ele>111.290100</ele>
<time>2010-06-20T14:16:08Z</time>
<desc>lat.=55.894547, lon.=26.546747, Alt.=111.290100m. Speed=29.375999m/h.</desc>
<speed>8.160000</speed>
</trkpt>
<trkpt lat="55.894527" lon="26.546631">
<ele>110.926819</ele>
<time>2010-06-20T14:16:09Z</time>
<desc>lat.=55.894527, lon.=26.546631, Alt.=110.926819m. Speed=28.007999m/h.</desc>
<speed>7.780000</speed>
</trkpt>
<trkpt lat="55.894508" lon="26.546513">
<ele>110.922913</ele>
<time>2010-06-20T14:16:10Z</time>
<desc>lat.=55.894508, lon.=26.546513, Alt.=110.922913m. Speed=27.648001m/h.</desc>
<speed>7.680000</speed>
</trkpt>
<trkpt lat="55.894485" lon="26.546392">
<ele>110.989319</ele>
<time>2010-06-20T14:16:11Z</time>
<desc>lat.=55.894485, lon.=26.546392, Alt.=110.989319m. Speed=28.080000m/h.</desc>
<speed>7.800000</speed>
</trkpt>
<trkpt lat="55.894466" lon="26.546272">
<ele>110.741272</ele>
<time>2010-06-20T14:16:12Z</time>
<desc>lat.=55.894466, lon.=26.546272, Alt.=110.741272m. Speed=29.664000m/h.</desc>
<speed>8.240000</speed>
</trkpt>
<trkpt lat="55.894447" lon="26.546144">
<ele>110.348694</ele>
<time>2010-06-20T14:16:13Z</time>
<desc>lat.=55.894447, lon.=26.546144, Alt.=110.348694m. Speed=27.936001m/h.</desc>
<speed>7.760000</speed>
</trkpt>
<trkpt lat="55.894432" lon="26.546032">
<ele>109.424866</ele>
<time>2010-06-20T14:16:14Z</time>
<desc>lat.=55.894432, lon.=26.546032, Alt.=109.424866m. Speed=28.980000m/h.</desc>
<speed>8.050000</speed>
</trkpt>
<trkpt lat="55.894413" lon="26.545904">
<ele>109.204163</ele>
<time>2010-06-20T14:16:15Z</time>
<desc>lat.=55.894413, lon.=26.545904, Alt.=109.204163m. Speed=29.483999m/h.</desc>
<speed>8.190000</speed>
</trkpt>
<trkpt lat="55.894394" lon="26.545776">
<ele>108.975647</ele>
<time>2010-06-20T14:16:16Z</time>
<desc>lat.=55.894394, lon.=26.545776, Alt.=108.975647m. Speed=29.808001m/h.</desc>
<speed>8.280000</speed>
</trkpt>
<trkpt lat="55.894379" lon="26.545645">
<ele>108.809631</ele>
<time>2010-06-20T14:16:17Z</time>
<desc>lat.=55.894379, lon.=26.545645, Alt.=108.809631m. Speed=30.024000m/h.</desc>
<speed>8.340000</speed>
</trkpt>
<trkpt lat="55.894367" lon="26.545513">
<ele>108.544006</ele>
<time>2010-06-20T14:16:18Z</time>
<desc>lat.=55.894367, lon.=26.545513, Alt.=108.544006m. Speed=30.204000m/h.</desc>
<speed>8.390000</speed>
</trkpt>
<trkpt lat="55.894352" lon="26.545376">
<ele>108.286194</ele>
<time>2010-06-20T14:16:19Z</time>
<desc>lat.=55.894352, lon.=26.545376, Alt.=108.286194m. Speed=30.455999m/h.</desc>
<speed>8.460000</speed>
</trkpt>
<trkpt lat="55.894341" lon="26.545240">
<ele>107.983459</ele>
<time>2010-06-20T14:16:20Z</time>
<desc>lat.=55.894341, lon.=26.545240, Alt.=107.983459m. Speed=31.247999m/h.</desc>
<speed>8.680000</speed>
</trkpt>
<trkpt lat="55.894329" lon="26.545103">
<ele>107.963928</ele>
<time>2010-06-20T14:16:21Z</time>
<desc>lat.=55.894329, lon.=26.545103, Alt.=107.963928m. Speed=31.356001m/h.</desc>
<speed>8.710000</speed>
</trkpt>
<trkpt lat="55.894318" lon="26.544958">
<ele>107.585022</ele>
<time>2010-06-20T14:16:22Z</time>
<desc>lat.=55.894318, lon.=26.544958, Alt.=107.585022m. Speed=32.112000m/h.</desc>
<speed>8.920000</speed>
</trkpt>
<trkpt lat="55.894302" lon="26.544804">
<ele>107.792053</ele>
<time>2010-06-20T14:16:23Z</time>
<desc>lat.=55.894302, lon.=26.544804, Alt.=107.792053m. Speed=32.796001m/h.</desc>
<speed>9.110000</speed>
</trkpt>
<trkpt lat="55.894287" lon="26.544645">
<ele>108.032288</ele>
<time>2010-06-20T14:16:24Z</time>
<desc>lat.=55.894287, lon.=26.544645, Alt.=108.032288m. Speed=32.976002m/h.</desc>
<speed>9.160000</speed>
</trkpt>
<trkpt lat="55.894276" lon="26.544502">
<ele>107.377991</ele>
<time>2010-06-20T14:16:25Z</time>
<desc>lat.=55.894276, lon.=26.544502, Alt.=107.377991m. Speed=33.084000m/h.</desc>
<speed>9.190000</speed>
</trkpt>
<trkpt lat="55.894260" lon="26.544352">
<ele>107.381897</ele>
<time>2010-06-20T14:16:26Z</time>
<desc>lat.=55.894260, lon.=26.544352, Alt.=107.381897m. Speed=33.012001m/h.</desc>
<speed>9.170000</speed>
</trkpt>
<trkpt lat="55.894249" lon="26.544201">
<ele>107.389709</ele>
<time>2010-06-20T14:16:27Z</time>
<desc>lat.=55.894249, lon.=26.544201, Alt.=107.389709m. Speed=33.192001m/h.</desc>
<speed>9.220000</speed>
</trkpt>
<trkpt lat="55.894238" lon="26.544050">
<ele>107.182678</ele>
<time>2010-06-20T14:16:28Z</time>
<desc>lat.=55.894238, lon.=26.544050, Alt.=107.182678m. Speed=33.264000m/h.</desc>
<speed>9.240000</speed>
</trkpt>
<trkpt lat="55.894222" lon="26.543903">
<ele>107.063538</ele>
<time>2010-06-20T14:16:29Z</time>
<desc>lat.=55.894222, lon.=26.543903, Alt.=107.063538m. Speed=33.695999m/h.</desc>
<speed>9.360000</speed>
</trkpt>
<trkpt lat="55.894207" lon="26.543755">
<ele>106.991272</ele>
<time>2010-06-20T14:16:30Z</time>
<desc>lat.=55.894207, lon.=26.543755, Alt.=106.991272m. Speed=33.875999m/h.</desc>
<speed>9.410000</speed>
</trkpt>
<trkpt lat="55.894196" lon="26.543606">
<ele>106.672913</ele>
<time>2010-06-20T14:16:31Z</time>
<desc>lat.=55.894196, lon.=26.543606, Alt.=106.672913m. Speed=33.695999m/h.</desc>
<speed>9.360000</speed>
</trkpt>
<trkpt lat="55.894180" lon="26.543453">
<ele>106.745178</ele>
<time>2010-06-20T14:16:32Z</time>
<desc>lat.=55.894180, lon.=26.543453, Alt.=106.745178m. Speed=34.091999m/h.</desc>
<speed>9.470000</speed>
</trkpt>
<trkpt lat="55.894169" lon="26.543308">
<ele>106.344788</ele>
<time>2010-06-20T14:16:33Z</time>
<desc>lat.=55.894169, lon.=26.543308, Alt.=106.344788m. Speed=33.948002m/h.</desc>
<speed>9.430001</speed>
</trkpt>
<trkpt lat="55.894157" lon="26.543156">
<ele>106.245178</ele>
<time>2010-06-20T14:16:34Z</time>
<desc>lat.=55.894157, lon.=26.543156, Alt.=106.245178m. Speed=34.416000m/h.</desc>
<speed>9.560000</speed>
</trkpt>
<trkpt lat="55.894142" lon="26.543011">
<ele>105.766663</ele>
<time>2010-06-20T14:16:35Z</time>
<desc>lat.=55.894142, lon.=26.543011, Alt.=105.766663m. Speed=33.804001m/h.</desc>
<speed>9.390000</speed>
</trkpt>
<trkpt lat="55.894127" lon="26.542856">
<ele>105.670959</ele>
<time>2010-06-20T14:16:36Z</time>
<desc>lat.=55.894127, lon.=26.542856, Alt.=105.670959m. Speed=33.875999m/h.</desc>
<speed>9.410000</speed>
</trkpt>
<trkpt lat="55.894115" lon="26.542711">
<ele>105.358459</ele>
<time>2010-06-20T14:16:37Z</time>
<desc>lat.=55.894115, lon.=26.542711, Alt.=105.358459m. Speed=33.408001m/h.</desc>
<speed>9.280000</speed>
</trkpt>
<trkpt lat="55.894100" lon="26.542564">
<ele>105.377991</ele>
<time>2010-06-20T14:16:38Z</time>
<desc>lat.=55.894100, lon.=26.542564, Alt.=105.377991m. Speed=32.903999m/h.</desc>
<speed>9.140000</speed>
</trkpt>
<trkpt lat="55.894089" lon="26.542418">
<ele>105.229553</ele>
<time>2010-06-20T14:16:39Z</time>
<desc>lat.=55.894089, lon.=26.542418, Alt.=105.229553m. Speed=33.984001m/h.</desc>
<speed>9.440000</speed>
</trkpt>
<trkpt lat="55.894077" lon="26.542269">
<ele>105.083069</ele>
<time>2010-06-20T14:16:40Z</time>
<desc>lat.=55.894077, lon.=26.542269, Alt.=105.083069m. Speed=33.660000m/h.</desc>
<speed>9.350000</speed>
</trkpt>
<trkpt lat="55.894070" lon="26.542118">
<ele>105.044006</ele>
<time>2010-06-20T14:16:41Z</time>
<desc>lat.=55.894070, lon.=26.542118, Alt.=105.044006m. Speed=33.768002m/h.</desc>
<speed>9.380000</speed>
</trkpt>
<trkpt lat="55.894058" lon="26.541969">
<ele>104.752991</ele>
<time>2010-06-20T14:16:42Z</time>
<desc>lat.=55.894058, lon.=26.541969, Alt.=104.752991m. Speed=33.515999m/h.</desc>
<speed>9.310000</speed>
</trkpt>
<trkpt lat="55.894047" lon="26.541826">
<ele>104.376038</ele>
<time>2010-06-20T14:16:43Z</time>
<desc>lat.=55.894047, lon.=26.541826, Alt.=104.376038m. Speed=33.264000m/h.</desc>
<speed>9.240000</speed>
</trkpt>
<trkpt lat="55.894032" lon="26.541681">
<ele>104.210022</ele>
<time>2010-06-20T14:16:44Z</time>
<desc>lat.=55.894032, lon.=26.541681, Alt.=104.210022m. Speed=33.335999m/h.</desc>
<speed>9.260000</speed>
</trkpt>
<trkpt lat="55.894016" lon="26.541529">
<ele>104.348694</ele>
<time>2010-06-20T14:16:45Z</time>
<desc>lat.=55.894016, lon.=26.541529, Alt.=104.348694m. Speed=33.228001m/h.</desc>
<speed>9.230000</speed>
</trkpt>
<trkpt lat="55.894005" lon="26.541386">
<ele>104.252991</ele>
<time>2010-06-20T14:16:46Z</time>
<desc>lat.=55.894005, lon.=26.541386, Alt.=104.252991m. Speed=33.155998m/h.</desc>
<speed>9.210000</speed>
</trkpt>
<trkpt lat="55.893990" lon="26.541241">
<ele>104.309631</ele>
<time>2010-06-20T14:16:47Z</time>
<desc>lat.=55.893990, lon.=26.541241, Alt.=104.309631m. Speed=32.507999m/h.</desc>
<speed>9.030000</speed>
</trkpt>
<trkpt lat="55.893970" lon="26.541100">
<ele>103.858459</ele>
<time>2010-06-20T14:16:48Z</time>
<desc>lat.=55.893970, lon.=26.541100, Alt.=103.858459m. Speed=33.408001m/h.</desc>
<speed>9.280000</speed>
</trkpt>
<trkpt lat="55.893955" lon="26.540955">
<ele>103.688538</ele>
<time>2010-06-20T14:16:49Z</time>
<desc>lat.=55.893955, lon.=26.540955, Alt.=103.688538m. Speed=32.723999m/h.</desc>
<speed>9.090000</speed>
</trkpt>
<trkpt lat="55.893944" lon="26.540812">
<ele>103.381897</ele>
<time>2010-06-20T14:16:50Z</time>
<desc>lat.=55.893944, lon.=26.540812, Alt.=103.381897m. Speed=33.048000m/h.</desc>
<speed>9.180000</speed>
</trkpt>
<trkpt lat="55.893929" lon="26.540676">
<ele>103.139709</ele>
<time>2010-06-20T14:16:51Z</time>
<desc>lat.=55.893929, lon.=26.540676, Alt.=103.139709m. Speed=29.952000m/h.</desc>
<speed>8.320000</speed>
</trkpt>
<trkpt lat="55.893921" lon="26.540543">
<ele>103.280334</ele>
<time>2010-06-20T14:16:52Z</time>
<desc>lat.=55.893921, lon.=26.540543, Alt.=103.280334m. Speed=29.016001m/h.</desc>
<speed>8.060000</speed>
</trkpt>
<trkpt lat="55.893913" lon="26.540413">
<ele>103.047913</ele>
<time>2010-06-20T14:16:53Z</time>
<desc>lat.=55.893913, lon.=26.540413, Alt.=103.047913m. Speed=29.483999m/h.</desc>
<speed>8.190000</speed>
</trkpt>
<trkpt lat="55.893906" lon="26.540281">
<ele>102.858459</ele>
<time>2010-06-20T14:16:54Z</time>
<desc>lat.=55.893906, lon.=26.540281, Alt.=102.858459m. Speed=29.628000m/h.</desc>
<speed>8.230000</speed>
</trkpt>
<trkpt lat="55.893902" lon="26.540152">
<ele>102.688538</ele>
<time>2010-06-20T14:16:55Z</time>
<desc>lat.=55.893902, lon.=26.540152, Alt.=102.688538m. Speed=28.908001m/h.</desc>
<speed>8.030000</speed>
</trkpt>
<trkpt lat="55.893909" lon="26.540028">
<ele>102.407288</ele>
<time>2010-06-20T14:16:56Z</time>
<desc>lat.=55.893909, lon.=26.540028, Alt.=102.407288m. Speed=28.403999m/h.</desc>
<speed>7.890000</speed>
</trkpt>
<trkpt lat="55.893917" lon="26.539904">
<ele>102.399475</ele>
<time>2010-06-20T14:16:57Z</time>
<desc>lat.=55.893917, lon.=26.539904, Alt.=102.399475m. Speed=27.216000m/h.</desc>
<speed>7.560000</speed>
</trkpt>
<trkpt lat="55.893917" lon="26.539782">
<ele>102.295959</ele>
<time>2010-06-20T14:16:58Z</time>
<desc>lat.=55.893917, lon.=26.539782, Alt.=102.295959m. Speed=28.152000m/h.</desc>
<speed>7.820000</speed>
</trkpt>
<trkpt lat="55.893909" lon="26.539658">
<ele>102.225647</ele>
<time>2010-06-20T14:16:59Z</time>
<desc>lat.=55.893909, lon.=26.539658, Alt.=102.225647m. Speed=27.288000m/h.</desc>
<speed>7.580000</speed>
</trkpt>
<trkpt lat="55.893894" lon="26.539541">
<ele>102.018616</ele>
<time>2010-06-20T14:17:00Z</time>
<desc>lat.=55.893894, lon.=26.539541, Alt.=102.018616m. Speed=27.035999m/h.</desc>
<speed>7.510000</speed>
</trkpt>
<trkpt lat="55.893879" lon="26.539425">
<ele>101.835022</ele>
<time>2010-06-20T14:17:01Z</time>
<desc>lat.=55.893879, lon.=26.539425, Alt.=101.835022m. Speed=26.784000m/h.</desc>
<speed>7.440000</speed>
</trkpt>
<trkpt lat="55.893867" lon="26.539312">
<ele>102.063538</ele>
<time>2010-06-20T14:17:02Z</time>
<desc>lat.=55.893867, lon.=26.539312, Alt.=102.063538m. Speed=25.920000m/h.</desc>
<speed>7.200000</speed>
</trkpt>
<trkpt lat="55.893864" lon="26.539204">
<ele>102.411194</ele>
<time>2010-06-20T14:17:03Z</time>
<desc>lat.=55.893864, lon.=26.539204, Alt.=102.411194m. Speed=23.832001m/h.</desc>
<speed>6.620000</speed>
</trkpt>
<trkpt lat="55.893860" lon="26.539103">
<ele>102.639709</ele>
<time>2010-06-20T14:17:04Z</time>
<desc>lat.=55.893860, lon.=26.539103, Alt.=102.639709m. Speed=22.968000m/h.</desc>
<speed>6.380000</speed>
</trkpt>
<trkpt lat="55.893852" lon="26.539001">
<ele>102.766663</ele>
<time>2010-06-20T14:17:05Z</time>
<desc>lat.=55.893852, lon.=26.539001, Alt.=102.766663m. Speed=22.139999m/h.</desc>
<speed>6.150000</speed>
</trkpt>
<trkpt lat="55.893841" lon="26.538902">
<ele>102.596741</ele>
<time>2010-06-20T14:17:06Z</time>
<desc>lat.=55.893841, lon.=26.538902, Alt.=102.596741m. Speed=22.535999m/h.</desc>
<speed>6.260000</speed>
</trkpt>
<trkpt lat="55.893833" lon="26.538801">
<ele>102.208069</ele>
<time>2010-06-20T14:17:07Z</time>
<desc>lat.=55.893833, lon.=26.538801, Alt.=102.208069m. Speed=24.804001m/h.</desc>
<speed>6.890000</speed>
</trkpt>
<trkpt lat="55.893841" lon="26.538710">
<ele>102.219788</ele>
<time>2010-06-20T14:17:08Z</time>
<desc>lat.=55.893841, lon.=26.538710, Alt.=102.219788m. Speed=21.096001m/h.</desc>
<speed>5.860000</speed>
</trkpt>
<trkpt lat="55.893860" lon="26.538631">
<ele>102.190491</ele>
<time>2010-06-20T14:17:09Z</time>
<desc>lat.=55.893860, lon.=26.538631, Alt.=102.190491m. Speed=19.764000m/h.</desc>
<speed>5.490000</speed>
</trkpt>
<trkpt lat="55.893883" lon="26.538555">
<ele>101.245178</ele>
<time>2010-06-20T14:17:10Z</time>
<desc>lat.=55.893883, lon.=26.538555, Alt.=101.245178m. Speed=20.916000m/h.</desc>
<speed>5.810000</speed>
</trkpt>
<trkpt lat="55.893909" lon="26.538477">
<ele>101.401428</ele>
<time>2010-06-20T14:17:11Z</time>
<desc>lat.=55.893909, lon.=26.538477, Alt.=101.401428m. Speed=20.628000m/h.</desc>
<speed>5.730000</speed>
</trkpt>
<trkpt lat="55.893940" lon="26.538393">
<ele>101.592834</ele>
<time>2010-06-20T14:17:12Z</time>
<desc>lat.=55.893940, lon.=26.538393, Alt.=101.592834m. Speed=21.059999m/h.</desc>
<speed>5.850000</speed>
</trkpt>
<trkpt lat="55.893974" lon="26.538322">
<ele>101.475647</ele>
<time>2010-06-20T14:17:13Z</time>
<desc>lat.=55.893974, lon.=26.538322, Alt.=101.475647m. Speed=21.708000m/h.</desc>
<speed>6.030000</speed>
</trkpt>
<trkpt lat="55.894009" lon="26.538242">
<ele>101.479553</ele>
<time>2010-06-20T14:17:14Z</time>
<desc>lat.=55.894009, lon.=26.538242, Alt.=101.479553m. Speed=22.212000m/h.</desc>
<speed>6.170000</speed>
</trkpt>
<trkpt lat="55.894039" lon="26.538162">
<ele>101.346741</ele>
<time>2010-06-20T14:17:15Z</time>
<desc>lat.=55.894039, lon.=26.538162, Alt.=101.346741m. Speed=22.104000m/h.</desc>
<speed>6.140000</speed>
</trkpt>
<trkpt lat="55.894070" lon="26.538076">
<ele>101.278381</ele>
<time>2010-06-20T14:17:16Z</time>
<desc>lat.=55.894070, lon.=26.538076, Alt.=101.278381m. Speed=22.139999m/h.</desc>
<speed>6.150000</speed>
</trkpt>
<trkpt lat="55.894100" lon="26.537991">
<ele>100.989319</ele>
<time>2010-06-20T14:17:17Z</time>
<desc>lat.=55.894100, lon.=26.537991, Alt.=100.989319m. Speed=23.507999m/h.</desc>
<speed>6.530000</speed>
</trkpt>
<trkpt lat="55.894135" lon="26.537914">
<ele>100.897522</ele>
<time>2010-06-20T14:17:18Z</time>
<desc>lat.=55.894135, lon.=26.537914, Alt.=100.897522m. Speed=20.520000m/h.</desc>
<speed>5.700000</speed>
</trkpt>
<trkpt lat="55.894169" lon="26.537842">
<ele>100.788147</ele>
<time>2010-06-20T14:17:19Z</time>
<desc>lat.=55.894169, lon.=26.537842, Alt.=100.788147m. Speed=20.340000m/h.</desc>
<speed>5.650000</speed>
</trkpt>
<trkpt lat="55.894203" lon="26.537775">
<ele>100.930725</ele>
<time>2010-06-20T14:17:20Z</time>
<desc>lat.=55.894203, lon.=26.537775, Alt.=100.930725m. Speed=20.268000m/h.</desc>
<speed>5.630000</speed>
</trkpt>
<trkpt lat="55.894238" lon="26.537710">
<ele>101.034241</ele>
<time>2010-06-20T14:17:21Z</time>
<desc>lat.=55.894238, lon.=26.537710, Alt.=101.034241m. Speed=19.584000m/h.</desc>
<speed>5.440000</speed>
</trkpt>
<trkpt lat="55.894268" lon="26.537643">
<ele>101.059631</ele>
<time>2010-06-20T14:17:22Z</time>
<desc>lat.=55.894268, lon.=26.537643, Alt.=101.059631m. Speed=18.108000m/h.</desc>
<speed>5.030000</speed>
</trkpt>
<trkpt lat="55.894295" lon="26.537579">
<ele>101.038147</ele>
<time>2010-06-20T14:17:23Z</time>
<desc>lat.=55.894295, lon.=26.537579, Alt.=101.038147m. Speed=18.035999m/h.</desc>
<speed>5.010000</speed>
</trkpt>
<trkpt lat="55.894321" lon="26.537512">
<ele>101.198303</ele>
<time>2010-06-20T14:17:24Z</time>
<desc>lat.=55.894321, lon.=26.537512, Alt.=101.198303m. Speed=18.180000m/h.</desc>
<speed>5.050000</speed>
</trkpt>
<trkpt lat="55.894348" lon="26.537449">
<ele>101.481506</ele>
<time>2010-06-20T14:17:25Z</time>
<desc>lat.=55.894348, lon.=26.537449, Alt.=101.481506m. Speed=18.684000m/h.</desc>
<speed>5.190000</speed>
</trkpt>
<trkpt lat="55.894375" lon="26.537386">
<ele>101.670959</ele>
<time>2010-06-20T14:17:26Z</time>
<desc>lat.=55.894375, lon.=26.537386, Alt.=101.670959m. Speed=17.747999m/h.</desc>
<speed>4.930000</speed>
</trkpt>
<trkpt lat="55.894413" lon="26.537323">
<ele>101.336975</ele>
<time>2010-06-20T14:17:27Z</time>
<desc>lat.=55.894413, lon.=26.537323, Alt.=101.336975m. Speed=18.864000m/h.</desc>
<speed>5.240000</speed>
</trkpt>
<trkpt lat="55.894447" lon="26.537241">
<ele>100.764709</ele>
<time>2010-06-20T14:17:28Z</time>
<desc>lat.=55.894447, lon.=26.537241, Alt.=100.764709m. Speed=21.096001m/h.</desc>
<speed>5.860000</speed>
</trkpt>
<trkpt lat="55.894482" lon="26.537159">
<ele>100.436584</ele>
<time>2010-06-20T14:17:29Z</time>
<desc>lat.=55.894482, lon.=26.537159, Alt.=100.436584m. Speed=19.332001m/h.</desc>
<speed>5.370000</speed>
</trkpt>
<trkpt lat="55.894508" lon="26.537088">
<ele>100.711975</ele>
<time>2010-06-20T14:17:30Z</time>
<desc>lat.=55.894508, lon.=26.537088, Alt.=100.711975m. Speed=17.747999m/h.</desc>
<speed>4.930000</speed>
</trkpt>
<trkpt lat="55.894535" lon="26.537025">
<ele>101.075256</ele>
<time>2010-06-20T14:17:31Z</time>
<desc>lat.=55.894535, lon.=26.537025, Alt.=101.075256m. Speed=18.000000m/h.</desc>
<speed>5.000000</speed>
</trkpt>
<trkpt lat="55.894566" lon="26.536961">
<ele>101.083069</ele>
<time>2010-06-20T14:17:32Z</time>
<desc>lat.=55.894566, lon.=26.536961, Alt.=101.083069m. Speed=19.007999m/h.</desc>
<speed>5.280000</speed>
</trkpt>
<trkpt lat="55.894600" lon="26.536890">
<ele>100.946350</ele>
<time>2010-06-20T14:17:33Z</time>
<desc>lat.=55.894600, lon.=26.536890, Alt.=100.946350m. Speed=19.115999m/h.</desc>
<speed>5.310000</speed>
</trkpt>
<trkpt lat="55.894638" lon="26.536827">
<ele>101.135803</ele>
<time>2010-06-20T14:17:34Z</time>
<desc>lat.=55.894638, lon.=26.536827, Alt.=101.135803m. Speed=18.143999m/h.</desc>
<speed>5.040000</speed>
</trkpt>
<trkpt lat="55.894665" lon="26.536772">
<ele>100.405334</ele>
<time>2010-06-20T14:17:35Z</time>
<desc>lat.=55.894665, lon.=26.536772, Alt.=100.405334m. Speed=17.964001m/h.</desc>
<speed>4.990000</speed>
</trkpt>
<trkpt lat="55.894691" lon="26.536705">
<ele>99.901428</ele>
<time>2010-06-20T14:17:36Z</time>
<desc>lat.=55.894691, lon.=26.536705, Alt.=99.901428m. Speed=19.115999m/h.</desc>
<speed>5.310000</speed>
</trkpt>
<trkpt lat="55.894718" lon="26.536633">
<ele>100.024475</ele>
<time>2010-06-20T14:17:37Z</time>
<desc>lat.=55.894718, lon.=26.536633, Alt.=100.024475m. Speed=18.576000m/h.</desc>
<speed>5.160000</speed>
</trkpt>
<trkpt lat="55.894749" lon="26.536560">
<ele>100.338928</ele>
<time>2010-06-20T14:17:38Z</time>
<desc>lat.=55.894749, lon.=26.536560, Alt.=100.338928m. Speed=18.648001m/h.</desc>
<speed>5.180000</speed>
</trkpt>
<trkpt lat="55.894783" lon="26.536501">
<ele>100.350647</ele>
<time>2010-06-20T14:17:39Z</time>
<desc>lat.=55.894783, lon.=26.536501, Alt.=100.350647m. Speed=19.296000m/h.</desc>
<speed>5.360000</speed>
</trkpt>
<trkpt lat="55.894810" lon="26.536438">
<ele>100.309631</ele>
<time>2010-06-20T14:17:40Z</time>
<desc>lat.=55.894810, lon.=26.536438, Alt.=100.309631m. Speed=16.416000m/h.</desc>
<speed>4.560000</speed>
</trkpt>
<trkpt lat="55.894836" lon="26.536379">
<ele>100.303772</ele>
<time>2010-06-20T14:17:41Z</time>
<desc>lat.=55.894836, lon.=26.536379, Alt.=100.303772m. Speed=16.020000m/h.</desc>
<speed>4.450000</speed>
</trkpt>
<trkpt lat="55.894867" lon="26.536327">
<ele>100.157288</ele>
<time>2010-06-20T14:17:42Z</time>
<desc>lat.=55.894867, lon.=26.536327, Alt.=100.157288m. Speed=15.516000m/h.</desc>
<speed>4.310000</speed>
</trkpt>
<trkpt lat="55.894890" lon="26.536278">
<ele>99.979553</ele>
<time>2010-06-20T14:17:43Z</time>
<desc>lat.=55.894890, lon.=26.536278, Alt.=99.979553m. Speed=15.192000m/h.</desc>
<speed>4.220000</speed>
</trkpt>
<trkpt lat="55.894920" lon="26.536226">
<ele>99.836975</ele>
<time>2010-06-20T14:17:44Z</time>
<desc>lat.=55.894920, lon.=26.536226, Alt.=99.836975m. Speed=14.580000m/h.</desc>
<speed>4.050000</speed>
</trkpt>
<trkpt lat="55.894943" lon="26.536173">
<ele>99.665100</ele>
<time>2010-06-20T14:17:45Z</time>
<desc>lat.=55.894943, lon.=26.536173, Alt.=99.665100m. Speed=15.480000m/h.</desc>
<speed>4.300000</speed>
</trkpt>
<trkpt lat="55.894970" lon="26.536121">
<ele>99.282288</ele>
<time>2010-06-20T14:17:46Z</time>
<desc>lat.=55.894970, lon.=26.536121, Alt.=99.282288m. Speed=15.552000m/h.</desc>
<speed>4.320000</speed>
</trkpt>
<trkpt lat="55.894997" lon="26.536068">
<ele>98.919006</ele>
<time>2010-06-20T14:17:47Z</time>
<desc>lat.=55.894997, lon.=26.536068, Alt.=98.919006m. Speed=15.840000m/h.</desc>
<speed>4.400000</speed>
</trkpt>
<trkpt lat="55.895016" lon="26.536003">
<ele>98.944397</ele>
<time>2010-06-20T14:17:48Z</time>
<desc>lat.=55.895016, lon.=26.536003, Alt.=98.944397m. Speed=16.164000m/h.</desc>
<speed>4.490000</speed>
</trkpt>
<trkpt lat="55.895023" lon="26.535934">
<ele>98.581116</ele>
<time>2010-06-20T14:17:49Z</time>
<desc>lat.=55.895023, lon.=26.535934, Alt.=98.581116m. Speed=15.408000m/h.</desc>
<speed>4.280000</speed>
</trkpt>
<trkpt lat="55.895027" lon="26.535868">
<ele>98.376038</ele>
<time>2010-06-20T14:17:50Z</time>
<desc>lat.=55.895027, lon.=26.535868, Alt.=98.376038m. Speed=15.840000m/h.</desc>
<speed>4.400000</speed>
</trkpt>
<trkpt lat="55.895020" lon="26.535778">
<ele>99.282288</ele>
<time>2010-06-20T14:17:51Z</time>
<desc>lat.=55.895020, lon.=26.535778, Alt.=99.282288m. Speed=15.156000m/h.</desc>
<speed>4.210000</speed>
</trkpt>
<trkpt lat="55.895020" lon="26.535690">
<ele>100.213928</ele>
<time>2010-06-20T14:17:52Z</time>
<desc>lat.=55.895020, lon.=26.535690, Alt.=100.213928m. Speed=14.040000m/h.</desc>
<speed>3.900000</speed>
</trkpt>
<trkpt lat="55.895027" lon="26.535622">
<ele>100.122131</ele>
<time>2010-06-20T14:17:53Z</time>
<desc>lat.=55.895027, lon.=26.535622, Alt.=100.122131m. Speed=14.976000m/h.</desc>
<speed>4.160000</speed>
</trkpt>
<trkpt lat="55.895039" lon="26.535549">
<ele>100.157288</ele>
<time>2010-06-20T14:17:54Z</time>
<desc>lat.=55.895039, lon.=26.535549, Alt.=100.157288m. Speed=17.856001m/h.</desc>
<speed>4.960000</speed>
</trkpt>
<trkpt lat="55.895054" lon="26.535463">
<ele>100.040100</ele>
<time>2010-06-20T14:17:55Z</time>
<desc>lat.=55.895054, lon.=26.535463, Alt.=100.040100m. Speed=20.016001m/h.</desc>
<speed>5.560000</speed>
</trkpt>
<trkpt lat="55.895058" lon="26.535364">
<ele>100.528381</ele>
<time>2010-06-20T14:17:56Z</time>
<desc>lat.=55.895058, lon.=26.535364, Alt.=100.528381m. Speed=21.851999m/h.</desc>
<speed>6.070000</speed>
</trkpt>
<trkpt lat="55.895065" lon="26.535269">
<ele>100.014709</ele>
<time>2010-06-20T14:17:57Z</time>
<desc>lat.=55.895065, lon.=26.535269, Alt.=100.014709m. Speed=22.860001m/h.</desc>
<speed>6.350000</speed>
</trkpt>
<trkpt lat="55.895081" lon="26.535173">
<ele>99.735413</ele>
<time>2010-06-20T14:17:58Z</time>
<desc>lat.=55.895081, lon.=26.535173, Alt.=99.735413m. Speed=23.256001m/h.</desc>
<speed>6.460000</speed>
</trkpt>
<trkpt lat="55.895107" lon="26.535078">
<ele>99.659241</ele>
<time>2010-06-20T14:17:59Z</time>
<desc>lat.=55.895107, lon.=26.535078, Alt.=99.659241m. Speed=24.048000m/h.</desc>
<speed>6.680000</speed>
</trkpt>
<trkpt lat="55.895142" lon="26.534985">
<ele>99.434631</ele>
<time>2010-06-20T14:18:00Z</time>
<desc>lat.=55.895142, lon.=26.534985, Alt.=99.434631m. Speed=24.840000m/h.</desc>
<speed>6.900000</speed>
</trkpt>
<trkpt lat="55.895180" lon="26.534903">
<ele>98.485413</ele>
<time>2010-06-20T14:18:01Z</time>
<desc>lat.=55.895180, lon.=26.534903, Alt.=98.485413m. Speed=24.804001m/h.</desc>
<speed>6.890000</speed>
</trkpt>
<trkpt lat="55.895226" lon="26.534824">
<ele>97.479553</ele>
<time>2010-06-20T14:18:02Z</time>
<desc>lat.=55.895226, lon.=26.534824, Alt.=97.479553m. Speed=25.452000m/h.</desc>
<speed>7.070000</speed>
</trkpt>
<trkpt lat="55.895264" lon="26.534735">
<ele>96.885803</ele>
<time>2010-06-20T14:18:03Z</time>
<desc>lat.=55.895264, lon.=26.534735, Alt.=96.885803m. Speed=25.667999m/h.</desc>
<speed>7.130000</speed>
</trkpt>
<trkpt lat="55.895302" lon="26.534647">
<ele>96.122131</ele>
<time>2010-06-20T14:18:04Z</time>
<desc>lat.=55.895302, lon.=26.534647, Alt.=96.122131m. Speed=25.812000m/h.</desc>
<speed>7.170000</speed>
</trkpt>
<trkpt lat="55.895340" lon="26.534552">
<ele>95.749084</ele>
<time>2010-06-20T14:18:05Z</time>
<desc>lat.=55.895340, lon.=26.534552, Alt.=95.749084m. Speed=26.388000m/h.</desc>
<speed>7.330000</speed>
</trkpt>
<trkpt lat="55.895378" lon="26.534454">
<ele>95.575256</ele>
<time>2010-06-20T14:18:06Z</time>
<desc>lat.=55.895378, lon.=26.534454, Alt.=95.575256m. Speed=26.712000m/h.</desc>
<speed>7.420000</speed>
</trkpt>
<trkpt lat="55.895420" lon="26.534355">
<ele>95.555725</ele>
<time>2010-06-20T14:18:07Z</time>
<desc>lat.=55.895420, lon.=26.534355, Alt.=95.555725m. Speed=26.747999m/h.</desc>
<speed>7.430000</speed>
</trkpt>
<trkpt lat="55.895462" lon="26.534262">
<ele>95.639709</ele>
<time>2010-06-20T14:18:08Z</time>
<desc>lat.=55.895462, lon.=26.534262, Alt.=95.639709m. Speed=27.000000m/h.</desc>
<speed>7.500000</speed>
</trkpt>
<trkpt lat="55.895504" lon="26.534170">
<ele>95.637756</ele>
<time>2010-06-20T14:18:09Z</time>
<desc>lat.=55.895504, lon.=26.534170, Alt.=95.637756m. Speed=27.108000m/h.</desc>
<speed>7.530000</speed>
</trkpt>
<trkpt lat="55.895550" lon="26.534077">
<ele>95.555725</ele>
<time>2010-06-20T14:18:10Z</time>
<desc>lat.=55.895550, lon.=26.534077, Alt.=95.555725m. Speed=26.892000m/h.</desc>
<speed>7.470000</speed>
</trkpt>
<trkpt lat="55.895592" lon="26.533983">
<ele>95.420959</ele>
<time>2010-06-20T14:18:11Z</time>
<desc>lat.=55.895592, lon.=26.533983, Alt.=95.420959m. Speed=27.000000m/h.</desc>
<speed>7.500000</speed>
</trkpt>
<trkpt lat="55.895638" lon="26.533890">
<ele>95.336975</ele>
<time>2010-06-20T14:18:12Z</time>
<desc>lat.=55.895638, lon.=26.533890, Alt.=95.336975m. Speed=27.108000m/h.</desc>
<speed>7.530000</speed>
</trkpt>
<trkpt lat="55.895679" lon="26.533798">
<ele>95.149475</ele>
<time>2010-06-20T14:18:13Z</time>
<desc>lat.=55.895679, lon.=26.533798, Alt.=95.149475m. Speed=26.892000m/h.</desc>
<speed>7.470000</speed>
</trkpt>
<trkpt lat="55.895721" lon="26.533703">
<ele>95.124084</ele>
<time>2010-06-20T14:18:14Z</time>
<desc>lat.=55.895721, lon.=26.533703, Alt.=95.124084m. Speed=27.035999m/h.</desc>
<speed>7.510000</speed>
</trkpt>
<trkpt lat="55.895763" lon="26.533607">
<ele>95.167053</ele>
<time>2010-06-20T14:18:15Z</time>
<desc>lat.=55.895763, lon.=26.533607, Alt.=95.167053m. Speed=27.035999m/h.</desc>
<speed>7.510000</speed>
</trkpt>
<trkpt lat="55.895802" lon="26.533506">
<ele>95.606506</ele>
<time>2010-06-20T14:18:16Z</time>
<desc>lat.=55.895802, lon.=26.533506, Alt.=95.606506m. Speed=26.927999m/h.</desc>
<speed>7.480000</speed>
</trkpt>
<trkpt lat="55.895844" lon="26.533417">
<ele>95.629944</ele>
<time>2010-06-20T14:18:17Z</time>
<desc>lat.=55.895844, lon.=26.533417, Alt.=95.629944m. Speed=27.180000m/h.</desc>
<speed>7.550000</speed>
</trkpt>
<trkpt lat="55.895885" lon="26.533325">
<ele>95.489319</ele>
<time>2010-06-20T14:18:18Z</time>
<desc>lat.=55.895885, lon.=26.533325, Alt.=95.489319m. Speed=26.856001m/h.</desc>
<speed>7.460000</speed>
</trkpt>
<trkpt lat="55.895931" lon="26.533236">
<ele>95.419006</ele>
<time>2010-06-20T14:18:19Z</time>
<desc>lat.=55.895931, lon.=26.533236, Alt.=95.419006m. Speed=25.992001m/h.</desc>
<speed>7.220000</speed>
</trkpt>
<trkpt lat="55.895969" lon="26.533142">
<ele>95.540100</ele>
<time>2010-06-20T14:18:20Z</time>
<desc>lat.=55.895969, lon.=26.533142, Alt.=95.540100m. Speed=27.143999m/h.</desc>
<speed>7.540000</speed>
</trkpt>
<trkpt lat="55.896008" lon="26.533047">
<ele>95.555725</ele>
<time>2010-06-20T14:18:21Z</time>
<desc>lat.=55.896008, lon.=26.533047, Alt.=95.555725m. Speed=25.740000m/h.</desc>
<speed>7.150000</speed>
</trkpt>
<trkpt lat="55.896030" lon="26.532938">
<ele>95.864319</ele>
<time>2010-06-20T14:18:22Z</time>
<desc>lat.=55.896030, lon.=26.532938, Alt.=95.864319m. Speed=25.740000m/h.</desc>
<speed>7.150000</speed>
</trkpt>
<trkpt lat="55.896049" lon="26.532831">
<ele>96.110413</ele>
<time>2010-06-20T14:18:23Z</time>
<desc>lat.=55.896049, lon.=26.532831, Alt.=96.110413m. Speed=25.236000m/h.</desc>
<speed>7.010000</speed>
</trkpt>
<trkpt lat="55.896072" lon="26.532728">
<ele>96.204163</ele>
<time>2010-06-20T14:18:24Z</time>
<desc>lat.=55.896072, lon.=26.532728, Alt.=96.204163m. Speed=25.559999m/h.</desc>
<speed>7.100000</speed>
</trkpt>
<trkpt lat="55.896103" lon="26.532625">
<ele>96.348694</ele>
<time>2010-06-20T14:18:25Z</time>
<desc>lat.=55.896103, lon.=26.532625, Alt.=96.348694m. Speed=25.667999m/h.</desc>
<speed>7.130000</speed>
</trkpt>
<trkpt lat="55.896137" lon="26.532545">
<ele>96.463928</ele>
<time>2010-06-20T14:18:26Z</time>
<desc>lat.=55.896137, lon.=26.532545, Alt.=96.463928m. Speed=20.844000m/h.</desc>
<speed>5.790000</speed>
</trkpt>
<trkpt lat="55.896175" lon="26.532501">
<ele>97.010803</ele>
<time>2010-06-20T14:18:27Z</time>
<desc>lat.=55.896175, lon.=26.532501, Alt.=97.010803m. Speed=15.624000m/h.</desc>
<speed>4.340000</speed>
</trkpt>
<trkpt lat="55.896198" lon="26.532478">
<ele>98.297913</ele>
<time>2010-06-20T14:18:28Z</time>
<desc>lat.=55.896198, lon.=26.532478, Alt.=98.297913m. Speed=8.856000m/h.</desc>
<speed>2.460000</speed>
</trkpt>
<trkpt lat="55.896221" lon="26.532473">
<ele>98.667053</ele>
<time>2010-06-20T14:18:29Z</time>
<desc>lat.=55.896221, lon.=26.532473, Alt.=98.667053m. Speed=8.676000m/h.</desc>
<speed>2.410000</speed>
</trkpt>
<trkpt lat="55.896248" lon="26.532455">
<ele>98.858459</ele>
<time>2010-06-20T14:18:30Z</time>
<desc>lat.=55.896248, lon.=26.532455, Alt.=98.858459m. Speed=9.000000m/h.</desc>
<speed>2.500000</speed>
</trkpt>
<trkpt lat="55.896263" lon="26.532448">
<ele>98.422913</ele>
<time>2010-06-20T14:18:31Z</time>
<desc>lat.=55.896263, lon.=26.532448, Alt.=98.422913m. Speed=4.428000m/h.</desc>
<speed>1.230000</speed>
</trkpt>
<trkpt lat="55.896271" lon="26.532442">
<ele>98.340881</ele>
<time>2010-06-20T14:18:32Z</time>
<desc>lat.=55.896271, lon.=26.532442, Alt.=98.340881m. Speed=0.720000m/h.</desc>
<speed>0.200000</speed>
</trkpt>
<trkpt lat="55.896271" lon="26.532444">
<ele>98.034241</ele>
<time>2010-06-20T14:18:33Z</time>
<desc>lat.=55.896271, lon.=26.532444, Alt.=98.034241m. Speed=0.576000m/h.</desc>
<speed>0.160000</speed>
</trkpt>
<trkpt lat="55.896267" lon="26.532450">
<ele>98.335022</ele>
<time>2010-06-20T14:18:34Z</time>
<desc>lat.=55.896267, lon.=26.532450, Alt.=98.335022m. Speed=0.324000m/h.</desc>
<speed>0.090000</speed>
</trkpt>
<trkpt lat="55.896267" lon="26.532454">
<ele>98.473694</ele>
<time>2010-06-20T14:18:35Z</time>
<desc>lat.=55.896267, lon.=26.532454, Alt.=98.473694m. Speed=0.180000m/h.</desc>
<speed>0.050000</speed>
</trkpt>
<trkpt lat="55.896271" lon="26.532454">
<ele>98.438538</ele>
<time>2010-06-20T14:18:36Z</time>
<desc>lat.=55.896271, lon.=26.532454, Alt.=98.438538m. Speed=0.108000m/h.</desc>
<speed>0.030000</speed>
</trkpt>
<trkpt lat="55.896271" lon="26.532454">
<ele>98.387756</ele>
<time>2010-06-20T14:18:37Z</time>
<desc>lat.=55.896271, lon.=26.532454, Alt.=98.387756m. Speed=1.224000m/h.</desc>
<speed>0.340000</speed>
</trkpt>
<trkpt lat="55.896271" lon="26.532452">
<ele>98.321350</ele>
<time>2010-06-20T14:18:38Z</time>
<desc>lat.=55.896271, lon.=26.532452, Alt.=98.321350m. Speed=1.656000m/h.</desc>
<speed>0.460000</speed>
</trkpt>
<trkpt lat="55.896275" lon="26.532457">
<ele>98.258850</ele>
<time>2010-06-20T14:18:39Z</time>
<desc>lat.=55.896275, lon.=26.532457, Alt.=98.258850m. Speed=1.620000m/h.</desc>
<speed>0.450000</speed>
</trkpt>
<trkpt lat="55.896278" lon="26.532463">
<ele>98.204163</ele>
<time>2010-06-20T14:18:40Z</time>
<desc>lat.=55.896278, lon.=26.532463, Alt.=98.204163m. Speed=2.196000m/h.</desc>
<speed>0.610000</speed>
</trkpt>
<trkpt lat="55.896282" lon="26.532471">
<ele>98.159241</ele>
<time>2010-06-20T14:18:41Z</time>
<desc>lat.=55.896282, lon.=26.532471, Alt.=98.159241m. Speed=1.800000m/h.</desc>
<speed>0.500000</speed>
</trkpt>
<trkpt lat="55.896282" lon="26.532478">
<ele>98.124084</ele>
<time>2010-06-20T14:18:42Z</time>
<desc>lat.=55.896282, lon.=26.532478, Alt.=98.124084m. Speed=1.332000m/h.</desc>
<speed>0.370000</speed>
</trkpt>
<trkpt lat="55.896286" lon="26.532482">
<ele>98.139709</ele>
<time>2010-06-20T14:18:43Z</time>
<desc>lat.=55.896286, lon.=26.532482, Alt.=98.139709m. Speed=1.944000m/h.</desc>
<speed>0.540000</speed>
</trkpt>
<trkpt lat="55.896290" lon="26.532488">
<ele>98.155334</ele>
<time>2010-06-20T14:18:44Z</time>
<desc>lat.=55.896290, lon.=26.532488, Alt.=98.155334m. Speed=2.520000m/h.</desc>
<speed>0.700000</speed>
</trkpt>
<trkpt lat="55.896294" lon="26.532494">
<ele>98.180725</ele>
<time>2010-06-20T14:18:45Z</time>
<desc>lat.=55.896294, lon.=26.532494, Alt.=98.180725m. Speed=1.008000m/h.</desc>
<speed>0.280000</speed>
</trkpt>
<trkpt lat="55.896294" lon="26.532499">
<ele>98.245178</ele>
<time>2010-06-20T14:18:46Z</time>
<desc>lat.=55.896294, lon.=26.532499, Alt.=98.245178m. Speed=1.116000m/h.</desc>
<speed>0.310000</speed>
</trkpt>
<trkpt lat="55.896297" lon="26.532503">
<ele>98.333069</ele>
<time>2010-06-20T14:18:47Z</time>
<desc>lat.=55.896297, lon.=26.532503, Alt.=98.333069m. Speed=1.764000m/h.</desc>
<speed>0.490000</speed>
</trkpt>
<trkpt lat="55.896301" lon="26.532505">
<ele>98.387756</ele>
<time>2010-06-20T14:18:48Z</time>
<desc>lat.=55.896301, lon.=26.532505, Alt.=98.387756m. Speed=2.808000m/h.</desc>
<speed>0.780000</speed>
</trkpt>
<trkpt lat="55.896309" lon="26.532509">
<ele>98.487366</ele>
<time>2010-06-20T14:18:49Z</time>
<desc>lat.=55.896309, lon.=26.532509, Alt.=98.487366m. Speed=2.700000m/h.</desc>
<speed>0.750000</speed>
</trkpt>
<trkpt lat="55.896313" lon="26.532513">
<ele>98.338928</ele>
<time>2010-06-20T14:18:50Z</time>
<desc>lat.=55.896313, lon.=26.532513, Alt.=98.338928m. Speed=2.340000m/h.</desc>
<speed>0.650000</speed>
</trkpt>
<trkpt lat="55.896317" lon="26.532520">
<ele>98.270569</ele>
<time>2010-06-20T14:18:51Z</time>
<desc>lat.=55.896317, lon.=26.532520, Alt.=98.270569m. Speed=2.304000m/h.</desc>
<speed>0.640000</speed>
</trkpt>
<trkpt lat="55.896320" lon="26.532530">
<ele>98.157288</ele>
<time>2010-06-20T14:18:52Z</time>
<desc>lat.=55.896320, lon.=26.532530, Alt.=98.157288m. Speed=1.152000m/h.</desc>
<speed>0.320000</speed>
</trkpt>
<trkpt lat="55.896320" lon="26.532536">
<ele>98.122131</ele>
<time>2010-06-20T14:18:53Z</time>
<desc>lat.=55.896320, lon.=26.532536, Alt.=98.122131m. Speed=1.440000m/h.</desc>
<speed>0.400000</speed>
</trkpt>
<trkpt lat="55.896324" lon="26.532539">
<ele>98.112366</ele>
<time>2010-06-20T14:18:54Z</time>
<desc>lat.=55.896324, lon.=26.532539, Alt.=98.112366m. Speed=0.972000m/h.</desc>
<speed>0.270000</speed>
</trkpt>
<trkpt lat="55.896320" lon="26.532537">
<ele>98.030334</ele>
<time>2010-06-20T14:18:55Z</time>
<desc>lat.=55.896320, lon.=26.532537, Alt.=98.030334m. Speed=2.520000m/h.</desc>
<speed>0.700000</speed>
</trkpt>
<trkpt lat="55.896328" lon="26.532541">
<ele>97.977600</ele>
<time>2010-06-20T14:18:56Z</time>
<desc>lat.=55.896328, lon.=26.532541, Alt.=97.977600m. Speed=2.916000m/h.</desc>
<speed>0.810000</speed>
</trkpt>
<trkpt lat="55.896336" lon="26.532545">
<ele>97.643616</ele>
<time>2010-06-20T14:18:57Z</time>
<desc>lat.=55.896336, lon.=26.532545, Alt.=97.643616m. Speed=1.872000m/h.</desc>
<speed>0.520000</speed>
</trkpt>
<trkpt lat="55.896339" lon="26.532547">
<ele>97.372131</ele>
<time>2010-06-20T14:18:58Z</time>
<desc>lat.=55.896339, lon.=26.532547, Alt.=97.372131m. Speed=1.332000m/h.</desc>
<speed>0.370000</speed>
</trkpt>
<trkpt lat="55.896339" lon="26.532553">
<ele>97.229553</ele>
<time>2010-06-20T14:18:59Z</time>
<desc>lat.=55.896339, lon.=26.532553, Alt.=97.229553m. Speed=1.116000m/h.</desc>
<speed>0.310000</speed>
</trkpt>
<trkpt lat="55.896339" lon="26.532557">
<ele>97.028381</ele>
<time>2010-06-20T14:19:00Z</time>
<desc>lat.=55.896339, lon.=26.532557, Alt.=97.028381m. Speed=0.828000m/h.</desc>
<speed>0.230000</speed>
</trkpt>
<trkpt lat="55.896343" lon="26.532560">
<ele>96.821350</ele>
<time>2010-06-20T14:19:01Z</time>
<desc>lat.=55.896343, lon.=26.532560, Alt.=96.821350m. Speed=0.972000m/h.</desc>
<speed>0.270000</speed>
</trkpt>
<trkpt lat="55.896343" lon="26.532562">
<ele>96.690491</ele>
<time>2010-06-20T14:19:02Z</time>
<desc>lat.=55.896343, lon.=26.532562, Alt.=96.690491m. Speed=1.008000m/h.</desc>
<speed>0.280000</speed>
</trkpt>
<trkpt lat="55.896347" lon="26.532566">
<ele>96.606506</ele>
<time>2010-06-20T14:19:03Z</time>
<desc>lat.=55.896347, lon.=26.532566, Alt.=96.606506m. Speed=2.196000m/h.</desc>
<speed>0.610000</speed>
</trkpt>
<trkpt lat="55.896351" lon="26.532566">
<ele>96.565491</ele>
<time>2010-06-20T14:19:04Z</time>
<desc>lat.=55.896351, lon.=26.532566, Alt.=96.565491m. Speed=2.592000m/h.</desc>
<speed>0.720000</speed>
</trkpt>
<trkpt lat="55.896358" lon="26.532572">
<ele>96.737366</ele>
<time>2010-06-20T14:19:05Z</time>
<desc>lat.=55.896358, lon.=26.532572, Alt.=96.737366m. Speed=2.340000m/h.</desc>
<speed>0.650000</speed>
</trkpt>
<trkpt lat="55.896362" lon="26.532576">
<ele>96.829163</ele>
<time>2010-06-20T14:19:06Z</time>
<desc>lat.=55.896362, lon.=26.532576, Alt.=96.829163m. Speed=3.168000m/h.</desc>
<speed>0.880000</speed>
</trkpt>
<trkpt lat="55.896370" lon="26.532579">
<ele>96.920959</ele>
<time>2010-06-20T14:19:07Z</time>
<desc>lat.=55.896370, lon.=26.532579, Alt.=96.920959m. Speed=3.564000m/h.</desc>
<speed>0.990000</speed>
</trkpt>
<trkpt lat="55.896378" lon="26.532589">
<ele>96.905334</ele>
<time>2010-06-20T14:19:08Z</time>
<desc>lat.=55.896378, lon.=26.532589, Alt.=96.905334m. Speed=2.844000m/h.</desc>
<speed>0.790000</speed>
</trkpt>
<trkpt lat="55.896385" lon="26.532593">
<ele>96.792053</ele>
<time>2010-06-20T14:19:09Z</time>
<desc>lat.=55.896385, lon.=26.532593, Alt.=96.792053m. Speed=2.844000m/h.</desc>
<speed>0.790000</speed>
</trkpt>
<trkpt lat="55.896385" lon="26.532579">
<ele>96.711975</ele>
<time>2010-06-20T14:19:10Z</time>
<desc>lat.=55.896385, lon.=26.532579, Alt.=96.711975m. Speed=2.592000m/h.</desc>
<speed>0.720000</speed>
</trkpt>
<trkpt lat="55.896389" lon="26.532570">
<ele>96.579163</ele>
<time>2010-06-20T14:19:11Z</time>
<desc>lat.=55.896389, lon.=26.532570, Alt.=96.579163m. Speed=1.224000m/h.</desc>
<speed>0.340000</speed>
</trkpt>
<trkpt lat="55.896393" lon="26.532572">
<ele>96.512756</ele>
<time>2010-06-20T14:19:12Z</time>
<desc>lat.=55.896393, lon.=26.532572, Alt.=96.512756m. Speed=1.944000m/h.</desc>
<speed>0.540000</speed>
</trkpt>
<trkpt lat="55.896397" lon="26.532568">
<ele>96.458069</ele>
<time>2010-06-20T14:19:13Z</time>
<desc>lat.=55.896397, lon.=26.532568, Alt.=96.458069m. Speed=3.528000m/h.</desc>
<speed>0.980000</speed>
</trkpt>
<trkpt lat="55.896400" lon="26.532555">
<ele>96.448303</ele>
<time>2010-06-20T14:19:14Z</time>
<desc>lat.=55.896400, lon.=26.532555, Alt.=96.448303m. Speed=4.608000m/h.</desc>
<speed>1.280000</speed>
</trkpt>
<trkpt lat="55.896416" lon="26.532534">
<ele>97.157288</ele>
<time>2010-06-20T14:19:15Z</time>
<desc>lat.=55.896416, lon.=26.532534, Alt.=97.157288m. Speed=5.688000m/h.</desc>
<speed>1.580000</speed>
</trkpt>
<trkpt lat="55.896427" lon="26.532507">
<ele>97.002991</ele>
<time>2010-06-20T14:19:16Z</time>
<desc>lat.=55.896427, lon.=26.532507, Alt.=97.002991m. Speed=7.596000m/h.</desc>
<speed>2.110000</speed>
</trkpt>
<trkpt lat="55.896442" lon="26.532471">
<ele>96.864319</ele>
<time>2010-06-20T14:19:17Z</time>
<desc>lat.=55.896442, lon.=26.532471, Alt.=96.864319m. Speed=9.360000m/h.</desc>
<speed>2.600000</speed>
</trkpt>
<trkpt lat="55.896461" lon="26.532434">
<ele>96.659241</ele>
<time>2010-06-20T14:19:18Z</time>
<desc>lat.=55.896461, lon.=26.532434, Alt.=96.659241m. Speed=10.728000m/h.</desc>
<speed>2.980000</speed>
</trkpt>
<trkpt lat="55.896481" lon="26.532398">
<ele>97.372131</ele>
<time>2010-06-20T14:19:19Z</time>
<desc>lat.=55.896481, lon.=26.532398, Alt.=97.372131m. Speed=11.592000m/h.</desc>
<speed>3.220000</speed>
</trkpt>
<trkpt lat="55.896503" lon="26.532352">
<ele>97.893616</ele>
<time>2010-06-20T14:19:20Z</time>
<desc>lat.=55.896503, lon.=26.532352, Alt.=97.893616m. Speed=12.276000m/h.</desc>
<speed>3.410000</speed>
</trkpt>
<trkpt lat="55.896523" lon="26.532305">
<ele>98.065491</ele>
<time>2010-06-20T14:19:21Z</time>
<desc>lat.=55.896523, lon.=26.532305, Alt.=98.065491m. Speed=13.176000m/h.</desc>
<speed>3.660000</speed>
</trkpt>
<trkpt lat="55.896542" lon="26.532251">
<ele>98.460022</ele>
<time>2010-06-20T14:19:22Z</time>
<desc>lat.=55.896542, lon.=26.532251, Alt.=98.460022m. Speed=12.852000m/h.</desc>
<speed>3.570000</speed>
</trkpt>
<trkpt lat="55.896561" lon="26.532198">
<ele>98.922913</ele>
<time>2010-06-20T14:19:23Z</time>
<desc>lat.=55.896561, lon.=26.532198, Alt.=98.922913m. Speed=12.924000m/h.</desc>
<speed>3.590000</speed>
</trkpt>
<trkpt lat="55.896576" lon="26.532152">
<ele>98.805725</ele>
<time>2010-06-20T14:19:24Z</time>
<desc>lat.=55.896576, lon.=26.532152, Alt.=98.805725m. Speed=12.960000m/h.</desc>
<speed>3.600000</speed>
</trkpt>
<trkpt lat="55.896587" lon="26.532104">
<ele>99.614319</ele>
<time>2010-06-20T14:19:25Z</time>
<desc>lat.=55.896587, lon.=26.532104, Alt.=99.614319m. Speed=10.404000m/h.</desc>
<speed>2.890000</speed>
</trkpt>
<trkpt lat="55.896599" lon="26.532074">
<ele>100.034241</ele>
<time>2010-06-20T14:19:26Z</time>
<desc>lat.=55.896599, lon.=26.532074, Alt.=100.034241m. Speed=7.740000m/h.</desc>
<speed>2.150000</speed>
</trkpt>
<trkpt lat="55.896622" lon="26.532068">
<ele>99.594788</ele>
<time>2010-06-20T14:19:27Z</time>
<desc>lat.=55.896622, lon.=26.532068, Alt.=99.594788m. Speed=10.476000m/h.</desc>
<speed>2.910000</speed>
</trkpt>
<trkpt lat="55.896645" lon="26.532078">
<ele>99.733459</ele>
<time>2010-06-20T14:19:28Z</time>
<desc>lat.=55.896645, lon.=26.532078, Alt.=99.733459m. Speed=10.620000m/h.</desc>
<speed>2.950000</speed>
</trkpt>
<trkpt lat="55.896679" lon="26.532093">
<ele>99.717834</ele>
<time>2010-06-20T14:19:29Z</time>
<desc>lat.=55.896679, lon.=26.532093, Alt.=99.717834m. Speed=12.672000m/h.</desc>
<speed>3.520000</speed>
</trkpt>
<trkpt lat="55.896713" lon="26.532101">
<ele>100.004944</ele>
<time>2010-06-20T14:19:30Z</time>
<desc>lat.=55.896713, lon.=26.532101, Alt.=100.004944m. Speed=14.472000m/h.</desc>
<speed>4.020000</speed>
</trkpt>
<trkpt lat="55.896744" lon="26.532124">
<ele>99.958069</ele>
<time>2010-06-20T14:19:31Z</time>
<desc>lat.=55.896744, lon.=26.532124, Alt.=99.958069m. Speed=11.412000m/h.</desc>
<speed>3.170000</speed>
</trkpt>
<trkpt lat="55.896774" lon="26.532139">
<ele>99.850647</ele>
<time>2010-06-20T14:19:32Z</time>
<desc>lat.=55.896774, lon.=26.532139, Alt.=99.850647m. Speed=13.680000m/h.</desc>
<speed>3.800000</speed>
</trkpt>
<trkpt lat="55.896812" lon="26.532162">
<ele>100.135803</ele>
<time>2010-06-20T14:19:33Z</time>
<desc>lat.=55.896812, lon.=26.532162, Alt.=100.135803m. Speed=13.896000m/h.</desc>
<speed>3.860000</speed>
</trkpt>
<trkpt lat="55.896851" lon="26.532177">
<ele>101.647522</ele>
<time>2010-06-20T14:19:34Z</time>
<desc>lat.=55.896851, lon.=26.532177, Alt.=101.647522m. Speed=14.760000m/h.</desc>
<speed>4.100000</speed>
</trkpt>
<trkpt lat="55.896885" lon="26.532200">
<ele>101.633850</ele>
<time>2010-06-20T14:19:35Z</time>
<desc>lat.=55.896885, lon.=26.532200, Alt.=101.633850m. Speed=15.876000m/h.</desc>
<speed>4.410000</speed>
</trkpt>
<trkpt lat="55.896927" lon="26.532227">
<ele>102.231506</ele>
<time>2010-06-20T14:19:36Z</time>
<desc>lat.=55.896927, lon.=26.532227, Alt.=102.231506m. Speed=16.271999m/h.</desc>
<speed>4.520000</speed>
</trkpt>
<trkpt lat="55.896965" lon="26.532248">
<ele>102.555725</ele>
<time>2010-06-20T14:19:37Z</time>
<desc>lat.=55.896965, lon.=26.532248, Alt.=102.555725m. Speed=14.796000m/h.</desc>
<speed>4.110000</speed>
</trkpt>
<trkpt lat="55.896996" lon="26.532246">
<ele>102.754944</ele>
<time>2010-06-20T14:19:38Z</time>
<desc>lat.=55.896996, lon.=26.532246, Alt.=102.754944m. Speed=10.548000m/h.</desc>
<speed>2.930000</speed>
</trkpt>
<trkpt lat="55.897022" lon="26.532217">
<ele>103.358459</ele>
<time>2010-06-20T14:19:39Z</time>
<desc>lat.=55.897022, lon.=26.532217, Alt.=103.358459m. Speed=11.124000m/h.</desc>
<speed>3.090000</speed>
</trkpt>
<trkpt lat="55.897045" lon="26.532179">
<ele>103.700256</ele>
<time>2010-06-20T14:19:40Z</time>
<desc>lat.=55.897045, lon.=26.532179, Alt.=103.700256m. Speed=14.040000m/h.</desc>
<speed>3.900000</speed>
</trkpt>
<trkpt lat="55.897064" lon="26.532124">
<ele>104.151428</ele>
<time>2010-06-20T14:19:41Z</time>
<desc>lat.=55.897064, lon.=26.532124, Alt.=104.151428m. Speed=15.048000m/h.</desc>
<speed>4.180000</speed>
</trkpt>
<trkpt lat="55.897083" lon="26.532061">
<ele>103.647522</ele>
<time>2010-06-20T14:19:42Z</time>
<desc>lat.=55.897083, lon.=26.532061, Alt.=103.647522m. Speed=15.012000m/h.</desc>
<speed>4.170000</speed>
</trkpt>
<trkpt lat="55.897102" lon="26.531998">
<ele>103.651428</ele>
<time>2010-06-20T14:19:43Z</time>
<desc>lat.=55.897102, lon.=26.531998, Alt.=103.651428m. Speed=15.336000m/h.</desc>
<speed>4.260000</speed>
</trkpt>
<trkpt lat="55.897118" lon="26.531933">
<ele>103.829163</ele>
<time>2010-06-20T14:19:44Z</time>
<desc>lat.=55.897118, lon.=26.531933, Alt.=103.829163m. Speed=16.236000m/h.</desc>
<speed>4.510000</speed>
</trkpt>
<trkpt lat="55.897137" lon="26.531866">
<ele>104.567444</ele>
<time>2010-06-20T14:19:45Z</time>
<desc>lat.=55.897137, lon.=26.531866, Alt.=104.567444m. Speed=15.876000m/h.</desc>
<speed>4.410000</speed>
</trkpt>
<trkpt lat="55.897160" lon="26.531803">
<ele>104.809631</ele>
<time>2010-06-20T14:19:46Z</time>
<desc>lat.=55.897160, lon.=26.531803, Alt.=104.809631m. Speed=16.164000m/h.</desc>
<speed>4.490000</speed>
</trkpt>
<trkpt lat="55.897186" lon="26.531742">
<ele>104.823303</ele>
<time>2010-06-20T14:19:47Z</time>
<desc>lat.=55.897186, lon.=26.531742, Alt.=104.823303m. Speed=16.667999m/h.</desc>
<speed>4.630000</speed>
</trkpt>
<trkpt lat="55.897209" lon="26.531679">
<ele>105.163147</ele>
<time>2010-06-20T14:19:48Z</time>
<desc>lat.=55.897209, lon.=26.531679, Alt.=105.163147m. Speed=16.308001m/h.</desc>
<speed>4.530000</speed>
</trkpt>
<trkpt lat="55.897232" lon="26.531618">
<ele>105.149475</ele>
<time>2010-06-20T14:19:49Z</time>
<desc>lat.=55.897232, lon.=26.531618, Alt.=105.149475m. Speed=17.316000m/h.</desc>
<speed>4.810000</speed>
</trkpt>
<trkpt lat="55.897255" lon="26.531549">
<ele>105.313538</ele>
<time>2010-06-20T14:19:50Z</time>
<desc>lat.=55.897255, lon.=26.531549, Alt.=105.313538m. Speed=17.136000m/h.</desc>
<speed>4.760000</speed>
</trkpt>
<trkpt lat="55.897278" lon="26.531481">
<ele>105.467834</ele>
<time>2010-06-20T14:19:51Z</time>
<desc>lat.=55.897278, lon.=26.531481, Alt.=105.467834m. Speed=17.243999m/h.</desc>
<speed>4.790000</speed>
</trkpt>
<trkpt lat="55.897301" lon="26.531412">
<ele>105.614319</ele>
<time>2010-06-20T14:19:52Z</time>
<desc>lat.=55.897301, lon.=26.531412, Alt.=105.614319m. Speed=17.424000m/h.</desc>
<speed>4.840000</speed>
</trkpt>
<trkpt lat="55.897324" lon="26.531342">
<ele>105.770569</ele>
<time>2010-06-20T14:19:53Z</time>
<desc>lat.=55.897324, lon.=26.531342, Alt.=105.770569m. Speed=17.820000m/h.</desc>
<speed>4.950000</speed>
</trkpt>
<trkpt lat="55.897346" lon="26.531273">
<ele>106.010803</ele>
<time>2010-06-20T14:19:54Z</time>
<desc>lat.=55.897346, lon.=26.531273, Alt.=106.010803m. Speed=17.820000m/h.</desc>
<speed>4.950000</speed>
</trkpt>
<trkpt lat="55.897366" lon="26.531206">
<ele>106.170959</ele>
<time>2010-06-20T14:19:55Z</time>
<desc>lat.=55.897366, lon.=26.531206, Alt.=106.170959m. Speed=17.927999m/h.</desc>
<speed>4.980000</speed>
</trkpt>
<trkpt lat="55.897388" lon="26.531136">
<ele>106.393616</ele>
<time>2010-06-20T14:19:56Z</time>
<desc>lat.=55.897388, lon.=26.531136, Alt.=106.393616m. Speed=17.784000m/h.</desc>
<speed>4.940000</speed>
</trkpt>
<trkpt lat="55.897411" lon="26.531065">
<ele>106.497131</ele>
<time>2010-06-20T14:19:57Z</time>
<desc>lat.=55.897411, lon.=26.531065, Alt.=106.497131m. Speed=17.676001m/h.</desc>
<speed>4.910000</speed>
</trkpt>
<trkpt lat="55.897434" lon="26.530994">
<ele>106.506897</ele>
<time>2010-06-20T14:19:58Z</time>
<desc>lat.=55.897434, lon.=26.530994, Alt.=106.506897m. Speed=17.316000m/h.</desc>
<speed>4.810000</speed>
</trkpt>
<trkpt lat="55.897457" lon="26.530928">
<ele>106.602600</ele>
<time>2010-06-20T14:19:59Z</time>
<desc>lat.=55.897457, lon.=26.530928, Alt.=106.602600m. Speed=17.316000m/h.</desc>
<speed>4.810000</speed>
</trkpt>
<trkpt lat="55.897476" lon="26.530867">
<ele>106.366272</ele>
<time>2010-06-20T14:20:00Z</time>
<desc>lat.=55.897476, lon.=26.530867, Alt.=106.366272m. Speed=15.840000m/h.</desc>
<speed>4.400000</speed>
</trkpt>
<trkpt lat="55.897499" lon="26.530809">
<ele>106.112366</ele>
<time>2010-06-20T14:20:01Z</time>
<desc>lat.=55.897499, lon.=26.530809, Alt.=106.112366m. Speed=12.456000m/h.</desc>
<speed>3.460000</speed>
</trkpt>
<trkpt lat="55.897514" lon="26.530764">
<ele>106.092834</ele>
<time>2010-06-20T14:20:02Z</time>
<desc>lat.=55.897514, lon.=26.530764, Alt.=106.092834m. Speed=9.180000m/h.</desc>
<speed>2.550000</speed>
</trkpt>
<trkpt lat="55.897522" lon="26.530745">
<ele>105.799866</ele>
<time>2010-06-20T14:20:03Z</time>
<desc>lat.=55.897522, lon.=26.530745, Alt.=105.799866m. Speed=1.800000m/h.</desc>
<speed>0.500000</speed>
</trkpt>
<trkpt lat="55.897526" lon="26.530737">
<ele>105.907288</ele>
<time>2010-06-20T14:20:04Z</time>
<desc>lat.=55.897526, lon.=26.530737, Alt.=105.907288m. Speed=0.144000m/h.</desc>
<speed>0.040000</speed>
</trkpt>
<trkpt lat="55.897526" lon="26.530735">
<ele>105.946350</ele>
<time>2010-06-20T14:20:05Z</time>
<desc>lat.=55.897526, lon.=26.530735, Alt.=105.946350m. Speed=0.108000m/h.</desc>
<speed>0.030000</speed>
</trkpt>
<trkpt lat="55.897526" lon="26.530735">
<ele>105.965881</ele>
<time>2010-06-20T14:20:06Z</time>
<desc>lat.=55.897526, lon.=26.530735, Alt.=105.965881m. Speed=1.224000m/h.</desc>
<speed>0.340000</speed>
</trkpt>
<trkpt lat="55.897526" lon="26.530731">
<ele>105.922913</ele>
<time>2010-06-20T14:20:07Z</time>
<desc>lat.=55.897526, lon.=26.530731, Alt.=105.922913m. Speed=1.368000m/h.</desc>
<speed>0.380000</speed>
</trkpt>
<trkpt lat="55.897530" lon="26.530727">
<ele>105.879944</ele>
<time>2010-06-20T14:20:08Z</time>
<desc>lat.=55.897530, lon.=26.530727, Alt.=105.879944m. Speed=1.764000m/h.</desc>
<speed>0.490000</speed>
</trkpt>
<trkpt lat="55.897533" lon="26.530722">
<ele>105.838928</ele>
<time>2010-06-20T14:20:09Z</time>
<desc>lat.=55.897533, lon.=26.530722, Alt.=105.838928m. Speed=0.900000m/h.</desc>
<speed>0.250000</speed>
</trkpt>
<trkpt lat="55.897533" lon="26.530722">
<ele>105.801819</ele>
<time>2010-06-20T14:20:10Z</time>
<desc>lat.=55.897533, lon.=26.530722, Alt.=105.801819m. Speed=0.828000m/h.</desc>
<speed>0.230000</speed>
</trkpt>
<trkpt lat="55.897537" lon="26.530718">
<ele>105.766663</ele>
<time>2010-06-20T14:20:11Z</time>
<desc>lat.=55.897537, lon.=26.530718, Alt.=105.766663m. Speed=1.836000m/h.</desc>
<speed>0.510000</speed>
</trkpt>
<trkpt lat="55.897541" lon="26.530712">
<ele>105.774475</ele>
<time>2010-06-20T14:20:12Z</time>
<desc>lat.=55.897541, lon.=26.530712, Alt.=105.774475m. Speed=1.836000m/h.</desc>
<speed>0.510000</speed>
</trkpt>
<trkpt lat="55.897541" lon="26.530704">
<ele>105.725647</ele>
<time>2010-06-20T14:20:13Z</time>
<desc>lat.=55.897541, lon.=26.530704, Alt.=105.725647m. Speed=2.448000m/h.</desc>
<speed>0.680000</speed>
</trkpt>
<trkpt lat="55.897545" lon="26.530697">
<ele>105.600647</ele>
<time>2010-06-20T14:20:14Z</time>
<desc>lat.=55.897545, lon.=26.530697, Alt.=105.600647m. Speed=1.944000m/h.</desc>
<speed>0.540000</speed>
</trkpt>
<trkpt lat="55.897549" lon="26.530689">
<ele>105.366272</ele>
<time>2010-06-20T14:20:15Z</time>
<desc>lat.=55.897549, lon.=26.530689, Alt.=105.366272m. Speed=2.520000m/h.</desc>
<speed>0.700000</speed>
</trkpt>
<trkpt lat="55.897552" lon="26.530682">
<ele>105.085022</ele>
<time>2010-06-20T14:20:16Z</time>
<desc>lat.=55.897552, lon.=26.530682, Alt.=105.085022m. Speed=2.592000m/h.</desc>
<speed>0.720000</speed>
</trkpt>
<trkpt lat="55.897556" lon="26.530670">
<ele>104.747131</ele>
<time>2010-06-20T14:20:17Z</time>
<desc>lat.=55.897556, lon.=26.530670, Alt.=104.747131m. Speed=2.916000m/h.</desc>
<speed>0.810000</speed>
</trkpt>
<trkpt lat="55.897560" lon="26.530661">
<ele>104.491272</ele>
<time>2010-06-20T14:20:18Z</time>
<desc>lat.=55.897560, lon.=26.530661, Alt.=104.491272m. Speed=3.924000m/h.</desc>
<speed>1.090000</speed>
</trkpt>
<trkpt lat="55.897564" lon="26.530649">
<ele>104.448303</ele>
<time>2010-06-20T14:20:19Z</time>
<desc>lat.=55.897564, lon.=26.530649, Alt.=104.448303m. Speed=2.376000m/h.</desc>
<speed>0.660000</speed>
</trkpt>
<trkpt lat="55.897564" lon="26.530643">
<ele>104.315491</ele>
<time>2010-06-20T14:20:20Z</time>
<desc>lat.=55.897564, lon.=26.530643, Alt.=104.315491m. Speed=1.980000m/h.</desc>
<speed>0.550000</speed>
</trkpt>
<trkpt lat="55.897572" lon="26.530634">
<ele>104.266663</ele>
<time>2010-06-20T14:20:21Z</time>
<desc>lat.=55.897572, lon.=26.530634, Alt.=104.266663m. Speed=2.088000m/h.</desc>
<speed>0.580000</speed>
</trkpt>
<trkpt lat="55.897572" lon="26.530626">
<ele>104.014709</ele>
<time>2010-06-20T14:20:22Z</time>
<desc>lat.=55.897572, lon.=26.530626, Alt.=104.014709m. Speed=2.196000m/h.</desc>
<speed>0.610000</speed>
</trkpt>
<trkpt lat="55.897579" lon="26.530621">
<ele>103.676819</ele>
<time>2010-06-20T14:20:23Z</time>
<desc>lat.=55.897579, lon.=26.530621, Alt.=103.676819m. Speed=2.448000m/h.</desc>
<speed>0.680000</speed>
</trkpt>
<trkpt lat="55.897583" lon="26.530609">
<ele>103.405334</ele>
<time>2010-06-20T14:20:24Z</time>
<desc>lat.=55.897583, lon.=26.530609, Alt.=103.405334m. Speed=2.376000m/h.</desc>
<speed>0.660000</speed>
</trkpt>
<trkpt lat="55.897583" lon="26.530600">
<ele>103.379944</ele>
<time>2010-06-20T14:20:25Z</time>
<desc>lat.=55.897583, lon.=26.530600, Alt.=103.379944m. Speed=2.736000m/h.</desc>
<speed>0.760000</speed>
</trkpt>
<trkpt lat="55.897591" lon="26.530588">
<ele>102.989319</ele>
<time>2010-06-20T14:20:26Z</time>
<desc>lat.=55.897591, lon.=26.530588, Alt.=102.989319m. Speed=2.736000m/h.</desc>
<speed>0.760000</speed>
</trkpt>
<trkpt lat="55.897594" lon="26.530584">
<ele>102.688538</ele>
<time>2010-06-20T14:20:27Z</time>
<desc>lat.=55.897594, lon.=26.530584, Alt.=102.688538m. Speed=1.476000m/h.</desc>
<speed>0.410000</speed>
</trkpt>
<trkpt lat="55.897598" lon="26.530579">
<ele>102.766663</ele>
<time>2010-06-20T14:20:28Z</time>
<desc>lat.=55.897598, lon.=26.530579, Alt.=102.766663m. Speed=2.520000m/h.</desc>
<speed>0.700000</speed>
</trkpt>
<trkpt lat="55.897602" lon="26.530581">
<ele>102.606506</ele>
<time>2010-06-20T14:20:29Z</time>
<desc>lat.=55.897602, lon.=26.530581, Alt.=102.606506m. Speed=2.556000m/h.</desc>
<speed>0.710000</speed>
</trkpt>
<trkpt lat="55.897610" lon="26.530588">
<ele>102.385803</ele>
<time>2010-06-20T14:20:30Z</time>
<desc>lat.=55.897610, lon.=26.530588, Alt.=102.385803m. Speed=3.384000m/h.</desc>
<speed>0.940000</speed>
</trkpt>
<trkpt lat="55.897617" lon="26.530592">
<ele>102.344788</ele>
<time>2010-06-20T14:20:31Z</time>
<desc>lat.=55.897617, lon.=26.530592, Alt.=102.344788m. Speed=1.188000m/h.</desc>
<speed>0.330000</speed>
</trkpt>
<trkpt lat="55.897621" lon="26.530596">
<ele>102.241272</ele>
<time>2010-06-20T14:20:32Z</time>
<desc>lat.=55.897621, lon.=26.530596, Alt.=102.241272m. Speed=0.360000m/h.</desc>
<speed>0.100000</speed>
</trkpt>
<trkpt lat="55.897625" lon="26.530592">
<ele>102.127991</ele>
<time>2010-06-20T14:20:33Z</time>
<desc>lat.=55.897625, lon.=26.530592, Alt.=102.127991m. Speed=2.196000m/h.</desc>
<speed>0.610000</speed>
</trkpt>
<trkpt lat="55.897633" lon="26.530596">
<ele>102.001038</ele>
<time>2010-06-20T14:20:34Z</time>
<desc>lat.=55.897633, lon.=26.530596, Alt.=102.001038m. Speed=1.944000m/h.</desc>
<speed>0.540000</speed>
</trkpt>
<trkpt lat="55.897633" lon="26.530600">
<ele>102.032288</ele>
<time>2010-06-20T14:20:35Z</time>
<desc>lat.=55.897633, lon.=26.530600, Alt.=102.032288m. Speed=1.260000m/h.</desc>
<speed>0.350000</speed>
</trkpt>
<trkpt lat="55.897636" lon="26.530598">
<ele>101.899475</ele>
<time>2010-06-20T14:20:36Z</time>
<desc>lat.=55.897636, lon.=26.530598, Alt.=101.899475m. Speed=2.844000m/h.</desc>
<speed>0.790000</speed>
</trkpt>
<trkpt lat="55.897648" lon="26.530602">
<ele>102.161194</ele>
<time>2010-06-20T14:20:37Z</time>
<desc>lat.=55.897648, lon.=26.530602, Alt.=102.161194m. Speed=2.628000m/h.</desc>
<speed>0.730000</speed>
</trkpt>
<trkpt lat="55.897655" lon="26.530605">
<ele>102.169006</ele>
<time>2010-06-20T14:20:38Z</time>
<desc>lat.=55.897655, lon.=26.530605, Alt.=102.169006m. Speed=3.204000m/h.</desc>
<speed>0.890000</speed>
</trkpt>
<trkpt lat="55.897667" lon="26.530617">
<ele>101.965881</ele>
<time>2010-06-20T14:20:39Z</time>
<desc>lat.=55.897667, lon.=26.530617, Alt.=101.965881m. Speed=3.204000m/h.</desc>
<speed>0.890000</speed>
</trkpt>
<trkpt lat="55.897675" lon="26.530617">
<ele>102.004944</ele>
<time>2010-06-20T14:20:40Z</time>
<desc>lat.=55.897675, lon.=26.530617, Alt.=102.004944m. Speed=1.692000m/h.</desc>
<speed>0.470000</speed>
</trkpt>
<trkpt lat="55.897678" lon="26.530615">
<ele>102.022522</ele>
<time>2010-06-20T14:20:41Z</time>
<desc>lat.=55.897678, lon.=26.530615, Alt.=102.022522m. Speed=1.944000m/h.</desc>
<speed>0.540000</speed>
</trkpt>
<trkpt lat="55.897678" lon="26.530609">
<ele>101.971741</ele>
<time>2010-06-20T14:20:42Z</time>
<desc>lat.=55.897678, lon.=26.530609, Alt.=101.971741m. Speed=1.008000m/h.</desc>
<speed>0.280000</speed>
</trkpt>
<trkpt lat="55.897682" lon="26.530615">
<ele>101.901428</ele>
<time>2010-06-20T14:20:43Z</time>
<desc>lat.=55.897682, lon.=26.530615, Alt.=101.901428m. Speed=1.296000m/h.</desc>
<speed>0.360000</speed>
</trkpt>
<trkpt lat="55.897690" lon="26.530626">
<ele>101.852600</ele>
<time>2010-06-20T14:20:44Z</time>
<desc>lat.=55.897690, lon.=26.530626, Alt.=101.852600m. Speed=2.592000m/h.</desc>
<speed>0.720000</speed>
</trkpt>
<trkpt lat="55.897701" lon="26.530630">
<ele>101.866272</ele>
<time>2010-06-20T14:20:45Z</time>
<desc>lat.=55.897701, lon.=26.530630, Alt.=101.866272m. Speed=3.744000m/h.</desc>
<speed>1.040000</speed>
</trkpt>
<trkpt lat="55.897713" lon="26.530632">
<ele>101.747131</ele>
<time>2010-06-20T14:20:46Z</time>
<desc>lat.=55.897713, lon.=26.530632, Alt.=101.747131m. Speed=7.236000m/h.</desc>
<speed>2.010000</speed>
</trkpt>
<trkpt lat="55.897732" lon="26.530622">
<ele>101.831116</ele>
<time>2010-06-20T14:20:47Z</time>
<desc>lat.=55.897732, lon.=26.530622, Alt.=101.831116m. Speed=6.660000m/h.</desc>
<speed>1.850000</speed>
</trkpt>
<trkpt lat="55.897751" lon="26.530611">
<ele>101.971741</ele>
<time>2010-06-20T14:20:48Z</time>
<desc>lat.=55.897751, lon.=26.530611, Alt.=101.971741m. Speed=10.584000m/h.</desc>
<speed>2.940000</speed>
</trkpt>
<trkpt lat="55.897778" lon="26.530600">
<ele>101.999084</ele>
<time>2010-06-20T14:20:49Z</time>
<desc>lat.=55.897778, lon.=26.530600, Alt.=101.999084m. Speed=11.232000m/h.</desc>
<speed>3.120000</speed>
</trkpt>
<trkpt lat="55.897804" lon="26.530590">
<ele>102.116272</ele>
<time>2010-06-20T14:20:50Z</time>
<desc>lat.=55.897804, lon.=26.530590, Alt.=102.116272m. Speed=10.584000m/h.</desc>
<speed>2.940000</speed>
</trkpt>
<trkpt lat="55.897835" lon="26.530581">
<ele>101.934631</ele>
<time>2010-06-20T14:20:51Z</time>
<desc>lat.=55.897835, lon.=26.530581, Alt.=101.934631m. Speed=12.708000m/h.</desc>
<speed>3.530000</speed>
</trkpt>
<trkpt lat="55.897865" lon="26.530577">
<ele>101.860413</ele>
<time>2010-06-20T14:20:52Z</time>
<desc>lat.=55.897865, lon.=26.530577, Alt.=101.860413m. Speed=12.852000m/h.</desc>
<speed>3.570000</speed>
</trkpt>
<trkpt lat="55.897900" lon="26.530581">
<ele>101.938538</ele>
<time>2010-06-20T14:20:53Z</time>
<desc>lat.=55.897900, lon.=26.530581, Alt.=101.938538m. Speed=12.744000m/h.</desc>
<speed>3.540000</speed>
</trkpt>
<trkpt lat="55.897934" lon="26.530592">
<ele>101.983459</ele>
<time>2010-06-20T14:20:54Z</time>
<desc>lat.=55.897934, lon.=26.530592, Alt.=101.983459m. Speed=12.816000m/h.</desc>
<speed>3.560000</speed>
</trkpt>
<trkpt lat="55.897964" lon="26.530613">
<ele>101.686584</ele>
<time>2010-06-20T14:20:55Z</time>
<desc>lat.=55.897964, lon.=26.530613, Alt.=101.686584m. Speed=12.996000m/h.</desc>
<speed>3.610000</speed>
</trkpt>
<trkpt lat="55.897999" lon="26.530626">
<ele>101.708069</ele>
<time>2010-06-20T14:20:56Z</time>
<desc>lat.=55.897999, lon.=26.530626, Alt.=101.708069m. Speed=13.140000m/h.</desc>
<speed>3.650000</speed>
</trkpt>
<trkpt lat="55.898033" lon="26.530643">
<ele>101.954163</ele>
<time>2010-06-20T14:20:57Z</time>
<desc>lat.=55.898033, lon.=26.530643, Alt.=101.954163m. Speed=14.436000m/h.</desc>
<speed>4.010000</speed>
</trkpt>
<trkpt lat="55.898067" lon="26.530680">
<ele>101.794006</ele>
<time>2010-06-20T14:20:58Z</time>
<desc>lat.=55.898067, lon.=26.530680, Alt.=101.794006m. Speed=14.904000m/h.</desc>
<speed>4.140000</speed>
</trkpt>
<trkpt lat="55.898106" lon="26.530712">
<ele>101.823303</ele>
<time>2010-06-20T14:20:59Z</time>
<desc>lat.=55.898106, lon.=26.530712, Alt.=101.823303m. Speed=15.372000m/h.</desc>
<speed>4.270000</speed>
</trkpt>
<trkpt lat="55.898140" lon="26.530745">
<ele>101.891663</ele>
<time>2010-06-20T14:21:00Z</time>
<desc>lat.=55.898140, lon.=26.530745, Alt.=101.891663m. Speed=15.192000m/h.</desc>
<speed>4.220000</speed>
</trkpt>
<trkpt lat="55.898178" lon="26.530781">
<ele>101.920959</ele>
<time>2010-06-20T14:21:01Z</time>
<desc>lat.=55.898178, lon.=26.530781, Alt.=101.920959m. Speed=15.624000m/h.</desc>
<speed>4.340000</speed>
</trkpt>
<trkpt lat="55.898209" lon="26.530817">
<ele>101.862366</ele>
<time>2010-06-20T14:21:02Z</time>
<desc>lat.=55.898209, lon.=26.530817, Alt.=101.862366m. Speed=15.876000m/h.</desc>
<speed>4.410000</speed>
</trkpt>
<trkpt lat="55.898247" lon="26.530853">
<ele>101.836975</ele>
<time>2010-06-20T14:21:03Z</time>
<desc>lat.=55.898247, lon.=26.530853, Alt.=101.836975m. Speed=15.876000m/h.</desc>
<speed>4.410000</speed>
</trkpt>
<trkpt lat="55.898281" lon="26.530893">
<ele>101.708069</ele>
<time>2010-06-20T14:21:04Z</time>
<desc>lat.=55.898281, lon.=26.530893, Alt.=101.708069m. Speed=16.128000m/h.</desc>
<speed>4.480000</speed>
</trkpt>
<trkpt lat="55.898319" lon="26.530928">
<ele>101.631897</ele>
<time>2010-06-20T14:21:05Z</time>
<desc>lat.=55.898319, lon.=26.530928, Alt.=101.631897m. Speed=16.236000m/h.</desc>
<speed>4.510000</speed>
</trkpt>
<trkpt lat="55.898357" lon="26.530956">
<ele>101.715881</ele>
<time>2010-06-20T14:21:06Z</time>
<desc>lat.=55.898357, lon.=26.530956, Alt.=101.715881m. Speed=16.164000m/h.</desc>
<speed>4.490000</speed>
</trkpt>
<trkpt lat="55.898392" lon="26.530987">
<ele>101.545959</ele>
<time>2010-06-20T14:21:07Z</time>
<desc>lat.=55.898392, lon.=26.530987, Alt.=101.545959m. Speed=15.732000m/h.</desc>
<speed>4.370000</speed>
</trkpt>
<trkpt lat="55.898426" lon="26.531017">
<ele>101.313538</ele>
<time>2010-06-20T14:21:08Z</time>
<desc>lat.=55.898426, lon.=26.531017, Alt.=101.313538m. Speed=16.164000m/h.</desc>
<speed>4.490000</speed>
</trkpt>
<trkpt lat="55.898460" lon="26.531050">
<ele>101.010803</ele>
<time>2010-06-20T14:21:09Z</time>
<desc>lat.=55.898460, lon.=26.531050, Alt.=101.010803m. Speed=15.624000m/h.</desc>
<speed>4.340000</speed>
</trkpt>
<trkpt lat="55.898499" lon="26.531082">
<ele>100.708069</ele>
<time>2010-06-20T14:21:10Z</time>
<desc>lat.=55.898499, lon.=26.531082, Alt.=100.708069m. Speed=16.524000m/h.</desc>
<speed>4.590000</speed>
</trkpt>
<trkpt lat="55.898533" lon="26.531113">
<ele>100.426819</ele>
<time>2010-06-20T14:21:11Z</time>
<desc>lat.=55.898533, lon.=26.531113, Alt.=100.426819m. Speed=15.804000m/h.</desc>
<speed>4.390000</speed>
</trkpt>
<trkpt lat="55.898571" lon="26.531141">
<ele>100.419006</ele>
<time>2010-06-20T14:21:12Z</time>
<desc>lat.=55.898571, lon.=26.531141, Alt.=100.419006m. Speed=17.280001m/h.</desc>
<speed>4.800000</speed>
</trkpt>
<trkpt lat="55.898609" lon="26.531172">
<ele>100.499084</ele>
<time>2010-06-20T14:21:13Z</time>
<desc>lat.=55.898609, lon.=26.531172, Alt.=100.499084m. Speed=16.884001m/h.</desc>
<speed>4.690000</speed>
</trkpt>
<trkpt lat="55.898647" lon="26.531206">
<ele>100.485413</ele>
<time>2010-06-20T14:21:14Z</time>
<desc>lat.=55.898647, lon.=26.531206, Alt.=100.485413m. Speed=17.136000m/h.</desc>
<speed>4.760000</speed>
</trkpt>
<trkpt lat="55.898685" lon="26.531244">
<ele>100.493225</ele>
<time>2010-06-20T14:21:15Z</time>
<desc>lat.=55.898685, lon.=26.531244, Alt.=100.493225m. Speed=16.920000m/h.</desc>
<speed>4.700000</speed>
</trkpt>
<trkpt lat="55.898724" lon="26.531275">
<ele>100.604553</ele>
<time>2010-06-20T14:21:16Z</time>
<desc>lat.=55.898724, lon.=26.531275, Alt.=100.604553m. Speed=16.020000m/h.</desc>
<speed>4.450000</speed>
</trkpt>
<trkpt lat="55.898758" lon="26.531307">
<ele>100.620178</ele>
<time>2010-06-20T14:21:17Z</time>
<desc>lat.=55.898758, lon.=26.531307, Alt.=100.620178m. Speed=16.992001m/h.</desc>
<speed>4.720000</speed>
</trkpt>
<trkpt lat="55.898796" lon="26.531332">
<ele>100.819397</ele>
<time>2010-06-20T14:21:18Z</time>
<desc>lat.=55.898796, lon.=26.531332, Alt.=100.819397m. Speed=17.028000m/h.</desc>
<speed>4.730000</speed>
</trkpt>
<trkpt lat="55.898838" lon="26.531363">
<ele>100.905334</ele>
<time>2010-06-20T14:21:19Z</time>
<desc>lat.=55.898838, lon.=26.531363, Alt.=100.905334m. Speed=16.740000m/h.</desc>
<speed>4.650000</speed>
</trkpt>
<trkpt lat="55.898876" lon="26.531384">
<ele>100.866272</ele>
<time>2010-06-20T14:21:20Z</time>
<desc>lat.=55.898876, lon.=26.531384, Alt.=100.866272m. Speed=16.740000m/h.</desc>
<speed>4.650000</speed>
</trkpt>
<trkpt lat="55.898918" lon="26.531393">
<ele>101.004944</ele>
<time>2010-06-20T14:21:21Z</time>
<desc>lat.=55.898918, lon.=26.531393, Alt.=101.004944m. Speed=16.992001m/h.</desc>
<speed>4.720000</speed>
</trkpt>
<trkpt lat="55.898960" lon="26.531389">
<ele>101.116272</ele>
<time>2010-06-20T14:21:22Z</time>
<desc>lat.=55.898960, lon.=26.531389, Alt.=101.116272m. Speed=17.568001m/h.</desc>
<speed>4.880000</speed>
</trkpt>
<trkpt lat="55.898998" lon="26.531378">
<ele>100.993225</ele>
<time>2010-06-20T14:21:23Z</time>
<desc>lat.=55.898998, lon.=26.531378, Alt.=100.993225m. Speed=17.280001m/h.</desc>
<speed>4.800000</speed>
</trkpt>
<trkpt lat="55.899040" lon="26.531364">
<ele>101.008850</ele>
<time>2010-06-20T14:21:24Z</time>
<desc>lat.=55.899040, lon.=26.531364, Alt.=101.008850m. Speed=15.300000m/h.</desc>
<speed>4.250000</speed>
</trkpt>
<trkpt lat="55.899082" lon="26.531340">
<ele>101.276428</ele>
<time>2010-06-20T14:21:25Z</time>
<desc>lat.=55.899082, lon.=26.531340, Alt.=101.276428m. Speed=15.840000m/h.</desc>
<speed>4.400000</speed>
</trkpt>
<trkpt lat="55.899120" lon="26.531301">
<ele>101.407288</ele>
<time>2010-06-20T14:21:26Z</time>
<desc>lat.=55.899120, lon.=26.531301, Alt.=101.407288m. Speed=15.696000m/h.</desc>
<speed>4.360000</speed>
</trkpt>
<trkpt lat="55.899147" lon="26.531252">
<ele>101.176819</ele>
<time>2010-06-20T14:21:27Z</time>
<desc>lat.=55.899147, lon.=26.531252, Alt.=101.176819m. Speed=15.552000m/h.</desc>
<speed>4.320000</speed>
</trkpt>
<trkpt lat="55.899166" lon="26.531200">
<ele>101.075256</ele>
<time>2010-06-20T14:21:28Z</time>
<desc>lat.=55.899166, lon.=26.531200, Alt.=101.075256m. Speed=16.452000m/h.</desc>
<speed>4.570000</speed>
</trkpt>
<trkpt lat="55.899189" lon="26.531139">
<ele>101.180725</ele>
<time>2010-06-20T14:21:29Z</time>
<desc>lat.=55.899189, lon.=26.531139, Alt.=101.180725m. Speed=16.308001m/h.</desc>
<speed>4.530000</speed>
</trkpt>
<trkpt lat="55.899212" lon="26.531069">
<ele>101.176819</ele>
<time>2010-06-20T14:21:30Z</time>
<desc>lat.=55.899212, lon.=26.531069, Alt.=101.176819m. Speed=17.747999m/h.</desc>
<speed>4.930000</speed>
</trkpt>
<trkpt lat="55.899239" lon="26.531004">
<ele>101.122131</ele>
<time>2010-06-20T14:21:31Z</time>
<desc>lat.=55.899239, lon.=26.531004, Alt.=101.122131m. Speed=16.992001m/h.</desc>
<speed>4.720000</speed>
</trkpt>
<trkpt lat="55.899261" lon="26.530949">
<ele>101.305725</ele>
<time>2010-06-20T14:21:32Z</time>
<desc>lat.=55.899261, lon.=26.530949, Alt.=101.305725m. Speed=16.271999m/h.</desc>
<speed>4.520000</speed>
</trkpt>
<trkpt lat="55.899288" lon="26.530890">
<ele>101.170959</ele>
<time>2010-06-20T14:21:33Z</time>
<desc>lat.=55.899288, lon.=26.530890, Alt.=101.170959m. Speed=16.236000m/h.</desc>
<speed>4.510000</speed>
</trkpt>
<trkpt lat="55.899315" lon="26.530834">
<ele>101.208069</ele>
<time>2010-06-20T14:21:34Z</time>
<desc>lat.=55.899315, lon.=26.530834, Alt.=101.208069m. Speed=16.740000m/h.</desc>
<speed>4.650000</speed>
</trkpt>
<trkpt lat="55.899345" lon="26.530779">
<ele>101.219788</ele>
<time>2010-06-20T14:21:35Z</time>
<desc>lat.=55.899345, lon.=26.530779, Alt.=101.219788m. Speed=16.344000m/h.</desc>
<speed>4.540000</speed>
</trkpt>
<trkpt lat="55.899376" lon="26.530720">
<ele>101.338928</ele>
<time>2010-06-20T14:21:36Z</time>
<desc>lat.=55.899376, lon.=26.530720, Alt.=101.338928m. Speed=16.271999m/h.</desc>
<speed>4.520000</speed>
</trkpt>
<trkpt lat="55.899399" lon="26.530664">
<ele>101.518616</ele>
<time>2010-06-20T14:21:37Z</time>
<desc>lat.=55.899399, lon.=26.530664, Alt.=101.518616m. Speed=15.804000m/h.</desc>
<speed>4.390000</speed>
</trkpt>
<trkpt lat="55.899426" lon="26.530607">
<ele>101.647522</ele>
<time>2010-06-20T14:21:38Z</time>
<desc>lat.=55.899426, lon.=26.530607, Alt.=101.647522m. Speed=16.775999m/h.</desc>
<speed>4.660000</speed>
</trkpt>
<trkpt lat="55.899456" lon="26.530550">
<ele>101.702209</ele>
<time>2010-06-20T14:21:39Z</time>
<desc>lat.=55.899456, lon.=26.530550, Alt.=101.702209m. Speed=16.740000m/h.</desc>
<speed>4.650000</speed>
</trkpt>
<trkpt lat="55.899479" lon="26.530491">
<ele>101.670959</ele>
<time>2010-06-20T14:21:40Z</time>
<desc>lat.=55.899479, lon.=26.530491, Alt.=101.670959m. Speed=17.568001m/h.</desc>
<speed>4.880000</speed>
</trkpt>
<trkpt lat="55.899502" lon="26.530411">
<ele>102.081116</ele>
<time>2010-06-20T14:21:41Z</time>
<desc>lat.=55.899502, lon.=26.530411, Alt.=102.081116m. Speed=18.143999m/h.</desc>
<speed>5.040000</speed>
</trkpt>
<trkpt lat="55.899532" lon="26.530344">
<ele>102.182678</ele>
<time>2010-06-20T14:21:42Z</time>
<desc>lat.=55.899532, lon.=26.530344, Alt.=102.182678m. Speed=17.927999m/h.</desc>
<speed>4.980000</speed>
</trkpt>
<trkpt lat="55.899555" lon="26.530279">
<ele>102.360413</ele>
<time>2010-06-20T14:21:43Z</time>
<desc>lat.=55.899555, lon.=26.530279, Alt.=102.360413m. Speed=18.180000m/h.</desc>
<speed>5.050000</speed>
</trkpt>
<trkpt lat="55.899582" lon="26.530212">
<ele>102.547913</ele>
<time>2010-06-20T14:21:44Z</time>
<desc>lat.=55.899582, lon.=26.530212, Alt.=102.547913m. Speed=18.468000m/h.</desc>
<speed>5.130000</speed>
</trkpt>
<trkpt lat="55.899609" lon="26.530146">
<ele>103.217834</ele>
<time>2010-06-20T14:21:45Z</time>
<desc>lat.=55.899609, lon.=26.530146, Alt.=103.217834m. Speed=18.504000m/h.</desc>
<speed>5.140000</speed>
</trkpt>
<trkpt lat="55.899647" lon="26.530083">
<ele>103.655334</ele>
<time>2010-06-20T14:21:46Z</time>
<desc>lat.=55.899647, lon.=26.530083, Alt.=103.655334m. Speed=18.035999m/h.</desc>
<speed>5.010000</speed>
</trkpt>
<trkpt lat="55.899670" lon="26.530008">
<ele>103.549866</ele>
<time>2010-06-20T14:21:47Z</time>
<desc>lat.=55.899670, lon.=26.530008, Alt.=103.549866m. Speed=18.035999m/h.</desc>
<speed>5.010000</speed>
</trkpt>
<trkpt lat="55.899693" lon="26.529938">
<ele>103.706116</ele>
<time>2010-06-20T14:21:48Z</time>
<desc>lat.=55.899693, lon.=26.529938, Alt.=103.706116m. Speed=18.360001m/h.</desc>
<speed>5.100000</speed>
</trkpt>
<trkpt lat="55.899715" lon="26.529861">
<ele>103.602600</ele>
<time>2010-06-20T14:21:49Z</time>
<desc>lat.=55.899715, lon.=26.529861, Alt.=103.602600m. Speed=18.540001m/h.</desc>
<speed>5.150000</speed>
</trkpt>
<trkpt lat="55.899769" lon="26.529821">
<ele>102.364319</ele>
<time>2010-06-20T14:21:50Z</time>
<desc>lat.=55.899769, lon.=26.529821, Alt.=102.364319m. Speed=17.892000m/h.</desc>
<speed>4.970000</speed>
</trkpt>
<trkpt lat="55.899792" lon="26.529755">
<ele>102.338928</ele>
<time>2010-06-20T14:21:51Z</time>
<desc>lat.=55.899792, lon.=26.529755, Alt.=102.338928m. Speed=17.712000m/h.</desc>
<speed>4.920000</speed>
</trkpt>
<trkpt lat="55.899811" lon="26.529680">
<ele>102.026428</ele>
<time>2010-06-20T14:21:52Z</time>
<desc>lat.=55.899811, lon.=26.529680, Alt.=102.026428m. Speed=17.532000m/h.</desc>
<speed>4.870000</speed>
</trkpt>
<trkpt lat="55.899818" lon="26.529598">
<ele>101.825256</ele>
<time>2010-06-20T14:21:53Z</time>
<desc>lat.=55.899818, lon.=26.529598, Alt.=101.825256m. Speed=16.920000m/h.</desc>
<speed>4.700000</speed>
</trkpt>
<trkpt lat="55.899830" lon="26.529524">
<ele>101.608459</ele>
<time>2010-06-20T14:21:54Z</time>
<desc>lat.=55.899830, lon.=26.529524, Alt.=101.608459m. Speed=16.524000m/h.</desc>
<speed>4.590000</speed>
</trkpt>
<trkpt lat="55.899845" lon="26.529459">
<ele>101.608459</ele>
<time>2010-06-20T14:21:55Z</time>
<desc>lat.=55.899845, lon.=26.529459, Alt.=101.608459m. Speed=16.164000m/h.</desc>
<speed>4.490000</speed>
</trkpt>
<trkpt lat="55.899864" lon="26.529398">
<ele>101.624084</ele>
<time>2010-06-20T14:21:56Z</time>
<desc>lat.=55.899864, lon.=26.529398, Alt.=101.624084m. Speed=16.056000m/h.</desc>
<speed>4.460000</speed>
</trkpt>
<trkpt lat="55.899876" lon="26.529333">
<ele>101.473694</ele>
<time>2010-06-20T14:21:57Z</time>
<desc>lat.=55.899876, lon.=26.529333, Alt.=101.473694m. Speed=16.848000m/h.</desc>
<speed>4.680000</speed>
</trkpt>
<trkpt lat="55.899891" lon="26.529263">
<ele>101.481506</ele>
<time>2010-06-20T14:21:58Z</time>
<desc>lat.=55.899891, lon.=26.529263, Alt.=101.481506m. Speed=16.848000m/h.</desc>
<speed>4.680000</speed>
</trkpt>
<trkpt lat="55.899910" lon="26.529200">
<ele>101.415100</ele>
<time>2010-06-20T14:21:59Z</time>
<desc>lat.=55.899910, lon.=26.529200, Alt.=101.415100m. Speed=17.496000m/h.</desc>
<speed>4.860000</speed>
</trkpt>
<trkpt lat="55.899937" lon="26.529139">
<ele>101.647522</ele>
<time>2010-06-20T14:22:00Z</time>
<desc>lat.=55.899937, lon.=26.529139, Alt.=101.647522m. Speed=17.712000m/h.</desc>
<speed>4.920000</speed>
</trkpt>
<trkpt lat="55.899967" lon="26.529081">
<ele>101.483459</ele>
<time>2010-06-20T14:22:01Z</time>
<desc>lat.=55.899967, lon.=26.529081, Alt.=101.483459m. Speed=17.676001m/h.</desc>
<speed>4.910000</speed>
</trkpt>
<trkpt lat="55.899994" lon="26.529022">
<ele>101.774475</ele>
<time>2010-06-20T14:22:02Z</time>
<desc>lat.=55.899994, lon.=26.529022, Alt.=101.774475m. Speed=17.568001m/h.</desc>
<speed>4.880000</speed>
</trkpt>
<trkpt lat="55.900028" lon="26.528969">
<ele>102.030334</ele>
<time>2010-06-20T14:22:03Z</time>
<desc>lat.=55.900028, lon.=26.528969, Alt.=102.030334m. Speed=16.920000m/h.</desc>
<speed>4.700000</speed>
</trkpt>
<trkpt lat="55.900059" lon="26.528913">
<ele>101.838928</ele>
<time>2010-06-20T14:22:04Z</time>
<desc>lat.=55.900059, lon.=26.528913, Alt.=101.838928m. Speed=15.624000m/h.</desc>
<speed>4.340000</speed>
</trkpt>
<trkpt lat="55.900074" lon="26.528858">
<ele>102.151428</ele>
<time>2010-06-20T14:22:05Z</time>
<desc>lat.=55.900074, lon.=26.528858, Alt.=102.151428m. Speed=9.684000m/h.</desc>
<speed>2.690000</speed>
</trkpt>
<trkpt lat="55.900082" lon="26.528814">
<ele>103.749084</ele>
<time>2010-06-20T14:22:06Z</time>
<desc>lat.=55.900082, lon.=26.528814, Alt.=103.749084m. Speed=4.932000m/h.</desc>
<speed>1.370000</speed>
</trkpt>
<trkpt lat="55.900101" lon="26.528822">
<ele>104.213928</ele>
<time>2010-06-20T14:22:07Z</time>
<desc>lat.=55.900101, lon.=26.528822, Alt.=104.213928m. Speed=3.168000m/h.</desc>
<speed>0.880000</speed>
</trkpt>
<trkpt lat="55.900116" lon="26.528809">
<ele>104.083069</ele>
<time>2010-06-20T14:22:08Z</time>
<desc>lat.=55.900116, lon.=26.528809, Alt.=104.083069m. Speed=11.412000m/h.</desc>
<speed>3.170000</speed>
</trkpt>
<trkpt lat="55.900139" lon="26.528772">
<ele>104.083069</ele>
<time>2010-06-20T14:22:09Z</time>
<desc>lat.=55.900139, lon.=26.528772, Alt.=104.083069m. Speed=11.880000m/h.</desc>
<speed>3.300000</speed>
</trkpt>
<trkpt lat="55.900154" lon="26.528732">
<ele>103.883850</ele>
<time>2010-06-20T14:22:10Z</time>
<desc>lat.=55.900154, lon.=26.528732, Alt.=103.883850m. Speed=10.908000m/h.</desc>
<speed>3.030000</speed>
</trkpt>
<trkpt lat="55.900166" lon="26.528690">
<ele>103.926819</ele>
<time>2010-06-20T14:22:11Z</time>
<desc>lat.=55.900166, lon.=26.528690, Alt.=103.926819m. Speed=11.556000m/h.</desc>
<speed>3.210000</speed>
</trkpt>
<trkpt lat="55.900181" lon="26.528666">
<ele>104.803772</ele>
<time>2010-06-20T14:22:12Z</time>
<desc>lat.=55.900181, lon.=26.528666, Alt.=104.803772m. Speed=9.540000m/h.</desc>
<speed>2.650000</speed>
</trkpt>
<trkpt lat="55.900188" lon="26.528662">
<ele>105.518616</ele>
<time>2010-06-20T14:22:13Z</time>
<desc>lat.=55.900188, lon.=26.528662, Alt.=105.518616m. Speed=5.328000m/h.</desc>
<speed>1.480000</speed>
</trkpt>
<trkpt lat="55.900188" lon="26.528654">
<ele>105.991272</ele>
<time>2010-06-20T14:22:14Z</time>
<desc>lat.=55.900188, lon.=26.528654, Alt.=105.991272m. Speed=3.348000m/h.</desc>
<speed>0.930000</speed>
</trkpt>
<trkpt lat="55.900188" lon="26.528650">
<ele>106.389709</ele>
<time>2010-06-20T14:22:15Z</time>
<desc>lat.=55.900188, lon.=26.528650, Alt.=106.389709m. Speed=0.180000m/h.</desc>
<speed>0.050000</speed>
</trkpt>
<trkpt lat="55.900185" lon="26.528652">
<ele>106.313538</ele>
<time>2010-06-20T14:22:16Z</time>
<desc>lat.=55.900185, lon.=26.528652, Alt.=106.313538m. Speed=0.504000m/h.</desc>
<speed>0.140000</speed>
</trkpt>
<trkpt lat="55.900181" lon="26.528635">
<ele>106.626038</ele>
<time>2010-06-20T14:22:17Z</time>
<desc>lat.=55.900181, lon.=26.528635, Alt.=106.626038m. Speed=0.468000m/h.</desc>
<speed>0.130000</speed>
</trkpt>
<trkpt lat="55.900181" lon="26.528637">
<ele>106.737366</ele>
<time>2010-06-20T14:22:18Z</time>
<desc>lat.=55.900181, lon.=26.528637, Alt.=106.737366m. Speed=0.468000m/h.</desc>
<speed>0.130000</speed>
</trkpt>
<trkpt lat="55.900181" lon="26.528635">
<ele>106.823303</ele>
<time>2010-06-20T14:22:19Z</time>
<desc>lat.=55.900181, lon.=26.528635, Alt.=106.823303m. Speed=1.548000m/h.</desc>
<speed>0.430000</speed>
</trkpt>
<trkpt lat="55.900185" lon="26.528631">
<ele>106.901428</ele>
<time>2010-06-20T14:22:20Z</time>
<desc>lat.=55.900185, lon.=26.528631, Alt.=106.901428m. Speed=0.972000m/h.</desc>
<speed>0.270000</speed>
</trkpt>
<trkpt lat="55.900185" lon="26.528629">
<ele>106.983459</ele>
<time>2010-06-20T14:22:21Z</time>
<desc>lat.=55.900185, lon.=26.528629, Alt.=106.983459m. Speed=1.872000m/h.</desc>
<speed>0.520000</speed>
</trkpt>
<trkpt lat="55.900188" lon="26.528624">
<ele>107.067444</ele>
<time>2010-06-20T14:22:22Z</time>
<desc>lat.=55.900188, lon.=26.528624, Alt.=107.067444m. Speed=1.584000m/h.</desc>
<speed>0.440000</speed>
</trkpt>
<trkpt lat="55.900192" lon="26.528618">
<ele>107.153381</ele>
<time>2010-06-20T14:22:23Z</time>
<desc>lat.=55.900192, lon.=26.528618, Alt.=107.153381m. Speed=0.684000m/h.</desc>
<speed>0.190000</speed>
</trkpt>
<trkpt lat="55.900192" lon="26.528616">
<ele>107.231506</ele>
<time>2010-06-20T14:22:24Z</time>
<desc>lat.=55.900192, lon.=26.528616, Alt.=107.231506m. Speed=0.324000m/h.</desc>
<speed>0.090000</speed>
</trkpt>
<trkpt lat="55.900192" lon="26.528614">
<ele>107.305725</ele>
<time>2010-06-20T14:22:25Z</time>
<desc>lat.=55.900192, lon.=26.528614, Alt.=107.305725m. Speed=0.252000m/h.</desc>
<speed>0.070000</speed>
</trkpt>
<trkpt lat="55.900192" lon="26.528612">
<ele>107.362366</ele>
<time>2010-06-20T14:22:26Z</time>
<desc>lat.=55.900192, lon.=26.528612, Alt.=107.362366m. Speed=0.504000m/h.</desc>
<speed>0.140000</speed>
</trkpt>
<trkpt lat="55.900192" lon="26.528612">
<ele>107.409241</ele>
<time>2010-06-20T14:22:27Z</time>
<desc>lat.=55.900192, lon.=26.528612, Alt.=107.409241m. Speed=0.432000m/h.</desc>
<speed>0.120000</speed>
</trkpt>
<trkpt lat="55.900196" lon="26.528610">
<ele>107.450256</ele>
<time>2010-06-20T14:22:28Z</time>
<desc>lat.=55.900196, lon.=26.528610, Alt.=107.450256m. Speed=0.504000m/h.</desc>
<speed>0.140000</speed>
</trkpt>
<trkpt lat="55.900196" lon="26.528608">
<ele>107.491272</ele>
<time>2010-06-20T14:22:29Z</time>
<desc>lat.=55.900196, lon.=26.528608, Alt.=107.491272m. Speed=0.504000m/h.</desc>
<speed>0.140000</speed>
</trkpt>
<trkpt lat="55.900196" lon="26.528606">
<ele>107.516663</ele>
<time>2010-06-20T14:22:30Z</time>
<desc>lat.=55.900196, lon.=26.528606, Alt.=107.516663m. Speed=0.576000m/h.</desc>
<speed>0.160000</speed>
</trkpt>
<trkpt lat="55.900196" lon="26.528605">
<ele>107.538147</ele>
<time>2010-06-20T14:22:31Z</time>
<desc>lat.=55.900196, lon.=26.528605, Alt.=107.538147m. Speed=0.936000m/h.</desc>
<speed>0.260000</speed>
</trkpt>
<trkpt lat="55.900196" lon="26.528601">
<ele>107.555725</ele>
<time>2010-06-20T14:22:32Z</time>
<desc>lat.=55.900196, lon.=26.528601, Alt.=107.555725m. Speed=0.972000m/h.</desc>
<speed>0.270000</speed>
</trkpt>
<trkpt lat="55.900196" lon="26.528595">
<ele>107.571350</ele>
<time>2010-06-20T14:22:33Z</time>
<desc>lat.=55.900196, lon.=26.528595, Alt.=107.571350m. Speed=1.296000m/h.</desc>
<speed>0.360000</speed>
</trkpt>
<trkpt lat="55.900200" lon="26.528589">
<ele>107.583069</ele>
<time>2010-06-20T14:22:34Z</time>
<desc>lat.=55.900200, lon.=26.528589, Alt.=107.583069m. Speed=1.116000m/h.</desc>
<speed>0.310000</speed>
</trkpt>
<trkpt lat="55.900200" lon="26.528585">
<ele>107.594788</ele>
<time>2010-06-20T14:22:35Z</time>
<desc>lat.=55.900200, lon.=26.528585, Alt.=107.594788m. Speed=0.900000m/h.</desc>
<speed>0.250000</speed>
</trkpt>
<trkpt lat="55.900200" lon="26.528582">
<ele>107.606506</ele>
<time>2010-06-20T14:22:36Z</time>
<desc>lat.=55.900200, lon.=26.528582, Alt.=107.606506m. Speed=0.648000m/h.</desc>
<speed>0.180000</speed>
</trkpt>
<trkpt lat="55.900200" lon="26.528578">
<ele>107.616272</ele>
<time>2010-06-20T14:22:37Z</time>
<desc>lat.=55.900200, lon.=26.528578, Alt.=107.616272m. Speed=0.648000m/h.</desc>
<speed>0.180000</speed>
</trkpt>
<trkpt lat="55.900196" lon="26.528576">
<ele>107.624084</ele>
<time>2010-06-20T14:22:38Z</time>
<desc>lat.=55.900196, lon.=26.528576, Alt.=107.624084m. Speed=0.648000m/h.</desc>
<speed>0.180000</speed>
</trkpt>
<trkpt lat="55.900196" lon="26.528574">
<ele>107.629944</ele>
<time>2010-06-20T14:22:39Z</time>
<desc>lat.=55.900196, lon.=26.528574, Alt.=107.629944m. Speed=0.720000m/h.</desc>
<speed>0.200000</speed>
</trkpt>
<trkpt lat="55.900196" lon="26.528572">
<ele>107.633850</ele>
<time>2010-06-20T14:22:40Z</time>
<desc>lat.=55.900196, lon.=26.528572, Alt.=107.633850m. Speed=0.540000m/h.</desc>
<speed>0.150000</speed>
</trkpt>
<trkpt lat="55.900192" lon="26.528572">
<ele>107.637756</ele>
<time>2010-06-20T14:22:41Z</time>
<desc>lat.=55.900192, lon.=26.528572, Alt.=107.637756m. Speed=0.540000m/h.</desc>
<speed>0.150000</speed>
</trkpt>
<trkpt lat="55.900192" lon="26.528574">
<ele>107.639709</ele>
<time>2010-06-20T14:22:42Z</time>
<desc>lat.=55.900192, lon.=26.528574, Alt.=107.639709m. Speed=0.972000m/h.</desc>
<speed>0.270000</speed>
</trkpt>
<trkpt lat="55.900196" lon="26.528576">
<ele>107.639709</ele>
<time>2010-06-20T14:22:43Z</time>
<desc>lat.=55.900196, lon.=26.528576, Alt.=107.639709m. Speed=1.368000m/h.</desc>
<speed>0.380000</speed>
</trkpt>
<trkpt lat="55.900200" lon="26.528580">
<ele>107.635803</ele>
<time>2010-06-20T14:22:44Z</time>
<desc>lat.=55.900200, lon.=26.528580, Alt.=107.635803m. Speed=2.016000m/h.</desc>
<speed>0.560000</speed>
</trkpt>
<trkpt lat="55.900204" lon="26.528585">
<ele>107.633850</ele>
<time>2010-06-20T14:22:45Z</time>
<desc>lat.=55.900204, lon.=26.528585, Alt.=107.633850m. Speed=2.052000m/h.</desc>
<speed>0.570000</speed>
</trkpt>
<trkpt lat="55.900208" lon="26.528593">
<ele>107.629944</ele>
<time>2010-06-20T14:22:46Z</time>
<desc>lat.=55.900208, lon.=26.528593, Alt.=107.629944m. Speed=2.160000m/h.</desc>
<speed>0.600000</speed>
</trkpt>
<trkpt lat="55.900211" lon="26.528601">
<ele>107.627991</ele>
<time>2010-06-20T14:22:47Z</time>
<desc>lat.=55.900211, lon.=26.528601, Alt.=107.627991m. Speed=2.124000m/h.</desc>
<speed>0.590000</speed>
</trkpt>
<trkpt lat="55.900215" lon="26.528606">
<ele>107.626038</ele>
<time>2010-06-20T14:22:48Z</time>
<desc>lat.=55.900215, lon.=26.528606, Alt.=107.626038m. Speed=2.088000m/h.</desc>
<speed>0.580000</speed>
</trkpt>
<trkpt lat="55.900219" lon="26.528614">
<ele>107.622131</ele>
<time>2010-06-20T14:22:49Z</time>
<desc>lat.=55.900219, lon.=26.528614, Alt.=107.622131m. Speed=1.656000m/h.</desc>
<speed>0.460000</speed>
</trkpt>
<trkpt lat="55.900223" lon="26.528618">
<ele>107.620178</ele>
<time>2010-06-20T14:22:50Z</time>
<desc>lat.=55.900223, lon.=26.528618, Alt.=107.620178m. Speed=1.548000m/h.</desc>
<speed>0.430000</speed>
</trkpt>
<trkpt lat="55.900227" lon="26.528620">
<ele>107.618225</ele>
<time>2010-06-20T14:22:51Z</time>
<desc>lat.=55.900227, lon.=26.528620, Alt.=107.618225m. Speed=1.620000m/h.</desc>
<speed>0.450000</speed>
</trkpt>
<trkpt lat="55.900230" lon="26.528624">
<ele>107.616272</ele>
<time>2010-06-20T14:22:52Z</time>
<desc>lat.=55.900230, lon.=26.528624, Alt.=107.616272m. Speed=1.656000m/h.</desc>
<speed>0.460000</speed>
</trkpt>
<trkpt lat="55.900234" lon="26.528627">
<ele>107.614319</ele>
<time>2010-06-20T14:22:53Z</time>
<desc>lat.=55.900234, lon.=26.528627, Alt.=107.614319m. Speed=1.764000m/h.</desc>
<speed>0.490000</speed>
</trkpt>
<trkpt lat="55.900238" lon="26.528631">
<ele>107.612366</ele>
<time>2010-06-20T14:22:54Z</time>
<desc>lat.=55.900238, lon.=26.528631, Alt.=107.612366m. Speed=2.412000m/h.</desc>
<speed>0.670000</speed>
</trkpt>
<trkpt lat="55.900242" lon="26.528635">
<ele>107.608459</ele>
<time>2010-06-20T14:22:55Z</time>
<desc>lat.=55.900242, lon.=26.528635, Alt.=107.608459m. Speed=2.952000m/h.</desc>
<speed>0.820000</speed>
</trkpt>
<trkpt lat="55.900249" lon="26.528645">
<ele>107.606506</ele>
<time>2010-06-20T14:22:56Z</time>
<desc>lat.=55.900249, lon.=26.528645, Alt.=107.606506m. Speed=3.456000m/h.</desc>
<speed>0.960000</speed>
</trkpt>
<trkpt lat="55.900253" lon="26.528656">
<ele>107.606506</ele>
<time>2010-06-20T14:22:57Z</time>
<desc>lat.=55.900253, lon.=26.528656, Alt.=107.606506m. Speed=3.492000m/h.</desc>
<speed>0.970000</speed>
</trkpt>
<trkpt lat="55.900261" lon="26.528669">
<ele>107.606506</ele>
<time>2010-06-20T14:22:58Z</time>
<desc>lat.=55.900261, lon.=26.528669, Alt.=107.606506m. Speed=3.636000m/h.</desc>
<speed>1.010000</speed>
</trkpt>
<trkpt lat="55.900330" lon="26.528700">
<ele>107.442444</ele>
<time>2010-06-20T14:22:59Z</time>
<desc>lat.=55.900330, lon.=26.528700, Alt.=107.442444m. Speed=4.212000m/h.</desc>
<speed>1.170000</speed>
</trkpt>
<trkpt lat="55.900383" lon="26.528698">
<ele>107.389709</ele>
<time>2010-06-20T14:23:00Z</time>
<desc>lat.=55.900383, lon.=26.528698, Alt.=107.389709m. Speed=4.320000m/h.</desc>
<speed>1.200000</speed>
</trkpt>
<trkpt lat="55.900356" lon="26.528809">
<ele>107.124084</ele>
<time>2010-06-20T14:23:01Z</time>
<desc>lat.=55.900356, lon.=26.528809, Alt.=107.124084m. Speed=3.672000m/h.</desc>
<speed>1.020000</speed>
</trkpt>
<trkpt lat="55.900387" lon="26.528814">
<ele>107.077209</ele>
<time>2010-06-20T14:23:02Z</time>
<desc>lat.=55.900387, lon.=26.528814, Alt.=107.077209m. Speed=3.600000m/h.</desc>
<speed>1.000000</speed>
</trkpt>
<trkpt lat="55.900394" lon="26.528826">
<ele>107.069397</ele>
<time>2010-06-20T14:23:03Z</time>
<desc>lat.=55.900394, lon.=26.528826, Alt.=107.069397m. Speed=3.636000m/h.</desc>
<speed>1.010000</speed>
</trkpt>
<trkpt lat="55.900402" lon="26.528837">
<ele>107.059631</ele>
<time>2010-06-20T14:23:04Z</time>
<desc>lat.=55.900402, lon.=26.528837, Alt.=107.059631m. Speed=3.708000m/h.</desc>
<speed>1.030000</speed>
</trkpt>
<trkpt lat="55.900410" lon="26.528851">
<ele>107.055725</ele>
<time>2010-06-20T14:23:05Z</time>
<desc>lat.=55.900410, lon.=26.528851, Alt.=107.055725m. Speed=3.636000m/h.</desc>
<speed>1.010000</speed>
</trkpt>
<trkpt lat="55.900414" lon="26.528860">
<ele>107.055725</ele>
<time>2010-06-20T14:23:06Z</time>
<desc>lat.=55.900414, lon.=26.528860, Alt.=107.055725m. Speed=3.492000m/h.</desc>
<speed>0.970000</speed>
</trkpt>
<trkpt lat="55.900421" lon="26.528868">
<ele>107.051819</ele>
<time>2010-06-20T14:23:07Z</time>
<desc>lat.=55.900421, lon.=26.528868, Alt.=107.051819m. Speed=3.456000m/h.</desc>
<speed>0.960000</speed>
</trkpt>
<trkpt lat="55.900414" lon="26.528891">
<ele>106.999084</ele>
<time>2010-06-20T14:23:08Z</time>
<desc>lat.=55.900414, lon.=26.528891, Alt.=106.999084m. Speed=2.304000m/h.</desc>
<speed>0.640000</speed>
</trkpt>
<trkpt lat="55.900414" lon="26.528896">
<ele>106.991272</ele>
<time>2010-06-20T14:23:09Z</time>
<desc>lat.=55.900414, lon.=26.528896, Alt.=106.991272m. Speed=1.944000m/h.</desc>
<speed>0.540000</speed>
</trkpt>
<trkpt lat="55.900414" lon="26.528908">
<ele>106.985413</ele>
<time>2010-06-20T14:23:10Z</time>
<desc>lat.=55.900414, lon.=26.528908, Alt.=106.985413m. Speed=2.016000m/h.</desc>
<speed>0.560000</speed>
</trkpt>
<trkpt lat="55.900414" lon="26.528925">
<ele>106.973694</ele>
<time>2010-06-20T14:23:11Z</time>
<desc>lat.=55.900414, lon.=26.528925, Alt.=106.973694m. Speed=1.908000m/h.</desc>
<speed>0.530000</speed>
</trkpt>
<trkpt lat="55.900383" lon="26.528969">
<ele>106.934631</ele>
<time>2010-06-20T14:23:12Z</time>
<desc>lat.=55.900383, lon.=26.528969, Alt.=106.934631m. Speed=1.728000m/h.</desc>
<speed>0.480000</speed>
</trkpt>
<trkpt lat="55.900352" lon="26.529013">
<ele>106.874084</ele>
<time>2010-06-20T14:23:13Z</time>
<desc>lat.=55.900352, lon.=26.529013, Alt.=106.874084m. Speed=1.440000m/h.</desc>
<speed>0.400000</speed>
</trkpt>
<trkpt lat="55.900345" lon="26.529020">
<ele>106.874084</ele>
<time>2010-06-20T14:23:14Z</time>
<desc>lat.=55.900345, lon.=26.529020, Alt.=106.874084m. Speed=1.332000m/h.</desc>
<speed>0.370000</speed>
</trkpt>
<trkpt lat="55.900349" lon="26.529036">
<ele>106.877991</ele>
<time>2010-06-20T14:23:15Z</time>
<desc>lat.=55.900349, lon.=26.529036, Alt.=106.877991m. Speed=1.548000m/h.</desc>
<speed>0.430000</speed>
</trkpt>
<trkpt lat="55.900352" lon="26.529047">
<ele>106.876038</ele>
<time>2010-06-20T14:23:16Z</time>
<desc>lat.=55.900352, lon.=26.529047, Alt.=106.876038m. Speed=1.692000m/h.</desc>
<speed>0.470000</speed>
</trkpt>
<trkpt lat="55.900352" lon="26.529051">
<ele>106.870178</ele>
<time>2010-06-20T14:23:17Z</time>
<desc>lat.=55.900352, lon.=26.529051, Alt.=106.870178m. Speed=1.404000m/h.</desc>
<speed>0.390000</speed>
</trkpt>
<trkpt lat="55.900356" lon="26.529043">
<ele>106.858459</ele>
<time>2010-06-20T14:23:18Z</time>
<desc>lat.=55.900356, lon.=26.529043, Alt.=106.858459m. Speed=0.900000m/h.</desc>
<speed>0.250000</speed>
</trkpt>
<trkpt lat="55.900360" lon="26.529047">
<ele>106.856506</ele>
<time>2010-06-20T14:23:19Z</time>
<desc>lat.=55.900360, lon.=26.529047, Alt.=106.856506m. Speed=0.936000m/h.</desc>
<speed>0.260000</speed>
</trkpt>
<trkpt lat="55.900360" lon="26.529053">
<ele>106.846741</ele>
<time>2010-06-20T14:23:20Z</time>
<desc>lat.=55.900360, lon.=26.529053, Alt.=106.846741m. Speed=1.008000m/h.</desc>
<speed>0.280000</speed>
</trkpt>
<trkpt lat="55.900364" lon="26.529045">
<ele>106.870178</ele>
<time>2010-06-20T14:23:21Z</time>
<desc>lat.=55.900364, lon.=26.529045, Alt.=106.870178m. Speed=1.152000m/h.</desc>
<speed>0.320000</speed>
</trkpt>
<trkpt lat="55.900368" lon="26.529043">
<ele>106.864319</ele>
<time>2010-06-20T14:23:22Z</time>
<desc>lat.=55.900368, lon.=26.529043, Alt.=106.864319m. Speed=0.936000m/h.</desc>
<speed>0.260000</speed>
</trkpt>
<trkpt lat="55.900368" lon="26.529043">
<ele>106.862366</ele>
<time>2010-06-20T14:23:23Z</time>
<desc>lat.=55.900368, lon.=26.529043, Alt.=106.862366m. Speed=0.900000m/h.</desc>
<speed>0.250000</speed>
</trkpt>
<trkpt lat="55.900368" lon="26.529049">
<ele>106.864319</ele>
<time>2010-06-20T14:23:24Z</time>
<desc>lat.=55.900368, lon.=26.529049, Alt.=106.864319m. Speed=0.792000m/h.</desc>
<speed>0.220000</speed>
</trkpt>
<trkpt lat="55.900360" lon="26.529064">
<ele>106.456116</ele>
<time>2010-06-20T14:23:25Z</time>
<desc>lat.=55.900360, lon.=26.529064, Alt.=106.456116m. Speed=0.540000m/h.</desc>
<speed>0.150000</speed>
</trkpt>
<trkpt lat="55.900360" lon="26.529066">
<ele>106.454163</ele>
<time>2010-06-20T14:23:26Z</time>
<desc>lat.=55.900360, lon.=26.529066, Alt.=106.454163m. Speed=0.648000m/h.</desc>
<speed>0.180000</speed>
</trkpt>
<trkpt lat="55.900360" lon="26.529066">
<ele>106.454163</ele>
<time>2010-06-20T14:23:27Z</time>
<desc>lat.=55.900360, lon.=26.529066, Alt.=106.454163m. Speed=0.432000m/h.</desc>
<speed>0.120000</speed>
</trkpt>
<trkpt lat="55.900360" lon="26.529064">
<ele>106.452209</ele>
<time>2010-06-20T14:23:28Z</time>
<desc>lat.=55.900360, lon.=26.529064, Alt.=106.452209m. Speed=2.592000m/h.</desc>
<speed>0.720000</speed>
</trkpt>
<trkpt lat="55.900352" lon="26.529055">
<ele>106.446350</ele>
<time>2010-06-20T14:23:29Z</time>
<desc>lat.=55.900352, lon.=26.529055, Alt.=106.446350m. Speed=2.592000m/h.</desc>
<speed>0.720000</speed>
</trkpt>
<trkpt lat="55.900345" lon="26.529045">
<ele>106.444397</ele>
<time>2010-06-20T14:23:30Z</time>
<desc>lat.=55.900345, lon.=26.529045, Alt.=106.444397m. Speed=2.736000m/h.</desc>
<speed>0.760000</speed>
</trkpt>
<trkpt lat="55.900337" lon="26.529026">
<ele>106.446350</ele>
<time>2010-06-20T14:23:31Z</time>
<desc>lat.=55.900337, lon.=26.529026, Alt.=106.446350m. Speed=2.988000m/h.</desc>
<speed>0.830000</speed>
</trkpt>
<trkpt lat="55.900333" lon="26.529015">
<ele>106.450256</ele>
<time>2010-06-20T14:23:32Z</time>
<desc>lat.=55.900333, lon.=26.529015, Alt.=106.450256m. Speed=2.880000m/h.</desc>
<speed>0.800000</speed>
</trkpt>
<trkpt lat="55.900326" lon="26.529005">
<ele>106.450256</ele>
<time>2010-06-20T14:23:33Z</time>
<desc>lat.=55.900326, lon.=26.529005, Alt.=106.450256m. Speed=2.448000m/h.</desc>
<speed>0.680000</speed>
</trkpt>
<trkpt lat="55.900322" lon="26.528999">
<ele>106.450256</ele>
<time>2010-06-20T14:23:34Z</time>
<desc>lat.=55.900322, lon.=26.528999, Alt.=106.450256m. Speed=2.052000m/h.</desc>
<speed>0.570000</speed>
</trkpt>
<trkpt lat="55.900333" lon="26.529003">
<ele>106.483459</ele>
<time>2010-06-20T14:23:35Z</time>
<desc>lat.=55.900333, lon.=26.529003, Alt.=106.483459m. Speed=1.548000m/h.</desc>
<speed>0.430000</speed>
</trkpt>
<trkpt lat="55.900330" lon="26.529003">
<ele>106.504944</ele>
<time>2010-06-20T14:23:36Z</time>
<desc>lat.=55.900330, lon.=26.529003, Alt.=106.504944m. Speed=1.476000m/h.</desc>
<speed>0.410000</speed>
</trkpt>
<trkpt lat="55.900326" lon="26.528992">
<ele>106.510803</ele>
<time>2010-06-20T14:23:37Z</time>
<desc>lat.=55.900326, lon.=26.528992, Alt.=106.510803m. Speed=1.260000m/h.</desc>
<speed>0.350000</speed>
</trkpt>
<trkpt lat="55.900307" lon="26.528978">
<ele>106.495178</ele>
<time>2010-06-20T14:23:38Z</time>
<desc>lat.=55.900307, lon.=26.528978, Alt.=106.495178m. Speed=1.476000m/h.</desc>
<speed>0.410000</speed>
</trkpt>
<trkpt lat="55.900303" lon="26.528976">
<ele>106.510803</ele>
<time>2010-06-20T14:23:39Z</time>
<desc>lat.=55.900303, lon.=26.528976, Alt.=106.510803m. Speed=1.044000m/h.</desc>
<speed>0.290000</speed>
</trkpt>
<trkpt lat="55.900303" lon="26.528976">
<ele>106.518616</ele>
<time>2010-06-20T14:23:40Z</time>
<desc>lat.=55.900303, lon.=26.528976, Alt.=106.518616m. Speed=1.008000m/h.</desc>
<speed>0.280000</speed>
</trkpt>
<trkpt lat="55.900299" lon="26.528971">
<ele>106.532288</ele>
<time>2010-06-20T14:23:41Z</time>
<desc>lat.=55.900299, lon.=26.528971, Alt.=106.532288m. Speed=1.152000m/h.</desc>
<speed>0.320000</speed>
</trkpt>
<trkpt lat="55.900303" lon="26.528980">
<ele>106.579163</ele>
<time>2010-06-20T14:23:42Z</time>
<desc>lat.=55.900303, lon.=26.528980, Alt.=106.579163m. Speed=0.972000m/h.</desc>
<speed>0.270000</speed>
</trkpt>
<trkpt lat="55.900299" lon="26.528988">
<ele>106.606506</ele>
<time>2010-06-20T14:23:43Z</time>
<desc>lat.=55.900299, lon.=26.528988, Alt.=106.606506m. Speed=0.684000m/h.</desc>
<speed>0.190000</speed>
</trkpt>
<trkpt lat="55.900299" lon="26.528997">
<ele>106.651428</ele>
<time>2010-06-20T14:23:44Z</time>
<desc>lat.=55.900299, lon.=26.528997, Alt.=106.651428m. Speed=0.612000m/h.</desc>
<speed>0.170000</speed>
</trkpt>
<trkpt lat="55.900295" lon="26.529005">
<ele>106.690491</ele>
<time>2010-06-20T14:23:45Z</time>
<desc>lat.=55.900295, lon.=26.529005, Alt.=106.690491m. Speed=0.252000m/h.</desc>
<speed>0.070000</speed>
</trkpt>
<trkpt lat="55.900295" lon="26.529005">
<ele>106.690491</ele>
<time>2010-06-20T14:23:46Z</time>
<desc>lat.=55.900295, lon.=26.529005, Alt.=106.690491m. Speed=0.252000m/h.</desc>
<speed>0.070000</speed>
</trkpt>
<trkpt lat="55.900295" lon="26.529007">
<ele>106.688538</ele>
<time>2010-06-20T14:23:47Z</time>
<desc>lat.=55.900295, lon.=26.529007, Alt.=106.688538m. Speed=0.360000m/h.</desc>
<speed>0.100000</speed>
</trkpt>
<trkpt lat="55.900295" lon="26.529007">
<ele>106.688538</ele>
<time>2010-06-20T14:23:48Z</time>
<desc>lat.=55.900295, lon.=26.529007, Alt.=106.688538m. Speed=0.432000m/h.</desc>
<speed>0.120000</speed>
</trkpt>
<trkpt lat="55.900291" lon="26.529005">
<ele>106.688538</ele>
<time>2010-06-20T14:23:49Z</time>
<desc>lat.=55.900291, lon.=26.529005, Alt.=106.688538m. Speed=0.288000m/h.</desc>
<speed>0.080000</speed>
</trkpt>
<trkpt lat="55.900291" lon="26.529005">
<ele>106.688538</ele>
<time>2010-06-20T14:23:50Z</time>
<desc>lat.=55.900291, lon.=26.529005, Alt.=106.688538m. Speed=0.540000m/h.</desc>
<speed>0.150000</speed>
</trkpt>
<trkpt lat="55.900291" lon="26.529005">
<ele>106.688538</ele>
<time>2010-06-20T14:23:51Z</time>
<desc>lat.=55.900291, lon.=26.529005, Alt.=106.688538m. Speed=0.468000m/h.</desc>
<speed>0.130000</speed>
</trkpt>
<trkpt lat="55.900291" lon="26.529005">
<ele>106.688538</ele>
<time>2010-06-20T14:23:52Z</time>
<desc>lat.=55.900291, lon.=26.529005, Alt.=106.688538m. Speed=0.504000m/h.</desc>
<speed>0.140000</speed>
</trkpt>
<trkpt lat="55.900288" lon="26.529003">
<ele>106.690491</ele>
<time>2010-06-20T14:23:53Z</time>
<desc>lat.=55.900288, lon.=26.529003, Alt.=106.690491m. Speed=0.072000m/h.</desc>
<speed>0.020000</speed>
</trkpt>
<trkpt lat="55.900288" lon="26.529003">
<ele>106.688538</ele>
<time>2010-06-20T14:23:54Z</time>
<desc>lat.=55.900288, lon.=26.529003, Alt.=106.688538m. Speed=0.288000m/h.</desc>
<speed>0.080000</speed>
</trkpt>
<trkpt lat="55.900291" lon="26.529005">
<ele>106.686584</ele>
<time>2010-06-20T14:23:55Z</time>
<desc>lat.=55.900291, lon.=26.529005, Alt.=106.686584m. Speed=0.468000m/h.</desc>
<speed>0.130000</speed>
</trkpt>
<trkpt lat="55.900291" lon="26.529005">
<ele>106.686584</ele>
<time>2010-06-20T14:23:56Z</time>
<desc>lat.=55.900291, lon.=26.529005, Alt.=106.686584m. Speed=0.396000m/h.</desc>
<speed>0.110000</speed>
</trkpt>
<trkpt lat="55.900291" lon="26.529005">
<ele>106.686584</ele>
<time>2010-06-20T14:23:57Z</time>
<desc>lat.=55.900291, lon.=26.529005, Alt.=106.686584m. Speed=0.324000m/h.</desc>
<speed>0.090000</speed>
</trkpt>
<trkpt lat="55.900291" lon="26.529005">
<ele>106.688538</ele>
<time>2010-06-20T14:23:58Z</time>
<desc>lat.=55.900291, lon.=26.529005, Alt.=106.688538m. Speed=0.648000m/h.</desc>
<speed>0.180000</speed>
</trkpt>
<trkpt lat="55.900295" lon="26.529007">
<ele>106.690491</ele>
<time>2010-06-20T14:23:59Z</time>
<desc>lat.=55.900295, lon.=26.529007, Alt.=106.690491m. Speed=0.720000m/h.</desc>
<speed>0.200000</speed>
</trkpt>
<trkpt lat="55.900295" lon="26.529007">
<ele>106.692444</ele>
<time>2010-06-20T14:24:00Z</time>
<desc>lat.=55.900295, lon.=26.529007, Alt.=106.692444m. Speed=0.468000m/h.</desc>
<speed>0.130000</speed>
</trkpt>
<trkpt lat="55.900295" lon="26.529009">
<ele>106.692444</ele>
<time>2010-06-20T14:24:01Z</time>
<desc>lat.=55.900295, lon.=26.529009, Alt.=106.692444m. Speed=0.396000m/h.</desc>
<speed>0.110000</speed>
</trkpt>
<trkpt lat="55.900295" lon="26.529011">
<ele>106.694397</ele>
<time>2010-06-20T14:24:02Z</time>
<desc>lat.=55.900295, lon.=26.529011, Alt.=106.694397m. Speed=0.576000m/h.</desc>
<speed>0.160000</speed>
</trkpt>
<trkpt lat="55.900295" lon="26.529013">
<ele>106.696350</ele>
<time>2010-06-20T14:24:03Z</time>
<desc>lat.=55.900295, lon.=26.529013, Alt.=106.696350m. Speed=0.720000m/h.</desc>
<speed>0.200000</speed>
</trkpt>
<trkpt lat="55.900295" lon="26.529013">
<ele>106.696350</ele>
<time>2010-06-20T14:24:04Z</time>
<desc>lat.=55.900295, lon.=26.529013, Alt.=106.696350m. Speed=0.360000m/h.</desc>
<speed>0.100000</speed>
</trkpt>
<trkpt lat="55.900291" lon="26.529013">
<ele>106.698303</ele>
<time>2010-06-20T14:24:05Z</time>
<desc>lat.=55.900291, lon.=26.529013, Alt.=106.698303m. Speed=0.216000m/h.</desc>
<speed>0.060000</speed>
</trkpt>
<trkpt lat="55.900291" lon="26.529013">
<ele>106.700256</ele>
<time>2010-06-20T14:24:06Z</time>
<desc>lat.=55.900291, lon.=26.529013, Alt.=106.700256m. Speed=0.396000m/h.</desc>
<speed>0.110000</speed>
</trkpt>
<trkpt lat="55.900291" lon="26.529015">
<ele>106.702209</ele>
<time>2010-06-20T14:24:07Z</time>
<desc>lat.=55.900291, lon.=26.529015, Alt.=106.702209m. Speed=0.180000m/h.</desc>
<speed>0.050000</speed>
</trkpt>
<trkpt lat="55.900291" lon="26.529015">
<ele>106.702209</ele>
<time>2010-06-20T14:24:08Z</time>
<desc>lat.=55.900291, lon.=26.529015, Alt.=106.702209m. Speed=0.324000m/h.</desc>
<speed>0.090000</speed>
</trkpt>
<trkpt lat="55.900291" lon="26.529015">
<ele>106.704163</ele>
<time>2010-06-20T14:24:09Z</time>
<desc>lat.=55.900291, lon.=26.529015, Alt.=106.704163m. Speed=0.360000m/h.</desc>
<speed>0.100000</speed>
</trkpt>
<trkpt lat="55.900291" lon="26.529013">
<ele>106.704163</ele>
<time>2010-06-20T14:24:10Z</time>
<desc>lat.=55.900291, lon.=26.529013, Alt.=106.704163m. Speed=0.360000m/h.</desc>
<speed>0.100000</speed>
</trkpt>
<trkpt lat="55.900291" lon="26.529011">
<ele>106.702209</ele>
<time>2010-06-20T14:24:11Z</time>
<desc>lat.=55.900291, lon.=26.529011, Alt.=106.702209m. Speed=0.360000m/h.</desc>
<speed>0.100000</speed>
</trkpt>
<trkpt lat="55.900291" lon="26.529009">
<ele>106.700256</ele>
<time>2010-06-20T14:24:12Z</time>
<desc>lat.=55.900291, lon.=26.529009, Alt.=106.700256m. Speed=0.432000m/h.</desc>
<speed>0.120000</speed>
</trkpt>
<trkpt lat="55.900291" lon="26.529007">
<ele>106.700256</ele>
<time>2010-06-20T14:24:13Z</time>
<desc>lat.=55.900291, lon.=26.529007, Alt.=106.700256m. Speed=0.576000m/h.</desc>
<speed>0.160000</speed>
</trkpt>
<trkpt lat="55.900291" lon="26.529003">
<ele>106.700256</ele>
<time>2010-06-20T14:24:14Z</time>
<desc>lat.=55.900291, lon.=26.529003, Alt.=106.700256m. Speed=0.612000m/h.</desc>
<speed>0.170000</speed>
</trkpt>
<trkpt lat="55.900291" lon="26.529001">
<ele>106.702209</ele>
<time>2010-06-20T14:24:15Z</time>
<desc>lat.=55.900291, lon.=26.529001, Alt.=106.702209m. Speed=0.612000m/h.</desc>
<speed>0.170000</speed>
</trkpt>
<trkpt lat="55.900291" lon="26.528999">
<ele>106.702209</ele>
<time>2010-06-20T14:24:16Z</time>
<desc>lat.=55.900291, lon.=26.528999, Alt.=106.702209m. Speed=0.504000m/h.</desc>
<speed>0.140000</speed>
</trkpt>
<trkpt lat="55.900291" lon="26.528996">
<ele>106.704163</ele>
<time>2010-06-20T14:24:17Z</time>
<desc>lat.=55.900291, lon.=26.528996, Alt.=106.704163m. Speed=0.648000m/h.</desc>
<speed>0.180000</speed>
</trkpt>
<trkpt lat="55.900295" lon="26.528994">
<ele>106.704163</ele>
<time>2010-06-20T14:24:18Z</time>
<desc>lat.=55.900295, lon.=26.528994, Alt.=106.704163m. Speed=1.008000m/h.</desc>
<speed>0.280000</speed>
</trkpt>
<trkpt lat="55.900295" lon="26.528992">
<ele>106.704163</ele>
<time>2010-06-20T14:24:19Z</time>
<desc>lat.=55.900295, lon.=26.528992, Alt.=106.704163m. Speed=1.224000m/h.</desc>
<speed>0.340000</speed>
</trkpt>
<trkpt lat="55.900299" lon="26.528988">
<ele>106.711975</ele>
<time>2010-06-20T14:24:20Z</time>
<desc>lat.=55.900299, lon.=26.528988, Alt.=106.711975m. Speed=1.332000m/h.</desc>
<speed>0.370000</speed>
</trkpt>
<trkpt lat="55.900295" lon="26.528990">
<ele>106.713928</ele>
<time>2010-06-20T14:24:21Z</time>
<desc>lat.=55.900295, lon.=26.528990, Alt.=106.713928m. Speed=0.936000m/h.</desc>
<speed>0.260000</speed>
</trkpt>
<trkpt lat="55.900299" lon="26.528997">
<ele>106.706116</ele>
<time>2010-06-20T14:24:22Z</time>
<desc>lat.=55.900299, lon.=26.528997, Alt.=106.706116m. Speed=1.080000m/h.</desc>
<speed>0.300000</speed>
</trkpt>
<trkpt lat="55.900295" lon="26.528992">
<ele>106.694397</ele>
<time>2010-06-20T14:24:23Z</time>
<desc>lat.=55.900295, lon.=26.528992, Alt.=106.694397m. Speed=0.684000m/h.</desc>
<speed>0.190000</speed>
</trkpt>
<trkpt lat="55.900291" lon="26.528988">
<ele>106.692444</ele>
<time>2010-06-20T14:24:24Z</time>
<desc>lat.=55.900291, lon.=26.528988, Alt.=106.692444m. Speed=0.360000m/h.</desc>
<speed>0.100000</speed>
</trkpt>
<trkpt lat="55.900284" lon="26.528986">
<ele>106.678772</ele>
<time>2010-06-20T14:24:25Z</time>
<desc>lat.=55.900284, lon.=26.528986, Alt.=106.678772m. Speed=0.288000m/h.</desc>
<speed>0.080000</speed>
</trkpt>
<trkpt lat="55.900280" lon="26.528986">
<ele>106.667053</ele>
<time>2010-06-20T14:24:26Z</time>
<desc>lat.=55.900280, lon.=26.528986, Alt.=106.667053m. Speed=0.288000m/h.</desc>
<speed>0.080000</speed>
</trkpt>
<trkpt lat="55.900280" lon="26.528986">
<ele>106.667053</ele>
<time>2010-06-20T14:24:27Z</time>
<desc>lat.=55.900280, lon.=26.528986, Alt.=106.667053m. Speed=1.008000m/h.</desc>
<speed>0.280000</speed>
</trkpt>
<trkpt lat="55.900276" lon="26.528988">
<ele>106.667053</ele>
<time>2010-06-20T14:24:28Z</time>
<desc>lat.=55.900276, lon.=26.528988, Alt.=106.667053m. Speed=0.432000m/h.</desc>
<speed>0.120000</speed>
</trkpt>
<trkpt lat="55.900276" lon="26.528988">
<ele>106.665100</ele>
<time>2010-06-20T14:24:29Z</time>
<desc>lat.=55.900276, lon.=26.528988, Alt.=106.665100m. Speed=0.144000m/h.</desc>
<speed>0.040000</speed>
</trkpt>
<trkpt lat="55.900276" lon="26.528986">
<ele>106.665100</ele>
<time>2010-06-20T14:24:30Z</time>
<desc>lat.=55.900276, lon.=26.528986, Alt.=106.665100m. Speed=0.216000m/h.</desc>
<speed>0.060000</speed>
</trkpt>
<trkpt lat="55.900276" lon="26.528986">
<ele>106.663147</ele>
<time>2010-06-20T14:24:31Z</time>
<desc>lat.=55.900276, lon.=26.528986, Alt.=106.663147m. Speed=0.288000m/h.</desc>
<speed>0.080000</speed>
</trkpt>
<trkpt lat="55.900276" lon="26.528986">
<ele>106.661194</ele>
<time>2010-06-20T14:24:32Z</time>
<desc>lat.=55.900276, lon.=26.528986, Alt.=106.661194m. Speed=0.324000m/h.</desc>
<speed>0.090000</speed>
</trkpt>
<trkpt lat="55.900272" lon="26.528984">
<ele>106.661194</ele>
<time>2010-06-20T14:24:33Z</time>
<desc>lat.=55.900272, lon.=26.528984, Alt.=106.661194m. Speed=0.468000m/h.</desc>
<speed>0.130000</speed>
</trkpt>
<trkpt lat="55.900276" lon="26.528982">
<ele>106.659241</ele>
<time>2010-06-20T14:24:34Z</time>
<desc>lat.=55.900276, lon.=26.528982, Alt.=106.659241m. Speed=0.612000m/h.</desc>
<speed>0.170000</speed>
</trkpt>
<trkpt lat="55.900276" lon="26.528980">
<ele>106.657288</ele>
<time>2010-06-20T14:24:35Z</time>
<desc>lat.=55.900276, lon.=26.528980, Alt.=106.657288m. Speed=0.756000m/h.</desc>
<speed>0.210000</speed>
</trkpt>
<trkpt lat="55.900276" lon="26.528976">
<ele>106.657288</ele>
<time>2010-06-20T14:24:36Z</time>
<desc>lat.=55.900276, lon.=26.528976, Alt.=106.657288m. Speed=0.684000m/h.</desc>
<speed>0.190000</speed>
</trkpt>
<trkpt lat="55.900276" lon="26.528973">
<ele>106.655334</ele>
<time>2010-06-20T14:24:37Z</time>
<desc>lat.=55.900276, lon.=26.528973, Alt.=106.655334m. Speed=0.828000m/h.</desc>
<speed>0.230000</speed>
</trkpt>
<trkpt lat="55.900272" lon="26.528969">
<ele>106.655334</ele>
<time>2010-06-20T14:24:38Z</time>
<desc>lat.=55.900272, lon.=26.528969, Alt.=106.655334m. Speed=0.648000m/h.</desc>
<speed>0.180000</speed>
</trkpt>
<trkpt lat="55.900272" lon="26.528967">
<ele>106.653381</ele>
<time>2010-06-20T14:24:39Z</time>
<desc>lat.=55.900272, lon.=26.528967, Alt.=106.653381m. Speed=0.540000m/h.</desc>
<speed>0.150000</speed>
</trkpt>
<trkpt lat="55.900272" lon="26.528965">
<ele>106.651428</ele>
<time>2010-06-20T14:24:40Z</time>
<desc>lat.=55.900272, lon.=26.528965, Alt.=106.651428m. Speed=0.216000m/h.</desc>
<speed>0.060000</speed>
</trkpt>
<trkpt lat="55.900272" lon="26.528963">
<ele>106.649475</ele>
<time>2010-06-20T14:24:41Z</time>
<desc>lat.=55.900272, lon.=26.528963, Alt.=106.649475m. Speed=0.108000m/h.</desc>
<speed>0.030000</speed>
</trkpt>
<trkpt lat="55.900272" lon="26.528963">
<ele>106.649475</ele>
<time>2010-06-20T14:24:42Z</time>
<desc>lat.=55.900272, lon.=26.528963, Alt.=106.649475m. Speed=0.252000m/h.</desc>
<speed>0.070000</speed>
</trkpt>
<trkpt lat="55.900272" lon="26.528961">
<ele>106.647522</ele>
<time>2010-06-20T14:24:43Z</time>
<desc>lat.=55.900272, lon.=26.528961, Alt.=106.647522m. Speed=0.072000m/h.</desc>
<speed>0.020000</speed>
</trkpt>
<trkpt lat="55.900272" lon="26.528961">
<ele>106.647522</ele>
<time>2010-06-20T14:24:44Z</time>
<desc>lat.=55.900272, lon.=26.528961, Alt.=106.647522m. Speed=0.288000m/h.</desc>
<speed>0.080000</speed>
</trkpt>
<trkpt lat="55.900272" lon="26.528961">
<ele>106.645569</ele>
<time>2010-06-20T14:24:45Z</time>
<desc>lat.=55.900272, lon.=26.528961, Alt.=106.645569m. Speed=0.180000m/h.</desc>
<speed>0.050000</speed>
</trkpt>
<trkpt lat="55.900272" lon="26.528963">
<ele>106.643616</ele>
<time>2010-06-20T14:24:46Z</time>
<desc>lat.=55.900272, lon.=26.528963, Alt.=106.643616m. Speed=0.468000m/h.</desc>
<speed>0.130000</speed>
</trkpt>
<trkpt lat="55.900272" lon="26.528965">
<ele>106.643616</ele>
<time>2010-06-20T14:24:47Z</time>
<desc>lat.=55.900272, lon.=26.528965, Alt.=106.643616m. Speed=0.612000m/h.</desc>
<speed>0.170000</speed>
</trkpt>
<trkpt lat="55.900272" lon="26.528967">
<ele>106.641663</ele>
<time>2010-06-20T14:24:48Z</time>
<desc>lat.=55.900272, lon.=26.528967, Alt.=106.641663m. Speed=0.864000m/h.</desc>
<speed>0.240000</speed>
</trkpt>
<trkpt lat="55.900269" lon="26.528969">
<ele>106.641663</ele>
<time>2010-06-20T14:24:49Z</time>
<desc>lat.=55.900269, lon.=26.528969, Alt.=106.641663m. Speed=0.792000m/h.</desc>
<speed>0.220000</speed>
</trkpt>
<trkpt lat="55.900269" lon="26.528971">
<ele>106.639709</ele>
<time>2010-06-20T14:24:50Z</time>
<desc>lat.=55.900269, lon.=26.528971, Alt.=106.639709m. Speed=0.864000m/h.</desc>
<speed>0.240000</speed>
</trkpt>
<trkpt lat="55.900269" lon="26.528975">
<ele>106.639709</ele>
<time>2010-06-20T14:24:51Z</time>
<desc>lat.=55.900269, lon.=26.528975, Alt.=106.639709m. Speed=0.900000m/h.</desc>
<speed>0.250000</speed>
</trkpt>
<trkpt lat="55.900265" lon="26.528978">
<ele>106.639709</ele>
<time>2010-06-20T14:24:52Z</time>
<desc>lat.=55.900265, lon.=26.528978, Alt.=106.639709m. Speed=1.044000m/h.</desc>
<speed>0.290000</speed>
</trkpt>
<trkpt lat="55.900265" lon="26.528984">
<ele>106.637756</ele>
<time>2010-06-20T14:24:53Z</time>
<desc>lat.=55.900265, lon.=26.528984, Alt.=106.637756m. Speed=1.548000m/h.</desc>
<speed>0.430000</speed>
</trkpt>
<trkpt lat="55.900261" lon="26.528999">
<ele>106.663147</ele>
<time>2010-06-20T14:24:54Z</time>
<desc>lat.=55.900261, lon.=26.528999, Alt.=106.663147m. Speed=1.584000m/h.</desc>
<speed>0.440000</speed>
</trkpt>
<trkpt lat="55.900257" lon="26.529020">
<ele>106.676819</ele>
<time>2010-06-20T14:24:55Z</time>
<desc>lat.=55.900257, lon.=26.529020, Alt.=106.676819m. Speed=1.944000m/h.</desc>
<speed>0.540000</speed>
</trkpt>
<trkpt lat="55.900253" lon="26.529034">
<ele>106.667053</ele>
<time>2010-06-20T14:24:56Z</time>
<desc>lat.=55.900253, lon.=26.529034, Alt.=106.667053m. Speed=2.124000m/h.</desc>
<speed>0.590000</speed>
</trkpt>
<trkpt lat="55.900249" lon="26.529043">
<ele>106.670959</ele>
<time>2010-06-20T14:24:57Z</time>
<desc>lat.=55.900249, lon.=26.529043, Alt.=106.670959m. Speed=2.232000m/h.</desc>
<speed>0.620000</speed>
</trkpt>
<trkpt lat="55.900242" lon="26.529060">
<ele>106.674866</ele>
<time>2010-06-20T14:24:58Z</time>
<desc>lat.=55.900242, lon.=26.529060, Alt.=106.674866m. Speed=2.340000m/h.</desc>
<speed>0.650000</speed>
</trkpt>
<trkpt lat="55.900246" lon="26.529058">
<ele>106.659241</ele>
<time>2010-06-20T14:24:59Z</time>
<desc>lat.=55.900246, lon.=26.529058, Alt.=106.659241m. Speed=1.620000m/h.</desc>
<speed>0.450000</speed>
</trkpt>
<trkpt lat="55.900249" lon="26.529058">
<ele>106.626038</ele>
<time>2010-06-20T14:25:00Z</time>
<desc>lat.=55.900249, lon.=26.529058, Alt.=106.626038m. Speed=1.296000m/h.</desc>
<speed>0.360000</speed>
</trkpt>
<trkpt lat="55.900249" lon="26.529062">
<ele>106.616272</ele>
<time>2010-06-20T14:25:01Z</time>
<desc>lat.=55.900249, lon.=26.529062, Alt.=106.616272m. Speed=1.188000m/h.</desc>
<speed>0.330000</speed>
</trkpt>
<trkpt lat="55.900246" lon="26.529058">
<ele>106.602600</ele>
<time>2010-06-20T14:25:02Z</time>
<desc>lat.=55.900246, lon.=26.529058, Alt.=106.602600m. Speed=0.864000m/h.</desc>
<speed>0.240000</speed>
</trkpt>
<trkpt lat="55.900246" lon="26.529066">
<ele>106.590881</ele>
<time>2010-06-20T14:25:03Z</time>
<desc>lat.=55.900246, lon.=26.529066, Alt.=106.590881m. Speed=0.828000m/h.</desc>
<speed>0.230000</speed>
</trkpt>
<trkpt lat="55.900246" lon="26.529068">
<ele>106.614319</ele>
<time>2010-06-20T14:25:04Z</time>
<desc>lat.=55.900246, lon.=26.529068, Alt.=106.614319m. Speed=0.612000m/h.</desc>
<speed>0.170000</speed>
</trkpt>
<trkpt lat="55.900246" lon="26.529070">
<ele>106.626038</ele>
<time>2010-06-20T14:25:05Z</time>
<desc>lat.=55.900246, lon.=26.529070, Alt.=106.626038m. Speed=0.576000m/h.</desc>
<speed>0.160000</speed>
</trkpt>
<trkpt lat="55.900246" lon="26.529074">
<ele>106.626038</ele>
<time>2010-06-20T14:25:06Z</time>
<desc>lat.=55.900246, lon.=26.529074, Alt.=106.626038m. Speed=0.864000m/h.</desc>
<speed>0.240000</speed>
</trkpt>
<trkpt lat="55.900246" lon="26.529078">
<ele>106.626038</ele>
<time>2010-06-20T14:25:07Z</time>
<desc>lat.=55.900246, lon.=26.529078, Alt.=106.626038m. Speed=0.684000m/h.</desc>
<speed>0.190000</speed>
</trkpt>
<trkpt lat="55.900242" lon="26.529079">
<ele>106.624084</ele>
<time>2010-06-20T14:25:08Z</time>
<desc>lat.=55.900242, lon.=26.529079, Alt.=106.624084m. Speed=0.864000m/h.</desc>
<speed>0.240000</speed>
</trkpt>
<trkpt lat="55.900242" lon="26.529083">
<ele>106.624084</ele>
<time>2010-06-20T14:25:09Z</time>
<desc>lat.=55.900242, lon.=26.529083, Alt.=106.624084m. Speed=0.864000m/h.</desc>
<speed>0.240000</speed>
</trkpt>
<trkpt lat="55.900242" lon="26.529087">
<ele>106.626038</ele>
<time>2010-06-20T14:25:10Z</time>
<desc>lat.=55.900242, lon.=26.529087, Alt.=106.626038m. Speed=1.188000m/h.</desc>
<speed>0.330000</speed>
</trkpt>
<trkpt lat="55.900242" lon="26.529095">
<ele>106.616272</ele>
<time>2010-06-20T14:25:11Z</time>
<desc>lat.=55.900242, lon.=26.529095, Alt.=106.616272m. Speed=1.188000m/h.</desc>
<speed>0.330000</speed>
</trkpt>
<trkpt lat="55.900242" lon="26.529091">
<ele>106.592834</ele>
<time>2010-06-20T14:25:12Z</time>
<desc>lat.=55.900242, lon.=26.529091, Alt.=106.592834m. Speed=0.864000m/h.</desc>
<speed>0.240000</speed>
</trkpt>
<trkpt lat="55.900238" lon="26.529104">
<ele>106.565491</ele>
<time>2010-06-20T14:25:13Z</time>
<desc>lat.=55.900238, lon.=26.529104, Alt.=106.565491m. Speed=1.152000m/h.</desc>
<speed>0.320000</speed>
</trkpt>
<trkpt lat="55.900238" lon="26.529097">
<ele>106.549866</ele>
<time>2010-06-20T14:25:14Z</time>
<desc>lat.=55.900238, lon.=26.529097, Alt.=106.549866m. Speed=0.936000m/h.</desc>
<speed>0.260000</speed>
</trkpt>
<trkpt lat="55.900234" lon="26.529112">
<ele>106.530334</ele>
<time>2010-06-20T14:25:15Z</time>
<desc>lat.=55.900234, lon.=26.529112, Alt.=106.530334m. Speed=1.044000m/h.</desc>
<speed>0.290000</speed>
</trkpt>
<trkpt lat="55.900230" lon="26.529123">
<ele>106.510803</ele>
<time>2010-06-20T14:25:16Z</time>
<desc>lat.=55.900230, lon.=26.529123, Alt.=106.510803m. Speed=1.152000m/h.</desc>
<speed>0.320000</speed>
</trkpt>
<trkpt lat="55.900230" lon="26.529139">
<ele>106.506897</ele>
<time>2010-06-20T14:25:17Z</time>
<desc>lat.=55.900230, lon.=26.529139, Alt.=106.506897m. Speed=1.296000m/h.</desc>
<speed>0.360000</speed>
</trkpt>
<trkpt lat="55.900230" lon="26.529146">
<ele>106.487366</ele>
<time>2010-06-20T14:25:18Z</time>
<desc>lat.=55.900230, lon.=26.529146, Alt.=106.487366m. Speed=1.224000m/h.</desc>
<speed>0.340000</speed>
</trkpt>
<trkpt lat="55.900230" lon="26.529150">
<ele>106.491272</ele>
<time>2010-06-20T14:25:19Z</time>
<desc>lat.=55.900230, lon.=26.529150, Alt.=106.491272m. Speed=1.152000m/h.</desc>
<speed>0.320000</speed>
</trkpt>
<trkpt lat="55.900234" lon="26.529150">
<ele>106.479553</ele>
<time>2010-06-20T14:25:20Z</time>
<desc>lat.=55.900234, lon.=26.529150, Alt.=106.479553m. Speed=1.188000m/h.</desc>
<speed>0.330000</speed>
</trkpt>
<trkpt lat="55.900234" lon="26.529146">
<ele>106.450256</ele>
<time>2010-06-20T14:25:21Z</time>
<desc>lat.=55.900234, lon.=26.529146, Alt.=106.450256m. Speed=1.260000m/h.</desc>
<speed>0.350000</speed>
</trkpt>
<trkpt lat="55.900242" lon="26.529131">
<ele>106.442444</ele>
<time>2010-06-20T14:25:22Z</time>
<desc>lat.=55.900242, lon.=26.529131, Alt.=106.442444m. Speed=0.864000m/h.</desc>
<speed>0.240000</speed>
</trkpt>
<trkpt lat="55.900242" lon="26.529116">
<ele>106.489319</ele>
<time>2010-06-20T14:25:23Z</time>
<desc>lat.=55.900242, lon.=26.529116, Alt.=106.489319m. Speed=0.360000m/h.</desc>
<speed>0.100000</speed>
</trkpt>
<trkpt lat="55.900246" lon="26.529100">
<ele>106.844788</ele>
<time>2010-06-20T14:25:24Z</time>
<desc>lat.=55.900246, lon.=26.529100, Alt.=106.844788m. Speed=0.252000m/h.</desc>
<speed>0.070000</speed>
</trkpt>
<trkpt lat="55.900246" lon="26.529083">
<ele>106.877991</ele>
<time>2010-06-20T14:25:25Z</time>
<desc>lat.=55.900246, lon.=26.529083, Alt.=106.877991m. Speed=0.540000m/h.</desc>
<speed>0.150000</speed>
</trkpt>
<trkpt lat="55.900249" lon="26.529081">
<ele>106.877991</ele>
<time>2010-06-20T14:25:26Z</time>
<desc>lat.=55.900249, lon.=26.529081, Alt.=106.877991m. Speed=0.468000m/h.</desc>
<speed>0.130000</speed>
</trkpt>
<trkpt lat="55.900249" lon="26.529079">
<ele>106.876038</ele>
<time>2010-06-20T14:25:27Z</time>
<desc>lat.=55.900249, lon.=26.529079, Alt.=106.876038m. Speed=0.288000m/h.</desc>
<speed>0.080000</speed>
</trkpt>
<trkpt lat="55.900249" lon="26.529079">
<ele>106.874084</ele>
<time>2010-06-20T14:25:28Z</time>
<desc>lat.=55.900249, lon.=26.529079, Alt.=106.874084m. Speed=0.360000m/h.</desc>
<speed>0.100000</speed>
</trkpt>
<trkpt lat="55.900249" lon="26.529078">
<ele>106.870178</ele>
<time>2010-06-20T14:25:29Z</time>
<desc>lat.=55.900249, lon.=26.529078, Alt.=106.870178m. Speed=0.612000m/h.</desc>
<speed>0.170000</speed>
</trkpt>
<trkpt lat="55.900253" lon="26.529079">
<ele>106.868225</ele>
<time>2010-06-20T14:25:30Z</time>
<desc>lat.=55.900253, lon.=26.529079, Alt.=106.868225m. Speed=0.396000m/h.</desc>
<speed>0.110000</speed>
</trkpt>
<trkpt lat="55.900253" lon="26.529078">
<ele>106.864319</ele>
<time>2010-06-20T14:25:31Z</time>
<desc>lat.=55.900253, lon.=26.529078, Alt.=106.864319m. Speed=0.504000m/h.</desc>
<speed>0.140000</speed>
</trkpt>
<trkpt lat="55.900253" lon="26.529074">
<ele>106.862366</ele>
<time>2010-06-20T14:25:32Z</time>
<desc>lat.=55.900253, lon.=26.529074, Alt.=106.862366m. Speed=0.828000m/h.</desc>
<speed>0.230000</speed>
</trkpt>
<trkpt lat="55.900253" lon="26.529070">
<ele>106.860413</ele>
<time>2010-06-20T14:25:33Z</time>
<desc>lat.=55.900253, lon.=26.529070, Alt.=106.860413m. Speed=1.080000m/h.</desc>
<speed>0.300000</speed>
</trkpt>
<trkpt lat="55.900261" lon="26.529049">
<ele>106.876038</ele>
<time>2010-06-20T14:25:34Z</time>
<desc>lat.=55.900261, lon.=26.529049, Alt.=106.876038m. Speed=1.404000m/h.</desc>
<speed>0.390000</speed>
</trkpt>
<trkpt lat="55.900257" lon="26.529039">
<ele>106.877991</ele>
<time>2010-06-20T14:25:35Z</time>
<desc>lat.=55.900257, lon.=26.529039, Alt.=106.877991m. Speed=1.152000m/h.</desc>
<speed>0.320000</speed>
</trkpt>
<trkpt lat="55.900261" lon="26.529013">
<ele>106.883850</ele>
<time>2010-06-20T14:25:36Z</time>
<desc>lat.=55.900261, lon.=26.529013, Alt.=106.883850m. Speed=1.584000m/h.</desc>
<speed>0.440000</speed>
</trkpt>
<trkpt lat="55.900269" lon="26.528984">
<ele>106.899475</ele>
<time>2010-06-20T14:25:37Z</time>
<desc>lat.=55.900269, lon.=26.528984, Alt.=106.899475m. Speed=1.980000m/h.</desc>
<speed>0.550000</speed>
</trkpt>
<trkpt lat="55.900272" lon="26.528967">
<ele>106.883850</ele>
<time>2010-06-20T14:25:38Z</time>
<desc>lat.=55.900272, lon.=26.528967, Alt.=106.883850m. Speed=1.980000m/h.</desc>
<speed>0.550000</speed>
</trkpt>
<trkpt lat="55.900276" lon="26.528957">
<ele>106.887756</ele>
<time>2010-06-20T14:25:39Z</time>
<desc>lat.=55.900276, lon.=26.528957, Alt.=106.887756m. Speed=1.764000m/h.</desc>
<speed>0.490000</speed>
</trkpt>
<trkpt lat="55.900276" lon="26.528954">
<ele>106.920959</ele>
<time>2010-06-20T14:25:40Z</time>
<desc>lat.=55.900276, lon.=26.528954, Alt.=106.920959m. Speed=1.404000m/h.</desc>
<speed>0.390000</speed>
</trkpt>
<trkpt lat="55.900284" lon="26.528938">
<ele>106.952209</ele>
<time>2010-06-20T14:25:41Z</time>
<desc>lat.=55.900284, lon.=26.528938, Alt.=106.952209m. Speed=1.512000m/h.</desc>
<speed>0.420000</speed>
</trkpt>
<trkpt lat="55.900288" lon="26.528931">
<ele>106.989319</ele>
<time>2010-06-20T14:25:42Z</time>
<desc>lat.=55.900288, lon.=26.528931, Alt.=106.989319m. Speed=1.548000m/h.</desc>
<speed>0.430000</speed>
</trkpt>
<trkpt lat="55.900288" lon="26.528936">
<ele>107.053772</ele>
<time>2010-06-20T14:25:43Z</time>
<desc>lat.=55.900288, lon.=26.528936, Alt.=107.053772m. Speed=1.440000m/h.</desc>
<speed>0.400000</speed>
</trkpt>
<trkpt lat="55.900288" lon="26.528936">
<ele>107.104553</ele>
<time>2010-06-20T14:25:44Z</time>
<desc>lat.=55.900288, lon.=26.528936, Alt.=107.104553m. Speed=1.368000m/h.</desc>
<speed>0.380000</speed>
</trkpt>
<trkpt lat="55.900288" lon="26.528944">
<ele>107.126038</ele>
<time>2010-06-20T14:25:45Z</time>
<desc>lat.=55.900288, lon.=26.528944, Alt.=107.126038m. Speed=0.900000m/h.</desc>
<speed>0.250000</speed>
</trkpt>
<trkpt lat="55.900284" lon="26.528957">
<ele>106.858459</ele>
<time>2010-06-20T14:25:46Z</time>
<desc>lat.=55.900284, lon.=26.528957, Alt.=106.858459m. Speed=0.432000m/h.</desc>
<speed>0.120000</speed>
</trkpt>
<trkpt lat="55.900284" lon="26.528950">
<ele>106.872131</ele>
<time>2010-06-20T14:25:47Z</time>
<desc>lat.=55.900284, lon.=26.528950, Alt.=106.872131m. Speed=0.036000m/h.</desc>
<speed>0.010000</speed>
</trkpt>
<trkpt lat="55.900280" lon="26.528957">
<ele>106.879944</ele>
<time>2010-06-20T14:25:48Z</time>
<desc>lat.=55.900280, lon.=26.528957, Alt.=106.879944m. Speed=0.540000m/h.</desc>
<speed>0.150000</speed>
</trkpt>
<trkpt lat="55.900280" lon="26.528959">
<ele>106.883850</ele>
<time>2010-06-20T14:25:49Z</time>
<desc>lat.=55.900280, lon.=26.528959, Alt.=106.883850m. Speed=0.468000m/h.</desc>
<speed>0.130000</speed>
</trkpt>
<trkpt lat="55.900280" lon="26.528963">
<ele>106.885803</ele>
<time>2010-06-20T14:25:50Z</time>
<desc>lat.=55.900280, lon.=26.528963, Alt.=106.885803m. Speed=0.468000m/h.</desc>
<speed>0.130000</speed>
</trkpt>
<trkpt lat="55.900280" lon="26.528963">
<ele>106.885803</ele>
<time>2010-06-20T14:25:51Z</time>
<desc>lat.=55.900280, lon.=26.528963, Alt.=106.885803m. Speed=0.432000m/h.</desc>
<speed>0.120000</speed>
</trkpt>
<trkpt lat="55.900280" lon="26.528965">
<ele>106.887756</ele>
<time>2010-06-20T14:25:52Z</time>
<desc>lat.=55.900280, lon.=26.528965, Alt.=106.887756m. Speed=0.468000m/h.</desc>
<speed>0.130000</speed>
</trkpt>
<trkpt lat="55.900280" lon="26.528969">
<ele>106.891663</ele>
<time>2010-06-20T14:25:53Z</time>
<desc>lat.=55.900280, lon.=26.528969, Alt.=106.891663m. Speed=0.540000m/h.</desc>
<speed>0.150000</speed>
</trkpt>
<trkpt lat="55.900280" lon="26.528971">
<ele>106.893616</ele>
<time>2010-06-20T14:25:54Z</time>
<desc>lat.=55.900280, lon.=26.528971, Alt.=106.893616m. Speed=0.936000m/h.</desc>
<speed>0.260000</speed>
</trkpt>
<trkpt lat="55.900280" lon="26.528975">
<ele>106.897522</ele>
<time>2010-06-20T14:25:55Z</time>
<desc>lat.=55.900280, lon.=26.528975, Alt.=106.897522m. Speed=0.720000m/h.</desc>
<speed>0.200000</speed>
</trkpt>
<trkpt lat="55.900280" lon="26.528976">
<ele>106.899475</ele>
<time>2010-06-20T14:25:56Z</time>
<desc>lat.=55.900280, lon.=26.528976, Alt.=106.899475m. Speed=0.684000m/h.</desc>
<speed>0.190000</speed>
</trkpt>
<trkpt lat="55.900276" lon="26.528980">
<ele>106.901428</ele>
<time>2010-06-20T14:25:57Z</time>
<desc>lat.=55.900276, lon.=26.528980, Alt.=106.901428m. Speed=1.116000m/h.</desc>
<speed>0.310000</speed>
</trkpt>
<trkpt lat="55.900272" lon="26.528976">
<ele>106.905334</ele>
<time>2010-06-20T14:25:58Z</time>
<desc>lat.=55.900272, lon.=26.528976, Alt.=106.905334m. Speed=1.152000m/h.</desc>
<speed>0.320000</speed>
</trkpt>
<trkpt lat="55.900269" lon="26.528999">
<ele>106.915100</ele>
<time>2010-06-20T14:25:59Z</time>
<desc>lat.=55.900269, lon.=26.528999, Alt.=106.915100m. Speed=1.656000m/h.</desc>
<speed>0.460000</speed>
</trkpt>
<trkpt lat="55.900272" lon="26.528996">
<ele>106.926819</ele>
<time>2010-06-20T14:26:00Z</time>
<desc>lat.=55.900272, lon.=26.528996, Alt.=106.926819m. Speed=1.296000m/h.</desc>
<speed>0.360000</speed>
</trkpt>
<trkpt lat="55.900272" lon="26.528992">
<ele>106.938538</ele>
<time>2010-06-20T14:26:01Z</time>
<desc>lat.=55.900272, lon.=26.528992, Alt.=106.938538m. Speed=0.828000m/h.</desc>
<speed>0.230000</speed>
</trkpt>
<trkpt lat="55.900272" lon="26.528999">
<ele>106.924866</ele>
<time>2010-06-20T14:26:02Z</time>
<desc>lat.=55.900272, lon.=26.528999, Alt.=106.924866m. Speed=0.900000m/h.</desc>
<speed>0.250000</speed>
</trkpt>
<trkpt lat="55.900265" lon="26.528999">
<ele>106.901428</ele>
<time>2010-06-20T14:26:03Z</time>
<desc>lat.=55.900265, lon.=26.528999, Alt.=106.901428m. Speed=0.720000m/h.</desc>
<speed>0.200000</speed>
</trkpt>
<trkpt lat="55.900265" lon="26.529001">
<ele>106.905334</ele>
<time>2010-06-20T14:26:04Z</time>
<desc>lat.=55.900265, lon.=26.529001, Alt.=106.905334m. Speed=0.612000m/h.</desc>
<speed>0.170000</speed>
</trkpt>
<trkpt lat="55.900261" lon="26.529003">
<ele>106.905334</ele>
<time>2010-06-20T14:26:05Z</time>
<desc>lat.=55.900261, lon.=26.529003, Alt.=106.905334m. Speed=0.684000m/h.</desc>
<speed>0.190000</speed>
</trkpt>
<trkpt lat="55.900261" lon="26.529005">
<ele>106.905334</ele>
<time>2010-06-20T14:26:06Z</time>
<desc>lat.=55.900261, lon.=26.529005, Alt.=106.905334m. Speed=0.216000m/h.</desc>
<speed>0.060000</speed>
</trkpt>
<trkpt lat="55.900261" lon="26.529007">
<ele>106.903381</ele>
<time>2010-06-20T14:26:07Z</time>
<desc>lat.=55.900261, lon.=26.529007, Alt.=106.903381m. Speed=1.044000m/h.</desc>
<speed>0.290000</speed>
</trkpt>
<trkpt lat="55.900257" lon="26.529009">
<ele>106.903381</ele>
<time>2010-06-20T14:26:08Z</time>
<desc>lat.=55.900257, lon.=26.529009, Alt.=106.903381m. Speed=0.936000m/h.</desc>
<speed>0.260000</speed>
</trkpt>
<trkpt lat="55.900257" lon="26.529013">
<ele>106.901428</ele>
<time>2010-06-20T14:26:09Z</time>
<desc>lat.=55.900257, lon.=26.529013, Alt.=106.901428m. Speed=1.008000m/h.</desc>
<speed>0.280000</speed>
</trkpt>
<trkpt lat="55.900257" lon="26.529016">
<ele>106.899475</ele>
<time>2010-06-20T14:26:10Z</time>
<desc>lat.=55.900257, lon.=26.529016, Alt.=106.899475m. Speed=0.828000m/h.</desc>
<speed>0.230000</speed>
</trkpt>
<trkpt lat="55.900253" lon="26.529018">
<ele>106.897522</ele>
<time>2010-06-20T14:26:11Z</time>
<desc>lat.=55.900253, lon.=26.529018, Alt.=106.897522m. Speed=0.792000m/h.</desc>
<speed>0.220000</speed>
</trkpt>
<trkpt lat="55.900253" lon="26.529022">
<ele>106.895569</ele>
<time>2010-06-20T14:26:12Z</time>
<desc>lat.=55.900253, lon.=26.529022, Alt.=106.895569m. Speed=0.648000m/h.</desc>
<speed>0.180000</speed>
</trkpt>
<trkpt lat="55.900253" lon="26.529026">
<ele>106.893616</ele>
<time>2010-06-20T14:26:13Z</time>
<desc>lat.=55.900253, lon.=26.529026, Alt.=106.893616m. Speed=0.684000m/h.</desc>
<speed>0.190000</speed>
</trkpt>
<trkpt lat="55.900253" lon="26.529028">
<ele>106.893616</ele>
<time>2010-06-20T14:26:14Z</time>
<desc>lat.=55.900253, lon.=26.529028, Alt.=106.893616m. Speed=0.720000m/h.</desc>
<speed>0.200000</speed>
</trkpt>
<trkpt lat="55.900253" lon="26.529030">
<ele>106.893616</ele>
<time>2010-06-20T14:26:15Z</time>
<desc>lat.=55.900253, lon.=26.529030, Alt.=106.893616m. Speed=0.360000m/h.</desc>
<speed>0.100000</speed>
</trkpt>
<trkpt lat="55.900253" lon="26.529032">
<ele>106.891663</ele>
<time>2010-06-20T14:26:16Z</time>
<desc>lat.=55.900253, lon.=26.529032, Alt.=106.891663m. Speed=0.432000m/h.</desc>
<speed>0.120000</speed>
</trkpt>
<trkpt lat="55.900249" lon="26.529034">
<ele>106.891663</ele>
<time>2010-06-20T14:26:17Z</time>
<desc>lat.=55.900249, lon.=26.529034, Alt.=106.891663m. Speed=0.288000m/h.</desc>
<speed>0.080000</speed>
</trkpt>
<trkpt lat="55.900249" lon="26.529034">
<ele>106.889709</ele>
<time>2010-06-20T14:26:18Z</time>
<desc>lat.=55.900249, lon.=26.529034, Alt.=106.889709m. Speed=0.216000m/h.</desc>
<speed>0.060000</speed>
</trkpt>
<trkpt lat="55.900253" lon="26.529036">
<ele>106.887756</ele>
<time>2010-06-20T14:26:19Z</time>
<desc>lat.=55.900253, lon.=26.529036, Alt.=106.887756m. Speed=0.648000m/h.</desc>
<speed>0.180000</speed>
</trkpt>
<trkpt lat="55.900253" lon="26.529037">
<ele>106.885803</ele>
<time>2010-06-20T14:26:20Z</time>
<desc>lat.=55.900253, lon.=26.529037, Alt.=106.885803m. Speed=0.828000m/h.</desc>
<speed>0.230000</speed>
</trkpt>
<trkpt lat="55.900253" lon="26.529041">
<ele>106.883850</ele>
<time>2010-06-20T14:26:21Z</time>
<desc>lat.=55.900253, lon.=26.529041, Alt.=106.883850m. Speed=1.044000m/h.</desc>
<speed>0.290000</speed>
</trkpt>
<trkpt lat="55.900253" lon="26.529045">
<ele>106.883850</ele>
<time>2010-06-20T14:26:22Z</time>
<desc>lat.=55.900253, lon.=26.529045, Alt.=106.883850m. Speed=0.504000m/h.</desc>
<speed>0.140000</speed>
</trkpt>
<trkpt lat="55.900253" lon="26.529047">
<ele>106.883850</ele>
<time>2010-06-20T14:26:23Z</time>
<desc>lat.=55.900253, lon.=26.529047, Alt.=106.883850m. Speed=0.036000m/h.</desc>
<speed>0.010000</speed>
</trkpt>
<trkpt lat="55.900253" lon="26.529047">
<ele>106.883850</ele>
<time>2010-06-20T14:26:24Z</time>
<desc>lat.=55.900253, lon.=26.529047, Alt.=106.883850m. Speed=0.108000m/h.</desc>
<speed>0.030000</speed>
</trkpt>
<trkpt lat="55.900253" lon="26.529047">
<ele>106.883850</ele>
<time>2010-06-20T14:26:25Z</time>
<desc>lat.=55.900253, lon.=26.529047, Alt.=106.883850m. Speed=0.396000m/h.</desc>
<speed>0.110000</speed>
</trkpt>
<trkpt lat="55.900253" lon="26.529047">
<ele>106.883850</ele>
<time>2010-06-20T14:26:26Z</time>
<desc>lat.=55.900253, lon.=26.529047, Alt.=106.883850m. Speed=0.972000m/h.</desc>
<speed>0.270000</speed>
</trkpt>
<trkpt lat="55.900257" lon="26.529047">
<ele>106.883850</ele>
<time>2010-06-20T14:26:27Z</time>
<desc>lat.=55.900257, lon.=26.529047, Alt.=106.883850m. Speed=1.116000m/h.</desc>
<speed>0.310000</speed>
</trkpt>
<trkpt lat="55.900265" lon="26.529041">
<ele>106.866272</ele>
<time>2010-06-20T14:26:28Z</time>
<desc>lat.=55.900265, lon.=26.529041, Alt.=106.866272m. Speed=1.332000m/h.</desc>
<speed>0.370000</speed>
</trkpt>
<trkpt lat="55.900276" lon="26.529026">
<ele>106.856506</ele>
<time>2010-06-20T14:26:29Z</time>
<desc>lat.=55.900276, lon.=26.529026, Alt.=106.856506m. Speed=1.476000m/h.</desc>
<speed>0.410000</speed>
</trkpt>
<trkpt lat="55.900280" lon="26.529020">
<ele>106.872131</ele>
<time>2010-06-20T14:26:30Z</time>
<desc>lat.=55.900280, lon.=26.529020, Alt.=106.872131m. Speed=1.332000m/h.</desc>
<speed>0.370000</speed>
</trkpt>
<trkpt lat="55.900280" lon="26.529009">
<ele>106.870178</ele>
<time>2010-06-20T14:26:31Z</time>
<desc>lat.=55.900280, lon.=26.529009, Alt.=106.870178m. Speed=1.080000m/h.</desc>
<speed>0.300000</speed>
</trkpt>
<trkpt lat="55.900288" lon="26.528997">
<ele>106.876038</ele>
<time>2010-06-20T14:26:32Z</time>
<desc>lat.=55.900288, lon.=26.528997, Alt.=106.876038m. Speed=1.548000m/h.</desc>
<speed>0.430000</speed>
</trkpt>
<trkpt lat="55.900291" lon="26.528984">
<ele>106.891663</ele>
<time>2010-06-20T14:26:33Z</time>
<desc>lat.=55.900291, lon.=26.528984, Alt.=106.891663m. Speed=1.872000m/h.</desc>
<speed>0.520000</speed>
</trkpt>
<trkpt lat="55.900295" lon="26.528978">
<ele>106.831116</ele>
<time>2010-06-20T14:26:34Z</time>
<desc>lat.=55.900295, lon.=26.528978, Alt.=106.831116m. Speed=1.836000m/h.</desc>
<speed>0.510000</speed>
</trkpt>
<trkpt lat="55.900295" lon="26.528975">
<ele>106.774475</ele>
<time>2010-06-20T14:26:35Z</time>
<desc>lat.=55.900295, lon.=26.528975, Alt.=106.774475m. Speed=1.332000m/h.</desc>
<speed>0.370000</speed>
</trkpt>
<trkpt lat="55.900288" lon="26.528980">
<ele>106.737366</ele>
<time>2010-06-20T14:26:36Z</time>
<desc>lat.=55.900288, lon.=26.528980, Alt.=106.737366m. Speed=0.684000m/h.</desc>
<speed>0.190000</speed>
</trkpt>
<trkpt lat="55.900288" lon="26.528978">
<ele>106.711975</ele>
<time>2010-06-20T14:26:37Z</time>
<desc>lat.=55.900288, lon.=26.528978, Alt.=106.711975m. Speed=0.396000m/h.</desc>
<speed>0.110000</speed>
</trkpt>
<trkpt lat="55.900288" lon="26.528982">
<ele>106.696350</ele>
<time>2010-06-20T14:26:38Z</time>
<desc>lat.=55.900288, lon.=26.528982, Alt.=106.696350m. Speed=0.360000m/h.</desc>
<speed>0.100000</speed>
</trkpt>
<trkpt lat="55.900284" lon="26.528992">
<ele>106.682678</ele>
<time>2010-06-20T14:26:39Z</time>
<desc>lat.=55.900284, lon.=26.528992, Alt.=106.682678m. Speed=0.684000m/h.</desc>
<speed>0.190000</speed>
</trkpt>
<trkpt lat="55.900288" lon="26.528996">
<ele>106.682678</ele>
<time>2010-06-20T14:26:40Z</time>
<desc>lat.=55.900288, lon.=26.528996, Alt.=106.682678m. Speed=1.008000m/h.</desc>
<speed>0.280000</speed>
</trkpt>
<trkpt lat="55.900288" lon="26.528999">
<ele>106.682678</ele>
<time>2010-06-20T14:26:41Z</time>
<desc>lat.=55.900288, lon.=26.528999, Alt.=106.682678m. Speed=1.260000m/h.</desc>
<speed>0.350000</speed>
</trkpt>
<trkpt lat="55.900291" lon="26.528997">
<ele>106.674866</ele>
<time>2010-06-20T14:26:42Z</time>
<desc>lat.=55.900291, lon.=26.528997, Alt.=106.674866m. Speed=1.296000m/h.</desc>
<speed>0.360000</speed>
</trkpt>
<trkpt lat="55.900288" lon="26.529005">
<ele>106.672913</ele>
<time>2010-06-20T14:26:43Z</time>
<desc>lat.=55.900288, lon.=26.529005, Alt.=106.672913m. Speed=0.936000m/h.</desc>
<speed>0.260000</speed>
</trkpt>
<trkpt lat="55.900288" lon="26.528997">
<ele>106.667053</ele>
<time>2010-06-20T14:26:44Z</time>
<desc>lat.=55.900288, lon.=26.528997, Alt.=106.667053m. Speed=0.396000m/h.</desc>
<speed>0.110000</speed>
</trkpt>
<trkpt lat="55.900288" lon="26.529001">
<ele>106.641663</ele>
<time>2010-06-20T14:26:45Z</time>
<desc>lat.=55.900288, lon.=26.529001, Alt.=106.641663m. Speed=0.684000m/h.</desc>
<speed>0.190000</speed>
</trkpt>
<trkpt lat="55.900280" lon="26.529005">
<ele>106.622131</ele>
<time>2010-06-20T14:26:46Z</time>
<desc>lat.=55.900280, lon.=26.529005, Alt.=106.622131m. Speed=0.684000m/h.</desc>
<speed>0.190000</speed>
</trkpt>
<trkpt lat="55.900280" lon="26.529009">
<ele>106.622131</ele>
<time>2010-06-20T14:26:47Z</time>
<desc>lat.=55.900280, lon.=26.529009, Alt.=106.622131m. Speed=0.144000m/h.</desc>
<speed>0.040000</speed>
</trkpt>
<trkpt lat="55.900280" lon="26.529009">
<ele>106.622131</ele>
<time>2010-06-20T14:26:48Z</time>
<desc>lat.=55.900280, lon.=26.529009, Alt.=106.622131m. Speed=0.432000m/h.</desc>
<speed>0.120000</speed>
</trkpt>
<trkpt lat="55.900280" lon="26.529009">
<ele>106.622131</ele>
<time>2010-06-20T14:26:49Z</time>
<desc>lat.=55.900280, lon.=26.529009, Alt.=106.622131m. Speed=0.432000m/h.</desc>
<speed>0.120000</speed>
</trkpt>
<trkpt lat="55.900280" lon="26.529009">
<ele>106.624084</ele>
<time>2010-06-20T14:26:50Z</time>
<desc>lat.=55.900280, lon.=26.529009, Alt.=106.624084m. Speed=0.936000m/h.</desc>
<speed>0.260000</speed>
</trkpt>
<trkpt lat="55.900276" lon="26.529011">
<ele>106.626038</ele>
<time>2010-06-20T14:26:51Z</time>
<desc>lat.=55.900276, lon.=26.529011, Alt.=106.626038m. Speed=0.612000m/h.</desc>
<speed>0.170000</speed>
</trkpt>
<trkpt lat="55.900276" lon="26.529011">
<ele>106.627991</ele>
<time>2010-06-20T14:26:52Z</time>
<desc>lat.=55.900276, lon.=26.529011, Alt.=106.627991m. Speed=0.576000m/h.</desc>
<speed>0.160000</speed>
</trkpt>
<trkpt lat="55.900272" lon="26.529013">
<ele>106.629944</ele>
<time>2010-06-20T14:26:53Z</time>
<desc>lat.=55.900272, lon.=26.529013, Alt.=106.629944m. Speed=0.468000m/h.</desc>
<speed>0.130000</speed>
</trkpt>
<trkpt lat="55.900272" lon="26.529013">
<ele>106.631897</ele>
<time>2010-06-20T14:26:54Z</time>
<desc>lat.=55.900272, lon.=26.529013, Alt.=106.631897m. Speed=0.828000m/h.</desc>
<speed>0.230000</speed>
</trkpt>
<trkpt lat="55.900272" lon="26.529011">
<ele>106.633850</ele>
<time>2010-06-20T14:26:55Z</time>
<desc>lat.=55.900272, lon.=26.529011, Alt.=106.633850m. Speed=1.152000m/h.</desc>
<speed>0.320000</speed>
</trkpt>
<trkpt lat="55.900280" lon="26.529001">
<ele>106.641663</ele>
<time>2010-06-20T14:26:56Z</time>
<desc>lat.=55.900280, lon.=26.529001, Alt.=106.641663m. Speed=0.864000m/h.</desc>
<speed>0.240000</speed>
</trkpt>
<trkpt lat="55.900284" lon="26.528988">
<ele>106.616272</ele>
<time>2010-06-20T14:26:57Z</time>
<desc>lat.=55.900284, lon.=26.528988, Alt.=106.616272m. Speed=1.080000m/h.</desc>
<speed>0.300000</speed>
</trkpt>
<trkpt lat="55.900291" lon="26.528969">
<ele>106.571350</ele>
<time>2010-06-20T14:26:58Z</time>
<desc>lat.=55.900291, lon.=26.528969, Alt.=106.571350m. Speed=1.368000m/h.</desc>
<speed>0.380000</speed>
</trkpt>
<trkpt lat="55.900295" lon="26.528955">
<ele>106.555725</ele>
<time>2010-06-20T14:26:59Z</time>
<desc>lat.=55.900295, lon.=26.528955, Alt.=106.555725m. Speed=1.584000m/h.</desc>
<speed>0.440000</speed>
</trkpt>
<trkpt lat="55.900295" lon="26.528952">
<ele>106.569397</ele>
<time>2010-06-20T14:27:00Z</time>
<desc>lat.=55.900295, lon.=26.528952, Alt.=106.569397m. Speed=1.080000m/h.</desc>
<speed>0.300000</speed>
</trkpt>
<trkpt lat="55.900295" lon="26.528944">
<ele>106.573303</ele>
<time>2010-06-20T14:27:01Z</time>
<desc>lat.=55.900295, lon.=26.528944, Alt.=106.573303m. Speed=1.080000m/h.</desc>
<speed>0.300000</speed>
</trkpt>
<trkpt lat="55.900303" lon="26.528936">
<ele>106.592834</ele>
<time>2010-06-20T14:27:02Z</time>
<desc>lat.=55.900303, lon.=26.528936, Alt.=106.592834m. Speed=1.188000m/h.</desc>
<speed>0.330000</speed>
</trkpt>
<trkpt lat="55.900299" lon="26.528957">
<ele>106.577209</ele>
<time>2010-06-20T14:27:03Z</time>
<desc>lat.=55.900299, lon.=26.528957, Alt.=106.577209m. Speed=0.324000m/h.</desc>
<speed>0.090000</speed>
</trkpt>
<trkpt lat="55.900299" lon="26.528975">
<ele>106.583069</ele>
<time>2010-06-20T14:27:04Z</time>
<desc>lat.=55.900299, lon.=26.528975, Alt.=106.583069m. Speed=0.648000m/h.</desc>
<speed>0.180000</speed>
</trkpt>
<trkpt lat="55.900299" lon="26.528986">
<ele>106.577209</ele>
<time>2010-06-20T14:27:05Z</time>
<desc>lat.=55.900299, lon.=26.528986, Alt.=106.577209m. Speed=0.648000m/h.</desc>
<speed>0.180000</speed>
</trkpt>
<trkpt lat="55.900303" lon="26.528980">
<ele>106.569397</ele>
<time>2010-06-20T14:27:06Z</time>
<desc>lat.=55.900303, lon.=26.528980, Alt.=106.569397m. Speed=0.108000m/h.</desc>
<speed>0.030000</speed>
</trkpt>
<trkpt lat="55.900303" lon="26.528980">
<ele>106.571350</ele>
<time>2010-06-20T14:27:07Z</time>
<desc>lat.=55.900303, lon.=26.528980, Alt.=106.571350m. Speed=0.252000m/h.</desc>
<speed>0.070000</speed>
</trkpt>
<trkpt lat="55.900303" lon="26.528980">
<ele>106.573303</ele>
<time>2010-06-20T14:27:08Z</time>
<desc>lat.=55.900303, lon.=26.528980, Alt.=106.573303m. Speed=0.324000m/h.</desc>
<speed>0.090000</speed>
</trkpt>
<trkpt lat="55.900303" lon="26.528980">
<ele>106.573303</ele>
<time>2010-06-20T14:27:09Z</time>
<desc>lat.=55.900303, lon.=26.528980, Alt.=106.573303m. Speed=0.540000m/h.</desc>
<speed>0.150000</speed>
</trkpt>
<trkpt lat="55.900303" lon="26.528980">
<ele>106.573303</ele>
<time>2010-06-20T14:27:10Z</time>
<desc>lat.=55.900303, lon.=26.528980, Alt.=106.573303m. Speed=0.288000m/h.</desc>
<speed>0.080000</speed>
</trkpt>
<trkpt lat="55.900303" lon="26.528980">
<ele>106.571350</ele>
<time>2010-06-20T14:27:11Z</time>
<desc>lat.=55.900303, lon.=26.528980, Alt.=106.571350m. Speed=0.576000m/h.</desc>
<speed>0.160000</speed>
</trkpt>
<trkpt lat="55.900303" lon="26.528984">
<ele>106.571350</ele>
<time>2010-06-20T14:27:12Z</time>
<desc>lat.=55.900303, lon.=26.528984, Alt.=106.571350m. Speed=0.648000m/h.</desc>
<speed>0.180000</speed>
</trkpt>
<trkpt lat="55.900303" lon="26.528986">
<ele>106.571350</ele>
<time>2010-06-20T14:27:13Z</time>
<desc>lat.=55.900303, lon.=26.528986, Alt.=106.571350m. Speed=0.900000m/h.</desc>
<speed>0.250000</speed>
</trkpt>
<trkpt lat="55.900307" lon="26.528988">
<ele>106.571350</ele>
<time>2010-06-20T14:27:14Z</time>
<desc>lat.=55.900307, lon.=26.528988, Alt.=106.571350m. Speed=0.324000m/h.</desc>
<speed>0.090000</speed>
</trkpt>
<trkpt lat="55.900307" lon="26.528990">
<ele>106.571350</ele>
<time>2010-06-20T14:27:15Z</time>
<desc>lat.=55.900307, lon.=26.528990, Alt.=106.571350m. Speed=0.576000m/h.</desc>
<speed>0.160000</speed>
</trkpt>
<trkpt lat="55.900307" lon="26.528992">
<ele>106.569397</ele>
<time>2010-06-20T14:27:16Z</time>
<desc>lat.=55.900307, lon.=26.528992, Alt.=106.569397m. Speed=0.504000m/h.</desc>
<speed>0.140000</speed>
</trkpt>
<trkpt lat="55.900307" lon="26.528994">
<ele>106.569397</ele>
<time>2010-06-20T14:27:17Z</time>
<desc>lat.=55.900307, lon.=26.528994, Alt.=106.569397m. Speed=0.864000m/h.</desc>
<speed>0.240000</speed>
</trkpt>
<trkpt lat="55.900303" lon="26.528997">
<ele>106.567444</ele>
<time>2010-06-20T14:27:18Z</time>
<desc>lat.=55.900303, lon.=26.528997, Alt.=106.567444m. Speed=1.260000m/h.</desc>
<speed>0.350000</speed>
</trkpt>
<trkpt lat="55.900311" lon="26.528988">
<ele>106.524475</ele>
<time>2010-06-20T14:27:19Z</time>
<desc>lat.=55.900311, lon.=26.528988, Alt.=106.524475m. Speed=0.576000m/h.</desc>
<speed>0.160000</speed>
</trkpt>
<trkpt lat="55.900311" lon="26.528990">
<ele>106.557678</ele>
<time>2010-06-20T14:27:20Z</time>
<desc>lat.=55.900311, lon.=26.528990, Alt.=106.557678m. Speed=0.540000m/h.</desc>
<speed>0.150000</speed>
</trkpt>
<trkpt lat="55.900307" lon="26.529005">
<ele>106.594788</ele>
<time>2010-06-20T14:27:21Z</time>
<desc>lat.=55.900307, lon.=26.529005, Alt.=106.594788m. Speed=1.080000m/h.</desc>
<speed>0.300000</speed>
</trkpt>
<trkpt lat="55.900307" lon="26.529013">
<ele>106.647522</ele>
<time>2010-06-20T14:27:22Z</time>
<desc>lat.=55.900307, lon.=26.529013, Alt.=106.647522m. Speed=1.224000m/h.</desc>
<speed>0.340000</speed>
</trkpt>
<trkpt lat="55.900307" lon="26.529013">
<ele>106.708069</ele>
<time>2010-06-20T14:27:23Z</time>
<desc>lat.=55.900307, lon.=26.529013, Alt.=106.708069m. Speed=1.152000m/h.</desc>
<speed>0.320000</speed>
</trkpt>
<trkpt lat="55.900299" lon="26.529011">
<ele>106.766663</ele>
<time>2010-06-20T14:27:24Z</time>
<desc>lat.=55.900299, lon.=26.529011, Alt.=106.766663m. Speed=1.584000m/h.</desc>
<speed>0.440000</speed>
</trkpt>
<trkpt lat="55.900295" lon="26.529001">
<ele>106.807678</ele>
<time>2010-06-20T14:27:25Z</time>
<desc>lat.=55.900295, lon.=26.529001, Alt.=106.807678m. Speed=1.296000m/h.</desc>
<speed>0.360000</speed>
</trkpt>
<trkpt lat="55.900291" lon="26.529015">
<ele>106.811584</ele>
<time>2010-06-20T14:27:26Z</time>
<desc>lat.=55.900291, lon.=26.529015, Alt.=106.811584m. Speed=1.368000m/h.</desc>
<speed>0.380000</speed>
</trkpt>
<trkpt lat="55.900280" lon="26.529036">
<ele>106.817444</ele>
<time>2010-06-20T14:27:27Z</time>
<desc>lat.=55.900280, lon.=26.529036, Alt.=106.817444m. Speed=2.088000m/h.</desc>
<speed>0.580000</speed>
</trkpt>
<trkpt lat="55.900284" lon="26.529018">
<ele>106.811584</ele>
<time>2010-06-20T14:27:28Z</time>
<desc>lat.=55.900284, lon.=26.529018, Alt.=106.811584m. Speed=1.152000m/h.</desc>
<speed>0.320000</speed>
</trkpt>
<trkpt lat="55.900284" lon="26.528997">
<ele>106.852600</ele>
<time>2010-06-20T14:27:29Z</time>
<desc>lat.=55.900284, lon.=26.528997, Alt.=106.852600m. Speed=0.504000m/h.</desc>
<speed>0.140000</speed>
</trkpt>
<trkpt lat="55.900291" lon="26.528996">
<ele>106.897522</ele>
<time>2010-06-20T14:27:30Z</time>
<desc>lat.=55.900291, lon.=26.528996, Alt.=106.897522m. Speed=0.360000m/h.</desc>
<speed>0.100000</speed>
</trkpt>
<trkpt lat="55.900303" lon="26.528984">
<ele>107.210022</ele>
<time>2010-06-20T14:27:31Z</time>
<desc>lat.=55.900303, lon.=26.528984, Alt.=107.210022m. Speed=1.152000m/h.</desc>
<speed>0.320000</speed>
</trkpt>
<trkpt lat="55.900314" lon="26.528959">
<ele>107.225647</ele>
<time>2010-06-20T14:27:32Z</time>
<desc>lat.=55.900314, lon.=26.528959, Alt.=107.225647m. Speed=1.836000m/h.</desc>
<speed>0.510000</speed>
</trkpt>
<trkpt lat="55.900314" lon="26.528940">
<ele>107.223694</ele>
<time>2010-06-20T14:27:33Z</time>
<desc>lat.=55.900314, lon.=26.528940, Alt.=107.223694m. Speed=1.512000m/h.</desc>
<speed>0.420000</speed>
</trkpt>
<trkpt lat="55.900314" lon="26.528931">
<ele>107.192444</ele>
<time>2010-06-20T14:27:34Z</time>
<desc>lat.=55.900314, lon.=26.528931, Alt.=107.192444m. Speed=1.116000m/h.</desc>
<speed>0.310000</speed>
</trkpt>
<trkpt lat="55.900318" lon="26.528919">
<ele>107.170959</ele>
<time>2010-06-20T14:27:35Z</time>
<desc>lat.=55.900318, lon.=26.528919, Alt.=107.170959m. Speed=1.260000m/h.</desc>
<speed>0.350000</speed>
</trkpt>
<trkpt lat="55.900330" lon="26.528896">
<ele>107.180725</ele>
<time>2010-06-20T14:27:36Z</time>
<desc>lat.=55.900330, lon.=26.528896, Alt.=107.180725m. Speed=1.944000m/h.</desc>
<speed>0.540000</speed>
</trkpt>
<trkpt lat="55.900345" lon="26.528864">
<ele>107.159241</ele>
<time>2010-06-20T14:27:37Z</time>
<desc>lat.=55.900345, lon.=26.528864, Alt.=107.159241m. Speed=2.736000m/h.</desc>
<speed>0.760000</speed>
</trkpt>
<trkpt lat="55.900356" lon="26.528837">
<ele>107.139709</ele>
<time>2010-06-20T14:27:38Z</time>
<desc>lat.=55.900356, lon.=26.528837, Alt.=107.139709m. Speed=3.204000m/h.</desc>
<speed>0.890000</speed>
</trkpt>
<trkpt lat="55.900349" lon="26.528831">
<ele>107.122131</ele>
<time>2010-06-20T14:27:39Z</time>
<desc>lat.=55.900349, lon.=26.528831, Alt.=107.122131m. Speed=2.484000m/h.</desc>
<speed>0.690000</speed>
</trkpt>
<trkpt lat="55.900345" lon="26.528831">
<ele>107.079163</ele>
<time>2010-06-20T14:27:40Z</time>
<desc>lat.=55.900345, lon.=26.528831, Alt.=107.079163m. Speed=1.908000m/h.</desc>
<speed>0.530000</speed>
</trkpt>
<trkpt lat="55.900345" lon="26.528822">
<ele>107.032288</ele>
<time>2010-06-20T14:27:41Z</time>
<desc>lat.=55.900345, lon.=26.528822, Alt.=107.032288m. Speed=1.872000m/h.</desc>
<speed>0.520000</speed>
</trkpt>
<trkpt lat="55.900341" lon="26.528831">
<ele>107.012756</ele>
<time>2010-06-20T14:27:42Z</time>
<desc>lat.=55.900341, lon.=26.528831, Alt.=107.012756m. Speed=1.224000m/h.</desc>
<speed>0.340000</speed>
</trkpt>
<trkpt lat="55.900333" lon="26.528841">
<ele>106.969788</ele>
<time>2010-06-20T14:27:43Z</time>
<desc>lat.=55.900333, lon.=26.528841, Alt.=106.969788m. Speed=0.900000m/h.</desc>
<speed>0.250000</speed>
</trkpt>
<trkpt lat="55.900322" lon="26.528847">
<ele>106.797913</ele>
<time>2010-06-20T14:27:44Z</time>
<desc>lat.=55.900322, lon.=26.528847, Alt.=106.797913m. Speed=0.504000m/h.</desc>
<speed>0.140000</speed>
</trkpt>
<trkpt lat="55.900314" lon="26.528860">
<ele>106.710022</ele>
<time>2010-06-20T14:27:45Z</time>
<desc>lat.=55.900314, lon.=26.528860, Alt.=106.710022m. Speed=0.396000m/h.</desc>
<speed>0.110000</speed>
</trkpt>
<trkpt lat="55.900311" lon="26.528868">
<ele>106.721741</ele>
<time>2010-06-20T14:27:46Z</time>
<desc>lat.=55.900311, lon.=26.528868, Alt.=106.721741m. Speed=0.252000m/h.</desc>
<speed>0.070000</speed>
</trkpt>
<trkpt lat="55.900311" lon="26.528868">
<ele>106.719788</ele>
<time>2010-06-20T14:27:47Z</time>
<desc>lat.=55.900311, lon.=26.528868, Alt.=106.719788m. Speed=0.432000m/h.</desc>
<speed>0.120000</speed>
</trkpt>
<trkpt lat="55.900307" lon="26.528870">
<ele>106.719788</ele>
<time>2010-06-20T14:27:48Z</time>
<desc>lat.=55.900307, lon.=26.528870, Alt.=106.719788m. Speed=0.684000m/h.</desc>
<speed>0.190000</speed>
</trkpt>
<trkpt lat="55.900307" lon="26.528873">
<ele>106.717834</ele>
<time>2010-06-20T14:27:49Z</time>
<desc>lat.=55.900307, lon.=26.528873, Alt.=106.717834m. Speed=0.936000m/h.</desc>
<speed>0.260000</speed>
</trkpt>
<trkpt lat="55.900307" lon="26.528877">
<ele>106.719788</ele>
<time>2010-06-20T14:27:50Z</time>
<desc>lat.=55.900307, lon.=26.528877, Alt.=106.719788m. Speed=0.504000m/h.</desc>
<speed>0.140000</speed>
</trkpt>
<trkpt lat="55.900307" lon="26.528879">
<ele>106.719788</ele>
<time>2010-06-20T14:27:51Z</time>
<desc>lat.=55.900307, lon.=26.528879, Alt.=106.719788m. Speed=0.252000m/h.</desc>
<speed>0.070000</speed>
</trkpt>
<trkpt lat="55.900307" lon="26.528879">
<ele>106.719788</ele>
<time>2010-06-20T14:27:52Z</time>
<desc>lat.=55.900307, lon.=26.528879, Alt.=106.719788m. Speed=0.288000m/h.</desc>
<speed>0.080000</speed>
</trkpt>
<trkpt lat="55.900307" lon="26.528881">
<ele>106.719788</ele>
<time>2010-06-20T14:27:53Z</time>
<desc>lat.=55.900307, lon.=26.528881, Alt.=106.719788m. Speed=1.080000m/h.</desc>
<speed>0.300000</speed>
</trkpt>
<trkpt lat="55.900299" lon="26.528891">
<ele>106.815491</ele>
<time>2010-06-20T14:27:54Z</time>
<desc>lat.=55.900299, lon.=26.528891, Alt.=106.815491m. Speed=1.548000m/h.</desc>
<speed>0.430000</speed>
</trkpt>
<trkpt lat="55.900299" lon="26.528904">
<ele>106.917053</ele>
<time>2010-06-20T14:27:55Z</time>
<desc>lat.=55.900299, lon.=26.528904, Alt.=106.917053m. Speed=1.728000m/h.</desc>
<speed>0.480000</speed>
</trkpt>
<trkpt lat="55.900295" lon="26.528913">
<ele>106.940491</ele>
<time>2010-06-20T14:27:56Z</time>
<desc>lat.=55.900295, lon.=26.528913, Alt.=106.940491m. Speed=1.764000m/h.</desc>
<speed>0.490000</speed>
</trkpt>
<trkpt lat="55.900295" lon="26.528913">
<ele>106.920959</ele>
<time>2010-06-20T14:27:57Z</time>
<desc>lat.=55.900295, lon.=26.528913, Alt.=106.920959m. Speed=1.368000m/h.</desc>
<speed>0.380000</speed>
</trkpt>
<trkpt lat="55.900291" lon="26.528919">
<ele>106.889709</ele>
<time>2010-06-20T14:27:58Z</time>
<desc>lat.=55.900291, lon.=26.528919, Alt.=106.889709m. Speed=1.332000m/h.</desc>
<speed>0.370000</speed>
</trkpt>
<trkpt lat="55.900284" lon="26.528933">
<ele>106.883850</ele>
<time>2010-06-20T14:27:59Z</time>
<desc>lat.=55.900284, lon.=26.528933, Alt.=106.883850m. Speed=1.728000m/h.</desc>
<speed>0.480000</speed>
</trkpt>
<trkpt lat="55.900284" lon="26.528929">
<ele>106.971741</ele>
<time>2010-06-20T14:28:00Z</time>
<desc>lat.=55.900284, lon.=26.528929, Alt.=106.971741m. Speed=1.584000m/h.</desc>
<speed>0.440000</speed>
</trkpt>
<trkpt lat="55.900280" lon="26.528915">
<ele>106.971741</ele>
<time>2010-06-20T14:28:01Z</time>
<desc>lat.=55.900280, lon.=26.528915, Alt.=106.971741m. Speed=1.044000m/h.</desc>
<speed>0.290000</speed>
</trkpt>
<trkpt lat="55.900284" lon="26.528904">
<ele>106.983459</ele>
<time>2010-06-20T14:28:02Z</time>
<desc>lat.=55.900284, lon.=26.528904, Alt.=106.983459m. Speed=0.648000m/h.</desc>
<speed>0.180000</speed>
</trkpt>
<trkpt lat="55.900284" lon="26.528894">
<ele>106.997131</ele>
<time>2010-06-20T14:28:03Z</time>
<desc>lat.=55.900284, lon.=26.528894, Alt.=106.997131m. Speed=0.432000m/h.</desc>
<speed>0.120000</speed>
</trkpt>
<trkpt lat="55.900280" lon="26.528891">
<ele>107.028381</ele>
<time>2010-06-20T14:28:04Z</time>
<desc>lat.=55.900280, lon.=26.528891, Alt.=107.028381m. Speed=0.432000m/h.</desc>
<speed>0.120000</speed>
</trkpt>
<trkpt lat="55.900280" lon="26.528893">
<ele>107.030334</ele>
<time>2010-06-20T14:28:05Z</time>
<desc>lat.=55.900280, lon.=26.528893, Alt.=107.030334m. Speed=0.360000m/h.</desc>
<speed>0.100000</speed>
</trkpt>
<trkpt lat="55.900280" lon="26.528894">
<ele>107.032288</ele>
<time>2010-06-20T14:28:06Z</time>
<desc>lat.=55.900280, lon.=26.528894, Alt.=107.032288m. Speed=0.828000m/h.</desc>
<speed>0.230000</speed>
</trkpt>
<trkpt lat="55.900276" lon="26.528894">
<ele>107.036194</ele>
<time>2010-06-20T14:28:07Z</time>
<desc>lat.=55.900276, lon.=26.528894, Alt.=107.036194m. Speed=0.828000m/h.</desc>
<speed>0.230000</speed>
</trkpt>
<trkpt lat="55.900276" lon="26.528894">
<ele>107.040100</ele>
<time>2010-06-20T14:28:08Z</time>
<desc>lat.=55.900276, lon.=26.528894, Alt.=107.040100m. Speed=0.684000m/h.</desc>
<speed>0.190000</speed>
</trkpt>
<trkpt lat="55.900272" lon="26.528894">
<ele>107.042053</ele>
<time>2010-06-20T14:28:09Z</time>
<desc>lat.=55.900272, lon.=26.528894, Alt.=107.042053m. Speed=0.468000m/h.</desc>
<speed>0.130000</speed>
</trkpt>
<trkpt lat="55.900272" lon="26.528893">
<ele>107.045959</ele>
<time>2010-06-20T14:28:10Z</time>
<desc>lat.=55.900272, lon.=26.528893, Alt.=107.045959m. Speed=0.648000m/h.</desc>
<speed>0.180000</speed>
</trkpt>
<trkpt lat="55.900269" lon="26.528893">
<ele>107.047913</ele>
<time>2010-06-20T14:28:11Z</time>
<desc>lat.=55.900269, lon.=26.528893, Alt.=107.047913m. Speed=0.252000m/h.</desc>
<speed>0.070000</speed>
</trkpt>
<trkpt lat="55.900269" lon="26.528893">
<ele>107.049866</ele>
<time>2010-06-20T14:28:12Z</time>
<desc>lat.=55.900269, lon.=26.528893, Alt.=107.049866m. Speed=0.360000m/h.</desc>
<speed>0.100000</speed>
</trkpt>
<trkpt lat="55.900269" lon="26.528893">
<ele>107.051819</ele>
<time>2010-06-20T14:28:13Z</time>
<desc>lat.=55.900269, lon.=26.528893, Alt.=107.051819m. Speed=0.288000m/h.</desc>
<speed>0.080000</speed>
</trkpt>
<trkpt lat="55.900269" lon="26.528891">
<ele>107.053772</ele>
<time>2010-06-20T14:28:14Z</time>
<desc>lat.=55.900269, lon.=26.528891, Alt.=107.053772m. Speed=0.144000m/h.</desc>
<speed>0.040000</speed>
</trkpt>
<trkpt lat="55.900269" lon="26.528891">
<ele>107.057678</ele>
<time>2010-06-20T14:28:15Z</time>
<desc>lat.=55.900269, lon.=26.528891, Alt.=107.057678m. Speed=0.288000m/h.</desc>
<speed>0.080000</speed>
</trkpt>
<trkpt lat="55.900269" lon="26.528891">
<ele>107.061584</ele>
<time>2010-06-20T14:28:16Z</time>
<desc>lat.=55.900269, lon.=26.528891, Alt.=107.061584m. Speed=0.288000m/h.</desc>
<speed>0.080000</speed>
</trkpt>
<trkpt lat="55.900269" lon="26.528891">
<ele>107.063538</ele>
<time>2010-06-20T14:28:17Z</time>
<desc>lat.=55.900269, lon.=26.528891, Alt.=107.063538m. Speed=0.288000m/h.</desc>
<speed>0.080000</speed>
</trkpt>
<trkpt lat="55.900265" lon="26.528891">
<ele>107.065491</ele>
<time>2010-06-20T14:28:18Z</time>
<desc>lat.=55.900265, lon.=26.528891, Alt.=107.065491m. Speed=0.432000m/h.</desc>
<speed>0.120000</speed>
</trkpt>
<trkpt lat="55.900265" lon="26.528891">
<ele>107.069397</ele>
<time>2010-06-20T14:28:19Z</time>
<desc>lat.=55.900265, lon.=26.528891, Alt.=107.069397m. Speed=0.144000m/h.</desc>
<speed>0.040000</speed>
</trkpt>
<trkpt lat="55.900265" lon="26.528893">
<ele>107.071350</ele>
<time>2010-06-20T14:28:20Z</time>
<desc>lat.=55.900265, lon.=26.528893, Alt.=107.071350m. Speed=0.684000m/h.</desc>
<speed>0.190000</speed>
</trkpt>
<trkpt lat="55.900269" lon="26.528894">
<ele>107.073303</ele>
<time>2010-06-20T14:28:21Z</time>
<desc>lat.=55.900269, lon.=26.528894, Alt.=107.073303m. Speed=0.972000m/h.</desc>
<speed>0.270000</speed>
</trkpt>
<trkpt lat="55.900269" lon="26.528898">
<ele>107.075256</ele>
<time>2010-06-20T14:28:22Z</time>
<desc>lat.=55.900269, lon.=26.528898, Alt.=107.075256m. Speed=0.612000m/h.</desc>
<speed>0.170000</speed>
</trkpt>
<trkpt lat="55.900269" lon="26.528900">
<ele>107.075256</ele>
<time>2010-06-20T14:28:23Z</time>
<desc>lat.=55.900269, lon.=26.528900, Alt.=107.075256m. Speed=0.864000m/h.</desc>
<speed>0.240000</speed>
</trkpt>
<trkpt lat="55.900265" lon="26.528904">
<ele>107.077209</ele>
<time>2010-06-20T14:28:24Z</time>
<desc>lat.=55.900265, lon.=26.528904, Alt.=107.077209m. Speed=0.216000m/h.</desc>
<speed>0.060000</speed>
</trkpt>
<trkpt lat="55.900265" lon="26.528904">
<ele>107.079163</ele>
<time>2010-06-20T14:28:25Z</time>
<desc>lat.=55.900265, lon.=26.528904, Alt.=107.079163m. Speed=0.540000m/h.</desc>
<speed>0.150000</speed>
</trkpt>
<trkpt lat="55.900265" lon="26.528902">
<ele>107.079163</ele>
<time>2010-06-20T14:28:26Z</time>
<desc>lat.=55.900265, lon.=26.528902, Alt.=107.079163m. Speed=0.180000m/h.</desc>
<speed>0.050000</speed>
</trkpt>
<trkpt lat="55.900265" lon="26.528902">
<ele>107.081116</ele>
<time>2010-06-20T14:28:27Z</time>
<desc>lat.=55.900265, lon.=26.528902, Alt.=107.081116m. Speed=0.576000m/h.</desc>
<speed>0.160000</speed>
</trkpt>
<trkpt lat="55.900265" lon="26.528898">
<ele>107.081116</ele>
<time>2010-06-20T14:28:28Z</time>
<desc>lat.=55.900265, lon.=26.528898, Alt.=107.081116m. Speed=0.288000m/h.</desc>
<speed>0.080000</speed>
</trkpt>
<trkpt lat="55.900265" lon="26.528898">
<ele>107.083069</ele>
<time>2010-06-20T14:28:29Z</time>
<desc>lat.=55.900265, lon.=26.528898, Alt.=107.083069m. Speed=0.072000m/h.</desc>
<speed>0.020000</speed>
</trkpt>
<trkpt lat="55.900265" lon="26.528898">
<ele>107.083069</ele>
<time>2010-06-20T14:28:30Z</time>
<desc>lat.=55.900265, lon.=26.528898, Alt.=107.083069m. Speed=0.756000m/h.</desc>
<speed>0.210000</speed>
</trkpt>
<trkpt lat="55.900265" lon="26.528894">
<ele>107.085022</ele>
<time>2010-06-20T14:28:31Z</time>
<desc>lat.=55.900265, lon.=26.528894, Alt.=107.085022m. Speed=0.756000m/h.</desc>
<speed>0.210000</speed>
</trkpt>
<trkpt lat="55.900265" lon="26.528891">
<ele>107.085022</ele>
<time>2010-06-20T14:28:32Z</time>
<desc>lat.=55.900265, lon.=26.528891, Alt.=107.085022m. Speed=0.540000m/h.</desc>
<speed>0.150000</speed>
</trkpt>
<trkpt lat="55.900265" lon="26.528889">
<ele>107.086975</ele>
<time>2010-06-20T14:28:33Z</time>
<desc>lat.=55.900265, lon.=26.528889, Alt.=107.086975m. Speed=0.612000m/h.</desc>
<speed>0.170000</speed>
</trkpt>
<trkpt lat="55.900265" lon="26.528887">
<ele>107.086975</ele>
<time>2010-06-20T14:28:34Z</time>
<desc>lat.=55.900265, lon.=26.528887, Alt.=107.086975m. Speed=1.008000m/h.</desc>
<speed>0.280000</speed>
</trkpt>
<trkpt lat="55.900265" lon="26.528883">
<ele>107.088928</ele>
<time>2010-06-20T14:28:35Z</time>
<desc>lat.=55.900265, lon.=26.528883, Alt.=107.088928m. Speed=0.756000m/h.</desc>
<speed>0.210000</speed>
</trkpt>
<trkpt lat="55.900269" lon="26.528879">
<ele>107.090881</ele>
<time>2010-06-20T14:28:36Z</time>
<desc>lat.=55.900269, lon.=26.528879, Alt.=107.090881m. Speed=0.684000m/h.</desc>
<speed>0.190000</speed>
</trkpt>
<trkpt lat="55.900269" lon="26.528877">
<ele>107.092834</ele>
<time>2010-06-20T14:28:37Z</time>
<desc>lat.=55.900269, lon.=26.528877, Alt.=107.092834m. Speed=0.252000m/h.</desc>
<speed>0.070000</speed>
</trkpt>
<trkpt lat="55.900269" lon="26.528879">
<ele>107.092834</ele>
<time>2010-06-20T14:28:38Z</time>
<desc>lat.=55.900269, lon.=26.528879, Alt.=107.092834m. Speed=0.360000m/h.</desc>
<speed>0.100000</speed>
</trkpt>
<trkpt lat="55.900269" lon="26.528879">
<ele>107.094788</ele>
<time>2010-06-20T14:28:39Z</time>
<desc>lat.=55.900269, lon.=26.528879, Alt.=107.094788m. Speed=1.044000m/h.</desc>
<speed>0.290000</speed>
</trkpt>
<trkpt lat="55.900269" lon="26.528883">
<ele>107.094788</ele>
<time>2010-06-20T14:28:40Z</time>
<desc>lat.=55.900269, lon.=26.528883, Alt.=107.094788m. Speed=1.152000m/h.</desc>
<speed>0.320000</speed>
</trkpt>
<trkpt lat="55.900265" lon="26.528879">
<ele>107.055725</ele>
<time>2010-06-20T14:28:41Z</time>
<desc>lat.=55.900265, lon.=26.528879, Alt.=107.055725m. Speed=0.720000m/h.</desc>
<speed>0.200000</speed>
</trkpt>
<trkpt lat="55.900261" lon="26.528881">
<ele>107.053772</ele>
<time>2010-06-20T14:28:42Z</time>
<desc>lat.=55.900261, lon.=26.528881, Alt.=107.053772m. Speed=0.828000m/h.</desc>
<speed>0.230000</speed>
</trkpt>
<trkpt lat="55.900265" lon="26.528881">
<ele>107.063538</ele>
<time>2010-06-20T14:28:43Z</time>
<desc>lat.=55.900265, lon.=26.528881, Alt.=107.063538m. Speed=0.324000m/h.</desc>
<speed>0.090000</speed>
</trkpt>
<trkpt lat="55.900265" lon="26.528881">
<ele>107.116272</ele>
<time>2010-06-20T14:28:44Z</time>
<desc>lat.=55.900265, lon.=26.528881, Alt.=107.116272m. Speed=0.396000m/h.</desc>
<speed>0.110000</speed>
</trkpt>
<trkpt lat="55.900265" lon="26.528883">
<ele>107.116272</ele>
<time>2010-06-20T14:28:45Z</time>
<desc>lat.=55.900265, lon.=26.528883, Alt.=107.116272m. Speed=0.900000m/h.</desc>
<speed>0.250000</speed>
</trkpt>
<trkpt lat="55.900265" lon="26.528889">
<ele>107.116272</ele>
<time>2010-06-20T14:28:46Z</time>
<desc>lat.=55.900265, lon.=26.528889, Alt.=107.116272m. Speed=1.224000m/h.</desc>
<speed>0.340000</speed>
</trkpt>
<trkpt lat="55.900269" lon="26.528896">
<ele>107.159241</ele>
<time>2010-06-20T14:28:47Z</time>
<desc>lat.=55.900269, lon.=26.528896, Alt.=107.159241m. Speed=1.260000m/h.</desc>
<speed>0.350000</speed>
</trkpt>
<trkpt lat="55.900265" lon="26.528913">
<ele>107.208069</ele>
<time>2010-06-20T14:28:48Z</time>
<desc>lat.=55.900265, lon.=26.528913, Alt.=107.208069m. Speed=1.800000m/h.</desc>
<speed>0.500000</speed>
</trkpt>
<trkpt lat="55.900272" lon="26.528906">
<ele>107.278381</ele>
<time>2010-06-20T14:28:49Z</time>
<desc>lat.=55.900272, lon.=26.528906, Alt.=107.278381m. Speed=0.828000m/h.</desc>
<speed>0.230000</speed>
</trkpt>
<trkpt lat="55.900276" lon="26.528898">
<ele>107.354553</ele>
<time>2010-06-20T14:28:50Z</time>
<desc>lat.=55.900276, lon.=26.528898, Alt.=107.354553m. Speed=0.252000m/h.</desc>
<speed>0.070000</speed>
</trkpt>
<trkpt lat="55.900276" lon="26.528906">
<ele>107.545959</ele>
<time>2010-06-20T14:28:51Z</time>
<desc>lat.=55.900276, lon.=26.528906, Alt.=107.545959m. Speed=0.180000m/h.</desc>
<speed>0.050000</speed>
</trkpt>
<trkpt lat="55.900272" lon="26.528923">
<ele>107.592834</ele>
<time>2010-06-20T14:28:52Z</time>
<desc>lat.=55.900272, lon.=26.528923, Alt.=107.592834m. Speed=1.044000m/h.</desc>
<speed>0.290000</speed>
</trkpt>
<trkpt lat="55.900272" lon="26.528929">
<ele>107.594788</ele>
<time>2010-06-20T14:28:53Z</time>
<desc>lat.=55.900272, lon.=26.528929, Alt.=107.594788m. Speed=1.008000m/h.</desc>
<speed>0.280000</speed>
</trkpt>
<trkpt lat="55.900272" lon="26.528933">
<ele>107.594788</ele>
<time>2010-06-20T14:28:54Z</time>
<desc>lat.=55.900272, lon.=26.528933, Alt.=107.594788m. Speed=0.360000m/h.</desc>
<speed>0.100000</speed>
</trkpt>
<trkpt lat="55.900272" lon="26.528933">
<ele>107.590881</ele>
<time>2010-06-20T14:28:55Z</time>
<desc>lat.=55.900272, lon.=26.528933, Alt.=107.590881m. Speed=0.576000m/h.</desc>
<speed>0.160000</speed>
</trkpt>
<trkpt lat="55.900269" lon="26.528933">
<ele>107.588928</ele>
<time>2010-06-20T14:28:56Z</time>
<desc>lat.=55.900269, lon.=26.528933, Alt.=107.588928m. Speed=0.756000m/h.</desc>
<speed>0.210000</speed>
</trkpt>
<trkpt lat="55.900269" lon="26.528931">
<ele>107.585022</ele>
<time>2010-06-20T14:28:57Z</time>
<desc>lat.=55.900269, lon.=26.528931, Alt.=107.585022m. Speed=0.756000m/h.</desc>
<speed>0.210000</speed>
</trkpt>
<trkpt lat="55.900269" lon="26.528927">
<ele>107.583069</ele>
<time>2010-06-20T14:28:58Z</time>
<desc>lat.=55.900269, lon.=26.528927, Alt.=107.583069m. Speed=1.296000m/h.</desc>
<speed>0.360000</speed>
</trkpt>
<trkpt lat="55.900265" lon="26.528929">
<ele>107.555725</ele>
<time>2010-06-20T14:28:59Z</time>
<desc>lat.=55.900265, lon.=26.528929, Alt.=107.555725m. Speed=1.044000m/h.</desc>
<speed>0.290000</speed>
</trkpt>
<trkpt lat="55.900265" lon="26.528929">
<ele>107.428772</ele>
<time>2010-06-20T14:29:00Z</time>
<desc>lat.=55.900265, lon.=26.528929, Alt.=107.428772m. Speed=0.828000m/h.</desc>
<speed>0.230000</speed>
</trkpt>
<trkpt lat="55.900261" lon="26.528927">
<ele>107.377991</ele>
<time>2010-06-20T14:29:01Z</time>
<desc>lat.=55.900261, lon.=26.528927, Alt.=107.377991m. Speed=1.116000m/h.</desc>
<speed>0.310000</speed>
</trkpt>
<trkpt lat="55.900261" lon="26.528921">
<ele>107.393616</ele>
<time>2010-06-20T14:29:02Z</time>
<desc>lat.=55.900261, lon.=26.528921, Alt.=107.393616m. Speed=1.476000m/h.</desc>
<speed>0.410000</speed>
</trkpt>
<trkpt lat="55.900253" lon="26.528929">
<ele>107.368225</ele>
<time>2010-06-20T14:29:03Z</time>
<desc>lat.=55.900253, lon.=26.528929, Alt.=107.368225m. Speed=0.684000m/h.</desc>
<speed>0.190000</speed>
</trkpt>
<trkpt lat="55.900257" lon="26.528912">
<ele>107.323303</ele>
<time>2010-06-20T14:29:04Z</time>
<desc>lat.=55.900257, lon.=26.528912, Alt.=107.323303m. Speed=1.260000m/h.</desc>
<speed>0.350000</speed>
</trkpt>
<trkpt lat="55.900265" lon="26.528891">
<ele>107.338928</ele>
<time>2010-06-20T14:29:05Z</time>
<desc>lat.=55.900265, lon.=26.528891, Alt.=107.338928m. Speed=1.872000m/h.</desc>
<speed>0.520000</speed>
</trkpt>
<trkpt lat="55.900261" lon="26.528893">
<ele>107.389709</ele>
<time>2010-06-20T14:29:06Z</time>
<desc>lat.=55.900261, lon.=26.528893, Alt.=107.389709m. Speed=1.188000m/h.</desc>
<speed>0.330000</speed>
</trkpt>
<trkpt lat="55.900257" lon="26.528891">
<ele>107.475647</ele>
<time>2010-06-20T14:29:07Z</time>
<desc>lat.=55.900257, lon.=26.528891, Alt.=107.475647m. Speed=1.548000m/h.</desc>
<speed>0.430000</speed>
</trkpt>
<trkpt lat="55.900257" lon="26.528889">
<ele>107.530334</ele>
<time>2010-06-20T14:29:08Z</time>
<desc>lat.=55.900257, lon.=26.528889, Alt.=107.530334m. Speed=0.792000m/h.</desc>
<speed>0.220000</speed>
</trkpt>
<trkpt lat="55.900261" lon="26.528881">
<ele>107.569397</ele>
<time>2010-06-20T14:29:09Z</time>
<desc>lat.=55.900261, lon.=26.528881, Alt.=107.569397m. Speed=1.044000m/h.</desc>
<speed>0.290000</speed>
</trkpt>
<trkpt lat="55.900261" lon="26.528885">
<ele>107.614319</ele>
<time>2010-06-20T14:29:10Z</time>
<desc>lat.=55.900261, lon.=26.528885, Alt.=107.614319m. Speed=0.864000m/h.</desc>
<speed>0.240000</speed>
</trkpt>
<trkpt lat="55.900261" lon="26.528893">
<ele>107.534241</ele>
<time>2010-06-20T14:29:11Z</time>
<desc>lat.=55.900261, lon.=26.528893, Alt.=107.534241m. Speed=0.396000m/h.</desc>
<speed>0.110000</speed>
</trkpt>
<trkpt lat="55.900261" lon="26.528891">
<ele>107.532288</ele>
<time>2010-06-20T14:29:12Z</time>
<desc>lat.=55.900261, lon.=26.528891, Alt.=107.532288m. Speed=0.720000m/h.</desc>
<speed>0.200000</speed>
</trkpt>
<trkpt lat="55.900261" lon="26.528891">
<ele>107.528381</ele>
<time>2010-06-20T14:29:13Z</time>
<desc>lat.=55.900261, lon.=26.528891, Alt.=107.528381m. Speed=0.828000m/h.</desc>
<speed>0.230000</speed>
</trkpt>
<trkpt lat="55.900257" lon="26.528891">
<ele>107.524475</ele>
<time>2010-06-20T14:29:14Z</time>
<desc>lat.=55.900257, lon.=26.528891, Alt.=107.524475m. Speed=0.648000m/h.</desc>
<speed>0.180000</speed>
</trkpt>
<trkpt lat="55.900257" lon="26.528891">
<ele>107.520569</ele>
<time>2010-06-20T14:29:15Z</time>
<desc>lat.=55.900257, lon.=26.528891, Alt.=107.520569m. Speed=0.324000m/h.</desc>
<speed>0.090000</speed>
</trkpt>
<trkpt lat="55.900253" lon="26.528891">
<ele>107.518616</ele>
<time>2010-06-20T14:29:16Z</time>
<desc>lat.=55.900253, lon.=26.528891, Alt.=107.518616m. Speed=0.540000m/h.</desc>
<speed>0.150000</speed>
</trkpt>
<trkpt lat="55.900253" lon="26.528889">
<ele>107.516663</ele>
<time>2010-06-20T14:29:17Z</time>
<desc>lat.=55.900253, lon.=26.528889, Alt.=107.516663m. Speed=0.576000m/h.</desc>
<speed>0.160000</speed>
</trkpt>
<trkpt lat="55.900253" lon="26.528887">
<ele>107.512756</ele>
<time>2010-06-20T14:29:18Z</time>
<desc>lat.=55.900253, lon.=26.528887, Alt.=107.512756m. Speed=1.080000m/h.</desc>
<speed>0.300000</speed>
</trkpt>
<trkpt lat="55.900261" lon="26.528877">
<ele>107.624084</ele>
<time>2010-06-20T14:29:19Z</time>
<desc>lat.=55.900261, lon.=26.528877, Alt.=107.624084m. Speed=1.404000m/h.</desc>
<speed>0.390000</speed>
</trkpt>
<trkpt lat="55.900272" lon="26.528864">
<ele>107.706116</ele>
<time>2010-06-20T14:29:20Z</time>
<desc>lat.=55.900272, lon.=26.528864, Alt.=107.706116m. Speed=2.016000m/h.</desc>
<speed>0.560000</speed>
</trkpt>
<trkpt lat="55.900276" lon="26.528862">
<ele>107.737366</ele>
<time>2010-06-20T14:29:21Z</time>
<desc>lat.=55.900276, lon.=26.528862, Alt.=107.737366m. Speed=1.764000m/h.</desc>
<speed>0.490000</speed>
</trkpt>
<trkpt lat="55.900280" lon="26.528858">
<ele>107.776428</ele>
<time>2010-06-20T14:29:22Z</time>
<desc>lat.=55.900280, lon.=26.528858, Alt.=107.776428m. Speed=1.656000m/h.</desc>
<speed>0.460000</speed>
</trkpt>
<trkpt lat="55.900291" lon="26.528851">
<ele>107.817444</ele>
<time>2010-06-20T14:29:23Z</time>
<desc>lat.=55.900291, lon.=26.528851, Alt.=107.817444m. Speed=2.052000m/h.</desc>
<speed>0.570000</speed>
</trkpt>
<trkpt lat="55.900291" lon="26.528849">
<ele>107.866272</ele>
<time>2010-06-20T14:29:24Z</time>
<desc>lat.=55.900291, lon.=26.528849, Alt.=107.866272m. Speed=1.728000m/h.</desc>
<speed>0.480000</speed>
</trkpt>
<trkpt lat="55.900295" lon="26.528849">
<ele>107.907288</ele>
<time>2010-06-20T14:29:25Z</time>
<desc>lat.=55.900295, lon.=26.528849, Alt.=107.907288m. Speed=1.692000m/h.</desc>
<speed>0.470000</speed>
</trkpt>
<trkpt lat="55.900299" lon="26.528854">
<ele>107.950256</ele>
<time>2010-06-20T14:29:26Z</time>
<desc>lat.=55.900299, lon.=26.528854, Alt.=107.950256m. Speed=1.440000m/h.</desc>
<speed>0.400000</speed>
</trkpt>
<trkpt lat="55.900291" lon="26.528858">
<ele>108.030334</ele>
<time>2010-06-20T14:29:27Z</time>
<desc>lat.=55.900291, lon.=26.528858, Alt.=108.030334m. Speed=1.116000m/h.</desc>
<speed>0.310000</speed>
</trkpt>
<trkpt lat="55.900288" lon="26.528872">
<ele>108.145569</ele>
<time>2010-06-20T14:29:28Z</time>
<desc>lat.=55.900288, lon.=26.528872, Alt.=108.145569m. Speed=0.540000m/h.</desc>
<speed>0.150000</speed>
</trkpt>
<trkpt lat="55.900288" lon="26.528881">
<ele>108.241272</ele>
<time>2010-06-20T14:29:29Z</time>
<desc>lat.=55.900288, lon.=26.528881, Alt.=108.241272m. Speed=0.324000m/h.</desc>
<speed>0.090000</speed>
</trkpt>
<trkpt lat="55.900288" lon="26.528887">
<ele>108.358459</ele>
<time>2010-06-20T14:29:30Z</time>
<desc>lat.=55.900288, lon.=26.528887, Alt.=108.358459m. Speed=0.756000m/h.</desc>
<speed>0.210000</speed>
</trkpt>
<trkpt lat="55.900284" lon="26.528898">
<ele>108.483459</ele>
<time>2010-06-20T14:29:31Z</time>
<desc>lat.=55.900284, lon.=26.528898, Alt.=108.483459m. Speed=0.684000m/h.</desc>
<speed>0.190000</speed>
</trkpt>
<trkpt lat="55.900284" lon="26.528902">
<ele>108.485413</ele>
<time>2010-06-20T14:29:32Z</time>
<desc>lat.=55.900284, lon.=26.528902, Alt.=108.485413m. Speed=0.756000m/h.</desc>
<speed>0.210000</speed>
</trkpt>
<trkpt lat="55.900288" lon="26.528904">
<ele>108.487366</ele>
<time>2010-06-20T14:29:33Z</time>
<desc>lat.=55.900288, lon.=26.528904, Alt.=108.487366m. Speed=1.080000m/h.</desc>
<speed>0.300000</speed>
</trkpt>
<trkpt lat="55.900288" lon="26.528915">
<ele>108.684631</ele>
<time>2010-06-20T14:29:34Z</time>
<desc>lat.=55.900288, lon.=26.528915, Alt.=108.684631m. Speed=1.116000m/h.</desc>
<speed>0.310000</speed>
</trkpt>
<trkpt lat="55.900291" lon="26.528904">
<ele>108.835022</ele>
<time>2010-06-20T14:29:35Z</time>
<desc>lat.=55.900291, lon.=26.528904, Alt.=108.835022m. Speed=0.684000m/h.</desc>
<speed>0.190000</speed>
</trkpt>
<trkpt lat="55.900291" lon="26.528906">
<ele>109.001038</ele>
<time>2010-06-20T14:29:36Z</time>
<desc>lat.=55.900291, lon.=26.528906, Alt.=109.001038m. Speed=0.504000m/h.</desc>
<speed>0.140000</speed>
</trkpt>
<trkpt lat="55.900284" lon="26.528919">
<ele>109.114319</ele>
<time>2010-06-20T14:29:37Z</time>
<desc>lat.=55.900284, lon.=26.528919, Alt.=109.114319m. Speed=0.720000m/h.</desc>
<speed>0.200000</speed>
</trkpt>
<trkpt lat="55.900280" lon="26.528927">
<ele>109.196350</ele>
<time>2010-06-20T14:29:38Z</time>
<desc>lat.=55.900280, lon.=26.528927, Alt.=109.196350m. Speed=0.612000m/h.</desc>
<speed>0.170000</speed>
</trkpt>
<trkpt lat="55.900280" lon="26.528931">
<ele>109.202209</ele>
<time>2010-06-20T14:29:39Z</time>
<desc>lat.=55.900280, lon.=26.528931, Alt.=109.202209m. Speed=0.936000m/h.</desc>
<speed>0.260000</speed>
</trkpt>
<trkpt lat="55.900276" lon="26.528933">
<ele>109.204163</ele>
<time>2010-06-20T14:29:40Z</time>
<desc>lat.=55.900276, lon.=26.528933, Alt.=109.204163m. Speed=0.972000m/h.</desc>
<speed>0.270000</speed>
</trkpt>
<trkpt lat="55.900276" lon="26.528936">
<ele>109.206116</ele>
<time>2010-06-20T14:29:41Z</time>
<desc>lat.=55.900276, lon.=26.528936, Alt.=109.206116m. Speed=0.900000m/h.</desc>
<speed>0.250000</speed>
</trkpt>
<trkpt lat="55.900276" lon="26.528940">
<ele>109.206116</ele>
<time>2010-06-20T14:29:42Z</time>
<desc>lat.=55.900276, lon.=26.528940, Alt.=109.206116m. Speed=0.972000m/h.</desc>
<speed>0.270000</speed>
</trkpt>
<trkpt lat="55.900272" lon="26.528944">
<ele>109.208069</ele>
<time>2010-06-20T14:29:43Z</time>
<desc>lat.=55.900272, lon.=26.528944, Alt.=109.208069m. Speed=0.864000m/h.</desc>
<speed>0.240000</speed>
</trkpt>
<trkpt lat="55.900272" lon="26.528948">
<ele>109.208069</ele>
<time>2010-06-20T14:29:44Z</time>
<desc>lat.=55.900272, lon.=26.528948, Alt.=109.208069m. Speed=0.864000m/h.</desc>
<speed>0.240000</speed>
</trkpt>
<trkpt lat="55.900272" lon="26.528950">
<ele>109.210022</ele>
<time>2010-06-20T14:29:45Z</time>
<desc>lat.=55.900272, lon.=26.528950, Alt.=109.210022m. Speed=0.792000m/h.</desc>
<speed>0.220000</speed>
</trkpt>
<trkpt lat="55.900269" lon="26.528954">
<ele>109.210022</ele>
<time>2010-06-20T14:29:46Z</time>
<desc>lat.=55.900269, lon.=26.528954, Alt.=109.210022m. Speed=1.332000m/h.</desc>
<speed>0.370000</speed>
</trkpt>
<trkpt lat="55.900265" lon="26.528963">
<ele>109.352600</ele>
<time>2010-06-20T14:29:47Z</time>
<desc>lat.=55.900265, lon.=26.528963, Alt.=109.352600m. Speed=1.476000m/h.</desc>
<speed>0.410000</speed>
</trkpt>
<trkpt lat="55.900265" lon="26.528957">
<ele>109.450256</ele>
<time>2010-06-20T14:29:48Z</time>
<desc>lat.=55.900265, lon.=26.528957, Alt.=109.450256m. Speed=0.972000m/h.</desc>
<speed>0.270000</speed>
</trkpt>
<trkpt lat="55.900265" lon="26.528950">
<ele>109.530334</ele>
<time>2010-06-20T14:29:49Z</time>
<desc>lat.=55.900265, lon.=26.528950, Alt.=109.530334m. Speed=0.432000m/h.</desc>
<speed>0.120000</speed>
</trkpt>
<trkpt lat="55.900261" lon="26.528946">
<ele>109.651428</ele>
<time>2010-06-20T14:29:50Z</time>
<desc>lat.=55.900261, lon.=26.528946, Alt.=109.651428m. Speed=0.396000m/h.</desc>
<speed>0.110000</speed>
</trkpt>
<trkpt lat="55.900257" lon="26.528950">
<ele>109.868225</ele>
<time>2010-06-20T14:29:51Z</time>
<desc>lat.=55.900257, lon.=26.528950, Alt.=109.868225m. Speed=0.360000m/h.</desc>
<speed>0.100000</speed>
</trkpt>
<trkpt lat="55.900257" lon="26.528952">
<ele>109.874084</ele>
<time>2010-06-20T14:29:52Z</time>
<desc>lat.=55.900257, lon.=26.528952, Alt.=109.874084m. Speed=0.648000m/h.</desc>
<speed>0.180000</speed>
</trkpt>
<trkpt lat="55.900257" lon="26.528954">
<ele>109.876038</ele>
<time>2010-06-20T14:29:53Z</time>
<desc>lat.=55.900257, lon.=26.528954, Alt.=109.876038m. Speed=1.188000m/h.</desc>
<speed>0.330000</speed>
</trkpt>
<trkpt lat="55.900257" lon="26.528957">
<ele>109.889709</ele>
<time>2010-06-20T14:29:54Z</time>
<desc>lat.=55.900257, lon.=26.528957, Alt.=109.889709m. Speed=0.972000m/h.</desc>
<speed>0.270000</speed>
</trkpt>
<trkpt lat="55.900261" lon="26.528959">
<ele>109.915100</ele>
<time>2010-06-20T14:29:55Z</time>
<desc>lat.=55.900261, lon.=26.528959, Alt.=109.915100m. Speed=0.900000m/h.</desc>
<speed>0.250000</speed>
</trkpt>
<trkpt lat="55.900265" lon="26.528948">
<ele>109.934631</ele>
<time>2010-06-20T14:29:56Z</time>
<desc>lat.=55.900265, lon.=26.528948, Alt.=109.934631m. Speed=0.396000m/h.</desc>
<speed>0.110000</speed>
</trkpt>
<trkpt lat="55.900269" lon="26.528940">
<ele>109.891663</ele>
<time>2010-06-20T14:29:57Z</time>
<desc>lat.=55.900269, lon.=26.528940, Alt.=109.891663m. Speed=0.396000m/h.</desc>
<speed>0.110000</speed>
</trkpt>
<trkpt lat="55.900269" lon="26.528938">
<ele>109.889709</ele>
<time>2010-06-20T14:29:58Z</time>
<desc>lat.=55.900269, lon.=26.528938, Alt.=109.889709m. Speed=0.648000m/h.</desc>
<speed>0.180000</speed>
</trkpt>
<trkpt lat="55.900265" lon="26.528936">
<ele>109.887756</ele>
<time>2010-06-20T14:29:59Z</time>
<desc>lat.=55.900265, lon.=26.528936, Alt.=109.887756m. Speed=0.288000m/h.</desc>
<speed>0.080000</speed>
</trkpt>
<trkpt lat="55.900265" lon="26.528936">
<ele>109.887756</ele>
<time>2010-06-20T14:30:00Z</time>
<desc>lat.=55.900265, lon.=26.528936, Alt.=109.887756m. Speed=1.044000m/h.</desc>
<speed>0.290000</speed>
</trkpt>
<trkpt lat="55.900265" lon="26.528940">
<ele>109.889709</ele>
<time>2010-06-20T14:30:01Z</time>
<desc>lat.=55.900265, lon.=26.528940, Alt.=109.889709m. Speed=1.332000m/h.</desc>
<speed>0.370000</speed>
</trkpt>
<trkpt lat="55.900269" lon="26.528940">
<ele>109.829163</ele>
<time>2010-06-20T14:30:02Z</time>
<desc>lat.=55.900269, lon.=26.528940, Alt.=109.829163m. Speed=1.188000m/h.</desc>
<speed>0.330000</speed>
</trkpt>
<trkpt lat="55.900272" lon="26.528942">
<ele>109.794006</ele>
<time>2010-06-20T14:30:03Z</time>
<desc>lat.=55.900272, lon.=26.528942, Alt.=109.794006m. Speed=1.332000m/h.</desc>
<speed>0.370000</speed>
</trkpt>
<trkpt lat="55.900269" lon="26.528961">
<ele>109.774475</ele>
<time>2010-06-20T14:30:04Z</time>
<desc>lat.=55.900269, lon.=26.528961, Alt.=109.774475m. Speed=2.124000m/h.</desc>
<speed>0.590000</speed>
</trkpt>
<trkpt lat="55.900269" lon="26.528957">
<ele>109.774475</ele>
<time>2010-06-20T14:30:05Z</time>
<desc>lat.=55.900269, lon.=26.528957, Alt.=109.774475m. Speed=1.440000m/h.</desc>
<speed>0.400000</speed>
</trkpt>
<trkpt lat="55.900276" lon="26.528948">
<ele>109.698303</ele>
<time>2010-06-20T14:30:06Z</time>
<desc>lat.=55.900276, lon.=26.528948, Alt.=109.698303m. Speed=0.972000m/h.</desc>
<speed>0.270000</speed>
</trkpt>
<trkpt lat="55.900280" lon="26.528938">
<ele>109.858459</ele>
<time>2010-06-20T14:30:07Z</time>
<desc>lat.=55.900280, lon.=26.528938, Alt.=109.858459m. Speed=0.324000m/h.</desc>
<speed>0.090000</speed>
</trkpt>
<trkpt lat="55.900280" lon="26.528938">
<ele>109.985413</ele>
<time>2010-06-20T14:30:08Z</time>
<desc>lat.=55.900280, lon.=26.528938, Alt.=109.985413m. Speed=0.360000m/h.</desc>
<speed>0.100000</speed>
</trkpt>
<trkpt lat="55.900288" lon="26.528933">
<ele>110.051819</ele>
<time>2010-06-20T14:30:09Z</time>
<desc>lat.=55.900288, lon.=26.528933, Alt.=110.051819m. Speed=0.576000m/h.</desc>
<speed>0.160000</speed>
</trkpt>
<trkpt lat="55.900288" lon="26.528931">
<ele>110.055725</ele>
<time>2010-06-20T14:30:10Z</time>
<desc>lat.=55.900288, lon.=26.528931, Alt.=110.055725m. Speed=1.044000m/h.</desc>
<speed>0.290000</speed>
</trkpt>
<trkpt lat="55.900288" lon="26.528925">
<ele>110.065491</ele>
<time>2010-06-20T14:30:11Z</time>
<desc>lat.=55.900288, lon.=26.528925, Alt.=110.065491m. Speed=1.080000m/h.</desc>
<speed>0.300000</speed>
</trkpt>
<trkpt lat="55.900288" lon="26.528923">
<ele>110.252991</ele>
<time>2010-06-20T14:30:12Z</time>
<desc>lat.=55.900288, lon.=26.528923, Alt.=110.252991m. Speed=0.792000m/h.</desc>
<speed>0.220000</speed>
</trkpt>
<trkpt lat="55.900284" lon="26.528919">
<ele>110.407288</ele>
<time>2010-06-20T14:30:13Z</time>
<desc>lat.=55.900284, lon.=26.528919, Alt.=110.407288m. Speed=0.612000m/h.</desc>
<speed>0.170000</speed>
</trkpt>
<trkpt lat="55.900288" lon="26.528913">
<ele>110.499084</ele>
<time>2010-06-20T14:30:14Z</time>
<desc>lat.=55.900288, lon.=26.528913, Alt.=110.499084m. Speed=0.576000m/h.</desc>
<speed>0.160000</speed>
</trkpt>
<trkpt lat="55.900284" lon="26.528906">
<ele>110.520569</ele>
<time>2010-06-20T14:30:15Z</time>
<desc>lat.=55.900284, lon.=26.528906, Alt.=110.520569m. Speed=0.792000m/h.</desc>
<speed>0.220000</speed>
</trkpt>
<trkpt lat="55.900284" lon="26.528902">
<ele>110.528381</ele>
<time>2010-06-20T14:30:16Z</time>
<desc>lat.=55.900284, lon.=26.528902, Alt.=110.528381m. Speed=0.360000m/h.</desc>
<speed>0.100000</speed>
</trkpt>
<trkpt lat="55.900284" lon="26.528900">
<ele>110.534241</ele>
<time>2010-06-20T14:30:17Z</time>
<desc>lat.=55.900284, lon.=26.528900, Alt.=110.534241m. Speed=0.900000m/h.</desc>
<speed>0.250000</speed>
</trkpt>
<trkpt lat="55.900284" lon="26.528896">
<ele>110.538147</ele>
<time>2010-06-20T14:30:18Z</time>
<desc>lat.=55.900284, lon.=26.528896, Alt.=110.538147m. Speed=1.368000m/h.</desc>
<speed>0.380000</speed>
</trkpt>
<trkpt lat="55.900291" lon="26.528873">
<ele>110.626038</ele>
<time>2010-06-20T14:30:19Z</time>
<desc>lat.=55.900291, lon.=26.528873, Alt.=110.626038m. Speed=1.692000m/h.</desc>
<speed>0.470000</speed>
</trkpt>
<trkpt lat="55.900291" lon="26.528864">
<ele>110.653381</ele>
<time>2010-06-20T14:30:20Z</time>
<desc>lat.=55.900291, lon.=26.528864, Alt.=110.653381m. Speed=1.260000m/h.</desc>
<speed>0.350000</speed>
</trkpt>
<trkpt lat="55.900295" lon="26.528858">
<ele>110.674866</ele>
<time>2010-06-20T14:30:21Z</time>
<desc>lat.=55.900295, lon.=26.528858, Alt.=110.674866m. Speed=0.936000m/h.</desc>
<speed>0.260000</speed>
</trkpt>
<trkpt lat="55.900295" lon="26.528858">
<ele>110.710022</ele>
<time>2010-06-20T14:30:22Z</time>
<desc>lat.=55.900295, lon.=26.528858, Alt.=110.710022m. Speed=0.648000m/h.</desc>
<speed>0.180000</speed>
</trkpt>
<trkpt lat="55.900288" lon="26.528858">
<ele>110.762756</ele>
<time>2010-06-20T14:30:23Z</time>
<desc>lat.=55.900288, lon.=26.528858, Alt.=110.762756m. Speed=0.468000m/h.</desc>
<speed>0.130000</speed>
</trkpt>
<trkpt lat="55.900288" lon="26.528852">
<ele>110.717834</ele>
<time>2010-06-20T14:30:24Z</time>
<desc>lat.=55.900288, lon.=26.528852, Alt.=110.717834m. Speed=0.648000m/h.</desc>
<speed>0.180000</speed>
</trkpt>
<trkpt lat="55.900284" lon="26.528854">
<ele>110.717834</ele>
<time>2010-06-20T14:30:25Z</time>
<desc>lat.=55.900284, lon.=26.528854, Alt.=110.717834m. Speed=0.792000m/h.</desc>
<speed>0.220000</speed>
</trkpt>
<trkpt lat="55.900284" lon="26.528856">
<ele>110.719788</ele>
<time>2010-06-20T14:30:26Z</time>
<desc>lat.=55.900284, lon.=26.528856, Alt.=110.719788m. Speed=0.936000m/h.</desc>
<speed>0.260000</speed>
</trkpt>
<trkpt lat="55.900284" lon="26.528860">
<ele>110.717834</ele>
<time>2010-06-20T14:30:27Z</time>
<desc>lat.=55.900284, lon.=26.528860, Alt.=110.717834m. Speed=0.000000m/h.</desc>
<speed>0.000000</speed>
</trkpt>
<trkpt lat="55.900284" lon="26.528860">
<ele>110.717834</ele>
<time>2010-06-20T14:30:28Z</time>
<desc>lat.=55.900284, lon.=26.528860, Alt.=110.717834m. Speed=0.288000m/h.</desc>
<speed>0.080000</speed>
</trkpt>
<trkpt lat="55.900284" lon="26.528862">
<ele>110.715881</ele>
<time>2010-06-20T14:30:29Z</time>
<desc>lat.=55.900284, lon.=26.528862, Alt.=110.715881m. Speed=0.360000m/h.</desc>
<speed>0.100000</speed>
</trkpt>
<trkpt lat="55.900284" lon="26.528862">
<ele>110.713928</ele>
<time>2010-06-20T14:30:30Z</time>
<desc>lat.=55.900284, lon.=26.528862, Alt.=110.713928m. Speed=0.216000m/h.</desc>
<speed>0.060000</speed>
</trkpt>
<trkpt lat="55.900284" lon="26.528862">
<ele>110.711975</ele>
<time>2010-06-20T14:30:31Z</time>
<desc>lat.=55.900284, lon.=26.528862, Alt.=110.711975m. Speed=0.180000m/h.</desc>
<speed>0.050000</speed>
</trkpt>
<trkpt lat="55.900284" lon="26.528862">
<ele>110.708069</ele>
<time>2010-06-20T14:30:32Z</time>
<desc>lat.=55.900284, lon.=26.528862, Alt.=110.708069m. Speed=0.360000m/h.</desc>
<speed>0.100000</speed>
</trkpt>
<trkpt lat="55.900284" lon="26.528864">
<ele>110.708069</ele>
<time>2010-06-20T14:30:33Z</time>
<desc>lat.=55.900284, lon.=26.528864, Alt.=110.708069m. Speed=0.324000m/h.</desc>
<speed>0.090000</speed>
</trkpt>
<trkpt lat="55.900284" lon="26.528866">
<ele>110.706116</ele>
<time>2010-06-20T14:30:34Z</time>
<desc>lat.=55.900284, lon.=26.528866, Alt.=110.706116m. Speed=0.216000m/h.</desc>
<speed>0.060000</speed>
</trkpt>
<trkpt lat="55.900284" lon="26.528866">
<ele>110.704163</ele>
<time>2010-06-20T14:30:35Z</time>
<desc>lat.=55.900284, lon.=26.528866, Alt.=110.704163m. Speed=0.756000m/h.</desc>
<speed>0.210000</speed>
</trkpt>
<trkpt lat="55.900280" lon="26.528868">
<ele>110.704163</ele>
<time>2010-06-20T14:30:36Z</time>
<desc>lat.=55.900280, lon.=26.528868, Alt.=110.704163m. Speed=0.252000m/h.</desc>
<speed>0.070000</speed>
</trkpt>
<trkpt lat="55.900284" lon="26.528868">
<ele>110.708069</ele>
<time>2010-06-20T14:30:37Z</time>
<desc>lat.=55.900284, lon.=26.528868, Alt.=110.708069m. Speed=0.360000m/h.</desc>
<speed>0.100000</speed>
</trkpt>
<trkpt lat="55.900284" lon="26.528868">
<ele>110.711975</ele>
<time>2010-06-20T14:30:38Z</time>
<desc>lat.=55.900284, lon.=26.528868, Alt.=110.711975m. Speed=0.396000m/h.</desc>
<speed>0.110000</speed>
</trkpt>
<trkpt lat="55.900280" lon="26.528868">
<ele>110.717834</ele>
<time>2010-06-20T14:30:39Z</time>
<desc>lat.=55.900280, lon.=26.528868, Alt.=110.717834m. Speed=0.324000m/h.</desc>
<speed>0.090000</speed>
</trkpt>
<trkpt lat="55.900280" lon="26.528868">
<ele>110.721741</ele>
<time>2010-06-20T14:30:40Z</time>
<desc>lat.=55.900280, lon.=26.528868, Alt.=110.721741m. Speed=0.612000m/h.</desc>
<speed>0.170000</speed>
</trkpt>
<trkpt lat="55.900280" lon="26.528872">
<ele>110.725647</ele>
<time>2010-06-20T14:30:41Z</time>
<desc>lat.=55.900280, lon.=26.528872, Alt.=110.725647m. Speed=1.044000m/h.</desc>
<speed>0.290000</speed>
</trkpt>
<trkpt lat="55.900280" lon="26.528875">
<ele>110.729553</ele>
<time>2010-06-20T14:30:42Z</time>
<desc>lat.=55.900280, lon.=26.528875, Alt.=110.729553m. Speed=1.008000m/h.</desc>
<speed>0.280000</speed>
</trkpt>
<trkpt lat="55.900276" lon="26.528879">
<ele>110.731506</ele>
<time>2010-06-20T14:30:43Z</time>
<desc>lat.=55.900276, lon.=26.528879, Alt.=110.731506m. Speed=1.296000m/h.</desc>
<speed>0.360000</speed>
</trkpt>
<trkpt lat="55.900276" lon="26.528904">
<ele>110.862366</ele>
<time>2010-06-20T14:30:44Z</time>
<desc>lat.=55.900276, lon.=26.528904, Alt.=110.862366m. Speed=1.908000m/h.</desc>
<speed>0.530000</speed>
</trkpt>
<trkpt lat="55.900269" lon="26.528925">
<ele>111.044006</ele>
<time>2010-06-20T14:30:45Z</time>
<desc>lat.=55.900269, lon.=26.528925, Alt.=111.044006m. Speed=2.160000m/h.</desc>
<speed>0.600000</speed>
</trkpt>
<trkpt lat="55.900272" lon="26.528938">
<ele>111.200256</ele>
<time>2010-06-20T14:30:46Z</time>
<desc>lat.=55.900272, lon.=26.528938, Alt.=111.200256m. Speed=1.836000m/h.</desc>
<speed>0.510000</speed>
</trkpt>
<trkpt lat="55.900269" lon="26.528950">
<ele>111.575256</ele>
<time>2010-06-20T14:30:47Z</time>
<desc>lat.=55.900269, lon.=26.528950, Alt.=111.575256m. Speed=1.116000m/h.</desc>
<speed>0.310000</speed>
</trkpt>
<trkpt lat="55.900269" lon="26.528954">
<ele>111.661194</ele>
<time>2010-06-20T14:30:48Z</time>
<desc>lat.=55.900269, lon.=26.528954, Alt.=111.661194m. Speed=1.116000m/h.</desc>
<speed>0.310000</speed>
</trkpt>
<trkpt lat="55.900272" lon="26.528954">
<ele>111.758850</ele>
<time>2010-06-20T14:30:49Z</time>
<desc>lat.=55.900272, lon.=26.528954, Alt.=111.758850m. Speed=0.756000m/h.</desc>
<speed>0.210000</speed>
</trkpt>
<trkpt lat="55.900272" lon="26.528952">
<ele>111.762756</ele>
<time>2010-06-20T14:30:50Z</time>
<desc>lat.=55.900272, lon.=26.528952, Alt.=111.762756m. Speed=0.360000m/h.</desc>
<speed>0.100000</speed>
</trkpt>
<trkpt lat="55.900272" lon="26.528946">
<ele>111.735413</ele>
<time>2010-06-20T14:30:51Z</time>
<desc>lat.=55.900272, lon.=26.528946, Alt.=111.735413m. Speed=0.252000m/h.</desc>
<speed>0.070000</speed>
</trkpt>
<trkpt lat="55.900272" lon="26.528946">
<ele>111.723694</ele>
<time>2010-06-20T14:30:52Z</time>
<desc>lat.=55.900272, lon.=26.528946, Alt.=111.723694m. Speed=0.252000m/h.</desc>
<speed>0.070000</speed>
</trkpt>
<trkpt lat="55.900272" lon="26.528946">
<ele>111.727600</ele>
<time>2010-06-20T14:30:53Z</time>
<desc>lat.=55.900272, lon.=26.528946, Alt.=111.727600m. Speed=0.108000m/h.</desc>
<speed>0.030000</speed>
</trkpt>
<trkpt lat="55.900272" lon="26.528946">
<ele>111.733459</ele>
<time>2010-06-20T14:30:54Z</time>
<desc>lat.=55.900272, lon.=26.528946, Alt.=111.733459m. Speed=0.684000m/h.</desc>
<speed>0.190000</speed>
</trkpt>
<trkpt lat="55.900272" lon="26.528950">
<ele>111.737366</ele>
<time>2010-06-20T14:30:55Z</time>
<desc>lat.=55.900272, lon.=26.528950, Alt.=111.737366m. Speed=1.008000m/h.</desc>
<speed>0.280000</speed>
</trkpt>
<trkpt lat="55.900272" lon="26.528954">
<ele>111.743225</ele>
<time>2010-06-20T14:30:56Z</time>
<desc>lat.=55.900272, lon.=26.528954, Alt.=111.743225m. Speed=0.612000m/h.</desc>
<speed>0.170000</speed>
</trkpt>
<trkpt lat="55.900272" lon="26.528955">
<ele>111.747131</ele>
<time>2010-06-20T14:30:57Z</time>
<desc>lat.=55.900272, lon.=26.528955, Alt.=111.747131m. Speed=0.684000m/h.</desc>
<speed>0.190000</speed>
</trkpt>
<trkpt lat="55.900276" lon="26.528959">
<ele>111.751038</ele>
<time>2010-06-20T14:30:58Z</time>
<desc>lat.=55.900276, lon.=26.528959, Alt.=111.751038m. Speed=0.180000m/h.</desc>
<speed>0.050000</speed>
</trkpt>
<trkpt lat="55.900276" lon="26.528959">
<ele>111.754944</ele>
<time>2010-06-20T14:30:59Z</time>
<desc>lat.=55.900276, lon.=26.528959, Alt.=111.754944m. Speed=0.324000m/h.</desc>
<speed>0.090000</speed>
</trkpt>
<trkpt lat="55.900276" lon="26.528959">
<ele>111.756897</ele>
<time>2010-06-20T14:31:00Z</time>
<desc>lat.=55.900276, lon.=26.528959, Alt.=111.756897m. Speed=0.324000m/h.</desc>
<speed>0.090000</speed>
</trkpt>
<trkpt lat="55.900276" lon="26.528957">
<ele>111.758850</ele>
<time>2010-06-20T14:31:01Z</time>
<desc>lat.=55.900276, lon.=26.528957, Alt.=111.758850m. Speed=0.252000m/h.</desc>
<speed>0.070000</speed>
</trkpt>
<trkpt lat="55.900276" lon="26.528957">
<ele>111.760803</ele>
<time>2010-06-20T14:31:02Z</time>
<desc>lat.=55.900276, lon.=26.528957, Alt.=111.760803m. Speed=0.288000m/h.</desc>
<speed>0.080000</speed>
</trkpt>
<trkpt lat="55.900276" lon="26.528955">
<ele>111.764709</ele>
<time>2010-06-20T14:31:03Z</time>
<desc>lat.=55.900276, lon.=26.528955, Alt.=111.764709m. Speed=0.756000m/h.</desc>
<speed>0.210000</speed>
</trkpt>
<trkpt lat="55.900280" lon="26.528954">
<ele>111.770569</ele>
<time>2010-06-20T14:31:04Z</time>
<desc>lat.=55.900280, lon.=26.528954, Alt.=111.770569m. Speed=1.116000m/h.</desc>
<speed>0.310000</speed>
</trkpt>
<trkpt lat="55.900280" lon="26.528938">
<ele>111.938538</ele>
<time>2010-06-20T14:31:05Z</time>
<desc>lat.=55.900280, lon.=26.528938, Alt.=111.938538m. Speed=1.548000m/h.</desc>
<speed>0.430000</speed>
</trkpt>
<trkpt lat="55.900284" lon="26.528929">
<ele>112.094788</ele>
<time>2010-06-20T14:31:06Z</time>
<desc>lat.=55.900284, lon.=26.528929, Alt.=112.094788m. Speed=1.584000m/h.</desc>
<speed>0.440000</speed>
</trkpt>
<trkpt lat="55.900284" lon="26.528923">
<ele>112.169006</ele>
<time>2010-06-20T14:31:07Z</time>
<desc>lat.=55.900284, lon.=26.528923, Alt.=112.169006m. Speed=1.440000m/h.</desc>
<speed>0.400000</speed>
</trkpt>
<trkpt lat="55.900284" lon="26.528927">
<ele>112.176819</ele>
<time>2010-06-20T14:31:08Z</time>
<desc>lat.=55.900284, lon.=26.528927, Alt.=112.176819m. Speed=0.864000m/h.</desc>
<speed>0.240000</speed>
</trkpt>
<trkpt lat="55.900284" lon="26.528936">
<ele>112.223694</ele>
<time>2010-06-20T14:31:09Z</time>
<desc>lat.=55.900284, lon.=26.528936, Alt.=112.223694m. Speed=0.108000m/h.</desc>
<speed>0.030000</speed>
</trkpt>
<trkpt lat="55.900284" lon="26.528934">
<ele>112.225647</ele>
<time>2010-06-20T14:31:10Z</time>
<desc>lat.=55.900284, lon.=26.528934, Alt.=112.225647m. Speed=0.180000m/h.</desc>
<speed>0.050000</speed>
</trkpt>
<trkpt lat="55.900288" lon="26.528936">
<ele>112.321350</ele>
<time>2010-06-20T14:31:11Z</time>
<desc>lat.=55.900288, lon.=26.528936, Alt.=112.321350m. Speed=0.360000m/h.</desc>
<speed>0.100000</speed>
</trkpt>
<trkpt lat="55.900288" lon="26.528936">
<ele>112.329163</ele>
<time>2010-06-20T14:31:12Z</time>
<desc>lat.=55.900288, lon.=26.528936, Alt.=112.329163m. Speed=0.792000m/h.</desc>
<speed>0.220000</speed>
</trkpt>
<trkpt lat="55.900288" lon="26.528940">
<ele>112.335022</ele>
<time>2010-06-20T14:31:13Z</time>
<desc>lat.=55.900288, lon.=26.528940, Alt.=112.335022m. Speed=1.116000m/h.</desc>
<speed>0.310000</speed>
</trkpt>
<trkpt lat="55.900284" lon="26.528940">
<ele>112.485413</ele>
<time>2010-06-20T14:31:14Z</time>
<desc>lat.=55.900284, lon.=26.528940, Alt.=112.485413m. Speed=0.648000m/h.</desc>
<speed>0.180000</speed>
</trkpt>
<trkpt lat="55.900288" lon="26.528950">
<ele>112.610413</ele>
<time>2010-06-20T14:31:15Z</time>
<desc>lat.=55.900288, lon.=26.528950, Alt.=112.610413m. Speed=0.504000m/h.</desc>
<speed>0.140000</speed>
</trkpt>
<trkpt lat="55.900291" lon="26.528948">
<ele>112.735413</ele>
<time>2010-06-20T14:31:16Z</time>
<desc>lat.=55.900291, lon.=26.528948, Alt.=112.735413m. Speed=0.504000m/h.</desc>
<speed>0.140000</speed>
</trkpt>
<trkpt lat="55.900299" lon="26.528955">
<ele>112.919006</ele>
<time>2010-06-20T14:31:17Z</time>
<desc>lat.=55.900299, lon.=26.528955, Alt.=112.919006m. Speed=1.044000m/h.</desc>
<speed>0.290000</speed>
</trkpt>
<trkpt lat="55.900303" lon="26.528957">
<ele>112.926819</ele>
<time>2010-06-20T14:31:18Z</time>
<desc>lat.=55.900303, lon.=26.528957, Alt.=112.926819m. Speed=0.900000m/h.</desc>
<speed>0.250000</speed>
</trkpt>
<trkpt lat="55.900303" lon="26.528959">
<ele>112.934631</ele>
<time>2010-06-20T14:31:19Z</time>
<desc>lat.=55.900303, lon.=26.528959, Alt.=112.934631m. Speed=0.360000m/h.</desc>
<speed>0.100000</speed>
</trkpt>
<trkpt lat="55.900307" lon="26.528959">
<ele>112.944397</ele>
<time>2010-06-20T14:31:20Z</time>
<desc>lat.=55.900307, lon.=26.528959, Alt.=112.944397m. Speed=0.180000m/h.</desc>
<speed>0.050000</speed>
</trkpt>
<trkpt lat="55.900307" lon="26.528961">
<ele>112.956116</ele>
<time>2010-06-20T14:31:21Z</time>
<desc>lat.=55.900307, lon.=26.528961, Alt.=112.956116m. Speed=0.540000m/h.</desc>
<speed>0.150000</speed>
</trkpt>
<trkpt lat="55.900303" lon="26.528963">
<ele>112.967834</ele>
<time>2010-06-20T14:31:22Z</time>
<desc>lat.=55.900303, lon.=26.528963, Alt.=112.967834m. Speed=0.612000m/h.</desc>
<speed>0.170000</speed>
</trkpt>
<trkpt lat="55.900303" lon="26.528965">
<ele>112.979553</ele>
<time>2010-06-20T14:31:23Z</time>
<desc>lat.=55.900303, lon.=26.528965, Alt.=112.979553m. Speed=1.008000m/h.</desc>
<speed>0.280000</speed>
</trkpt>
<trkpt lat="55.900303" lon="26.528971">
<ele>112.989319</ele>
<time>2010-06-20T14:31:24Z</time>
<desc>lat.=55.900303, lon.=26.528971, Alt.=112.989319m. Speed=0.828000m/h.</desc>
<speed>0.230000</speed>
</trkpt>
<trkpt lat="55.900303" lon="26.528975">
<ele>112.997131</ele>
<time>2010-06-20T14:31:25Z</time>
<desc>lat.=55.900303, lon.=26.528975, Alt.=112.997131m. Speed=0.504000m/h.</desc>
<speed>0.140000</speed>
</trkpt>
<trkpt lat="55.900303" lon="26.528976">
<ele>113.006897</ele>
<time>2010-06-20T14:31:26Z</time>
<desc>lat.=55.900303, lon.=26.528976, Alt.=113.006897m. Speed=0.936000m/h.</desc>
<speed>0.260000</speed>
</trkpt>
<trkpt lat="55.900303" lon="26.528980">
<ele>113.018616</ele>
<time>2010-06-20T14:31:27Z</time>
<desc>lat.=55.900303, lon.=26.528980, Alt.=113.018616m. Speed=1.224000m/h.</desc>
<speed>0.340000</speed>
</trkpt>
<trkpt lat="55.900307" lon="26.528996">
<ele>113.372131</ele>
<time>2010-06-20T14:31:28Z</time>
<desc>lat.=55.900307, lon.=26.528996, Alt.=113.372131m. Speed=1.404000m/h.</desc>
<speed>0.390000</speed>
</trkpt>
<trkpt lat="55.900311" lon="26.528997">
<ele>113.465881</ele>
<time>2010-06-20T14:31:29Z</time>
<desc>lat.=55.900311, lon.=26.528997, Alt.=113.465881m. Speed=1.332000m/h.</desc>
<speed>0.370000</speed>
</trkpt>
<trkpt lat="55.900314" lon="26.529001">
<ele>113.524475</ele>
<time>2010-06-20T14:31:30Z</time>
<desc>lat.=55.900314, lon.=26.529001, Alt.=113.524475m. Speed=1.476000m/h.</desc>
<speed>0.410000</speed>
</trkpt>
<trkpt lat="55.900311" lon="26.529018">
<ele>113.670959</ele>
<time>2010-06-20T14:31:31Z</time>
<desc>lat.=55.900311, lon.=26.529018, Alt.=113.670959m. Speed=2.448000m/h.</desc>
<speed>0.680000</speed>
</trkpt>
<trkpt lat="55.900311" lon="26.529030">
<ele>113.680725</ele>
<time>2010-06-20T14:31:32Z</time>
<desc>lat.=55.900311, lon.=26.529030, Alt.=113.680725m. Speed=2.232000m/h.</desc>
<speed>0.620000</speed>
</trkpt>
<trkpt lat="55.900311" lon="26.529024">
<ele>113.960022</ele>
<time>2010-06-20T14:31:33Z</time>
<desc>lat.=55.900311, lon.=26.529024, Alt.=113.960022m. Speed=1.188000m/h.</desc>
<speed>0.330000</speed>
</trkpt>
<trkpt lat="55.900307" lon="26.529039">
<ele>114.260803</ele>
<time>2010-06-20T14:31:34Z</time>
<desc>lat.=55.900307, lon.=26.529039, Alt.=114.260803m. Speed=1.296000m/h.</desc>
<speed>0.360000</speed>
</trkpt>
<trkpt lat="55.900307" lon="26.529043">
<ele>114.383850</ele>
<time>2010-06-20T14:31:35Z</time>
<desc>lat.=55.900307, lon.=26.529043, Alt.=114.383850m. Speed=1.224000m/h.</desc>
<speed>0.340000</speed>
</trkpt>
<trkpt lat="55.900311" lon="26.529047">
<ele>114.469788</ele>
<time>2010-06-20T14:31:36Z</time>
<desc>lat.=55.900311, lon.=26.529047, Alt.=114.469788m. Speed=1.260000m/h.</desc>
<speed>0.350000</speed>
</trkpt>
<trkpt lat="55.900311" lon="26.529043">
<ele>114.606506</ele>
<time>2010-06-20T14:31:37Z</time>
<desc>lat.=55.900311, lon.=26.529043, Alt.=114.606506m. Speed=0.900000m/h.</desc>
<speed>0.250000</speed>
</trkpt>
<trkpt lat="55.900311" lon="26.529045">
<ele>114.674866</ele>
<time>2010-06-20T14:31:38Z</time>
<desc>lat.=55.900311, lon.=26.529045, Alt.=114.674866m. Speed=1.080000m/h.</desc>
<speed>0.300000</speed>
</trkpt>
<trkpt lat="55.900303" lon="26.529043">
<ele>114.715881</ele>
<time>2010-06-20T14:31:39Z</time>
<desc>lat.=55.900303, lon.=26.529043, Alt.=114.715881m. Speed=0.612000m/h.</desc>
<speed>0.170000</speed>
</trkpt>
<trkpt lat="55.900299" lon="26.529051">
<ele>114.766663</ele>
<time>2010-06-20T14:31:40Z</time>
<desc>lat.=55.900299, lon.=26.529051, Alt.=114.766663m. Speed=1.008000m/h.</desc>
<speed>0.280000</speed>
</trkpt>
<trkpt lat="55.900291" lon="26.529057">
<ele>114.838928</ele>
<time>2010-06-20T14:31:41Z</time>
<desc>lat.=55.900291, lon.=26.529057, Alt.=114.838928m. Speed=1.440000m/h.</desc>
<speed>0.400000</speed>
</trkpt>
<trkpt lat="55.900288" lon="26.529057">
<ele>114.928772</ele>
<time>2010-06-20T14:31:42Z</time>
<desc>lat.=55.900288, lon.=26.529057, Alt.=114.928772m. Speed=1.368000m/h.</desc>
<speed>0.380000</speed>
</trkpt>
<trkpt lat="55.900291" lon="26.529064">
<ele>115.051819</ele>
<time>2010-06-20T14:31:43Z</time>
<desc>lat.=55.900291, lon.=26.529064, Alt.=115.051819m. Speed=1.512000m/h.</desc>
<speed>0.420000</speed>
</trkpt>
<trkpt lat="55.900284" lon="26.529072">
<ele>114.993225</ele>
<time>2010-06-20T14:31:44Z</time>
<desc>lat.=55.900284, lon.=26.529072, Alt.=114.993225m. Speed=1.692000m/h.</desc>
<speed>0.470000</speed>
</trkpt>
<trkpt lat="55.900291" lon="26.529066">
<ele>114.913147</ele>
<time>2010-06-20T14:31:45Z</time>
<desc>lat.=55.900291, lon.=26.529066, Alt.=114.913147m. Speed=1.260000m/h.</desc>
<speed>0.350000</speed>
</trkpt>
<trkpt lat="55.900291" lon="26.529058">
<ele>114.870178</ele>
<time>2010-06-20T14:31:46Z</time>
<desc>lat.=55.900291, lon.=26.529058, Alt.=114.870178m. Speed=0.792000m/h.</desc>
<speed>0.220000</speed>
</trkpt>
<trkpt lat="55.900291" lon="26.529051">
<ele>114.866272</ele>
<time>2010-06-20T14:31:47Z</time>
<desc>lat.=55.900291, lon.=26.529051, Alt.=114.866272m. Speed=0.540000m/h.</desc>
<speed>0.150000</speed>
</trkpt>
<trkpt lat="55.900291" lon="26.529051">
<ele>114.762756</ele>
<time>2010-06-20T14:31:48Z</time>
<desc>lat.=55.900291, lon.=26.529051, Alt.=114.762756m. Speed=0.180000m/h.</desc>
<speed>0.050000</speed>
</trkpt>
<trkpt lat="55.900291" lon="26.529036">
<ele>114.645569</ele>
<time>2010-06-20T14:31:49Z</time>
<desc>lat.=55.900291, lon.=26.529036, Alt.=114.645569m. Speed=0.360000m/h.</desc>
<speed>0.100000</speed>
</trkpt>
<trkpt lat="55.900291" lon="26.529034">
<ele>114.649475</ele>
<time>2010-06-20T14:31:50Z</time>
<desc>lat.=55.900291, lon.=26.529034, Alt.=114.649475m. Speed=0.576000m/h.</desc>
<speed>0.160000</speed>
</trkpt>
<trkpt lat="55.900295" lon="26.529034">
<ele>114.651428</ele>
<time>2010-06-20T14:31:51Z</time>
<desc>lat.=55.900295, lon.=26.529034, Alt.=114.651428m. Speed=0.828000m/h.</desc>
<speed>0.230000</speed>
</trkpt>
<trkpt lat="55.900295" lon="26.529037">
<ele>114.653381</ele>
<time>2010-06-20T14:31:52Z</time>
<desc>lat.=55.900295, lon.=26.529037, Alt.=114.653381m. Speed=0.972000m/h.</desc>
<speed>0.270000</speed>
</trkpt>
<trkpt lat="55.900295" lon="26.529041">
<ele>114.655334</ele>
<time>2010-06-20T14:31:53Z</time>
<desc>lat.=55.900295, lon.=26.529041, Alt.=114.655334m. Speed=0.648000m/h.</desc>
<speed>0.180000</speed>
</trkpt>
<trkpt lat="55.900295" lon="26.529043">
<ele>114.657288</ele>
<time>2010-06-20T14:31:54Z</time>
<desc>lat.=55.900295, lon.=26.529043, Alt.=114.657288m. Speed=0.180000m/h.</desc>
<speed>0.050000</speed>
</trkpt>
<trkpt lat="55.900295" lon="26.529045">
<ele>114.667053</ele>
<time>2010-06-20T14:31:55Z</time>
<desc>lat.=55.900295, lon.=26.529045, Alt.=114.667053m. Speed=0.540000m/h.</desc>
<speed>0.150000</speed>
</trkpt>
<trkpt lat="55.900295" lon="26.529047">
<ele>114.672913</ele>
<time>2010-06-20T14:31:56Z</time>
<desc>lat.=55.900295, lon.=26.529047, Alt.=114.672913m. Speed=0.432000m/h.</desc>
<speed>0.120000</speed>
</trkpt>
<trkpt lat="55.900295" lon="26.529047">
<ele>114.682678</ele>
<time>2010-06-20T14:31:57Z</time>
<desc>lat.=55.900295, lon.=26.529047, Alt.=114.682678m. Speed=0.504000m/h.</desc>
<speed>0.140000</speed>
</trkpt>
<trkpt lat="55.900295" lon="26.529047">
<ele>114.690491</ele>
<time>2010-06-20T14:31:58Z</time>
<desc>lat.=55.900295, lon.=26.529047, Alt.=114.690491m. Speed=0.828000m/h.</desc>
<speed>0.230000</speed>
</trkpt>
<trkpt lat="55.900299" lon="26.529049">
<ele>114.708069</ele>
<time>2010-06-20T14:31:59Z</time>
<desc>lat.=55.900299, lon.=26.529049, Alt.=114.708069m. Speed=0.792000m/h.</desc>
<speed>0.220000</speed>
</trkpt>
<trkpt lat="55.900299" lon="26.529047">
<ele>114.721741</ele>
<time>2010-06-20T14:32:00Z</time>
<desc>lat.=55.900299, lon.=26.529047, Alt.=114.721741m. Speed=0.576000m/h.</desc>
<speed>0.160000</speed>
</trkpt>
<trkpt lat="55.900303" lon="26.529045">
<ele>114.731506</ele>
<time>2010-06-20T14:32:01Z</time>
<desc>lat.=55.900303, lon.=26.529045, Alt.=114.731506m. Speed=0.288000m/h.</desc>
<speed>0.080000</speed>
</trkpt>
<trkpt lat="55.900303" lon="26.529045">
<ele>114.737366</ele>
<time>2010-06-20T14:32:02Z</time>
<desc>lat.=55.900303, lon.=26.529045, Alt.=114.737366m. Speed=0.900000m/h.</desc>
<speed>0.250000</speed>
</trkpt>
<trkpt lat="55.900303" lon="26.529049">
<ele>114.743225</ele>
<time>2010-06-20T14:32:03Z</time>
<desc>lat.=55.900303, lon.=26.529049, Alt.=114.743225m. Speed=1.764000m/h.</desc>
<speed>0.490000</speed>
</trkpt>
<trkpt lat="55.900295" lon="26.529053">
<ele>114.854553</ele>
<time>2010-06-20T14:32:04Z</time>
<desc>lat.=55.900295, lon.=26.529053, Alt.=114.854553m. Speed=1.692000m/h.</desc>
<speed>0.470000</speed>
</trkpt>
<trkpt lat="55.900291" lon="26.529039">
<ele>115.040100</ele>
<time>2010-06-20T14:32:05Z</time>
<desc>lat.=55.900291, lon.=26.529039, Alt.=115.040100m. Speed=1.044000m/h.</desc>
<speed>0.290000</speed>
</trkpt>
<trkpt lat="55.900291" lon="26.529041">
<ele>115.217834</ele>
<time>2010-06-20T14:32:06Z</time>
<desc>lat.=55.900291, lon.=26.529041, Alt.=115.217834m. Speed=0.612000m/h.</desc>
<speed>0.170000</speed>
</trkpt>
<trkpt lat="55.900291" lon="26.529037">
<ele>115.381897</ele>
<time>2010-06-20T14:32:07Z</time>
<desc>lat.=55.900291, lon.=26.529037, Alt.=115.381897m. Speed=0.396000m/h.</desc>
<speed>0.110000</speed>
</trkpt>
<trkpt lat="55.900288" lon="26.529030">
<ele>115.483459</ele>
<time>2010-06-20T14:32:08Z</time>
<desc>lat.=55.900288, lon.=26.529030, Alt.=115.483459m. Speed=0.648000m/h.</desc>
<speed>0.180000</speed>
</trkpt>
<trkpt lat="55.900284" lon="26.529030">
<ele>115.495178</ele>
<time>2010-06-20T14:32:09Z</time>
<desc>lat.=55.900284, lon.=26.529030, Alt.=115.495178m. Speed=1.260000m/h.</desc>
<speed>0.350000</speed>
</trkpt>
<trkpt lat="55.900284" lon="26.529018">
<ele>115.530334</ele>
<time>2010-06-20T14:32:10Z</time>
<desc>lat.=55.900284, lon.=26.529018, Alt.=115.530334m. Speed=1.116000m/h.</desc>
<speed>0.310000</speed>
</trkpt>
<trkpt lat="55.900284" lon="26.529013">
<ele>115.542053</ele>
<time>2010-06-20T14:32:11Z</time>
<desc>lat.=55.900284, lon.=26.529013, Alt.=115.542053m. Speed=0.612000m/h.</desc>
<speed>0.170000</speed>
</trkpt>
<trkpt lat="55.900288" lon="26.529003">
<ele>115.487366</ele>
<time>2010-06-20T14:32:12Z</time>
<desc>lat.=55.900288, lon.=26.529003, Alt.=115.487366m. Speed=0.792000m/h.</desc>
<speed>0.220000</speed>
</trkpt>
<trkpt lat="55.900280" lon="26.528997">
<ele>115.676819</ele>
<time>2010-06-20T14:32:13Z</time>
<desc>lat.=55.900280, lon.=26.528997, Alt.=115.676819m. Speed=0.612000m/h.</desc>
<speed>0.170000</speed>
</trkpt>
<trkpt lat="55.900280" lon="26.528990">
<ele>115.792053</ele>
<time>2010-06-20T14:32:14Z</time>
<desc>lat.=55.900280, lon.=26.528990, Alt.=115.792053m. Speed=0.864000m/h.</desc>
<speed>0.240000</speed>
</trkpt>
<trkpt lat="55.900280" lon="26.528988">
<ele>115.797913</ele>
<time>2010-06-20T14:32:15Z</time>
<desc>lat.=55.900280, lon.=26.528988, Alt.=115.797913m. Speed=0.468000m/h.</desc>
<speed>0.130000</speed>
</trkpt>
<trkpt lat="55.900280" lon="26.528984">
<ele>115.801819</ele>
<time>2010-06-20T14:32:16Z</time>
<desc>lat.=55.900280, lon.=26.528984, Alt.=115.801819m. Speed=0.108000m/h.</desc>
<speed>0.030000</speed>
</trkpt>
<trkpt lat="55.900280" lon="26.528984">
<ele>115.805725</ele>
<time>2010-06-20T14:32:17Z</time>
<desc>lat.=55.900280, lon.=26.528984, Alt.=115.805725m. Speed=0.324000m/h.</desc>
<speed>0.090000</speed>
</trkpt>
<trkpt lat="55.900280" lon="26.528984">
<ele>115.805725</ele>
<time>2010-06-20T14:32:18Z</time>
<desc>lat.=55.900280, lon.=26.528984, Alt.=115.805725m. Speed=0.612000m/h.</desc>
<speed>0.170000</speed>
</trkpt>
<trkpt lat="55.900280" lon="26.528982">
<ele>115.805725</ele>
<time>2010-06-20T14:32:19Z</time>
<desc>lat.=55.900280, lon.=26.528982, Alt.=115.805725m. Speed=0.828000m/h.</desc>
<speed>0.230000</speed>
</trkpt>
<trkpt lat="55.900280" lon="26.528978">
<ele>115.803772</ele>
<time>2010-06-20T14:32:20Z</time>
<desc>lat.=55.900280, lon.=26.528978, Alt.=115.803772m. Speed=0.360000m/h.</desc>
<speed>0.100000</speed>
</trkpt>
<trkpt lat="55.900280" lon="26.528976">
<ele>115.801819</ele>
<time>2010-06-20T14:32:21Z</time>
<desc>lat.=55.900280, lon.=26.528976, Alt.=115.801819m. Speed=0.144000m/h.</desc>
<speed>0.040000</speed>
</trkpt>
<trkpt lat="55.900280" lon="26.528976">
<ele>115.799866</ele>
<time>2010-06-20T14:32:22Z</time>
<desc>lat.=55.900280, lon.=26.528976, Alt.=115.799866m. Speed=0.360000m/h.</desc>
<speed>0.100000</speed>
</trkpt>
<trkpt lat="55.900280" lon="26.528978">
<ele>115.797913</ele>
<time>2010-06-20T14:32:23Z</time>
<desc>lat.=55.900280, lon.=26.528978, Alt.=115.797913m. Speed=0.288000m/h.</desc>
<speed>0.080000</speed>
</trkpt>
<trkpt lat="55.900280" lon="26.528978">
<ele>115.794006</ele>
<time>2010-06-20T14:32:24Z</time>
<desc>lat.=55.900280, lon.=26.528978, Alt.=115.794006m. Speed=0.684000m/h.</desc>
<speed>0.190000</speed>
</trkpt>
<trkpt lat="55.900284" lon="26.528978">
<ele>115.790100</ele>
<time>2010-06-20T14:32:25Z</time>
<desc>lat.=55.900284, lon.=26.528978, Alt.=115.790100m. Speed=0.396000m/h.</desc>
<speed>0.110000</speed>
</trkpt>
<trkpt lat="55.900284" lon="26.528980">
<ele>115.782288</ele>
<time>2010-06-20T14:32:26Z</time>
<desc>lat.=55.900284, lon.=26.528980, Alt.=115.782288m. Speed=0.324000m/h.</desc>
<speed>0.090000</speed>
</trkpt>
<trkpt lat="55.900284" lon="26.528982">
<ele>115.782288</ele>
<time>2010-06-20T14:32:27Z</time>
<desc>lat.=55.900284, lon.=26.528982, Alt.=115.782288m. Speed=0.828000m/h.</desc>
<speed>0.230000</speed>
</trkpt>
<trkpt lat="55.900284" lon="26.528984">
<ele>115.784241</ele>
<time>2010-06-20T14:32:28Z</time>
<desc>lat.=55.900284, lon.=26.528984, Alt.=115.784241m. Speed=0.972000m/h.</desc>
<speed>0.270000</speed>
</trkpt>
<trkpt lat="55.900284" lon="26.528990">
<ele>115.784241</ele>
<time>2010-06-20T14:32:29Z</time>
<desc>lat.=55.900284, lon.=26.528990, Alt.=115.784241m. Speed=0.684000m/h.</desc>
<speed>0.190000</speed>
</trkpt>
<trkpt lat="55.900288" lon="26.528992">
<ele>115.784241</ele>
<time>2010-06-20T14:32:30Z</time>
<desc>lat.=55.900288, lon.=26.528992, Alt.=115.784241m. Speed=0.504000m/h.</desc>
<speed>0.140000</speed>
</trkpt>
<trkpt lat="55.900288" lon="26.528994">
<ele>115.778381</ele>
<time>2010-06-20T14:32:31Z</time>
<desc>lat.=55.900288, lon.=26.528994, Alt.=115.778381m. Speed=0.288000m/h.</desc>
<speed>0.080000</speed>
</trkpt>
<trkpt lat="55.900288" lon="26.528996">
<ele>115.776428</ele>
<time>2010-06-20T14:32:32Z</time>
<desc>lat.=55.900288, lon.=26.528996, Alt.=115.776428m. Speed=0.216000m/h.</desc>
<speed>0.060000</speed>
</trkpt>
<trkpt lat="55.900288" lon="26.528996">
<ele>115.774475</ele>
<time>2010-06-20T14:32:33Z</time>
<desc>lat.=55.900288, lon.=26.528996, Alt.=115.774475m. Speed=0.684000m/h.</desc>
<speed>0.190000</speed>
</trkpt>
<trkpt lat="55.900288" lon="26.528997">
<ele>115.770569</ele>
<time>2010-06-20T14:32:34Z</time>
<desc>lat.=55.900288, lon.=26.528997, Alt.=115.770569m. Speed=0.396000m/h.</desc>
<speed>0.110000</speed>
</trkpt>
<trkpt lat="55.900291" lon="26.528997">
<ele>115.768616</ele>
<time>2010-06-20T14:32:35Z</time>
<desc>lat.=55.900291, lon.=26.528997, Alt.=115.768616m. Speed=0.360000m/h.</desc>
<speed>0.100000</speed>
</trkpt>
<trkpt lat="55.900291" lon="26.528999">
<ele>115.764709</ele>
<time>2010-06-20T14:32:36Z</time>
<desc>lat.=55.900291, lon.=26.528999, Alt.=115.764709m. Speed=0.684000m/h.</desc>
<speed>0.190000</speed>
</trkpt>
<trkpt lat="55.900291" lon="26.528997">
<ele>115.764709</ele>
<time>2010-06-20T14:32:37Z</time>
<desc>lat.=55.900291, lon.=26.528997, Alt.=115.764709m. Speed=0.684000m/h.</desc>
<speed>0.190000</speed>
</trkpt>
<trkpt lat="55.900291" lon="26.528994">
<ele>115.758850</ele>
<time>2010-06-20T14:32:38Z</time>
<desc>lat.=55.900291, lon.=26.528994, Alt.=115.758850m. Speed=0.756000m/h.</desc>
<speed>0.210000</speed>
</trkpt>
<trkpt lat="55.900295" lon="26.528992">
<ele>115.754944</ele>
<time>2010-06-20T14:32:39Z</time>
<desc>lat.=55.900295, lon.=26.528992, Alt.=115.754944m. Speed=0.576000m/h.</desc>
<speed>0.160000</speed>
</trkpt>
<trkpt lat="55.900295" lon="26.528992">
<ele>115.751038</ele>
<time>2010-06-20T14:32:40Z</time>
<desc>lat.=55.900295, lon.=26.528992, Alt.=115.751038m. Speed=0.324000m/h.</desc>
<speed>0.090000</speed>
</trkpt>
<trkpt lat="55.900295" lon="26.528992">
<ele>115.747131</ele>
<time>2010-06-20T14:32:41Z</time>
<desc>lat.=55.900295, lon.=26.528992, Alt.=115.747131m. Speed=0.540000m/h.</desc>
<speed>0.150000</speed>
</trkpt>
<trkpt lat="55.900299" lon="26.528992">
<ele>115.741272</ele>
<time>2010-06-20T14:32:42Z</time>
<desc>lat.=55.900299, lon.=26.528992, Alt.=115.741272m. Speed=0.576000m/h.</desc>
<speed>0.160000</speed>
</trkpt>
<trkpt lat="55.900299" lon="26.528992">
<ele>115.737366</ele>
<time>2010-06-20T14:32:43Z</time>
<desc>lat.=55.900299, lon.=26.528992, Alt.=115.737366m. Speed=0.252000m/h.</desc>
<speed>0.070000</speed>
</trkpt>
<trkpt lat="55.900299" lon="26.528990">
<ele>115.727600</ele>
<time>2010-06-20T14:32:44Z</time>
<desc>lat.=55.900299, lon.=26.528990, Alt.=115.727600m. Speed=0.756000m/h.</desc>
<speed>0.210000</speed>
</trkpt>
<trkpt lat="55.900295" lon="26.528990">
<ele>115.717834</ele>
<time>2010-06-20T14:32:45Z</time>
<desc>lat.=55.900295, lon.=26.528990, Alt.=115.717834m. Speed=1.044000m/h.</desc>
<speed>0.290000</speed>
</trkpt>
<trkpt lat="55.900295" lon="26.528994">
<ele>115.704163</ele>
<time>2010-06-20T14:32:46Z</time>
<desc>lat.=55.900295, lon.=26.528994, Alt.=115.704163m. Speed=0.864000m/h.</desc>
<speed>0.240000</speed>
</trkpt>
<trkpt lat="55.900291" lon="26.528992">
<ele>115.686584</ele>
<time>2010-06-20T14:32:47Z</time>
<desc>lat.=55.900291, lon.=26.528992, Alt.=115.686584m. Speed=0.324000m/h.</desc>
<speed>0.090000</speed>
</trkpt>
<trkpt lat="55.900291" lon="26.528992">
<ele>115.670959</ele>
<time>2010-06-20T14:32:48Z</time>
<desc>lat.=55.900291, lon.=26.528992, Alt.=115.670959m. Speed=0.612000m/h.</desc>
<speed>0.170000</speed>
</trkpt>
<trkpt lat="55.900291" lon="26.528994">
<ele>115.657288</ele>
<time>2010-06-20T14:32:49Z</time>
<desc>lat.=55.900291, lon.=26.528994, Alt.=115.657288m. Speed=0.180000m/h.</desc>
<speed>0.050000</speed>
</trkpt>
<trkpt lat="55.900291" lon="26.528994">
<ele>115.647522</ele>
<time>2010-06-20T14:32:50Z</time>
<desc>lat.=55.900291, lon.=26.528994, Alt.=115.647522m. Speed=0.072000m/h.</desc>
<speed>0.020000</speed>
</trkpt>
<trkpt lat="55.900291" lon="26.528994">
<ele>115.637756</ele>
<time>2010-06-20T14:32:51Z</time>
<desc>lat.=55.900291, lon.=26.528994, Alt.=115.637756m. Speed=0.684000m/h.</desc>
<speed>0.190000</speed>
</trkpt>
<trkpt lat="55.900291" lon="26.528992">
<ele>115.629944</ele>
<time>2010-06-20T14:32:52Z</time>
<desc>lat.=55.900291, lon.=26.528992, Alt.=115.629944m. Speed=0.540000m/h.</desc>
<speed>0.150000</speed>
</trkpt>
<trkpt lat="55.900291" lon="26.528988">
<ele>115.622131</ele>
<time>2010-06-20T14:32:53Z</time>
<desc>lat.=55.900291, lon.=26.528988, Alt.=115.622131m. Speed=0.612000m/h.</desc>
<speed>0.170000</speed>
</trkpt>
<trkpt lat="55.900288" lon="26.528986">
<ele>115.618225</ele>
<time>2010-06-20T14:32:54Z</time>
<desc>lat.=55.900288, lon.=26.528986, Alt.=115.618225m. Speed=0.108000m/h.</desc>
<speed>0.030000</speed>
</trkpt>
<trkpt lat="55.900288" lon="26.528986">
<ele>115.612366</ele>
<time>2010-06-20T14:32:55Z</time>
<desc>lat.=55.900288, lon.=26.528986, Alt.=115.612366m. Speed=0.468000m/h.</desc>
<speed>0.130000</speed>
</trkpt>
<trkpt lat="55.900288" lon="26.528990">
<ele>115.608459</ele>
<time>2010-06-20T14:32:56Z</time>
<desc>lat.=55.900288, lon.=26.528990, Alt.=115.608459m. Speed=0.576000m/h.</desc>
<speed>0.160000</speed>
</trkpt>
<trkpt lat="55.900288" lon="26.528992">
<ele>115.600647</ele>
<time>2010-06-20T14:32:57Z</time>
<desc>lat.=55.900288, lon.=26.528992, Alt.=115.600647m. Speed=1.116000m/h.</desc>
<speed>0.310000</speed>
</trkpt>
<trkpt lat="55.900280" lon="26.529005">
<ele>115.461975</ele>
<time>2010-06-20T14:32:58Z</time>
<desc>lat.=55.900280, lon.=26.529005, Alt.=115.461975m. Speed=1.332000m/h.</desc>
<speed>0.370000</speed>
</trkpt>
<trkpt lat="55.900284" lon="26.529001">
<ele>115.206116</ele>
<time>2010-06-20T14:32:59Z</time>
<desc>lat.=55.900284, lon.=26.529001, Alt.=115.206116m. Speed=0.720000m/h.</desc>
<speed>0.200000</speed>
</trkpt>
<trkpt lat="55.900284" lon="26.528994">
<ele>115.092834</ele>
<time>2010-06-20T14:33:00Z</time>
<desc>lat.=55.900284, lon.=26.528994, Alt.=115.092834m. Speed=0.540000m/h.</desc>
<speed>0.150000</speed>
</trkpt>
<trkpt lat="55.900288" lon="26.528996">
<ele>115.079163</ele>
<time>2010-06-20T14:33:01Z</time>
<desc>lat.=55.900288, lon.=26.528996, Alt.=115.079163m. Speed=0.180000m/h.</desc>
<speed>0.050000</speed>
</trkpt>
<trkpt lat="55.900295" lon="26.528988">
<ele>114.938538</ele>
<time>2010-06-20T14:33:02Z</time>
<desc>lat.=55.900295, lon.=26.528988, Alt.=114.938538m. Speed=0.288000m/h.</desc>
<speed>0.080000</speed>
</trkpt>
<trkpt lat="55.900295" lon="26.528988">
<ele>114.930725</ele>
<time>2010-06-20T14:33:03Z</time>
<desc>lat.=55.900295, lon.=26.528988, Alt.=114.930725m. Speed=0.612000m/h.</desc>
<speed>0.170000</speed>
</trkpt>
<trkpt lat="55.900295" lon="26.528986">
<ele>114.926819</ele>
<time>2010-06-20T14:33:04Z</time>
<desc>lat.=55.900295, lon.=26.528986, Alt.=114.926819m. Speed=0.396000m/h.</desc>
<speed>0.110000</speed>
</trkpt>
<trkpt lat="55.900295" lon="26.528984">
<ele>114.922913</ele>
<time>2010-06-20T14:33:05Z</time>
<desc>lat.=55.900295, lon.=26.528984, Alt.=114.922913m. Speed=0.216000m/h.</desc>
<speed>0.060000</speed>
</trkpt>
<trkpt lat="55.900295" lon="26.528984">
<ele>114.922913</ele>
<time>2010-06-20T14:33:06Z</time>
<desc>lat.=55.900295, lon.=26.528984, Alt.=114.922913m. Speed=0.504000m/h.</desc>
<speed>0.140000</speed>
</trkpt>
<trkpt lat="55.900295" lon="26.528984">
<ele>114.922913</ele>
<time>2010-06-20T14:33:07Z</time>
<desc>lat.=55.900295, lon.=26.528984, Alt.=114.922913m. Speed=1.152000m/h.</desc>
<speed>0.320000</speed>
</trkpt>
<trkpt lat="55.900299" lon="26.528975">
<ele>114.874084</ele>
<time>2010-06-20T14:33:08Z</time>
<desc>lat.=55.900299, lon.=26.528975, Alt.=114.874084m. Speed=1.188000m/h.</desc>
<speed>0.330000</speed>
</trkpt>
<trkpt lat="55.900295" lon="26.528976">
<ele>115.028381</ele>
<time>2010-06-20T14:33:09Z</time>
<desc>lat.=55.900295, lon.=26.528976, Alt.=115.028381m. Speed=0.900000m/h.</desc>
<speed>0.250000</speed>
</trkpt>
<trkpt lat="55.900295" lon="26.528990">
<ele>114.784241</ele>
<time>2010-06-20T14:33:10Z</time>
<desc>lat.=55.900295, lon.=26.528990, Alt.=114.784241m. Speed=0.792000m/h.</desc>
<speed>0.220000</speed>
</trkpt>
<trkpt lat="55.900291" lon="26.528997">
<ele>114.708069</ele>
<time>2010-06-20T14:33:11Z</time>
<desc>lat.=55.900291, lon.=26.528997, Alt.=114.708069m. Speed=0.684000m/h.</desc>
<speed>0.190000</speed>
</trkpt>
<trkpt lat="55.900284" lon="26.529007">
<ele>114.670959</ele>
<time>2010-06-20T14:33:12Z</time>
<desc>lat.=55.900284, lon.=26.529007, Alt.=114.670959m. Speed=0.540000m/h.</desc>
<speed>0.150000</speed>
</trkpt>
<trkpt lat="55.900288" lon="26.529009">
<ele>114.672913</ele>
<time>2010-06-20T14:33:13Z</time>
<desc>lat.=55.900288, lon.=26.529009, Alt.=114.672913m. Speed=0.540000m/h.</desc>
<speed>0.150000</speed>
</trkpt>
<trkpt lat="55.900284" lon="26.529011">
<ele>114.670959</ele>
<time>2010-06-20T14:33:14Z</time>
<desc>lat.=55.900284, lon.=26.529011, Alt.=114.670959m. Speed=0.576000m/h.</desc>
<speed>0.160000</speed>
</trkpt>
<trkpt lat="55.900284" lon="26.529013">
<ele>114.667053</ele>
<time>2010-06-20T14:33:15Z</time>
<desc>lat.=55.900284, lon.=26.529013, Alt.=114.667053m. Speed=1.044000m/h.</desc>
<speed>0.290000</speed>
</trkpt>
<trkpt lat="55.900284" lon="26.529016">
<ele>114.661194</ele>
<time>2010-06-20T14:33:16Z</time>
<desc>lat.=55.900284, lon.=26.529016, Alt.=114.661194m. Speed=0.576000m/h.</desc>
<speed>0.160000</speed>
</trkpt>
<trkpt lat="55.900280" lon="26.529018">
<ele>114.655334</ele>
<time>2010-06-20T14:33:17Z</time>
<desc>lat.=55.900280, lon.=26.529018, Alt.=114.655334m. Speed=0.684000m/h.</desc>
<speed>0.190000</speed>
</trkpt>
<trkpt lat="55.900280" lon="26.529022">
<ele>114.651428</ele>
<time>2010-06-20T14:33:18Z</time>
<desc>lat.=55.900280, lon.=26.529022, Alt.=114.651428m. Speed=0.504000m/h.</desc>
<speed>0.140000</speed>
</trkpt>
<trkpt lat="55.900280" lon="26.529024">
<ele>114.647522</ele>
<time>2010-06-20T14:33:19Z</time>
<desc>lat.=55.900280, lon.=26.529024, Alt.=114.647522m. Speed=0.648000m/h.</desc>
<speed>0.180000</speed>
</trkpt>
<trkpt lat="55.900280" lon="26.529026">
<ele>114.645569</ele>
<time>2010-06-20T14:33:20Z</time>
<desc>lat.=55.900280, lon.=26.529026, Alt.=114.645569m. Speed=0.216000m/h.</desc>
<speed>0.060000</speed>
</trkpt>
<trkpt lat="55.900280" lon="26.529026">
<ele>114.643616</ele>
<time>2010-06-20T14:33:21Z</time>
<desc>lat.=55.900280, lon.=26.529026, Alt.=114.643616m. Speed=0.144000m/h.</desc>
<speed>0.040000</speed>
</trkpt>
<trkpt lat="55.900280" lon="26.529028">
<ele>114.641663</ele>
<time>2010-06-20T14:33:22Z</time>
<desc>lat.=55.900280, lon.=26.529028, Alt.=114.641663m. Speed=0.468000m/h.</desc>
<speed>0.130000</speed>
</trkpt>
<trkpt lat="55.900280" lon="26.529028">
<ele>114.639709</ele>
<time>2010-06-20T14:33:23Z</time>
<desc>lat.=55.900280, lon.=26.529028, Alt.=114.639709m. Speed=0.936000m/h.</desc>
<speed>0.260000</speed>
</trkpt>
<trkpt lat="55.900280" lon="26.529032">
<ele>114.639709</ele>
<time>2010-06-20T14:33:24Z</time>
<desc>lat.=55.900280, lon.=26.529032, Alt.=114.639709m. Speed=0.288000m/h.</desc>
<speed>0.080000</speed>
</trkpt>
<trkpt lat="55.900280" lon="26.529034">
<ele>114.641663</ele>
<time>2010-06-20T14:33:25Z</time>
<desc>lat.=55.900280, lon.=26.529034, Alt.=114.641663m. Speed=0.324000m/h.</desc>
<speed>0.090000</speed>
</trkpt>
<trkpt lat="55.900280" lon="26.529036">
<ele>114.643616</ele>
<time>2010-06-20T14:33:26Z</time>
<desc>lat.=55.900280, lon.=26.529036, Alt.=114.643616m. Speed=0.576000m/h.</desc>
<speed>0.160000</speed>
</trkpt>
<trkpt lat="55.900280" lon="26.529036">
<ele>114.647522</ele>
<time>2010-06-20T14:33:27Z</time>
<desc>lat.=55.900280, lon.=26.529036, Alt.=114.647522m. Speed=0.360000m/h.</desc>
<speed>0.100000</speed>
</trkpt>
<trkpt lat="55.900284" lon="26.529036">
<ele>114.655334</ele>
<time>2010-06-20T14:33:28Z</time>
<desc>lat.=55.900284, lon.=26.529036, Alt.=114.655334m. Speed=0.180000m/h.</desc>
<speed>0.050000</speed>
</trkpt>
<trkpt lat="55.900284" lon="26.529036">
<ele>114.659241</ele>
<time>2010-06-20T14:33:29Z</time>
<desc>lat.=55.900284, lon.=26.529036, Alt.=114.659241m. Speed=0.324000m/h.</desc>
<speed>0.090000</speed>
</trkpt>
<trkpt lat="55.900284" lon="26.529037">
<ele>114.661194</ele>
<time>2010-06-20T14:33:30Z</time>
<desc>lat.=55.900284, lon.=26.529037, Alt.=114.661194m. Speed=0.396000m/h.</desc>
<speed>0.110000</speed>
</trkpt>
<trkpt lat="55.900284" lon="26.529037">
<ele>114.659241</ele>
<time>2010-06-20T14:33:31Z</time>
<desc>lat.=55.900284, lon.=26.529037, Alt.=114.659241m. Speed=0.468000m/h.</desc>
<speed>0.130000</speed>
</trkpt>
<trkpt lat="55.900284" lon="26.529037">
<ele>114.653381</ele>
<time>2010-06-20T14:33:32Z</time>
<desc>lat.=55.900284, lon.=26.529037, Alt.=114.653381m. Speed=0.288000m/h.</desc>
<speed>0.080000</speed>
</trkpt>
<trkpt lat="55.900288" lon="26.529036">
<ele>114.645569</ele>
<time>2010-06-20T14:33:33Z</time>
<desc>lat.=55.900288, lon.=26.529036, Alt.=114.645569m. Speed=0.684000m/h.</desc>
<speed>0.190000</speed>
</trkpt>
<trkpt lat="55.900284" lon="26.529039">
<ele>114.639709</ele>
<time>2010-06-20T14:33:34Z</time>
<desc>lat.=55.900284, lon.=26.529039, Alt.=114.639709m. Speed=1.260000m/h.</desc>
<speed>0.350000</speed>
</trkpt>
<trkpt lat="55.900280" lon="26.529039">
<ele>114.549866</ele>
<time>2010-06-20T14:33:35Z</time>
<desc>lat.=55.900280, lon.=26.529039, Alt.=114.549866m. Speed=0.972000m/h.</desc>
<speed>0.270000</speed>
</trkpt>
<trkpt lat="55.900276" lon="26.529051">
<ele>114.479553</ele>
<time>2010-06-20T14:33:36Z</time>
<desc>lat.=55.900276, lon.=26.529051, Alt.=114.479553m. Speed=0.972000m/h.</desc>
<speed>0.270000</speed>
</trkpt>
<trkpt lat="55.900272" lon="26.529055">
<ele>114.327209</ele>
<time>2010-06-20T14:33:37Z</time>
<desc>lat.=55.900272, lon.=26.529055, Alt.=114.327209m. Speed=0.972000m/h.</desc>
<speed>0.270000</speed>
</trkpt>
<trkpt lat="55.900269" lon="26.529064">
<ele>114.012756</ele>
<time>2010-06-20T14:33:38Z</time>
<desc>lat.=55.900269, lon.=26.529064, Alt.=114.012756m. Speed=1.152000m/h.</desc>
<speed>0.320000</speed>
</trkpt>
<trkpt lat="55.900269" lon="26.529066">
<ele>113.809631</ele>
<time>2010-06-20T14:33:39Z</time>
<desc>lat.=55.900269, lon.=26.529066, Alt.=113.809631m. Speed=1.512000m/h.</desc>
<speed>0.420000</speed>
</trkpt>
<trkpt lat="55.900276" lon="26.529060">
<ele>113.747131</ele>
<time>2010-06-20T14:33:40Z</time>
<desc>lat.=55.900276, lon.=26.529060, Alt.=113.747131m. Speed=1.728000m/h.</desc>
<speed>0.480000</speed>
</trkpt>
<trkpt lat="55.900272" lon="26.529055">
<ele>113.836975</ele>
<time>2010-06-20T14:33:41Z</time>
<desc>lat.=55.900272, lon.=26.529055, Alt.=113.836975m. Speed=1.620000m/h.</desc>
<speed>0.450000</speed>
</trkpt>
<trkpt lat="55.900276" lon="26.529047">
<ele>113.860413</ele>
<time>2010-06-20T14:33:42Z</time>
<desc>lat.=55.900276, lon.=26.529047, Alt.=113.860413m. Speed=1.224000m/h.</desc>
<speed>0.340000</speed>
</trkpt>
<trkpt lat="55.900284" lon="26.529041">
<ele>113.926819</ele>
<time>2010-06-20T14:33:43Z</time>
<desc>lat.=55.900284, lon.=26.529041, Alt.=113.926819m. Speed=1.080000m/h.</desc>
<speed>0.300000</speed>
</trkpt>
<trkpt lat="55.900288" lon="26.529037">
<ele>113.899475</ele>
<time>2010-06-20T14:33:44Z</time>
<desc>lat.=55.900288, lon.=26.529037, Alt.=113.899475m. Speed=1.224000m/h.</desc>
<speed>0.340000</speed>
</trkpt>
<trkpt lat="55.900291" lon="26.529026">
<ele>113.739319</ele>
<time>2010-06-20T14:33:45Z</time>
<desc>lat.=55.900291, lon.=26.529026, Alt.=113.739319m. Speed=0.900000m/h.</desc>
<speed>0.250000</speed>
</trkpt>
<trkpt lat="55.900299" lon="26.529016">
<ele>113.866272</ele>
<time>2010-06-20T14:33:46Z</time>
<desc>lat.=55.900299, lon.=26.529016, Alt.=113.866272m. Speed=0.072000m/h.</desc>
<speed>0.020000</speed>
</trkpt>
<trkpt lat="55.900307" lon="26.529005">
<ele>113.827209</ele>
<time>2010-06-20T14:33:47Z</time>
<desc>lat.=55.900307, lon.=26.529005, Alt.=113.827209m. Speed=0.684000m/h.</desc>
<speed>0.190000</speed>
</trkpt>
<trkpt lat="55.900311" lon="26.528996">
<ele>113.920959</ele>
<time>2010-06-20T14:33:48Z</time>
<desc>lat.=55.900311, lon.=26.528996, Alt.=113.920959m. Speed=1.008000m/h.</desc>
<speed>0.280000</speed>
</trkpt>
<trkpt lat="55.900314" lon="26.528994">
<ele>113.920959</ele>
<time>2010-06-20T14:33:49Z</time>
<desc>lat.=55.900314, lon.=26.528994, Alt.=113.920959m. Speed=1.116000m/h.</desc>
<speed>0.310000</speed>
</trkpt>
<trkpt lat="55.900322" lon="26.528994">
<ele>113.876038</ele>
<time>2010-06-20T14:33:50Z</time>
<desc>lat.=55.900322, lon.=26.528994, Alt.=113.876038m. Speed=1.512000m/h.</desc>
<speed>0.420000</speed>
</trkpt>
<trkpt lat="55.900322" lon="26.528990">
<ele>113.876038</ele>
<time>2010-06-20T14:33:51Z</time>
<desc>lat.=55.900322, lon.=26.528990, Alt.=113.876038m. Speed=0.864000m/h.</desc>
<speed>0.240000</speed>
</trkpt>
<trkpt lat="55.900322" lon="26.528990">
<ele>113.864319</ele>
<time>2010-06-20T14:33:52Z</time>
<desc>lat.=55.900322, lon.=26.528990, Alt.=113.864319m. Speed=0.252000m/h.</desc>
<speed>0.070000</speed>
</trkpt>
<trkpt lat="55.900318" lon="26.528994">
<ele>113.852600</ele>
<time>2010-06-20T14:33:53Z</time>
<desc>lat.=55.900318, lon.=26.528994, Alt.=113.852600m. Speed=0.612000m/h.</desc>
<speed>0.170000</speed>
</trkpt>
<trkpt lat="55.900314" lon="26.528994">
<ele>113.973694</ele>
<time>2010-06-20T14:33:54Z</time>
<desc>lat.=55.900314, lon.=26.528994, Alt.=113.973694m. Speed=0.864000m/h.</desc>
<speed>0.240000</speed>
</trkpt>
<trkpt lat="55.900311" lon="26.528996">
<ele>113.971741</ele>
<time>2010-06-20T14:33:55Z</time>
<desc>lat.=55.900311, lon.=26.528996, Alt.=113.971741m. Speed=0.792000m/h.</desc>
<speed>0.220000</speed>
</trkpt>
<trkpt lat="55.900311" lon="26.528994">
<ele>113.973694</ele>
<time>2010-06-20T14:33:56Z</time>
<desc>lat.=55.900311, lon.=26.528994, Alt.=113.973694m. Speed=0.360000m/h.</desc>
<speed>0.100000</speed>
</trkpt>
<trkpt lat="55.900311" lon="26.528994">
<ele>113.973694</ele>
<time>2010-06-20T14:33:57Z</time>
<desc>lat.=55.900311, lon.=26.528994, Alt.=113.973694m. Speed=0.108000m/h.</desc>
<speed>0.030000</speed>
</trkpt>
<trkpt lat="55.900311" lon="26.528992">
<ele>113.969788</ele>
<time>2010-06-20T14:33:58Z</time>
<desc>lat.=55.900311, lon.=26.528992, Alt.=113.969788m. Speed=0.144000m/h.</desc>
<speed>0.040000</speed>
</trkpt>
<trkpt lat="55.900311" lon="26.528992">
<ele>113.967834</ele>
<time>2010-06-20T14:33:59Z</time>
<desc>lat.=55.900311, lon.=26.528992, Alt.=113.967834m. Speed=0.504000m/h.</desc>
<speed>0.140000</speed>
</trkpt>
<trkpt lat="55.900311" lon="26.528992">
<ele>113.963928</ele>
<time>2010-06-20T14:34:00Z</time>
<desc>lat.=55.900311, lon.=26.528992, Alt.=113.963928m. Speed=0.684000m/h.</desc>
<speed>0.190000</speed>
</trkpt>
<trkpt lat="55.900314" lon="26.528990">
<ele>113.961975</ele>
<time>2010-06-20T14:34:01Z</time>
<desc>lat.=55.900314, lon.=26.528990, Alt.=113.961975m. Speed=0.756000m/h.</desc>
<speed>0.210000</speed>
</trkpt>
<trkpt lat="55.900314" lon="26.528990">
<ele>113.961975</ele>
<time>2010-06-20T14:34:02Z</time>
<desc>lat.=55.900314, lon.=26.528990, Alt.=113.961975m. Speed=0.648000m/h.</desc>
<speed>0.180000</speed>
</trkpt>
<trkpt lat="55.900314" lon="26.528988">
<ele>113.960022</ele>
<time>2010-06-20T14:34:03Z</time>
<desc>lat.=55.900314, lon.=26.528988, Alt.=113.960022m. Speed=0.324000m/h.</desc>
<speed>0.090000</speed>
</trkpt>
<trkpt lat="55.900314" lon="26.528988">
<ele>113.958069</ele>
<time>2010-06-20T14:34:04Z</time>
<desc>lat.=55.900314, lon.=26.528988, Alt.=113.958069m. Speed=0.288000m/h.</desc>
<speed>0.080000</speed>
</trkpt>
<trkpt lat="55.900314" lon="26.528988">
<ele>113.946350</ele>
<time>2010-06-20T14:34:05Z</time>
<desc>lat.=55.900314, lon.=26.528988, Alt.=113.946350m. Speed=0.720000m/h.</desc>
<speed>0.200000</speed>
</trkpt>
<trkpt lat="55.900314" lon="26.528990">
<ele>113.934631</ele>
<time>2010-06-20T14:34:06Z</time>
<desc>lat.=55.900314, lon.=26.528990, Alt.=113.934631m. Speed=0.828000m/h.</desc>
<speed>0.230000</speed>
</trkpt>
<trkpt lat="55.900311" lon="26.528992">
<ele>113.924866</ele>
<time>2010-06-20T14:34:07Z</time>
<desc>lat.=55.900311, lon.=26.528992, Alt.=113.924866m. Speed=0.432000m/h.</desc>
<speed>0.120000</speed>
</trkpt>
<trkpt lat="55.900311" lon="26.528992">
<ele>113.915100</ele>
<time>2010-06-20T14:34:08Z</time>
<desc>lat.=55.900311, lon.=26.528992, Alt.=113.915100m. Speed=0.612000m/h.</desc>
<speed>0.170000</speed>
</trkpt>
<trkpt lat="55.900311" lon="26.528990">
<ele>113.909241</ele>
<time>2010-06-20T14:34:09Z</time>
<desc>lat.=55.900311, lon.=26.528990, Alt.=113.909241m. Speed=0.468000m/h.</desc>
<speed>0.130000</speed>
</trkpt>
<trkpt lat="55.900311" lon="26.528992">
<ele>113.903381</ele>
<time>2010-06-20T14:34:10Z</time>
<desc>lat.=55.900311, lon.=26.528992, Alt.=113.903381m. Speed=0.144000m/h.</desc>
<speed>0.040000</speed>
</trkpt>
<trkpt lat="55.900311" lon="26.528992">
<ele>113.897522</ele>
<time>2010-06-20T14:34:11Z</time>
<desc>lat.=55.900311, lon.=26.528992, Alt.=113.897522m. Speed=0.216000m/h.</desc>
<speed>0.060000</speed>
</trkpt>
<trkpt lat="55.900311" lon="26.528992">
<ele>113.893616</ele>
<time>2010-06-20T14:34:12Z</time>
<desc>lat.=55.900311, lon.=26.528992, Alt.=113.893616m. Speed=0.432000m/h.</desc>
<speed>0.120000</speed>
</trkpt>
<trkpt lat="55.900311" lon="26.528992">
<ele>113.891663</ele>
<time>2010-06-20T14:34:13Z</time>
<desc>lat.=55.900311, lon.=26.528992, Alt.=113.891663m. Speed=0.540000m/h.</desc>
<speed>0.150000</speed>
</trkpt>
<trkpt lat="55.900311" lon="26.528990">
<ele>113.891663</ele>
<time>2010-06-20T14:34:14Z</time>
<desc>lat.=55.900311, lon.=26.528990, Alt.=113.891663m. Speed=0.648000m/h.</desc>
<speed>0.180000</speed>
</trkpt>
<trkpt lat="55.900311" lon="26.528990">
<ele>113.893616</ele>
<time>2010-06-20T14:34:15Z</time>
<desc>lat.=55.900311, lon.=26.528990, Alt.=113.893616m. Speed=0.576000m/h.</desc>
<speed>0.160000</speed>
</trkpt>
<trkpt lat="55.900314" lon="26.528986">
<ele>113.893616</ele>
<time>2010-06-20T14:34:16Z</time>
<desc>lat.=55.900314, lon.=26.528986, Alt.=113.893616m. Speed=0.900000m/h.</desc>
<speed>0.250000</speed>
</trkpt>
<trkpt lat="55.900314" lon="26.528984">
<ele>113.893616</ele>
<time>2010-06-20T14:34:17Z</time>
<desc>lat.=55.900314, lon.=26.528984, Alt.=113.893616m. Speed=1.224000m/h.</desc>
<speed>0.340000</speed>
</trkpt>
<trkpt lat="55.900314" lon="26.528986">
<ele>113.829163</ele>
<time>2010-06-20T14:34:18Z</time>
<desc>lat.=55.900314, lon.=26.528986, Alt.=113.829163m. Speed=1.116000m/h.</desc>
<speed>0.310000</speed>
</trkpt>
<trkpt lat="55.900314" lon="26.528978">
<ele>113.725647</ele>
<time>2010-06-20T14:34:19Z</time>
<desc>lat.=55.900314, lon.=26.528978, Alt.=113.725647m. Speed=1.548000m/h.</desc>
<speed>0.430000</speed>
</trkpt>
<trkpt lat="55.900314" lon="26.528975">
<ele>113.610413</ele>
<time>2010-06-20T14:34:20Z</time>
<desc>lat.=55.900314, lon.=26.528975, Alt.=113.610413m. Speed=1.476000m/h.</desc>
<speed>0.410000</speed>
</trkpt>
<trkpt lat="55.900314" lon="26.528965">
<ele>113.374084</ele>
<time>2010-06-20T14:34:21Z</time>
<desc>lat.=55.900314, lon.=26.528965, Alt.=113.374084m. Speed=1.728000m/h.</desc>
<speed>0.480000</speed>
</trkpt>
<trkpt lat="55.900318" lon="26.528957">
<ele>113.188538</ele>
<time>2010-06-20T14:34:22Z</time>
<desc>lat.=55.900318, lon.=26.528957, Alt.=113.188538m. Speed=1.944000m/h.</desc>
<speed>0.540000</speed>
</trkpt>
<trkpt lat="55.900311" lon="26.528948">
<ele>113.147522</ele>
<time>2010-06-20T14:34:23Z</time>
<desc>lat.=55.900311, lon.=26.528948, Alt.=113.147522m. Speed=2.160000m/h.</desc>
<speed>0.600000</speed>
</trkpt>
<trkpt lat="55.900314" lon="26.528942">
<ele>112.926819</ele>
<time>2010-06-20T14:34:24Z</time>
<desc>lat.=55.900314, lon.=26.528942, Alt.=112.926819m. Speed=2.160000m/h.</desc>
<speed>0.600000</speed>
</trkpt>
<trkpt lat="55.900318" lon="26.528934">
<ele>112.844788</ele>
<time>2010-06-20T14:34:25Z</time>
<desc>lat.=55.900318, lon.=26.528934, Alt.=112.844788m. Speed=2.232000m/h.</desc>
<speed>0.620000</speed>
</trkpt>
<trkpt lat="55.900322" lon="26.528931">
<ele>112.801819</ele>
<time>2010-06-20T14:34:26Z</time>
<desc>lat.=55.900322, lon.=26.528931, Alt.=112.801819m. Speed=2.124000m/h.</desc>
<speed>0.590000</speed>
</trkpt>
<trkpt lat="55.900322" lon="26.528927">
<ele>112.749084</ele>
<time>2010-06-20T14:34:27Z</time>
<desc>lat.=55.900322, lon.=26.528927, Alt.=112.749084m. Speed=1.800000m/h.</desc>
<speed>0.500000</speed>
</trkpt>
<trkpt lat="55.900330" lon="26.528915">
<ele>112.772522</ele>
<time>2010-06-20T14:34:28Z</time>
<desc>lat.=55.900330, lon.=26.528915, Alt.=112.772522m. Speed=1.908000m/h.</desc>
<speed>0.530000</speed>
</trkpt>
<trkpt lat="55.900330" lon="26.528908">
<ele>112.956116</ele>
<time>2010-06-20T14:34:29Z</time>
<desc>lat.=55.900330, lon.=26.528908, Alt.=112.956116m. Speed=1.836000m/h.</desc>
<speed>0.510000</speed>
</trkpt>
<trkpt lat="55.900326" lon="26.528913">
<ele>112.975647</ele>
<time>2010-06-20T14:34:30Z</time>
<desc>lat.=55.900326, lon.=26.528913, Alt.=112.975647m. Speed=1.152000m/h.</desc>
<speed>0.320000</speed>
</trkpt>
<trkpt lat="55.900322" lon="26.528917">
<ele>112.920959</ele>
<time>2010-06-20T14:34:31Z</time>
<desc>lat.=55.900322, lon.=26.528917, Alt.=112.920959m. Speed=0.864000m/h.</desc>
<speed>0.240000</speed>
</trkpt>
<trkpt lat="55.900318" lon="26.528925">
<ele>112.858459</ele>
<time>2010-06-20T14:34:32Z</time>
<desc>lat.=55.900318, lon.=26.528925, Alt.=112.858459m. Speed=0.504000m/h.</desc>
<speed>0.140000</speed>
</trkpt>
<trkpt lat="55.900314" lon="26.528938">
<ele>112.575256</ele>
<time>2010-06-20T14:34:33Z</time>
<desc>lat.=55.900314, lon.=26.528938, Alt.=112.575256m. Speed=0.720000m/h.</desc>
<speed>0.200000</speed>
</trkpt>
<trkpt lat="55.900314" lon="26.528944">
<ele>112.573303</ele>
<time>2010-06-20T14:34:34Z</time>
<desc>lat.=55.900314, lon.=26.528944, Alt.=112.573303m. Speed=0.936000m/h.</desc>
<speed>0.260000</speed>
</trkpt>
<trkpt lat="55.900314" lon="26.528948">
<ele>112.579163</ele>
<time>2010-06-20T14:34:35Z</time>
<desc>lat.=55.900314, lon.=26.528948, Alt.=112.579163m. Speed=1.008000m/h.</desc>
<speed>0.280000</speed>
</trkpt>
<trkpt lat="55.900314" lon="26.528952">
<ele>112.581116</ele>
<time>2010-06-20T14:34:36Z</time>
<desc>lat.=55.900314, lon.=26.528952, Alt.=112.581116m. Speed=0.864000m/h.</desc>
<speed>0.240000</speed>
</trkpt>
<trkpt lat="55.900314" lon="26.528955">
<ele>112.588928</ele>
<time>2010-06-20T14:34:37Z</time>
<desc>lat.=55.900314, lon.=26.528955, Alt.=112.588928m. Speed=0.468000m/h.</desc>
<speed>0.130000</speed>
</trkpt>
<trkpt lat="55.900311" lon="26.528957">
<ele>112.596741</ele>
<time>2010-06-20T14:34:38Z</time>
<desc>lat.=55.900311, lon.=26.528957, Alt.=112.596741m. Speed=0.720000m/h.</desc>
<speed>0.200000</speed>
</trkpt>
<trkpt lat="55.900311" lon="26.528959">
<ele>112.602600</ele>
<time>2010-06-20T14:34:39Z</time>
<desc>lat.=55.900311, lon.=26.528959, Alt.=112.602600m. Speed=1.044000m/h.</desc>
<speed>0.290000</speed>
</trkpt>
<trkpt lat="55.900307" lon="26.528963">
<ele>112.604553</ele>
<time>2010-06-20T14:34:40Z</time>
<desc>lat.=55.900307, lon.=26.528963, Alt.=112.604553m. Speed=1.620000m/h.</desc>
<speed>0.450000</speed>
</trkpt>
<trkpt lat="55.900311" lon="26.528961">
<ele>112.502991</ele>
<time>2010-06-20T14:34:41Z</time>
<desc>lat.=55.900311, lon.=26.528961, Alt.=112.502991m. Speed=1.368000m/h.</desc>
<speed>0.380000</speed>
</trkpt>
<trkpt lat="55.900314" lon="26.528957">
<ele>112.428772</ele>
<time>2010-06-20T14:34:42Z</time>
<desc>lat.=55.900314, lon.=26.528957, Alt.=112.428772m. Speed=1.296000m/h.</desc>
<speed>0.360000</speed>
</trkpt>
<trkpt lat="55.900314" lon="26.528950">
<ele>112.508850</ele>
<time>2010-06-20T14:34:43Z</time>
<desc>lat.=55.900314, lon.=26.528950, Alt.=112.508850m. Speed=1.188000m/h.</desc>
<speed>0.330000</speed>
</trkpt>
<trkpt lat="55.900318" lon="26.528950">
<ele>112.581116</ele>
<time>2010-06-20T14:34:44Z</time>
<desc>lat.=55.900318, lon.=26.528950, Alt.=112.581116m. Speed=1.332000m/h.</desc>
<speed>0.370000</speed>
</trkpt>
<trkpt lat="55.900318" lon="26.528954">
<ele>112.557678</ele>
<time>2010-06-20T14:34:45Z</time>
<desc>lat.=55.900318, lon.=26.528954, Alt.=112.557678m. Speed=1.548000m/h.</desc>
<speed>0.430000</speed>
</trkpt>
<trkpt lat="55.900314" lon="26.528965">
<ele>112.514709</ele>
<time>2010-06-20T14:34:46Z</time>
<desc>lat.=55.900314, lon.=26.528965, Alt.=112.514709m. Speed=1.656000m/h.</desc>
<speed>0.460000</speed>
</trkpt>
<trkpt lat="55.900314" lon="26.528961">
<ele>112.524475</ele>
<time>2010-06-20T14:34:47Z</time>
<desc>lat.=55.900314, lon.=26.528961, Alt.=112.524475m. Speed=1.116000m/h.</desc>
<speed>0.310000</speed>
</trkpt>
<trkpt lat="55.900322" lon="26.528936">
<ele>112.559631</ele>
<time>2010-06-20T14:34:48Z</time>
<desc>lat.=55.900322, lon.=26.528936, Alt.=112.559631m. Speed=0.360000m/h.</desc>
<speed>0.100000</speed>
</trkpt>
<trkpt lat="55.900326" lon="26.528923">
<ele>112.670959</ele>
<time>2010-06-20T14:34:49Z</time>
<desc>lat.=55.900326, lon.=26.528923, Alt.=112.670959m. Speed=0.432000m/h.</desc>
<speed>0.120000</speed>
</trkpt>
<trkpt lat="55.900330" lon="26.528929">
<ele>112.676819</ele>
<time>2010-06-20T14:34:50Z</time>
<desc>lat.=55.900330, lon.=26.528929, Alt.=112.676819m. Speed=0.360000m/h.</desc>
<speed>0.100000</speed>
</trkpt>
<trkpt lat="55.900330" lon="26.528931">
<ele>112.602600</ele>
<time>2010-06-20T14:34:51Z</time>
<desc>lat.=55.900330, lon.=26.528931, Alt.=112.602600m. Speed=0.072000m/h.</desc>
<speed>0.020000</speed>
</trkpt>
<trkpt lat="55.900330" lon="26.528931">
<ele>112.612366</ele>
<time>2010-06-20T14:34:52Z</time>
<desc>lat.=55.900330, lon.=26.528931, Alt.=112.612366m. Speed=0.360000m/h.</desc>
<speed>0.100000</speed>
</trkpt>
<trkpt lat="55.900330" lon="26.528931">
<ele>112.620178</ele>
<time>2010-06-20T14:34:53Z</time>
<desc>lat.=55.900330, lon.=26.528931, Alt.=112.620178m. Speed=0.144000m/h.</desc>
<speed>0.040000</speed>
</trkpt>
<trkpt lat="55.900330" lon="26.528931">
<ele>112.627991</ele>
<time>2010-06-20T14:34:54Z</time>
<desc>lat.=55.900330, lon.=26.528931, Alt.=112.627991m. Speed=0.108000m/h.</desc>
<speed>0.030000</speed>
</trkpt>
<trkpt lat="55.900330" lon="26.528929">
<ele>112.631897</ele>
<time>2010-06-20T14:34:55Z</time>
<desc>lat.=55.900330, lon.=26.528929, Alt.=112.631897m. Speed=0.072000m/h.</desc>
<speed>0.020000</speed>
</trkpt>
<trkpt lat="55.900330" lon="26.528929">
<ele>112.635803</ele>
<time>2010-06-20T14:34:56Z</time>
<desc>lat.=55.900330, lon.=26.528929, Alt.=112.635803m. Speed=0.288000m/h.</desc>
<speed>0.080000</speed>
</trkpt>
<trkpt lat="55.900330" lon="26.528931">
<ele>112.639709</ele>
<time>2010-06-20T14:34:57Z</time>
<desc>lat.=55.900330, lon.=26.528931, Alt.=112.639709m. Speed=0.108000m/h.</desc>
<speed>0.030000</speed>
</trkpt>
<trkpt lat="55.900330" lon="26.528931">
<ele>112.641663</ele>
<time>2010-06-20T14:34:58Z</time>
<desc>lat.=55.900330, lon.=26.528931, Alt.=112.641663m. Speed=0.504000m/h.</desc>
<speed>0.140000</speed>
</trkpt>
<trkpt lat="55.900330" lon="26.528933">
<ele>112.645569</ele>
<time>2010-06-20T14:34:59Z</time>
<desc>lat.=55.900330, lon.=26.528933, Alt.=112.645569m. Speed=0.612000m/h.</desc>
<speed>0.170000</speed>
</trkpt>
<trkpt lat="55.900330" lon="26.528934">
<ele>112.649475</ele>
<time>2010-06-20T14:35:00Z</time>
<desc>lat.=55.900330, lon.=26.528934, Alt.=112.649475m. Speed=0.072000m/h.</desc>
<speed>0.020000</speed>
</trkpt>
<trkpt lat="55.900330" lon="26.528934">
<ele>112.651428</ele>
<time>2010-06-20T14:35:01Z</time>
<desc>lat.=55.900330, lon.=26.528934, Alt.=112.651428m. Speed=0.396000m/h.</desc>
<speed>0.110000</speed>
</trkpt>
<trkpt lat="55.900330" lon="26.528934">
<ele>112.653381</ele>
<time>2010-06-20T14:35:02Z</time>
<desc>lat.=55.900330, lon.=26.528934, Alt.=112.653381m. Speed=0.540000m/h.</desc>
<speed>0.150000</speed>
</trkpt>
<trkpt lat="55.900333" lon="26.528934">
<ele>112.653381</ele>
<time>2010-06-20T14:35:03Z</time>
<desc>lat.=55.900333, lon.=26.528934, Alt.=112.653381m. Speed=0.648000m/h.</desc>
<speed>0.180000</speed>
</trkpt>
<trkpt lat="55.900333" lon="26.528934">
<ele>112.649475</ele>
<time>2010-06-20T14:35:04Z</time>
<desc>lat.=55.900333, lon.=26.528934, Alt.=112.649475m. Speed=0.108000m/h.</desc>
<speed>0.030000</speed>
</trkpt>
<trkpt lat="55.900333" lon="26.528934">
<ele>112.645569</ele>
<time>2010-06-20T14:35:05Z</time>
<desc>lat.=55.900333, lon.=26.528934, Alt.=112.645569m. Speed=0.576000m/h.</desc>
<speed>0.160000</speed>
</trkpt>
<trkpt lat="55.900333" lon="26.528934">
<ele>112.645569</ele>
<time>2010-06-20T14:35:06Z</time>
<desc>lat.=55.900333, lon.=26.528934, Alt.=112.645569m. Speed=0.360000m/h.</desc>
<speed>0.100000</speed>
</trkpt>
<trkpt lat="55.900333" lon="26.528933">
<ele>112.645569</ele>
<time>2010-06-20T14:35:07Z</time>
<desc>lat.=55.900333, lon.=26.528933, Alt.=112.645569m. Speed=0.432000m/h.</desc>
<speed>0.120000</speed>
</trkpt>
<trkpt lat="55.900333" lon="26.528933">
<ele>112.649475</ele>
<time>2010-06-20T14:35:08Z</time>
<desc>lat.=55.900333, lon.=26.528933, Alt.=112.649475m. Speed=0.828000m/h.</desc>
<speed>0.230000</speed>
</trkpt>
<trkpt lat="55.900333" lon="26.528931">
<ele>112.651428</ele>
<time>2010-06-20T14:35:09Z</time>
<desc>lat.=55.900333, lon.=26.528931, Alt.=112.651428m. Speed=0.720000m/h.</desc>
<speed>0.200000</speed>
</trkpt>
<trkpt lat="55.900330" lon="26.528929">
<ele>112.653381</ele>
<time>2010-06-20T14:35:10Z</time>
<desc>lat.=55.900330, lon.=26.528929, Alt.=112.653381m. Speed=0.180000m/h.</desc>
<speed>0.050000</speed>
</trkpt>
<trkpt lat="55.900330" lon="26.528929">
<ele>112.651428</ele>
<time>2010-06-20T14:35:11Z</time>
<desc>lat.=55.900330, lon.=26.528929, Alt.=112.651428m. Speed=0.000000m/h.</desc>
<speed>0.000000</speed>
</trkpt>
<trkpt lat="55.900330" lon="26.528929">
<ele>112.647522</ele>
<time>2010-06-20T14:35:12Z</time>
<desc>lat.=55.900330, lon.=26.528929, Alt.=112.647522m. Speed=0.216000m/h.</desc>
<speed>0.060000</speed>
</trkpt>
<trkpt lat="55.900333" lon="26.528927">
<ele>112.641663</ele>
<time>2010-06-20T14:35:13Z</time>
<desc>lat.=55.900333, lon.=26.528927, Alt.=112.641663m. Speed=1.080000m/h.</desc>
<speed>0.300000</speed>
</trkpt>
<trkpt lat="55.900341" lon="26.528900">
<ele>112.710022</ele>
<time>2010-06-20T14:35:14Z</time>
<desc>lat.=55.900341, lon.=26.528900, Alt.=112.710022m. Speed=1.332000m/h.</desc>
<speed>0.370000</speed>
</trkpt>
<trkpt lat="55.900349" lon="26.528875">
<ele>112.745178</ele>
<time>2010-06-20T14:35:15Z</time>
<desc>lat.=55.900349, lon.=26.528875, Alt.=112.745178m. Speed=1.800000m/h.</desc>
<speed>0.500000</speed>
</trkpt>
<trkpt lat="55.900352" lon="26.528856">
<ele>112.547913</ele>
<time>2010-06-20T14:35:16Z</time>
<desc>lat.=55.900352, lon.=26.528856, Alt.=112.547913m. Speed=2.232000m/h.</desc>
<speed>0.620000</speed>
</trkpt>
<trkpt lat="55.900360" lon="26.528833">
<ele>112.366272</ele>
<time>2010-06-20T14:35:17Z</time>
<desc>lat.=55.900360, lon.=26.528833, Alt.=112.366272m. Speed=2.556000m/h.</desc>
<speed>0.710000</speed>
</trkpt>
<trkpt lat="55.900360" lon="26.528835">
<ele>112.434631</ele>
<time>2010-06-20T14:35:18Z</time>
<desc>lat.=55.900360, lon.=26.528835, Alt.=112.434631m. Speed=1.728000m/h.</desc>
<speed>0.480000</speed>
</trkpt>
<trkpt lat="55.900364" lon="26.528830">
<ele>112.436584</ele>
<time>2010-06-20T14:35:19Z</time>
<desc>lat.=55.900364, lon.=26.528830, Alt.=112.436584m. Speed=1.404000m/h.</desc>
<speed>0.390000</speed>
</trkpt>
<trkpt lat="55.900360" lon="26.528833">
<ele>112.448303</ele>
<time>2010-06-20T14:35:20Z</time>
<desc>lat.=55.900360, lon.=26.528833, Alt.=112.448303m. Speed=1.044000m/h.</desc>
<speed>0.290000</speed>
</trkpt>
<trkpt lat="55.900356" lon="26.528845">
<ele>112.426819</ele>
<time>2010-06-20T14:35:21Z</time>
<desc>lat.=55.900356, lon.=26.528845, Alt.=112.426819m. Speed=0.612000m/h.</desc>
<speed>0.170000</speed>
</trkpt>
<trkpt lat="55.900352" lon="26.528854">
<ele>112.424866</ele>
<time>2010-06-20T14:35:22Z</time>
<desc>lat.=55.900352, lon.=26.528854, Alt.=112.424866m. Speed=0.288000m/h.</desc>
<speed>0.080000</speed>
</trkpt>
<trkpt lat="55.900345" lon="26.528862">
<ele>112.454163</ele>
<time>2010-06-20T14:35:23Z</time>
<desc>lat.=55.900345, lon.=26.528862, Alt.=112.454163m. Speed=0.180000m/h.</desc>
<speed>0.050000</speed>
</trkpt>
<trkpt lat="55.900345" lon="26.528862">
<ele>112.458069</ele>
<time>2010-06-20T14:35:24Z</time>
<desc>lat.=55.900345, lon.=26.528862, Alt.=112.458069m. Speed=1.224000m/h.</desc>
<speed>0.340000</speed>
</trkpt>
<trkpt lat="55.900341" lon="26.528877">
<ele>112.383850</ele>
<time>2010-06-20T14:35:25Z</time>
<desc>lat.=55.900341, lon.=26.528877, Alt.=112.383850m. Speed=1.656000m/h.</desc>
<speed>0.460000</speed>
</trkpt>
<trkpt lat="55.900341" lon="26.528875">
<ele>112.297913</ele>
<time>2010-06-20T14:35:26Z</time>
<desc>lat.=55.900341, lon.=26.528875, Alt.=112.297913m. Speed=1.044000m/h.</desc>
<speed>0.290000</speed>
</trkpt>
<trkpt lat="55.900341" lon="26.528881">
<ele>112.295959</ele>
<time>2010-06-20T14:35:27Z</time>
<desc>lat.=55.900341, lon.=26.528881, Alt.=112.295959m. Speed=0.900000m/h.</desc>
<speed>0.250000</speed>
</trkpt>
<trkpt lat="55.900341" lon="26.528885">
<ele>112.344788</ele>
<time>2010-06-20T14:35:28Z</time>
<desc>lat.=55.900341, lon.=26.528885, Alt.=112.344788m. Speed=0.792000m/h.</desc>
<speed>0.220000</speed>
</trkpt>
<trkpt lat="55.900337" lon="26.528894">
<ele>112.342834</ele>
<time>2010-06-20T14:35:29Z</time>
<desc>lat.=55.900337, lon.=26.528894, Alt.=112.342834m. Speed=0.972000m/h.</desc>
<speed>0.270000</speed>
</trkpt>
<trkpt lat="55.900337" lon="26.528898">
<ele>112.344788</ele>
<time>2010-06-20T14:35:30Z</time>
<desc>lat.=55.900337, lon.=26.528898, Alt.=112.344788m. Speed=1.476000m/h.</desc>
<speed>0.410000</speed>
</trkpt>
<trkpt lat="55.900337" lon="26.528898">
<ele>112.376038</ele>
<time>2010-06-20T14:35:31Z</time>
<desc>lat.=55.900337, lon.=26.528898, Alt.=112.376038m. Speed=1.368000m/h.</desc>
<speed>0.380000</speed>
</trkpt>
<trkpt lat="55.900330" lon="26.528923">
<ele>112.383850</ele>
<time>2010-06-20T14:35:32Z</time>
<desc>lat.=55.900330, lon.=26.528923, Alt.=112.383850m. Speed=2.412000m/h.</desc>
<speed>0.670000</speed>
</trkpt>
<trkpt lat="55.900326" lon="26.528931">
<ele>112.383850</ele>
<time>2010-06-20T14:35:33Z</time>
<desc>lat.=55.900326, lon.=26.528931, Alt.=112.383850m. Speed=2.520000m/h.</desc>
<speed>0.700000</speed>
</trkpt>
<trkpt lat="55.900330" lon="26.528915">
<ele>112.432678</ele>
<time>2010-06-20T14:35:34Z</time>
<desc>lat.=55.900330, lon.=26.528915, Alt.=112.432678m. Speed=1.476000m/h.</desc>
<speed>0.410000</speed>
</trkpt>
<trkpt lat="55.900322" lon="26.528927">
<ele>112.245178</ele>
<time>2010-06-20T14:35:35Z</time>
<desc>lat.=55.900322, lon.=26.528927, Alt.=112.245178m. Speed=1.728000m/h.</desc>
<speed>0.480000</speed>
</trkpt>
<trkpt lat="55.900314" lon="26.528938">
<ele>112.124084</ele>
<time>2010-06-20T14:35:36Z</time>
<desc>lat.=55.900314, lon.=26.528938, Alt.=112.124084m. Speed=1.764000m/h.</desc>
<speed>0.490000</speed>
</trkpt>
<trkpt lat="55.900307" lon="26.528963">
<ele>111.973694</ele>
<time>2010-06-20T14:35:37Z</time>
<desc>lat.=55.900307, lon.=26.528963, Alt.=111.973694m. Speed=2.484000m/h.</desc>
<speed>0.690000</speed>
</trkpt>
<trkpt lat="55.900307" lon="26.528971">
<ele>111.840881</ele>
<time>2010-06-20T14:35:38Z</time>
<desc>lat.=55.900307, lon.=26.528971, Alt.=111.840881m. Speed=1.980000m/h.</desc>
<speed>0.550000</speed>
</trkpt>
<trkpt lat="55.900303" lon="26.528988">
<ele>111.874084</ele>
<time>2010-06-20T14:35:39Z</time>
<desc>lat.=55.900303, lon.=26.528988, Alt.=111.874084m. Speed=2.088000m/h.</desc>
<speed>0.580000</speed>
</trkpt>
<trkpt lat="55.900307" lon="26.528982">
<ele>111.932678</ele>
<time>2010-06-20T14:35:40Z</time>
<desc>lat.=55.900307, lon.=26.528982, Alt.=111.932678m. Speed=0.936000m/h.</desc>
<speed>0.260000</speed>
</trkpt>
<trkpt lat="55.900307" lon="26.528984">
<ele>111.862366</ele>
<time>2010-06-20T14:35:41Z</time>
<desc>lat.=55.900307, lon.=26.528984, Alt.=111.862366m. Speed=0.612000m/h.</desc>
<speed>0.170000</speed>
</trkpt>
<trkpt lat="55.900303" lon="26.528988">
<ele>111.876038</ele>
<time>2010-06-20T14:35:42Z</time>
<desc>lat.=55.900303, lon.=26.528988, Alt.=111.876038m. Speed=0.396000m/h.</desc>
<speed>0.110000</speed>
</trkpt>
<trkpt lat="55.900303" lon="26.529003">
<ele>111.944397</ele>
<time>2010-06-20T14:35:43Z</time>
<desc>lat.=55.900303, lon.=26.529003, Alt.=111.944397m. Speed=0.792000m/h.</desc>
<speed>0.220000</speed>
</trkpt>
<trkpt lat="55.900303" lon="26.529007">
<ele>111.944397</ele>
<time>2010-06-20T14:35:44Z</time>
<desc>lat.=55.900303, lon.=26.529007, Alt.=111.944397m. Speed=0.972000m/h.</desc>
<speed>0.270000</speed>
</trkpt>
<trkpt lat="55.900303" lon="26.529011">
<ele>111.948303</ele>
<time>2010-06-20T14:35:45Z</time>
<desc>lat.=55.900303, lon.=26.529011, Alt.=111.948303m. Speed=0.648000m/h.</desc>
<speed>0.180000</speed>
</trkpt>
<trkpt lat="55.900303" lon="26.529013">
<ele>111.948303</ele>
<time>2010-06-20T14:35:46Z</time>
<desc>lat.=55.900303, lon.=26.529013, Alt.=111.948303m. Speed=0.288000m/h.</desc>
<speed>0.080000</speed>
</trkpt>
<trkpt lat="55.900303" lon="26.529013">
<ele>111.950256</ele>
<time>2010-06-20T14:35:47Z</time>
<desc>lat.=55.900303, lon.=26.529013, Alt.=111.950256m. Speed=0.396000m/h.</desc>
<speed>0.110000</speed>
</trkpt>
<trkpt lat="55.900303" lon="26.529011">
<ele>111.950256</ele>
<time>2010-06-20T14:35:48Z</time>
<desc>lat.=55.900303, lon.=26.529011, Alt.=111.950256m. Speed=0.324000m/h.</desc>
<speed>0.090000</speed>
</trkpt>
<trkpt lat="55.900303" lon="26.529009">
<ele>111.952209</ele>
<time>2010-06-20T14:35:49Z</time>
<desc>lat.=55.900303, lon.=26.529009, Alt.=111.952209m. Speed=0.504000m/h.</desc>
<speed>0.140000</speed>
</trkpt>
<trkpt lat="55.900303" lon="26.529007">
<ele>111.948303</ele>
<time>2010-06-20T14:35:50Z</time>
<desc>lat.=55.900303, lon.=26.529007, Alt.=111.948303m. Speed=0.468000m/h.</desc>
<speed>0.130000</speed>
</trkpt>
<trkpt lat="55.900303" lon="26.529005">
<ele>111.948303</ele>
<time>2010-06-20T14:35:51Z</time>
<desc>lat.=55.900303, lon.=26.529005, Alt.=111.948303m. Speed=1.188000m/h.</desc>
<speed>0.330000</speed>
</trkpt>
<trkpt lat="55.900303" lon="26.528994">
<ele>111.917053</ele>
<time>2010-06-20T14:35:52Z</time>
<desc>lat.=55.900303, lon.=26.528994, Alt.=111.917053m. Speed=1.080000m/h.</desc>
<speed>0.300000</speed>
</trkpt>
<trkpt lat="55.900303" lon="26.528978">
<ele>111.930725</ele>
<time>2010-06-20T14:35:53Z</time>
<desc>lat.=55.900303, lon.=26.528978, Alt.=111.930725m. Speed=1.080000m/h.</desc>
<speed>0.300000</speed>
</trkpt>
<trkpt lat="55.900299" lon="26.528963">
<ele>111.999084</ele>
<time>2010-06-20T14:35:54Z</time>
<desc>lat.=55.900299, lon.=26.528963, Alt.=111.999084m. Speed=1.476000m/h.</desc>
<speed>0.410000</speed>
</trkpt>
<trkpt lat="55.900295" lon="26.528978">
<ele>112.018616</ele>
<time>2010-06-20T14:35:55Z</time>
<desc>lat.=55.900295, lon.=26.528978, Alt.=112.018616m. Speed=1.044000m/h.</desc>
<speed>0.290000</speed>
</trkpt>
<trkpt lat="55.900291" lon="26.528992">
<ele>111.971741</ele>
<time>2010-06-20T14:35:56Z</time>
<desc>lat.=55.900291, lon.=26.528992, Alt.=111.971741m. Speed=0.324000m/h.</desc>
<speed>0.090000</speed>
</trkpt>
<trkpt lat="55.900291" lon="26.529009">
<ele>111.856506</ele>
<time>2010-06-20T14:35:57Z</time>
<desc>lat.=55.900291, lon.=26.529009, Alt.=111.856506m. Speed=0.180000m/h.</desc>
<speed>0.050000</speed>
</trkpt>
<trkpt lat="55.900295" lon="26.529011">
<ele>111.651428</ele>
<time>2010-06-20T14:35:58Z</time>
<desc>lat.=55.900295, lon.=26.529011, Alt.=111.651428m. Speed=0.792000m/h.</desc>
<speed>0.220000</speed>
</trkpt>
<trkpt lat="55.900299" lon="26.529011">
<ele>111.651428</ele>
<time>2010-06-20T14:35:59Z</time>
<desc>lat.=55.900299, lon.=26.529011, Alt.=111.651428m. Speed=0.720000m/h.</desc>
<speed>0.200000</speed>
</trkpt>
<trkpt lat="55.900299" lon="26.529013">
<ele>111.649475</ele>
<time>2010-06-20T14:36:00Z</time>
<desc>lat.=55.900299, lon.=26.529013, Alt.=111.649475m. Speed=0.504000m/h.</desc>
<speed>0.140000</speed>
</trkpt>
<trkpt lat="55.900299" lon="26.529015">
<ele>111.647522</ele>
<time>2010-06-20T14:36:01Z</time>
<desc>lat.=55.900299, lon.=26.529015, Alt.=111.647522m. Speed=0.648000m/h.</desc>
<speed>0.180000</speed>
</trkpt>
<trkpt lat="55.900299" lon="26.529018">
<ele>111.647522</ele>
<time>2010-06-20T14:36:02Z</time>
<desc>lat.=55.900299, lon.=26.529018, Alt.=111.647522m. Speed=0.720000m/h.</desc>
<speed>0.200000</speed>
</trkpt>
<trkpt lat="55.900299" lon="26.529018">
<ele>111.653381</ele>
<time>2010-06-20T14:36:03Z</time>
<desc>lat.=55.900299, lon.=26.529018, Alt.=111.653381m. Speed=0.360000m/h.</desc>
<speed>0.100000</speed>
</trkpt>
<trkpt lat="55.900299" lon="26.529020">
<ele>111.657288</ele>
<time>2010-06-20T14:36:04Z</time>
<desc>lat.=55.900299, lon.=26.529020, Alt.=111.657288m. Speed=0.504000m/h.</desc>
<speed>0.140000</speed>
</trkpt>
<trkpt lat="55.900295" lon="26.529022">
<ele>111.659241</ele>
<time>2010-06-20T14:36:05Z</time>
<desc>lat.=55.900295, lon.=26.529022, Alt.=111.659241m. Speed=0.720000m/h.</desc>
<speed>0.200000</speed>
</trkpt>
<trkpt lat="55.900295" lon="26.529026">
<ele>111.663147</ele>
<time>2010-06-20T14:36:06Z</time>
<desc>lat.=55.900295, lon.=26.529026, Alt.=111.663147m. Speed=0.612000m/h.</desc>
<speed>0.170000</speed>
</trkpt>
<trkpt lat="55.900295" lon="26.529028">
<ele>111.669006</ele>
<time>2010-06-20T14:36:07Z</time>
<desc>lat.=55.900295, lon.=26.529028, Alt.=111.669006m. Speed=0.936000m/h.</desc>
<speed>0.260000</speed>
</trkpt>
<trkpt lat="55.900295" lon="26.529032">
<ele>111.678772</ele>
<time>2010-06-20T14:36:08Z</time>
<desc>lat.=55.900295, lon.=26.529032, Alt.=111.678772m. Speed=0.612000m/h.</desc>
<speed>0.170000</speed>
</trkpt>
<trkpt lat="55.900295" lon="26.529034">
<ele>111.682678</ele>
<time>2010-06-20T14:36:09Z</time>
<desc>lat.=55.900295, lon.=26.529034, Alt.=111.682678m. Speed=0.828000m/h.</desc>
<speed>0.230000</speed>
</trkpt>
<trkpt lat="55.900291" lon="26.529036">
<ele>111.686584</ele>
<time>2010-06-20T14:36:10Z</time>
<desc>lat.=55.900291, lon.=26.529036, Alt.=111.686584m. Speed=0.756000m/h.</desc>
<speed>0.210000</speed>
</trkpt>
<trkpt lat="55.900291" lon="26.529036">
<ele>111.694397</ele>
<time>2010-06-20T14:36:11Z</time>
<desc>lat.=55.900291, lon.=26.529036, Alt.=111.694397m. Speed=0.576000m/h.</desc>
<speed>0.160000</speed>
</trkpt>
<trkpt lat="55.900288" lon="26.529034">
<ele>111.704163</ele>
<time>2010-06-20T14:36:12Z</time>
<desc>lat.=55.900288, lon.=26.529034, Alt.=111.704163m. Speed=0.972000m/h.</desc>
<speed>0.270000</speed>
</trkpt>
<trkpt lat="55.900288" lon="26.529030">
<ele>111.713928</ele>
<time>2010-06-20T14:36:13Z</time>
<desc>lat.=55.900288, lon.=26.529030, Alt.=111.713928m. Speed=1.008000m/h.</desc>
<speed>0.280000</speed>
</trkpt>
<trkpt lat="55.900291" lon="26.529026">
<ele>111.719788</ele>
<time>2010-06-20T14:36:14Z</time>
<desc>lat.=55.900291, lon.=26.529026, Alt.=111.719788m. Speed=1.224000m/h.</desc>
<speed>0.340000</speed>
</trkpt>
<trkpt lat="55.900295" lon="26.529015">
<ele>111.672913</ele>
<time>2010-06-20T14:36:15Z</time>
<desc>lat.=55.900295, lon.=26.529015, Alt.=111.672913m. Speed=1.224000m/h.</desc>
<speed>0.340000</speed>
</trkpt>
<trkpt lat="55.900303" lon="26.528990">
<ele>111.665100</ele>
<time>2010-06-20T14:36:16Z</time>
<desc>lat.=55.900303, lon.=26.528990, Alt.=111.665100m. Speed=1.548000m/h.</desc>
<speed>0.430000</speed>
</trkpt>
<trkpt lat="55.900307" lon="26.528973">
<ele>111.731506</ele>
<time>2010-06-20T14:36:17Z</time>
<desc>lat.=55.900307, lon.=26.528973, Alt.=111.731506m. Speed=1.728000m/h.</desc>
<speed>0.480000</speed>
</trkpt>
<trkpt lat="55.900311" lon="26.528955">
<ele>111.770569</ele>
<time>2010-06-20T14:36:18Z</time>
<desc>lat.=55.900311, lon.=26.528955, Alt.=111.770569m. Speed=1.620000m/h.</desc>
<speed>0.450000</speed>
</trkpt>
<trkpt lat="55.900314" lon="26.528933">
<ele>111.819397</ele>
<time>2010-06-20T14:36:19Z</time>
<desc>lat.=55.900314, lon.=26.528933, Alt.=111.819397m. Speed=2.340000m/h.</desc>
<speed>0.650000</speed>
</trkpt>
<trkpt lat="55.900318" lon="26.528923">
<ele>111.829163</ele>
<time>2010-06-20T14:36:20Z</time>
<desc>lat.=55.900318, lon.=26.528923, Alt.=111.829163m. Speed=2.052000m/h.</desc>
<speed>0.570000</speed>
</trkpt>
<trkpt lat="55.900318" lon="26.528913">
<ele>111.838928</ele>
<time>2010-06-20T14:36:21Z</time>
<desc>lat.=55.900318, lon.=26.528913, Alt.=111.838928m. Speed=1.836000m/h.</desc>
<speed>0.510000</speed>
</trkpt>
<trkpt lat="55.900318" lon="26.528906">
<ele>111.872131</ele>
<time>2010-06-20T14:36:22Z</time>
<desc>lat.=55.900318, lon.=26.528906, Alt.=111.872131m. Speed=2.088000m/h.</desc>
<speed>0.580000</speed>
</trkpt>
<trkpt lat="55.900307" lon="26.528921">
<ele>111.772522</ele>
<time>2010-06-20T14:36:23Z</time>
<desc>lat.=55.900307, lon.=26.528921, Alt.=111.772522m. Speed=1.476000m/h.</desc>
<speed>0.410000</speed>
</trkpt>
<trkpt lat="55.900303" lon="26.528927">
<ele>111.706116</ele>
<time>2010-06-20T14:36:24Z</time>
<desc>lat.=55.900303, lon.=26.528927, Alt.=111.706116m. Speed=1.260000m/h.</desc>
<speed>0.350000</speed>
</trkpt>
<trkpt lat="55.900307" lon="26.528921">
<ele>111.680725</ele>
<time>2010-06-20T14:36:25Z</time>
<desc>lat.=55.900307, lon.=26.528921, Alt.=111.680725m. Speed=1.296000m/h.</desc>
<speed>0.360000</speed>
</trkpt>
<trkpt lat="55.900307" lon="26.528913">
<ele>111.784241</ele>
<time>2010-06-20T14:36:26Z</time>
<desc>lat.=55.900307, lon.=26.528913, Alt.=111.784241m. Speed=1.620000m/h.</desc>
<speed>0.450000</speed>
</trkpt>
<trkpt lat="55.900307" lon="26.528904">
<ele>111.987366</ele>
<time>2010-06-20T14:36:27Z</time>
<desc>lat.=55.900307, lon.=26.528904, Alt.=111.987366m. Speed=2.196000m/h.</desc>
<speed>0.610000</speed>
</trkpt>
<trkpt lat="55.900311" lon="26.528902">
<ele>112.061584</ele>
<time>2010-06-20T14:36:28Z</time>
<desc>lat.=55.900311, lon.=26.528902, Alt.=112.061584m. Speed=1.764000m/h.</desc>
<speed>0.490000</speed>
</trkpt>
<trkpt lat="55.900311" lon="26.528896">
<ele>112.202209</ele>
<time>2010-06-20T14:36:29Z</time>
<desc>lat.=55.900311, lon.=26.528896, Alt.=112.202209m. Speed=1.440000m/h.</desc>
<speed>0.400000</speed>
</trkpt>
<trkpt lat="55.900311" lon="26.528912">
<ele>112.251038</ele>
<time>2010-06-20T14:36:30Z</time>
<desc>lat.=55.900311, lon.=26.528912, Alt.=112.251038m. Speed=0.540000m/h.</desc>
<speed>0.150000</speed>
</trkpt>
<trkpt lat="55.900311" lon="26.528927">
<ele>112.288147</ele>
<time>2010-06-20T14:36:31Z</time>
<desc>lat.=55.900311, lon.=26.528927, Alt.=112.288147m. Speed=0.540000m/h.</desc>
<speed>0.150000</speed>
</trkpt>
<trkpt lat="55.900311" lon="26.528925">
<ele>112.227600</ele>
<time>2010-06-20T14:36:32Z</time>
<desc>lat.=55.900311, lon.=26.528925, Alt.=112.227600m. Speed=0.432000m/h.</desc>
<speed>0.120000</speed>
</trkpt>
<trkpt lat="55.900322" lon="26.528917">
<ele>112.085022</ele>
<time>2010-06-20T14:36:33Z</time>
<desc>lat.=55.900322, lon.=26.528917, Alt.=112.085022m. Speed=0.648000m/h.</desc>
<speed>0.180000</speed>
</trkpt>
<trkpt lat="55.900322" lon="26.528917">
<ele>112.092834</ele>
<time>2010-06-20T14:36:34Z</time>
<desc>lat.=55.900322, lon.=26.528917, Alt.=112.092834m. Speed=0.504000m/h.</desc>
<speed>0.140000</speed>
</trkpt>
<trkpt lat="55.900326" lon="26.528915">
<ele>112.094788</ele>
<time>2010-06-20T14:36:35Z</time>
<desc>lat.=55.900326, lon.=26.528915, Alt.=112.094788m. Speed=1.440000m/h.</desc>
<speed>0.400000</speed>
</trkpt>
<trkpt lat="55.900337" lon="26.528898">
<ele>112.151428</ele>
<time>2010-06-20T14:36:36Z</time>
<desc>lat.=55.900337, lon.=26.528898, Alt.=112.151428m. Speed=1.728000m/h.</desc>
<speed>0.480000</speed>
</trkpt>
<trkpt lat="55.900337" lon="26.528900">
<ele>112.151428</ele>
<time>2010-06-20T14:36:37Z</time>
<desc>lat.=55.900337, lon.=26.528900, Alt.=112.151428m. Speed=0.972000m/h.</desc>
<speed>0.270000</speed>
</trkpt>
<trkpt lat="55.900345" lon="26.528894">
<ele>112.211975</ele>
<time>2010-06-20T14:36:38Z</time>
<desc>lat.=55.900345, lon.=26.528894, Alt.=112.211975m. Speed=0.972000m/h.</desc>
<speed>0.270000</speed>
</trkpt>
<trkpt lat="55.900349" lon="26.528891">
<ele>112.231506</ele>
<time>2010-06-20T14:36:39Z</time>
<desc>lat.=55.900349, lon.=26.528891, Alt.=112.231506m. Speed=1.080000m/h.</desc>
<speed>0.300000</speed>
</trkpt>
<trkpt lat="55.900356" lon="26.528887">
<ele>112.282288</ele>
<time>2010-06-20T14:36:40Z</time>
<desc>lat.=55.900356, lon.=26.528887, Alt.=112.282288m. Speed=1.620000m/h.</desc>
<speed>0.450000</speed>
</trkpt>
<trkpt lat="55.900352" lon="26.528891">
<ele>112.182678</ele>
<time>2010-06-20T14:36:41Z</time>
<desc>lat.=55.900352, lon.=26.528891, Alt.=112.182678m. Speed=0.792000m/h.</desc>
<speed>0.220000</speed>
</trkpt>
<trkpt lat="55.900356" lon="26.528887">
<ele>112.090881</ele>
<time>2010-06-20T14:36:42Z</time>
<desc>lat.=55.900356, lon.=26.528887, Alt.=112.090881m. Speed=0.900000m/h.</desc>
<speed>0.250000</speed>
</trkpt>
<trkpt lat="55.900356" lon="26.528881">
<ele>111.893616</ele>
<time>2010-06-20T14:36:43Z</time>
<desc>lat.=55.900356, lon.=26.528881, Alt.=111.893616m. Speed=0.900000m/h.</desc>
<speed>0.250000</speed>
</trkpt>
<trkpt lat="55.900356" lon="26.528879">
<ele>111.819397</ele>
<time>2010-06-20T14:36:44Z</time>
<desc>lat.=55.900356, lon.=26.528879, Alt.=111.819397m. Speed=0.684000m/h.</desc>
<speed>0.190000</speed>
</trkpt>
<trkpt lat="55.900356" lon="26.528875">
<ele>111.821350</ele>
<time>2010-06-20T14:36:45Z</time>
<desc>lat.=55.900356, lon.=26.528875, Alt.=111.821350m. Speed=0.648000m/h.</desc>
<speed>0.180000</speed>
</trkpt>
<trkpt lat="55.900356" lon="26.528875">
<ele>111.821350</ele>
<time>2010-06-20T14:36:46Z</time>
<desc>lat.=55.900356, lon.=26.528875, Alt.=111.821350m. Speed=0.792000m/h.</desc>
<speed>0.220000</speed>
</trkpt>
<trkpt lat="55.900352" lon="26.528879">
<ele>111.825256</ele>
<time>2010-06-20T14:36:47Z</time>
<desc>lat.=55.900352, lon.=26.528879, Alt.=111.825256m. Speed=0.468000m/h.</desc>
<speed>0.130000</speed>
</trkpt>
<trkpt lat="55.900352" lon="26.528881">
<ele>111.827209</ele>
<time>2010-06-20T14:36:48Z</time>
<desc>lat.=55.900352, lon.=26.528881, Alt.=111.827209m. Speed=1.116000m/h.</desc>
<speed>0.310000</speed>
</trkpt>
<trkpt lat="55.900345" lon="26.528885">
<ele>111.868225</ele>
<time>2010-06-20T14:36:49Z</time>
<desc>lat.=55.900345, lon.=26.528885, Alt.=111.868225m. Speed=0.684000m/h.</desc>
<speed>0.190000</speed>
</trkpt>
<trkpt lat="55.900337" lon="26.528889">
<ele>111.926819</ele>
<time>2010-06-20T14:36:50Z</time>
<desc>lat.=55.900337, lon.=26.528889, Alt.=111.926819m. Speed=1.404000m/h.</desc>
<speed>0.390000</speed>
</trkpt>
<trkpt lat="55.900330" lon="26.528894">
<ele>112.002991</ele>
<time>2010-06-20T14:36:51Z</time>
<desc>lat.=55.900330, lon.=26.528894, Alt.=112.002991m. Speed=1.908000m/h.</desc>
<speed>0.530000</speed>
</trkpt>
<trkpt lat="55.900326" lon="26.528900">
<ele>112.061584</ele>
<time>2010-06-20T14:36:52Z</time>
<desc>lat.=55.900326, lon.=26.528900, Alt.=112.061584m. Speed=1.764000m/h.</desc>
<speed>0.490000</speed>
</trkpt>
<trkpt lat="55.900326" lon="26.528900">
<ele>112.190491</ele>
<time>2010-06-20T14:36:53Z</time>
<desc>lat.=55.900326, lon.=26.528900, Alt.=112.190491m. Speed=1.368000m/h.</desc>
<speed>0.380000</speed>
</trkpt>
<trkpt lat="55.900330" lon="26.528893">
<ele>112.274475</ele>
<time>2010-06-20T14:36:54Z</time>
<desc>lat.=55.900330, lon.=26.528893, Alt.=112.274475m. Speed=0.792000m/h.</desc>
<speed>0.220000</speed>
</trkpt>
<trkpt lat="55.900330" lon="26.528894">
<ele>112.393616</ele>
<time>2010-06-20T14:36:55Z</time>
<desc>lat.=55.900330, lon.=26.528894, Alt.=112.393616m. Speed=0.648000m/h.</desc>
<speed>0.180000</speed>
</trkpt>
<trkpt lat="55.900330" lon="26.528885">
<ele>112.608459</ele>
<time>2010-06-20T14:36:56Z</time>
<desc>lat.=55.900330, lon.=26.528885, Alt.=112.608459m. Speed=0.684000m/h.</desc>
<speed>0.190000</speed>
</trkpt>
<trkpt lat="55.900333" lon="26.528879">
<ele>112.653381</ele>
<time>2010-06-20T14:36:57Z</time>
<desc>lat.=55.900333, lon.=26.528879, Alt.=112.653381m. Speed=0.252000m/h.</desc>
<speed>0.070000</speed>
</trkpt>
<trkpt lat="55.900333" lon="26.528879">
<ele>112.661194</ele>
<time>2010-06-20T14:36:58Z</time>
<desc>lat.=55.900333, lon.=26.528879, Alt.=112.661194m. Speed=0.756000m/h.</desc>
<speed>0.210000</speed>
</trkpt>
<trkpt lat="55.900333" lon="26.528877">
<ele>112.663147</ele>
<time>2010-06-20T14:36:59Z</time>
<desc>lat.=55.900333, lon.=26.528877, Alt.=112.663147m. Speed=1.116000m/h.</desc>
<speed>0.310000</speed>
</trkpt>
<trkpt lat="55.900341" lon="26.528872">
<ele>112.561584</ele>
<time>2010-06-20T14:37:00Z</time>
<desc>lat.=55.900341, lon.=26.528872, Alt.=112.561584m. Speed=1.440000m/h.</desc>
<speed>0.400000</speed>
</trkpt>
<trkpt lat="55.900341" lon="26.528883">
<ele>112.389709</ele>
<time>2010-06-20T14:37:01Z</time>
<desc>lat.=55.900341, lon.=26.528883, Alt.=112.389709m. Speed=1.224000m/h.</desc>
<speed>0.340000</speed>
</trkpt>
<trkpt lat="55.900337" lon="26.528900">
<ele>112.415100</ele>
<time>2010-06-20T14:37:02Z</time>
<desc>lat.=55.900337, lon.=26.528900, Alt.=112.415100m. Speed=1.476000m/h.</desc>
<speed>0.410000</speed>
</trkpt>
<trkpt lat="55.900337" lon="26.528906">
<ele>112.442444</ele>
<time>2010-06-20T14:37:03Z</time>
<desc>lat.=55.900337, lon.=26.528906, Alt.=112.442444m. Speed=1.476000m/h.</desc>
<speed>0.410000</speed>
</trkpt>
<trkpt lat="55.900341" lon="26.528906">
<ele>112.442444</ele>
<time>2010-06-20T14:37:04Z</time>
<desc>lat.=55.900341, lon.=26.528906, Alt.=112.442444m. Speed=0.936000m/h.</desc>
<speed>0.260000</speed>
</trkpt>
<trkpt lat="55.900345" lon="26.528910">
<ele>112.422913</ele>
<time>2010-06-20T14:37:05Z</time>
<desc>lat.=55.900345, lon.=26.528910, Alt.=112.422913m. Speed=0.828000m/h.</desc>
<speed>0.230000</speed>
</trkpt>
<trkpt lat="55.900345" lon="26.528908">
<ele>112.362366</ele>
<time>2010-06-20T14:37:06Z</time>
<desc>lat.=55.900345, lon.=26.528908, Alt.=112.362366m. Speed=0.576000m/h.</desc>
<speed>0.160000</speed>
</trkpt>
<trkpt lat="55.900345" lon="26.528913">
<ele>112.342834</ele>
<time>2010-06-20T14:37:07Z</time>
<desc>lat.=55.900345, lon.=26.528913, Alt.=112.342834m. Speed=0.648000m/h.</desc>
<speed>0.180000</speed>
</trkpt>
<trkpt lat="55.900345" lon="26.528915">
<ele>112.333069</ele>
<time>2010-06-20T14:37:08Z</time>
<desc>lat.=55.900345, lon.=26.528915, Alt.=112.333069m. Speed=0.540000m/h.</desc>
<speed>0.150000</speed>
</trkpt>
<trkpt lat="55.900345" lon="26.528912">
<ele>112.325256</ele>
<time>2010-06-20T14:37:09Z</time>
<desc>lat.=55.900345, lon.=26.528912, Alt.=112.325256m. Speed=0.468000m/h.</desc>
<speed>0.130000</speed>
</trkpt>
<trkpt lat="55.900345" lon="26.528910">
<ele>112.319397</ele>
<time>2010-06-20T14:37:10Z</time>
<desc>lat.=55.900345, lon.=26.528910, Alt.=112.319397m. Speed=0.432000m/h.</desc>
<speed>0.120000</speed>
</trkpt>
<trkpt lat="55.900345" lon="26.528908">
<ele>112.315491</ele>
<time>2010-06-20T14:37:11Z</time>
<desc>lat.=55.900345, lon.=26.528908, Alt.=112.315491m. Speed=0.144000m/h.</desc>
<speed>0.040000</speed>
</trkpt>
<trkpt lat="55.900345" lon="26.528908">
<ele>112.307678</ele>
<time>2010-06-20T14:37:12Z</time>
<desc>lat.=55.900345, lon.=26.528908, Alt.=112.307678m. Speed=0.756000m/h.</desc>
<speed>0.210000</speed>
</trkpt>
<trkpt lat="55.900345" lon="26.528906">
<ele>112.303772</ele>
<time>2010-06-20T14:37:13Z</time>
<desc>lat.=55.900345, lon.=26.528906, Alt.=112.303772m. Speed=0.216000m/h.</desc>
<speed>0.060000</speed>
</trkpt>
<trkpt lat="55.900345" lon="26.528904">
<ele>112.305725</ele>
<time>2010-06-20T14:37:14Z</time>
<desc>lat.=55.900345, lon.=26.528904, Alt.=112.305725m. Speed=0.792000m/h.</desc>
<speed>0.220000</speed>
</trkpt>
<trkpt lat="55.900345" lon="26.528900">
<ele>112.307678</ele>
<time>2010-06-20T14:37:15Z</time>
<desc>lat.=55.900345, lon.=26.528900, Alt.=112.307678m. Speed=0.720000m/h.</desc>
<speed>0.200000</speed>
</trkpt>
<trkpt lat="55.900345" lon="26.528902">
<ele>112.309631</ele>
<time>2010-06-20T14:37:16Z</time>
<desc>lat.=55.900345, lon.=26.528902, Alt.=112.309631m. Speed=1.440000m/h.</desc>
<speed>0.400000</speed>
</trkpt>
<trkpt lat="55.900345" lon="26.528891">
<ele>112.590881</ele>
<time>2010-06-20T14:37:17Z</time>
<desc>lat.=55.900345, lon.=26.528891, Alt.=112.590881m. Speed=1.116000m/h.</desc>
<speed>0.310000</speed>
</trkpt>
<trkpt lat="55.900345" lon="26.528879">
<ele>112.788147</ele>
<time>2010-06-20T14:37:18Z</time>
<desc>lat.=55.900345, lon.=26.528879, Alt.=112.788147m. Speed=1.188000m/h.</desc>
<speed>0.330000</speed>
</trkpt>
<trkpt lat="55.900349" lon="26.528864">
<ele>112.979553</ele>
<time>2010-06-20T14:37:19Z</time>
<desc>lat.=55.900349, lon.=26.528864, Alt.=112.979553m. Speed=1.224000m/h.</desc>
<speed>0.340000</speed>
</trkpt>
<trkpt lat="55.900352" lon="26.528847">
<ele>113.079163</ele>
<time>2010-06-20T14:37:20Z</time>
<desc>lat.=55.900352, lon.=26.528847, Alt.=113.079163m. Speed=1.764000m/h.</desc>
<speed>0.490000</speed>
</trkpt>
<trkpt lat="55.900356" lon="26.528839">
<ele>113.096741</ele>
<time>2010-06-20T14:37:21Z</time>
<desc>lat.=55.900356, lon.=26.528839, Alt.=113.096741m. Speed=1.692000m/h.</desc>
<speed>0.470000</speed>
</trkpt>
<trkpt lat="55.900352" lon="26.528849">
<ele>113.184631</ele>
<time>2010-06-20T14:37:22Z</time>
<desc>lat.=55.900352, lon.=26.528849, Alt.=113.184631m. Speed=0.468000m/h.</desc>
<speed>0.130000</speed>
</trkpt>
<trkpt lat="55.900352" lon="26.528845">
<ele>113.315491</ele>
<time>2010-06-20T14:37:23Z</time>
<desc>lat.=55.900352, lon.=26.528845, Alt.=113.315491m. Speed=0.432000m/h.</desc>
<speed>0.120000</speed>
</trkpt>
<trkpt lat="55.900352" lon="26.528852">
<ele>113.419006</ele>
<time>2010-06-20T14:37:24Z</time>
<desc>lat.=55.900352, lon.=26.528852, Alt.=113.419006m. Speed=0.432000m/h.</desc>
<speed>0.120000</speed>
</trkpt>
<trkpt lat="55.900352" lon="26.528845">
<ele>113.467834</ele>
<time>2010-06-20T14:37:25Z</time>
<desc>lat.=55.900352, lon.=26.528845, Alt.=113.467834m. Speed=0.252000m/h.</desc>
<speed>0.070000</speed>
</trkpt>
<trkpt lat="55.900352" lon="26.528843">
<ele>113.473694</ele>
<time>2010-06-20T14:37:26Z</time>
<desc>lat.=55.900352, lon.=26.528843, Alt.=113.473694m. Speed=0.432000m/h.</desc>
<speed>0.120000</speed>
</trkpt>
<trkpt lat="55.900352" lon="26.528841">
<ele>113.475647</ele>
<time>2010-06-20T14:37:27Z</time>
<desc>lat.=55.900352, lon.=26.528841, Alt.=113.475647m. Speed=0.540000m/h.</desc>
<speed>0.150000</speed>
</trkpt>
<trkpt lat="55.900352" lon="26.528839">
<ele>113.477600</ele>
<time>2010-06-20T14:37:28Z</time>
<desc>lat.=55.900352, lon.=26.528839, Alt.=113.477600m. Speed=0.324000m/h.</desc>
<speed>0.090000</speed>
</trkpt>
<trkpt lat="55.900352" lon="26.528837">
<ele>113.475647</ele>
<time>2010-06-20T14:37:29Z</time>
<desc>lat.=55.900352, lon.=26.528837, Alt.=113.475647m. Speed=0.720000m/h.</desc>
<speed>0.200000</speed>
</trkpt>
<trkpt lat="55.900352" lon="26.528835">
<ele>113.473694</ele>
<time>2010-06-20T14:37:30Z</time>
<desc>lat.=55.900352, lon.=26.528835, Alt.=113.473694m. Speed=0.828000m/h.</desc>
<speed>0.230000</speed>
</trkpt>
<trkpt lat="55.900356" lon="26.528831">
<ele>113.473694</ele>
<time>2010-06-20T14:37:31Z</time>
<desc>lat.=55.900356, lon.=26.528831, Alt.=113.473694m. Speed=1.152000m/h.</desc>
<speed>0.320000</speed>
</trkpt>
<trkpt lat="55.900360" lon="26.528826">
<ele>113.522522</ele>
<time>2010-06-20T14:37:32Z</time>
<desc>lat.=55.900360, lon.=26.528826, Alt.=113.522522m. Speed=0.756000m/h.</desc>
<speed>0.210000</speed>
</trkpt>
<trkpt lat="55.900360" lon="26.528816">
<ele>113.653381</ele>
<time>2010-06-20T14:37:33Z</time>
<desc>lat.=55.900360, lon.=26.528816, Alt.=113.653381m. Speed=0.792000m/h.</desc>
<speed>0.220000</speed>
</trkpt>
<trkpt lat="55.900360" lon="26.528812">
<ele>113.667053</ele>
<time>2010-06-20T14:37:34Z</time>
<desc>lat.=55.900360, lon.=26.528812, Alt.=113.667053m. Speed=0.792000m/h.</desc>
<speed>0.220000</speed>
</trkpt>
<trkpt lat="55.900364" lon="26.528797">
<ele>113.655334</ele>
<time>2010-06-20T14:37:35Z</time>
<desc>lat.=55.900364, lon.=26.528797, Alt.=113.655334m. Speed=0.828000m/h.</desc>
<speed>0.230000</speed>
</trkpt>
<trkpt lat="55.900364" lon="26.528793">
<ele>113.651428</ele>
<time>2010-06-20T14:37:36Z</time>
<desc>lat.=55.900364, lon.=26.528793, Alt.=113.651428m. Speed=1.332000m/h.</desc>
<speed>0.370000</speed>
</trkpt>
<trkpt lat="55.900368" lon="26.528778">
<ele>113.620178</ele>
<time>2010-06-20T14:37:37Z</time>
<desc>lat.=55.900368, lon.=26.528778, Alt.=113.620178m. Speed=1.368000m/h.</desc>
<speed>0.380000</speed>
</trkpt>
<trkpt lat="55.900379" lon="26.528763">
<ele>113.682678</ele>
<time>2010-06-20T14:37:38Z</time>
<desc>lat.=55.900379, lon.=26.528763, Alt.=113.682678m. Speed=1.404000m/h.</desc>
<speed>0.390000</speed>
</trkpt>
<trkpt lat="55.900387" lon="26.528755">
<ele>113.852600</ele>
<time>2010-06-20T14:37:39Z</time>
<desc>lat.=55.900387, lon.=26.528755, Alt.=113.852600m. Speed=1.980000m/h.</desc>
<speed>0.550000</speed>
</trkpt>
<trkpt lat="55.900391" lon="26.528753">
<ele>114.047913</ele>
<time>2010-06-20T14:37:40Z</time>
<desc>lat.=55.900391, lon.=26.528753, Alt.=114.047913m. Speed=1.620000m/h.</desc>
<speed>0.450000</speed>
</trkpt>
<trkpt lat="55.900391" lon="26.528746">
<ele>114.294006</ele>
<time>2010-06-20T14:37:41Z</time>
<desc>lat.=55.900391, lon.=26.528746, Alt.=114.294006m. Speed=1.476000m/h.</desc>
<speed>0.410000</speed>
</trkpt>
<trkpt lat="55.900391" lon="26.528749">
<ele>114.504944</ele>
<time>2010-06-20T14:37:42Z</time>
<desc>lat.=55.900391, lon.=26.528749, Alt.=114.504944m. Speed=1.296000m/h.</desc>
<speed>0.360000</speed>
</trkpt>
<trkpt lat="55.900383" lon="26.528753">
<ele>114.604553</ele>
<time>2010-06-20T14:37:43Z</time>
<desc>lat.=55.900383, lon.=26.528753, Alt.=114.604553m. Speed=0.288000m/h.</desc>
<speed>0.080000</speed>
</trkpt>
<trkpt lat="55.900383" lon="26.528749">
<ele>114.694397</ele>
<time>2010-06-20T14:37:44Z</time>
<desc>lat.=55.900383, lon.=26.528749, Alt.=114.694397m. Speed=0.072000m/h.</desc>
<speed>0.020000</speed>
</trkpt>
<trkpt lat="55.900383" lon="26.528748">
<ele>114.745178</ele>
<time>2010-06-20T14:37:45Z</time>
<desc>lat.=55.900383, lon.=26.528748, Alt.=114.745178m. Speed=0.180000m/h.</desc>
<speed>0.050000</speed>
</trkpt>
<trkpt lat="55.900379" lon="26.528751">
<ele>114.803772</ele>
<time>2010-06-20T14:37:46Z</time>
<desc>lat.=55.900379, lon.=26.528751, Alt.=114.803772m. Speed=0.576000m/h.</desc>
<speed>0.160000</speed>
</trkpt>
<trkpt lat="55.900379" lon="26.528753">
<ele>114.811584</ele>
<time>2010-06-20T14:37:47Z</time>
<desc>lat.=55.900379, lon.=26.528753, Alt.=114.811584m. Speed=0.612000m/h.</desc>
<speed>0.170000</speed>
</trkpt>
<trkpt lat="55.900379" lon="26.528755">
<ele>114.819397</ele>
<time>2010-06-20T14:37:48Z</time>
<desc>lat.=55.900379, lon.=26.528755, Alt.=114.819397m. Speed=0.972000m/h.</desc>
<speed>0.270000</speed>
</trkpt>
<trkpt lat="55.900379" lon="26.528759">
<ele>114.823303</ele>
<time>2010-06-20T14:37:49Z</time>
<desc>lat.=55.900379, lon.=26.528759, Alt.=114.823303m. Speed=0.864000m/h.</desc>
<speed>0.240000</speed>
</trkpt>
<trkpt lat="55.900379" lon="26.528761">
<ele>114.823303</ele>
<time>2010-06-20T14:37:50Z</time>
<desc>lat.=55.900379, lon.=26.528761, Alt.=114.823303m. Speed=1.044000m/h.</desc>
<speed>0.290000</speed>
</trkpt>
<trkpt lat="55.900375" lon="26.528763">
<ele>114.819397</ele>
<time>2010-06-20T14:37:51Z</time>
<desc>lat.=55.900375, lon.=26.528763, Alt.=114.819397m. Speed=1.260000m/h.</desc>
<speed>0.350000</speed>
</trkpt>
<trkpt lat="55.900375" lon="26.528769">
<ele>114.809631</ele>
<time>2010-06-20T14:37:52Z</time>
<desc>lat.=55.900375, lon.=26.528769, Alt.=114.809631m. Speed=0.612000m/h.</desc>
<speed>0.170000</speed>
</trkpt>
<trkpt lat="55.900368" lon="26.528782">
<ele>114.786194</ele>
<time>2010-06-20T14:37:53Z</time>
<desc>lat.=55.900368, lon.=26.528782, Alt.=114.786194m. Speed=1.080000m/h.</desc>
<speed>0.300000</speed>
</trkpt>
<trkpt lat="55.900364" lon="26.528791">
<ele>114.710022</ele>
<time>2010-06-20T14:37:54Z</time>
<desc>lat.=55.900364, lon.=26.528791, Alt.=114.710022m. Speed=1.044000m/h.</desc>
<speed>0.290000</speed>
</trkpt>
<trkpt lat="55.900364" lon="26.528801">
<ele>114.665100</ele>
<time>2010-06-20T14:37:55Z</time>
<desc>lat.=55.900364, lon.=26.528801, Alt.=114.665100m. Speed=1.044000m/h.</desc>
<speed>0.290000</speed>
</trkpt>
<trkpt lat="55.900360" lon="26.528812">
<ele>114.661194</ele>
<time>2010-06-20T14:37:56Z</time>
<desc>lat.=55.900360, lon.=26.528812, Alt.=114.661194m. Speed=1.296000m/h.</desc>
<speed>0.360000</speed>
</trkpt>
<trkpt lat="55.900356" lon="26.528820">
<ele>114.729553</ele>
<time>2010-06-20T14:37:57Z</time>
<desc>lat.=55.900356, lon.=26.528820, Alt.=114.729553m. Speed=1.332000m/h.</desc>
<speed>0.370000</speed>
</trkpt>
<trkpt lat="55.900356" lon="26.528822">
<ele>114.794006</ele>
<time>2010-06-20T14:37:58Z</time>
<desc>lat.=55.900356, lon.=26.528822, Alt.=114.794006m. Speed=1.080000m/h.</desc>
<speed>0.300000</speed>
</trkpt>
<trkpt lat="55.900349" lon="26.528828">
<ele>114.877991</ele>
<time>2010-06-20T14:37:59Z</time>
<desc>lat.=55.900349, lon.=26.528828, Alt.=114.877991m. Speed=0.864000m/h.</desc>
<speed>0.240000</speed>
</trkpt>
<trkpt lat="55.900345" lon="26.528841">
<ele>114.965881</ele>
<time>2010-06-20T14:38:00Z</time>
<desc>lat.=55.900345, lon.=26.528841, Alt.=114.965881m. Speed=1.260000m/h.</desc>
<speed>0.350000</speed>
</trkpt>
<trkpt lat="55.900341" lon="26.528845">
<ele>115.100647</ele>
<time>2010-06-20T14:38:01Z</time>
<desc>lat.=55.900341, lon.=26.528845, Alt.=115.100647m. Speed=0.900000m/h.</desc>
<speed>0.250000</speed>
</trkpt>
<trkpt lat="55.900341" lon="26.528849">
<ele>115.110413</ele>
<time>2010-06-20T14:38:02Z</time>
<desc>lat.=55.900341, lon.=26.528849, Alt.=115.110413m. Speed=0.792000m/h.</desc>
<speed>0.220000</speed>
</trkpt>
<trkpt lat="55.900337" lon="26.528856">
<ele>115.071350</ele>
<time>2010-06-20T14:38:03Z</time>
<desc>lat.=55.900337, lon.=26.528856, Alt.=115.071350m. Speed=0.828000m/h.</desc>
<speed>0.230000</speed>
</trkpt>
<trkpt lat="55.900333" lon="26.528873">
<ele>115.036194</ele>
<time>2010-06-20T14:38:04Z</time>
<desc>lat.=55.900333, lon.=26.528873, Alt.=115.036194m. Speed=1.728000m/h.</desc>
<speed>0.480000</speed>
</trkpt>
<trkpt lat="55.900337" lon="26.528873">
<ele>115.057678</ele>
<time>2010-06-20T14:38:05Z</time>
<desc>lat.=55.900337, lon.=26.528873, Alt.=115.057678m. Speed=1.332000m/h.</desc>
<speed>0.370000</speed>
</trkpt>
<trkpt lat="55.900337" lon="26.528873">
<ele>115.104553</ele>
<time>2010-06-20T14:38:06Z</time>
<desc>lat.=55.900337, lon.=26.528873, Alt.=115.104553m. Speed=0.864000m/h.</desc>
<speed>0.240000</speed>
</trkpt>
<trkpt lat="55.900337" lon="26.528877">
<ele>115.180725</ele>
<time>2010-06-20T14:38:07Z</time>
<desc>lat.=55.900337, lon.=26.528877, Alt.=115.180725m. Speed=1.296000m/h.</desc>
<speed>0.360000</speed>
</trkpt>
<trkpt lat="55.900337" lon="26.528877">
<ele>115.208069</ele>
<time>2010-06-20T14:38:08Z</time>
<desc>lat.=55.900337, lon.=26.528877, Alt.=115.208069m. Speed=1.116000m/h.</desc>
<speed>0.310000</speed>
</trkpt>
<trkpt lat="55.900330" lon="26.528879">
<ele>115.237366</ele>
<time>2010-06-20T14:38:09Z</time>
<desc>lat.=55.900330, lon.=26.528879, Alt.=115.237366m. Speed=0.972000m/h.</desc>
<speed>0.270000</speed>
</trkpt>
<trkpt lat="55.900330" lon="26.528875">
<ele>115.186584</ele>
<time>2010-06-20T14:38:10Z</time>
<desc>lat.=55.900330, lon.=26.528875, Alt.=115.186584m. Speed=0.684000m/h.</desc>
<speed>0.190000</speed>
</trkpt>
<trkpt lat="55.900322" lon="26.528883">
<ele>115.155334</ele>
<time>2010-06-20T14:38:11Z</time>
<desc>lat.=55.900322, lon.=26.528883, Alt.=115.155334m. Speed=1.332000m/h.</desc>
<speed>0.370000</speed>
</trkpt>
<trkpt lat="55.900318" lon="26.528879">
<ele>115.147522</ele>
<time>2010-06-20T14:38:12Z</time>
<desc>lat.=55.900318, lon.=26.528879, Alt.=115.147522m. Speed=0.972000m/h.</desc>
<speed>0.270000</speed>
</trkpt>
<trkpt lat="55.900311" lon="26.528893">
<ele>115.090881</ele>
<time>2010-06-20T14:38:13Z</time>
<desc>lat.=55.900311, lon.=26.528893, Alt.=115.090881m. Speed=1.764000m/h.</desc>
<speed>0.490000</speed>
</trkpt>
<trkpt lat="55.900307" lon="26.528900">
<ele>115.057678</ele>
<time>2010-06-20T14:38:14Z</time>
<desc>lat.=55.900307, lon.=26.528900, Alt.=115.057678m. Speed=1.872000m/h.</desc>
<speed>0.520000</speed>
</trkpt>
<trkpt lat="55.900307" lon="26.528900">
<ele>115.024475</ele>
<time>2010-06-20T14:38:15Z</time>
<desc>lat.=55.900307, lon.=26.528900, Alt.=115.024475m. Speed=1.548000m/h.</desc>
<speed>0.430000</speed>
</trkpt>
<trkpt lat="55.900307" lon="26.528898">
<ele>114.950256</ele>
<time>2010-06-20T14:38:16Z</time>
<desc>lat.=55.900307, lon.=26.528898, Alt.=114.950256m. Speed=0.720000m/h.</desc>
<speed>0.200000</speed>
</trkpt>
<trkpt lat="55.900307" lon="26.528900">
<ele>114.911194</ele>
<time>2010-06-20T14:38:17Z</time>
<desc>lat.=55.900307, lon.=26.528900, Alt.=114.911194m. Speed=0.540000m/h.</desc>
<speed>0.150000</speed>
</trkpt>
<trkpt lat="55.900307" lon="26.528902">
<ele>114.907288</ele>
<time>2010-06-20T14:38:18Z</time>
<desc>lat.=55.900307, lon.=26.528902, Alt.=114.907288m. Speed=0.540000m/h.</desc>
<speed>0.150000</speed>
</trkpt>
<trkpt lat="55.900303" lon="26.528906">
<ele>114.922913</ele>
<time>2010-06-20T14:38:19Z</time>
<desc>lat.=55.900303, lon.=26.528906, Alt.=114.922913m. Speed=0.576000m/h.</desc>
<speed>0.160000</speed>
</trkpt>
<trkpt lat="55.900303" lon="26.528910">
<ele>114.922913</ele>
<time>2010-06-20T14:38:20Z</time>
<desc>lat.=55.900303, lon.=26.528910, Alt.=114.922913m. Speed=0.900000m/h.</desc>
<speed>0.250000</speed>
</trkpt>
<trkpt lat="55.900303" lon="26.528912">
<ele>114.922913</ele>
<time>2010-06-20T14:38:21Z</time>
<desc>lat.=55.900303, lon.=26.528912, Alt.=114.922913m. Speed=0.108000m/h.</desc>
<speed>0.030000</speed>
</trkpt>
<trkpt lat="55.900303" lon="26.528913">
<ele>114.922913</ele>
<time>2010-06-20T14:38:22Z</time>
<desc>lat.=55.900303, lon.=26.528913, Alt.=114.922913m. Speed=0.468000m/h.</desc>
<speed>0.130000</speed>
</trkpt>
<trkpt lat="55.900303" lon="26.528910">
<ele>114.922913</ele>
<time>2010-06-20T14:38:23Z</time>
<desc>lat.=55.900303, lon.=26.528910, Alt.=114.922913m. Speed=0.756000m/h.</desc>
<speed>0.210000</speed>
</trkpt>
<trkpt lat="55.900303" lon="26.528908">
<ele>114.924866</ele>
<time>2010-06-20T14:38:24Z</time>
<desc>lat.=55.900303, lon.=26.528908, Alt.=114.924866m. Speed=0.468000m/h.</desc>
<speed>0.130000</speed>
</trkpt>
<trkpt lat="55.900307" lon="26.528906">
<ele>114.922913</ele>
<time>2010-06-20T14:38:25Z</time>
<desc>lat.=55.900307, lon.=26.528906, Alt.=114.922913m. Speed=0.540000m/h.</desc>
<speed>0.150000</speed>
</trkpt>
<trkpt lat="55.900307" lon="26.528904">
<ele>114.922913</ele>
<time>2010-06-20T14:38:26Z</time>
<desc>lat.=55.900307, lon.=26.528904, Alt.=114.922913m. Speed=0.540000m/h.</desc>
<speed>0.150000</speed>
</trkpt>
<trkpt lat="55.900307" lon="26.528906">
<ele>114.926819</ele>
<time>2010-06-20T14:38:27Z</time>
<desc>lat.=55.900307, lon.=26.528906, Alt.=114.926819m. Speed=0.972000m/h.</desc>
<speed>0.270000</speed>
</trkpt>
<trkpt lat="55.900307" lon="26.528910">
<ele>114.932678</ele>
<time>2010-06-20T14:38:28Z</time>
<desc>lat.=55.900307, lon.=26.528910, Alt.=114.932678m. Speed=0.720000m/h.</desc>
<speed>0.200000</speed>
</trkpt>
<trkpt lat="55.900307" lon="26.528913">
<ele>114.940491</ele>
<time>2010-06-20T14:38:29Z</time>
<desc>lat.=55.900307, lon.=26.528913, Alt.=114.940491m. Speed=1.008000m/h.</desc>
<speed>0.280000</speed>
</trkpt>
<trkpt lat="55.900303" lon="26.528917">
<ele>114.950256</ele>
<time>2010-06-20T14:38:30Z</time>
<desc>lat.=55.900303, lon.=26.528917, Alt.=114.950256m. Speed=0.972000m/h.</desc>
<speed>0.270000</speed>
</trkpt>
<trkpt lat="55.900303" lon="26.528921">
<ele>114.956116</ele>
<time>2010-06-20T14:38:31Z</time>
<desc>lat.=55.900303, lon.=26.528921, Alt.=114.956116m. Speed=1.116000m/h.</desc>
<speed>0.310000</speed>
</trkpt>
<trkpt lat="55.900303" lon="26.528919">
<ele>115.012756</ele>
<time>2010-06-20T14:38:32Z</time>
<desc>lat.=55.900303, lon.=26.528919, Alt.=115.012756m. Speed=1.404000m/h.</desc>
<speed>0.390000</speed>
</trkpt>
<trkpt lat="55.900299" lon="26.528929">
<ele>114.997131</ele>
<time>2010-06-20T14:38:33Z</time>
<desc>lat.=55.900299, lon.=26.528929, Alt.=114.997131m. Speed=1.764000m/h.</desc>
<speed>0.490000</speed>
</trkpt>
<trkpt lat="55.900299" lon="26.528925">
<ele>114.993225</ele>
<time>2010-06-20T14:38:34Z</time>
<desc>lat.=55.900299, lon.=26.528925, Alt.=114.993225m. Speed=1.080000m/h.</desc>
<speed>0.300000</speed>
</trkpt>
<trkpt lat="55.900295" lon="26.528936">
<ele>114.965881</ele>
<time>2010-06-20T14:38:35Z</time>
<desc>lat.=55.900295, lon.=26.528936, Alt.=114.965881m. Speed=1.368000m/h.</desc>
<speed>0.380000</speed>
</trkpt>
<trkpt lat="55.900299" lon="26.528938">
<ele>114.907288</ele>
<time>2010-06-20T14:38:36Z</time>
<desc>lat.=55.900299, lon.=26.528938, Alt.=114.907288m. Speed=0.936000m/h.</desc>
<speed>0.260000</speed>
</trkpt>
<trkpt lat="55.900303" lon="26.528944">
<ele>114.944397</ele>
<time>2010-06-20T14:38:37Z</time>
<desc>lat.=55.900303, lon.=26.528944, Alt.=114.944397m. Speed=0.900000m/h.</desc>
<speed>0.250000</speed>
</trkpt>
<trkpt lat="55.900307" lon="26.528936">
<ele>114.971741</ele>
<time>2010-06-20T14:38:38Z</time>
<desc>lat.=55.900307, lon.=26.528936, Alt.=114.971741m. Speed=0.468000m/h.</desc>
<speed>0.130000</speed>
</trkpt>
<trkpt lat="55.900311" lon="26.528940">
<ele>115.002991</ele>
<time>2010-06-20T14:38:39Z</time>
<desc>lat.=55.900311, lon.=26.528940, Alt.=115.002991m. Speed=0.612000m/h.</desc>
<speed>0.170000</speed>
</trkpt>
<trkpt lat="55.900311" lon="26.528942">
<ele>115.010803</ele>
<time>2010-06-20T14:38:40Z</time>
<desc>lat.=55.900311, lon.=26.528942, Alt.=115.010803m. Speed=0.504000m/h.</desc>
<speed>0.140000</speed>
</trkpt>
<trkpt lat="55.900311" lon="26.528944">
<ele>115.016663</ele>
<time>2010-06-20T14:38:41Z</time>
<desc>lat.=55.900311, lon.=26.528944, Alt.=115.016663m. Speed=0.396000m/h.</desc>
<speed>0.110000</speed>
</trkpt>
<trkpt lat="55.900311" lon="26.528946">
<ele>115.022522</ele>
<time>2010-06-20T14:38:42Z</time>
<desc>lat.=55.900311, lon.=26.528946, Alt.=115.022522m. Speed=0.036000m/h.</desc>
<speed>0.010000</speed>
</trkpt>
<trkpt lat="55.900311" lon="26.528946">
<ele>115.026428</ele>
<time>2010-06-20T14:38:43Z</time>
<desc>lat.=55.900311, lon.=26.528946, Alt.=115.026428m. Speed=0.684000m/h.</desc>
<speed>0.190000</speed>
</trkpt>
<trkpt lat="55.900311" lon="26.528942">
<ele>115.024475</ele>
<time>2010-06-20T14:38:44Z</time>
<desc>lat.=55.900311, lon.=26.528942, Alt.=115.024475m. Speed=0.540000m/h.</desc>
<speed>0.150000</speed>
</trkpt>
<trkpt lat="55.900311" lon="26.528940">
<ele>115.024475</ele>
<time>2010-06-20T14:38:45Z</time>
<desc>lat.=55.900311, lon.=26.528940, Alt.=115.024475m. Speed=0.900000m/h.</desc>
<speed>0.250000</speed>
</trkpt>
<trkpt lat="55.900311" lon="26.528936">
<ele>115.022522</ele>
<time>2010-06-20T14:38:46Z</time>
<desc>lat.=55.900311, lon.=26.528936, Alt.=115.022522m. Speed=1.476000m/h.</desc>
<speed>0.410000</speed>
</trkpt>
<trkpt lat="55.900311" lon="26.528933">
<ele>115.008850</ele>
<time>2010-06-20T14:38:47Z</time>
<desc>lat.=55.900311, lon.=26.528933, Alt.=115.008850m. Speed=1.296000m/h.</desc>
<speed>0.360000</speed>
</trkpt>
<trkpt lat="55.900307" lon="26.528938">
<ele>114.930725</ele>
<time>2010-06-20T14:38:48Z</time>
<desc>lat.=55.900307, lon.=26.528938, Alt.=114.930725m. Speed=0.072000m/h.</desc>
<speed>0.020000</speed>
</trkpt>
<trkpt lat="55.900307" lon="26.528923">
<ele>114.911194</ele>
<time>2010-06-20T14:38:49Z</time>
<desc>lat.=55.900307, lon.=26.528923, Alt.=114.911194m. Speed=0.432000m/h.</desc>
<speed>0.120000</speed>
</trkpt>
<trkpt lat="55.900311" lon="26.528906">
<ele>114.854553</ele>
<time>2010-06-20T14:38:50Z</time>
<desc>lat.=55.900311, lon.=26.528906, Alt.=114.854553m. Speed=0.972000m/h.</desc>
<speed>0.270000</speed>
</trkpt>
<trkpt lat="55.900318" lon="26.528887">
<ele>114.868225</ele>
<time>2010-06-20T14:38:51Z</time>
<desc>lat.=55.900318, lon.=26.528887, Alt.=114.868225m. Speed=1.332000m/h.</desc>
<speed>0.370000</speed>
</trkpt>
<trkpt lat="55.900318" lon="26.528887">
<ele>114.815491</ele>
<time>2010-06-20T14:38:52Z</time>
<desc>lat.=55.900318, lon.=26.528887, Alt.=114.815491m. Speed=0.936000m/h.</desc>
<speed>0.260000</speed>
</trkpt>
<trkpt lat="55.900318" lon="26.528879">
<ele>114.774475</ele>
<time>2010-06-20T14:38:53Z</time>
<desc>lat.=55.900318, lon.=26.528879, Alt.=114.774475m. Speed=1.080000m/h.</desc>
<speed>0.300000</speed>
</trkpt>
<trkpt lat="55.900314" lon="26.528887">
<ele>114.713928</ele>
<time>2010-06-20T14:38:54Z</time>
<desc>lat.=55.900314, lon.=26.528887, Alt.=114.713928m. Speed=0.180000m/h.</desc>
<speed>0.050000</speed>
</trkpt>
<trkpt lat="55.900318" lon="26.528875">
<ele>114.629944</ele>
<time>2010-06-20T14:38:55Z</time>
<desc>lat.=55.900318, lon.=26.528875, Alt.=114.629944m. Speed=0.792000m/h.</desc>
<speed>0.220000</speed>
</trkpt>
<trkpt lat="55.900311" lon="26.528885">
<ele>114.460022</ele>
<time>2010-06-20T14:38:56Z</time>
<desc>lat.=55.900311, lon.=26.528885, Alt.=114.460022m. Speed=0.504000m/h.</desc>
<speed>0.140000</speed>
</trkpt>
<trkpt lat="55.900303" lon="26.528885">
<ele>114.299866</ele>
<time>2010-06-20T14:38:57Z</time>
<desc>lat.=55.900303, lon.=26.528885, Alt.=114.299866m. Speed=0.972000m/h.</desc>
<speed>0.270000</speed>
</trkpt>
<trkpt lat="55.900303" lon="26.528885">
<ele>114.294006</ele>
<time>2010-06-20T14:38:58Z</time>
<desc>lat.=55.900303, lon.=26.528885, Alt.=114.294006m. Speed=1.116000m/h.</desc>
<speed>0.310000</speed>
</trkpt>
<trkpt lat="55.900307" lon="26.528877">
<ele>114.118225</ele>
<time>2010-06-20T14:38:59Z</time>
<desc>lat.=55.900307, lon.=26.528877, Alt.=114.118225m. Speed=0.540000m/h.</desc>
<speed>0.150000</speed>
</trkpt>
<trkpt lat="55.900299" lon="26.528875">
<ele>114.004944</ele>
<time>2010-06-20T14:39:00Z</time>
<desc>lat.=55.900299, lon.=26.528875, Alt.=114.004944m. Speed=1.080000m/h.</desc>
<speed>0.300000</speed>
</trkpt>
<trkpt lat="55.900299" lon="26.528872">
<ele>113.960022</ele>
<time>2010-06-20T14:39:01Z</time>
<desc>lat.=55.900299, lon.=26.528872, Alt.=113.960022m. Speed=0.936000m/h.</desc>
<speed>0.260000</speed>
</trkpt>
<trkpt lat="55.900299" lon="26.528870">
<ele>113.907288</ele>
<time>2010-06-20T14:39:02Z</time>
<desc>lat.=55.900299, lon.=26.528870, Alt.=113.907288m. Speed=0.684000m/h.</desc>
<speed>0.190000</speed>
</trkpt>
<trkpt lat="55.900295" lon="26.528879">
<ele>113.739319</ele>
<time>2010-06-20T14:39:03Z</time>
<desc>lat.=55.900295, lon.=26.528879, Alt.=113.739319m. Speed=1.296000m/h.</desc>
<speed>0.360000</speed>
</trkpt>
<trkpt lat="55.900299" lon="26.528872">
<ele>113.561584</ele>
<time>2010-06-20T14:39:04Z</time>
<desc>lat.=55.900299, lon.=26.528872, Alt.=113.561584m. Speed=0.684000m/h.</desc>
<speed>0.190000</speed>
</trkpt>
<trkpt lat="55.900295" lon="26.528875">
<ele>113.463928</ele>
<time>2010-06-20T14:39:05Z</time>
<desc>lat.=55.900295, lon.=26.528875, Alt.=113.463928m. Speed=0.648000m/h.</desc>
<speed>0.180000</speed>
</trkpt>
<trkpt lat="55.900295" lon="26.528887">
<ele>113.215881</ele>
<time>2010-06-20T14:39:06Z</time>
<desc>lat.=55.900295, lon.=26.528887, Alt.=113.215881m. Speed=0.792000m/h.</desc>
<speed>0.220000</speed>
</trkpt>
<trkpt lat="55.900299" lon="26.528885">
<ele>112.948303</ele>
<time>2010-06-20T14:39:07Z</time>
<desc>lat.=55.900299, lon.=26.528885, Alt.=112.948303m. Speed=0.468000m/h.</desc>
<speed>0.130000</speed>
</trkpt>
<trkpt lat="55.900299" lon="26.528887">
<ele>112.932678</ele>
<time>2010-06-20T14:39:08Z</time>
<desc>lat.=55.900299, lon.=26.528887, Alt.=112.932678m. Speed=0.900000m/h.</desc>
<speed>0.250000</speed>
</trkpt>
<trkpt lat="55.900299" lon="26.528891">
<ele>112.920959</ele>
<time>2010-06-20T14:39:09Z</time>
<desc>lat.=55.900299, lon.=26.528891, Alt.=112.920959m. Speed=1.224000m/h.</desc>
<speed>0.340000</speed>
</trkpt>
<trkpt lat="55.900295" lon="26.528902">
<ele>112.801819</ele>
<time>2010-06-20T14:39:10Z</time>
<desc>lat.=55.900295, lon.=26.528902, Alt.=112.801819m. Speed=1.260000m/h.</desc>
<speed>0.350000</speed>
</trkpt>
<trkpt lat="55.900295" lon="26.528912">
<ele>112.669006</ele>
<time>2010-06-20T14:39:11Z</time>
<desc>lat.=55.900295, lon.=26.528912, Alt.=112.669006m. Speed=1.368000m/h.</desc>
<speed>0.380000</speed>
</trkpt>
<trkpt lat="55.900295" lon="26.528917">
<ele>112.516663</ele>
<time>2010-06-20T14:39:12Z</time>
<desc>lat.=55.900295, lon.=26.528917, Alt.=112.516663m. Speed=1.116000m/h.</desc>
<speed>0.310000</speed>
</trkpt>
<trkpt lat="55.900295" lon="26.528925">
<ele>112.288147</ele>
<time>2010-06-20T14:39:13Z</time>
<desc>lat.=55.900295, lon.=26.528925, Alt.=112.288147m. Speed=1.044000m/h.</desc>
<speed>0.290000</speed>
</trkpt>
<trkpt lat="55.900299" lon="26.528919">
<ele>112.243225</ele>
<time>2010-06-20T14:39:14Z</time>
<desc>lat.=55.900299, lon.=26.528919, Alt.=112.243225m. Speed=0.612000m/h.</desc>
<speed>0.170000</speed>
</trkpt>
<trkpt lat="55.900291" lon="26.528921">
<ele>112.284241</ele>
<time>2010-06-20T14:39:15Z</time>
<desc>lat.=55.900291, lon.=26.528921, Alt.=112.284241m. Speed=0.216000m/h.</desc>
<speed>0.060000</speed>
</trkpt>
<trkpt lat="55.900291" lon="26.528913">
<ele>112.292053</ele>
<time>2010-06-20T14:39:16Z</time>
<desc>lat.=55.900291, lon.=26.528913, Alt.=112.292053m. Speed=0.360000m/h.</desc>
<speed>0.100000</speed>
</trkpt>
<trkpt lat="55.900291" lon="26.528912">
<ele>112.290100</ele>
<time>2010-06-20T14:39:17Z</time>
<desc>lat.=55.900291, lon.=26.528912, Alt.=112.290100m. Speed=0.720000m/h.</desc>
<speed>0.200000</speed>
</trkpt>
<trkpt lat="55.900291" lon="26.528908">
<ele>112.286194</ele>
<time>2010-06-20T14:39:18Z</time>
<desc>lat.=55.900291, lon.=26.528908, Alt.=112.286194m. Speed=0.972000m/h.</desc>
<speed>0.270000</speed>
</trkpt>
<trkpt lat="55.900291" lon="26.528904">
<ele>112.282288</ele>
<time>2010-06-20T14:39:19Z</time>
<desc>lat.=55.900291, lon.=26.528904, Alt.=112.282288m. Speed=0.072000m/h.</desc>
<speed>0.020000</speed>
</trkpt>
<trkpt lat="55.900295" lon="26.528904">
<ele>112.280334</ele>
<time>2010-06-20T14:39:20Z</time>
<desc>lat.=55.900295, lon.=26.528904, Alt.=112.280334m. Speed=0.180000m/h.</desc>
<speed>0.050000</speed>
</trkpt>
<trkpt lat="55.900295" lon="26.528904">
<ele>112.280334</ele>
<time>2010-06-20T14:39:21Z</time>
<desc>lat.=55.900295, lon.=26.528904, Alt.=112.280334m. Speed=0.648000m/h.</desc>
<speed>0.180000</speed>
</trkpt>
<trkpt lat="55.900295" lon="26.528900">
<ele>112.282288</ele>
<time>2010-06-20T14:39:22Z</time>
<desc>lat.=55.900295, lon.=26.528900, Alt.=112.282288m. Speed=0.432000m/h.</desc>
<speed>0.120000</speed>
</trkpt>
<trkpt lat="55.900295" lon="26.528902">
<ele>112.288147</ele>
<time>2010-06-20T14:39:23Z</time>
<desc>lat.=55.900295, lon.=26.528902, Alt.=112.288147m. Speed=0.972000m/h.</desc>
<speed>0.270000</speed>
</trkpt>
<trkpt lat="55.900295" lon="26.528904">
<ele>112.290100</ele>
<time>2010-06-20T14:39:24Z</time>
<desc>lat.=55.900295, lon.=26.528904, Alt.=112.290100m. Speed=1.224000m/h.</desc>
<speed>0.340000</speed>
</trkpt>
<trkpt lat="55.900299" lon="26.528896">
<ele>112.297913</ele>
<time>2010-06-20T14:39:25Z</time>
<desc>lat.=55.900299, lon.=26.528896, Alt.=112.297913m. Speed=1.116000m/h.</desc>
<speed>0.310000</speed>
</trkpt>
<trkpt lat="55.900299" lon="26.528885">
<ele>112.282288</ele>
<time>2010-06-20T14:39:26Z</time>
<desc>lat.=55.900299, lon.=26.528885, Alt.=112.282288m. Speed=0.900000m/h.</desc>
<speed>0.250000</speed>
</trkpt>
<trkpt lat="55.900303" lon="26.528870">
<ele>112.278381</ele>
<time>2010-06-20T14:39:27Z</time>
<desc>lat.=55.900303, lon.=26.528870, Alt.=112.278381m. Speed=1.476000m/h.</desc>
<speed>0.410000</speed>
</trkpt>
<trkpt lat="55.900311" lon="26.528868">
<ele>112.335022</ele>
<time>2010-06-20T14:39:28Z</time>
<desc>lat.=55.900311, lon.=26.528868, Alt.=112.335022m. Speed=1.512000m/h.</desc>
<speed>0.420000</speed>
</trkpt>
<trkpt lat="55.900303" lon="26.528881">
<ele>112.385803</ele>
<time>2010-06-20T14:39:29Z</time>
<desc>lat.=55.900303, lon.=26.528881, Alt.=112.385803m. Speed=0.540000m/h.</desc>
<speed>0.150000</speed>
</trkpt>
<trkpt lat="55.900295" lon="26.528887">
<ele>112.411194</ele>
<time>2010-06-20T14:39:30Z</time>
<desc>lat.=55.900295, lon.=26.528887, Alt.=112.411194m. Speed=0.216000m/h.</desc>
<speed>0.060000</speed>
</trkpt>
<trkpt lat="55.900291" lon="26.528891">
<ele>112.432678</ele>
<time>2010-06-20T14:39:31Z</time>
<desc>lat.=55.900291, lon.=26.528891, Alt.=112.432678m. Speed=0.288000m/h.</desc>
<speed>0.080000</speed>
</trkpt>
<trkpt lat="55.900291" lon="26.528894">
<ele>112.383850</ele>
<time>2010-06-20T14:39:32Z</time>
<desc>lat.=55.900291, lon.=26.528894, Alt.=112.383850m. Speed=0.612000m/h.</desc>
<speed>0.170000</speed>
</trkpt>
<trkpt lat="55.900291" lon="26.528896">
<ele>112.385803</ele>
<time>2010-06-20T14:39:33Z</time>
<desc>lat.=55.900291, lon.=26.528896, Alt.=112.385803m. Speed=0.396000m/h.</desc>
<speed>0.110000</speed>
</trkpt>
<trkpt lat="55.900288" lon="26.528896">
<ele>112.381897</ele>
<time>2010-06-20T14:39:34Z</time>
<desc>lat.=55.900288, lon.=26.528896, Alt.=112.381897m. Speed=0.432000m/h.</desc>
<speed>0.120000</speed>
</trkpt>
<trkpt lat="55.900288" lon="26.528896">
<ele>112.376038</ele>
<time>2010-06-20T14:39:35Z</time>
<desc>lat.=55.900288, lon.=26.528896, Alt.=112.376038m. Speed=0.684000m/h.</desc>
<speed>0.190000</speed>
</trkpt>
<trkpt lat="55.900291" lon="26.528898">
<ele>112.370178</ele>
<time>2010-06-20T14:39:36Z</time>
<desc>lat.=55.900291, lon.=26.528898, Alt.=112.370178m. Speed=0.828000m/h.</desc>
<speed>0.230000</speed>
</trkpt>
<trkpt lat="55.900288" lon="26.528902">
<ele>112.364319</ele>
<time>2010-06-20T14:39:37Z</time>
<desc>lat.=55.900288, lon.=26.528902, Alt.=112.364319m. Speed=0.936000m/h.</desc>
<speed>0.260000</speed>
</trkpt>
<trkpt lat="55.900288" lon="26.528906">
<ele>112.360413</ele>
<time>2010-06-20T14:39:38Z</time>
<desc>lat.=55.900288, lon.=26.528906, Alt.=112.360413m. Speed=1.764000m/h.</desc>
<speed>0.490000</speed>
</trkpt>
<trkpt lat="55.900284" lon="26.528915">
<ele>112.401428</ele>
<time>2010-06-20T14:39:39Z</time>
<desc>lat.=55.900284, lon.=26.528915, Alt.=112.401428m. Speed=1.908000m/h.</desc>
<speed>0.530000</speed>
</trkpt>
<trkpt lat="55.900288" lon="26.528915">
<ele>112.471741</ele>
<time>2010-06-20T14:39:40Z</time>
<desc>lat.=55.900288, lon.=26.528915, Alt.=112.471741m. Speed=1.764000m/h.</desc>
<speed>0.490000</speed>
</trkpt>
<trkpt lat="55.900295" lon="26.528898">
<ele>112.538147</ele>
<time>2010-06-20T14:39:41Z</time>
<desc>lat.=55.900295, lon.=26.528898, Alt.=112.538147m. Speed=0.936000m/h.</desc>
<speed>0.260000</speed>
</trkpt>
<trkpt lat="55.900299" lon="26.528885">
<ele>112.655334</ele>
<time>2010-06-20T14:39:42Z</time>
<desc>lat.=55.900299, lon.=26.528885, Alt.=112.655334m. Speed=1.152000m/h.</desc>
<speed>0.320000</speed>
</trkpt>
<trkpt lat="55.900295" lon="26.528883">
<ele>112.706116</ele>
<time>2010-06-20T14:39:43Z</time>
<desc>lat.=55.900295, lon.=26.528883, Alt.=112.706116m. Speed=0.648000m/h.</desc>
<speed>0.180000</speed>
</trkpt>
<trkpt lat="55.900291" lon="26.528885">
<ele>112.733459</ele>
<time>2010-06-20T14:39:44Z</time>
<desc>lat.=55.900291, lon.=26.528885, Alt.=112.733459m. Speed=0.144000m/h.</desc>
<speed>0.040000</speed>
</trkpt>
<trkpt lat="55.900291" lon="26.528885">
<ele>112.801819</ele>
<time>2010-06-20T14:39:45Z</time>
<desc>lat.=55.900291, lon.=26.528885, Alt.=112.801819m. Speed=0.252000m/h.</desc>
<speed>0.070000</speed>
</trkpt>
<trkpt lat="55.900288" lon="26.528881">
<ele>112.811584</ele>
<time>2010-06-20T14:39:46Z</time>
<desc>lat.=55.900288, lon.=26.528881, Alt.=112.811584m. Speed=0.180000m/h.</desc>
<speed>0.050000</speed>
</trkpt>
<trkpt lat="55.900288" lon="26.528881">
<ele>112.811584</ele>
<time>2010-06-20T14:39:47Z</time>
<desc>lat.=55.900288, lon.=26.528881, Alt.=112.811584m. Speed=0.540000m/h.</desc>
<speed>0.150000</speed>
</trkpt>
<trkpt lat="55.900288" lon="26.528883">
<ele>112.807678</ele>
<time>2010-06-20T14:39:48Z</time>
<desc>lat.=55.900288, lon.=26.528883, Alt.=112.807678m. Speed=0.180000m/h.</desc>
<speed>0.050000</speed>
</trkpt>
<trkpt lat="55.900288" lon="26.528881">
<ele>112.803772</ele>
<time>2010-06-20T14:39:49Z</time>
<desc>lat.=55.900288, lon.=26.528881, Alt.=112.803772m. Speed=0.396000m/h.</desc>
<speed>0.110000</speed>
</trkpt>
<trkpt lat="55.900291" lon="26.528883">
<ele>112.801819</ele>
<time>2010-06-20T14:39:50Z</time>
<desc>lat.=55.900291, lon.=26.528883, Alt.=112.801819m. Speed=0.396000m/h.</desc>
<speed>0.110000</speed>
</trkpt>
<trkpt lat="55.900291" lon="26.528885">
<ele>112.799866</ele>
<time>2010-06-20T14:39:51Z</time>
<desc>lat.=55.900291, lon.=26.528885, Alt.=112.799866m. Speed=0.612000m/h.</desc>
<speed>0.170000</speed>
</trkpt>
<trkpt lat="55.900291" lon="26.528885">
<ele>112.799866</ele>
<time>2010-06-20T14:39:52Z</time>
<desc>lat.=55.900291, lon.=26.528885, Alt.=112.799866m. Speed=1.296000m/h.</desc>
<speed>0.360000</speed>
</trkpt>
<trkpt lat="55.900295" lon="26.528875">
<ele>112.805725</ele>
<time>2010-06-20T14:39:53Z</time>
<desc>lat.=55.900295, lon.=26.528875, Alt.=112.805725m. Speed=1.584000m/h.</desc>
<speed>0.440000</speed>
</trkpt>
<trkpt lat="55.900299" lon="26.528862">
<ele>112.864319</ele>
<time>2010-06-20T14:39:54Z</time>
<desc>lat.=55.900299, lon.=26.528862, Alt.=112.864319m. Speed=1.692000m/h.</desc>
<speed>0.470000</speed>
</trkpt>
<trkpt lat="55.900307" lon="26.528849">
<ele>112.901428</ele>
<time>2010-06-20T14:39:55Z</time>
<desc>lat.=55.900307, lon.=26.528849, Alt.=112.901428m. Speed=1.764000m/h.</desc>
<speed>0.490000</speed>
</trkpt>
<trkpt lat="55.900311" lon="26.528839">
<ele>112.956116</ele>
<time>2010-06-20T14:39:56Z</time>
<desc>lat.=55.900311, lon.=26.528839, Alt.=112.956116m. Speed=1.836000m/h.</desc>
<speed>0.510000</speed>
</trkpt>
<trkpt lat="55.900314" lon="26.528835">
<ele>113.022522</ele>
<time>2010-06-20T14:39:57Z</time>
<desc>lat.=55.900314, lon.=26.528835, Alt.=113.022522m. Speed=1.944000m/h.</desc>
<speed>0.540000</speed>
</trkpt>
<trkpt lat="55.900318" lon="26.528837">
<ele>113.112366</ele>
<time>2010-06-20T14:39:58Z</time>
<desc>lat.=55.900318, lon.=26.528837, Alt.=113.112366m. Speed=1.512000m/h.</desc>
<speed>0.420000</speed>
</trkpt>
<trkpt lat="55.900314" lon="26.528845">
<ele>113.213928</ele>
<time>2010-06-20T14:39:59Z</time>
<desc>lat.=55.900314, lon.=26.528845, Alt.=113.213928m. Speed=1.224000m/h.</desc>
<speed>0.340000</speed>
</trkpt>
<trkpt lat="55.900314" lon="26.528849">
<ele>113.243225</ele>
<time>2010-06-20T14:40:00Z</time>
<desc>lat.=55.900314, lon.=26.528849, Alt.=113.243225m. Speed=1.152000m/h.</desc>
<speed>0.320000</speed>
</trkpt>
<trkpt lat="55.900314" lon="26.528849">
<ele>113.303772</ele>
<time>2010-06-20T14:40:01Z</time>
<desc>lat.=55.900314, lon.=26.528849, Alt.=113.303772m. Speed=0.468000m/h.</desc>
<speed>0.130000</speed>
</trkpt>
<trkpt lat="55.900318" lon="26.528843">
<ele>113.317444</ele>
<time>2010-06-20T14:40:02Z</time>
<desc>lat.=55.900318, lon.=26.528843, Alt.=113.317444m. Speed=0.576000m/h.</desc>
<speed>0.160000</speed>
</trkpt>
<trkpt lat="55.900314" lon="26.528849">
<ele>113.280334</ele>
<time>2010-06-20T14:40:03Z</time>
<desc>lat.=55.900314, lon.=26.528849, Alt.=113.280334m. Speed=0.072000m/h.</desc>
<speed>0.020000</speed>
</trkpt>
<trkpt lat="55.900307" lon="26.528852">
<ele>113.247131</ele>
<time>2010-06-20T14:40:04Z</time>
<desc>lat.=55.900307, lon.=26.528852, Alt.=113.247131m. Speed=0.936000m/h.</desc>
<speed>0.260000</speed>
</trkpt>
<trkpt lat="55.900303" lon="26.528854">
<ele>113.258850</ele>
<time>2010-06-20T14:40:05Z</time>
<desc>lat.=55.900303, lon.=26.528854, Alt.=113.258850m. Speed=0.396000m/h.</desc>
<speed>0.110000</speed>
</trkpt>
<trkpt lat="55.900303" lon="26.528854">
<ele>113.272522</ele>
<time>2010-06-20T14:40:06Z</time>
<desc>lat.=55.900303, lon.=26.528854, Alt.=113.272522m. Speed=0.180000m/h.</desc>
<speed>0.050000</speed>
</trkpt>
<trkpt lat="55.900303" lon="26.528854">
<ele>113.282288</ele>
<time>2010-06-20T14:40:07Z</time>
<desc>lat.=55.900303, lon.=26.528854, Alt.=113.282288m. Speed=0.612000m/h.</desc>
<speed>0.170000</speed>
</trkpt>
<trkpt lat="55.900303" lon="26.528851">
<ele>113.290100</ele>
<time>2010-06-20T14:40:08Z</time>
<desc>lat.=55.900303, lon.=26.528851, Alt.=113.290100m. Speed=0.468000m/h.</desc>
<speed>0.130000</speed>
</trkpt>
<trkpt lat="55.900307" lon="26.528851">
<ele>113.297913</ele>
<time>2010-06-20T14:40:09Z</time>
<desc>lat.=55.900307, lon.=26.528851, Alt.=113.297913m. Speed=0.180000m/h.</desc>
<speed>0.050000</speed>
</trkpt>
<trkpt lat="55.900307" lon="26.528851">
<ele>113.303772</ele>
<time>2010-06-20T14:40:10Z</time>
<desc>lat.=55.900307, lon.=26.528851, Alt.=113.303772m. Speed=0.432000m/h.</desc>
<speed>0.120000</speed>
</trkpt>
<trkpt lat="55.900307" lon="26.528852">
<ele>113.309631</ele>
<time>2010-06-20T14:40:11Z</time>
<desc>lat.=55.900307, lon.=26.528852, Alt.=113.309631m. Speed=0.324000m/h.</desc>
<speed>0.090000</speed>
</trkpt>
<trkpt lat="55.900307" lon="26.528854">
<ele>113.315491</ele>
<time>2010-06-20T14:40:12Z</time>
<desc>lat.=55.900307, lon.=26.528854, Alt.=113.315491m. Speed=0.360000m/h.</desc>
<speed>0.100000</speed>
</trkpt>
<trkpt lat="55.900307" lon="26.528854">
<ele>113.321350</ele>
<time>2010-06-20T14:40:13Z</time>
<desc>lat.=55.900307, lon.=26.528854, Alt.=113.321350m. Speed=1.044000m/h.</desc>
<speed>0.290000</speed>
</trkpt>
<trkpt lat="55.900307" lon="26.528860">
<ele>113.323303</ele>
<time>2010-06-20T14:40:14Z</time>
<desc>lat.=55.900307, lon.=26.528860, Alt.=113.323303m. Speed=1.764000m/h.</desc>
<speed>0.490000</speed>
</trkpt>
<trkpt lat="55.900303" lon="26.528864">
<ele>113.358459</ele>
<time>2010-06-20T14:40:15Z</time>
<desc>lat.=55.900303, lon.=26.528864, Alt.=113.358459m. Speed=1.188000m/h.</desc>
<speed>0.330000</speed>
</trkpt>
<trkpt lat="55.900307" lon="26.528868">
<ele>113.372131</ele>
<time>2010-06-20T14:40:16Z</time>
<desc>lat.=55.900307, lon.=26.528868, Alt.=113.372131m. Speed=1.152000m/h.</desc>
<speed>0.320000</speed>
</trkpt>
<trkpt lat="55.900303" lon="26.528862">
<ele>113.372131</ele>
<time>2010-06-20T14:40:17Z</time>
<desc>lat.=55.900303, lon.=26.528862, Alt.=113.372131m. Speed=0.396000m/h.</desc>
<speed>0.110000</speed>
</trkpt>
<trkpt lat="55.900303" lon="26.528860">
<ele>113.381897</ele>
<time>2010-06-20T14:40:18Z</time>
<desc>lat.=55.900303, lon.=26.528860, Alt.=113.381897m. Speed=0.432000m/h.</desc>
<speed>0.120000</speed>
</trkpt>
<trkpt lat="55.900295" lon="26.528856">
<ele>113.534241</ele>
<time>2010-06-20T14:40:19Z</time>
<desc>lat.=55.900295, lon.=26.528856, Alt.=113.534241m. Speed=1.152000m/h.</desc>
<speed>0.320000</speed>
</trkpt>
<trkpt lat="55.900299" lon="26.528852">
<ele>113.446350</ele>
<time>2010-06-20T14:40:20Z</time>
<desc>lat.=55.900299, lon.=26.528852, Alt.=113.446350m. Speed=0.720000m/h.</desc>
<speed>0.200000</speed>
</trkpt>
<trkpt lat="55.900303" lon="26.528856">
<ele>113.327209</ele>
<time>2010-06-20T14:40:21Z</time>
<desc>lat.=55.900303, lon.=26.528856, Alt.=113.327209m. Speed=1.296000m/h.</desc>
<speed>0.360000</speed>
</trkpt>
<trkpt lat="55.900307" lon="26.528854">
<ele>113.202209</ele>
<time>2010-06-20T14:40:22Z</time>
<desc>lat.=55.900307, lon.=26.528854, Alt.=113.202209m. Speed=1.044000m/h.</desc>
<speed>0.290000</speed>
</trkpt>
<trkpt lat="55.900307" lon="26.528851">
<ele>113.186584</ele>
<time>2010-06-20T14:40:23Z</time>
<desc>lat.=55.900307, lon.=26.528851, Alt.=113.186584m. Speed=0.720000m/h.</desc>
<speed>0.200000</speed>
</trkpt>
<trkpt lat="55.900311" lon="26.528843">
<ele>113.104553</ele>
<time>2010-06-20T14:40:24Z</time>
<desc>lat.=55.900311, lon.=26.528843, Alt.=113.104553m. Speed=0.468000m/h.</desc>
<speed>0.130000</speed>
</trkpt>
<trkpt lat="55.900307" lon="26.528841">
<ele>113.086975</ele>
<time>2010-06-20T14:40:25Z</time>
<desc>lat.=55.900307, lon.=26.528841, Alt.=113.086975m. Speed=0.108000m/h.</desc>
<speed>0.030000</speed>
</trkpt>
<trkpt lat="55.900307" lon="26.528841">
<ele>113.079163</ele>
<time>2010-06-20T14:40:26Z</time>
<desc>lat.=55.900307, lon.=26.528841, Alt.=113.079163m. Speed=0.720000m/h.</desc>
<speed>0.200000</speed>
</trkpt>
<trkpt lat="55.900307" lon="26.528837">
<ele>113.073303</ele>
<time>2010-06-20T14:40:27Z</time>
<desc>lat.=55.900307, lon.=26.528837, Alt.=113.073303m. Speed=0.072000m/h.</desc>
<speed>0.020000</speed>
</trkpt>
<trkpt lat="55.900307" lon="26.528837">
<ele>113.069397</ele>
<time>2010-06-20T14:40:28Z</time>
<desc>lat.=55.900307, lon.=26.528837, Alt.=113.069397m. Speed=0.684000m/h.</desc>
<speed>0.190000</speed>
</trkpt>
<trkpt lat="55.900311" lon="26.528837">
<ele>113.065491</ele>
<time>2010-06-20T14:40:29Z</time>
<desc>lat.=55.900311, lon.=26.528837, Alt.=113.065491m. Speed=0.468000m/h.</desc>
<speed>0.130000</speed>
</trkpt>
<trkpt lat="55.900311" lon="26.528837">
<ele>113.063538</ele>
<time>2010-06-20T14:40:30Z</time>
<desc>lat.=55.900311, lon.=26.528837, Alt.=113.063538m. Speed=0.972000m/h.</desc>
<speed>0.270000</speed>
</trkpt>
<trkpt lat="55.900311" lon="26.528833">
<ele>113.059631</ele>
<time>2010-06-20T14:40:31Z</time>
<desc>lat.=55.900311, lon.=26.528833, Alt.=113.059631m. Speed=0.792000m/h.</desc>
<speed>0.220000</speed>
</trkpt>
<trkpt lat="55.900314" lon="26.528830">
<ele>113.055725</ele>
<time>2010-06-20T14:40:32Z</time>
<desc>lat.=55.900314, lon.=26.528830, Alt.=113.055725m. Speed=1.296000m/h.</desc>
<speed>0.360000</speed>
</trkpt>
<trkpt lat="55.900311" lon="26.528828">
<ele>112.958069</ele>
<time>2010-06-20T14:40:33Z</time>
<desc>lat.=55.900311, lon.=26.528828, Alt.=112.958069m. Speed=0.828000m/h.</desc>
<speed>0.230000</speed>
</trkpt>
<trkpt lat="55.900311" lon="26.528830">
<ele>112.928772</ele>
<time>2010-06-20T14:40:34Z</time>
<desc>lat.=55.900311, lon.=26.528830, Alt.=112.928772m. Speed=0.252000m/h.</desc>
<speed>0.070000</speed>
</trkpt>
<trkpt lat="55.900307" lon="26.528833">
<ele>112.821350</ele>
<time>2010-06-20T14:40:35Z</time>
<desc>lat.=55.900307, lon.=26.528833, Alt.=112.821350m. Speed=0.216000m/h.</desc>
<speed>0.060000</speed>
</trkpt>
<trkpt lat="55.900303" lon="26.528839">
<ele>112.710022</ele>
<time>2010-06-20T14:40:36Z</time>
<desc>lat.=55.900303, lon.=26.528839, Alt.=112.710022m. Speed=0.576000m/h.</desc>
<speed>0.160000</speed>
</trkpt>
<trkpt lat="55.900299" lon="26.528839">
<ele>112.706116</ele>
<time>2010-06-20T14:40:37Z</time>
<desc>lat.=55.900299, lon.=26.528839, Alt.=112.706116m. Speed=0.540000m/h.</desc>
<speed>0.150000</speed>
</trkpt>
<trkpt lat="55.900299" lon="26.528841">
<ele>112.702209</ele>
<time>2010-06-20T14:40:38Z</time>
<desc>lat.=55.900299, lon.=26.528841, Alt.=112.702209m. Speed=1.260000m/h.</desc>
<speed>0.350000</speed>
</trkpt>
<trkpt lat="55.900303" lon="26.528837">
<ele>112.475647</ele>
<time>2010-06-20T14:40:39Z</time>
<desc>lat.=55.900303, lon.=26.528837, Alt.=112.475647m. Speed=0.756000m/h.</desc>
<speed>0.210000</speed>
</trkpt>
<trkpt lat="55.900311" lon="26.528837">
<ele>112.301819</ele>
<time>2010-06-20T14:40:40Z</time>
<desc>lat.=55.900311, lon.=26.528837, Alt.=112.301819m. Speed=1.116000m/h.</desc>
<speed>0.310000</speed>
</trkpt>
<trkpt lat="55.900311" lon="26.528839">
<ele>112.167053</ele>
<time>2010-06-20T14:40:41Z</time>
<desc>lat.=55.900311, lon.=26.528839, Alt.=112.167053m. Speed=1.080000m/h.</desc>
<speed>0.300000</speed>
</trkpt>
<trkpt lat="55.900311" lon="26.528843">
<ele>111.930725</ele>
<time>2010-06-20T14:40:42Z</time>
<desc>lat.=55.900311, lon.=26.528843, Alt.=111.930725m. Speed=1.188000m/h.</desc>
<speed>0.330000</speed>
</trkpt>
<trkpt lat="55.900311" lon="26.528847">
<ele>111.756897</ele>
<time>2010-06-20T14:40:43Z</time>
<desc>lat.=55.900311, lon.=26.528847, Alt.=111.756897m. Speed=1.116000m/h.</desc>
<speed>0.310000</speed>
</trkpt>
<trkpt lat="55.900311" lon="26.528854">
<ele>111.561584</ele>
<time>2010-06-20T14:40:44Z</time>
<desc>lat.=55.900311, lon.=26.528854, Alt.=111.561584m. Speed=1.332000m/h.</desc>
<speed>0.370000</speed>
</trkpt>
<trkpt lat="55.900318" lon="26.528841">
<ele>111.252991</ele>
<time>2010-06-20T14:40:45Z</time>
<desc>lat.=55.900318, lon.=26.528841, Alt.=111.252991m. Speed=0.540000m/h.</desc>
<speed>0.150000</speed>
</trkpt>
<trkpt lat="55.900311" lon="26.528847">
<ele>110.920959</ele>
<time>2010-06-20T14:40:46Z</time>
<desc>lat.=55.900311, lon.=26.528847, Alt.=110.920959m. Speed=0.576000m/h.</desc>
<speed>0.160000</speed>
</trkpt>
<trkpt lat="55.900303" lon="26.528854">
<ele>110.631897</ele>
<time>2010-06-20T14:40:47Z</time>
<desc>lat.=55.900303, lon.=26.528854, Alt.=110.631897m. Speed=1.620000m/h.</desc>
<speed>0.450000</speed>
</trkpt>
<trkpt lat="55.900299" lon="26.528851">
<ele>110.329163</ele>
<time>2010-06-20T14:40:48Z</time>
<desc>lat.=55.900299, lon.=26.528851, Alt.=110.329163m. Speed=1.800000m/h.</desc>
<speed>0.500000</speed>
</trkpt>
<trkpt lat="55.900303" lon="26.528839">
<ele>110.081116</ele>
<time>2010-06-20T14:40:49Z</time>
<desc>lat.=55.900303, lon.=26.528839, Alt.=110.081116m. Speed=0.864000m/h.</desc>
<speed>0.240000</speed>
</trkpt>
<trkpt lat="55.900311" lon="26.528828">
<ele>110.053772</ele>
<time>2010-06-20T14:40:50Z</time>
<desc>lat.=55.900311, lon.=26.528828, Alt.=110.053772m. Speed=0.684000m/h.</desc>
<speed>0.190000</speed>
</trkpt>
<trkpt lat="55.900307" lon="26.528831">
<ele>109.815491</ele>
<time>2010-06-20T14:40:51Z</time>
<desc>lat.=55.900307, lon.=26.528831, Alt.=109.815491m. Speed=0.180000m/h.</desc>
<speed>0.050000</speed>
</trkpt>
<trkpt lat="55.900307" lon="26.528831">
<ele>109.530334</ele>
<time>2010-06-20T14:40:52Z</time>
<desc>lat.=55.900307, lon.=26.528831, Alt.=109.530334m. Speed=0.360000m/h.</desc>
<speed>0.100000</speed>
</trkpt>
<trkpt lat="55.900307" lon="26.528831">
<ele>109.520569</ele>
<time>2010-06-20T14:40:53Z</time>
<desc>lat.=55.900307, lon.=26.528831, Alt.=109.520569m. Speed=0.756000m/h.</desc>
<speed>0.210000</speed>
</trkpt>
<trkpt lat="55.900307" lon="26.528831">
<ele>109.516663</ele>
<time>2010-06-20T14:40:54Z</time>
<desc>lat.=55.900307, lon.=26.528831, Alt.=109.516663m. Speed=0.864000m/h.</desc>
<speed>0.240000</speed>
</trkpt>
<trkpt lat="55.900311" lon="26.528828">
<ele>109.510803</ele>
<time>2010-06-20T14:40:55Z</time>
<desc>lat.=55.900311, lon.=26.528828, Alt.=109.510803m. Speed=0.756000m/h.</desc>
<speed>0.210000</speed>
</trkpt>
<trkpt lat="55.900311" lon="26.528826">
<ele>109.506897</ele>
<time>2010-06-20T14:40:56Z</time>
<desc>lat.=55.900311, lon.=26.528826, Alt.=109.506897m. Speed=0.288000m/h.</desc>
<speed>0.080000</speed>
</trkpt>
<trkpt lat="55.900311" lon="26.528826">
<ele>109.502991</ele>
<time>2010-06-20T14:40:57Z</time>
<desc>lat.=55.900311, lon.=26.528826, Alt.=109.502991m. Speed=1.368000m/h.</desc>
<speed>0.380000</speed>
</trkpt>
<trkpt lat="55.900318" lon="26.528801">
<ele>109.309631</ele>
<time>2010-06-20T14:40:58Z</time>
<desc>lat.=55.900318, lon.=26.528801, Alt.=109.309631m. Speed=2.160000m/h.</desc>
<speed>0.600000</speed>
</trkpt>
<trkpt lat="55.900322" lon="26.528776">
<ele>109.127991</ele>
<time>2010-06-20T14:40:59Z</time>
<desc>lat.=55.900322, lon.=26.528776, Alt.=109.127991m. Speed=2.916000m/h.</desc>
<speed>0.810000</speed>
</trkpt>
<trkpt lat="55.900326" lon="26.528742">
<ele>108.961975</ele>
<time>2010-06-20T14:41:00Z</time>
<desc>lat.=55.900326, lon.=26.528742, Alt.=108.961975m. Speed=3.960000m/h.</desc>
<speed>1.100000</speed>
</trkpt>
<trkpt lat="55.900333" lon="26.528704">
<ele>108.797913</ele>
<time>2010-06-20T14:41:01Z</time>
<desc>lat.=55.900333, lon.=26.528704, Alt.=108.797913m. Speed=4.824000m/h.</desc>
<speed>1.340000</speed>
</trkpt>
<trkpt lat="55.900341" lon="26.528685">
<ele>108.626038</ele>
<time>2010-06-20T14:41:02Z</time>
<desc>lat.=55.900341, lon.=26.528685, Alt.=108.626038m. Speed=4.608000m/h.</desc>
<speed>1.280000</speed>
</trkpt>
<trkpt lat="55.900345" lon="26.528662">
<ele>108.463928</ele>
<time>2010-06-20T14:41:03Z</time>
<desc>lat.=55.900345, lon.=26.528662, Alt.=108.463928m. Speed=4.644000m/h.</desc>
<speed>1.290000</speed>
</trkpt>
<trkpt lat="55.900345" lon="26.528643">
<ele>108.387756</ele>
<time>2010-06-20T14:41:04Z</time>
<desc>lat.=55.900345, lon.=26.528643, Alt.=108.387756m. Speed=4.464000m/h.</desc>
<speed>1.240000</speed>
</trkpt>
<trkpt lat="55.900352" lon="26.528620">
<ele>108.358459</ele>
<time>2010-06-20T14:41:05Z</time>
<desc>lat.=55.900352, lon.=26.528620, Alt.=108.358459m. Speed=4.644000m/h.</desc>
<speed>1.290000</speed>
</trkpt>
<trkpt lat="55.900352" lon="26.528605">
<ele>108.313538</ele>
<time>2010-06-20T14:41:06Z</time>
<desc>lat.=55.900352, lon.=26.528605, Alt.=108.313538m. Speed=4.356000m/h.</desc>
<speed>1.210000</speed>
</trkpt>
<trkpt lat="55.900364" lon="26.528582">
<ele>108.282288</ele>
<time>2010-06-20T14:41:07Z</time>
<desc>lat.=55.900364, lon.=26.528582, Alt.=108.282288m. Speed=4.608000m/h.</desc>
<speed>1.280000</speed>
</trkpt>
<trkpt lat="55.900368" lon="26.528564">
<ele>108.284241</ele>
<time>2010-06-20T14:41:08Z</time>
<desc>lat.=55.900368, lon.=26.528564, Alt.=108.284241m. Speed=4.536000m/h.</desc>
<speed>1.260000</speed>
</trkpt>
<trkpt lat="55.900372" lon="26.528547">
<ele>108.280334</ele>
<time>2010-06-20T14:41:09Z</time>
<desc>lat.=55.900372, lon.=26.528547, Alt.=108.280334m. Speed=3.672000m/h.</desc>
<speed>1.020000</speed>
</trkpt>
<trkpt lat="55.900372" lon="26.528563">
<ele>108.210022</ele>
<time>2010-06-20T14:41:10Z</time>
<desc>lat.=55.900372, lon.=26.528563, Alt.=108.210022m. Speed=2.124000m/h.</desc>
<speed>0.590000</speed>
</trkpt>
<trkpt lat="55.900364" lon="26.528572">
<ele>108.170959</ele>
<time>2010-06-20T14:41:11Z</time>
<desc>lat.=55.900364, lon.=26.528572, Alt.=108.170959m. Speed=1.080000m/h.</desc>
<speed>0.300000</speed>
</trkpt>
<trkpt lat="55.900364" lon="26.528593">
<ele>107.991272</ele>
<time>2010-06-20T14:41:12Z</time>
<desc>lat.=55.900364, lon.=26.528593, Alt.=107.991272m. Speed=0.612000m/h.</desc>
<speed>0.170000</speed>
</trkpt>
<trkpt lat="55.900364" lon="26.528612">
<ele>107.784241</ele>
<time>2010-06-20T14:41:13Z</time>
<desc>lat.=55.900364, lon.=26.528612, Alt.=107.784241m. Speed=1.548000m/h.</desc>
<speed>0.430000</speed>
</trkpt>
<trkpt lat="55.900360" lon="26.528639">
<ele>107.620178</ele>
<time>2010-06-20T14:41:14Z</time>
<desc>lat.=55.900360, lon.=26.528639, Alt.=107.620178m. Speed=1.908000m/h.</desc>
<speed>0.530000</speed>
</trkpt>
<trkpt lat="55.900360" lon="26.528654">
<ele>107.551819</ele>
<time>2010-06-20T14:41:15Z</time>
<desc>lat.=55.900360, lon.=26.528654, Alt.=107.551819m. Speed=1.800000m/h.</desc>
<speed>0.500000</speed>
</trkpt>
<trkpt lat="55.900352" lon="26.528675">
<ele>107.444397</ele>
<time>2010-06-20T14:41:16Z</time>
<desc>lat.=55.900352, lon.=26.528675, Alt.=107.444397m. Speed=2.088000m/h.</desc>
<speed>0.580000</speed>
</trkpt>
<trkpt lat="55.900352" lon="26.528683">
<ele>107.340881</ele>
<time>2010-06-20T14:41:17Z</time>
<desc>lat.=55.900352, lon.=26.528683, Alt.=107.340881m. Speed=1.476000m/h.</desc>
<speed>0.410000</speed>
</trkpt>
<trkpt lat="55.900356" lon="26.528688">
<ele>107.221741</ele>
<time>2010-06-20T14:41:18Z</time>
<desc>lat.=55.900356, lon.=26.528688, Alt.=107.221741m. Speed=1.224000m/h.</desc>
<speed>0.340000</speed>
</trkpt>
<trkpt lat="55.900352" lon="26.528704">
<ele>107.190491</ele>
<time>2010-06-20T14:41:19Z</time>
<desc>lat.=55.900352, lon.=26.528704, Alt.=107.190491m. Speed=1.260000m/h.</desc>
<speed>0.350000</speed>
</trkpt>
<trkpt lat="55.900345" lon="26.528719">
<ele>107.208069</ele>
<time>2010-06-20T14:41:20Z</time>
<desc>lat.=55.900345, lon.=26.528719, Alt.=107.208069m. Speed=1.584000m/h.</desc>
<speed>0.440000</speed>
</trkpt>
<trkpt lat="55.900341" lon="26.528725">
<ele>107.221741</ele>
<time>2010-06-20T14:41:21Z</time>
<desc>lat.=55.900341, lon.=26.528725, Alt.=107.221741m. Speed=1.404000m/h.</desc>
<speed>0.390000</speed>
</trkpt>
<trkpt lat="55.900341" lon="26.528740">
<ele>107.547913</ele>
<time>2010-06-20T14:41:22Z</time>
<desc>lat.=55.900341, lon.=26.528740, Alt.=107.547913m. Speed=1.188000m/h.</desc>
<speed>0.330000</speed>
</trkpt>
<trkpt lat="55.900337" lon="26.528749">
<ele>107.594788</ele>
<time>2010-06-20T14:41:23Z</time>
<desc>lat.=55.900337, lon.=26.528749, Alt.=107.594788m. Speed=0.972000m/h.</desc>
<speed>0.270000</speed>
</trkpt>
<trkpt lat="55.900333" lon="26.528755">
<ele>107.540100</ele>
<time>2010-06-20T14:41:24Z</time>
<desc>lat.=55.900333, lon.=26.528755, Alt.=107.540100m. Speed=0.432000m/h.</desc>
<speed>0.120000</speed>
</trkpt>
<trkpt lat="55.900333" lon="26.528767">
<ele>107.569397</ele>
<time>2010-06-20T14:41:25Z</time>
<desc>lat.=55.900333, lon.=26.528767, Alt.=107.569397m. Speed=0.216000m/h.</desc>
<speed>0.060000</speed>
</trkpt>
<trkpt lat="55.900333" lon="26.528769">
<ele>107.590881</ele>
<time>2010-06-20T14:41:26Z</time>
<desc>lat.=55.900333, lon.=26.528769, Alt.=107.590881m. Speed=0.684000m/h.</desc>
<speed>0.190000</speed>
</trkpt>
<trkpt lat="55.900330" lon="26.528767">
<ele>107.586975</ele>
<time>2010-06-20T14:41:27Z</time>
<desc>lat.=55.900330, lon.=26.528767, Alt.=107.586975m. Speed=1.188000m/h.</desc>
<speed>0.330000</speed>
</trkpt>
<trkpt lat="55.900333" lon="26.528770">
<ele>107.592834</ele>
<time>2010-06-20T14:41:28Z</time>
<desc>lat.=55.900333, lon.=26.528770, Alt.=107.592834m. Speed=1.008000m/h.</desc>
<speed>0.280000</speed>
</trkpt>
<trkpt lat="55.900333" lon="26.528774">
<ele>107.754944</ele>
<time>2010-06-20T14:41:29Z</time>
<desc>lat.=55.900333, lon.=26.528774, Alt.=107.754944m. Speed=0.972000m/h.</desc>
<speed>0.270000</speed>
</trkpt>
<trkpt lat="55.900337" lon="26.528778">
<ele>107.752991</ele>
<time>2010-06-20T14:41:30Z</time>
<desc>lat.=55.900337, lon.=26.528778, Alt.=107.752991m. Speed=0.936000m/h.</desc>
<speed>0.260000</speed>
</trkpt>
<trkpt lat="55.900345" lon="26.528780">
<ele>107.725647</ele>
<time>2010-06-20T14:41:31Z</time>
<desc>lat.=55.900345, lon.=26.528780, Alt.=107.725647m. Speed=0.900000m/h.</desc>
<speed>0.250000</speed>
</trkpt>
<trkpt lat="55.900349" lon="26.528778">
<ele>107.721741</ele>
<time>2010-06-20T14:41:32Z</time>
<desc>lat.=55.900349, lon.=26.528778, Alt.=107.721741m. Speed=1.152000m/h.</desc>
<speed>0.320000</speed>
</trkpt>
<trkpt lat="55.900345" lon="26.528772">
<ele>107.922913</ele>
<time>2010-06-20T14:41:33Z</time>
<desc>lat.=55.900345, lon.=26.528772, Alt.=107.922913m. Speed=1.296000m/h.</desc>
<speed>0.360000</speed>
</trkpt>
<trkpt lat="55.900341" lon="26.528780">
<ele>108.069397</ele>
<time>2010-06-20T14:41:34Z</time>
<desc>lat.=55.900341, lon.=26.528780, Alt.=108.069397m. Speed=0.828000m/h.</desc>
<speed>0.230000</speed>
</trkpt>
<trkpt lat="55.900333" lon="26.528790">
<ele>108.217834</ele>
<time>2010-06-20T14:41:35Z</time>
<desc>lat.=55.900333, lon.=26.528790, Alt.=108.217834m. Speed=0.324000m/h.</desc>
<speed>0.090000</speed>
</trkpt>
<trkpt lat="55.900326" lon="26.528790">
<ele>108.424866</ele>
<time>2010-06-20T14:41:36Z</time>
<desc>lat.=55.900326, lon.=26.528790, Alt.=108.424866m. Speed=0.864000m/h.</desc>
<speed>0.240000</speed>
</trkpt>
<trkpt lat="55.900322" lon="26.528797">
<ele>108.530334</ele>
<time>2010-06-20T14:41:37Z</time>
<desc>lat.=55.900322, lon.=26.528797, Alt.=108.530334m. Speed=0.792000m/h.</desc>
<speed>0.220000</speed>
</trkpt>
<trkpt lat="55.900322" lon="26.528793">
<ele>108.532288</ele>
<time>2010-06-20T14:41:38Z</time>
<desc>lat.=55.900322, lon.=26.528793, Alt.=108.532288m. Speed=0.540000m/h.</desc>
<speed>0.150000</speed>
</trkpt>
<trkpt lat="55.900322" lon="26.528790">
<ele>108.534241</ele>
<time>2010-06-20T14:41:39Z</time>
<desc>lat.=55.900322, lon.=26.528790, Alt.=108.534241m. Speed=0.576000m/h.</desc>
<speed>0.160000</speed>
</trkpt>
<trkpt lat="55.900326" lon="26.528788">
<ele>108.534241</ele>
<time>2010-06-20T14:41:40Z</time>
<desc>lat.=55.900326, lon.=26.528788, Alt.=108.534241m. Speed=0.864000m/h.</desc>
<speed>0.240000</speed>
</trkpt>
<trkpt lat="55.900326" lon="26.528784">
<ele>108.536194</ele>
<time>2010-06-20T14:41:41Z</time>
<desc>lat.=55.900326, lon.=26.528784, Alt.=108.536194m. Speed=0.828000m/h.</desc>
<speed>0.230000</speed>
</trkpt>
<trkpt lat="55.900326" lon="26.528782">
<ele>108.536194</ele>
<time>2010-06-20T14:41:42Z</time>
<desc>lat.=55.900326, lon.=26.528782, Alt.=108.536194m. Speed=0.792000m/h.</desc>
<speed>0.220000</speed>
</trkpt>
<trkpt lat="55.900330" lon="26.528780">
<ele>108.534241</ele>
<time>2010-06-20T14:41:43Z</time>
<desc>lat.=55.900330, lon.=26.528780, Alt.=108.534241m. Speed=0.720000m/h.</desc>
<speed>0.200000</speed>
</trkpt>
<trkpt lat="55.900330" lon="26.528778">
<ele>108.532288</ele>
<time>2010-06-20T14:41:44Z</time>
<desc>lat.=55.900330, lon.=26.528778, Alt.=108.532288m. Speed=1.476000m/h.</desc>
<speed>0.410000</speed>
</trkpt>
<trkpt lat="55.900330" lon="26.528776">
<ele>108.518616</ele>
<time>2010-06-20T14:41:45Z</time>
<desc>lat.=55.900330, lon.=26.528776, Alt.=108.518616m. Speed=1.584000m/h.</desc>
<speed>0.440000</speed>
</trkpt>
<trkpt lat="55.900330" lon="26.528784">
<ele>108.518616</ele>
<time>2010-06-20T14:41:46Z</time>
<desc>lat.=55.900330, lon.=26.528784, Alt.=108.518616m. Speed=1.296000m/h.</desc>
<speed>0.360000</speed>
</trkpt>
<trkpt lat="55.900330" lon="26.528786">
<ele>108.575256</ele>
<time>2010-06-20T14:41:47Z</time>
<desc>lat.=55.900330, lon.=26.528786, Alt.=108.575256m. Speed=0.936000m/h.</desc>
<speed>0.260000</speed>
</trkpt>
<trkpt lat="55.900333" lon="26.528793">
<ele>108.813538</ele>
<time>2010-06-20T14:41:48Z</time>
<desc>lat.=55.900333, lon.=26.528793, Alt.=108.813538m. Speed=0.792000m/h.</desc>
<speed>0.220000</speed>
</trkpt>
<trkpt lat="55.900333" lon="26.528807">
<ele>109.350647</ele>
<time>2010-06-20T14:41:49Z</time>
<desc>lat.=55.900333, lon.=26.528807, Alt.=109.350647m. Speed=0.432000m/h.</desc>
<speed>0.120000</speed>
</trkpt>
<trkpt lat="55.900337" lon="26.528822">
<ele>109.784241</ele>
<time>2010-06-20T14:41:50Z</time>
<desc>lat.=55.900337, lon.=26.528822, Alt.=109.784241m. Speed=0.108000m/h.</desc>
<speed>0.030000</speed>
</trkpt>
<trkpt lat="55.900337" lon="26.528822">
<ele>109.792053</ele>
<time>2010-06-20T14:41:51Z</time>
<desc>lat.=55.900337, lon.=26.528822, Alt.=109.792053m. Speed=0.756000m/h.</desc>
<speed>0.210000</speed>
</trkpt>
<trkpt lat="55.900337" lon="26.528820">
<ele>109.797913</ele>
<time>2010-06-20T14:41:52Z</time>
<desc>lat.=55.900337, lon.=26.528820, Alt.=109.797913m. Speed=0.576000m/h.</desc>
<speed>0.160000</speed>
</trkpt>
<trkpt lat="55.900333" lon="26.528818">
<ele>109.803772</ele>
<time>2010-06-20T14:41:53Z</time>
<desc>lat.=55.900333, lon.=26.528818, Alt.=109.803772m. Speed=0.828000m/h.</desc>
<speed>0.230000</speed>
</trkpt>
<trkpt lat="55.900333" lon="26.528818">
<ele>109.811584</ele>
<time>2010-06-20T14:41:54Z</time>
<desc>lat.=55.900333, lon.=26.528818, Alt.=109.811584m. Speed=0.900000m/h.</desc>
<speed>0.250000</speed>
</trkpt>
<trkpt lat="55.900330" lon="26.528820">
<ele>109.819397</ele>
<time>2010-06-20T14:41:55Z</time>
<desc>lat.=55.900330, lon.=26.528820, Alt.=109.819397m. Speed=0.360000m/h.</desc>
<speed>0.100000</speed>
</trkpt>
<trkpt lat="55.900330" lon="26.528820">
<ele>109.823303</ele>
<time>2010-06-20T14:41:56Z</time>
<desc>lat.=55.900330, lon.=26.528820, Alt.=109.823303m. Speed=0.216000m/h.</desc>
<speed>0.060000</speed>
</trkpt>
<trkpt lat="55.900330" lon="26.528820">
<ele>109.827209</ele>
<time>2010-06-20T14:41:57Z</time>
<desc>lat.=55.900330, lon.=26.528820, Alt.=109.827209m. Speed=0.324000m/h.</desc>
<speed>0.090000</speed>
</trkpt>
<trkpt lat="55.900326" lon="26.528822">
<ele>109.833069</ele>
<time>2010-06-20T14:41:58Z</time>
<desc>lat.=55.900326, lon.=26.528822, Alt.=109.833069m. Speed=1.224000m/h.</desc>
<speed>0.340000</speed>
</trkpt>
<trkpt lat="55.900330" lon="26.528837">
<ele>110.176819</ele>
<time>2010-06-20T14:41:59Z</time>
<desc>lat.=55.900330, lon.=26.528837, Alt.=110.176819m. Speed=1.476000m/h.</desc>
<speed>0.410000</speed>
</trkpt>
<trkpt lat="55.900330" lon="26.528849">
<ele>110.387756</ele>
<time>2010-06-20T14:42:00Z</time>
<desc>lat.=55.900330, lon.=26.528849, Alt.=110.387756m. Speed=1.512000m/h.</desc>
<speed>0.420000</speed>
</trkpt>
<trkpt lat="55.900330" lon="26.528860">
<ele>110.538147</ele>
<time>2010-06-20T14:42:01Z</time>
<desc>lat.=55.900330, lon.=26.528860, Alt.=110.538147m. Speed=1.476000m/h.</desc>
<speed>0.410000</speed>
</trkpt>
<trkpt lat="55.900326" lon="26.528868">
<ele>110.743225</ele>
<time>2010-06-20T14:42:02Z</time>
<desc>lat.=55.900326, lon.=26.528868, Alt.=110.743225m. Speed=1.188000m/h.</desc>
<speed>0.330000</speed>
</trkpt>
<trkpt lat="55.900326" lon="26.528877">
<ele>110.958069</ele>
<time>2010-06-20T14:42:03Z</time>
<desc>lat.=55.900326, lon.=26.528877, Alt.=110.958069m. Speed=1.512000m/h.</desc>
<speed>0.420000</speed>
</trkpt>
<trkpt lat="55.900326" lon="26.528883">
<ele>111.385803</ele>
<time>2010-06-20T14:42:04Z</time>
<desc>lat.=55.900326, lon.=26.528883, Alt.=111.385803m. Speed=1.332000m/h.</desc>
<speed>0.370000</speed>
</trkpt>
<trkpt lat="55.900326" lon="26.528893">
<ele>111.596741</ele>
<time>2010-06-20T14:42:05Z</time>
<desc>lat.=55.900326, lon.=26.528893, Alt.=111.596741m. Speed=1.440000m/h.</desc>
<speed>0.400000</speed>
</trkpt>
<trkpt lat="55.900326" lon="26.528910">
<ele>111.919006</ele>
<time>2010-06-20T14:42:06Z</time>
<desc>lat.=55.900326, lon.=26.528910, Alt.=111.919006m. Speed=1.224000m/h.</desc>
<speed>0.340000</speed>
</trkpt>
<trkpt lat="55.900322" lon="26.528933">
<ele>112.292053</ele>
<time>2010-06-20T14:42:07Z</time>
<desc>lat.=55.900322, lon.=26.528933, Alt.=112.292053m. Speed=1.512000m/h.</desc>
<speed>0.420000</speed>
</trkpt>
<trkpt lat="55.900322" lon="26.528944">
<ele>112.561584</ele>
<time>2010-06-20T14:42:08Z</time>
<desc>lat.=55.900322, lon.=26.528944, Alt.=112.561584m. Speed=1.440000m/h.</desc>
<speed>0.400000</speed>
</trkpt>
<trkpt lat="55.900322" lon="26.528942">
<ele>112.680725</ele>
<time>2010-06-20T14:42:09Z</time>
<desc>lat.=55.900322, lon.=26.528942, Alt.=112.680725m. Speed=0.648000m/h.</desc>
<speed>0.180000</speed>
</trkpt>
<trkpt lat="55.900322" lon="26.528942">
<ele>112.772522</ele>
<time>2010-06-20T14:42:10Z</time>
<desc>lat.=55.900322, lon.=26.528942, Alt.=112.772522m. Speed=0.216000m/h.</desc>
<speed>0.060000</speed>
</trkpt>
<trkpt lat="55.900318" lon="26.528946">
<ele>112.840881</ele>
<time>2010-06-20T14:42:11Z</time>
<desc>lat.=55.900318, lon.=26.528946, Alt.=112.840881m. Speed=0.432000m/h.</desc>
<speed>0.120000</speed>
</trkpt>
<trkpt lat="55.900314" lon="26.528946">
<ele>112.991272</ele>
<time>2010-06-20T14:42:12Z</time>
<desc>lat.=55.900314, lon.=26.528946, Alt.=112.991272m. Speed=0.252000m/h.</desc>
<speed>0.070000</speed>
</trkpt>
<trkpt lat="55.900314" lon="26.528946">
<ele>113.008850</ele>
<time>2010-06-20T14:42:13Z</time>
<desc>lat.=55.900314, lon.=26.528946, Alt.=113.008850m. Speed=0.000000m/h.</desc>
<speed>0.000000</speed>
</trkpt>
<trkpt lat="55.900314" lon="26.528946">
<ele>113.024475</ele>
<time>2010-06-20T14:42:14Z</time>
<desc>lat.=55.900314, lon.=26.528946, Alt.=113.024475m. Speed=0.324000m/h.</desc>
<speed>0.090000</speed>
</trkpt>
<trkpt lat="55.900314" lon="26.528948">
<ele>113.042053</ele>
<time>2010-06-20T14:42:15Z</time>
<desc>lat.=55.900314, lon.=26.528948, Alt.=113.042053m. Speed=0.864000m/h.</desc>
<speed>0.240000</speed>
</trkpt>
<trkpt lat="55.900311" lon="26.528948">
<ele>113.057678</ele>
<time>2010-06-20T14:42:16Z</time>
<desc>lat.=55.900311, lon.=26.528948, Alt.=113.057678m. Speed=0.720000m/h.</desc>
<speed>0.200000</speed>
</trkpt>
<trkpt lat="55.900311" lon="26.528948">
<ele>113.073303</ele>
<time>2010-06-20T14:42:17Z</time>
<desc>lat.=55.900311, lon.=26.528948, Alt.=113.073303m. Speed=0.108000m/h.</desc>
<speed>0.030000</speed>
</trkpt>
<trkpt lat="55.900311" lon="26.528948">
<ele>113.086975</ele>
<time>2010-06-20T14:42:18Z</time>
<desc>lat.=55.900311, lon.=26.528948, Alt.=113.086975m. Speed=0.072000m/h.</desc>
<speed>0.020000</speed>
</trkpt>
<trkpt lat="55.900311" lon="26.528948">
<ele>113.098694</ele>
<time>2010-06-20T14:42:19Z</time>
<desc>lat.=55.900311, lon.=26.528948, Alt.=113.098694m. Speed=0.108000m/h.</desc>
<speed>0.030000</speed>
</trkpt>
<trkpt lat="55.900311" lon="26.528948">
<ele>113.122131</ele>
<time>2010-06-20T14:42:20Z</time>
<desc>lat.=55.900311, lon.=26.528948, Alt.=113.122131m. Speed=0.324000m/h.</desc>
<speed>0.090000</speed>
</trkpt>
<trkpt lat="55.900307" lon="26.528946">
<ele>113.145569</ele>
<time>2010-06-20T14:42:21Z</time>
<desc>lat.=55.900307, lon.=26.528946, Alt.=113.145569m. Speed=0.648000m/h.</desc>
<speed>0.180000</speed>
</trkpt>
<trkpt lat="55.900307" lon="26.528942">
<ele>113.167053</ele>
<time>2010-06-20T14:42:22Z</time>
<desc>lat.=55.900307, lon.=26.528942, Alt.=113.167053m. Speed=0.504000m/h.</desc>
<speed>0.140000</speed>
</trkpt>
<trkpt lat="55.900307" lon="26.528940">
<ele>113.182678</ele>
<time>2010-06-20T14:42:23Z</time>
<desc>lat.=55.900307, lon.=26.528940, Alt.=113.182678m. Speed=0.684000m/h.</desc>
<speed>0.190000</speed>
</trkpt>
<trkpt lat="55.900307" lon="26.528938">
<ele>113.192444</ele>
<time>2010-06-20T14:42:24Z</time>
<desc>lat.=55.900307, lon.=26.528938, Alt.=113.192444m. Speed=0.180000m/h.</desc>
<speed>0.050000</speed>
</trkpt>
<trkpt lat="55.900307" lon="26.528938">
<ele>113.198303</ele>
<time>2010-06-20T14:42:25Z</time>
<desc>lat.=55.900307, lon.=26.528938, Alt.=113.198303m. Speed=0.360000m/h.</desc>
<speed>0.100000</speed>
</trkpt>
<trkpt lat="55.900307" lon="26.528936">
<ele>113.211975</ele>
<time>2010-06-20T14:42:26Z</time>
<desc>lat.=55.900307, lon.=26.528936, Alt.=113.211975m. Speed=0.324000m/h.</desc>
<speed>0.090000</speed>
</trkpt>
<trkpt lat="55.900311" lon="26.528936">
<ele>113.227600</ele>
<time>2010-06-20T14:42:27Z</time>
<desc>lat.=55.900311, lon.=26.528936, Alt.=113.227600m. Speed=0.648000m/h.</desc>
<speed>0.180000</speed>
</trkpt>
<trkpt lat="55.900311" lon="26.528933">
<ele>113.237366</ele>
<time>2010-06-20T14:42:28Z</time>
<desc>lat.=55.900311, lon.=26.528933, Alt.=113.237366m. Speed=0.756000m/h.</desc>
<speed>0.210000</speed>
</trkpt>
<trkpt lat="55.900311" lon="26.528931">
<ele>113.245178</ele>
<time>2010-06-20T14:42:29Z</time>
<desc>lat.=55.900311, lon.=26.528931, Alt.=113.245178m. Speed=1.404000m/h.</desc>
<speed>0.390000</speed>
</trkpt>
<trkpt lat="55.900311" lon="26.528933">
<ele>113.424866</ele>
<time>2010-06-20T14:42:30Z</time>
<desc>lat.=55.900311, lon.=26.528933, Alt.=113.424866m. Speed=1.008000m/h.</desc>
<speed>0.280000</speed>
</trkpt>
<trkpt lat="55.900307" lon="26.528934">
<ele>113.377991</ele>
<time>2010-06-20T14:42:31Z</time>
<desc>lat.=55.900307, lon.=26.528934, Alt.=113.377991m. Speed=0.684000m/h.</desc>
<speed>0.190000</speed>
</trkpt>
<trkpt lat="55.900307" lon="26.528933">
<ele>113.442444</ele>
<time>2010-06-20T14:42:32Z</time>
<desc>lat.=55.900307, lon.=26.528933, Alt.=113.442444m. Speed=0.900000m/h.</desc>
<speed>0.250000</speed>
</trkpt>
<trkpt lat="55.900303" lon="26.528934">
<ele>113.409241</ele>
<time>2010-06-20T14:42:33Z</time>
<desc>lat.=55.900303, lon.=26.528934, Alt.=113.409241m. Speed=0.648000m/h.</desc>
<speed>0.180000</speed>
</trkpt>
<trkpt lat="55.900303" lon="26.528933">
<ele>113.415100</ele>
<time>2010-06-20T14:42:34Z</time>
<desc>lat.=55.900303, lon.=26.528933, Alt.=113.415100m. Speed=0.468000m/h.</desc>
<speed>0.130000</speed>
</trkpt>
<trkpt lat="55.900303" lon="26.528931">
<ele>113.420959</ele>
<time>2010-06-20T14:42:35Z</time>
<desc>lat.=55.900303, lon.=26.528931, Alt.=113.420959m. Speed=0.396000m/h.</desc>
<speed>0.110000</speed>
</trkpt>
<trkpt lat="55.900303" lon="26.528929">
<ele>113.424866</ele>
<time>2010-06-20T14:42:36Z</time>
<desc>lat.=55.900303, lon.=26.528929, Alt.=113.424866m. Speed=0.288000m/h.</desc>
<speed>0.080000</speed>
</trkpt>
<trkpt lat="55.900303" lon="26.528929">
<ele>113.426819</ele>
<time>2010-06-20T14:42:37Z</time>
<desc>lat.=55.900303, lon.=26.528929, Alt.=113.426819m. Speed=0.648000m/h.</desc>
<speed>0.180000</speed>
</trkpt>
<trkpt lat="55.900303" lon="26.528933">
<ele>113.432678</ele>
<time>2010-06-20T14:42:38Z</time>
<desc>lat.=55.900303, lon.=26.528933, Alt.=113.432678m. Speed=0.576000m/h.</desc>
<speed>0.160000</speed>
</trkpt>
<trkpt lat="55.900303" lon="26.528934">
<ele>113.434631</ele>
<time>2010-06-20T14:42:39Z</time>
<desc>lat.=55.900303, lon.=26.528934, Alt.=113.434631m. Speed=0.360000m/h.</desc>
<speed>0.100000</speed>
</trkpt>
<trkpt lat="55.900303" lon="26.528934">
<ele>113.442444</ele>
<time>2010-06-20T14:42:40Z</time>
<desc>lat.=55.900303, lon.=26.528934, Alt.=113.442444m. Speed=0.432000m/h.</desc>
<speed>0.120000</speed>
</trkpt>
<trkpt lat="55.900303" lon="26.528936">
<ele>113.446350</ele>
<time>2010-06-20T14:42:41Z</time>
<desc>lat.=55.900303, lon.=26.528936, Alt.=113.446350m. Speed=0.432000m/h.</desc>
<speed>0.120000</speed>
</trkpt>
<trkpt lat="55.900303" lon="26.528938">
<ele>113.452209</ele>
<time>2010-06-20T14:42:42Z</time>
<desc>lat.=55.900303, lon.=26.528938, Alt.=113.452209m. Speed=0.504000m/h.</desc>
<speed>0.140000</speed>
</trkpt>
<trkpt lat="55.900307" lon="26.528938">
<ele>113.456116</ele>
<time>2010-06-20T14:42:43Z</time>
<desc>lat.=55.900307, lon.=26.528938, Alt.=113.456116m. Speed=0.144000m/h.</desc>
<speed>0.040000</speed>
</trkpt>
<trkpt lat="55.900307" lon="26.528938">
<ele>113.461975</ele>
<time>2010-06-20T14:42:44Z</time>
<desc>lat.=55.900307, lon.=26.528938, Alt.=113.461975m. Speed=0.288000m/h.</desc>
<speed>0.080000</speed>
</trkpt>
<trkpt lat="55.900307" lon="26.528938">
<ele>113.467834</ele>
<time>2010-06-20T14:42:45Z</time>
<desc>lat.=55.900307, lon.=26.528938, Alt.=113.467834m. Speed=0.036000m/h.</desc>
<speed>0.010000</speed>
</trkpt>
<trkpt lat="55.900307" lon="26.528936">
<ele>113.473694</ele>
<time>2010-06-20T14:42:46Z</time>
<desc>lat.=55.900307, lon.=26.528936, Alt.=113.473694m. Speed=0.252000m/h.</desc>
<speed>0.070000</speed>
</trkpt>
<trkpt lat="55.900307" lon="26.528936">
<ele>113.477600</ele>
<time>2010-06-20T14:42:47Z</time>
<desc>lat.=55.900307, lon.=26.528936, Alt.=113.477600m. Speed=0.792000m/h.</desc>
<speed>0.220000</speed>
</trkpt>
<trkpt lat="55.900307" lon="26.528933">
<ele>113.483459</ele>
<time>2010-06-20T14:42:48Z</time>
<desc>lat.=55.900307, lon.=26.528933, Alt.=113.483459m. Speed=0.612000m/h.</desc>
<speed>0.170000</speed>
</trkpt>
<trkpt lat="55.900307" lon="26.528931">
<ele>113.493225</ele>
<time>2010-06-20T14:42:49Z</time>
<desc>lat.=55.900307, lon.=26.528931, Alt.=113.493225m. Speed=0.756000m/h.</desc>
<speed>0.210000</speed>
</trkpt>
<trkpt lat="55.900307" lon="26.528927">
<ele>113.502991</ele>
<time>2010-06-20T14:42:50Z</time>
<desc>lat.=55.900307, lon.=26.528927, Alt.=113.502991m. Speed=0.720000m/h.</desc>
<speed>0.200000</speed>
</trkpt>
<trkpt lat="55.900311" lon="26.528923">
<ele>113.514709</ele>
<time>2010-06-20T14:42:51Z</time>
<desc>lat.=55.900311, lon.=26.528923, Alt.=113.514709m. Speed=0.612000m/h.</desc>
<speed>0.170000</speed>
</trkpt>
<trkpt lat="55.900311" lon="26.528921">
<ele>113.526428</ele>
<time>2010-06-20T14:42:52Z</time>
<desc>lat.=55.900311, lon.=26.528921, Alt.=113.526428m. Speed=0.540000m/h.</desc>
<speed>0.150000</speed>
</trkpt>
<trkpt lat="55.900311" lon="26.528919">
<ele>113.534241</ele>
<time>2010-06-20T14:42:53Z</time>
<desc>lat.=55.900311, lon.=26.528919, Alt.=113.534241m. Speed=0.540000m/h.</desc>
<speed>0.150000</speed>
</trkpt>
<trkpt lat="55.900311" lon="26.528917">
<ele>113.538147</ele>
<time>2010-06-20T14:42:54Z</time>
<desc>lat.=55.900311, lon.=26.528917, Alt.=113.538147m. Speed=0.792000m/h.</desc>
<speed>0.220000</speed>
</trkpt>
<trkpt lat="55.900311" lon="26.528913">
<ele>113.542053</ele>
<time>2010-06-20T14:42:55Z</time>
<desc>lat.=55.900311, lon.=26.528913, Alt.=113.542053m. Speed=0.504000m/h.</desc>
<speed>0.140000</speed>
</trkpt>
<trkpt lat="55.900311" lon="26.528912">
<ele>113.547913</ele>
<time>2010-06-20T14:42:56Z</time>
<desc>lat.=55.900311, lon.=26.528912, Alt.=113.547913m. Speed=0.756000m/h.</desc>
<speed>0.210000</speed>
</trkpt>
<trkpt lat="55.900307" lon="26.528912">
<ele>113.553772</ele>
<time>2010-06-20T14:42:57Z</time>
<desc>lat.=55.900307, lon.=26.528912, Alt.=113.553772m. Speed=0.468000m/h.</desc>
<speed>0.130000</speed>
</trkpt>
<trkpt lat="55.900307" lon="26.528913">
<ele>113.563538</ele>
<time>2010-06-20T14:42:58Z</time>
<desc>lat.=55.900307, lon.=26.528913, Alt.=113.563538m. Speed=0.972000m/h.</desc>
<speed>0.270000</speed>
</trkpt>
<trkpt lat="55.900307" lon="26.528915">
<ele>113.567444</ele>
<time>2010-06-20T14:42:59Z</time>
<desc>lat.=55.900307, lon.=26.528915, Alt.=113.567444m. Speed=1.080000m/h.</desc>
<speed>0.300000</speed>
</trkpt>
<trkpt lat="55.900303" lon="26.528910">
<ele>113.627991</ele>
<time>2010-06-20T14:43:00Z</time>
<desc>lat.=55.900303, lon.=26.528910, Alt.=113.627991m. Speed=1.008000m/h.</desc>
<speed>0.280000</speed>
</trkpt>
<trkpt lat="55.900295" lon="26.528919">
<ele>113.633850</ele>
<time>2010-06-20T14:43:01Z</time>
<desc>lat.=55.900295, lon.=26.528919, Alt.=113.633850m. Speed=1.080000m/h.</desc>
<speed>0.300000</speed>
</trkpt>
<trkpt lat="55.900295" lon="26.528919">
<ele>113.864319</ele>
<time>2010-06-20T14:43:02Z</time>
<desc>lat.=55.900295, lon.=26.528919, Alt.=113.864319m. Speed=0.972000m/h.</desc>
<speed>0.270000</speed>
</trkpt>
<trkpt lat="55.900299" lon="26.528917">
<ele>113.965881</ele>
<time>2010-06-20T14:43:03Z</time>
<desc>lat.=55.900299, lon.=26.528917, Alt.=113.965881m. Speed=0.972000m/h.</desc>
<speed>0.270000</speed>
</trkpt>
<trkpt lat="55.900303" lon="26.528906">
<ele>114.079163</ele>
<time>2010-06-20T14:43:04Z</time>
<desc>lat.=55.900303, lon.=26.528906, Alt.=114.079163m. Speed=0.288000m/h.</desc>
<speed>0.080000</speed>
</trkpt>
<trkpt lat="55.900307" lon="26.528898">
<ele>114.319397</ele>
<time>2010-06-20T14:43:05Z</time>
<desc>lat.=55.900307, lon.=26.528898, Alt.=114.319397m. Speed=0.324000m/h.</desc>
<speed>0.090000</speed>
</trkpt>
<trkpt lat="55.900307" lon="26.528896">
<ele>114.331116</ele>
<time>2010-06-20T14:43:06Z</time>
<desc>lat.=55.900307, lon.=26.528896, Alt.=114.331116m. Speed=0.720000m/h.</desc>
<speed>0.200000</speed>
</trkpt>
<trkpt lat="55.900311" lon="26.528894">
<ele>114.344788</ele>
<time>2010-06-20T14:43:07Z</time>
<desc>lat.=55.900311, lon.=26.528894, Alt.=114.344788m. Speed=0.396000m/h.</desc>
<speed>0.110000</speed>
</trkpt>
<trkpt lat="55.900311" lon="26.528896">
<ele>114.356506</ele>
<time>2010-06-20T14:43:08Z</time>
<desc>lat.=55.900311, lon.=26.528896, Alt.=114.356506m. Speed=0.576000m/h.</desc>
<speed>0.160000</speed>
</trkpt>
<trkpt lat="55.900311" lon="26.528894">
<ele>114.366272</ele>
<time>2010-06-20T14:43:09Z</time>
<desc>lat.=55.900311, lon.=26.528894, Alt.=114.366272m. Speed=0.432000m/h.</desc>
<speed>0.120000</speed>
</trkpt>
<trkpt lat="55.900314" lon="26.528894">
<ele>114.381897</ele>
<time>2010-06-20T14:43:10Z</time>
<desc>lat.=55.900314, lon.=26.528894, Alt.=114.381897m. Speed=0.648000m/h.</desc>
<speed>0.180000</speed>
</trkpt>
<trkpt lat="55.900314" lon="26.528891">
<ele>114.389709</ele>
<time>2010-06-20T14:43:11Z</time>
<desc>lat.=55.900314, lon.=26.528891, Alt.=114.389709m. Speed=0.972000m/h.</desc>
<speed>0.270000</speed>
</trkpt>
<trkpt lat="55.900314" lon="26.528889">
<ele>114.401428</ele>
<time>2010-06-20T14:43:12Z</time>
<desc>lat.=55.900314, lon.=26.528889, Alt.=114.401428m. Speed=1.116000m/h.</desc>
<speed>0.310000</speed>
</trkpt>
<trkpt lat="55.900314" lon="26.528889">
<ele>114.585022</ele>
<time>2010-06-20T14:43:13Z</time>
<desc>lat.=55.900314, lon.=26.528889, Alt.=114.585022m. Speed=0.576000m/h.</desc>
<speed>0.160000</speed>
</trkpt>
<trkpt lat="55.900314" lon="26.528887">
<ele>114.756897</ele>
<time>2010-06-20T14:43:14Z</time>
<desc>lat.=55.900314, lon.=26.528887, Alt.=114.756897m. Speed=0.720000m/h.</desc>
<speed>0.200000</speed>
</trkpt>
<trkpt lat="55.900314" lon="26.528885">
<ele>114.920959</ele>
<time>2010-06-20T14:43:15Z</time>
<desc>lat.=55.900314, lon.=26.528885, Alt.=114.920959m. Speed=0.360000m/h.</desc>
<speed>0.100000</speed>
</trkpt>
<trkpt lat="55.900318" lon="26.528866">
<ele>115.051819</ele>
<time>2010-06-20T14:43:16Z</time>
<desc>lat.=55.900318, lon.=26.528866, Alt.=115.051819m. Speed=0.540000m/h.</desc>
<speed>0.150000</speed>
</trkpt>
<trkpt lat="55.900318" lon="26.528864">
<ele>115.061584</ele>
<time>2010-06-20T14:43:17Z</time>
<desc>lat.=55.900318, lon.=26.528864, Alt.=115.061584m. Speed=0.540000m/h.</desc>
<speed>0.150000</speed>
</trkpt>
<trkpt lat="55.900318" lon="26.528862">
<ele>115.067444</ele>
<time>2010-06-20T14:43:18Z</time>
<desc>lat.=55.900318, lon.=26.528862, Alt.=115.067444m. Speed=0.396000m/h.</desc>
<speed>0.110000</speed>
</trkpt>
<trkpt lat="55.900318" lon="26.528860">
<ele>115.073303</ele>
<time>2010-06-20T14:43:19Z</time>
<desc>lat.=55.900318, lon.=26.528860, Alt.=115.073303m. Speed=0.432000m/h.</desc>
<speed>0.120000</speed>
</trkpt>
<trkpt lat="55.900318" lon="26.528858">
<ele>115.071350</ele>
<time>2010-06-20T14:43:20Z</time>
<desc>lat.=55.900318, lon.=26.528858, Alt.=115.071350m. Speed=0.360000m/h.</desc>
<speed>0.100000</speed>
</trkpt>
<trkpt lat="55.900318" lon="26.528856">
<ele>115.067444</ele>
<time>2010-06-20T14:43:21Z</time>
<desc>lat.=55.900318, lon.=26.528856, Alt.=115.067444m. Speed=0.576000m/h.</desc>
<speed>0.160000</speed>
</trkpt>
<trkpt lat="55.900322" lon="26.528854">
<ele>115.071350</ele>
<time>2010-06-20T14:43:22Z</time>
<desc>lat.=55.900322, lon.=26.528854, Alt.=115.071350m. Speed=0.288000m/h.</desc>
<speed>0.080000</speed>
</trkpt>
<trkpt lat="55.900322" lon="26.528856">
<ele>115.071350</ele>
<time>2010-06-20T14:43:23Z</time>
<desc>lat.=55.900322, lon.=26.528856, Alt.=115.071350m. Speed=0.252000m/h.</desc>
<speed>0.070000</speed>
</trkpt>
<trkpt lat="55.900322" lon="26.528856">
<ele>115.071350</ele>
<time>2010-06-20T14:43:24Z</time>
<desc>lat.=55.900322, lon.=26.528856, Alt.=115.071350m. Speed=0.036000m/h.</desc>
<speed>0.010000</speed>
</trkpt>
<trkpt lat="55.900322" lon="26.528856">
<ele>115.073303</ele>
<time>2010-06-20T14:43:25Z</time>
<desc>lat.=55.900322, lon.=26.528856, Alt.=115.073303m. Speed=0.360000m/h.</desc>
<speed>0.100000</speed>
</trkpt>
<trkpt lat="55.900322" lon="26.528854">
<ele>115.069397</ele>
<time>2010-06-20T14:43:26Z</time>
<desc>lat.=55.900322, lon.=26.528854, Alt.=115.069397m. Speed=0.108000m/h.</desc>
<speed>0.030000</speed>
</trkpt>
<trkpt lat="55.900322" lon="26.528854">
<ele>115.061584</ele>
<time>2010-06-20T14:43:27Z</time>
<desc>lat.=55.900322, lon.=26.528854, Alt.=115.061584m. Speed=0.072000m/h.</desc>
<speed>0.020000</speed>
</trkpt>
<trkpt lat="55.900322" lon="26.528856">
<ele>115.053772</ele>
<time>2010-06-20T14:43:28Z</time>
<desc>lat.=55.900322, lon.=26.528856, Alt.=115.053772m. Speed=0.036000m/h.</desc>
<speed>0.010000</speed>
</trkpt>
<trkpt lat="55.900322" lon="26.528856">
<ele>115.044006</ele>
<time>2010-06-20T14:43:29Z</time>
<desc>lat.=55.900322, lon.=26.528856, Alt.=115.044006m. Speed=0.468000m/h.</desc>
<speed>0.130000</speed>
</trkpt>
<trkpt lat="55.900318" lon="26.528856">
<ele>115.036194</ele>
<time>2010-06-20T14:43:30Z</time>
<desc>lat.=55.900318, lon.=26.528856, Alt.=115.036194m. Speed=0.468000m/h.</desc>
<speed>0.130000</speed>
</trkpt>
<trkpt lat="55.900318" lon="26.528858">
<ele>115.030334</ele>
<time>2010-06-20T14:43:31Z</time>
<desc>lat.=55.900318, lon.=26.528858, Alt.=115.030334m. Speed=0.360000m/h.</desc>
<speed>0.100000</speed>
</trkpt>
<trkpt lat="55.900318" lon="26.528858">
<ele>115.022522</ele>
<time>2010-06-20T14:43:32Z</time>
<desc>lat.=55.900318, lon.=26.528858, Alt.=115.022522m. Speed=0.216000m/h.</desc>
<speed>0.060000</speed>
</trkpt>
<trkpt lat="55.900318" lon="26.528858">
<ele>115.016663</ele>
<time>2010-06-20T14:43:33Z</time>
<desc>lat.=55.900318, lon.=26.528858, Alt.=115.016663m. Speed=0.432000m/h.</desc>
<speed>0.120000</speed>
</trkpt>
<trkpt lat="55.900318" lon="26.528860">
<ele>115.016663</ele>
<time>2010-06-20T14:43:34Z</time>
<desc>lat.=55.900318, lon.=26.528860, Alt.=115.016663m. Speed=0.612000m/h.</desc>
<speed>0.170000</speed>
</trkpt>
<trkpt lat="55.900318" lon="26.528864">
<ele>115.012756</ele>
<time>2010-06-20T14:43:35Z</time>
<desc>lat.=55.900318, lon.=26.528864, Alt.=115.012756m. Speed=0.612000m/h.</desc>
<speed>0.170000</speed>
</trkpt>
<trkpt lat="55.900318" lon="26.528866">
<ele>115.010803</ele>
<time>2010-06-20T14:43:36Z</time>
<desc>lat.=55.900318, lon.=26.528866, Alt.=115.010803m. Speed=0.612000m/h.</desc>
<speed>0.170000</speed>
</trkpt>
<trkpt lat="55.900318" lon="26.528870">
<ele>115.012756</ele>
<time>2010-06-20T14:43:37Z</time>
<desc>lat.=55.900318, lon.=26.528870, Alt.=115.012756m. Speed=0.936000m/h.</desc>
<speed>0.260000</speed>
</trkpt>
<trkpt lat="55.900318" lon="26.528873">
<ele>115.018616</ele>
<time>2010-06-20T14:43:38Z</time>
<desc>lat.=55.900318, lon.=26.528873, Alt.=115.018616m. Speed=0.972000m/h.</desc>
<speed>0.270000</speed>
</trkpt>
<trkpt lat="55.900318" lon="26.528877">
<ele>115.022522</ele>
<time>2010-06-20T14:43:39Z</time>
<desc>lat.=55.900318, lon.=26.528877, Alt.=115.022522m. Speed=0.648000m/h.</desc>
<speed>0.180000</speed>
</trkpt>
<trkpt lat="55.900318" lon="26.528881">
<ele>115.028381</ele>
<time>2010-06-20T14:43:40Z</time>
<desc>lat.=55.900318, lon.=26.528881, Alt.=115.028381m. Speed=0.612000m/h.</desc>
<speed>0.170000</speed>
</trkpt>
<trkpt lat="55.900318" lon="26.528883">
<ele>115.034241</ele>
<time>2010-06-20T14:43:41Z</time>
<desc>lat.=55.900318, lon.=26.528883, Alt.=115.034241m. Speed=0.072000m/h.</desc>
<speed>0.020000</speed>
</trkpt>
<trkpt lat="55.900318" lon="26.528883">
<ele>115.038147</ele>
<time>2010-06-20T14:43:42Z</time>
<desc>lat.=55.900318, lon.=26.528883, Alt.=115.038147m. Speed=0.468000m/h.</desc>
<speed>0.130000</speed>
</trkpt>
<trkpt lat="55.900318" lon="26.528883">
<ele>115.044006</ele>
<time>2010-06-20T14:43:43Z</time>
<desc>lat.=55.900318, lon.=26.528883, Alt.=115.044006m. Speed=0.756000m/h.</desc>
<speed>0.210000</speed>
</trkpt>
<trkpt lat="55.900318" lon="26.528883">
<ele>115.053772</ele>
<time>2010-06-20T14:43:44Z</time>
<desc>lat.=55.900318, lon.=26.528883, Alt.=115.053772m. Speed=0.360000m/h.</desc>
<speed>0.100000</speed>
</trkpt>
<trkpt lat="55.900318" lon="26.528881">
<ele>115.063538</ele>
<time>2010-06-20T14:43:45Z</time>
<desc>lat.=55.900318, lon.=26.528881, Alt.=115.063538m. Speed=0.252000m/h.</desc>
<speed>0.070000</speed>
</trkpt>
<trkpt lat="55.900318" lon="26.528881">
<ele>115.069397</ele>
<time>2010-06-20T14:43:46Z</time>
<desc>lat.=55.900318, lon.=26.528881, Alt.=115.069397m. Speed=0.180000m/h.</desc>
<speed>0.050000</speed>
</trkpt>
<trkpt lat="55.900318" lon="26.528879">
<ele>115.073303</ele>
<time>2010-06-20T14:43:47Z</time>
<desc>lat.=55.900318, lon.=26.528879, Alt.=115.073303m. Speed=0.180000m/h.</desc>
<speed>0.050000</speed>
</trkpt>
<trkpt lat="55.900314" lon="26.528879">
<ele>115.079163</ele>
<time>2010-06-20T14:43:48Z</time>
<desc>lat.=55.900314, lon.=26.528879, Alt.=115.079163m. Speed=0.216000m/h.</desc>
<speed>0.060000</speed>
</trkpt>
<trkpt lat="55.900314" lon="26.528881">
<ele>115.083069</ele>
<time>2010-06-20T14:43:49Z</time>
<desc>lat.=55.900314, lon.=26.528881, Alt.=115.083069m. Speed=0.360000m/h.</desc>
<speed>0.100000</speed>
</trkpt>
<trkpt lat="55.900314" lon="26.528883">
<ele>115.085022</ele>
<time>2010-06-20T14:43:50Z</time>
<desc>lat.=55.900314, lon.=26.528883, Alt.=115.085022m. Speed=0.900000m/h.</desc>
<speed>0.250000</speed>
</trkpt>
<trkpt lat="55.900314" lon="26.528883">
<ele>115.079163</ele>
<time>2010-06-20T14:43:51Z</time>
<desc>lat.=55.900314, lon.=26.528883, Alt.=115.079163m. Speed=0.864000m/h.</desc>
<speed>0.240000</speed>
</trkpt>
<trkpt lat="55.900311" lon="26.528887">
<ele>115.077209</ele>
<time>2010-06-20T14:43:52Z</time>
<desc>lat.=55.900311, lon.=26.528887, Alt.=115.077209m. Speed=1.044000m/h.</desc>
<speed>0.290000</speed>
</trkpt>
<trkpt lat="55.900311" lon="26.528891">
<ele>115.071350</ele>
<time>2010-06-20T14:43:53Z</time>
<desc>lat.=55.900311, lon.=26.528891, Alt.=115.071350m. Speed=1.296000m/h.</desc>
<speed>0.360000</speed>
</trkpt>
<trkpt lat="55.900311" lon="26.528891">
<ele>115.100647</ele>
<time>2010-06-20T14:43:54Z</time>
<desc>lat.=55.900311, lon.=26.528891, Alt.=115.100647m. Speed=1.080000m/h.</desc>
<speed>0.300000</speed>
</trkpt>
<trkpt lat="55.900307" lon="26.528898">
<ele>115.034241</ele>
<time>2010-06-20T14:43:55Z</time>
<desc>lat.=55.900307, lon.=26.528898, Alt.=115.034241m. Speed=1.152000m/h.</desc>
<speed>0.320000</speed>
</trkpt>
<trkpt lat="55.900303" lon="26.528902">
<ele>115.075256</ele>
<time>2010-06-20T14:43:56Z</time>
<desc>lat.=55.900303, lon.=26.528902, Alt.=115.075256m. Speed=0.792000m/h.</desc>
<speed>0.220000</speed>
</trkpt>
<trkpt lat="55.900303" lon="26.528898">
<ele>115.112366</ele>
<time>2010-06-20T14:43:57Z</time>
<desc>lat.=55.900303, lon.=26.528898, Alt.=115.112366m. Speed=0.648000m/h.</desc>
<speed>0.180000</speed>
</trkpt>
<trkpt lat="55.900303" lon="26.528898">
<ele>115.182678</ele>
<time>2010-06-20T14:43:58Z</time>
<desc>lat.=55.900303, lon.=26.528898, Alt.=115.182678m. Speed=0.864000m/h.</desc>
<speed>0.240000</speed>
</trkpt>
<trkpt lat="55.900303" lon="26.528902">
<ele>115.225647</ele>
<time>2010-06-20T14:43:59Z</time>
<desc>lat.=55.900303, lon.=26.528902, Alt.=115.225647m. Speed=0.720000m/h.</desc>
<speed>0.200000</speed>
</trkpt>
<trkpt lat="55.900303" lon="26.528906">
<ele>115.233459</ele>
<time>2010-06-20T14:44:00Z</time>
<desc>lat.=55.900303, lon.=26.528906, Alt.=115.233459m. Speed=0.360000m/h.</desc>
<speed>0.100000</speed>
</trkpt>
<trkpt lat="55.900303" lon="26.528908">
<ele>115.245178</ele>
<time>2010-06-20T14:44:01Z</time>
<desc>lat.=55.900303, lon.=26.528908, Alt.=115.245178m. Speed=0.504000m/h.</desc>
<speed>0.140000</speed>
</trkpt>
<trkpt lat="55.900303" lon="26.528910">
<ele>115.258850</ele>
<time>2010-06-20T14:44:02Z</time>
<desc>lat.=55.900303, lon.=26.528910, Alt.=115.258850m. Speed=0.144000m/h.</desc>
<speed>0.040000</speed>
</trkpt>
<trkpt lat="55.900303" lon="26.528910">
<ele>115.274475</ele>
<time>2010-06-20T14:44:03Z</time>
<desc>lat.=55.900303, lon.=26.528910, Alt.=115.274475m. Speed=0.684000m/h.</desc>
<speed>0.190000</speed>
</trkpt>
<trkpt lat="55.900303" lon="26.528913">
<ele>115.292053</ele>
<time>2010-06-20T14:44:04Z</time>
<desc>lat.=55.900303, lon.=26.528913, Alt.=115.292053m. Speed=0.972000m/h.</desc>
<speed>0.270000</speed>
</trkpt>
<trkpt lat="55.900303" lon="26.528917">
<ele>115.311584</ele>
<time>2010-06-20T14:44:05Z</time>
<desc>lat.=55.900303, lon.=26.528917, Alt.=115.311584m. Speed=1.512000m/h.</desc>
<speed>0.420000</speed>
</trkpt>
<trkpt lat="55.900307" lon="26.528927">
<ele>115.606506</ele>
<time>2010-06-20T14:44:06Z</time>
<desc>lat.=55.900307, lon.=26.528927, Alt.=115.606506m. Speed=1.044000m/h.</desc>
<speed>0.290000</speed>
</trkpt>
<trkpt lat="55.900307" lon="26.528938">
<ele>115.629944</ele>
<time>2010-06-20T14:44:07Z</time>
<desc>lat.=55.900307, lon.=26.528938, Alt.=115.629944m. Speed=0.756000m/h.</desc>
<speed>0.210000</speed>
</trkpt>
<trkpt lat="55.900303" lon="26.528954">
<ele>115.487366</ele>
<time>2010-06-20T14:44:08Z</time>
<desc>lat.=55.900303, lon.=26.528954, Alt.=115.487366m. Speed=0.828000m/h.</desc>
<speed>0.230000</speed>
</trkpt>
<trkpt lat="55.900291" lon="26.528971">
<ele>115.282288</ele>
<time>2010-06-20T14:44:09Z</time>
<desc>lat.=55.900291, lon.=26.528971, Alt.=115.282288m. Speed=1.908000m/h.</desc>
<speed>0.530000</speed>
</trkpt>
<trkpt lat="55.900280" lon="26.529003">
<ele>115.428772</ele>
<time>2010-06-20T14:44:10Z</time>
<desc>lat.=55.900280, lon.=26.529003, Alt.=115.428772m. Speed=2.556000m/h.</desc>
<speed>0.710000</speed>
</trkpt>
<trkpt lat="55.900276" lon="26.529013">
<ele>115.520569</ele>
<time>2010-06-20T14:44:11Z</time>
<desc>lat.=55.900276, lon.=26.529013, Alt.=115.520569m. Speed=2.556000m/h.</desc>
<speed>0.710000</speed>
</trkpt>
<trkpt lat="55.900269" lon="26.529030">
<ele>115.723694</ele>
<time>2010-06-20T14:44:12Z</time>
<desc>lat.=55.900269, lon.=26.529030, Alt.=115.723694m. Speed=3.060000m/h.</desc>
<speed>0.850000</speed>
</trkpt>
<trkpt lat="55.900265" lon="26.529043">
<ele>115.747131</ele>
<time>2010-06-20T14:44:13Z</time>
<desc>lat.=55.900265, lon.=26.529043, Alt.=115.747131m. Speed=2.736000m/h.</desc>
<speed>0.760000</speed>
</trkpt>
<trkpt lat="55.900265" lon="26.529051">
<ele>115.776428</ele>
<time>2010-06-20T14:44:14Z</time>
<desc>lat.=55.900265, lon.=26.529051, Alt.=115.776428m. Speed=2.448000m/h.</desc>
<speed>0.680000</speed>
</trkpt>
<trkpt lat="55.900261" lon="26.529051">
<ele>115.794006</ele>
<time>2010-06-20T14:44:15Z</time>
<desc>lat.=55.900261, lon.=26.529051, Alt.=115.794006m. Speed=1.980000m/h.</desc>
<speed>0.550000</speed>
</trkpt>
<trkpt lat="55.900261" lon="26.529049">
<ele>115.762756</ele>
<time>2010-06-20T14:44:16Z</time>
<desc>lat.=55.900261, lon.=26.529049, Alt.=115.762756m. Speed=1.296000m/h.</desc>
<speed>0.360000</speed>
</trkpt>
<trkpt lat="55.900253" lon="26.529055">
<ele>115.752991</ele>
<time>2010-06-20T14:44:17Z</time>
<desc>lat.=55.900253, lon.=26.529055, Alt.=115.752991m. Speed=1.404000m/h.</desc>
<speed>0.390000</speed>
</trkpt>
<trkpt lat="55.900242" lon="26.529062">
<ele>115.735413</ele>
<time>2010-06-20T14:44:18Z</time>
<desc>lat.=55.900242, lon.=26.529062, Alt.=115.735413m. Speed=1.476000m/h.</desc>
<speed>0.410000</speed>
</trkpt>
<trkpt lat="55.900238" lon="26.529058">
<ele>115.686584</ele>
<time>2010-06-20T14:44:19Z</time>
<desc>lat.=55.900238, lon.=26.529058, Alt.=115.686584m. Speed=1.548000m/h.</desc>
<speed>0.430000</speed>
</trkpt>
<trkpt lat="55.900227" lon="26.529064">
<ele>115.708069</ele>
<time>2010-06-20T14:44:20Z</time>
<desc>lat.=55.900227, lon.=26.529064, Alt.=115.708069m. Speed=1.836000m/h.</desc>
<speed>0.510000</speed>
</trkpt>
<trkpt lat="55.900215" lon="26.529078">
<ele>115.643616</ele>
<time>2010-06-20T14:44:21Z</time>
<desc>lat.=55.900215, lon.=26.529078, Alt.=115.643616m. Speed=2.088000m/h.</desc>
<speed>0.580000</speed>
</trkpt>
<trkpt lat="55.900215" lon="26.529087">
<ele>115.776428</ele>
<time>2010-06-20T14:44:22Z</time>
<desc>lat.=55.900215, lon.=26.529087, Alt.=115.776428m. Speed=2.124000m/h.</desc>
<speed>0.590000</speed>
</trkpt>
<trkpt lat="55.900208" lon="26.529110">
<ele>115.782288</ele>
<time>2010-06-20T14:44:23Z</time>
<desc>lat.=55.900208, lon.=26.529110, Alt.=115.782288m. Speed=2.376000m/h.</desc>
<speed>0.660000</speed>
</trkpt>
<trkpt lat="55.900211" lon="26.529099">
<ele>115.903381</ele>
<time>2010-06-20T14:44:24Z</time>
<desc>lat.=55.900211, lon.=26.529099, Alt.=115.903381m. Speed=1.872000m/h.</desc>
<speed>0.520000</speed>
</trkpt>
<trkpt lat="55.900211" lon="26.529087">
<ele>115.928772</ele>
<time>2010-06-20T14:44:25Z</time>
<desc>lat.=55.900211, lon.=26.529087, Alt.=115.928772m. Speed=1.116000m/h.</desc>
<speed>0.310000</speed>
</trkpt>
<trkpt lat="55.900208" lon="26.529093">
<ele>115.973694</ele>
<time>2010-06-20T14:44:26Z</time>
<desc>lat.=55.900208, lon.=26.529093, Alt.=115.973694m. Speed=1.116000m/h.</desc>
<speed>0.310000</speed>
</trkpt>
<trkpt lat="55.900204" lon="26.529099">
<ele>116.044006</ele>
<time>2010-06-20T14:44:27Z</time>
<desc>lat.=55.900204, lon.=26.529099, Alt.=116.044006m. Speed=1.440000m/h.</desc>
<speed>0.400000</speed>
</trkpt>
<trkpt lat="55.900204" lon="26.529095">
<ele>116.020569</ele>
<time>2010-06-20T14:44:28Z</time>
<desc>lat.=55.900204, lon.=26.529095, Alt.=116.020569m. Speed=1.188000m/h.</desc>
<speed>0.330000</speed>
</trkpt>
<trkpt lat="55.900200" lon="26.529095">
<ele>116.120178</ele>
<time>2010-06-20T14:44:29Z</time>
<desc>lat.=55.900200, lon.=26.529095, Alt.=116.120178m. Speed=1.332000m/h.</desc>
<speed>0.370000</speed>
</trkpt>
<trkpt lat="55.900204" lon="26.529085">
<ele>116.227600</ele>
<time>2010-06-20T14:44:30Z</time>
<desc>lat.=55.900204, lon.=26.529085, Alt.=116.227600m. Speed=1.116000m/h.</desc>
<speed>0.310000</speed>
</trkpt>
<trkpt lat="55.900215" lon="26.529083">
<ele>116.329163</ele>
<time>2010-06-20T14:44:31Z</time>
<desc>lat.=55.900215, lon.=26.529083, Alt.=116.329163m. Speed=1.116000m/h.</desc>
<speed>0.310000</speed>
</trkpt>
<trkpt lat="55.900208" lon="26.529083">
<ele>116.458069</ele>
<time>2010-06-20T14:44:32Z</time>
<desc>lat.=55.900208, lon.=26.529083, Alt.=116.458069m. Speed=1.116000m/h.</desc>
<speed>0.310000</speed>
</trkpt>
<trkpt lat="55.900208" lon="26.529079">
<ele>116.530334</ele>
<time>2010-06-20T14:44:33Z</time>
<desc>lat.=55.900208, lon.=26.529079, Alt.=116.530334m. Speed=0.972000m/h.</desc>
<speed>0.270000</speed>
</trkpt>
<trkpt lat="55.900208" lon="26.529072">
<ele>116.608459</ele>
<time>2010-06-20T14:44:34Z</time>
<desc>lat.=55.900208, lon.=26.529072, Alt.=116.608459m. Speed=0.792000m/h.</desc>
<speed>0.220000</speed>
</trkpt>
<trkpt lat="55.900204" lon="26.529062">
<ele>116.641663</ele>
<time>2010-06-20T14:44:35Z</time>
<desc>lat.=55.900204, lon.=26.529062, Alt.=116.641663m. Speed=0.540000m/h.</desc>
<speed>0.150000</speed>
</trkpt>
<trkpt lat="55.900204" lon="26.529060">
<ele>116.674866</ele>
<time>2010-06-20T14:44:36Z</time>
<desc>lat.=55.900204, lon.=26.529060, Alt.=116.674866m. Speed=0.864000m/h.</desc>
<speed>0.240000</speed>
</trkpt>
<trkpt lat="55.900204" lon="26.529064">
<ele>116.702209</ele>
<time>2010-06-20T14:44:37Z</time>
<desc>lat.=55.900204, lon.=26.529064, Alt.=116.702209m. Speed=0.504000m/h.</desc>
<speed>0.140000</speed>
</trkpt>
<trkpt lat="55.900204" lon="26.529066">
<ele>116.727600</ele>
<time>2010-06-20T14:44:38Z</time>
<desc>lat.=55.900204, lon.=26.529066, Alt.=116.727600m. Speed=0.540000m/h.</desc>
<speed>0.150000</speed>
</trkpt>
<trkpt lat="55.900204" lon="26.529068">
<ele>116.749084</ele>
<time>2010-06-20T14:44:39Z</time>
<desc>lat.=55.900204, lon.=26.529068, Alt.=116.749084m. Speed=0.972000m/h.</desc>
<speed>0.270000</speed>
</trkpt>
<trkpt lat="55.900204" lon="26.529074">
<ele>116.770569</ele>
<time>2010-06-20T14:44:40Z</time>
<desc>lat.=55.900204, lon.=26.529074, Alt.=116.770569m. Speed=1.260000m/h.</desc>
<speed>0.350000</speed>
</trkpt>
<trkpt lat="55.900192" lon="26.529093">
<ele>116.690491</ele>
<time>2010-06-20T14:44:41Z</time>
<desc>lat.=55.900192, lon.=26.529093, Alt.=116.690491m. Speed=1.296000m/h.</desc>
<speed>0.360000</speed>
</trkpt>
<trkpt lat="55.900185" lon="26.529102">
<ele>116.678772</ele>
<time>2010-06-20T14:44:42Z</time>
<desc>lat.=55.900185, lon.=26.529102, Alt.=116.678772m. Speed=1.008000m/h.</desc>
<speed>0.280000</speed>
</trkpt>
<trkpt lat="55.900177" lon="26.529118">
<ele>116.627991</ele>
<time>2010-06-20T14:44:43Z</time>
<desc>lat.=55.900177, lon.=26.529118, Alt.=116.627991m. Speed=1.620000m/h.</desc>
<speed>0.450000</speed>
</trkpt>
<trkpt lat="55.900162" lon="26.529150">
<ele>116.778381</ele>
<time>2010-06-20T14:44:44Z</time>
<desc>lat.=55.900162, lon.=26.529150, Alt.=116.778381m. Speed=1.836000m/h.</desc>
<speed>0.510000</speed>
</trkpt>
<trkpt lat="55.900158" lon="26.529173">
<ele>116.977600</ele>
<time>2010-06-20T14:44:45Z</time>
<desc>lat.=55.900158, lon.=26.529173, Alt.=116.977600m. Speed=1.332000m/h.</desc>
<speed>0.370000</speed>
</trkpt>
<trkpt lat="55.900146" lon="26.529186">
<ele>117.169006</ele>
<time>2010-06-20T14:44:46Z</time>
<desc>lat.=55.900146, lon.=26.529186, Alt.=117.169006m. Speed=1.332000m/h.</desc>
<speed>0.370000</speed>
</trkpt>
<trkpt lat="55.900143" lon="26.529203">
<ele>117.376038</ele>
<time>2010-06-20T14:44:47Z</time>
<desc>lat.=55.900143, lon.=26.529203, Alt.=117.376038m. Speed=1.476000m/h.</desc>
<speed>0.410000</speed>
</trkpt>
<trkpt lat="55.900146" lon="26.529207">
<ele>117.467834</ele>
<time>2010-06-20T14:44:48Z</time>
<desc>lat.=55.900146, lon.=26.529207, Alt.=117.467834m. Speed=1.080000m/h.</desc>
<speed>0.300000</speed>
</trkpt>
<trkpt lat="55.900146" lon="26.529209">
<ele>117.583069</ele>
<time>2010-06-20T14:44:49Z</time>
<desc>lat.=55.900146, lon.=26.529209, Alt.=117.583069m. Speed=0.792000m/h.</desc>
<speed>0.220000</speed>
</trkpt>
<trkpt lat="55.900143" lon="26.529222">
<ele>117.704163</ele>
<time>2010-06-20T14:44:50Z</time>
<desc>lat.=55.900143, lon.=26.529222, Alt.=117.704163m. Speed=0.864000m/h.</desc>
<speed>0.240000</speed>
</trkpt>
<trkpt lat="55.900139" lon="26.529232">
<ele>117.961975</ele>
<time>2010-06-20T14:44:51Z</time>
<desc>lat.=55.900139, lon.=26.529232, Alt.=117.961975m. Speed=1.296000m/h.</desc>
<speed>0.360000</speed>
</trkpt>
<trkpt lat="55.900139" lon="26.529242">
<ele>118.221741</ele>
<time>2010-06-20T14:44:52Z</time>
<desc>lat.=55.900139, lon.=26.529242, Alt.=118.221741m. Speed=1.440000m/h.</desc>
<speed>0.400000</speed>
</trkpt>
<trkpt lat="55.900150" lon="26.529240">
<ele>118.524475</ele>
<time>2010-06-20T14:44:53Z</time>
<desc>lat.=55.900150, lon.=26.529240, Alt.=118.524475m. Speed=0.900000m/h.</desc>
<speed>0.250000</speed>
</trkpt>
<trkpt lat="55.900154" lon="26.529242">
<ele>118.739319</ele>
<time>2010-06-20T14:44:54Z</time>
<desc>lat.=55.900154, lon.=26.529242, Alt.=118.739319m. Speed=0.828000m/h.</desc>
<speed>0.230000</speed>
</trkpt>
<trkpt lat="55.900162" lon="26.529234">
<ele>118.977600</ele>
<time>2010-06-20T14:44:55Z</time>
<desc>lat.=55.900162, lon.=26.529234, Alt.=118.977600m. Speed=0.684000m/h.</desc>
<speed>0.190000</speed>
</trkpt>
<trkpt lat="55.900169" lon="26.529232">
<ele>119.127991</ele>
<time>2010-06-20T14:44:56Z</time>
<desc>lat.=55.900169, lon.=26.529232, Alt.=119.127991m. Speed=0.540000m/h.</desc>
<speed>0.150000</speed>
</trkpt>
<trkpt lat="55.900173" lon="26.529232">
<ele>119.151428</ele>
<time>2010-06-20T14:44:57Z</time>
<desc>lat.=55.900173, lon.=26.529232, Alt.=119.151428m. Speed=0.612000m/h.</desc>
<speed>0.170000</speed>
</trkpt>
<trkpt lat="55.900173" lon="26.529232">
<ele>119.172913</ele>
<time>2010-06-20T14:44:58Z</time>
<desc>lat.=55.900173, lon.=26.529232, Alt.=119.172913m. Speed=0.792000m/h.</desc>
<speed>0.220000</speed>
</trkpt>
<trkpt lat="55.900177" lon="26.529234">
<ele>119.200256</ele>
<time>2010-06-20T14:44:59Z</time>
<desc>lat.=55.900177, lon.=26.529234, Alt.=119.200256m. Speed=1.044000m/h.</desc>
<speed>0.290000</speed>
</trkpt>
<trkpt lat="55.900177" lon="26.529234">
<ele>119.231506</ele>
<time>2010-06-20T14:45:00Z</time>
<desc>lat.=55.900177, lon.=26.529234, Alt.=119.231506m. Speed=1.080000m/h.</desc>
<speed>0.300000</speed>
</trkpt>
<trkpt lat="55.900188" lon="26.529203">
<ele>119.391663</ele>
<time>2010-06-20T14:45:01Z</time>
<desc>lat.=55.900188, lon.=26.529203, Alt.=119.391663m. Speed=1.476000m/h.</desc>
<speed>0.410000</speed>
</trkpt>
<trkpt lat="55.900200" lon="26.529186">
<ele>119.499084</ele>
<time>2010-06-20T14:45:02Z</time>
<desc>lat.=55.900200, lon.=26.529186, Alt.=119.499084m. Speed=1.620000m/h.</desc>
<speed>0.450000</speed>
</trkpt>
<trkpt lat="55.900208" lon="26.529167">
<ele>119.639709</ele>
<time>2010-06-20T14:45:03Z</time>
<desc>lat.=55.900208, lon.=26.529167, Alt.=119.639709m. Speed=1.728000m/h.</desc>
<speed>0.480000</speed>
</trkpt>
<trkpt lat="55.900215" lon="26.529142">
<ele>119.762756</ele>
<time>2010-06-20T14:45:04Z</time>
<desc>lat.=55.900215, lon.=26.529142, Alt.=119.762756m. Speed=2.268000m/h.</desc>
<speed>0.630000</speed>
</trkpt>
<trkpt lat="55.900215" lon="26.529140">
<ele>120.049866</ele>
<time>2010-06-20T14:45:05Z</time>
<desc>lat.=55.900215, lon.=26.529140, Alt.=120.049866m. Speed=1.584000m/h.</desc>
<speed>0.440000</speed>
</trkpt>
<trkpt lat="55.900215" lon="26.529135">
<ele>120.295959</ele>
<time>2010-06-20T14:45:06Z</time>
<desc>lat.=55.900215, lon.=26.529135, Alt.=120.295959m. Speed=1.188000m/h.</desc>
<speed>0.330000</speed>
</trkpt>
<trkpt lat="55.900215" lon="26.529137">
<ele>120.477600</ele>
<time>2010-06-20T14:45:07Z</time>
<desc>lat.=55.900215, lon.=26.529137, Alt.=120.477600m. Speed=0.936000m/h.</desc>
<speed>0.260000</speed>
</trkpt>
<trkpt lat="55.900215" lon="26.529133">
<ele>120.612366</ele>
<time>2010-06-20T14:45:08Z</time>
<desc>lat.=55.900215, lon.=26.529133, Alt.=120.612366m. Speed=0.828000m/h.</desc>
<speed>0.230000</speed>
</trkpt>
<trkpt lat="55.900211" lon="26.529127">
<ele>120.618225</ele>
<time>2010-06-20T14:45:09Z</time>
<desc>lat.=55.900211, lon.=26.529127, Alt.=120.618225m. Speed=0.864000m/h.</desc>
<speed>0.240000</speed>
</trkpt>
<trkpt lat="55.900215" lon="26.529114">
<ele>120.790100</ele>
<time>2010-06-20T14:45:10Z</time>
<desc>lat.=55.900215, lon.=26.529114, Alt.=120.790100m. Speed=1.260000m/h.</desc>
<speed>0.350000</speed>
</trkpt>
<trkpt lat="55.900200" lon="26.529114">
<ele>120.944397</ele>
<time>2010-06-20T14:45:11Z</time>
<desc>lat.=55.900200, lon.=26.529114, Alt.=120.944397m. Speed=1.008000m/h.</desc>
<speed>0.280000</speed>
</trkpt>
<trkpt lat="55.900188" lon="26.529110">
<ele>121.102600</ele>
<time>2010-06-20T14:45:12Z</time>
<desc>lat.=55.900188, lon.=26.529110, Alt.=121.102600m. Speed=1.188000m/h.</desc>
<speed>0.330000</speed>
</trkpt>
<trkpt lat="55.900196" lon="26.529095">
<ele>121.112366</ele>
<time>2010-06-20T14:45:13Z</time>
<desc>lat.=55.900196, lon.=26.529095, Alt.=121.112366m. Speed=0.936000m/h.</desc>
<speed>0.260000</speed>
</trkpt>
<trkpt lat="55.900196" lon="26.529089">
<ele>121.151428</ele>
<time>2010-06-20T14:45:14Z</time>
<desc>lat.=55.900196, lon.=26.529089, Alt.=121.151428m. Speed=1.008000m/h.</desc>
<speed>0.280000</speed>
</trkpt>
<trkpt lat="55.900204" lon="26.529076">
<ele>121.223694</ele>
<time>2010-06-20T14:45:15Z</time>
<desc>lat.=55.900204, lon.=26.529076, Alt.=121.223694m. Speed=1.476000m/h.</desc>
<speed>0.410000</speed>
</trkpt>
<trkpt lat="55.900211" lon="26.529068">
<ele>121.333069</ele>
<time>2010-06-20T14:45:16Z</time>
<desc>lat.=55.900211, lon.=26.529068, Alt.=121.333069m. Speed=1.944000m/h.</desc>
<speed>0.540000</speed>
</trkpt>
<trkpt lat="55.900211" lon="26.529083">
<ele>121.460022</ele>
<time>2010-06-20T14:45:17Z</time>
<desc>lat.=55.900211, lon.=26.529083, Alt.=121.460022m. Speed=1.296000m/h.</desc>
<speed>0.360000</speed>
</trkpt>
<trkpt lat="55.900208" lon="26.529093">
<ele>121.602600</ele>
<time>2010-06-20T14:45:18Z</time>
<desc>lat.=55.900208, lon.=26.529093, Alt.=121.602600m. Speed=0.684000m/h.</desc>
<speed>0.190000</speed>
</trkpt>
<trkpt lat="55.900204" lon="26.529091">
<ele>121.799866</ele>
<time>2010-06-20T14:45:19Z</time>
<desc>lat.=55.900204, lon.=26.529091, Alt.=121.799866m. Speed=0.180000m/h.</desc>
<speed>0.050000</speed>
</trkpt>
<trkpt lat="55.900200" lon="26.529091">
<ele>121.891663</ele>
<time>2010-06-20T14:45:20Z</time>
<desc>lat.=55.900200, lon.=26.529091, Alt.=121.891663m. Speed=0.324000m/h.</desc>
<speed>0.090000</speed>
</trkpt>
<trkpt lat="55.900204" lon="26.529083">
<ele>122.022522</ele>
<time>2010-06-20T14:45:21Z</time>
<desc>lat.=55.900204, lon.=26.529083, Alt.=122.022522m. Speed=0.612000m/h.</desc>
<speed>0.170000</speed>
</trkpt>
<trkpt lat="55.900208" lon="26.529081">
<ele>122.047913</ele>
<time>2010-06-20T14:45:22Z</time>
<desc>lat.=55.900208, lon.=26.529081, Alt.=122.047913m. Speed=0.108000m/h.</desc>
<speed>0.030000</speed>
</trkpt>
<trkpt lat="55.900204" lon="26.529081">
<ele>122.073303</ele>
<time>2010-06-20T14:45:23Z</time>
<desc>lat.=55.900204, lon.=26.529081, Alt.=122.073303m. Speed=0.900000m/h.</desc>
<speed>0.250000</speed>
</trkpt>
<trkpt lat="55.900204" lon="26.529085">
<ele>122.092834</ele>
<time>2010-06-20T14:45:24Z</time>
<desc>lat.=55.900204, lon.=26.529085, Alt.=122.092834m. Speed=1.152000m/h.</desc>
<speed>0.320000</speed>
</trkpt>
<trkpt lat="55.900200" lon="26.529093">
<ele>122.237366</ele>
<time>2010-06-20T14:45:25Z</time>
<desc>lat.=55.900200, lon.=26.529093, Alt.=122.237366m. Speed=1.260000m/h.</desc>
<speed>0.350000</speed>
</trkpt>
<trkpt lat="55.900204" lon="26.529087">
<ele>122.282288</ele>
<time>2010-06-20T14:45:26Z</time>
<desc>lat.=55.900204, lon.=26.529087, Alt.=122.282288m. Speed=0.576000m/h.</desc>
<speed>0.160000</speed>
</trkpt>
<trkpt lat="55.900211" lon="26.529076">
<ele>122.510803</ele>
<time>2010-06-20T14:45:27Z</time>
<desc>lat.=55.900211, lon.=26.529076, Alt.=122.510803m. Speed=0.324000m/h.</desc>
<speed>0.090000</speed>
</trkpt>
<trkpt lat="55.900211" lon="26.529070">
<ele>122.581116</ele>
<time>2010-06-20T14:45:28Z</time>
<desc>lat.=55.900211, lon.=26.529070, Alt.=122.581116m. Speed=0.432000m/h.</desc>
<speed>0.120000</speed>
</trkpt>
<trkpt lat="55.900211" lon="26.529066">
<ele>122.600647</ele>
<time>2010-06-20T14:45:29Z</time>
<desc>lat.=55.900211, lon.=26.529066, Alt.=122.600647m. Speed=0.504000m/h.</desc>
<speed>0.140000</speed>
</trkpt>
<trkpt lat="55.900211" lon="26.529064">
<ele>122.612366</ele>
<time>2010-06-20T14:45:30Z</time>
<desc>lat.=55.900211, lon.=26.529064, Alt.=122.612366m. Speed=0.684000m/h.</desc>
<speed>0.190000</speed>
</trkpt>
<trkpt lat="55.900211" lon="26.529060">
<ele>122.622131</ele>
<time>2010-06-20T14:45:31Z</time>
<desc>lat.=55.900211, lon.=26.529060, Alt.=122.622131m. Speed=0.612000m/h.</desc>
<speed>0.170000</speed>
</trkpt>
<trkpt lat="55.900211" lon="26.529060">
<ele>122.629944</ele>
<time>2010-06-20T14:45:32Z</time>
<desc>lat.=55.900211, lon.=26.529060, Alt.=122.629944m. Speed=0.684000m/h.</desc>
<speed>0.190000</speed>
</trkpt>
<trkpt lat="55.900211" lon="26.529062">
<ele>122.637756</ele>
<time>2010-06-20T14:45:33Z</time>
<desc>lat.=55.900211, lon.=26.529062, Alt.=122.637756m. Speed=1.404000m/h.</desc>
<speed>0.390000</speed>
</trkpt>
<trkpt lat="55.900208" lon="26.529078">
<ele>122.661194</ele>
<time>2010-06-20T14:45:34Z</time>
<desc>lat.=55.900208, lon.=26.529078, Alt.=122.661194m. Speed=1.512000m/h.</desc>
<speed>0.420000</speed>
</trkpt>
<trkpt lat="55.900200" lon="26.529093">
<ele>122.680725</ele>
<time>2010-06-20T14:45:35Z</time>
<desc>lat.=55.900200, lon.=26.529093, Alt.=122.680725m. Speed=1.908000m/h.</desc>
<speed>0.530000</speed>
</trkpt>
<trkpt lat="55.900200" lon="26.529095">
<ele>122.751038</ele>
<time>2010-06-20T14:45:36Z</time>
<desc>lat.=55.900200, lon.=26.529095, Alt.=122.751038m. Speed=1.620000m/h.</desc>
<speed>0.450000</speed>
</trkpt>
<trkpt lat="55.900204" lon="26.529102">
<ele>122.788147</ele>
<time>2010-06-20T14:45:37Z</time>
<desc>lat.=55.900204, lon.=26.529102, Alt.=122.788147m. Speed=1.044000m/h.</desc>
<speed>0.290000</speed>
</trkpt>
<trkpt lat="55.900196" lon="26.529116">
<ele>122.770569</ele>
<time>2010-06-20T14:45:38Z</time>
<desc>lat.=55.900196, lon.=26.529116, Alt.=122.770569m. Speed=0.936000m/h.</desc>
<speed>0.260000</speed>
</trkpt>
<trkpt lat="55.900192" lon="26.529131">
<ele>122.686584</ele>
<time>2010-06-20T14:45:39Z</time>
<desc>lat.=55.900192, lon.=26.529131, Alt.=122.686584m. Speed=1.224000m/h.</desc>
<speed>0.340000</speed>
</trkpt>
<trkpt lat="55.900188" lon="26.529125">
<ele>122.715881</ele>
<time>2010-06-20T14:45:40Z</time>
<desc>lat.=55.900188, lon.=26.529125, Alt.=122.715881m. Speed=0.828000m/h.</desc>
<speed>0.230000</speed>
</trkpt>
<trkpt lat="55.900196" lon="26.529131">
<ele>122.600647</ele>
<time>2010-06-20T14:45:41Z</time>
<desc>lat.=55.900196, lon.=26.529131, Alt.=122.600647m. Speed=0.720000m/h.</desc>
<speed>0.200000</speed>
</trkpt>
<trkpt lat="55.900196" lon="26.529131">
<ele>122.596741</ele>
<time>2010-06-20T14:45:42Z</time>
<desc>lat.=55.900196, lon.=26.529131, Alt.=122.596741m. Speed=1.260000m/h.</desc>
<speed>0.350000</speed>
</trkpt>
<trkpt lat="55.900192" lon="26.529135">
<ele>122.499084</ele>
<time>2010-06-20T14:45:43Z</time>
<desc>lat.=55.900192, lon.=26.529135, Alt.=122.499084m. Speed=1.512000m/h.</desc>
<speed>0.420000</speed>
</trkpt>
<trkpt lat="55.900192" lon="26.529131">
<ele>122.456116</ele>
<time>2010-06-20T14:45:44Z</time>
<desc>lat.=55.900192, lon.=26.529131, Alt.=122.456116m. Speed=1.656000m/h.</desc>
<speed>0.460000</speed>
</trkpt>
<trkpt lat="55.900192" lon="26.529125">
<ele>122.434631</ele>
<time>2010-06-20T14:45:45Z</time>
<desc>lat.=55.900192, lon.=26.529125, Alt.=122.434631m. Speed=1.548000m/h.</desc>
<speed>0.430000</speed>
</trkpt>
<trkpt lat="55.900196" lon="26.529123">
<ele>122.493225</ele>
<time>2010-06-20T14:45:46Z</time>
<desc>lat.=55.900196, lon.=26.529123, Alt.=122.493225m. Speed=1.656000m/h.</desc>
<speed>0.460000</speed>
</trkpt>
<trkpt lat="55.900200" lon="26.529119">
<ele>122.510803</ele>
<time>2010-06-20T14:45:47Z</time>
<desc>lat.=55.900200, lon.=26.529119, Alt.=122.510803m. Speed=1.296000m/h.</desc>
<speed>0.360000</speed>
</trkpt>
<trkpt lat="55.900211" lon="26.529110">
<ele>122.542053</ele>
<time>2010-06-20T14:45:48Z</time>
<desc>lat.=55.900211, lon.=26.529110, Alt.=122.542053m. Speed=0.756000m/h.</desc>
<speed>0.210000</speed>
</trkpt>
<trkpt lat="55.900215" lon="26.529114">
<ele>122.579163</ele>
<time>2010-06-20T14:45:49Z</time>
<desc>lat.=55.900215, lon.=26.529114, Alt.=122.579163m. Speed=0.972000m/h.</desc>
<speed>0.270000</speed>
</trkpt>
<trkpt lat="55.900211" lon="26.529116">
<ele>122.583069</ele>
<time>2010-06-20T14:45:50Z</time>
<desc>lat.=55.900211, lon.=26.529116, Alt.=122.583069m. Speed=0.648000m/h.</desc>
<speed>0.180000</speed>
</trkpt>
<trkpt lat="55.900219" lon="26.529112">
<ele>122.475647</ele>
<time>2010-06-20T14:45:51Z</time>
<desc>lat.=55.900219, lon.=26.529112, Alt.=122.475647m. Speed=0.396000m/h.</desc>
<speed>0.110000</speed>
</trkpt>
<trkpt lat="55.900219" lon="26.529112">
<ele>122.479553</ele>
<time>2010-06-20T14:45:52Z</time>
<desc>lat.=55.900219, lon.=26.529112, Alt.=122.479553m. Speed=0.468000m/h.</desc>
<speed>0.130000</speed>
</trkpt>
<trkpt lat="55.900215" lon="26.529110">
<ele>122.483459</ele>
<time>2010-06-20T14:45:53Z</time>
<desc>lat.=55.900215, lon.=26.529110, Alt.=122.483459m. Speed=0.432000m/h.</desc>
<speed>0.120000</speed>
</trkpt>
<trkpt lat="55.900215" lon="26.529110">
<ele>122.485413</ele>
<time>2010-06-20T14:45:54Z</time>
<desc>lat.=55.900215, lon.=26.529110, Alt.=122.485413m. Speed=0.792000m/h.</desc>
<speed>0.220000</speed>
</trkpt>
<trkpt lat="55.900215" lon="26.529112">
<ele>122.485413</ele>
<time>2010-06-20T14:45:55Z</time>
<desc>lat.=55.900215, lon.=26.529112, Alt.=122.485413m. Speed=0.972000m/h.</desc>
<speed>0.270000</speed>
</trkpt>
<trkpt lat="55.900211" lon="26.529116">
<ele>122.485413</ele>
<time>2010-06-20T14:45:56Z</time>
<desc>lat.=55.900211, lon.=26.529116, Alt.=122.485413m. Speed=0.792000m/h.</desc>
<speed>0.220000</speed>
</trkpt>
<trkpt lat="55.900211" lon="26.529118">
<ele>122.485413</ele>
<time>2010-06-20T14:45:57Z</time>
<desc>lat.=55.900211, lon.=26.529118, Alt.=122.485413m. Speed=1.188000m/h.</desc>
<speed>0.330000</speed>
</trkpt>
<trkpt lat="55.900200" lon="26.529135">
<ele>122.364319</ele>
<time>2010-06-20T14:45:58Z</time>
<desc>lat.=55.900200, lon.=26.529135, Alt.=122.364319m. Speed=1.620000m/h.</desc>
<speed>0.450000</speed>
</trkpt>
<trkpt lat="55.900200" lon="26.529139">
<ele>122.211975</ele>
<time>2010-06-20T14:45:59Z</time>
<desc>lat.=55.900200, lon.=26.529139, Alt.=122.211975m. Speed=1.224000m/h.</desc>
<speed>0.340000</speed>
</trkpt>
<trkpt lat="55.900192" lon="26.529142">
<ele>122.137756</ele>
<time>2010-06-20T14:46:00Z</time>
<desc>lat.=55.900192, lon.=26.529142, Alt.=122.137756m. Speed=1.620000m/h.</desc>
<speed>0.450000</speed>
</trkpt>
<trkpt lat="55.900192" lon="26.529137">
<ele>122.079163</ele>
<time>2010-06-20T14:46:01Z</time>
<desc>lat.=55.900192, lon.=26.529137, Alt.=122.079163m. Speed=1.296000m/h.</desc>
<speed>0.360000</speed>
</trkpt>
<trkpt lat="55.900188" lon="26.529139">
<ele>122.094788</ele>
<time>2010-06-20T14:46:02Z</time>
<desc>lat.=55.900188, lon.=26.529139, Alt.=122.094788m. Speed=1.620000m/h.</desc>
<speed>0.450000</speed>
</trkpt>
<trkpt lat="55.900188" lon="26.529133">
<ele>121.983459</ele>
<time>2010-06-20T14:46:03Z</time>
<desc>lat.=55.900188, lon.=26.529133, Alt.=121.983459m. Speed=1.476000m/h.</desc>
<speed>0.410000</speed>
</trkpt>
<trkpt lat="55.900188" lon="26.529127">
<ele>121.991272</ele>
<time>2010-06-20T14:46:04Z</time>
<desc>lat.=55.900188, lon.=26.529127, Alt.=121.991272m. Speed=0.972000m/h.</desc>
<speed>0.270000</speed>
</trkpt>
<trkpt lat="55.900188" lon="26.529129">
<ele>121.801819</ele>
<time>2010-06-20T14:46:05Z</time>
<desc>lat.=55.900188, lon.=26.529129, Alt.=121.801819m. Speed=0.792000m/h.</desc>
<speed>0.220000</speed>
</trkpt>
<trkpt lat="55.900181" lon="26.529121">
<ele>121.682678</ele>
<time>2010-06-20T14:46:06Z</time>
<desc>lat.=55.900181, lon.=26.529121, Alt.=121.682678m. Speed=0.576000m/h.</desc>
<speed>0.160000</speed>
</trkpt>
<trkpt lat="55.900181" lon="26.529118">
<ele>121.637756</ele>
<time>2010-06-20T14:46:07Z</time>
<desc>lat.=55.900181, lon.=26.529118, Alt.=121.637756m. Speed=0.432000m/h.</desc>
<speed>0.120000</speed>
</trkpt>
<trkpt lat="55.900181" lon="26.529118">
<ele>121.641663</ele>
<time>2010-06-20T14:46:08Z</time>
<desc>lat.=55.900181, lon.=26.529118, Alt.=121.641663m. Speed=0.504000m/h.</desc>
<speed>0.140000</speed>
</trkpt>
<trkpt lat="55.900181" lon="26.529114">
<ele>121.645569</ele>
<time>2010-06-20T14:46:09Z</time>
<desc>lat.=55.900181, lon.=26.529114, Alt.=121.645569m. Speed=1.008000m/h.</desc>
<speed>0.280000</speed>
</trkpt>
<trkpt lat="55.900181" lon="26.529110">
<ele>121.653381</ele>
<time>2010-06-20T14:46:10Z</time>
<desc>lat.=55.900181, lon.=26.529110, Alt.=121.653381m. Speed=1.296000m/h.</desc>
<speed>0.360000</speed>
</trkpt>
<trkpt lat="55.900185" lon="26.529104">
<ele>121.751038</ele>
<time>2010-06-20T14:46:11Z</time>
<desc>lat.=55.900185, lon.=26.529104, Alt.=121.751038m. Speed=0.360000m/h.</desc>
<speed>0.100000</speed>
</trkpt>
<trkpt lat="55.900185" lon="26.529091">
<ele>121.866272</ele>
<time>2010-06-20T14:46:12Z</time>
<desc>lat.=55.900185, lon.=26.529091, Alt.=121.866272m. Speed=0.540000m/h.</desc>
<speed>0.150000</speed>
</trkpt>
<trkpt lat="55.900185" lon="26.529089">
<ele>121.903381</ele>
<time>2010-06-20T14:46:13Z</time>
<desc>lat.=55.900185, lon.=26.529089, Alt.=121.903381m. Speed=0.324000m/h.</desc>
<speed>0.090000</speed>
</trkpt>
<trkpt lat="55.900185" lon="26.529078">
<ele>121.997131</ele>
<time>2010-06-20T14:46:14Z</time>
<desc>lat.=55.900185, lon.=26.529078, Alt.=121.997131m. Speed=0.720000m/h.</desc>
<speed>0.200000</speed>
</trkpt>
<trkpt lat="55.900181" lon="26.529076">
<ele>122.004944</ele>
<time>2010-06-20T14:46:15Z</time>
<desc>lat.=55.900181, lon.=26.529076, Alt.=122.004944m. Speed=0.684000m/h.</desc>
<speed>0.190000</speed>
</trkpt>
<trkpt lat="55.900181" lon="26.529074">
<ele>122.010803</ele>
<time>2010-06-20T14:46:16Z</time>
<desc>lat.=55.900181, lon.=26.529074, Alt.=122.010803m. Speed=0.324000m/h.</desc>
<speed>0.090000</speed>
</trkpt>
<trkpt lat="55.900181" lon="26.529074">
<ele>122.012756</ele>
<time>2010-06-20T14:46:17Z</time>
<desc>lat.=55.900181, lon.=26.529074, Alt.=122.012756m. Speed=1.044000m/h.</desc>
<speed>0.290000</speed>
</trkpt>
<trkpt lat="55.900181" lon="26.529068">
<ele>122.012756</ele>
<time>2010-06-20T14:46:18Z</time>
<desc>lat.=55.900181, lon.=26.529068, Alt.=122.012756m. Speed=0.792000m/h.</desc>
<speed>0.220000</speed>
</trkpt>
<trkpt lat="55.900181" lon="26.529064">
<ele>122.012756</ele>
<time>2010-06-20T14:46:19Z</time>
<desc>lat.=55.900181, lon.=26.529064, Alt.=122.012756m. Speed=1.080000m/h.</desc>
<speed>0.300000</speed>
</trkpt>
<trkpt lat="55.900188" lon="26.529053">
<ele>122.057678</ele>
<time>2010-06-20T14:46:20Z</time>
<desc>lat.=55.900188, lon.=26.529053, Alt.=122.057678m. Speed=1.296000m/h.</desc>
<speed>0.360000</speed>
</trkpt>
<trkpt lat="55.900188" lon="26.529053">
<ele>122.225647</ele>
<time>2010-06-20T14:46:21Z</time>
<desc>lat.=55.900188, lon.=26.529053, Alt.=122.225647m. Speed=0.612000m/h.</desc>
<speed>0.170000</speed>
</trkpt>
<trkpt lat="55.900196" lon="26.529060">
<ele>122.133850</ele>
<time>2010-06-20T14:46:22Z</time>
<desc>lat.=55.900196, lon.=26.529060, Alt.=122.133850m. Speed=0.360000m/h.</desc>
<speed>0.100000</speed>
</trkpt>
<trkpt lat="55.900196" lon="26.529064">
<ele>122.108459</ele>
<time>2010-06-20T14:46:23Z</time>
<desc>lat.=55.900196, lon.=26.529064, Alt.=122.108459m. Speed=0.180000m/h.</desc>
<speed>0.050000</speed>
</trkpt>
<trkpt lat="55.900200" lon="26.529058">
<ele>122.170959</ele>
<time>2010-06-20T14:46:24Z</time>
<desc>lat.=55.900200, lon.=26.529058, Alt.=122.170959m. Speed=0.612000m/h.</desc>
<speed>0.170000</speed>
</trkpt>
<trkpt lat="55.900200" lon="26.529058">
<ele>122.174866</ele>
<time>2010-06-20T14:46:25Z</time>
<desc>lat.=55.900200, lon.=26.529058, Alt.=122.174866m. Speed=0.612000m/h.</desc>
<speed>0.170000</speed>
</trkpt>
<trkpt lat="55.900204" lon="26.529058">
<ele>122.172913</ele>
<time>2010-06-20T14:46:26Z</time>
<desc>lat.=55.900204, lon.=26.529058, Alt.=122.172913m. Speed=1.152000m/h.</desc>
<speed>0.320000</speed>
</trkpt>
<trkpt lat="55.900211" lon="26.529041">
<ele>122.208069</ele>
<time>2010-06-20T14:46:27Z</time>
<desc>lat.=55.900211, lon.=26.529041, Alt.=122.208069m. Speed=1.368000m/h.</desc>
<speed>0.380000</speed>
</trkpt>
<trkpt lat="55.900211" lon="26.529043">
<ele>122.194397</ele>
<time>2010-06-20T14:46:28Z</time>
<desc>lat.=55.900211, lon.=26.529043, Alt.=122.194397m. Speed=0.792000m/h.</desc>
<speed>0.220000</speed>
</trkpt>
<trkpt lat="55.900215" lon="26.529043">
<ele>122.215881</ele>
<time>2010-06-20T14:46:29Z</time>
<desc>lat.=55.900215, lon.=26.529043, Alt.=122.215881m. Speed=0.648000m/h.</desc>
<speed>0.180000</speed>
</trkpt>
<trkpt lat="55.900219" lon="26.529041">
<ele>122.133850</ele>
<time>2010-06-20T14:46:30Z</time>
<desc>lat.=55.900219, lon.=26.529041, Alt.=122.133850m. Speed=0.612000m/h.</desc>
<speed>0.170000</speed>
</trkpt>
<trkpt lat="55.900219" lon="26.529034">
<ele>122.030334</ele>
<time>2010-06-20T14:46:31Z</time>
<desc>lat.=55.900219, lon.=26.529034, Alt.=122.030334m. Speed=0.864000m/h.</desc>
<speed>0.240000</speed>
</trkpt>
<trkpt lat="55.900219" lon="26.529032">
<ele>122.032288</ele>
<time>2010-06-20T14:46:32Z</time>
<desc>lat.=55.900219, lon.=26.529032, Alt.=122.032288m. Speed=0.432000m/h.</desc>
<speed>0.120000</speed>
</trkpt>
<trkpt lat="55.900215" lon="26.529030">
<ele>122.032288</ele>
<time>2010-06-20T14:46:33Z</time>
<desc>lat.=55.900215, lon.=26.529030, Alt.=122.032288m. Speed=0.684000m/h.</desc>
<speed>0.190000</speed>
</trkpt>
<trkpt lat="55.900215" lon="26.529026">
<ele>122.032288</ele>
<time>2010-06-20T14:46:34Z</time>
<desc>lat.=55.900215, lon.=26.529026, Alt.=122.032288m. Speed=0.468000m/h.</desc>
<speed>0.130000</speed>
</trkpt>
<trkpt lat="55.900215" lon="26.529024">
<ele>122.030334</ele>
<time>2010-06-20T14:46:35Z</time>
<desc>lat.=55.900215, lon.=26.529024, Alt.=122.030334m. Speed=0.072000m/h.</desc>
<speed>0.020000</speed>
</trkpt>
<trkpt lat="55.900219" lon="26.529024">
<ele>122.028381</ele>
<time>2010-06-20T14:46:36Z</time>
<desc>lat.=55.900219, lon.=26.529024, Alt.=122.028381m. Speed=0.252000m/h.</desc>
<speed>0.070000</speed>
</trkpt>
<trkpt lat="55.900219" lon="26.529026">
<ele>122.030334</ele>
<time>2010-06-20T14:46:37Z</time>
<desc>lat.=55.900219, lon.=26.529026, Alt.=122.030334m. Speed=1.188000m/h.</desc>
<speed>0.330000</speed>
</trkpt>
<trkpt lat="55.900227" lon="26.529026">
<ele>122.026428</ele>
<time>2010-06-20T14:46:38Z</time>
<desc>lat.=55.900227, lon.=26.529026, Alt.=122.026428m. Speed=0.540000m/h.</desc>
<speed>0.150000</speed>
</trkpt>
<trkpt lat="55.900227" lon="26.529030">
<ele>122.010803</ele>
<time>2010-06-20T14:46:39Z</time>
<desc>lat.=55.900227, lon.=26.529030, Alt.=122.010803m. Speed=0.792000m/h.</desc>
<speed>0.220000</speed>
</trkpt>
<trkpt lat="55.900230" lon="26.529020">
<ele>122.032288</ele>
<time>2010-06-20T14:46:40Z</time>
<desc>lat.=55.900230, lon.=26.529020, Alt.=122.032288m. Speed=0.180000m/h.</desc>
<speed>0.050000</speed>
</trkpt>
<trkpt lat="55.900238" lon="26.529013">
<ele>122.063538</ele>
<time>2010-06-20T14:46:41Z</time>
<desc>lat.=55.900238, lon.=26.529013, Alt.=122.063538m. Speed=0.576000m/h.</desc>
<speed>0.160000</speed>
</trkpt>
<trkpt lat="55.900238" lon="26.529015">
<ele>122.065491</ele>
<time>2010-06-20T14:46:42Z</time>
<desc>lat.=55.900238, lon.=26.529015, Alt.=122.065491m. Speed=0.936000m/h.</desc>
<speed>0.260000</speed>
</trkpt>
<trkpt lat="55.900242" lon="26.529016">
<ele>122.073303</ele>
<time>2010-06-20T14:46:43Z</time>
<desc>lat.=55.900242, lon.=26.529016, Alt.=122.073303m. Speed=0.648000m/h.</desc>
<speed>0.180000</speed>
</trkpt>
<trkpt lat="55.900242" lon="26.529015">
<ele>122.077209</ele>
<time>2010-06-20T14:46:44Z</time>
<desc>lat.=55.900242, lon.=26.529015, Alt.=122.077209m. Speed=0.828000m/h.</desc>
<speed>0.230000</speed>
</trkpt>
<trkpt lat="55.900246" lon="26.529013">
<ele>122.083069</ele>
<time>2010-06-20T14:46:45Z</time>
<desc>lat.=55.900246, lon.=26.529013, Alt.=122.083069m. Speed=0.684000m/h.</desc>
<speed>0.190000</speed>
</trkpt>
<trkpt lat="55.900246" lon="26.529011">
<ele>122.086975</ele>
<time>2010-06-20T14:46:46Z</time>
<desc>lat.=55.900246, lon.=26.529011, Alt.=122.086975m. Speed=0.684000m/h.</desc>
<speed>0.190000</speed>
</trkpt>
<trkpt lat="55.900246" lon="26.529009">
<ele>122.086975</ele>
<time>2010-06-20T14:46:47Z</time>
<desc>lat.=55.900246, lon.=26.529009, Alt.=122.086975m. Speed=0.612000m/h.</desc>
<speed>0.170000</speed>
</trkpt>
<trkpt lat="55.900249" lon="26.529005">
<ele>122.092834</ele>
<time>2010-06-20T14:46:48Z</time>
<desc>lat.=55.900249, lon.=26.529005, Alt.=122.092834m. Speed=1.224000m/h.</desc>
<speed>0.340000</speed>
</trkpt>
<trkpt lat="55.900246" lon="26.528988">
<ele>122.221741</ele>
<time>2010-06-20T14:46:49Z</time>
<desc>lat.=55.900246, lon.=26.528988, Alt.=122.221741m. Speed=1.764000m/h.</desc>
<speed>0.490000</speed>
</trkpt>
<trkpt lat="55.900246" lon="26.528988">
<ele>122.264709</ele>
<time>2010-06-20T14:46:50Z</time>
<desc>lat.=55.900246, lon.=26.528988, Alt.=122.264709m. Speed=1.260000m/h.</desc>
<speed>0.350000</speed>
</trkpt>
<trkpt lat="55.900246" lon="26.528984">
<ele>122.317444</ele>
<time>2010-06-20T14:46:51Z</time>
<desc>lat.=55.900246, lon.=26.528984, Alt.=122.317444m. Speed=0.936000m/h.</desc>
<speed>0.260000</speed>
</trkpt>
<trkpt lat="55.900249" lon="26.528969">
<ele>122.377991</ele>
<time>2010-06-20T14:46:52Z</time>
<desc>lat.=55.900249, lon.=26.528969, Alt.=122.377991m. Speed=1.728000m/h.</desc>
<speed>0.480000</speed>
</trkpt>
<trkpt lat="55.900253" lon="26.528955">
<ele>122.401428</ele>
<time>2010-06-20T14:46:53Z</time>
<desc>lat.=55.900253, lon.=26.528955, Alt.=122.401428m. Speed=2.016000m/h.</desc>
<speed>0.560000</speed>
</trkpt>
<trkpt lat="55.900253" lon="26.528957">
<ele>122.504944</ele>
<time>2010-06-20T14:46:54Z</time>
<desc>lat.=55.900253, lon.=26.528957, Alt.=122.504944m. Speed=1.440000m/h.</desc>
<speed>0.400000</speed>
</trkpt>
<trkpt lat="55.900257" lon="26.528952">
<ele>122.544006</ele>
<time>2010-06-20T14:46:55Z</time>
<desc>lat.=55.900257, lon.=26.528952, Alt.=122.544006m. Speed=1.584000m/h.</desc>
<speed>0.440000</speed>
</trkpt>
<trkpt lat="55.900261" lon="26.528946">
<ele>122.561584</ele>
<time>2010-06-20T14:46:56Z</time>
<desc>lat.=55.900261, lon.=26.528946, Alt.=122.561584m. Speed=1.656000m/h.</desc>
<speed>0.460000</speed>
</trkpt>
<trkpt lat="55.900257" lon="26.528948">
<ele>122.518616</ele>
<time>2010-06-20T14:46:57Z</time>
<desc>lat.=55.900257, lon.=26.528948, Alt.=122.518616m. Speed=1.080000m/h.</desc>
<speed>0.300000</speed>
</trkpt>
<trkpt lat="55.900249" lon="26.528955">
<ele>122.516663</ele>
<time>2010-06-20T14:46:58Z</time>
<desc>lat.=55.900249, lon.=26.528955, Alt.=122.516663m. Speed=0.432000m/h.</desc>
<speed>0.120000</speed>
</trkpt>
<trkpt lat="55.900246" lon="26.528957">
<ele>122.711975</ele>
<time>2010-06-20T14:46:59Z</time>
<desc>lat.=55.900246, lon.=26.528957, Alt.=122.711975m. Speed=0.288000m/h.</desc>
<speed>0.080000</speed>
</trkpt>
<trkpt lat="55.900242" lon="26.528959">
<ele>122.692444</ele>
<time>2010-06-20T14:47:00Z</time>
<desc>lat.=55.900242, lon.=26.528959, Alt.=122.692444m. Speed=0.252000m/h.</desc>
<speed>0.070000</speed>
</trkpt>
<trkpt lat="55.900230" lon="26.528971">
<ele>122.645569</ele>
<time>2010-06-20T14:47:01Z</time>
<desc>lat.=55.900230, lon.=26.528971, Alt.=122.645569m. Speed=1.260000m/h.</desc>
<speed>0.350000</speed>
</trkpt>
<trkpt lat="55.900223" lon="26.528980">
<ele>122.811584</ele>
<time>2010-06-20T14:47:02Z</time>
<desc>lat.=55.900223, lon.=26.528980, Alt.=122.811584m. Speed=1.692000m/h.</desc>
<speed>0.470000</speed>
</trkpt>
<trkpt lat="55.900215" lon="26.528982">
<ele>123.010803</ele>
<time>2010-06-20T14:47:03Z</time>
<desc>lat.=55.900215, lon.=26.528982, Alt.=123.010803m. Speed=1.908000m/h.</desc>
<speed>0.530000</speed>
</trkpt>
<trkpt lat="55.900204" lon="26.528984">
<ele>123.141663</ele>
<time>2010-06-20T14:47:04Z</time>
<desc>lat.=55.900204, lon.=26.528984, Alt.=123.141663m. Speed=2.376000m/h.</desc>
<speed>0.660000</speed>
</trkpt>
<trkpt lat="55.900200" lon="26.528988">
<ele>123.151428</ele>
<time>2010-06-20T14:47:05Z</time>
<desc>lat.=55.900200, lon.=26.528988, Alt.=123.151428m. Speed=2.124000m/h.</desc>
<speed>0.590000</speed>
</trkpt>
<trkpt lat="55.900196" lon="26.528976">
<ele>123.336975</ele>
<time>2010-06-20T14:47:06Z</time>
<desc>lat.=55.900196, lon.=26.528976, Alt.=123.336975m. Speed=1.908000m/h.</desc>
<speed>0.530000</speed>
</trkpt>
<trkpt lat="55.900200" lon="26.528978">
<ele>123.426819</ele>
<time>2010-06-20T14:47:07Z</time>
<desc>lat.=55.900200, lon.=26.528978, Alt.=123.426819m. Speed=1.692000m/h.</desc>
<speed>0.470000</speed>
</trkpt>
<trkpt lat="55.900200" lon="26.528965">
<ele>123.559631</ele>
<time>2010-06-20T14:47:08Z</time>
<desc>lat.=55.900200, lon.=26.528965, Alt.=123.559631m. Speed=1.368000m/h.</desc>
<speed>0.380000</speed>
</trkpt>
<trkpt lat="55.900196" lon="26.528967">
<ele>123.606506</ele>
<time>2010-06-20T14:47:09Z</time>
<desc>lat.=55.900196, lon.=26.528967, Alt.=123.606506m. Speed=1.512000m/h.</desc>
<speed>0.420000</speed>
</trkpt>
<trkpt lat="55.900196" lon="26.528971">
<ele>123.669006</ele>
<time>2010-06-20T14:47:10Z</time>
<desc>lat.=55.900196, lon.=26.528971, Alt.=123.669006m. Speed=1.476000m/h.</desc>
<speed>0.410000</speed>
</trkpt>
<trkpt lat="55.900204" lon="26.528963">
<ele>123.741272</ele>
<time>2010-06-20T14:47:11Z</time>
<desc>lat.=55.900204, lon.=26.528963, Alt.=123.741272m. Speed=0.936000m/h.</desc>
<speed>0.260000</speed>
</trkpt>
<trkpt lat="55.900200" lon="26.528963">
<ele>123.776428</ele>
<time>2010-06-20T14:47:12Z</time>
<desc>lat.=55.900200, lon.=26.528963, Alt.=123.776428m. Speed=0.864000m/h.</desc>
<speed>0.240000</speed>
</trkpt>
<trkpt lat="55.900208" lon="26.528955">
<ele>123.915100</ele>
<time>2010-06-20T14:47:13Z</time>
<desc>lat.=55.900208, lon.=26.528955, Alt.=123.915100m. Speed=0.396000m/h.</desc>
<speed>0.110000</speed>
</trkpt>
<trkpt lat="55.900208" lon="26.528950">
<ele>123.954163</ele>
<time>2010-06-20T14:47:14Z</time>
<desc>lat.=55.900208, lon.=26.528950, Alt.=123.954163m. Speed=0.396000m/h.</desc>
<speed>0.110000</speed>
</trkpt>
<trkpt lat="55.900208" lon="26.528948">
<ele>123.971741</ele>
<time>2010-06-20T14:47:15Z</time>
<desc>lat.=55.900208, lon.=26.528948, Alt.=123.971741m. Speed=1.116000m/h.</desc>
<speed>0.310000</speed>
</trkpt>
<trkpt lat="55.900219" lon="26.528913">
<ele>123.965881</ele>
<time>2010-06-20T14:47:16Z</time>
<desc>lat.=55.900219, lon.=26.528913, Alt.=123.965881m. Speed=2.484000m/h.</desc>
<speed>0.690000</speed>
</trkpt>
<trkpt lat="55.900234" lon="26.528906">
<ele>123.956116</ele>
<time>2010-06-20T14:47:17Z</time>
<desc>lat.=55.900234, lon.=26.528906, Alt.=123.956116m. Speed=2.052000m/h.</desc>
<speed>0.570000</speed>
</trkpt>
<trkpt lat="55.900242" lon="26.528910">
<ele>123.881897</ele>
<time>2010-06-20T14:47:18Z</time>
<desc>lat.=55.900242, lon.=26.528910, Alt.=123.881897m. Speed=1.620000m/h.</desc>
<speed>0.450000</speed>
</trkpt>
<trkpt lat="55.900253" lon="26.528898">
<ele>123.803772</ele>
<time>2010-06-20T14:47:19Z</time>
<desc>lat.=55.900253, lon.=26.528898, Alt.=123.803772m. Speed=2.052000m/h.</desc>
<speed>0.570000</speed>
</trkpt>
<trkpt lat="55.900265" lon="26.528887">
<ele>123.723694</ele>
<time>2010-06-20T14:47:20Z</time>
<desc>lat.=55.900265, lon.=26.528887, Alt.=123.723694m. Speed=2.196000m/h.</desc>
<speed>0.610000</speed>
</trkpt>
<trkpt lat="55.900280" lon="26.528875">
<ele>123.704163</ele>
<time>2010-06-20T14:47:21Z</time>
<desc>lat.=55.900280, lon.=26.528875, Alt.=123.704163m. Speed=2.808000m/h.</desc>
<speed>0.780000</speed>
</trkpt>
<trkpt lat="55.900284" lon="26.528866">
<ele>123.686584</ele>
<time>2010-06-20T14:47:22Z</time>
<desc>lat.=55.900284, lon.=26.528866, Alt.=123.686584m. Speed=2.304000m/h.</desc>
<speed>0.640000</speed>
</trkpt>
<trkpt lat="55.900288" lon="26.528858">
<ele>123.676819</ele>
<time>2010-06-20T14:47:23Z</time>
<desc>lat.=55.900288, lon.=26.528858, Alt.=123.676819m. Speed=2.196000m/h.</desc>
<speed>0.610000</speed>
</trkpt>
<trkpt lat="55.900288" lon="26.528860">
<ele>123.692444</ele>
<time>2010-06-20T14:47:24Z</time>
<desc>lat.=55.900288, lon.=26.528860, Alt.=123.692444m. Speed=1.476000m/h.</desc>
<speed>0.410000</speed>
</trkpt>
<trkpt lat="55.900288" lon="26.528866">
<ele>123.633850</ele>
<time>2010-06-20T14:47:25Z</time>
<desc>lat.=55.900288, lon.=26.528866, Alt.=123.633850m. Speed=0.936000m/h.</desc>
<speed>0.260000</speed>
</trkpt>
<trkpt lat="55.900291" lon="26.528856">
<ele>123.633850</ele>
<time>2010-06-20T14:47:26Z</time>
<desc>lat.=55.900291, lon.=26.528856, Alt.=123.633850m. Speed=1.296000m/h.</desc>
<speed>0.360000</speed>
</trkpt>
<trkpt lat="55.900295" lon="26.528860">
<ele>123.678772</ele>
<time>2010-06-20T14:47:27Z</time>
<desc>lat.=55.900295, lon.=26.528860, Alt.=123.678772m. Speed=1.116000m/h.</desc>
<speed>0.310000</speed>
</trkpt>
<trkpt lat="55.900288" lon="26.528868">
<ele>123.735413</ele>
<time>2010-06-20T14:47:28Z</time>
<desc>lat.=55.900288, lon.=26.528868, Alt.=123.735413m. Speed=0.324000m/h.</desc>
<speed>0.090000</speed>
</trkpt>
<trkpt lat="55.900284" lon="26.528872">
<ele>123.766663</ele>
<time>2010-06-20T14:47:29Z</time>
<desc>lat.=55.900284, lon.=26.528872, Alt.=123.766663m. Speed=0.144000m/h.</desc>
<speed>0.040000</speed>
</trkpt>
<trkpt lat="55.900280" lon="26.528873">
<ele>123.799866</ele>
<time>2010-06-20T14:47:30Z</time>
<desc>lat.=55.900280, lon.=26.528873, Alt.=123.799866m. Speed=0.468000m/h.</desc>
<speed>0.130000</speed>
</trkpt>
<trkpt lat="55.900276" lon="26.528873">
<ele>123.811584</ele>
<time>2010-06-20T14:47:31Z</time>
<desc>lat.=55.900276, lon.=26.528873, Alt.=123.811584m. Speed=0.360000m/h.</desc>
<speed>0.100000</speed>
</trkpt>
<trkpt lat="55.900276" lon="26.528873">
<ele>123.819397</ele>
<time>2010-06-20T14:47:32Z</time>
<desc>lat.=55.900276, lon.=26.528873, Alt.=123.819397m. Speed=0.684000m/h.</desc>
<speed>0.190000</speed>
</trkpt>
<trkpt lat="55.900280" lon="26.528870">
<ele>123.825256</ele>
<time>2010-06-20T14:47:33Z</time>
<desc>lat.=55.900280, lon.=26.528870, Alt.=123.825256m. Speed=0.288000m/h.</desc>
<speed>0.080000</speed>
</trkpt>
<trkpt lat="55.900276" lon="26.528870">
<ele>123.833069</ele>
<time>2010-06-20T14:47:34Z</time>
<desc>lat.=55.900276, lon.=26.528870, Alt.=123.833069m. Speed=0.288000m/h.</desc>
<speed>0.080000</speed>
</trkpt>
<trkpt lat="55.900276" lon="26.528872">
<ele>123.844788</ele>
<time>2010-06-20T14:47:35Z</time>
<desc>lat.=55.900276, lon.=26.528872, Alt.=123.844788m. Speed=0.756000m/h.</desc>
<speed>0.210000</speed>
</trkpt>
<trkpt lat="55.900280" lon="26.528872">
<ele>123.858459</ele>
<time>2010-06-20T14:47:36Z</time>
<desc>lat.=55.900280, lon.=26.528872, Alt.=123.858459m. Speed=0.468000m/h.</desc>
<speed>0.130000</speed>
</trkpt>
<trkpt lat="55.900280" lon="26.528870">
<ele>123.876038</ele>
<time>2010-06-20T14:47:37Z</time>
<desc>lat.=55.900280, lon.=26.528870, Alt.=123.876038m. Speed=1.332000m/h.</desc>
<speed>0.370000</speed>
</trkpt>
<trkpt lat="55.900272" lon="26.528866">
<ele>123.975647</ele>
<time>2010-06-20T14:47:38Z</time>
<desc>lat.=55.900272, lon.=26.528866, Alt.=123.975647m. Speed=0.828000m/h.</desc>
<speed>0.230000</speed>
</trkpt>
<trkpt lat="55.900269" lon="26.528875">
<ele>123.961975</ele>
<time>2010-06-20T14:47:39Z</time>
<desc>lat.=55.900269, lon.=26.528875, Alt.=123.961975m. Speed=0.216000m/h.</desc>
<speed>0.060000</speed>
</trkpt>
<trkpt lat="55.900257" lon="26.528889">
<ele>123.846741</ele>
<time>2010-06-20T14:47:40Z</time>
<desc>lat.=55.900257, lon.=26.528889, Alt.=123.846741m. Speed=1.296000m/h.</desc>
<speed>0.360000</speed>
</trkpt>
<trkpt lat="55.900249" lon="26.528908">
<ele>123.778381</ele>
<time>2010-06-20T14:47:41Z</time>
<desc>lat.=55.900249, lon.=26.528908, Alt.=123.778381m. Speed=1.872000m/h.</desc>
<speed>0.520000</speed>
</trkpt>
<trkpt lat="55.900253" lon="26.528904">
<ele>123.760803</ele>
<time>2010-06-20T14:47:42Z</time>
<desc>lat.=55.900253, lon.=26.528904, Alt.=123.760803m. Speed=1.080000m/h.</desc>
<speed>0.300000</speed>
</trkpt>
<trkpt lat="55.900246" lon="26.528906">
<ele>123.752991</ele>
<time>2010-06-20T14:47:43Z</time>
<desc>lat.=55.900246, lon.=26.528906, Alt.=123.752991m. Speed=1.152000m/h.</desc>
<speed>0.320000</speed>
</trkpt>
<trkpt lat="55.900246" lon="26.528913">
<ele>123.717834</ele>
<time>2010-06-20T14:47:44Z</time>
<desc>lat.=55.900246, lon.=26.528913, Alt.=123.717834m. Speed=1.080000m/h.</desc>
<speed>0.300000</speed>
</trkpt>
<trkpt lat="55.900257" lon="26.528902">
<ele>123.715881</ele>
<time>2010-06-20T14:47:45Z</time>
<desc>lat.=55.900257, lon.=26.528902, Alt.=123.715881m. Speed=0.576000m/h.</desc>
<speed>0.160000</speed>
</trkpt>
<trkpt lat="55.900257" lon="26.528893">
<ele>123.715881</ele>
<time>2010-06-20T14:47:46Z</time>
<desc>lat.=55.900257, lon.=26.528893, Alt.=123.715881m. Speed=0.000000m/h.</desc>
<speed>0.000000</speed>
</trkpt>
<trkpt lat="55.900257" lon="26.528879">
<ele>123.665100</ele>
<time>2010-06-20T14:47:47Z</time>
<desc>lat.=55.900257, lon.=26.528879, Alt.=123.665100m. Speed=0.504000m/h.</desc>
<speed>0.140000</speed>
</trkpt>
<trkpt lat="55.900253" lon="26.528873">
<ele>123.627991</ele>
<time>2010-06-20T14:47:48Z</time>
<desc>lat.=55.900253, lon.=26.528873, Alt.=123.627991m. Speed=0.288000m/h.</desc>
<speed>0.080000</speed>
</trkpt>
<trkpt lat="55.900257" lon="26.528872">
<ele>123.631897</ele>
<time>2010-06-20T14:47:49Z</time>
<desc>lat.=55.900257, lon.=26.528872, Alt.=123.631897m. Speed=0.864000m/h.</desc>
<speed>0.240000</speed>
</trkpt>
<trkpt lat="55.900257" lon="26.528868">
<ele>123.635803</ele>
<time>2010-06-20T14:47:50Z</time>
<desc>lat.=55.900257, lon.=26.528868, Alt.=123.635803m. Speed=0.828000m/h.</desc>
<speed>0.230000</speed>
</trkpt>
<trkpt lat="55.900253" lon="26.528866">
<ele>123.639709</ele>
<time>2010-06-20T14:47:51Z</time>
<desc>lat.=55.900253, lon.=26.528866, Alt.=123.639709m. Speed=0.504000m/h.</desc>
<speed>0.140000</speed>
</trkpt>
<trkpt lat="55.900253" lon="26.528862">
<ele>123.643616</ele>
<time>2010-06-20T14:47:52Z</time>
<desc>lat.=55.900253, lon.=26.528862, Alt.=123.643616m. Speed=0.252000m/h.</desc>
<speed>0.070000</speed>
</trkpt>
<trkpt lat="55.900253" lon="26.528862">
<ele>123.647522</ele>
<time>2010-06-20T14:47:53Z</time>
<desc>lat.=55.900253, lon.=26.528862, Alt.=123.647522m. Speed=0.612000m/h.</desc>
<speed>0.170000</speed>
</trkpt>
<trkpt lat="55.900257" lon="26.528862">
<ele>123.653381</ele>
<time>2010-06-20T14:47:54Z</time>
<desc>lat.=55.900257, lon.=26.528862, Alt.=123.653381m. Speed=0.900000m/h.</desc>
<speed>0.250000</speed>
</trkpt>
<trkpt lat="55.900257" lon="26.528860">
<ele>123.657288</ele>
<time>2010-06-20T14:47:55Z</time>
<desc>lat.=55.900257, lon.=26.528860, Alt.=123.657288m. Speed=1.332000m/h.</desc>
<speed>0.370000</speed>
</trkpt>
<trkpt lat="55.900261" lon="26.528870">
<ele>123.563538</ele>
<time>2010-06-20T14:47:56Z</time>
<desc>lat.=55.900261, lon.=26.528870, Alt.=123.563538m. Speed=0.756000m/h.</desc>
<speed>0.210000</speed>
</trkpt>
<trkpt lat="55.900261" lon="26.528872">
<ele>123.499084</ele>
<time>2010-06-20T14:47:57Z</time>
<desc>lat.=55.900261, lon.=26.528872, Alt.=123.499084m. Speed=0.360000m/h.</desc>
<speed>0.100000</speed>
</trkpt>
<trkpt lat="55.900257" lon="26.528883">
<ele>123.354553</ele>
<time>2010-06-20T14:47:58Z</time>
<desc>lat.=55.900257, lon.=26.528883, Alt.=123.354553m. Speed=0.216000m/h.</desc>
<speed>0.060000</speed>
</trkpt>
<trkpt lat="55.900261" lon="26.528896">
<ele>123.215881</ele>
<time>2010-06-20T14:47:59Z</time>
<desc>lat.=55.900261, lon.=26.528896, Alt.=123.215881m. Speed=1.008000m/h.</desc>
<speed>0.280000</speed>
</trkpt>
<trkpt lat="55.900261" lon="26.528900">
<ele>123.217834</ele>
<time>2010-06-20T14:48:00Z</time>
<desc>lat.=55.900261, lon.=26.528900, Alt.=123.217834m. Speed=0.900000m/h.</desc>
<speed>0.250000</speed>
</trkpt>
<trkpt lat="55.900265" lon="26.528900">
<ele>123.219788</ele>
<time>2010-06-20T14:48:01Z</time>
<desc>lat.=55.900265, lon.=26.528900, Alt.=123.219788m. Speed=0.720000m/h.</desc>
<speed>0.200000</speed>
</trkpt>
<trkpt lat="55.900265" lon="26.528898">
<ele>123.223694</ele>
<time>2010-06-20T14:48:02Z</time>
<desc>lat.=55.900265, lon.=26.528898, Alt.=123.223694m. Speed=0.468000m/h.</desc>
<speed>0.130000</speed>
</trkpt>
<trkpt lat="55.900269" lon="26.528896">
<ele>123.227600</ele>
<time>2010-06-20T14:48:03Z</time>
<desc>lat.=55.900269, lon.=26.528896, Alt.=123.227600m. Speed=0.072000m/h.</desc>
<speed>0.020000</speed>
</trkpt>
<trkpt lat="55.900269" lon="26.528898">
<ele>123.233459</ele>
<time>2010-06-20T14:48:04Z</time>
<desc>lat.=55.900269, lon.=26.528898, Alt.=123.233459m. Speed=0.756000m/h.</desc>
<speed>0.210000</speed>
</trkpt>
<trkpt lat="55.900265" lon="26.528902">
<ele>123.235413</ele>
<time>2010-06-20T14:48:05Z</time>
<desc>lat.=55.900265, lon.=26.528902, Alt.=123.235413m. Speed=1.332000m/h.</desc>
<speed>0.370000</speed>
</trkpt>
<trkpt lat="55.900265" lon="26.528912">
<ele>123.174866</ele>
<time>2010-06-20T14:48:06Z</time>
<desc>lat.=55.900265, lon.=26.528912, Alt.=123.174866m. Speed=1.008000m/h.</desc>
<speed>0.280000</speed>
</trkpt>
<trkpt lat="55.900261" lon="26.528931">
<ele>123.096741</ele>
<time>2010-06-20T14:48:07Z</time>
<desc>lat.=55.900261, lon.=26.528931, Alt.=123.096741m. Speed=1.404000m/h.</desc>
<speed>0.390000</speed>
</trkpt>
<trkpt lat="55.900261" lon="26.528940">
<ele>123.014709</ele>
<time>2010-06-20T14:48:08Z</time>
<desc>lat.=55.900261, lon.=26.528940, Alt.=123.014709m. Speed=1.008000m/h.</desc>
<speed>0.280000</speed>
</trkpt>
<trkpt lat="55.900269" lon="26.528938">
<ele>122.983459</ele>
<time>2010-06-20T14:48:09Z</time>
<desc>lat.=55.900269, lon.=26.528938, Alt.=122.983459m. Speed=0.468000m/h.</desc>
<speed>0.130000</speed>
</trkpt>
<trkpt lat="55.900272" lon="26.528927">
<ele>122.981506</ele>
<time>2010-06-20T14:48:10Z</time>
<desc>lat.=55.900272, lon.=26.528927, Alt.=122.981506m. Speed=0.468000m/h.</desc>
<speed>0.130000</speed>
</trkpt>
<trkpt lat="55.900280" lon="26.528919">
<ele>122.993225</ele>
<time>2010-06-20T14:48:11Z</time>
<desc>lat.=55.900280, lon.=26.528919, Alt.=122.993225m. Speed=0.900000m/h.</desc>
<speed>0.250000</speed>
</trkpt>
<trkpt lat="55.900284" lon="26.528915">
<ele>123.001038</ele>
<time>2010-06-20T14:48:12Z</time>
<desc>lat.=55.900284, lon.=26.528915, Alt.=123.001038m. Speed=1.152000m/h.</desc>
<speed>0.320000</speed>
</trkpt>
<trkpt lat="55.900284" lon="26.528929">
<ele>123.065491</ele>
<time>2010-06-20T14:48:13Z</time>
<desc>lat.=55.900284, lon.=26.528929, Alt.=123.065491m. Speed=0.540000m/h.</desc>
<speed>0.150000</speed>
</trkpt>
<trkpt lat="55.900284" lon="26.528921">
<ele>123.126038</ele>
<time>2010-06-20T14:48:14Z</time>
<desc>lat.=55.900284, lon.=26.528921, Alt.=123.126038m. Speed=0.576000m/h.</desc>
<speed>0.160000</speed>
</trkpt>
<trkpt lat="55.900284" lon="26.528917">
<ele>123.124084</ele>
<time>2010-06-20T14:48:15Z</time>
<desc>lat.=55.900284, lon.=26.528917, Alt.=123.124084m. Speed=0.648000m/h.</desc>
<speed>0.180000</speed>
</trkpt>
<trkpt lat="55.900276" lon="26.528919">
<ele>123.112366</ele>
<time>2010-06-20T14:48:16Z</time>
<desc>lat.=55.900276, lon.=26.528919, Alt.=123.112366m. Speed=0.900000m/h.</desc>
<speed>0.250000</speed>
</trkpt>
<trkpt lat="55.900272" lon="26.528915">
<ele>123.120178</ele>
<time>2010-06-20T14:48:17Z</time>
<desc>lat.=55.900272, lon.=26.528915, Alt.=123.120178m. Speed=0.720000m/h.</desc>
<speed>0.200000</speed>
</trkpt>
<trkpt lat="55.900272" lon="26.528913">
<ele>123.129944</ele>
<time>2010-06-20T14:48:18Z</time>
<desc>lat.=55.900272, lon.=26.528913, Alt.=123.129944m. Speed=0.468000m/h.</desc>
<speed>0.130000</speed>
</trkpt>
<trkpt lat="55.900272" lon="26.528915">
<ele>123.133850</ele>
<time>2010-06-20T14:48:19Z</time>
<desc>lat.=55.900272, lon.=26.528915, Alt.=123.133850m. Speed=0.972000m/h.</desc>
<speed>0.270000</speed>
</trkpt>
<trkpt lat="55.900269" lon="26.528917">
<ele>123.133850</ele>
<time>2010-06-20T14:48:20Z</time>
<desc>lat.=55.900269, lon.=26.528917, Alt.=123.133850m. Speed=1.404000m/h.</desc>
<speed>0.390000</speed>
</trkpt>
<trkpt lat="55.900276" lon="26.528912">
<ele>123.170959</ele>
<time>2010-06-20T14:48:21Z</time>
<desc>lat.=55.900276, lon.=26.528912, Alt.=123.170959m. Speed=0.936000m/h.</desc>
<speed>0.260000</speed>
</trkpt>
<trkpt lat="55.900280" lon="26.528900">
<ele>123.270569</ele>
<time>2010-06-20T14:48:22Z</time>
<desc>lat.=55.900280, lon.=26.528900, Alt.=123.270569m. Speed=0.252000m/h.</desc>
<speed>0.070000</speed>
</trkpt>
<trkpt lat="55.900276" lon="26.528904">
<ele>123.182678</ele>
<time>2010-06-20T14:48:23Z</time>
<desc>lat.=55.900276, lon.=26.528904, Alt.=123.182678m. Speed=0.288000m/h.</desc>
<speed>0.080000</speed>
</trkpt>
<trkpt lat="55.900272" lon="26.528912">
<ele>123.133850</ele>
<time>2010-06-20T14:48:24Z</time>
<desc>lat.=55.900272, lon.=26.528912, Alt.=123.133850m. Speed=0.648000m/h.</desc>
<speed>0.180000</speed>
</trkpt>
<trkpt lat="55.900272" lon="26.528915">
<ele>123.133850</ele>
<time>2010-06-20T14:48:25Z</time>
<desc>lat.=55.900272, lon.=26.528915, Alt.=123.133850m. Speed=1.152000m/h.</desc>
<speed>0.320000</speed>
</trkpt>
<trkpt lat="55.900269" lon="26.528917">
<ele>123.141663</ele>
<time>2010-06-20T14:48:26Z</time>
<desc>lat.=55.900269, lon.=26.528917, Alt.=123.141663m. Speed=0.792000m/h.</desc>
<speed>0.220000</speed>
</trkpt>
<trkpt lat="55.900261" lon="26.528919">
<ele>123.225647</ele>
<time>2010-06-20T14:48:27Z</time>
<desc>lat.=55.900261, lon.=26.528919, Alt.=123.225647m. Speed=1.296000m/h.</desc>
<speed>0.360000</speed>
</trkpt>
<trkpt lat="55.900253" lon="26.528923">
<ele>123.362366</ele>
<time>2010-06-20T14:48:28Z</time>
<desc>lat.=55.900253, lon.=26.528923, Alt.=123.362366m. Speed=1.008000m/h.</desc>
<speed>0.280000</speed>
</trkpt>
<trkpt lat="55.900253" lon="26.528925">
<ele>123.458069</ele>
<time>2010-06-20T14:48:29Z</time>
<desc>lat.=55.900253, lon.=26.528925, Alt.=123.458069m. Speed=0.540000m/h.</desc>
<speed>0.150000</speed>
</trkpt>
<trkpt lat="55.900246" lon="26.528931">
<ele>123.563538</ele>
<time>2010-06-20T14:48:30Z</time>
<desc>lat.=55.900246, lon.=26.528931, Alt.=123.563538m. Speed=0.612000m/h.</desc>
<speed>0.170000</speed>
</trkpt>
<trkpt lat="55.900242" lon="26.528946">
<ele>123.545959</ele>
<time>2010-06-20T14:48:31Z</time>
<desc>lat.=55.900242, lon.=26.528946, Alt.=123.545959m. Speed=1.332000m/h.</desc>
<speed>0.370000</speed>
</trkpt>
<trkpt lat="55.900230" lon="26.528965">
<ele>123.592834</ele>
<time>2010-06-20T14:48:32Z</time>
<desc>lat.=55.900230, lon.=26.528965, Alt.=123.592834m. Speed=2.124000m/h.</desc>
<speed>0.590000</speed>
</trkpt>
<trkpt lat="55.900234" lon="26.528961">
<ele>123.631897</ele>
<time>2010-06-20T14:48:33Z</time>
<desc>lat.=55.900234, lon.=26.528961, Alt.=123.631897m. Speed=1.296000m/h.</desc>
<speed>0.360000</speed>
</trkpt>
<trkpt lat="55.900230" lon="26.528973">
<ele>123.602600</ele>
<time>2010-06-20T14:48:34Z</time>
<desc>lat.=55.900230, lon.=26.528973, Alt.=123.602600m. Speed=1.476000m/h.</desc>
<speed>0.410000</speed>
</trkpt>
<trkpt lat="55.900227" lon="26.528982">
<ele>123.643616</ele>
<time>2010-06-20T14:48:35Z</time>
<desc>lat.=55.900227, lon.=26.528982, Alt.=123.643616m. Speed=1.404000m/h.</desc>
<speed>0.390000</speed>
</trkpt>
<trkpt lat="55.900223" lon="26.528990">
<ele>123.721741</ele>
<time>2010-06-20T14:48:36Z</time>
<desc>lat.=55.900223, lon.=26.528990, Alt.=123.721741m. Speed=1.152000m/h.</desc>
<speed>0.320000</speed>
</trkpt>
<trkpt lat="55.900219" lon="26.529005">
<ele>123.768616</ele>
<time>2010-06-20T14:48:37Z</time>
<desc>lat.=55.900219, lon.=26.529005, Alt.=123.768616m. Speed=1.584000m/h.</desc>
<speed>0.440000</speed>
</trkpt>
<trkpt lat="55.900223" lon="26.529009">
<ele>123.801819</ele>
<time>2010-06-20T14:48:38Z</time>
<desc>lat.=55.900223, lon.=26.529009, Alt.=123.801819m. Speed=1.404000m/h.</desc>
<speed>0.390000</speed>
</trkpt>
<trkpt lat="55.900223" lon="26.529015">
<ele>123.858459</ele>
<time>2010-06-20T14:48:39Z</time>
<desc>lat.=55.900223, lon.=26.529015, Alt.=123.858459m. Speed=1.692000m/h.</desc>
<speed>0.470000</speed>
</trkpt>
<trkpt lat="55.900223" lon="26.529020">
<ele>123.926819</ele>
<time>2010-06-20T14:48:40Z</time>
<desc>lat.=55.900223, lon.=26.529020, Alt.=123.926819m. Speed=1.836000m/h.</desc>
<speed>0.510000</speed>
</trkpt>
<trkpt lat="55.900227" lon="26.529018">
<ele>123.963928</ele>
<time>2010-06-20T14:48:41Z</time>
<desc>lat.=55.900227, lon.=26.529018, Alt.=123.963928m. Speed=1.368000m/h.</desc>
<speed>0.380000</speed>
</trkpt>
<trkpt lat="55.900227" lon="26.529020">
<ele>124.014709</ele>
<time>2010-06-20T14:48:42Z</time>
<desc>lat.=55.900227, lon.=26.529020, Alt.=124.014709m. Speed=1.404000m/h.</desc>
<speed>0.390000</speed>
</trkpt>
<trkpt lat="55.900230" lon="26.529013">
<ele>124.133850</ele>
<time>2010-06-20T14:48:43Z</time>
<desc>lat.=55.900230, lon.=26.529013, Alt.=124.133850m. Speed=0.900000m/h.</desc>
<speed>0.250000</speed>
</trkpt>
<trkpt lat="55.900242" lon="26.529003">
<ele>124.499084</ele>
<time>2010-06-20T14:48:44Z</time>
<desc>lat.=55.900242, lon.=26.529003, Alt.=124.499084m. Speed=1.260000m/h.</desc>
<speed>0.350000</speed>
</trkpt>
<trkpt lat="55.900249" lon="26.528994">
<ele>124.657288</ele>
<time>2010-06-20T14:48:45Z</time>
<desc>lat.=55.900249, lon.=26.528994, Alt.=124.657288m. Speed=1.440000m/h.</desc>
<speed>0.400000</speed>
</trkpt>
<trkpt lat="55.900257" lon="26.528984">
<ele>124.770569</ele>
<time>2010-06-20T14:48:46Z</time>
<desc>lat.=55.900257, lon.=26.528984, Alt.=124.770569m. Speed=1.440000m/h.</desc>
<speed>0.400000</speed>
</trkpt>
<trkpt lat="55.900261" lon="26.528982">
<ele>124.897522</ele>
<time>2010-06-20T14:48:47Z</time>
<desc>lat.=55.900261, lon.=26.528982, Alt.=124.897522m. Speed=0.936000m/h.</desc>
<speed>0.260000</speed>
</trkpt>
<trkpt lat="55.900272" lon="26.528978">
<ele>124.993225</ele>
<time>2010-06-20T14:48:48Z</time>
<desc>lat.=55.900272, lon.=26.528978, Alt.=124.993225m. Speed=0.936000m/h.</desc>
<speed>0.260000</speed>
</trkpt>
<trkpt lat="55.900280" lon="26.528982">
<ele>125.131897</ele>
<time>2010-06-20T14:48:49Z</time>
<desc>lat.=55.900280, lon.=26.528982, Alt.=125.131897m. Speed=1.476000m/h.</desc>
<speed>0.410000</speed>
</trkpt>
<trkpt lat="55.900284" lon="26.528975">
<ele>125.268616</ele>
<time>2010-06-20T14:48:50Z</time>
<desc>lat.=55.900284, lon.=26.528975, Alt.=125.268616m. Speed=1.296000m/h.</desc>
<speed>0.360000</speed>
</trkpt>
<trkpt lat="55.900284" lon="26.528975">
<ele>125.417053</ele>
<time>2010-06-20T14:48:51Z</time>
<desc>lat.=55.900284, lon.=26.528975, Alt.=125.417053m. Speed=0.900000m/h.</desc>
<speed>0.250000</speed>
</trkpt>
<trkpt lat="55.900276" lon="26.528984">
<ele>125.463928</ele>
<time>2010-06-20T14:48:52Z</time>
<desc>lat.=55.900276, lon.=26.528984, Alt.=125.463928m. Speed=0.432000m/h.</desc>
<speed>0.120000</speed>
</trkpt>
<trkpt lat="55.900272" lon="26.528982">
<ele>125.602600</ele>
<time>2010-06-20T14:48:53Z</time>
<desc>lat.=55.900272, lon.=26.528982, Alt.=125.602600m. Speed=0.504000m/h.</desc>
<speed>0.140000</speed>
</trkpt>
<trkpt lat="55.900280" lon="26.528975">
<ele>125.688538</ele>
<time>2010-06-20T14:48:54Z</time>
<desc>lat.=55.900280, lon.=26.528975, Alt.=125.688538m. Speed=0.108000m/h.</desc>
<speed>0.030000</speed>
</trkpt>
<trkpt lat="55.900280" lon="26.528973">
<ele>125.692444</ele>
<time>2010-06-20T14:48:55Z</time>
<desc>lat.=55.900280, lon.=26.528973, Alt.=125.692444m. Speed=0.252000m/h.</desc>
<speed>0.070000</speed>
</trkpt>
<trkpt lat="55.900280" lon="26.528975">
<ele>125.696350</ele>
<time>2010-06-20T14:48:56Z</time>
<desc>lat.=55.900280, lon.=26.528975, Alt.=125.696350m. Speed=0.720000m/h.</desc>
<speed>0.200000</speed>
</trkpt>
<trkpt lat="55.900280" lon="26.528976">
<ele>125.700256</ele>
<time>2010-06-20T14:48:57Z</time>
<desc>lat.=55.900280, lon.=26.528976, Alt.=125.700256m. Speed=0.252000m/h.</desc>
<speed>0.070000</speed>
</trkpt>
<trkpt lat="55.900280" lon="26.528978">
<ele>125.706116</ele>
<time>2010-06-20T14:48:58Z</time>
<desc>lat.=55.900280, lon.=26.528978, Alt.=125.706116m. Speed=0.216000m/h.</desc>
<speed>0.060000</speed>
</trkpt>
<trkpt lat="55.900280" lon="26.528978">
<ele>125.710022</ele>
<time>2010-06-20T14:48:59Z</time>
<desc>lat.=55.900280, lon.=26.528978, Alt.=125.710022m. Speed=0.540000m/h.</desc>
<speed>0.150000</speed>
</trkpt>
<trkpt lat="55.900276" lon="26.528978">
<ele>125.713928</ele>
<time>2010-06-20T14:49:00Z</time>
<desc>lat.=55.900276, lon.=26.528978, Alt.=125.713928m. Speed=0.936000m/h.</desc>
<speed>0.260000</speed>
</trkpt>
<trkpt lat="55.900276" lon="26.528978">
<ele>125.717834</ele>
<time>2010-06-20T14:49:01Z</time>
<desc>lat.=55.900276, lon.=26.528978, Alt.=125.717834m. Speed=1.224000m/h.</desc>
<speed>0.340000</speed>
</trkpt>
<trkpt lat="55.900269" lon="26.528984">
<ele>125.772522</ele>
<time>2010-06-20T14:49:02Z</time>
<desc>lat.=55.900269, lon.=26.528984, Alt.=125.772522m. Speed=1.692000m/h.</desc>
<speed>0.470000</speed>
</trkpt>
<trkpt lat="55.900269" lon="26.528984">
<ele>125.868225</ele>
<time>2010-06-20T14:49:03Z</time>
<desc>lat.=55.900269, lon.=26.528984, Alt.=125.868225m. Speed=1.476000m/h.</desc>
<speed>0.410000</speed>
</trkpt>
<trkpt lat="55.900269" lon="26.528980">
<ele>125.942444</ele>
<time>2010-06-20T14:49:04Z</time>
<desc>lat.=55.900269, lon.=26.528980, Alt.=125.942444m. Speed=1.080000m/h.</desc>
<speed>0.300000</speed>
</trkpt>
<trkpt lat="55.900265" lon="26.528973">
<ele>125.987366</ele>
<time>2010-06-20T14:49:05Z</time>
<desc>lat.=55.900265, lon.=26.528973, Alt.=125.987366m. Speed=0.936000m/h.</desc>
<speed>0.260000</speed>
</trkpt>
<trkpt lat="55.900269" lon="26.528961">
<ele>126.176819</ele>
<time>2010-06-20T14:49:06Z</time>
<desc>lat.=55.900269, lon.=26.528961, Alt.=126.176819m. Speed=0.360000m/h.</desc>
<speed>0.100000</speed>
</trkpt>
<trkpt lat="55.900269" lon="26.528950">
<ele>126.202209</ele>
<time>2010-06-20T14:49:07Z</time>
<desc>lat.=55.900269, lon.=26.528950, Alt.=126.202209m. Speed=0.792000m/h.</desc>
<speed>0.220000</speed>
</trkpt>
<trkpt lat="55.900265" lon="26.528959">
<ele>126.245178</ele>
<time>2010-06-20T14:49:08Z</time>
<desc>lat.=55.900265, lon.=26.528959, Alt.=126.245178m. Speed=0.612000m/h.</desc>
<speed>0.170000</speed>
</trkpt>
<trkpt lat="55.900265" lon="26.528959">
<ele>126.252991</ele>
<time>2010-06-20T14:49:09Z</time>
<desc>lat.=55.900265, lon.=26.528959, Alt.=126.252991m. Speed=0.504000m/h.</desc>
<speed>0.140000</speed>
</trkpt>
<trkpt lat="55.900265" lon="26.528957">
<ele>126.258850</ele>
<time>2010-06-20T14:49:10Z</time>
<desc>lat.=55.900265, lon.=26.528957, Alt.=126.258850m. Speed=0.972000m/h.</desc>
<speed>0.270000</speed>
</trkpt>
<trkpt lat="55.900269" lon="26.528955">
<ele>126.268616</ele>
<time>2010-06-20T14:49:11Z</time>
<desc>lat.=55.900269, lon.=26.528955, Alt.=126.268616m. Speed=1.224000m/h.</desc>
<speed>0.340000</speed>
</trkpt>
<trkpt lat="55.900269" lon="26.528948">
<ele>126.262756</ele>
<time>2010-06-20T14:49:12Z</time>
<desc>lat.=55.900269, lon.=26.528948, Alt.=126.262756m. Speed=1.332000m/h.</desc>
<speed>0.370000</speed>
</trkpt>
<trkpt lat="55.900265" lon="26.528940">
<ele>126.268616</ele>
<time>2010-06-20T14:49:13Z</time>
<desc>lat.=55.900265, lon.=26.528940, Alt.=126.268616m. Speed=1.440000m/h.</desc>
<speed>0.400000</speed>
</trkpt>
<trkpt lat="55.900265" lon="26.528942">
<ele>126.288147</ele>
<time>2010-06-20T14:49:14Z</time>
<desc>lat.=55.900265, lon.=26.528942, Alt.=126.288147m. Speed=0.936000m/h.</desc>
<speed>0.260000</speed>
</trkpt>
<trkpt lat="55.900269" lon="26.528944">
<ele>126.178772</ele>
<time>2010-06-20T14:49:15Z</time>
<desc>lat.=55.900269, lon.=26.528944, Alt.=126.178772m. Speed=0.900000m/h.</desc>
<speed>0.250000</speed>
</trkpt>
<trkpt lat="55.900269" lon="26.528942">
<ele>126.075256</ele>
<time>2010-06-20T14:49:16Z</time>
<desc>lat.=55.900269, lon.=26.528942, Alt.=126.075256m. Speed=0.828000m/h.</desc>
<speed>0.230000</speed>
</trkpt>
<trkpt lat="55.900261" lon="26.528952">
<ele>125.862366</ele>
<time>2010-06-20T14:49:17Z</time>
<desc>lat.=55.900261, lon.=26.528952, Alt.=125.862366m. Speed=0.360000m/h.</desc>
<speed>0.100000</speed>
</trkpt>
<trkpt lat="55.900261" lon="26.528952">
<ele>125.862366</ele>
<time>2010-06-20T14:49:18Z</time>
<desc>lat.=55.900261, lon.=26.528952, Alt.=125.862366m. Speed=0.504000m/h.</desc>
<speed>0.140000</speed>
</trkpt>
<trkpt lat="55.900257" lon="26.528952">
<ele>125.860413</ele>
<time>2010-06-20T14:49:19Z</time>
<desc>lat.=55.900257, lon.=26.528952, Alt.=125.860413m. Speed=0.252000m/h.</desc>
<speed>0.070000</speed>
</trkpt>
<trkpt lat="55.900261" lon="26.528954">
<ele>125.860413</ele>
<time>2010-06-20T14:49:20Z</time>
<desc>lat.=55.900261, lon.=26.528954, Alt.=125.860413m. Speed=0.828000m/h.</desc>
<speed>0.230000</speed>
</trkpt>
<trkpt lat="55.900261" lon="26.528952">
<ele>125.860413</ele>
<time>2010-06-20T14:49:21Z</time>
<desc>lat.=55.900261, lon.=26.528952, Alt.=125.860413m. Speed=1.368000m/h.</desc>
<speed>0.380000</speed>
</trkpt>
<trkpt lat="55.900265" lon="26.528950">
<ele>125.821350</ele>
<time>2010-06-20T14:49:22Z</time>
<desc>lat.=55.900265, lon.=26.528950, Alt.=125.821350m. Speed=1.224000m/h.</desc>
<speed>0.340000</speed>
</trkpt>
<trkpt lat="55.900269" lon="26.528938">
<ele>125.774475</ele>
<time>2010-06-20T14:49:23Z</time>
<desc>lat.=55.900269, lon.=26.528938, Alt.=125.774475m. Speed=1.440000m/h.</desc>
<speed>0.400000</speed>
</trkpt>
<trkpt lat="55.900276" lon="26.528925">
<ele>125.743225</ele>
<time>2010-06-20T14:49:24Z</time>
<desc>lat.=55.900276, lon.=26.528925, Alt.=125.743225m. Speed=1.944000m/h.</desc>
<speed>0.540000</speed>
</trkpt>
<trkpt lat="55.900272" lon="26.528931">
<ele>125.713928</ele>
<time>2010-06-20T14:49:25Z</time>
<desc>lat.=55.900272, lon.=26.528931, Alt.=125.713928m. Speed=1.224000m/h.</desc>
<speed>0.340000</speed>
</trkpt>
<trkpt lat="55.900284" lon="26.528917">
<ele>125.637756</ele>
<time>2010-06-20T14:49:26Z</time>
<desc>lat.=55.900284, lon.=26.528917, Alt.=125.637756m. Speed=1.980000m/h.</desc>
<speed>0.550000</speed>
</trkpt>
<trkpt lat="55.900291" lon="26.528910">
<ele>125.557678</ele>
<time>2010-06-20T14:49:27Z</time>
<desc>lat.=55.900291, lon.=26.528910, Alt.=125.557678m. Speed=2.088000m/h.</desc>
<speed>0.580000</speed>
</trkpt>
<trkpt lat="55.900299" lon="26.528906">
<ele>125.501038</ele>
<time>2010-06-20T14:49:28Z</time>
<desc>lat.=55.900299, lon.=26.528906, Alt.=125.501038m. Speed=2.088000m/h.</desc>
<speed>0.580000</speed>
</trkpt>
<trkpt lat="55.900299" lon="26.528917">
<ele>125.461975</ele>
<time>2010-06-20T14:49:29Z</time>
<desc>lat.=55.900299, lon.=26.528917, Alt.=125.461975m. Speed=1.692000m/h.</desc>
<speed>0.470000</speed>
</trkpt>
<trkpt lat="55.900295" lon="26.528927">
<ele>125.399475</ele>
<time>2010-06-20T14:49:30Z</time>
<desc>lat.=55.900295, lon.=26.528927, Alt.=125.399475m. Speed=1.260000m/h.</desc>
<speed>0.350000</speed>
</trkpt>
<trkpt lat="55.900311" lon="26.528929">
<ele>125.292053</ele>
<time>2010-06-20T14:49:31Z</time>
<desc>lat.=55.900311, lon.=26.528929, Alt.=125.292053m. Speed=2.448000m/h.</desc>
<speed>0.680000</speed>
</trkpt>
<trkpt lat="55.900318" lon="26.528933">
<ele>125.206116</ele>
<time>2010-06-20T14:49:32Z</time>
<desc>lat.=55.900318, lon.=26.528933, Alt.=125.206116m. Speed=2.448000m/h.</desc>
<speed>0.680000</speed>
</trkpt>
<trkpt lat="55.900326" lon="26.528931">
<ele>125.104553</ele>
<time>2010-06-20T14:49:33Z</time>
<desc>lat.=55.900326, lon.=26.528931, Alt.=125.104553m. Speed=2.160000m/h.</desc>
<speed>0.600000</speed>
</trkpt>
<trkpt lat="55.900330" lon="26.528929">
<ele>125.040100</ele>
<time>2010-06-20T14:49:34Z</time>
<desc>lat.=55.900330, lon.=26.528929, Alt.=125.040100m. Speed=2.268000m/h.</desc>
<speed>0.630000</speed>
</trkpt>
<trkpt lat="55.900337" lon="26.528948">
<ele>124.954163</ele>
<time>2010-06-20T14:49:35Z</time>
<desc>lat.=55.900337, lon.=26.528948, Alt.=124.954163m. Speed=2.232000m/h.</desc>
<speed>0.620000</speed>
</trkpt>
<trkpt lat="55.900341" lon="26.528957">
<ele>124.877991</ele>
<time>2010-06-20T14:49:36Z</time>
<desc>lat.=55.900341, lon.=26.528957, Alt.=124.877991m. Speed=2.592000m/h.</desc>
<speed>0.720000</speed>
</trkpt>
<trkpt lat="55.900345" lon="26.528950">
<ele>124.836975</ele>
<time>2010-06-20T14:49:37Z</time>
<desc>lat.=55.900345, lon.=26.528950, Alt.=124.836975m. Speed=2.808000m/h.</desc>
<speed>0.780000</speed>
</trkpt>
<trkpt lat="55.900349" lon="26.528944">
<ele>124.852600</ele>
<time>2010-06-20T14:49:38Z</time>
<desc>lat.=55.900349, lon.=26.528944, Alt.=124.852600m. Speed=3.024000m/h.</desc>
<speed>0.840000</speed>
</trkpt>
<trkpt lat="55.900352" lon="26.528934">
<ele>124.946350</ele>
<time>2010-06-20T14:49:39Z</time>
<desc>lat.=55.900352, lon.=26.528934, Alt.=124.946350m. Speed=3.456000m/h.</desc>
<speed>0.960000</speed>
</trkpt>
<trkpt lat="55.900356" lon="26.528921">
<ele>124.997131</ele>
<time>2010-06-20T14:49:40Z</time>
<desc>lat.=55.900356, lon.=26.528921, Alt.=124.997131m. Speed=3.204000m/h.</desc>
<speed>0.890000</speed>
</trkpt>
<trkpt lat="55.900364" lon="26.528917">
<ele>125.004944</ele>
<time>2010-06-20T14:49:41Z</time>
<desc>lat.=55.900364, lon.=26.528917, Alt.=125.004944m. Speed=2.736000m/h.</desc>
<speed>0.760000</speed>
</trkpt>
<trkpt lat="55.900368" lon="26.528908">
<ele>125.065491</ele>
<time>2010-06-20T14:49:42Z</time>
<desc>lat.=55.900368, lon.=26.528908, Alt.=125.065491m. Speed=2.916000m/h.</desc>
<speed>0.810000</speed>
</trkpt>
<trkpt lat="55.900368" lon="26.528898">
<ele>125.110413</ele>
<time>2010-06-20T14:49:43Z</time>
<desc>lat.=55.900368, lon.=26.528898, Alt.=125.110413m. Speed=2.160000m/h.</desc>
<speed>0.600000</speed>
</trkpt>
<trkpt lat="55.900368" lon="26.528889">
<ele>125.124084</ele>
<time>2010-06-20T14:49:44Z</time>
<desc>lat.=55.900368, lon.=26.528889, Alt.=125.124084m. Speed=2.124000m/h.</desc>
<speed>0.590000</speed>
</trkpt>
<trkpt lat="55.900364" lon="26.528893">
<ele>125.116272</ele>
<time>2010-06-20T14:49:45Z</time>
<desc>lat.=55.900364, lon.=26.528893, Alt.=125.116272m. Speed=1.584000m/h.</desc>
<speed>0.440000</speed>
</trkpt>
<trkpt lat="55.900368" lon="26.528891">
<ele>125.120178</ele>
<time>2010-06-20T14:49:46Z</time>
<desc>lat.=55.900368, lon.=26.528891, Alt.=125.120178m. Speed=1.224000m/h.</desc>
<speed>0.340000</speed>
</trkpt>
<trkpt lat="55.900364" lon="26.528883">
<ele>125.075256</ele>
<time>2010-06-20T14:49:47Z</time>
<desc>lat.=55.900364, lon.=26.528883, Alt.=125.075256m. Speed=0.612000m/h.</desc>
<speed>0.170000</speed>
</trkpt>
<trkpt lat="55.900360" lon="26.528873">
<ele>125.010803</ele>
<time>2010-06-20T14:49:48Z</time>
<desc>lat.=55.900360, lon.=26.528873, Alt.=125.010803m. Speed=0.648000m/h.</desc>
<speed>0.180000</speed>
</trkpt>
<trkpt lat="55.900352" lon="26.528883">
<ele>124.901428</ele>
<time>2010-06-20T14:49:49Z</time>
<desc>lat.=55.900352, lon.=26.528883, Alt.=124.901428m. Speed=0.360000m/h.</desc>
<speed>0.100000</speed>
</trkpt>
<trkpt lat="55.900352" lon="26.528885">
<ele>124.807678</ele>
<time>2010-06-20T14:49:50Z</time>
<desc>lat.=55.900352, lon.=26.528885, Alt.=124.807678m. Speed=0.540000m/h.</desc>
<speed>0.150000</speed>
</trkpt>
<trkpt lat="55.900349" lon="26.528889">
<ele>124.809631</ele>
<time>2010-06-20T14:49:51Z</time>
<desc>lat.=55.900349, lon.=26.528889, Alt.=124.809631m. Speed=0.144000m/h.</desc>
<speed>0.040000</speed>
</trkpt>
<trkpt lat="55.900349" lon="26.528887">
<ele>124.811584</ele>
<time>2010-06-20T14:49:52Z</time>
<desc>lat.=55.900349, lon.=26.528887, Alt.=124.811584m. Speed=0.468000m/h.</desc>
<speed>0.130000</speed>
</trkpt>
<trkpt lat="55.900349" lon="26.528885">
<ele>124.809631</ele>
<time>2010-06-20T14:49:53Z</time>
<desc>lat.=55.900349, lon.=26.528885, Alt.=124.809631m. Speed=0.648000m/h.</desc>
<speed>0.180000</speed>
</trkpt>
<trkpt lat="55.900349" lon="26.528883">
<ele>124.807678</ele>
<time>2010-06-20T14:49:54Z</time>
<desc>lat.=55.900349, lon.=26.528883, Alt.=124.807678m. Speed=0.432000m/h.</desc>
<speed>0.120000</speed>
</trkpt>
<trkpt lat="55.900352" lon="26.528881">
<ele>124.805725</ele>
<time>2010-06-20T14:49:55Z</time>
<desc>lat.=55.900352, lon.=26.528881, Alt.=124.805725m. Speed=0.072000m/h.</desc>
<speed>0.020000</speed>
</trkpt>
<trkpt lat="55.900352" lon="26.528881">
<ele>124.803772</ele>
<time>2010-06-20T14:49:56Z</time>
<desc>lat.=55.900352, lon.=26.528881, Alt.=124.803772m. Speed=0.504000m/h.</desc>
<speed>0.140000</speed>
</trkpt>
<trkpt lat="55.900349" lon="26.528877">
<ele>124.799866</ele>
<time>2010-06-20T14:49:57Z</time>
<desc>lat.=55.900349, lon.=26.528877, Alt.=124.799866m. Speed=0.684000m/h.</desc>
<speed>0.190000</speed>
</trkpt>
<trkpt lat="55.900349" lon="26.528875">
<ele>124.794006</ele>
<time>2010-06-20T14:49:58Z</time>
<desc>lat.=55.900349, lon.=26.528875, Alt.=124.794006m. Speed=0.684000m/h.</desc>
<speed>0.190000</speed>
</trkpt>
<trkpt lat="55.900352" lon="26.528873">
<ele>124.790100</ele>
<time>2010-06-20T14:49:59Z</time>
<desc>lat.=55.900352, lon.=26.528873, Alt.=124.790100m. Speed=1.116000m/h.</desc>
<speed>0.310000</speed>
</trkpt>
<trkpt lat="55.900352" lon="26.528873">
<ele>124.682678</ele>
<time>2010-06-20T14:50:00Z</time>
<desc>lat.=55.900352, lon.=26.528873, Alt.=124.682678m. Speed=1.116000m/h.</desc>
<speed>0.310000</speed>
</trkpt>
<trkpt lat="55.900349" lon="26.528875">
<ele>124.514709</ele>
<time>2010-06-20T14:50:01Z</time>
<desc>lat.=55.900349, lon.=26.528875, Alt.=124.514709m. Speed=0.792000m/h.</desc>
<speed>0.220000</speed>
</trkpt>
<trkpt lat="55.900337" lon="26.528879">
<ele>124.379944</ele>
<time>2010-06-20T14:50:02Z</time>
<desc>lat.=55.900337, lon.=26.528879, Alt.=124.379944m. Speed=0.324000m/h.</desc>
<speed>0.090000</speed>
</trkpt>
<trkpt lat="55.900337" lon="26.528889">
<ele>124.290100</ele>
<time>2010-06-20T14:50:03Z</time>
<desc>lat.=55.900337, lon.=26.528889, Alt.=124.290100m. Speed=0.648000m/h.</desc>
<speed>0.180000</speed>
</trkpt>
<trkpt lat="55.900333" lon="26.528896">
<ele>124.172913</ele>
<time>2010-06-20T14:50:04Z</time>
<desc>lat.=55.900333, lon.=26.528896, Alt.=124.172913m. Speed=0.180000m/h.</desc>
<speed>0.050000</speed>
</trkpt>
<trkpt lat="55.900333" lon="26.528896">
<ele>124.170959</ele>
<time>2010-06-20T14:50:05Z</time>
<desc>lat.=55.900333, lon.=26.528896, Alt.=124.170959m. Speed=0.252000m/h.</desc>
<speed>0.070000</speed>
</trkpt>
<trkpt lat="55.900333" lon="26.528896">
<ele>124.169006</ele>
<time>2010-06-20T14:50:06Z</time>
<desc>lat.=55.900333, lon.=26.528896, Alt.=124.169006m. Speed=0.360000m/h.</desc>
<speed>0.100000</speed>
</trkpt>
<trkpt lat="55.900333" lon="26.528894">
<ele>124.169006</ele>
<time>2010-06-20T14:50:07Z</time>
<desc>lat.=55.900333, lon.=26.528894, Alt.=124.169006m. Speed=0.576000m/h.</desc>
<speed>0.160000</speed>
</trkpt>
<trkpt lat="55.900333" lon="26.528893">
<ele>124.172913</ele>
<time>2010-06-20T14:50:08Z</time>
<desc>lat.=55.900333, lon.=26.528893, Alt.=124.172913m. Speed=0.540000m/h.</desc>
<speed>0.150000</speed>
</trkpt>
<trkpt lat="55.900330" lon="26.528891">
<ele>124.170959</ele>
<time>2010-06-20T14:50:09Z</time>
<desc>lat.=55.900330, lon.=26.528891, Alt.=124.170959m. Speed=0.612000m/h.</desc>
<speed>0.170000</speed>
</trkpt>
<trkpt lat="55.900330" lon="26.528889">
<ele>124.169006</ele>
<time>2010-06-20T14:50:10Z</time>
<desc>lat.=55.900330, lon.=26.528889, Alt.=124.169006m. Speed=0.612000m/h.</desc>
<speed>0.170000</speed>
</trkpt>
<trkpt lat="55.900333" lon="26.528887">
<ele>124.165100</ele>
<time>2010-06-20T14:50:11Z</time>
<desc>lat.=55.900333, lon.=26.528887, Alt.=124.165100m. Speed=0.936000m/h.</desc>
<speed>0.260000</speed>
</trkpt>
<trkpt lat="55.900333" lon="26.528883">
<ele>124.161194</ele>
<time>2010-06-20T14:50:12Z</time>
<desc>lat.=55.900333, lon.=26.528883, Alt.=124.161194m. Speed=1.008000m/h.</desc>
<speed>0.280000</speed>
</trkpt>
<trkpt lat="55.900333" lon="26.528877">
<ele>124.155334</ele>
<time>2010-06-20T14:50:13Z</time>
<desc>lat.=55.900333, lon.=26.528877, Alt.=124.155334m. Speed=1.260000m/h.</desc>
<speed>0.350000</speed>
</trkpt>
<trkpt lat="55.900337" lon="26.528864">
<ele>124.024475</ele>
<time>2010-06-20T14:50:14Z</time>
<desc>lat.=55.900337, lon.=26.528864, Alt.=124.024475m. Speed=1.152000m/h.</desc>
<speed>0.320000</speed>
</trkpt>
<trkpt lat="55.900341" lon="26.528862">
<ele>123.897522</ele>
<time>2010-06-20T14:50:15Z</time>
<desc>lat.=55.900341, lon.=26.528862, Alt.=123.897522m. Speed=0.936000m/h.</desc>
<speed>0.260000</speed>
</trkpt>
<trkpt lat="55.900341" lon="26.528858">
<ele>123.727600</ele>
<time>2010-06-20T14:50:16Z</time>
<desc>lat.=55.900341, lon.=26.528858, Alt.=123.727600m. Speed=1.008000m/h.</desc>
<speed>0.280000</speed>
</trkpt>
<trkpt lat="55.900345" lon="26.528864">
<ele>123.581116</ele>
<time>2010-06-20T14:50:17Z</time>
<desc>lat.=55.900345, lon.=26.528864, Alt.=123.581116m. Speed=0.540000m/h.</desc>
<speed>0.150000</speed>
</trkpt>
<trkpt lat="55.900349" lon="26.528868">
<ele>123.338928</ele>
<time>2010-06-20T14:50:18Z</time>
<desc>lat.=55.900349, lon.=26.528868, Alt.=123.338928m. Speed=0.756000m/h.</desc>
<speed>0.210000</speed>
</trkpt>
<trkpt lat="55.900349" lon="26.528868">
<ele>123.333069</ele>
<time>2010-06-20T14:50:19Z</time>
<desc>lat.=55.900349, lon.=26.528868, Alt.=123.333069m. Speed=0.756000m/h.</desc>
<speed>0.210000</speed>
</trkpt>
<trkpt lat="55.900352" lon="26.528870">
<ele>123.325256</ele>
<time>2010-06-20T14:50:20Z</time>
<desc>lat.=55.900352, lon.=26.528870, Alt.=123.325256m. Speed=0.576000m/h.</desc>
<speed>0.160000</speed>
</trkpt>
<trkpt lat="55.900352" lon="26.528872">
<ele>123.317444</ele>
<time>2010-06-20T14:50:21Z</time>
<desc>lat.=55.900352, lon.=26.528872, Alt.=123.317444m. Speed=0.684000m/h.</desc>
<speed>0.190000</speed>
</trkpt>
<trkpt lat="55.900352" lon="26.528873">
<ele>123.311584</ele>
<time>2010-06-20T14:50:22Z</time>
<desc>lat.=55.900352, lon.=26.528873, Alt.=123.311584m. Speed=0.900000m/h.</desc>
<speed>0.250000</speed>
</trkpt>
<trkpt lat="55.900352" lon="26.528877">
<ele>123.303772</ele>
<time>2010-06-20T14:50:23Z</time>
<desc>lat.=55.900352, lon.=26.528877, Alt.=123.303772m. Speed=1.008000m/h.</desc>
<speed>0.280000</speed>
</trkpt>
<trkpt lat="55.900349" lon="26.528881">
<ele>123.297913</ele>
<time>2010-06-20T14:50:24Z</time>
<desc>lat.=55.900349, lon.=26.528881, Alt.=123.297913m. Speed=0.504000m/h.</desc>
<speed>0.140000</speed>
</trkpt>
<trkpt lat="55.900349" lon="26.528883">
<ele>123.292053</ele>
<time>2010-06-20T14:50:25Z</time>
<desc>lat.=55.900349, lon.=26.528883, Alt.=123.292053m. Speed=0.720000m/h.</desc>
<speed>0.200000</speed>
</trkpt>
<trkpt lat="55.900349" lon="26.528885">
<ele>123.286194</ele>
<time>2010-06-20T14:50:26Z</time>
<desc>lat.=55.900349, lon.=26.528885, Alt.=123.286194m. Speed=0.540000m/h.</desc>
<speed>0.150000</speed>
</trkpt>
<trkpt lat="55.900349" lon="26.528887">
<ele>123.282288</ele>
<time>2010-06-20T14:50:27Z</time>
<desc>lat.=55.900349, lon.=26.528887, Alt.=123.282288m. Speed=0.288000m/h.</desc>
<speed>0.080000</speed>
</trkpt>
<trkpt lat="55.900352" lon="26.528887">
<ele>123.278381</ele>
<time>2010-06-20T14:50:28Z</time>
<desc>lat.=55.900352, lon.=26.528887, Alt.=123.278381m. Speed=0.576000m/h.</desc>
<speed>0.160000</speed>
</trkpt>
<trkpt lat="55.900352" lon="26.528887">
<ele>123.274475</ele>
<time>2010-06-20T14:50:29Z</time>
<desc>lat.=55.900352, lon.=26.528887, Alt.=123.274475m. Speed=1.152000m/h.</desc>
<speed>0.320000</speed>
</trkpt>
<trkpt lat="55.900360" lon="26.528883">
<ele>123.157288</ele>
<time>2010-06-20T14:50:30Z</time>
<desc>lat.=55.900360, lon.=26.528883, Alt.=123.157288m. Speed=1.368000m/h.</desc>
<speed>0.380000</speed>
</trkpt>
<trkpt lat="55.900368" lon="26.528881">
<ele>123.004944</ele>
<time>2010-06-20T14:50:31Z</time>
<desc>lat.=55.900368, lon.=26.528881, Alt.=123.004944m. Speed=1.296000m/h.</desc>
<speed>0.360000</speed>
</trkpt>
<trkpt lat="55.900372" lon="26.528875">
<ele>122.813538</ele>
<time>2010-06-20T14:50:32Z</time>
<desc>lat.=55.900372, lon.=26.528875, Alt.=122.813538m. Speed=1.296000m/h.</desc>
<speed>0.360000</speed>
</trkpt>
<trkpt lat="55.900375" lon="26.528881">
<ele>122.688538</ele>
<time>2010-06-20T14:50:33Z</time>
<desc>lat.=55.900375, lon.=26.528881, Alt.=122.688538m. Speed=1.440000m/h.</desc>
<speed>0.400000</speed>
</trkpt>
<trkpt lat="55.900372" lon="26.528879">
<ele>122.590881</ele>
<time>2010-06-20T14:50:34Z</time>
<desc>lat.=55.900372, lon.=26.528879, Alt.=122.590881m. Speed=1.044000m/h.</desc>
<speed>0.290000</speed>
</trkpt>
<trkpt lat="55.900379" lon="26.528883">
<ele>122.446350</ele>
<time>2010-06-20T14:50:35Z</time>
<desc>lat.=55.900379, lon.=26.528883, Alt.=122.446350m. Speed=1.260000m/h.</desc>
<speed>0.350000</speed>
</trkpt>
<trkpt lat="55.900383" lon="26.528887">
<ele>122.325256</ele>
<time>2010-06-20T14:50:36Z</time>
<desc>lat.=55.900383, lon.=26.528887, Alt.=122.325256m. Speed=1.368000m/h.</desc>
<speed>0.380000</speed>
</trkpt>
<trkpt lat="55.900379" lon="26.528900">
<ele>122.102600</ele>
<time>2010-06-20T14:50:37Z</time>
<desc>lat.=55.900379, lon.=26.528900, Alt.=122.102600m. Speed=0.684000m/h.</desc>
<speed>0.190000</speed>
</trkpt>
<trkpt lat="55.900375" lon="26.528908">
<ele>121.922913</ele>
<time>2010-06-20T14:50:38Z</time>
<desc>lat.=55.900375, lon.=26.528908, Alt.=121.922913m. Speed=0.684000m/h.</desc>
<speed>0.190000</speed>
</trkpt>
<trkpt lat="55.900375" lon="26.528900">
<ele>121.850647</ele>
<time>2010-06-20T14:50:39Z</time>
<desc>lat.=55.900375, lon.=26.528900, Alt.=121.850647m. Speed=0.360000m/h.</desc>
<speed>0.100000</speed>
</trkpt>
<trkpt lat="55.900375" lon="26.528902">
<ele>121.667053</ele>
<time>2010-06-20T14:50:40Z</time>
<desc>lat.=55.900375, lon.=26.528902, Alt.=121.667053m. Speed=0.360000m/h.</desc>
<speed>0.100000</speed>
</trkpt>
<trkpt lat="55.900379" lon="26.528902">
<ele>121.659241</ele>
<time>2010-06-20T14:50:41Z</time>
<desc>lat.=55.900379, lon.=26.528902, Alt.=121.659241m. Speed=1.044000m/h.</desc>
<speed>0.290000</speed>
</trkpt>
<trkpt lat="55.900379" lon="26.528908">
<ele>121.651428</ele>
<time>2010-06-20T14:50:42Z</time>
<desc>lat.=55.900379, lon.=26.528908, Alt.=121.651428m. Speed=1.548000m/h.</desc>
<speed>0.430000</speed>
</trkpt>
<trkpt lat="55.900375" lon="26.528921">
<ele>121.321350</ele>
<time>2010-06-20T14:50:43Z</time>
<desc>lat.=55.900375, lon.=26.528921, Alt.=121.321350m. Speed=1.584000m/h.</desc>
<speed>0.440000</speed>
</trkpt>
<trkpt lat="55.900368" lon="26.528929">
<ele>121.110413</ele>
<time>2010-06-20T14:50:44Z</time>
<desc>lat.=55.900368, lon.=26.528929, Alt.=121.110413m. Speed=1.584000m/h.</desc>
<speed>0.440000</speed>
</trkpt>
<trkpt lat="55.900364" lon="26.528931">
<ele>120.903381</ele>
<time>2010-06-20T14:50:45Z</time>
<desc>lat.=55.900364, lon.=26.528931, Alt.=120.903381m. Speed=1.296000m/h.</desc>
<speed>0.360000</speed>
</trkpt>
<trkpt lat="55.900360" lon="26.528933">
<ele>120.655334</ele>
<time>2010-06-20T14:50:46Z</time>
<desc>lat.=55.900360, lon.=26.528933, Alt.=120.655334m. Speed=1.080000m/h.</desc>
<speed>0.300000</speed>
</trkpt>
<trkpt lat="55.900360" lon="26.528938">
<ele>120.454163</ele>
<time>2010-06-20T14:50:47Z</time>
<desc>lat.=55.900360, lon.=26.528938, Alt.=120.454163m. Speed=0.720000m/h.</desc>
<speed>0.200000</speed>
</trkpt>
<trkpt lat="55.900364" lon="26.528934">
<ele>120.280334</ele>
<time>2010-06-20T14:50:48Z</time>
<desc>lat.=55.900364, lon.=26.528934, Alt.=120.280334m. Speed=0.360000m/h.</desc>
<speed>0.100000</speed>
</trkpt>
<trkpt lat="55.900364" lon="26.528931">
<ele>120.114319</ele>
<time>2010-06-20T14:50:49Z</time>
<desc>lat.=55.900364, lon.=26.528931, Alt.=120.114319m. Speed=0.504000m/h.</desc>
<speed>0.140000</speed>
</trkpt>
<trkpt lat="55.900364" lon="26.528927">
<ele>120.018616</ele>
<time>2010-06-20T14:50:50Z</time>
<desc>lat.=55.900364, lon.=26.528927, Alt.=120.018616m. Speed=0.504000m/h.</desc>
<speed>0.140000</speed>
</trkpt>
<trkpt lat="55.900360" lon="26.528925">
<ele>120.012756</ele>
<time>2010-06-20T14:50:51Z</time>
<desc>lat.=55.900360, lon.=26.528925, Alt.=120.012756m. Speed=0.864000m/h.</desc>
<speed>0.240000</speed>
</trkpt>
<trkpt lat="55.900360" lon="26.528923">
<ele>120.004944</ele>
<time>2010-06-20T14:50:52Z</time>
<desc>lat.=55.900360, lon.=26.528923, Alt.=120.004944m. Speed=0.684000m/h.</desc>
<speed>0.190000</speed>
</trkpt>
<trkpt lat="55.900360" lon="26.528919">
<ele>119.999084</ele>
<time>2010-06-20T14:50:53Z</time>
<desc>lat.=55.900360, lon.=26.528919, Alt.=119.999084m. Speed=0.972000m/h.</desc>
<speed>0.270000</speed>
</trkpt>
<trkpt lat="55.900364" lon="26.528915">
<ele>119.993225</ele>
<time>2010-06-20T14:50:54Z</time>
<desc>lat.=55.900364, lon.=26.528915, Alt.=119.993225m. Speed=0.612000m/h.</desc>
<speed>0.170000</speed>
</trkpt>
<trkpt lat="55.900364" lon="26.528915">
<ele>119.991272</ele>
<time>2010-06-20T14:50:55Z</time>
<desc>lat.=55.900364, lon.=26.528915, Alt.=119.991272m. Speed=0.756000m/h.</desc>
<speed>0.210000</speed>
</trkpt>
<trkpt lat="55.900364" lon="26.528912">
<ele>119.991272</ele>
<time>2010-06-20T14:50:56Z</time>
<desc>lat.=55.900364, lon.=26.528912, Alt.=119.991272m. Speed=0.396000m/h.</desc>
<speed>0.110000</speed>
</trkpt>
<trkpt lat="55.900368" lon="26.528912">
<ele>119.985413</ele>
<time>2010-06-20T14:50:57Z</time>
<desc>lat.=55.900368, lon.=26.528912, Alt.=119.985413m. Speed=0.792000m/h.</desc>
<speed>0.220000</speed>
</trkpt>
<trkpt lat="55.900368" lon="26.528912">
<ele>119.985413</ele>
<time>2010-06-20T14:50:58Z</time>
<desc>lat.=55.900368, lon.=26.528912, Alt.=119.985413m. Speed=0.360000m/h.</desc>
<speed>0.100000</speed>
</trkpt>
<trkpt lat="55.900368" lon="26.528912">
<ele>119.977600</ele>
<time>2010-06-20T14:50:59Z</time>
<desc>lat.=55.900368, lon.=26.528912, Alt.=119.977600m. Speed=0.864000m/h.</desc>
<speed>0.240000</speed>
</trkpt>
<trkpt lat="55.900364" lon="26.528910">
<ele>119.973694</ele>
<time>2010-06-20T14:51:00Z</time>
<desc>lat.=55.900364, lon.=26.528910, Alt.=119.973694m. Speed=0.720000m/h.</desc>
<speed>0.200000</speed>
</trkpt>
<trkpt lat="55.900364" lon="26.528906">
<ele>119.965881</ele>
<time>2010-06-20T14:51:01Z</time>
<desc>lat.=55.900364, lon.=26.528906, Alt.=119.965881m. Speed=0.648000m/h.</desc>
<speed>0.180000</speed>
</trkpt>
<trkpt lat="55.900364" lon="26.528904">
<ele>119.967834</ele>
<time>2010-06-20T14:51:02Z</time>
<desc>lat.=55.900364, lon.=26.528904, Alt.=119.967834m. Speed=1.044000m/h.</desc>
<speed>0.290000</speed>
</trkpt>
<trkpt lat="55.900360" lon="26.528904">
<ele>119.963928</ele>
<time>2010-06-20T14:51:03Z</time>
<desc>lat.=55.900360, lon.=26.528904, Alt.=119.963928m. Speed=1.152000m/h.</desc>
<speed>0.320000</speed>
</trkpt>
<trkpt lat="55.900364" lon="26.528883">
<ele>120.010803</ele>
<time>2010-06-20T14:51:04Z</time>
<desc>lat.=55.900364, lon.=26.528883, Alt.=120.010803m. Speed=0.900000m/h.</desc>
<speed>0.250000</speed>
</trkpt>
<trkpt lat="55.900360" lon="26.528873">
<ele>120.057678</ele>
<time>2010-06-20T14:51:05Z</time>
<desc>lat.=55.900360, lon.=26.528873, Alt.=120.057678m. Speed=0.972000m/h.</desc>
<speed>0.270000</speed>
</trkpt>
<trkpt lat="55.900349" lon="26.528864">
<ele>120.118225</ele>
<time>2010-06-20T14:51:06Z</time>
<desc>lat.=55.900349, lon.=26.528864, Alt.=120.118225m. Speed=1.296000m/h.</desc>
<speed>0.360000</speed>
</trkpt>
<trkpt lat="55.900349" lon="26.528854">
<ele>120.213928</ele>
<time>2010-06-20T14:51:07Z</time>
<desc>lat.=55.900349, lon.=26.528854, Alt.=120.213928m. Speed=1.044000m/h.</desc>
<speed>0.290000</speed>
</trkpt>
<trkpt lat="55.900349" lon="26.528847">
<ele>120.342834</ele>
<time>2010-06-20T14:51:08Z</time>
<desc>lat.=55.900349, lon.=26.528847, Alt.=120.342834m. Speed=0.828000m/h.</desc>
<speed>0.230000</speed>
</trkpt>
<trkpt lat="55.900349" lon="26.528851">
<ele>120.272522</ele>
<time>2010-06-20T14:51:09Z</time>
<desc>lat.=55.900349, lon.=26.528851, Alt.=120.272522m. Speed=0.612000m/h.</desc>
<speed>0.170000</speed>
</trkpt>
<trkpt lat="55.900356" lon="26.528841">
<ele>120.372131</ele>
<time>2010-06-20T14:51:10Z</time>
<desc>lat.=55.900356, lon.=26.528841, Alt.=120.372131m. Speed=1.044000m/h.</desc>
<speed>0.290000</speed>
</trkpt>
<trkpt lat="55.900360" lon="26.528837">
<ele>120.374084</ele>
<time>2010-06-20T14:51:11Z</time>
<desc>lat.=55.900360, lon.=26.528837, Alt.=120.374084m. Speed=1.512000m/h.</desc>
<speed>0.420000</speed>
</trkpt>
<trkpt lat="55.900356" lon="26.528845">
<ele>120.458069</ele>
<time>2010-06-20T14:51:12Z</time>
<desc>lat.=55.900356, lon.=26.528845, Alt.=120.458069m. Speed=0.972000m/h.</desc>
<speed>0.270000</speed>
</trkpt>
<trkpt lat="55.900360" lon="26.528845">
<ele>120.542053</ele>
<time>2010-06-20T14:51:13Z</time>
<desc>lat.=55.900360, lon.=26.528845, Alt.=120.542053m. Speed=0.576000m/h.</desc>
<speed>0.160000</speed>
</trkpt>
<trkpt lat="55.900368" lon="26.528841">
<ele>120.651428</ele>
<time>2010-06-20T14:51:14Z</time>
<desc>lat.=55.900368, lon.=26.528841, Alt.=120.651428m. Speed=0.792000m/h.</desc>
<speed>0.220000</speed>
</trkpt>
<trkpt lat="55.900375" lon="26.528831">
<ele>120.737366</ele>
<time>2010-06-20T14:51:15Z</time>
<desc>lat.=55.900375, lon.=26.528831, Alt.=120.737366m. Speed=1.404000m/h.</desc>
<speed>0.390000</speed>
</trkpt>
<trkpt lat="55.900375" lon="26.528824">
<ele>120.803772</ele>
<time>2010-06-20T14:51:16Z</time>
<desc>lat.=55.900375, lon.=26.528824, Alt.=120.803772m. Speed=1.260000m/h.</desc>
<speed>0.350000</speed>
</trkpt>
<trkpt lat="55.900372" lon="26.528826">
<ele>120.876038</ele>
<time>2010-06-20T14:51:17Z</time>
<desc>lat.=55.900372, lon.=26.528826, Alt.=120.876038m. Speed=0.504000m/h.</desc>
<speed>0.140000</speed>
</trkpt>
<trkpt lat="55.900364" lon="26.528830">
<ele>120.924866</ele>
<time>2010-06-20T14:51:18Z</time>
<desc>lat.=55.900364, lon.=26.528830, Alt.=120.924866m. Speed=0.216000m/h.</desc>
<speed>0.060000</speed>
</trkpt>
<trkpt lat="55.900368" lon="26.528822">
<ele>120.993225</ele>
<time>2010-06-20T14:51:19Z</time>
<desc>lat.=55.900368, lon.=26.528822, Alt.=120.993225m. Speed=0.720000m/h.</desc>
<speed>0.200000</speed>
</trkpt>
<trkpt lat="55.900364" lon="26.528828">
<ele>121.067444</ele>
<time>2010-06-20T14:51:20Z</time>
<desc>lat.=55.900364, lon.=26.528828, Alt.=121.067444m. Speed=0.540000m/h.</desc>
<speed>0.150000</speed>
</trkpt>
<trkpt lat="55.900364" lon="26.528824">
<ele>121.067444</ele>
<time>2010-06-20T14:51:21Z</time>
<desc>lat.=55.900364, lon.=26.528824, Alt.=121.067444m. Speed=0.792000m/h.</desc>
<speed>0.220000</speed>
</trkpt>
<trkpt lat="55.900364" lon="26.528820">
<ele>121.073303</ele>
<time>2010-06-20T14:51:22Z</time>
<desc>lat.=55.900364, lon.=26.528820, Alt.=121.073303m. Speed=0.936000m/h.</desc>
<speed>0.260000</speed>
</trkpt>
<trkpt lat="55.900364" lon="26.528816">
<ele>121.079163</ele>
<time>2010-06-20T14:51:23Z</time>
<desc>lat.=55.900364, lon.=26.528816, Alt.=121.079163m. Speed=1.116000m/h.</desc>
<speed>0.310000</speed>
</trkpt>
<trkpt lat="55.900360" lon="26.528812">
<ele>121.167053</ele>
<time>2010-06-20T14:51:24Z</time>
<desc>lat.=55.900360, lon.=26.528812, Alt.=121.167053m. Speed=0.900000m/h.</desc>
<speed>0.250000</speed>
</trkpt>
<trkpt lat="55.900360" lon="26.528793">
<ele>121.256897</ele>
<time>2010-06-20T14:51:25Z</time>
<desc>lat.=55.900360, lon.=26.528793, Alt.=121.256897m. Speed=1.512000m/h.</desc>
<speed>0.420000</speed>
</trkpt>
<trkpt lat="55.900356" lon="26.528774">
<ele>121.342834</ele>
<time>2010-06-20T14:51:26Z</time>
<desc>lat.=55.900356, lon.=26.528774, Alt.=121.342834m. Speed=1.944000m/h.</desc>
<speed>0.540000</speed>
</trkpt>
<trkpt lat="55.900345" lon="26.528772">
<ele>121.446350</ele>
<time>2010-06-20T14:51:27Z</time>
<desc>lat.=55.900345, lon.=26.528772, Alt.=121.446350m. Speed=1.872000m/h.</desc>
<speed>0.520000</speed>
</trkpt>
<trkpt lat="55.900333" lon="26.528776">
<ele>121.530334</ele>
<time>2010-06-20T14:51:28Z</time>
<desc>lat.=55.900333, lon.=26.528776, Alt.=121.530334m. Speed=1.692000m/h.</desc>
<speed>0.470000</speed>
</trkpt>
<trkpt lat="55.900330" lon="26.528772">
<ele>121.627991</ele>
<time>2010-06-20T14:51:29Z</time>
<desc>lat.=55.900330, lon.=26.528772, Alt.=121.627991m. Speed=1.188000m/h.</desc>
<speed>0.330000</speed>
</trkpt>
<trkpt lat="55.900318" lon="26.528786">
<ele>121.747131</ele>
<time>2010-06-20T14:51:30Z</time>
<desc>lat.=55.900318, lon.=26.528786, Alt.=121.747131m. Speed=1.404000m/h.</desc>
<speed>0.390000</speed>
</trkpt>
<trkpt lat="55.900314" lon="26.528793">
<ele>121.827209</ele>
<time>2010-06-20T14:51:31Z</time>
<desc>lat.=55.900314, lon.=26.528793, Alt.=121.827209m. Speed=1.440000m/h.</desc>
<speed>0.400000</speed>
</trkpt>
<trkpt lat="55.900307" lon="26.528791">
<ele>121.764709</ele>
<time>2010-06-20T14:51:32Z</time>
<desc>lat.=55.900307, lon.=26.528791, Alt.=121.764709m. Speed=1.800000m/h.</desc>
<speed>0.500000</speed>
</trkpt>
<trkpt lat="55.900311" lon="26.528795">
<ele>121.692444</ele>
<time>2010-06-20T14:51:33Z</time>
<desc>lat.=55.900311, lon.=26.528795, Alt.=121.692444m. Speed=1.188000m/h.</desc>
<speed>0.330000</speed>
</trkpt>
<trkpt lat="55.900314" lon="26.528786">
<ele>121.637756</ele>
<time>2010-06-20T14:51:34Z</time>
<desc>lat.=55.900314, lon.=26.528786, Alt.=121.637756m. Speed=1.332000m/h.</desc>
<speed>0.370000</speed>
</trkpt>
<trkpt lat="55.900318" lon="26.528782">
<ele>121.524475</ele>
<time>2010-06-20T14:51:35Z</time>
<desc>lat.=55.900318, lon.=26.528782, Alt.=121.524475m. Speed=1.044000m/h.</desc>
<speed>0.290000</speed>
</trkpt>
<trkpt lat="55.900314" lon="26.528793">
<ele>121.422913</ele>
<time>2010-06-20T14:51:36Z</time>
<desc>lat.=55.900314, lon.=26.528793, Alt.=121.422913m. Speed=0.216000m/h.</desc>
<speed>0.060000</speed>
</trkpt>
<trkpt lat="55.900318" lon="26.528799">
<ele>121.268616</ele>
<time>2010-06-20T14:51:37Z</time>
<desc>lat.=55.900318, lon.=26.528799, Alt.=121.268616m. Speed=0.324000m/h.</desc>
<speed>0.090000</speed>
</trkpt>
<trkpt lat="55.900322" lon="26.528811">
<ele>121.178772</ele>
<time>2010-06-20T14:51:38Z</time>
<desc>lat.=55.900322, lon.=26.528811, Alt.=121.178772m. Speed=1.008000m/h.</desc>
<speed>0.280000</speed>
</trkpt>
<trkpt lat="55.900322" lon="26.528814">
<ele>121.178772</ele>
<time>2010-06-20T14:51:39Z</time>
<desc>lat.=55.900322, lon.=26.528814, Alt.=121.178772m. Speed=1.080000m/h.</desc>
<speed>0.300000</speed>
</trkpt>
<trkpt lat="55.900333" lon="26.528818">
<ele>121.129944</ele>
<time>2010-06-20T14:51:40Z</time>
<desc>lat.=55.900333, lon.=26.528818, Alt.=121.129944m. Speed=1.512000m/h.</desc>
<speed>0.420000</speed>
</trkpt>
<trkpt lat="55.900341" lon="26.528811">
<ele>121.157288</ele>
<time>2010-06-20T14:51:41Z</time>
<desc>lat.=55.900341, lon.=26.528811, Alt.=121.157288m. Speed=1.332000m/h.</desc>
<speed>0.370000</speed>
</trkpt>
<trkpt lat="55.900349" lon="26.528803">
<ele>121.182678</ele>
<time>2010-06-20T14:51:42Z</time>
<desc>lat.=55.900349, lon.=26.528803, Alt.=121.182678m. Speed=1.332000m/h.</desc>
<speed>0.370000</speed>
</trkpt>
<trkpt lat="55.900341" lon="26.528812">
<ele>121.174866</ele>
<time>2010-06-20T14:51:43Z</time>
<desc>lat.=55.900341, lon.=26.528812, Alt.=121.174866m. Speed=0.180000m/h.</desc>
<speed>0.050000</speed>
</trkpt>
<trkpt lat="55.900345" lon="26.528816">
<ele>121.231506</ele>
<time>2010-06-20T14:51:44Z</time>
<desc>lat.=55.900345, lon.=26.528816, Alt.=121.231506m. Speed=0.360000m/h.</desc>
<speed>0.100000</speed>
</trkpt>
<trkpt lat="55.900349" lon="26.528812">
<ele>121.294006</ele>
<time>2010-06-20T14:51:45Z</time>
<desc>lat.=55.900349, lon.=26.528812, Alt.=121.294006m. Speed=0.252000m/h.</desc>
<speed>0.070000</speed>
</trkpt>
<trkpt lat="55.900349" lon="26.528814">
<ele>121.307678</ele>
<time>2010-06-20T14:51:46Z</time>
<desc>lat.=55.900349, lon.=26.528814, Alt.=121.307678m. Speed=0.540000m/h.</desc>
<speed>0.150000</speed>
</trkpt>
<trkpt lat="55.900349" lon="26.528812">
<ele>121.321350</ele>
<time>2010-06-20T14:51:47Z</time>
<desc>lat.=55.900349, lon.=26.528812, Alt.=121.321350m. Speed=1.152000m/h.</desc>
<speed>0.320000</speed>
</trkpt>
<trkpt lat="55.900356" lon="26.528807">
<ele>121.430725</ele>
<time>2010-06-20T14:51:48Z</time>
<desc>lat.=55.900356, lon.=26.528807, Alt.=121.430725m. Speed=1.116000m/h.</desc>
<speed>0.310000</speed>
</trkpt>
<trkpt lat="55.900356" lon="26.528807">
<ele>121.514709</ele>
<time>2010-06-20T14:51:49Z</time>
<desc>lat.=55.900356, lon.=26.528807, Alt.=121.514709m. Speed=0.648000m/h.</desc>
<speed>0.180000</speed>
</trkpt>
<trkpt lat="55.900360" lon="26.528807">
<ele>121.563538</ele>
<time>2010-06-20T14:51:50Z</time>
<desc>lat.=55.900360, lon.=26.528807, Alt.=121.563538m. Speed=0.612000m/h.</desc>
<speed>0.170000</speed>
</trkpt>
<trkpt lat="55.900368" lon="26.528795">
<ele>121.752991</ele>
<time>2010-06-20T14:51:51Z</time>
<desc>lat.=55.900368, lon.=26.528795, Alt.=121.752991m. Speed=1.188000m/h.</desc>
<speed>0.330000</speed>
</trkpt>
<trkpt lat="55.900372" lon="26.528791">
<ele>121.954163</ele>
<time>2010-06-20T14:51:52Z</time>
<desc>lat.=55.900372, lon.=26.528791, Alt.=121.954163m. Speed=1.044000m/h.</desc>
<speed>0.290000</speed>
</trkpt>
<trkpt lat="55.900375" lon="26.528780">
<ele>122.085022</ele>
<time>2010-06-20T14:51:53Z</time>
<desc>lat.=55.900375, lon.=26.528780, Alt.=122.085022m. Speed=1.224000m/h.</desc>
<speed>0.340000</speed>
</trkpt>
<trkpt lat="55.900383" lon="26.528759">
<ele>122.147522</ele>
<time>2010-06-20T14:51:54Z</time>
<desc>lat.=55.900383, lon.=26.528759, Alt.=122.147522m. Speed=2.124000m/h.</desc>
<speed>0.590000</speed>
</trkpt>
<trkpt lat="55.900383" lon="26.528746">
<ele>122.194397</ele>
<time>2010-06-20T14:51:55Z</time>
<desc>lat.=55.900383, lon.=26.528746, Alt.=122.194397m. Speed=2.340000m/h.</desc>
<speed>0.650000</speed>
</trkpt>
<trkpt lat="55.900379" lon="26.528749">
<ele>122.317444</ele>
<time>2010-06-20T14:51:56Z</time>
<desc>lat.=55.900379, lon.=26.528749, Alt.=122.317444m. Speed=1.260000m/h.</desc>
<speed>0.350000</speed>
</trkpt>
<trkpt lat="55.900383" lon="26.528753">
<ele>122.360413</ele>
<time>2010-06-20T14:51:57Z</time>
<desc>lat.=55.900383, lon.=26.528753, Alt.=122.360413m. Speed=0.936000m/h.</desc>
<speed>0.260000</speed>
</trkpt>
<trkpt lat="55.900379" lon="26.528748">
<ele>122.366272</ele>
<time>2010-06-20T14:51:58Z</time>
<desc>lat.=55.900379, lon.=26.528748, Alt.=122.366272m. Speed=1.008000m/h.</desc>
<speed>0.280000</speed>
</trkpt>
<trkpt lat="55.900379" lon="26.528755">
<ele>122.336975</ele>
<time>2010-06-20T14:51:59Z</time>
<desc>lat.=55.900379, lon.=26.528755, Alt.=122.336975m. Speed=0.540000m/h.</desc>
<speed>0.150000</speed>
</trkpt>
<trkpt lat="55.900375" lon="26.528761">
<ele>122.407288</ele>
<time>2010-06-20T14:52:00Z</time>
<desc>lat.=55.900375, lon.=26.528761, Alt.=122.407288m. Speed=0.108000m/h.</desc>
<speed>0.030000</speed>
</trkpt>
<trkpt lat="55.900375" lon="26.528761">
<ele>122.411194</ele>
<time>2010-06-20T14:52:01Z</time>
<desc>lat.=55.900375, lon.=26.528761, Alt.=122.411194m. Speed=0.180000m/h.</desc>
<speed>0.050000</speed>
</trkpt>
<trkpt lat="55.900375" lon="26.528761">
<ele>122.415100</ele>
<time>2010-06-20T14:52:02Z</time>
<desc>lat.=55.900375, lon.=26.528761, Alt.=122.415100m. Speed=1.080000m/h.</desc>
<speed>0.300000</speed>
</trkpt>
<trkpt lat="55.900375" lon="26.528751">
<ele>122.506897</ele>
<time>2010-06-20T14:52:03Z</time>
<desc>lat.=55.900375, lon.=26.528751, Alt.=122.506897m. Speed=1.044000m/h.</desc>
<speed>0.290000</speed>
</trkpt>
<trkpt lat="55.900375" lon="26.528749">
<ele>122.508850</ele>
<time>2010-06-20T14:52:04Z</time>
<desc>lat.=55.900375, lon.=26.528749, Alt.=122.508850m. Speed=0.792000m/h.</desc>
<speed>0.220000</speed>
</trkpt>
<trkpt lat="55.900372" lon="26.528749">
<ele>122.606506</ele>
<time>2010-06-20T14:52:05Z</time>
<desc>lat.=55.900372, lon.=26.528749, Alt.=122.606506m. Speed=0.360000m/h.</desc>
<speed>0.100000</speed>
</trkpt>
<trkpt lat="55.900368" lon="26.528761">
<ele>122.721741</ele>
<time>2010-06-20T14:52:06Z</time>
<desc>lat.=55.900368, lon.=26.528761, Alt.=122.721741m. Speed=0.432000m/h.</desc>
<speed>0.120000</speed>
</trkpt>
<trkpt lat="55.900372" lon="26.528763">
<ele>122.725647</ele>
<time>2010-06-20T14:52:07Z</time>
<desc>lat.=55.900372, lon.=26.528763, Alt.=122.725647m. Speed=0.648000m/h.</desc>
<speed>0.180000</speed>
</trkpt>
<trkpt lat="55.900368" lon="26.528761">
<ele>122.729553</ele>
<time>2010-06-20T14:52:08Z</time>
<desc>lat.=55.900368, lon.=26.528761, Alt.=122.729553m. Speed=0.144000m/h.</desc>
<speed>0.040000</speed>
</trkpt>
<trkpt lat="55.900368" lon="26.528759">
<ele>122.733459</ele>
<time>2010-06-20T14:52:09Z</time>
<desc>lat.=55.900368, lon.=26.528759, Alt.=122.733459m. Speed=1.008000m/h.</desc>
<speed>0.280000</speed>
</trkpt>
<trkpt lat="55.900372" lon="26.528755">
<ele>122.739319</ele>
<time>2010-06-20T14:52:10Z</time>
<desc>lat.=55.900372, lon.=26.528755, Alt.=122.739319m. Speed=1.440000m/h.</desc>
<speed>0.400000</speed>
</trkpt>
<trkpt lat="55.900368" lon="26.528782">
<ele>122.690491</ele>
<time>2010-06-20T14:52:11Z</time>
<desc>lat.=55.900368, lon.=26.528782, Alt.=122.690491m. Speed=1.512000m/h.</desc>
<speed>0.420000</speed>
</trkpt>
<trkpt lat="55.900368" lon="26.528807">
<ele>122.776428</ele>
<time>2010-06-20T14:52:12Z</time>
<desc>lat.=55.900368, lon.=26.528807, Alt.=122.776428m. Speed=1.548000m/h.</desc>
<speed>0.430000</speed>
</trkpt>
<trkpt lat="55.900368" lon="26.528818">
<ele>122.766663</ele>
<time>2010-06-20T14:52:13Z</time>
<desc>lat.=55.900368, lon.=26.528818, Alt.=122.766663m. Speed=1.224000m/h.</desc>
<speed>0.340000</speed>
</trkpt>
<trkpt lat="55.900368" lon="26.528830">
<ele>122.784241</ele>
<time>2010-06-20T14:52:14Z</time>
<desc>lat.=55.900368, lon.=26.528830, Alt.=122.784241m. Speed=1.008000m/h.</desc>
<speed>0.280000</speed>
</trkpt>
<trkpt lat="55.900364" lon="26.528841">
<ele>122.770569</ele>
<time>2010-06-20T14:52:15Z</time>
<desc>lat.=55.900364, lon.=26.528841, Alt.=122.770569m. Speed=0.792000m/h.</desc>
<speed>0.220000</speed>
</trkpt>
<trkpt lat="55.900356" lon="26.528856">
<ele>122.713928</ele>
<time>2010-06-20T14:52:16Z</time>
<desc>lat.=55.900356, lon.=26.528856, Alt.=122.713928m. Speed=1.080000m/h.</desc>
<speed>0.300000</speed>
</trkpt>
<trkpt lat="55.900352" lon="26.528860">
<ele>122.633850</ele>
<time>2010-06-20T14:52:17Z</time>
<desc>lat.=55.900352, lon.=26.528860, Alt.=122.633850m. Speed=0.540000m/h.</desc>
<speed>0.150000</speed>
</trkpt>
<trkpt lat="55.900349" lon="26.528862">
<ele>122.583069</ele>
<time>2010-06-20T14:52:18Z</time>
<desc>lat.=55.900349, lon.=26.528862, Alt.=122.583069m. Speed=0.432000m/h.</desc>
<speed>0.120000</speed>
</trkpt>
<trkpt lat="55.900341" lon="26.528870">
<ele>122.579163</ele>
<time>2010-06-20T14:52:19Z</time>
<desc>lat.=55.900341, lon.=26.528870, Alt.=122.579163m. Speed=0.216000m/h.</desc>
<speed>0.060000</speed>
</trkpt>
<trkpt lat="55.900330" lon="26.528879">
<ele>122.604553</ele>
<time>2010-06-20T14:52:20Z</time>
<desc>lat.=55.900330, lon.=26.528879, Alt.=122.604553m. Speed=1.116000m/h.</desc>
<speed>0.310000</speed>
</trkpt>
<trkpt lat="55.900326" lon="26.528887">
<ele>122.663147</ele>
<time>2010-06-20T14:52:21Z</time>
<desc>lat.=55.900326, lon.=26.528887, Alt.=122.663147m. Speed=0.540000m/h.</desc>
<speed>0.150000</speed>
</trkpt>
<trkpt lat="55.900330" lon="26.528893">
<ele>122.731506</ele>
<time>2010-06-20T14:52:22Z</time>
<desc>lat.=55.900330, lon.=26.528893, Alt.=122.731506m. Speed=0.936000m/h.</desc>
<speed>0.260000</speed>
</trkpt>
<trkpt lat="55.900326" lon="26.528904">
<ele>122.752991</ele>
<time>2010-06-20T14:52:23Z</time>
<desc>lat.=55.900326, lon.=26.528904, Alt.=122.752991m. Speed=1.116000m/h.</desc>
<speed>0.310000</speed>
</trkpt>
<trkpt lat="55.900322" lon="26.528915">
<ele>122.776428</ele>
<time>2010-06-20T14:52:24Z</time>
<desc>lat.=55.900322, lon.=26.528915, Alt.=122.776428m. Speed=0.540000m/h.</desc>
<speed>0.150000</speed>
</trkpt>
<trkpt lat="55.900322" lon="26.528921">
<ele>122.817444</ele>
<time>2010-06-20T14:52:25Z</time>
<desc>lat.=55.900322, lon.=26.528921, Alt.=122.817444m. Speed=0.684000m/h.</desc>
<speed>0.190000</speed>
</trkpt>
<trkpt lat="55.900318" lon="26.528917">
<ele>122.883850</ele>
<time>2010-06-20T14:52:26Z</time>
<desc>lat.=55.900318, lon.=26.528917, Alt.=122.883850m. Speed=0.792000m/h.</desc>
<speed>0.220000</speed>
</trkpt>
<trkpt lat="55.900318" lon="26.528923">
<ele>122.917053</ele>
<time>2010-06-20T14:52:27Z</time>
<desc>lat.=55.900318, lon.=26.528923, Alt.=122.917053m. Speed=1.008000m/h.</desc>
<speed>0.280000</speed>
</trkpt>
<trkpt lat="55.900322" lon="26.528923">
<ele>122.924866</ele>
<time>2010-06-20T14:52:28Z</time>
<desc>lat.=55.900322, lon.=26.528923, Alt.=122.924866m. Speed=0.360000m/h.</desc>
<speed>0.100000</speed>
</trkpt>
<trkpt lat="55.900322" lon="26.528923">
<ele>122.932678</ele>
<time>2010-06-20T14:52:29Z</time>
<desc>lat.=55.900322, lon.=26.528923, Alt.=122.932678m. Speed=0.900000m/h.</desc>
<speed>0.250000</speed>
</trkpt>
<trkpt lat="55.900326" lon="26.528925">
<ele>122.934631</ele>
<time>2010-06-20T14:52:30Z</time>
<desc>lat.=55.900326, lon.=26.528925, Alt.=122.934631m. Speed=1.080000m/h.</desc>
<speed>0.300000</speed>
</trkpt>
<trkpt lat="55.900326" lon="26.528929">
<ele>122.930725</ele>
<time>2010-06-20T14:52:31Z</time>
<desc>lat.=55.900326, lon.=26.528929, Alt.=122.930725m. Speed=1.152000m/h.</desc>
<speed>0.320000</speed>
</trkpt>
<trkpt lat="55.900326" lon="26.528929">
<ele>122.920959</ele>
<time>2010-06-20T14:52:32Z</time>
<desc>lat.=55.900326, lon.=26.528929, Alt.=122.920959m. Speed=1.080000m/h.</desc>
<speed>0.300000</speed>
</trkpt>
<trkpt lat="55.900326" lon="26.528946">
<ele>122.877991</ele>
<time>2010-06-20T14:52:33Z</time>
<desc>lat.=55.900326, lon.=26.528946, Alt.=122.877991m. Speed=1.800000m/h.</desc>
<speed>0.500000</speed>
</trkpt>
<trkpt lat="55.900326" lon="26.528959">
<ele>122.741272</ele>
<time>2010-06-20T14:52:34Z</time>
<desc>lat.=55.900326, lon.=26.528959, Alt.=122.741272m. Speed=1.872000m/h.</desc>
<speed>0.520000</speed>
</trkpt>
<trkpt lat="55.900318" lon="26.528967">
<ele>122.661194</ele>
<time>2010-06-20T14:52:35Z</time>
<desc>lat.=55.900318, lon.=26.528967, Alt.=122.661194m. Speed=1.116000m/h.</desc>
<speed>0.310000</speed>
</trkpt>
<trkpt lat="55.900326" lon="26.528963">
<ele>122.602600</ele>
<time>2010-06-20T14:52:36Z</time>
<desc>lat.=55.900326, lon.=26.528963, Alt.=122.602600m. Speed=1.584000m/h.</desc>
<speed>0.440000</speed>
</trkpt>
<trkpt lat="55.900326" lon="26.528969">
<ele>122.477600</ele>
<time>2010-06-20T14:52:37Z</time>
<desc>lat.=55.900326, lon.=26.528969, Alt.=122.477600m. Speed=1.584000m/h.</desc>
<speed>0.440000</speed>
</trkpt>
<trkpt lat="55.900322" lon="26.528976">
<ele>122.335022</ele>
<time>2010-06-20T14:52:38Z</time>
<desc>lat.=55.900322, lon.=26.528976, Alt.=122.335022m. Speed=1.332000m/h.</desc>
<speed>0.370000</speed>
</trkpt>
<trkpt lat="55.900322" lon="26.528994">
<ele>122.188538</ele>
<time>2010-06-20T14:52:39Z</time>
<desc>lat.=55.900322, lon.=26.528994, Alt.=122.188538m. Speed=1.224000m/h.</desc>
<speed>0.340000</speed>
</trkpt>
<trkpt lat="55.900318" lon="26.529005">
<ele>122.131897</ele>
<time>2010-06-20T14:52:40Z</time>
<desc>lat.=55.900318, lon.=26.529005, Alt.=122.131897m. Speed=1.296000m/h.</desc>
<speed>0.360000</speed>
</trkpt>
<trkpt lat="55.900311" lon="26.529015">
<ele>122.094788</ele>
<time>2010-06-20T14:52:41Z</time>
<desc>lat.=55.900311, lon.=26.529015, Alt.=122.094788m. Speed=0.936000m/h.</desc>
<speed>0.260000</speed>
</trkpt>
<trkpt lat="55.900299" lon="26.529028">
<ele>122.012756</ele>
<time>2010-06-20T14:52:42Z</time>
<desc>lat.=55.900299, lon.=26.529028, Alt.=122.012756m. Speed=1.800000m/h.</desc>
<speed>0.500000</speed>
</trkpt>
<trkpt lat="55.900299" lon="26.529030">
<ele>121.977600</ele>
<time>2010-06-20T14:52:43Z</time>
<desc>lat.=55.900299, lon.=26.529030, Alt.=121.977600m. Speed=1.116000m/h.</desc>
<speed>0.310000</speed>
</trkpt>
<trkpt lat="55.900303" lon="26.529030">
<ele>121.930725</ele>
<time>2010-06-20T14:52:44Z</time>
<desc>lat.=55.900303, lon.=26.529030, Alt.=121.930725m. Speed=0.792000m/h.</desc>
<speed>0.220000</speed>
</trkpt>
<trkpt lat="55.900291" lon="26.529024">
<ele>121.749084</ele>
<time>2010-06-20T14:52:45Z</time>
<desc>lat.=55.900291, lon.=26.529024, Alt.=121.749084m. Speed=0.648000m/h.</desc>
<speed>0.180000</speed>
</trkpt>
<trkpt lat="55.900280" lon="26.529034">
<ele>121.649475</ele>
<time>2010-06-20T14:52:46Z</time>
<desc>lat.=55.900280, lon.=26.529034, Alt.=121.649475m. Speed=1.116000m/h.</desc>
<speed>0.310000</speed>
</trkpt>
<trkpt lat="55.900272" lon="26.529039">
<ele>121.575256</ele>
<time>2010-06-20T14:52:47Z</time>
<desc>lat.=55.900272, lon.=26.529039, Alt.=121.575256m. Speed=1.332000m/h.</desc>
<speed>0.370000</speed>
</trkpt>
<trkpt lat="55.900269" lon="26.529049">
<ele>121.495178</ele>
<time>2010-06-20T14:52:48Z</time>
<desc>lat.=55.900269, lon.=26.529049, Alt.=121.495178m. Speed=1.224000m/h.</desc>
<speed>0.340000</speed>
</trkpt>
<trkpt lat="55.900261" lon="26.529058">
<ele>121.448303</ele>
<time>2010-06-20T14:52:49Z</time>
<desc>lat.=55.900261, lon.=26.529058, Alt.=121.448303m. Speed=1.296000m/h.</desc>
<speed>0.360000</speed>
</trkpt>
<trkpt lat="55.900253" lon="26.529068">
<ele>121.383850</ele>
<time>2010-06-20T14:52:50Z</time>
<desc>lat.=55.900253, lon.=26.529068, Alt.=121.383850m. Speed=1.764000m/h.</desc>
<speed>0.490000</speed>
</trkpt>
<trkpt lat="55.900246" lon="26.529060">
<ele>121.295959</ele>
<time>2010-06-20T14:52:51Z</time>
<desc>lat.=55.900246, lon.=26.529060, Alt.=121.295959m. Speed=1.656000m/h.</desc>
<speed>0.460000</speed>
</trkpt>
<trkpt lat="55.900234" lon="26.529068">
<ele>121.249084</ele>
<time>2010-06-20T14:52:52Z</time>
<desc>lat.=55.900234, lon.=26.529068, Alt.=121.249084m. Speed=1.872000m/h.</desc>
<speed>0.520000</speed>
</trkpt>
<trkpt lat="55.900234" lon="26.529072">
<ele>121.192444</ele>
<time>2010-06-20T14:52:53Z</time>
<desc>lat.=55.900234, lon.=26.529072, Alt.=121.192444m. Speed=0.900000m/h.</desc>
<speed>0.250000</speed>
</trkpt>
<trkpt lat="55.900238" lon="26.529068">
<ele>121.092834</ele>
<time>2010-06-20T14:52:54Z</time>
<desc>lat.=55.900238, lon.=26.529068, Alt.=121.092834m. Speed=0.396000m/h.</desc>
<speed>0.110000</speed>
</trkpt>
<trkpt lat="55.900246" lon="26.529072">
<ele>121.079163</ele>
<time>2010-06-20T14:52:55Z</time>
<desc>lat.=55.900246, lon.=26.529072, Alt.=121.079163m. Speed=1.440000m/h.</desc>
<speed>0.400000</speed>
</trkpt>
<trkpt lat="55.900249" lon="26.529072">
<ele>121.073303</ele>
<time>2010-06-20T14:52:56Z</time>
<desc>lat.=55.900249, lon.=26.529072, Alt.=121.073303m. Speed=1.584000m/h.</desc>
<speed>0.440000</speed>
</trkpt>
<trkpt lat="55.900257" lon="26.529074">
<ele>121.137756</ele>
<time>2010-06-20T14:52:57Z</time>
<desc>lat.=55.900257, lon.=26.529074, Alt.=121.137756m. Speed=2.016000m/h.</desc>
<speed>0.560000</speed>
</trkpt>
<trkpt lat="55.900253" lon="26.529074">
<ele>121.186584</ele>
<time>2010-06-20T14:52:58Z</time>
<desc>lat.=55.900253, lon.=26.529074, Alt.=121.186584m. Speed=0.936000m/h.</desc>
<speed>0.260000</speed>
</trkpt>
<trkpt lat="55.900253" lon="26.529070">
<ele>121.223694</ele>
<time>2010-06-20T14:52:59Z</time>
<desc>lat.=55.900253, lon.=26.529070, Alt.=121.223694m. Speed=0.576000m/h.</desc>
<speed>0.160000</speed>
</trkpt>
<trkpt lat="55.900253" lon="26.529064">
<ele>121.309631</ele>
<time>2010-06-20T14:53:00Z</time>
<desc>lat.=55.900253, lon.=26.529064, Alt.=121.309631m. Speed=0.360000m/h.</desc>
<speed>0.100000</speed>
</trkpt>
<trkpt lat="55.900257" lon="26.529051">
<ele>121.389709</ele>
<time>2010-06-20T14:53:01Z</time>
<desc>lat.=55.900257, lon.=26.529051, Alt.=121.389709m. Speed=0.648000m/h.</desc>
<speed>0.180000</speed>
</trkpt>
<trkpt lat="55.900261" lon="26.529049">
<ele>121.391663</ele>
<time>2010-06-20T14:53:02Z</time>
<desc>lat.=55.900261, lon.=26.529049, Alt.=121.391663m. Speed=0.684000m/h.</desc>
<speed>0.190000</speed>
</trkpt>
<trkpt lat="55.900261" lon="26.529047">
<ele>121.389709</ele>
<time>2010-06-20T14:53:03Z</time>
<desc>lat.=55.900261, lon.=26.529047, Alt.=121.389709m. Speed=0.180000m/h.</desc>
<speed>0.050000</speed>
</trkpt>
<trkpt lat="55.900261" lon="26.529047">
<ele>121.387756</ele>
<time>2010-06-20T14:53:04Z</time>
<desc>lat.=55.900261, lon.=26.529047, Alt.=121.387756m. Speed=0.036000m/h.</desc>
<speed>0.010000</speed>
</trkpt>
<trkpt lat="55.900261" lon="26.529047">
<ele>121.385803</ele>
<time>2010-06-20T14:53:05Z</time>
<desc>lat.=55.900261, lon.=26.529047, Alt.=121.385803m. Speed=1.476000m/h.</desc>
<speed>0.410000</speed>
</trkpt>
<trkpt lat="55.900272" lon="26.529045">
<ele>121.372131</ele>
<time>2010-06-20T14:53:06Z</time>
<desc>lat.=55.900272, lon.=26.529045, Alt.=121.372131m. Speed=2.196000m/h.</desc>
<speed>0.610000</speed>
</trkpt>
<trkpt lat="55.900276" lon="26.529041">
<ele>121.374084</ele>
<time>2010-06-20T14:53:07Z</time>
<desc>lat.=55.900276, lon.=26.529041, Alt.=121.374084m. Speed=2.124000m/h.</desc>
<speed>0.590000</speed>
</trkpt>
<trkpt lat="55.900276" lon="26.529066">
<ele>121.446350</ele>
<time>2010-06-20T14:53:08Z</time>
<desc>lat.=55.900276, lon.=26.529066, Alt.=121.446350m. Speed=2.160000m/h.</desc>
<speed>0.600000</speed>
</trkpt>
<trkpt lat="55.900272" lon="26.529081">
<ele>121.493225</ele>
<time>2010-06-20T14:53:09Z</time>
<desc>lat.=55.900272, lon.=26.529081, Alt.=121.493225m. Speed=1.620000m/h.</desc>
<speed>0.450000</speed>
</trkpt>
<trkpt lat="55.900272" lon="26.529078">
<ele>121.452209</ele>
<time>2010-06-20T14:53:10Z</time>
<desc>lat.=55.900272, lon.=26.529078, Alt.=121.452209m. Speed=0.468000m/h.</desc>
<speed>0.130000</speed>
</trkpt>
<trkpt lat="55.900272" lon="26.529078">
<ele>121.415100</ele>
<time>2010-06-20T14:53:11Z</time>
<desc>lat.=55.900272, lon.=26.529078, Alt.=121.415100m. Speed=0.360000m/h.</desc>
<speed>0.100000</speed>
</trkpt>
<trkpt lat="55.900269" lon="26.529089">
<ele>121.333069</ele>
<time>2010-06-20T14:53:12Z</time>
<desc>lat.=55.900269, lon.=26.529089, Alt.=121.333069m. Speed=0.180000m/h.</desc>
<speed>0.050000</speed>
</trkpt>
<trkpt lat="55.900261" lon="26.529102">
<ele>121.190491</ele>
<time>2010-06-20T14:53:13Z</time>
<desc>lat.=55.900261, lon.=26.529102, Alt.=121.190491m. Speed=1.044000m/h.</desc>
<speed>0.290000</speed>
</trkpt>
<trkpt lat="55.900261" lon="26.529104">
<ele>121.184631</ele>
<time>2010-06-20T14:53:14Z</time>
<desc>lat.=55.900261, lon.=26.529104, Alt.=121.184631m. Speed=0.972000m/h.</desc>
<speed>0.270000</speed>
</trkpt>
<trkpt lat="55.900257" lon="26.529108">
<ele>121.176819</ele>
<time>2010-06-20T14:53:15Z</time>
<desc>lat.=55.900257, lon.=26.529108, Alt.=121.176819m. Speed=1.080000m/h.</desc>
<speed>0.300000</speed>
</trkpt>
<trkpt lat="55.900265" lon="26.529108">
<ele>121.227600</ele>
<time>2010-06-20T14:53:16Z</time>
<desc>lat.=55.900265, lon.=26.529108, Alt.=121.227600m. Speed=0.720000m/h.</desc>
<speed>0.200000</speed>
</trkpt>
<trkpt lat="55.900261" lon="26.529123">
<ele>121.276428</ele>
<time>2010-06-20T14:53:17Z</time>
<desc>lat.=55.900261, lon.=26.529123, Alt.=121.276428m. Speed=1.404000m/h.</desc>
<speed>0.390000</speed>
</trkpt>
<trkpt lat="55.900261" lon="26.529123">
<ele>121.379944</ele>
<time>2010-06-20T14:53:18Z</time>
<desc>lat.=55.900261, lon.=26.529123, Alt.=121.379944m. Speed=1.476000m/h.</desc>
<speed>0.410000</speed>
</trkpt>
<trkpt lat="55.900272" lon="26.529102">
<ele>121.518616</ele>
<time>2010-06-20T14:53:19Z</time>
<desc>lat.=55.900272, lon.=26.529102, Alt.=121.518616m. Speed=0.720000m/h.</desc>
<speed>0.200000</speed>
</trkpt>
<trkpt lat="55.900272" lon="26.529085">
<ele>121.860413</ele>
<time>2010-06-20T14:53:20Z</time>
<desc>lat.=55.900272, lon.=26.529085, Alt.=121.860413m. Speed=0.576000m/h.</desc>
<speed>0.160000</speed>
</trkpt>
<trkpt lat="55.900280" lon="26.529072">
<ele>122.161194</ele>
<time>2010-06-20T14:53:21Z</time>
<desc>lat.=55.900280, lon.=26.529072, Alt.=122.161194m. Speed=0.720000m/h.</desc>
<speed>0.200000</speed>
</trkpt>
<trkpt lat="55.900288" lon="26.529078">
<ele>122.153381</ele>
<time>2010-06-20T14:53:22Z</time>
<desc>lat.=55.900288, lon.=26.529078, Alt.=122.153381m. Speed=1.440000m/h.</desc>
<speed>0.400000</speed>
</trkpt>
<trkpt lat="55.900291" lon="26.529099">
<ele>122.190491</ele>
<time>2010-06-20T14:53:23Z</time>
<desc>lat.=55.900291, lon.=26.529099, Alt.=122.190491m. Speed=1.728000m/h.</desc>
<speed>0.480000</speed>
</trkpt>
<trkpt lat="55.900288" lon="26.529104">
<ele>122.194397</ele>
<time>2010-06-20T14:53:24Z</time>
<desc>lat.=55.900288, lon.=26.529104, Alt.=122.194397m. Speed=1.008000m/h.</desc>
<speed>0.280000</speed>
</trkpt>
<trkpt lat="55.900291" lon="26.529091">
<ele>122.342834</ele>
<time>2010-06-20T14:53:25Z</time>
<desc>lat.=55.900291, lon.=26.529091, Alt.=122.342834m. Speed=1.080000m/h.</desc>
<speed>0.300000</speed>
</trkpt>
<trkpt lat="55.900299" lon="26.529083">
<ele>122.354553</ele>
<time>2010-06-20T14:53:26Z</time>
<desc>lat.=55.900299, lon.=26.529083, Alt.=122.354553m. Speed=1.332000m/h.</desc>
<speed>0.370000</speed>
</trkpt>
<trkpt lat="55.900291" lon="26.529099">
<ele>122.336975</ele>
<time>2010-06-20T14:53:27Z</time>
<desc>lat.=55.900291, lon.=26.529099, Alt.=122.336975m. Speed=0.504000m/h.</desc>
<speed>0.140000</speed>
</trkpt>
<trkpt lat="55.900291" lon="26.529078">
<ele>122.614319</ele>
<time>2010-06-20T14:53:28Z</time>
<desc>lat.=55.900291, lon.=26.529078, Alt.=122.614319m. Speed=0.144000m/h.</desc>
<speed>0.040000</speed>
</trkpt>
<trkpt lat="55.900291" lon="26.529058">
<ele>123.042053</ele>
<time>2010-06-20T14:53:29Z</time>
<desc>lat.=55.900291, lon.=26.529058, Alt.=123.042053m. Speed=1.260000m/h.</desc>
<speed>0.350000</speed>
</trkpt>
<trkpt lat="55.900299" lon="26.529022">
<ele>123.190491</ele>
<time>2010-06-20T14:53:30Z</time>
<desc>lat.=55.900299, lon.=26.529022, Alt.=123.190491m. Speed=1.980000m/h.</desc>
<speed>0.550000</speed>
</trkpt>
<trkpt lat="55.900299" lon="26.529001">
<ele>123.348694</ele>
<time>2010-06-20T14:53:31Z</time>
<desc>lat.=55.900299, lon.=26.529001, Alt.=123.348694m. Speed=1.692000m/h.</desc>
<speed>0.470000</speed>
</trkpt>
<trkpt lat="55.900295" lon="26.528976">
<ele>123.487366</ele>
<time>2010-06-20T14:53:32Z</time>
<desc>lat.=55.900295, lon.=26.528976, Alt.=123.487366m. Speed=1.836000m/h.</desc>
<speed>0.510000</speed>
</trkpt>
<trkpt lat="55.900299" lon="26.528946">
<ele>123.499084</ele>
<time>2010-06-20T14:53:33Z</time>
<desc>lat.=55.900299, lon.=26.528946, Alt.=123.499084m. Speed=1.908000m/h.</desc>
<speed>0.530000</speed>
</trkpt>
<trkpt lat="55.900307" lon="26.528929">
<ele>123.502991</ele>
<time>2010-06-20T14:53:34Z</time>
<desc>lat.=55.900307, lon.=26.528929, Alt.=123.502991m. Speed=1.368000m/h.</desc>
<speed>0.380000</speed>
</trkpt>
<trkpt lat="55.900307" lon="26.528893">
<ele>123.516663</ele>
<time>2010-06-20T14:53:35Z</time>
<desc>lat.=55.900307, lon.=26.528893, Alt.=123.516663m. Speed=2.232000m/h.</desc>
<speed>0.620000</speed>
</trkpt>
<trkpt lat="55.900307" lon="26.528873">
<ele>123.579163</ele>
<time>2010-06-20T14:53:36Z</time>
<desc>lat.=55.900307, lon.=26.528873, Alt.=123.579163m. Speed=1.944000m/h.</desc>
<speed>0.540000</speed>
</trkpt>
<trkpt lat="55.900307" lon="26.528870">
<ele>123.678772</ele>
<time>2010-06-20T14:53:37Z</time>
<desc>lat.=55.900307, lon.=26.528870, Alt.=123.678772m. Speed=0.828000m/h.</desc>
<speed>0.230000</speed>
</trkpt>
<trkpt lat="55.900303" lon="26.528864">
<ele>123.772522</ele>
<time>2010-06-20T14:53:38Z</time>
<desc>lat.=55.900303, lon.=26.528864, Alt.=123.772522m. Speed=0.504000m/h.</desc>
<speed>0.140000</speed>
</trkpt>
<trkpt lat="55.900303" lon="26.528851">
<ele>123.917053</ele>
<time>2010-06-20T14:53:39Z</time>
<desc>lat.=55.900303, lon.=26.528851, Alt.=123.917053m. Speed=0.648000m/h.</desc>
<speed>0.180000</speed>
</trkpt>
<trkpt lat="55.900307" lon="26.528835">
<ele>124.010803</ele>
<time>2010-06-20T14:53:40Z</time>
<desc>lat.=55.900307, lon.=26.528835, Alt.=124.010803m. Speed=1.008000m/h.</desc>
<speed>0.280000</speed>
</trkpt>
<trkpt lat="55.900307" lon="26.528831">
<ele>124.022522</ele>
<time>2010-06-20T14:53:41Z</time>
<desc>lat.=55.900307, lon.=26.528831, Alt.=124.022522m. Speed=1.764000m/h.</desc>
<speed>0.490000</speed>
</trkpt>
<trkpt lat="55.900314" lon="26.528818">
<ele>124.002991</ele>
<time>2010-06-20T14:53:42Z</time>
<desc>lat.=55.900314, lon.=26.528818, Alt.=124.002991m. Speed=1.728000m/h.</desc>
<speed>0.480000</speed>
</trkpt>
<trkpt lat="55.900322" lon="26.528803">
<ele>124.028381</ele>
<time>2010-06-20T14:53:43Z</time>
<desc>lat.=55.900322, lon.=26.528803, Alt.=124.028381m. Speed=1.692000m/h.</desc>
<speed>0.470000</speed>
</trkpt>
<trkpt lat="55.900326" lon="26.528786">
<ele>124.112366</ele>
<time>2010-06-20T14:53:44Z</time>
<desc>lat.=55.900326, lon.=26.528786, Alt.=124.112366m. Speed=1.728000m/h.</desc>
<speed>0.480000</speed>
</trkpt>
<trkpt lat="55.900333" lon="26.528774">
<ele>124.170959</ele>
<time>2010-06-20T14:53:45Z</time>
<desc>lat.=55.900333, lon.=26.528774, Alt.=124.170959m. Speed=1.620000m/h.</desc>
<speed>0.450000</speed>
</trkpt>
<trkpt lat="55.900341" lon="26.528759">
<ele>124.192444</ele>
<time>2010-06-20T14:53:46Z</time>
<desc>lat.=55.900341, lon.=26.528759, Alt.=124.192444m. Speed=2.052000m/h.</desc>
<speed>0.570000</speed>
</trkpt>
<trkpt lat="55.900345" lon="26.528751">
<ele>124.213928</ele>
<time>2010-06-20T14:53:47Z</time>
<desc>lat.=55.900345, lon.=26.528751, Alt.=124.213928m. Speed=1.944000m/h.</desc>
<speed>0.540000</speed>
</trkpt>
<trkpt lat="55.900349" lon="26.528744">
<ele>124.126038</ele>
<time>2010-06-20T14:53:48Z</time>
<desc>lat.=55.900349, lon.=26.528744, Alt.=124.126038m. Speed=1.548000m/h.</desc>
<speed>0.430000</speed>
</trkpt>
<trkpt lat="55.900352" lon="26.528738">
<ele>124.069397</ele>
<time>2010-06-20T14:53:49Z</time>
<desc>lat.=55.900352, lon.=26.528738, Alt.=124.069397m. Speed=1.368000m/h.</desc>
<speed>0.380000</speed>
</trkpt>
<trkpt lat="55.900349" lon="26.528738">
<ele>124.051819</ele>
<time>2010-06-20T14:53:50Z</time>
<desc>lat.=55.900349, lon.=26.528738, Alt.=124.051819m. Speed=0.720000m/h.</desc>
<speed>0.200000</speed>
</trkpt>
<trkpt lat="55.900352" lon="26.528730">
<ele>124.051819</ele>
<time>2010-06-20T14:53:51Z</time>
<desc>lat.=55.900352, lon.=26.528730, Alt.=124.051819m. Speed=1.044000m/h.</desc>
<speed>0.290000</speed>
</trkpt>
<trkpt lat="55.900352" lon="26.528727">
<ele>123.920959</ele>
<time>2010-06-20T14:53:52Z</time>
<desc>lat.=55.900352, lon.=26.528727, Alt.=123.920959m. Speed=1.044000m/h.</desc>
<speed>0.290000</speed>
</trkpt>
<trkpt lat="55.900360" lon="26.528727">
<ele>123.815491</ele>
<time>2010-06-20T14:53:53Z</time>
<desc>lat.=55.900360, lon.=26.528727, Alt.=123.815491m. Speed=0.576000m/h.</desc>
<speed>0.160000</speed>
</trkpt>
<trkpt lat="55.900360" lon="26.528725">
<ele>123.825256</ele>
<time>2010-06-20T14:53:54Z</time>
<desc>lat.=55.900360, lon.=26.528725, Alt.=123.825256m. Speed=0.576000m/h.</desc>
<speed>0.160000</speed>
</trkpt>
<trkpt lat="55.900356" lon="26.528725">
<ele>123.835022</ele>
<time>2010-06-20T14:53:55Z</time>
<desc>lat.=55.900356, lon.=26.528725, Alt.=123.835022m. Speed=0.216000m/h.</desc>
<speed>0.060000</speed>
</trkpt>
<trkpt lat="55.900360" lon="26.528727">
<ele>123.846741</ele>
<time>2010-06-20T14:53:56Z</time>
<desc>lat.=55.900360, lon.=26.528727, Alt.=123.846741m. Speed=0.972000m/h.</desc>
<speed>0.270000</speed>
</trkpt>
<trkpt lat="55.900360" lon="26.528721">
<ele>123.856506</ele>
<time>2010-06-20T14:53:57Z</time>
<desc>lat.=55.900360, lon.=26.528721, Alt.=123.856506m. Speed=1.728000m/h.</desc>
<speed>0.480000</speed>
</trkpt>
<trkpt lat="55.900356" lon="26.528706">
<ele>123.893616</ele>
<time>2010-06-20T14:53:58Z</time>
<desc>lat.=55.900356, lon.=26.528706, Alt.=123.893616m. Speed=2.520000m/h.</desc>
<speed>0.700000</speed>
</trkpt>
<trkpt lat="55.900360" lon="26.528685">
<ele>123.907288</ele>
<time>2010-06-20T14:53:59Z</time>
<desc>lat.=55.900360, lon.=26.528685, Alt.=123.907288m. Speed=3.708000m/h.</desc>
<speed>1.030000</speed>
</trkpt>
<trkpt lat="55.900360" lon="26.528667">
<ele>123.926819</ele>
<time>2010-06-20T14:54:00Z</time>
<desc>lat.=55.900360, lon.=26.528667, Alt.=123.926819m. Speed=2.808000m/h.</desc>
<speed>0.780000</speed>
</trkpt>
<trkpt lat="55.900356" lon="26.528675">
<ele>123.852600</ele>
<time>2010-06-20T14:54:01Z</time>
<desc>lat.=55.900356, lon.=26.528675, Alt.=123.852600m. Speed=2.088000m/h.</desc>
<speed>0.580000</speed>
</trkpt>
<trkpt lat="55.900345" lon="26.528685">
<ele>123.866272</ele>
<time>2010-06-20T14:54:02Z</time>
<desc>lat.=55.900345, lon.=26.528685, Alt.=123.866272m. Speed=1.980000m/h.</desc>
<speed>0.550000</speed>
</trkpt>
<trkpt lat="55.900349" lon="26.528679">
<ele>123.885803</ele>
<time>2010-06-20T14:54:03Z</time>
<desc>lat.=55.900349, lon.=26.528679, Alt.=123.885803m. Speed=1.620000m/h.</desc>
<speed>0.450000</speed>
</trkpt>
<trkpt lat="55.900356" lon="26.528673">
<ele>123.862366</ele>
<time>2010-06-20T14:54:04Z</time>
<desc>lat.=55.900356, lon.=26.528673, Alt.=123.862366m. Speed=1.152000m/h.</desc>
<speed>0.320000</speed>
</trkpt>
<trkpt lat="55.900360" lon="26.528666">
<ele>123.774475</ele>
<time>2010-06-20T14:54:05Z</time>
<desc>lat.=55.900360, lon.=26.528666, Alt.=123.774475m. Speed=1.440000m/h.</desc>
<speed>0.400000</speed>
</trkpt>
<trkpt lat="55.900360" lon="26.528677">
<ele>123.721741</ele>
<time>2010-06-20T14:54:06Z</time>
<desc>lat.=55.900360, lon.=26.528677, Alt.=123.721741m. Speed=0.432000m/h.</desc>
<speed>0.120000</speed>
</trkpt>
<trkpt lat="55.900349" lon="26.528687">
<ele>123.606506</ele>
<time>2010-06-20T14:54:07Z</time>
<desc>lat.=55.900349, lon.=26.528687, Alt.=123.606506m. Speed=0.864000m/h.</desc>
<speed>0.240000</speed>
</trkpt>
<trkpt lat="55.900345" lon="26.528692">
<ele>123.499084</ele>
<time>2010-06-20T14:54:08Z</time>
<desc>lat.=55.900345, lon.=26.528692, Alt.=123.499084m. Speed=1.296000m/h.</desc>
<speed>0.360000</speed>
</trkpt>
<trkpt lat="55.900341" lon="26.528692">
<ele>123.295959</ele>
<time>2010-06-20T14:54:09Z</time>
<desc>lat.=55.900341, lon.=26.528692, Alt.=123.295959m. Speed=1.692000m/h.</desc>
<speed>0.470000</speed>
</trkpt>
<trkpt lat="55.900341" lon="26.528704">
<ele>123.067444</ele>
<time>2010-06-20T14:54:10Z</time>
<desc>lat.=55.900341, lon.=26.528704, Alt.=123.067444m. Speed=1.980000m/h.</desc>
<speed>0.550000</speed>
</trkpt>
<trkpt lat="55.900341" lon="26.528688">
<ele>122.846741</ele>
<time>2010-06-20T14:54:11Z</time>
<desc>lat.=55.900341, lon.=26.528688, Alt.=122.846741m. Speed=1.440000m/h.</desc>
<speed>0.400000</speed>
</trkpt>
<trkpt lat="55.900345" lon="26.528702">
<ele>122.635803</ele>
<time>2010-06-20T14:54:12Z</time>
<desc>lat.=55.900345, lon.=26.528702, Alt.=122.635803m. Speed=1.260000m/h.</desc>
<speed>0.350000</speed>
</trkpt>
<trkpt lat="55.900337" lon="26.528711">
<ele>122.358459</ele>
<time>2010-06-20T14:54:13Z</time>
<desc>lat.=55.900337, lon.=26.528711, Alt.=122.358459m. Speed=1.728000m/h.</desc>
<speed>0.480000</speed>
</trkpt>
<trkpt lat="55.900330" lon="26.528717">
<ele>122.272522</ele>
<time>2010-06-20T14:54:14Z</time>
<desc>lat.=55.900330, lon.=26.528717, Alt.=122.272522m. Speed=1.692000m/h.</desc>
<speed>0.470000</speed>
</trkpt>
<trkpt lat="55.900318" lon="26.528727">
<ele>122.124084</ele>
<time>2010-06-20T14:54:15Z</time>
<desc>lat.=55.900318, lon.=26.528727, Alt.=122.124084m. Speed=2.196000m/h.</desc>
<speed>0.610000</speed>
</trkpt>
<trkpt lat="55.900307" lon="26.528744">
<ele>122.092834</ele>
<time>2010-06-20T14:54:16Z</time>
<desc>lat.=55.900307, lon.=26.528744, Alt.=122.092834m. Speed=2.592000m/h.</desc>
<speed>0.720000</speed>
</trkpt>
<trkpt lat="55.900307" lon="26.528738">
<ele>122.034241</ele>
<time>2010-06-20T14:54:17Z</time>
<desc>lat.=55.900307, lon.=26.528738, Alt.=122.034241m. Speed=1.656000m/h.</desc>
<speed>0.460000</speed>
</trkpt>
<trkpt lat="55.900295" lon="26.528746">
<ele>122.055725</ele>
<time>2010-06-20T14:54:18Z</time>
<desc>lat.=55.900295, lon.=26.528746, Alt.=122.055725m. Speed=1.944000m/h.</desc>
<speed>0.540000</speed>
</trkpt>
<trkpt lat="55.900284" lon="26.528746">
<ele>121.995178</ele>
<time>2010-06-20T14:54:19Z</time>
<desc>lat.=55.900284, lon.=26.528746, Alt.=121.995178m. Speed=2.196000m/h.</desc>
<speed>0.610000</speed>
</trkpt>
<trkpt lat="55.900272" lon="26.528746">
<ele>122.006897</ele>
<time>2010-06-20T14:54:20Z</time>
<desc>lat.=55.900272, lon.=26.528746, Alt.=122.006897m. Speed=1.980000m/h.</desc>
<speed>0.550000</speed>
</trkpt>
<trkpt lat="55.900265" lon="26.528753">
<ele>122.006897</ele>
<time>2010-06-20T14:54:21Z</time>
<desc>lat.=55.900265, lon.=26.528753, Alt.=122.006897m. Speed=2.088000m/h.</desc>
<speed>0.580000</speed>
</trkpt>
<trkpt lat="55.900253" lon="26.528763">
<ele>121.958069</ele>
<time>2010-06-20T14:54:22Z</time>
<desc>lat.=55.900253, lon.=26.528763, Alt.=121.958069m. Speed=2.196000m/h.</desc>
<speed>0.610000</speed>
</trkpt>
<trkpt lat="55.900242" lon="26.528778">
<ele>121.877991</ele>
<time>2010-06-20T14:54:23Z</time>
<desc>lat.=55.900242, lon.=26.528778, Alt.=121.877991m. Speed=2.304000m/h.</desc>
<speed>0.640000</speed>
</trkpt>
<trkpt lat="55.900230" lon="26.528793">
<ele>121.821350</ele>
<time>2010-06-20T14:54:24Z</time>
<desc>lat.=55.900230, lon.=26.528793, Alt.=121.821350m. Speed=2.340000m/h.</desc>
<speed>0.650000</speed>
</trkpt>
<trkpt lat="55.900223" lon="26.528803">
<ele>121.844788</ele>
<time>2010-06-20T14:54:25Z</time>
<desc>lat.=55.900223, lon.=26.528803, Alt.=121.844788m. Speed=2.232000m/h.</desc>
<speed>0.620000</speed>
</trkpt>
<trkpt lat="55.900223" lon="26.528793">
<ele>121.866272</ele>
<time>2010-06-20T14:54:26Z</time>
<desc>lat.=55.900223, lon.=26.528793, Alt.=121.866272m. Speed=1.332000m/h.</desc>
<speed>0.370000</speed>
</trkpt>
<trkpt lat="55.900223" lon="26.528791">
<ele>121.797913</ele>
<time>2010-06-20T14:54:27Z</time>
<desc>lat.=55.900223, lon.=26.528791, Alt.=121.797913m. Speed=0.864000m/h.</desc>
<speed>0.240000</speed>
</trkpt>
<trkpt lat="55.900223" lon="26.528797">
<ele>121.721741</ele>
<time>2010-06-20T14:54:28Z</time>
<desc>lat.=55.900223, lon.=26.528797, Alt.=121.721741m. Speed=0.288000m/h.</desc>
<speed>0.080000</speed>
</trkpt>
<trkpt lat="55.900219" lon="26.528807">
<ele>121.700256</ele>
<time>2010-06-20T14:54:29Z</time>
<desc>lat.=55.900219, lon.=26.528807, Alt.=121.700256m. Speed=0.648000m/h.</desc>
<speed>0.180000</speed>
</trkpt>
<trkpt lat="55.900215" lon="26.528822">
<ele>121.633850</ele>
<time>2010-06-20T14:54:30Z</time>
<desc>lat.=55.900215, lon.=26.528822, Alt.=121.633850m. Speed=0.864000m/h.</desc>
<speed>0.240000</speed>
</trkpt>
<trkpt lat="55.900215" lon="26.528826">
<ele>121.653381</ele>
<time>2010-06-20T14:54:31Z</time>
<desc>lat.=55.900215, lon.=26.528826, Alt.=121.653381m. Speed=2.124000m/h.</desc>
<speed>0.590000</speed>
</trkpt>
<trkpt lat="55.900204" lon="26.528854">
<ele>121.794006</ele>
<time>2010-06-20T14:54:32Z</time>
<desc>lat.=55.900204, lon.=26.528854, Alt.=121.794006m. Speed=2.700000m/h.</desc>
<speed>0.750000</speed>
</trkpt>
<trkpt lat="55.900204" lon="26.528864">
<ele>121.913147</ele>
<time>2010-06-20T14:54:33Z</time>
<desc>lat.=55.900204, lon.=26.528864, Alt.=121.913147m. Speed=2.340000m/h.</desc>
<speed>0.650000</speed>
</trkpt>
<trkpt lat="55.900181" lon="26.528896">
<ele>121.973694</ele>
<time>2010-06-20T14:54:34Z</time>
<desc>lat.=55.900181, lon.=26.528896, Alt.=121.973694m. Speed=3.600000m/h.</desc>
<speed>1.000000</speed>
</trkpt>
<trkpt lat="55.900177" lon="26.528913">
<ele>121.995178</ele>
<time>2010-06-20T14:54:35Z</time>
<desc>lat.=55.900177, lon.=26.528913, Alt.=121.995178m. Speed=3.744000m/h.</desc>
<speed>1.040000</speed>
</trkpt>
<trkpt lat="55.900169" lon="26.528927">
<ele>122.014709</ele>
<time>2010-06-20T14:54:36Z</time>
<desc>lat.=55.900169, lon.=26.528927, Alt.=122.014709m. Speed=3.024000m/h.</desc>
<speed>0.840000</speed>
</trkpt>
<trkpt lat="55.900166" lon="26.528936">
<ele>122.034241</ele>
<time>2010-06-20T14:54:37Z</time>
<desc>lat.=55.900166, lon.=26.528936, Alt.=122.034241m. Speed=2.736000m/h.</desc>
<speed>0.760000</speed>
</trkpt>
<trkpt lat="55.900150" lon="26.528959">
<ele>122.036194</ele>
<time>2010-06-20T14:54:38Z</time>
<desc>lat.=55.900150, lon.=26.528959, Alt.=122.036194m. Speed=3.564000m/h.</desc>
<speed>0.990000</speed>
</trkpt>
<trkpt lat="55.900146" lon="26.528971">
<ele>122.090881</ele>
<time>2010-06-20T14:54:39Z</time>
<desc>lat.=55.900146, lon.=26.528971, Alt.=122.090881m. Speed=3.672000m/h.</desc>
<speed>1.020000</speed>
</trkpt>
<trkpt lat="55.900139" lon="26.528982">
<ele>122.112366</ele>
<time>2010-06-20T14:54:40Z</time>
<desc>lat.=55.900139, lon.=26.528982, Alt.=122.112366m. Speed=2.808000m/h.</desc>
<speed>0.780000</speed>
</trkpt>
<trkpt lat="55.900135" lon="26.528965">
<ele>122.196350</ele>
<time>2010-06-20T14:54:41Z</time>
<desc>lat.=55.900135, lon.=26.528965, Alt.=122.196350m. Speed=2.196000m/h.</desc>
<speed>0.610000</speed>
</trkpt>
<trkpt lat="55.900131" lon="26.528965">
<ele>122.221741</ele>
<time>2010-06-20T14:54:42Z</time>
<desc>lat.=55.900131, lon.=26.528965, Alt.=122.221741m. Speed=2.088000m/h.</desc>
<speed>0.580000</speed>
</trkpt>
<trkpt lat="55.900131" lon="26.528952">
<ele>122.348694</ele>
<time>2010-06-20T14:54:43Z</time>
<desc>lat.=55.900131, lon.=26.528952, Alt.=122.348694m. Speed=2.052000m/h.</desc>
<speed>0.570000</speed>
</trkpt>
<trkpt lat="55.900120" lon="26.528963">
<ele>122.456116</ele>
<time>2010-06-20T14:54:44Z</time>
<desc>lat.=55.900120, lon.=26.528963, Alt.=122.456116m. Speed=2.340000m/h.</desc>
<speed>0.650000</speed>
</trkpt>
<trkpt lat="55.900116" lon="26.528963">
<ele>122.475647</ele>
<time>2010-06-20T14:54:45Z</time>
<desc>lat.=55.900116, lon.=26.528963, Alt.=122.475647m. Speed=2.124000m/h.</desc>
<speed>0.590000</speed>
</trkpt>
<trkpt lat="55.900116" lon="26.528944">
<ele>122.647522</ele>
<time>2010-06-20T14:54:46Z</time>
<desc>lat.=55.900116, lon.=26.528944, Alt.=122.647522m. Speed=2.448000m/h.</desc>
<speed>0.680000</speed>
</trkpt>
<trkpt lat="55.900116" lon="26.528933">
<ele>122.729553</ele>
<time>2010-06-20T14:54:47Z</time>
<desc>lat.=55.900116, lon.=26.528933, Alt.=122.729553m. Speed=2.448000m/h.</desc>
<speed>0.680000</speed>
</trkpt>
<trkpt lat="55.900127" lon="26.528906">
<ele>122.795959</ele>
<time>2010-06-20T14:54:48Z</time>
<desc>lat.=55.900127, lon.=26.528906, Alt.=122.795959m. Speed=2.340000m/h.</desc>
<speed>0.650000</speed>
</trkpt>
<trkpt lat="55.900127" lon="26.528896">
<ele>122.958069</ele>
<time>2010-06-20T14:54:49Z</time>
<desc>lat.=55.900127, lon.=26.528896, Alt.=122.958069m. Speed=2.376000m/h.</desc>
<speed>0.660000</speed>
</trkpt>
<trkpt lat="55.900124" lon="26.528896">
<ele>123.071350</ele>
<time>2010-06-20T14:54:50Z</time>
<desc>lat.=55.900124, lon.=26.528896, Alt.=123.071350m. Speed=2.376000m/h.</desc>
<speed>0.660000</speed>
</trkpt>
<trkpt lat="55.900120" lon="26.528915">
<ele>123.102600</ele>
<time>2010-06-20T14:54:51Z</time>
<desc>lat.=55.900120, lon.=26.528915, Alt.=123.102600m. Speed=1.152000m/h.</desc>
<speed>0.320000</speed>
</trkpt>
<trkpt lat="55.900124" lon="26.528929">
<ele>123.149475</ele>
<time>2010-06-20T14:54:52Z</time>
<desc>lat.=55.900124, lon.=26.528929, Alt.=123.149475m. Speed=0.648000m/h.</desc>
<speed>0.180000</speed>
</trkpt>
<trkpt lat="55.900127" lon="26.528938">
<ele>123.176819</ele>
<time>2010-06-20T14:54:53Z</time>
<desc>lat.=55.900127, lon.=26.528938, Alt.=123.176819m. Speed=0.684000m/h.</desc>
<speed>0.190000</speed>
</trkpt>
<trkpt lat="55.900127" lon="26.528959">
<ele>122.961975</ele>
<time>2010-06-20T14:54:54Z</time>
<desc>lat.=55.900127, lon.=26.528959, Alt.=122.961975m. Speed=1.980000m/h.</desc>
<speed>0.550000</speed>
</trkpt>
<trkpt lat="55.900131" lon="26.528969">
<ele>122.919006</ele>
<time>2010-06-20T14:54:55Z</time>
<desc>lat.=55.900131, lon.=26.528969, Alt.=122.919006m. Speed=1.980000m/h.</desc>
<speed>0.550000</speed>
</trkpt>
<trkpt lat="55.900131" lon="26.528992">
<ele>122.899475</ele>
<time>2010-06-20T14:54:56Z</time>
<desc>lat.=55.900131, lon.=26.528992, Alt.=122.899475m. Speed=2.700000m/h.</desc>
<speed>0.750000</speed>
</trkpt>
<trkpt lat="55.900131" lon="26.529016">
<ele>122.784241</ele>
<time>2010-06-20T14:54:57Z</time>
<desc>lat.=55.900131, lon.=26.529016, Alt.=122.784241m. Speed=3.168000m/h.</desc>
<speed>0.880000</speed>
</trkpt>
<trkpt lat="55.900131" lon="26.529018">
<ele>122.710022</ele>
<time>2010-06-20T14:54:58Z</time>
<desc>lat.=55.900131, lon.=26.529018, Alt.=122.710022m. Speed=2.160000m/h.</desc>
<speed>0.600000</speed>
</trkpt>
<trkpt lat="55.900139" lon="26.529030">
<ele>122.661194</ele>
<time>2010-06-20T14:54:59Z</time>
<desc>lat.=55.900139, lon.=26.529030, Alt.=122.661194m. Speed=2.304000m/h.</desc>
<speed>0.640000</speed>
</trkpt>
<trkpt lat="55.900135" lon="26.529041">
<ele>122.663147</ele>
<time>2010-06-20T14:55:00Z</time>
<desc>lat.=55.900135, lon.=26.529041, Alt.=122.663147m. Speed=1.944000m/h.</desc>
<speed>0.540000</speed>
</trkpt>
<trkpt lat="55.900131" lon="26.529047">
<ele>122.672913</ele>
<time>2010-06-20T14:55:01Z</time>
<desc>lat.=55.900131, lon.=26.529047, Alt.=122.672913m. Speed=1.872000m/h.</desc>
<speed>0.520000</speed>
</trkpt>
<trkpt lat="55.900127" lon="26.529068">
<ele>122.637756</ele>
<time>2010-06-20T14:55:02Z</time>
<desc>lat.=55.900127, lon.=26.529068, Alt.=122.637756m. Speed=2.556000m/h.</desc>
<speed>0.710000</speed>
</trkpt>
<trkpt lat="55.900120" lon="26.529078">
<ele>122.670959</ele>
<time>2010-06-20T14:55:03Z</time>
<desc>lat.=55.900120, lon.=26.529078, Alt.=122.670959m. Speed=2.484000m/h.</desc>
<speed>0.690000</speed>
</trkpt>
<trkpt lat="55.900135" lon="26.529058">
<ele>122.747131</ele>
<time>2010-06-20T14:55:04Z</time>
<desc>lat.=55.900135, lon.=26.529058, Alt.=122.747131m. Speed=1.152000m/h.</desc>
<speed>0.320000</speed>
</trkpt>
<trkpt lat="55.900143" lon="26.529053">
<ele>122.790100</ele>
<time>2010-06-20T14:55:05Z</time>
<desc>lat.=55.900143, lon.=26.529053, Alt.=122.790100m. Speed=0.828000m/h.</desc>
<speed>0.230000</speed>
</trkpt>
<trkpt lat="55.900150" lon="26.529051">
<ele>122.797913</ele>
<time>2010-06-20T14:55:06Z</time>
<desc>lat.=55.900150, lon.=26.529051, Alt.=122.797913m. Speed=0.684000m/h.</desc>
<speed>0.190000</speed>
</trkpt>
<trkpt lat="55.900158" lon="26.529039">
<ele>122.795959</ele>
<time>2010-06-20T14:55:07Z</time>
<desc>lat.=55.900158, lon.=26.529039, Alt.=122.795959m. Speed=0.540000m/h.</desc>
<speed>0.150000</speed>
</trkpt>
<trkpt lat="55.900158" lon="26.529051">
<ele>122.725647</ele>
<time>2010-06-20T14:55:08Z</time>
<desc>lat.=55.900158, lon.=26.529051, Alt.=122.725647m. Speed=0.972000m/h.</desc>
<speed>0.270000</speed>
</trkpt>
<trkpt lat="55.900162" lon="26.529053">
<ele>122.735413</ele>
<time>2010-06-20T14:55:09Z</time>
<desc>lat.=55.900162, lon.=26.529053, Alt.=122.735413m. Speed=0.900000m/h.</desc>
<speed>0.250000</speed>
</trkpt>
<trkpt lat="55.900162" lon="26.529057">
<ele>122.741272</ele>
<time>2010-06-20T14:55:10Z</time>
<desc>lat.=55.900162, lon.=26.529057, Alt.=122.741272m. Speed=0.936000m/h.</desc>
<speed>0.260000</speed>
</trkpt>
<trkpt lat="55.900162" lon="26.529060">
<ele>122.745178</ele>
<time>2010-06-20T14:55:11Z</time>
<desc>lat.=55.900162, lon.=26.529060, Alt.=122.745178m. Speed=1.512000m/h.</desc>
<speed>0.420000</speed>
</trkpt>
<trkpt lat="55.900173" lon="26.529057">
<ele>122.733459</ele>
<time>2010-06-20T14:55:12Z</time>
<desc>lat.=55.900173, lon.=26.529057, Alt.=122.733459m. Speed=1.692000m/h.</desc>
<speed>0.470000</speed>
</trkpt>
<trkpt lat="55.900177" lon="26.529024">
<ele>122.725647</ele>
<time>2010-06-20T14:55:13Z</time>
<desc>lat.=55.900177, lon.=26.529024, Alt.=122.725647m. Speed=1.404000m/h.</desc>
<speed>0.390000</speed>
</trkpt>
<trkpt lat="55.900181" lon="26.529018">
<ele>122.639709</ele>
<time>2010-06-20T14:55:14Z</time>
<desc>lat.=55.900181, lon.=26.529018, Alt.=122.639709m. Speed=1.368000m/h.</desc>
<speed>0.380000</speed>
</trkpt>
<trkpt lat="55.900188" lon="26.529013">
<ele>122.456116</ele>
<time>2010-06-20T14:55:15Z</time>
<desc>lat.=55.900188, lon.=26.529013, Alt.=122.456116m. Speed=1.476000m/h.</desc>
<speed>0.410000</speed>
</trkpt>
<trkpt lat="55.900192" lon="26.529015">
<ele>122.403381</ele>
<time>2010-06-20T14:55:16Z</time>
<desc>lat.=55.900192, lon.=26.529015, Alt.=122.403381m. Speed=1.440000m/h.</desc>
<speed>0.400000</speed>
</trkpt>
<trkpt lat="55.900196" lon="26.529015">
<ele>122.383850</ele>
<time>2010-06-20T14:55:17Z</time>
<desc>lat.=55.900196, lon.=26.529015, Alt.=122.383850m. Speed=1.512000m/h.</desc>
<speed>0.420000</speed>
</trkpt>
<trkpt lat="55.900196" lon="26.529026">
<ele>122.415100</ele>
<time>2010-06-20T14:55:18Z</time>
<desc>lat.=55.900196, lon.=26.529026, Alt.=122.415100m. Speed=1.008000m/h.</desc>
<speed>0.280000</speed>
</trkpt>
<trkpt lat="55.900196" lon="26.529015">
<ele>122.458069</ele>
<time>2010-06-20T14:55:19Z</time>
<desc>lat.=55.900196, lon.=26.529015, Alt.=122.458069m. Speed=0.900000m/h.</desc>
<speed>0.250000</speed>
</trkpt>
<trkpt lat="55.900188" lon="26.529020">
<ele>122.585022</ele>
<time>2010-06-20T14:55:20Z</time>
<desc>lat.=55.900188, lon.=26.529020, Alt.=122.585022m. Speed=0.360000m/h.</desc>
<speed>0.100000</speed>
</trkpt>
<trkpt lat="55.900185" lon="26.529011">
<ele>122.698303</ele>
<time>2010-06-20T14:55:21Z</time>
<desc>lat.=55.900185, lon.=26.529011, Alt.=122.698303m. Speed=0.828000m/h.</desc>
<speed>0.230000</speed>
</trkpt>
<trkpt lat="55.900185" lon="26.529007">
<ele>122.700256</ele>
<time>2010-06-20T14:55:22Z</time>
<desc>lat.=55.900185, lon.=26.529007, Alt.=122.700256m. Speed=0.360000m/h.</desc>
<speed>0.100000</speed>
</trkpt>
<trkpt lat="55.900185" lon="26.529007">
<ele>122.704163</ele>
<time>2010-06-20T14:55:23Z</time>
<desc>lat.=55.900185, lon.=26.529007, Alt.=122.704163m. Speed=1.080000m/h.</desc>
<speed>0.300000</speed>
</trkpt>
<trkpt lat="55.900181" lon="26.529015">
<ele>122.790100</ele>
<time>2010-06-20T14:55:24Z</time>
<desc>lat.=55.900181, lon.=26.529015, Alt.=122.790100m. Speed=1.224000m/h.</desc>
<speed>0.340000</speed>
</trkpt>
<trkpt lat="55.900181" lon="26.529018">
<ele>122.756897</ele>
<time>2010-06-20T14:55:25Z</time>
<desc>lat.=55.900181, lon.=26.529018, Alt.=122.756897m. Speed=1.188000m/h.</desc>
<speed>0.330000</speed>
</trkpt>
<trkpt lat="55.900177" lon="26.529032">
<ele>122.743225</ele>
<time>2010-06-20T14:55:26Z</time>
<desc>lat.=55.900177, lon.=26.529032, Alt.=122.743225m. Speed=1.836000m/h.</desc>
<speed>0.510000</speed>
</trkpt>
<trkpt lat="55.900173" lon="26.529039">
<ele>122.747131</ele>
<time>2010-06-20T14:55:27Z</time>
<desc>lat.=55.900173, lon.=26.529039, Alt.=122.747131m. Speed=1.800000m/h.</desc>
<speed>0.500000</speed>
</trkpt>
<trkpt lat="55.900169" lon="26.529045">
<ele>122.751038</ele>
<time>2010-06-20T14:55:28Z</time>
<desc>lat.=55.900169, lon.=26.529045, Alt.=122.751038m. Speed=1.908000m/h.</desc>
<speed>0.530000</speed>
</trkpt>
<trkpt lat="55.900169" lon="26.529053">
<ele>122.756897</ele>
<time>2010-06-20T14:55:29Z</time>
<desc>lat.=55.900169, lon.=26.529053, Alt.=122.756897m. Speed=1.800000m/h.</desc>
<speed>0.500000</speed>
</trkpt>
<trkpt lat="55.900166" lon="26.529039">
<ele>122.717834</ele>
<time>2010-06-20T14:55:30Z</time>
<desc>lat.=55.900166, lon.=26.529039, Alt.=122.717834m. Speed=1.188000m/h.</desc>
<speed>0.330000</speed>
</trkpt>
<trkpt lat="55.900166" lon="26.529034">
<ele>122.512756</ele>
<time>2010-06-20T14:55:31Z</time>
<desc>lat.=55.900166, lon.=26.529034, Alt.=122.512756m. Speed=1.044000m/h.</desc>
<speed>0.290000</speed>
</trkpt>
<trkpt lat="55.900166" lon="26.529036">
<ele>122.282288</ele>
<time>2010-06-20T14:55:32Z</time>
<desc>lat.=55.900166, lon.=26.529036, Alt.=122.282288m. Speed=1.296000m/h.</desc>
<speed>0.360000</speed>
</trkpt>
<trkpt lat="55.900177" lon="26.529015">
<ele>122.063538</ele>
<time>2010-06-20T14:55:33Z</time>
<desc>lat.=55.900177, lon.=26.529015, Alt.=122.063538m. Speed=0.396000m/h.</desc>
<speed>0.110000</speed>
</trkpt>
<trkpt lat="55.900177" lon="26.528997">
<ele>122.012756</ele>
<time>2010-06-20T14:55:34Z</time>
<desc>lat.=55.900177, lon.=26.528997, Alt.=122.012756m. Speed=0.720000m/h.</desc>
<speed>0.200000</speed>
</trkpt>
<trkpt lat="55.900166" lon="26.529005">
<ele>121.920959</ele>
<time>2010-06-20T14:55:35Z</time>
<desc>lat.=55.900166, lon.=26.529005, Alt.=121.920959m. Speed=0.360000m/h.</desc>
<speed>0.100000</speed>
</trkpt>
<trkpt lat="55.900162" lon="26.529009">
<ele>121.874084</ele>
<time>2010-06-20T14:55:36Z</time>
<desc>lat.=55.900162, lon.=26.529009, Alt.=121.874084m. Speed=0.432000m/h.</desc>
<speed>0.120000</speed>
</trkpt>
<trkpt lat="55.900162" lon="26.529009">
<ele>121.872131</ele>
<time>2010-06-20T14:55:37Z</time>
<desc>lat.=55.900162, lon.=26.529009, Alt.=121.872131m. Speed=0.252000m/h.</desc>
<speed>0.070000</speed>
</trkpt>
<trkpt lat="55.900162" lon="26.529011">
<ele>121.870178</ele>
<time>2010-06-20T14:55:38Z</time>
<desc>lat.=55.900162, lon.=26.529011, Alt.=121.870178m. Speed=1.188000m/h.</desc>
<speed>0.330000</speed>
</trkpt>
<trkpt lat="55.900158" lon="26.529015">
<ele>121.823303</ele>
<time>2010-06-20T14:55:39Z</time>
<desc>lat.=55.900158, lon.=26.529015, Alt.=121.823303m. Speed=1.080000m/h.</desc>
<speed>0.300000</speed>
</trkpt>
<trkpt lat="55.900150" lon="26.529018">
<ele>121.751038</ele>
<time>2010-06-20T14:55:40Z</time>
<desc>lat.=55.900150, lon.=26.529018, Alt.=121.751038m. Speed=1.116000m/h.</desc>
<speed>0.310000</speed>
</trkpt>
<trkpt lat="55.900150" lon="26.529030">
<ele>121.641663</ele>
<time>2010-06-20T14:55:41Z</time>
<desc>lat.=55.900150, lon.=26.529030, Alt.=121.641663m. Speed=1.692000m/h.</desc>
<speed>0.470000</speed>
</trkpt>
<trkpt lat="55.900150" lon="26.529026">
<ele>121.530334</ele>
<time>2010-06-20T14:55:42Z</time>
<desc>lat.=55.900150, lon.=26.529026, Alt.=121.530334m. Speed=1.692000m/h.</desc>
<speed>0.470000</speed>
</trkpt>
<trkpt lat="55.900154" lon="26.529024">
<ele>121.475647</ele>
<time>2010-06-20T14:55:43Z</time>
<desc>lat.=55.900154, lon.=26.529024, Alt.=121.475647m. Speed=1.656000m/h.</desc>
<speed>0.460000</speed>
</trkpt>
<trkpt lat="55.900158" lon="26.529018">
<ele>121.346741</ele>
<time>2010-06-20T14:55:44Z</time>
<desc>lat.=55.900158, lon.=26.529018, Alt.=121.346741m. Speed=1.584000m/h.</desc>
<speed>0.440000</speed>
</trkpt>
<trkpt lat="55.900158" lon="26.529015">
<ele>121.219788</ele>
<time>2010-06-20T14:55:45Z</time>
<desc>lat.=55.900158, lon.=26.529015, Alt.=121.219788m. Speed=1.368000m/h.</desc>
<speed>0.380000</speed>
</trkpt>
<trkpt lat="55.900150" lon="26.529030">
<ele>120.969788</ele>
<time>2010-06-20T14:55:46Z</time>
<desc>lat.=55.900150, lon.=26.529030, Alt.=120.969788m. Speed=2.016000m/h.</desc>
<speed>0.560000</speed>
</trkpt>
<trkpt lat="55.900146" lon="26.529037">
<ele>120.967834</ele>
<time>2010-06-20T14:55:47Z</time>
<desc>lat.=55.900146, lon.=26.529037, Alt.=120.967834m. Speed=1.908000m/h.</desc>
<speed>0.530000</speed>
</trkpt>
<trkpt lat="55.900150" lon="26.529049">
<ele>120.901428</ele>
<time>2010-06-20T14:55:48Z</time>
<desc>lat.=55.900150, lon.=26.529049, Alt.=120.901428m. Speed=2.196000m/h.</desc>
<speed>0.610000</speed>
</trkpt>
<trkpt lat="55.900146" lon="26.529045">
<ele>120.836975</ele>
<time>2010-06-20T14:55:49Z</time>
<desc>lat.=55.900146, lon.=26.529045, Alt.=120.836975m. Speed=1.944000m/h.</desc>
<speed>0.540000</speed>
</trkpt>
<trkpt lat="55.900154" lon="26.529028">
<ele>120.766663</ele>
<time>2010-06-20T14:55:50Z</time>
<desc>lat.=55.900154, lon.=26.529028, Alt.=120.766663m. Speed=0.828000m/h.</desc>
<speed>0.230000</speed>
</trkpt>
<trkpt lat="55.900158" lon="26.529039">
<ele>120.721741</ele>
<time>2010-06-20T14:55:51Z</time>
<desc>lat.=55.900158, lon.=26.529039, Alt.=120.721741m. Speed=1.188000m/h.</desc>
<speed>0.330000</speed>
</trkpt>
<trkpt lat="55.900146" lon="26.529072">
<ele>120.612366</ele>
<time>2010-06-20T14:55:52Z</time>
<desc>lat.=55.900146, lon.=26.529072, Alt.=120.612366m. Speed=2.448000m/h.</desc>
<speed>0.680000</speed>
</trkpt>
<trkpt lat="55.900139" lon="26.529091">
<ele>120.411194</ele>
<time>2010-06-20T14:55:53Z</time>
<desc>lat.=55.900139, lon.=26.529091, Alt.=120.411194m. Speed=3.060000m/h.</desc>
<speed>0.850000</speed>
</trkpt>
<trkpt lat="55.900135" lon="26.529110">
<ele>120.262756</ele>
<time>2010-06-20T14:55:54Z</time>
<desc>lat.=55.900135, lon.=26.529110, Alt.=120.262756m. Speed=3.564000m/h.</desc>
<speed>0.990000</speed>
</trkpt>
<trkpt lat="55.900139" lon="26.529099">
<ele>120.198303</ele>
<time>2010-06-20T14:55:55Z</time>
<desc>lat.=55.900139, lon.=26.529099, Alt.=120.198303m. Speed=2.448000m/h.</desc>
<speed>0.680000</speed>
</trkpt>
<trkpt lat="55.900146" lon="26.529076">
<ele>120.065491</ele>
<time>2010-06-20T14:55:56Z</time>
<desc>lat.=55.900146, lon.=26.529076, Alt.=120.065491m. Speed=1.188000m/h.</desc>
<speed>0.330000</speed>
</trkpt>
<trkpt lat="55.900146" lon="26.529068">
<ele>119.881897</ele>
<time>2010-06-20T14:55:57Z</time>
<desc>lat.=55.900146, lon.=26.529068, Alt.=119.881897m. Speed=0.792000m/h.</desc>
<speed>0.220000</speed>
</trkpt>
<trkpt lat="55.900150" lon="26.529055">
<ele>119.870178</ele>
<time>2010-06-20T14:55:58Z</time>
<desc>lat.=55.900150, lon.=26.529055, Alt.=119.870178m. Speed=0.756000m/h.</desc>
<speed>0.210000</speed>
</trkpt>
<trkpt lat="55.900162" lon="26.529053">
<ele>119.866272</ele>
<time>2010-06-20T14:55:59Z</time>
<desc>lat.=55.900162, lon.=26.529053, Alt.=119.866272m. Speed=0.684000m/h.</desc>
<speed>0.190000</speed>
</trkpt>
<trkpt lat="55.900169" lon="26.529041">
<ele>119.747131</ele>
<time>2010-06-20T14:56:00Z</time>
<desc>lat.=55.900169, lon.=26.529041, Alt.=119.747131m. Speed=1.044000m/h.</desc>
<speed>0.290000</speed>
</trkpt>
<trkpt lat="55.900173" lon="26.529037">
<ele>119.739319</ele>
<time>2010-06-20T14:56:01Z</time>
<desc>lat.=55.900173, lon.=26.529037, Alt.=119.739319m. Speed=1.800000m/h.</desc>
<speed>0.500000</speed>
</trkpt>
<trkpt lat="55.900181" lon="26.529026">
<ele>119.569397</ele>
<time>2010-06-20T14:56:02Z</time>
<desc>lat.=55.900181, lon.=26.529026, Alt.=119.569397m. Speed=1.764000m/h.</desc>
<speed>0.490000</speed>
</trkpt>
<trkpt lat="55.900173" lon="26.529030">
<ele>119.495178</ele>
<time>2010-06-20T14:56:03Z</time>
<desc>lat.=55.900173, lon.=26.529030, Alt.=119.495178m. Speed=0.936000m/h.</desc>
<speed>0.260000</speed>
</trkpt>
<trkpt lat="55.900173" lon="26.529024">
<ele>119.420959</ele>
<time>2010-06-20T14:56:04Z</time>
<desc>lat.=55.900173, lon.=26.529024, Alt.=119.420959m. Speed=0.900000m/h.</desc>
<speed>0.250000</speed>
</trkpt>
<trkpt lat="55.900177" lon="26.529016">
<ele>119.383850</ele>
<time>2010-06-20T14:56:05Z</time>
<desc>lat.=55.900177, lon.=26.529016, Alt.=119.383850m. Speed=0.864000m/h.</desc>
<speed>0.240000</speed>
</trkpt>
<trkpt lat="55.900177" lon="26.529001">
<ele>119.278381</ele>
<time>2010-06-20T14:56:06Z</time>
<desc>lat.=55.900177, lon.=26.529001, Alt.=119.278381m. Speed=1.224000m/h.</desc>
<speed>0.340000</speed>
</trkpt>
<trkpt lat="55.900181" lon="26.528990">
<ele>119.190491</ele>
<time>2010-06-20T14:56:07Z</time>
<desc>lat.=55.900181, lon.=26.528990, Alt.=119.190491m. Speed=1.080000m/h.</desc>
<speed>0.300000</speed>
</trkpt>
<trkpt lat="55.900181" lon="26.528982">
<ele>119.139709</ele>
<time>2010-06-20T14:56:08Z</time>
<desc>lat.=55.900181, lon.=26.528982, Alt.=119.139709m. Speed=1.044000m/h.</desc>
<speed>0.290000</speed>
</trkpt>
<trkpt lat="55.900192" lon="26.528965">
<ele>119.251038</ele>
<time>2010-06-20T14:56:09Z</time>
<desc>lat.=55.900192, lon.=26.528965, Alt.=119.251038m. Speed=1.620000m/h.</desc>
<speed>0.450000</speed>
</trkpt>
<trkpt lat="55.900200" lon="26.528959">
<ele>119.315491</ele>
<time>2010-06-20T14:56:10Z</time>
<desc>lat.=55.900200, lon.=26.528959, Alt.=119.315491m. Speed=1.512000m/h.</desc>
<speed>0.420000</speed>
</trkpt>
<trkpt lat="55.900188" lon="26.528973">
<ele>119.309631</ele>
<time>2010-06-20T14:56:11Z</time>
<desc>lat.=55.900188, lon.=26.528973, Alt.=119.309631m. Speed=0.288000m/h.</desc>
<speed>0.080000</speed>
</trkpt>
<trkpt lat="55.900181" lon="26.528982">
<ele>119.143616</ele>
<time>2010-06-20T14:56:12Z</time>
<desc>lat.=55.900181, lon.=26.528982, Alt.=119.143616m. Speed=0.792000m/h.</desc>
<speed>0.220000</speed>
</trkpt>
<trkpt lat="55.900169" lon="26.528997">
<ele>118.844788</ele>
<time>2010-06-20T14:56:13Z</time>
<desc>lat.=55.900169, lon.=26.528997, Alt.=118.844788m. Speed=2.196000m/h.</desc>
<speed>0.610000</speed>
</trkpt>
<trkpt lat="55.900169" lon="26.529015">
<ele>118.827209</ele>
<time>2010-06-20T14:56:14Z</time>
<desc>lat.=55.900169, lon.=26.529015, Alt.=118.827209m. Speed=2.664000m/h.</desc>
<speed>0.740000</speed>
</trkpt>
<trkpt lat="55.900169" lon="26.529043">
<ele>118.838928</ele>
<time>2010-06-20T14:56:15Z</time>
<desc>lat.=55.900169, lon.=26.529043, Alt.=118.838928m. Speed=3.492000m/h.</desc>
<speed>0.970000</speed>
</trkpt>
<trkpt lat="55.900162" lon="26.529074">
<ele>118.911194</ele>
<time>2010-06-20T14:56:16Z</time>
<desc>lat.=55.900162, lon.=26.529074, Alt.=118.911194m. Speed=4.284000m/h.</desc>
<speed>1.190000</speed>
</trkpt>
<trkpt lat="55.900158" lon="26.529085">
<ele>118.932678</ele>
<time>2010-06-20T14:56:17Z</time>
<desc>lat.=55.900158, lon.=26.529085, Alt.=118.932678m. Speed=4.212000m/h.</desc>
<speed>1.170000</speed>
</trkpt>
<trkpt lat="55.900162" lon="26.529091">
<ele>119.001038</ele>
<time>2010-06-20T14:56:18Z</time>
<desc>lat.=55.900162, lon.=26.529091, Alt.=119.001038m. Speed=3.888000m/h.</desc>
<speed>1.080000</speed>
</trkpt>
<trkpt lat="55.900158" lon="26.529106">
<ele>119.001038</ele>
<time>2010-06-20T14:56:19Z</time>
<desc>lat.=55.900158, lon.=26.529106, Alt.=119.001038m. Speed=3.528000m/h.</desc>
<speed>0.980000</speed>
</trkpt>
<trkpt lat="55.900166" lon="26.529104">
<ele>118.985413</ele>
<time>2010-06-20T14:56:20Z</time>
<desc>lat.=55.900166, lon.=26.529104, Alt.=118.985413m. Speed=3.024000m/h.</desc>
<speed>0.840000</speed>
</trkpt>
<trkpt lat="55.900166" lon="26.529116">
<ele>118.987366</ele>
<time>2010-06-20T14:56:21Z</time>
<desc>lat.=55.900166, lon.=26.529116, Alt.=118.987366m. Speed=2.700000m/h.</desc>
<speed>0.750000</speed>
</trkpt>
<trkpt lat="55.900166" lon="26.529108">
<ele>118.954163</ele>
<time>2010-06-20T14:56:22Z</time>
<desc>lat.=55.900166, lon.=26.529108, Alt.=118.954163m. Speed=2.268000m/h.</desc>
<speed>0.630000</speed>
</trkpt>
<trkpt lat="55.900169" lon="26.529118">
<ele>118.909241</ele>
<time>2010-06-20T14:56:23Z</time>
<desc>lat.=55.900169, lon.=26.529118, Alt.=118.909241m. Speed=2.484000m/h.</desc>
<speed>0.690000</speed>
</trkpt>
<trkpt lat="55.900158" lon="26.529142">
<ele>118.893616</ele>
<time>2010-06-20T14:56:24Z</time>
<desc>lat.=55.900158, lon.=26.529142, Alt.=118.893616m. Speed=2.988000m/h.</desc>
<speed>0.830000</speed>
</trkpt>
<trkpt lat="55.900158" lon="26.529150">
<ele>118.897522</ele>
<time>2010-06-20T14:56:25Z</time>
<desc>lat.=55.900158, lon.=26.529150, Alt.=118.897522m. Speed=2.808000m/h.</desc>
<speed>0.780000</speed>
</trkpt>
<trkpt lat="55.900154" lon="26.529161">
<ele>118.868225</ele>
<time>2010-06-20T14:56:26Z</time>
<desc>lat.=55.900154, lon.=26.529161, Alt.=118.868225m. Speed=2.880000m/h.</desc>
<speed>0.800000</speed>
</trkpt>
<trkpt lat="55.900150" lon="26.529175">
<ele>118.870178</ele>
<time>2010-06-20T14:56:27Z</time>
<desc>lat.=55.900150, lon.=26.529175, Alt.=118.870178m. Speed=2.736000m/h.</desc>
<speed>0.760000</speed>
</trkpt>
<trkpt lat="55.900146" lon="26.529198">
<ele>118.792053</ele>
<time>2010-06-20T14:56:28Z</time>
<desc>lat.=55.900146, lon.=26.529198, Alt.=118.792053m. Speed=3.096000m/h.</desc>
<speed>0.860000</speed>
</trkpt>
<trkpt lat="55.900139" lon="26.529188">
<ele>118.563538</ele>
<time>2010-06-20T14:56:29Z</time>
<desc>lat.=55.900139, lon.=26.529188, Alt.=118.563538m. Speed=2.736000m/h.</desc>
<speed>0.760000</speed>
</trkpt>
<trkpt lat="55.900135" lon="26.529200">
<ele>118.565491</ele>
<time>2010-06-20T14:56:30Z</time>
<desc>lat.=55.900135, lon.=26.529200, Alt.=118.565491m. Speed=2.520000m/h.</desc>
<speed>0.700000</speed>
</trkpt>
<trkpt lat="55.900139" lon="26.529184">
<ele>118.581116</ele>
<time>2010-06-20T14:56:31Z</time>
<desc>lat.=55.900139, lon.=26.529184, Alt.=118.581116m. Speed=2.088000m/h.</desc>
<speed>0.580000</speed>
</trkpt>
<trkpt lat="55.900139" lon="26.529175">
<ele>118.575256</ele>
<time>2010-06-20T14:56:32Z</time>
<desc>lat.=55.900139, lon.=26.529175, Alt.=118.575256m. Speed=1.908000m/h.</desc>
<speed>0.530000</speed>
</trkpt>
<trkpt lat="55.900139" lon="26.529169">
<ele>118.600647</ele>
<time>2010-06-20T14:56:33Z</time>
<desc>lat.=55.900139, lon.=26.529169, Alt.=118.600647m. Speed=1.836000m/h.</desc>
<speed>0.510000</speed>
</trkpt>
<trkpt lat="55.900146" lon="26.529146">
<ele>118.663147</ele>
<time>2010-06-20T14:56:34Z</time>
<desc>lat.=55.900146, lon.=26.529146, Alt.=118.663147m. Speed=1.476000m/h.</desc>
<speed>0.410000</speed>
</trkpt>
<trkpt lat="55.900146" lon="26.529133">
<ele>118.672913</ele>
<time>2010-06-20T14:56:35Z</time>
<desc>lat.=55.900146, lon.=26.529133, Alt.=118.672913m. Speed=1.188000m/h.</desc>
<speed>0.330000</speed>
</trkpt>
<trkpt lat="55.900143" lon="26.529119">
<ele>118.729553</ele>
<time>2010-06-20T14:56:36Z</time>
<desc>lat.=55.900143, lon.=26.529119, Alt.=118.729553m. Speed=1.080000m/h.</desc>
<speed>0.300000</speed>
</trkpt>
<trkpt lat="55.900143" lon="26.529074">
<ele>118.719788</ele>
<time>2010-06-20T14:56:37Z</time>
<desc>lat.=55.900143, lon.=26.529074, Alt.=118.719788m. Speed=1.260000m/h.</desc>
<speed>0.350000</speed>
</trkpt>
<trkpt lat="55.900139" lon="26.529070">
<ele>118.876038</ele>
<time>2010-06-20T14:56:38Z</time>
<desc>lat.=55.900139, lon.=26.529070, Alt.=118.876038m. Speed=1.188000m/h.</desc>
<speed>0.330000</speed>
</trkpt>
<trkpt lat="55.900146" lon="26.529039">
<ele>118.883850</ele>
<time>2010-06-20T14:56:39Z</time>
<desc>lat.=55.900146, lon.=26.529039, Alt.=118.883850m. Speed=1.332000m/h.</desc>
<speed>0.370000</speed>
</trkpt>
<trkpt lat="55.900158" lon="26.528980">
<ele>118.915100</ele>
<time>2010-06-20T14:56:40Z</time>
<desc>lat.=55.900158, lon.=26.528980, Alt.=118.915100m. Speed=2.052000m/h.</desc>
<speed>0.570000</speed>
</trkpt>
<trkpt lat="55.900166" lon="26.528950">
<ele>118.989319</ele>
<time>2010-06-20T14:56:41Z</time>
<desc>lat.=55.900166, lon.=26.528950, Alt.=118.989319m. Speed=2.160000m/h.</desc>
<speed>0.600000</speed>
</trkpt>
<trkpt lat="55.900162" lon="26.528975">
<ele>119.141663</ele>
<time>2010-06-20T14:56:42Z</time>
<desc>lat.=55.900162, lon.=26.528975, Alt.=119.141663m. Speed=0.900000m/h.</desc>
<speed>0.250000</speed>
</trkpt>
<trkpt lat="55.900169" lon="26.528959">
<ele>119.303772</ele>
<time>2010-06-20T14:56:43Z</time>
<desc>lat.=55.900169, lon.=26.528959, Alt.=119.303772m. Speed=0.720000m/h.</desc>
<speed>0.200000</speed>
</trkpt>
<trkpt lat="55.900177" lon="26.528942">
<ele>119.600647</ele>
<time>2010-06-20T14:56:44Z</time>
<desc>lat.=55.900177, lon.=26.528942, Alt.=119.600647m. Speed=1.476000m/h.</desc>
<speed>0.410000</speed>
</trkpt>
<trkpt lat="55.900185" lon="26.528948">
<ele>119.112366</ele>
<time>2010-06-20T14:56:45Z</time>
<desc>lat.=55.900185, lon.=26.528948, Alt.=119.112366m. Speed=1.080000m/h.</desc>
<speed>0.300000</speed>
</trkpt>
<trkpt lat="55.900185" lon="26.528992">
<ele>118.647522</ele>
<time>2010-06-20T14:56:46Z</time>
<desc>lat.=55.900185, lon.=26.528992, Alt.=118.647522m. Speed=0.828000m/h.</desc>
<speed>0.230000</speed>
</trkpt>
<trkpt lat="55.900185" lon="26.529011">
<ele>117.985413</ele>
<time>2010-06-20T14:56:47Z</time>
<desc>lat.=55.900185, lon.=26.529011, Alt.=117.985413m. Speed=1.512000m/h.</desc>
<speed>0.420000</speed>
</trkpt>
<trkpt lat="55.900181" lon="26.529049">
<ele>117.651428</ele>
<time>2010-06-20T14:56:48Z</time>
<desc>lat.=55.900181, lon.=26.529049, Alt.=117.651428m. Speed=2.448000m/h.</desc>
<speed>0.680000</speed>
</trkpt>
<trkpt lat="55.900188" lon="26.529074">
<ele>117.434631</ele>
<time>2010-06-20T14:56:49Z</time>
<desc>lat.=55.900188, lon.=26.529074, Alt.=117.434631m. Speed=3.024000m/h.</desc>
<speed>0.840000</speed>
</trkpt>
<trkpt lat="55.900196" lon="26.529095">
<ele>117.213928</ele>
<time>2010-06-20T14:56:50Z</time>
<desc>lat.=55.900196, lon.=26.529095, Alt.=117.213928m. Speed=3.276000m/h.</desc>
<speed>0.910000</speed>
</trkpt>
<trkpt lat="55.900192" lon="26.529097">
<ele>116.948303</ele>
<time>2010-06-20T14:56:51Z</time>
<desc>lat.=55.900192, lon.=26.529097, Alt.=116.948303m. Speed=2.844000m/h.</desc>
<speed>0.790000</speed>
</trkpt>
<trkpt lat="55.900200" lon="26.529091">
<ele>116.502991</ele>
<time>2010-06-20T14:56:52Z</time>
<desc>lat.=55.900200, lon.=26.529091, Alt.=116.502991m. Speed=2.736000m/h.</desc>
<speed>0.760000</speed>
</trkpt>
<trkpt lat="55.900211" lon="26.529078">
<ele>115.989319</ele>
<time>2010-06-20T14:56:53Z</time>
<desc>lat.=55.900211, lon.=26.529078, Alt.=115.989319m. Speed=2.088000m/h.</desc>
<speed>0.580000</speed>
</trkpt>
<trkpt lat="55.900215" lon="26.529064">
<ele>115.680725</ele>
<time>2010-06-20T14:56:54Z</time>
<desc>lat.=55.900215, lon.=26.529064, Alt.=115.680725m. Speed=1.656000m/h.</desc>
<speed>0.460000</speed>
</trkpt>
<trkpt lat="55.900219" lon="26.529064">
<ele>115.239319</ele>
<time>2010-06-20T14:56:55Z</time>
<desc>lat.=55.900219, lon.=26.529064, Alt.=115.239319m. Speed=1.656000m/h.</desc>
<speed>0.460000</speed>
</trkpt>
<trkpt lat="55.900234" lon="26.529022">
<ele>114.745178</ele>
<time>2010-06-20T14:56:56Z</time>
<desc>lat.=55.900234, lon.=26.529022, Alt.=114.745178m. Speed=0.828000m/h.</desc>
<speed>0.230000</speed>
</trkpt>
<trkpt lat="55.900242" lon="26.529013">
<ele>115.231506</ele>
<time>2010-06-20T14:56:57Z</time>
<desc>lat.=55.900242, lon.=26.529013, Alt.=115.231506m. Speed=0.468000m/h.</desc>
<speed>0.130000</speed>
</trkpt>
<trkpt lat="55.900246" lon="26.528996">
<ele>115.465881</ele>
<time>2010-06-20T14:56:58Z</time>
<desc>lat.=55.900246, lon.=26.528996, Alt.=115.465881m. Speed=0.900000m/h.</desc>
<speed>0.250000</speed>
</trkpt>
<trkpt lat="55.900253" lon="26.528976">
<ele>115.745178</ele>
<time>2010-06-20T14:56:59Z</time>
<desc>lat.=55.900253, lon.=26.528976, Alt.=115.745178m. Speed=1.404000m/h.</desc>
<speed>0.390000</speed>
</trkpt>
<trkpt lat="55.900257" lon="26.528955">
<ele>115.752991</ele>
<time>2010-06-20T14:57:00Z</time>
<desc>lat.=55.900257, lon.=26.528955, Alt.=115.752991m. Speed=1.152000m/h.</desc>
<speed>0.320000</speed>
</trkpt>
<trkpt lat="55.900261" lon="26.528933">
<ele>115.760803</ele>
<time>2010-06-20T14:57:01Z</time>
<desc>lat.=55.900261, lon.=26.528933, Alt.=115.760803m. Speed=0.864000m/h.</desc>
<speed>0.240000</speed>
</trkpt>
<trkpt lat="55.900265" lon="26.528919">
<ele>115.838928</ele>
<time>2010-06-20T14:57:02Z</time>
<desc>lat.=55.900265, lon.=26.528919, Alt.=115.838928m. Speed=0.252000m/h.</desc>
<speed>0.070000</speed>
</trkpt>
<trkpt lat="55.900261" lon="26.528898">
<ele>116.036194</ele>
<time>2010-06-20T14:57:03Z</time>
<desc>lat.=55.900261, lon.=26.528898, Alt.=116.036194m. Speed=0.720000m/h.</desc>
<speed>0.200000</speed>
</trkpt>
<trkpt lat="55.900265" lon="26.528881">
<ele>116.034241</ele>
<time>2010-06-20T14:57:04Z</time>
<desc>lat.=55.900265, lon.=26.528881, Alt.=116.034241m. Speed=0.684000m/h.</desc>
<speed>0.190000</speed>
</trkpt>
<trkpt lat="55.900269" lon="26.528877">
<ele>116.026428</ele>
<time>2010-06-20T14:57:05Z</time>
<desc>lat.=55.900269, lon.=26.528877, Alt.=116.026428m. Speed=0.936000m/h.</desc>
<speed>0.260000</speed>
</trkpt>
<trkpt lat="55.900269" lon="26.528873">
<ele>116.022522</ele>
<time>2010-06-20T14:57:06Z</time>
<desc>lat.=55.900269, lon.=26.528873, Alt.=116.022522m. Speed=1.260000m/h.</desc>
<speed>0.350000</speed>
</trkpt>
<trkpt lat="55.900276" lon="26.528837">
<ele>115.817444</ele>
<time>2010-06-20T14:57:07Z</time>
<desc>lat.=55.900276, lon.=26.528837, Alt.=115.817444m. Speed=1.872000m/h.</desc>
<speed>0.520000</speed>
</trkpt>
<trkpt lat="55.900280" lon="26.528818">
<ele>115.618225</ele>
<time>2010-06-20T14:57:08Z</time>
<desc>lat.=55.900280, lon.=26.528818, Alt.=115.618225m. Speed=1.620000m/h.</desc>
<speed>0.450000</speed>
</trkpt>
<trkpt lat="55.900284" lon="26.528809">
<ele>115.467834</ele>
<time>2010-06-20T14:57:09Z</time>
<desc>lat.=55.900284, lon.=26.528809, Alt.=115.467834m. Speed=1.296000m/h.</desc>
<speed>0.360000</speed>
</trkpt>
<trkpt lat="55.900284" lon="26.528820">
<ele>115.258850</ele>
<time>2010-06-20T14:57:10Z</time>
<desc>lat.=55.900284, lon.=26.528820, Alt.=115.258850m. Speed=0.468000m/h.</desc>
<speed>0.130000</speed>
</trkpt>
<trkpt lat="55.900280" lon="26.528809">
<ele>115.149475</ele>
<time>2010-06-20T14:57:11Z</time>
<desc>lat.=55.900280, lon.=26.528809, Alt.=115.149475m. Speed=0.936000m/h.</desc>
<speed>0.260000</speed>
</trkpt>
<trkpt lat="55.900280" lon="26.528795">
<ele>115.284241</ele>
<time>2010-06-20T14:57:12Z</time>
<desc>lat.=55.900280, lon.=26.528795, Alt.=115.284241m. Speed=0.792000m/h.</desc>
<speed>0.220000</speed>
</trkpt>
<trkpt lat="55.900280" lon="26.528780">
<ele>115.424866</ele>
<time>2010-06-20T14:57:13Z</time>
<desc>lat.=55.900280, lon.=26.528780, Alt.=115.424866m. Speed=0.432000m/h.</desc>
<speed>0.120000</speed>
</trkpt>
<trkpt lat="55.900280" lon="26.528780">
<ele>115.417053</ele>
<time>2010-06-20T14:57:14Z</time>
<desc>lat.=55.900280, lon.=26.528780, Alt.=115.417053m. Speed=0.756000m/h.</desc>
<speed>0.210000</speed>
</trkpt>
<trkpt lat="55.900280" lon="26.528784">
<ele>115.407288</ele>
<time>2010-06-20T14:57:15Z</time>
<desc>lat.=55.900280, lon.=26.528784, Alt.=115.407288m. Speed=1.980000m/h.</desc>
<speed>0.550000</speed>
</trkpt>
<trkpt lat="55.900280" lon="26.528791">
<ele>115.399475</ele>
<time>2010-06-20T14:57:16Z</time>
<desc>lat.=55.900280, lon.=26.528791, Alt.=115.399475m. Speed=2.376000m/h.</desc>
<speed>0.660000</speed>
</trkpt>
<trkpt lat="55.900280" lon="26.528807">
<ele>115.297913</ele>
<time>2010-06-20T14:57:17Z</time>
<desc>lat.=55.900280, lon.=26.528807, Alt.=115.297913m. Speed=3.456000m/h.</desc>
<speed>0.960000</speed>
</trkpt>
<trkpt lat="55.900280" lon="26.528822">
<ele>115.290100</ele>
<time>2010-06-20T14:57:18Z</time>
<desc>lat.=55.900280, lon.=26.528822, Alt.=115.290100m. Speed=3.348000m/h.</desc>
<speed>0.930000</speed>
</trkpt>
<trkpt lat="55.900280" lon="26.528835">
<ele>115.282288</ele>
<time>2010-06-20T14:57:19Z</time>
<desc>lat.=55.900280, lon.=26.528835, Alt.=115.282288m. Speed=3.276000m/h.</desc>
<speed>0.910000</speed>
</trkpt>
<trkpt lat="55.900280" lon="26.528849">
<ele>115.444397</ele>
<time>2010-06-20T14:57:20Z</time>
<desc>lat.=55.900280, lon.=26.528849, Alt.=115.444397m. Speed=3.276000m/h.</desc>
<speed>0.910000</speed>
</trkpt>
<trkpt lat="55.900272" lon="26.528864">
<ele>115.534241</ele>
<time>2010-06-20T14:57:21Z</time>
<desc>lat.=55.900272, lon.=26.528864, Alt.=115.534241m. Speed=3.708000m/h.</desc>
<speed>1.030000</speed>
</trkpt>
<trkpt lat="55.900272" lon="26.528891">
<ele>115.747131</ele>
<time>2010-06-20T14:57:22Z</time>
<desc>lat.=55.900272, lon.=26.528891, Alt.=115.747131m. Speed=3.960000m/h.</desc>
<speed>1.100000</speed>
</trkpt>
<trkpt lat="55.900261" lon="26.528942">
<ele>115.813538</ele>
<time>2010-06-20T14:57:23Z</time>
<desc>lat.=55.900261, lon.=26.528942, Alt.=115.813538m. Speed=5.220000m/h.</desc>
<speed>1.450000</speed>
</trkpt>
<trkpt lat="55.900257" lon="26.528971">
<ele>115.930725</ele>
<time>2010-06-20T14:57:24Z</time>
<desc>lat.=55.900257, lon.=26.528971, Alt.=115.930725m. Speed=5.508000m/h.</desc>
<speed>1.530000</speed>
</trkpt>
<trkpt lat="55.900261" lon="26.529003">
<ele>115.954163</ele>
<time>2010-06-20T14:57:25Z</time>
<desc>lat.=55.900261, lon.=26.529003, Alt.=115.954163m. Speed=7.128000m/h.</desc>
<speed>1.980000</speed>
</trkpt>
<trkpt lat="55.900261" lon="26.529022">
<ele>115.940491</ele>
<time>2010-06-20T14:57:26Z</time>
<desc>lat.=55.900261, lon.=26.529022, Alt.=115.940491m. Speed=6.480000m/h.</desc>
<speed>1.800000</speed>
</trkpt>
<trkpt lat="55.900257" lon="26.529051">
<ele>115.866272</ele>
<time>2010-06-20T14:57:27Z</time>
<desc>lat.=55.900257, lon.=26.529051, Alt.=115.866272m. Speed=7.272000m/h.</desc>
<speed>2.020000</speed>
</trkpt>
<trkpt lat="55.900253" lon="26.529085">
<ele>115.905334</ele>
<time>2010-06-20T14:57:28Z</time>
<desc>lat.=55.900253, lon.=26.529085, Alt.=115.905334m. Speed=7.920000m/h.</desc>
<speed>2.200000</speed>
</trkpt>
<trkpt lat="55.900253" lon="26.529110">
<ele>115.836975</ele>
<time>2010-06-20T14:57:29Z</time>
<desc>lat.=55.900253, lon.=26.529110, Alt.=115.836975m. Speed=7.236000m/h.</desc>
<speed>2.010000</speed>
</trkpt>
<trkpt lat="55.900249" lon="26.529137">
<ele>115.627991</ele>
<time>2010-06-20T14:57:30Z</time>
<desc>lat.=55.900249, lon.=26.529137, Alt.=115.627991m. Speed=7.596000m/h.</desc>
<speed>2.110000</speed>
</trkpt>
<trkpt lat="55.900246" lon="26.529148">
<ele>115.417053</ele>
<time>2010-06-20T14:57:31Z</time>
<desc>lat.=55.900246, lon.=26.529148, Alt.=115.417053m. Speed=7.236000m/h.</desc>
<speed>2.010000</speed>
</trkpt>
<trkpt lat="55.900246" lon="26.529127">
<ele>115.428772</ele>
<time>2010-06-20T14:57:32Z</time>
<desc>lat.=55.900246, lon.=26.529127, Alt.=115.428772m. Speed=4.212000m/h.</desc>
<speed>1.170000</speed>
</trkpt>
<trkpt lat="55.900242" lon="26.529146">
<ele>115.465881</ele>
<time>2010-06-20T14:57:33Z</time>
<desc>lat.=55.900242, lon.=26.529146, Alt.=115.465881m. Speed=3.600000m/h.</desc>
<speed>1.000000</speed>
</trkpt>
<trkpt lat="55.900253" lon="26.529026">
<ele>115.329163</ele>
<time>2010-06-20T14:57:34Z</time>
<desc>lat.=55.900253, lon.=26.529026, Alt.=115.329163m. Speed=2.268000m/h.</desc>
<speed>0.630000</speed>
</trkpt>
<trkpt lat="55.900265" lon="26.528986">
<ele>115.411194</ele>
<time>2010-06-20T14:57:35Z</time>
<desc>lat.=55.900265, lon.=26.528986, Alt.=115.411194m. Speed=2.160000m/h.</desc>
<speed>0.600000</speed>
</trkpt>
<trkpt lat="55.900272" lon="26.528944">
<ele>115.491272</ele>
<time>2010-06-20T14:57:36Z</time>
<desc>lat.=55.900272, lon.=26.528944, Alt.=115.491272m. Speed=2.556000m/h.</desc>
<speed>0.710000</speed>
</trkpt>
<trkpt lat="55.900269" lon="26.528946">
<ele>115.717834</ele>
<time>2010-06-20T14:57:37Z</time>
<desc>lat.=55.900269, lon.=26.528946, Alt.=115.717834m. Speed=2.412000m/h.</desc>
<speed>0.670000</speed>
</trkpt>
<trkpt lat="55.900269" lon="26.528975">
<ele>115.762756</ele>
<time>2010-06-20T14:57:38Z</time>
<desc>lat.=55.900269, lon.=26.528975, Alt.=115.762756m. Speed=1.116000m/h.</desc>
<speed>0.310000</speed>
</trkpt>
<trkpt lat="55.900269" lon="26.528996">
<ele>115.868225</ele>
<time>2010-06-20T14:57:39Z</time>
<desc>lat.=55.900269, lon.=26.528996, Alt.=115.868225m. Speed=2.016000m/h.</desc>
<speed>0.560000</speed>
</trkpt>
<trkpt lat="55.900276" lon="26.528934">
<ele>115.817444</ele>
<time>2010-06-20T14:57:40Z</time>
<desc>lat.=55.900276, lon.=26.528934, Alt.=115.817444m. Speed=1.584000m/h.</desc>
<speed>0.440000</speed>
</trkpt>
<trkpt lat="55.900280" lon="26.528893">
<ele>115.848694</ele>
<time>2010-06-20T14:57:41Z</time>
<desc>lat.=55.900280, lon.=26.528893, Alt.=115.848694m. Speed=2.772000m/h.</desc>
<speed>0.770000</speed>
</trkpt>
<trkpt lat="55.900276" lon="26.528902">
<ele>115.926819</ele>
<time>2010-06-20T14:57:42Z</time>
<desc>lat.=55.900276, lon.=26.528902, Alt.=115.926819m. Speed=2.700000m/h.</desc>
<speed>0.750000</speed>
</trkpt>
<trkpt lat="55.900291" lon="26.528831">
<ele>115.711975</ele>
<time>2010-06-20T14:57:43Z</time>
<desc>lat.=55.900291, lon.=26.528831, Alt.=115.711975m. Speed=2.628000m/h.</desc>
<speed>0.730000</speed>
</trkpt>
<trkpt lat="55.900303" lon="26.528778">
<ele>115.682678</ele>
<time>2010-06-20T14:57:44Z</time>
<desc>lat.=55.900303, lon.=26.528778, Alt.=115.682678m. Speed=2.880000m/h.</desc>
<speed>0.800000</speed>
</trkpt>
<trkpt lat="55.900322" lon="26.528709">
<ele>115.567444</ele>
<time>2010-06-20T14:57:45Z</time>
<desc>lat.=55.900322, lon.=26.528709, Alt.=115.567444m. Speed=3.096000m/h.</desc>
<speed>0.860000</speed>
</trkpt>
<trkpt lat="55.900326" lon="26.528704">
<ele>115.762756</ele>
<time>2010-06-20T14:57:46Z</time>
<desc>lat.=55.900326, lon.=26.528704, Alt.=115.762756m. Speed=2.736000m/h.</desc>
<speed>0.760000</speed>
</trkpt>
<trkpt lat="55.900322" lon="26.528751">
<ele>116.127991</ele>
<time>2010-06-20T14:57:47Z</time>
<desc>lat.=55.900322, lon.=26.528751, Alt.=116.127991m. Speed=2.592000m/h.</desc>
<speed>0.720000</speed>
</trkpt>
<trkpt lat="55.900318" lon="26.528811">
<ele>116.340881</ele>
<time>2010-06-20T14:57:48Z</time>
<desc>lat.=55.900318, lon.=26.528811, Alt.=116.340881m. Speed=1.152000m/h.</desc>
<speed>0.320000</speed>
</trkpt>
<trkpt lat="55.900303" lon="26.528942">
<ele>116.475647</ele>
<time>2010-06-20T14:57:49Z</time>
<desc>lat.=55.900303, lon.=26.528942, Alt.=116.475647m. Speed=3.708000m/h.</desc>
<speed>1.030000</speed>
</trkpt>
<trkpt lat="55.900295" lon="26.528999">
<ele>116.454163</ele>
<time>2010-06-20T14:57:50Z</time>
<desc>lat.=55.900295, lon.=26.528999, Alt.=116.454163m. Speed=5.004000m/h.</desc>
<speed>1.390000</speed>
</trkpt>
<trkpt lat="55.900284" lon="26.529032">
<ele>116.317444</ele>
<time>2010-06-20T14:57:51Z</time>
<desc>lat.=55.900284, lon.=26.529032, Alt.=116.317444m. Speed=5.004000m/h.</desc>
<speed>1.390000</speed>
</trkpt>
<trkpt lat="55.900291" lon="26.528961">
<ele>116.088928</ele>
<time>2010-06-20T14:57:52Z</time>
<desc>lat.=55.900291, lon.=26.528961, Alt.=116.088928m. Speed=2.952000m/h.</desc>
<speed>0.820000</speed>
</trkpt>
<trkpt lat="55.900291" lon="26.528934">
<ele>116.157288</ele>
<time>2010-06-20T14:57:53Z</time>
<desc>lat.=55.900291, lon.=26.528934, Alt.=116.157288m. Speed=2.160000m/h.</desc>
<speed>0.600000</speed>
</trkpt>
<trkpt lat="55.900295" lon="26.528904">
<ele>116.069397</ele>
<time>2010-06-20T14:57:54Z</time>
<desc>lat.=55.900295, lon.=26.528904, Alt.=116.069397m. Speed=1.260000m/h.</desc>
<speed>0.350000</speed>
</trkpt>
<trkpt lat="55.900307" lon="26.528837">
<ele>115.858459</ele>
<time>2010-06-20T14:57:55Z</time>
<desc>lat.=55.900307, lon.=26.528837, Alt.=115.858459m. Speed=1.980000m/h.</desc>
<speed>0.550000</speed>
</trkpt>
<trkpt lat="55.900322" lon="26.528755">
<ele>115.870178</ele>
<time>2010-06-20T14:57:56Z</time>
<desc>lat.=55.900322, lon.=26.528755, Alt.=115.870178m. Speed=1.008000m/h.</desc>
<speed>0.280000</speed>
</trkpt>
<trkpt lat="55.900318" lon="26.528736">
<ele>116.192444</ele>
<time>2010-06-20T14:57:57Z</time>
<desc>lat.=55.900318, lon.=26.528736, Alt.=116.192444m. Speed=0.792000m/h.</desc>
<speed>0.220000</speed>
</trkpt>
<trkpt lat="55.900311" lon="26.528746">
<ele>115.975647</ele>
<time>2010-06-20T14:57:58Z</time>
<desc>lat.=55.900311, lon.=26.528746, Alt.=115.975647m. Speed=1.908000m/h.</desc>
<speed>0.530000</speed>
</trkpt>
<trkpt lat="55.900303" lon="26.528780">
<ele>116.040100</ele>
<time>2010-06-20T14:57:59Z</time>
<desc>lat.=55.900303, lon.=26.528780, Alt.=116.040100m. Speed=2.124000m/h.</desc>
<speed>0.590000</speed>
</trkpt>
<trkpt lat="55.900307" lon="26.528753">
<ele>116.024475</ele>
<time>2010-06-20T14:58:00Z</time>
<desc>lat.=55.900307, lon.=26.528753, Alt.=116.024475m. Speed=2.412000m/h.</desc>
<speed>0.670000</speed>
</trkpt>
<trkpt lat="55.900326" lon="26.528669">
<ele>116.006897</ele>
<time>2010-06-20T14:58:01Z</time>
<desc>lat.=55.900326, lon.=26.528669, Alt.=116.006897m. Speed=3.312000m/h.</desc>
<speed>0.920000</speed>
</trkpt>
<trkpt lat="55.900314" lon="26.528702">
<ele>116.231506</ele>
<time>2010-06-20T14:58:02Z</time>
<desc>lat.=55.900314, lon.=26.528702, Alt.=116.231506m. Speed=1.944000m/h.</desc>
<speed>0.540000</speed>
</trkpt>
<trkpt lat="55.900333" lon="26.528654">
<ele>116.446350</ele>
<time>2010-06-20T14:58:03Z</time>
<desc>lat.=55.900333, lon.=26.528654, Alt.=116.446350m. Speed=0.972000m/h.</desc>
<speed>0.270000</speed>
</trkpt>
<trkpt lat="55.900337" lon="26.528650">
<ele>116.504944</ele>
<time>2010-06-20T14:58:04Z</time>
<desc>lat.=55.900337, lon.=26.528650, Alt.=116.504944m. Speed=0.900000m/h.</desc>
<speed>0.250000</speed>
</trkpt>
<trkpt lat="55.900341" lon="26.528637">
<ele>116.637756</ele>
<time>2010-06-20T14:58:05Z</time>
<desc>lat.=55.900341, lon.=26.528637, Alt.=116.637756m. Speed=1.044000m/h.</desc>
<speed>0.290000</speed>
</trkpt>
<trkpt lat="55.900345" lon="26.528635">
<ele>116.608459</ele>
<time>2010-06-20T14:58:06Z</time>
<desc>lat.=55.900345, lon.=26.528635, Alt.=116.608459m. Speed=2.772000m/h.</desc>
<speed>0.770000</speed>
</trkpt>
<trkpt lat="55.900352" lon="26.528597">
<ele>116.563538</ele>
<time>2010-06-20T14:58:07Z</time>
<desc>lat.=55.900352, lon.=26.528597, Alt.=116.563538m. Speed=1.836000m/h.</desc>
<speed>0.510000</speed>
</trkpt>
<trkpt lat="55.900356" lon="26.528599">
<ele>116.680725</ele>
<time>2010-06-20T14:58:08Z</time>
<desc>lat.=55.900356, lon.=26.528599, Alt.=116.680725m. Speed=2.448000m/h.</desc>
<speed>0.680000</speed>
</trkpt>
<trkpt lat="55.900356" lon="26.528608">
<ele>116.684631</ele>
<time>2010-06-20T14:58:09Z</time>
<desc>lat.=55.900356, lon.=26.528608, Alt.=116.684631m. Speed=2.592000m/h.</desc>
<speed>0.720000</speed>
</trkpt>
<trkpt lat="55.900352" lon="26.528601">
<ele>116.594788</ele>
<time>2010-06-20T14:58:10Z</time>
<desc>lat.=55.900352, lon.=26.528601, Alt.=116.594788m. Speed=1.116000m/h.</desc>
<speed>0.310000</speed>
</trkpt>
<trkpt lat="55.900352" lon="26.528576">
<ele>116.622131</ele>
<time>2010-06-20T14:58:11Z</time>
<desc>lat.=55.900352, lon.=26.528576, Alt.=116.622131m. Speed=0.864000m/h.</desc>
<speed>0.240000</speed>
</trkpt>
<trkpt lat="55.900352" lon="26.528568">
<ele>116.729553</ele>
<time>2010-06-20T14:58:12Z</time>
<desc>lat.=55.900352, lon.=26.528568, Alt.=116.729553m. Speed=1.224000m/h.</desc>
<speed>0.340000</speed>
</trkpt>
<trkpt lat="55.900352" lon="26.528584">
<ele>116.928772</ele>
<time>2010-06-20T14:58:13Z</time>
<desc>lat.=55.900352, lon.=26.528584, Alt.=116.928772m. Speed=2.196000m/h.</desc>
<speed>0.610000</speed>
</trkpt>
<trkpt lat="55.900352" lon="26.528589">
<ele>117.260803</ele>
<time>2010-06-20T14:58:14Z</time>
<desc>lat.=55.900352, lon.=26.528589, Alt.=117.260803m. Speed=1.584000m/h.</desc>
<speed>0.440000</speed>
</trkpt>
<trkpt lat="55.900368" lon="26.528528">
<ele>117.350647</ele>
<time>2010-06-20T14:58:15Z</time>
<desc>lat.=55.900368, lon.=26.528528, Alt.=117.350647m. Speed=4.212000m/h.</desc>
<speed>1.170000</speed>
</trkpt>
<trkpt lat="55.900387" lon="26.528461">
<ele>117.577209</ele>
<time>2010-06-20T14:58:16Z</time>
<desc>lat.=55.900387, lon.=26.528461, Alt.=117.577209m. Speed=6.624000m/h.</desc>
<speed>1.840000</speed>
</trkpt>
<trkpt lat="55.900406" lon="26.528397">
<ele>117.731506</ele>
<time>2010-06-20T14:58:17Z</time>
<desc>lat.=55.900406, lon.=26.528397, Alt.=117.731506m. Speed=7.560000m/h.</desc>
<speed>2.100000</speed>
</trkpt>
<trkpt lat="55.900414" lon="26.528385">
<ele>117.909241</ele>
<time>2010-06-20T14:58:18Z</time>
<desc>lat.=55.900414, lon.=26.528385, Alt.=117.909241m. Speed=4.572000m/h.</desc>
<speed>1.270000</speed>
</trkpt>
<trkpt lat="55.900398" lon="26.528419">
<ele>117.893616</ele>
<time>2010-06-20T14:58:19Z</time>
<desc>lat.=55.900398, lon.=26.528419, Alt.=117.893616m. Speed=1.548000m/h.</desc>
<speed>0.430000</speed>
</trkpt>
<trkpt lat="55.900391" lon="26.528461">
<ele>117.995178</ele>
<time>2010-06-20T14:58:20Z</time>
<desc>lat.=55.900391, lon.=26.528461, Alt.=117.995178m. Speed=1.044000m/h.</desc>
<speed>0.290000</speed>
</trkpt>
<trkpt lat="55.900391" lon="26.528481">
<ele>117.784241</ele>
<time>2010-06-20T14:58:21Z</time>
<desc>lat.=55.900391, lon.=26.528481, Alt.=117.784241m. Speed=2.808000m/h.</desc>
<speed>0.780000</speed>
</trkpt>
<trkpt lat="55.900394" lon="26.528477">
<ele>117.850647</ele>
<time>2010-06-20T14:58:22Z</time>
<desc>lat.=55.900394, lon.=26.528477, Alt.=117.850647m. Speed=1.728000m/h.</desc>
<speed>0.480000</speed>
</trkpt>
<trkpt lat="55.900387" lon="26.528498">
<ele>118.331116</ele>
<time>2010-06-20T14:58:23Z</time>
<desc>lat.=55.900387, lon.=26.528498, Alt.=118.331116m. Speed=1.728000m/h.</desc>
<speed>0.480000</speed>
</trkpt>
<trkpt lat="55.900372" lon="26.528530">
<ele>118.493225</ele>
<time>2010-06-20T14:58:24Z</time>
<desc>lat.=55.900372, lon.=26.528530, Alt.=118.493225m. Speed=1.476000m/h.</desc>
<speed>0.410000</speed>
</trkpt>
<trkpt lat="55.900364" lon="26.528561">
<ele>118.719788</ele>
<time>2010-06-20T14:58:25Z</time>
<desc>lat.=55.900364, lon.=26.528561, Alt.=118.719788m. Speed=2.736000m/h.</desc>
<speed>0.760000</speed>
</trkpt>
<trkpt lat="55.900345" lon="26.528620">
<ele>118.958069</ele>
<time>2010-06-20T14:58:26Z</time>
<desc>lat.=55.900345, lon.=26.528620, Alt.=118.958069m. Speed=0.684000m/h.</desc>
<speed>0.190000</speed>
</trkpt>
<trkpt lat="55.900337" lon="26.528631">
<ele>118.719788</ele>
<time>2010-06-20T14:58:27Z</time>
<desc>lat.=55.900337, lon.=26.528631, Alt.=118.719788m. Speed=2.520000m/h.</desc>
<speed>0.700000</speed>
</trkpt>
<trkpt lat="55.900337" lon="26.528656">
<ele>118.868225</ele>
<time>2010-06-20T14:58:28Z</time>
<desc>lat.=55.900337, lon.=26.528656, Alt.=118.868225m. Speed=3.888000m/h.</desc>
<speed>1.080000</speed>
</trkpt>
<trkpt lat="55.900337" lon="26.528683">
<ele>119.069397</ele>
<time>2010-06-20T14:58:29Z</time>
<desc>lat.=55.900337, lon.=26.528683, Alt.=119.069397m. Speed=3.708000m/h.</desc>
<speed>1.030000</speed>
</trkpt>
<trkpt lat="55.900337" lon="26.528700">
<ele>119.231506</ele>
<time>2010-06-20T14:58:30Z</time>
<desc>lat.=55.900337, lon.=26.528700, Alt.=119.231506m. Speed=4.824000m/h.</desc>
<speed>1.340000</speed>
</trkpt>
<trkpt lat="55.900333" lon="26.528723">
<ele>119.395569</ele>
<time>2010-06-20T14:58:31Z</time>
<desc>lat.=55.900333, lon.=26.528723, Alt.=119.395569m. Speed=2.880000m/h.</desc>
<speed>0.800000</speed>
</trkpt>
<trkpt lat="55.900330" lon="26.528742">
<ele>119.489319</ele>
<time>2010-06-20T14:58:32Z</time>
<desc>lat.=55.900330, lon.=26.528742, Alt.=119.489319m. Speed=3.096000m/h.</desc>
<speed>0.860000</speed>
</trkpt>
<trkpt lat="55.900326" lon="26.528770">
<ele>119.399475</ele>
<time>2010-06-20T14:58:33Z</time>
<desc>lat.=55.900326, lon.=26.528770, Alt.=119.399475m. Speed=0.900000m/h.</desc>
<speed>0.250000</speed>
</trkpt>
<trkpt lat="55.900326" lon="26.528784">
<ele>119.112366</ele>
<time>2010-06-20T14:58:34Z</time>
<desc>lat.=55.900326, lon.=26.528784, Alt.=119.112366m. Speed=1.152000m/h.</desc>
<speed>0.320000</speed>
</trkpt>
<trkpt lat="55.900318" lon="26.528809">
<ele>118.920959</ele>
<time>2010-06-20T14:58:35Z</time>
<desc>lat.=55.900318, lon.=26.528809, Alt.=118.920959m. Speed=1.080000m/h.</desc>
<speed>0.300000</speed>
</trkpt>
<trkpt lat="55.900314" lon="26.528818">
<ele>118.721741</ele>
<time>2010-06-20T14:58:36Z</time>
<desc>lat.=55.900314, lon.=26.528818, Alt.=118.721741m. Speed=1.836000m/h.</desc>
<speed>0.510000</speed>
</trkpt>
<trkpt lat="55.900314" lon="26.528828">
<ele>118.501038</ele>
<time>2010-06-20T14:58:37Z</time>
<desc>lat.=55.900314, lon.=26.528828, Alt.=118.501038m. Speed=2.880000m/h.</desc>
<speed>0.800000</speed>
</trkpt>
<trkpt lat="55.900314" lon="26.528837">
<ele>118.393616</ele>
<time>2010-06-20T14:58:38Z</time>
<desc>lat.=55.900314, lon.=26.528837, Alt.=118.393616m. Speed=1.476000m/h.</desc>
<speed>0.410000</speed>
</trkpt>
<trkpt lat="55.900311" lon="26.528868">
<ele>118.256897</ele>
<time>2010-06-20T14:58:39Z</time>
<desc>lat.=55.900311, lon.=26.528868, Alt.=118.256897m. Speed=0.900000m/h.</desc>
<speed>0.250000</speed>
</trkpt>
<trkpt lat="55.900311" lon="26.528875">
<ele>118.180725</ele>
<time>2010-06-20T14:58:40Z</time>
<desc>lat.=55.900311, lon.=26.528875, Alt.=118.180725m. Speed=1.620000m/h.</desc>
<speed>0.450000</speed>
</trkpt>
<trkpt lat="55.900303" lon="26.528900">
<ele>118.463928</ele>
<time>2010-06-20T14:58:41Z</time>
<desc>lat.=55.900303, lon.=26.528900, Alt.=118.463928m. Speed=1.404000m/h.</desc>
<speed>0.390000</speed>
</trkpt>
<trkpt lat="55.900299" lon="26.528921">
<ele>118.522522</ele>
<time>2010-06-20T14:58:42Z</time>
<desc>lat.=55.900299, lon.=26.528921, Alt.=118.522522m. Speed=1.260000m/h.</desc>
<speed>0.350000</speed>
</trkpt>
<trkpt lat="55.900291" lon="26.528955">
<ele>118.544006</ele>
<time>2010-06-20T14:58:43Z</time>
<desc>lat.=55.900291, lon.=26.528955, Alt.=118.544006m. Speed=4.752000m/h.</desc>
<speed>1.320000</speed>
</trkpt>
<trkpt lat="55.900288" lon="26.528980">
<ele>118.520569</ele>
<time>2010-06-20T14:58:44Z</time>
<desc>lat.=55.900288, lon.=26.528980, Alt.=118.520569m. Speed=4.284000m/h.</desc>
<speed>1.190000</speed>
</trkpt>
<trkpt lat="55.900288" lon="26.528984">
<ele>118.346741</ele>
<time>2010-06-20T14:58:45Z</time>
<desc>lat.=55.900288, lon.=26.528984, Alt.=118.346741m. Speed=2.232000m/h.</desc>
<speed>0.620000</speed>
</trkpt>
<trkpt lat="55.900280" lon="26.528994">
<ele>118.327209</ele>
<time>2010-06-20T14:58:46Z</time>
<desc>lat.=55.900280, lon.=26.528994, Alt.=118.327209m. Speed=0.972000m/h.</desc>
<speed>0.270000</speed>
</trkpt>
<trkpt lat="55.900272" lon="26.529001">
<ele>118.299866</ele>
<time>2010-06-20T14:58:47Z</time>
<desc>lat.=55.900272, lon.=26.529001, Alt.=118.299866m. Speed=0.396000m/h.</desc>
<speed>0.110000</speed>
</trkpt>
<trkpt lat="55.900272" lon="26.528996">
<ele>118.260803</ele>
<time>2010-06-20T14:58:48Z</time>
<desc>lat.=55.900272, lon.=26.528996, Alt.=118.260803m. Speed=2.844000m/h.</desc>
<speed>0.790000</speed>
</trkpt>
<trkpt lat="55.900272" lon="26.528986">
<ele>118.192444</ele>
<time>2010-06-20T14:58:49Z</time>
<desc>lat.=55.900272, lon.=26.528986, Alt.=118.192444m. Speed=2.808000m/h.</desc>
<speed>0.780000</speed>
</trkpt>
<trkpt lat="55.900276" lon="26.528994">
<ele>117.969788</ele>
<time>2010-06-20T14:58:50Z</time>
<desc>lat.=55.900276, lon.=26.528994, Alt.=117.969788m. Speed=0.792000m/h.</desc>
<speed>0.220000</speed>
</trkpt>
<trkpt lat="55.900284" lon="26.528994">
<ele>117.782288</ele>
<time>2010-06-20T14:58:51Z</time>
<desc>lat.=55.900284, lon.=26.528994, Alt.=117.782288m. Speed=1.188000m/h.</desc>
<speed>0.330000</speed>
</trkpt>
<trkpt lat="55.900284" lon="26.529011">
<ele>117.522522</ele>
<time>2010-06-20T14:58:52Z</time>
<desc>lat.=55.900284, lon.=26.529011, Alt.=117.522522m. Speed=0.108000m/h.</desc>
<speed>0.030000</speed>
</trkpt>
<trkpt lat="55.900284" lon="26.529022">
<ele>117.350647</ele>
<time>2010-06-20T14:58:53Z</time>
<desc>lat.=55.900284, lon.=26.529022, Alt.=117.350647m. Speed=1.440000m/h.</desc>
<speed>0.400000</speed>
</trkpt>
<trkpt lat="55.900280" lon="26.529024">
<ele>117.280334</ele>
<time>2010-06-20T14:58:54Z</time>
<desc>lat.=55.900280, lon.=26.529024, Alt.=117.280334m. Speed=1.332000m/h.</desc>
<speed>0.370000</speed>
</trkpt>
<trkpt lat="55.900284" lon="26.529018">
<ele>117.430725</ele>
<time>2010-06-20T14:58:55Z</time>
<desc>lat.=55.900284, lon.=26.529018, Alt.=117.430725m. Speed=2.160000m/h.</desc>
<speed>0.600000</speed>
</trkpt>
<trkpt lat="55.900291" lon="26.529005">
<ele>117.620178</ele>
<time>2010-06-20T14:58:56Z</time>
<desc>lat.=55.900291, lon.=26.529005, Alt.=117.620178m. Speed=3.240000m/h.</desc>
<speed>0.900000</speed>
</trkpt>
<trkpt lat="55.900307" lon="26.528969">
<ele>117.506897</ele>
<time>2010-06-20T14:58:57Z</time>
<desc>lat.=55.900307, lon.=26.528969, Alt.=117.506897m. Speed=5.112000m/h.</desc>
<speed>1.420000</speed>
</trkpt>
<trkpt lat="55.900314" lon="26.528942">
<ele>117.446350</ele>
<time>2010-06-20T14:58:58Z</time>
<desc>lat.=55.900314, lon.=26.528942, Alt.=117.446350m. Speed=5.040000m/h.</desc>
<speed>1.400000</speed>
</trkpt>
<trkpt lat="55.900318" lon="26.528917">
<ele>117.600647</ele>
<time>2010-06-20T14:58:59Z</time>
<desc>lat.=55.900318, lon.=26.528917, Alt.=117.600647m. Speed=3.816000m/h.</desc>
<speed>1.060000</speed>
</trkpt>
<trkpt lat="55.900326" lon="26.528875">
<ele>118.309631</ele>
<time>2010-06-20T14:59:00Z</time>
<desc>lat.=55.900326, lon.=26.528875, Alt.=118.309631m. Speed=3.888000m/h.</desc>
<speed>1.080000</speed>
</trkpt>
<trkpt lat="55.900326" lon="26.528854">
<ele>118.399475</ele>
<time>2010-06-20T14:59:01Z</time>
<desc>lat.=55.900326, lon.=26.528854, Alt.=118.399475m. Speed=0.360000m/h.</desc>
<speed>0.100000</speed>
</trkpt>
<trkpt lat="55.900326" lon="26.528847">
<ele>117.995178</ele>
<time>2010-06-20T14:59:02Z</time>
<desc>lat.=55.900326, lon.=26.528847, Alt.=117.995178m. Speed=2.232000m/h.</desc>
<speed>0.620000</speed>
</trkpt>
<trkpt lat="55.900322" lon="26.528858">
<ele>117.663147</ele>
<time>2010-06-20T14:59:03Z</time>
<desc>lat.=55.900322, lon.=26.528858, Alt.=117.663147m. Speed=1.800000m/h.</desc>
<speed>0.500000</speed>
</trkpt>
<trkpt lat="55.900326" lon="26.528866">
<ele>117.616272</ele>
<time>2010-06-20T14:59:04Z</time>
<desc>lat.=55.900326, lon.=26.528866, Alt.=117.616272m. Speed=0.756000m/h.</desc>
<speed>0.210000</speed>
</trkpt>
<trkpt lat="55.900326" lon="26.528866">
<ele>117.502991</ele>
<time>2010-06-20T14:59:05Z</time>
<desc>lat.=55.900326, lon.=26.528866, Alt.=117.502991m. Speed=0.612000m/h.</desc>
<speed>0.170000</speed>
</trkpt>
<trkpt lat="55.900326" lon="26.528856">
<ele>117.463928</ele>
<time>2010-06-20T14:59:06Z</time>
<desc>lat.=55.900326, lon.=26.528856, Alt.=117.463928m. Speed=1.152000m/h.</desc>
<speed>0.320000</speed>
</trkpt>
<trkpt lat="55.900326" lon="26.528851">
<ele>117.270569</ele>
<time>2010-06-20T14:59:07Z</time>
<desc>lat.=55.900326, lon.=26.528851, Alt.=117.270569m. Speed=0.936000m/h.</desc>
<speed>0.260000</speed>
</trkpt>
<trkpt lat="55.900330" lon="26.528833">
<ele>117.231506</ele>
<time>2010-06-20T14:59:08Z</time>
<desc>lat.=55.900330, lon.=26.528833, Alt.=117.231506m. Speed=1.836000m/h.</desc>
<speed>0.510000</speed>
</trkpt>
<trkpt lat="55.900330" lon="26.528814">
<ele>117.133850</ele>
<time>2010-06-20T14:59:09Z</time>
<desc>lat.=55.900330, lon.=26.528814, Alt.=117.133850m. Speed=2.736000m/h.</desc>
<speed>0.760000</speed>
</trkpt>
<trkpt lat="55.900337" lon="26.528786">
<ele>116.534241</ele>
<time>2010-06-20T14:59:10Z</time>
<desc>lat.=55.900337, lon.=26.528786, Alt.=116.534241m. Speed=2.268000m/h.</desc>
<speed>0.630000</speed>
</trkpt>
<trkpt lat="55.900349" lon="26.528765">
<ele>115.799866</ele>
<time>2010-06-20T14:59:11Z</time>
<desc>lat.=55.900349, lon.=26.528765, Alt.=115.799866m. Speed=2.592000m/h.</desc>
<speed>0.720000</speed>
</trkpt>
<trkpt lat="55.900360" lon="26.528767">
<ele>115.323303</ele>
<time>2010-06-20T14:59:12Z</time>
<desc>lat.=55.900360, lon.=26.528767, Alt.=115.323303m. Speed=1.296000m/h.</desc>
<speed>0.360000</speed>
</trkpt>
<trkpt lat="55.900364" lon="26.528763">
<ele>115.335022</ele>
<time>2010-06-20T14:59:13Z</time>
<desc>lat.=55.900364, lon.=26.528763, Alt.=115.335022m. Speed=1.368000m/h.</desc>
<speed>0.380000</speed>
</trkpt>
<trkpt lat="55.900364" lon="26.528757">
<ele>115.282288</ele>
<time>2010-06-20T14:59:14Z</time>
<desc>lat.=55.900364, lon.=26.528757, Alt.=115.282288m. Speed=2.052000m/h.</desc>
<speed>0.570000</speed>
</trkpt>
<trkpt lat="55.900368" lon="26.528751">
<ele>115.356506</ele>
<time>2010-06-20T14:59:15Z</time>
<desc>lat.=55.900368, lon.=26.528751, Alt.=115.356506m. Speed=1.404000m/h.</desc>
<speed>0.390000</speed>
</trkpt>
<trkpt lat="55.900364" lon="26.528730">
<ele>115.766663</ele>
<time>2010-06-20T14:59:16Z</time>
<desc>lat.=55.900364, lon.=26.528730, Alt.=115.766663m. Speed=1.116000m/h.</desc>
<speed>0.310000</speed>
</trkpt>
<trkpt lat="55.900360" lon="26.528734">
<ele>115.688538</ele>
<time>2010-06-20T14:59:17Z</time>
<desc>lat.=55.900360, lon.=26.528734, Alt.=115.688538m. Speed=2.160000m/h.</desc>
<speed>0.600000</speed>
</trkpt>
<trkpt lat="55.900360" lon="26.528725">
<ele>115.407288</ele>
<time>2010-06-20T14:59:18Z</time>
<desc>lat.=55.900360, lon.=26.528725, Alt.=115.407288m. Speed=2.160000m/h.</desc>
<speed>0.600000</speed>
</trkpt>
<trkpt lat="55.900356" lon="26.528723">
<ele>115.268616</ele>
<time>2010-06-20T14:59:19Z</time>
<desc>lat.=55.900356, lon.=26.528723, Alt.=115.268616m. Speed=0.648000m/h.</desc>
<speed>0.180000</speed>
</trkpt>
<trkpt lat="55.900360" lon="26.528727">
<ele>115.133850</ele>
<time>2010-06-20T14:59:20Z</time>
<desc>lat.=55.900360, lon.=26.528727, Alt.=115.133850m. Speed=1.944000m/h.</desc>
<speed>0.540000</speed>
</trkpt>
<trkpt lat="55.900356" lon="26.528727">
<ele>114.836975</ele>
<time>2010-06-20T14:59:21Z</time>
<desc>lat.=55.900356, lon.=26.528727, Alt.=114.836975m. Speed=1.368000m/h.</desc>
<speed>0.380000</speed>
</trkpt>
<trkpt lat="55.900356" lon="26.528709">
<ele>114.706116</ele>
<time>2010-06-20T14:59:22Z</time>
<desc>lat.=55.900356, lon.=26.528709, Alt.=114.706116m. Speed=2.988000m/h.</desc>
<speed>0.830000</speed>
</trkpt>
<trkpt lat="55.900364" lon="26.528694">
<ele>114.622131</ele>
<time>2010-06-20T14:59:23Z</time>
<desc>lat.=55.900364, lon.=26.528694, Alt.=114.622131m. Speed=3.348000m/h.</desc>
<speed>0.930000</speed>
</trkpt>
<trkpt lat="55.900356" lon="26.528687">
<ele>114.825256</ele>
<time>2010-06-20T14:59:24Z</time>
<desc>lat.=55.900356, lon.=26.528687, Alt.=114.825256m. Speed=2.628000m/h.</desc>
<speed>0.730000</speed>
</trkpt>
<trkpt lat="55.900360" lon="26.528677">
<ele>114.690491</ele>
<time>2010-06-20T14:59:25Z</time>
<desc>lat.=55.900360, lon.=26.528677, Alt.=114.690491m. Speed=2.340000m/h.</desc>
<speed>0.650000</speed>
</trkpt>
<trkpt lat="55.900364" lon="26.528673">
<ele>114.735413</ele>
<time>2010-06-20T14:59:26Z</time>
<desc>lat.=55.900364, lon.=26.528673, Alt.=114.735413m. Speed=2.268000m/h.</desc>
<speed>0.630000</speed>
</trkpt>
<trkpt lat="55.900372" lon="26.528662">
<ele>114.444397</ele>
<time>2010-06-20T14:59:27Z</time>
<desc>lat.=55.900372, lon.=26.528662, Alt.=114.444397m. Speed=2.736000m/h.</desc>
<speed>0.760000</speed>
</trkpt>
<trkpt lat="55.900387" lon="26.528639">
<ele>114.178772</ele>
<time>2010-06-20T14:59:28Z</time>
<desc>lat.=55.900387, lon.=26.528639, Alt.=114.178772m. Speed=4.104000m/h.</desc>
<speed>1.140000</speed>
</trkpt>
<trkpt lat="55.900398" lon="26.528616">
<ele>113.985413</ele>
<time>2010-06-20T14:59:29Z</time>
<desc>lat.=55.900398, lon.=26.528616, Alt.=113.985413m. Speed=4.968000m/h.</desc>
<speed>1.380000</speed>
</trkpt>
<trkpt lat="55.900406" lon="26.528601">
<ele>113.848694</ele>
<time>2010-06-20T14:59:30Z</time>
<desc>lat.=55.900406, lon.=26.528601, Alt.=113.848694m. Speed=3.924000m/h.</desc>
<speed>1.090000</speed>
</trkpt>
<trkpt lat="55.900410" lon="26.528585">
<ele>113.706116</ele>
<time>2010-06-20T14:59:31Z</time>
<desc>lat.=55.900410, lon.=26.528585, Alt.=113.706116m. Speed=2.952000m/h.</desc>
<speed>0.820000</speed>
</trkpt>
<trkpt lat="55.900410" lon="26.528610">
<ele>113.631897</ele>
<time>2010-06-20T14:59:32Z</time>
<desc>lat.=55.900410, lon.=26.528610, Alt.=113.631897m. Speed=1.260000m/h.</desc>
<speed>0.350000</speed>
</trkpt>
<trkpt lat="55.900406" lon="26.528627">
<ele>113.711975</ele>
<time>2010-06-20T14:59:33Z</time>
<desc>lat.=55.900406, lon.=26.528627, Alt.=113.711975m. Speed=0.972000m/h.</desc>
<speed>0.270000</speed>
</trkpt>
<trkpt lat="55.900402" lon="26.528639">
<ele>114.034241</ele>
<time>2010-06-20T14:59:34Z</time>
<desc>lat.=55.900402, lon.=26.528639, Alt.=114.034241m. Speed=0.756000m/h.</desc>
<speed>0.210000</speed>
</trkpt>
<trkpt lat="55.900402" lon="26.528639">
<ele>114.377991</ele>
<time>2010-06-20T14:59:35Z</time>
<desc>lat.=55.900402, lon.=26.528639, Alt.=114.377991m. Speed=0.612000m/h.</desc>
<speed>0.170000</speed>
</trkpt>
<trkpt lat="55.900402" lon="26.528641">
<ele>114.667053</ele>
<time>2010-06-20T14:59:36Z</time>
<desc>lat.=55.900402, lon.=26.528641, Alt.=114.667053m. Speed=0.972000m/h.</desc>
<speed>0.270000</speed>
</trkpt>
<trkpt lat="55.900402" lon="26.528643">
<ele>114.594788</ele>
<time>2010-06-20T14:59:37Z</time>
<desc>lat.=55.900402, lon.=26.528643, Alt.=114.594788m. Speed=1.116000m/h.</desc>
<speed>0.310000</speed>
</trkpt>
<trkpt lat="55.900398" lon="26.528637">
<ele>114.506897</ele>
<time>2010-06-20T14:59:38Z</time>
<desc>lat.=55.900398, lon.=26.528637, Alt.=114.506897m. Speed=1.044000m/h.</desc>
<speed>0.290000</speed>
</trkpt>
<trkpt lat="55.900398" lon="26.528643">
<ele>114.419006</ele>
<time>2010-06-20T14:59:39Z</time>
<desc>lat.=55.900398, lon.=26.528643, Alt.=114.419006m. Speed=1.116000m/h.</desc>
<speed>0.310000</speed>
</trkpt>
<trkpt lat="55.900394" lon="26.528652">
<ele>114.385803</ele>
<time>2010-06-20T14:59:40Z</time>
<desc>lat.=55.900394, lon.=26.528652, Alt.=114.385803m. Speed=0.864000m/h.</desc>
<speed>0.240000</speed>
</trkpt>
<trkpt lat="55.900398" lon="26.528650">
<ele>114.456116</ele>
<time>2010-06-20T14:59:41Z</time>
<desc>lat.=55.900398, lon.=26.528650, Alt.=114.456116m. Speed=1.044000m/h.</desc>
<speed>0.290000</speed>
</trkpt>
<trkpt lat="55.900398" lon="26.528641">
<ele>114.313538</ele>
<time>2010-06-20T14:59:42Z</time>
<desc>lat.=55.900398, lon.=26.528641, Alt.=114.313538m. Speed=1.332000m/h.</desc>
<speed>0.370000</speed>
</trkpt>
<trkpt lat="55.900402" lon="26.528631">
<ele>114.415100</ele>
<time>2010-06-20T14:59:43Z</time>
<desc>lat.=55.900402, lon.=26.528631, Alt.=114.415100m. Speed=1.548000m/h.</desc>
<speed>0.430000</speed>
</trkpt>
<trkpt lat="55.900402" lon="26.528627">
<ele>114.616272</ele>
<time>2010-06-20T14:59:44Z</time>
<desc>lat.=55.900402, lon.=26.528627, Alt.=114.616272m. Speed=1.332000m/h.</desc>
<speed>0.370000</speed>
</trkpt>
<trkpt lat="55.900394" lon="26.528648">
<ele>114.704163</ele>
<time>2010-06-20T14:59:45Z</time>
<desc>lat.=55.900394, lon.=26.528648, Alt.=114.704163m. Speed=0.252000m/h.</desc>
<speed>0.070000</speed>
</trkpt>
<trkpt lat="55.900394" lon="26.528646">
<ele>115.120178</ele>
<time>2010-06-20T14:59:46Z</time>
<desc>lat.=55.900394, lon.=26.528646, Alt.=115.120178m. Speed=0.468000m/h.</desc>
<speed>0.130000</speed>
</trkpt>
<trkpt lat="55.900394" lon="26.528645">
<ele>115.461975</ele>
<time>2010-06-20T14:59:47Z</time>
<desc>lat.=55.900394, lon.=26.528645, Alt.=115.461975m. Speed=0.504000m/h.</desc>
<speed>0.140000</speed>
</trkpt>
<trkpt lat="55.900391" lon="26.528658">
<ele>115.655334</ele>
<time>2010-06-20T14:59:48Z</time>
<desc>lat.=55.900391, lon.=26.528658, Alt.=115.655334m. Speed=0.144000m/h.</desc>
<speed>0.040000</speed>
</trkpt>
<trkpt lat="55.900391" lon="26.528658">
<ele>115.637756</ele>
<time>2010-06-20T14:59:49Z</time>
<desc>lat.=55.900391, lon.=26.528658, Alt.=115.637756m. Speed=0.324000m/h.</desc>
<speed>0.090000</speed>
</trkpt>
<trkpt lat="55.900391" lon="26.528660">
<ele>115.627991</ele>
<time>2010-06-20T14:59:50Z</time>
<desc>lat.=55.900391, lon.=26.528660, Alt.=115.627991m. Speed=1.044000m/h.</desc>
<speed>0.290000</speed>
</trkpt>
<trkpt lat="55.900391" lon="26.528666">
<ele>115.626038</ele>
<time>2010-06-20T14:59:51Z</time>
<desc>lat.=55.900391, lon.=26.528666, Alt.=115.626038m. Speed=1.620000m/h.</desc>
<speed>0.450000</speed>
</trkpt>
<trkpt lat="55.900379" lon="26.528688">
<ele>115.653381</ele>
<time>2010-06-20T14:59:52Z</time>
<desc>lat.=55.900379, lon.=26.528688, Alt.=115.653381m. Speed=2.052000m/h.</desc>
<speed>0.570000</speed>
</trkpt>
<trkpt lat="55.900364" lon="26.528736">
<ele>115.850647</ele>
<time>2010-06-20T14:59:53Z</time>
<desc>lat.=55.900364, lon.=26.528736, Alt.=115.850647m. Speed=3.420000m/h.</desc>
<speed>0.950000</speed>
</trkpt>
<trkpt lat="55.900352" lon="26.528782">
<ele>116.065491</ele>
<time>2010-06-20T14:59:54Z</time>
<desc>lat.=55.900352, lon.=26.528782, Alt.=116.065491m. Speed=4.140000m/h.</desc>
<speed>1.150000</speed>
</trkpt>
<trkpt lat="55.900333" lon="26.528824">
<ele>116.147522</ele>
<time>2010-06-20T14:59:55Z</time>
<desc>lat.=55.900333, lon.=26.528824, Alt.=116.147522m. Speed=5.184000m/h.</desc>
<speed>1.440000</speed>
</trkpt>
<trkpt lat="55.900322" lon="26.528854">
<ele>116.114319</ele>
<time>2010-06-20T14:59:56Z</time>
<desc>lat.=55.900322, lon.=26.528854, Alt.=116.114319m. Speed=5.436000m/h.</desc>
<speed>1.510000</speed>
</trkpt>
<trkpt lat="55.900318" lon="26.528864">
<ele>116.151428</ele>
<time>2010-06-20T14:59:57Z</time>
<desc>lat.=55.900318, lon.=26.528864, Alt.=116.151428m. Speed=3.204000m/h.</desc>
<speed>0.890000</speed>
</trkpt>
<trkpt lat="55.900318" lon="26.528866">
<ele>116.454163</ele>
<time>2010-06-20T14:59:58Z</time>
<desc>lat.=55.900318, lon.=26.528866, Alt.=116.454163m. Speed=0.936000m/h.</desc>
<speed>0.260000</speed>
</trkpt>
<trkpt lat="55.900318" lon="26.528873">
<ele>116.520569</ele>
<time>2010-06-20T14:59:59Z</time>
<desc>lat.=55.900318, lon.=26.528873, Alt.=116.520569m. Speed=0.648000m/h.</desc>
<speed>0.180000</speed>
</trkpt>
<trkpt lat="55.900307" lon="26.528885">
<ele>116.266663</ele>
<time>2010-06-20T15:00:00Z</time>
<desc>lat.=55.900307, lon.=26.528885, Alt.=116.266663m. Speed=1.188000m/h.</desc>
<speed>0.330000</speed>
</trkpt>
<trkpt lat="55.900299" lon="26.528919">
<ele>116.235413</ele>
<time>2010-06-20T15:00:01Z</time>
<desc>lat.=55.900299, lon.=26.528919, Alt.=116.235413m. Speed=3.852000m/h.</desc>
<speed>1.070000</speed>
</trkpt>
<trkpt lat="55.900295" lon="26.528931">
<ele>116.254944</ele>
<time>2010-06-20T15:00:02Z</time>
<desc>lat.=55.900295, lon.=26.528931, Alt.=116.254944m. Speed=1.944000m/h.</desc>
<speed>0.540000</speed>
</trkpt>
<trkpt lat="55.900288" lon="26.528933">
<ele>116.346741</ele>
<time>2010-06-20T15:00:03Z</time>
<desc>lat.=55.900288, lon.=26.528933, Alt.=116.346741m. Speed=2.124000m/h.</desc>
<speed>0.590000</speed>
</trkpt>
<trkpt lat="55.900280" lon="26.528959">
<ele>116.446350</ele>
<time>2010-06-20T15:00:04Z</time>
<desc>lat.=55.900280, lon.=26.528959, Alt.=116.446350m. Speed=1.512000m/h.</desc>
<speed>0.420000</speed>
</trkpt>
<trkpt lat="55.900284" lon="26.528957">
<ele>116.461975</ele>
<time>2010-06-20T15:00:05Z</time>
<desc>lat.=55.900284, lon.=26.528957, Alt.=116.461975m. Speed=2.628000m/h.</desc>
<speed>0.730000</speed>
</trkpt>
<trkpt lat="55.900280" lon="26.528975">
<ele>116.596741</ele>
<time>2010-06-20T15:00:06Z</time>
<desc>lat.=55.900280, lon.=26.528975, Alt.=116.596741m. Speed=1.332000m/h.</desc>
<speed>0.370000</speed>
</trkpt>
<trkpt lat="55.900280" lon="26.528994">
<ele>116.743225</ele>
<time>2010-06-20T15:00:07Z</time>
<desc>lat.=55.900280, lon.=26.528994, Alt.=116.743225m. Speed=0.684000m/h.</desc>
<speed>0.190000</speed>
</trkpt>
<trkpt lat="55.900276" lon="26.529009">
<ele>116.489319</ele>
<time>2010-06-20T15:00:08Z</time>
<desc>lat.=55.900276, lon.=26.529009, Alt.=116.489319m. Speed=1.368000m/h.</desc>
<speed>0.380000</speed>
</trkpt>
<trkpt lat="55.900261" lon="26.529045">
<ele>116.588928</ele>
<time>2010-06-20T15:00:09Z</time>
<desc>lat.=55.900261, lon.=26.529045, Alt.=116.588928m. Speed=1.188000m/h.</desc>
<speed>0.330000</speed>
</trkpt>
<trkpt lat="55.900261" lon="26.529039">
<ele>116.491272</ele>
<time>2010-06-20T15:00:10Z</time>
<desc>lat.=55.900261, lon.=26.529039, Alt.=116.491272m. Speed=2.556000m/h.</desc>
<speed>0.710000</speed>
</trkpt>
<trkpt lat="55.900261" lon="26.529045">
<ele>116.360413</ele>
<time>2010-06-20T15:00:11Z</time>
<desc>lat.=55.900261, lon.=26.529045, Alt.=116.360413m. Speed=1.224000m/h.</desc>
<speed>0.340000</speed>
</trkpt>
<trkpt lat="55.900265" lon="26.529039">
<ele>116.331116</ele>
<time>2010-06-20T15:00:12Z</time>
<desc>lat.=55.900265, lon.=26.529039, Alt.=116.331116m. Speed=2.448000m/h.</desc>
<speed>0.680000</speed>
</trkpt>
<trkpt lat="55.900280" lon="26.529036">
<ele>116.319397</ele>
<time>2010-06-20T15:00:13Z</time>
<desc>lat.=55.900280, lon.=26.529036, Alt.=116.319397m. Speed=1.908000m/h.</desc>
<speed>0.530000</speed>
</trkpt>
<trkpt lat="55.900284" lon="26.529045">
<ele>116.276428</ele>
<time>2010-06-20T15:00:14Z</time>
<desc>lat.=55.900284, lon.=26.529045, Alt.=116.276428m. Speed=2.520000m/h.</desc>
<speed>0.700000</speed>
</trkpt>
<trkpt lat="55.900288" lon="26.529034">
<ele>116.163147</ele>
<time>2010-06-20T15:00:15Z</time>
<desc>lat.=55.900288, lon.=26.529034, Alt.=116.163147m. Speed=1.620000m/h.</desc>
<speed>0.450000</speed>
</trkpt>
<trkpt lat="55.900291" lon="26.529032">
<ele>116.192444</ele>
<time>2010-06-20T15:00:16Z</time>
<desc>lat.=55.900291, lon.=26.529032, Alt.=116.192444m. Speed=0.216000m/h.</desc>
<speed>0.060000</speed>
</trkpt>
<trkpt lat="55.900291" lon="26.529041">
<ele>116.028381</ele>
<time>2010-06-20T15:00:17Z</time>
<desc>lat.=55.900291, lon.=26.529041, Alt.=116.028381m. Speed=3.024000m/h.</desc>
<speed>0.840000</speed>
</trkpt>
<trkpt lat="55.900288" lon="26.529055">
<ele>115.811584</ele>
<time>2010-06-20T15:00:18Z</time>
<desc>lat.=55.900288, lon.=26.529055, Alt.=115.811584m. Speed=2.232000m/h.</desc>
<speed>0.620000</speed>
</trkpt>
<trkpt lat="55.900280" lon="26.529066">
<ele>116.002991</ele>
<time>2010-06-20T15:00:19Z</time>
<desc>lat.=55.900280, lon.=26.529066, Alt.=116.002991m. Speed=1.080000m/h.</desc>
<speed>0.300000</speed>
</trkpt>
<trkpt lat="55.900269" lon="26.529099">
<ele>116.071350</ele>
<time>2010-06-20T15:00:20Z</time>
<desc>lat.=55.900269, lon.=26.529099, Alt.=116.071350m. Speed=2.592000m/h.</desc>
<speed>0.720000</speed>
</trkpt>
<trkpt lat="55.900257" lon="26.529119">
<ele>116.167053</ele>
<time>2010-06-20T15:00:21Z</time>
<desc>lat.=55.900257, lon.=26.529119, Alt.=116.167053m. Speed=1.800000m/h.</desc>
<speed>0.500000</speed>
</trkpt>
<trkpt lat="55.900246" lon="26.529150">
<ele>116.254944</ele>
<time>2010-06-20T15:00:22Z</time>
<desc>lat.=55.900246, lon.=26.529150, Alt.=116.254944m. Speed=4.572000m/h.</desc>
<speed>1.270000</speed>
</trkpt>
<trkpt lat="55.900238" lon="26.529163">
<ele>116.434631</ele>
<time>2010-06-20T15:00:23Z</time>
<desc>lat.=55.900238, lon.=26.529163, Alt.=116.434631m. Speed=5.472000m/h.</desc>
<speed>1.520000</speed>
</trkpt>
<trkpt lat="55.900234" lon="26.529198">
<ele>116.585022</ele>
<time>2010-06-20T15:00:24Z</time>
<desc>lat.=55.900234, lon.=26.529198, Alt.=116.585022m. Speed=7.524000m/h.</desc>
<speed>2.090000</speed>
</trkpt>
<trkpt lat="55.900227" lon="26.529205">
<ele>116.485413</ele>
<time>2010-06-20T15:00:25Z</time>
<desc>lat.=55.900227, lon.=26.529205, Alt.=116.485413m. Speed=5.436000m/h.</desc>
<speed>1.510000</speed>
</trkpt>
<trkpt lat="55.900223" lon="26.529228">
<ele>116.485413</ele>
<time>2010-06-20T15:00:26Z</time>
<desc>lat.=55.900223, lon.=26.529228, Alt.=116.485413m. Speed=4.860000m/h.</desc>
<speed>1.350000</speed>
</trkpt>
<trkpt lat="55.900219" lon="26.529224">
<ele>116.504944</ele>
<time>2010-06-20T15:00:27Z</time>
<desc>lat.=55.900219, lon.=26.529224, Alt.=116.504944m. Speed=1.476000m/h.</desc>
<speed>0.410000</speed>
</trkpt>
<trkpt lat="55.900211" lon="26.529240">
<ele>116.698303</ele>
<time>2010-06-20T15:00:28Z</time>
<desc>lat.=55.900211, lon.=26.529240, Alt.=116.698303m. Speed=0.792000m/h.</desc>
<speed>0.220000</speed>
</trkpt>
<trkpt lat="55.900211" lon="26.529224">
<ele>116.940491</ele>
<time>2010-06-20T15:00:29Z</time>
<desc>lat.=55.900211, lon.=26.529224, Alt.=116.940491m. Speed=0.972000m/h.</desc>
<speed>0.270000</speed>
</trkpt>
<trkpt lat="55.900215" lon="26.529209">
<ele>117.120178</ele>
<time>2010-06-20T15:00:30Z</time>
<desc>lat.=55.900215, lon.=26.529209, Alt.=117.120178m. Speed=0.576000m/h.</desc>
<speed>0.160000</speed>
</trkpt>
<trkpt lat="55.900208" lon="26.529215">
<ele>117.448303</ele>
<time>2010-06-20T15:00:31Z</time>
<desc>lat.=55.900208, lon.=26.529215, Alt.=117.448303m. Speed=1.332000m/h.</desc>
<speed>0.370000</speed>
</trkpt>
<trkpt lat="55.900200" lon="26.529222">
<ele>117.577209</ele>
<time>2010-06-20T15:00:32Z</time>
<desc>lat.=55.900200, lon.=26.529222, Alt.=117.577209m. Speed=0.612000m/h.</desc>
<speed>0.170000</speed>
</trkpt>
<trkpt lat="55.900196" lon="26.529234">
<ele>117.483459</ele>
<time>2010-06-20T15:00:33Z</time>
<desc>lat.=55.900196, lon.=26.529234, Alt.=117.483459m. Speed=1.044000m/h.</desc>
<speed>0.290000</speed>
</trkpt>
<trkpt lat="55.900200" lon="26.529224">
<ele>117.879944</ele>
<time>2010-06-20T15:00:34Z</time>
<desc>lat.=55.900200, lon.=26.529224, Alt.=117.879944m. Speed=1.152000m/h.</desc>
<speed>0.320000</speed>
</trkpt>
<trkpt lat="55.900208" lon="26.529217">
<ele>117.741272</ele>
<time>2010-06-20T15:00:35Z</time>
<desc>lat.=55.900208, lon.=26.529217, Alt.=117.741272m. Speed=1.620000m/h.</desc>
<speed>0.450000</speed>
</trkpt>
<trkpt lat="55.900215" lon="26.529203">
<ele>117.413147</ele>
<time>2010-06-20T15:00:36Z</time>
<desc>lat.=55.900215, lon.=26.529203, Alt.=117.413147m. Speed=1.260000m/h.</desc>
<speed>0.350000</speed>
</trkpt>
<trkpt lat="55.900219" lon="26.529184">
<ele>117.342834</ele>
<time>2010-06-20T15:00:37Z</time>
<desc>lat.=55.900219, lon.=26.529184, Alt.=117.342834m. Speed=1.008000m/h.</desc>
<speed>0.280000</speed>
</trkpt>
<trkpt lat="55.900223" lon="26.529169">
<ele>118.001038</ele>
<time>2010-06-20T15:00:38Z</time>
<desc>lat.=55.900223, lon.=26.529169, Alt.=118.001038m. Speed=1.980000m/h.</desc>
<speed>0.550000</speed>
</trkpt>
<trkpt lat="55.900242" lon="26.529104">
<ele>117.844788</ele>
<time>2010-06-20T15:00:39Z</time>
<desc>lat.=55.900242, lon.=26.529104, Alt.=117.844788m. Speed=2.412000m/h.</desc>
<speed>0.670000</speed>
</trkpt>
<trkpt lat="55.900253" lon="26.529070">
<ele>117.649475</ele>
<time>2010-06-20T15:00:40Z</time>
<desc>lat.=55.900253, lon.=26.529070, Alt.=117.649475m. Speed=1.368000m/h.</desc>
<speed>0.380000</speed>
</trkpt>
<trkpt lat="55.900253" lon="26.529083">
<ele>117.633850</ele>
<time>2010-06-20T15:00:41Z</time>
<desc>lat.=55.900253, lon.=26.529083, Alt.=117.633850m. Speed=1.728000m/h.</desc>
<speed>0.480000</speed>
</trkpt>
<trkpt lat="55.900265" lon="26.529051">
<ele>117.600647</ele>
<time>2010-06-20T15:00:42Z</time>
<desc>lat.=55.900265, lon.=26.529051, Alt.=117.600647m. Speed=0.792000m/h.</desc>
<speed>0.220000</speed>
</trkpt>
<trkpt lat="55.900272" lon="26.529041">
<ele>117.774475</ele>
<time>2010-06-20T15:00:43Z</time>
<desc>lat.=55.900272, lon.=26.529041, Alt.=117.774475m. Speed=1.116000m/h.</desc>
<speed>0.310000</speed>
</trkpt>
<trkpt lat="55.900276" lon="26.529028">
<ele>117.463928</ele>
<time>2010-06-20T15:00:44Z</time>
<desc>lat.=55.900276, lon.=26.529028, Alt.=117.463928m. Speed=2.736000m/h.</desc>
<speed>0.760000</speed>
</trkpt>
<trkpt lat="55.900276" lon="26.529003">
<ele>117.108459</ele>
<time>2010-06-20T15:00:45Z</time>
<desc>lat.=55.900276, lon.=26.529003, Alt.=117.108459m. Speed=3.456000m/h.</desc>
<speed>0.960000</speed>
</trkpt>
<trkpt lat="55.900272" lon="26.528988">
<ele>117.055725</ele>
<time>2010-06-20T15:00:46Z</time>
<desc>lat.=55.900272, lon.=26.528988, Alt.=117.055725m. Speed=4.104000m/h.</desc>
<speed>1.140000</speed>
</trkpt>
<trkpt lat="55.900272" lon="26.528980">
<ele>117.280334</ele>
<time>2010-06-20T15:00:47Z</time>
<desc>lat.=55.900272, lon.=26.528980, Alt.=117.280334m. Speed=4.212000m/h.</desc>
<speed>1.170000</speed>
</trkpt>
<trkpt lat="55.900265" lon="26.528990">
<ele>117.417053</ele>
<time>2010-06-20T15:00:48Z</time>
<desc>lat.=55.900265, lon.=26.528990, Alt.=117.417053m. Speed=1.188000m/h.</desc>
<speed>0.330000</speed>
</trkpt>
<trkpt lat="55.900269" lon="26.528963">
<ele>117.479553</ele>
<time>2010-06-20T15:00:49Z</time>
<desc>lat.=55.900269, lon.=26.528963, Alt.=117.479553m. Speed=1.908000m/h.</desc>
<speed>0.530000</speed>
</trkpt>
<trkpt lat="55.900269" lon="26.528955">
<ele>117.614319</ele>
<time>2010-06-20T15:00:50Z</time>
<desc>lat.=55.900269, lon.=26.528955, Alt.=117.614319m. Speed=1.548000m/h.</desc>
<speed>0.430000</speed>
</trkpt>
<trkpt lat="55.900272" lon="26.528940">
<ele>117.479553</ele>
<time>2010-06-20T15:00:51Z</time>
<desc>lat.=55.900272, lon.=26.528940, Alt.=117.479553m. Speed=2.376000m/h.</desc>
<speed>0.660000</speed>
</trkpt>
<trkpt lat="55.900257" lon="26.528969">
<ele>117.614319</ele>
<time>2010-06-20T15:00:52Z</time>
<desc>lat.=55.900257, lon.=26.528969, Alt.=117.614319m. Speed=0.396000m/h.</desc>
<speed>0.110000</speed>
</trkpt>
<trkpt lat="55.900257" lon="26.528971">
<ele>117.819397</ele>
<time>2010-06-20T15:00:53Z</time>
<desc>lat.=55.900257, lon.=26.528971, Alt.=117.819397m. Speed=1.224000m/h.</desc>
<speed>0.340000</speed>
</trkpt>
<trkpt lat="55.900257" lon="26.528952">
<ele>117.956116</ele>
<time>2010-06-20T15:00:54Z</time>
<desc>lat.=55.900257, lon.=26.528952, Alt.=117.956116m. Speed=2.772000m/h.</desc>
<speed>0.770000</speed>
</trkpt>
<trkpt lat="55.900265" lon="26.528923">
<ele>118.012756</ele>
<time>2010-06-20T15:00:55Z</time>
<desc>lat.=55.900265, lon.=26.528923, Alt.=118.012756m. Speed=2.484000m/h.</desc>
<speed>0.690000</speed>
</trkpt>
<trkpt lat="55.900269" lon="26.528908">
<ele>117.952209</ele>
<time>2010-06-20T15:00:56Z</time>
<desc>lat.=55.900269, lon.=26.528908, Alt.=117.952209m. Speed=1.296000m/h.</desc>
<speed>0.360000</speed>
</trkpt>
<trkpt lat="55.900272" lon="26.528889">
<ele>117.788147</ele>
<time>2010-06-20T15:00:57Z</time>
<desc>lat.=55.900272, lon.=26.528889, Alt.=117.788147m. Speed=0.252000m/h.</desc>
<speed>0.070000</speed>
</trkpt>
<trkpt lat="55.900265" lon="26.528894">
<ele>117.647522</ele>
<time>2010-06-20T15:00:58Z</time>
<desc>lat.=55.900265, lon.=26.528894, Alt.=117.647522m. Speed=1.764000m/h.</desc>
<speed>0.490000</speed>
</trkpt>
<trkpt lat="55.900272" lon="26.528873">
<ele>117.530334</ele>
<time>2010-06-20T15:00:59Z</time>
<desc>lat.=55.900272, lon.=26.528873, Alt.=117.530334m. Speed=1.440000m/h.</desc>
<speed>0.400000</speed>
</trkpt>
<trkpt lat="55.900288" lon="26.528824">
<ele>117.141663</ele>
<time>2010-06-20T15:01:00Z</time>
<desc>lat.=55.900288, lon.=26.528824, Alt.=117.141663m. Speed=2.556000m/h.</desc>
<speed>0.710000</speed>
</trkpt>
<trkpt lat="55.900295" lon="26.528791">
<ele>117.192444</ele>
<time>2010-06-20T15:01:01Z</time>
<desc>lat.=55.900295, lon.=26.528791, Alt.=117.192444m. Speed=3.420000m/h.</desc>
<speed>0.950000</speed>
</trkpt>
<trkpt lat="55.900303" lon="26.528772">
<ele>117.002991</ele>
<time>2010-06-20T15:01:02Z</time>
<desc>lat.=55.900303, lon.=26.528772, Alt.=117.002991m. Speed=0.972000m/h.</desc>
<speed>0.270000</speed>
</trkpt>
<trkpt lat="55.900307" lon="26.528761">
<ele>116.858459</ele>
<time>2010-06-20T15:01:03Z</time>
<desc>lat.=55.900307, lon.=26.528761, Alt.=116.858459m. Speed=2.448000m/h.</desc>
<speed>0.680000</speed>
</trkpt>
<trkpt lat="55.900303" lon="26.528776">
<ele>117.040100</ele>
<time>2010-06-20T15:01:04Z</time>
<desc>lat.=55.900303, lon.=26.528776, Alt.=117.040100m. Speed=2.736000m/h.</desc>
<speed>0.760000</speed>
</trkpt>
<trkpt lat="55.900311" lon="26.528770">
<ele>117.243225</ele>
<time>2010-06-20T15:01:05Z</time>
<desc>lat.=55.900311, lon.=26.528770, Alt.=117.243225m. Speed=2.520000m/h.</desc>
<speed>0.700000</speed>
</trkpt>
<trkpt lat="55.900311" lon="26.528776">
<ele>117.672913</ele>
<time>2010-06-20T15:01:06Z</time>
<desc>lat.=55.900311, lon.=26.528776, Alt.=117.672913m. Speed=0.324000m/h.</desc>
<speed>0.090000</speed>
</trkpt>
<trkpt lat="55.900311" lon="26.528776">
<ele>117.899475</ele>
<time>2010-06-20T15:01:07Z</time>
<desc>lat.=55.900311, lon.=26.528776, Alt.=117.899475m. Speed=1.440000m/h.</desc>
<speed>0.400000</speed>
</trkpt>
<trkpt lat="55.900314" lon="26.528786">
<ele>117.973694</ele>
<time>2010-06-20T15:01:08Z</time>
<desc>lat.=55.900314, lon.=26.528786, Alt.=117.973694m. Speed=4.068000m/h.</desc>
<speed>1.130000</speed>
</trkpt>
<trkpt lat="55.900303" lon="26.528820">
<ele>118.303772</ele>
<time>2010-06-20T15:01:09Z</time>
<desc>lat.=55.900303, lon.=26.528820, Alt.=118.303772m. Speed=3.852000m/h.</desc>
<speed>1.070000</speed>
</trkpt>
<trkpt lat="55.900299" lon="26.528837">
<ele>118.274475</ele>
<time>2010-06-20T15:01:10Z</time>
<desc>lat.=55.900299, lon.=26.528837, Alt.=118.274475m. Speed=3.348000m/h.</desc>
<speed>0.930000</speed>
</trkpt>
<trkpt lat="55.900303" lon="26.528833">
<ele>117.975647</ele>
<time>2010-06-20T15:01:11Z</time>
<desc>lat.=55.900303, lon.=26.528833, Alt.=117.975647m. Speed=2.340000m/h.</desc>
<speed>0.650000</speed>
</trkpt>
<trkpt lat="55.900303" lon="26.528835">
<ele>117.842834</ele>
<time>2010-06-20T15:01:12Z</time>
<desc>lat.=55.900303, lon.=26.528835, Alt.=117.842834m. Speed=3.096000m/h.</desc>
<speed>0.860000</speed>
</trkpt>
<trkpt lat="55.900322" lon="26.528797">
<ele>117.649475</ele>
<time>2010-06-20T15:01:13Z</time>
<desc>lat.=55.900322, lon.=26.528797, Alt.=117.649475m. Speed=0.468000m/h.</desc>
<speed>0.130000</speed>
</trkpt>
<trkpt lat="55.900330" lon="26.528784">
<ele>117.874084</ele>
<time>2010-06-20T15:01:14Z</time>
<desc>lat.=55.900330, lon.=26.528784, Alt.=117.874084m. Speed=2.484000m/h.</desc>
<speed>0.690000</speed>
</trkpt>
<trkpt lat="55.900337" lon="26.528765">
<ele>117.670959</ele>
<time>2010-06-20T15:01:15Z</time>
<desc>lat.=55.900337, lon.=26.528765, Alt.=117.670959m. Speed=1.548000m/h.</desc>
<speed>0.430000</speed>
</trkpt>
<trkpt lat="55.900345" lon="26.528742">
<ele>117.499084</ele>
<time>2010-06-20T15:01:16Z</time>
<desc>lat.=55.900345, lon.=26.528742, Alt.=117.499084m. Speed=2.412000m/h.</desc>
<speed>0.670000</speed>
</trkpt>
<trkpt lat="55.900333" lon="26.528751">
<ele>117.508850</ele>
<time>2010-06-20T15:01:17Z</time>
<desc>lat.=55.900333, lon.=26.528751, Alt.=117.508850m. Speed=1.728000m/h.</desc>
<speed>0.480000</speed>
</trkpt>
<trkpt lat="55.900333" lon="26.528765">
<ele>117.514709</ele>
<time>2010-06-20T15:01:18Z</time>
<desc>lat.=55.900333, lon.=26.528765, Alt.=117.514709m. Speed=1.764000m/h.</desc>
<speed>0.490000</speed>
</trkpt>
<trkpt lat="55.900337" lon="26.528727">
<ele>117.538147</ele>
<time>2010-06-20T15:01:19Z</time>
<desc>lat.=55.900337, lon.=26.528727, Alt.=117.538147m. Speed=2.016000m/h.</desc>
<speed>0.560000</speed>
</trkpt>
<trkpt lat="55.900337" lon="26.528715">
<ele>117.395569</ele>
<time>2010-06-20T15:01:20Z</time>
<desc>lat.=55.900337, lon.=26.528715, Alt.=117.395569m. Speed=1.224000m/h.</desc>
<speed>0.340000</speed>
</trkpt>
<trkpt lat="55.900349" lon="26.528671">
<ele>117.419006</ele>
<time>2010-06-20T15:01:21Z</time>
<desc>lat.=55.900349, lon.=26.528671, Alt.=117.419006m. Speed=2.700000m/h.</desc>
<speed>0.750000</speed>
</trkpt>
<trkpt lat="55.900352" lon="26.528635">
<ele>117.485413</ele>
<time>2010-06-20T15:01:22Z</time>
<desc>lat.=55.900352, lon.=26.528635, Alt.=117.485413m. Speed=3.996000m/h.</desc>
<speed>1.110000</speed>
</trkpt>
<trkpt lat="55.900356" lon="26.528612">
<ele>117.411194</ele>
<time>2010-06-20T15:01:23Z</time>
<desc>lat.=55.900356, lon.=26.528612, Alt.=117.411194m. Speed=3.456000m/h.</desc>
<speed>0.960000</speed>
</trkpt>
<trkpt lat="55.900364" lon="26.528584">
<ele>117.467834</ele>
<time>2010-06-20T15:01:24Z</time>
<desc>lat.=55.900364, lon.=26.528584, Alt.=117.467834m. Speed=3.096000m/h.</desc>
<speed>0.860000</speed>
</trkpt>
<trkpt lat="55.900372" lon="26.528543">
<ele>117.583069</ele>
<time>2010-06-20T15:01:25Z</time>
<desc>lat.=55.900372, lon.=26.528543, Alt.=117.583069m. Speed=3.924000m/h.</desc>
<speed>1.090000</speed>
</trkpt>
<trkpt lat="55.900372" lon="26.528532">
<ele>117.631897</ele>
<time>2010-06-20T15:01:26Z</time>
<desc>lat.=55.900372, lon.=26.528532, Alt.=117.631897m. Speed=3.672000m/h.</desc>
<speed>1.020000</speed>
</trkpt>
<trkpt lat="55.900364" lon="26.528505">
<ele>117.557678</ele>
<time>2010-06-20T15:01:27Z</time>
<desc>lat.=55.900364, lon.=26.528505, Alt.=117.557678m. Speed=7.416000m/h.</desc>
<speed>2.060000</speed>
</trkpt>
<trkpt lat="55.900364" lon="26.528479">
<ele>117.475647</ele>
<time>2010-06-20T15:01:28Z</time>
<desc>lat.=55.900364, lon.=26.528479, Alt.=117.475647m. Speed=7.560000m/h.</desc>
<speed>2.100000</speed>
</trkpt>
<trkpt lat="55.900360" lon="26.528442">
<ele>117.399475</ele>
<time>2010-06-20T15:01:29Z</time>
<desc>lat.=55.900360, lon.=26.528442, Alt.=117.399475m. Speed=7.380000m/h.</desc>
<speed>2.050000</speed>
</trkpt>
<trkpt lat="55.900356" lon="26.528412">
<ele>117.618225</ele>
<time>2010-06-20T15:01:30Z</time>
<desc>lat.=55.900356, lon.=26.528412, Alt.=117.618225m. Speed=6.804000m/h.</desc>
<speed>1.890000</speed>
</trkpt>
<trkpt lat="55.900341" lon="26.528418">
<ele>117.756897</ele>
<time>2010-06-20T15:01:31Z</time>
<desc>lat.=55.900341, lon.=26.528418, Alt.=117.756897m. Speed=5.616000m/h.</desc>
<speed>1.560000</speed>
</trkpt>
<trkpt lat="55.900330" lon="26.528439">
<ele>117.778381</ele>
<time>2010-06-20T15:01:32Z</time>
<desc>lat.=55.900330, lon.=26.528439, Alt.=117.778381m. Speed=2.628000m/h.</desc>
<speed>0.730000</speed>
</trkpt>
<trkpt lat="55.900307" lon="26.528519">
<ele>118.022522</ele>
<time>2010-06-20T15:01:33Z</time>
<desc>lat.=55.900307, lon.=26.528519, Alt.=118.022522m. Speed=3.600000m/h.</desc>
<speed>1.000000</speed>
</trkpt>
<trkpt lat="55.900291" lon="26.528564">
<ele>118.411194</ele>
<time>2010-06-20T15:01:34Z</time>
<desc>lat.=55.900291, lon.=26.528564, Alt.=118.411194m. Speed=2.664000m/h.</desc>
<speed>0.740000</speed>
</trkpt>
<trkpt lat="55.900272" lon="26.528595">
<ele>118.520569</ele>
<time>2010-06-20T15:01:35Z</time>
<desc>lat.=55.900272, lon.=26.528595, Alt.=118.520569m. Speed=4.536000m/h.</desc>
<speed>1.260000</speed>
</trkpt>
<trkpt lat="55.900265" lon="26.528597">
<ele>118.870178</ele>
<time>2010-06-20T15:01:36Z</time>
<desc>lat.=55.900265, lon.=26.528597, Alt.=118.870178m. Speed=1.800000m/h.</desc>
<speed>0.500000</speed>
</trkpt>
<trkpt lat="55.900276" lon="26.528555">
<ele>118.719788</ele>
<time>2010-06-20T15:01:37Z</time>
<desc>lat.=55.900276, lon.=26.528555, Alt.=118.719788m. Speed=2.124000m/h.</desc>
<speed>0.590000</speed>
</trkpt>
<trkpt lat="55.900269" lon="26.528551">
<ele>118.526428</ele>
<time>2010-06-20T15:01:38Z</time>
<desc>lat.=55.900269, lon.=26.528551, Alt.=118.526428m. Speed=1.980000m/h.</desc>
<speed>0.550000</speed>
</trkpt>
<trkpt lat="55.900265" lon="26.528547">
<ele>118.458069</ele>
<time>2010-06-20T15:01:39Z</time>
<desc>lat.=55.900265, lon.=26.528547, Alt.=118.458069m. Speed=1.116000m/h.</desc>
<speed>0.310000</speed>
</trkpt>
<trkpt lat="55.900265" lon="26.528547">
<ele>118.680725</ele>
<time>2010-06-20T15:01:40Z</time>
<desc>lat.=55.900265, lon.=26.528547, Alt.=118.680725m. Speed=0.936000m/h.</desc>
<speed>0.260000</speed>
</trkpt>
<trkpt lat="55.900265" lon="26.528530">
<ele>119.014709</ele>
<time>2010-06-20T15:01:41Z</time>
<desc>lat.=55.900265, lon.=26.528530, Alt.=119.014709m. Speed=1.224000m/h.</desc>
<speed>0.340000</speed>
</trkpt>
<trkpt lat="55.900276" lon="26.528502">
<ele>119.063538</ele>
<time>2010-06-20T15:01:42Z</time>
<desc>lat.=55.900276, lon.=26.528502, Alt.=119.063538m. Speed=2.448000m/h.</desc>
<speed>0.680000</speed>
</trkpt>
<trkpt lat="55.900280" lon="26.528515">
<ele>119.161194</ele>
<time>2010-06-20T15:01:43Z</time>
<desc>lat.=55.900280, lon.=26.528515, Alt.=119.161194m. Speed=1.836000m/h.</desc>
<speed>0.510000</speed>
</trkpt>
<trkpt lat="55.900276" lon="26.528542">
<ele>119.184631</ele>
<time>2010-06-20T15:01:44Z</time>
<desc>lat.=55.900276, lon.=26.528542, Alt.=119.184631m. Speed=1.908000m/h.</desc>
<speed>0.530000</speed>
</trkpt>
<trkpt lat="55.900284" lon="26.528563">
<ele>118.911194</ele>
<time>2010-06-20T15:01:45Z</time>
<desc>lat.=55.900284, lon.=26.528563, Alt.=118.911194m. Speed=6.264000m/h.</desc>
<speed>1.740000</speed>
</trkpt>
<trkpt lat="55.900291" lon="26.528582">
<ele>118.575256</ele>
<time>2010-06-20T15:01:46Z</time>
<desc>lat.=55.900291, lon.=26.528582, Alt.=118.575256m. Speed=7.056000m/h.</desc>
<speed>1.960000</speed>
</trkpt>
<trkpt lat="55.900284" lon="26.528669">
<ele>118.641663</ele>
<time>2010-06-20T15:01:47Z</time>
<desc>lat.=55.900284, lon.=26.528669, Alt.=118.641663m. Speed=8.424000m/h.</desc>
<speed>2.340000</speed>
</trkpt>
<trkpt lat="55.900272" lon="26.528742">
<ele>118.672913</ele>
<time>2010-06-20T15:01:48Z</time>
<desc>lat.=55.900272, lon.=26.528742, Alt.=118.672913m. Speed=7.020000m/h.</desc>
<speed>1.950000</speed>
</trkpt>
<trkpt lat="55.900265" lon="26.528799">
<ele>118.489319</ele>
<time>2010-06-20T15:01:49Z</time>
<desc>lat.=55.900265, lon.=26.528799, Alt.=118.489319m. Speed=5.904000m/h.</desc>
<speed>1.640000</speed>
</trkpt>
<trkpt lat="55.900253" lon="26.528839">
<ele>118.344788</ele>
<time>2010-06-20T15:01:50Z</time>
<desc>lat.=55.900253, lon.=26.528839, Alt.=118.344788m. Speed=4.356000m/h.</desc>
<speed>1.210000</speed>
</trkpt>
<trkpt lat="55.900246" lon="26.528879">
<ele>118.213928</ele>
<time>2010-06-20T15:01:51Z</time>
<desc>lat.=55.900246, lon.=26.528879, Alt.=118.213928m. Speed=3.096000m/h.</desc>
<speed>0.860000</speed>
</trkpt>
<trkpt lat="55.900230" lon="26.528912">
<ele>118.001038</ele>
<time>2010-06-20T15:01:52Z</time>
<desc>lat.=55.900230, lon.=26.528912, Alt.=118.001038m. Speed=2.700000m/h.</desc>
<speed>0.750000</speed>
</trkpt>
<trkpt lat="55.900223" lon="26.528925">
<ele>117.936584</ele>
<time>2010-06-20T15:01:53Z</time>
<desc>lat.=55.900223, lon.=26.528925, Alt.=117.936584m. Speed=2.304000m/h.</desc>
<speed>0.640000</speed>
</trkpt>
<trkpt lat="55.900230" lon="26.528896">
<ele>117.559631</ele>
<time>2010-06-20T15:01:54Z</time>
<desc>lat.=55.900230, lon.=26.528896, Alt.=117.559631m. Speed=4.320000m/h.</desc>
<speed>1.200000</speed>
</trkpt>
<trkpt lat="55.900230" lon="26.528919">
<ele>117.368225</ele>
<time>2010-06-20T15:01:55Z</time>
<desc>lat.=55.900230, lon.=26.528919, Alt.=117.368225m. Speed=2.520000m/h.</desc>
<speed>0.700000</speed>
</trkpt>
<trkpt lat="55.900227" lon="26.528936">
<ele>117.044006</ele>
<time>2010-06-20T15:01:56Z</time>
<desc>lat.=55.900227, lon.=26.528936, Alt.=117.044006m. Speed=0.576000m/h.</desc>
<speed>0.160000</speed>
</trkpt>
<trkpt lat="55.900219" lon="26.528952">
<ele>116.405334</ele>
<time>2010-06-20T15:01:57Z</time>
<desc>lat.=55.900219, lon.=26.528952, Alt.=116.405334m. Speed=1.296000m/h.</desc>
<speed>0.360000</speed>
</trkpt>
<trkpt lat="55.900208" lon="26.528997">
<ele>115.805725</ele>
<time>2010-06-20T15:01:58Z</time>
<desc>lat.=55.900208, lon.=26.528997, Alt.=115.805725m. Speed=3.528000m/h.</desc>
<speed>0.980000</speed>
</trkpt>
<trkpt lat="55.900204" lon="26.529007">
<ele>115.295959</ele>
<time>2010-06-20T15:01:59Z</time>
<desc>lat.=55.900204, lon.=26.529007, Alt.=115.295959m. Speed=1.080000m/h.</desc>
<speed>0.300000</speed>
</trkpt>
<trkpt lat="55.900211" lon="26.529032">
<ele>114.665100</ele>
<time>2010-06-20T15:02:00Z</time>
<desc>lat.=55.900211, lon.=26.529032, Alt.=114.665100m. Speed=2.304000m/h.</desc>
<speed>0.640000</speed>
</trkpt>
<trkpt lat="55.900219" lon="26.529051">
<ele>114.282288</ele>
<time>2010-06-20T15:02:01Z</time>
<desc>lat.=55.900219, lon.=26.529051, Alt.=114.282288m. Speed=2.052000m/h.</desc>
<speed>0.570000</speed>
</trkpt>
<trkpt lat="55.900227" lon="26.529068">
<ele>113.766663</ele>
<time>2010-06-20T15:02:02Z</time>
<desc>lat.=55.900227, lon.=26.529068, Alt.=113.766663m. Speed=2.016000m/h.</desc>
<speed>0.560000</speed>
</trkpt>
<trkpt lat="55.900230" lon="26.529074">
<ele>113.434631</ele>
<time>2010-06-20T15:02:03Z</time>
<desc>lat.=55.900230, lon.=26.529074, Alt.=113.434631m. Speed=2.088000m/h.</desc>
<speed>0.580000</speed>
</trkpt>
<trkpt lat="55.900230" lon="26.529095">
<ele>112.893616</ele>
<time>2010-06-20T15:02:04Z</time>
<desc>lat.=55.900230, lon.=26.529095, Alt.=112.893616m. Speed=1.224000m/h.</desc>
<speed>0.340000</speed>
</trkpt>
<trkpt lat="55.900230" lon="26.529102">
<ele>112.893616</ele>
<time>2010-06-20T15:02:05Z</time>
<desc>lat.=55.900230, lon.=26.529102, Alt.=112.893616m. Speed=1.116000m/h.</desc>
<speed>0.310000</speed>
</trkpt>
<trkpt lat="55.900238" lon="26.529089">
<ele>112.544006</ele>
<time>2010-06-20T15:02:06Z</time>
<desc>lat.=55.900238, lon.=26.529089, Alt.=112.544006m. Speed=1.764000m/h.</desc>
<speed>0.490000</speed>
</trkpt>
<trkpt lat="55.900242" lon="26.529062">
<ele>112.540100</ele>
<time>2010-06-20T15:02:07Z</time>
<desc>lat.=55.900242, lon.=26.529062, Alt.=112.540100m. Speed=2.556000m/h.</desc>
<speed>0.710000</speed>
</trkpt>
<trkpt lat="55.900238" lon="26.529057">
<ele>112.190491</ele>
<time>2010-06-20T15:02:08Z</time>
<desc>lat.=55.900238, lon.=26.529057, Alt.=112.190491m. Speed=1.800000m/h.</desc>
<speed>0.500000</speed>
</trkpt>
<trkpt lat="55.900246" lon="26.529034">
<ele>111.444397</ele>
<time>2010-06-20T15:02:09Z</time>
<desc>lat.=55.900246, lon.=26.529034, Alt.=111.444397m. Speed=4.284000m/h.</desc>
<speed>1.190000</speed>
</trkpt>
<trkpt lat="55.900249" lon="26.529013">
<ele>111.405334</ele>
<time>2010-06-20T15:02:10Z</time>
<desc>lat.=55.900249, lon.=26.529013, Alt.=111.405334m. Speed=3.600000m/h.</desc>
<speed>1.000000</speed>
</trkpt>
<trkpt lat="55.900261" lon="26.528961">
<ele>111.579163</ele>
<time>2010-06-20T15:02:11Z</time>
<desc>lat.=55.900261, lon.=26.528961, Alt.=111.579163m. Speed=5.292000m/h.</desc>
<speed>1.470000</speed>
</trkpt>
<trkpt lat="55.900265" lon="26.528927">
<ele>111.577209</ele>
<time>2010-06-20T15:02:12Z</time>
<desc>lat.=55.900265, lon.=26.528927, Alt.=111.577209m. Speed=3.960000m/h.</desc>
<speed>1.100000</speed>
</trkpt>
<trkpt lat="55.900272" lon="26.528883">
<ele>111.665100</ele>
<time>2010-06-20T15:02:13Z</time>
<desc>lat.=55.900272, lon.=26.528883, Alt.=111.665100m. Speed=5.220000m/h.</desc>
<speed>1.450000</speed>
</trkpt>
<trkpt lat="55.900284" lon="26.528856">
<ele>111.631897</ele>
<time>2010-06-20T15:02:14Z</time>
<desc>lat.=55.900284, lon.=26.528856, Alt.=111.631897m. Speed=4.572000m/h.</desc>
<speed>1.270000</speed>
</trkpt>
<trkpt lat="55.900295" lon="26.528814">
<ele>111.627991</ele>
<time>2010-06-20T15:02:15Z</time>
<desc>lat.=55.900295, lon.=26.528814, Alt.=111.627991m. Speed=5.004000m/h.</desc>
<speed>1.390000</speed>
</trkpt>
<trkpt lat="55.900299" lon="26.528790">
<ele>111.702209</ele>
<time>2010-06-20T15:02:16Z</time>
<desc>lat.=55.900299, lon.=26.528790, Alt.=111.702209m. Speed=2.232000m/h.</desc>
<speed>0.620000</speed>
</trkpt>
<trkpt lat="55.900303" lon="26.528797">
<ele>111.129944</ele>
<time>2010-06-20T15:02:17Z</time>
<desc>lat.=55.900303, lon.=26.528797, Alt.=111.129944m. Speed=1.728000m/h.</desc>
<speed>0.480000</speed>
</trkpt>
<trkpt lat="55.900303" lon="26.528818">
<ele>110.799866</ele>
<time>2010-06-20T15:02:18Z</time>
<desc>lat.=55.900303, lon.=26.528818, Alt.=110.799866m. Speed=1.548000m/h.</desc>
<speed>0.430000</speed>
</trkpt>
<trkpt lat="55.900299" lon="26.528830">
<ele>110.024475</ele>
<time>2010-06-20T15:02:19Z</time>
<desc>lat.=55.900299, lon.=26.528830, Alt.=110.024475m. Speed=1.260000m/h.</desc>
<speed>0.350000</speed>
</trkpt>
<trkpt lat="55.900299" lon="26.528833">
<ele>109.600647</ele>
<time>2010-06-20T15:02:20Z</time>
<desc>lat.=55.900299, lon.=26.528833, Alt.=109.600647m. Speed=0.360000m/h.</desc>
<speed>0.100000</speed>
</trkpt>
<trkpt lat="55.900303" lon="26.528824">
<ele>109.604553</ele>
<time>2010-06-20T15:02:21Z</time>
<desc>lat.=55.900303, lon.=26.528824, Alt.=109.604553m. Speed=2.376000m/h.</desc>
<speed>0.660000</speed>
</trkpt>
<trkpt lat="55.900303" lon="26.528830">
<ele>109.223694</ele>
<time>2010-06-20T15:02:22Z</time>
<desc>lat.=55.900303, lon.=26.528830, Alt.=109.223694m. Speed=0.288000m/h.</desc>
<speed>0.080000</speed>
</trkpt>
<trkpt lat="55.900303" lon="26.528833">
<ele>108.942444</ele>
<time>2010-06-20T15:02:23Z</time>
<desc>lat.=55.900303, lon.=26.528833, Alt.=108.942444m. Speed=0.684000m/h.</desc>
<speed>0.190000</speed>
</trkpt>
<trkpt lat="55.900311" lon="26.528822">
<ele>108.747131</ele>
<time>2010-06-20T15:02:24Z</time>
<desc>lat.=55.900311, lon.=26.528822, Alt.=108.747131m. Speed=1.152000m/h.</desc>
<speed>0.320000</speed>
</trkpt>
<trkpt lat="55.900322" lon="26.528805">
<ele>108.715881</ele>
<time>2010-06-20T15:02:25Z</time>
<desc>lat.=55.900322, lon.=26.528805, Alt.=108.715881m. Speed=3.816000m/h.</desc>
<speed>1.060000</speed>
</trkpt>
<trkpt lat="55.900326" lon="26.528795">
<ele>108.717834</ele>
<time>2010-06-20T15:02:26Z</time>
<desc>lat.=55.900326, lon.=26.528795, Alt.=108.717834m. Speed=2.124000m/h.</desc>
<speed>0.590000</speed>
</trkpt>
<trkpt lat="55.900322" lon="26.528809">
<ele>108.200256</ele>
<time>2010-06-20T15:02:27Z</time>
<desc>lat.=55.900322, lon.=26.528809, Alt.=108.200256m. Speed=0.828000m/h.</desc>
<speed>0.230000</speed>
</trkpt>
<trkpt lat="55.900318" lon="26.528812">
<ele>108.172913</ele>
<time>2010-06-20T15:02:28Z</time>
<desc>lat.=55.900318, lon.=26.528812, Alt.=108.172913m. Speed=0.468000m/h.</desc>
<speed>0.130000</speed>
</trkpt>
<trkpt lat="55.900314" lon="26.528828">
<ele>107.983459</ele>
<time>2010-06-20T15:02:29Z</time>
<desc>lat.=55.900314, lon.=26.528828, Alt.=107.983459m. Speed=3.024000m/h.</desc>
<speed>0.840000</speed>
</trkpt>
<trkpt lat="55.900318" lon="26.528833">
<ele>108.020569</ele>
<time>2010-06-20T15:02:30Z</time>
<desc>lat.=55.900318, lon.=26.528833, Alt.=108.020569m. Speed=1.692000m/h.</desc>
<speed>0.470000</speed>
</trkpt>
<trkpt lat="55.900318" lon="26.528835">
<ele>107.590881</ele>
<time>2010-06-20T15:02:31Z</time>
<desc>lat.=55.900318, lon.=26.528835, Alt.=107.590881m. Speed=0.504000m/h.</desc>
<speed>0.140000</speed>
</trkpt>
<trkpt lat="55.900322" lon="26.528835">
<ele>106.850647</ele>
<time>2010-06-20T15:02:32Z</time>
<desc>lat.=55.900322, lon.=26.528835, Alt.=106.850647m. Speed=2.520000m/h.</desc>
<speed>0.700000</speed>
</trkpt>
<trkpt lat="55.900326" lon="26.528833">
<ele>106.200256</ele>
<time>2010-06-20T15:02:33Z</time>
<desc>lat.=55.900326, lon.=26.528833, Alt.=106.200256m. Speed=2.232000m/h.</desc>
<speed>0.620000</speed>
</trkpt>
<trkpt lat="55.900330" lon="26.528826">
<ele>105.637756</ele>
<time>2010-06-20T15:02:34Z</time>
<desc>lat.=55.900330, lon.=26.528826, Alt.=105.637756m. Speed=2.052000m/h.</desc>
<speed>0.570000</speed>
</trkpt>
<trkpt lat="55.900345" lon="26.528803">
<ele>105.122131</ele>
<time>2010-06-20T15:02:35Z</time>
<desc>lat.=55.900345, lon.=26.528803, Alt.=105.122131m. Speed=5.508000m/h.</desc>
<speed>1.530000</speed>
</trkpt>
<trkpt lat="55.900368" lon="26.528770">
<ele>104.795959</ele>
<time>2010-06-20T15:02:36Z</time>
<desc>lat.=55.900368, lon.=26.528770, Alt.=104.795959m. Speed=6.300000m/h.</desc>
<speed>1.750000</speed>
</trkpt>
<trkpt lat="55.900372" lon="26.528767">
<ele>104.667053</ele>
<time>2010-06-20T15:02:37Z</time>
<desc>lat.=55.900372, lon.=26.528767, Alt.=104.667053m. Speed=2.268000m/h.</desc>
<speed>0.630000</speed>
</trkpt>
<trkpt lat="55.900379" lon="26.528749">
<ele>104.631897</ele>
<time>2010-06-20T15:02:38Z</time>
<desc>lat.=55.900379, lon.=26.528749, Alt.=104.631897m. Speed=4.032000m/h.</desc>
<speed>1.120000</speed>
</trkpt>
<trkpt lat="55.900394" lon="26.528727">
<ele>104.241272</ele>
<time>2010-06-20T15:02:39Z</time>
<desc>lat.=55.900394, lon.=26.528727, Alt.=104.241272m. Speed=6.264000m/h.</desc>
<speed>1.740000</speed>
</trkpt>
<trkpt lat="55.900406" lon="26.528700">
<ele>104.083069</ele>
<time>2010-06-20T15:02:40Z</time>
<desc>lat.=55.900406, lon.=26.528700, Alt.=104.083069m. Speed=7.128000m/h.</desc>
<speed>1.980000</speed>
</trkpt>
<trkpt lat="55.900414" lon="26.528687">
<ele>104.047913</ele>
<time>2010-06-20T15:02:41Z</time>
<desc>lat.=55.900414, lon.=26.528687, Alt.=104.047913m. Speed=4.932000m/h.</desc>
<speed>1.370000</speed>
</trkpt>
<trkpt lat="55.900429" lon="26.528666">
<ele>104.131897</ele>
<time>2010-06-20T15:02:42Z</time>
<desc>lat.=55.900429, lon.=26.528666, Alt.=104.131897m. Speed=5.004000m/h.</desc>
<speed>1.390000</speed>
</trkpt>
<trkpt lat="55.900440" lon="26.528656">
<ele>104.233459</ele>
<time>2010-06-20T15:02:43Z</time>
<desc>lat.=55.900440, lon.=26.528656, Alt.=104.233459m. Speed=4.644000m/h.</desc>
<speed>1.290000</speed>
</trkpt>
<trkpt lat="55.900455" lon="26.528625">
<ele>104.342834</ele>
<time>2010-06-20T15:02:44Z</time>
<desc>lat.=55.900455, lon.=26.528625, Alt.=104.342834m. Speed=6.444000m/h.</desc>
<speed>1.790000</speed>
</trkpt>
<trkpt lat="55.900463" lon="26.528603">
<ele>104.555725</ele>
<time>2010-06-20T15:02:45Z</time>
<desc>lat.=55.900463, lon.=26.528603, Alt.=104.555725m. Speed=4.536000m/h.</desc>
<speed>1.260000</speed>
</trkpt>
<trkpt lat="55.900471" lon="26.528580">
<ele>104.594788</ele>
<time>2010-06-20T15:02:46Z</time>
<desc>lat.=55.900471, lon.=26.528580, Alt.=104.594788m. Speed=3.708000m/h.</desc>
<speed>1.030000</speed>
</trkpt>
<trkpt lat="55.900475" lon="26.528582">
<ele>104.299866</ele>
<time>2010-06-20T15:02:47Z</time>
<desc>lat.=55.900475, lon.=26.528582, Alt.=104.299866m. Speed=2.628000m/h.</desc>
<speed>0.730000</speed>
</trkpt>
<trkpt lat="55.900482" lon="26.528574">
<ele>104.100647</ele>
<time>2010-06-20T15:02:48Z</time>
<desc>lat.=55.900482, lon.=26.528574, Alt.=104.100647m. Speed=2.844000m/h.</desc>
<speed>0.790000</speed>
</trkpt>
<trkpt lat="55.900482" lon="26.528591">
<ele>103.907288</ele>
<time>2010-06-20T15:02:49Z</time>
<desc>lat.=55.900482, lon.=26.528591, Alt.=103.907288m. Speed=0.900000m/h.</desc>
<speed>0.250000</speed>
</trkpt>
<trkpt lat="55.900475" lon="26.528601">
<ele>103.586975</ele>
<time>2010-06-20T15:02:50Z</time>
<desc>lat.=55.900475, lon.=26.528601, Alt.=103.586975m. Speed=0.216000m/h.</desc>
<speed>0.060000</speed>
</trkpt>
<trkpt lat="55.900471" lon="26.528614">
<ele>103.594788</ele>
<time>2010-06-20T15:02:51Z</time>
<desc>lat.=55.900471, lon.=26.528614, Alt.=103.594788m. Speed=0.900000m/h.</desc>
<speed>0.250000</speed>
</trkpt>
<trkpt lat="55.900463" lon="26.528629">
<ele>103.211975</ele>
<time>2010-06-20T15:02:52Z</time>
<desc>lat.=55.900463, lon.=26.528629, Alt.=103.211975m. Speed=0.828000m/h.</desc>
<speed>0.230000</speed>
</trkpt>
<trkpt lat="55.900463" lon="26.528635">
<ele>103.145569</ele>
<time>2010-06-20T15:02:53Z</time>
<desc>lat.=55.900463, lon.=26.528635, Alt.=103.145569m. Speed=2.340000m/h.</desc>
<speed>0.650000</speed>
</trkpt>
<trkpt lat="55.900455" lon="26.528656">
<ele>103.129944</ele>
<time>2010-06-20T15:02:54Z</time>
<desc>lat.=55.900455, lon.=26.528656, Alt.=103.129944m. Speed=1.836000m/h.</desc>
<speed>0.510000</speed>
</trkpt>
<trkpt lat="55.900444" lon="26.528671">
<ele>103.335022</ele>
<time>2010-06-20T15:02:55Z</time>
<desc>lat.=55.900444, lon.=26.528671, Alt.=103.335022m. Speed=2.340000m/h.</desc>
<speed>0.650000</speed>
</trkpt>
<trkpt lat="55.900440" lon="26.528679">
<ele>103.198303</ele>
<time>2010-06-20T15:02:56Z</time>
<desc>lat.=55.900440, lon.=26.528679, Alt.=103.198303m. Speed=1.872000m/h.</desc>
<speed>0.520000</speed>
</trkpt>
<trkpt lat="55.900433" lon="26.528687">
<ele>103.192444</ele>
<time>2010-06-20T15:02:57Z</time>
<desc>lat.=55.900433, lon.=26.528687, Alt.=103.192444m. Speed=2.016000m/h.</desc>
<speed>0.560000</speed>
</trkpt>
<trkpt lat="55.900421" lon="26.528690">
<ele>102.860413</ele>
<time>2010-06-20T15:02:58Z</time>
<desc>lat.=55.900421, lon.=26.528690, Alt.=102.860413m. Speed=0.720000m/h.</desc>
<speed>0.200000</speed>
</trkpt>
<trkpt lat="55.900417" lon="26.528706">
<ele>102.631897</ele>
<time>2010-06-20T15:02:59Z</time>
<desc>lat.=55.900417, lon.=26.528706, Alt.=102.631897m. Speed=2.052000m/h.</desc>
<speed>0.570000</speed>
</trkpt>
<trkpt lat="55.900410" lon="26.528727">
<ele>102.243225</ele>
<time>2010-06-20T15:03:00Z</time>
<desc>lat.=55.900410, lon.=26.528727, Alt.=102.243225m. Speed=1.944000m/h.</desc>
<speed>0.540000</speed>
</trkpt>
<trkpt lat="55.900410" lon="26.528723">
<ele>102.053772</ele>
<time>2010-06-20T15:03:01Z</time>
<desc>lat.=55.900410, lon.=26.528723, Alt.=102.053772m. Speed=0.396000m/h.</desc>
<speed>0.110000</speed>
</trkpt>
<trkpt lat="55.900402" lon="26.528730">
<ele>102.114319</ele>
<time>2010-06-20T15:03:02Z</time>
<desc>lat.=55.900402, lon.=26.528730, Alt.=102.114319m. Speed=1.116000m/h.</desc>
<speed>0.310000</speed>
</trkpt>
<trkpt lat="55.900394" lon="26.528742">
<ele>102.223694</ele>
<time>2010-06-20T15:03:03Z</time>
<desc>lat.=55.900394, lon.=26.528742, Alt.=102.223694m. Speed=0.396000m/h.</desc>
<speed>0.110000</speed>
</trkpt>
<trkpt lat="55.900391" lon="26.528757">
<ele>101.881897</ele>
<time>2010-06-20T15:03:04Z</time>
<desc>lat.=55.900391, lon.=26.528757, Alt.=101.881897m. Speed=0.648000m/h.</desc>
<speed>0.180000</speed>
</trkpt>
<trkpt lat="55.900383" lon="26.528769">
<ele>101.583069</ele>
<time>2010-06-20T15:03:05Z</time>
<desc>lat.=55.900383, lon.=26.528769, Alt.=101.583069m. Speed=1.404000m/h.</desc>
<speed>0.390000</speed>
</trkpt>
<trkpt lat="55.900375" lon="26.528793">
<ele>101.407288</ele>
<time>2010-06-20T15:03:06Z</time>
<desc>lat.=55.900375, lon.=26.528793, Alt.=101.407288m. Speed=0.684000m/h.</desc>
<speed>0.190000</speed>
</trkpt>
<trkpt lat="55.900379" lon="26.528803">
<ele>101.352600</ele>
<time>2010-06-20T15:03:07Z</time>
<desc>lat.=55.900379, lon.=26.528803, Alt.=101.352600m. Speed=0.180000m/h.</desc>
<speed>0.050000</speed>
</trkpt>
<trkpt lat="55.900379" lon="26.528801">
<ele>101.381897</ele>
<time>2010-06-20T15:03:08Z</time>
<desc>lat.=55.900379, lon.=26.528801, Alt.=101.381897m. Speed=0.972000m/h.</desc>
<speed>0.270000</speed>
</trkpt>
<trkpt lat="55.900391" lon="26.528797">
<ele>101.188538</ele>
<time>2010-06-20T15:03:09Z</time>
<desc>lat.=55.900391, lon.=26.528797, Alt.=101.188538m. Speed=0.360000m/h.</desc>
<speed>0.100000</speed>
</trkpt>
<trkpt lat="55.900387" lon="26.528799">
<ele>101.159241</ele>
<time>2010-06-20T15:03:10Z</time>
<desc>lat.=55.900387, lon.=26.528799, Alt.=101.159241m. Speed=1.656000m/h.</desc>
<speed>0.460000</speed>
</trkpt>
<trkpt lat="55.900383" lon="26.528816">
<ele>101.364319</ele>
<time>2010-06-20T15:03:11Z</time>
<desc>lat.=55.900383, lon.=26.528816, Alt.=101.364319m. Speed=2.304000m/h.</desc>
<speed>0.640000</speed>
</trkpt>
<trkpt lat="55.900375" lon="26.528847">
<ele>101.544006</ele>
<time>2010-06-20T15:03:12Z</time>
<desc>lat.=55.900375, lon.=26.528847, Alt.=101.544006m. Speed=2.268000m/h.</desc>
<speed>0.630000</speed>
</trkpt>
<trkpt lat="55.900368" lon="26.528873">
<ele>101.682678</ele>
<time>2010-06-20T15:03:13Z</time>
<desc>lat.=55.900368, lon.=26.528873, Alt.=101.682678m. Speed=1.728000m/h.</desc>
<speed>0.480000</speed>
</trkpt>
<trkpt lat="55.900364" lon="26.528885">
<ele>101.842834</ele>
<time>2010-06-20T15:03:14Z</time>
<desc>lat.=55.900364, lon.=26.528885, Alt.=101.842834m. Speed=1.188000m/h.</desc>
<speed>0.330000</speed>
</trkpt>
<trkpt lat="55.900364" lon="26.528885">
<ele>102.309631</ele>
<time>2010-06-20T15:03:15Z</time>
<desc>lat.=55.900364, lon.=26.528885, Alt.=102.309631m. Speed=1.764000m/h.</desc>
<speed>0.490000</speed>
</trkpt>
<trkpt lat="55.900364" lon="26.528891">
<ele>102.370178</ele>
<time>2010-06-20T15:03:16Z</time>
<desc>lat.=55.900364, lon.=26.528891, Alt.=102.370178m. Speed=1.764000m/h.</desc>
<speed>0.490000</speed>
</trkpt>
<trkpt lat="55.900360" lon="26.528887">
<ele>102.592834</ele>
<time>2010-06-20T15:03:17Z</time>
<desc>lat.=55.900360, lon.=26.528887, Alt.=102.592834m. Speed=3.168000m/h.</desc>
<speed>0.880000</speed>
</trkpt>
<trkpt lat="55.900356" lon="26.528893">
<ele>102.756897</ele>
<time>2010-06-20T15:03:18Z</time>
<desc>lat.=55.900356, lon.=26.528893, Alt.=102.756897m. Speed=1.188000m/h.</desc>
<speed>0.330000</speed>
</trkpt>
<trkpt lat="55.900352" lon="26.528902">
<ele>102.840881</ele>
<time>2010-06-20T15:03:19Z</time>
<desc>lat.=55.900352, lon.=26.528902, Alt.=102.840881m. Speed=0.792000m/h.</desc>
<speed>0.220000</speed>
</trkpt>
<trkpt lat="55.900345" lon="26.528913">
<ele>102.510803</ele>
<time>2010-06-20T15:03:20Z</time>
<desc>lat.=55.900345, lon.=26.528913, Alt.=102.510803m. Speed=0.792000m/h.</desc>
<speed>0.220000</speed>
</trkpt>
<trkpt lat="55.900337" lon="26.528919">
<ele>102.493225</ele>
<time>2010-06-20T15:03:21Z</time>
<desc>lat.=55.900337, lon.=26.528919, Alt.=102.493225m. Speed=1.152000m/h.</desc>
<speed>0.320000</speed>
</trkpt>
<trkpt lat="55.900337" lon="26.528915">
<ele>102.518616</ele>
<time>2010-06-20T15:03:22Z</time>
<desc>lat.=55.900337, lon.=26.528915, Alt.=102.518616m. Speed=0.252000m/h.</desc>
<speed>0.070000</speed>
</trkpt>
<trkpt lat="55.900341" lon="26.528919">
<ele>102.452209</ele>
<time>2010-06-20T15:03:23Z</time>
<desc>lat.=55.900341, lon.=26.528919, Alt.=102.452209m. Speed=0.324000m/h.</desc>
<speed>0.090000</speed>
</trkpt>
<trkpt lat="55.900341" lon="26.528929">
<ele>102.487366</ele>
<time>2010-06-20T15:03:24Z</time>
<desc>lat.=55.900341, lon.=26.528929, Alt.=102.487366m. Speed=1.944000m/h.</desc>
<speed>0.540000</speed>
</trkpt>
<trkpt lat="55.900345" lon="26.528931">
<ele>102.770569</ele>
<time>2010-06-20T15:03:25Z</time>
<desc>lat.=55.900345, lon.=26.528931, Alt.=102.770569m. Speed=0.396000m/h.</desc>
<speed>0.110000</speed>
</trkpt>
<trkpt lat="55.900333" lon="26.528942">
<ele>103.016663</ele>
<time>2010-06-20T15:03:26Z</time>
<desc>lat.=55.900333, lon.=26.528942, Alt.=103.016663m. Speed=1.872000m/h.</desc>
<speed>0.520000</speed>
</trkpt>
<trkpt lat="55.900333" lon="26.528946">
<ele>103.126038</ele>
<time>2010-06-20T15:03:27Z</time>
<desc>lat.=55.900333, lon.=26.528946, Alt.=103.126038m. Speed=0.756000m/h.</desc>
<speed>0.210000</speed>
</trkpt>
<trkpt lat="55.900341" lon="26.528934">
<ele>103.364319</ele>
<time>2010-06-20T15:03:28Z</time>
<desc>lat.=55.900341, lon.=26.528934, Alt.=103.364319m. Speed=2.844000m/h.</desc>
<speed>0.790000</speed>
</trkpt>
<trkpt lat="55.900341" lon="26.528942">
<ele>103.838928</ele>
<time>2010-06-20T15:03:29Z</time>
<desc>lat.=55.900341, lon.=26.528942, Alt.=103.838928m. Speed=1.296000m/h.</desc>
<speed>0.360000</speed>
</trkpt>
<trkpt lat="55.900330" lon="26.528969">
<ele>104.112366</ele>
<time>2010-06-20T15:03:30Z</time>
<desc>lat.=55.900330, lon.=26.528969, Alt.=104.112366m. Speed=3.204000m/h.</desc>
<speed>0.890000</speed>
</trkpt>
<trkpt lat="55.900326" lon="26.528997">
<ele>104.208069</ele>
<time>2010-06-20T15:03:31Z</time>
<desc>lat.=55.900326, lon.=26.528997, Alt.=104.208069m. Speed=2.916000m/h.</desc>
<speed>0.810000</speed>
</trkpt>
<trkpt lat="55.900322" lon="26.529005">
<ele>104.360413</ele>
<time>2010-06-20T15:03:32Z</time>
<desc>lat.=55.900322, lon.=26.529005, Alt.=104.360413m. Speed=0.792000m/h.</desc>
<speed>0.220000</speed>
</trkpt>
<trkpt lat="55.900326" lon="26.529001">
<ele>104.120178</ele>
<time>2010-06-20T15:03:33Z</time>
<desc>lat.=55.900326, lon.=26.529001, Alt.=104.120178m. Speed=1.188000m/h.</desc>
<speed>0.330000</speed>
</trkpt>
<trkpt lat="55.900330" lon="26.529005">
<ele>104.086975</ele>
<time>2010-06-20T15:03:34Z</time>
<desc>lat.=55.900330, lon.=26.529005, Alt.=104.086975m. Speed=0.936000m/h.</desc>
<speed>0.260000</speed>
</trkpt>
<trkpt lat="55.900333" lon="26.528992">
<ele>103.905334</ele>
<time>2010-06-20T15:03:35Z</time>
<desc>lat.=55.900333, lon.=26.528992, Alt.=103.905334m. Speed=2.664000m/h.</desc>
<speed>0.740000</speed>
</trkpt>
<trkpt lat="55.900333" lon="26.528986">
<ele>103.946350</ele>
<time>2010-06-20T15:03:36Z</time>
<desc>lat.=55.900333, lon.=26.528986, Alt.=103.946350m. Speed=3.096000m/h.</desc>
<speed>0.860000</speed>
</trkpt>
<trkpt lat="55.900337" lon="26.528967">
<ele>103.928772</ele>
<time>2010-06-20T15:03:37Z</time>
<desc>lat.=55.900337, lon.=26.528967, Alt.=103.928772m. Speed=3.564000m/h.</desc>
<speed>0.990000</speed>
</trkpt>
<trkpt lat="55.900333" lon="26.528971">
<ele>103.961975</ele>
<time>2010-06-20T15:03:38Z</time>
<desc>lat.=55.900333, lon.=26.528971, Alt.=103.961975m. Speed=1.224000m/h.</desc>
<speed>0.340000</speed>
</trkpt>
<trkpt lat="55.900330" lon="26.528978">
<ele>103.766663</ele>
<time>2010-06-20T15:03:39Z</time>
<desc>lat.=55.900330, lon.=26.528978, Alt.=103.766663m. Speed=3.312000m/h.</desc>
<speed>0.920000</speed>
</trkpt>
<trkpt lat="55.900330" lon="26.528971">
<ele>103.499084</ele>
<time>2010-06-20T15:03:40Z</time>
<desc>lat.=55.900330, lon.=26.528971, Alt.=103.499084m. Speed=1.116000m/h.</desc>
<speed>0.310000</speed>
</trkpt>
<trkpt lat="55.900333" lon="26.528948">
<ele>103.215881</ele>
<time>2010-06-20T15:03:41Z</time>
<desc>lat.=55.900333, lon.=26.528948, Alt.=103.215881m. Speed=3.312000m/h.</desc>
<speed>0.920000</speed>
</trkpt>
<trkpt lat="55.900345" lon="26.528936">
<ele>103.192444</ele>
<time>2010-06-20T15:03:42Z</time>
<desc>lat.=55.900345, lon.=26.528936, Alt.=103.192444m. Speed=1.944000m/h.</desc>
<speed>0.540000</speed>
</trkpt>
<trkpt lat="55.900349" lon="26.528929">
<ele>103.383850</ele>
<time>2010-06-20T15:03:43Z</time>
<desc>lat.=55.900349, lon.=26.528929, Alt.=103.383850m. Speed=1.980000m/h.</desc>
<speed>0.550000</speed>
</trkpt>
<trkpt lat="55.900356" lon="26.528917">
<ele>103.419006</ele>
<time>2010-06-20T15:03:44Z</time>
<desc>lat.=55.900356, lon.=26.528917, Alt.=103.419006m. Speed=2.448000m/h.</desc>
<speed>0.680000</speed>
</trkpt>
<trkpt lat="55.900364" lon="26.528912">
<ele>103.665100</ele>
<time>2010-06-20T15:03:45Z</time>
<desc>lat.=55.900364, lon.=26.528912, Alt.=103.665100m. Speed=0.360000m/h.</desc>
<speed>0.100000</speed>
</trkpt>
<trkpt lat="55.900364" lon="26.528894">
<ele>103.872131</ele>
<time>2010-06-20T15:03:46Z</time>
<desc>lat.=55.900364, lon.=26.528894, Alt.=103.872131m. Speed=1.476000m/h.</desc>
<speed>0.410000</speed>
</trkpt>
<trkpt lat="55.900372" lon="26.528868">
<ele>103.766663</ele>
<time>2010-06-20T15:03:47Z</time>
<desc>lat.=55.900372, lon.=26.528868, Alt.=103.766663m. Speed=2.268000m/h.</desc>
<speed>0.630000</speed>
</trkpt>
<trkpt lat="55.900379" lon="26.528841">
<ele>103.864319</ele>
<time>2010-06-20T15:03:48Z</time>
<desc>lat.=55.900379, lon.=26.528841, Alt.=103.864319m. Speed=3.096000m/h.</desc>
<speed>0.860000</speed>
</trkpt>
<trkpt lat="55.900383" lon="26.528816">
<ele>103.932678</ele>
<time>2010-06-20T15:03:49Z</time>
<desc>lat.=55.900383, lon.=26.528816, Alt.=103.932678m. Speed=2.880000m/h.</desc>
<speed>0.800000</speed>
</trkpt>
<trkpt lat="55.900387" lon="26.528803">
<ele>103.965881</ele>
<time>2010-06-20T15:03:50Z</time>
<desc>lat.=55.900387, lon.=26.528803, Alt.=103.965881m. Speed=1.404000m/h.</desc>
<speed>0.390000</speed>
</trkpt>
<trkpt lat="55.900391" lon="26.528784">
<ele>103.891663</ele>
<time>2010-06-20T15:03:51Z</time>
<desc>lat.=55.900391, lon.=26.528784, Alt.=103.891663m. Speed=0.864000m/h.</desc>
<speed>0.240000</speed>
</trkpt>
<trkpt lat="55.900398" lon="26.528772">
<ele>103.801819</ele>
<time>2010-06-20T15:03:52Z</time>
<desc>lat.=55.900398, lon.=26.528772, Alt.=103.801819m. Speed=1.800000m/h.</desc>
<speed>0.500000</speed>
</trkpt>
<trkpt lat="55.900406" lon="26.528751">
<ele>103.538147</ele>
<time>2010-06-20T15:03:53Z</time>
<desc>lat.=55.900406, lon.=26.528751, Alt.=103.538147m. Speed=3.204000m/h.</desc>
<speed>0.890000</speed>
</trkpt>
<trkpt lat="55.900410" lon="26.528751">
<ele>103.397522</ele>
<time>2010-06-20T15:03:54Z</time>
<desc>lat.=55.900410, lon.=26.528751, Alt.=103.397522m. Speed=0.612000m/h.</desc>
<speed>0.170000</speed>
</trkpt>
<trkpt lat="55.900410" lon="26.528751">
<ele>103.258850</ele>
<time>2010-06-20T15:03:55Z</time>
<desc>lat.=55.900410, lon.=26.528751, Alt.=103.258850m. Speed=1.800000m/h.</desc>
<speed>0.500000</speed>
</trkpt>
<trkpt lat="55.900410" lon="26.528749">
<ele>103.450256</ele>
<time>2010-06-20T15:03:56Z</time>
<desc>lat.=55.900410, lon.=26.528749, Alt.=103.450256m. Speed=0.360000m/h.</desc>
<speed>0.100000</speed>
</trkpt>
<trkpt lat="55.900417" lon="26.528746">
<ele>103.739319</ele>
<time>2010-06-20T15:03:57Z</time>
<desc>lat.=55.900417, lon.=26.528746, Alt.=103.739319m. Speed=1.404000m/h.</desc>
<speed>0.390000</speed>
</trkpt>
<trkpt lat="55.900425" lon="26.528736">
<ele>103.733459</ele>
<time>2010-06-20T15:03:58Z</time>
<desc>lat.=55.900425, lon.=26.528736, Alt.=103.733459m. Speed=2.952000m/h.</desc>
<speed>0.820000</speed>
</trkpt>
<trkpt lat="55.900421" lon="26.528732">
<ele>103.874084</ele>
<time>2010-06-20T15:03:59Z</time>
<desc>lat.=55.900421, lon.=26.528732, Alt.=103.874084m. Speed=0.612000m/h.</desc>
<speed>0.170000</speed>
</trkpt>
<trkpt lat="55.900417" lon="26.528740">
<ele>104.122131</ele>
<time>2010-06-20T15:04:00Z</time>
<desc>lat.=55.900417, lon.=26.528740, Alt.=104.122131m. Speed=1.440000m/h.</desc>
<speed>0.400000</speed>
</trkpt>
<trkpt lat="55.900417" lon="26.528721">
<ele>104.598694</ele>
<time>2010-06-20T15:04:01Z</time>
<desc>lat.=55.900417, lon.=26.528721, Alt.=104.598694m. Speed=1.440000m/h.</desc>
<speed>0.400000</speed>
</trkpt>
<trkpt lat="55.900421" lon="26.528715">
<ele>104.618225</ele>
<time>2010-06-20T15:04:02Z</time>
<desc>lat.=55.900421, lon.=26.528715, Alt.=104.618225m. Speed=0.828000m/h.</desc>
<speed>0.230000</speed>
</trkpt>
<trkpt lat="55.900421" lon="26.528704">
<ele>104.803772</ele>
<time>2010-06-20T15:04:03Z</time>
<desc>lat.=55.900421, lon.=26.528704, Alt.=104.803772m. Speed=0.900000m/h.</desc>
<speed>0.250000</speed>
</trkpt>
<trkpt lat="55.900425" lon="26.528683">
<ele>104.829163</ele>
<time>2010-06-20T15:04:04Z</time>
<desc>lat.=55.900425, lon.=26.528683, Alt.=104.829163m. Speed=3.564000m/h.</desc>
<speed>0.990000</speed>
</trkpt>
<trkpt lat="55.900429" lon="26.528664">
<ele>104.893616</ele>
<time>2010-06-20T15:04:05Z</time>
<desc>lat.=55.900429, lon.=26.528664, Alt.=104.893616m. Speed=2.844000m/h.</desc>
<speed>0.790000</speed>
</trkpt>
<trkpt lat="55.900429" lon="26.528662">
<ele>104.967834</ele>
<time>2010-06-20T15:04:06Z</time>
<desc>lat.=55.900429, lon.=26.528662, Alt.=104.967834m. Speed=1.152000m/h.</desc>
<speed>0.320000</speed>
</trkpt>
<trkpt lat="55.900433" lon="26.528654">
<ele>105.268616</ele>
<time>2010-06-20T15:04:07Z</time>
<desc>lat.=55.900433, lon.=26.528654, Alt.=105.268616m. Speed=1.044000m/h.</desc>
<speed>0.290000</speed>
</trkpt>
<trkpt lat="55.900436" lon="26.528648">
<ele>105.336975</ele>
<time>2010-06-20T15:04:08Z</time>
<desc>lat.=55.900436, lon.=26.528648, Alt.=105.336975m. Speed=0.684000m/h.</desc>
<speed>0.190000</speed>
</trkpt>
<trkpt lat="55.900433" lon="26.528652">
<ele>105.219788</ele>
<time>2010-06-20T15:04:09Z</time>
<desc>lat.=55.900433, lon.=26.528652, Alt.=105.219788m. Speed=0.360000m/h.</desc>
<speed>0.100000</speed>
</trkpt>
<trkpt lat="55.900440" lon="26.528645">
<ele>105.104553</ele>
<time>2010-06-20T15:04:10Z</time>
<desc>lat.=55.900440, lon.=26.528645, Alt.=105.104553m. Speed=2.232000m/h.</desc>
<speed>0.620000</speed>
</trkpt>
<trkpt lat="55.900440" lon="26.528637">
<ele>105.211975</ele>
<time>2010-06-20T15:04:11Z</time>
<desc>lat.=55.900440, lon.=26.528637, Alt.=105.211975m. Speed=3.024000m/h.</desc>
<speed>0.840000</speed>
</trkpt>
<trkpt lat="55.900436" lon="26.528637">
<ele>105.141663</ele>
<time>2010-06-20T15:04:12Z</time>
<desc>lat.=55.900436, lon.=26.528637, Alt.=105.141663m. Speed=1.440000m/h.</desc>
<speed>0.400000</speed>
</trkpt>
<trkpt lat="55.900425" lon="26.528641">
<ele>105.086975</ele>
<time>2010-06-20T15:04:13Z</time>
<desc>lat.=55.900425, lon.=26.528641, Alt.=105.086975m. Speed=1.152000m/h.</desc>
<speed>0.320000</speed>
</trkpt>
<trkpt lat="55.900421" lon="26.528645">
<ele>104.831116</ele>
<time>2010-06-20T15:04:14Z</time>
<desc>lat.=55.900421, lon.=26.528645, Alt.=104.831116m. Speed=1.080000m/h.</desc>
<speed>0.300000</speed>
</trkpt>
<trkpt lat="55.900417" lon="26.528658">
<ele>104.854553</ele>
<time>2010-06-20T15:04:15Z</time>
<desc>lat.=55.900417, lon.=26.528658, Alt.=104.854553m. Speed=2.808000m/h.</desc>
<speed>0.780000</speed>
</trkpt>
<trkpt lat="55.900417" lon="26.528664">
<ele>104.774475</ele>
<time>2010-06-20T15:04:16Z</time>
<desc>lat.=55.900417, lon.=26.528664, Alt.=104.774475m. Speed=1.800000m/h.</desc>
<speed>0.500000</speed>
</trkpt>
<trkpt lat="55.900429" lon="26.528654">
<ele>104.553772</ele>
<time>2010-06-20T15:04:17Z</time>
<desc>lat.=55.900429, lon.=26.528654, Alt.=104.553772m. Speed=2.232000m/h.</desc>
<speed>0.620000</speed>
</trkpt>
<trkpt lat="55.900425" lon="26.528677">
<ele>104.405334</ele>
<time>2010-06-20T15:04:18Z</time>
<desc>lat.=55.900425, lon.=26.528677, Alt.=104.405334m. Speed=1.080000m/h.</desc>
<speed>0.300000</speed>
</trkpt>
<trkpt lat="55.900433" lon="26.528681">
<ele>104.167053</ele>
<time>2010-06-20T15:04:19Z</time>
<desc>lat.=55.900433, lon.=26.528681, Alt.=104.167053m. Speed=1.656000m/h.</desc>
<speed>0.460000</speed>
</trkpt>
<trkpt lat="55.900440" lon="26.528681">
<ele>104.044006</ele>
<time>2010-06-20T15:04:20Z</time>
<desc>lat.=55.900440, lon.=26.528681, Alt.=104.044006m. Speed=0.468000m/h.</desc>
<speed>0.130000</speed>
</trkpt>
<trkpt lat="55.900448" lon="26.528687">
<ele>104.149475</ele>
<time>2010-06-20T15:04:21Z</time>
<desc>lat.=55.900448, lon.=26.528687, Alt.=104.149475m. Speed=0.900000m/h.</desc>
<speed>0.250000</speed>
</trkpt>
<trkpt lat="55.900452" lon="26.528688">
<ele>104.270569</ele>
<time>2010-06-20T15:04:22Z</time>
<desc>lat.=55.900452, lon.=26.528688, Alt.=104.270569m. Speed=1.476000m/h.</desc>
<speed>0.410000</speed>
</trkpt>
<trkpt lat="55.900455" lon="26.528685">
<ele>104.243225</ele>
<time>2010-06-20T15:04:23Z</time>
<desc>lat.=55.900455, lon.=26.528685, Alt.=104.243225m. Speed=1.800000m/h.</desc>
<speed>0.500000</speed>
</trkpt>
<trkpt lat="55.900452" lon="26.528688">
<ele>104.208069</ele>
<time>2010-06-20T15:04:24Z</time>
<desc>lat.=55.900452, lon.=26.528688, Alt.=104.208069m. Speed=0.684000m/h.</desc>
<speed>0.190000</speed>
</trkpt>
<trkpt lat="55.900452" lon="26.528688">
<ele>104.678772</ele>
<time>2010-06-20T15:04:25Z</time>
<desc>lat.=55.900452, lon.=26.528688, Alt.=104.678772m. Speed=0.972000m/h.</desc>
<speed>0.270000</speed>
</trkpt>
<trkpt lat="55.900448" lon="26.528690">
<ele>104.924866</ele>
<time>2010-06-20T15:04:26Z</time>
<desc>lat.=55.900448, lon.=26.528690, Alt.=104.924866m. Speed=0.756000m/h.</desc>
<speed>0.210000</speed>
</trkpt>
<trkpt lat="55.900440" lon="26.528690">
<ele>105.012756</ele>
<time>2010-06-20T15:04:27Z</time>
<desc>lat.=55.900440, lon.=26.528690, Alt.=105.012756m. Speed=0.180000m/h.</desc>
<speed>0.050000</speed>
</trkpt>
<trkpt lat="55.900440" lon="26.528690">
<ele>105.024475</ele>
<time>2010-06-20T15:04:28Z</time>
<desc>lat.=55.900440, lon.=26.528690, Alt.=105.024475m. Speed=1.908000m/h.</desc>
<speed>0.530000</speed>
</trkpt>
<trkpt lat="55.900440" lon="26.528708">
<ele>105.223694</ele>
<time>2010-06-20T15:04:29Z</time>
<desc>lat.=55.900440, lon.=26.528708, Alt.=105.223694m. Speed=2.448000m/h.</desc>
<speed>0.680000</speed>
</trkpt>
<trkpt lat="55.900436" lon="26.528715">
<ele>105.276428</ele>
<time>2010-06-20T15:04:30Z</time>
<desc>lat.=55.900436, lon.=26.528715, Alt.=105.276428m. Speed=0.288000m/h.</desc>
<speed>0.080000</speed>
</trkpt>
<trkpt lat="55.900425" lon="26.528727">
<ele>105.190491</ele>
<time>2010-06-20T15:04:31Z</time>
<desc>lat.=55.900425, lon.=26.528727, Alt.=105.190491m. Speed=1.656000m/h.</desc>
<speed>0.460000</speed>
</trkpt>
<trkpt lat="55.900417" lon="26.528742">
<ele>105.053772</ele>
<time>2010-06-20T15:04:32Z</time>
<desc>lat.=55.900417, lon.=26.528742, Alt.=105.053772m. Speed=1.224000m/h.</desc>
<speed>0.340000</speed>
</trkpt>
<trkpt lat="55.900410" lon="26.528761">
<ele>105.008850</ele>
<time>2010-06-20T15:04:33Z</time>
<desc>lat.=55.900410, lon.=26.528761, Alt.=105.008850m. Speed=2.988000m/h.</desc>
<speed>0.830000</speed>
</trkpt>
<trkpt lat="55.900410" lon="26.528763">
<ele>105.184631</ele>
<time>2010-06-20T15:04:34Z</time>
<desc>lat.=55.900410, lon.=26.528763, Alt.=105.184631m. Speed=0.972000m/h.</desc>
<speed>0.270000</speed>
</trkpt>
<trkpt lat="55.900402" lon="26.528774">
<ele>105.442444</ele>
<time>2010-06-20T15:04:35Z</time>
<desc>lat.=55.900402, lon.=26.528774, Alt.=105.442444m. Speed=0.180000m/h.</desc>
<speed>0.050000</speed>
</trkpt>
<trkpt lat="55.900398" lon="26.528786">
<ele>105.493225</ele>
<time>2010-06-20T15:04:36Z</time>
<desc>lat.=55.900398, lon.=26.528786, Alt.=105.493225m. Speed=1.764000m/h.</desc>
<speed>0.490000</speed>
</trkpt>
<trkpt lat="55.900391" lon="26.528791">
<ele>105.723694</ele>
<time>2010-06-20T15:04:37Z</time>
<desc>lat.=55.900391, lon.=26.528791, Alt.=105.723694m. Speed=0.576000m/h.</desc>
<speed>0.160000</speed>
</trkpt>
<trkpt lat="55.900383" lon="26.528793">
<ele>105.969788</ele>
<time>2010-06-20T15:04:38Z</time>
<desc>lat.=55.900383, lon.=26.528793, Alt.=105.969788m. Speed=1.260000m/h.</desc>
<speed>0.350000</speed>
</trkpt>
<trkpt lat="55.900375" lon="26.528805">
<ele>106.139709</ele>
<time>2010-06-20T15:04:39Z</time>
<desc>lat.=55.900375, lon.=26.528805, Alt.=106.139709m. Speed=1.224000m/h.</desc>
<speed>0.340000</speed>
</trkpt>
<trkpt lat="55.900364" lon="26.528816">
<ele>106.383850</ele>
<time>2010-06-20T15:04:40Z</time>
<desc>lat.=55.900364, lon.=26.528816, Alt.=106.383850m. Speed=1.620000m/h.</desc>
<speed>0.450000</speed>
</trkpt>
<trkpt lat="55.900356" lon="26.528818">
<ele>106.520569</ele>
<time>2010-06-20T15:04:41Z</time>
<desc>lat.=55.900356, lon.=26.528818, Alt.=106.520569m. Speed=2.124000m/h.</desc>
<speed>0.590000</speed>
</trkpt>
<trkpt lat="55.900349" lon="26.528826">
<ele>106.719788</ele>
<time>2010-06-20T15:04:42Z</time>
<desc>lat.=55.900349, lon.=26.528826, Alt.=106.719788m. Speed=2.052000m/h.</desc>
<speed>0.570000</speed>
</trkpt>
<trkpt lat="55.900349" lon="26.528833">
<ele>106.799866</ele>
<time>2010-06-20T15:04:43Z</time>
<desc>lat.=55.900349, lon.=26.528833, Alt.=106.799866m. Speed=1.944000m/h.</desc>
<speed>0.540000</speed>
</trkpt>
<trkpt lat="55.900341" lon="26.528833">
<ele>107.131897</ele>
<time>2010-06-20T15:04:44Z</time>
<desc>lat.=55.900341, lon.=26.528833, Alt.=107.131897m. Speed=1.116000m/h.</desc>
<speed>0.310000</speed>
</trkpt>
<trkpt lat="55.900333" lon="26.528837">
<ele>107.502991</ele>
<time>2010-06-20T15:04:45Z</time>
<desc>lat.=55.900333, lon.=26.528837, Alt.=107.502991m. Speed=0.216000m/h.</desc>
<speed>0.060000</speed>
</trkpt>
<trkpt lat="55.900333" lon="26.528833">
<ele>107.786194</ele>
<time>2010-06-20T15:04:46Z</time>
<desc>lat.=55.900333, lon.=26.528833, Alt.=107.786194m. Speed=1.476000m/h.</desc>
<speed>0.410000</speed>
</trkpt>
<trkpt lat="55.900330" lon="26.528822">
<ele>107.928772</ele>
<time>2010-06-20T15:04:47Z</time>
<desc>lat.=55.900330, lon.=26.528822, Alt.=107.928772m. Speed=2.592000m/h.</desc>
<speed>0.720000</speed>
</trkpt>
<trkpt lat="55.900330" lon="26.528809">
<ele>108.112366</ele>
<time>2010-06-20T15:04:48Z</time>
<desc>lat.=55.900330, lon.=26.528809, Alt.=108.112366m. Speed=1.476000m/h.</desc>
<speed>0.410000</speed>
</trkpt>
<trkpt lat="55.900326" lon="26.528805">
<ele>108.231506</ele>
<time>2010-06-20T15:04:49Z</time>
<desc>lat.=55.900326, lon.=26.528805, Alt.=108.231506m. Speed=0.648000m/h.</desc>
<speed>0.180000</speed>
</trkpt>
<trkpt lat="55.900318" lon="26.528814">
<ele>108.350647</ele>
<time>2010-06-20T15:04:50Z</time>
<desc>lat.=55.900318, lon.=26.528814, Alt.=108.350647m. Speed=1.800000m/h.</desc>
<speed>0.500000</speed>
</trkpt>
<trkpt lat="55.900314" lon="26.528816">
<ele>108.501038</ele>
<time>2010-06-20T15:04:51Z</time>
<desc>lat.=55.900314, lon.=26.528816, Alt.=108.501038m. Speed=2.232000m/h.</desc>
<speed>0.620000</speed>
</trkpt>
<trkpt lat="55.900307" lon="26.528822">
<ele>108.813538</ele>
<time>2010-06-20T15:04:52Z</time>
<desc>lat.=55.900307, lon.=26.528822, Alt.=108.813538m. Speed=2.124000m/h.</desc>
<speed>0.590000</speed>
</trkpt>
<trkpt lat="55.900311" lon="26.528801">
<ele>109.045959</ele>
<time>2010-06-20T15:04:53Z</time>
<desc>lat.=55.900311, lon.=26.528801, Alt.=109.045959m. Speed=1.080000m/h.</desc>
<speed>0.300000</speed>
</trkpt>
<trkpt lat="55.900318" lon="26.528776">
<ele>109.215881</ele>
<time>2010-06-20T15:04:54Z</time>
<desc>lat.=55.900318, lon.=26.528776, Alt.=109.215881m. Speed=3.060000m/h.</desc>
<speed>0.850000</speed>
</trkpt>
<trkpt lat="55.900318" lon="26.528780">
<ele>109.354553</ele>
<time>2010-06-20T15:04:55Z</time>
<desc>lat.=55.900318, lon.=26.528780, Alt.=109.354553m. Speed=1.008000m/h.</desc>
<speed>0.280000</speed>
</trkpt>
<trkpt lat="55.900330" lon="26.528767">
<ele>109.245178</ele>
<time>2010-06-20T15:04:56Z</time>
<desc>lat.=55.900330, lon.=26.528767, Alt.=109.245178m. Speed=2.448000m/h.</desc>
<speed>0.680000</speed>
</trkpt>
<trkpt lat="55.900337" lon="26.528753">
<ele>109.215881</ele>
<time>2010-06-20T15:04:57Z</time>
<desc>lat.=55.900337, lon.=26.528753, Alt.=109.215881m. Speed=3.168000m/h.</desc>
<speed>0.880000</speed>
</trkpt>
<trkpt lat="55.900333" lon="26.528757">
<ele>109.266663</ele>
<time>2010-06-20T15:04:58Z</time>
<desc>lat.=55.900333, lon.=26.528757, Alt.=109.266663m. Speed=0.324000m/h.</desc>
<speed>0.090000</speed>
</trkpt>
<trkpt lat="55.900330" lon="26.528772">
<ele>109.344788</ele>
<time>2010-06-20T15:04:59Z</time>
<desc>lat.=55.900330, lon.=26.528772, Alt.=109.344788m. Speed=1.764000m/h.</desc>
<speed>0.490000</speed>
</trkpt>
<trkpt lat="55.900337" lon="26.528767">
<ele>109.422913</ele>
<time>2010-06-20T15:05:00Z</time>
<desc>lat.=55.900337, lon.=26.528767, Alt.=109.422913m. Speed=0.972000m/h.</desc>
<speed>0.270000</speed>
</trkpt>
<trkpt lat="55.900337" lon="26.528763">
<ele>109.383850</ele>
<time>2010-06-20T15:05:01Z</time>
<desc>lat.=55.900337, lon.=26.528763, Alt.=109.383850m. Speed=1.224000m/h.</desc>
<speed>0.340000</speed>
</trkpt>
<trkpt lat="55.900337" lon="26.528770">
<ele>109.270569</ele>
<time>2010-06-20T15:05:02Z</time>
<desc>lat.=55.900337, lon.=26.528770, Alt.=109.270569m. Speed=1.368000m/h.</desc>
<speed>0.380000</speed>
</trkpt>
<trkpt lat="55.900337" lon="26.528772">
<ele>109.081116</ele>
<time>2010-06-20T15:05:03Z</time>
<desc>lat.=55.900337, lon.=26.528772, Alt.=109.081116m. Speed=0.720000m/h.</desc>
<speed>0.200000</speed>
</trkpt>
<trkpt lat="55.900337" lon="26.528765">
<ele>109.026428</ele>
<time>2010-06-20T15:05:04Z</time>
<desc>lat.=55.900337, lon.=26.528765, Alt.=109.026428m. Speed=0.504000m/h.</desc>
<speed>0.140000</speed>
</trkpt>
<trkpt lat="55.900337" lon="26.528770">
<ele>109.010803</ele>
<time>2010-06-20T15:05:05Z</time>
<desc>lat.=55.900337, lon.=26.528770, Alt.=109.010803m. Speed=0.612000m/h.</desc>
<speed>0.170000</speed>
</trkpt>
<trkpt lat="55.900345" lon="26.528755">
<ele>108.981506</ele>
<time>2010-06-20T15:05:06Z</time>
<desc>lat.=55.900345, lon.=26.528755, Alt.=108.981506m. Speed=1.764000m/h.</desc>
<speed>0.490000</speed>
</trkpt>
<trkpt lat="55.900349" lon="26.528753">
<ele>109.001038</ele>
<time>2010-06-20T15:05:07Z</time>
<desc>lat.=55.900349, lon.=26.528753, Alt.=109.001038m. Speed=1.620000m/h.</desc>
<speed>0.450000</speed>
</trkpt>
<trkpt lat="55.900345" lon="26.528757">
<ele>108.786194</ele>
<time>2010-06-20T15:05:08Z</time>
<desc>lat.=55.900345, lon.=26.528757, Alt.=108.786194m. Speed=0.504000m/h.</desc>
<speed>0.140000</speed>
</trkpt>
<trkpt lat="55.900345" lon="26.528765">
<ele>108.708069</ele>
<time>2010-06-20T15:05:09Z</time>
<desc>lat.=55.900345, lon.=26.528765, Alt.=108.708069m. Speed=0.900000m/h.</desc>
<speed>0.250000</speed>
</trkpt>
<trkpt lat="55.900341" lon="26.528778">
<ele>108.575256</ele>
<time>2010-06-20T15:05:10Z</time>
<desc>lat.=55.900341, lon.=26.528778, Alt.=108.575256m. Speed=0.936000m/h.</desc>
<speed>0.260000</speed>
</trkpt>
<trkpt lat="55.900337" lon="26.528790">
<ele>108.649475</ele>
<time>2010-06-20T15:05:11Z</time>
<desc>lat.=55.900337, lon.=26.528790, Alt.=108.649475m. Speed=2.232000m/h.</desc>
<speed>0.620000</speed>
</trkpt>
<trkpt lat="55.900330" lon="26.528807">
<ele>108.512756</ele>
<time>2010-06-20T15:05:12Z</time>
<desc>lat.=55.900330, lon.=26.528807, Alt.=108.512756m. Speed=1.944000m/h.</desc>
<speed>0.540000</speed>
</trkpt>
<trkpt lat="55.900326" lon="26.528816">
<ele>108.377991</ele>
<time>2010-06-20T15:05:13Z</time>
<desc>lat.=55.900326, lon.=26.528816, Alt.=108.377991m. Speed=1.188000m/h.</desc>
<speed>0.330000</speed>
</trkpt>
<trkpt lat="55.900322" lon="26.528831">
<ele>108.280334</ele>
<time>2010-06-20T15:05:14Z</time>
<desc>lat.=55.900322, lon.=26.528831, Alt.=108.280334m. Speed=2.844000m/h.</desc>
<speed>0.790000</speed>
</trkpt>
<trkpt lat="55.900318" lon="26.528831">
<ele>108.202209</ele>
<time>2010-06-20T15:05:15Z</time>
<desc>lat.=55.900318, lon.=26.528831, Alt.=108.202209m. Speed=0.684000m/h.</desc>
<speed>0.190000</speed>
</trkpt>
<trkpt lat="55.900314" lon="26.528824">
<ele>108.241272</ele>
<time>2010-06-20T15:05:16Z</time>
<desc>lat.=55.900314, lon.=26.528824, Alt.=108.241272m. Speed=0.864000m/h.</desc>
<speed>0.240000</speed>
</trkpt>
<trkpt lat="55.900311" lon="26.528835">
<ele>108.344788</ele>
<time>2010-06-20T15:05:17Z</time>
<desc>lat.=55.900311, lon.=26.528835, Alt.=108.344788m. Speed=2.160000m/h.</desc>
<speed>0.600000</speed>
</trkpt>
<trkpt lat="55.900318" lon="26.528830">
<ele>108.448303</ele>
<time>2010-06-20T15:05:18Z</time>
<desc>lat.=55.900318, lon.=26.528830, Alt.=108.448303m. Speed=1.800000m/h.</desc>
<speed>0.500000</speed>
</trkpt>
<trkpt lat="55.900322" lon="26.528826">
<ele>108.467834</ele>
<time>2010-06-20T15:05:19Z</time>
<desc>lat.=55.900322, lon.=26.528826, Alt.=108.467834m. Speed=1.008000m/h.</desc>
<speed>0.280000</speed>
</trkpt>
<trkpt lat="55.900326" lon="26.528816">
<ele>108.586975</ele>
<time>2010-06-20T15:05:20Z</time>
<desc>lat.=55.900326, lon.=26.528816, Alt.=108.586975m. Speed=0.684000m/h.</desc>
<speed>0.190000</speed>
</trkpt>
<trkpt lat="55.900322" lon="26.528822">
<ele>108.544006</ele>
<time>2010-06-20T15:05:21Z</time>
<desc>lat.=55.900322, lon.=26.528822, Alt.=108.544006m. Speed=0.792000m/h.</desc>
<speed>0.220000</speed>
</trkpt>
<trkpt lat="55.900311" lon="26.528837">
<ele>108.348694</ele>
<time>2010-06-20T15:05:22Z</time>
<desc>lat.=55.900311, lon.=26.528837, Alt.=108.348694m. Speed=3.204000m/h.</desc>
<speed>0.890000</speed>
</trkpt>
<trkpt lat="55.900314" lon="26.528835">
<ele>108.217834</ele>
<time>2010-06-20T15:05:23Z</time>
<desc>lat.=55.900314, lon.=26.528835, Alt.=108.217834m. Speed=1.116000m/h.</desc>
<speed>0.310000</speed>
</trkpt>
<trkpt lat="55.900314" lon="26.528820">
<ele>108.305725</ele>
<time>2010-06-20T15:05:24Z</time>
<desc>lat.=55.900314, lon.=26.528820, Alt.=108.305725m. Speed=1.872000m/h.</desc>
<speed>0.520000</speed>
</trkpt>
<trkpt lat="55.900326" lon="26.528811">
<ele>108.309631</ele>
<time>2010-06-20T15:05:25Z</time>
<desc>lat.=55.900326, lon.=26.528811, Alt.=108.309631m. Speed=4.464000m/h.</desc>
<speed>1.240000</speed>
</trkpt>
<trkpt lat="55.900326" lon="26.528805">
<ele>108.252991</ele>
<time>2010-06-20T15:05:26Z</time>
<desc>lat.=55.900326, lon.=26.528805, Alt.=108.252991m. Speed=3.672000m/h.</desc>
<speed>1.020000</speed>
</trkpt>
<trkpt lat="55.900322" lon="26.528814">
<ele>108.100647</ele>
<time>2010-06-20T15:05:27Z</time>
<desc>lat.=55.900322, lon.=26.528814, Alt.=108.100647m. Speed=2.664000m/h.</desc>
<speed>0.740000</speed>
</trkpt>
<trkpt lat="55.900326" lon="26.528803">
<ele>108.124084</ele>
<time>2010-06-20T15:05:28Z</time>
<desc>lat.=55.900326, lon.=26.528803, Alt.=108.124084m. Speed=1.980000m/h.</desc>
<speed>0.550000</speed>
</trkpt>
<trkpt lat="55.900330" lon="26.528805">
<ele>108.294006</ele>
<time>2010-06-20T15:05:29Z</time>
<desc>lat.=55.900330, lon.=26.528805, Alt.=108.294006m. Speed=1.152000m/h.</desc>
<speed>0.320000</speed>
</trkpt>
<trkpt lat="55.900333" lon="26.528809">
<ele>108.501038</ele>
<time>2010-06-20T15:05:30Z</time>
<desc>lat.=55.900333, lon.=26.528809, Alt.=108.501038m. Speed=0.720000m/h.</desc>
<speed>0.200000</speed>
</trkpt>
<trkpt lat="55.900337" lon="26.528816">
<ele>108.479553</ele>
<time>2010-06-20T15:05:31Z</time>
<desc>lat.=55.900337, lon.=26.528816, Alt.=108.479553m. Speed=1.656000m/h.</desc>
<speed>0.460000</speed>
</trkpt>
<trkpt lat="55.900333" lon="26.528831">
<ele>108.327209</ele>
<time>2010-06-20T15:05:32Z</time>
<desc>lat.=55.900333, lon.=26.528831, Alt.=108.327209m. Speed=0.828000m/h.</desc>
<speed>0.230000</speed>
</trkpt>
<trkpt lat="55.900326" lon="26.528849">
<ele>108.174866</ele>
<time>2010-06-20T15:05:33Z</time>
<desc>lat.=55.900326, lon.=26.528849, Alt.=108.174866m. Speed=1.980000m/h.</desc>
<speed>0.550000</speed>
</trkpt>
<trkpt lat="55.900326" lon="26.528852">
<ele>108.065491</ele>
<time>2010-06-20T15:05:34Z</time>
<desc>lat.=55.900326, lon.=26.528852, Alt.=108.065491m. Speed=1.296000m/h.</desc>
<speed>0.360000</speed>
</trkpt>
<trkpt lat="55.900318" lon="26.528875">
<ele>107.856506</ele>
<time>2010-06-20T15:05:35Z</time>
<desc>lat.=55.900318, lon.=26.528875, Alt.=107.856506m. Speed=0.252000m/h.</desc>
<speed>0.070000</speed>
</trkpt>
<trkpt lat="55.900314" lon="26.528879">
<ele>107.766663</ele>
<time>2010-06-20T15:05:36Z</time>
<desc>lat.=55.900314, lon.=26.528879, Alt.=107.766663m. Speed=0.864000m/h.</desc>
<speed>0.240000</speed>
</trkpt>
<trkpt lat="55.900314" lon="26.528873">
<ele>107.758850</ele>
<time>2010-06-20T15:05:37Z</time>
<desc>lat.=55.900314, lon.=26.528873, Alt.=107.758850m. Speed=1.944000m/h.</desc>
<speed>0.540000</speed>
</trkpt>
<trkpt lat="55.900311" lon="26.528881">
<ele>107.751038</ele>
<time>2010-06-20T15:05:38Z</time>
<desc>lat.=55.900311, lon.=26.528881, Alt.=107.751038m. Speed=0.324000m/h.</desc>
<speed>0.090000</speed>
</trkpt>
<trkpt lat="55.900303" lon="26.528891">
<ele>107.745178</ele>
<time>2010-06-20T15:05:39Z</time>
<desc>lat.=55.900303, lon.=26.528891, Alt.=107.745178m. Speed=0.684000m/h.</desc>
<speed>0.190000</speed>
</trkpt>
<trkpt lat="55.900303" lon="26.528896">
<ele>107.823303</ele>
<time>2010-06-20T15:05:40Z</time>
<desc>lat.=55.900303, lon.=26.528896, Alt.=107.823303m. Speed=0.972000m/h.</desc>
<speed>0.270000</speed>
</trkpt>
<trkpt lat="55.900299" lon="26.528910">
<ele>107.903381</ele>
<time>2010-06-20T15:05:41Z</time>
<desc>lat.=55.900299, lon.=26.528910, Alt.=107.903381m. Speed=1.908000m/h.</desc>
<speed>0.530000</speed>
</trkpt>
<trkpt lat="55.900295" lon="26.528908">
<ele>107.985413</ele>
<time>2010-06-20T15:05:42Z</time>
<desc>lat.=55.900295, lon.=26.528908, Alt.=107.985413m. Speed=1.584000m/h.</desc>
<speed>0.440000</speed>
</trkpt>
<trkpt lat="55.900295" lon="26.528902">
<ele>108.153381</ele>
<time>2010-06-20T15:05:43Z</time>
<desc>lat.=55.900295, lon.=26.528902, Alt.=108.153381m. Speed=0.720000m/h.</desc>
<speed>0.200000</speed>
</trkpt>
<trkpt lat="55.900291" lon="26.528896">
<ele>108.215881</ele>
<time>2010-06-20T15:05:44Z</time>
<desc>lat.=55.900291, lon.=26.528896, Alt.=108.215881m. Speed=0.648000m/h.</desc>
<speed>0.180000</speed>
</trkpt>
<trkpt lat="55.900288" lon="26.528894">
<ele>108.186584</ele>
<time>2010-06-20T15:05:45Z</time>
<desc>lat.=55.900288, lon.=26.528894, Alt.=108.186584m. Speed=1.188000m/h.</desc>
<speed>0.330000</speed>
</trkpt>
<trkpt lat="55.900288" lon="26.528908">
<ele>108.075256</ele>
<time>2010-06-20T15:05:46Z</time>
<desc>lat.=55.900288, lon.=26.528908, Alt.=108.075256m. Speed=1.476000m/h.</desc>
<speed>0.410000</speed>
</trkpt>
<trkpt lat="55.900288" lon="26.528929">
<ele>107.876038</ele>
<time>2010-06-20T15:05:47Z</time>
<desc>lat.=55.900288, lon.=26.528929, Alt.=107.876038m. Speed=0.612000m/h.</desc>
<speed>0.170000</speed>
</trkpt>
<trkpt lat="55.900284" lon="26.528942">
<ele>107.846741</ele>
<time>2010-06-20T15:05:48Z</time>
<desc>lat.=55.900284, lon.=26.528942, Alt.=107.846741m. Speed=0.684000m/h.</desc>
<speed>0.190000</speed>
</trkpt>
<trkpt lat="55.900291" lon="26.528936">
<ele>108.010803</ele>
<time>2010-06-20T15:05:49Z</time>
<desc>lat.=55.900291, lon.=26.528936, Alt.=108.010803m. Speed=1.656000m/h.</desc>
<speed>0.460000</speed>
</trkpt>
<trkpt lat="55.900299" lon="26.528931">
<ele>108.165100</ele>
<time>2010-06-20T15:05:50Z</time>
<desc>lat.=55.900299, lon.=26.528931, Alt.=108.165100m. Speed=1.224000m/h.</desc>
<speed>0.340000</speed>
</trkpt>
<trkpt lat="55.900303" lon="26.528927">
<ele>108.415100</ele>
<time>2010-06-20T15:05:51Z</time>
<desc>lat.=55.900303, lon.=26.528927, Alt.=108.415100m. Speed=0.756000m/h.</desc>
<speed>0.210000</speed>
</trkpt>
<trkpt lat="55.900311" lon="26.528908">
<ele>108.899475</ele>
<time>2010-06-20T15:05:52Z</time>
<desc>lat.=55.900311, lon.=26.528908, Alt.=108.899475m. Speed=3.528000m/h.</desc>
<speed>0.980000</speed>
</trkpt>
<trkpt lat="55.900322" lon="26.528877">
<ele>109.075256</ele>
<time>2010-06-20T15:05:53Z</time>
<desc>lat.=55.900322, lon.=26.528877, Alt.=109.075256m. Speed=2.988000m/h.</desc>
<speed>0.830000</speed>
</trkpt>
<trkpt lat="55.900326" lon="26.528860">
<ele>109.311584</ele>
<time>2010-06-20T15:05:54Z</time>
<desc>lat.=55.900326, lon.=26.528860, Alt.=109.311584m. Speed=3.024000m/h.</desc>
<speed>0.840000</speed>
</trkpt>
<trkpt lat="55.900330" lon="26.528860">
<ele>109.467834</ele>
<time>2010-06-20T15:05:55Z</time>
<desc>lat.=55.900330, lon.=26.528860, Alt.=109.467834m. Speed=1.764000m/h.</desc>
<speed>0.490000</speed>
</trkpt>
<trkpt lat="55.900322" lon="26.528858">
<ele>109.626038</ele>
<time>2010-06-20T15:05:56Z</time>
<desc>lat.=55.900322, lon.=26.528858, Alt.=109.626038m. Speed=1.764000m/h.</desc>
<speed>0.490000</speed>
</trkpt>
<trkpt lat="55.900318" lon="26.528852">
<ele>109.686584</ele>
<time>2010-06-20T15:05:57Z</time>
<desc>lat.=55.900318, lon.=26.528852, Alt.=109.686584m. Speed=1.404000m/h.</desc>
<speed>0.390000</speed>
</trkpt>
<trkpt lat="55.900311" lon="26.528862">
<ele>109.813538</ele>
<time>2010-06-20T15:05:58Z</time>
<desc>lat.=55.900311, lon.=26.528862, Alt.=109.813538m. Speed=1.800000m/h.</desc>
<speed>0.500000</speed>
</trkpt>
<trkpt lat="55.900314" lon="26.528849">
<ele>109.930725</ele>
<time>2010-06-20T15:05:59Z</time>
<desc>lat.=55.900314, lon.=26.528849, Alt.=109.930725m. Speed=0.216000m/h.</desc>
<speed>0.060000</speed>
</trkpt>
<trkpt lat="55.900318" lon="26.528833">
<ele>110.217834</ele>
<time>2010-06-20T15:06:00Z</time>
<desc>lat.=55.900318, lon.=26.528833, Alt.=110.217834m. Speed=1.116000m/h.</desc>
<speed>0.310000</speed>
</trkpt>
<trkpt lat="55.900326" lon="26.528809">
<ele>110.549866</ele>
<time>2010-06-20T15:06:01Z</time>
<desc>lat.=55.900326, lon.=26.528809, Alt.=110.549866m. Speed=2.520000m/h.</desc>
<speed>0.700000</speed>
</trkpt>
<trkpt lat="55.900330" lon="26.528797">
<ele>110.835022</ele>
<time>2010-06-20T15:06:02Z</time>
<desc>lat.=55.900330, lon.=26.528797, Alt.=110.835022m. Speed=1.512000m/h.</desc>
<speed>0.420000</speed>
</trkpt>
<trkpt lat="55.900333" lon="26.528786">
<ele>111.143616</ele>
<time>2010-06-20T15:06:03Z</time>
<desc>lat.=55.900333, lon.=26.528786, Alt.=111.143616m. Speed=0.288000m/h.</desc>
<speed>0.080000</speed>
</trkpt>
<trkpt lat="55.900330" lon="26.528795">
<ele>111.452209</ele>
<time>2010-06-20T15:06:04Z</time>
<desc>lat.=55.900330, lon.=26.528795, Alt.=111.452209m. Speed=1.260000m/h.</desc>
<speed>0.350000</speed>
</trkpt>
<trkpt lat="55.900330" lon="26.528807">
<ele>111.821350</ele>
<time>2010-06-20T15:06:05Z</time>
<desc>lat.=55.900330, lon.=26.528807, Alt.=111.821350m. Speed=2.556000m/h.</desc>
<speed>0.710000</speed>
</trkpt>
<trkpt lat="55.900333" lon="26.528797">
<ele>112.190491</ele>
<time>2010-06-20T15:06:06Z</time>
<desc>lat.=55.900333, lon.=26.528797, Alt.=112.190491m. Speed=0.288000m/h.</desc>
<speed>0.080000</speed>
</trkpt>
<trkpt lat="55.900333" lon="26.528791">
<ele>112.581116</ele>
<time>2010-06-20T15:06:07Z</time>
<desc>lat.=55.900333, lon.=26.528791, Alt.=112.581116m. Speed=0.252000m/h.</desc>
<speed>0.070000</speed>
</trkpt>
<trkpt lat="55.900337" lon="26.528774">
<ele>112.876038</ele>
<time>2010-06-20T15:06:08Z</time>
<desc>lat.=55.900337, lon.=26.528774, Alt.=112.876038m. Speed=0.432000m/h.</desc>
<speed>0.120000</speed>
</trkpt>
<trkpt lat="55.900333" lon="26.528755">
<ele>113.419006</ele>
<time>2010-06-20T15:06:09Z</time>
<desc>lat.=55.900333, lon.=26.528755, Alt.=113.419006m. Speed=2.196000m/h.</desc>
<speed>0.610000</speed>
</trkpt>
<trkpt lat="55.900341" lon="26.528738">
<ele>113.729553</ele>
<time>2010-06-20T15:06:10Z</time>
<desc>lat.=55.900341, lon.=26.528738, Alt.=113.729553m. Speed=1.692000m/h.</desc>
<speed>0.470000</speed>
</trkpt>
<trkpt lat="55.900333" lon="26.528738">
<ele>113.940491</ele>
<time>2010-06-20T15:06:11Z</time>
<desc>lat.=55.900333, lon.=26.528738, Alt.=113.940491m. Speed=2.160000m/h.</desc>
<speed>0.600000</speed>
</trkpt>
<trkpt lat="55.900333" lon="26.528744">
<ele>114.098694</ele>
<time>2010-06-20T15:06:12Z</time>
<desc>lat.=55.900333, lon.=26.528744, Alt.=114.098694m. Speed=2.196000m/h.</desc>
<speed>0.610000</speed>
</trkpt>
<trkpt lat="55.900330" lon="26.528753">
<ele>114.258850</ele>
<time>2010-06-20T15:06:13Z</time>
<desc>lat.=55.900330, lon.=26.528753, Alt.=114.258850m. Speed=0.684000m/h.</desc>
<speed>0.190000</speed>
</trkpt>
<trkpt lat="55.900333" lon="26.528734">
<ele>114.524475</ele>
<time>2010-06-20T15:06:14Z</time>
<desc>lat.=55.900333, lon.=26.528734, Alt.=114.524475m. Speed=1.584000m/h.</desc>
<speed>0.440000</speed>
</trkpt>
<trkpt lat="55.900326" lon="26.528744">
<ele>114.819397</ele>
<time>2010-06-20T15:06:15Z</time>
<desc>lat.=55.900326, lon.=26.528744, Alt.=114.819397m. Speed=1.404000m/h.</desc>
<speed>0.390000</speed>
</trkpt>
<trkpt lat="55.900326" lon="26.528751">
<ele>114.958069</ele>
<time>2010-06-20T15:06:16Z</time>
<desc>lat.=55.900326, lon.=26.528751, Alt.=114.958069m. Speed=1.548000m/h.</desc>
<speed>0.430000</speed>
</trkpt>
<trkpt lat="55.900318" lon="26.528772">
<ele>115.186584</ele>
<time>2010-06-20T15:06:17Z</time>
<desc>lat.=55.900318, lon.=26.528772, Alt.=115.186584m. Speed=2.124000m/h.</desc>
<speed>0.590000</speed>
</trkpt>
<trkpt lat="55.900318" lon="26.528782">
<ele>115.370178</ele>
<time>2010-06-20T15:06:18Z</time>
<desc>lat.=55.900318, lon.=26.528782, Alt.=115.370178m. Speed=1.548000m/h.</desc>
<speed>0.430000</speed>
</trkpt>
<trkpt lat="55.900322" lon="26.528759">
<ele>115.553772</ele>
<time>2010-06-20T15:06:19Z</time>
<desc>lat.=55.900322, lon.=26.528759, Alt.=115.553772m. Speed=1.512000m/h.</desc>
<speed>0.420000</speed>
</trkpt>
<trkpt lat="55.900322" lon="26.528744">
<ele>115.702209</ele>
<time>2010-06-20T15:06:20Z</time>
<desc>lat.=55.900322, lon.=26.528744, Alt.=115.702209m. Speed=2.016000m/h.</desc>
<speed>0.560000</speed>
</trkpt>
<trkpt lat="55.900322" lon="26.528727">
<ele>115.961975</ele>
<time>2010-06-20T15:06:21Z</time>
<desc>lat.=55.900322, lon.=26.528727, Alt.=115.961975m. Speed=3.132000m/h.</desc>
<speed>0.870000</speed>
</trkpt>
<trkpt lat="55.900318" lon="26.528732">
<ele>116.231506</ele>
<time>2010-06-20T15:06:22Z</time>
<desc>lat.=55.900318, lon.=26.528732, Alt.=116.231506m. Speed=0.720000m/h.</desc>
<speed>0.200000</speed>
</trkpt>
<trkpt lat="55.900318" lon="26.528727">
<ele>116.448303</ele>
<time>2010-06-20T15:06:23Z</time>
<desc>lat.=55.900318, lon.=26.528727, Alt.=116.448303m. Speed=0.756000m/h.</desc>
<speed>0.210000</speed>
</trkpt>
<trkpt lat="55.900326" lon="26.528719">
<ele>116.649475</ele>
<time>2010-06-20T15:06:24Z</time>
<desc>lat.=55.900326, lon.=26.528719, Alt.=116.649475m. Speed=1.980000m/h.</desc>
<speed>0.550000</speed>
</trkpt>
<trkpt lat="55.900322" lon="26.528727">
<ele>116.768616</ele>
<time>2010-06-20T15:06:25Z</time>
<desc>lat.=55.900322, lon.=26.528727, Alt.=116.768616m. Speed=0.936000m/h.</desc>
<speed>0.260000</speed>
</trkpt>
<trkpt lat="55.900311" lon="26.528732">
<ele>116.911194</ele>
<time>2010-06-20T15:06:26Z</time>
<desc>lat.=55.900311, lon.=26.528732, Alt.=116.911194m. Speed=2.232000m/h.</desc>
<speed>0.620000</speed>
</trkpt>
<trkpt lat="55.900311" lon="26.528732">
<ele>117.075256</ele>
<time>2010-06-20T15:06:27Z</time>
<desc>lat.=55.900311, lon.=26.528732, Alt.=117.075256m. Speed=1.224000m/h.</desc>
<speed>0.340000</speed>
</trkpt>
<trkpt lat="55.900303" lon="26.528732">
<ele>117.204163</ele>
<time>2010-06-20T15:06:28Z</time>
<desc>lat.=55.900303, lon.=26.528732, Alt.=117.204163m. Speed=2.340000m/h.</desc>
<speed>0.650000</speed>
</trkpt>
<trkpt lat="55.900299" lon="26.528732">
<ele>117.391663</ele>
<time>2010-06-20T15:06:29Z</time>
<desc>lat.=55.900299, lon.=26.528732, Alt.=117.391663m. Speed=2.916000m/h.</desc>
<speed>0.810000</speed>
</trkpt>
<trkpt lat="55.900303" lon="26.528727">
<ele>117.633850</ele>
<time>2010-06-20T15:06:30Z</time>
<desc>lat.=55.900303, lon.=26.528727, Alt.=117.633850m. Speed=2.304000m/h.</desc>
<speed>0.640000</speed>
</trkpt>
<trkpt lat="55.900307" lon="26.528721">
<ele>117.694397</ele>
<time>2010-06-20T15:06:31Z</time>
<desc>lat.=55.900307, lon.=26.528721, Alt.=117.694397m. Speed=0.432000m/h.</desc>
<speed>0.120000</speed>
</trkpt>
<trkpt lat="55.900307" lon="26.528711">
<ele>117.737366</ele>
<time>2010-06-20T15:06:32Z</time>
<desc>lat.=55.900307, lon.=26.528711, Alt.=117.737366m. Speed=0.576000m/h.</desc>
<speed>0.160000</speed>
</trkpt>
<trkpt lat="55.900311" lon="26.528692">
<ele>117.815491</ele>
<time>2010-06-20T15:06:33Z</time>
<desc>lat.=55.900311, lon.=26.528692, Alt.=117.815491m. Speed=0.576000m/h.</desc>
<speed>0.160000</speed>
</trkpt>
<trkpt lat="55.900314" lon="26.528681">
<ele>117.684631</ele>
<time>2010-06-20T15:06:34Z</time>
<desc>lat.=55.900314, lon.=26.528681, Alt.=117.684631m. Speed=2.880000m/h.</desc>
<speed>0.800000</speed>
</trkpt>
<trkpt lat="55.900318" lon="26.528667">
<ele>117.411194</ele>
<time>2010-06-20T15:06:35Z</time>
<desc>lat.=55.900318, lon.=26.528667, Alt.=117.411194m. Speed=5.076000m/h.</desc>
<speed>1.410000</speed>
</trkpt>
<trkpt lat="55.900326" lon="26.528650">
<ele>117.272522</ele>
<time>2010-06-20T15:06:36Z</time>
<desc>lat.=55.900326, lon.=26.528650, Alt.=117.272522m. Speed=6.444000m/h.</desc>
<speed>1.790000</speed>
</trkpt>
<trkpt lat="55.900318" lon="26.528666">
<ele>117.124084</ele>
<time>2010-06-20T15:06:37Z</time>
<desc>lat.=55.900318, lon.=26.528666, Alt.=117.124084m. Speed=3.600000m/h.</desc>
<speed>1.000000</speed>
</trkpt>
<trkpt lat="55.900326" lon="26.528656">
<ele>117.280334</ele>
<time>2010-06-20T15:06:38Z</time>
<desc>lat.=55.900326, lon.=26.528656, Alt.=117.280334m. Speed=2.952000m/h.</desc>
<speed>0.820000</speed>
</trkpt>
<trkpt lat="55.900318" lon="26.528662">
<ele>117.446350</ele>
<time>2010-06-20T15:06:39Z</time>
<desc>lat.=55.900318, lon.=26.528662, Alt.=117.446350m. Speed=1.440000m/h.</desc>
<speed>0.400000</speed>
</trkpt>
<trkpt lat="55.900311" lon="26.528688">
<ele>117.467834</ele>
<time>2010-06-20T15:06:40Z</time>
<desc>lat.=55.900311, lon.=26.528688, Alt.=117.467834m. Speed=0.576000m/h.</desc>
<speed>0.160000</speed>
</trkpt>
<trkpt lat="55.900303" lon="26.528700">
<ele>117.403381</ele>
<time>2010-06-20T15:06:41Z</time>
<desc>lat.=55.900303, lon.=26.528700, Alt.=117.403381m. Speed=1.872000m/h.</desc>
<speed>0.520000</speed>
</trkpt>
<trkpt lat="55.900299" lon="26.528715">
<ele>117.602600</ele>
<time>2010-06-20T15:06:42Z</time>
<desc>lat.=55.900299, lon.=26.528715, Alt.=117.602600m. Speed=0.072000m/h.</desc>
<speed>0.020000</speed>
</trkpt>
<trkpt lat="55.900299" lon="26.528728">
<ele>117.651428</ele>
<time>2010-06-20T15:06:43Z</time>
<desc>lat.=55.900299, lon.=26.528728, Alt.=117.651428m. Speed=2.808000m/h.</desc>
<speed>0.780000</speed>
</trkpt>
<trkpt lat="55.900288" lon="26.528769">
<ele>117.647522</ele>
<time>2010-06-20T15:06:44Z</time>
<desc>lat.=55.900288, lon.=26.528769, Alt.=117.647522m. Speed=1.368000m/h.</desc>
<speed>0.380000</speed>
</trkpt>
<trkpt lat="55.900280" lon="26.528790">
<ele>117.495178</ele>
<time>2010-06-20T15:06:45Z</time>
<desc>lat.=55.900280, lon.=26.528790, Alt.=117.495178m. Speed=1.512000m/h.</desc>
<speed>0.420000</speed>
</trkpt>
<trkpt lat="55.900272" lon="26.528811">
<ele>117.028381</ele>
<time>2010-06-20T15:06:46Z</time>
<desc>lat.=55.900272, lon.=26.528811, Alt.=117.028381m. Speed=3.132000m/h.</desc>
<speed>0.870000</speed>
</trkpt>
<trkpt lat="55.900272" lon="26.528826">
<ele>116.667053</ele>
<time>2010-06-20T15:06:47Z</time>
<desc>lat.=55.900272, lon.=26.528826, Alt.=116.667053m. Speed=2.376000m/h.</desc>
<speed>0.660000</speed>
</trkpt>
<trkpt lat="55.900269" lon="26.528833">
<ele>116.413147</ele>
<time>2010-06-20T15:06:48Z</time>
<desc>lat.=55.900269, lon.=26.528833, Alt.=116.413147m. Speed=1.188000m/h.</desc>
<speed>0.330000</speed>
</trkpt>
<trkpt lat="55.900265" lon="26.528835">
<ele>116.192444</ele>
<time>2010-06-20T15:06:49Z</time>
<desc>lat.=55.900265, lon.=26.528835, Alt.=116.192444m. Speed=0.720000m/h.</desc>
<speed>0.200000</speed>
</trkpt>
<trkpt lat="55.900261" lon="26.528843">
<ele>116.243225</ele>
<time>2010-06-20T15:06:50Z</time>
<desc>lat.=55.900261, lon.=26.528843, Alt.=116.243225m. Speed=1.908000m/h.</desc>
<speed>0.530000</speed>
</trkpt>
<trkpt lat="55.900257" lon="26.528856">
<ele>116.288147</ele>
<time>2010-06-20T15:06:51Z</time>
<desc>lat.=55.900257, lon.=26.528856, Alt.=116.288147m. Speed=1.800000m/h.</desc>
<speed>0.500000</speed>
</trkpt>
<trkpt lat="55.900249" lon="26.528870">
<ele>116.471741</ele>
<time>2010-06-20T15:06:52Z</time>
<desc>lat.=55.900249, lon.=26.528870, Alt.=116.471741m. Speed=3.240000m/h.</desc>
<speed>0.900000</speed>
</trkpt>
<trkpt lat="55.900242" lon="26.528873">
<ele>116.637756</ele>
<time>2010-06-20T15:06:53Z</time>
<desc>lat.=55.900242, lon.=26.528873, Alt.=116.637756m. Speed=2.016000m/h.</desc>
<speed>0.560000</speed>
</trkpt>
<trkpt lat="55.900230" lon="26.528894">
<ele>116.784241</ele>
<time>2010-06-20T15:06:54Z</time>
<desc>lat.=55.900230, lon.=26.528894, Alt.=116.784241m. Speed=4.896000m/h.</desc>
<speed>1.360000</speed>
</trkpt>
<trkpt lat="55.900219" lon="26.528915">
<ele>116.926819</ele>
<time>2010-06-20T15:06:55Z</time>
<desc>lat.=55.900219, lon.=26.528915, Alt.=116.926819m. Speed=4.284000m/h.</desc>
<speed>1.190000</speed>
</trkpt>
<trkpt lat="55.900215" lon="26.528919">
<ele>117.137756</ele>
<time>2010-06-20T15:06:56Z</time>
<desc>lat.=55.900215, lon.=26.528919, Alt.=117.137756m. Speed=0.720000m/h.</desc>
<speed>0.200000</speed>
</trkpt>
<trkpt lat="55.900215" lon="26.528929">
<ele>117.247131</ele>
<time>2010-06-20T15:06:57Z</time>
<desc>lat.=55.900215, lon.=26.528929, Alt.=117.247131m. Speed=1.584000m/h.</desc>
<speed>0.440000</speed>
</trkpt>
<trkpt lat="55.900208" lon="26.528940">
<ele>117.159241</ele>
<time>2010-06-20T15:06:58Z</time>
<desc>lat.=55.900208, lon.=26.528940, Alt.=117.159241m. Speed=0.288000m/h.</desc>
<speed>0.080000</speed>
</trkpt>
<trkpt lat="55.900204" lon="26.528946">
<ele>117.284241</ele>
<time>2010-06-20T15:06:59Z</time>
<desc>lat.=55.900204, lon.=26.528946, Alt.=117.284241m. Speed=0.756000m/h.</desc>
<speed>0.210000</speed>
</trkpt>
<trkpt lat="55.900196" lon="26.528952">
<ele>117.567444</ele>
<time>2010-06-20T15:07:00Z</time>
<desc>lat.=55.900196, lon.=26.528952, Alt.=117.567444m. Speed=0.648000m/h.</desc>
<speed>0.180000</speed>
</trkpt>
<trkpt lat="55.900188" lon="26.528957">
<ele>117.743225</ele>
<time>2010-06-20T15:07:01Z</time>
<desc>lat.=55.900188, lon.=26.528957, Alt.=117.743225m. Speed=1.152000m/h.</desc>
<speed>0.320000</speed>
</trkpt>
<trkpt lat="55.900185" lon="26.528954">
<ele>118.174866</ele>
<time>2010-06-20T15:07:02Z</time>
<desc>lat.=55.900185, lon.=26.528954, Alt.=118.174866m. Speed=1.080000m/h.</desc>
<speed>0.300000</speed>
</trkpt>
<trkpt lat="55.900181" lon="26.528967">
<ele>118.428772</ele>
<time>2010-06-20T15:07:03Z</time>
<desc>lat.=55.900181, lon.=26.528967, Alt.=118.428772m. Speed=2.052000m/h.</desc>
<speed>0.570000</speed>
</trkpt>
<trkpt lat="55.900188" lon="26.528967">
<ele>118.561584</ele>
<time>2010-06-20T15:07:04Z</time>
<desc>lat.=55.900188, lon.=26.528967, Alt.=118.561584m. Speed=1.728000m/h.</desc>
<speed>0.480000</speed>
</trkpt>
<trkpt lat="55.900192" lon="26.528973">
<ele>118.540100</ele>
<time>2010-06-20T15:07:05Z</time>
<desc>lat.=55.900192, lon.=26.528973, Alt.=118.540100m. Speed=2.196000m/h.</desc>
<speed>0.610000</speed>
</trkpt>
<trkpt lat="55.900192" lon="26.528976">
<ele>118.592834</ele>
<time>2010-06-20T15:07:06Z</time>
<desc>lat.=55.900192, lon.=26.528976, Alt.=118.592834m. Speed=2.520000m/h.</desc>
<speed>0.700000</speed>
</trkpt>
<trkpt lat="55.900196" lon="26.528975">
<ele>118.565491</ele>
<time>2010-06-20T15:07:07Z</time>
<desc>lat.=55.900196, lon.=26.528975, Alt.=118.565491m. Speed=3.204000m/h.</desc>
<speed>0.890000</speed>
</trkpt>
<trkpt lat="55.900204" lon="26.528955">
<ele>118.598694</ele>
<time>2010-06-20T15:07:08Z</time>
<desc>lat.=55.900204, lon.=26.528955, Alt.=118.598694m. Speed=0.972000m/h.</desc>
<speed>0.270000</speed>
</trkpt>
<trkpt lat="55.900204" lon="26.528950">
<ele>118.592834</ele>
<time>2010-06-20T15:07:09Z</time>
<desc>lat.=55.900204, lon.=26.528950, Alt.=118.592834m. Speed=1.584000m/h.</desc>
<speed>0.440000</speed>
</trkpt>
<trkpt lat="55.900200" lon="26.528946">
<ele>118.866272</ele>
<time>2010-06-20T15:07:10Z</time>
<desc>lat.=55.900200, lon.=26.528946, Alt.=118.866272m. Speed=2.844000m/h.</desc>
<speed>0.790000</speed>
</trkpt>
<trkpt lat="55.900192" lon="26.528942">
<ele>119.010803</ele>
<time>2010-06-20T15:07:11Z</time>
<desc>lat.=55.900192, lon.=26.528942, Alt.=119.010803m. Speed=4.140000m/h.</desc>
<speed>1.150000</speed>
</trkpt>
<trkpt lat="55.900196" lon="26.528921">
<ele>119.108459</ele>
<time>2010-06-20T15:07:12Z</time>
<desc>lat.=55.900196, lon.=26.528921, Alt.=119.108459m. Speed=1.476000m/h.</desc>
<speed>0.410000</speed>
</trkpt>
<trkpt lat="55.900196" lon="26.528900">
<ele>119.067444</ele>
<time>2010-06-20T15:07:13Z</time>
<desc>lat.=55.900196, lon.=26.528900, Alt.=119.067444m. Speed=2.916000m/h.</desc>
<speed>0.810000</speed>
</trkpt>
<trkpt lat="55.900196" lon="26.528885">
<ele>119.032288</ele>
<time>2010-06-20T15:07:14Z</time>
<desc>lat.=55.900196, lon.=26.528885, Alt.=119.032288m. Speed=3.024000m/h.</desc>
<speed>0.840000</speed>
</trkpt>
<trkpt lat="55.900200" lon="26.528864">
<ele>119.135803</ele>
<time>2010-06-20T15:07:15Z</time>
<desc>lat.=55.900200, lon.=26.528864, Alt.=119.135803m. Speed=2.160000m/h.</desc>
<speed>0.600000</speed>
</trkpt>
<trkpt lat="55.900211" lon="26.528852">
<ele>118.731506</ele>
<time>2010-06-20T15:07:16Z</time>
<desc>lat.=55.900211, lon.=26.528852, Alt.=118.731506m. Speed=1.296000m/h.</desc>
<speed>0.360000</speed>
</trkpt>
<trkpt lat="55.900211" lon="26.528858">
<ele>118.419006</ele>
<time>2010-06-20T15:07:17Z</time>
<desc>lat.=55.900211, lon.=26.528858, Alt.=118.419006m. Speed=0.900000m/h.</desc>
<speed>0.250000</speed>
</trkpt>
<trkpt lat="55.900219" lon="26.528864">
<ele>117.813538</ele>
<time>2010-06-20T15:07:18Z</time>
<desc>lat.=55.900219, lon.=26.528864, Alt.=117.813538m. Speed=2.628000m/h.</desc>
<speed>0.730000</speed>
</trkpt>
<trkpt lat="55.900223" lon="26.528868">
<ele>117.338928</ele>
<time>2010-06-20T15:07:19Z</time>
<desc>lat.=55.900223, lon.=26.528868, Alt.=117.338928m. Speed=2.016000m/h.</desc>
<speed>0.560000</speed>
</trkpt>
<trkpt lat="55.900223" lon="26.528877">
<ele>117.282288</ele>
<time>2010-06-20T15:07:20Z</time>
<desc>lat.=55.900223, lon.=26.528877, Alt.=117.282288m. Speed=2.088000m/h.</desc>
<speed>0.580000</speed>
</trkpt>
<trkpt lat="55.900230" lon="26.528873">
<ele>116.954163</ele>
<time>2010-06-20T15:07:21Z</time>
<desc>lat.=55.900230, lon.=26.528873, Alt.=116.954163m. Speed=1.800000m/h.</desc>
<speed>0.500000</speed>
</trkpt>
<trkpt lat="55.900230" lon="26.528875">
<ele>116.805725</ele>
<time>2010-06-20T15:07:22Z</time>
<desc>lat.=55.900230, lon.=26.528875, Alt.=116.805725m. Speed=1.584000m/h.</desc>
<speed>0.440000</speed>
</trkpt>
<trkpt lat="55.900227" lon="26.528879">
<ele>116.737366</ele>
<time>2010-06-20T15:07:23Z</time>
<desc>lat.=55.900227, lon.=26.528879, Alt.=116.737366m. Speed=1.908000m/h.</desc>
<speed>0.530000</speed>
</trkpt>
<trkpt lat="55.900234" lon="26.528870">
<ele>116.823303</ele>
<time>2010-06-20T15:07:24Z</time>
<desc>lat.=55.900234, lon.=26.528870, Alt.=116.823303m. Speed=0.432000m/h.</desc>
<speed>0.120000</speed>
</trkpt>
<trkpt lat="55.900238" lon="26.528864">
<ele>116.575256</ele>
<time>2010-06-20T15:07:25Z</time>
<desc>lat.=55.900238, lon.=26.528864, Alt.=116.575256m. Speed=0.540000m/h.</desc>
<speed>0.150000</speed>
</trkpt>
<trkpt lat="55.900238" lon="26.528862">
<ele>116.598694</ele>
<time>2010-06-20T15:07:26Z</time>
<desc>lat.=55.900238, lon.=26.528862, Alt.=116.598694m. Speed=1.548000m/h.</desc>
<speed>0.430000</speed>
</trkpt>
<trkpt lat="55.900242" lon="26.528862">
<ele>116.426819</ele>
<time>2010-06-20T15:07:27Z</time>
<desc>lat.=55.900242, lon.=26.528862, Alt.=116.426819m. Speed=1.116000m/h.</desc>
<speed>0.310000</speed>
</trkpt>
<trkpt lat="55.900246" lon="26.528866">
<ele>116.256897</ele>
<time>2010-06-20T15:07:28Z</time>
<desc>lat.=55.900246, lon.=26.528866, Alt.=116.256897m. Speed=0.864000m/h.</desc>
<speed>0.240000</speed>
</trkpt>
<trkpt lat="55.900253" lon="26.528858">
<ele>116.254944</ele>
<time>2010-06-20T15:07:29Z</time>
<desc>lat.=55.900253, lon.=26.528858, Alt.=116.254944m. Speed=3.060000m/h.</desc>
<speed>0.850000</speed>
</trkpt>
<trkpt lat="55.900261" lon="26.528858">
<ele>116.331116</ele>
<time>2010-06-20T15:07:30Z</time>
<desc>lat.=55.900261, lon.=26.528858, Alt.=116.331116m. Speed=4.428000m/h.</desc>
<speed>1.230000</speed>
</trkpt>
<trkpt lat="55.900261" lon="26.528864">
<ele>116.290100</ele>
<time>2010-06-20T15:07:31Z</time>
<desc>lat.=55.900261, lon.=26.528864, Alt.=116.290100m. Speed=1.332000m/h.</desc>
<speed>0.370000</speed>
</trkpt>
<trkpt lat="55.900265" lon="26.528870">
<ele>116.204163</ele>
<time>2010-06-20T15:07:32Z</time>
<desc>lat.=55.900265, lon.=26.528870, Alt.=116.204163m. Speed=2.232000m/h.</desc>
<speed>0.620000</speed>
</trkpt>
<trkpt lat="55.900269" lon="26.528879">
<ele>115.870178</ele>
<time>2010-06-20T15:07:33Z</time>
<desc>lat.=55.900269, lon.=26.528879, Alt.=115.870178m. Speed=1.260000m/h.</desc>
<speed>0.350000</speed>
</trkpt>
<trkpt lat="55.900261" lon="26.528898">
<ele>115.358459</ele>
<time>2010-06-20T15:07:34Z</time>
<desc>lat.=55.900261, lon.=26.528898, Alt.=115.358459m. Speed=2.880000m/h.</desc>
<speed>0.800000</speed>
</trkpt>
<trkpt lat="55.900261" lon="26.528908">
<ele>115.063538</ele>
<time>2010-06-20T15:07:35Z</time>
<desc>lat.=55.900261, lon.=26.528908, Alt.=115.063538m. Speed=1.260000m/h.</desc>
<speed>0.350000</speed>
</trkpt>
<trkpt lat="55.900261" lon="26.528917">
<ele>114.819397</ele>
<time>2010-06-20T15:07:36Z</time>
<desc>lat.=55.900261, lon.=26.528917, Alt.=114.819397m. Speed=1.584000m/h.</desc>
<speed>0.440000</speed>
</trkpt>
<trkpt lat="55.900265" lon="26.528921">
<ele>114.692444</ele>
<time>2010-06-20T15:07:37Z</time>
<desc>lat.=55.900265, lon.=26.528921, Alt.=114.692444m. Speed=0.324000m/h.</desc>
<speed>0.090000</speed>
</trkpt>
<trkpt lat="55.900269" lon="26.528908">
<ele>114.424866</ele>
<time>2010-06-20T15:07:38Z</time>
<desc>lat.=55.900269, lon.=26.528908, Alt.=114.424866m. Speed=3.204000m/h.</desc>
<speed>0.890000</speed>
</trkpt>
<trkpt lat="55.900269" lon="26.528912">
<ele>114.348694</ele>
<time>2010-06-20T15:07:39Z</time>
<desc>lat.=55.900269, lon.=26.528912, Alt.=114.348694m. Speed=1.116000m/h.</desc>
<speed>0.310000</speed>
</trkpt>
<trkpt lat="55.900257" lon="26.528933">
<ele>114.313538</ele>
<time>2010-06-20T15:07:40Z</time>
<desc>lat.=55.900257, lon.=26.528933, Alt.=114.313538m. Speed=4.320000m/h.</desc>
<speed>1.200000</speed>
</trkpt>
<trkpt lat="55.900249" lon="26.528946">
<ele>114.268616</ele>
<time>2010-06-20T15:07:41Z</time>
<desc>lat.=55.900249, lon.=26.528946, Alt.=114.268616m. Speed=4.644000m/h.</desc>
<speed>1.290000</speed>
</trkpt>
<trkpt lat="55.900246" lon="26.528959">
<ele>114.202209</ele>
<time>2010-06-20T15:07:42Z</time>
<desc>lat.=55.900246, lon.=26.528959, Alt.=114.202209m. Speed=4.068000m/h.</desc>
<speed>1.130000</speed>
</trkpt>
<trkpt lat="55.900253" lon="26.528954">
<ele>114.327209</ele>
<time>2010-06-20T15:07:43Z</time>
<desc>lat.=55.900253, lon.=26.528954, Alt.=114.327209m. Speed=1.188000m/h.</desc>
<speed>0.330000</speed>
</trkpt>
<trkpt lat="55.900253" lon="26.528950">
<ele>114.290100</ele>
<time>2010-06-20T15:07:44Z</time>
<desc>lat.=55.900253, lon.=26.528950, Alt.=114.290100m. Speed=1.764000m/h.</desc>
<speed>0.490000</speed>
</trkpt>
<trkpt lat="55.900253" lon="26.528959">
<ele>114.083069</ele>
<time>2010-06-20T15:07:45Z</time>
<desc>lat.=55.900253, lon.=26.528959, Alt.=114.083069m. Speed=4.284000m/h.</desc>
<speed>1.190000</speed>
</trkpt>
<trkpt lat="55.900253" lon="26.528967">
<ele>113.850647</ele>
<time>2010-06-20T15:07:46Z</time>
<desc>lat.=55.900253, lon.=26.528967, Alt.=113.850647m. Speed=3.348000m/h.</desc>
<speed>0.930000</speed>
</trkpt>
<trkpt lat="55.900253" lon="26.528982">
<ele>113.786194</ele>
<time>2010-06-20T15:07:47Z</time>
<desc>lat.=55.900253, lon.=26.528982, Alt.=113.786194m. Speed=3.528000m/h.</desc>
<speed>0.980000</speed>
</trkpt>
<trkpt lat="55.900257" lon="26.528971">
<ele>113.856506</ele>
<time>2010-06-20T15:07:48Z</time>
<desc>lat.=55.900257, lon.=26.528971, Alt.=113.856506m. Speed=1.260000m/h.</desc>
<speed>0.350000</speed>
</trkpt>
<trkpt lat="55.900261" lon="26.528961">
<ele>113.823303</ele>
<time>2010-06-20T15:07:49Z</time>
<desc>lat.=55.900261, lon.=26.528961, Alt.=113.823303m. Speed=2.088000m/h.</desc>
<speed>0.580000</speed>
</trkpt>
<trkpt lat="55.900269" lon="26.528954">
<ele>113.995178</ele>
<time>2010-06-20T15:07:50Z</time>
<desc>lat.=55.900269, lon.=26.528954, Alt.=113.995178m. Speed=0.936000m/h.</desc>
<speed>0.260000</speed>
</trkpt>
<trkpt lat="55.900272" lon="26.528950">
<ele>114.165100</ele>
<time>2010-06-20T15:07:51Z</time>
<desc>lat.=55.900272, lon.=26.528950, Alt.=114.165100m. Speed=1.296000m/h.</desc>
<speed>0.360000</speed>
</trkpt>
<trkpt lat="55.900276" lon="26.528940">
<ele>114.215881</ele>
<time>2010-06-20T15:07:52Z</time>
<desc>lat.=55.900276, lon.=26.528940, Alt.=114.215881m. Speed=2.556000m/h.</desc>
<speed>0.710000</speed>
</trkpt>
<trkpt lat="55.900272" lon="26.528936">
<ele>114.198303</ele>
<time>2010-06-20T15:07:53Z</time>
<desc>lat.=55.900272, lon.=26.528936, Alt.=114.198303m. Speed=1.260000m/h.</desc>
<speed>0.350000</speed>
</trkpt>
<trkpt lat="55.900261" lon="26.528946">
<ele>114.127991</ele>
<time>2010-06-20T15:07:54Z</time>
<desc>lat.=55.900261, lon.=26.528946, Alt.=114.127991m. Speed=1.404000m/h.</desc>
<speed>0.390000</speed>
</trkpt>
<trkpt lat="55.900257" lon="26.528969">
<ele>114.079163</ele>
<time>2010-06-20T15:07:55Z</time>
<desc>lat.=55.900257, lon.=26.528969, Alt.=114.079163m. Speed=5.076000m/h.</desc>
<speed>1.410000</speed>
</trkpt>
<trkpt lat="55.900261" lon="26.528959">
<ele>114.180725</ele>
<time>2010-06-20T15:07:56Z</time>
<desc>lat.=55.900261, lon.=26.528959, Alt.=114.180725m. Speed=0.864000m/h.</desc>
<speed>0.240000</speed>
</trkpt>
<trkpt lat="55.900257" lon="26.528969">
<ele>114.338928</ele>
<time>2010-06-20T15:07:57Z</time>
<desc>lat.=55.900257, lon.=26.528969, Alt.=114.338928m. Speed=4.572000m/h.</desc>
<speed>1.270000</speed>
</trkpt>
<trkpt lat="55.900257" lon="26.528975">
<ele>114.528381</ele>
<time>2010-06-20T15:07:58Z</time>
<desc>lat.=55.900257, lon.=26.528975, Alt.=114.528381m. Speed=3.348000m/h.</desc>
<speed>0.930000</speed>
</trkpt>
<trkpt lat="55.900257" lon="26.528969">
<ele>114.684631</ele>
<time>2010-06-20T15:07:59Z</time>
<desc>lat.=55.900257, lon.=26.528969, Alt.=114.684631m. Speed=0.720000m/h.</desc>
<speed>0.200000</speed>
</trkpt>
<trkpt lat="55.900253" lon="26.528973">
<ele>114.649475</ele>
<time>2010-06-20T15:08:00Z</time>
<desc>lat.=55.900253, lon.=26.528973, Alt.=114.649475m. Speed=2.628000m/h.</desc>
<speed>0.730000</speed>
</trkpt>
<trkpt lat="55.900249" lon="26.528980">
<ele>114.586975</ele>
<time>2010-06-20T15:08:01Z</time>
<desc>lat.=55.900249, lon.=26.528980, Alt.=114.586975m. Speed=3.384000m/h.</desc>
<speed>0.940000</speed>
</trkpt>
<trkpt lat="55.900246" lon="26.528988">
<ele>114.461975</ele>
<time>2010-06-20T15:08:02Z</time>
<desc>lat.=55.900246, lon.=26.528988, Alt.=114.461975m. Speed=3.672000m/h.</desc>
<speed>1.020000</speed>
</trkpt>
<trkpt lat="55.900238" lon="26.529003">
<ele>114.270569</ele>
<time>2010-06-20T15:08:03Z</time>
<desc>lat.=55.900238, lon.=26.529003, Alt.=114.270569m. Speed=4.788000m/h.</desc>
<speed>1.330000</speed>
</trkpt>
<trkpt lat="55.900242" lon="26.529001">
<ele>114.124084</ele>
<time>2010-06-20T15:08:04Z</time>
<desc>lat.=55.900242, lon.=26.529001, Alt.=114.124084m. Speed=3.060000m/h.</desc>
<speed>0.850000</speed>
</trkpt>
<trkpt lat="55.900257" lon="26.528976">
<ele>113.952209</ele>
<time>2010-06-20T15:08:05Z</time>
<desc>lat.=55.900257, lon.=26.528976, Alt.=113.952209m. Speed=2.448000m/h.</desc>
<speed>0.680000</speed>
</trkpt>
<trkpt lat="55.900257" lon="26.528973">
<ele>113.700256</ele>
<time>2010-06-20T15:08:06Z</time>
<desc>lat.=55.900257, lon.=26.528973, Alt.=113.700256m. Speed=1.656000m/h.</desc>
<speed>0.460000</speed>
</trkpt>
<trkpt lat="55.900261" lon="26.528963">
<ele>113.501038</ele>
<time>2010-06-20T15:08:07Z</time>
<desc>lat.=55.900261, lon.=26.528963, Alt.=113.501038m. Speed=1.764000m/h.</desc>
<speed>0.490000</speed>
</trkpt>
<trkpt lat="55.900265" lon="26.528955">
<ele>113.366272</ele>
<time>2010-06-20T15:08:08Z</time>
<desc>lat.=55.900265, lon.=26.528955, Alt.=113.366272m. Speed=1.476000m/h.</desc>
<speed>0.410000</speed>
</trkpt>
<trkpt lat="55.900269" lon="26.528940">
<ele>113.454163</ele>
<time>2010-06-20T15:08:09Z</time>
<desc>lat.=55.900269, lon.=26.528940, Alt.=113.454163m. Speed=1.008000m/h.</desc>
<speed>0.280000</speed>
</trkpt>
<trkpt lat="55.900272" lon="26.528923">
<ele>113.114319</ele>
<time>2010-06-20T15:08:10Z</time>
<desc>lat.=55.900272, lon.=26.528923, Alt.=113.114319m. Speed=2.988000m/h.</desc>
<speed>0.830000</speed>
</trkpt>
<trkpt lat="55.900276" lon="26.528906">
<ele>112.864319</ele>
<time>2010-06-20T15:08:11Z</time>
<desc>lat.=55.900276, lon.=26.528906, Alt.=112.864319m. Speed=3.024000m/h.</desc>
<speed>0.840000</speed>
</trkpt>
<trkpt lat="55.900280" lon="26.528893">
<ele>112.620178</ele>
<time>2010-06-20T15:08:12Z</time>
<desc>lat.=55.900280, lon.=26.528893, Alt.=112.620178m. Speed=2.628000m/h.</desc>
<speed>0.730000</speed>
</trkpt>
<trkpt lat="55.900280" lon="26.528883">
<ele>112.450256</ele>
<time>2010-06-20T15:08:13Z</time>
<desc>lat.=55.900280, lon.=26.528883, Alt.=112.450256m. Speed=2.700000m/h.</desc>
<speed>0.750000</speed>
</trkpt>
<trkpt lat="55.900276" lon="26.528887">
<ele>112.438538</ele>
<time>2010-06-20T15:08:14Z</time>
<desc>lat.=55.900276, lon.=26.528887, Alt.=112.438538m. Speed=0.540000m/h.</desc>
<speed>0.150000</speed>
</trkpt>
<trkpt lat="55.900276" lon="26.528885">
<ele>112.100647</ele>
<time>2010-06-20T15:08:15Z</time>
<desc>lat.=55.900276, lon.=26.528885, Alt.=112.100647m. Speed=0.936000m/h.</desc>
<speed>0.260000</speed>
</trkpt>
<trkpt lat="55.900269" lon="26.528898">
<ele>111.678772</ele>
<time>2010-06-20T15:08:16Z</time>
<desc>lat.=55.900269, lon.=26.528898, Alt.=111.678772m. Speed=4.212000m/h.</desc>
<speed>1.170000</speed>
</trkpt>
<trkpt lat="55.900269" lon="26.528921">
<ele>111.446350</ele>
<time>2010-06-20T15:08:17Z</time>
<desc>lat.=55.900269, lon.=26.528921, Alt.=111.446350m. Speed=5.076000m/h.</desc>
<speed>1.410000</speed>
</trkpt>
<trkpt lat="55.900272" lon="26.528923">
<ele>111.501038</ele>
<time>2010-06-20T15:08:18Z</time>
<desc>lat.=55.900272, lon.=26.528923, Alt.=111.501038m. Speed=1.872000m/h.</desc>
<speed>0.520000</speed>
</trkpt>
<trkpt lat="55.900272" lon="26.528921">
<ele>111.627991</ele>
<time>2010-06-20T15:08:19Z</time>
<desc>lat.=55.900272, lon.=26.528921, Alt.=111.627991m. Speed=1.404000m/h.</desc>
<speed>0.390000</speed>
</trkpt>
<trkpt lat="55.900276" lon="26.528923">
<ele>111.651428</ele>
<time>2010-06-20T15:08:20Z</time>
<desc>lat.=55.900276, lon.=26.528923, Alt.=111.651428m. Speed=0.864000m/h.</desc>
<speed>0.240000</speed>
</trkpt>
<trkpt lat="55.900276" lon="26.528942">
<ele>111.366272</ele>
<time>2010-06-20T15:08:21Z</time>
<desc>lat.=55.900276, lon.=26.528942, Alt.=111.366272m. Speed=4.824000m/h.</desc>
<speed>1.340000</speed>
</trkpt>
<trkpt lat="55.900269" lon="26.528990">
<ele>111.282288</ele>
<time>2010-06-20T15:08:22Z</time>
<desc>lat.=55.900269, lon.=26.528990, Alt.=111.282288m. Speed=7.272000m/h.</desc>
<speed>2.020000</speed>
</trkpt>
<trkpt lat="55.900269" lon="26.529020">
<ele>111.227600</ele>
<time>2010-06-20T15:08:23Z</time>
<desc>lat.=55.900269, lon.=26.529020, Alt.=111.227600m. Speed=6.048000m/h.</desc>
<speed>1.680000</speed>
</trkpt>
<trkpt lat="55.900269" lon="26.529043">
<ele>111.282288</ele>
<time>2010-06-20T15:08:24Z</time>
<desc>lat.=55.900269, lon.=26.529043, Alt.=111.282288m. Speed=5.796000m/h.</desc>
<speed>1.610000</speed>
</trkpt>
<trkpt lat="55.900269" lon="26.529051">
<ele>111.331116</ele>
<time>2010-06-20T15:08:25Z</time>
<desc>lat.=55.900269, lon.=26.529051, Alt.=111.331116m. Speed=2.916000m/h.</desc>
<speed>0.810000</speed>
</trkpt>
<trkpt lat="55.900272" lon="26.529043">
<ele>111.172913</ele>
<time>2010-06-20T15:08:26Z</time>
<desc>lat.=55.900272, lon.=26.529043, Alt.=111.172913m. Speed=1.584000m/h.</desc>
<speed>0.440000</speed>
</trkpt>
<trkpt lat="55.900272" lon="26.529039">
<ele>111.229553</ele>
<time>2010-06-20T15:08:27Z</time>
<desc>lat.=55.900272, lon.=26.529039, Alt.=111.229553m. Speed=0.720000m/h.</desc>
<speed>0.200000</speed>
</trkpt>
<trkpt lat="55.900272" lon="26.529034">
<ele>111.028381</ele>
<time>2010-06-20T15:08:28Z</time>
<desc>lat.=55.900272, lon.=26.529034, Alt.=111.028381m. Speed=0.864000m/h.</desc>
<speed>0.240000</speed>
</trkpt>
<trkpt lat="55.900276" lon="26.529018">
<ele>110.821350</ele>
<time>2010-06-20T15:08:29Z</time>
<desc>lat.=55.900276, lon.=26.529018, Alt.=110.821350m. Speed=2.628000m/h.</desc>
<speed>0.730000</speed>
</trkpt>
<trkpt lat="55.900284" lon="26.528988">
<ele>110.588928</ele>
<time>2010-06-20T15:08:30Z</time>
<desc>lat.=55.900284, lon.=26.528988, Alt.=110.588928m. Speed=2.988000m/h.</desc>
<speed>0.830000</speed>
</trkpt>
<trkpt lat="55.900288" lon="26.528973">
<ele>110.565491</ele>
<time>2010-06-20T15:08:31Z</time>
<desc>lat.=55.900288, lon.=26.528973, Alt.=110.565491m. Speed=3.600000m/h.</desc>
<speed>1.000000</speed>
</trkpt>
<trkpt lat="55.900288" lon="26.528980">
<ele>110.604553</ele>
<time>2010-06-20T15:08:32Z</time>
<desc>lat.=55.900288, lon.=26.528980, Alt.=110.604553m. Speed=2.916000m/h.</desc>
<speed>0.810000</speed>
</trkpt>
<trkpt lat="55.900272" lon="26.529026">
<ele>110.626038</ele>
<time>2010-06-20T15:08:33Z</time>
<desc>lat.=55.900272, lon.=26.529026, Alt.=110.626038m. Speed=1.548000m/h.</desc>
<speed>0.430000</speed>
</trkpt>
<trkpt lat="55.900284" lon="26.529003">
<ele>110.557678</ele>
<time>2010-06-20T15:08:34Z</time>
<desc>lat.=55.900284, lon.=26.529003, Alt.=110.557678m. Speed=1.872000m/h.</desc>
<speed>0.520000</speed>
</trkpt>
<trkpt lat="55.900280" lon="26.529026">
<ele>110.520569</ele>
<time>2010-06-20T15:08:35Z</time>
<desc>lat.=55.900280, lon.=26.529026, Alt.=110.520569m. Speed=0.396000m/h.</desc>
<speed>0.110000</speed>
</trkpt>
<trkpt lat="55.900276" lon="26.529045">
<ele>110.286194</ele>
<time>2010-06-20T15:08:36Z</time>
<desc>lat.=55.900276, lon.=26.529045, Alt.=110.286194m. Speed=2.304000m/h.</desc>
<speed>0.640000</speed>
</trkpt>
<trkpt lat="55.900238" lon="26.529160">
<ele>110.170959</ele>
<time>2010-06-20T15:08:37Z</time>
<desc>lat.=55.900238, lon.=26.529160, Alt.=110.170959m. Speed=6.156000m/h.</desc>
<speed>1.710000</speed>
</trkpt>
<trkpt lat="55.900242" lon="26.529146">
<ele>110.018616</ele>
<time>2010-06-20T15:08:38Z</time>
<desc>lat.=55.900242, lon.=26.529146, Alt.=110.018616m. Speed=2.196000m/h.</desc>
<speed>0.610000</speed>
</trkpt>
<trkpt lat="55.900242" lon="26.529137">
<ele>109.792053</ele>
<time>2010-06-20T15:08:39Z</time>
<desc>lat.=55.900242, lon.=26.529137, Alt.=109.792053m. Speed=1.872000m/h.</desc>
<speed>0.520000</speed>
</trkpt>
<trkpt lat="55.900238" lon="26.529139">
<ele>109.631897</ele>
<time>2010-06-20T15:08:40Z</time>
<desc>lat.=55.900238, lon.=26.529139, Alt.=109.631897m. Speed=4.140000m/h.</desc>
<speed>1.150000</speed>
</trkpt>
<trkpt lat="55.900242" lon="26.529108">
<ele>109.370178</ele>
<time>2010-06-20T15:08:41Z</time>
<desc>lat.=55.900242, lon.=26.529108, Alt.=109.370178m. Speed=4.284000m/h.</desc>
<speed>1.190000</speed>
</trkpt>
<trkpt lat="55.900253" lon="26.529093">
<ele>109.157288</ele>
<time>2010-06-20T15:08:42Z</time>
<desc>lat.=55.900253, lon.=26.529093, Alt.=109.157288m. Speed=2.484000m/h.</desc>
<speed>0.690000</speed>
</trkpt>
<trkpt lat="55.900269" lon="26.529045">
<ele>109.116272</ele>
<time>2010-06-20T15:08:43Z</time>
<desc>lat.=55.900269, lon.=26.529045, Alt.=109.116272m. Speed=4.572000m/h.</desc>
<speed>1.270000</speed>
</trkpt>
<trkpt lat="55.900265" lon="26.529070">
<ele>109.063538</ele>
<time>2010-06-20T15:08:44Z</time>
<desc>lat.=55.900265, lon.=26.529070, Alt.=109.063538m. Speed=2.160000m/h.</desc>
<speed>0.600000</speed>
</trkpt>
<trkpt lat="55.900253" lon="26.529118">
<ele>109.112366</ele>
<time>2010-06-20T15:08:45Z</time>
<desc>lat.=55.900253, lon.=26.529118, Alt.=109.112366m. Speed=0.720000m/h.</desc>
<speed>0.200000</speed>
</trkpt>
<trkpt lat="55.900253" lon="26.529140">
<ele>108.110413</ele>
<time>2010-06-20T15:08:46Z</time>
<desc>lat.=55.900253, lon.=26.529140, Alt.=108.110413m. Speed=5.652000m/h.</desc>
<speed>1.570000</speed>
</trkpt>
<trkpt lat="55.900257" lon="26.529161">
<ele>108.454163</ele>
<time>2010-06-20T15:08:47Z</time>
<desc>lat.=55.900257, lon.=26.529161, Alt.=108.454163m. Speed=3.204000m/h.</desc>
<speed>0.890000</speed>
</trkpt>
<trkpt lat="55.900253" lon="26.529181">
<ele>108.624084</ele>
<time>2010-06-20T15:08:48Z</time>
<desc>lat.=55.900253, lon.=26.529181, Alt.=108.624084m. Speed=2.088000m/h.</desc>
<speed>0.580000</speed>
</trkpt>
<trkpt lat="55.900261" lon="26.529163">
<ele>108.876038</ele>
<time>2010-06-20T15:08:49Z</time>
<desc>lat.=55.900261, lon.=26.529163, Alt.=108.876038m. Speed=2.052000m/h.</desc>
<speed>0.570000</speed>
</trkpt>
<trkpt lat="55.900269" lon="26.529131">
<ele>109.112366</ele>
<time>2010-06-20T15:08:50Z</time>
<desc>lat.=55.900269, lon.=26.529131, Alt.=109.112366m. Speed=1.836000m/h.</desc>
<speed>0.510000</speed>
</trkpt>
<trkpt lat="55.900280" lon="26.529102">
<ele>109.448303</ele>
<time>2010-06-20T15:08:51Z</time>
<desc>lat.=55.900280, lon.=26.529102, Alt.=109.448303m. Speed=3.672000m/h.</desc>
<speed>1.020000</speed>
</trkpt>
<trkpt lat="55.900276" lon="26.529121">
<ele>109.557678</ele>
<time>2010-06-20T15:08:52Z</time>
<desc>lat.=55.900276, lon.=26.529121, Alt.=109.557678m. Speed=0.864000m/h.</desc>
<speed>0.240000</speed>
</trkpt>
<trkpt lat="55.900272" lon="26.529123">
<ele>109.465881</ele>
<time>2010-06-20T15:08:53Z</time>
<desc>lat.=55.900272, lon.=26.529123, Alt.=109.465881m. Speed=2.844000m/h.</desc>
<speed>0.790000</speed>
</trkpt>
<trkpt lat="55.900280" lon="26.529102">
<ele>109.469788</ele>
<time>2010-06-20T15:08:54Z</time>
<desc>lat.=55.900280, lon.=26.529102, Alt.=109.469788m. Speed=2.880000m/h.</desc>
<speed>0.800000</speed>
</trkpt>
<trkpt lat="55.900291" lon="26.529079">
<ele>109.680725</ele>
<time>2010-06-20T15:08:55Z</time>
<desc>lat.=55.900291, lon.=26.529079, Alt.=109.680725m. Speed=0.792000m/h.</desc>
<speed>0.220000</speed>
</trkpt>
<trkpt lat="55.900303" lon="26.529066">
<ele>110.313538</ele>
<time>2010-06-20T15:08:56Z</time>
<desc>lat.=55.900303, lon.=26.529066, Alt.=110.313538m. Speed=2.088000m/h.</desc>
<speed>0.580000</speed>
</trkpt>
<trkpt lat="55.900311" lon="26.529047">
<ele>110.254944</ele>
<time>2010-06-20T15:08:57Z</time>
<desc>lat.=55.900311, lon.=26.529047, Alt.=110.254944m. Speed=1.188000m/h.</desc>
<speed>0.330000</speed>
</trkpt>
<trkpt lat="55.900314" lon="26.529032">
<ele>110.376038</ele>
<time>2010-06-20T15:08:58Z</time>
<desc>lat.=55.900314, lon.=26.529032, Alt.=110.376038m. Speed=1.368000m/h.</desc>
<speed>0.380000</speed>
</trkpt>
<trkpt lat="55.900322" lon="26.529007">
<ele>110.194397</ele>
<time>2010-06-20T15:08:59Z</time>
<desc>lat.=55.900322, lon.=26.529007, Alt.=110.194397m. Speed=2.052000m/h.</desc>
<speed>0.570000</speed>
</trkpt>
<trkpt lat="55.900311" lon="26.529018">
<ele>109.836975</ele>
<time>2010-06-20T15:09:00Z</time>
<desc>lat.=55.900311, lon.=26.529018, Alt.=109.836975m. Speed=2.484000m/h.</desc>
<speed>0.690000</speed>
</trkpt>
<trkpt lat="55.900303" lon="26.529037">
<ele>109.413147</ele>
<time>2010-06-20T15:09:01Z</time>
<desc>lat.=55.900303, lon.=26.529037, Alt.=109.413147m. Speed=0.864000m/h.</desc>
<speed>0.240000</speed>
</trkpt>
<trkpt lat="55.900307" lon="26.529020">
<ele>110.094788</ele>
<time>2010-06-20T15:09:02Z</time>
<desc>lat.=55.900307, lon.=26.529020, Alt.=110.094788m. Speed=7.056000m/h.</desc>
<speed>1.960000</speed>
</trkpt>
<trkpt lat="55.900322" lon="26.528959">
<ele>109.797913</ele>
<time>2010-06-20T15:09:03Z</time>
<desc>lat.=55.900322, lon.=26.528959, Alt.=109.797913m. Speed=9.756000m/h.</desc>
<speed>2.710000</speed>
</trkpt>
<trkpt lat="55.900307" lon="26.528975">
<ele>109.631897</ele>
<time>2010-06-20T15:09:04Z</time>
<desc>lat.=55.900307, lon.=26.528975, Alt.=109.631897m. Speed=7.164000m/h.</desc>
<speed>1.990000</speed>
</trkpt>
<trkpt lat="55.900307" lon="26.528936">
<ele>109.282288</ele>
<time>2010-06-20T15:09:05Z</time>
<desc>lat.=55.900307, lon.=26.528936, Alt.=109.282288m. Speed=9.288000m/h.</desc>
<speed>2.580000</speed>
</trkpt>
<trkpt lat="55.900307" lon="26.528919">
<ele>109.188538</ele>
<time>2010-06-20T15:09:06Z</time>
<desc>lat.=55.900307, lon.=26.528919, Alt.=109.188538m. Speed=8.244000m/h.</desc>
<speed>2.290000</speed>
</trkpt>
<trkpt lat="55.900303" lon="26.528906">
<ele>109.270569</ele>
<time>2010-06-20T15:09:07Z</time>
<desc>lat.=55.900303, lon.=26.528906, Alt.=109.270569m. Speed=6.984000m/h.</desc>
<speed>1.940000</speed>
</trkpt>
<trkpt lat="55.900291" lon="26.528883">
<ele>109.170959</ele>
<time>2010-06-20T15:09:08Z</time>
<desc>lat.=55.900291, lon.=26.528883, Alt.=109.170959m. Speed=8.676000m/h.</desc>
<speed>2.410000</speed>
</trkpt>
<trkpt lat="55.900276" lon="26.528915">
<ele>109.190491</ele>
<time>2010-06-20T15:09:09Z</time>
<desc>lat.=55.900276, lon.=26.528915, Alt.=109.190491m. Speed=4.536000m/h.</desc>
<speed>1.260000</speed>
</trkpt>
<trkpt lat="55.900291" lon="26.528872">
<ele>109.372131</ele>
<time>2010-06-20T15:09:10Z</time>
<desc>lat.=55.900291, lon.=26.528872, Alt.=109.372131m. Speed=5.436000m/h.</desc>
<speed>1.510000</speed>
</trkpt>
<trkpt lat="55.900284" lon="26.528893">
<ele>108.915100</ele>
<time>2010-06-20T15:09:11Z</time>
<desc>lat.=55.900284, lon.=26.528893, Alt.=108.915100m. Speed=3.204000m/h.</desc>
<speed>0.890000</speed>
</trkpt>
<trkpt lat="55.900288" lon="26.528881">
<ele>108.934631</ele>
<time>2010-06-20T15:09:12Z</time>
<desc>lat.=55.900288, lon.=26.528881, Alt.=108.934631m. Speed=3.132000m/h.</desc>
<speed>0.870000</speed>
</trkpt>
<trkpt lat="55.900303" lon="26.528852">
<ele>108.577209</ele>
<time>2010-06-20T15:09:13Z</time>
<desc>lat.=55.900303, lon.=26.528852, Alt.=108.577209m. Speed=4.752000m/h.</desc>
<speed>1.320000</speed>
</trkpt>
<trkpt lat="55.900303" lon="26.528866">
<ele>108.325256</ele>
<time>2010-06-20T15:09:14Z</time>
<desc>lat.=55.900303, lon.=26.528866, Alt.=108.325256m. Speed=4.428000m/h.</desc>
<speed>1.230000</speed>
</trkpt>
<trkpt lat="55.900307" lon="26.528864">
<ele>108.182678</ele>
<time>2010-06-20T15:09:15Z</time>
<desc>lat.=55.900307, lon.=26.528864, Alt.=108.182678m. Speed=4.752000m/h.</desc>
<speed>1.320000</speed>
</trkpt>
<trkpt lat="55.900307" lon="26.528870">
<ele>107.877991</ele>
<time>2010-06-20T15:09:16Z</time>
<desc>lat.=55.900307, lon.=26.528870, Alt.=107.877991m. Speed=4.212000m/h.</desc>
<speed>1.170000</speed>
</trkpt>
<trkpt lat="55.900295" lon="26.528896">
<ele>107.618225</ele>
<time>2010-06-20T15:09:17Z</time>
<desc>lat.=55.900295, lon.=26.528896, Alt.=107.618225m. Speed=0.684000m/h.</desc>
<speed>0.190000</speed>
</trkpt>
<trkpt lat="55.900291" lon="26.528910">
<ele>107.284241</ele>
<time>2010-06-20T15:09:18Z</time>
<desc>lat.=55.900291, lon.=26.528910, Alt.=107.284241m. Speed=0.540000m/h.</desc>
<speed>0.150000</speed>
</trkpt>
<trkpt lat="55.900284" lon="26.528921">
<ele>107.145569</ele>
<time>2010-06-20T15:09:19Z</time>
<desc>lat.=55.900284, lon.=26.528921, Alt.=107.145569m. Speed=0.180000m/h.</desc>
<speed>0.050000</speed>
</trkpt>
<trkpt lat="55.900280" lon="26.528938">
<ele>106.379944</ele>
<time>2010-06-20T15:09:20Z</time>
<desc>lat.=55.900280, lon.=26.528938, Alt.=106.379944m. Speed=3.276000m/h.</desc>
<speed>0.910000</speed>
</trkpt>
<trkpt lat="55.900280" lon="26.528948">
<ele>105.885803</ele>
<time>2010-06-20T15:09:21Z</time>
<desc>lat.=55.900280, lon.=26.528948, Alt.=105.885803m. Speed=3.348000m/h.</desc>
<speed>0.930000</speed>
</trkpt>
<trkpt lat="55.900272" lon="26.528971">
<ele>105.692444</ele>
<time>2010-06-20T15:09:22Z</time>
<desc>lat.=55.900272, lon.=26.528971, Alt.=105.692444m. Speed=1.836000m/h.</desc>
<speed>0.510000</speed>
</trkpt>
<trkpt lat="55.900269" lon="26.528992">
<ele>105.305725</ele>
<time>2010-06-20T15:09:23Z</time>
<desc>lat.=55.900269, lon.=26.528992, Alt.=105.305725m. Speed=2.268000m/h.</desc>
<speed>0.630000</speed>
</trkpt>
<trkpt lat="55.900291" lon="26.528925">
<ele>105.038147</ele>
<time>2010-06-20T15:09:24Z</time>
<desc>lat.=55.900291, lon.=26.528925, Alt.=105.038147m. Speed=3.276000m/h.</desc>
<speed>0.910000</speed>
</trkpt>
<trkpt lat="55.900288" lon="26.528931">
<ele>104.885803</ele>
<time>2010-06-20T15:09:25Z</time>
<desc>lat.=55.900288, lon.=26.528931, Alt.=104.885803m. Speed=1.404000m/h.</desc>
<speed>0.390000</speed>
</trkpt>
<trkpt lat="55.900303" lon="26.528883">
<ele>104.864319</ele>
<time>2010-06-20T15:09:26Z</time>
<desc>lat.=55.900303, lon.=26.528883, Alt.=104.864319m. Speed=3.708000m/h.</desc>
<speed>1.030000</speed>
</trkpt>
<trkpt lat="55.900291" lon="26.528927">
<ele>104.706116</ele>
<time>2010-06-20T15:09:27Z</time>
<desc>lat.=55.900291, lon.=26.528927, Alt.=104.706116m. Speed=0.792000m/h.</desc>
<speed>0.220000</speed>
</trkpt>
<trkpt lat="55.900299" lon="26.528923">
<ele>104.475647</ele>
<time>2010-06-20T15:09:28Z</time>
<desc>lat.=55.900299, lon.=26.528923, Alt.=104.475647m. Speed=1.224000m/h.</desc>
<speed>0.340000</speed>
</trkpt>
<trkpt lat="55.900307" lon="26.528904">
<ele>104.395569</ele>
<time>2010-06-20T15:09:29Z</time>
<desc>lat.=55.900307, lon.=26.528904, Alt.=104.395569m. Speed=0.180000m/h.</desc>
<speed>0.050000</speed>
</trkpt>
<trkpt lat="55.900322" lon="26.528900">
<ele>104.524475</ele>
<time>2010-06-20T15:09:30Z</time>
<desc>lat.=55.900322, lon.=26.528900, Alt.=104.524475m. Speed=2.160000m/h.</desc>
<speed>0.600000</speed>
</trkpt>
<trkpt lat="55.900345" lon="26.528837">
<ele>104.233459</ele>
<time>2010-06-20T15:09:31Z</time>
<desc>lat.=55.900345, lon.=26.528837, Alt.=104.233459m. Speed=1.980000m/h.</desc>
<speed>0.550000</speed>
</trkpt>
<trkpt lat="55.900383" lon="26.528744">
<ele>104.167053</ele>
<time>2010-06-20T15:09:32Z</time>
<desc>lat.=55.900383, lon.=26.528744, Alt.=104.167053m. Speed=4.896000m/h.</desc>
<speed>1.360000</speed>
</trkpt>
<trkpt lat="55.900394" lon="26.528715">
<ele>104.053772</ele>
<time>2010-06-20T15:09:33Z</time>
<desc>lat.=55.900394, lon.=26.528715, Alt.=104.053772m. Speed=6.444000m/h.</desc>
<speed>1.790000</speed>
</trkpt>
<trkpt lat="55.900425" lon="26.528645">
<ele>103.926819</ele>
<time>2010-06-20T15:09:34Z</time>
<desc>lat.=55.900425, lon.=26.528645, Alt.=103.926819m. Speed=7.884000m/h.</desc>
<speed>2.190000</speed>
</trkpt>
<trkpt lat="55.900448" lon="26.528601">
<ele>103.723694</ele>
<time>2010-06-20T15:09:35Z</time>
<desc>lat.=55.900448, lon.=26.528601, Alt.=103.723694m. Speed=8.244000m/h.</desc>
<speed>2.290000</speed>
</trkpt>
<trkpt lat="55.900448" lon="26.528629">
<ele>103.622131</ele>
<time>2010-06-20T15:09:36Z</time>
<desc>lat.=55.900448, lon.=26.528629, Alt.=103.622131m. Speed=5.832000m/h.</desc>
<speed>1.620000</speed>
</trkpt>
<trkpt lat="55.900440" lon="26.528660">
<ele>103.592834</ele>
<time>2010-06-20T15:09:37Z</time>
<desc>lat.=55.900440, lon.=26.528660, Alt.=103.592834m. Speed=3.708000m/h.</desc>
<speed>1.030000</speed>
</trkpt>
<trkpt lat="55.900455" lon="26.528643">
<ele>103.485413</ele>
<time>2010-06-20T15:09:38Z</time>
<desc>lat.=55.900455, lon.=26.528643, Alt.=103.485413m. Speed=3.456000m/h.</desc>
<speed>0.960000</speed>
</trkpt>
<trkpt lat="55.900467" lon="26.528614">
<ele>103.481506</ele>
<time>2010-06-20T15:09:39Z</time>
<desc>lat.=55.900467, lon.=26.528614, Alt.=103.481506m. Speed=3.816000m/h.</desc>
<speed>1.060000</speed>
</trkpt>
<trkpt lat="55.900467" lon="26.528591">
<ele>103.473694</ele>
<time>2010-06-20T15:09:40Z</time>
<desc>lat.=55.900467, lon.=26.528591, Alt.=103.473694m. Speed=4.752000m/h.</desc>
<speed>1.320000</speed>
</trkpt>
<trkpt lat="55.900478" lon="26.528543">
<ele>103.217834</ele>
<time>2010-06-20T15:09:41Z</time>
<desc>lat.=55.900478, lon.=26.528543, Alt.=103.217834m. Speed=3.636000m/h.</desc>
<speed>1.010000</speed>
</trkpt>
<trkpt lat="55.900486" lon="26.528532">
<ele>102.958069</ele>
<time>2010-06-20T15:09:42Z</time>
<desc>lat.=55.900486, lon.=26.528532, Alt.=102.958069m. Speed=2.952000m/h.</desc>
<speed>0.820000</speed>
</trkpt>
<trkpt lat="55.900478" lon="26.528543">
<ele>102.450256</ele>
<time>2010-06-20T15:09:43Z</time>
<desc>lat.=55.900478, lon.=26.528543, Alt.=102.450256m. Speed=2.700000m/h.</desc>
<speed>0.750000</speed>
</trkpt>
<trkpt lat="55.900475" lon="26.528561">
<ele>102.006897</ele>
<time>2010-06-20T15:09:44Z</time>
<desc>lat.=55.900475, lon.=26.528561, Alt.=102.006897m. Speed=1.656000m/h.</desc>
<speed>0.460000</speed>
</trkpt>
<trkpt lat="55.900478" lon="26.528564">
<ele>101.969788</ele>
<time>2010-06-20T15:09:45Z</time>
<desc>lat.=55.900478, lon.=26.528564, Alt.=101.969788m. Speed=2.232000m/h.</desc>
<speed>0.620000</speed>
</trkpt>
<trkpt lat="55.900501" lon="26.528500">
<ele>101.512756</ele>
<time>2010-06-20T15:09:46Z</time>
<desc>lat.=55.900501, lon.=26.528500, Alt.=101.512756m. Speed=3.708000m/h.</desc>
<speed>1.030000</speed>
</trkpt>
<trkpt lat="55.900490" lon="26.528543">
<ele>101.219788</ele>
<time>2010-06-20T15:09:47Z</time>
<desc>lat.=55.900490, lon.=26.528543, Alt.=101.219788m. Speed=2.520000m/h.</desc>
<speed>0.700000</speed>
</trkpt>
<trkpt lat="55.900475" lon="26.528608">
<ele>101.143616</ele>
<time>2010-06-20T15:09:48Z</time>
<desc>lat.=55.900475, lon.=26.528608, Alt.=101.143616m. Speed=3.780000m/h.</desc>
<speed>1.050000</speed>
</trkpt>
<trkpt lat="55.900482" lon="26.528605">
<ele>100.893616</ele>
<time>2010-06-20T15:09:49Z</time>
<desc>lat.=55.900482, lon.=26.528605, Alt.=100.893616m. Speed=2.556000m/h.</desc>
<speed>0.710000</speed>
</trkpt>
<trkpt lat="55.900494" lon="26.528582">
<ele>100.637756</ele>
<time>2010-06-20T15:09:50Z</time>
<desc>lat.=55.900494, lon.=26.528582, Alt.=100.637756m. Speed=2.160000m/h.</desc>
<speed>0.600000</speed>
</trkpt>
<trkpt lat="55.900490" lon="26.528587">
<ele>100.225647</ele>
<time>2010-06-20T15:09:51Z</time>
<desc>lat.=55.900490, lon.=26.528587, Alt.=100.225647m. Speed=2.844000m/h.</desc>
<speed>0.790000</speed>
</trkpt>
<trkpt lat="55.900494" lon="26.528574">
<ele>99.946350</ele>
<time>2010-06-20T15:09:52Z</time>
<desc>lat.=55.900494, lon.=26.528574, Alt.=99.946350m. Speed=3.060000m/h.</desc>
<speed>0.850000</speed>
</trkpt>
<trkpt lat="55.900486" lon="26.528589">
<ele>99.501038</ele>
<time>2010-06-20T15:09:53Z</time>
<desc>lat.=55.900486, lon.=26.528589, Alt.=99.501038m. Speed=3.240000m/h.</desc>
<speed>0.900000</speed>
</trkpt>
<trkpt lat="55.900490" lon="26.528576">
<ele>99.469788</ele>
<time>2010-06-20T15:09:54Z</time>
<desc>lat.=55.900490, lon.=26.528576, Alt.=99.469788m. Speed=1.584000m/h.</desc>
<speed>0.440000</speed>
</trkpt>
<trkpt lat="55.900448" lon="26.528700">
<ele>99.967834</ele>
<time>2010-06-20T15:09:55Z</time>
<desc>lat.=55.900448, lon.=26.528700, Alt.=99.967834m. Speed=2.232000m/h.</desc>
<speed>0.620000</speed>
</trkpt>
<trkpt lat="55.900417" lon="26.528795">
<ele>100.594788</ele>
<time>2010-06-20T15:09:56Z</time>
<desc>lat.=55.900417, lon.=26.528795, Alt.=100.594788m. Speed=2.520000m/h.</desc>
<speed>0.700000</speed>
</trkpt>
<trkpt lat="55.900398" lon="26.528852">
<ele>100.913147</ele>
<time>2010-06-20T15:09:57Z</time>
<desc>lat.=55.900398, lon.=26.528852, Alt.=100.913147m. Speed=0.540000m/h.</desc>
<speed>0.150000</speed>
</trkpt>
<trkpt lat="55.900391" lon="26.528866">
<ele>100.440491</ele>
<time>2010-06-20T15:09:58Z</time>
<desc>lat.=55.900391, lon.=26.528866, Alt.=100.440491m. Speed=0.936000m/h.</desc>
<speed>0.260000</speed>
</trkpt>
<trkpt lat="55.900375" lon="26.528879">
<ele>100.102600</ele>
<time>2010-06-20T15:09:59Z</time>
<desc>lat.=55.900375, lon.=26.528879, Alt.=100.102600m. Speed=1.908000m/h.</desc>
<speed>0.530000</speed>
</trkpt>
<trkpt lat="55.900345" lon="26.528942">
<ele>100.108459</ele>
<time>2010-06-20T15:10:00Z</time>
<desc>lat.=55.900345, lon.=26.528942, Alt.=100.108459m. Speed=1.404000m/h.</desc>
<speed>0.390000</speed>
</trkpt>
<trkpt lat="55.900322" lon="26.528990">
<ele>100.403381</ele>
<time>2010-06-20T15:10:01Z</time>
<desc>lat.=55.900322, lon.=26.528990, Alt.=100.403381m. Speed=1.908000m/h.</desc>
<speed>0.530000</speed>
</trkpt>
<trkpt lat="55.900307" lon="26.529036">
<ele>100.778381</ele>
<time>2010-06-20T15:10:02Z</time>
<desc>lat.=55.900307, lon.=26.529036, Alt.=100.778381m. Speed=1.548000m/h.</desc>
<speed>0.430000</speed>
</trkpt>
<trkpt lat="55.900307" lon="26.529072">
<ele>101.108459</ele>
<time>2010-06-20T15:10:03Z</time>
<desc>lat.=55.900307, lon.=26.529072, Alt.=101.108459m. Speed=3.636000m/h.</desc>
<speed>1.010000</speed>
</trkpt>
<trkpt lat="55.900303" lon="26.529106">
<ele>101.473694</ele>
<time>2010-06-20T15:10:04Z</time>
<desc>lat.=55.900303, lon.=26.529106, Alt.=101.473694m. Speed=2.988000m/h.</desc>
<speed>0.830000</speed>
</trkpt>
<trkpt lat="55.900303" lon="26.529119">
<ele>101.702209</ele>
<time>2010-06-20T15:10:05Z</time>
<desc>lat.=55.900303, lon.=26.529119, Alt.=101.702209m. Speed=1.908000m/h.</desc>
<speed>0.530000</speed>
</trkpt>
<trkpt lat="55.900303" lon="26.529133">
<ele>101.756897</ele>
<time>2010-06-20T15:10:06Z</time>
<desc>lat.=55.900303, lon.=26.529133, Alt.=101.756897m. Speed=1.980000m/h.</desc>
<speed>0.550000</speed>
</trkpt>
<trkpt lat="55.900303" lon="26.529156">
<ele>101.874084</ele>
<time>2010-06-20T15:10:07Z</time>
<desc>lat.=55.900303, lon.=26.529156, Alt.=101.874084m. Speed=2.016000m/h.</desc>
<speed>0.560000</speed>
</trkpt>
<trkpt lat="55.900307" lon="26.529169">
<ele>101.961975</ele>
<time>2010-06-20T15:10:08Z</time>
<desc>lat.=55.900307, lon.=26.529169, Alt.=101.961975m. Speed=1.296000m/h.</desc>
<speed>0.360000</speed>
</trkpt>
<trkpt lat="55.900307" lon="26.529167">
<ele>102.102600</ele>
<time>2010-06-20T15:10:09Z</time>
<desc>lat.=55.900307, lon.=26.529167, Alt.=102.102600m. Speed=1.260000m/h.</desc>
<speed>0.350000</speed>
</trkpt>
<trkpt lat="55.900303" lon="26.529171">
<ele>102.069397</ele>
<time>2010-06-20T15:10:10Z</time>
<desc>lat.=55.900303, lon.=26.529171, Alt.=102.069397m. Speed=0.072000m/h.</desc>
<speed>0.020000</speed>
</trkpt>
<trkpt lat="55.900295" lon="26.529181">
<ele>101.948303</ele>
<time>2010-06-20T15:10:11Z</time>
<desc>lat.=55.900295, lon.=26.529181, Alt.=101.948303m. Speed=2.232000m/h.</desc>
<speed>0.620000</speed>
</trkpt>
<trkpt lat="55.900291" lon="26.529186">
<ele>101.938538</ele>
<time>2010-06-20T15:10:12Z</time>
<desc>lat.=55.900291, lon.=26.529186, Alt.=101.938538m. Speed=0.720000m/h.</desc>
<speed>0.200000</speed>
</trkpt>
<trkpt lat="55.900291" lon="26.529188">
<ele>102.116272</ele>
<time>2010-06-20T15:10:13Z</time>
<desc>lat.=55.900291, lon.=26.529188, Alt.=102.116272m. Speed=0.468000m/h.</desc>
<speed>0.130000</speed>
</trkpt>
<trkpt lat="55.900291" lon="26.529196">
<ele>102.307678</ele>
<time>2010-06-20T15:10:14Z</time>
<desc>lat.=55.900291, lon.=26.529196, Alt.=102.307678m. Speed=1.800000m/h.</desc>
<speed>0.500000</speed>
</trkpt>
<trkpt lat="55.900299" lon="26.529192">
<ele>102.297913</ele>
<time>2010-06-20T15:10:15Z</time>
<desc>lat.=55.900299, lon.=26.529192, Alt.=102.297913m. Speed=1.080000m/h.</desc>
<speed>0.300000</speed>
</trkpt>
<trkpt lat="55.900295" lon="26.529190">
<ele>102.223694</ele>
<time>2010-06-20T15:10:16Z</time>
<desc>lat.=55.900295, lon.=26.529190, Alt.=102.223694m. Speed=1.116000m/h.</desc>
<speed>0.310000</speed>
</trkpt>
<trkpt lat="55.900284" lon="26.529188">
<ele>102.040100</ele>
<time>2010-06-20T15:10:17Z</time>
<desc>lat.=55.900284, lon.=26.529188, Alt.=102.040100m. Speed=1.764000m/h.</desc>
<speed>0.490000</speed>
</trkpt>
<trkpt lat="55.900269" lon="26.529196">
<ele>101.934631</ele>
<time>2010-06-20T15:10:18Z</time>
<desc>lat.=55.900269, lon.=26.529196, Alt.=101.934631m. Speed=3.564000m/h.</desc>
<speed>0.990000</speed>
</trkpt>
<trkpt lat="55.900261" lon="26.529194">
<ele>102.045959</ele>
<time>2010-06-20T15:10:19Z</time>
<desc>lat.=55.900261, lon.=26.529194, Alt.=102.045959m. Speed=0.864000m/h.</desc>
<speed>0.240000</speed>
</trkpt>
<trkpt lat="55.900261" lon="26.529188">
<ele>101.928772</ele>
<time>2010-06-20T15:10:20Z</time>
<desc>lat.=55.900261, lon.=26.529188, Alt.=101.928772m. Speed=0.936000m/h.</desc>
<speed>0.260000</speed>
</trkpt>
<trkpt lat="55.900257" lon="26.529188">
<ele>102.229553</ele>
<time>2010-06-20T15:10:21Z</time>
<desc>lat.=55.900257, lon.=26.529188, Alt.=102.229553m. Speed=0.360000m/h.</desc>
<speed>0.100000</speed>
</trkpt>
<trkpt lat="55.900253" lon="26.529190">
<ele>102.768616</ele>
<time>2010-06-20T15:10:22Z</time>
<desc>lat.=55.900253, lon.=26.529190, Alt.=102.768616m. Speed=0.216000m/h.</desc>
<speed>0.060000</speed>
</trkpt>
<trkpt lat="55.900253" lon="26.529190">
<ele>102.782288</ele>
<time>2010-06-20T15:10:23Z</time>
<desc>lat.=55.900253, lon.=26.529190, Alt.=102.782288m. Speed=1.512000m/h.</desc>
<speed>0.420000</speed>
</trkpt>
<trkpt lat="55.900246" lon="26.529194">
<ele>102.920959</ele>
<time>2010-06-20T15:10:24Z</time>
<desc>lat.=55.900246, lon.=26.529194, Alt.=102.920959m. Speed=1.080000m/h.</desc>
<speed>0.300000</speed>
</trkpt>
<trkpt lat="55.900246" lon="26.529192">
<ele>102.725647</ele>
<time>2010-06-20T15:10:25Z</time>
<desc>lat.=55.900246, lon.=26.529192, Alt.=102.725647m. Speed=0.504000m/h.</desc>
<speed>0.140000</speed>
</trkpt>
<trkpt lat="55.900238" lon="26.529205">
<ele>102.760803</ele>
<time>2010-06-20T15:10:26Z</time>
<desc>lat.=55.900238, lon.=26.529205, Alt.=102.760803m. Speed=4.032000m/h.</desc>
<speed>1.120000</speed>
</trkpt>
<trkpt lat="55.900227" lon="26.529219">
<ele>102.844788</ele>
<time>2010-06-20T15:10:27Z</time>
<desc>lat.=55.900227, lon.=26.529219, Alt.=102.844788m. Speed=3.240000m/h.</desc>
<speed>0.900000</speed>
</trkpt>
<trkpt lat="55.900230" lon="26.529221">
<ele>102.708069</ele>
<time>2010-06-20T15:10:28Z</time>
<desc>lat.=55.900230, lon.=26.529221, Alt.=102.708069m. Speed=1.728000m/h.</desc>
<speed>0.480000</speed>
</trkpt>
<trkpt lat="55.900227" lon="26.529221">
<ele>102.502991</ele>
<time>2010-06-20T15:10:29Z</time>
<desc>lat.=55.900227, lon.=26.529221, Alt.=102.502991m. Speed=0.684000m/h.</desc>
<speed>0.190000</speed>
</trkpt>
<trkpt lat="55.900223" lon="26.529213">
<ele>102.544006</ele>
<time>2010-06-20T15:10:30Z</time>
<desc>lat.=55.900223, lon.=26.529213, Alt.=102.544006m. Speed=1.080000m/h.</desc>
<speed>0.300000</speed>
</trkpt>
<trkpt lat="55.900227" lon="26.529205">
<ele>102.071350</ele>
<time>2010-06-20T15:10:31Z</time>
<desc>lat.=55.900227, lon.=26.529205, Alt.=102.071350m. Speed=0.864000m/h.</desc>
<speed>0.240000</speed>
</trkpt>
<trkpt lat="55.900227" lon="26.529192">
<ele>101.809631</ele>
<time>2010-06-20T15:10:32Z</time>
<desc>lat.=55.900227, lon.=26.529192, Alt.=101.809631m. Speed=1.116000m/h.</desc>
<speed>0.310000</speed>
</trkpt>
<trkpt lat="55.900227" lon="26.529184">
<ele>101.469788</ele>
<time>2010-06-20T15:10:33Z</time>
<desc>lat.=55.900227, lon.=26.529184, Alt.=101.469788m. Speed=0.504000m/h.</desc>
<speed>0.140000</speed>
</trkpt>
<trkpt lat="55.900227" lon="26.529186">
<ele>101.672913</ele>
<time>2010-06-20T15:10:34Z</time>
<desc>lat.=55.900227, lon.=26.529186, Alt.=101.672913m. Speed=0.216000m/h.</desc>
<speed>0.060000</speed>
</trkpt>
<trkpt lat="55.900223" lon="26.529184">
<ele>101.622131</ele>
<time>2010-06-20T15:10:35Z</time>
<desc>lat.=55.900223, lon.=26.529184, Alt.=101.622131m. Speed=0.720000m/h.</desc>
<speed>0.200000</speed>
</trkpt>
<trkpt lat="55.900230" lon="26.529179">
<ele>101.538147</ele>
<time>2010-06-20T15:10:36Z</time>
<desc>lat.=55.900230, lon.=26.529179, Alt.=101.538147m. Speed=1.044000m/h.</desc>
<speed>0.290000</speed>
</trkpt>
<trkpt lat="55.900230" lon="26.529175">
<ele>101.528381</ele>
<time>2010-06-20T15:10:37Z</time>
<desc>lat.=55.900230, lon.=26.529175, Alt.=101.528381m. Speed=0.144000m/h.</desc>
<speed>0.040000</speed>
</trkpt>
<trkpt lat="55.900230" lon="26.529175">
<ele>101.530334</ele>
<time>2010-06-20T15:10:38Z</time>
<desc>lat.=55.900230, lon.=26.529175, Alt.=101.530334m. Speed=1.548000m/h.</desc>
<speed>0.430000</speed>
</trkpt>
<trkpt lat="55.900230" lon="26.529167">
<ele>101.499084</ele>
<time>2010-06-20T15:10:39Z</time>
<desc>lat.=55.900230, lon.=26.529167, Alt.=101.499084m. Speed=1.512000m/h.</desc>
<speed>0.420000</speed>
</trkpt>
<trkpt lat="55.900230" lon="26.529161">
<ele>101.723694</ele>
<time>2010-06-20T15:10:40Z</time>
<desc>lat.=55.900230, lon.=26.529161, Alt.=101.723694m. Speed=1.044000m/h.</desc>
<speed>0.290000</speed>
</trkpt>
<trkpt lat="55.900234" lon="26.529160">
<ele>101.627991</ele>
<time>2010-06-20T15:10:41Z</time>
<desc>lat.=55.900234, lon.=26.529160, Alt.=101.627991m. Speed=0.828000m/h.</desc>
<speed>0.230000</speed>
</trkpt>
<trkpt lat="55.900238" lon="26.529158">
<ele>101.366272</ele>
<time>2010-06-20T15:10:42Z</time>
<desc>lat.=55.900238, lon.=26.529158, Alt.=101.366272m. Speed=0.540000m/h.</desc>
<speed>0.150000</speed>
</trkpt>
<trkpt lat="55.900238" lon="26.529165">
<ele>101.042053</ele>
<time>2010-06-20T15:10:43Z</time>
<desc>lat.=55.900238, lon.=26.529165, Alt.=101.042053m. Speed=0.936000m/h.</desc>
<speed>0.260000</speed>
</trkpt>
<trkpt lat="55.900238" lon="26.529169">
<ele>101.040100</ele>
<time>2010-06-20T15:10:44Z</time>
<desc>lat.=55.900238, lon.=26.529169, Alt.=101.040100m. Speed=0.612000m/h.</desc>
<speed>0.170000</speed>
</trkpt>
<trkpt lat="55.900238" lon="26.529169">
<ele>101.038147</ele>
<time>2010-06-20T15:10:45Z</time>
<desc>lat.=55.900238, lon.=26.529169, Alt.=101.038147m. Speed=0.864000m/h.</desc>
<speed>0.240000</speed>
</trkpt>
<trkpt lat="55.900242" lon="26.529171">
<ele>101.049866</ele>
<time>2010-06-20T15:10:46Z</time>
<desc>lat.=55.900242, lon.=26.529171, Alt.=101.049866m. Speed=0.360000m/h.</desc>
<speed>0.100000</speed>
</trkpt>
<trkpt lat="55.900242" lon="26.529169">
<ele>101.083069</ele>
<time>2010-06-20T15:10:47Z</time>
<desc>lat.=55.900242, lon.=26.529169, Alt.=101.083069m. Speed=2.376000m/h.</desc>
<speed>0.660000</speed>
</trkpt>
<trkpt lat="55.900238" lon="26.529165">
<ele>101.362366</ele>
<time>2010-06-20T15:10:48Z</time>
<desc>lat.=55.900238, lon.=26.529165, Alt.=101.362366m. Speed=1.944000m/h.</desc>
<speed>0.540000</speed>
</trkpt>
<trkpt lat="55.900246" lon="26.529152">
<ele>101.522522</ele>
<time>2010-06-20T15:10:49Z</time>
<desc>lat.=55.900246, lon.=26.529152, Alt.=101.522522m. Speed=1.080000m/h.</desc>
<speed>0.300000</speed>
</trkpt>
<trkpt lat="55.900257" lon="26.529144">
<ele>102.186584</ele>
<time>2010-06-20T15:10:50Z</time>
<desc>lat.=55.900257, lon.=26.529144, Alt.=102.186584m. Speed=0.648000m/h.</desc>
<speed>0.180000</speed>
</trkpt>
<trkpt lat="55.900261" lon="26.529139">
<ele>102.419006</ele>
<time>2010-06-20T15:10:51Z</time>
<desc>lat.=55.900261, lon.=26.529139, Alt.=102.419006m. Speed=0.720000m/h.</desc>
<speed>0.200000</speed>
</trkpt>
<trkpt lat="55.900265" lon="26.529135">
<ele>102.694397</ele>
<time>2010-06-20T15:10:52Z</time>
<desc>lat.=55.900265, lon.=26.529135, Alt.=102.694397m. Speed=0.396000m/h.</desc>
<speed>0.110000</speed>
</trkpt>
<trkpt lat="55.900272" lon="26.529129">
<ele>102.985413</ele>
<time>2010-06-20T15:10:53Z</time>
<desc>lat.=55.900272, lon.=26.529129, Alt.=102.985413m. Speed=0.288000m/h.</desc>
<speed>0.080000</speed>
</trkpt>
<trkpt lat="55.900269" lon="26.529129">
<ele>103.024475</ele>
<time>2010-06-20T15:10:54Z</time>
<desc>lat.=55.900269, lon.=26.529129, Alt.=103.024475m. Speed=1.332000m/h.</desc>
<speed>0.370000</speed>
</trkpt>
<trkpt lat="55.900272" lon="26.529139">
<ele>103.227600</ele>
<time>2010-06-20T15:10:55Z</time>
<desc>lat.=55.900272, lon.=26.529139, Alt.=103.227600m. Speed=2.088000m/h.</desc>
<speed>0.580000</speed>
</trkpt>
<trkpt lat="55.900276" lon="26.529144">
<ele>103.381897</ele>
<time>2010-06-20T15:10:56Z</time>
<desc>lat.=55.900276, lon.=26.529144, Alt.=103.381897m. Speed=1.296000m/h.</desc>
<speed>0.360000</speed>
</trkpt>
<trkpt lat="55.900280" lon="26.529140">
<ele>103.280334</ele>
<time>2010-06-20T15:10:57Z</time>
<desc>lat.=55.900280, lon.=26.529140, Alt.=103.280334m. Speed=0.072000m/h.</desc>
<speed>0.020000</speed>
</trkpt>
<trkpt lat="55.900284" lon="26.529127">
<ele>103.268616</ele>
<time>2010-06-20T15:10:58Z</time>
<desc>lat.=55.900284, lon.=26.529127, Alt.=103.268616m. Speed=1.476000m/h.</desc>
<speed>0.410000</speed>
</trkpt>
<trkpt lat="55.900291" lon="26.529121">
<ele>103.022522</ele>
<time>2010-06-20T15:10:59Z</time>
<desc>lat.=55.900291, lon.=26.529121, Alt.=103.022522m. Speed=1.404000m/h.</desc>
<speed>0.390000</speed>
</trkpt>
<trkpt lat="55.900299" lon="26.529114">
<ele>102.752991</ele>
<time>2010-06-20T15:11:00Z</time>
<desc>lat.=55.900299, lon.=26.529114, Alt.=102.752991m. Speed=1.044000m/h.</desc>
<speed>0.290000</speed>
</trkpt>
<trkpt lat="55.900307" lon="26.529104">
<ele>102.762756</ele>
<time>2010-06-20T15:11:01Z</time>
<desc>lat.=55.900307, lon.=26.529104, Alt.=102.762756m. Speed=0.720000m/h.</desc>
<speed>0.200000</speed>
</trkpt>
<trkpt lat="55.900307" lon="26.529095">
<ele>102.729553</ele>
<time>2010-06-20T15:11:02Z</time>
<desc>lat.=55.900307, lon.=26.529095, Alt.=102.729553m. Speed=2.628000m/h.</desc>
<speed>0.730000</speed>
</trkpt>
<trkpt lat="55.900307" lon="26.529100">
<ele>102.743225</ele>
<time>2010-06-20T15:11:03Z</time>
<desc>lat.=55.900307, lon.=26.529100, Alt.=102.743225m. Speed=2.880000m/h.</desc>
<speed>0.800000</speed>
</trkpt>
<trkpt lat="55.900314" lon="26.529091">
<ele>102.745178</ele>
<time>2010-06-20T15:11:04Z</time>
<desc>lat.=55.900314, lon.=26.529091, Alt.=102.745178m. Speed=0.936000m/h.</desc>
<speed>0.260000</speed>
</trkpt>
<trkpt lat="55.900326" lon="26.529083">
<ele>102.844788</ele>
<time>2010-06-20T15:11:05Z</time>
<desc>lat.=55.900326, lon.=26.529083, Alt.=102.844788m. Speed=0.828000m/h.</desc>
<speed>0.230000</speed>
</trkpt>
<trkpt lat="55.900330" lon="26.529074">
<ele>102.764709</ele>
<time>2010-06-20T15:11:06Z</time>
<desc>lat.=55.900330, lon.=26.529074, Alt.=102.764709m. Speed=0.612000m/h.</desc>
<speed>0.170000</speed>
</trkpt>
<trkpt lat="55.900337" lon="26.529060">
<ele>102.567444</ele>
<time>2010-06-20T15:11:07Z</time>
<desc>lat.=55.900337, lon.=26.529060, Alt.=102.567444m. Speed=1.728000m/h.</desc>
<speed>0.480000</speed>
</trkpt>
<trkpt lat="55.900345" lon="26.529049">
<ele>102.295959</ele>
<time>2010-06-20T15:11:08Z</time>
<desc>lat.=55.900345, lon.=26.529049, Alt.=102.295959m. Speed=0.252000m/h.</desc>
<speed>0.070000</speed>
</trkpt>
<trkpt lat="55.900352" lon="26.529041">
<ele>102.094788</ele>
<time>2010-06-20T15:11:09Z</time>
<desc>lat.=55.900352, lon.=26.529041, Alt.=102.094788m. Speed=0.684000m/h.</desc>
<speed>0.190000</speed>
</trkpt>
<trkpt lat="55.900360" lon="26.529034">
<ele>101.762756</ele>
<time>2010-06-20T15:11:10Z</time>
<desc>lat.=55.900360, lon.=26.529034, Alt.=101.762756m. Speed=1.368000m/h.</desc>
<speed>0.380000</speed>
</trkpt>
<trkpt lat="55.900368" lon="26.529022">
<ele>101.376038</ele>
<time>2010-06-20T15:11:11Z</time>
<desc>lat.=55.900368, lon.=26.529022, Alt.=101.376038m. Speed=0.936000m/h.</desc>
<speed>0.260000</speed>
</trkpt>
<trkpt lat="55.900372" lon="26.529020">
<ele>101.333069</ele>
<time>2010-06-20T15:11:12Z</time>
<desc>lat.=55.900372, lon.=26.529020, Alt.=101.333069m. Speed=0.612000m/h.</desc>
<speed>0.170000</speed>
</trkpt>
<trkpt lat="55.900368" lon="26.529020">
<ele>101.415100</ele>
<time>2010-06-20T15:11:13Z</time>
<desc>lat.=55.900368, lon.=26.529020, Alt.=101.415100m. Speed=1.584000m/h.</desc>
<speed>0.440000</speed>
</trkpt>
<trkpt lat="55.900368" lon="26.529013">
<ele>101.399475</ele>
<time>2010-06-20T15:11:14Z</time>
<desc>lat.=55.900368, lon.=26.529013, Alt.=101.399475m. Speed=0.540000m/h.</desc>
<speed>0.150000</speed>
</trkpt>
<trkpt lat="55.900375" lon="26.528999">
<ele>101.342834</ele>
<time>2010-06-20T15:11:15Z</time>
<desc>lat.=55.900375, lon.=26.528999, Alt.=101.342834m. Speed=1.512000m/h.</desc>
<speed>0.420000</speed>
</trkpt>
<trkpt lat="55.900375" lon="26.528992">
<ele>101.297913</ele>
<time>2010-06-20T15:11:16Z</time>
<desc>lat.=55.900375, lon.=26.528992, Alt.=101.297913m. Speed=0.252000m/h.</desc>
<speed>0.070000</speed>
</trkpt>
<trkpt lat="55.900383" lon="26.528982">
<ele>101.303772</ele>
<time>2010-06-20T15:11:17Z</time>
<desc>lat.=55.900383, lon.=26.528982, Alt.=101.303772m. Speed=0.180000m/h.</desc>
<speed>0.050000</speed>
</trkpt>
<trkpt lat="55.900383" lon="26.528976">
<ele>101.213928</ele>
<time>2010-06-20T15:11:18Z</time>
<desc>lat.=55.900383, lon.=26.528976, Alt.=101.213928m. Speed=0.720000m/h.</desc>
<speed>0.200000</speed>
</trkpt>
<trkpt lat="55.900391" lon="26.528969">
<ele>100.928772</ele>
<time>2010-06-20T15:11:19Z</time>
<desc>lat.=55.900391, lon.=26.528969, Alt.=100.928772m. Speed=1.728000m/h.</desc>
<speed>0.480000</speed>
</trkpt>
<trkpt lat="55.900398" lon="26.528965">
<ele>100.881897</ele>
<time>2010-06-20T15:11:20Z</time>
<desc>lat.=55.900398, lon.=26.528965, Alt.=100.881897m. Speed=1.116000m/h.</desc>
<speed>0.310000</speed>
</trkpt>
<trkpt lat="55.900398" lon="26.528961">
<ele>100.926819</ele>
<time>2010-06-20T15:11:21Z</time>
<desc>lat.=55.900398, lon.=26.528961, Alt.=100.926819m. Speed=2.016000m/h.</desc>
<speed>0.560000</speed>
</trkpt>
<trkpt lat="55.900406" lon="26.528954">
<ele>100.942444</ele>
<time>2010-06-20T15:11:22Z</time>
<desc>lat.=55.900406, lon.=26.528954, Alt.=100.942444m. Speed=1.512000m/h.</desc>
<speed>0.420000</speed>
</trkpt>
<trkpt lat="55.900406" lon="26.528944">
<ele>100.807678</ele>
<time>2010-06-20T15:11:23Z</time>
<desc>lat.=55.900406, lon.=26.528944, Alt.=100.807678m. Speed=1.440000m/h.</desc>
<speed>0.400000</speed>
</trkpt>
<trkpt lat="55.900402" lon="26.528934">
<ele>100.924866</ele>
<time>2010-06-20T15:11:24Z</time>
<desc>lat.=55.900402, lon.=26.528934, Alt.=100.924866m. Speed=0.792000m/h.</desc>
<speed>0.220000</speed>
</trkpt>
<trkpt lat="55.900398" lon="26.528923">
<ele>101.129944</ele>
<time>2010-06-20T15:11:25Z</time>
<desc>lat.=55.900398, lon.=26.528923, Alt.=101.129944m. Speed=1.656000m/h.</desc>
<speed>0.460000</speed>
</trkpt>
<trkpt lat="55.900391" lon="26.528910">
<ele>101.256897</ele>
<time>2010-06-20T15:11:26Z</time>
<desc>lat.=55.900391, lon.=26.528910, Alt.=101.256897m. Speed=1.368000m/h.</desc>
<speed>0.380000</speed>
</trkpt>
<trkpt lat="55.900383" lon="26.528908">
<ele>101.413147</ele>
<time>2010-06-20T15:11:27Z</time>
<desc>lat.=55.900383, lon.=26.528908, Alt.=101.413147m. Speed=0.936000m/h.</desc>
<speed>0.260000</speed>
</trkpt>
<trkpt lat="55.900372" lon="26.528906">
<ele>101.567444</ele>
<time>2010-06-20T15:11:28Z</time>
<desc>lat.=55.900372, lon.=26.528906, Alt.=101.567444m. Speed=2.196000m/h.</desc>
<speed>0.610000</speed>
</trkpt>
<trkpt lat="55.900364" lon="26.528908">
<ele>101.889709</ele>
<time>2010-06-20T15:11:29Z</time>
<desc>lat.=55.900364, lon.=26.528908, Alt.=101.889709m. Speed=0.972000m/h.</desc>
<speed>0.270000</speed>
</trkpt>
<trkpt lat="55.900356" lon="26.528917">
<ele>102.251038</ele>
<time>2010-06-20T15:11:30Z</time>
<desc>lat.=55.900356, lon.=26.528917, Alt.=102.251038m. Speed=1.908000m/h.</desc>
<speed>0.530000</speed>
</trkpt>
<trkpt lat="55.900345" lon="26.528931">
<ele>102.555725</ele>
<time>2010-06-20T15:11:31Z</time>
<desc>lat.=55.900345, lon.=26.528931, Alt.=102.555725m. Speed=1.872000m/h.</desc>
<speed>0.520000</speed>
</trkpt>
<trkpt lat="55.900341" lon="26.528940">
<ele>102.752991</ele>
<time>2010-06-20T15:11:32Z</time>
<desc>lat.=55.900341, lon.=26.528940, Alt.=102.752991m. Speed=3.312000m/h.</desc>
<speed>0.920000</speed>
</trkpt>
<trkpt lat="55.900337" lon="26.528940">
<ele>102.852600</ele>
<time>2010-06-20T15:11:33Z</time>
<desc>lat.=55.900337, lon.=26.528940, Alt.=102.852600m. Speed=0.432000m/h.</desc>
<speed>0.120000</speed>
</trkpt>
<trkpt lat="55.900330" lon="26.528940">
<ele>102.965881</ele>
<time>2010-06-20T15:11:34Z</time>
<desc>lat.=55.900330, lon.=26.528940, Alt.=102.965881m. Speed=0.504000m/h.</desc>
<speed>0.140000</speed>
</trkpt>
<trkpt lat="55.900322" lon="26.528940">
<ele>103.061584</ele>
<time>2010-06-20T15:11:35Z</time>
<desc>lat.=55.900322, lon.=26.528940, Alt.=103.061584m. Speed=1.332000m/h.</desc>
<speed>0.370000</speed>
</trkpt>
<trkpt lat="55.900318" lon="26.528931">
<ele>103.231506</ele>
<time>2010-06-20T15:11:36Z</time>
<desc>lat.=55.900318, lon.=26.528931, Alt.=103.231506m. Speed=0.576000m/h.</desc>
<speed>0.160000</speed>
</trkpt>
<trkpt lat="55.900314" lon="26.528934">
<ele>103.600647</ele>
<time>2010-06-20T15:11:37Z</time>
<desc>lat.=55.900314, lon.=26.528934, Alt.=103.600647m. Speed=1.692000m/h.</desc>
<speed>0.470000</speed>
</trkpt>
<trkpt lat="55.900322" lon="26.528921">
<ele>103.889709</ele>
<time>2010-06-20T15:11:38Z</time>
<desc>lat.=55.900322, lon.=26.528921, Alt.=103.889709m. Speed=1.800000m/h.</desc>
<speed>0.500000</speed>
</trkpt>
<trkpt lat="55.900330" lon="26.528923">
<ele>104.065491</ele>
<time>2010-06-20T15:11:39Z</time>
<desc>lat.=55.900330, lon.=26.528923, Alt.=104.065491m. Speed=0.468000m/h.</desc>
<speed>0.130000</speed>
</trkpt>
<trkpt lat="55.900330" lon="26.528917">
<ele>104.198303</ele>
<time>2010-06-20T15:11:40Z</time>
<desc>lat.=55.900330, lon.=26.528917, Alt.=104.198303m. Speed=0.720000m/h.</desc>
<speed>0.200000</speed>
</trkpt>
<trkpt lat="55.900333" lon="26.528898">
<ele>104.381897</ele>
<time>2010-06-20T15:11:41Z</time>
<desc>lat.=55.900333, lon.=26.528898, Alt.=104.381897m. Speed=2.628000m/h.</desc>
<speed>0.730000</speed>
</trkpt>
<trkpt lat="55.900322" lon="26.528896">
<ele>104.506897</ele>
<time>2010-06-20T15:11:42Z</time>
<desc>lat.=55.900322, lon.=26.528896, Alt.=104.506897m. Speed=0.900000m/h.</desc>
<speed>0.250000</speed>
</trkpt>
<trkpt lat="55.900318" lon="26.528883">
<ele>104.821350</ele>
<time>2010-06-20T15:11:43Z</time>
<desc>lat.=55.900318, lon.=26.528883, Alt.=104.821350m. Speed=2.052000m/h.</desc>
<speed>0.570000</speed>
</trkpt>
<trkpt lat="55.900318" lon="26.528873">
<ele>104.669006</ele>
<time>2010-06-20T15:11:44Z</time>
<desc>lat.=55.900318, lon.=26.528873, Alt.=104.669006m. Speed=1.116000m/h.</desc>
<speed>0.310000</speed>
</trkpt>
<trkpt lat="55.900318" lon="26.528872">
<ele>104.647522</ele>
<time>2010-06-20T15:11:45Z</time>
<desc>lat.=55.900318, lon.=26.528872, Alt.=104.647522m. Speed=1.440000m/h.</desc>
<speed>0.400000</speed>
</trkpt>
<trkpt lat="55.900318" lon="26.528872">
<ele>104.745178</ele>
<time>2010-06-20T15:11:46Z</time>
<desc>lat.=55.900318, lon.=26.528872, Alt.=104.745178m. Speed=0.720000m/h.</desc>
<speed>0.200000</speed>
</trkpt>
<trkpt lat="55.900322" lon="26.528870">
<ele>104.797913</ele>
<time>2010-06-20T15:11:47Z</time>
<desc>lat.=55.900322, lon.=26.528870, Alt.=104.797913m. Speed=0.504000m/h.</desc>
<speed>0.140000</speed>
</trkpt>
<trkpt lat="55.900330" lon="26.528862">
<ele>104.592834</ele>
<time>2010-06-20T15:11:48Z</time>
<desc>lat.=55.900330, lon.=26.528862, Alt.=104.592834m. Speed=3.636000m/h.</desc>
<speed>1.010000</speed>
</trkpt>
<trkpt lat="55.900333" lon="26.528858">
<ele>104.432678</ele>
<time>2010-06-20T15:11:49Z</time>
<desc>lat.=55.900333, lon.=26.528858, Alt.=104.432678m. Speed=2.196000m/h.</desc>
<speed>0.610000</speed>
</trkpt>
<trkpt lat="55.900333" lon="26.528868">
<ele>104.303772</ele>
<time>2010-06-20T15:11:50Z</time>
<desc>lat.=55.900333, lon.=26.528868, Alt.=104.303772m. Speed=1.296000m/h.</desc>
<speed>0.360000</speed>
</trkpt>
<trkpt lat="55.900337" lon="26.528875">
<ele>104.208069</ele>
<time>2010-06-20T15:11:51Z</time>
<desc>lat.=55.900337, lon.=26.528875, Alt.=104.208069m. Speed=0.864000m/h.</desc>
<speed>0.240000</speed>
</trkpt>
<trkpt lat="55.900345" lon="26.528879">
<ele>104.274475</ele>
<time>2010-06-20T15:11:52Z</time>
<desc>lat.=55.900345, lon.=26.528879, Alt.=104.274475m. Speed=1.044000m/h.</desc>
<speed>0.290000</speed>
</trkpt>
<trkpt lat="55.900356" lon="26.528873">
<ele>104.415100</ele>
<time>2010-06-20T15:11:53Z</time>
<desc>lat.=55.900356, lon.=26.528873, Alt.=104.415100m. Speed=3.384000m/h.</desc>
<speed>0.940000</speed>
</trkpt>
<trkpt lat="55.900356" lon="26.528887">
<ele>104.801819</ele>
<time>2010-06-20T15:11:54Z</time>
<desc>lat.=55.900356, lon.=26.528887, Alt.=104.801819m. Speed=1.548000m/h.</desc>
<speed>0.430000</speed>
</trkpt>
<trkpt lat="55.900352" lon="26.528908">
<ele>104.922913</ele>
<time>2010-06-20T15:11:55Z</time>
<desc>lat.=55.900352, lon.=26.528908, Alt.=104.922913m. Speed=1.908000m/h.</desc>
<speed>0.530000</speed>
</trkpt>
<trkpt lat="55.900352" lon="26.528919">
<ele>105.079163</ele>
<time>2010-06-20T15:11:56Z</time>
<desc>lat.=55.900352, lon.=26.528919, Alt.=105.079163m. Speed=2.232000m/h.</desc>
<speed>0.620000</speed>
</trkpt>
<trkpt lat="55.900352" lon="26.528921">
<ele>105.305725</ele>
<time>2010-06-20T15:11:57Z</time>
<desc>lat.=55.900352, lon.=26.528921, Alt.=105.305725m. Speed=0.828000m/h.</desc>
<speed>0.230000</speed>
</trkpt>
<trkpt lat="55.900356" lon="26.528923">
<ele>105.669006</ele>
<time>2010-06-20T15:11:58Z</time>
<desc>lat.=55.900356, lon.=26.528923, Alt.=105.669006m. Speed=0.576000m/h.</desc>
<speed>0.160000</speed>
</trkpt>
<trkpt lat="55.900360" lon="26.528927">
<ele>105.952209</ele>
<time>2010-06-20T15:11:59Z</time>
<desc>lat.=55.900360, lon.=26.528927, Alt.=105.952209m. Speed=1.548000m/h.</desc>
<speed>0.430000</speed>
</trkpt>
<trkpt lat="55.900360" lon="26.528934">
<ele>105.961975</ele>
<time>2010-06-20T15:12:00Z</time>
<desc>lat.=55.900360, lon.=26.528934, Alt.=105.961975m. Speed=0.684000m/h.</desc>
<speed>0.190000</speed>
</trkpt>
<trkpt lat="55.900360" lon="26.528940">
<ele>105.944397</ele>
<time>2010-06-20T15:12:01Z</time>
<desc>lat.=55.900360, lon.=26.528940, Alt.=105.944397m. Speed=1.764000m/h.</desc>
<speed>0.490000</speed>
</trkpt>
<trkpt lat="55.900360" lon="26.528940">
<ele>106.485413</ele>
<time>2010-06-20T15:12:02Z</time>
<desc>lat.=55.900360, lon.=26.528940, Alt.=106.485413m. Speed=0.684000m/h.</desc>
<speed>0.190000</speed>
</trkpt>
<trkpt lat="55.900368" lon="26.528942">
<ele>106.444397</ele>
<time>2010-06-20T15:12:03Z</time>
<desc>lat.=55.900368, lon.=26.528942, Alt.=106.444397m. Speed=1.044000m/h.</desc>
<speed>0.290000</speed>
</trkpt>
<trkpt lat="55.900372" lon="26.528940">
<ele>106.444397</ele>
<time>2010-06-20T15:12:04Z</time>
<desc>lat.=55.900372, lon.=26.528940, Alt.=106.444397m. Speed=3.564000m/h.</desc>
<speed>0.990000</speed>
</trkpt>
<trkpt lat="55.900375" lon="26.528938">
<ele>106.395569</ele>
<time>2010-06-20T15:12:05Z</time>
<desc>lat.=55.900375, lon.=26.528938, Alt.=106.395569m. Speed=1.512000m/h.</desc>
<speed>0.420000</speed>
</trkpt>
<trkpt lat="55.900379" lon="26.528933">
<ele>106.405334</ele>
<time>2010-06-20T15:12:06Z</time>
<desc>lat.=55.900379, lon.=26.528933, Alt.=106.405334m. Speed=2.304000m/h.</desc>
<speed>0.640000</speed>
</trkpt>
<trkpt lat="55.900383" lon="26.528919">
<ele>106.391663</ele>
<time>2010-06-20T15:12:07Z</time>
<desc>lat.=55.900383, lon.=26.528919, Alt.=106.391663m. Speed=3.420000m/h.</desc>
<speed>0.950000</speed>
</trkpt>
<trkpt lat="55.900383" lon="26.528906">
<ele>106.362366</ele>
<time>2010-06-20T15:12:08Z</time>
<desc>lat.=55.900383, lon.=26.528906, Alt.=106.362366m. Speed=3.420000m/h.</desc>
<speed>0.950000</speed>
</trkpt>
<trkpt lat="55.900383" lon="26.528894">
<ele>106.420959</ele>
<time>2010-06-20T15:12:09Z</time>
<desc>lat.=55.900383, lon.=26.528894, Alt.=106.420959m. Speed=3.168000m/h.</desc>
<speed>0.880000</speed>
</trkpt>
<trkpt lat="55.900379" lon="26.528887">
<ele>106.395569</ele>
<time>2010-06-20T15:12:10Z</time>
<desc>lat.=55.900379, lon.=26.528887, Alt.=106.395569m. Speed=1.836000m/h.</desc>
<speed>0.510000</speed>
</trkpt>
<trkpt lat="55.900379" lon="26.528883">
<ele>106.403381</ele>
<time>2010-06-20T15:12:11Z</time>
<desc>lat.=55.900379, lon.=26.528883, Alt.=106.403381m. Speed=1.404000m/h.</desc>
<speed>0.390000</speed>
</trkpt>
<trkpt lat="55.900375" lon="26.528893">
<ele>106.374084</ele>
<time>2010-06-20T15:12:12Z</time>
<desc>lat.=55.900375, lon.=26.528893, Alt.=106.374084m. Speed=1.476000m/h.</desc>
<speed>0.410000</speed>
</trkpt>
<trkpt lat="55.900368" lon="26.528912">
<ele>106.356506</ele>
<time>2010-06-20T15:12:13Z</time>
<desc>lat.=55.900368, lon.=26.528912, Alt.=106.356506m. Speed=3.276000m/h.</desc>
<speed>0.910000</speed>
</trkpt>
<trkpt lat="55.900364" lon="26.528919">
<ele>106.311584</ele>
<time>2010-06-20T15:12:14Z</time>
<desc>lat.=55.900364, lon.=26.528919, Alt.=106.311584m. Speed=1.548000m/h.</desc>
<speed>0.430000</speed>
</trkpt>
<trkpt lat="55.900368" lon="26.528913">
<ele>106.145569</ele>
<time>2010-06-20T15:12:15Z</time>
<desc>lat.=55.900368, lon.=26.528913, Alt.=106.145569m. Speed=0.900000m/h.</desc>
<speed>0.250000</speed>
</trkpt>
<trkpt lat="55.900360" lon="26.528923">
<ele>106.086975</ele>
<time>2010-06-20T15:12:16Z</time>
<desc>lat.=55.900360, lon.=26.528923, Alt.=106.086975m. Speed=1.512000m/h.</desc>
<speed>0.420000</speed>
</trkpt>
<trkpt lat="55.900356" lon="26.528929">
<ele>105.993225</ele>
<time>2010-06-20T15:12:17Z</time>
<desc>lat.=55.900356, lon.=26.528929, Alt.=105.993225m. Speed=1.728000m/h.</desc>
<speed>0.480000</speed>
</trkpt>
<trkpt lat="55.900352" lon="26.528925">
<ele>106.116272</ele>
<time>2010-06-20T15:12:18Z</time>
<desc>lat.=55.900352, lon.=26.528925, Alt.=106.116272m. Speed=1.656000m/h.</desc>
<speed>0.460000</speed>
</trkpt>
<trkpt lat="55.900345" lon="26.528931">
<ele>106.323303</ele>
<time>2010-06-20T15:12:19Z</time>
<desc>lat.=55.900345, lon.=26.528931, Alt.=106.323303m. Speed=1.080000m/h.</desc>
<speed>0.300000</speed>
</trkpt>
<trkpt lat="55.900341" lon="26.528940">
<ele>106.497131</ele>
<time>2010-06-20T15:12:20Z</time>
<desc>lat.=55.900341, lon.=26.528940, Alt.=106.497131m. Speed=1.908000m/h.</desc>
<speed>0.530000</speed>
</trkpt>
<trkpt lat="55.900333" lon="26.528954">
<ele>106.821350</ele>
<time>2010-06-20T15:12:21Z</time>
<desc>lat.=55.900333, lon.=26.528954, Alt.=106.821350m. Speed=1.584000m/h.</desc>
<speed>0.440000</speed>
</trkpt>
<trkpt lat="55.900322" lon="26.528969">
<ele>107.038147</ele>
<time>2010-06-20T15:12:22Z</time>
<desc>lat.=55.900322, lon.=26.528969, Alt.=107.038147m. Speed=1.116000m/h.</desc>
<speed>0.310000</speed>
</trkpt>
<trkpt lat="55.900314" lon="26.528980">
<ele>107.272522</ele>
<time>2010-06-20T15:12:23Z</time>
<desc>lat.=55.900314, lon.=26.528980, Alt.=107.272522m. Speed=2.988000m/h.</desc>
<speed>0.830000</speed>
</trkpt>
<trkpt lat="55.900311" lon="26.528992">
<ele>107.278381</ele>
<time>2010-06-20T15:12:24Z</time>
<desc>lat.=55.900311, lon.=26.528992, Alt.=107.278381m. Speed=2.088000m/h.</desc>
<speed>0.580000</speed>
</trkpt>
<trkpt lat="55.900311" lon="26.528999">
<ele>107.290100</ele>
<time>2010-06-20T15:12:25Z</time>
<desc>lat.=55.900311, lon.=26.528999, Alt.=107.290100m. Speed=2.160000m/h.</desc>
<speed>0.600000</speed>
</trkpt>
<trkpt lat="55.900311" lon="26.528997">
<ele>107.346741</ele>
<time>2010-06-20T15:12:26Z</time>
<desc>lat.=55.900311, lon.=26.528997, Alt.=107.346741m. Speed=0.324000m/h.</desc>
<speed>0.090000</speed>
</trkpt>
<trkpt lat="55.900303" lon="26.529005">
<ele>107.323303</ele>
<time>2010-06-20T15:12:27Z</time>
<desc>lat.=55.900303, lon.=26.529005, Alt.=107.323303m. Speed=3.096000m/h.</desc>
<speed>0.860000</speed>
</trkpt>
<trkpt lat="55.900307" lon="26.528997">
<ele>107.294006</ele>
<time>2010-06-20T15:12:28Z</time>
<desc>lat.=55.900307, lon.=26.528997, Alt.=107.294006m. Speed=0.396000m/h.</desc>
<speed>0.110000</speed>
</trkpt>
<trkpt lat="55.900295" lon="26.529001">
<ele>107.368225</ele>
<time>2010-06-20T15:12:29Z</time>
<desc>lat.=55.900295, lon.=26.529001, Alt.=107.368225m. Speed=0.900000m/h.</desc>
<speed>0.250000</speed>
</trkpt>
<trkpt lat="55.900288" lon="26.528994">
<ele>107.401428</ele>
<time>2010-06-20T15:12:30Z</time>
<desc>lat.=55.900288, lon.=26.528994, Alt.=107.401428m. Speed=1.656000m/h.</desc>
<speed>0.460000</speed>
</trkpt>
<trkpt lat="55.900280" lon="26.528992">
<ele>107.401428</ele>
<time>2010-06-20T15:12:31Z</time>
<desc>lat.=55.900280, lon.=26.528992, Alt.=107.401428m. Speed=0.432000m/h.</desc>
<speed>0.120000</speed>
</trkpt>
<trkpt lat="55.900276" lon="26.528996">
<ele>107.422913</ele>
<time>2010-06-20T15:12:32Z</time>
<desc>lat.=55.900276, lon.=26.528996, Alt.=107.422913m. Speed=1.620000m/h.</desc>
<speed>0.450000</speed>
</trkpt>
<trkpt lat="55.900269" lon="26.529011">
<ele>107.524475</ele>
<time>2010-06-20T15:12:33Z</time>
<desc>lat.=55.900269, lon.=26.529011, Alt.=107.524475m. Speed=1.836000m/h.</desc>
<speed>0.510000</speed>
</trkpt>
<trkpt lat="55.900265" lon="26.529022">
<ele>107.678772</ele>
<time>2010-06-20T15:12:34Z</time>
<desc>lat.=55.900265, lon.=26.529022, Alt.=107.678772m. Speed=3.132000m/h.</desc>
<speed>0.870000</speed>
</trkpt>
<trkpt lat="55.900257" lon="26.529039">
<ele>107.907288</ele>
<time>2010-06-20T15:12:35Z</time>
<desc>lat.=55.900257, lon.=26.529039, Alt.=107.907288m. Speed=3.492000m/h.</desc>
<speed>0.970000</speed>
</trkpt>
<trkpt lat="55.900249" lon="26.529039">
<ele>108.104553</ele>
<time>2010-06-20T15:12:36Z</time>
<desc>lat.=55.900249, lon.=26.529039, Alt.=108.104553m. Speed=1.656000m/h.</desc>
<speed>0.460000</speed>
</trkpt>
<trkpt lat="55.900253" lon="26.529022">
<ele>108.356506</ele>
<time>2010-06-20T15:12:37Z</time>
<desc>lat.=55.900253, lon.=26.529022, Alt.=108.356506m. Speed=1.728000m/h.</desc>
<speed>0.480000</speed>
</trkpt>
<trkpt lat="55.900246" lon="26.529020">
<ele>108.600647</ele>
<time>2010-06-20T15:12:38Z</time>
<desc>lat.=55.900246, lon.=26.529020, Alt.=108.600647m. Speed=0.900000m/h.</desc>
<speed>0.250000</speed>
</trkpt>
<trkpt lat="55.900238" lon="26.529022">
<ele>108.747131</ele>
<time>2010-06-20T15:12:39Z</time>
<desc>lat.=55.900238, lon.=26.529022, Alt.=108.747131m. Speed=1.260000m/h.</desc>
<speed>0.350000</speed>
</trkpt>
<trkpt lat="55.900230" lon="26.529028">
<ele>108.799866</ele>
<time>2010-06-20T15:12:40Z</time>
<desc>lat.=55.900230, lon.=26.529028, Alt.=108.799866m. Speed=1.764000m/h.</desc>
<speed>0.490000</speed>
</trkpt>
<trkpt lat="55.900227" lon="26.529028">
<ele>108.729553</ele>
<time>2010-06-20T15:12:41Z</time>
<desc>lat.=55.900227, lon.=26.529028, Alt.=108.729553m. Speed=2.268000m/h.</desc>
<speed>0.630000</speed>
</trkpt>
<trkpt lat="55.900223" lon="26.529036">
<ele>108.725647</ele>
<time>2010-06-20T15:12:42Z</time>
<desc>lat.=55.900223, lon.=26.529036, Alt.=108.725647m. Speed=2.592000m/h.</desc>
<speed>0.720000</speed>
</trkpt>
<trkpt lat="55.900219" lon="26.529045">
<ele>108.754944</ele>
<time>2010-06-20T15:12:43Z</time>
<desc>lat.=55.900219, lon.=26.529045, Alt.=108.754944m. Speed=2.772000m/h.</desc>
<speed>0.770000</speed>
</trkpt>
<trkpt lat="55.900230" lon="26.529026">
<ele>109.338928</ele>
<time>2010-06-20T15:12:44Z</time>
<desc>lat.=55.900230, lon.=26.529026, Alt.=109.338928m. Speed=2.304000m/h.</desc>
<speed>0.640000</speed>
</trkpt>
<trkpt lat="55.900234" lon="26.529003">
<ele>109.766663</ele>
<time>2010-06-20T15:12:45Z</time>
<desc>lat.=55.900234, lon.=26.529003, Alt.=109.766663m. Speed=3.384000m/h.</desc>
<speed>0.940000</speed>
</trkpt>
<trkpt lat="55.900238" lon="26.528996">
<ele>110.172913</ele>
<time>2010-06-20T15:12:46Z</time>
<desc>lat.=55.900238, lon.=26.528996, Alt.=110.172913m. Speed=0.504000m/h.</desc>
<speed>0.140000</speed>
</trkpt>
<trkpt lat="55.900242" lon="26.528984">
<ele>110.551819</ele>
<time>2010-06-20T15:12:47Z</time>
<desc>lat.=55.900242, lon.=26.528984, Alt.=110.551819m. Speed=2.232000m/h.</desc>
<speed>0.620000</speed>
</trkpt>
<trkpt lat="55.900242" lon="26.528982">
<ele>110.958069</ele>
<time>2010-06-20T15:12:48Z</time>
<desc>lat.=55.900242, lon.=26.528982, Alt.=110.958069m. Speed=0.432000m/h.</desc>
<speed>0.120000</speed>
</trkpt>
<trkpt lat="55.900242" lon="26.528978">
<ele>111.270569</ele>
<time>2010-06-20T15:12:49Z</time>
<desc>lat.=55.900242, lon.=26.528978, Alt.=111.270569m. Speed=1.152000m/h.</desc>
<speed>0.320000</speed>
</trkpt>
<trkpt lat="55.900249" lon="26.528959">
<ele>111.606506</ele>
<time>2010-06-20T15:12:50Z</time>
<desc>lat.=55.900249, lon.=26.528959, Alt.=111.606506m. Speed=2.304000m/h.</desc>
<speed>0.640000</speed>
</trkpt>
<trkpt lat="55.900257" lon="26.528952">
<ele>111.919006</ele>
<time>2010-06-20T15:12:51Z</time>
<desc>lat.=55.900257, lon.=26.528952, Alt.=111.919006m. Speed=1.728000m/h.</desc>
<speed>0.480000</speed>
</trkpt>
<trkpt lat="55.900265" lon="26.528946">
<ele>112.307678</ele>
<time>2010-06-20T15:12:52Z</time>
<desc>lat.=55.900265, lon.=26.528946, Alt.=112.307678m. Speed=2.952000m/h.</desc>
<speed>0.820000</speed>
</trkpt>
<trkpt lat="55.900261" lon="26.528938">
<ele>112.784241</ele>
<time>2010-06-20T15:12:53Z</time>
<desc>lat.=55.900261, lon.=26.528938, Alt.=112.784241m. Speed=0.972000m/h.</desc>
<speed>0.270000</speed>
</trkpt>
<trkpt lat="55.900257" lon="26.528938">
<ele>113.042053</ele>
<time>2010-06-20T15:12:54Z</time>
<desc>lat.=55.900257, lon.=26.528938, Alt.=113.042053m. Speed=0.216000m/h.</desc>
<speed>0.060000</speed>
</trkpt>
<trkpt lat="55.900253" lon="26.528938">
<ele>113.368225</ele>
<time>2010-06-20T15:12:55Z</time>
<desc>lat.=55.900253, lon.=26.528938, Alt.=113.368225m. Speed=0.792000m/h.</desc>
<speed>0.220000</speed>
</trkpt>
<trkpt lat="55.900253" lon="26.528936">
<ele>113.450256</ele>
<time>2010-06-20T15:12:56Z</time>
<desc>lat.=55.900253, lon.=26.528936, Alt.=113.450256m. Speed=1.224000m/h.</desc>
<speed>0.340000</speed>
</trkpt>
<trkpt lat="55.900253" lon="26.528942">
<ele>113.362366</ele>
<time>2010-06-20T15:12:57Z</time>
<desc>lat.=55.900253, lon.=26.528942, Alt.=113.362366m. Speed=1.404000m/h.</desc>
<speed>0.390000</speed>
</trkpt>
<trkpt lat="55.900253" lon="26.528942">
<ele>113.420959</ele>
<time>2010-06-20T15:12:58Z</time>
<desc>lat.=55.900253, lon.=26.528942, Alt.=113.420959m. Speed=0.720000m/h.</desc>
<speed>0.200000</speed>
</trkpt>
<trkpt lat="55.900253" lon="26.528944">
<ele>113.460022</ele>
<time>2010-06-20T15:12:59Z</time>
<desc>lat.=55.900253, lon.=26.528944, Alt.=113.460022m. Speed=0.972000m/h.</desc>
<speed>0.270000</speed>
</trkpt>
<trkpt lat="55.900257" lon="26.528938">
<ele>113.639709</ele>
<time>2010-06-20T15:13:00Z</time>
<desc>lat.=55.900257, lon.=26.528938, Alt.=113.639709m. Speed=1.836000m/h.</desc>
<speed>0.510000</speed>
</trkpt>
<trkpt lat="55.900261" lon="26.528931">
<ele>113.622131</ele>
<time>2010-06-20T15:13:01Z</time>
<desc>lat.=55.900261, lon.=26.528931, Alt.=113.622131m. Speed=2.484000m/h.</desc>
<speed>0.690000</speed>
</trkpt>
<trkpt lat="55.900265" lon="26.528936">
<ele>113.932678</ele>
<time>2010-06-20T15:13:02Z</time>
<desc>lat.=55.900265, lon.=26.528936, Alt.=113.932678m. Speed=1.116000m/h.</desc>
<speed>0.310000</speed>
</trkpt>
<trkpt lat="55.900261" lon="26.528938">
<ele>114.010803</ele>
<time>2010-06-20T15:13:03Z</time>
<desc>lat.=55.900261, lon.=26.528938, Alt.=114.010803m. Speed=2.340000m/h.</desc>
<speed>0.650000</speed>
</trkpt>
<trkpt lat="55.900257" lon="26.528950">
<ele>114.008850</ele>
<time>2010-06-20T15:13:04Z</time>
<desc>lat.=55.900257, lon.=26.528950, Alt.=114.008850m. Speed=0.720000m/h.</desc>
<speed>0.200000</speed>
</trkpt>
<trkpt lat="55.900253" lon="26.528961">
<ele>113.977600</ele>
<time>2010-06-20T15:13:05Z</time>
<desc>lat.=55.900253, lon.=26.528961, Alt.=113.977600m. Speed=0.720000m/h.</desc>
<speed>0.200000</speed>
</trkpt>
<trkpt lat="55.900249" lon="26.528975">
<ele>114.075256</ele>
<time>2010-06-20T15:13:06Z</time>
<desc>lat.=55.900249, lon.=26.528975, Alt.=114.075256m. Speed=0.972000m/h.</desc>
<speed>0.270000</speed>
</trkpt>
<trkpt lat="55.900249" lon="26.528986">
<ele>114.059631</ele>
<time>2010-06-20T15:13:07Z</time>
<desc>lat.=55.900249, lon.=26.528986, Alt.=114.059631m. Speed=1.152000m/h.</desc>
<speed>0.320000</speed>
</trkpt>
<trkpt lat="55.900242" lon="26.529005">
<ele>114.071350</ele>
<time>2010-06-20T15:13:08Z</time>
<desc>lat.=55.900242, lon.=26.529005, Alt.=114.071350m. Speed=2.844000m/h.</desc>
<speed>0.790000</speed>
</trkpt>
<trkpt lat="55.900234" lon="26.529028">
<ele>114.176819</ele>
<time>2010-06-20T15:13:09Z</time>
<desc>lat.=55.900234, lon.=26.529028, Alt.=114.176819m. Speed=2.988000m/h.</desc>
<speed>0.830000</speed>
</trkpt>
<trkpt lat="55.900230" lon="26.529041">
<ele>114.309631</ele>
<time>2010-06-20T15:13:10Z</time>
<desc>lat.=55.900230, lon.=26.529041, Alt.=114.309631m. Speed=2.232000m/h.</desc>
<speed>0.620000</speed>
</trkpt>
<trkpt lat="55.900223" lon="26.529058">
<ele>114.321350</ele>
<time>2010-06-20T15:13:11Z</time>
<desc>lat.=55.900223, lon.=26.529058, Alt.=114.321350m. Speed=3.096000m/h.</desc>
<speed>0.860000</speed>
</trkpt>
<trkpt lat="55.900219" lon="26.529068">
<ele>114.270569</ele>
<time>2010-06-20T15:13:12Z</time>
<desc>lat.=55.900219, lon.=26.529068, Alt.=114.270569m. Speed=3.024000m/h.</desc>
<speed>0.840000</speed>
</trkpt>
<trkpt lat="55.900219" lon="26.529060">
<ele>114.202209</ele>
<time>2010-06-20T15:13:13Z</time>
<desc>lat.=55.900219, lon.=26.529060, Alt.=114.202209m. Speed=0.684000m/h.</desc>
<speed>0.190000</speed>
</trkpt>
<trkpt lat="55.900227" lon="26.529057">
<ele>113.997131</ele>
<time>2010-06-20T15:13:14Z</time>
<desc>lat.=55.900227, lon.=26.529057, Alt.=113.997131m. Speed=2.088000m/h.</desc>
<speed>0.580000</speed>
</trkpt>
<trkpt lat="55.900227" lon="26.529062">
<ele>113.700256</ele>
<time>2010-06-20T15:13:15Z</time>
<desc>lat.=55.900227, lon.=26.529062, Alt.=113.700256m. Speed=0.864000m/h.</desc>
<speed>0.240000</speed>
</trkpt>
<trkpt lat="55.900227" lon="26.529066">
<ele>113.346741</ele>
<time>2010-06-20T15:13:16Z</time>
<desc>lat.=55.900227, lon.=26.529066, Alt.=113.346741m. Speed=0.792000m/h.</desc>
<speed>0.220000</speed>
</trkpt>
<trkpt lat="55.900223" lon="26.529072">
<ele>112.911194</ele>
<time>2010-06-20T15:13:17Z</time>
<desc>lat.=55.900223, lon.=26.529072, Alt.=112.911194m. Speed=0.720000m/h.</desc>
<speed>0.200000</speed>
</trkpt>
<trkpt lat="55.900227" lon="26.529062">
<ele>112.506897</ele>
<time>2010-06-20T15:13:18Z</time>
<desc>lat.=55.900227, lon.=26.529062, Alt.=112.506897m. Speed=1.836000m/h.</desc>
<speed>0.510000</speed>
</trkpt>
<trkpt lat="55.900230" lon="26.529055">
<ele>112.338928</ele>
<time>2010-06-20T15:13:19Z</time>
<desc>lat.=55.900230, lon.=26.529055, Alt.=112.338928m. Speed=1.764000m/h.</desc>
<speed>0.490000</speed>
</trkpt>
<trkpt lat="55.900230" lon="26.529047">
<ele>112.104553</ele>
<time>2010-06-20T15:13:20Z</time>
<desc>lat.=55.900230, lon.=26.529047, Alt.=112.104553m. Speed=1.188000m/h.</desc>
<speed>0.330000</speed>
</trkpt>
<trkpt lat="55.900230" lon="26.529055">
<ele>111.940491</ele>
<time>2010-06-20T15:13:21Z</time>
<desc>lat.=55.900230, lon.=26.529055, Alt.=111.940491m. Speed=0.648000m/h.</desc>
<speed>0.180000</speed>
</trkpt>
<trkpt lat="55.900234" lon="26.529055">
<ele>111.805725</ele>
<time>2010-06-20T15:13:22Z</time>
<desc>lat.=55.900234, lon.=26.529055, Alt.=111.805725m. Speed=2.088000m/h.</desc>
<speed>0.580000</speed>
</trkpt>
<trkpt lat="55.900234" lon="26.529051">
<ele>111.674866</ele>
<time>2010-06-20T15:13:23Z</time>
<desc>lat.=55.900234, lon.=26.529051, Alt.=111.674866m. Speed=1.656000m/h.</desc>
<speed>0.460000</speed>
</trkpt>
<trkpt lat="55.900230" lon="26.529055">
<ele>111.508850</ele>
<time>2010-06-20T15:13:24Z</time>
<desc>lat.=55.900230, lon.=26.529055, Alt.=111.508850m. Speed=1.512000m/h.</desc>
<speed>0.420000</speed>
</trkpt>
<trkpt lat="55.900230" lon="26.529047">
<ele>111.512756</ele>
<time>2010-06-20T15:13:25Z</time>
<desc>lat.=55.900230, lon.=26.529047, Alt.=111.512756m. Speed=1.908000m/h.</desc>
<speed>0.530000</speed>
</trkpt>
<trkpt lat="55.900223" lon="26.529058">
<ele>111.530334</ele>
<time>2010-06-20T15:13:26Z</time>
<desc>lat.=55.900223, lon.=26.529058, Alt.=111.530334m. Speed=0.648000m/h.</desc>
<speed>0.180000</speed>
</trkpt>
<trkpt lat="55.900215" lon="26.529066">
<ele>111.542053</ele>
<time>2010-06-20T15:13:27Z</time>
<desc>lat.=55.900215, lon.=26.529066, Alt.=111.542053m. Speed=1.404000m/h.</desc>
<speed>0.390000</speed>
</trkpt>
<trkpt lat="55.900219" lon="26.529064">
<ele>111.667053</ele>
<time>2010-06-20T15:13:28Z</time>
<desc>lat.=55.900219, lon.=26.529064, Alt.=111.667053m. Speed=0.864000m/h.</desc>
<speed>0.240000</speed>
</trkpt>
<trkpt lat="55.900219" lon="26.529068">
<ele>111.682678</ele>
<time>2010-06-20T15:13:29Z</time>
<desc>lat.=55.900219, lon.=26.529068, Alt.=111.682678m. Speed=1.944000m/h.</desc>
<speed>0.540000</speed>
</trkpt>
<trkpt lat="55.900223" lon="26.529064">
<ele>111.723694</ele>
<time>2010-06-20T15:13:30Z</time>
<desc>lat.=55.900223, lon.=26.529064, Alt.=111.723694m. Speed=1.764000m/h.</desc>
<speed>0.490000</speed>
</trkpt>
<trkpt lat="55.900223" lon="26.529070">
<ele>111.913147</ele>
<time>2010-06-20T15:13:31Z</time>
<desc>lat.=55.900223, lon.=26.529070, Alt.=111.913147m. Speed=1.332000m/h.</desc>
<speed>0.370000</speed>
</trkpt>
<trkpt lat="55.900230" lon="26.529064">
<ele>112.163147</ele>
<time>2010-06-20T15:13:32Z</time>
<desc>lat.=55.900230, lon.=26.529064, Alt.=112.163147m. Speed=2.484000m/h.</desc>
<speed>0.690000</speed>
</trkpt>
<trkpt lat="55.900238" lon="26.529062">
<ele>112.401428</ele>
<time>2010-06-20T15:13:33Z</time>
<desc>lat.=55.900238, lon.=26.529062, Alt.=112.401428m. Speed=2.484000m/h.</desc>
<speed>0.690000</speed>
</trkpt>
<trkpt lat="55.900238" lon="26.529058">
<ele>112.514709</ele>
<time>2010-06-20T15:13:34Z</time>
<desc>lat.=55.900238, lon.=26.529058, Alt.=112.514709m. Speed=2.340000m/h.</desc>
<speed>0.650000</speed>
</trkpt>
<trkpt lat="55.900242" lon="26.529049">
<ele>112.629944</ele>
<time>2010-06-20T15:13:35Z</time>
<desc>lat.=55.900242, lon.=26.529049, Alt.=112.629944m. Speed=1.908000m/h.</desc>
<speed>0.530000</speed>
</trkpt>
<trkpt lat="55.900238" lon="26.529045">
<ele>113.001038</ele>
<time>2010-06-20T15:13:36Z</time>
<desc>lat.=55.900238, lon.=26.529045, Alt.=113.001038m. Speed=1.044000m/h.</desc>
<speed>0.290000</speed>
</trkpt>
<trkpt lat="55.900234" lon="26.529041">
<ele>113.210022</ele>
<time>2010-06-20T15:13:37Z</time>
<desc>lat.=55.900234, lon.=26.529041, Alt.=113.210022m. Speed=0.252000m/h.</desc>
<speed>0.070000</speed>
</trkpt>
<trkpt lat="55.900234" lon="26.529030">
<ele>113.444397</ele>
<time>2010-06-20T15:13:38Z</time>
<desc>lat.=55.900234, lon.=26.529030, Alt.=113.444397m. Speed=2.124000m/h.</desc>
<speed>0.590000</speed>
</trkpt>
<trkpt lat="55.900230" lon="26.529028">
<ele>113.813538</ele>
<time>2010-06-20T15:13:39Z</time>
<desc>lat.=55.900230, lon.=26.529028, Alt.=113.813538m. Speed=0.792000m/h.</desc>
<speed>0.220000</speed>
</trkpt>
<trkpt lat="55.900223" lon="26.529034">
<ele>114.169006</ele>
<time>2010-06-20T15:13:40Z</time>
<desc>lat.=55.900223, lon.=26.529034, Alt.=114.169006m. Speed=1.476000m/h.</desc>
<speed>0.410000</speed>
</trkpt>
<trkpt lat="55.900215" lon="26.529026">
<ele>114.325256</ele>
<time>2010-06-20T15:13:41Z</time>
<desc>lat.=55.900215, lon.=26.529026, Alt.=114.325256m. Speed=0.900000m/h.</desc>
<speed>0.250000</speed>
</trkpt>
<trkpt lat="55.900211" lon="26.529018">
<ele>114.467834</ele>
<time>2010-06-20T15:13:42Z</time>
<desc>lat.=55.900211, lon.=26.529018, Alt.=114.467834m. Speed=1.728000m/h.</desc>
<speed>0.480000</speed>
</trkpt>
<trkpt lat="55.900200" lon="26.529015">
<ele>114.776428</ele>
<time>2010-06-20T15:13:43Z</time>
<desc>lat.=55.900200, lon.=26.529015, Alt.=114.776428m. Speed=2.268000m/h.</desc>
<speed>0.630000</speed>
</trkpt>
<trkpt lat="55.900192" lon="26.528996">
<ele>115.045959</ele>
<time>2010-06-20T15:13:44Z</time>
<desc>lat.=55.900192, lon.=26.528996, Alt.=115.045959m. Speed=0.396000m/h.</desc>
<speed>0.110000</speed>
</trkpt>
<trkpt lat="55.900192" lon="26.528980">
<ele>115.157288</ele>
<time>2010-06-20T15:13:45Z</time>
<desc>lat.=55.900192, lon.=26.528980, Alt.=115.157288m. Speed=0.468000m/h.</desc>
<speed>0.130000</speed>
</trkpt>
<trkpt lat="55.900192" lon="26.528975">
<ele>115.202209</ele>
<time>2010-06-20T15:13:46Z</time>
<desc>lat.=55.900192, lon.=26.528975, Alt.=115.202209m. Speed=0.756000m/h.</desc>
<speed>0.210000</speed>
</trkpt>
<trkpt lat="55.900192" lon="26.528978">
<ele>115.210022</ele>
<time>2010-06-20T15:13:47Z</time>
<desc>lat.=55.900192, lon.=26.528978, Alt.=115.210022m. Speed=1.836000m/h.</desc>
<speed>0.510000</speed>
</trkpt>
<trkpt lat="55.900192" lon="26.528976">
<ele>115.100647</ele>
<time>2010-06-20T15:13:48Z</time>
<desc>lat.=55.900192, lon.=26.528976, Alt.=115.100647m. Speed=1.800000m/h.</desc>
<speed>0.500000</speed>
</trkpt>
<trkpt lat="55.900188" lon="26.528973">
<ele>114.993225</ele>
<time>2010-06-20T15:13:49Z</time>
<desc>lat.=55.900188, lon.=26.528973, Alt.=114.993225m. Speed=2.088000m/h.</desc>
<speed>0.580000</speed>
</trkpt>
<trkpt lat="55.900192" lon="26.528967">
<ele>115.049866</ele>
<time>2010-06-20T15:13:50Z</time>
<desc>lat.=55.900192, lon.=26.528967, Alt.=115.049866m. Speed=1.224000m/h.</desc>
<speed>0.340000</speed>
</trkpt>
<trkpt lat="55.900200" lon="26.528954">
<ele>115.213928</ele>
<time>2010-06-20T15:13:51Z</time>
<desc>lat.=55.900200, lon.=26.528954, Alt.=115.213928m. Speed=3.492000m/h.</desc>
<speed>0.970000</speed>
</trkpt>
<trkpt lat="55.900185" lon="26.528994">
<ele>115.633850</ele>
<time>2010-06-20T15:13:52Z</time>
<desc>lat.=55.900185, lon.=26.528994, Alt.=115.633850m. Speed=1.692000m/h.</desc>
<speed>0.470000</speed>
</trkpt>
<trkpt lat="55.900181" lon="26.529007">
<ele>115.887756</ele>
<time>2010-06-20T15:13:53Z</time>
<desc>lat.=55.900181, lon.=26.529007, Alt.=115.887756m. Speed=0.900000m/h.</desc>
<speed>0.250000</speed>
</trkpt>
<trkpt lat="55.900177" lon="26.529018">
<ele>116.032288</ele>
<time>2010-06-20T15:13:54Z</time>
<desc>lat.=55.900177, lon.=26.529018, Alt.=116.032288m. Speed=0.684000m/h.</desc>
<speed>0.190000</speed>
</trkpt>
<trkpt lat="55.900169" lon="26.529030">
<ele>116.129944</ele>
<time>2010-06-20T15:13:55Z</time>
<desc>lat.=55.900169, lon.=26.529030, Alt.=116.129944m. Speed=0.684000m/h.</desc>
<speed>0.190000</speed>
</trkpt>
<trkpt lat="55.900162" lon="26.529039">
<ele>116.415100</ele>
<time>2010-06-20T15:13:56Z</time>
<desc>lat.=55.900162, lon.=26.529039, Alt.=116.415100m. Speed=0.648000m/h.</desc>
<speed>0.180000</speed>
</trkpt>
<trkpt lat="55.900162" lon="26.529041">
<ele>116.454163</ele>
<time>2010-06-20T15:13:57Z</time>
<desc>lat.=55.900162, lon.=26.529041, Alt.=116.454163m. Speed=0.612000m/h.</desc>
<speed>0.170000</speed>
</trkpt>
<trkpt lat="55.900166" lon="26.529043">
<ele>116.483459</ele>
<time>2010-06-20T15:13:58Z</time>
<desc>lat.=55.900166, lon.=26.529043, Alt.=116.483459m. Speed=0.648000m/h.</desc>
<speed>0.180000</speed>
</trkpt>
<trkpt lat="55.900166" lon="26.529041">
<ele>116.506897</ele>
<time>2010-06-20T15:13:59Z</time>
<desc>lat.=55.900166, lon.=26.529041, Alt.=116.506897m. Speed=0.252000m/h.</desc>
<speed>0.070000</speed>
</trkpt>
<trkpt lat="55.900166" lon="26.529041">
<ele>116.522522</ele>
<time>2010-06-20T15:14:00Z</time>
<desc>lat.=55.900166, lon.=26.529041, Alt.=116.522522m. Speed=0.504000m/h.</desc>
<speed>0.140000</speed>
</trkpt>
<trkpt lat="55.900169" lon="26.529043">
<ele>116.536194</ele>
<time>2010-06-20T15:14:01Z</time>
<desc>lat.=55.900169, lon.=26.529043, Alt.=116.536194m. Speed=0.540000m/h.</desc>
<speed>0.150000</speed>
</trkpt>
<trkpt lat="55.900169" lon="26.529041">
<ele>116.547913</ele>
<time>2010-06-20T15:14:02Z</time>
<desc>lat.=55.900169, lon.=26.529041, Alt.=116.547913m. Speed=1.152000m/h.</desc>
<speed>0.320000</speed>
</trkpt>
<trkpt lat="55.900173" lon="26.529026">
<ele>116.561584</ele>
<time>2010-06-20T15:14:03Z</time>
<desc>lat.=55.900173, lon.=26.529026, Alt.=116.561584m. Speed=1.296000m/h.</desc>
<speed>0.360000</speed>
</trkpt>
<trkpt lat="55.900173" lon="26.529016">
<ele>116.684631</ele>
<time>2010-06-20T15:14:04Z</time>
<desc>lat.=55.900173, lon.=26.529016, Alt.=116.684631m. Speed=1.512000m/h.</desc>
<speed>0.420000</speed>
</trkpt>
<trkpt lat="55.900169" lon="26.529009">
<ele>116.633850</ele>
<time>2010-06-20T15:14:05Z</time>
<desc>lat.=55.900169, lon.=26.529009, Alt.=116.633850m. Speed=1.080000m/h.</desc>
<speed>0.300000</speed>
</trkpt>
<trkpt lat="55.900162" lon="26.529013">
<ele>116.704163</ele>
<time>2010-06-20T15:14:06Z</time>
<desc>lat.=55.900162, lon.=26.529013, Alt.=116.704163m. Speed=0.864000m/h.</desc>
<speed>0.240000</speed>
</trkpt>
<trkpt lat="55.900158" lon="26.529024">
<ele>116.745178</ele>
<time>2010-06-20T15:14:07Z</time>
<desc>lat.=55.900158, lon.=26.529024, Alt.=116.745178m. Speed=0.504000m/h.</desc>
<speed>0.140000</speed>
</trkpt>
<trkpt lat="55.900158" lon="26.529028">
<ele>116.833069</ele>
<time>2010-06-20T15:14:08Z</time>
<desc>lat.=55.900158, lon.=26.529028, Alt.=116.833069m. Speed=0.252000m/h.</desc>
<speed>0.070000</speed>
</trkpt>
<trkpt lat="55.900162" lon="26.529016">
<ele>116.780334</ele>
<time>2010-06-20T15:14:09Z</time>
<desc>lat.=55.900162, lon.=26.529016, Alt.=116.780334m. Speed=0.504000m/h.</desc>
<speed>0.140000</speed>
</trkpt>
<trkpt lat="55.900162" lon="26.529015">
<ele>116.784241</ele>
<time>2010-06-20T15:14:10Z</time>
<desc>lat.=55.900162, lon.=26.529015, Alt.=116.784241m. Speed=0.432000m/h.</desc>
<speed>0.120000</speed>
</trkpt>
<trkpt lat="55.900162" lon="26.529013">
<ele>116.788147</ele>
<time>2010-06-20T15:14:11Z</time>
<desc>lat.=55.900162, lon.=26.529013, Alt.=116.788147m. Speed=0.936000m/h.</desc>
<speed>0.260000</speed>
</trkpt>
<trkpt lat="55.900166" lon="26.529015">
<ele>116.797913</ele>
<time>2010-06-20T15:14:12Z</time>
<desc>lat.=55.900166, lon.=26.529015, Alt.=116.797913m. Speed=0.540000m/h.</desc>
<speed>0.150000</speed>
</trkpt>
<trkpt lat="55.900166" lon="26.529013">
<ele>116.805725</ele>
<time>2010-06-20T15:14:13Z</time>
<desc>lat.=55.900166, lon.=26.529013, Alt.=116.805725m. Speed=0.540000m/h.</desc>
<speed>0.150000</speed>
</trkpt>
<trkpt lat="55.900166" lon="26.529011">
<ele>116.815491</ele>
<time>2010-06-20T15:14:14Z</time>
<desc>lat.=55.900166, lon.=26.529011, Alt.=116.815491m. Speed=0.936000m/h.</desc>
<speed>0.260000</speed>
</trkpt>
<trkpt lat="55.900169" lon="26.529007">
<ele>116.825256</ele>
<time>2010-06-20T15:14:15Z</time>
<desc>lat.=55.900169, lon.=26.529007, Alt.=116.825256m. Speed=0.288000m/h.</desc>
<speed>0.080000</speed>
</trkpt>
<trkpt lat="55.900169" lon="26.529007">
<ele>116.833069</ele>
<time>2010-06-20T15:14:16Z</time>
<desc>lat.=55.900169, lon.=26.529007, Alt.=116.833069m. Speed=0.540000m/h.</desc>
<speed>0.150000</speed>
</trkpt>
<trkpt lat="55.900166" lon="26.529005">
<ele>116.836975</ele>
<time>2010-06-20T15:14:17Z</time>
<desc>lat.=55.900166, lon.=26.529005, Alt.=116.836975m. Speed=0.396000m/h.</desc>
<speed>0.110000</speed>
</trkpt>
<trkpt lat="55.900166" lon="26.529005">
<ele>116.842834</ele>
<time>2010-06-20T15:14:18Z</time>
<desc>lat.=55.900166, lon.=26.529005, Alt.=116.842834m. Speed=0.936000m/h.</desc>
<speed>0.260000</speed>
</trkpt>
<trkpt lat="55.900166" lon="26.529007">
<ele>116.848694</ele>
<time>2010-06-20T15:14:19Z</time>
<desc>lat.=55.900166, lon.=26.529007, Alt.=116.848694m. Speed=0.360000m/h.</desc>
<speed>0.100000</speed>
</trkpt>
<trkpt lat="55.900166" lon="26.529009">
<ele>116.850647</ele>
<time>2010-06-20T15:14:20Z</time>
<desc>lat.=55.900166, lon.=26.529009, Alt.=116.850647m. Speed=0.216000m/h.</desc>
<speed>0.060000</speed>
</trkpt>
<trkpt lat="55.900166" lon="26.529007">
<ele>116.852600</ele>
<time>2010-06-20T15:14:21Z</time>
<desc>lat.=55.900166, lon.=26.529007, Alt.=116.852600m. Speed=0.576000m/h.</desc>
<speed>0.160000</speed>
</trkpt>
<trkpt lat="55.900166" lon="26.529007">
<ele>116.856506</ele>
<time>2010-06-20T15:14:22Z</time>
<desc>lat.=55.900166, lon.=26.529007, Alt.=116.856506m. Speed=0.684000m/h.</desc>
<speed>0.190000</speed>
</trkpt>
<trkpt lat="55.900169" lon="26.529007">
<ele>116.856506</ele>
<time>2010-06-20T15:14:23Z</time>
<desc>lat.=55.900169, lon.=26.529007, Alt.=116.856506m. Speed=0.648000m/h.</desc>
<speed>0.180000</speed>
</trkpt>
<trkpt lat="55.900169" lon="26.529009">
<ele>116.860413</ele>
<time>2010-06-20T15:14:24Z</time>
<desc>lat.=55.900169, lon.=26.529009, Alt.=116.860413m. Speed=0.288000m/h.</desc>
<speed>0.080000</speed>
</trkpt>
<trkpt lat="55.900169" lon="26.529007">
<ele>116.864319</ele>
<time>2010-06-20T15:14:25Z</time>
<desc>lat.=55.900169, lon.=26.529007, Alt.=116.864319m. Speed=0.576000m/h.</desc>
<speed>0.160000</speed>
</trkpt>
<trkpt lat="55.900173" lon="26.529007">
<ele>116.866272</ele>
<time>2010-06-20T15:14:26Z</time>
<desc>lat.=55.900173, lon.=26.529007, Alt.=116.866272m. Speed=0.756000m/h.</desc>
<speed>0.210000</speed>
</trkpt>
<trkpt lat="55.900173" lon="26.529005">
<ele>116.866272</ele>
<time>2010-06-20T15:14:27Z</time>
<desc>lat.=55.900173, lon.=26.529005, Alt.=116.866272m. Speed=0.792000m/h.</desc>
<speed>0.220000</speed>
</trkpt>
<trkpt lat="55.900177" lon="26.529005">
<ele>116.862366</ele>
<time>2010-06-20T15:14:28Z</time>
<desc>lat.=55.900177, lon.=26.529005, Alt.=116.862366m. Speed=1.080000m/h.</desc>
<speed>0.300000</speed>
</trkpt>
<trkpt lat="55.900181" lon="26.529009">
<ele>116.645569</ele>
<time>2010-06-20T15:14:29Z</time>
<desc>lat.=55.900181, lon.=26.529009, Alt.=116.645569m. Speed=0.648000m/h.</desc>
<speed>0.180000</speed>
</trkpt>
<trkpt lat="55.900177" lon="26.529007">
<ele>116.493225</ele>
<time>2010-06-20T15:14:30Z</time>
<desc>lat.=55.900177, lon.=26.529007, Alt.=116.493225m. Speed=0.360000m/h.</desc>
<speed>0.100000</speed>
</trkpt>
<trkpt lat="55.900188" lon="26.529007">
<ele>116.336975</ele>
<time>2010-06-20T15:14:31Z</time>
<desc>lat.=55.900188, lon.=26.529007, Alt.=116.336975m. Speed=0.684000m/h.</desc>
<speed>0.190000</speed>
</trkpt>
<trkpt lat="55.900192" lon="26.529007">
<ele>116.149475</ele>
<time>2010-06-20T15:14:32Z</time>
<desc>lat.=55.900192, lon.=26.529007, Alt.=116.149475m. Speed=0.648000m/h.</desc>
<speed>0.180000</speed>
</trkpt>
<trkpt lat="55.900192" lon="26.529005">
<ele>116.145569</ele>
<time>2010-06-20T15:14:33Z</time>
<desc>lat.=55.900192, lon.=26.529005, Alt.=116.145569m. Speed=0.180000m/h.</desc>
<speed>0.050000</speed>
</trkpt>
<trkpt lat="55.900192" lon="26.529005">
<ele>116.139709</ele>
<time>2010-06-20T15:14:34Z</time>
<desc>lat.=55.900192, lon.=26.529005, Alt.=116.139709m. Speed=0.792000m/h.</desc>
<speed>0.220000</speed>
</trkpt>
<trkpt lat="55.900188" lon="26.529007">
<ele>116.133850</ele>
<time>2010-06-20T15:14:35Z</time>
<desc>lat.=55.900188, lon.=26.529007, Alt.=116.133850m. Speed=0.504000m/h.</desc>
<speed>0.140000</speed>
</trkpt>
<trkpt lat="55.900188" lon="26.529007">
<ele>116.127991</ele>
<time>2010-06-20T15:14:36Z</time>
<desc>lat.=55.900188, lon.=26.529007, Alt.=116.127991m. Speed=0.288000m/h.</desc>
<speed>0.080000</speed>
</trkpt>
<trkpt lat="55.900188" lon="26.529009">
<ele>116.124084</ele>
<time>2010-06-20T15:14:37Z</time>
<desc>lat.=55.900188, lon.=26.529009, Alt.=116.124084m. Speed=0.396000m/h.</desc>
<speed>0.110000</speed>
</trkpt>
<trkpt lat="55.900188" lon="26.529009">
<ele>116.122131</ele>
<time>2010-06-20T15:14:38Z</time>
<desc>lat.=55.900188, lon.=26.529009, Alt.=116.122131m. Speed=0.792000m/h.</desc>
<speed>0.220000</speed>
</trkpt>
<trkpt lat="55.900188" lon="26.529009">
<ele>116.114319</ele>
<time>2010-06-20T15:14:39Z</time>
<desc>lat.=55.900188, lon.=26.529009, Alt.=116.114319m. Speed=1.368000m/h.</desc>
<speed>0.380000</speed>
</trkpt>
<trkpt lat="55.900181" lon="26.529007">
<ele>116.211975</ele>
<time>2010-06-20T15:14:40Z</time>
<desc>lat.=55.900181, lon.=26.529007, Alt.=116.211975m. Speed=1.188000m/h.</desc>
<speed>0.330000</speed>
</trkpt>
<trkpt lat="55.900185" lon="26.529005">
<ele>116.270569</ele>
<time>2010-06-20T15:14:41Z</time>
<desc>lat.=55.900185, lon.=26.529005, Alt.=116.270569m. Speed=0.576000m/h.</desc>
<speed>0.160000</speed>
</trkpt>
<trkpt lat="55.900185" lon="26.528997">
<ele>116.325256</ele>
<time>2010-06-20T15:14:42Z</time>
<desc>lat.=55.900185, lon.=26.528997, Alt.=116.325256m. Speed=0.720000m/h.</desc>
<speed>0.200000</speed>
</trkpt>
<trkpt lat="55.900181" lon="26.528992">
<ele>116.352600</ele>
<time>2010-06-20T15:14:43Z</time>
<desc>lat.=55.900181, lon.=26.528992, Alt.=116.352600m. Speed=0.756000m/h.</desc>
<speed>0.210000</speed>
</trkpt>
<trkpt lat="55.900181" lon="26.528990">
<ele>116.395569</ele>
<time>2010-06-20T15:14:44Z</time>
<desc>lat.=55.900181, lon.=26.528990, Alt.=116.395569m. Speed=0.720000m/h.</desc>
<speed>0.200000</speed>
</trkpt>
<trkpt lat="55.900177" lon="26.528988">
<ele>116.397522</ele>
<time>2010-06-20T15:14:45Z</time>
<desc>lat.=55.900177, lon.=26.528988, Alt.=116.397522m. Speed=0.828000m/h.</desc>
<speed>0.230000</speed>
</trkpt>
<trkpt lat="55.900177" lon="26.528986">
<ele>116.393616</ele>
<time>2010-06-20T15:14:46Z</time>
<desc>lat.=55.900177, lon.=26.528986, Alt.=116.393616m. Speed=1.116000m/h.</desc>
<speed>0.310000</speed>
</trkpt>
<trkpt lat="55.900173" lon="26.528992">
<ele>116.235413</ele>
<time>2010-06-20T15:14:47Z</time>
<desc>lat.=55.900173, lon.=26.528992, Alt.=116.235413m. Speed=1.008000m/h.</desc>
<speed>0.280000</speed>
</trkpt>
<trkpt lat="55.900169" lon="26.529005">
<ele>116.038147</ele>
<time>2010-06-20T15:14:48Z</time>
<desc>lat.=55.900169, lon.=26.529005, Alt.=116.038147m. Speed=0.900000m/h.</desc>
<speed>0.250000</speed>
</trkpt>
<trkpt lat="55.900173" lon="26.529003">
<ele>115.903381</ele>
<time>2010-06-20T15:14:49Z</time>
<desc>lat.=55.900173, lon.=26.529003, Alt.=115.903381m. Speed=1.044000m/h.</desc>
<speed>0.290000</speed>
</trkpt>
<trkpt lat="55.900169" lon="26.529009">
<ele>115.854553</ele>
<time>2010-06-20T15:14:50Z</time>
<desc>lat.=55.900169, lon.=26.529009, Alt.=115.854553m. Speed=1.152000m/h.</desc>
<speed>0.320000</speed>
</trkpt>
<trkpt lat="55.900162" lon="26.529013">
<ele>115.848694</ele>
<time>2010-06-20T15:14:51Z</time>
<desc>lat.=55.900162, lon.=26.529013, Alt.=115.848694m. Speed=1.008000m/h.</desc>
<speed>0.280000</speed>
</trkpt>
<trkpt lat="55.900158" lon="26.529007">
<ele>115.891663</ele>
<time>2010-06-20T15:14:52Z</time>
<desc>lat.=55.900158, lon.=26.529007, Alt.=115.891663m. Speed=0.756000m/h.</desc>
<speed>0.210000</speed>
</trkpt>
<trkpt lat="55.900154" lon="26.529009">
<ele>115.807678</ele>
<time>2010-06-20T15:14:53Z</time>
<desc>lat.=55.900154, lon.=26.529009, Alt.=115.807678m. Speed=0.972000m/h.</desc>
<speed>0.270000</speed>
</trkpt>
<trkpt lat="55.900150" lon="26.529003">
<ele>115.600647</ele>
<time>2010-06-20T15:14:54Z</time>
<desc>lat.=55.900150, lon.=26.529003, Alt.=115.600647m. Speed=0.972000m/h.</desc>
<speed>0.270000</speed>
</trkpt>
<trkpt lat="55.900150" lon="26.529003">
<ele>115.592834</ele>
<time>2010-06-20T15:14:55Z</time>
<desc>lat.=55.900150, lon.=26.529003, Alt.=115.592834m. Speed=1.080000m/h.</desc>
<speed>0.300000</speed>
</trkpt>
<trkpt lat="55.900154" lon="26.528997">
<ele>115.432678</ele>
<time>2010-06-20T15:14:56Z</time>
<desc>lat.=55.900154, lon.=26.528997, Alt.=115.432678m. Speed=0.576000m/h.</desc>
<speed>0.160000</speed>
</trkpt>
<trkpt lat="55.900154" lon="26.529007">
<ele>114.977600</ele>
<time>2010-06-20T15:14:57Z</time>
<desc>lat.=55.900154, lon.=26.529007, Alt.=114.977600m. Speed=0.540000m/h.</desc>
<speed>0.150000</speed>
</trkpt>
<trkpt lat="55.900146" lon="26.529013">
<ele>114.514709</ele>
<time>2010-06-20T15:14:58Z</time>
<desc>lat.=55.900146, lon.=26.529013, Alt.=114.514709m. Speed=1.116000m/h.</desc>
<speed>0.310000</speed>
</trkpt>
<trkpt lat="55.900146" lon="26.529011">
<ele>114.295959</ele>
<time>2010-06-20T15:14:59Z</time>
<desc>lat.=55.900146, lon.=26.529011, Alt.=114.295959m. Speed=0.972000m/h.</desc>
<speed>0.270000</speed>
</trkpt>
<trkpt lat="55.900146" lon="26.529011">
<ele>114.126038</ele>
<time>2010-06-20T15:15:00Z</time>
<desc>lat.=55.900146, lon.=26.529011, Alt.=114.126038m. Speed=0.756000m/h.</desc>
<speed>0.210000</speed>
</trkpt>
<trkpt lat="55.900154" lon="26.529003">
<ele>114.014709</ele>
<time>2010-06-20T15:15:01Z</time>
<desc>lat.=55.900154, lon.=26.529003, Alt.=114.014709m. Speed=0.396000m/h.</desc>
<speed>0.110000</speed>
</trkpt>
<trkpt lat="55.900154" lon="26.529005">
<ele>114.030334</ele>
<time>2010-06-20T15:15:02Z</time>
<desc>lat.=55.900154, lon.=26.529005, Alt.=114.030334m. Speed=0.360000m/h.</desc>
<speed>0.100000</speed>
</trkpt>
<trkpt lat="55.900154" lon="26.529005">
<ele>114.030334</ele>
<time>2010-06-20T15:15:03Z</time>
<desc>lat.=55.900154, lon.=26.529005, Alt.=114.030334m. Speed=0.288000m/h.</desc>
<speed>0.080000</speed>
</trkpt>
<trkpt lat="55.900154" lon="26.529007">
<ele>114.032288</ele>
<time>2010-06-20T15:15:04Z</time>
<desc>lat.=55.900154, lon.=26.529007, Alt.=114.032288m. Speed=0.540000m/h.</desc>
<speed>0.150000</speed>
</trkpt>
<trkpt lat="55.900154" lon="26.529007">
<ele>114.034241</ele>
<time>2010-06-20T15:15:05Z</time>
<desc>lat.=55.900154, lon.=26.529007, Alt.=114.034241m. Speed=1.224000m/h.</desc>
<speed>0.340000</speed>
</trkpt>
<trkpt lat="55.900158" lon="26.529015">
<ele>114.100647</ele>
<time>2010-06-20T15:15:06Z</time>
<desc>lat.=55.900158, lon.=26.529015, Alt.=114.100647m. Speed=0.972000m/h.</desc>
<speed>0.270000</speed>
</trkpt>
<trkpt lat="55.900166" lon="26.529018">
<ele>114.102600</ele>
<time>2010-06-20T15:15:07Z</time>
<desc>lat.=55.900166, lon.=26.529018, Alt.=114.102600m. Speed=1.008000m/h.</desc>
<speed>0.280000</speed>
</trkpt>
<trkpt lat="55.900173" lon="26.529013">
<ele>114.112366</ele>
<time>2010-06-20T15:15:08Z</time>
<desc>lat.=55.900173, lon.=26.529013, Alt.=114.112366m. Speed=0.792000m/h.</desc>
<speed>0.220000</speed>
</trkpt>
<trkpt lat="55.900173" lon="26.529009">
<ele>114.165100</ele>
<time>2010-06-20T15:15:09Z</time>
<desc>lat.=55.900173, lon.=26.529009, Alt.=114.165100m. Speed=0.288000m/h.</desc>
<speed>0.080000</speed>
</trkpt>
<trkpt lat="55.900173" lon="26.529009">
<ele>114.161194</ele>
<time>2010-06-20T15:15:10Z</time>
<desc>lat.=55.900173, lon.=26.529009, Alt.=114.161194m. Speed=0.828000m/h.</desc>
<speed>0.230000</speed>
</trkpt>
<trkpt lat="55.900173" lon="26.529013">
<ele>114.161194</ele>
<time>2010-06-20T15:15:11Z</time>
<desc>lat.=55.900173, lon.=26.529013, Alt.=114.161194m. Speed=0.612000m/h.</desc>
<speed>0.170000</speed>
</trkpt>
<trkpt lat="55.900177" lon="26.529013">
<ele>114.159241</ele>
<time>2010-06-20T15:15:12Z</time>
<desc>lat.=55.900177, lon.=26.529013, Alt.=114.159241m. Speed=0.504000m/h.</desc>
<speed>0.140000</speed>
</trkpt>
<trkpt lat="55.900177" lon="26.529011">
<ele>114.155334</ele>
<time>2010-06-20T15:15:13Z</time>
<desc>lat.=55.900177, lon.=26.529011, Alt.=114.155334m. Speed=0.324000m/h.</desc>
<speed>0.090000</speed>
</trkpt>
<trkpt lat="55.900177" lon="26.529009">
<ele>114.151428</ele>
<time>2010-06-20T15:15:14Z</time>
<desc>lat.=55.900177, lon.=26.529009, Alt.=114.151428m. Speed=0.792000m/h.</desc>
<speed>0.220000</speed>
</trkpt>
<trkpt lat="55.900181" lon="26.529009">
<ele>114.147522</ele>
<time>2010-06-20T15:15:15Z</time>
<desc>lat.=55.900181, lon.=26.529009, Alt.=114.147522m. Speed=0.468000m/h.</desc>
<speed>0.130000</speed>
</trkpt>
<trkpt lat="55.900181" lon="26.529011">
<ele>114.141663</ele>
<time>2010-06-20T15:15:16Z</time>
<desc>lat.=55.900181, lon.=26.529011, Alt.=114.141663m. Speed=0.396000m/h.</desc>
<speed>0.110000</speed>
</trkpt>
<trkpt lat="55.900181" lon="26.529011">
<ele>114.131897</ele>
<time>2010-06-20T15:15:17Z</time>
<desc>lat.=55.900181, lon.=26.529011, Alt.=114.131897m. Speed=0.252000m/h.</desc>
<speed>0.070000</speed>
</trkpt>
<trkpt lat="55.900181" lon="26.529013">
<ele>114.124084</ele>
<time>2010-06-20T15:15:18Z</time>
<desc>lat.=55.900181, lon.=26.529013, Alt.=114.124084m. Speed=0.576000m/h.</desc>
<speed>0.160000</speed>
</trkpt>
<trkpt lat="55.900181" lon="26.529015">
<ele>114.114319</ele>
<time>2010-06-20T15:15:19Z</time>
<desc>lat.=55.900181, lon.=26.529015, Alt.=114.114319m. Speed=1.044000m/h.</desc>
<speed>0.290000</speed>
</trkpt>
<trkpt lat="55.900185" lon="26.529016">
<ele>114.110413</ele>
<time>2010-06-20T15:15:20Z</time>
<desc>lat.=55.900185, lon.=26.529016, Alt.=114.110413m. Speed=0.468000m/h.</desc>
<speed>0.130000</speed>
</trkpt>
<trkpt lat="55.900185" lon="26.529015">
<ele>114.104553</ele>
<time>2010-06-20T15:15:21Z</time>
<desc>lat.=55.900185, lon.=26.529015, Alt.=114.104553m. Speed=0.720000m/h.</desc>
<speed>0.200000</speed>
</trkpt>
<trkpt lat="55.900188" lon="26.529015">
<ele>114.098694</ele>
<time>2010-06-20T15:15:22Z</time>
<desc>lat.=55.900188, lon.=26.529015, Alt.=114.098694m. Speed=0.396000m/h.</desc>
<speed>0.110000</speed>
</trkpt>
<trkpt lat="55.900188" lon="26.529015">
<ele>114.094788</ele>
<time>2010-06-20T15:15:23Z</time>
<desc>lat.=55.900188, lon.=26.529015, Alt.=114.094788m. Speed=0.432000m/h.</desc>
<speed>0.120000</speed>
</trkpt>
<trkpt lat="55.900188" lon="26.529011">
<ele>114.090881</ele>
<time>2010-06-20T15:15:24Z</time>
<desc>lat.=55.900188, lon.=26.529011, Alt.=114.090881m. Speed=0.792000m/h.</desc>
<speed>0.220000</speed>
</trkpt>
<trkpt lat="55.900192" lon="26.529009">
<ele>114.086975</ele>
<time>2010-06-20T15:15:25Z</time>
<desc>lat.=55.900192, lon.=26.529009, Alt.=114.086975m. Speed=0.684000m/h.</desc>
<speed>0.190000</speed>
</trkpt>
<trkpt lat="55.900192" lon="26.529007">
<ele>114.085022</ele>
<time>2010-06-20T15:15:26Z</time>
<desc>lat.=55.900192, lon.=26.529007, Alt.=114.085022m. Speed=1.044000m/h.</desc>
<speed>0.290000</speed>
</trkpt>
<trkpt lat="55.900192" lon="26.529003">
<ele>114.083069</ele>
<time>2010-06-20T15:15:27Z</time>
<desc>lat.=55.900192, lon.=26.529003, Alt.=114.083069m. Speed=1.008000m/h.</desc>
<speed>0.280000</speed>
</trkpt>
<trkpt lat="55.900196" lon="26.529001">
<ele>114.077209</ele>
<time>2010-06-20T15:15:28Z</time>
<desc>lat.=55.900196, lon.=26.529001, Alt.=114.077209m. Speed=0.288000m/h.</desc>
<speed>0.080000</speed>
</trkpt>
<trkpt lat="55.900196" lon="26.528999">
<ele>114.071350</ele>
<time>2010-06-20T15:15:29Z</time>
<desc>lat.=55.900196, lon.=26.528999, Alt.=114.071350m. Speed=0.288000m/h.</desc>
<speed>0.080000</speed>
</trkpt>
<trkpt lat="55.900196" lon="26.528999">
<ele>114.063538</ele>
<time>2010-06-20T15:15:30Z</time>
<desc>lat.=55.900196, lon.=26.528999, Alt.=114.063538m. Speed=0.972000m/h.</desc>
<speed>0.270000</speed>
</trkpt>
<trkpt lat="55.900200" lon="26.528999">
<ele>114.055725</ele>
<time>2010-06-20T15:15:31Z</time>
<desc>lat.=55.900200, lon.=26.528999, Alt.=114.055725m. Speed=0.396000m/h.</desc>
<speed>0.110000</speed>
</trkpt>
<trkpt lat="55.900200" lon="26.528997">
<ele>114.044006</ele>
<time>2010-06-20T15:15:32Z</time>
<desc>lat.=55.900200, lon.=26.528997, Alt.=114.044006m. Speed=0.360000m/h.</desc>
<speed>0.100000</speed>
</trkpt>
<trkpt lat="55.900200" lon="26.528996">
<ele>114.038147</ele>
<time>2010-06-20T15:15:33Z</time>
<desc>lat.=55.900200, lon.=26.528996, Alt.=114.038147m. Speed=0.396000m/h.</desc>
<speed>0.110000</speed>
</trkpt>
<trkpt lat="55.900204" lon="26.528996">
<ele>114.034241</ele>
<time>2010-06-20T15:15:34Z</time>
<desc>lat.=55.900204, lon.=26.528996, Alt.=114.034241m. Speed=0.324000m/h.</desc>
<speed>0.090000</speed>
</trkpt>
<trkpt lat="55.900204" lon="26.528994">
<ele>114.028381</ele>
<time>2010-06-20T15:15:35Z</time>
<desc>lat.=55.900204, lon.=26.528994, Alt.=114.028381m. Speed=0.684000m/h.</desc>
<speed>0.190000</speed>
</trkpt>
<trkpt lat="55.900204" lon="26.528992">
<ele>114.018616</ele>
<time>2010-06-20T15:15:36Z</time>
<desc>lat.=55.900204, lon.=26.528992, Alt.=114.018616m. Speed=0.684000m/h.</desc>
<speed>0.190000</speed>
</trkpt>
<trkpt lat="55.900204" lon="26.528988">
<ele>114.008850</ele>
<time>2010-06-20T15:15:37Z</time>
<desc>lat.=55.900204, lon.=26.528988, Alt.=114.008850m. Speed=0.468000m/h.</desc>
<speed>0.130000</speed>
</trkpt>
<trkpt lat="55.900204" lon="26.528988">
<ele>114.001038</ele>
<time>2010-06-20T15:15:38Z</time>
<desc>lat.=55.900204, lon.=26.528988, Alt.=114.001038m. Speed=0.396000m/h.</desc>
<speed>0.110000</speed>
</trkpt>
<trkpt lat="55.900208" lon="26.528988">
<ele>113.993225</ele>
<time>2010-06-20T15:15:39Z</time>
<desc>lat.=55.900208, lon.=26.528988, Alt.=113.993225m. Speed=0.576000m/h.</desc>
<speed>0.160000</speed>
</trkpt>
<trkpt lat="55.900208" lon="26.528990">
<ele>113.987366</ele>
<time>2010-06-20T15:15:40Z</time>
<desc>lat.=55.900208, lon.=26.528990, Alt.=113.987366m. Speed=0.684000m/h.</desc>
<speed>0.190000</speed>
</trkpt>
<trkpt lat="55.900208" lon="26.528994">
<ele>113.981506</ele>
<time>2010-06-20T15:15:41Z</time>
<desc>lat.=55.900208, lon.=26.528994, Alt.=113.981506m. Speed=0.576000m/h.</desc>
<speed>0.160000</speed>
</trkpt>
<trkpt lat="55.900208" lon="26.528994">
<ele>113.975647</ele>
<time>2010-06-20T15:15:42Z</time>
<desc>lat.=55.900208, lon.=26.528994, Alt.=113.975647m. Speed=0.252000m/h.</desc>
<speed>0.070000</speed>
</trkpt>
<trkpt lat="55.900211" lon="26.528994">
<ele>113.973694</ele>
<time>2010-06-20T15:15:43Z</time>
<desc>lat.=55.900211, lon.=26.528994, Alt.=113.973694m. Speed=0.720000m/h.</desc>
<speed>0.200000</speed>
</trkpt>
<trkpt lat="55.900211" lon="26.528992">
<ele>113.971741</ele>
<time>2010-06-20T15:15:44Z</time>
<desc>lat.=55.900211, lon.=26.528992, Alt.=113.971741m. Speed=1.224000m/h.</desc>
<speed>0.340000</speed>
</trkpt>
<trkpt lat="55.900211" lon="26.528990">
<ele>113.938538</ele>
<time>2010-06-20T15:15:45Z</time>
<desc>lat.=55.900211, lon.=26.528990, Alt.=113.938538m. Speed=0.972000m/h.</desc>
<speed>0.270000</speed>
</trkpt>
<trkpt lat="55.900215" lon="26.528988">
<ele>113.911194</ele>
<time>2010-06-20T15:15:46Z</time>
<desc>lat.=55.900215, lon.=26.528988, Alt.=113.911194m. Speed=1.080000m/h.</desc>
<speed>0.300000</speed>
</trkpt>
<trkpt lat="55.900215" lon="26.528986">
<ele>113.782288</ele>
<time>2010-06-20T15:15:47Z</time>
<desc>lat.=55.900215, lon.=26.528986, Alt.=113.782288m. Speed=0.828000m/h.</desc>
<speed>0.230000</speed>
</trkpt>
<trkpt lat="55.900215" lon="26.528984">
<ele>113.665100</ele>
<time>2010-06-20T15:15:48Z</time>
<desc>lat.=55.900215, lon.=26.528984, Alt.=113.665100m. Speed=0.756000m/h.</desc>
<speed>0.210000</speed>
</trkpt>
<trkpt lat="55.900219" lon="26.528986">
<ele>113.620178</ele>
<time>2010-06-20T15:15:49Z</time>
<desc>lat.=55.900219, lon.=26.528986, Alt.=113.620178m. Speed=0.864000m/h.</desc>
<speed>0.240000</speed>
</trkpt>
<trkpt lat="55.900223" lon="26.528978">
<ele>113.647522</ele>
<time>2010-06-20T15:15:50Z</time>
<desc>lat.=55.900223, lon.=26.528978, Alt.=113.647522m. Speed=0.936000m/h.</desc>
<speed>0.260000</speed>
</trkpt>
<trkpt lat="55.900223" lon="26.528976">
<ele>113.639709</ele>
<time>2010-06-20T15:15:51Z</time>
<desc>lat.=55.900223, lon.=26.528976, Alt.=113.639709m. Speed=0.936000m/h.</desc>
<speed>0.260000</speed>
</trkpt>
<trkpt lat="55.900227" lon="26.528976">
<ele>113.631897</ele>
<time>2010-06-20T15:15:52Z</time>
<desc>lat.=55.900227, lon.=26.528976, Alt.=113.631897m. Speed=0.540000m/h.</desc>
<speed>0.150000</speed>
</trkpt>
<trkpt lat="55.900227" lon="26.528976">
<ele>113.624084</ele>
<time>2010-06-20T15:15:53Z</time>
<desc>lat.=55.900227, lon.=26.528976, Alt.=113.624084m. Speed=0.756000m/h.</desc>
<speed>0.210000</speed>
</trkpt>
<trkpt lat="55.900227" lon="26.528978">
<ele>113.616272</ele>
<time>2010-06-20T15:15:54Z</time>
<desc>lat.=55.900227, lon.=26.528978, Alt.=113.616272m. Speed=0.648000m/h.</desc>
<speed>0.180000</speed>
</trkpt>
<trkpt lat="55.900230" lon="26.528980">
<ele>113.608459</ele>
<time>2010-06-20T15:15:55Z</time>
<desc>lat.=55.900230, lon.=26.528980, Alt.=113.608459m. Speed=0.216000m/h.</desc>
<speed>0.060000</speed>
</trkpt>
<trkpt lat="55.900230" lon="26.528980">
<ele>113.598694</ele>
<time>2010-06-20T15:15:56Z</time>
<desc>lat.=55.900230, lon.=26.528980, Alt.=113.598694m. Speed=0.684000m/h.</desc>
<speed>0.190000</speed>
</trkpt>
<trkpt lat="55.900230" lon="26.528984">
<ele>113.590881</ele>
<time>2010-06-20T15:15:57Z</time>
<desc>lat.=55.900230, lon.=26.528984, Alt.=113.590881m. Speed=0.072000m/h.</desc>
<speed>0.020000</speed>
</trkpt>
<trkpt lat="55.900230" lon="26.528982">
<ele>113.583069</ele>
<time>2010-06-20T15:15:58Z</time>
<desc>lat.=55.900230, lon.=26.528982, Alt.=113.583069m. Speed=0.108000m/h.</desc>
<speed>0.030000</speed>
</trkpt>
<trkpt lat="55.900230" lon="26.528982">
<ele>113.573303</ele>
<time>2010-06-20T15:15:59Z</time>
<desc>lat.=55.900230, lon.=26.528982, Alt.=113.573303m. Speed=0.396000m/h.</desc>
<speed>0.110000</speed>
</trkpt>
<trkpt lat="55.900230" lon="26.528984">
<ele>113.565491</ele>
<time>2010-06-20T15:16:00Z</time>
<desc>lat.=55.900230, lon.=26.528984, Alt.=113.565491m. Speed=0.720000m/h.</desc>
<speed>0.200000</speed>
</trkpt>
<trkpt lat="55.900230" lon="26.528988">
<ele>113.557678</ele>
<time>2010-06-20T15:16:01Z</time>
<desc>lat.=55.900230, lon.=26.528988, Alt.=113.557678m. Speed=0.540000m/h.</desc>
<speed>0.150000</speed>
</trkpt>
<trkpt lat="55.900230" lon="26.528990">
<ele>113.551819</ele>
<time>2010-06-20T15:16:02Z</time>
<desc>lat.=55.900230, lon.=26.528990, Alt.=113.551819m. Speed=0.612000m/h.</desc>
<speed>0.170000</speed>
</trkpt>
<trkpt lat="55.900230" lon="26.528990">
<ele>113.545959</ele>
<time>2010-06-20T15:16:03Z</time>
<desc>lat.=55.900230, lon.=26.528990, Alt.=113.545959m. Speed=0.936000m/h.</desc>
<speed>0.260000</speed>
</trkpt>
<trkpt lat="55.900234" lon="26.528988">
<ele>113.540100</ele>
<time>2010-06-20T15:16:04Z</time>
<desc>lat.=55.900234, lon.=26.528988, Alt.=113.540100m. Speed=0.432000m/h.</desc>
<speed>0.120000</speed>
</trkpt>
<trkpt lat="55.900234" lon="26.528990">
<ele>113.528381</ele>
<time>2010-06-20T15:16:05Z</time>
<desc>lat.=55.900234, lon.=26.528990, Alt.=113.528381m. Speed=0.288000m/h.</desc>
<speed>0.080000</speed>
</trkpt>
<trkpt lat="55.900234" lon="26.528992">
<ele>113.524475</ele>
<time>2010-06-20T15:16:06Z</time>
<desc>lat.=55.900234, lon.=26.528992, Alt.=113.524475m. Speed=0.324000m/h.</desc>
<speed>0.090000</speed>
</trkpt>
<trkpt lat="55.900238" lon="26.528990">
<ele>113.524475</ele>
<time>2010-06-20T15:16:07Z</time>
<desc>lat.=55.900238, lon.=26.528990, Alt.=113.524475m. Speed=1.116000m/h.</desc>
<speed>0.310000</speed>
</trkpt>
<trkpt lat="55.900238" lon="26.528988">
<ele>113.551819</ele>
<time>2010-06-20T15:16:08Z</time>
<desc>lat.=55.900238, lon.=26.528988, Alt.=113.551819m. Speed=0.828000m/h.</desc>
<speed>0.230000</speed>
</trkpt>
<trkpt lat="55.900234" lon="26.528986">
<ele>113.596741</ele>
<time>2010-06-20T15:16:09Z</time>
<desc>lat.=55.900234, lon.=26.528986, Alt.=113.596741m. Speed=0.252000m/h.</desc>
<speed>0.070000</speed>
</trkpt>
<trkpt lat="55.900234" lon="26.528994">
<ele>113.624084</ele>
<time>2010-06-20T15:16:10Z</time>
<desc>lat.=55.900234, lon.=26.528994, Alt.=113.624084m. Speed=0.828000m/h.</desc>
<speed>0.230000</speed>
</trkpt>
<trkpt lat="55.900234" lon="26.528992">
<ele>113.749084</ele>
<time>2010-06-20T15:16:11Z</time>
<desc>lat.=55.900234, lon.=26.528992, Alt.=113.749084m. Speed=0.252000m/h.</desc>
<speed>0.070000</speed>
</trkpt>
<trkpt lat="55.900234" lon="26.528992">
<ele>113.751038</ele>
<time>2010-06-20T15:16:12Z</time>
<desc>lat.=55.900234, lon.=26.528992, Alt.=113.751038m. Speed=0.432000m/h.</desc>
<speed>0.120000</speed>
</trkpt>
<trkpt lat="55.900230" lon="26.528992">
<ele>113.754944</ele>
<time>2010-06-20T15:16:13Z</time>
<desc>lat.=55.900230, lon.=26.528992, Alt.=113.754944m. Speed=0.324000m/h.</desc>
<speed>0.090000</speed>
</trkpt>
<trkpt lat="55.900230" lon="26.528992">
<ele>113.762756</ele>
<time>2010-06-20T15:16:14Z</time>
<desc>lat.=55.900230, lon.=26.528992, Alt.=113.762756m. Speed=0.468000m/h.</desc>
<speed>0.130000</speed>
</trkpt>
<trkpt lat="55.900230" lon="26.528992">
<ele>113.768616</ele>
<time>2010-06-20T15:16:15Z</time>
<desc>lat.=55.900230, lon.=26.528992, Alt.=113.768616m. Speed=0.468000m/h.</desc>
<speed>0.130000</speed>
</trkpt>
<trkpt lat="55.900227" lon="26.528992">
<ele>113.776428</ele>
<time>2010-06-20T15:16:16Z</time>
<desc>lat.=55.900227, lon.=26.528992, Alt.=113.776428m. Speed=0.576000m/h.</desc>
<speed>0.160000</speed>
</trkpt>
<trkpt lat="55.900227" lon="26.528992">
<ele>113.782288</ele>
<time>2010-06-20T15:16:17Z</time>
<desc>lat.=55.900227, lon.=26.528992, Alt.=113.782288m. Speed=0.216000m/h.</desc>
<speed>0.060000</speed>
</trkpt>
<trkpt lat="55.900227" lon="26.528992">
<ele>113.782288</ele>
<time>2010-06-20T15:16:18Z</time>
<desc>lat.=55.900227, lon.=26.528992, Alt.=113.782288m. Speed=0.360000m/h.</desc>
<speed>0.100000</speed>
</trkpt>
<trkpt lat="55.900227" lon="26.528992">
<ele>113.778381</ele>
<time>2010-06-20T15:16:19Z</time>
<desc>lat.=55.900227, lon.=26.528992, Alt.=113.778381m. Speed=0.288000m/h.</desc>
<speed>0.080000</speed>
</trkpt>
<trkpt lat="55.900227" lon="26.528990">
<ele>113.778381</ele>
<time>2010-06-20T15:16:20Z</time>
<desc>lat.=55.900227, lon.=26.528990, Alt.=113.778381m. Speed=0.648000m/h.</desc>
<speed>0.180000</speed>
</trkpt>
<trkpt lat="55.900223" lon="26.528992">
<ele>113.776428</ele>
<time>2010-06-20T15:16:21Z</time>
<desc>lat.=55.900223, lon.=26.528992, Alt.=113.776428m. Speed=0.864000m/h.</desc>
<speed>0.240000</speed>
</trkpt>
<trkpt lat="55.900223" lon="26.528994">
<ele>113.778381</ele>
<time>2010-06-20T15:16:22Z</time>
<desc>lat.=55.900223, lon.=26.528994, Alt.=113.778381m. Speed=0.180000m/h.</desc>
<speed>0.050000</speed>
</trkpt>
<trkpt lat="55.900223" lon="26.528994">
<ele>113.782288</ele>
<time>2010-06-20T15:16:23Z</time>
<desc>lat.=55.900223, lon.=26.528994, Alt.=113.782288m. Speed=0.864000m/h.</desc>
<speed>0.240000</speed>
</trkpt>
<trkpt lat="55.900219" lon="26.528996">
<ele>113.784241</ele>
<time>2010-06-20T15:16:24Z</time>
<desc>lat.=55.900219, lon.=26.528996, Alt.=113.784241m. Speed=0.828000m/h.</desc>
<speed>0.230000</speed>
</trkpt>
<trkpt lat="55.900219" lon="26.528996">
<ele>113.784241</ele>
<time>2010-06-20T15:16:25Z</time>
<desc>lat.=55.900219, lon.=26.528996, Alt.=113.784241m. Speed=0.828000m/h.</desc>
<speed>0.230000</speed>
</trkpt>
<trkpt lat="55.900215" lon="26.528996">
<ele>113.786194</ele>
<time>2010-06-20T15:16:26Z</time>
<desc>lat.=55.900215, lon.=26.528996, Alt.=113.786194m. Speed=0.612000m/h.</desc>
<speed>0.170000</speed>
</trkpt>
<trkpt lat="55.900215" lon="26.528994">
<ele>113.786194</ele>
<time>2010-06-20T15:16:27Z</time>
<desc>lat.=55.900215, lon.=26.528994, Alt.=113.786194m. Speed=0.900000m/h.</desc>
<speed>0.250000</speed>
</trkpt>
<trkpt lat="55.900211" lon="26.528994">
<ele>113.786194</ele>
<time>2010-06-20T15:16:28Z</time>
<desc>lat.=55.900211, lon.=26.528994, Alt.=113.786194m. Speed=0.288000m/h.</desc>
<speed>0.080000</speed>
</trkpt>
<trkpt lat="55.900211" lon="26.528994">
<ele>113.790100</ele>
<time>2010-06-20T15:16:29Z</time>
<desc>lat.=55.900211, lon.=26.528994, Alt.=113.790100m. Speed=0.324000m/h.</desc>
<speed>0.090000</speed>
</trkpt>
<trkpt lat="55.900211" lon="26.528992">
<ele>113.794006</ele>
<time>2010-06-20T15:16:30Z</time>
<desc>lat.=55.900211, lon.=26.528992, Alt.=113.794006m. Speed=0.144000m/h.</desc>
<speed>0.040000</speed>
</trkpt>
<trkpt lat="55.900211" lon="26.528992">
<ele>113.799866</ele>
<time>2010-06-20T15:16:31Z</time>
<desc>lat.=55.900211, lon.=26.528992, Alt.=113.799866m. Speed=0.252000m/h.</desc>
<speed>0.070000</speed>
</trkpt>
<trkpt lat="55.900211" lon="26.528992">
<ele>113.805725</ele>
<time>2010-06-20T15:16:32Z</time>
<desc>lat.=55.900211, lon.=26.528992, Alt.=113.805725m. Speed=1.044000m/h.</desc>
<speed>0.290000</speed>
</trkpt>
<trkpt lat="55.900215" lon="26.528992">
<ele>113.811584</ele>
<time>2010-06-20T15:16:33Z</time>
<desc>lat.=55.900215, lon.=26.528992, Alt.=113.811584m. Speed=1.152000m/h.</desc>
<speed>0.320000</speed>
</trkpt>
<trkpt lat="55.900219" lon="26.528992">
<ele>113.971741</ele>
<time>2010-06-20T15:16:34Z</time>
<desc>lat.=55.900219, lon.=26.528992, Alt.=113.971741m. Speed=0.972000m/h.</desc>
<speed>0.270000</speed>
</trkpt>
<trkpt lat="55.900230" lon="26.528996">
<ele>114.077209</ele>
<time>2010-06-20T15:16:35Z</time>
<desc>lat.=55.900230, lon.=26.528996, Alt.=114.077209m. Speed=1.116000m/h.</desc>
<speed>0.310000</speed>
</trkpt>
<trkpt lat="55.900242" lon="26.528997">
<ele>114.182678</ele>
<time>2010-06-20T15:16:36Z</time>
<desc>lat.=55.900242, lon.=26.528997, Alt.=114.182678m. Speed=1.224000m/h.</desc>
<speed>0.340000</speed>
</trkpt>
<trkpt lat="55.900246" lon="26.528992">
<ele>114.512756</ele>
<time>2010-06-20T15:16:37Z</time>
<desc>lat.=55.900246, lon.=26.528992, Alt.=114.512756m. Speed=1.008000m/h.</desc>
<speed>0.280000</speed>
</trkpt>
<trkpt lat="55.900249" lon="26.529001">
<ele>114.629944</ele>
<time>2010-06-20T15:16:38Z</time>
<desc>lat.=55.900249, lon.=26.529001, Alt.=114.629944m. Speed=0.936000m/h.</desc>
<speed>0.260000</speed>
</trkpt>
<trkpt lat="55.900249" lon="26.529003">
<ele>114.719788</ele>
<time>2010-06-20T15:16:39Z</time>
<desc>lat.=55.900249, lon.=26.529003, Alt.=114.719788m. Speed=0.612000m/h.</desc>
<speed>0.170000</speed>
</trkpt>
<trkpt lat="55.900253" lon="26.529001">
<ele>114.815491</ele>
<time>2010-06-20T15:16:40Z</time>
<desc>lat.=55.900253, lon.=26.529001, Alt.=114.815491m. Speed=0.216000m/h.</desc>
<speed>0.060000</speed>
</trkpt>
<trkpt lat="55.900253" lon="26.529001">
<ele>114.825256</ele>
<time>2010-06-20T15:16:41Z</time>
<desc>lat.=55.900253, lon.=26.529001, Alt.=114.825256m. Speed=0.288000m/h.</desc>
<speed>0.080000</speed>
</trkpt>
<trkpt lat="55.900253" lon="26.529001">
<ele>114.835022</ele>
<time>2010-06-20T15:16:42Z</time>
<desc>lat.=55.900253, lon.=26.529001, Alt.=114.835022m. Speed=0.072000m/h.</desc>
<speed>0.020000</speed>
</trkpt>
<trkpt lat="55.900253" lon="26.529001">
<ele>114.844788</ele>
<time>2010-06-20T15:16:43Z</time>
<desc>lat.=55.900253, lon.=26.529001, Alt.=114.844788m. Speed=0.576000m/h.</desc>
<speed>0.160000</speed>
</trkpt>
<trkpt lat="55.900253" lon="26.529001">
<ele>114.850647</ele>
<time>2010-06-20T15:16:44Z</time>
<desc>lat.=55.900253, lon.=26.529001, Alt.=114.850647m. Speed=0.360000m/h.</desc>
<speed>0.100000</speed>
</trkpt>
<trkpt lat="55.900257" lon="26.528999">
<ele>114.862366</ele>
<time>2010-06-20T15:16:45Z</time>
<desc>lat.=55.900257, lon.=26.528999, Alt.=114.862366m. Speed=0.324000m/h.</desc>
<speed>0.090000</speed>
</trkpt>
<trkpt lat="55.900253" lon="26.528999">
<ele>114.870178</ele>
<time>2010-06-20T15:16:46Z</time>
<desc>lat.=55.900253, lon.=26.528999, Alt.=114.870178m. Speed=0.432000m/h.</desc>
<speed>0.120000</speed>
</trkpt>
<trkpt lat="55.900253" lon="26.528997">
<ele>114.874084</ele>
<time>2010-06-20T15:16:47Z</time>
<desc>lat.=55.900253, lon.=26.528997, Alt.=114.874084m. Speed=0.108000m/h.</desc>
<speed>0.030000</speed>
</trkpt>
<trkpt lat="55.900253" lon="26.528997">
<ele>114.879944</ele>
<time>2010-06-20T15:16:48Z</time>
<desc>lat.=55.900253, lon.=26.528997, Alt.=114.879944m. Speed=0.540000m/h.</desc>
<speed>0.150000</speed>
</trkpt>
<trkpt lat="55.900257" lon="26.528997">
<ele>114.879944</ele>
<time>2010-06-20T15:16:49Z</time>
<desc>lat.=55.900257, lon.=26.528997, Alt.=114.879944m. Speed=0.252000m/h.</desc>
<speed>0.070000</speed>
</trkpt>
<trkpt lat="55.900257" lon="26.528999">
<ele>114.885803</ele>
<time>2010-06-20T15:16:50Z</time>
<desc>lat.=55.900257, lon.=26.528999, Alt.=114.885803m. Speed=0.900000m/h.</desc>
<speed>0.250000</speed>
</trkpt>
<trkpt lat="55.900257" lon="26.529003">
<ele>114.887756</ele>
<time>2010-06-20T15:16:51Z</time>
<desc>lat.=55.900257, lon.=26.529003, Alt.=114.887756m. Speed=0.900000m/h.</desc>
<speed>0.250000</speed>
</trkpt>
<trkpt lat="55.900257" lon="26.529007">
<ele>114.891663</ele>
<time>2010-06-20T15:16:52Z</time>
<desc>lat.=55.900257, lon.=26.529007, Alt.=114.891663m. Speed=0.612000m/h.</desc>
<speed>0.170000</speed>
</trkpt>
<trkpt lat="55.900257" lon="26.529009">
<ele>114.891663</ele>
<time>2010-06-20T15:16:53Z</time>
<desc>lat.=55.900257, lon.=26.529009, Alt.=114.891663m. Speed=0.216000m/h.</desc>
<speed>0.060000</speed>
</trkpt>
<trkpt lat="55.900257" lon="26.529009">
<ele>114.891663</ele>
<time>2010-06-20T15:16:54Z</time>
<desc>lat.=55.900257, lon.=26.529009, Alt.=114.891663m. Speed=0.900000m/h.</desc>
<speed>0.250000</speed>
</trkpt>
<trkpt lat="55.900261" lon="26.529009">
<ele>114.899475</ele>
<time>2010-06-20T15:16:55Z</time>
<desc>lat.=55.900261, lon.=26.529009, Alt.=114.899475m. Speed=1.008000m/h.</desc>
<speed>0.280000</speed>
</trkpt>
<trkpt lat="55.900265" lon="26.529007">
<ele>114.905334</ele>
<time>2010-06-20T15:16:56Z</time>
<desc>lat.=55.900265, lon.=26.529007, Alt.=114.905334m. Speed=0.216000m/h.</desc>
<speed>0.060000</speed>
</trkpt>
<trkpt lat="55.900265" lon="26.529007">
<ele>114.899475</ele>
<time>2010-06-20T15:16:57Z</time>
<desc>lat.=55.900265, lon.=26.529007, Alt.=114.899475m. Speed=0.252000m/h.</desc>
<speed>0.070000</speed>
</trkpt>
<trkpt lat="55.900265" lon="26.529007">
<ele>114.893616</ele>
<time>2010-06-20T15:16:58Z</time>
<desc>lat.=55.900265, lon.=26.529007, Alt.=114.893616m. Speed=0.504000m/h.</desc>
<speed>0.140000</speed>
</trkpt>
<trkpt lat="55.900265" lon="26.529009">
<ele>114.885803</ele>
<time>2010-06-20T15:16:59Z</time>
<desc>lat.=55.900265, lon.=26.529009, Alt.=114.885803m. Speed=0.252000m/h.</desc>
<speed>0.070000</speed>
</trkpt>
<trkpt lat="55.900265" lon="26.529007">
<ele>114.877991</ele>
<time>2010-06-20T15:17:00Z</time>
<desc>lat.=55.900265, lon.=26.529007, Alt.=114.877991m. Speed=0.036000m/h.</desc>
<speed>0.010000</speed>
</trkpt>
<trkpt lat="55.900265" lon="26.529007">
<ele>114.870178</ele>
<time>2010-06-20T15:17:01Z</time>
<desc>lat.=55.900265, lon.=26.529007, Alt.=114.870178m. Speed=0.324000m/h.</desc>
<speed>0.090000</speed>
</trkpt>
<trkpt lat="55.900261" lon="26.529007">
<ele>114.870178</ele>
<time>2010-06-20T15:17:02Z</time>
<desc>lat.=55.900261, lon.=26.529007, Alt.=114.870178m. Speed=0.828000m/h.</desc>
<speed>0.230000</speed>
</trkpt>
<trkpt lat="55.900261" lon="26.529003">
<ele>114.870178</ele>
<time>2010-06-20T15:17:03Z</time>
<desc>lat.=55.900261, lon.=26.529003, Alt.=114.870178m. Speed=0.612000m/h.</desc>
<speed>0.170000</speed>
</trkpt>
<trkpt lat="55.900261" lon="26.529003">
<ele>114.870178</ele>
<time>2010-06-20T15:17:04Z</time>
<desc>lat.=55.900261, lon.=26.529003, Alt.=114.870178m. Speed=0.720000m/h.</desc>
<speed>0.200000</speed>
</trkpt>
<trkpt lat="55.900257" lon="26.529003">
<ele>114.872131</ele>
<time>2010-06-20T15:17:05Z</time>
<desc>lat.=55.900257, lon.=26.529003, Alt.=114.872131m. Speed=1.224000m/h.</desc>
<speed>0.340000</speed>
</trkpt>
<trkpt lat="55.900257" lon="26.529001">
<ele>114.973694</ele>
<time>2010-06-20T15:17:06Z</time>
<desc>lat.=55.900257, lon.=26.529001, Alt.=114.973694m. Speed=1.224000m/h.</desc>
<speed>0.340000</speed>
</trkpt>
<trkpt lat="55.900249" lon="26.528996">
<ele>115.127991</ele>
<time>2010-06-20T15:17:07Z</time>
<desc>lat.=55.900249, lon.=26.528996, Alt.=115.127991m. Speed=1.368000m/h.</desc>
<speed>0.380000</speed>
</trkpt>
<trkpt lat="55.900249" lon="26.529001">
<ele>115.235413</ele>
<time>2010-06-20T15:17:08Z</time>
<desc>lat.=55.900249, lon.=26.529001, Alt.=115.235413m. Speed=1.332000m/h.</desc>
<speed>0.370000</speed>
</trkpt>
<trkpt lat="55.900249" lon="26.528996">
<ele>115.358459</ele>
<time>2010-06-20T15:17:09Z</time>
<desc>lat.=55.900249, lon.=26.528996, Alt.=115.358459m. Speed=1.044000m/h.</desc>
<speed>0.290000</speed>
</trkpt>
<trkpt lat="55.900257" lon="26.528986">
<ele>115.448303</ele>
<time>2010-06-20T15:17:10Z</time>
<desc>lat.=55.900257, lon.=26.528986, Alt.=115.448303m. Speed=0.432000m/h.</desc>
<speed>0.120000</speed>
</trkpt>
<trkpt lat="55.900261" lon="26.528984">
<ele>115.506897</ele>
<time>2010-06-20T15:17:11Z</time>
<desc>lat.=55.900261, lon.=26.528984, Alt.=115.506897m. Speed=0.540000m/h.</desc>
<speed>0.150000</speed>
</trkpt>
<trkpt lat="55.900265" lon="26.528990">
<ele>115.463928</ele>
<time>2010-06-20T15:17:12Z</time>
<desc>lat.=55.900265, lon.=26.528990, Alt.=115.463928m. Speed=0.612000m/h.</desc>
<speed>0.170000</speed>
</trkpt>
<trkpt lat="55.900265" lon="26.528992">
<ele>115.467834</ele>
<time>2010-06-20T15:17:13Z</time>
<desc>lat.=55.900265, lon.=26.528992, Alt.=115.467834m. Speed=0.936000m/h.</desc>
<speed>0.260000</speed>
</trkpt>
<trkpt lat="55.900269" lon="26.528994">
<ele>115.467834</ele>
<time>2010-06-20T15:17:14Z</time>
<desc>lat.=55.900269, lon.=26.528994, Alt.=115.467834m. Speed=0.972000m/h.</desc>
<speed>0.270000</speed>
</trkpt>
<trkpt lat="55.900269" lon="26.528997">
<ele>115.471741</ele>
<time>2010-06-20T15:17:15Z</time>
<desc>lat.=55.900269, lon.=26.528997, Alt.=115.471741m. Speed=0.504000m/h.</desc>
<speed>0.140000</speed>
</trkpt>
<trkpt lat="55.900269" lon="26.528999">
<ele>115.475647</ele>
<time>2010-06-20T15:17:16Z</time>
<desc>lat.=55.900269, lon.=26.528999, Alt.=115.475647m. Speed=0.540000m/h.</desc>
<speed>0.150000</speed>
</trkpt>
<trkpt lat="55.900272" lon="26.528997">
<ele>115.483459</ele>
<time>2010-06-20T15:17:17Z</time>
<desc>lat.=55.900272, lon.=26.528997, Alt.=115.483459m. Speed=0.576000m/h.</desc>
<speed>0.160000</speed>
</trkpt>
<trkpt lat="55.900272" lon="26.528997">
<ele>115.489319</ele>
<time>2010-06-20T15:17:18Z</time>
<desc>lat.=55.900272, lon.=26.528997, Alt.=115.489319m. Speed=0.396000m/h.</desc>
<speed>0.110000</speed>
</trkpt>
<trkpt lat="55.900272" lon="26.528997">
<ele>115.493225</ele>
<time>2010-06-20T15:17:19Z</time>
<desc>lat.=55.900272, lon.=26.528997, Alt.=115.493225m. Speed=0.684000m/h.</desc>
<speed>0.190000</speed>
</trkpt>
<trkpt lat="55.900272" lon="26.529001">
<ele>115.499084</ele>
<time>2010-06-20T15:17:20Z</time>
<desc>lat.=55.900272, lon.=26.529001, Alt.=115.499084m. Speed=0.792000m/h.</desc>
<speed>0.220000</speed>
</trkpt>
<trkpt lat="55.900269" lon="26.529003">
<ele>115.502991</ele>
<time>2010-06-20T15:17:21Z</time>
<desc>lat.=55.900269, lon.=26.529003, Alt.=115.502991m. Speed=0.648000m/h.</desc>
<speed>0.180000</speed>
</trkpt>
<trkpt lat="55.900269" lon="26.529005">
<ele>115.504944</ele>
<time>2010-06-20T15:17:22Z</time>
<desc>lat.=55.900269, lon.=26.529005, Alt.=115.504944m. Speed=0.396000m/h.</desc>
<speed>0.110000</speed>
</trkpt>
<trkpt lat="55.900269" lon="26.529007">
<ele>115.504944</ele>
<time>2010-06-20T15:17:23Z</time>
<desc>lat.=55.900269, lon.=26.529007, Alt.=115.504944m. Speed=0.324000m/h.</desc>
<speed>0.090000</speed>
</trkpt>
<trkpt lat="55.900269" lon="26.529007">
<ele>115.502991</ele>
<time>2010-06-20T15:17:24Z</time>
<desc>lat.=55.900269, lon.=26.529007, Alt.=115.502991m. Speed=0.216000m/h.</desc>
<speed>0.060000</speed>
</trkpt>
<trkpt lat="55.900269" lon="26.529009">
<ele>115.501038</ele>
<time>2010-06-20T15:17:25Z</time>
<desc>lat.=55.900269, lon.=26.529009, Alt.=115.501038m. Speed=0.072000m/h.</desc>
<speed>0.020000</speed>
</trkpt>
<trkpt lat="55.900269" lon="26.529007">
<ele>115.499084</ele>
<time>2010-06-20T15:17:26Z</time>
<desc>lat.=55.900269, lon.=26.529007, Alt.=115.499084m. Speed=0.144000m/h.</desc>
<speed>0.040000</speed>
</trkpt>
<trkpt lat="55.900269" lon="26.529007">
<ele>115.495178</ele>
<time>2010-06-20T15:17:27Z</time>
<desc>lat.=55.900269, lon.=26.529007, Alt.=115.495178m. Speed=0.360000m/h.</desc>
<speed>0.100000</speed>
</trkpt>
<trkpt lat="55.900265" lon="26.529005">
<ele>115.493225</ele>
<time>2010-06-20T15:17:28Z</time>
<desc>lat.=55.900265, lon.=26.529005, Alt.=115.493225m. Speed=0.072000m/h.</desc>
<speed>0.020000</speed>
</trkpt>
<trkpt lat="55.900265" lon="26.529005">
<ele>115.489319</ele>
<time>2010-06-20T15:17:29Z</time>
<desc>lat.=55.900265, lon.=26.529005, Alt.=115.489319m. Speed=0.396000m/h.</desc>
<speed>0.110000</speed>
</trkpt>
<trkpt lat="55.900265" lon="26.529007">
<ele>115.485413</ele>
<time>2010-06-20T15:17:30Z</time>
<desc>lat.=55.900265, lon.=26.529007, Alt.=115.485413m. Speed=0.324000m/h.</desc>
<speed>0.090000</speed>
</trkpt>
<trkpt lat="55.900265" lon="26.529009">
<ele>115.483459</ele>
<time>2010-06-20T15:17:31Z</time>
<desc>lat.=55.900265, lon.=26.529009, Alt.=115.483459m. Speed=0.036000m/h.</desc>
<speed>0.010000</speed>
</trkpt>
<trkpt lat="55.900265" lon="26.529007">
<ele>115.481506</ele>
<time>2010-06-20T15:17:32Z</time>
<desc>lat.=55.900265, lon.=26.529007, Alt.=115.481506m. Speed=0.504000m/h.</desc>
<speed>0.140000</speed>
</trkpt>
<trkpt lat="55.900265" lon="26.529007">
<ele>115.481506</ele>
<time>2010-06-20T15:17:33Z</time>
<desc>lat.=55.900265, lon.=26.529007, Alt.=115.481506m. Speed=0.504000m/h.</desc>
<speed>0.140000</speed>
</trkpt>
<trkpt lat="55.900269" lon="26.529007">
<ele>115.483459</ele>
<time>2010-06-20T15:17:34Z</time>
<desc>lat.=55.900269, lon.=26.529007, Alt.=115.483459m. Speed=0.828000m/h.</desc>
<speed>0.230000</speed>
</trkpt>
<trkpt lat="55.900269" lon="26.529005">
<ele>115.485413</ele>
<time>2010-06-20T15:17:35Z</time>
<desc>lat.=55.900269, lon.=26.529005, Alt.=115.485413m. Speed=0.432000m/h.</desc>
<speed>0.120000</speed>
</trkpt>
<trkpt lat="55.900269" lon="26.529003">
<ele>115.479553</ele>
<time>2010-06-20T15:17:36Z</time>
<desc>lat.=55.900269, lon.=26.529003, Alt.=115.479553m. Speed=0.612000m/h.</desc>
<speed>0.170000</speed>
</trkpt>
<trkpt lat="55.900272" lon="26.529001">
<ele>115.475647</ele>
<time>2010-06-20T15:17:37Z</time>
<desc>lat.=55.900272, lon.=26.529001, Alt.=115.475647m. Speed=1.044000m/h.</desc>
<speed>0.290000</speed>
</trkpt>
<trkpt lat="55.900272" lon="26.528996">
<ele>115.471741</ele>
<time>2010-06-20T15:17:38Z</time>
<desc>lat.=55.900272, lon.=26.528996, Alt.=115.471741m. Speed=1.332000m/h.</desc>
<speed>0.370000</speed>
</trkpt>
<trkpt lat="55.900272" lon="26.528992">
<ele>115.456116</ele>
<time>2010-06-20T15:17:39Z</time>
<desc>lat.=55.900272, lon.=26.528992, Alt.=115.456116m. Speed=0.720000m/h.</desc>
<speed>0.200000</speed>
</trkpt>
<trkpt lat="55.900272" lon="26.528996">
<ele>115.448303</ele>
<time>2010-06-20T15:17:40Z</time>
<desc>lat.=55.900272, lon.=26.528996, Alt.=115.448303m. Speed=0.252000m/h.</desc>
<speed>0.070000</speed>
</trkpt>
<trkpt lat="55.900272" lon="26.528994">
<ele>115.477600</ele>
<time>2010-06-20T15:17:41Z</time>
<desc>lat.=55.900272, lon.=26.528994, Alt.=115.477600m. Speed=0.468000m/h.</desc>
<speed>0.130000</speed>
</trkpt>
<trkpt lat="55.900276" lon="26.528984">
<ele>115.407288</ele>
<time>2010-06-20T15:17:42Z</time>
<desc>lat.=55.900276, lon.=26.528984, Alt.=115.407288m. Speed=0.612000m/h.</desc>
<speed>0.170000</speed>
</trkpt>
<trkpt lat="55.900276" lon="26.528982">
<ele>115.403381</ele>
<time>2010-06-20T15:17:43Z</time>
<desc>lat.=55.900276, lon.=26.528982, Alt.=115.403381m. Speed=0.900000m/h.</desc>
<speed>0.250000</speed>
</trkpt>
<trkpt lat="55.900276" lon="26.528976">
<ele>115.403381</ele>
<time>2010-06-20T15:17:44Z</time>
<desc>lat.=55.900276, lon.=26.528976, Alt.=115.403381m. Speed=0.612000m/h.</desc>
<speed>0.170000</speed>
</trkpt>
<trkpt lat="55.900276" lon="26.528975">
<ele>115.399475</ele>
<time>2010-06-20T15:17:45Z</time>
<desc>lat.=55.900276, lon.=26.528975, Alt.=115.399475m. Speed=0.684000m/h.</desc>
<speed>0.190000</speed>
</trkpt>
<trkpt lat="55.900276" lon="26.528976">
<ele>115.395569</ele>
<time>2010-06-20T15:17:46Z</time>
<desc>lat.=55.900276, lon.=26.528976, Alt.=115.395569m. Speed=0.468000m/h.</desc>
<speed>0.130000</speed>
</trkpt>
<trkpt lat="55.900272" lon="26.528978">
<ele>115.395569</ele>
<time>2010-06-20T15:17:47Z</time>
<desc>lat.=55.900272, lon.=26.528978, Alt.=115.395569m. Speed=0.756000m/h.</desc>
<speed>0.210000</speed>
</trkpt>
<trkpt lat="55.900272" lon="26.528982">
<ele>115.395569</ele>
<time>2010-06-20T15:17:48Z</time>
<desc>lat.=55.900272, lon.=26.528982, Alt.=115.395569m. Speed=1.368000m/h.</desc>
<speed>0.380000</speed>
</trkpt>
<trkpt lat="55.900265" lon="26.528973">
<ele>115.454163</ele>
<time>2010-06-20T15:17:49Z</time>
<desc>lat.=55.900265, lon.=26.528973, Alt.=115.454163m. Speed=1.116000m/h.</desc>
<speed>0.310000</speed>
</trkpt>
<trkpt lat="55.900261" lon="26.528967">
<ele>115.463928</ele>
<time>2010-06-20T15:17:50Z</time>
<desc>lat.=55.900261, lon.=26.528967, Alt.=115.463928m. Speed=1.008000m/h.</desc>
<speed>0.280000</speed>
</trkpt>
<trkpt lat="55.900261" lon="26.528969">
<ele>115.409241</ele>
<time>2010-06-20T15:17:51Z</time>
<desc>lat.=55.900261, lon.=26.528969, Alt.=115.409241m. Speed=0.864000m/h.</desc>
<speed>0.240000</speed>
</trkpt>
<trkpt lat="55.900261" lon="26.528967">
<ele>115.358459</ele>
<time>2010-06-20T15:17:52Z</time>
<desc>lat.=55.900261, lon.=26.528967, Alt.=115.358459m. Speed=0.684000m/h.</desc>
<speed>0.190000</speed>
</trkpt>
<trkpt lat="55.900261" lon="26.528969">
<ele>115.346741</ele>
<time>2010-06-20T15:17:53Z</time>
<desc>lat.=55.900261, lon.=26.528969, Alt.=115.346741m. Speed=0.828000m/h.</desc>
<speed>0.230000</speed>
</trkpt>
<trkpt lat="55.900261" lon="26.528967">
<ele>115.348694</ele>
<time>2010-06-20T15:17:54Z</time>
<desc>lat.=55.900261, lon.=26.528967, Alt.=115.348694m. Speed=0.540000m/h.</desc>
<speed>0.150000</speed>
</trkpt>
<trkpt lat="55.900257" lon="26.528965">
<ele>115.350647</ele>
<time>2010-06-20T15:17:55Z</time>
<desc>lat.=55.900257, lon.=26.528965, Alt.=115.350647m. Speed=0.396000m/h.</desc>
<speed>0.110000</speed>
</trkpt>
<trkpt lat="55.900257" lon="26.528965">
<ele>115.352600</ele>
<time>2010-06-20T15:17:56Z</time>
<desc>lat.=55.900257, lon.=26.528965, Alt.=115.352600m. Speed=0.612000m/h.</desc>
<speed>0.170000</speed>
</trkpt>
<trkpt lat="55.900257" lon="26.528967">
<ele>115.354553</ele>
<time>2010-06-20T15:17:57Z</time>
<desc>lat.=55.900257, lon.=26.528967, Alt.=115.354553m. Speed=0.540000m/h.</desc>
<speed>0.150000</speed>
</trkpt>
<trkpt lat="55.900253" lon="26.528965">
<ele>115.354553</ele>
<time>2010-06-20T15:17:58Z</time>
<desc>lat.=55.900253, lon.=26.528965, Alt.=115.354553m. Speed=0.360000m/h.</desc>
<speed>0.100000</speed>
</trkpt>
<trkpt lat="55.900253" lon="26.528965">
<ele>115.352600</ele>
<time>2010-06-20T15:17:59Z</time>
<desc>lat.=55.900253, lon.=26.528965, Alt.=115.352600m. Speed=0.324000m/h.</desc>
<speed>0.090000</speed>
</trkpt>
<trkpt lat="55.900253" lon="26.528967">
<ele>115.354553</ele>
<time>2010-06-20T15:18:00Z</time>
<desc>lat.=55.900253, lon.=26.528967, Alt.=115.354553m. Speed=0.144000m/h.</desc>
<speed>0.040000</speed>
</trkpt>
<trkpt lat="55.900253" lon="26.528967">
<ele>115.356506</ele>
<time>2010-06-20T15:18:01Z</time>
<desc>lat.=55.900253, lon.=26.528967, Alt.=115.356506m. Speed=0.288000m/h.</desc>
<speed>0.080000</speed>
</trkpt>
<trkpt lat="55.900253" lon="26.528967">
<ele>115.356506</ele>
<time>2010-06-20T15:18:02Z</time>
<desc>lat.=55.900253, lon.=26.528967, Alt.=115.356506m. Speed=0.756000m/h.</desc>
<speed>0.210000</speed>
</trkpt>
<trkpt lat="55.900257" lon="26.528971">
<ele>115.358459</ele>
<time>2010-06-20T15:18:03Z</time>
<desc>lat.=55.900257, lon.=26.528971, Alt.=115.358459m. Speed=1.404000m/h.</desc>
<speed>0.390000</speed>
</trkpt>
<trkpt lat="55.900269" lon="26.528982">
<ele>115.364319</ele>
<time>2010-06-20T15:18:04Z</time>
<desc>lat.=55.900269, lon.=26.528982, Alt.=115.364319m. Speed=1.296000m/h.</desc>
<speed>0.360000</speed>
</trkpt>
<trkpt lat="55.900261" lon="26.528988">
<ele>115.356506</ele>
<time>2010-06-20T15:18:05Z</time>
<desc>lat.=55.900261, lon.=26.528988, Alt.=115.356506m. Speed=0.864000m/h.</desc>
<speed>0.240000</speed>
</trkpt>
<trkpt lat="55.900257" lon="26.528999">
<ele>115.407288</ele>
<time>2010-06-20T15:18:06Z</time>
<desc>lat.=55.900257, lon.=26.528999, Alt.=115.407288m. Speed=1.404000m/h.</desc>
<speed>0.390000</speed>
</trkpt>
<trkpt lat="55.900257" lon="26.528996">
<ele>115.606506</ele>
<time>2010-06-20T15:18:07Z</time>
<desc>lat.=55.900257, lon.=26.528996, Alt.=115.606506m. Speed=1.188000m/h.</desc>
<speed>0.330000</speed>
</trkpt>
<trkpt lat="55.900257" lon="26.528986">
<ele>115.829163</ele>
<time>2010-06-20T15:18:08Z</time>
<desc>lat.=55.900257, lon.=26.528986, Alt.=115.829163m. Speed=0.792000m/h.</desc>
<speed>0.220000</speed>
</trkpt>
<trkpt lat="55.900261" lon="26.528973">
<ele>116.075256</ele>
<time>2010-06-20T15:18:09Z</time>
<desc>lat.=55.900261, lon.=26.528973, Alt.=116.075256m. Speed=0.072000m/h.</desc>
<speed>0.020000</speed>
</trkpt>
<trkpt lat="55.900261" lon="26.528959">
<ele>116.104553</ele>
<time>2010-06-20T15:18:10Z</time>
<desc>lat.=55.900261, lon.=26.528959, Alt.=116.104553m. Speed=0.396000m/h.</desc>
<speed>0.110000</speed>
</trkpt>
<trkpt lat="55.900261" lon="26.528955">
<ele>116.260803</ele>
<time>2010-06-20T15:18:11Z</time>
<desc>lat.=55.900261, lon.=26.528955, Alt.=116.260803m. Speed=0.540000m/h.</desc>
<speed>0.150000</speed>
</trkpt>
<trkpt lat="55.900261" lon="26.528954">
<ele>116.268616</ele>
<time>2010-06-20T15:18:12Z</time>
<desc>lat.=55.900261, lon.=26.528954, Alt.=116.268616m. Speed=0.540000m/h.</desc>
<speed>0.150000</speed>
</trkpt>
<trkpt lat="55.900261" lon="26.528952">
<ele>116.278381</ele>
<time>2010-06-20T15:18:13Z</time>
<desc>lat.=55.900261, lon.=26.528952, Alt.=116.278381m. Speed=0.540000m/h.</desc>
<speed>0.150000</speed>
</trkpt>
<trkpt lat="55.900265" lon="26.528952">
<ele>116.288147</ele>
<time>2010-06-20T15:18:14Z</time>
<desc>lat.=55.900265, lon.=26.528952, Alt.=116.288147m. Speed=0.432000m/h.</desc>
<speed>0.120000</speed>
</trkpt>
<trkpt lat="55.900265" lon="26.528954">
<ele>116.299866</ele>
<time>2010-06-20T15:18:15Z</time>
<desc>lat.=55.900265, lon.=26.528954, Alt.=116.299866m. Speed=0.504000m/h.</desc>
<speed>0.140000</speed>
</trkpt>
<trkpt lat="55.900265" lon="26.528955">
<ele>116.307678</ele>
<time>2010-06-20T15:18:16Z</time>
<desc>lat.=55.900265, lon.=26.528955, Alt.=116.307678m. Speed=0.792000m/h.</desc>
<speed>0.220000</speed>
</trkpt>
<trkpt lat="55.900265" lon="26.528957">
<ele>116.319397</ele>
<time>2010-06-20T15:18:17Z</time>
<desc>lat.=55.900265, lon.=26.528957, Alt.=116.319397m. Speed=0.216000m/h.</desc>
<speed>0.060000</speed>
</trkpt>
<trkpt lat="55.900265" lon="26.528959">
<ele>116.327209</ele>
<time>2010-06-20T15:18:18Z</time>
<desc>lat.=55.900265, lon.=26.528959, Alt.=116.327209m. Speed=0.576000m/h.</desc>
<speed>0.160000</speed>
</trkpt>
<trkpt lat="55.900269" lon="26.528961">
<ele>116.335022</ele>
<time>2010-06-20T15:18:19Z</time>
<desc>lat.=55.900269, lon.=26.528961, Alt.=116.335022m. Speed=0.324000m/h.</desc>
<speed>0.090000</speed>
</trkpt>
<trkpt lat="55.900269" lon="26.528961">
<ele>116.342834</ele>
<time>2010-06-20T15:18:20Z</time>
<desc>lat.=55.900269, lon.=26.528961, Alt.=116.342834m. Speed=0.828000m/h.</desc>
<speed>0.230000</speed>
</trkpt>
<trkpt lat="55.900265" lon="26.528963">
<ele>116.346741</ele>
<time>2010-06-20T15:18:21Z</time>
<desc>lat.=55.900265, lon.=26.528963, Alt.=116.346741m. Speed=0.972000m/h.</desc>
<speed>0.270000</speed>
</trkpt>
<trkpt lat="55.900261" lon="26.528963">
<ele>116.350647</ele>
<time>2010-06-20T15:18:22Z</time>
<desc>lat.=55.900261, lon.=26.528963, Alt.=116.350647m. Speed=1.044000m/h.</desc>
<speed>0.290000</speed>
</trkpt>
<trkpt lat="55.900261" lon="26.528965">
<ele>116.354553</ele>
<time>2010-06-20T15:18:23Z</time>
<desc>lat.=55.900261, lon.=26.528965, Alt.=116.354553m. Speed=1.368000m/h.</desc>
<speed>0.380000</speed>
</trkpt>
<trkpt lat="55.900257" lon="26.528969">
<ele>116.348694</ele>
<time>2010-06-20T15:18:24Z</time>
<desc>lat.=55.900257, lon.=26.528969, Alt.=116.348694m. Speed=1.296000m/h.</desc>
<speed>0.360000</speed>
</trkpt>
<trkpt lat="55.900253" lon="26.528969">
<ele>116.440491</ele>
<time>2010-06-20T15:18:25Z</time>
<desc>lat.=55.900253, lon.=26.528969, Alt.=116.440491m. Speed=1.044000m/h.</desc>
<speed>0.290000</speed>
</trkpt>
<trkpt lat="55.900249" lon="26.528976">
<ele>116.444397</ele>
<time>2010-06-20T15:18:26Z</time>
<desc>lat.=55.900249, lon.=26.528976, Alt.=116.444397m. Speed=1.116000m/h.</desc>
<speed>0.310000</speed>
</trkpt>
<trkpt lat="55.900242" lon="26.528986">
<ele>116.299866</ele>
<time>2010-06-20T15:18:27Z</time>
<desc>lat.=55.900242, lon.=26.528986, Alt.=116.299866m. Speed=0.972000m/h.</desc>
<speed>0.270000</speed>
</trkpt>
<trkpt lat="55.900238" lon="26.528997">
<ele>116.211975</ele>
<time>2010-06-20T15:18:28Z</time>
<desc>lat.=55.900238, lon.=26.528997, Alt.=116.211975m. Speed=0.972000m/h.</desc>
<speed>0.270000</speed>
</trkpt>
<trkpt lat="55.900238" lon="26.529005">
<ele>116.073303</ele>
<time>2010-06-20T15:18:29Z</time>
<desc>lat.=55.900238, lon.=26.529005, Alt.=116.073303m. Speed=1.152000m/h.</desc>
<speed>0.320000</speed>
</trkpt>
<trkpt lat="55.900242" lon="26.529011">
<ele>116.030334</ele>
<time>2010-06-20T15:18:30Z</time>
<desc>lat.=55.900242, lon.=26.529011, Alt.=116.030334m. Speed=1.044000m/h.</desc>
<speed>0.290000</speed>
</trkpt>
<trkpt lat="55.900246" lon="26.529011">
<ele>116.051819</ele>
<time>2010-06-20T15:18:31Z</time>
<desc>lat.=55.900246, lon.=26.529011, Alt.=116.051819m. Speed=0.828000m/h.</desc>
<speed>0.230000</speed>
</trkpt>
<trkpt lat="55.900246" lon="26.529013">
<ele>115.932678</ele>
<time>2010-06-20T15:18:32Z</time>
<desc>lat.=55.900246, lon.=26.529013, Alt.=115.932678m. Speed=0.684000m/h.</desc>
<speed>0.190000</speed>
</trkpt>
<trkpt lat="55.900242" lon="26.529016">
<ele>115.844788</ele>
<time>2010-06-20T15:18:33Z</time>
<desc>lat.=55.900242, lon.=26.529016, Alt.=115.844788m. Speed=0.792000m/h.</desc>
<speed>0.220000</speed>
</trkpt>
<trkpt lat="55.900242" lon="26.529020">
<ele>115.840881</ele>
<time>2010-06-20T15:18:34Z</time>
<desc>lat.=55.900242, lon.=26.529020, Alt.=115.840881m. Speed=0.612000m/h.</desc>
<speed>0.170000</speed>
</trkpt>
<trkpt lat="55.900242" lon="26.529024">
<ele>115.838928</ele>
<time>2010-06-20T15:18:35Z</time>
<desc>lat.=55.900242, lon.=26.529024, Alt.=115.838928m. Speed=0.540000m/h.</desc>
<speed>0.150000</speed>
</trkpt>
<trkpt lat="55.900242" lon="26.529026">
<ele>115.835022</ele>
<time>2010-06-20T15:18:36Z</time>
<desc>lat.=55.900242, lon.=26.529026, Alt.=115.835022m. Speed=0.648000m/h.</desc>
<speed>0.180000</speed>
</trkpt>
<trkpt lat="55.900242" lon="26.529028">
<ele>115.831116</ele>
<time>2010-06-20T15:18:37Z</time>
<desc>lat.=55.900242, lon.=26.529028, Alt.=115.831116m. Speed=1.044000m/h.</desc>
<speed>0.290000</speed>
</trkpt>
<trkpt lat="55.900242" lon="26.529034">
<ele>115.831116</ele>
<time>2010-06-20T15:18:38Z</time>
<desc>lat.=55.900242, lon.=26.529034, Alt.=115.831116m. Speed=1.728000m/h.</desc>
<speed>0.480000</speed>
</trkpt>
<trkpt lat="55.900242" lon="26.529043">
<ele>115.870178</ele>
<time>2010-06-20T15:18:39Z</time>
<desc>lat.=55.900242, lon.=26.529043, Alt.=115.870178m. Speed=1.692000m/h.</desc>
<speed>0.470000</speed>
</trkpt>
<trkpt lat="55.900230" lon="26.529055">
<ele>115.846741</ele>
<time>2010-06-20T15:18:40Z</time>
<desc>lat.=55.900230, lon.=26.529055, Alt.=115.846741m. Speed=1.692000m/h.</desc>
<speed>0.470000</speed>
</trkpt>
<trkpt lat="55.900230" lon="26.529060">
<ele>115.887756</ele>
<time>2010-06-20T15:18:41Z</time>
<desc>lat.=55.900230, lon.=26.529060, Alt.=115.887756m. Speed=1.620000m/h.</desc>
<speed>0.450000</speed>
</trkpt>
<trkpt lat="55.900227" lon="26.529076">
<ele>115.856506</ele>
<time>2010-06-20T15:18:42Z</time>
<desc>lat.=55.900227, lon.=26.529076, Alt.=115.856506m. Speed=1.944000m/h.</desc>
<speed>0.540000</speed>
</trkpt>
<trkpt lat="55.900227" lon="26.529064">
<ele>115.731506</ele>
<time>2010-06-20T15:18:43Z</time>
<desc>lat.=55.900227, lon.=26.529064, Alt.=115.731506m. Speed=1.044000m/h.</desc>
<speed>0.290000</speed>
</trkpt>
<trkpt lat="55.900234" lon="26.529062">
<ele>115.672913</ele>
<time>2010-06-20T15:18:44Z</time>
<desc>lat.=55.900234, lon.=26.529062, Alt.=115.672913m. Speed=0.648000m/h.</desc>
<speed>0.180000</speed>
</trkpt>
<trkpt lat="55.900230" lon="26.529058">
<ele>115.510803</ele>
<time>2010-06-20T15:18:45Z</time>
<desc>lat.=55.900230, lon.=26.529058, Alt.=115.510803m. Speed=0.360000m/h.</desc>
<speed>0.100000</speed>
</trkpt>
<trkpt lat="55.900230" lon="26.529066">
<ele>115.368225</ele>
<time>2010-06-20T15:18:46Z</time>
<desc>lat.=55.900230, lon.=26.529066, Alt.=115.368225m. Speed=0.576000m/h.</desc>
<speed>0.160000</speed>
</trkpt>
<trkpt lat="55.900230" lon="26.529068">
<ele>115.364319</ele>
<time>2010-06-20T15:18:47Z</time>
<desc>lat.=55.900230, lon.=26.529068, Alt.=115.364319m. Speed=1.044000m/h.</desc>
<speed>0.290000</speed>
</trkpt>
<trkpt lat="55.900230" lon="26.529074">
<ele>115.360413</ele>
<time>2010-06-20T15:18:48Z</time>
<desc>lat.=55.900230, lon.=26.529074, Alt.=115.360413m. Speed=0.864000m/h.</desc>
<speed>0.240000</speed>
</trkpt>
<trkpt lat="55.900227" lon="26.529078">
<ele>115.360413</ele>
<time>2010-06-20T15:18:49Z</time>
<desc>lat.=55.900227, lon.=26.529078, Alt.=115.360413m. Speed=1.152000m/h.</desc>
<speed>0.320000</speed>
</trkpt>
<trkpt lat="55.900223" lon="26.529099">
<ele>115.206116</ele>
<time>2010-06-20T15:18:50Z</time>
<desc>lat.=55.900223, lon.=26.529099, Alt.=115.206116m. Speed=1.728000m/h.</desc>
<speed>0.480000</speed>
</trkpt>
<trkpt lat="55.900223" lon="26.529106">
<ele>115.126038</ele>
<time>2010-06-20T15:18:51Z</time>
<desc>lat.=55.900223, lon.=26.529106, Alt.=115.126038m. Speed=1.440000m/h.</desc>
<speed>0.400000</speed>
</trkpt>
<trkpt lat="55.900219" lon="26.529114">
<ele>115.067444</ele>
<time>2010-06-20T15:18:52Z</time>
<desc>lat.=55.900219, lon.=26.529114, Alt.=115.067444m. Speed=1.440000m/h.</desc>
<speed>0.400000</speed>
</trkpt>
<trkpt lat="55.900219" lon="26.529106">
<ele>114.997131</ele>
<time>2010-06-20T15:18:53Z</time>
<desc>lat.=55.900219, lon.=26.529106, Alt.=114.997131m. Speed=0.684000m/h.</desc>
<speed>0.190000</speed>
</trkpt>
<trkpt lat="55.900219" lon="26.529099">
<ele>114.961975</ele>
<time>2010-06-20T15:18:54Z</time>
<desc>lat.=55.900219, lon.=26.529099, Alt.=114.961975m. Speed=0.252000m/h.</desc>
<speed>0.070000</speed>
</trkpt>
<trkpt lat="55.900215" lon="26.529112">
<ele>114.985413</ele>
<time>2010-06-20T15:18:55Z</time>
<desc>lat.=55.900215, lon.=26.529112, Alt.=114.985413m. Speed=0.792000m/h.</desc>
<speed>0.220000</speed>
</trkpt>
<trkpt lat="55.900223" lon="26.529110">
<ele>114.991272</ele>
<time>2010-06-20T15:18:56Z</time>
<desc>lat.=55.900223, lon.=26.529110, Alt.=114.991272m. Speed=0.864000m/h.</desc>
<speed>0.240000</speed>
</trkpt>
<trkpt lat="55.900223" lon="26.529112">
<ele>114.993225</ele>
<time>2010-06-20T15:18:57Z</time>
<desc>lat.=55.900223, lon.=26.529112, Alt.=114.993225m. Speed=0.216000m/h.</desc>
<speed>0.060000</speed>
</trkpt>
<trkpt lat="55.900223" lon="26.529112">
<ele>114.991272</ele>
<time>2010-06-20T15:18:58Z</time>
<desc>lat.=55.900223, lon.=26.529112, Alt.=114.991272m. Speed=1.584000m/h.</desc>
<speed>0.440000</speed>
</trkpt>
<trkpt lat="55.900223" lon="26.529093">
<ele>115.042053</ele>
<time>2010-06-20T15:18:59Z</time>
<desc>lat.=55.900223, lon.=26.529093, Alt.=115.042053m. Speed=2.556000m/h.</desc>
<speed>0.710000</speed>
</trkpt>
<trkpt lat="55.900227" lon="26.529085">
<ele>115.049866</ele>
<time>2010-06-20T15:19:00Z</time>
<desc>lat.=55.900227, lon.=26.529085, Alt.=115.049866m. Speed=2.160000m/h.</desc>
<speed>0.600000</speed>
</trkpt>
<trkpt lat="55.900223" lon="26.529087">
<ele>115.026428</ele>
<time>2010-06-20T15:19:01Z</time>
<desc>lat.=55.900223, lon.=26.529087, Alt.=115.026428m. Speed=1.512000m/h.</desc>
<speed>0.420000</speed>
</trkpt>
<trkpt lat="55.900219" lon="26.529081">
<ele>114.960022</ele>
<time>2010-06-20T15:19:02Z</time>
<desc>lat.=55.900219, lon.=26.529081, Alt.=114.960022m. Speed=1.692000m/h.</desc>
<speed>0.470000</speed>
</trkpt>
<trkpt lat="55.900215" lon="26.529079">
<ele>114.864319</ele>
<time>2010-06-20T15:19:03Z</time>
<desc>lat.=55.900215, lon.=26.529079, Alt.=114.864319m. Speed=1.332000m/h.</desc>
<speed>0.370000</speed>
</trkpt>
<trkpt lat="55.900219" lon="26.529081">
<ele>114.795959</ele>
<time>2010-06-20T15:19:04Z</time>
<desc>lat.=55.900219, lon.=26.529081, Alt.=114.795959m. Speed=0.900000m/h.</desc>
<speed>0.250000</speed>
</trkpt>
<trkpt lat="55.900215" lon="26.529083">
<ele>114.799866</ele>
<time>2010-06-20T15:19:05Z</time>
<desc>lat.=55.900215, lon.=26.529083, Alt.=114.799866m. Speed=0.648000m/h.</desc>
<speed>0.180000</speed>
</trkpt>
<trkpt lat="55.900215" lon="26.529068">
<ele>114.749084</ele>
<time>2010-06-20T15:19:06Z</time>
<desc>lat.=55.900215, lon.=26.529068, Alt.=114.749084m. Speed=1.368000m/h.</desc>
<speed>0.380000</speed>
</trkpt>
<trkpt lat="55.900211" lon="26.529053">
<ele>114.676819</ele>
<time>2010-06-20T15:19:07Z</time>
<desc>lat.=55.900211, lon.=26.529053, Alt.=114.676819m. Speed=1.800000m/h.</desc>
<speed>0.500000</speed>
</trkpt>
<trkpt lat="55.900204" lon="26.529047">
<ele>114.637756</ele>
<time>2010-06-20T15:19:08Z</time>
<desc>lat.=55.900204, lon.=26.529047, Alt.=114.637756m. Speed=1.728000m/h.</desc>
<speed>0.480000</speed>
</trkpt>
<trkpt lat="55.900204" lon="26.529049">
<ele>114.551819</ele>
<time>2010-06-20T15:19:09Z</time>
<desc>lat.=55.900204, lon.=26.529049, Alt.=114.551819m. Speed=1.332000m/h.</desc>
<speed>0.370000</speed>
</trkpt>
<trkpt lat="55.900204" lon="26.529053">
<ele>114.514709</ele>
<time>2010-06-20T15:19:10Z</time>
<desc>lat.=55.900204, lon.=26.529053, Alt.=114.514709m. Speed=1.008000m/h.</desc>
<speed>0.280000</speed>
</trkpt>
<trkpt lat="55.900200" lon="26.529062">
<ele>114.340881</ele>
<time>2010-06-20T15:19:11Z</time>
<desc>lat.=55.900200, lon.=26.529062, Alt.=114.340881m. Speed=0.324000m/h.</desc>
<speed>0.090000</speed>
</trkpt>
<trkpt lat="55.900200" lon="26.529068">
<ele>114.303772</ele>
<time>2010-06-20T15:19:12Z</time>
<desc>lat.=55.900200, lon.=26.529068, Alt.=114.303772m. Speed=0.396000m/h.</desc>
<speed>0.110000</speed>
</trkpt>
<trkpt lat="55.900196" lon="26.529083">
<ele>114.262756</ele>
<time>2010-06-20T15:19:13Z</time>
<desc>lat.=55.900196, lon.=26.529083, Alt.=114.262756m. Speed=1.044000m/h.</desc>
<speed>0.290000</speed>
</trkpt>
<trkpt lat="55.900192" lon="26.529087">
<ele>114.260803</ele>
<time>2010-06-20T15:19:14Z</time>
<desc>lat.=55.900192, lon.=26.529087, Alt.=114.260803m. Speed=0.972000m/h.</desc>
<speed>0.270000</speed>
</trkpt>
<trkpt lat="55.900192" lon="26.529091">
<ele>114.258850</ele>
<time>2010-06-20T15:19:15Z</time>
<desc>lat.=55.900192, lon.=26.529091, Alt.=114.258850m. Speed=1.476000m/h.</desc>
<speed>0.410000</speed>
</trkpt>
<trkpt lat="55.900188" lon="26.529099">
<ele>114.194397</ele>
<time>2010-06-20T15:19:16Z</time>
<desc>lat.=55.900188, lon.=26.529099, Alt.=114.194397m. Speed=1.548000m/h.</desc>
<speed>0.430000</speed>
</trkpt>
<trkpt lat="55.900188" lon="26.529100">
<ele>114.129944</ele>
<time>2010-06-20T15:19:17Z</time>
<desc>lat.=55.900188, lon.=26.529100, Alt.=114.129944m. Speed=1.152000m/h.</desc>
<speed>0.320000</speed>
</trkpt>
<trkpt lat="55.900181" lon="26.529118">
<ele>114.012756</ele>
<time>2010-06-20T15:19:18Z</time>
<desc>lat.=55.900181, lon.=26.529118, Alt.=114.012756m. Speed=1.656000m/h.</desc>
<speed>0.460000</speed>
</trkpt>
<trkpt lat="55.900173" lon="26.529133">
<ele>113.876038</ele>
<time>2010-06-20T15:19:19Z</time>
<desc>lat.=55.900173, lon.=26.529133, Alt.=113.876038m. Speed=1.872000m/h.</desc>
<speed>0.520000</speed>
</trkpt>
<trkpt lat="55.900169" lon="26.529144">
<ele>113.698303</ele>
<time>2010-06-20T15:19:20Z</time>
<desc>lat.=55.900169, lon.=26.529144, Alt.=113.698303m. Speed=1.764000m/h.</desc>
<speed>0.490000</speed>
</trkpt>
<trkpt lat="55.900169" lon="26.529161">
<ele>113.604553</ele>
<time>2010-06-20T15:19:21Z</time>
<desc>lat.=55.900169, lon.=26.529161, Alt.=113.604553m. Speed=1.944000m/h.</desc>
<speed>0.540000</speed>
</trkpt>
<trkpt lat="55.900177" lon="26.529171">
<ele>113.520569</ele>
<time>2010-06-20T15:19:22Z</time>
<desc>lat.=55.900177, lon.=26.529171, Alt.=113.520569m. Speed=2.232000m/h.</desc>
<speed>0.620000</speed>
</trkpt>
<trkpt lat="55.900181" lon="26.529169">
<ele>113.456116</ele>
<time>2010-06-20T15:19:23Z</time>
<desc>lat.=55.900181, lon.=26.529169, Alt.=113.456116m. Speed=1.836000m/h.</desc>
<speed>0.510000</speed>
</trkpt>
<trkpt lat="55.900185" lon="26.529158">
<ele>113.448303</ele>
<time>2010-06-20T15:19:24Z</time>
<desc>lat.=55.900185, lon.=26.529158, Alt.=113.448303m. Speed=1.116000m/h.</desc>
<speed>0.310000</speed>
</trkpt>
<trkpt lat="55.900188" lon="26.529142">
<ele>113.463928</ele>
<time>2010-06-20T15:19:25Z</time>
<desc>lat.=55.900188, lon.=26.529142, Alt.=113.463928m. Speed=0.648000m/h.</desc>
<speed>0.180000</speed>
</trkpt>
<trkpt lat="55.900196" lon="26.529131">
<ele>113.711975</ele>
<time>2010-06-20T15:19:26Z</time>
<desc>lat.=55.900196, lon.=26.529131, Alt.=113.711975m. Speed=0.648000m/h.</desc>
<speed>0.180000</speed>
</trkpt>
<trkpt lat="55.900192" lon="26.529125">
<ele>113.702209</ele>
<time>2010-06-20T15:19:27Z</time>
<desc>lat.=55.900192, lon.=26.529125, Alt.=113.702209m. Speed=0.288000m/h.</desc>
<speed>0.080000</speed>
</trkpt>
<trkpt lat="55.900196" lon="26.529110">
<ele>113.737366</ele>
<time>2010-06-20T15:19:28Z</time>
<desc>lat.=55.900196, lon.=26.529110, Alt.=113.737366m. Speed=0.864000m/h.</desc>
<speed>0.240000</speed>
</trkpt>
<trkpt lat="55.900196" lon="26.529106">
<ele>113.735413</ele>
<time>2010-06-20T15:19:29Z</time>
<desc>lat.=55.900196, lon.=26.529106, Alt.=113.735413m. Speed=0.720000m/h.</desc>
<speed>0.200000</speed>
</trkpt>
<trkpt lat="55.900200" lon="26.529104">
<ele>113.735413</ele>
<time>2010-06-20T15:19:30Z</time>
<desc>lat.=55.900200, lon.=26.529104, Alt.=113.735413m. Speed=0.576000m/h.</desc>
<speed>0.160000</speed>
</trkpt>
<trkpt lat="55.900200" lon="26.529104">
<ele>113.733459</ele>
<time>2010-06-20T15:19:31Z</time>
<desc>lat.=55.900200, lon.=26.529104, Alt.=113.733459m. Speed=1.260000m/h.</desc>
<speed>0.350000</speed>
</trkpt>
<trkpt lat="55.900208" lon="26.529102">
<ele>113.626038</ele>
<time>2010-06-20T15:19:32Z</time>
<desc>lat.=55.900208, lon.=26.529102, Alt.=113.626038m. Speed=1.044000m/h.</desc>
<speed>0.290000</speed>
</trkpt>
<trkpt lat="55.900223" lon="26.529102">
<ele>113.577209</ele>
<time>2010-06-20T15:19:33Z</time>
<desc>lat.=55.900223, lon.=26.529102, Alt.=113.577209m. Speed=1.332000m/h.</desc>
<speed>0.370000</speed>
</trkpt>
<trkpt lat="55.900223" lon="26.529087">
<ele>113.534241</ele>
<time>2010-06-20T15:19:34Z</time>
<desc>lat.=55.900223, lon.=26.529087, Alt.=113.534241m. Speed=1.116000m/h.</desc>
<speed>0.310000</speed>
</trkpt>
<trkpt lat="55.900230" lon="26.529083">
<ele>113.491272</ele>
<time>2010-06-20T15:19:35Z</time>
<desc>lat.=55.900230, lon.=26.529083, Alt.=113.491272m. Speed=1.188000m/h.</desc>
<speed>0.330000</speed>
</trkpt>
<trkpt lat="55.900230" lon="26.529074">
<ele>113.374084</ele>
<time>2010-06-20T15:19:36Z</time>
<desc>lat.=55.900230, lon.=26.529074, Alt.=113.374084m. Speed=1.224000m/h.</desc>
<speed>0.340000</speed>
</trkpt>
<trkpt lat="55.900230" lon="26.529074">
<ele>113.223694</ele>
<time>2010-06-20T15:19:37Z</time>
<desc>lat.=55.900230, lon.=26.529074, Alt.=113.223694m. Speed=1.008000m/h.</desc>
<speed>0.280000</speed>
</trkpt>
<trkpt lat="55.900234" lon="26.529068">
<ele>113.147522</ele>
<time>2010-06-20T15:19:38Z</time>
<desc>lat.=55.900234, lon.=26.529068, Alt.=113.147522m. Speed=0.684000m/h.</desc>
<speed>0.190000</speed>
</trkpt>
<trkpt lat="55.900238" lon="26.529066">
<ele>113.106506</ele>
<time>2010-06-20T15:19:39Z</time>
<desc>lat.=55.900238, lon.=26.529066, Alt.=113.106506m. Speed=0.576000m/h.</desc>
<speed>0.160000</speed>
</trkpt>
<trkpt lat="55.900246" lon="26.529068">
<ele>113.174866</ele>
<time>2010-06-20T15:19:40Z</time>
<desc>lat.=55.900246, lon.=26.529068, Alt.=113.174866m. Speed=0.180000m/h.</desc>
<speed>0.050000</speed>
</trkpt>
<trkpt lat="55.900242" lon="26.529070">
<ele>113.174866</ele>
<time>2010-06-20T15:19:41Z</time>
<desc>lat.=55.900242, lon.=26.529070, Alt.=113.174866m. Speed=0.144000m/h.</desc>
<speed>0.040000</speed>
</trkpt>
<trkpt lat="55.900246" lon="26.529070">
<ele>113.174866</ele>
<time>2010-06-20T15:19:42Z</time>
<desc>lat.=55.900246, lon.=26.529070, Alt.=113.174866m. Speed=0.756000m/h.</desc>
<speed>0.210000</speed>
</trkpt>
<trkpt lat="55.900246" lon="26.529072">
<ele>113.178772</ele>
<time>2010-06-20T15:19:43Z</time>
<desc>lat.=55.900246, lon.=26.529072, Alt.=113.178772m. Speed=1.188000m/h.</desc>
<speed>0.330000</speed>
</trkpt>
<trkpt lat="55.900249" lon="26.529060">
<ele>113.133850</ele>
<time>2010-06-20T15:19:44Z</time>
<desc>lat.=55.900249, lon.=26.529060, Alt.=113.133850m. Speed=0.972000m/h.</desc>
<speed>0.270000</speed>
</trkpt>
<trkpt lat="55.900253" lon="26.529057">
<ele>113.211975</ele>
<time>2010-06-20T15:19:45Z</time>
<desc>lat.=55.900253, lon.=26.529057, Alt.=113.211975m. Speed=0.648000m/h.</desc>
<speed>0.180000</speed>
</trkpt>
<trkpt lat="55.900261" lon="26.529058">
<ele>113.317444</ele>
<time>2010-06-20T15:19:46Z</time>
<desc>lat.=55.900261, lon.=26.529058, Alt.=113.317444m. Speed=0.756000m/h.</desc>
<speed>0.210000</speed>
</trkpt>
<trkpt lat="55.900261" lon="26.529068">
<ele>113.327209</ele>
<time>2010-06-20T15:19:47Z</time>
<desc>lat.=55.900261, lon.=26.529068, Alt.=113.327209m. Speed=0.540000m/h.</desc>
<speed>0.150000</speed>
</trkpt>
<trkpt lat="55.900265" lon="26.529068">
<ele>113.327209</ele>
<time>2010-06-20T15:19:48Z</time>
<desc>lat.=55.900265, lon.=26.529068, Alt.=113.327209m. Speed=0.468000m/h.</desc>
<speed>0.130000</speed>
</trkpt>
<trkpt lat="55.900265" lon="26.529066">
<ele>113.325256</ele>
<time>2010-06-20T15:19:49Z</time>
<desc>lat.=55.900265, lon.=26.529066, Alt.=113.325256m. Speed=0.648000m/h.</desc>
<speed>0.180000</speed>
</trkpt>
<trkpt lat="55.900265" lon="26.529064">
<ele>113.325256</ele>
<time>2010-06-20T15:19:50Z</time>
<desc>lat.=55.900265, lon.=26.529064, Alt.=113.325256m. Speed=0.504000m/h.</desc>
<speed>0.140000</speed>
</trkpt>
<trkpt lat="55.900265" lon="26.529062">
<ele>113.327209</ele>
<time>2010-06-20T15:19:51Z</time>
<desc>lat.=55.900265, lon.=26.529062, Alt.=113.327209m. Speed=1.044000m/h.</desc>
<speed>0.290000</speed>
</trkpt>
<trkpt lat="55.900269" lon="26.529058">
<ele>113.331116</ele>
<time>2010-06-20T15:19:52Z</time>
<desc>lat.=55.900269, lon.=26.529058, Alt.=113.331116m. Speed=1.116000m/h.</desc>
<speed>0.310000</speed>
</trkpt>
<trkpt lat="55.900272" lon="26.529043">
<ele>113.370178</ele>
<time>2010-06-20T15:19:53Z</time>
<desc>lat.=55.900272, lon.=26.529043, Alt.=113.370178m. Speed=1.224000m/h.</desc>
<speed>0.340000</speed>
</trkpt>
<trkpt lat="55.900272" lon="26.529039">
<ele>113.432678</ele>
<time>2010-06-20T15:19:54Z</time>
<desc>lat.=55.900272, lon.=26.529039, Alt.=113.432678m. Speed=0.864000m/h.</desc>
<speed>0.240000</speed>
</trkpt>
<trkpt lat="55.900269" lon="26.529041">
<ele>113.432678</ele>
<time>2010-06-20T15:19:55Z</time>
<desc>lat.=55.900269, lon.=26.529041, Alt.=113.432678m. Speed=0.396000m/h.</desc>
<speed>0.110000</speed>
</trkpt>
<trkpt lat="55.900276" lon="26.529041">
<ele>113.460022</ele>
<time>2010-06-20T15:19:56Z</time>
<desc>lat.=55.900276, lon.=26.529041, Alt.=113.460022m. Speed=0.144000m/h.</desc>
<speed>0.040000</speed>
</trkpt>
<trkpt lat="55.900284" lon="26.529036">
<ele>113.538147</ele>
<time>2010-06-20T15:19:57Z</time>
<desc>lat.=55.900284, lon.=26.529036, Alt.=113.538147m. Speed=0.576000m/h.</desc>
<speed>0.160000</speed>
</trkpt>
<trkpt lat="55.900284" lon="26.529036">
<ele>113.542053</ele>
<time>2010-06-20T15:19:58Z</time>
<desc>lat.=55.900284, lon.=26.529036, Alt.=113.542053m. Speed=0.180000m/h.</desc>
<speed>0.050000</speed>
</trkpt>
<trkpt lat="55.900284" lon="26.529036">
<ele>113.540100</ele>
<time>2010-06-20T15:19:59Z</time>
<desc>lat.=55.900284, lon.=26.529036, Alt.=113.540100m. Speed=0.216000m/h.</desc>
<speed>0.060000</speed>
</trkpt>
<trkpt lat="55.900284" lon="26.529037">
<ele>113.536194</ele>
<time>2010-06-20T15:20:00Z</time>
<desc>lat.=55.900284, lon.=26.529037, Alt.=113.536194m. Speed=0.288000m/h.</desc>
<speed>0.080000</speed>
</trkpt>
<trkpt lat="55.900284" lon="26.529036">
<ele>113.532288</ele>
<time>2010-06-20T15:20:01Z</time>
<desc>lat.=55.900284, lon.=26.529036, Alt.=113.532288m. Speed=0.576000m/h.</desc>
<speed>0.160000</speed>
</trkpt>
<trkpt lat="55.900288" lon="26.529036">
<ele>113.530334</ele>
<time>2010-06-20T15:20:02Z</time>
<desc>lat.=55.900288, lon.=26.529036, Alt.=113.530334m. Speed=0.216000m/h.</desc>
<speed>0.060000</speed>
</trkpt>
<trkpt lat="55.900288" lon="26.529034">
<ele>113.526428</ele>
<time>2010-06-20T15:20:03Z</time>
<desc>lat.=55.900288, lon.=26.529034, Alt.=113.526428m. Speed=0.216000m/h.</desc>
<speed>0.060000</speed>
</trkpt>
<trkpt lat="55.900288" lon="26.529034">
<ele>113.522522</ele>
<time>2010-06-20T15:20:04Z</time>
<desc>lat.=55.900288, lon.=26.529034, Alt.=113.522522m. Speed=0.720000m/h.</desc>
<speed>0.200000</speed>
</trkpt>
<trkpt lat="55.900288" lon="26.529030">
<ele>113.520569</ele>
<time>2010-06-20T15:20:05Z</time>
<desc>lat.=55.900288, lon.=26.529030, Alt.=113.520569m. Speed=0.828000m/h.</desc>
<speed>0.230000</speed>
</trkpt>
<trkpt lat="55.900291" lon="26.529028">
<ele>113.514709</ele>
<time>2010-06-20T15:20:06Z</time>
<desc>lat.=55.900291, lon.=26.529028, Alt.=113.514709m. Speed=0.972000m/h.</desc>
<speed>0.270000</speed>
</trkpt>
<trkpt lat="55.900291" lon="26.529024">
<ele>113.510803</ele>
<time>2010-06-20T15:20:07Z</time>
<desc>lat.=55.900291, lon.=26.529024, Alt.=113.510803m. Speed=0.720000m/h.</desc>
<speed>0.200000</speed>
</trkpt>
<trkpt lat="55.900295" lon="26.529022">
<ele>113.504944</ele>
<time>2010-06-20T15:20:08Z</time>
<desc>lat.=55.900295, lon.=26.529022, Alt.=113.504944m. Speed=0.972000m/h.</desc>
<speed>0.270000</speed>
</trkpt>
<trkpt lat="55.900295" lon="26.529016">
<ele>113.497131</ele>
<time>2010-06-20T15:20:09Z</time>
<desc>lat.=55.900295, lon.=26.529016, Alt.=113.497131m. Speed=0.756000m/h.</desc>
<speed>0.210000</speed>
</trkpt>
<trkpt lat="55.900295" lon="26.529015">
<ele>113.487366</ele>
<time>2010-06-20T15:20:10Z</time>
<desc>lat.=55.900295, lon.=26.529015, Alt.=113.487366m. Speed=0.936000m/h.</desc>
<speed>0.260000</speed>
</trkpt>
<trkpt lat="55.900295" lon="26.529009">
<ele>113.477600</ele>
<time>2010-06-20T15:20:11Z</time>
<desc>lat.=55.900295, lon.=26.529009, Alt.=113.477600m. Speed=1.260000m/h.</desc>
<speed>0.350000</speed>
</trkpt>
<trkpt lat="55.900303" lon="26.528990">
<ele>113.352600</ele>
<time>2010-06-20T15:20:12Z</time>
<desc>lat.=55.900303, lon.=26.528990, Alt.=113.352600m. Speed=1.656000m/h.</desc>
<speed>0.460000</speed>
</trkpt>
<trkpt lat="55.900314" lon="26.528959">
<ele>113.333069</ele>
<time>2010-06-20T15:20:13Z</time>
<desc>lat.=55.900314, lon.=26.528959, Alt.=113.333069m. Speed=2.412000m/h.</desc>
<speed>0.670000</speed>
</trkpt>
<trkpt lat="55.900318" lon="26.528948">
<ele>113.254944</ele>
<time>2010-06-20T15:20:14Z</time>
<desc>lat.=55.900318, lon.=26.528948, Alt.=113.254944m. Speed=2.124000m/h.</desc>
<speed>0.590000</speed>
</trkpt>
<trkpt lat="55.900330" lon="26.528936">
<ele>113.182678</ele>
<time>2010-06-20T15:20:15Z</time>
<desc>lat.=55.900330, lon.=26.528936, Alt.=113.182678m. Speed=2.232000m/h.</desc>
<speed>0.620000</speed>
</trkpt>
<trkpt lat="55.900341" lon="26.528929">
<ele>113.106506</ele>
<time>2010-06-20T15:20:16Z</time>
<desc>lat.=55.900341, lon.=26.528929, Alt.=113.106506m. Speed=2.088000m/h.</desc>
<speed>0.580000</speed>
</trkpt>
<trkpt lat="55.900337" lon="26.528927">
<ele>112.895569</ele>
<time>2010-06-20T15:20:17Z</time>
<desc>lat.=55.900337, lon.=26.528927, Alt.=112.895569m. Speed=1.548000m/h.</desc>
<speed>0.430000</speed>
</trkpt>
<trkpt lat="55.900333" lon="26.528933">
<ele>112.669006</ele>
<time>2010-06-20T15:20:18Z</time>
<desc>lat.=55.900333, lon.=26.528933, Alt.=112.669006m. Speed=0.936000m/h.</desc>
<speed>0.260000</speed>
</trkpt>
<trkpt lat="55.900337" lon="26.528931">
<ele>112.524475</ele>
<time>2010-06-20T15:20:19Z</time>
<desc>lat.=55.900337, lon.=26.528931, Alt.=112.524475m. Speed=1.044000m/h.</desc>
<speed>0.290000</speed>
</trkpt>
<trkpt lat="55.900337" lon="26.528934">
<ele>112.268616</ele>
<time>2010-06-20T15:20:20Z</time>
<desc>lat.=55.900337, lon.=26.528934, Alt.=112.268616m. Speed=0.864000m/h.</desc>
<speed>0.240000</speed>
</trkpt>
<trkpt lat="55.900341" lon="26.528931">
<ele>112.165100</ele>
<time>2010-06-20T15:20:21Z</time>
<desc>lat.=55.900341, lon.=26.528931, Alt.=112.165100m. Speed=0.828000m/h.</desc>
<speed>0.230000</speed>
</trkpt>
<trkpt lat="55.900341" lon="26.528927">
<ele>112.155334</ele>
<time>2010-06-20T15:20:22Z</time>
<desc>lat.=55.900341, lon.=26.528927, Alt.=112.155334m. Speed=1.008000m/h.</desc>
<speed>0.280000</speed>
</trkpt>
<trkpt lat="55.900345" lon="26.528925">
<ele>112.143616</ele>
<time>2010-06-20T15:20:23Z</time>
<desc>lat.=55.900345, lon.=26.528925, Alt.=112.143616m. Speed=1.152000m/h.</desc>
<speed>0.320000</speed>
</trkpt>
<trkpt lat="55.900349" lon="26.528915">
<ele>111.997131</ele>
<time>2010-06-20T15:20:24Z</time>
<desc>lat.=55.900349, lon.=26.528915, Alt.=111.997131m. Speed=1.224000m/h.</desc>
<speed>0.340000</speed>
</trkpt>
<trkpt lat="55.900356" lon="26.528921">
<ele>111.891663</ele>
<time>2010-06-20T15:20:25Z</time>
<desc>lat.=55.900356, lon.=26.528921, Alt.=111.891663m. Speed=0.576000m/h.</desc>
<speed>0.160000</speed>
</trkpt>
<trkpt lat="55.900360" lon="26.528915">
<ele>111.627991</ele>
<time>2010-06-20T15:20:26Z</time>
<desc>lat.=55.900360, lon.=26.528915, Alt.=111.627991m. Speed=0.648000m/h.</desc>
<speed>0.180000</speed>
</trkpt>
<trkpt lat="55.900364" lon="26.528917">
<ele>111.493225</ele>
<time>2010-06-20T15:20:27Z</time>
<desc>lat.=55.900364, lon.=26.528917, Alt.=111.493225m. Speed=0.324000m/h.</desc>
<speed>0.090000</speed>
</trkpt>
<trkpt lat="55.900375" lon="26.528906">
<ele>111.413147</ele>
<time>2010-06-20T15:20:28Z</time>
<desc>lat.=55.900375, lon.=26.528906, Alt.=111.413147m. Speed=0.792000m/h.</desc>
<speed>0.220000</speed>
</trkpt>
<trkpt lat="55.900375" lon="26.528904">
<ele>111.405334</ele>
<time>2010-06-20T15:20:29Z</time>
<desc>lat.=55.900375, lon.=26.528904, Alt.=111.405334m. Speed=0.216000m/h.</desc>
<speed>0.060000</speed>
</trkpt>
<trkpt lat="55.900379" lon="26.528904">
<ele>111.397522</ele>
<time>2010-06-20T15:20:30Z</time>
<desc>lat.=55.900379, lon.=26.528904, Alt.=111.397522m. Speed=0.108000m/h.</desc>
<speed>0.030000</speed>
</trkpt>
<trkpt lat="55.900379" lon="26.528904">
<ele>111.385803</ele>
<time>2010-06-20T15:20:31Z</time>
<desc>lat.=55.900379, lon.=26.528904, Alt.=111.385803m. Speed=0.108000m/h.</desc>
<speed>0.030000</speed>
</trkpt>
<trkpt lat="55.900379" lon="26.528904">
<ele>111.377991</ele>
<time>2010-06-20T15:20:32Z</time>
<desc>lat.=55.900379, lon.=26.528904, Alt.=111.377991m. Speed=0.648000m/h.</desc>
<speed>0.180000</speed>
</trkpt>
<trkpt lat="55.900375" lon="26.528904">
<ele>111.372131</ele>
<time>2010-06-20T15:20:33Z</time>
<desc>lat.=55.900375, lon.=26.528904, Alt.=111.372131m. Speed=0.036000m/h.</desc>
<speed>0.010000</speed>
</trkpt>
<trkpt lat="55.900375" lon="26.528904">
<ele>111.366272</ele>
<time>2010-06-20T15:20:34Z</time>
<desc>lat.=55.900375, lon.=26.528904, Alt.=111.366272m. Speed=0.648000m/h.</desc>
<speed>0.180000</speed>
</trkpt>
<trkpt lat="55.900375" lon="26.528906">
<ele>111.362366</ele>
<time>2010-06-20T15:20:35Z</time>
<desc>lat.=55.900375, lon.=26.528906, Alt.=111.362366m. Speed=0.900000m/h.</desc>
<speed>0.250000</speed>
</trkpt>
<trkpt lat="55.900372" lon="26.528908">
<ele>111.362366</ele>
<time>2010-06-20T15:20:36Z</time>
<desc>lat.=55.900372, lon.=26.528908, Alt.=111.362366m. Speed=1.044000m/h.</desc>
<speed>0.290000</speed>
</trkpt>
<trkpt lat="55.900372" lon="26.528912">
<ele>111.364319</ele>
<time>2010-06-20T15:20:37Z</time>
<desc>lat.=55.900372, lon.=26.528912, Alt.=111.364319m. Speed=1.260000m/h.</desc>
<speed>0.350000</speed>
</trkpt>
<trkpt lat="55.900364" lon="26.528908">
<ele>111.372131</ele>
<time>2010-06-20T15:20:38Z</time>
<desc>lat.=55.900364, lon.=26.528908, Alt.=111.372131m. Speed=0.684000m/h.</desc>
<speed>0.190000</speed>
</trkpt>
<trkpt lat="55.900349" lon="26.528910">
<ele>111.419006</ele>
<time>2010-06-20T15:20:39Z</time>
<desc>lat.=55.900349, lon.=26.528910, Alt.=111.419006m. Speed=1.008000m/h.</desc>
<speed>0.280000</speed>
</trkpt>
<trkpt lat="55.900341" lon="26.528921">
<ele>111.471741</ele>
<time>2010-06-20T15:20:40Z</time>
<desc>lat.=55.900341, lon.=26.528921, Alt.=111.471741m. Speed=0.612000m/h.</desc>
<speed>0.170000</speed>
</trkpt>
<trkpt lat="55.900333" lon="26.528927">
<ele>111.538147</ele>
<time>2010-06-20T15:20:41Z</time>
<desc>lat.=55.900333, lon.=26.528927, Alt.=111.538147m. Speed=0.648000m/h.</desc>
<speed>0.180000</speed>
</trkpt>
<trkpt lat="55.900330" lon="26.528929">
<ele>111.542053</ele>
<time>2010-06-20T15:20:42Z</time>
<desc>lat.=55.900330, lon.=26.528929, Alt.=111.542053m. Speed=0.756000m/h.</desc>
<speed>0.210000</speed>
</trkpt>
<trkpt lat="55.900330" lon="26.528931">
<ele>111.544006</ele>
<time>2010-06-20T15:20:43Z</time>
<desc>lat.=55.900330, lon.=26.528931, Alt.=111.544006m. Speed=0.900000m/h.</desc>
<speed>0.250000</speed>
</trkpt>
<trkpt lat="55.900326" lon="26.528931">
<ele>111.542053</ele>
<time>2010-06-20T15:20:44Z</time>
<desc>lat.=55.900326, lon.=26.528931, Alt.=111.542053m. Speed=1.188000m/h.</desc>
<speed>0.330000</speed>
</trkpt>
<trkpt lat="55.900326" lon="26.528927">
<ele>111.604553</ele>
<time>2010-06-20T15:20:45Z</time>
<desc>lat.=55.900326, lon.=26.528927, Alt.=111.604553m. Speed=0.540000m/h.</desc>
<speed>0.150000</speed>
</trkpt>
<trkpt lat="55.900322" lon="26.528929">
<ele>111.653381</ele>
<time>2010-06-20T15:20:46Z</time>
<desc>lat.=55.900322, lon.=26.528929, Alt.=111.653381m. Speed=0.828000m/h.</desc>
<speed>0.230000</speed>
</trkpt>
<trkpt lat="55.900314" lon="26.528938">
<ele>111.792053</ele>
<time>2010-06-20T15:20:47Z</time>
<desc>lat.=55.900314, lon.=26.528938, Alt.=111.792053m. Speed=0.972000m/h.</desc>
<speed>0.270000</speed>
</trkpt>
<trkpt lat="55.900311" lon="26.528942">
<ele>111.752991</ele>
<time>2010-06-20T15:20:48Z</time>
<desc>lat.=55.900311, lon.=26.528942, Alt.=111.752991m. Speed=0.756000m/h.</desc>
<speed>0.210000</speed>
</trkpt>
<trkpt lat="55.900311" lon="26.528942">
<ele>111.751038</ele>
<time>2010-06-20T15:20:49Z</time>
<desc>lat.=55.900311, lon.=26.528942, Alt.=111.751038m. Speed=0.648000m/h.</desc>
<speed>0.180000</speed>
</trkpt>
<trkpt lat="55.900307" lon="26.528942">
<ele>111.749084</ele>
<time>2010-06-20T15:20:50Z</time>
<desc>lat.=55.900307, lon.=26.528942, Alt.=111.749084m. Speed=0.612000m/h.</desc>
<speed>0.170000</speed>
</trkpt>
<trkpt lat="55.900307" lon="26.528944">
<ele>111.745178</ele>
<time>2010-06-20T15:20:51Z</time>
<desc>lat.=55.900307, lon.=26.528944, Alt.=111.745178m. Speed=0.324000m/h.</desc>
<speed>0.090000</speed>
</trkpt>
<trkpt lat="55.900307" lon="26.528942">
<ele>111.747131</ele>
<time>2010-06-20T15:20:52Z</time>
<desc>lat.=55.900307, lon.=26.528942, Alt.=111.747131m. Speed=0.216000m/h.</desc>
<speed>0.060000</speed>
</trkpt>
<trkpt lat="55.900307" lon="26.528942">
<ele>111.751038</ele>
<time>2010-06-20T15:20:53Z</time>
<desc>lat.=55.900307, lon.=26.528942, Alt.=111.751038m. Speed=0.432000m/h.</desc>
<speed>0.120000</speed>
</trkpt>
<trkpt lat="55.900307" lon="26.528942">
<ele>111.752991</ele>
<time>2010-06-20T15:20:54Z</time>
<desc>lat.=55.900307, lon.=26.528942, Alt.=111.752991m. Speed=0.648000m/h.</desc>
<speed>0.180000</speed>
</trkpt>
<trkpt lat="55.900307" lon="26.528942">
<ele>111.762756</ele>
<time>2010-06-20T15:20:55Z</time>
<desc>lat.=55.900307, lon.=26.528942, Alt.=111.762756m. Speed=0.144000m/h.</desc>
<speed>0.040000</speed>
</trkpt>
<trkpt lat="55.900307" lon="26.528942">
<ele>111.770569</ele>
<time>2010-06-20T15:20:56Z</time>
<desc>lat.=55.900307, lon.=26.528942, Alt.=111.770569m. Speed=0.288000m/h.</desc>
<speed>0.080000</speed>
</trkpt>
<trkpt lat="55.900307" lon="26.528942">
<ele>111.776428</ele>
<time>2010-06-20T15:20:57Z</time>
<desc>lat.=55.900307, lon.=26.528942, Alt.=111.776428m. Speed=0.288000m/h.</desc>
<speed>0.080000</speed>
</trkpt>
<trkpt lat="55.900307" lon="26.528942">
<ele>111.780334</ele>
<time>2010-06-20T15:20:58Z</time>
<desc>lat.=55.900307, lon.=26.528942, Alt.=111.780334m. Speed=0.144000m/h.</desc>
<speed>0.040000</speed>
</trkpt>
<trkpt lat="55.900307" lon="26.528942">
<ele>111.780334</ele>
<time>2010-06-20T15:20:59Z</time>
<desc>lat.=55.900307, lon.=26.528942, Alt.=111.780334m. Speed=0.108000m/h.</desc>
<speed>0.030000</speed>
</trkpt>
<trkpt lat="55.900307" lon="26.528942">
<ele>111.778381</ele>
<time>2010-06-20T15:21:00Z</time>
<desc>lat.=55.900307, lon.=26.528942, Alt.=111.778381m. Speed=0.324000m/h.</desc>
<speed>0.090000</speed>
</trkpt>
<trkpt lat="55.900307" lon="26.528940">
<ele>111.778381</ele>
<time>2010-06-20T15:21:01Z</time>
<desc>lat.=55.900307, lon.=26.528940, Alt.=111.778381m. Speed=0.000000m/h.</desc>
<speed>0.000000</speed>
</trkpt>
<trkpt lat="55.900307" lon="26.528940">
<ele>111.774475</ele>
<time>2010-06-20T15:21:02Z</time>
<desc>lat.=55.900307, lon.=26.528940, Alt.=111.774475m. Speed=0.324000m/h.</desc>
<speed>0.090000</speed>
</trkpt>
<trkpt lat="55.900307" lon="26.528938">
<ele>111.770569</ele>
<time>2010-06-20T15:21:03Z</time>
<desc>lat.=55.900307, lon.=26.528938, Alt.=111.770569m. Speed=0.936000m/h.</desc>
<speed>0.260000</speed>
</trkpt>
<trkpt lat="55.900307" lon="26.528934">
<ele>111.770569</ele>
<time>2010-06-20T15:21:04Z</time>
<desc>lat.=55.900307, lon.=26.528934, Alt.=111.770569m. Speed=0.864000m/h.</desc>
<speed>0.240000</speed>
</trkpt>
<trkpt lat="55.900307" lon="26.528931">
<ele>111.768616</ele>
<time>2010-06-20T15:21:05Z</time>
<desc>lat.=55.900307, lon.=26.528931, Alt.=111.768616m. Speed=0.936000m/h.</desc>
<speed>0.260000</speed>
</trkpt>
<trkpt lat="55.900307" lon="26.528927">
<ele>111.764709</ele>
<time>2010-06-20T15:21:06Z</time>
<desc>lat.=55.900307, lon.=26.528927, Alt.=111.764709m. Speed=0.756000m/h.</desc>
<speed>0.210000</speed>
</trkpt>
<trkpt lat="55.900303" lon="26.528923">
<ele>111.764709</ele>
<time>2010-06-20T15:21:07Z</time>
<desc>lat.=55.900303, lon.=26.528923, Alt.=111.764709m. Speed=0.756000m/h.</desc>
<speed>0.210000</speed>
</trkpt>
<trkpt lat="55.900307" lon="26.528919">
<ele>111.760803</ele>
<time>2010-06-20T15:21:08Z</time>
<desc>lat.=55.900307, lon.=26.528919, Alt.=111.760803m. Speed=1.008000m/h.</desc>
<speed>0.280000</speed>
</trkpt>
<trkpt lat="55.900307" lon="26.528915">
<ele>111.754944</ele>
<time>2010-06-20T15:21:09Z</time>
<desc>lat.=55.900307, lon.=26.528915, Alt.=111.754944m. Speed=0.972000m/h.</desc>
<speed>0.270000</speed>
</trkpt>
<trkpt lat="55.900307" lon="26.528912">
<ele>111.752991</ele>
<time>2010-06-20T15:21:10Z</time>
<desc>lat.=55.900307, lon.=26.528912, Alt.=111.752991m. Speed=0.792000m/h.</desc>
<speed>0.220000</speed>
</trkpt>
<trkpt lat="55.900307" lon="26.528908">
<ele>111.754944</ele>
<time>2010-06-20T15:21:11Z</time>
<desc>lat.=55.900307, lon.=26.528908, Alt.=111.754944m. Speed=0.540000m/h.</desc>
<speed>0.150000</speed>
</trkpt>
<trkpt lat="55.900307" lon="26.528906">
<ele>111.754944</ele>
<time>2010-06-20T15:21:12Z</time>
<desc>lat.=55.900307, lon.=26.528906, Alt.=111.754944m. Speed=0.288000m/h.</desc>
<speed>0.080000</speed>
</trkpt>
<trkpt lat="55.900307" lon="26.528904">
<ele>111.756897</ele>
<time>2010-06-20T15:21:13Z</time>
<desc>lat.=55.900307, lon.=26.528904, Alt.=111.756897m. Speed=0.360000m/h.</desc>
<speed>0.100000</speed>
</trkpt>
<trkpt lat="55.900307" lon="26.528906">
<ele>111.760803</ele>
<time>2010-06-20T15:21:14Z</time>
<desc>lat.=55.900307, lon.=26.528906, Alt.=111.760803m. Speed=0.720000m/h.</desc>
<speed>0.200000</speed>
</trkpt>
<trkpt lat="55.900303" lon="26.528908">
<ele>111.762756</ele>
<time>2010-06-20T15:21:15Z</time>
<desc>lat.=55.900303, lon.=26.528908, Alt.=111.762756m. Speed=0.216000m/h.</desc>
<speed>0.060000</speed>
</trkpt>
<trkpt lat="55.900303" lon="26.528910">
<ele>111.764709</ele>
<time>2010-06-20T15:21:16Z</time>
<desc>lat.=55.900303, lon.=26.528910, Alt.=111.764709m. Speed=0.504000m/h.</desc>
<speed>0.140000</speed>
</trkpt>
<trkpt lat="55.900303" lon="26.528908">
<ele>111.764709</ele>
<time>2010-06-20T15:21:17Z</time>
<desc>lat.=55.900303, lon.=26.528908, Alt.=111.764709m. Speed=0.252000m/h.</desc>
<speed>0.070000</speed>
</trkpt>
<trkpt lat="55.900303" lon="26.528908">
<ele>111.770569</ele>
<time>2010-06-20T15:21:18Z</time>
<desc>lat.=55.900303, lon.=26.528908, Alt.=111.770569m. Speed=0.612000m/h.</desc>
<speed>0.170000</speed>
</trkpt>
<trkpt lat="55.900303" lon="26.528908">
<ele>111.774475</ele>
<time>2010-06-20T15:21:19Z</time>
<desc>lat.=55.900303, lon.=26.528908, Alt.=111.774475m. Speed=0.252000m/h.</desc>
<speed>0.070000</speed>
</trkpt>
<trkpt lat="55.900303" lon="26.528906">
<ele>111.782288</ele>
<time>2010-06-20T15:21:20Z</time>
<desc>lat.=55.900303, lon.=26.528906, Alt.=111.782288m. Speed=0.144000m/h.</desc>
<speed>0.040000</speed>
</trkpt>
<trkpt lat="55.900303" lon="26.528906">
<ele>111.786194</ele>
<time>2010-06-20T15:21:21Z</time>
<desc>lat.=55.900303, lon.=26.528906, Alt.=111.786194m. Speed=0.936000m/h.</desc>
<speed>0.260000</speed>
</trkpt>
<trkpt lat="55.900303" lon="26.528912">
<ele>111.792053</ele>
<time>2010-06-20T15:21:22Z</time>
<desc>lat.=55.900303, lon.=26.528912, Alt.=111.792053m. Speed=0.972000m/h.</desc>
<speed>0.270000</speed>
</trkpt>
<trkpt lat="55.900303" lon="26.528915">
<ele>111.799866</ele>
<time>2010-06-20T15:21:23Z</time>
<desc>lat.=55.900303, lon.=26.528915, Alt.=111.799866m. Speed=0.648000m/h.</desc>
<speed>0.180000</speed>
</trkpt>
<trkpt lat="55.900303" lon="26.528917">
<ele>111.807678</ele>
<time>2010-06-20T15:21:24Z</time>
<desc>lat.=55.900303, lon.=26.528917, Alt.=111.807678m. Speed=0.468000m/h.</desc>
<speed>0.130000</speed>
</trkpt>
<trkpt lat="55.900303" lon="26.528919">
<ele>111.811584</ele>
<time>2010-06-20T15:21:25Z</time>
<desc>lat.=55.900303, lon.=26.528919, Alt.=111.811584m. Speed=1.152000m/h.</desc>
<speed>0.320000</speed>
</trkpt>
<trkpt lat="55.900311" lon="26.528912">
<ele>111.788147</ele>
<time>2010-06-20T15:21:26Z</time>
<desc>lat.=55.900311, lon.=26.528912, Alt.=111.788147m. Speed=0.720000m/h.</desc>
<speed>0.200000</speed>
</trkpt>
<trkpt lat="55.900314" lon="26.528902">
<ele>111.745178</ele>
<time>2010-06-20T15:21:27Z</time>
<desc>lat.=55.900314, lon.=26.528902, Alt.=111.745178m. Speed=0.612000m/h.</desc>
<speed>0.170000</speed>
</trkpt>
<trkpt lat="55.900322" lon="26.528893">
<ele>111.692444</ele>
<time>2010-06-20T15:21:28Z</time>
<desc>lat.=55.900322, lon.=26.528893, Alt.=111.692444m. Speed=0.612000m/h.</desc>
<speed>0.170000</speed>
</trkpt>
<trkpt lat="55.900326" lon="26.528877">
<ele>111.805725</ele>
<time>2010-06-20T15:21:29Z</time>
<desc>lat.=55.900326, lon.=26.528877, Alt.=111.805725m. Speed=1.044000m/h.</desc>
<speed>0.290000</speed>
</trkpt>
<trkpt lat="55.900330" lon="26.528875">
<ele>111.805725</ele>
<time>2010-06-20T15:21:30Z</time>
<desc>lat.=55.900330, lon.=26.528875, Alt.=111.805725m. Speed=1.512000m/h.</desc>
<speed>0.420000</speed>
</trkpt>
<trkpt lat="55.900333" lon="26.528868">
<ele>111.860413</ele>
<time>2010-06-20T15:21:31Z</time>
<desc>lat.=55.900333, lon.=26.528868, Alt.=111.860413m. Speed=0.972000m/h.</desc>
<speed>0.270000</speed>
</trkpt>
<trkpt lat="55.900333" lon="26.528866">
<ele>111.924866</ele>
<time>2010-06-20T15:21:32Z</time>
<desc>lat.=55.900333, lon.=26.528866, Alt.=111.924866m. Speed=0.828000m/h.</desc>
<speed>0.230000</speed>
</trkpt>
<trkpt lat="55.900330" lon="26.528868">
<ele>111.946350</ele>
<time>2010-06-20T15:21:33Z</time>
<desc>lat.=55.900330, lon.=26.528868, Alt.=111.946350m. Speed=0.864000m/h.</desc>
<speed>0.240000</speed>
</trkpt>
<trkpt lat="55.900322" lon="26.528877">
<ele>111.963928</ele>
<time>2010-06-20T15:21:34Z</time>
<desc>lat.=55.900322, lon.=26.528877, Alt.=111.963928m. Speed=0.828000m/h.</desc>
<speed>0.230000</speed>
</trkpt>
<trkpt lat="55.900322" lon="26.528875">
<ele>111.963928</ele>
<time>2010-06-20T15:21:35Z</time>
<desc>lat.=55.900322, lon.=26.528875, Alt.=111.963928m. Speed=0.684000m/h.</desc>
<speed>0.190000</speed>
</trkpt>
<trkpt lat="55.900322" lon="26.528873">
<ele>111.958069</ele>
<time>2010-06-20T15:21:36Z</time>
<desc>lat.=55.900322, lon.=26.528873, Alt.=111.958069m. Speed=0.360000m/h.</desc>
<speed>0.100000</speed>
</trkpt>
<trkpt lat="55.900318" lon="26.528872">
<ele>111.956116</ele>
<time>2010-06-20T15:21:37Z</time>
<desc>lat.=55.900318, lon.=26.528872, Alt.=111.956116m. Speed=0.216000m/h.</desc>
<speed>0.060000</speed>
</trkpt>
<trkpt lat="55.900318" lon="26.528873">
<ele>111.952209</ele>
<time>2010-06-20T15:21:38Z</time>
<desc>lat.=55.900318, lon.=26.528873, Alt.=111.952209m. Speed=0.540000m/h.</desc>
<speed>0.150000</speed>
</trkpt>
<trkpt lat="55.900318" lon="26.528875">
<ele>111.946350</ele>
<time>2010-06-20T15:21:39Z</time>
<desc>lat.=55.900318, lon.=26.528875, Alt.=111.946350m. Speed=0.864000m/h.</desc>
<speed>0.240000</speed>
</trkpt>
<trkpt lat="55.900318" lon="26.528879">
<ele>111.942444</ele>
<time>2010-06-20T15:21:40Z</time>
<desc>lat.=55.900318, lon.=26.528879, Alt.=111.942444m. Speed=0.360000m/h.</desc>
<speed>0.100000</speed>
</trkpt>
<trkpt lat="55.900318" lon="26.528881">
<ele>111.936584</ele>
<time>2010-06-20T15:21:41Z</time>
<desc>lat.=55.900318, lon.=26.528881, Alt.=111.936584m. Speed=0.540000m/h.</desc>
<speed>0.150000</speed>
</trkpt>
<trkpt lat="55.900318" lon="26.528883">
<ele>111.930725</ele>
<time>2010-06-20T15:21:42Z</time>
<desc>lat.=55.900318, lon.=26.528883, Alt.=111.930725m. Speed=1.080000m/h.</desc>
<speed>0.300000</speed>
</trkpt>
<trkpt lat="55.900318" lon="26.528887">
<ele>111.827209</ele>
<time>2010-06-20T15:21:43Z</time>
<desc>lat.=55.900318, lon.=26.528887, Alt.=111.827209m. Speed=0.972000m/h.</desc>
<speed>0.270000</speed>
</trkpt>
<trkpt lat="55.900322" lon="26.528887">
<ele>111.721741</ele>
<time>2010-06-20T15:21:44Z</time>
<desc>lat.=55.900322, lon.=26.528887, Alt.=111.721741m. Speed=0.864000m/h.</desc>
<speed>0.240000</speed>
</trkpt>
<trkpt lat="55.900326" lon="26.528891">
<ele>111.692444</ele>
<time>2010-06-20T15:21:45Z</time>
<desc>lat.=55.900326, lon.=26.528891, Alt.=111.692444m. Speed=0.900000m/h.</desc>
<speed>0.250000</speed>
</trkpt>
<trkpt lat="55.900326" lon="26.528906">
<ele>111.653381</ele>
<time>2010-06-20T15:21:46Z</time>
<desc>lat.=55.900326, lon.=26.528906, Alt.=111.653381m. Speed=0.828000m/h.</desc>
<speed>0.230000</speed>
</trkpt>
<trkpt lat="55.900326" lon="26.528910">
<ele>111.647522</ele>
<time>2010-06-20T15:21:47Z</time>
<desc>lat.=55.900326, lon.=26.528910, Alt.=111.647522m. Speed=0.468000m/h.</desc>
<speed>0.130000</speed>
</trkpt>
<trkpt lat="55.900326" lon="26.528912">
<ele>111.641663</ele>
<time>2010-06-20T15:21:48Z</time>
<desc>lat.=55.900326, lon.=26.528912, Alt.=111.641663m. Speed=0.648000m/h.</desc>
<speed>0.180000</speed>
</trkpt>
<trkpt lat="55.900326" lon="26.528915">
<ele>111.635803</ele>
<time>2010-06-20T15:21:49Z</time>
<desc>lat.=55.900326, lon.=26.528915, Alt.=111.635803m. Speed=0.252000m/h.</desc>
<speed>0.070000</speed>
</trkpt>
<trkpt lat="55.900326" lon="26.528915">
<ele>111.631897</ele>
<time>2010-06-20T15:21:50Z</time>
<desc>lat.=55.900326, lon.=26.528915, Alt.=111.631897m. Speed=0.216000m/h.</desc>
<speed>0.060000</speed>
</trkpt>
<trkpt lat="55.900326" lon="26.528915">
<ele>111.624084</ele>
<time>2010-06-20T15:21:51Z</time>
<desc>lat.=55.900326, lon.=26.528915, Alt.=111.624084m. Speed=0.684000m/h.</desc>
<speed>0.190000</speed>
</trkpt>
<trkpt lat="55.900326" lon="26.528915">
<ele>111.614319</ele>
<time>2010-06-20T15:21:52Z</time>
<desc>lat.=55.900326, lon.=26.528915, Alt.=111.614319m. Speed=0.900000m/h.</desc>
<speed>0.250000</speed>
</trkpt>
<trkpt lat="55.900322" lon="26.528913">
<ele>111.604553</ele>
<time>2010-06-20T15:21:53Z</time>
<desc>lat.=55.900322, lon.=26.528913, Alt.=111.604553m. Speed=0.648000m/h.</desc>
<speed>0.180000</speed>
</trkpt>
<trkpt lat="55.900322" lon="26.528915">
<ele>111.598694</ele>
<time>2010-06-20T15:21:54Z</time>
<desc>lat.=55.900322, lon.=26.528915, Alt.=111.598694m. Speed=0.864000m/h.</desc>
<speed>0.240000</speed>
</trkpt>
<trkpt lat="55.900318" lon="26.528913">
<ele>111.594788</ele>
<time>2010-06-20T15:21:55Z</time>
<desc>lat.=55.900318, lon.=26.528913, Alt.=111.594788m. Speed=0.792000m/h.</desc>
<speed>0.220000</speed>
</trkpt>
<trkpt lat="55.900318" lon="26.528912">
<ele>111.592834</ele>
<time>2010-06-20T15:21:56Z</time>
<desc>lat.=55.900318, lon.=26.528912, Alt.=111.592834m. Speed=1.080000m/h.</desc>
<speed>0.300000</speed>
</trkpt>
<trkpt lat="55.900311" lon="26.528915">
<ele>111.622131</ele>
<time>2010-06-20T15:21:57Z</time>
<desc>lat.=55.900311, lon.=26.528915, Alt.=111.622131m. Speed=0.864000m/h.</desc>
<speed>0.240000</speed>
</trkpt>
<trkpt lat="55.900307" lon="26.528915">
<ele>111.651428</ele>
<time>2010-06-20T15:21:58Z</time>
<desc>lat.=55.900307, lon.=26.528915, Alt.=111.651428m. Speed=0.864000m/h.</desc>
<speed>0.240000</speed>
</trkpt>
<trkpt lat="55.900299" lon="26.528917">
<ele>111.631897</ele>
<time>2010-06-20T15:21:59Z</time>
<desc>lat.=55.900299, lon.=26.528917, Alt.=111.631897m. Speed=1.008000m/h.</desc>
<speed>0.280000</speed>
</trkpt>
<trkpt lat="55.900291" lon="26.528910">
<ele>111.614319</ele>
<time>2010-06-20T15:22:00Z</time>
<desc>lat.=55.900291, lon.=26.528910, Alt.=111.614319m. Speed=1.332000m/h.</desc>
<speed>0.370000</speed>
</trkpt>
<trkpt lat="55.900288" lon="26.528921">
<ele>111.588928</ele>
<time>2010-06-20T15:22:01Z</time>
<desc>lat.=55.900288, lon.=26.528921, Alt.=111.588928m. Speed=1.116000m/h.</desc>
<speed>0.310000</speed>
</trkpt>
<trkpt lat="55.900288" lon="26.528923">
<ele>111.555725</ele>
<time>2010-06-20T15:22:02Z</time>
<desc>lat.=55.900288, lon.=26.528923, Alt.=111.555725m. Speed=1.188000m/h.</desc>
<speed>0.330000</speed>
</trkpt>
<trkpt lat="55.900291" lon="26.528921">
<ele>111.508850</ele>
<time>2010-06-20T15:22:03Z</time>
<desc>lat.=55.900291, lon.=26.528921, Alt.=111.508850m. Speed=0.756000m/h.</desc>
<speed>0.210000</speed>
</trkpt>
<trkpt lat="55.900284" lon="26.528934">
<ele>111.489319</ele>
<time>2010-06-20T15:22:04Z</time>
<desc>lat.=55.900284, lon.=26.528934, Alt.=111.489319m. Speed=1.080000m/h.</desc>
<speed>0.300000</speed>
</trkpt>
<trkpt lat="55.900284" lon="26.528940">
<ele>111.469788</ele>
<time>2010-06-20T15:22:05Z</time>
<desc>lat.=55.900284, lon.=26.528940, Alt.=111.469788m. Speed=0.756000m/h.</desc>
<speed>0.210000</speed>
</trkpt>
<trkpt lat="55.900288" lon="26.528952">
<ele>111.479553</ele>
<time>2010-06-20T15:22:06Z</time>
<desc>lat.=55.900288, lon.=26.528952, Alt.=111.479553m. Speed=0.720000m/h.</desc>
<speed>0.200000</speed>
</trkpt>
<trkpt lat="55.900291" lon="26.528957">
<ele>111.417053</ele>
<time>2010-06-20T15:22:07Z</time>
<desc>lat.=55.900291, lon.=26.528957, Alt.=111.417053m. Speed=1.080000m/h.</desc>
<speed>0.300000</speed>
</trkpt>
<trkpt lat="55.900295" lon="26.528965">
<ele>111.372131</ele>
<time>2010-06-20T15:22:08Z</time>
<desc>lat.=55.900295, lon.=26.528965, Alt.=111.372131m. Speed=1.296000m/h.</desc>
<speed>0.360000</speed>
</trkpt>
<trkpt lat="55.900299" lon="26.528967">
<ele>111.295959</ele>
<time>2010-06-20T15:22:09Z</time>
<desc>lat.=55.900299, lon.=26.528967, Alt.=111.295959m. Speed=0.900000m/h.</desc>
<speed>0.250000</speed>
</trkpt>
<trkpt lat="55.900295" lon="26.528967">
<ele>111.147522</ele>
<time>2010-06-20T15:22:10Z</time>
<desc>lat.=55.900295, lon.=26.528967, Alt.=111.147522m. Speed=0.792000m/h.</desc>
<speed>0.220000</speed>
</trkpt>
<trkpt lat="55.900299" lon="26.528971">
<ele>111.006897</ele>
<time>2010-06-20T15:22:11Z</time>
<desc>lat.=55.900299, lon.=26.528971, Alt.=111.006897m. Speed=0.612000m/h.</desc>
<speed>0.170000</speed>
</trkpt>
<trkpt lat="55.900295" lon="26.528959">
<ele>110.850647</ele>
<time>2010-06-20T15:22:12Z</time>
<desc>lat.=55.900295, lon.=26.528959, Alt.=110.850647m. Speed=0.180000m/h.</desc>
<speed>0.050000</speed>
</trkpt>
<trkpt lat="55.900295" lon="26.528959">
<ele>110.842834</ele>
<time>2010-06-20T15:22:13Z</time>
<desc>lat.=55.900295, lon.=26.528959, Alt.=110.842834m. Speed=0.000000m/h.</desc>
<speed>0.000000</speed>
</trkpt>
<trkpt lat="55.900295" lon="26.528959">
<ele>110.838928</ele>
<time>2010-06-20T15:22:14Z</time>
<desc>lat.=55.900295, lon.=26.528959, Alt.=110.838928m. Speed=0.576000m/h.</desc>
<speed>0.160000</speed>
</trkpt>
<trkpt lat="55.900295" lon="26.528961">
<ele>110.835022</ele>
<time>2010-06-20T15:22:15Z</time>
<desc>lat.=55.900295, lon.=26.528961, Alt.=110.835022m. Speed=0.396000m/h.</desc>
<speed>0.110000</speed>
</trkpt>
<trkpt lat="55.900295" lon="26.528963">
<ele>110.831116</ele>
<time>2010-06-20T15:22:16Z</time>
<desc>lat.=55.900295, lon.=26.528963, Alt.=110.831116m. Speed=0.720000m/h.</desc>
<speed>0.200000</speed>
</trkpt>
<trkpt lat="55.900295" lon="26.528965">
<ele>110.827209</ele>
<time>2010-06-20T15:22:17Z</time>
<desc>lat.=55.900295, lon.=26.528965, Alt.=110.827209m. Speed=0.540000m/h.</desc>
<speed>0.150000</speed>
</trkpt>
<trkpt lat="55.900295" lon="26.528969">
<ele>110.823303</ele>
<time>2010-06-20T15:22:18Z</time>
<desc>lat.=55.900295, lon.=26.528969, Alt.=110.823303m. Speed=0.612000m/h.</desc>
<speed>0.170000</speed>
</trkpt>
<trkpt lat="55.900295" lon="26.528971">
<ele>110.817444</ele>
<time>2010-06-20T15:22:19Z</time>
<desc>lat.=55.900295, lon.=26.528971, Alt.=110.817444m. Speed=0.540000m/h.</desc>
<speed>0.150000</speed>
</trkpt>
<trkpt lat="55.900291" lon="26.528973">
<ele>110.819397</ele>
<time>2010-06-20T15:22:20Z</time>
<desc>lat.=55.900291, lon.=26.528973, Alt.=110.819397m. Speed=0.540000m/h.</desc>
<speed>0.150000</speed>
</trkpt>
<trkpt lat="55.900291" lon="26.528975">
<ele>110.819397</ele>
<time>2010-06-20T15:22:21Z</time>
<desc>lat.=55.900291, lon.=26.528975, Alt.=110.819397m. Speed=0.828000m/h.</desc>
<speed>0.230000</speed>
</trkpt>
<trkpt lat="55.900291" lon="26.528978">
<ele>110.819397</ele>
<time>2010-06-20T15:22:22Z</time>
<desc>lat.=55.900291, lon.=26.528978, Alt.=110.819397m. Speed=0.648000m/h.</desc>
<speed>0.180000</speed>
</trkpt>
<trkpt lat="55.900291" lon="26.528980">
<ele>110.817444</ele>
<time>2010-06-20T15:22:23Z</time>
<desc>lat.=55.900291, lon.=26.528980, Alt.=110.817444m. Speed=1.008000m/h.</desc>
<speed>0.280000</speed>
</trkpt>
<trkpt lat="55.900288" lon="26.528984">
<ele>110.813538</ele>
<time>2010-06-20T15:22:24Z</time>
<desc>lat.=55.900288, lon.=26.528984, Alt.=110.813538m. Speed=0.936000m/h.</desc>
<speed>0.260000</speed>
</trkpt>
<trkpt lat="55.900288" lon="26.528986">
<ele>110.807678</ele>
<time>2010-06-20T15:22:25Z</time>
<desc>lat.=55.900288, lon.=26.528986, Alt.=110.807678m. Speed=0.504000m/h.</desc>
<speed>0.140000</speed>
</trkpt>
<trkpt lat="55.900288" lon="26.528988">
<ele>110.807678</ele>
<time>2010-06-20T15:22:26Z</time>
<desc>lat.=55.900288, lon.=26.528988, Alt.=110.807678m. Speed=0.396000m/h.</desc>
<speed>0.110000</speed>
</trkpt>
<trkpt lat="55.900288" lon="26.528988">
<ele>110.319397</ele>
<time>2010-06-20T15:22:27Z</time>
<desc>lat.=55.900288, lon.=26.528988, Alt.=110.319397m. Speed=2.160000m/h.</desc>
<speed>0.600000</speed>
</trkpt>
<trkpt lat="55.900299" lon="26.528988">
<ele>110.198303</ele>
<time>2010-06-20T15:22:28Z</time>
<desc>lat.=55.900299, lon.=26.528988, Alt.=110.198303m. Speed=2.592000m/h.</desc>
<speed>0.720000</speed>
</trkpt>
<trkpt lat="55.900307" lon="26.528988">
<ele>109.922913</ele>
<time>2010-06-20T15:22:29Z</time>
<desc>lat.=55.900307, lon.=26.528988, Alt.=109.922913m. Speed=3.024000m/h.</desc>
<speed>0.840000</speed>
</trkpt>
<trkpt lat="55.900326" lon="26.528986">
<ele>109.846741</ele>
<time>2010-06-20T15:22:30Z</time>
<desc>lat.=55.900326, lon.=26.528986, Alt.=109.846741m. Speed=3.960000m/h.</desc>
<speed>1.100000</speed>
</trkpt>
<trkpt lat="55.900333" lon="26.528982">
<ele>109.596741</ele>
<time>2010-06-20T15:22:31Z</time>
<desc>lat.=55.900333, lon.=26.528982, Alt.=109.596741m. Speed=3.564000m/h.</desc>
<speed>0.990000</speed>
</trkpt>
<trkpt lat="55.900341" lon="26.528976">
<ele>109.467834</ele>
<time>2010-06-20T15:22:32Z</time>
<desc>lat.=55.900341, lon.=26.528976, Alt.=109.467834m. Speed=3.348000m/h.</desc>
<speed>0.930000</speed>
</trkpt>
<trkpt lat="55.900352" lon="26.528967">
<ele>109.085022</ele>
<time>2010-06-20T15:22:33Z</time>
<desc>lat.=55.900352, lon.=26.528967, Alt.=109.085022m. Speed=3.168000m/h.</desc>
<speed>0.880000</speed>
</trkpt>
<trkpt lat="55.900364" lon="26.528961">
<ele>108.534241</ele>
<time>2010-06-20T15:22:34Z</time>
<desc>lat.=55.900364, lon.=26.528961, Alt.=108.534241m. Speed=3.456000m/h.</desc>
<speed>0.960000</speed>
</trkpt>
<trkpt lat="55.900379" lon="26.528959">
<ele>108.155334</ele>
<time>2010-06-20T15:22:35Z</time>
<desc>lat.=55.900379, lon.=26.528959, Alt.=108.155334m. Speed=3.780000m/h.</desc>
<speed>1.050000</speed>
</trkpt>
<trkpt lat="55.900387" lon="26.528950">
<ele>107.700256</ele>
<time>2010-06-20T15:22:36Z</time>
<desc>lat.=55.900387, lon.=26.528950, Alt.=107.700256m. Speed=3.672000m/h.</desc>
<speed>1.020000</speed>
</trkpt>
<trkpt lat="55.900398" lon="26.528929">
<ele>107.299866</ele>
<time>2010-06-20T15:22:37Z</time>
<desc>lat.=55.900398, lon.=26.528929, Alt.=107.299866m. Speed=3.888000m/h.</desc>
<speed>1.080000</speed>
</trkpt>
<trkpt lat="55.900406" lon="26.528923">
<ele>107.276428</ele>
<time>2010-06-20T15:22:38Z</time>
<desc>lat.=55.900406, lon.=26.528923, Alt.=107.276428m. Speed=2.952000m/h.</desc>
<speed>0.820000</speed>
</trkpt>
<trkpt lat="55.900417" lon="26.528908">
<ele>107.176819</ele>
<time>2010-06-20T15:22:39Z</time>
<desc>lat.=55.900417, lon.=26.528908, Alt.=107.176819m. Speed=3.312000m/h.</desc>
<speed>0.920000</speed>
</trkpt>
<trkpt lat="55.900425" lon="26.528900">
<ele>107.139709</ele>
<time>2010-06-20T15:22:40Z</time>
<desc>lat.=55.900425, lon.=26.528900, Alt.=107.139709m. Speed=2.808000m/h.</desc>
<speed>0.780000</speed>
</trkpt>
<trkpt lat="55.900425" lon="26.528891">
<ele>106.749084</ele>
<time>2010-06-20T15:22:41Z</time>
<desc>lat.=55.900425, lon.=26.528891, Alt.=106.749084m. Speed=2.448000m/h.</desc>
<speed>0.680000</speed>
</trkpt>
<trkpt lat="55.900425" lon="26.528877">
<ele>106.368225</ele>
<time>2010-06-20T15:22:42Z</time>
<desc>lat.=55.900425, lon.=26.528877, Alt.=106.368225m. Speed=2.376000m/h.</desc>
<speed>0.660000</speed>
</trkpt>
<trkpt lat="55.900417" lon="26.528866">
<ele>105.715881</ele>
<time>2010-06-20T15:22:43Z</time>
<desc>lat.=55.900417, lon.=26.528866, Alt.=105.715881m. Speed=2.088000m/h.</desc>
<speed>0.580000</speed>
</trkpt>
<trkpt lat="55.900414" lon="26.528870">
<ele>105.057678</ele>
<time>2010-06-20T15:22:44Z</time>
<desc>lat.=55.900414, lon.=26.528870, Alt.=105.057678m. Speed=1.584000m/h.</desc>
<speed>0.440000</speed>
</trkpt>
<trkpt lat="55.900402" lon="26.528858">
<ele>104.766663</ele>
<time>2010-06-20T15:22:45Z</time>
<desc>lat.=55.900402, lon.=26.528858, Alt.=104.766663m. Speed=1.548000m/h.</desc>
<speed>0.430000</speed>
</trkpt>
<trkpt lat="55.900406" lon="26.528864">
<ele>104.741272</ele>
<time>2010-06-20T15:22:46Z</time>
<desc>lat.=55.900406, lon.=26.528864, Alt.=104.741272m. Speed=1.152000m/h.</desc>
<speed>0.320000</speed>
</trkpt>
<trkpt lat="55.900387" lon="26.528877">
<ele>104.741272</ele>
<time>2010-06-20T15:22:47Z</time>
<desc>lat.=55.900387, lon.=26.528877, Alt.=104.741272m. Speed=0.864000m/h.</desc>
<speed>0.240000</speed>
</trkpt>
<trkpt lat="55.900379" lon="26.528887">
<ele>104.461975</ele>
<time>2010-06-20T15:22:48Z</time>
<desc>lat.=55.900379, lon.=26.528887, Alt.=104.461975m. Speed=0.828000m/h.</desc>
<speed>0.230000</speed>
</trkpt>
<trkpt lat="55.900364" lon="26.528896">
<ele>104.333069</ele>
<time>2010-06-20T15:22:49Z</time>
<desc>lat.=55.900364, lon.=26.528896, Alt.=104.333069m. Speed=1.692000m/h.</desc>
<speed>0.470000</speed>
</trkpt>
<trkpt lat="55.900349" lon="26.528906">
<ele>104.133850</ele>
<time>2010-06-20T15:22:50Z</time>
<desc>lat.=55.900349, lon.=26.528906, Alt.=104.133850m. Speed=1.908000m/h.</desc>
<speed>0.530000</speed>
</trkpt>
<trkpt lat="55.900337" lon="26.528917">
<ele>103.991272</ele>
<time>2010-06-20T15:22:51Z</time>
<desc>lat.=55.900337, lon.=26.528917, Alt.=103.991272m. Speed=1.908000m/h.</desc>
<speed>0.530000</speed>
</trkpt>
<trkpt lat="55.900333" lon="26.528944">
<ele>104.114319</ele>
<time>2010-06-20T15:22:52Z</time>
<desc>lat.=55.900333, lon.=26.528944, Alt.=104.114319m. Speed=1.872000m/h.</desc>
<speed>0.520000</speed>
</trkpt>
<trkpt lat="55.900326" lon="26.528961">
<ele>104.083069</ele>
<time>2010-06-20T15:22:53Z</time>
<desc>lat.=55.900326, lon.=26.528961, Alt.=104.083069m. Speed=1.944000m/h.</desc>
<speed>0.540000</speed>
</trkpt>
<trkpt lat="55.900318" lon="26.528980">
<ele>104.051819</ele>
<time>2010-06-20T15:22:54Z</time>
<desc>lat.=55.900318, lon.=26.528980, Alt.=104.051819m. Speed=2.268000m/h.</desc>
<speed>0.630000</speed>
</trkpt>
<trkpt lat="55.900314" lon="26.528988">
<ele>103.911194</ele>
<time>2010-06-20T15:22:55Z</time>
<desc>lat.=55.900314, lon.=26.528988, Alt.=103.911194m. Speed=1.584000m/h.</desc>
<speed>0.440000</speed>
</trkpt>
<trkpt lat="55.900326" lon="26.529001">
<ele>103.825256</ele>
<time>2010-06-20T15:22:56Z</time>
<desc>lat.=55.900326, lon.=26.529001, Alt.=103.825256m. Speed=1.440000m/h.</desc>
<speed>0.400000</speed>
</trkpt>
<trkpt lat="55.900322" lon="26.529005">
<ele>103.756897</ele>
<time>2010-06-20T15:22:57Z</time>
<desc>lat.=55.900322, lon.=26.529005, Alt.=103.756897m. Speed=1.116000m/h.</desc>
<speed>0.310000</speed>
</trkpt>
<trkpt lat="55.900318" lon="26.529007">
<ele>103.706116</ele>
<time>2010-06-20T15:22:58Z</time>
<desc>lat.=55.900318, lon.=26.529007, Alt.=103.706116m. Speed=0.828000m/h.</desc>
<speed>0.230000</speed>
</trkpt>
<trkpt lat="55.900318" lon="26.529003">
<ele>103.702209</ele>
<time>2010-06-20T15:22:59Z</time>
<desc>lat.=55.900318, lon.=26.529003, Alt.=103.702209m. Speed=0.432000m/h.</desc>
<speed>0.120000</speed>
</trkpt>
<trkpt lat="55.900311" lon="26.529013">
<ele>103.659241</ele>
<time>2010-06-20T15:23:00Z</time>
<desc>lat.=55.900311, lon.=26.529013, Alt.=103.659241m. Speed=0.540000m/h.</desc>
<speed>0.150000</speed>
</trkpt>
<trkpt lat="55.900311" lon="26.529024">
<ele>103.723694</ele>
<time>2010-06-20T15:23:01Z</time>
<desc>lat.=55.900311, lon.=26.529024, Alt.=103.723694m. Speed=1.152000m/h.</desc>
<speed>0.320000</speed>
</trkpt>
<trkpt lat="55.900307" lon="26.529028">
<ele>103.817444</ele>
<time>2010-06-20T15:23:02Z</time>
<desc>lat.=55.900307, lon.=26.529028, Alt.=103.817444m. Speed=0.936000m/h.</desc>
<speed>0.260000</speed>
</trkpt>
<trkpt lat="55.900299" lon="26.529034">
<ele>103.924866</ele>
<time>2010-06-20T15:23:03Z</time>
<desc>lat.=55.900299, lon.=26.529034, Alt.=103.924866m. Speed=1.188000m/h.</desc>
<speed>0.330000</speed>
</trkpt>
<trkpt lat="55.900303" lon="26.529030">
<ele>104.092834</ele>
<time>2010-06-20T15:23:04Z</time>
<desc>lat.=55.900303, lon.=26.529030, Alt.=104.092834m. Speed=0.828000m/h.</desc>
<speed>0.230000</speed>
</trkpt>
<trkpt lat="55.900299" lon="26.529018">
<ele>104.254944</ele>
<time>2010-06-20T15:23:05Z</time>
<desc>lat.=55.900299, lon.=26.529018, Alt.=104.254944m. Speed=0.648000m/h.</desc>
<speed>0.180000</speed>
</trkpt>
<trkpt lat="55.900299" lon="26.529011">
<ele>104.428772</ele>
<time>2010-06-20T15:23:06Z</time>
<desc>lat.=55.900299, lon.=26.529011, Alt.=104.428772m. Speed=0.036000m/h.</desc>
<speed>0.010000</speed>
</trkpt>
<trkpt lat="55.900299" lon="26.528994">
<ele>104.514709</ele>
<time>2010-06-20T15:23:07Z</time>
<desc>lat.=55.900299, lon.=26.528994, Alt.=104.514709m. Speed=0.648000m/h.</desc>
<speed>0.180000</speed>
</trkpt>
<trkpt lat="55.900299" lon="26.528990">
<ele>104.506897</ele>
<time>2010-06-20T15:23:08Z</time>
<desc>lat.=55.900299, lon.=26.528990, Alt.=104.506897m. Speed=0.648000m/h.</desc>
<speed>0.180000</speed>
</trkpt>
<trkpt lat="55.900299" lon="26.528988">
<ele>104.499084</ele>
<time>2010-06-20T15:23:09Z</time>
<desc>lat.=55.900299, lon.=26.528988, Alt.=104.499084m. Speed=0.288000m/h.</desc>
<speed>0.080000</speed>
</trkpt>
<trkpt lat="55.900299" lon="26.528986">
<ele>104.491272</ele>
<time>2010-06-20T15:23:10Z</time>
<desc>lat.=55.900299, lon.=26.528986, Alt.=104.491272m. Speed=0.468000m/h.</desc>
<speed>0.130000</speed>
</trkpt>
<trkpt lat="55.900299" lon="26.528988">
<ele>104.483459</ele>
<time>2010-06-20T15:23:11Z</time>
<desc>lat.=55.900299, lon.=26.528988, Alt.=104.483459m. Speed=1.512000m/h.</desc>
<speed>0.420000</speed>
</trkpt>
<trkpt lat="55.900295" lon="26.528990">
<ele>104.465881</ele>
<time>2010-06-20T15:23:12Z</time>
<desc>lat.=55.900295, lon.=26.528990, Alt.=104.465881m. Speed=1.584000m/h.</desc>
<speed>0.440000</speed>
</trkpt>
<trkpt lat="55.900299" lon="26.528980">
<ele>104.549866</ele>
<time>2010-06-20T15:23:13Z</time>
<desc>lat.=55.900299, lon.=26.528980, Alt.=104.549866m. Speed=0.972000m/h.</desc>
<speed>0.270000</speed>
</trkpt>
<trkpt lat="55.900311" lon="26.528982">
<ele>104.688538</ele>
<time>2010-06-20T15:23:14Z</time>
<desc>lat.=55.900311, lon.=26.528982, Alt.=104.688538m. Speed=0.756000m/h.</desc>
<speed>0.210000</speed>
</trkpt>
<trkpt lat="55.900307" lon="26.528978">
<ele>104.688538</ele>
<time>2010-06-20T15:23:15Z</time>
<desc>lat.=55.900307, lon.=26.528978, Alt.=104.688538m. Speed=1.152000m/h.</desc>
<speed>0.320000</speed>
</trkpt>
<trkpt lat="55.900299" lon="26.528997">
<ele>104.702209</ele>
<time>2010-06-20T15:23:16Z</time>
<desc>lat.=55.900299, lon.=26.528997, Alt.=104.702209m. Speed=0.504000m/h.</desc>
<speed>0.140000</speed>
</trkpt>
<trkpt lat="55.900291" lon="26.528999">
<ele>104.725647</ele>
<time>2010-06-20T15:23:17Z</time>
<desc>lat.=55.900291, lon.=26.528999, Alt.=104.725647m. Speed=0.936000m/h.</desc>
<speed>0.260000</speed>
</trkpt>
<trkpt lat="55.900284" lon="26.529013">
<ele>104.786194</ele>
<time>2010-06-20T15:23:18Z</time>
<desc>lat.=55.900284, lon.=26.529013, Alt.=104.786194m. Speed=0.756000m/h.</desc>
<speed>0.210000</speed>
</trkpt>
<trkpt lat="55.900284" lon="26.529015">
<ele>104.823303</ele>
<time>2010-06-20T15:23:19Z</time>
<desc>lat.=55.900284, lon.=26.529015, Alt.=104.823303m. Speed=0.648000m/h.</desc>
<speed>0.180000</speed>
</trkpt>
<trkpt lat="55.900280" lon="26.529015">
<ele>104.823303</ele>
<time>2010-06-20T15:23:20Z</time>
<desc>lat.=55.900280, lon.=26.529015, Alt.=104.823303m. Speed=0.324000m/h.</desc>
<speed>0.090000</speed>
</trkpt>
<trkpt lat="55.900280" lon="26.529015">
<ele>104.821350</ele>
<time>2010-06-20T15:23:21Z</time>
<desc>lat.=55.900280, lon.=26.529015, Alt.=104.821350m. Speed=0.396000m/h.</desc>
<speed>0.110000</speed>
</trkpt>
<trkpt lat="55.900280" lon="26.529016">
<ele>104.821350</ele>
<time>2010-06-20T15:23:22Z</time>
<desc>lat.=55.900280, lon.=26.529016, Alt.=104.821350m. Speed=0.540000m/h.</desc>
<speed>0.150000</speed>
</trkpt>
<trkpt lat="55.900276" lon="26.529016">
<ele>104.819397</ele>
<time>2010-06-20T15:23:23Z</time>
<desc>lat.=55.900276, lon.=26.529016, Alt.=104.819397m. Speed=0.864000m/h.</desc>
<speed>0.240000</speed>
</trkpt>
<trkpt lat="55.900276" lon="26.529018">
<ele>104.817444</ele>
<time>2010-06-20T15:23:24Z</time>
<desc>lat.=55.900276, lon.=26.529018, Alt.=104.817444m. Speed=0.648000m/h.</desc>
<speed>0.180000</speed>
</trkpt>
<trkpt lat="55.900276" lon="26.529020">
<ele>104.815491</ele>
<time>2010-06-20T15:23:25Z</time>
<desc>lat.=55.900276, lon.=26.529020, Alt.=104.815491m. Speed=0.252000m/h.</desc>
<speed>0.070000</speed>
</trkpt>
<trkpt lat="55.900276" lon="26.529022">
<ele>104.815491</ele>
<time>2010-06-20T15:23:26Z</time>
<desc>lat.=55.900276, lon.=26.529022, Alt.=104.815491m. Speed=0.756000m/h.</desc>
<speed>0.210000</speed>
</trkpt>
<trkpt lat="55.900276" lon="26.529024">
<ele>104.815491</ele>
<time>2010-06-20T15:23:27Z</time>
<desc>lat.=55.900276, lon.=26.529024, Alt.=104.815491m. Speed=0.720000m/h.</desc>
<speed>0.200000</speed>
</trkpt>
<trkpt lat="55.900276" lon="26.529028">
<ele>104.817444</ele>
<time>2010-06-20T15:23:28Z</time>
<desc>lat.=55.900276, lon.=26.529028, Alt.=104.817444m. Speed=0.972000m/h.</desc>
<speed>0.270000</speed>
</trkpt>
<trkpt lat="55.900272" lon="26.529032">
<ele>104.817444</ele>
<time>2010-06-20T15:23:29Z</time>
<desc>lat.=55.900272, lon.=26.529032, Alt.=104.817444m. Speed=1.080000m/h.</desc>
<speed>0.300000</speed>
</trkpt>
<trkpt lat="55.900257" lon="26.529039">
<ele>104.840881</ele>
<time>2010-06-20T15:23:30Z</time>
<desc>lat.=55.900257, lon.=26.529039, Alt.=104.840881m. Speed=1.980000m/h.</desc>
<speed>0.550000</speed>
</trkpt>
<trkpt lat="55.900249" lon="26.529045">
<ele>104.893616</ele>
<time>2010-06-20T15:23:31Z</time>
<desc>lat.=55.900249, lon.=26.529045, Alt.=104.893616m. Speed=1.620000m/h.</desc>
<speed>0.450000</speed>
</trkpt>
<trkpt lat="55.900249" lon="26.529057">
<ele>104.961975</ele>
<time>2010-06-20T15:23:32Z</time>
<desc>lat.=55.900249, lon.=26.529057, Alt.=104.961975m. Speed=1.260000m/h.</desc>
<speed>0.350000</speed>
</trkpt>
<trkpt lat="55.900246" lon="26.529049">
<ele>105.008850</ele>
<time>2010-06-20T15:23:33Z</time>
<desc>lat.=55.900246, lon.=26.529049, Alt.=105.008850m. Speed=1.044000m/h.</desc>
<speed>0.290000</speed>
</trkpt>
<trkpt lat="55.900246" lon="26.529036">
<ele>105.182678</ele>
<time>2010-06-20T15:23:34Z</time>
<desc>lat.=55.900246, lon.=26.529036, Alt.=105.182678m. Speed=0.432000m/h.</desc>
<speed>0.120000</speed>
</trkpt>
<trkpt lat="55.900249" lon="26.529020">
<ele>105.149475</ele>
<time>2010-06-20T15:23:35Z</time>
<desc>lat.=55.900249, lon.=26.529020, Alt.=105.149475m. Speed=0.252000m/h.</desc>
<speed>0.070000</speed>
</trkpt>
<trkpt lat="55.900246" lon="26.529020">
<ele>105.155334</ele>
<time>2010-06-20T15:23:36Z</time>
<desc>lat.=55.900246, lon.=26.529020, Alt.=105.155334m. Speed=0.144000m/h.</desc>
<speed>0.040000</speed>
</trkpt>
<trkpt lat="55.900246" lon="26.529018">
<ele>105.157288</ele>
<time>2010-06-20T15:23:37Z</time>
<desc>lat.=55.900246, lon.=26.529018, Alt.=105.157288m. Speed=0.072000m/h.</desc>
<speed>0.020000</speed>
</trkpt>
<trkpt lat="55.900246" lon="26.529018">
<ele>105.157288</ele>
<time>2010-06-20T15:23:38Z</time>
<desc>lat.=55.900246, lon.=26.529018, Alt.=105.157288m. Speed=0.432000m/h.</desc>
<speed>0.120000</speed>
</trkpt>
<trkpt lat="55.900246" lon="26.529020">
<ele>105.157288</ele>
<time>2010-06-20T15:23:39Z</time>
<desc>lat.=55.900246, lon.=26.529020, Alt.=105.157288m. Speed=0.756000m/h.</desc>
<speed>0.210000</speed>
</trkpt>
<trkpt lat="55.900246" lon="26.529024">
<ele>105.157288</ele>
<time>2010-06-20T15:23:40Z</time>
<desc>lat.=55.900246, lon.=26.529024, Alt.=105.157288m. Speed=0.756000m/h.</desc>
<speed>0.210000</speed>
</trkpt>
<trkpt lat="55.900246" lon="26.529028">
<ele>105.159241</ele>
<time>2010-06-20T15:23:41Z</time>
<desc>lat.=55.900246, lon.=26.529028, Alt.=105.159241m. Speed=0.504000m/h.</desc>
<speed>0.140000</speed>
</trkpt>
<trkpt lat="55.900246" lon="26.529030">
<ele>105.159241</ele>
<time>2010-06-20T15:23:42Z</time>
<desc>lat.=55.900246, lon.=26.529030, Alt.=105.159241m. Speed=0.576000m/h.</desc>
<speed>0.160000</speed>
</trkpt>
<trkpt lat="55.900246" lon="26.529034">
<ele>105.161194</ele>
<time>2010-06-20T15:23:43Z</time>
<desc>lat.=55.900246, lon.=26.529034, Alt.=105.161194m. Speed=0.252000m/h.</desc>
<speed>0.070000</speed>
</trkpt>
<trkpt lat="55.900242" lon="26.529034">
<ele>105.159241</ele>
<time>2010-06-20T15:23:44Z</time>
<desc>lat.=55.900242, lon.=26.529034, Alt.=105.159241m. Speed=0.108000m/h.</desc>
<speed>0.030000</speed>
</trkpt>
<trkpt lat="55.900242" lon="26.529036">
<ele>105.157288</ele>
<time>2010-06-20T15:23:45Z</time>
<desc>lat.=55.900242, lon.=26.529036, Alt.=105.157288m. Speed=0.324000m/h.</desc>
<speed>0.090000</speed>
</trkpt>
<trkpt lat="55.900246" lon="26.529036">
<ele>105.157288</ele>
<time>2010-06-20T15:23:46Z</time>
<desc>lat.=55.900246, lon.=26.529036, Alt.=105.157288m. Speed=0.864000m/h.</desc>
<speed>0.240000</speed>
</trkpt>
<trkpt lat="55.900246" lon="26.529032">
<ele>105.155334</ele>
<time>2010-06-20T15:23:47Z</time>
<desc>lat.=55.900246, lon.=26.529032, Alt.=105.155334m. Speed=0.828000m/h.</desc>
<speed>0.230000</speed>
</trkpt>
<trkpt lat="55.900249" lon="26.529030">
<ele>105.155334</ele>
<time>2010-06-20T15:23:48Z</time>
<desc>lat.=55.900249, lon.=26.529030, Alt.=105.155334m. Speed=1.404000m/h.</desc>
<speed>0.390000</speed>
</trkpt>
<trkpt lat="55.900249" lon="26.529018">
<ele>105.153381</ele>
<time>2010-06-20T15:23:49Z</time>
<desc>lat.=55.900249, lon.=26.529018, Alt.=105.153381m. Speed=1.512000m/h.</desc>
<speed>0.420000</speed>
</trkpt>
<trkpt lat="55.900253" lon="26.529026">
<ele>105.135803</ele>
<time>2010-06-20T15:23:50Z</time>
<desc>lat.=55.900253, lon.=26.529026, Alt.=105.135803m. Speed=2.016000m/h.</desc>
<speed>0.560000</speed>
</trkpt>
<trkpt lat="55.900272" lon="26.528992">
<ele>105.186584</ele>
<time>2010-06-20T15:23:51Z</time>
<desc>lat.=55.900272, lon.=26.528992, Alt.=105.186584m. Speed=2.844000m/h.</desc>
<speed>0.790000</speed>
</trkpt>
<trkpt lat="55.900276" lon="26.528984">
<ele>105.190491</ele>
<time>2010-06-20T15:23:52Z</time>
<desc>lat.=55.900276, lon.=26.528984, Alt.=105.190491m. Speed=3.204000m/h.</desc>
<speed>0.890000</speed>
</trkpt>
<trkpt lat="55.900288" lon="26.528975">
<ele>105.221741</ele>
<time>2010-06-20T15:23:53Z</time>
<desc>lat.=55.900288, lon.=26.528975, Alt.=105.221741m. Speed=3.492000m/h.</desc>
<speed>0.970000</speed>
</trkpt>
<trkpt lat="55.900291" lon="26.528969">
<ele>105.221741</ele>
<time>2010-06-20T15:23:54Z</time>
<desc>lat.=55.900291, lon.=26.528969, Alt.=105.221741m. Speed=3.276000m/h.</desc>
<speed>0.910000</speed>
</trkpt>
<trkpt lat="55.900288" lon="26.528969">
<ele>105.206116</ele>
<time>2010-06-20T15:23:55Z</time>
<desc>lat.=55.900288, lon.=26.528969, Alt.=105.206116m. Speed=2.628000m/h.</desc>
<speed>0.730000</speed>
</trkpt>
<trkpt lat="55.900291" lon="26.528961">
<ele>105.202209</ele>
<time>2010-06-20T15:23:56Z</time>
<desc>lat.=55.900291, lon.=26.528961, Alt.=105.202209m. Speed=2.376000m/h.</desc>
<speed>0.660000</speed>
</trkpt>
<trkpt lat="55.900288" lon="26.528973">
<ele>105.208069</ele>
<time>2010-06-20T15:23:57Z</time>
<desc>lat.=55.900288, lon.=26.528973, Alt.=105.208069m. Speed=1.728000m/h.</desc>
<speed>0.480000</speed>
</trkpt>
<trkpt lat="55.900272" lon="26.528990">
<ele>105.180725</ele>
<time>2010-06-20T15:23:58Z</time>
<desc>lat.=55.900272, lon.=26.528990, Alt.=105.180725m. Speed=0.936000m/h.</desc>
<speed>0.260000</speed>
</trkpt>
<trkpt lat="55.900269" lon="26.528999">
<ele>104.934631</ele>
<time>2010-06-20T15:23:59Z</time>
<desc>lat.=55.900269, lon.=26.528999, Alt.=104.934631m. Speed=0.756000m/h.</desc>
<speed>0.210000</speed>
</trkpt>
<trkpt lat="55.900253" lon="26.529007">
<ele>104.850647</ele>
<time>2010-06-20T15:24:00Z</time>
<desc>lat.=55.900253, lon.=26.529007, Alt.=104.850647m. Speed=0.720000m/h.</desc>
<speed>0.200000</speed>
</trkpt>
<trkpt lat="55.900242" lon="26.529020">
<ele>104.713928</ele>
<time>2010-06-20T15:24:01Z</time>
<desc>lat.=55.900242, lon.=26.529020, Alt.=104.713928m. Speed=1.332000m/h.</desc>
<speed>0.370000</speed>
</trkpt>
<trkpt lat="55.900246" lon="26.529022">
<ele>104.669006</ele>
<time>2010-06-20T15:24:02Z</time>
<desc>lat.=55.900246, lon.=26.529022, Alt.=104.669006m. Speed=0.972000m/h.</desc>
<speed>0.270000</speed>
</trkpt>
<trkpt lat="55.900246" lon="26.529032">
<ele>104.624084</ele>
<time>2010-06-20T15:24:03Z</time>
<desc>lat.=55.900246, lon.=26.529032, Alt.=104.624084m. Speed=1.116000m/h.</desc>
<speed>0.310000</speed>
</trkpt>
<trkpt lat="55.900246" lon="26.529036">
<ele>104.577209</ele>
<time>2010-06-20T15:24:04Z</time>
<desc>lat.=55.900246, lon.=26.529036, Alt.=104.577209m. Speed=0.504000m/h.</desc>
<speed>0.140000</speed>
</trkpt>
<trkpt lat="55.900246" lon="26.529051">
<ele>104.547913</ele>
<time>2010-06-20T15:24:05Z</time>
<desc>lat.=55.900246, lon.=26.529051, Alt.=104.547913m. Speed=1.080000m/h.</desc>
<speed>0.300000</speed>
</trkpt>
<trkpt lat="55.900253" lon="26.529053">
<ele>104.446350</ele>
<time>2010-06-20T15:24:06Z</time>
<desc>lat.=55.900253, lon.=26.529053, Alt.=104.446350m. Speed=1.440000m/h.</desc>
<speed>0.400000</speed>
</trkpt>
<trkpt lat="55.900253" lon="26.529043">
<ele>104.387756</ele>
<time>2010-06-20T15:24:07Z</time>
<desc>lat.=55.900253, lon.=26.529043, Alt.=104.387756m. Speed=0.864000m/h.</desc>
<speed>0.240000</speed>
</trkpt>
<trkpt lat="55.900257" lon="26.529049">
<ele>104.346741</ele>
<time>2010-06-20T15:24:08Z</time>
<desc>lat.=55.900257, lon.=26.529049, Alt.=104.346741m. Speed=1.224000m/h.</desc>
<speed>0.340000</speed>
</trkpt>
<trkpt lat="55.900249" lon="26.529049">
<ele>104.340881</ele>
<time>2010-06-20T15:24:09Z</time>
<desc>lat.=55.900249, lon.=26.529049, Alt.=104.340881m. Speed=0.720000m/h.</desc>
<speed>0.200000</speed>
</trkpt>
<trkpt lat="55.900242" lon="26.529058">
<ele>104.260803</ele>
<time>2010-06-20T15:24:10Z</time>
<desc>lat.=55.900242, lon.=26.529058, Alt.=104.260803m. Speed=0.432000m/h.</desc>
<speed>0.120000</speed>
</trkpt>
<trkpt lat="55.900230" lon="26.529070">
<ele>103.979553</ele>
<time>2010-06-20T15:24:11Z</time>
<desc>lat.=55.900230, lon.=26.529070, Alt.=103.979553m. Speed=0.900000m/h.</desc>
<speed>0.250000</speed>
</trkpt>
<trkpt lat="55.900219" lon="26.529085">
<ele>103.836975</ele>
<time>2010-06-20T15:24:12Z</time>
<desc>lat.=55.900219, lon.=26.529085, Alt.=103.836975m. Speed=1.476000m/h.</desc>
<speed>0.410000</speed>
</trkpt>
<trkpt lat="55.900211" lon="26.529095">
<ele>103.840881</ele>
<time>2010-06-20T15:24:13Z</time>
<desc>lat.=55.900211, lon.=26.529095, Alt.=103.840881m. Speed=1.548000m/h.</desc>
<speed>0.430000</speed>
</trkpt>
<trkpt lat="55.900196" lon="26.529106">
<ele>103.856506</ele>
<time>2010-06-20T15:24:14Z</time>
<desc>lat.=55.900196, lon.=26.529106, Alt.=103.856506m. Speed=2.160000m/h.</desc>
<speed>0.600000</speed>
</trkpt>
<trkpt lat="55.900192" lon="26.529121">
<ele>103.899475</ele>
<time>2010-06-20T15:24:15Z</time>
<desc>lat.=55.900192, lon.=26.529121, Alt.=103.899475m. Speed=2.052000m/h.</desc>
<speed>0.570000</speed>
</trkpt>
<trkpt lat="55.900181" lon="26.529144">
<ele>104.001038</ele>
<time>2010-06-20T15:24:16Z</time>
<desc>lat.=55.900181, lon.=26.529144, Alt.=104.001038m. Speed=2.448000m/h.</desc>
<speed>0.680000</speed>
</trkpt>
<trkpt lat="55.900169" lon="26.529160">
<ele>104.042053</ele>
<time>2010-06-20T15:24:17Z</time>
<desc>lat.=55.900169, lon.=26.529160, Alt.=104.042053m. Speed=2.412000m/h.</desc>
<speed>0.670000</speed>
</trkpt>
<trkpt lat="55.900169" lon="26.529163">
<ele>104.098694</ele>
<time>2010-06-20T15:24:18Z</time>
<desc>lat.=55.900169, lon.=26.529163, Alt.=104.098694m. Speed=1.656000m/h.</desc>
<speed>0.460000</speed>
</trkpt>
<trkpt lat="55.900169" lon="26.529173">
<ele>104.178772</ele>
<time>2010-06-20T15:24:19Z</time>
<desc>lat.=55.900169, lon.=26.529173, Alt.=104.178772m. Speed=1.656000m/h.</desc>
<speed>0.460000</speed>
</trkpt>
<trkpt lat="55.900158" lon="26.529177">
<ele>104.227600</ele>
<time>2010-06-20T15:24:20Z</time>
<desc>lat.=55.900158, lon.=26.529177, Alt.=104.227600m. Speed=1.692000m/h.</desc>
<speed>0.470000</speed>
</trkpt>
<trkpt lat="55.900146" lon="26.529202">
<ele>104.284241</ele>
<time>2010-06-20T15:24:21Z</time>
<desc>lat.=55.900146, lon.=26.529202, Alt.=104.284241m. Speed=1.980000m/h.</desc>
<speed>0.550000</speed>
</trkpt>
<trkpt lat="55.900139" lon="26.529219">
<ele>104.317444</ele>
<time>2010-06-20T15:24:22Z</time>
<desc>lat.=55.900139, lon.=26.529219, Alt.=104.317444m. Speed=2.340000m/h.</desc>
<speed>0.650000</speed>
</trkpt>
<trkpt lat="55.900131" lon="26.529238">
<ele>104.344788</ele>
<time>2010-06-20T15:24:23Z</time>
<desc>lat.=55.900131, lon.=26.529238, Alt.=104.344788m. Speed=2.916000m/h.</desc>
<speed>0.810000</speed>
</trkpt>
<trkpt lat="55.900116" lon="26.529247">
<ele>104.340881</ele>
<time>2010-06-20T15:24:24Z</time>
<desc>lat.=55.900116, lon.=26.529247, Alt.=104.340881m. Speed=2.988000m/h.</desc>
<speed>0.830000</speed>
</trkpt>
<trkpt lat="55.900112" lon="26.529257">
<ele>104.346741</ele>
<time>2010-06-20T15:24:25Z</time>
<desc>lat.=55.900112, lon.=26.529257, Alt.=104.346741m. Speed=2.520000m/h.</desc>
<speed>0.700000</speed>
</trkpt>
<trkpt lat="55.900108" lon="26.529263">
<ele>104.350647</ele>
<time>2010-06-20T15:24:26Z</time>
<desc>lat.=55.900108, lon.=26.529263, Alt.=104.350647m. Speed=2.088000m/h.</desc>
<speed>0.580000</speed>
</trkpt>
<trkpt lat="55.900112" lon="26.529264">
<ele>104.284241</ele>
<time>2010-06-20T15:24:27Z</time>
<desc>lat.=55.900112, lon.=26.529264, Alt.=104.284241m. Speed=1.692000m/h.</desc>
<speed>0.470000</speed>
</trkpt>
<trkpt lat="55.900120" lon="26.529272">
<ele>104.231506</ele>
<time>2010-06-20T15:24:28Z</time>
<desc>lat.=55.900120, lon.=26.529272, Alt.=104.231506m. Speed=1.584000m/h.</desc>
<speed>0.440000</speed>
</trkpt>
<trkpt lat="55.900116" lon="26.529276">
<ele>104.239319</ele>
<time>2010-06-20T15:24:29Z</time>
<desc>lat.=55.900116, lon.=26.529276, Alt.=104.239319m. Speed=1.368000m/h.</desc>
<speed>0.380000</speed>
</trkpt>
<trkpt lat="55.900116" lon="26.529293">
<ele>104.282288</ele>
<time>2010-06-20T15:24:30Z</time>
<desc>lat.=55.900116, lon.=26.529293, Alt.=104.282288m. Speed=1.476000m/h.</desc>
<speed>0.410000</speed>
</trkpt>
<trkpt lat="55.900112" lon="26.529306">
<ele>104.290100</ele>
<time>2010-06-20T15:24:31Z</time>
<desc>lat.=55.900112, lon.=26.529306, Alt.=104.290100m. Speed=1.944000m/h.</desc>
<speed>0.540000</speed>
</trkpt>
<trkpt lat="55.900116" lon="26.529306">
<ele>104.286194</ele>
<time>2010-06-20T15:24:32Z</time>
<desc>lat.=55.900116, lon.=26.529306, Alt.=104.286194m. Speed=1.656000m/h.</desc>
<speed>0.460000</speed>
</trkpt>
<trkpt lat="55.900127" lon="26.529297">
<ele>104.245178</ele>
<time>2010-06-20T15:24:33Z</time>
<desc>lat.=55.900127, lon.=26.529297, Alt.=104.245178m. Speed=1.152000m/h.</desc>
<speed>0.320000</speed>
</trkpt>
<trkpt lat="55.900127" lon="26.529289">
<ele>104.241272</ele>
<time>2010-06-20T15:24:34Z</time>
<desc>lat.=55.900127, lon.=26.529289, Alt.=104.241272m. Speed=0.504000m/h.</desc>
<speed>0.140000</speed>
</trkpt>
<trkpt lat="55.900120" lon="26.529284">
<ele>104.245178</ele>
<time>2010-06-20T15:24:35Z</time>
<desc>lat.=55.900120, lon.=26.529284, Alt.=104.245178m. Speed=0.576000m/h.</desc>
<speed>0.160000</speed>
</trkpt>
<trkpt lat="55.900116" lon="26.529274">
<ele>104.237366</ele>
<time>2010-06-20T15:24:36Z</time>
<desc>lat.=55.900116, lon.=26.529274, Alt.=104.237366m. Speed=0.648000m/h.</desc>
<speed>0.180000</speed>
</trkpt>
<trkpt lat="55.900112" lon="26.529266">
<ele>104.254944</ele>
<time>2010-06-20T15:24:37Z</time>
<desc>lat.=55.900112, lon.=26.529266, Alt.=104.254944m. Speed=0.936000m/h.</desc>
<speed>0.260000</speed>
</trkpt>
<trkpt lat="55.900112" lon="26.529266">
<ele>104.254944</ele>
<time>2010-06-20T15:24:38Z</time>
<desc>lat.=55.900112, lon.=26.529266, Alt.=104.254944m. Speed=1.116000m/h.</desc>
<speed>0.310000</speed>
</trkpt>
<trkpt lat="55.900105" lon="26.529268">
<ele>104.278381</ele>
<time>2010-06-20T15:24:39Z</time>
<desc>lat.=55.900105, lon.=26.529268, Alt.=104.278381m. Speed=1.332000m/h.</desc>
<speed>0.370000</speed>
</trkpt>
<trkpt lat="55.900097" lon="26.529289">
<ele>104.651428</ele>
<time>2010-06-20T15:24:40Z</time>
<desc>lat.=55.900097, lon.=26.529289, Alt.=104.651428m. Speed=1.944000m/h.</desc>
<speed>0.540000</speed>
</trkpt>
<trkpt lat="55.900089" lon="26.529291">
<ele>104.928772</ele>
<time>2010-06-20T15:24:41Z</time>
<desc>lat.=55.900089, lon.=26.529291, Alt.=104.928772m. Speed=2.232000m/h.</desc>
<speed>0.620000</speed>
</trkpt>
<trkpt lat="55.900078" lon="26.529293">
<ele>105.061584</ele>
<time>2010-06-20T15:24:42Z</time>
<desc>lat.=55.900078, lon.=26.529293, Alt.=105.061584m. Speed=2.628000m/h.</desc>
<speed>0.730000</speed>
</trkpt>
<trkpt lat="55.900074" lon="26.529284">
<ele>105.169006</ele>
<time>2010-06-20T15:24:43Z</time>
<desc>lat.=55.900074, lon.=26.529284, Alt.=105.169006m. Speed=2.304000m/h.</desc>
<speed>0.640000</speed>
</trkpt>
<trkpt lat="55.900059" lon="26.529285">
<ele>105.440491</ele>
<time>2010-06-20T15:24:44Z</time>
<desc>lat.=55.900059, lon.=26.529285, Alt.=105.440491m. Speed=2.988000m/h.</desc>
<speed>0.830000</speed>
</trkpt>
<trkpt lat="55.900040" lon="26.529270">
<ele>105.585022</ele>
<time>2010-06-20T15:24:45Z</time>
<desc>lat.=55.900040, lon.=26.529270, Alt.=105.585022m. Speed=3.888000m/h.</desc>
<speed>1.080000</speed>
</trkpt>
<trkpt lat="55.900036" lon="26.529255">
<ele>105.756897</ele>
<time>2010-06-20T15:24:46Z</time>
<desc>lat.=55.900036, lon.=26.529255, Alt.=105.756897m. Speed=3.492000m/h.</desc>
<speed>0.970000</speed>
</trkpt>
<trkpt lat="55.900028" lon="26.529255">
<ele>105.754944</ele>
<time>2010-06-20T15:24:47Z</time>
<desc>lat.=55.900028, lon.=26.529255, Alt.=105.754944m. Speed=2.880000m/h.</desc>
<speed>0.800000</speed>
</trkpt>
<trkpt lat="55.900021" lon="26.529257">
<ele>105.752991</ele>
<time>2010-06-20T15:24:48Z</time>
<desc>lat.=55.900021, lon.=26.529257, Alt.=105.752991m. Speed=2.664000m/h.</desc>
<speed>0.740000</speed>
</trkpt>
<trkpt lat="55.900021" lon="26.529278">
<ele>105.956116</ele>
<time>2010-06-20T15:24:49Z</time>
<desc>lat.=55.900021, lon.=26.529278, Alt.=105.956116m. Speed=2.808000m/h.</desc>
<speed>0.780000</speed>
</trkpt>
<trkpt lat="55.900013" lon="26.529280">
<ele>106.106506</ele>
<time>2010-06-20T15:24:50Z</time>
<desc>lat.=55.900013, lon.=26.529280, Alt.=106.106506m. Speed=2.592000m/h.</desc>
<speed>0.720000</speed>
</trkpt>
<trkpt lat="55.900009" lon="26.529285">
<ele>106.106506</ele>
<time>2010-06-20T15:24:51Z</time>
<desc>lat.=55.900009, lon.=26.529285, Alt.=106.106506m. Speed=2.232000m/h.</desc>
<speed>0.620000</speed>
</trkpt>
<trkpt lat="55.900005" lon="26.529289">
<ele>106.106506</ele>
<time>2010-06-20T15:24:52Z</time>
<desc>lat.=55.900005, lon.=26.529289, Alt.=106.106506m. Speed=1.944000m/h.</desc>
<speed>0.540000</speed>
</trkpt>
<trkpt lat="55.900005" lon="26.529280">
<ele>106.379944</ele>
<time>2010-06-20T15:24:53Z</time>
<desc>lat.=55.900005, lon.=26.529280, Alt.=106.379944m. Speed=1.872000m/h.</desc>
<speed>0.520000</speed>
</trkpt>
<trkpt lat="55.900013" lon="26.529278">
<ele>106.602600</ele>
<time>2010-06-20T15:24:54Z</time>
<desc>lat.=55.900013, lon.=26.529278, Alt.=106.602600m. Speed=1.260000m/h.</desc>
<speed>0.350000</speed>
</trkpt>
<trkpt lat="55.900059" lon="26.529268">
<ele>105.991272</ele>
<time>2010-06-20T15:24:55Z</time>
<desc>lat.=55.900059, lon.=26.529268, Alt.=105.991272m. Speed=1.296000m/h.</desc>
<speed>0.360000</speed>
</trkpt>
<trkpt lat="55.900116" lon="26.529251">
<ele>105.297913</ele>
<time>2010-06-20T15:24:56Z</time>
<desc>lat.=55.900116, lon.=26.529251, Alt.=105.297913m. Speed=1.980000m/h.</desc>
<speed>0.550000</speed>
</trkpt>
<trkpt lat="55.900150" lon="26.529236">
<ele>104.924866</ele>
<time>2010-06-20T15:24:57Z</time>
<desc>lat.=55.900150, lon.=26.529236, Alt.=104.924866m. Speed=2.304000m/h.</desc>
<speed>0.640000</speed>
</trkpt>
<trkpt lat="55.900181" lon="26.529247">
<ele>104.358459</ele>
<time>2010-06-20T15:24:58Z</time>
<desc>lat.=55.900181, lon.=26.529247, Alt.=104.358459m. Speed=3.024000m/h.</desc>
<speed>0.840000</speed>
</trkpt>
<trkpt lat="55.900196" lon="26.529255">
<ele>104.040100</ele>
<time>2010-06-20T15:24:59Z</time>
<desc>lat.=55.900196, lon.=26.529255, Alt.=104.040100m. Speed=2.916000m/h.</desc>
<speed>0.810000</speed>
</trkpt>
<trkpt lat="55.900208" lon="26.529242">
<ele>103.817444</ele>
<time>2010-06-20T15:25:00Z</time>
<desc>lat.=55.900208, lon.=26.529242, Alt.=103.817444m. Speed=1.908000m/h.</desc>
<speed>0.530000</speed>
</trkpt>
<trkpt lat="55.900219" lon="26.529217">
<ele>103.795959</ele>
<time>2010-06-20T15:25:01Z</time>
<desc>lat.=55.900219, lon.=26.529217, Alt.=103.795959m. Speed=1.476000m/h.</desc>
<speed>0.410000</speed>
</trkpt>
<trkpt lat="55.900227" lon="26.529217">
<ele>103.835022</ele>
<time>2010-06-20T15:25:02Z</time>
<desc>lat.=55.900227, lon.=26.529217, Alt.=103.835022m. Speed=1.692000m/h.</desc>
<speed>0.470000</speed>
</trkpt>
<trkpt lat="55.900242" lon="26.529211">
<ele>103.877991</ele>
<time>2010-06-20T15:25:03Z</time>
<desc>lat.=55.900242, lon.=26.529211, Alt.=103.877991m. Speed=2.592000m/h.</desc>
<speed>0.720000</speed>
</trkpt>
<trkpt lat="55.900246" lon="26.529203">
<ele>104.112366</ele>
<time>2010-06-20T15:25:04Z</time>
<desc>lat.=55.900246, lon.=26.529203, Alt.=104.112366m. Speed=2.376000m/h.</desc>
<speed>0.660000</speed>
</trkpt>
<trkpt lat="55.900246" lon="26.529186">
<ele>104.499084</ele>
<time>2010-06-20T15:25:05Z</time>
<desc>lat.=55.900246, lon.=26.529186, Alt.=104.499084m. Speed=2.268000m/h.</desc>
<speed>0.630000</speed>
</trkpt>
<trkpt lat="55.900249" lon="26.529163">
<ele>104.788147</ele>
<time>2010-06-20T15:25:06Z</time>
<desc>lat.=55.900249, lon.=26.529163, Alt.=104.788147m. Speed=2.772000m/h.</desc>
<speed>0.770000</speed>
</trkpt>
<trkpt lat="55.900257" lon="26.529158">
<ele>105.032288</ele>
<time>2010-06-20T15:25:07Z</time>
<desc>lat.=55.900257, lon.=26.529158, Alt.=105.032288m. Speed=2.844000m/h.</desc>
<speed>0.790000</speed>
</trkpt>
<trkpt lat="55.900261" lon="26.529154">
<ele>105.315491</ele>
<time>2010-06-20T15:25:08Z</time>
<desc>lat.=55.900261, lon.=26.529154, Alt.=105.315491m. Speed=2.772000m/h.</desc>
<speed>0.770000</speed>
</trkpt>
<trkpt lat="55.900265" lon="26.529148">
<ele>105.643616</ele>
<time>2010-06-20T15:25:09Z</time>
<desc>lat.=55.900265, lon.=26.529148, Alt.=105.643616m. Speed=2.484000m/h.</desc>
<speed>0.690000</speed>
</trkpt>
<trkpt lat="55.900272" lon="26.529144">
<ele>105.635803</ele>
<time>2010-06-20T15:25:10Z</time>
<desc>lat.=55.900272, lon.=26.529144, Alt.=105.635803m. Speed=1.980000m/h.</desc>
<speed>0.550000</speed>
</trkpt>
<trkpt lat="55.900276" lon="26.529140">
<ele>105.856506</ele>
<time>2010-06-20T15:25:11Z</time>
<desc>lat.=55.900276, lon.=26.529140, Alt.=105.856506m. Speed=2.052000m/h.</desc>
<speed>0.570000</speed>
</trkpt>
<trkpt lat="55.900257" lon="26.529123">
<ele>106.092834</ele>
<time>2010-06-20T15:25:12Z</time>
<desc>lat.=55.900257, lon.=26.529123, Alt.=106.092834m. Speed=0.864000m/h.</desc>
<speed>0.240000</speed>
</trkpt>
<trkpt lat="55.900249" lon="26.529118">
<ele>106.506897</ele>
<time>2010-06-20T15:25:13Z</time>
<desc>lat.=55.900249, lon.=26.529118, Alt.=106.506897m. Speed=0.828000m/h.</desc>
<speed>0.230000</speed>
</trkpt>
<trkpt lat="55.900238" lon="26.529116">
<ele>106.733459</ele>
<time>2010-06-20T15:25:14Z</time>
<desc>lat.=55.900238, lon.=26.529116, Alt.=106.733459m. Speed=1.224000m/h.</desc>
<speed>0.340000</speed>
</trkpt>
<trkpt lat="55.900223" lon="26.529118">
<ele>107.135803</ele>
<time>2010-06-20T15:25:15Z</time>
<desc>lat.=55.900223, lon.=26.529118, Alt.=107.135803m. Speed=1.512000m/h.</desc>
<speed>0.420000</speed>
</trkpt>
<trkpt lat="55.900223" lon="26.529127">
<ele>107.667053</ele>
<time>2010-06-20T15:25:16Z</time>
<desc>lat.=55.900223, lon.=26.529127, Alt.=107.667053m. Speed=0.864000m/h.</desc>
<speed>0.240000</speed>
</trkpt>
<trkpt lat="55.900219" lon="26.529131">
<ele>108.202209</ele>
<time>2010-06-20T15:25:17Z</time>
<desc>lat.=55.900219, lon.=26.529131, Alt.=108.202209m. Speed=1.044000m/h.</desc>
<speed>0.290000</speed>
</trkpt>
<trkpt lat="55.900215" lon="26.529133">
<ele>108.678772</ele>
<time>2010-06-20T15:25:18Z</time>
<desc>lat.=55.900215, lon.=26.529133, Alt.=108.678772m. Speed=1.080000m/h.</desc>
<speed>0.300000</speed>
</trkpt>
<trkpt lat="55.900200" lon="26.529140">
<ele>109.100647</ele>
<time>2010-06-20T15:25:19Z</time>
<desc>lat.=55.900200, lon.=26.529140, Alt.=109.100647m. Speed=1.692000m/h.</desc>
<speed>0.470000</speed>
</trkpt>
<trkpt lat="55.900192" lon="26.529140">
<ele>109.549866</ele>
<time>2010-06-20T15:25:20Z</time>
<desc>lat.=55.900192, lon.=26.529140, Alt.=109.549866m. Speed=1.800000m/h.</desc>
<speed>0.500000</speed>
</trkpt>
<trkpt lat="55.900188" lon="26.529158">
<ele>109.999084</ele>
<time>2010-06-20T15:25:21Z</time>
<desc>lat.=55.900188, lon.=26.529158, Alt.=109.999084m. Speed=1.692000m/h.</desc>
<speed>0.470000</speed>
</trkpt>
<trkpt lat="55.900188" lon="26.529142">
<ele>110.407288</ele>
<time>2010-06-20T15:25:22Z</time>
<desc>lat.=55.900188, lon.=26.529142, Alt.=110.407288m. Speed=0.864000m/h.</desc>
<speed>0.240000</speed>
</trkpt>
<trkpt lat="55.900188" lon="26.529140">
<ele>110.540100</ele>
<time>2010-06-20T15:25:23Z</time>
<desc>lat.=55.900188, lon.=26.529140, Alt.=110.540100m. Speed=1.296000m/h.</desc>
<speed>0.360000</speed>
</trkpt>
<trkpt lat="55.900196" lon="26.529139">
<ele>110.670959</ele>
<time>2010-06-20T15:25:24Z</time>
<desc>lat.=55.900196, lon.=26.529139, Alt.=110.670959m. Speed=0.720000m/h.</desc>
<speed>0.200000</speed>
</trkpt>
<trkpt lat="55.900204" lon="26.529133">
<ele>110.919006</ele>
<time>2010-06-20T15:25:25Z</time>
<desc>lat.=55.900204, lon.=26.529133, Alt.=110.919006m. Speed=0.288000m/h.</desc>
<speed>0.080000</speed>
</trkpt>
<trkpt lat="55.900208" lon="26.529125">
<ele>111.299866</ele>
<time>2010-06-20T15:25:26Z</time>
<desc>lat.=55.900208, lon.=26.529125, Alt.=111.299866m. Speed=0.144000m/h.</desc>
<speed>0.040000</speed>
</trkpt>
<trkpt lat="55.900215" lon="26.529127">
<ele>111.502991</ele>
<time>2010-06-20T15:25:27Z</time>
<desc>lat.=55.900215, lon.=26.529127, Alt.=111.502991m. Speed=0.828000m/h.</desc>
<speed>0.230000</speed>
</trkpt>
<trkpt lat="55.900215" lon="26.529127">
<ele>111.504944</ele>
<time>2010-06-20T15:25:28Z</time>
<desc>lat.=55.900215, lon.=26.529127, Alt.=111.504944m. Speed=0.036000m/h.</desc>
<speed>0.010000</speed>
</trkpt>
<trkpt lat="55.900215" lon="26.529127">
<ele>111.504944</ele>
<time>2010-06-20T15:25:29Z</time>
<desc>lat.=55.900215, lon.=26.529127, Alt.=111.504944m. Speed=0.648000m/h.</desc>
<speed>0.180000</speed>
</trkpt>
<trkpt lat="55.900215" lon="26.529129">
<ele>111.506897</ele>
<time>2010-06-20T15:25:30Z</time>
<desc>lat.=55.900215, lon.=26.529129, Alt.=111.506897m. Speed=0.648000m/h.</desc>
<speed>0.180000</speed>
</trkpt>
<trkpt lat="55.900215" lon="26.529131">
<ele>111.504944</ele>
<time>2010-06-20T15:25:31Z</time>
<desc>lat.=55.900215, lon.=26.529131, Alt.=111.504944m. Speed=1.044000m/h.</desc>
<speed>0.290000</speed>
</trkpt>
<trkpt lat="55.900211" lon="26.529137">
<ele>111.504944</ele>
<time>2010-06-20T15:25:32Z</time>
<desc>lat.=55.900211, lon.=26.529137, Alt.=111.504944m. Speed=1.944000m/h.</desc>
<speed>0.540000</speed>
</trkpt>
<trkpt lat="55.900215" lon="26.529118">
<ele>111.680725</ele>
<time>2010-06-20T15:25:33Z</time>
<desc>lat.=55.900215, lon.=26.529118, Alt.=111.680725m. Speed=1.008000m/h.</desc>
<speed>0.280000</speed>
</trkpt>
<trkpt lat="55.900219" lon="26.529104">
<ele>111.842834</ele>
<time>2010-06-20T15:25:34Z</time>
<desc>lat.=55.900219, lon.=26.529104, Alt.=111.842834m. Speed=0.684000m/h.</desc>
<speed>0.190000</speed>
</trkpt>
<trkpt lat="55.900219" lon="26.529106">
<ele>111.989319</ele>
<time>2010-06-20T15:25:35Z</time>
<desc>lat.=55.900219, lon.=26.529106, Alt.=111.989319m. Speed=0.432000m/h.</desc>
<speed>0.120000</speed>
</trkpt>
<trkpt lat="55.900223" lon="26.529097">
<ele>112.155334</ele>
<time>2010-06-20T15:25:36Z</time>
<desc>lat.=55.900223, lon.=26.529097, Alt.=112.155334m. Speed=0.612000m/h.</desc>
<speed>0.170000</speed>
</trkpt>
<trkpt lat="55.900223" lon="26.529095">
<ele>112.159241</ele>
<time>2010-06-20T15:25:37Z</time>
<desc>lat.=55.900223, lon.=26.529095, Alt.=112.159241m. Speed=0.540000m/h.</desc>
<speed>0.150000</speed>
</trkpt>
<trkpt lat="55.900223" lon="26.529093">
<ele>112.161194</ele>
<time>2010-06-20T15:25:38Z</time>
<desc>lat.=55.900223, lon.=26.529093, Alt.=112.161194m. Speed=0.180000m/h.</desc>
<speed>0.050000</speed>
</trkpt>
<trkpt lat="55.900223" lon="26.529091">
<ele>112.163147</ele>
<time>2010-06-20T15:25:39Z</time>
<desc>lat.=55.900223, lon.=26.529091, Alt.=112.163147m. Speed=0.432000m/h.</desc>
<speed>0.120000</speed>
</trkpt>
<trkpt lat="55.900223" lon="26.529091">
<ele>112.169006</ele>
<time>2010-06-20T15:25:40Z</time>
<desc>lat.=55.900223, lon.=26.529091, Alt.=112.169006m. Speed=0.972000m/h.</desc>
<speed>0.270000</speed>
</trkpt>
<trkpt lat="55.900227" lon="26.529089">
<ele>112.170959</ele>
<time>2010-06-20T15:25:41Z</time>
<desc>lat.=55.900227, lon.=26.529089, Alt.=112.170959m. Speed=1.008000m/h.</desc>
<speed>0.280000</speed>
</trkpt>
<trkpt lat="55.900227" lon="26.529085">
<ele>112.176819</ele>
<time>2010-06-20T15:25:42Z</time>
<desc>lat.=55.900227, lon.=26.529085, Alt.=112.176819m. Speed=0.756000m/h.</desc>
<speed>0.210000</speed>
</trkpt>
<trkpt lat="55.900230" lon="26.529085">
<ele>112.176819</ele>
<time>2010-06-20T15:25:43Z</time>
<desc>lat.=55.900230, lon.=26.529085, Alt.=112.176819m. Speed=1.404000m/h.</desc>
<speed>0.390000</speed>
</trkpt>
<trkpt lat="55.900246" lon="26.529068">
<ele>112.241272</ele>
<time>2010-06-20T15:25:44Z</time>
<desc>lat.=55.900246, lon.=26.529068, Alt.=112.241272m. Speed=2.772000m/h.</desc>
<speed>0.770000</speed>
</trkpt>
<trkpt lat="55.900249" lon="26.529068">
<ele>112.454163</ele>
<time>2010-06-20T15:25:45Z</time>
<desc>lat.=55.900249, lon.=26.529068, Alt.=112.454163m. Speed=2.268000m/h.</desc>
<speed>0.630000</speed>
</trkpt>
<trkpt lat="55.900253" lon="26.529074">
<ele>112.627991</ele>
<time>2010-06-20T15:25:46Z</time>
<desc>lat.=55.900253, lon.=26.529074, Alt.=112.627991m. Speed=1.620000m/h.</desc>
<speed>0.450000</speed>
</trkpt>
<trkpt lat="55.900261" lon="26.529070">
<ele>112.833069</ele>
<time>2010-06-20T15:25:47Z</time>
<desc>lat.=55.900261, lon.=26.529070, Alt.=112.833069m. Speed=1.332000m/h.</desc>
<speed>0.370000</speed>
</trkpt>
<trkpt lat="55.900265" lon="26.529064">
<ele>113.108459</ele>
<time>2010-06-20T15:25:48Z</time>
<desc>lat.=55.900265, lon.=26.529064, Alt.=113.108459m. Speed=1.152000m/h.</desc>
<speed>0.320000</speed>
</trkpt>
<trkpt lat="55.900265" lon="26.529055">
<ele>113.454163</ele>
<time>2010-06-20T15:25:49Z</time>
<desc>lat.=55.900265, lon.=26.529055, Alt.=113.454163m. Speed=0.828000m/h.</desc>
<speed>0.230000</speed>
</trkpt>
<trkpt lat="55.900276" lon="26.529039">
<ele>113.721741</ele>
<time>2010-06-20T15:25:50Z</time>
<desc>lat.=55.900276, lon.=26.529039, Alt.=113.721741m. Speed=1.728000m/h.</desc>
<speed>0.480000</speed>
</trkpt>
<trkpt lat="55.900284" lon="26.529037">
<ele>113.901428</ele>
<time>2010-06-20T15:25:51Z</time>
<desc>lat.=55.900284, lon.=26.529037, Alt.=113.901428m. Speed=1.836000m/h.</desc>
<speed>0.510000</speed>
</trkpt>
<trkpt lat="55.900288" lon="26.529041">
<ele>114.149475</ele>
<time>2010-06-20T15:25:52Z</time>
<desc>lat.=55.900288, lon.=26.529041, Alt.=114.149475m. Speed=1.584000m/h.</desc>
<speed>0.440000</speed>
</trkpt>
<trkpt lat="55.900295" lon="26.529049">
<ele>114.338928</ele>
<time>2010-06-20T15:25:53Z</time>
<desc>lat.=55.900295, lon.=26.529049, Alt.=114.338928m. Speed=1.512000m/h.</desc>
<speed>0.420000</speed>
</trkpt>
<trkpt lat="55.900295" lon="26.529053">
<ele>114.547913</ele>
<time>2010-06-20T15:25:54Z</time>
<desc>lat.=55.900295, lon.=26.529053, Alt.=114.547913m. Speed=1.404000m/h.</desc>
<speed>0.390000</speed>
</trkpt>
<trkpt lat="55.900295" lon="26.529072">
<ele>114.821350</ele>
<time>2010-06-20T15:25:55Z</time>
<desc>lat.=55.900295, lon.=26.529072, Alt.=114.821350m. Speed=0.828000m/h.</desc>
<speed>0.230000</speed>
</trkpt>
<trkpt lat="55.900295" lon="26.529074">
<ele>115.161194</ele>
<time>2010-06-20T15:25:56Z</time>
<desc>lat.=55.900295, lon.=26.529074, Alt.=115.161194m. Speed=0.648000m/h.</desc>
<speed>0.180000</speed>
</trkpt>
<trkpt lat="55.900288" lon="26.529068">
<ele>115.415100</ele>
<time>2010-06-20T15:25:57Z</time>
<desc>lat.=55.900288, lon.=26.529068, Alt.=115.415100m. Speed=0.288000m/h.</desc>
<speed>0.080000</speed>
</trkpt>
<trkpt lat="55.900284" lon="26.529072">
<ele>115.575256</ele>
<time>2010-06-20T15:25:58Z</time>
<desc>lat.=55.900284, lon.=26.529072, Alt.=115.575256m. Speed=0.360000m/h.</desc>
<speed>0.100000</speed>
</trkpt>
<trkpt lat="55.900284" lon="26.529074">
<ele>115.606506</ele>
<time>2010-06-20T15:25:59Z</time>
<desc>lat.=55.900284, lon.=26.529074, Alt.=115.606506m. Speed=0.612000m/h.</desc>
<speed>0.170000</speed>
</trkpt>
<trkpt lat="55.900284" lon="26.529076">
<ele>115.641663</ele>
<time>2010-06-20T15:26:00Z</time>
<desc>lat.=55.900284, lon.=26.529076, Alt.=115.641663m. Speed=0.720000m/h.</desc>
<speed>0.200000</speed>
</trkpt>
<trkpt lat="55.900284" lon="26.529078">
<ele>115.672913</ele>
<time>2010-06-20T15:26:01Z</time>
<desc>lat.=55.900284, lon.=26.529078, Alt.=115.672913m. Speed=0.288000m/h.</desc>
<speed>0.080000</speed>
</trkpt>
<trkpt lat="55.900284" lon="26.529079">
<ele>115.702209</ele>
<time>2010-06-20T15:26:02Z</time>
<desc>lat.=55.900284, lon.=26.529079, Alt.=115.702209m. Speed=0.864000m/h.</desc>
<speed>0.240000</speed>
</trkpt>
<trkpt lat="55.900284" lon="26.529079">
<ele>115.729553</ele>
<time>2010-06-20T15:26:03Z</time>
<desc>lat.=55.900284, lon.=26.529079, Alt.=115.729553m. Speed=0.684000m/h.</desc>
<speed>0.190000</speed>
</trkpt>
<trkpt lat="55.900288" lon="26.529078">
<ele>115.754944</ele>
<time>2010-06-20T15:26:04Z</time>
<desc>lat.=55.900288, lon.=26.529078, Alt.=115.754944m. Speed=0.936000m/h.</desc>
<speed>0.260000</speed>
</trkpt>
<trkpt lat="55.900288" lon="26.529081">
<ele>115.784241</ele>
<time>2010-06-20T15:26:05Z</time>
<desc>lat.=55.900288, lon.=26.529081, Alt.=115.784241m. Speed=0.252000m/h.</desc>
<speed>0.070000</speed>
</trkpt>
<trkpt lat="55.900291" lon="26.529081">
<ele>115.801819</ele>
<time>2010-06-20T15:26:06Z</time>
<desc>lat.=55.900291, lon.=26.529081, Alt.=115.801819m. Speed=0.612000m/h.</desc>
<speed>0.170000</speed>
</trkpt>
<trkpt lat="55.900291" lon="26.529079">
<ele>115.817444</ele>
<time>2010-06-20T15:26:07Z</time>
<desc>lat.=55.900291, lon.=26.529079, Alt.=115.817444m. Speed=0.972000m/h.</desc>
<speed>0.270000</speed>
</trkpt>
<trkpt lat="55.900291" lon="26.529076">
<ele>115.831116</ele>
<time>2010-06-20T15:26:08Z</time>
<desc>lat.=55.900291, lon.=26.529076, Alt.=115.831116m. Speed=1.296000m/h.</desc>
<speed>0.360000</speed>
</trkpt>
<trkpt lat="55.900288" lon="26.529058">
<ele>115.887756</ele>
<time>2010-06-20T15:26:09Z</time>
<desc>lat.=55.900288, lon.=26.529058, Alt.=115.887756m. Speed=1.260000m/h.</desc>
<speed>0.350000</speed>
</trkpt>
<trkpt lat="55.900284" lon="26.529028">
<ele>115.954163</ele>
<time>2010-06-20T15:26:10Z</time>
<desc>lat.=55.900284, lon.=26.529028, Alt.=115.954163m. Speed=1.548000m/h.</desc>
<speed>0.430000</speed>
</trkpt>
<trkpt lat="55.900280" lon="26.529016">
<ele>116.081116</ele>
<time>2010-06-20T15:26:11Z</time>
<desc>lat.=55.900280, lon.=26.529016, Alt.=116.081116m. Speed=1.296000m/h.</desc>
<speed>0.360000</speed>
</trkpt>
<trkpt lat="55.900276" lon="26.529009">
<ele>116.147522</ele>
<time>2010-06-20T15:26:12Z</time>
<desc>lat.=55.900276, lon.=26.529009, Alt.=116.147522m. Speed=0.684000m/h.</desc>
<speed>0.190000</speed>
</trkpt>
<trkpt lat="55.900272" lon="26.529003">
<ele>116.186584</ele>
<time>2010-06-20T15:26:13Z</time>
<desc>lat.=55.900272, lon.=26.529003, Alt.=116.186584m. Speed=0.756000m/h.</desc>
<speed>0.210000</speed>
</trkpt>
<trkpt lat="55.900272" lon="26.528997">
<ele>116.211975</ele>
<time>2010-06-20T15:26:14Z</time>
<desc>lat.=55.900272, lon.=26.528997, Alt.=116.211975m. Speed=0.684000m/h.</desc>
<speed>0.190000</speed>
</trkpt>
<trkpt lat="55.900269" lon="26.528986">
<ele>116.110413</ele>
<time>2010-06-20T15:26:15Z</time>
<desc>lat.=55.900269, lon.=26.528986, Alt.=116.110413m. Speed=0.900000m/h.</desc>
<speed>0.250000</speed>
</trkpt>
<trkpt lat="55.900265" lon="26.528986">
<ele>116.110413</ele>
<time>2010-06-20T15:26:16Z</time>
<desc>lat.=55.900265, lon.=26.528986, Alt.=116.110413m. Speed=1.152000m/h.</desc>
<speed>0.320000</speed>
</trkpt>
<trkpt lat="55.900261" lon="26.528973">
<ele>116.045959</ele>
<time>2010-06-20T15:26:17Z</time>
<desc>lat.=55.900261, lon.=26.528973, Alt.=116.045959m. Speed=1.296000m/h.</desc>
<speed>0.360000</speed>
</trkpt>
<trkpt lat="55.900257" lon="26.528976">
<ele>115.961975</ele>
<time>2010-06-20T15:26:18Z</time>
<desc>lat.=55.900257, lon.=26.528976, Alt.=115.961975m. Speed=1.116000m/h.</desc>
<speed>0.310000</speed>
</trkpt>
<trkpt lat="55.900253" lon="26.528965">
<ele>115.879944</ele>
<time>2010-06-20T15:26:19Z</time>
<desc>lat.=55.900253, lon.=26.528965, Alt.=115.879944m. Speed=1.260000m/h.</desc>
<speed>0.350000</speed>
</trkpt>
<trkpt lat="55.900249" lon="26.528955">
<ele>115.776428</ele>
<time>2010-06-20T15:26:20Z</time>
<desc>lat.=55.900249, lon.=26.528955, Alt.=115.776428m. Speed=1.116000m/h.</desc>
<speed>0.310000</speed>
</trkpt>
<trkpt lat="55.900246" lon="26.528942">
<ele>115.692444</ele>
<time>2010-06-20T15:26:21Z</time>
<desc>lat.=55.900246, lon.=26.528942, Alt.=115.692444m. Speed=0.828000m/h.</desc>
<speed>0.230000</speed>
</trkpt>
<trkpt lat="55.900242" lon="26.528942">
<ele>115.491272</ele>
<time>2010-06-20T15:26:22Z</time>
<desc>lat.=55.900242, lon.=26.528942, Alt.=115.491272m. Speed=0.144000m/h.</desc>
<speed>0.040000</speed>
</trkpt>
<trkpt lat="55.900242" lon="26.528946">
<ele>115.297913</ele>
<time>2010-06-20T15:26:23Z</time>
<desc>lat.=55.900242, lon.=26.528946, Alt.=115.297913m. Speed=0.648000m/h.</desc>
<speed>0.180000</speed>
</trkpt>
<trkpt lat="55.900242" lon="26.528948">
<ele>115.141663</ele>
<time>2010-06-20T15:26:24Z</time>
<desc>lat.=55.900242, lon.=26.528948, Alt.=115.141663m. Speed=1.044000m/h.</desc>
<speed>0.290000</speed>
</trkpt>
<trkpt lat="55.900242" lon="26.528952">
<ele>115.139709</ele>
<time>2010-06-20T15:26:25Z</time>
<desc>lat.=55.900242, lon.=26.528952, Alt.=115.139709m. Speed=0.936000m/h.</desc>
<speed>0.260000</speed>
</trkpt>
<trkpt lat="55.900238" lon="26.528952">
<ele>115.135803</ele>
<time>2010-06-20T15:26:26Z</time>
<desc>lat.=55.900238, lon.=26.528952, Alt.=115.135803m. Speed=0.576000m/h.</desc>
<speed>0.160000</speed>
</trkpt>
<trkpt lat="55.900238" lon="26.528952">
<ele>115.129944</ele>
<time>2010-06-20T15:26:27Z</time>
<desc>lat.=55.900238, lon.=26.528952, Alt.=115.129944m. Speed=0.720000m/h.</desc>
<speed>0.200000</speed>
</trkpt>
<trkpt lat="55.900234" lon="26.528948">
<ele>115.122131</ele>
<time>2010-06-20T15:26:28Z</time>
<desc>lat.=55.900234, lon.=26.528948, Alt.=115.122131m. Speed=0.396000m/h.</desc>
<speed>0.110000</speed>
</trkpt>
<trkpt lat="55.900234" lon="26.528948">
<ele>115.118225</ele>
<time>2010-06-20T15:26:29Z</time>
<desc>lat.=55.900234, lon.=26.528948, Alt.=115.118225m. Speed=0.720000m/h.</desc>
<speed>0.200000</speed>
</trkpt>
<trkpt lat="55.900238" lon="26.528952">
<ele>115.116272</ele>
<time>2010-06-20T15:26:30Z</time>
<desc>lat.=55.900238, lon.=26.528952, Alt.=115.116272m. Speed=1.188000m/h.</desc>
<speed>0.330000</speed>
</trkpt>
<trkpt lat="55.900242" lon="26.528954">
<ele>115.161194</ele>
<time>2010-06-20T15:26:31Z</time>
<desc>lat.=55.900242, lon.=26.528954, Alt.=115.161194m. Speed=1.584000m/h.</desc>
<speed>0.440000</speed>
</trkpt>
<trkpt lat="55.900246" lon="26.528957">
<ele>115.233459</ele>
<time>2010-06-20T15:26:32Z</time>
<desc>lat.=55.900246, lon.=26.528957, Alt.=115.233459m. Speed=1.584000m/h.</desc>
<speed>0.440000</speed>
</trkpt>
<trkpt lat="55.900246" lon="26.528954">
<ele>115.290100</ele>
<time>2010-06-20T15:26:33Z</time>
<desc>lat.=55.900246, lon.=26.528954, Alt.=115.290100m. Speed=0.648000m/h.</desc>
<speed>0.180000</speed>
</trkpt>
<trkpt lat="55.900246" lon="26.528952">
<ele>115.366272</ele>
<time>2010-06-20T15:26:34Z</time>
<desc>lat.=55.900246, lon.=26.528952, Alt.=115.366272m. Speed=0.360000m/h.</desc>
<speed>0.100000</speed>
</trkpt>
<trkpt lat="55.900242" lon="26.528959">
<ele>115.381897</ele>
<time>2010-06-20T15:26:35Z</time>
<desc>lat.=55.900242, lon.=26.528959, Alt.=115.381897m. Speed=0.612000m/h.</desc>
<speed>0.170000</speed>
</trkpt>
<trkpt lat="55.900234" lon="26.528971">
<ele>115.405334</ele>
<time>2010-06-20T15:26:36Z</time>
<desc>lat.=55.900234, lon.=26.528971, Alt.=115.405334m. Speed=1.368000m/h.</desc>
<speed>0.380000</speed>
</trkpt>
<trkpt lat="55.900238" lon="26.528975">
<ele>115.489319</ele>
<time>2010-06-20T15:26:37Z</time>
<desc>lat.=55.900238, lon.=26.528975, Alt.=115.489319m. Speed=0.900000m/h.</desc>
<speed>0.250000</speed>
</trkpt>
<trkpt lat="55.900242" lon="26.528965">
<ele>115.559631</ele>
<time>2010-06-20T15:26:38Z</time>
<desc>lat.=55.900242, lon.=26.528965, Alt.=115.559631m. Speed=0.216000m/h.</desc>
<speed>0.060000</speed>
</trkpt>
<trkpt lat="55.900246" lon="26.528948">
<ele>115.565491</ele>
<time>2010-06-20T15:26:39Z</time>
<desc>lat.=55.900246, lon.=26.528948, Alt.=115.565491m. Speed=1.044000m/h.</desc>
<speed>0.290000</speed>
</trkpt>
<trkpt lat="55.900249" lon="26.528938">
<ele>115.508850</ele>
<time>2010-06-20T15:26:40Z</time>
<desc>lat.=55.900249, lon.=26.528938, Alt.=115.508850m. Speed=1.584000m/h.</desc>
<speed>0.440000</speed>
</trkpt>
<trkpt lat="55.900249" lon="26.528933">
<ele>115.483459</ele>
<time>2010-06-20T15:26:41Z</time>
<desc>lat.=55.900249, lon.=26.528933, Alt.=115.483459m. Speed=1.440000m/h.</desc>
<speed>0.400000</speed>
</trkpt>
<trkpt lat="55.900242" lon="26.528938">
<ele>115.569397</ele>
<time>2010-06-20T15:26:42Z</time>
<desc>lat.=55.900242, lon.=26.528938, Alt.=115.569397m. Speed=0.828000m/h.</desc>
<speed>0.230000</speed>
</trkpt>
<trkpt lat="55.900242" lon="26.528942">
<ele>115.586975</ele>
<time>2010-06-20T15:26:43Z</time>
<desc>lat.=55.900242, lon.=26.528942, Alt.=115.586975m. Speed=0.540000m/h.</desc>
<speed>0.150000</speed>
</trkpt>
<trkpt lat="55.900249" lon="26.528954">
<ele>115.688538</ele>
<time>2010-06-20T15:26:44Z</time>
<desc>lat.=55.900249, lon.=26.528954, Alt.=115.688538m. Speed=1.116000m/h.</desc>
<speed>0.310000</speed>
</trkpt>
<trkpt lat="55.900249" lon="26.528967">
<ele>115.797913</ele>
<time>2010-06-20T15:26:45Z</time>
<desc>lat.=55.900249, lon.=26.528967, Alt.=115.797913m. Speed=1.224000m/h.</desc>
<speed>0.340000</speed>
</trkpt>
<trkpt lat="55.900249" lon="26.528973">
<ele>115.924866</ele>
<time>2010-06-20T15:26:46Z</time>
<desc>lat.=55.900249, lon.=26.528973, Alt.=115.924866m. Speed=1.188000m/h.</desc>
<speed>0.330000</speed>
</trkpt>
<trkpt lat="55.900249" lon="26.528976">
<ele>116.063538</ele>
<time>2010-06-20T15:26:47Z</time>
<desc>lat.=55.900249, lon.=26.528976, Alt.=116.063538m. Speed=0.684000m/h.</desc>
<speed>0.190000</speed>
</trkpt>
<trkpt lat="55.900249" lon="26.528982">
<ele>116.157288</ele>
<time>2010-06-20T15:26:48Z</time>
<desc>lat.=55.900249, lon.=26.528982, Alt.=116.157288m. Speed=0.180000m/h.</desc>
<speed>0.050000</speed>
</trkpt>
<trkpt lat="55.900253" lon="26.528980">
<ele>116.272522</ele>
<time>2010-06-20T15:26:49Z</time>
<desc>lat.=55.900253, lon.=26.528980, Alt.=116.272522m. Speed=0.396000m/h.</desc>
<speed>0.110000</speed>
</trkpt>
<trkpt lat="55.900257" lon="26.528973">
<ele>116.307678</ele>
<time>2010-06-20T15:26:50Z</time>
<desc>lat.=55.900257, lon.=26.528973, Alt.=116.307678m. Speed=0.936000m/h.</desc>
<speed>0.260000</speed>
</trkpt>
<trkpt lat="55.900257" lon="26.528969">
<ele>116.315491</ele>
<time>2010-06-20T15:26:51Z</time>
<desc>lat.=55.900257, lon.=26.528969, Alt.=116.315491m. Speed=1.008000m/h.</desc>
<speed>0.280000</speed>
</trkpt>
<trkpt lat="55.900261" lon="26.528967">
<ele>116.321350</ele>
<time>2010-06-20T15:26:52Z</time>
<desc>lat.=55.900261, lon.=26.528967, Alt.=116.321350m. Speed=0.504000m/h.</desc>
<speed>0.140000</speed>
</trkpt>
<trkpt lat="55.900261" lon="26.528967">
<ele>116.329163</ele>
<time>2010-06-20T15:26:53Z</time>
<desc>lat.=55.900261, lon.=26.528967, Alt.=116.329163m. Speed=0.648000m/h.</desc>
<speed>0.180000</speed>
</trkpt>
<trkpt lat="55.900265" lon="26.528969">
<ele>116.340881</ele>
<time>2010-06-20T15:26:54Z</time>
<desc>lat.=55.900265, lon.=26.528969, Alt.=116.340881m. Speed=0.540000m/h.</desc>
<speed>0.150000</speed>
</trkpt>
<trkpt lat="55.900265" lon="26.528967">
<ele>116.356506</ele>
<time>2010-06-20T15:26:55Z</time>
<desc>lat.=55.900265, lon.=26.528967, Alt.=116.356506m. Speed=0.288000m/h.</desc>
<speed>0.080000</speed>
</trkpt>
<trkpt lat="55.900265" lon="26.528967">
<ele>116.376038</ele>
<time>2010-06-20T15:26:56Z</time>
<desc>lat.=55.900265, lon.=26.528967, Alt.=116.376038m. Speed=0.288000m/h.</desc>
<speed>0.080000</speed>
</trkpt>
<trkpt lat="55.900265" lon="26.528969">
<ele>116.395569</ele>
<time>2010-06-20T15:26:57Z</time>
<desc>lat.=55.900265, lon.=26.528969, Alt.=116.395569m. Speed=0.720000m/h.</desc>
<speed>0.200000</speed>
</trkpt>
<trkpt lat="55.900265" lon="26.528971">
<ele>116.409241</ele>
<time>2010-06-20T15:26:58Z</time>
<desc>lat.=55.900265, lon.=26.528971, Alt.=116.409241m. Speed=0.936000m/h.</desc>
<speed>0.260000</speed>
</trkpt>
<trkpt lat="55.900269" lon="26.528973">
<ele>116.422913</ele>
<time>2010-06-20T15:26:59Z</time>
<desc>lat.=55.900269, lon.=26.528973, Alt.=116.422913m. Speed=0.144000m/h.</desc>
<speed>0.040000</speed>
</trkpt>
<trkpt lat="55.900269" lon="26.528973">
<ele>116.430725</ele>
<time>2010-06-20T15:27:00Z</time>
<desc>lat.=55.900269, lon.=26.528973, Alt.=116.430725m. Speed=0.540000m/h.</desc>
<speed>0.150000</speed>
</trkpt>
<trkpt lat="55.900265" lon="26.528975">
<ele>116.440491</ele>
<time>2010-06-20T15:27:01Z</time>
<desc>lat.=55.900265, lon.=26.528975, Alt.=116.440491m. Speed=1.440000m/h.</desc>
<speed>0.400000</speed>
</trkpt>
<trkpt lat="55.900253" lon="26.528982">
<ele>116.516663</ele>
<time>2010-06-20T15:27:02Z</time>
<desc>lat.=55.900253, lon.=26.528982, Alt.=116.516663m. Speed=2.484000m/h.</desc>
<speed>0.690000</speed>
</trkpt>
<trkpt lat="55.900246" lon="26.529003">
<ele>116.549866</ele>
<time>2010-06-20T15:27:03Z</time>
<desc>lat.=55.900246, lon.=26.529003, Alt.=116.549866m. Speed=2.844000m/h.</desc>
<speed>0.790000</speed>
</trkpt>
<trkpt lat="55.900246" lon="26.528996">
<ele>116.567444</ele>
<time>2010-06-20T15:27:04Z</time>
<desc>lat.=55.900246, lon.=26.528996, Alt.=116.567444m. Speed=1.944000m/h.</desc>
<speed>0.540000</speed>
</trkpt>
<trkpt lat="55.900246" lon="26.529001">
<ele>116.626038</ele>
<time>2010-06-20T15:27:05Z</time>
<desc>lat.=55.900246, lon.=26.529001, Alt.=116.626038m. Speed=1.440000m/h.</desc>
<speed>0.400000</speed>
</trkpt>
<trkpt lat="55.900249" lon="26.529015">
<ele>116.635803</ele>
<time>2010-06-20T15:27:06Z</time>
<desc>lat.=55.900249, lon.=26.529015, Alt.=116.635803m. Speed=1.620000m/h.</desc>
<speed>0.450000</speed>
</trkpt>
<trkpt lat="55.900253" lon="26.529024">
<ele>116.610413</ele>
<time>2010-06-20T15:27:07Z</time>
<desc>lat.=55.900253, lon.=26.529024, Alt.=116.610413m. Speed=1.764000m/h.</desc>
<speed>0.490000</speed>
</trkpt>
<trkpt lat="55.900261" lon="26.529034">
<ele>116.645569</ele>
<time>2010-06-20T15:27:08Z</time>
<desc>lat.=55.900261, lon.=26.529034, Alt.=116.645569m. Speed=1.692000m/h.</desc>
<speed>0.470000</speed>
</trkpt>
<trkpt lat="55.900265" lon="26.529043">
<ele>116.721741</ele>
<time>2010-06-20T15:27:09Z</time>
<desc>lat.=55.900265, lon.=26.529043, Alt.=116.721741m. Speed=1.404000m/h.</desc>
<speed>0.390000</speed>
</trkpt>
<trkpt lat="55.900272" lon="26.529057">
<ele>116.784241</ele>
<time>2010-06-20T15:27:10Z</time>
<desc>lat.=55.900272, lon.=26.529057, Alt.=116.784241m. Speed=1.728000m/h.</desc>
<speed>0.480000</speed>
</trkpt>
<trkpt lat="55.900280" lon="26.529066">
<ele>116.694397</ele>
<time>2010-06-20T15:27:11Z</time>
<desc>lat.=55.900280, lon.=26.529066, Alt.=116.694397m. Speed=1.620000m/h.</desc>
<speed>0.450000</speed>
</trkpt>
<trkpt lat="55.900284" lon="26.529068">
<ele>116.723694</ele>
<time>2010-06-20T15:27:12Z</time>
<desc>lat.=55.900284, lon.=26.529068, Alt.=116.723694m. Speed=1.260000m/h.</desc>
<speed>0.350000</speed>
</trkpt>
<trkpt lat="55.900291" lon="26.529058">
<ele>116.835022</ele>
<time>2010-06-20T15:27:13Z</time>
<desc>lat.=55.900291, lon.=26.529058, Alt.=116.835022m. Speed=0.648000m/h.</desc>
<speed>0.180000</speed>
</trkpt>
<trkpt lat="55.900295" lon="26.529053">
<ele>116.838928</ele>
<time>2010-06-20T15:27:14Z</time>
<desc>lat.=55.900295, lon.=26.529053, Alt.=116.838928m. Speed=0.324000m/h.</desc>
<speed>0.090000</speed>
</trkpt>
<trkpt lat="55.900295" lon="26.529062">
<ele>116.862366</ele>
<time>2010-06-20T15:27:15Z</time>
<desc>lat.=55.900295, lon.=26.529062, Alt.=116.862366m. Speed=1.188000m/h.</desc>
<speed>0.330000</speed>
</trkpt>
<trkpt lat="55.900299" lon="26.529064">
<ele>116.893616</ele>
<time>2010-06-20T15:27:16Z</time>
<desc>lat.=55.900299, lon.=26.529064, Alt.=116.893616m. Speed=1.188000m/h.</desc>
<speed>0.330000</speed>
</trkpt>
<trkpt lat="55.900303" lon="26.529072">
<ele>116.922913</ele>
<time>2010-06-20T15:27:17Z</time>
<desc>lat.=55.900303, lon.=26.529072, Alt.=116.922913m. Speed=1.548000m/h.</desc>
<speed>0.430000</speed>
</trkpt>
<trkpt lat="55.900311" lon="26.529070">
<ele>116.930725</ele>
<time>2010-06-20T15:27:18Z</time>
<desc>lat.=55.900311, lon.=26.529070, Alt.=116.930725m. Speed=1.260000m/h.</desc>
<speed>0.350000</speed>
</trkpt>
<trkpt lat="55.900318" lon="26.529060">
<ele>116.958069</ele>
<time>2010-06-20T15:27:19Z</time>
<desc>lat.=55.900318, lon.=26.529060, Alt.=116.958069m. Speed=0.936000m/h.</desc>
<speed>0.260000</speed>
</trkpt>
<trkpt lat="55.900330" lon="26.529053">
<ele>117.067444</ele>
<time>2010-06-20T15:27:20Z</time>
<desc>lat.=55.900330, lon.=26.529053, Alt.=117.067444m. Speed=1.476000m/h.</desc>
<speed>0.410000</speed>
</trkpt>
<trkpt lat="55.900333" lon="26.529047">
<ele>117.126038</ele>
<time>2010-06-20T15:27:21Z</time>
<desc>lat.=55.900333, lon.=26.529047, Alt.=117.126038m. Speed=1.296000m/h.</desc>
<speed>0.360000</speed>
</trkpt>
<trkpt lat="55.900333" lon="26.529051">
<ele>117.180725</ele>
<time>2010-06-20T15:27:22Z</time>
<desc>lat.=55.900333, lon.=26.529051, Alt.=117.180725m. Speed=0.648000m/h.</desc>
<speed>0.180000</speed>
</trkpt>
<trkpt lat="55.900337" lon="26.529055">
<ele>117.219788</ele>
<time>2010-06-20T15:27:23Z</time>
<desc>lat.=55.900337, lon.=26.529055, Alt.=117.219788m. Speed=0.900000m/h.</desc>
<speed>0.250000</speed>
</trkpt>
<trkpt lat="55.900337" lon="26.529066">
<ele>117.200256</ele>
<time>2010-06-20T15:27:24Z</time>
<desc>lat.=55.900337, lon.=26.529066, Alt.=117.200256m. Speed=1.332000m/h.</desc>
<speed>0.370000</speed>
</trkpt>
<trkpt lat="55.900341" lon="26.529081">
<ele>117.241272</ele>
<time>2010-06-20T15:27:25Z</time>
<desc>lat.=55.900341, lon.=26.529081, Alt.=117.241272m. Speed=1.728000m/h.</desc>
<speed>0.480000</speed>
</trkpt>
<trkpt lat="55.900341" lon="26.529093">
<ele>117.217834</ele>
<time>2010-06-20T15:27:26Z</time>
<desc>lat.=55.900341, lon.=26.529093, Alt.=117.217834m. Speed=1.368000m/h.</desc>
<speed>0.380000</speed>
</trkpt>
<trkpt lat="55.900337" lon="26.529100">
<ele>117.258850</ele>
<time>2010-06-20T15:27:27Z</time>
<desc>lat.=55.900337, lon.=26.529100, Alt.=117.258850m. Speed=0.972000m/h.</desc>
<speed>0.270000</speed>
</trkpt>
<trkpt lat="55.900330" lon="26.529099">
<ele>117.280334</ele>
<time>2010-06-20T15:27:28Z</time>
<desc>lat.=55.900330, lon.=26.529099, Alt.=117.280334m. Speed=0.504000m/h.</desc>
<speed>0.140000</speed>
</trkpt>
<trkpt lat="55.900322" lon="26.529104">
<ele>117.387756</ele>
<time>2010-06-20T15:27:29Z</time>
<desc>lat.=55.900322, lon.=26.529104, Alt.=117.387756m. Speed=0.504000m/h.</desc>
<speed>0.140000</speed>
</trkpt>
<trkpt lat="55.900314" lon="26.529114">
<ele>117.397522</ele>
<time>2010-06-20T15:27:30Z</time>
<desc>lat.=55.900314, lon.=26.529114, Alt.=117.397522m. Speed=1.080000m/h.</desc>
<speed>0.300000</speed>
</trkpt>
<trkpt lat="55.900299" lon="26.529129">
<ele>117.438538</ele>
<time>2010-06-20T15:27:31Z</time>
<desc>lat.=55.900299, lon.=26.529129, Alt.=117.438538m. Speed=2.196000m/h.</desc>
<speed>0.610000</speed>
</trkpt>
<trkpt lat="55.900291" lon="26.529144">
<ele>117.442444</ele>
<time>2010-06-20T15:27:32Z</time>
<desc>lat.=55.900291, lon.=26.529144, Alt.=117.442444m. Speed=2.268000m/h.</desc>
<speed>0.630000</speed>
</trkpt>
<trkpt lat="55.900299" lon="26.529139">
<ele>117.387756</ele>
<time>2010-06-20T15:27:33Z</time>
<desc>lat.=55.900299, lon.=26.529139, Alt.=117.387756m. Speed=1.440000m/h.</desc>
<speed>0.400000</speed>
</trkpt>
<trkpt lat="55.900299" lon="26.529127">
<ele>117.331116</ele>
<time>2010-06-20T15:27:34Z</time>
<desc>lat.=55.900299, lon.=26.529127, Alt.=117.331116m. Speed=0.900000m/h.</desc>
<speed>0.250000</speed>
</trkpt>
<trkpt lat="55.900299" lon="26.529118">
<ele>117.256897</ele>
<time>2010-06-20T15:27:35Z</time>
<desc>lat.=55.900299, lon.=26.529118, Alt.=117.256897m. Speed=0.432000m/h.</desc>
<speed>0.120000</speed>
</trkpt>
<trkpt lat="55.900295" lon="26.529104">
<ele>117.174866</ele>
<time>2010-06-20T15:27:36Z</time>
<desc>lat.=55.900295, lon.=26.529104, Alt.=117.174866m. Speed=0.144000m/h.</desc>
<speed>0.040000</speed>
</trkpt>
<trkpt lat="55.900295" lon="26.529091">
<ele>117.118225</ele>
<time>2010-06-20T15:27:37Z</time>
<desc>lat.=55.900295, lon.=26.529091, Alt.=117.118225m. Speed=0.288000m/h.</desc>
<speed>0.080000</speed>
</trkpt>
<trkpt lat="55.900295" lon="26.529089">
<ele>117.127991</ele>
<time>2010-06-20T15:27:38Z</time>
<desc>lat.=55.900295, lon.=26.529089, Alt.=117.127991m. Speed=1.044000m/h.</desc>
<speed>0.290000</speed>
</trkpt>
<trkpt lat="55.900295" lon="26.529083">
<ele>117.135803</ele>
<time>2010-06-20T15:27:39Z</time>
<desc>lat.=55.900295, lon.=26.529083, Alt.=117.135803m. Speed=1.080000m/h.</desc>
<speed>0.300000</speed>
</trkpt>
<trkpt lat="55.900291" lon="26.529062">
<ele>117.139709</ele>
<time>2010-06-20T15:27:40Z</time>
<desc>lat.=55.900291, lon.=26.529062, Alt.=117.139709m. Speed=1.764000m/h.</desc>
<speed>0.490000</speed>
</trkpt>
<trkpt lat="55.900288" lon="26.529060">
<ele>117.112366</ele>
<time>2010-06-20T15:27:41Z</time>
<desc>lat.=55.900288, lon.=26.529060, Alt.=117.112366m. Speed=1.512000m/h.</desc>
<speed>0.420000</speed>
</trkpt>
<trkpt lat="55.900284" lon="26.529043">
<ele>117.131897</ele>
<time>2010-06-20T15:27:42Z</time>
<desc>lat.=55.900284, lon.=26.529043, Alt.=117.131897m. Speed=2.088000m/h.</desc>
<speed>0.580000</speed>
</trkpt>
<trkpt lat="55.900284" lon="26.529055">
<ele>117.151428</ele>
<time>2010-06-20T15:27:43Z</time>
<desc>lat.=55.900284, lon.=26.529055, Alt.=117.151428m. Speed=1.872000m/h.</desc>
<speed>0.520000</speed>
</trkpt>
<trkpt lat="55.900280" lon="26.529055">
<ele>117.129944</ele>
<time>2010-06-20T15:27:44Z</time>
<desc>lat.=55.900280, lon.=26.529055, Alt.=117.129944m. Speed=2.124000m/h.</desc>
<speed>0.590000</speed>
</trkpt>
<trkpt lat="55.900272" lon="26.529055">
<ele>117.110413</ele>
<time>2010-06-20T15:27:45Z</time>
<desc>lat.=55.900272, lon.=26.529055, Alt.=117.110413m. Speed=2.196000m/h.</desc>
<speed>0.610000</speed>
</trkpt>
<trkpt lat="55.900269" lon="26.529041">
<ele>117.149475</ele>
<time>2010-06-20T15:27:46Z</time>
<desc>lat.=55.900269, lon.=26.529041, Alt.=117.149475m. Speed=2.484000m/h.</desc>
<speed>0.690000</speed>
</trkpt>
<trkpt lat="55.900269" lon="26.529032">
<ele>117.159241</ele>
<time>2010-06-20T15:27:47Z</time>
<desc>lat.=55.900269, lon.=26.529032, Alt.=117.159241m. Speed=2.304000m/h.</desc>
<speed>0.640000</speed>
</trkpt>
<trkpt lat="55.900269" lon="26.529024">
<ele>117.165100</ele>
<time>2010-06-20T15:27:48Z</time>
<desc>lat.=55.900269, lon.=26.529024, Alt.=117.165100m. Speed=1.728000m/h.</desc>
<speed>0.480000</speed>
</trkpt>
<trkpt lat="55.900269" lon="26.529020">
<ele>117.092834</ele>
<time>2010-06-20T15:27:49Z</time>
<desc>lat.=55.900269, lon.=26.529020, Alt.=117.092834m. Speed=1.260000m/h.</desc>
<speed>0.350000</speed>
</trkpt>
<trkpt lat="55.900276" lon="26.529003">
<ele>116.969788</ele>
<time>2010-06-20T15:27:50Z</time>
<desc>lat.=55.900276, lon.=26.529003, Alt.=116.969788m. Speed=1.980000m/h.</desc>
<speed>0.550000</speed>
</trkpt>
<trkpt lat="55.900272" lon="26.528992">
<ele>116.835022</ele>
<time>2010-06-20T15:27:51Z</time>
<desc>lat.=55.900272, lon.=26.528992, Alt.=116.835022m. Speed=1.476000m/h.</desc>
<speed>0.410000</speed>
</trkpt>
<trkpt lat="55.900276" lon="26.528978">
<ele>116.766663</ele>
<time>2010-06-20T15:27:52Z</time>
<desc>lat.=55.900276, lon.=26.528978, Alt.=116.766663m. Speed=1.476000m/h.</desc>
<speed>0.410000</speed>
</trkpt>
<trkpt lat="55.900280" lon="26.528971">
<ele>116.749084</ele>
<time>2010-06-20T15:27:53Z</time>
<desc>lat.=55.900280, lon.=26.528971, Alt.=116.749084m. Speed=1.764000m/h.</desc>
<speed>0.490000</speed>
</trkpt>
<trkpt lat="55.900276" lon="26.528978">
<ele>116.700256</ele>
<time>2010-06-20T15:27:54Z</time>
<desc>lat.=55.900276, lon.=26.528978, Alt.=116.700256m. Speed=1.008000m/h.</desc>
<speed>0.280000</speed>
</trkpt>
<trkpt lat="55.900276" lon="26.528973">
<ele>116.600647</ele>
<time>2010-06-20T15:27:55Z</time>
<desc>lat.=55.900276, lon.=26.528973, Alt.=116.600647m. Speed=0.936000m/h.</desc>
<speed>0.260000</speed>
</trkpt>
<trkpt lat="55.900276" lon="26.528971">
<ele>116.602600</ele>
<time>2010-06-20T15:27:56Z</time>
<desc>lat.=55.900276, lon.=26.528971, Alt.=116.602600m. Speed=0.756000m/h.</desc>
<speed>0.210000</speed>
</trkpt>
<trkpt lat="55.900284" lon="26.528973">
<ele>116.532288</ele>
<time>2010-06-20T15:27:57Z</time>
<desc>lat.=55.900284, lon.=26.528973, Alt.=116.532288m. Speed=0.612000m/h.</desc>
<speed>0.170000</speed>
</trkpt>
<trkpt lat="55.900284" lon="26.528969">
<ele>116.540100</ele>
<time>2010-06-20T15:27:58Z</time>
<desc>lat.=55.900284, lon.=26.528969, Alt.=116.540100m. Speed=0.972000m/h.</desc>
<speed>0.270000</speed>
</trkpt>
<trkpt lat="55.900284" lon="26.528969">
<ele>116.542053</ele>
<time>2010-06-20T15:27:59Z</time>
<desc>lat.=55.900284, lon.=26.528969, Alt.=116.542053m. Speed=0.612000m/h.</desc>
<speed>0.170000</speed>
</trkpt>
<trkpt lat="55.900288" lon="26.528969">
<ele>116.545959</ele>
<time>2010-06-20T15:28:00Z</time>
<desc>lat.=55.900288, lon.=26.528969, Alt.=116.545959m. Speed=0.072000m/h.</desc>
<speed>0.020000</speed>
</trkpt>
<trkpt lat="55.900288" lon="26.528969">
<ele>116.551819</ele>
<time>2010-06-20T15:28:01Z</time>
<desc>lat.=55.900288, lon.=26.528969, Alt.=116.551819m. Speed=0.324000m/h.</desc>
<speed>0.090000</speed>
</trkpt>
<trkpt lat="55.900288" lon="26.528967">
<ele>116.555725</ele>
<time>2010-06-20T15:28:02Z</time>
<desc>lat.=55.900288, lon.=26.528967, Alt.=116.555725m. Speed=0.756000m/h.</desc>
<speed>0.210000</speed>
</trkpt>
<trkpt lat="55.900288" lon="26.528963">
<ele>116.557678</ele>
<time>2010-06-20T15:28:03Z</time>
<desc>lat.=55.900288, lon.=26.528963, Alt.=116.557678m. Speed=0.540000m/h.</desc>
<speed>0.150000</speed>
</trkpt>
<trkpt lat="55.900288" lon="26.528961">
<ele>116.559631</ele>
<time>2010-06-20T15:28:04Z</time>
<desc>lat.=55.900288, lon.=26.528961, Alt.=116.559631m. Speed=0.468000m/h.</desc>
<speed>0.130000</speed>
</trkpt>
<trkpt lat="55.900284" lon="26.528959">
<ele>116.563538</ele>
<time>2010-06-20T15:28:05Z</time>
<desc>lat.=55.900284, lon.=26.528959, Alt.=116.563538m. Speed=0.720000m/h.</desc>
<speed>0.200000</speed>
</trkpt>
<trkpt lat="55.900288" lon="26.528957">
<ele>116.563538</ele>
<time>2010-06-20T15:28:06Z</time>
<desc>lat.=55.900288, lon.=26.528957, Alt.=116.563538m. Speed=0.360000m/h.</desc>
<speed>0.100000</speed>
</trkpt>
<trkpt lat="55.900288" lon="26.528957">
<ele>116.563538</ele>
<time>2010-06-20T15:28:07Z</time>
<desc>lat.=55.900288, lon.=26.528957, Alt.=116.563538m. Speed=0.216000m/h.</desc>
<speed>0.060000</speed>
</trkpt>
<trkpt lat="55.900288" lon="26.528959">
<ele>116.563538</ele>
<time>2010-06-20T15:28:08Z</time>
<desc>lat.=55.900288, lon.=26.528959, Alt.=116.563538m. Speed=1.044000m/h.</desc>
<speed>0.290000</speed>
</trkpt>
<trkpt lat="55.900284" lon="26.528961">
<ele>116.567444</ele>
<time>2010-06-20T15:28:09Z</time>
<desc>lat.=55.900284, lon.=26.528961, Alt.=116.567444m. Speed=1.296000m/h.</desc>
<speed>0.360000</speed>
</trkpt>
<trkpt lat="55.900284" lon="26.528948">
<ele>116.594788</ele>
<time>2010-06-20T15:28:10Z</time>
<desc>lat.=55.900284, lon.=26.528948, Alt.=116.594788m. Speed=1.152000m/h.</desc>
<speed>0.320000</speed>
</trkpt>
<trkpt lat="55.900284" lon="26.528934">
<ele>116.612366</ele>
<time>2010-06-20T15:28:11Z</time>
<desc>lat.=55.900284, lon.=26.528934, Alt.=116.612366m. Speed=1.332000m/h.</desc>
<speed>0.370000</speed>
</trkpt>
<trkpt lat="55.900288" lon="26.528923">
<ele>116.624084</ele>
<time>2010-06-20T15:28:12Z</time>
<desc>lat.=55.900288, lon.=26.528923, Alt.=116.624084m. Speed=1.296000m/h.</desc>
<speed>0.360000</speed>
</trkpt>
<trkpt lat="55.900280" lon="26.528929">
<ele>116.653381</ele>
<time>2010-06-20T15:28:13Z</time>
<desc>lat.=55.900280, lon.=26.528929, Alt.=116.653381m. Speed=0.756000m/h.</desc>
<speed>0.210000</speed>
</trkpt>
<trkpt lat="55.900276" lon="26.528933">
<ele>116.696350</ele>
<time>2010-06-20T15:28:14Z</time>
<desc>lat.=55.900276, lon.=26.528933, Alt.=116.696350m. Speed=1.008000m/h.</desc>
<speed>0.280000</speed>
</trkpt>
<trkpt lat="55.900269" lon="26.528940">
<ele>116.676819</ele>
<time>2010-06-20T15:28:15Z</time>
<desc>lat.=55.900269, lon.=26.528940, Alt.=116.676819m. Speed=1.728000m/h.</desc>
<speed>0.480000</speed>
</trkpt>
<trkpt lat="55.900280" lon="26.528921">
<ele>116.674866</ele>
<time>2010-06-20T15:28:16Z</time>
<desc>lat.=55.900280, lon.=26.528921, Alt.=116.674866m. Speed=0.648000m/h.</desc>
<speed>0.180000</speed>
</trkpt>
<trkpt lat="55.900280" lon="26.528917">
<ele>116.678772</ele>
<time>2010-06-20T15:28:17Z</time>
<desc>lat.=55.900280, lon.=26.528917, Alt.=116.678772m. Speed=0.324000m/h.</desc>
<speed>0.090000</speed>
</trkpt>
<trkpt lat="55.900280" lon="26.528910">
<ele>116.672913</ele>
<time>2010-06-20T15:28:18Z</time>
<desc>lat.=55.900280, lon.=26.528910, Alt.=116.672913m. Speed=0.720000m/h.</desc>
<speed>0.200000</speed>
</trkpt>
<trkpt lat="55.900280" lon="26.528917">
<ele>116.641663</ele>
<time>2010-06-20T15:28:19Z</time>
<desc>lat.=55.900280, lon.=26.528917, Alt.=116.641663m. Speed=0.504000m/h.</desc>
<speed>0.140000</speed>
</trkpt>
<trkpt lat="55.900280" lon="26.528915">
<ele>116.639709</ele>
<time>2010-06-20T15:28:20Z</time>
<desc>lat.=55.900280, lon.=26.528915, Alt.=116.639709m. Speed=0.288000m/h.</desc>
<speed>0.080000</speed>
</trkpt>
<trkpt lat="55.900280" lon="26.528915">
<ele>116.637756</ele>
<time>2010-06-20T15:28:21Z</time>
<desc>lat.=55.900280, lon.=26.528915, Alt.=116.637756m. Speed=0.288000m/h.</desc>
<speed>0.080000</speed>
</trkpt>
<trkpt lat="55.900284" lon="26.528915">
<ele>116.637756</ele>
<time>2010-06-20T15:28:22Z</time>
<desc>lat.=55.900284, lon.=26.528915, Alt.=116.637756m. Speed=0.252000m/h.</desc>
<speed>0.070000</speed>
</trkpt>
<trkpt lat="55.900284" lon="26.528915">
<ele>116.635803</ele>
<time>2010-06-20T15:28:23Z</time>
<desc>lat.=55.900284, lon.=26.528915, Alt.=116.635803m. Speed=0.540000m/h.</desc>
<speed>0.150000</speed>
</trkpt>
<trkpt lat="55.900284" lon="26.528913">
<ele>116.635803</ele>
<time>2010-06-20T15:28:24Z</time>
<desc>lat.=55.900284, lon.=26.528913, Alt.=116.635803m. Speed=0.648000m/h.</desc>
<speed>0.180000</speed>
</trkpt>
<trkpt lat="55.900284" lon="26.528912">
<ele>116.637756</ele>
<time>2010-06-20T15:28:25Z</time>
<desc>lat.=55.900284, lon.=26.528912, Alt.=116.637756m. Speed=0.972000m/h.</desc>
<speed>0.270000</speed>
</trkpt>
<trkpt lat="55.900280" lon="26.528913">
<ele>116.639709</ele>
<time>2010-06-20T15:28:26Z</time>
<desc>lat.=55.900280, lon.=26.528913, Alt.=116.639709m. Speed=1.800000m/h.</desc>
<speed>0.500000</speed>
</trkpt>
<trkpt lat="55.900280" lon="26.528915">
<ele>116.641663</ele>
<time>2010-06-20T15:28:27Z</time>
<desc>lat.=55.900280, lon.=26.528915, Alt.=116.641663m. Speed=1.584000m/h.</desc>
<speed>0.440000</speed>
</trkpt>
<trkpt lat="55.900269" lon="26.528927">
<ele>116.624084</ele>
<time>2010-06-20T15:28:28Z</time>
<desc>lat.=55.900269, lon.=26.528927, Alt.=116.624084m. Speed=2.088000m/h.</desc>
<speed>0.580000</speed>
</trkpt>
<trkpt lat="55.900261" lon="26.528952">
<ele>116.596741</ele>
<time>2010-06-20T15:28:29Z</time>
<desc>lat.=55.900261, lon.=26.528952, Alt.=116.596741m. Speed=2.880000m/h.</desc>
<speed>0.800000</speed>
</trkpt>
<trkpt lat="55.900261" lon="26.528948">
<ele>116.553772</ele>
<time>2010-06-20T15:28:30Z</time>
<desc>lat.=55.900261, lon.=26.528948, Alt.=116.553772m. Speed=1.836000m/h.</desc>
<speed>0.510000</speed>
</trkpt>
<trkpt lat="55.900257" lon="26.528957">
<ele>116.534241</ele>
<time>2010-06-20T15:28:31Z</time>
<desc>lat.=55.900257, lon.=26.528957, Alt.=116.534241m. Speed=1.872000m/h.</desc>
<speed>0.520000</speed>
</trkpt>
<trkpt lat="55.900249" lon="26.528959">
<ele>116.512756</ele>
<time>2010-06-20T15:28:32Z</time>
<desc>lat.=55.900249, lon.=26.528959, Alt.=116.512756m. Speed=1.692000m/h.</desc>
<speed>0.470000</speed>
</trkpt>
<trkpt lat="55.900249" lon="26.528963">
<ele>116.506897</ele>
<time>2010-06-20T15:28:33Z</time>
<desc>lat.=55.900249, lon.=26.528963, Alt.=116.506897m. Speed=1.188000m/h.</desc>
<speed>0.330000</speed>
</trkpt>
<trkpt lat="55.900242" lon="26.528984">
<ele>116.526428</ele>
<time>2010-06-20T15:28:34Z</time>
<desc>lat.=55.900242, lon.=26.528984, Alt.=116.526428m. Speed=1.656000m/h.</desc>
<speed>0.460000</speed>
</trkpt>
<trkpt lat="55.900238" lon="26.528997">
<ele>116.583069</ele>
<time>2010-06-20T15:28:35Z</time>
<desc>lat.=55.900238, lon.=26.528997, Alt.=116.583069m. Speed=2.052000m/h.</desc>
<speed>0.570000</speed>
</trkpt>
<trkpt lat="55.900238" lon="26.528996">
<ele>116.616272</ele>
<time>2010-06-20T15:28:36Z</time>
<desc>lat.=55.900238, lon.=26.528996, Alt.=116.616272m. Speed=1.332000m/h.</desc>
<speed>0.370000</speed>
</trkpt>
<trkpt lat="55.900242" lon="26.528996">
<ele>116.633850</ele>
<time>2010-06-20T15:28:37Z</time>
<desc>lat.=55.900242, lon.=26.528996, Alt.=116.633850m. Speed=0.972000m/h.</desc>
<speed>0.270000</speed>
</trkpt>
<trkpt lat="55.900242" lon="26.529007">
<ele>116.649475</ele>
<time>2010-06-20T15:28:38Z</time>
<desc>lat.=55.900242, lon.=26.529007, Alt.=116.649475m. Speed=0.828000m/h.</desc>
<speed>0.230000</speed>
</trkpt>
<trkpt lat="55.900238" lon="26.529011">
<ele>116.659241</ele>
<time>2010-06-20T15:28:39Z</time>
<desc>lat.=55.900238, lon.=26.529011, Alt.=116.659241m. Speed=0.756000m/h.</desc>
<speed>0.210000</speed>
</trkpt>
<trkpt lat="55.900238" lon="26.529016">
<ele>116.694397</ele>
<time>2010-06-20T15:28:40Z</time>
<desc>lat.=55.900238, lon.=26.529016, Alt.=116.694397m. Speed=0.792000m/h.</desc>
<speed>0.220000</speed>
</trkpt>
<trkpt lat="55.900234" lon="26.529020">
<ele>116.698303</ele>
<time>2010-06-20T15:28:41Z</time>
<desc>lat.=55.900234, lon.=26.529020, Alt.=116.698303m. Speed=0.684000m/h.</desc>
<speed>0.190000</speed>
</trkpt>
<trkpt lat="55.900234" lon="26.529022">
<ele>116.700256</ele>
<time>2010-06-20T15:28:42Z</time>
<desc>lat.=55.900234, lon.=26.529022, Alt.=116.700256m. Speed=0.720000m/h.</desc>
<speed>0.200000</speed>
</trkpt>
<trkpt lat="55.900234" lon="26.529026">
<ele>116.700256</ele>
<time>2010-06-20T15:28:43Z</time>
<desc>lat.=55.900234, lon.=26.529026, Alt.=116.700256m. Speed=1.836000m/h.</desc>
<speed>0.510000</speed>
</trkpt>
<trkpt lat="55.900230" lon="26.529036">
<ele>116.682678</ele>
<time>2010-06-20T15:28:44Z</time>
<desc>lat.=55.900230, lon.=26.529036, Alt.=116.682678m. Speed=1.440000m/h.</desc>
<speed>0.400000</speed>
</trkpt>
<trkpt lat="55.900230" lon="26.529045">
<ele>116.696350</ele>
<time>2010-06-20T15:28:45Z</time>
<desc>lat.=55.900230, lon.=26.529045, Alt.=116.696350m. Speed=1.188000m/h.</desc>
<speed>0.330000</speed>
</trkpt>
<trkpt lat="55.900227" lon="26.529045">
<ele>116.713928</ele>
<time>2010-06-20T15:28:46Z</time>
<desc>lat.=55.900227, lon.=26.529045, Alt.=116.713928m. Speed=1.008000m/h.</desc>
<speed>0.280000</speed>
</trkpt>
<trkpt lat="55.900230" lon="26.529049">
<ele>116.694397</ele>
<time>2010-06-20T15:28:47Z</time>
<desc>lat.=55.900230, lon.=26.529049, Alt.=116.694397m. Speed=0.288000m/h.</desc>
<speed>0.080000</speed>
</trkpt>
<trkpt lat="55.900230" lon="26.529053">
<ele>116.661194</ele>
<time>2010-06-20T15:28:48Z</time>
<desc>lat.=55.900230, lon.=26.529053, Alt.=116.661194m. Speed=0.180000m/h.</desc>
<speed>0.050000</speed>
</trkpt>
<trkpt lat="55.900227" lon="26.529062">
<ele>116.633850</ele>
<time>2010-06-20T15:28:49Z</time>
<desc>lat.=55.900227, lon.=26.529062, Alt.=116.633850m. Speed=0.396000m/h.</desc>
<speed>0.110000</speed>
</trkpt>
<trkpt lat="55.900227" lon="26.529064">
<ele>116.631897</ele>
<time>2010-06-20T15:28:50Z</time>
<desc>lat.=55.900227, lon.=26.529064, Alt.=116.631897m. Speed=0.144000m/h.</desc>
<speed>0.040000</speed>
</trkpt>
<trkpt lat="55.900227" lon="26.529064">
<ele>116.626038</ele>
<time>2010-06-20T15:28:51Z</time>
<desc>lat.=55.900227, lon.=26.529064, Alt.=116.626038m. Speed=0.900000m/h.</desc>
<speed>0.250000</speed>
</trkpt>
<trkpt lat="55.900230" lon="26.529062">
<ele>116.614319</ele>
<time>2010-06-20T15:28:52Z</time>
<desc>lat.=55.900230, lon.=26.529062, Alt.=116.614319m. Speed=0.288000m/h.</desc>
<speed>0.080000</speed>
</trkpt>
<trkpt lat="55.900230" lon="26.529064">
<ele>116.612366</ele>
<time>2010-06-20T15:28:53Z</time>
<desc>lat.=55.900230, lon.=26.529064, Alt.=116.612366m. Speed=0.108000m/h.</desc>
<speed>0.030000</speed>
</trkpt>
<trkpt lat="55.900230" lon="26.529064">
<ele>116.606506</ele>
<time>2010-06-20T15:28:54Z</time>
<desc>lat.=55.900230, lon.=26.529064, Alt.=116.606506m. Speed=0.180000m/h.</desc>
<speed>0.050000</speed>
</trkpt>
<trkpt lat="55.900230" lon="26.529064">
<ele>116.604553</ele>
<time>2010-06-20T15:28:55Z</time>
<desc>lat.=55.900230, lon.=26.529064, Alt.=116.604553m. Speed=0.432000m/h.</desc>
<speed>0.120000</speed>
</trkpt>
<trkpt lat="55.900230" lon="26.529062">
<ele>116.596741</ele>
<time>2010-06-20T15:28:56Z</time>
<desc>lat.=55.900230, lon.=26.529062, Alt.=116.596741m. Speed=0.684000m/h.</desc>
<speed>0.190000</speed>
</trkpt>
<trkpt lat="55.900230" lon="26.529060">
<ele>116.588928</ele>
<time>2010-06-20T15:28:57Z</time>
<desc>lat.=55.900230, lon.=26.529060, Alt.=116.588928m. Speed=1.116000m/h.</desc>
<speed>0.310000</speed>
</trkpt>
<trkpt lat="55.900234" lon="26.529064">
<ele>116.497131</ele>
<time>2010-06-20T15:28:58Z</time>
<desc>lat.=55.900234, lon.=26.529064, Alt.=116.497131m. Speed=0.756000m/h.</desc>
<speed>0.210000</speed>
</trkpt>
<trkpt lat="55.900234" lon="26.529079">
<ele>116.186584</ele>
<time>2010-06-20T15:28:59Z</time>
<desc>lat.=55.900234, lon.=26.529079, Alt.=116.186584m. Speed=0.720000m/h.</desc>
<speed>0.200000</speed>
</trkpt>
<trkpt lat="55.900234" lon="26.529102">
<ele>116.163147</ele>
<time>2010-06-20T15:29:00Z</time>
<desc>lat.=55.900234, lon.=26.529102, Alt.=116.163147m. Speed=1.620000m/h.</desc>
<speed>0.450000</speed>
</trkpt>
<trkpt lat="55.900234" lon="26.529112">
<ele>116.165100</ele>
<time>2010-06-20T15:29:01Z</time>
<desc>lat.=55.900234, lon.=26.529112, Alt.=116.165100m. Speed=1.512000m/h.</desc>
<speed>0.420000</speed>
</trkpt>
<trkpt lat="55.900238" lon="26.529116">
<ele>116.182678</ele>
<time>2010-06-20T15:29:02Z</time>
<desc>lat.=55.900238, lon.=26.529116, Alt.=116.182678m. Speed=1.440000m/h.</desc>
<speed>0.400000</speed>
</trkpt>
<trkpt lat="55.900234" lon="26.529127">
<ele>116.200256</ele>
<time>2010-06-20T15:29:03Z</time>
<desc>lat.=55.900234, lon.=26.529127, Alt.=116.200256m. Speed=1.548000m/h.</desc>
<speed>0.430000</speed>
</trkpt>
<trkpt lat="55.900227" lon="26.529152">
<ele>116.213928</ele>
<time>2010-06-20T15:29:04Z</time>
<desc>lat.=55.900227, lon.=26.529152, Alt.=116.213928m. Speed=2.232000m/h.</desc>
<speed>0.620000</speed>
</trkpt>
<trkpt lat="55.900227" lon="26.529167">
<ele>116.210022</ele>
<time>2010-06-20T15:29:05Z</time>
<desc>lat.=55.900227, lon.=26.529167, Alt.=116.210022m. Speed=2.340000m/h.</desc>
<speed>0.650000</speed>
</trkpt>
<trkpt lat="55.900215" lon="26.529182">
<ele>116.202209</ele>
<time>2010-06-20T15:29:06Z</time>
<desc>lat.=55.900215, lon.=26.529182, Alt.=116.202209m. Speed=2.484000m/h.</desc>
<speed>0.690000</speed>
</trkpt>
<trkpt lat="55.900208" lon="26.529209">
<ele>116.178772</ele>
<time>2010-06-20T15:29:07Z</time>
<desc>lat.=55.900208, lon.=26.529209, Alt.=116.178772m. Speed=3.240000m/h.</desc>
<speed>0.900000</speed>
</trkpt>
<trkpt lat="55.900204" lon="26.529222">
<ele>116.096741</ele>
<time>2010-06-20T15:29:08Z</time>
<desc>lat.=55.900204, lon.=26.529222, Alt.=116.096741m. Speed=3.492000m/h.</desc>
<speed>0.970000</speed>
</trkpt>
<trkpt lat="55.900208" lon="26.529226">
<ele>116.053772</ele>
<time>2010-06-20T15:29:09Z</time>
<desc>lat.=55.900208, lon.=26.529226, Alt.=116.053772m. Speed=2.952000m/h.</desc>
<speed>0.820000</speed>
</trkpt>
<trkpt lat="55.900208" lon="26.529240">
<ele>116.044006</ele>
<time>2010-06-20T15:29:10Z</time>
<desc>lat.=55.900208, lon.=26.529240, Alt.=116.044006m. Speed=2.700000m/h.</desc>
<speed>0.750000</speed>
</trkpt>
<trkpt lat="55.900204" lon="26.529251">
<ele>116.032288</ele>
<time>2010-06-20T15:29:11Z</time>
<desc>lat.=55.900204, lon.=26.529251, Alt.=116.032288m. Speed=2.340000m/h.</desc>
<speed>0.650000</speed>
</trkpt>
<trkpt lat="55.900208" lon="26.529222">
<ele>116.094788</ele>
<time>2010-06-20T15:29:12Z</time>
<desc>lat.=55.900208, lon.=26.529222, Alt.=116.094788m. Speed=0.720000m/h.</desc>
<speed>0.200000</speed>
</trkpt>
<trkpt lat="55.900208" lon="26.529209">
<ele>116.083069</ele>
<time>2010-06-20T15:29:13Z</time>
<desc>lat.=55.900208, lon.=26.529209, Alt.=116.083069m. Speed=0.180000m/h.</desc>
<speed>0.050000</speed>
</trkpt>
<trkpt lat="55.900200" lon="26.529215">
<ele>116.034241</ele>
<time>2010-06-20T15:29:14Z</time>
<desc>lat.=55.900200, lon.=26.529215, Alt.=116.034241m. Speed=0.648000m/h.</desc>
<speed>0.180000</speed>
</trkpt>
<trkpt lat="55.900192" lon="26.529228">
<ele>116.006897</ele>
<time>2010-06-20T15:29:15Z</time>
<desc>lat.=55.900192, lon.=26.529228, Alt.=116.006897m. Speed=0.936000m/h.</desc>
<speed>0.260000</speed>
</trkpt>
<trkpt lat="55.900192" lon="26.529230">
<ele>115.999084</ele>
<time>2010-06-20T15:29:16Z</time>
<desc>lat.=55.900192, lon.=26.529230, Alt.=115.999084m. Speed=0.900000m/h.</desc>
<speed>0.250000</speed>
</trkpt>
<trkpt lat="55.900188" lon="26.529232">
<ele>115.993225</ele>
<time>2010-06-20T15:29:17Z</time>
<desc>lat.=55.900188, lon.=26.529232, Alt.=115.993225m. Speed=0.648000m/h.</desc>
<speed>0.180000</speed>
</trkpt>
<trkpt lat="55.900188" lon="26.529232">
<ele>115.987366</ele>
<time>2010-06-20T15:29:18Z</time>
<desc>lat.=55.900188, lon.=26.529232, Alt.=115.987366m. Speed=0.324000m/h.</desc>
<speed>0.090000</speed>
</trkpt>
<trkpt lat="55.900188" lon="26.529234">
<ele>115.983459</ele>
<time>2010-06-20T15:29:19Z</time>
<desc>lat.=55.900188, lon.=26.529234, Alt.=115.983459m. Speed=1.980000m/h.</desc>
<speed>0.550000</speed>
</trkpt>
<trkpt lat="55.900173" lon="26.529253">
<ele>115.981506</ele>
<time>2010-06-20T15:29:20Z</time>
<desc>lat.=55.900173, lon.=26.529253, Alt.=115.981506m. Speed=2.520000m/h.</desc>
<speed>0.700000</speed>
</trkpt>
<trkpt lat="55.900169" lon="26.529274">
<ele>115.975647</ele>
<time>2010-06-20T15:29:21Z</time>
<desc>lat.=55.900169, lon.=26.529274, Alt.=115.975647m. Speed=2.556000m/h.</desc>
<speed>0.710000</speed>
</trkpt>
<trkpt lat="55.900162" lon="26.529303">
<ele>115.989319</ele>
<time>2010-06-20T15:29:22Z</time>
<desc>lat.=55.900162, lon.=26.529303, Alt.=115.989319m. Speed=3.276000m/h.</desc>
<speed>0.910000</speed>
</trkpt>
<trkpt lat="55.900162" lon="26.529314">
<ele>116.001038</ele>
<time>2010-06-20T15:29:23Z</time>
<desc>lat.=55.900162, lon.=26.529314, Alt.=116.001038m. Speed=3.060000m/h.</desc>
<speed>0.850000</speed>
</trkpt>
<trkpt lat="55.900158" lon="26.529306">
<ele>116.018616</ele>
<time>2010-06-20T15:29:24Z</time>
<desc>lat.=55.900158, lon.=26.529306, Alt.=116.018616m. Speed=2.412000m/h.</desc>
<speed>0.670000</speed>
</trkpt>
<trkpt lat="55.900158" lon="26.529289">
<ele>116.073303</ele>
<time>2010-06-20T15:29:25Z</time>
<desc>lat.=55.900158, lon.=26.529289, Alt.=116.073303m. Speed=1.836000m/h.</desc>
<speed>0.510000</speed>
</trkpt>
<trkpt lat="55.900154" lon="26.529293">
<ele>116.071350</ele>
<time>2010-06-20T15:29:26Z</time>
<desc>lat.=55.900154, lon.=26.529293, Alt.=116.071350m. Speed=1.944000m/h.</desc>
<speed>0.540000</speed>
</trkpt>
<trkpt lat="55.900154" lon="26.529320">
<ele>116.051819</ele>
<time>2010-06-20T15:29:27Z</time>
<desc>lat.=55.900154, lon.=26.529320, Alt.=116.051819m. Speed=1.944000m/h.</desc>
<speed>0.540000</speed>
</trkpt>
<trkpt lat="55.900162" lon="26.529339">
<ele>116.040100</ele>
<time>2010-06-20T15:29:28Z</time>
<desc>lat.=55.900162, lon.=26.529339, Alt.=116.040100m. Speed=1.944000m/h.</desc>
<speed>0.540000</speed>
</trkpt>
<trkpt lat="55.900158" lon="26.529346">
<ele>116.038147</ele>
<time>2010-06-20T15:29:29Z</time>
<desc>lat.=55.900158, lon.=26.529346, Alt.=116.038147m. Speed=2.196000m/h.</desc>
<speed>0.610000</speed>
</trkpt>
<trkpt lat="55.900162" lon="26.529331">
<ele>116.102600</ele>
<time>2010-06-20T15:29:30Z</time>
<desc>lat.=55.900162, lon.=26.529331, Alt.=116.102600m. Speed=2.016000m/h.</desc>
<speed>0.560000</speed>
</trkpt>
<trkpt lat="55.900162" lon="26.529322">
<ele>116.098694</ele>
<time>2010-06-20T15:29:31Z</time>
<desc>lat.=55.900162, lon.=26.529322, Alt.=116.098694m. Speed=1.476000m/h.</desc>
<speed>0.410000</speed>
</trkpt>
<trkpt lat="55.900166" lon="26.529322">
<ele>116.077209</ele>
<time>2010-06-20T15:29:32Z</time>
<desc>lat.=55.900166, lon.=26.529322, Alt.=116.077209m. Speed=1.152000m/h.</desc>
<speed>0.320000</speed>
</trkpt>
<trkpt lat="55.900169" lon="26.529325">
<ele>116.061584</ele>
<time>2010-06-20T15:29:33Z</time>
<desc>lat.=55.900169, lon.=26.529325, Alt.=116.061584m. Speed=0.756000m/h.</desc>
<speed>0.210000</speed>
</trkpt>
<trkpt lat="55.900166" lon="26.529343">
<ele>115.979553</ele>
<time>2010-06-20T15:29:34Z</time>
<desc>lat.=55.900166, lon.=26.529343, Alt.=115.979553m. Speed=1.800000m/h.</desc>
<speed>0.500000</speed>
</trkpt>
<trkpt lat="55.900162" lon="26.529354">
<ele>116.004944</ele>
<time>2010-06-20T15:29:35Z</time>
<desc>lat.=55.900162, lon.=26.529354, Alt.=116.004944m. Speed=2.160000m/h.</desc>
<speed>0.600000</speed>
</trkpt>
<trkpt lat="55.900169" lon="26.529354">
<ele>116.020569</ele>
<time>2010-06-20T15:29:36Z</time>
<desc>lat.=55.900169, lon.=26.529354, Alt.=116.020569m. Speed=1.116000m/h.</desc>
<speed>0.310000</speed>
</trkpt>
<trkpt lat="55.900169" lon="26.529356">
<ele>116.024475</ele>
<time>2010-06-20T15:29:37Z</time>
<desc>lat.=55.900169, lon.=26.529356, Alt.=116.024475m. Speed=0.936000m/h.</desc>
<speed>0.260000</speed>
</trkpt>
<trkpt lat="55.900166" lon="26.529366">
<ele>116.038147</ele>
<time>2010-06-20T15:29:38Z</time>
<desc>lat.=55.900166, lon.=26.529366, Alt.=116.038147m. Speed=1.404000m/h.</desc>
<speed>0.390000</speed>
</trkpt>
<trkpt lat="55.900158" lon="26.529371">
<ele>116.049866</ele>
<time>2010-06-20T15:29:39Z</time>
<desc>lat.=55.900158, lon.=26.529371, Alt.=116.049866m. Speed=2.268000m/h.</desc>
<speed>0.630000</speed>
</trkpt>
<trkpt lat="55.900150" lon="26.529364">
<ele>116.057678</ele>
<time>2010-06-20T15:29:40Z</time>
<desc>lat.=55.900150, lon.=26.529364, Alt.=116.057678m. Speed=2.268000m/h.</desc>
<speed>0.630000</speed>
</trkpt>
<trkpt lat="55.900150" lon="26.529337">
<ele>116.057678</ele>
<time>2010-06-20T15:29:41Z</time>
<desc>lat.=55.900150, lon.=26.529337, Alt.=116.057678m. Speed=1.548000m/h.</desc>
<speed>0.430000</speed>
</trkpt>
<trkpt lat="55.900154" lon="26.529324">
<ele>116.040100</ele>
<time>2010-06-20T15:29:42Z</time>
<desc>lat.=55.900154, lon.=26.529324, Alt.=116.040100m. Speed=0.900000m/h.</desc>
<speed>0.250000</speed>
</trkpt>
<trkpt lat="55.900158" lon="26.529322">
<ele>116.026428</ele>
<time>2010-06-20T15:29:43Z</time>
<desc>lat.=55.900158, lon.=26.529322, Alt.=116.026428m. Speed=0.252000m/h.</desc>
<speed>0.070000</speed>
</trkpt>
<trkpt lat="55.900166" lon="26.529335">
<ele>116.256897</ele>
<time>2010-06-20T15:29:44Z</time>
<desc>lat.=55.900166, lon.=26.529335, Alt.=116.256897m. Speed=1.260000m/h.</desc>
<speed>0.350000</speed>
</trkpt>
<trkpt lat="55.900166" lon="26.529345">
<ele>116.241272</ele>
<time>2010-06-20T15:29:45Z</time>
<desc>lat.=55.900166, lon.=26.529345, Alt.=116.241272m. Speed=1.116000m/h.</desc>
<speed>0.310000</speed>
</trkpt>
<trkpt lat="55.900173" lon="26.529352">
<ele>116.219788</ele>
<time>2010-06-20T15:29:46Z</time>
<desc>lat.=55.900173, lon.=26.529352, Alt.=116.219788m. Speed=1.440000m/h.</desc>
<speed>0.400000</speed>
</trkpt>
<trkpt lat="55.900173" lon="26.529337">
<ele>116.221741</ele>
<time>2010-06-20T15:29:47Z</time>
<desc>lat.=55.900173, lon.=26.529337, Alt.=116.221741m. Speed=0.504000m/h.</desc>
<speed>0.140000</speed>
</trkpt>
<trkpt lat="55.900177" lon="26.529324">
<ele>116.352600</ele>
<time>2010-06-20T15:29:48Z</time>
<desc>lat.=55.900177, lon.=26.529324, Alt.=116.352600m. Speed=0.144000m/h.</desc>
<speed>0.040000</speed>
</trkpt>
<trkpt lat="55.900173" lon="26.529333">
<ele>116.354553</ele>
<time>2010-06-20T15:29:49Z</time>
<desc>lat.=55.900173, lon.=26.529333, Alt.=116.354553m. Speed=1.116000m/h.</desc>
<speed>0.310000</speed>
</trkpt>
<trkpt lat="55.900173" lon="26.529322">
<ele>116.401428</ele>
<time>2010-06-20T15:29:50Z</time>
<desc>lat.=55.900173, lon.=26.529322, Alt.=116.401428m. Speed=1.944000m/h.</desc>
<speed>0.540000</speed>
</trkpt>
<trkpt lat="55.900173" lon="26.529314">
<ele>116.446350</ele>
<time>2010-06-20T15:29:51Z</time>
<desc>lat.=55.900173, lon.=26.529314, Alt.=116.446350m. Speed=1.728000m/h.</desc>
<speed>0.480000</speed>
</trkpt>
<trkpt lat="55.900181" lon="26.529310">
<ele>116.469788</ele>
<time>2010-06-20T15:29:52Z</time>
<desc>lat.=55.900181, lon.=26.529310, Alt.=116.469788m. Speed=0.972000m/h.</desc>
<speed>0.270000</speed>
</trkpt>
<trkpt lat="55.900181" lon="26.529305">
<ele>116.497131</ele>
<time>2010-06-20T15:29:53Z</time>
<desc>lat.=55.900181, lon.=26.529305, Alt.=116.497131m. Speed=0.540000m/h.</desc>
<speed>0.150000</speed>
</trkpt>
<trkpt lat="55.900181" lon="26.529293">
<ele>116.502991</ele>
<time>2010-06-20T15:29:54Z</time>
<desc>lat.=55.900181, lon.=26.529293, Alt.=116.502991m. Speed=0.792000m/h.</desc>
<speed>0.220000</speed>
</trkpt>
<trkpt lat="55.900181" lon="26.529305">
<ele>116.502991</ele>
<time>2010-06-20T15:29:55Z</time>
<desc>lat.=55.900181, lon.=26.529305, Alt.=116.502991m. Speed=1.080000m/h.</desc>
<speed>0.300000</speed>
</trkpt>
<trkpt lat="55.900173" lon="26.529343">
<ele>116.487366</ele>
<time>2010-06-20T15:29:56Z</time>
<desc>lat.=55.900173, lon.=26.529343, Alt.=116.487366m. Speed=2.628000m/h.</desc>
<speed>0.730000</speed>
</trkpt>
<trkpt lat="55.900166" lon="26.529350">
<ele>116.489319</ele>
<time>2010-06-20T15:29:57Z</time>
<desc>lat.=55.900166, lon.=26.529350, Alt.=116.489319m. Speed=2.340000m/h.</desc>
<speed>0.650000</speed>
</trkpt>
<trkpt lat="55.900169" lon="26.529343">
<ele>116.495178</ele>
<time>2010-06-20T15:29:58Z</time>
<desc>lat.=55.900169, lon.=26.529343, Alt.=116.495178m. Speed=1.692000m/h.</desc>
<speed>0.470000</speed>
</trkpt>
<trkpt lat="55.900166" lon="26.529348">
<ele>116.495178</ele>
<time>2010-06-20T15:29:59Z</time>
<desc>lat.=55.900166, lon.=26.529348, Alt.=116.495178m. Speed=1.908000m/h.</desc>
<speed>0.530000</speed>
</trkpt>
<trkpt lat="55.900173" lon="26.529364">
<ele>116.502991</ele>
<time>2010-06-20T15:30:00Z</time>
<desc>lat.=55.900173, lon.=26.529364, Alt.=116.502991m. Speed=2.160000m/h.</desc>
<speed>0.600000</speed>
</trkpt>
<trkpt lat="55.900173" lon="26.529373">
<ele>116.504944</ele>
<time>2010-06-20T15:30:01Z</time>
<desc>lat.=55.900173, lon.=26.529373, Alt.=116.504944m. Speed=2.376000m/h.</desc>
<speed>0.660000</speed>
</trkpt>
<trkpt lat="55.900177" lon="26.529341">
<ele>116.467834</ele>
<time>2010-06-20T15:30:02Z</time>
<desc>lat.=55.900177, lon.=26.529341, Alt.=116.467834m. Speed=1.260000m/h.</desc>
<speed>0.350000</speed>
</trkpt>
<trkpt lat="55.900177" lon="26.529305">
<ele>116.424866</ele>
<time>2010-06-20T15:30:03Z</time>
<desc>lat.=55.900177, lon.=26.529305, Alt.=116.424866m. Speed=1.188000m/h.</desc>
<speed>0.330000</speed>
</trkpt>
<trkpt lat="55.900181" lon="26.529329">
<ele>116.399475</ele>
<time>2010-06-20T15:30:04Z</time>
<desc>lat.=55.900181, lon.=26.529329, Alt.=116.399475m. Speed=1.008000m/h.</desc>
<speed>0.280000</speed>
</trkpt>
<trkpt lat="55.900188" lon="26.529320">
<ele>116.424866</ele>
<time>2010-06-20T15:30:05Z</time>
<desc>lat.=55.900188, lon.=26.529320, Alt.=116.424866m. Speed=0.864000m/h.</desc>
<speed>0.240000</speed>
</trkpt>
<trkpt lat="55.900192" lon="26.529308">
<ele>116.424866</ele>
<time>2010-06-20T15:30:06Z</time>
<desc>lat.=55.900192, lon.=26.529308, Alt.=116.424866m. Speed=0.612000m/h.</desc>
<speed>0.170000</speed>
</trkpt>
<trkpt lat="55.900192" lon="26.529301">
<ele>116.395569</ele>
<time>2010-06-20T15:30:07Z</time>
<desc>lat.=55.900192, lon.=26.529301, Alt.=116.395569m. Speed=0.792000m/h.</desc>
<speed>0.220000</speed>
</trkpt>
<trkpt lat="55.900192" lon="26.529303">
<ele>116.395569</ele>
<time>2010-06-20T15:30:08Z</time>
<desc>lat.=55.900192, lon.=26.529303, Alt.=116.395569m. Speed=1.224000m/h.</desc>
<speed>0.340000</speed>
</trkpt>
<trkpt lat="55.900192" lon="26.529266">
<ele>116.393616</ele>
<time>2010-06-20T15:30:09Z</time>
<desc>lat.=55.900192, lon.=26.529266, Alt.=116.393616m. Speed=1.476000m/h.</desc>
<speed>0.410000</speed>
</trkpt>
<trkpt lat="55.900185" lon="26.529245">
<ele>116.446350</ele>
<time>2010-06-20T15:30:10Z</time>
<desc>lat.=55.900185, lon.=26.529245, Alt.=116.446350m. Speed=2.052000m/h.</desc>
<speed>0.570000</speed>
</trkpt>
<trkpt lat="55.900185" lon="26.529209">
<ele>116.487366</ele>
<time>2010-06-20T15:30:11Z</time>
<desc>lat.=55.900185, lon.=26.529209, Alt.=116.487366m. Speed=2.304000m/h.</desc>
<speed>0.640000</speed>
</trkpt>
<trkpt lat="55.900196" lon="26.529181">
<ele>116.516663</ele>
<time>2010-06-20T15:30:12Z</time>
<desc>lat.=55.900196, lon.=26.529181, Alt.=116.516663m. Speed=1.728000m/h.</desc>
<speed>0.480000</speed>
</trkpt>
<trkpt lat="55.900200" lon="26.529179">
<ele>116.598694</ele>
<time>2010-06-20T15:30:13Z</time>
<desc>lat.=55.900200, lon.=26.529179, Alt.=116.598694m. Speed=0.936000m/h.</desc>
<speed>0.260000</speed>
</trkpt>
<trkpt lat="55.900204" lon="26.529161">
<ele>116.643616</ele>
<time>2010-06-20T15:30:14Z</time>
<desc>lat.=55.900204, lon.=26.529161, Alt.=116.643616m. Speed=1.044000m/h.</desc>
<speed>0.290000</speed>
</trkpt>
<trkpt lat="55.900211" lon="26.529144">
<ele>116.762756</ele>
<time>2010-06-20T15:30:15Z</time>
<desc>lat.=55.900211, lon.=26.529144, Alt.=116.762756m. Speed=0.936000m/h.</desc>
<speed>0.260000</speed>
</trkpt>
<trkpt lat="55.900215" lon="26.529135">
<ele>116.790100</ele>
<time>2010-06-20T15:30:16Z</time>
<desc>lat.=55.900215, lon.=26.529135, Alt.=116.790100m. Speed=0.972000m/h.</desc>
<speed>0.270000</speed>
</trkpt>
<trkpt lat="55.900215" lon="26.529129">
<ele>116.790100</ele>
<time>2010-06-20T15:30:17Z</time>
<desc>lat.=55.900215, lon.=26.529129, Alt.=116.790100m. Speed=1.260000m/h.</desc>
<speed>0.350000</speed>
</trkpt>
<trkpt lat="55.900219" lon="26.529114">
<ele>116.848694</ele>
<time>2010-06-20T15:30:18Z</time>
<desc>lat.=55.900219, lon.=26.529114, Alt.=116.848694m. Speed=0.684000m/h.</desc>
<speed>0.190000</speed>
</trkpt>
<trkpt lat="55.900219" lon="26.529095">
<ele>116.868225</ele>
<time>2010-06-20T15:30:19Z</time>
<desc>lat.=55.900219, lon.=26.529095, Alt.=116.868225m. Speed=0.684000m/h.</desc>
<speed>0.190000</speed>
</trkpt>
<trkpt lat="55.900219" lon="26.529074">
<ele>116.919006</ele>
<time>2010-06-20T15:30:20Z</time>
<desc>lat.=55.900219, lon.=26.529074, Alt.=116.919006m. Speed=0.792000m/h.</desc>
<speed>0.220000</speed>
</trkpt>
<trkpt lat="55.900219" lon="26.529058">
<ele>116.926819</ele>
<time>2010-06-20T15:30:21Z</time>
<desc>lat.=55.900219, lon.=26.529058, Alt.=116.926819m. Speed=0.648000m/h.</desc>
<speed>0.180000</speed>
</trkpt>
<trkpt lat="55.900219" lon="26.529057">
<ele>116.922913</ele>
<time>2010-06-20T15:30:22Z</time>
<desc>lat.=55.900219, lon.=26.529057, Alt.=116.922913m. Speed=0.396000m/h.</desc>
<speed>0.110000</speed>
</trkpt>
<trkpt lat="55.900219" lon="26.529057">
<ele>116.922913</ele>
<time>2010-06-20T15:30:23Z</time>
<desc>lat.=55.900219, lon.=26.529057, Alt.=116.922913m. Speed=0.504000m/h.</desc>
<speed>0.140000</speed>
</trkpt>
<trkpt lat="55.900219" lon="26.529057">
<ele>116.922913</ele>
<time>2010-06-20T15:30:24Z</time>
<desc>lat.=55.900219, lon.=26.529057, Alt.=116.922913m. Speed=0.288000m/h.</desc>
<speed>0.080000</speed>
</trkpt>
<trkpt lat="55.900219" lon="26.529057">
<ele>116.922913</ele>
<time>2010-06-20T15:30:25Z</time>
<desc>lat.=55.900219, lon.=26.529057, Alt.=116.922913m. Speed=0.324000m/h.</desc>
<speed>0.090000</speed>
</trkpt>
<trkpt lat="55.900223" lon="26.529055">
<ele>116.924866</ele>
<time>2010-06-20T15:30:26Z</time>
<desc>lat.=55.900223, lon.=26.529055, Alt.=116.924866m. Speed=0.288000m/h.</desc>
<speed>0.080000</speed>
</trkpt>
<trkpt lat="55.900223" lon="26.529055">
<ele>116.926819</ele>
<time>2010-06-20T15:30:27Z</time>
<desc>lat.=55.900223, lon.=26.529055, Alt.=116.926819m. Speed=0.144000m/h.</desc>
<speed>0.040000</speed>
</trkpt>
<trkpt lat="55.900223" lon="26.529053">
<ele>116.928772</ele>
<time>2010-06-20T15:30:28Z</time>
<desc>lat.=55.900223, lon.=26.529053, Alt.=116.928772m. Speed=1.404000m/h.</desc>
<speed>0.390000</speed>
</trkpt>
<trkpt lat="55.900223" lon="26.529034">
<ele>116.961975</ele>
<time>2010-06-20T15:30:29Z</time>
<desc>lat.=55.900223, lon.=26.529034, Alt.=116.961975m. Speed=1.080000m/h.</desc>
<speed>0.300000</speed>
</trkpt>
<trkpt lat="55.900227" lon="26.529013">
<ele>117.006897</ele>
<time>2010-06-20T15:30:30Z</time>
<desc>lat.=55.900227, lon.=26.529013, Alt.=117.006897m. Speed=1.368000m/h.</desc>
<speed>0.380000</speed>
</trkpt>
<trkpt lat="55.900230" lon="26.529001">
<ele>117.057678</ele>
<time>2010-06-20T15:30:31Z</time>
<desc>lat.=55.900230, lon.=26.529001, Alt.=117.057678m. Speed=1.296000m/h.</desc>
<speed>0.360000</speed>
</trkpt>
<trkpt lat="55.900227" lon="26.528980">
<ele>117.126038</ele>
<time>2010-06-20T15:30:32Z</time>
<desc>lat.=55.900227, lon.=26.528980, Alt.=117.126038m. Speed=0.900000m/h.</desc>
<speed>0.250000</speed>
</trkpt>
<trkpt lat="55.900227" lon="26.528957">
<ele>117.286194</ele>
<time>2010-06-20T15:30:33Z</time>
<desc>lat.=55.900227, lon.=26.528957, Alt.=117.286194m. Speed=1.368000m/h.</desc>
<speed>0.380000</speed>
</trkpt>
<trkpt lat="55.900227" lon="26.528948">
<ele>117.333069</ele>
<time>2010-06-20T15:30:34Z</time>
<desc>lat.=55.900227, lon.=26.528948, Alt.=117.333069m. Speed=0.684000m/h.</desc>
<speed>0.190000</speed>
</trkpt>
<trkpt lat="55.900223" lon="26.528940">
<ele>117.381897</ele>
<time>2010-06-20T15:30:35Z</time>
<desc>lat.=55.900223, lon.=26.528940, Alt.=117.381897m. Speed=0.612000m/h.</desc>
<speed>0.170000</speed>
</trkpt>
<trkpt lat="55.900215" lon="26.528917">
<ele>117.362366</ele>
<time>2010-06-20T15:30:36Z</time>
<desc>lat.=55.900215, lon.=26.528917, Alt.=117.362366m. Speed=1.440000m/h.</desc>
<speed>0.400000</speed>
</trkpt>
<trkpt lat="55.900219" lon="26.528889">
<ele>117.387756</ele>
<time>2010-06-20T15:30:37Z</time>
<desc>lat.=55.900219, lon.=26.528889, Alt.=117.387756m. Speed=1.296000m/h.</desc>
<speed>0.360000</speed>
</trkpt>
<trkpt lat="55.900215" lon="26.528883">
<ele>117.426819</ele>
<time>2010-06-20T15:30:38Z</time>
<desc>lat.=55.900215, lon.=26.528883, Alt.=117.426819m. Speed=0.792000m/h.</desc>
<speed>0.220000</speed>
</trkpt>
<trkpt lat="55.900215" lon="26.528868">
<ele>117.463928</ele>
<time>2010-06-20T15:30:39Z</time>
<desc>lat.=55.900215, lon.=26.528868, Alt.=117.463928m. Speed=0.612000m/h.</desc>
<speed>0.170000</speed>
</trkpt>
<trkpt lat="55.900215" lon="26.528856">
<ele>117.497131</ele>
<time>2010-06-20T15:30:40Z</time>
<desc>lat.=55.900215, lon.=26.528856, Alt.=117.497131m. Speed=0.792000m/h.</desc>
<speed>0.220000</speed>
</trkpt>
<trkpt lat="55.900219" lon="26.528847">
<ele>117.493225</ele>
<time>2010-06-20T15:30:41Z</time>
<desc>lat.=55.900219, lon.=26.528847, Alt.=117.493225m. Speed=0.216000m/h.</desc>
<speed>0.060000</speed>
</trkpt>
<trkpt lat="55.900219" lon="26.528845">
<ele>117.489319</ele>
<time>2010-06-20T15:30:42Z</time>
<desc>lat.=55.900219, lon.=26.528845, Alt.=117.489319m. Speed=0.756000m/h.</desc>
<speed>0.210000</speed>
</trkpt>
<trkpt lat="55.900219" lon="26.528841">
<ele>117.487366</ele>
<time>2010-06-20T15:30:43Z</time>
<desc>lat.=55.900219, lon.=26.528841, Alt.=117.487366m. Speed=0.648000m/h.</desc>
<speed>0.180000</speed>
</trkpt>
<trkpt lat="55.900219" lon="26.528839">
<ele>117.485413</ele>
<time>2010-06-20T15:30:44Z</time>
<desc>lat.=55.900219, lon.=26.528839, Alt.=117.485413m. Speed=0.792000m/h.</desc>
<speed>0.220000</speed>
</trkpt>
<trkpt lat="55.900219" lon="26.528835">
<ele>117.483459</ele>
<time>2010-06-20T15:30:45Z</time>
<desc>lat.=55.900219, lon.=26.528835, Alt.=117.483459m. Speed=0.864000m/h.</desc>
<speed>0.240000</speed>
</trkpt>
<trkpt lat="55.900219" lon="26.528831">
<ele>117.483459</ele>
<time>2010-06-20T15:30:46Z</time>
<desc>lat.=55.900219, lon.=26.528831, Alt.=117.483459m. Speed=0.504000m/h.</desc>
<speed>0.140000</speed>
</trkpt>
<trkpt lat="55.900219" lon="26.528830">
<ele>117.485413</ele>
<time>2010-06-20T15:30:47Z</time>
<desc>lat.=55.900219, lon.=26.528830, Alt.=117.485413m. Speed=0.756000m/h.</desc>
<speed>0.210000</speed>
</trkpt>
<trkpt lat="55.900219" lon="26.528828">
<ele>117.485413</ele>
<time>2010-06-20T15:30:48Z</time>
<desc>lat.=55.900219, lon.=26.528828, Alt.=117.485413m. Speed=0.792000m/h.</desc>
<speed>0.220000</speed>
</trkpt>
<trkpt lat="55.900219" lon="26.528826">
<ele>117.485413</ele>
<time>2010-06-20T15:30:49Z</time>
<desc>lat.=55.900219, lon.=26.528826, Alt.=117.485413m. Speed=0.180000m/h.</desc>
<speed>0.050000</speed>
</trkpt>
<trkpt lat="55.900219" lon="26.528826">
<ele>117.485413</ele>
<time>2010-06-20T15:30:50Z</time>
<desc>lat.=55.900219, lon.=26.528826, Alt.=117.485413m. Speed=0.540000m/h.</desc>
<speed>0.150000</speed>
</trkpt>
<trkpt lat="55.900219" lon="26.528828">
<ele>117.481506</ele>
<time>2010-06-20T15:30:51Z</time>
<desc>lat.=55.900219, lon.=26.528828, Alt.=117.481506m. Speed=0.576000m/h.</desc>
<speed>0.160000</speed>
</trkpt>
<trkpt lat="55.900219" lon="26.528831">
<ele>117.479553</ele>
<time>2010-06-20T15:30:52Z</time>
<desc>lat.=55.900219, lon.=26.528831, Alt.=117.479553m. Speed=0.576000m/h.</desc>
<speed>0.160000</speed>
</trkpt>
<trkpt lat="55.900219" lon="26.528833">
<ele>117.475647</ele>
<time>2010-06-20T15:30:53Z</time>
<desc>lat.=55.900219, lon.=26.528833, Alt.=117.475647m. Speed=0.540000m/h.</desc>
<speed>0.150000</speed>
</trkpt>
<trkpt lat="55.900219" lon="26.528835">
<ele>117.471741</ele>
<time>2010-06-20T15:30:54Z</time>
<desc>lat.=55.900219, lon.=26.528835, Alt.=117.471741m. Speed=0.432000m/h.</desc>
<speed>0.120000</speed>
</trkpt>
<trkpt lat="55.900219" lon="26.528837">
<ele>117.465881</ele>
<time>2010-06-20T15:30:55Z</time>
<desc>lat.=55.900219, lon.=26.528837, Alt.=117.465881m. Speed=0.288000m/h.</desc>
<speed>0.080000</speed>
</trkpt>
<trkpt lat="55.900219" lon="26.528837">
<ele>117.461975</ele>
<time>2010-06-20T15:30:56Z</time>
<desc>lat.=55.900219, lon.=26.528837, Alt.=117.461975m. Speed=0.072000m/h.</desc>
<speed>0.020000</speed>
</trkpt>
<trkpt lat="55.900219" lon="26.528837">
<ele>117.456116</ele>
<time>2010-06-20T15:30:57Z</time>
<desc>lat.=55.900219, lon.=26.528837, Alt.=117.456116m. Speed=0.360000m/h.</desc>
<speed>0.100000</speed>
</trkpt>
<trkpt lat="55.900219" lon="26.528835">
<ele>117.450256</ele>
<time>2010-06-20T15:30:58Z</time>
<desc>lat.=55.900219, lon.=26.528835, Alt.=117.450256m. Speed=0.324000m/h.</desc>
<speed>0.090000</speed>
</trkpt>
<trkpt lat="55.900219" lon="26.528833">
<ele>117.446350</ele>
<time>2010-06-20T15:30:59Z</time>
<desc>lat.=55.900219, lon.=26.528833, Alt.=117.446350m. Speed=0.684000m/h.</desc>
<speed>0.190000</speed>
</trkpt>
<trkpt lat="55.900219" lon="26.528831">
<ele>117.440491</ele>
<time>2010-06-20T15:31:00Z</time>
<desc>lat.=55.900219, lon.=26.528831, Alt.=117.440491m. Speed=0.720000m/h.</desc>
<speed>0.200000</speed>
</trkpt>
<trkpt lat="55.900219" lon="26.528828">
<ele>117.434631</ele>
<time>2010-06-20T15:31:01Z</time>
<desc>lat.=55.900219, lon.=26.528828, Alt.=117.434631m. Speed=1.080000m/h.</desc>
<speed>0.300000</speed>
</trkpt>
<trkpt lat="55.900219" lon="26.528818">
<ele>117.350647</ele>
<time>2010-06-20T15:31:02Z</time>
<desc>lat.=55.900219, lon.=26.528818, Alt.=117.350647m. Speed=1.332000m/h.</desc>
<speed>0.370000</speed>
</trkpt>
<trkpt lat="55.900219" lon="26.528818">
<ele>117.374084</ele>
<time>2010-06-20T15:31:03Z</time>
<desc>lat.=55.900219, lon.=26.528818, Alt.=117.374084m. Speed=1.080000m/h.</desc>
<speed>0.300000</speed>
</trkpt>
<trkpt lat="55.900227" lon="26.528814">
<ele>117.356506</ele>
<time>2010-06-20T15:31:04Z</time>
<desc>lat.=55.900227, lon.=26.528814, Alt.=117.356506m. Speed=1.008000m/h.</desc>
<speed>0.280000</speed>
</trkpt>
<trkpt lat="55.900230" lon="26.528816">
<ele>117.294006</ele>
<time>2010-06-20T15:31:05Z</time>
<desc>lat.=55.900230, lon.=26.528816, Alt.=117.294006m. Speed=0.792000m/h.</desc>
<speed>0.220000</speed>
</trkpt>
<trkpt lat="55.900238" lon="26.528801">
<ele>117.256897</ele>
<time>2010-06-20T15:31:06Z</time>
<desc>lat.=55.900238, lon.=26.528801, Alt.=117.256897m. Speed=0.972000m/h.</desc>
<speed>0.270000</speed>
</trkpt>
<trkpt lat="55.900246" lon="26.528791">
<ele>117.233459</ele>
<time>2010-06-20T15:31:07Z</time>
<desc>lat.=55.900246, lon.=26.528791, Alt.=117.233459m. Speed=1.584000m/h.</desc>
<speed>0.440000</speed>
</trkpt>
<trkpt lat="55.900246" lon="26.528788">
<ele>117.221741</ele>
<time>2010-06-20T15:31:08Z</time>
<desc>lat.=55.900246, lon.=26.528788, Alt.=117.221741m. Speed=1.080000m/h.</desc>
<speed>0.300000</speed>
</trkpt>
<trkpt lat="55.900249" lon="26.528790">
<ele>117.186584</ele>
<time>2010-06-20T15:31:09Z</time>
<desc>lat.=55.900249, lon.=26.528790, Alt.=117.186584m. Speed=1.044000m/h.</desc>
<speed>0.290000</speed>
</trkpt>
<trkpt lat="55.900257" lon="26.528793">
<ele>117.155334</ele>
<time>2010-06-20T15:31:10Z</time>
<desc>lat.=55.900257, lon.=26.528793, Alt.=117.155334m. Speed=0.900000m/h.</desc>
<speed>0.250000</speed>
</trkpt>
<trkpt lat="55.900257" lon="26.528797">
<ele>117.094788</ele>
<time>2010-06-20T15:31:11Z</time>
<desc>lat.=55.900257, lon.=26.528797, Alt.=117.094788m. Speed=0.684000m/h.</desc>
<speed>0.190000</speed>
</trkpt>
<trkpt lat="55.900257" lon="26.528811">
<ele>116.977600</ele>
<time>2010-06-20T15:31:12Z</time>
<desc>lat.=55.900257, lon.=26.528811, Alt.=116.977600m. Speed=0.216000m/h.</desc>
<speed>0.060000</speed>
</trkpt>
<trkpt lat="55.900257" lon="26.528811">
<ele>116.973694</ele>
<time>2010-06-20T15:31:13Z</time>
<desc>lat.=55.900257, lon.=26.528811, Alt.=116.973694m. Speed=0.720000m/h.</desc>
<speed>0.200000</speed>
</trkpt>
<trkpt lat="55.900261" lon="26.528811">
<ele>116.969788</ele>
<time>2010-06-20T15:31:14Z</time>
<desc>lat.=55.900261, lon.=26.528811, Alt.=116.969788m. Speed=0.828000m/h.</desc>
<speed>0.230000</speed>
</trkpt>
<trkpt lat="55.900261" lon="26.528811">
<ele>116.963928</ele>
<time>2010-06-20T15:31:15Z</time>
<desc>lat.=55.900261, lon.=26.528811, Alt.=116.963928m. Speed=0.612000m/h.</desc>
<speed>0.170000</speed>
</trkpt>
<trkpt lat="55.900265" lon="26.528811">
<ele>116.956116</ele>
<time>2010-06-20T15:31:16Z</time>
<desc>lat.=55.900265, lon.=26.528811, Alt.=116.956116m. Speed=0.432000m/h.</desc>
<speed>0.120000</speed>
</trkpt>
<trkpt lat="55.900265" lon="26.528809">
<ele>116.948303</ele>
<time>2010-06-20T15:31:17Z</time>
<desc>lat.=55.900265, lon.=26.528809, Alt.=116.948303m. Speed=0.000000m/h.</desc>
<speed>0.000000</speed>
</trkpt>
<trkpt lat="55.900265" lon="26.528809">
<ele>116.938538</ele>
<time>2010-06-20T15:31:18Z</time>
<desc>lat.=55.900265, lon.=26.528809, Alt.=116.938538m. Speed=0.612000m/h.</desc>
<speed>0.170000</speed>
</trkpt>
<trkpt lat="55.900265" lon="26.528812">
<ele>116.932678</ele>
<time>2010-06-20T15:31:19Z</time>
<desc>lat.=55.900265, lon.=26.528812, Alt.=116.932678m. Speed=0.900000m/h.</desc>
<speed>0.250000</speed>
</trkpt>
<trkpt lat="55.900261" lon="26.528814">
<ele>116.924866</ele>
<time>2010-06-20T15:31:20Z</time>
<desc>lat.=55.900261, lon.=26.528814, Alt.=116.924866m. Speed=0.864000m/h.</desc>
<speed>0.240000</speed>
</trkpt>
<trkpt lat="55.900261" lon="26.528820">
<ele>116.917053</ele>
<time>2010-06-20T15:31:21Z</time>
<desc>lat.=55.900261, lon.=26.528820, Alt.=116.917053m. Speed=0.540000m/h.</desc>
<speed>0.150000</speed>
</trkpt>
<trkpt lat="55.900261" lon="26.528822">
<ele>116.909241</ele>
<time>2010-06-20T15:31:22Z</time>
<desc>lat.=55.900261, lon.=26.528822, Alt.=116.909241m. Speed=0.576000m/h.</desc>
<speed>0.160000</speed>
</trkpt>
<trkpt lat="55.900261" lon="26.528824">
<ele>116.903381</ele>
<time>2010-06-20T15:31:23Z</time>
<desc>lat.=55.900261, lon.=26.528824, Alt.=116.903381m. Speed=0.648000m/h.</desc>
<speed>0.180000</speed>
</trkpt>
<trkpt lat="55.900261" lon="26.528828">
<ele>116.897522</ele>
<time>2010-06-20T15:31:24Z</time>
<desc>lat.=55.900261, lon.=26.528828, Alt.=116.897522m. Speed=0.828000m/h.</desc>
<speed>0.230000</speed>
</trkpt>
<trkpt lat="55.900261" lon="26.528828">
<ele>116.895569</ele>
<time>2010-06-20T15:31:25Z</time>
<desc>lat.=55.900261, lon.=26.528828, Alt.=116.895569m. Speed=0.504000m/h.</desc>
<speed>0.140000</speed>
</trkpt>
<trkpt lat="55.900257" lon="26.528830">
<ele>116.895569</ele>
<time>2010-06-20T15:31:26Z</time>
<desc>lat.=55.900257, lon.=26.528830, Alt.=116.895569m. Speed=0.180000m/h.</desc>
<speed>0.050000</speed>
</trkpt>
<trkpt lat="55.900257" lon="26.528830">
<ele>116.895569</ele>
<time>2010-06-20T15:31:27Z</time>
<desc>lat.=55.900257, lon.=26.528830, Alt.=116.895569m. Speed=0.324000m/h.</desc>
<speed>0.090000</speed>
</trkpt>
<trkpt lat="55.900257" lon="26.528830">
<ele>116.893616</ele>
<time>2010-06-20T15:31:28Z</time>
<desc>lat.=55.900257, lon.=26.528830, Alt.=116.893616m. Speed=0.756000m/h.</desc>
<speed>0.210000</speed>
</trkpt>
<trkpt lat="55.900261" lon="26.528830">
<ele>116.885803</ele>
<time>2010-06-20T15:31:29Z</time>
<desc>lat.=55.900261, lon.=26.528830, Alt.=116.885803m. Speed=0.648000m/h.</desc>
<speed>0.180000</speed>
</trkpt>
<trkpt lat="55.900257" lon="26.528831">
<ele>116.883850</ele>
<time>2010-06-20T15:31:30Z</time>
<desc>lat.=55.900257, lon.=26.528831, Alt.=116.883850m. Speed=1.008000m/h.</desc>
<speed>0.280000</speed>
</trkpt>
<trkpt lat="55.900257" lon="26.528837">
<ele>116.881897</ele>
<time>2010-06-20T15:31:31Z</time>
<desc>lat.=55.900257, lon.=26.528837, Alt.=116.881897m. Speed=1.440000m/h.</desc>
<speed>0.400000</speed>
</trkpt>
<trkpt lat="55.900261" lon="26.528873">
<ele>116.868225</ele>
<time>2010-06-20T15:31:32Z</time>
<desc>lat.=55.900261, lon.=26.528873, Alt.=116.868225m. Speed=1.764000m/h.</desc>
<speed>0.490000</speed>
</trkpt>
<trkpt lat="55.900261" lon="26.528915">
<ele>116.749084</ele>
<time>2010-06-20T15:31:33Z</time>
<desc>lat.=55.900261, lon.=26.528915, Alt.=116.749084m. Speed=1.944000m/h.</desc>
<speed>0.540000</speed>
</trkpt>
<trkpt lat="55.900249" lon="26.528950">
<ele>116.698303</ele>
<time>2010-06-20T15:31:34Z</time>
<desc>lat.=55.900249, lon.=26.528950, Alt.=116.698303m. Speed=2.376000m/h.</desc>
<speed>0.660000</speed>
</trkpt>
<trkpt lat="55.900249" lon="26.528963">
<ele>116.706116</ele>
<time>2010-06-20T15:31:35Z</time>
<desc>lat.=55.900249, lon.=26.528963, Alt.=116.706116m. Speed=2.052000m/h.</desc>
<speed>0.570000</speed>
</trkpt>
<trkpt lat="55.900238" lon="26.528967">
<ele>116.727600</ele>
<time>2010-06-20T15:31:36Z</time>
<desc>lat.=55.900238, lon.=26.528967, Alt.=116.727600m. Speed=2.556000m/h.</desc>
<speed>0.710000</speed>
</trkpt>
<trkpt lat="55.900234" lon="26.528980">
<ele>116.760803</ele>
<time>2010-06-20T15:31:37Z</time>
<desc>lat.=55.900234, lon.=26.528980, Alt.=116.760803m. Speed=2.448000m/h.</desc>
<speed>0.680000</speed>
</trkpt>
<trkpt lat="55.900234" lon="26.528999">
<ele>116.813538</ele>
<time>2010-06-20T15:31:38Z</time>
<desc>lat.=55.900234, lon.=26.528999, Alt.=116.813538m. Speed=2.376000m/h.</desc>
<speed>0.660000</speed>
</trkpt>
<trkpt lat="55.900223" lon="26.529015">
<ele>116.960022</ele>
<time>2010-06-20T15:31:39Z</time>
<desc>lat.=55.900223, lon.=26.529015, Alt.=116.960022m. Speed=3.600000m/h.</desc>
<speed>1.000000</speed>
</trkpt>
<trkpt lat="55.900208" lon="26.529011">
<ele>117.042053</ele>
<time>2010-06-20T15:31:40Z</time>
<desc>lat.=55.900208, lon.=26.529011, Alt.=117.042053m. Speed=3.816000m/h.</desc>
<speed>1.060000</speed>
</trkpt>
<trkpt lat="55.900196" lon="26.529045">
<ele>117.108459</ele>
<time>2010-06-20T15:31:41Z</time>
<desc>lat.=55.900196, lon.=26.529045, Alt.=117.108459m. Speed=4.932000m/h.</desc>
<speed>1.370000</speed>
</trkpt>
<trkpt lat="55.900192" lon="26.529062">
<ele>117.231506</ele>
<time>2010-06-20T15:31:42Z</time>
<desc>lat.=55.900192, lon.=26.529062, Alt.=117.231506m. Speed=4.428000m/h.</desc>
<speed>1.230000</speed>
</trkpt>
<trkpt lat="55.900192" lon="26.529070">
<ele>117.415100</ele>
<time>2010-06-20T15:31:43Z</time>
<desc>lat.=55.900192, lon.=26.529070, Alt.=117.415100m. Speed=3.708000m/h.</desc>
<speed>1.030000</speed>
</trkpt>
<trkpt lat="55.900185" lon="26.529091">
<ele>117.538147</ele>
<time>2010-06-20T15:31:44Z</time>
<desc>lat.=55.900185, lon.=26.529091, Alt.=117.538147m. Speed=3.564000m/h.</desc>
<speed>0.990000</speed>
</trkpt>
<trkpt lat="55.900188" lon="26.529099">
<ele>117.715881</ele>
<time>2010-06-20T15:31:45Z</time>
<desc>lat.=55.900188, lon.=26.529099, Alt.=117.715881m. Speed=2.556000m/h.</desc>
<speed>0.710000</speed>
</trkpt>
<trkpt lat="55.900185" lon="26.529119">
<ele>117.860413</ele>
<time>2010-06-20T15:31:46Z</time>
<desc>lat.=55.900185, lon.=26.529119, Alt.=117.860413m. Speed=2.520000m/h.</desc>
<speed>0.700000</speed>
</trkpt>
<trkpt lat="55.900185" lon="26.529108">
<ele>118.040100</ele>
<time>2010-06-20T15:31:47Z</time>
<desc>lat.=55.900185, lon.=26.529108, Alt.=118.040100m. Speed=1.656000m/h.</desc>
<speed>0.460000</speed>
</trkpt>
<trkpt lat="55.900188" lon="26.529110">
<ele>118.188538</ele>
<time>2010-06-20T15:31:48Z</time>
<desc>lat.=55.900188, lon.=26.529110, Alt.=118.188538m. Speed=0.828000m/h.</desc>
<speed>0.230000</speed>
</trkpt>
<trkpt lat="55.900185" lon="26.529123">
<ele>118.223694</ele>
<time>2010-06-20T15:31:49Z</time>
<desc>lat.=55.900185, lon.=26.529123, Alt.=118.223694m. Speed=1.620000m/h.</desc>
<speed>0.450000</speed>
</trkpt>
<trkpt lat="55.900188" lon="26.529121">
<ele>118.288147</ele>
<time>2010-06-20T15:31:50Z</time>
<desc>lat.=55.900188, lon.=26.529121, Alt.=118.288147m. Speed=1.368000m/h.</desc>
<speed>0.380000</speed>
</trkpt>
<trkpt lat="55.900192" lon="26.529112">
<ele>118.413147</ele>
<time>2010-06-20T15:31:51Z</time>
<desc>lat.=55.900192, lon.=26.529112, Alt.=118.413147m. Speed=0.900000m/h.</desc>
<speed>0.250000</speed>
</trkpt>
<trkpt lat="55.900192" lon="26.529102">
<ele>118.520569</ele>
<time>2010-06-20T15:31:52Z</time>
<desc>lat.=55.900192, lon.=26.529102, Alt.=118.520569m. Speed=0.792000m/h.</desc>
<speed>0.220000</speed>
</trkpt>
<trkpt lat="55.900188" lon="26.529099">
<ele>118.643616</ele>
<time>2010-06-20T15:31:53Z</time>
<desc>lat.=55.900188, lon.=26.529099, Alt.=118.643616m. Speed=1.620000m/h.</desc>
<speed>0.450000</speed>
</trkpt>
<trkpt lat="55.900185" lon="26.529104">
<ele>118.733459</ele>
<time>2010-06-20T15:31:54Z</time>
<desc>lat.=55.900185, lon.=26.529104, Alt.=118.733459m. Speed=1.836000m/h.</desc>
<speed>0.510000</speed>
</trkpt>
<trkpt lat="55.900181" lon="26.529085">
<ele>118.825256</ele>
<time>2010-06-20T15:31:55Z</time>
<desc>lat.=55.900181, lon.=26.529085, Alt.=118.825256m. Speed=1.404000m/h.</desc>
<speed>0.390000</speed>
</trkpt>
<trkpt lat="55.900185" lon="26.529081">
<ele>118.926819</ele>
<time>2010-06-20T15:31:56Z</time>
<desc>lat.=55.900185, lon.=26.529081, Alt.=118.926819m. Speed=0.756000m/h.</desc>
<speed>0.210000</speed>
</trkpt>
<trkpt lat="55.900188" lon="26.529072">
<ele>118.979553</ele>
<time>2010-06-20T15:31:57Z</time>
<desc>lat.=55.900188, lon.=26.529072, Alt.=118.979553m. Speed=0.540000m/h.</desc>
<speed>0.150000</speed>
</trkpt>
<trkpt lat="55.900188" lon="26.529060">
<ele>119.098694</ele>
<time>2010-06-20T15:31:58Z</time>
<desc>lat.=55.900188, lon.=26.529060, Alt.=119.098694m. Speed=0.504000m/h.</desc>
<speed>0.140000</speed>
</trkpt>
<trkpt lat="55.900192" lon="26.529043">
<ele>119.280334</ele>
<time>2010-06-20T15:31:59Z</time>
<desc>lat.=55.900192, lon.=26.529043, Alt.=119.280334m. Speed=0.828000m/h.</desc>
<speed>0.230000</speed>
</trkpt>
<trkpt lat="55.900192" lon="26.529039">
<ele>119.290100</ele>
<time>2010-06-20T15:32:00Z</time>
<desc>lat.=55.900192, lon.=26.529039, Alt.=119.290100m. Speed=0.828000m/h.</desc>
<speed>0.230000</speed>
</trkpt>
<trkpt lat="55.900188" lon="26.529039">
<ele>119.295959</ele>
<time>2010-06-20T15:32:01Z</time>
<desc>lat.=55.900188, lon.=26.529039, Alt.=119.295959m. Speed=0.468000m/h.</desc>
<speed>0.130000</speed>
</trkpt>
<trkpt lat="55.900188" lon="26.529037">
<ele>119.301819</ele>
<time>2010-06-20T15:32:02Z</time>
<desc>lat.=55.900188, lon.=26.529037, Alt.=119.301819m. Speed=0.396000m/h.</desc>
<speed>0.110000</speed>
</trkpt>
<trkpt lat="55.900188" lon="26.529036">
<ele>119.307678</ele>
<time>2010-06-20T15:32:03Z</time>
<desc>lat.=55.900188, lon.=26.529036, Alt.=119.307678m. Speed=0.540000m/h.</desc>
<speed>0.150000</speed>
</trkpt>
<trkpt lat="55.900188" lon="26.529034">
<ele>119.315491</ele>
<time>2010-06-20T15:32:04Z</time>
<desc>lat.=55.900188, lon.=26.529034, Alt.=119.315491m. Speed=0.828000m/h.</desc>
<speed>0.230000</speed>
</trkpt>
<trkpt lat="55.900192" lon="26.529032">
<ele>119.319397</ele>
<time>2010-06-20T15:32:05Z</time>
<desc>lat.=55.900192, lon.=26.529032, Alt.=119.319397m. Speed=0.540000m/h.</desc>
<speed>0.150000</speed>
</trkpt>
<trkpt lat="55.900192" lon="26.529030">
<ele>119.325256</ele>
<time>2010-06-20T15:32:06Z</time>
<desc>lat.=55.900192, lon.=26.529030, Alt.=119.325256m. Speed=1.404000m/h.</desc>
<speed>0.390000</speed>
</trkpt>
<trkpt lat="55.900200" lon="26.529034">
<ele>119.405334</ele>
<time>2010-06-20T15:32:07Z</time>
<desc>lat.=55.900200, lon.=26.529034, Alt.=119.405334m. Speed=1.296000m/h.</desc>
<speed>0.360000</speed>
</trkpt>
<trkpt lat="55.900200" lon="26.529032">
<ele>119.430725</ele>
<time>2010-06-20T15:32:08Z</time>
<desc>lat.=55.900200, lon.=26.529032, Alt.=119.430725m. Speed=0.900000m/h.</desc>
<speed>0.250000</speed>
</trkpt>
<trkpt lat="55.900200" lon="26.529022">
<ele>119.506897</ele>
<time>2010-06-20T15:32:09Z</time>
<desc>lat.=55.900200, lon.=26.529022, Alt.=119.506897m. Speed=0.720000m/h.</desc>
<speed>0.200000</speed>
</trkpt>
<trkpt lat="55.900204" lon="26.529005">
<ele>119.659241</ele>
<time>2010-06-20T15:32:10Z</time>
<desc>lat.=55.900204, lon.=26.529005, Alt.=119.659241m. Speed=1.116000m/h.</desc>
<speed>0.310000</speed>
</trkpt>
<trkpt lat="55.900208" lon="26.529007">
<ele>119.725647</ele>
<time>2010-06-20T15:32:11Z</time>
<desc>lat.=55.900208, lon.=26.529007, Alt.=119.725647m. Speed=0.900000m/h.</desc>
<speed>0.250000</speed>
</trkpt>
<trkpt lat="55.900211" lon="26.529011">
<ele>119.756897</ele>
<time>2010-06-20T15:32:12Z</time>
<desc>lat.=55.900211, lon.=26.529011, Alt.=119.756897m. Speed=1.404000m/h.</desc>
<speed>0.390000</speed>
</trkpt>
<trkpt lat="55.900215" lon="26.529013">
<ele>119.862366</ele>
<time>2010-06-20T15:32:13Z</time>
<desc>lat.=55.900215, lon.=26.529013, Alt.=119.862366m. Speed=1.404000m/h.</desc>
<speed>0.390000</speed>
</trkpt>
<trkpt lat="55.900211" lon="26.529016">
<ele>119.944397</ele>
<time>2010-06-20T15:32:14Z</time>
<desc>lat.=55.900211, lon.=26.529016, Alt.=119.944397m. Speed=0.684000m/h.</desc>
<speed>0.190000</speed>
</trkpt>
<trkpt lat="55.900204" lon="26.529020">
<ele>120.016663</ele>
<time>2010-06-20T15:32:15Z</time>
<desc>lat.=55.900204, lon.=26.529020, Alt.=120.016663m. Speed=0.432000m/h.</desc>
<speed>0.120000</speed>
</trkpt>
<trkpt lat="55.900200" lon="26.529013">
<ele>120.020569</ele>
<time>2010-06-20T15:32:16Z</time>
<desc>lat.=55.900200, lon.=26.529013, Alt.=120.020569m. Speed=0.504000m/h.</desc>
<speed>0.140000</speed>
</trkpt>
<trkpt lat="55.900196" lon="26.529018">
<ele>120.008850</ele>
<time>2010-06-20T15:32:17Z</time>
<desc>lat.=55.900196, lon.=26.529018, Alt.=120.008850m. Speed=0.756000m/h.</desc>
<speed>0.210000</speed>
</trkpt>
<trkpt lat="55.900196" lon="26.529020">
<ele>120.010803</ele>
<time>2010-06-20T15:32:18Z</time>
<desc>lat.=55.900196, lon.=26.529020, Alt.=120.010803m. Speed=0.900000m/h.</desc>
<speed>0.250000</speed>
</trkpt>
<trkpt lat="55.900196" lon="26.529022">
<ele>120.010803</ele>
<time>2010-06-20T15:32:19Z</time>
<desc>lat.=55.900196, lon.=26.529022, Alt.=120.010803m. Speed=0.432000m/h.</desc>
<speed>0.120000</speed>
</trkpt>
<trkpt lat="55.900192" lon="26.529024">
<ele>120.010803</ele>
<time>2010-06-20T15:32:20Z</time>
<desc>lat.=55.900192, lon.=26.529024, Alt.=120.010803m. Speed=0.756000m/h.</desc>
<speed>0.210000</speed>
</trkpt>
<trkpt lat="55.900192" lon="26.529028">
<ele>120.010803</ele>
<time>2010-06-20T15:32:21Z</time>
<desc>lat.=55.900192, lon.=26.529028, Alt.=120.010803m. Speed=0.864000m/h.</desc>
<speed>0.240000</speed>
</trkpt>
<trkpt lat="55.900196" lon="26.529030">
<ele>120.010803</ele>
<time>2010-06-20T15:32:22Z</time>
<desc>lat.=55.900196, lon.=26.529030, Alt.=120.010803m. Speed=0.540000m/h.</desc>
<speed>0.150000</speed>
</trkpt>
<trkpt lat="55.900196" lon="26.529032">
<ele>120.012756</ele>
<time>2010-06-20T15:32:23Z</time>
<desc>lat.=55.900196, lon.=26.529032, Alt.=120.012756m. Speed=0.252000m/h.</desc>
<speed>0.070000</speed>
</trkpt>
<trkpt lat="55.900196" lon="26.529032">
<ele>120.012756</ele>
<time>2010-06-20T15:32:24Z</time>
<desc>lat.=55.900196, lon.=26.529032, Alt.=120.012756m. Speed=0.720000m/h.</desc>
<speed>0.200000</speed>
</trkpt>
<trkpt lat="55.900200" lon="26.529030">
<ele>120.012756</ele>
<time>2010-06-20T15:32:25Z</time>
<desc>lat.=55.900200, lon.=26.529030, Alt.=120.012756m. Speed=1.008000m/h.</desc>
<speed>0.280000</speed>
</trkpt>
<trkpt lat="55.900200" lon="26.529028">
<ele>120.012756</ele>
<time>2010-06-20T15:32:26Z</time>
<desc>lat.=55.900200, lon.=26.529028, Alt.=120.012756m. Speed=1.116000m/h.</desc>
<speed>0.310000</speed>
</trkpt>
<trkpt lat="55.900208" lon="26.529028">
<ele>120.020569</ele>
<time>2010-06-20T15:32:27Z</time>
<desc>lat.=55.900208, lon.=26.529028, Alt.=120.020569m. Speed=1.116000m/h.</desc>
<speed>0.310000</speed>
</trkpt>
<trkpt lat="55.900223" lon="26.529013">
<ele>120.047913</ele>
<time>2010-06-20T15:32:28Z</time>
<desc>lat.=55.900223, lon.=26.529013, Alt.=120.047913m. Speed=1.872000m/h.</desc>
<speed>0.520000</speed>
</trkpt>
<trkpt lat="55.900230" lon="26.528999">
<ele>120.063538</ele>
<time>2010-06-20T15:32:29Z</time>
<desc>lat.=55.900230, lon.=26.528999, Alt.=120.063538m. Speed=2.016000m/h.</desc>
<speed>0.560000</speed>
</trkpt>
<trkpt lat="55.900234" lon="26.528990">
<ele>120.096741</ele>
<time>2010-06-20T15:32:30Z</time>
<desc>lat.=55.900234, lon.=26.528990, Alt.=120.096741m. Speed=1.800000m/h.</desc>
<speed>0.500000</speed>
</trkpt>
<trkpt lat="55.900230" lon="26.528980">
<ele>120.141663</ele>
<time>2010-06-20T15:32:31Z</time>
<desc>lat.=55.900230, lon.=26.528980, Alt.=120.141663m. Speed=1.368000m/h.</desc>
<speed>0.380000</speed>
</trkpt>
<trkpt lat="55.900227" lon="26.528986">
<ele>120.157288</ele>
<time>2010-06-20T15:32:32Z</time>
<desc>lat.=55.900227, lon.=26.528986, Alt.=120.157288m. Speed=0.432000m/h.</desc>
<speed>0.120000</speed>
</trkpt>
<trkpt lat="55.900223" lon="26.528986">
<ele>120.190491</ele>
<time>2010-06-20T15:32:33Z</time>
<desc>lat.=55.900223, lon.=26.528986, Alt.=120.190491m. Speed=0.468000m/h.</desc>
<speed>0.130000</speed>
</trkpt>
<trkpt lat="55.900223" lon="26.528999">
<ele>120.190491</ele>
<time>2010-06-20T15:32:34Z</time>
<desc>lat.=55.900223, lon.=26.528999, Alt.=120.190491m. Speed=0.000000m/h.</desc>
<speed>0.000000</speed>
</trkpt>
<trkpt lat="55.900223" lon="26.529015">
<ele>120.161194</ele>
<time>2010-06-20T15:32:35Z</time>
<desc>lat.=55.900223, lon.=26.529015, Alt.=120.161194m. Speed=0.396000m/h.</desc>
<speed>0.110000</speed>
</trkpt>
<trkpt lat="55.900223" lon="26.529016">
<ele>120.163147</ele>
<time>2010-06-20T15:32:36Z</time>
<desc>lat.=55.900223, lon.=26.529016, Alt.=120.163147m. Speed=0.504000m/h.</desc>
<speed>0.140000</speed>
</trkpt>
<trkpt lat="55.900223" lon="26.529018">
<ele>120.165100</ele>
<time>2010-06-20T15:32:37Z</time>
<desc>lat.=55.900223, lon.=26.529018, Alt.=120.165100m. Speed=0.468000m/h.</desc>
<speed>0.130000</speed>
</trkpt>
<trkpt lat="55.900223" lon="26.529020">
<ele>120.167053</ele>
<time>2010-06-20T15:32:38Z</time>
<desc>lat.=55.900223, lon.=26.529020, Alt.=120.167053m. Speed=0.396000m/h.</desc>
<speed>0.110000</speed>
</trkpt>
<trkpt lat="55.900223" lon="26.529022">
<ele>120.169006</ele>
<time>2010-06-20T15:32:39Z</time>
<desc>lat.=55.900223, lon.=26.529022, Alt.=120.169006m. Speed=0.324000m/h.</desc>
<speed>0.090000</speed>
</trkpt>
<trkpt lat="55.900223" lon="26.529024">
<ele>120.170959</ele>
<time>2010-06-20T15:32:40Z</time>
<desc>lat.=55.900223, lon.=26.529024, Alt.=120.170959m. Speed=0.468000m/h.</desc>
<speed>0.130000</speed>
</trkpt>
<trkpt lat="55.900223" lon="26.529026">
<ele>120.170959</ele>
<time>2010-06-20T15:32:41Z</time>
<desc>lat.=55.900223, lon.=26.529026, Alt.=120.170959m. Speed=0.900000m/h.</desc>
<speed>0.250000</speed>
</trkpt>
<trkpt lat="55.900223" lon="26.529026">
<ele>120.169006</ele>
<time>2010-06-20T15:32:42Z</time>
<desc>lat.=55.900223, lon.=26.529026, Alt.=120.169006m. Speed=0.648000m/h.</desc>
<speed>0.180000</speed>
</trkpt>
<trkpt lat="55.900227" lon="26.529024">
<ele>120.169006</ele>
<time>2010-06-20T15:32:43Z</time>
<desc>lat.=55.900227, lon.=26.529024, Alt.=120.169006m. Speed=0.684000m/h.</desc>
<speed>0.190000</speed>
</trkpt>
<trkpt lat="55.900227" lon="26.529022">
<ele>120.169006</ele>
<time>2010-06-20T15:32:44Z</time>
<desc>lat.=55.900227, lon.=26.529022, Alt.=120.169006m. Speed=0.324000m/h.</desc>
<speed>0.090000</speed>
</trkpt>
<trkpt lat="55.900227" lon="26.529022">
<ele>120.169006</ele>
<time>2010-06-20T15:32:45Z</time>
<desc>lat.=55.900227, lon.=26.529022, Alt.=120.169006m. Speed=0.396000m/h.</desc>
<speed>0.110000</speed>
</trkpt>
<trkpt lat="55.900227" lon="26.529020">
<ele>120.169006</ele>
<time>2010-06-20T15:32:46Z</time>
<desc>lat.=55.900227, lon.=26.529020, Alt.=120.169006m. Speed=0.288000m/h.</desc>
<speed>0.080000</speed>
</trkpt>
<trkpt lat="55.900227" lon="26.529018">
<ele>120.167053</ele>
<time>2010-06-20T15:32:47Z</time>
<desc>lat.=55.900227, lon.=26.529018, Alt.=120.167053m. Speed=0.072000m/h.</desc>
<speed>0.020000</speed>
</trkpt>
<trkpt lat="55.900227" lon="26.529018">
<ele>120.165100</ele>
<time>2010-06-20T15:32:48Z</time>
<desc>lat.=55.900227, lon.=26.529018, Alt.=120.165100m. Speed=0.720000m/h.</desc>
<speed>0.200000</speed>
</trkpt>
<trkpt lat="55.900230" lon="26.529020">
<ele>120.165100</ele>
<time>2010-06-20T15:32:49Z</time>
<desc>lat.=55.900230, lon.=26.529020, Alt.=120.165100m. Speed=0.252000m/h.</desc>
<speed>0.070000</speed>
</trkpt>
<trkpt lat="55.900230" lon="26.529020">
<ele>120.165100</ele>
<time>2010-06-20T15:32:50Z</time>
<desc>lat.=55.900230, lon.=26.529020, Alt.=120.165100m. Speed=0.504000m/h.</desc>
<speed>0.140000</speed>
</trkpt>
<trkpt lat="55.900227" lon="26.529020">
<ele>120.163147</ele>
<time>2010-06-20T15:32:51Z</time>
<desc>lat.=55.900227, lon.=26.529020, Alt.=120.163147m. Speed=0.648000m/h.</desc>
<speed>0.180000</speed>
</trkpt>
<trkpt lat="55.900227" lon="26.529020">
<ele>120.163147</ele>
<time>2010-06-20T15:32:52Z</time>
<desc>lat.=55.900227, lon.=26.529020, Alt.=120.163147m. Speed=1.368000m/h.</desc>
<speed>0.380000</speed>
</trkpt>
<trkpt lat="55.900234" lon="26.529016">
<ele>120.139709</ele>
<time>2010-06-20T15:32:53Z</time>
<desc>lat.=55.900234, lon.=26.529016, Alt.=120.139709m. Speed=0.900000m/h.</desc>
<speed>0.250000</speed>
</trkpt>
<trkpt lat="55.900242" lon="26.529024">
<ele>120.260803</ele>
<time>2010-06-20T15:32:54Z</time>
<desc>lat.=55.900242, lon.=26.529024, Alt.=120.260803m. Speed=0.324000m/h.</desc>
<speed>0.090000</speed>
</trkpt>
<trkpt lat="55.900246" lon="26.529024">
<ele>120.155334</ele>
<time>2010-06-20T15:32:55Z</time>
<desc>lat.=55.900246, lon.=26.529024, Alt.=120.155334m. Speed=0.252000m/h.</desc>
<speed>0.070000</speed>
</trkpt>
<trkpt lat="55.900249" lon="26.529026">
<ele>120.055725</ele>
<time>2010-06-20T15:32:56Z</time>
<desc>lat.=55.900249, lon.=26.529026, Alt.=120.055725m. Speed=0.288000m/h.</desc>
<speed>0.080000</speed>
</trkpt>
<trkpt lat="55.900249" lon="26.529028">
<ele>120.053772</ele>
<time>2010-06-20T15:32:57Z</time>
<desc>lat.=55.900249, lon.=26.529028, Alt.=120.053772m. Speed=0.720000m/h.</desc>
<speed>0.200000</speed>
</trkpt>
<trkpt lat="55.900246" lon="26.529028">
<ele>120.051819</ele>
<time>2010-06-20T15:32:58Z</time>
<desc>lat.=55.900246, lon.=26.529028, Alt.=120.051819m. Speed=0.468000m/h.</desc>
<speed>0.130000</speed>
</trkpt>
<trkpt lat="55.900246" lon="26.529026">
<ele>120.047913</ele>
<time>2010-06-20T15:32:59Z</time>
<desc>lat.=55.900246, lon.=26.529026, Alt.=120.047913m. Speed=0.108000m/h.</desc>
<speed>0.030000</speed>
</trkpt>
<trkpt lat="55.900246" lon="26.529026">
<ele>120.045959</ele>
<time>2010-06-20T15:33:00Z</time>
<desc>lat.=55.900246, lon.=26.529026, Alt.=120.045959m. Speed=0.396000m/h.</desc>
<speed>0.110000</speed>
</trkpt>
<trkpt lat="55.900246" lon="26.529024">
<ele>120.044006</ele>
<time>2010-06-20T15:33:01Z</time>
<desc>lat.=55.900246, lon.=26.529024, Alt.=120.044006m. Speed=1.476000m/h.</desc>
<speed>0.410000</speed>
</trkpt>
<trkpt lat="55.900238" lon="26.529018">
<ele>119.958069</ele>
<time>2010-06-20T15:33:02Z</time>
<desc>lat.=55.900238, lon.=26.529018, Alt.=119.958069m. Speed=1.980000m/h.</desc>
<speed>0.550000</speed>
</trkpt>
<trkpt lat="55.900238" lon="26.529018">
<ele>119.848694</ele>
<time>2010-06-20T15:33:03Z</time>
<desc>lat.=55.900238, lon.=26.529018, Alt.=119.848694m. Speed=1.620000m/h.</desc>
<speed>0.450000</speed>
</trkpt>
<trkpt lat="55.900242" lon="26.529005">
<ele>119.803772</ele>
<time>2010-06-20T15:33:04Z</time>
<desc>lat.=55.900242, lon.=26.529005, Alt.=119.803772m. Speed=1.584000m/h.</desc>
<speed>0.440000</speed>
</trkpt>
<trkpt lat="55.900242" lon="26.529003">
<ele>119.719788</ele>
<time>2010-06-20T15:33:05Z</time>
<desc>lat.=55.900242, lon.=26.529003, Alt.=119.719788m. Speed=1.296000m/h.</desc>
<speed>0.360000</speed>
</trkpt>
<trkpt lat="55.900234" lon="26.528997">
<ele>119.672913</ele>
<time>2010-06-20T15:33:06Z</time>
<desc>lat.=55.900234, lon.=26.528997, Alt.=119.672913m. Speed=1.440000m/h.</desc>
<speed>0.400000</speed>
</trkpt>
<trkpt lat="55.900234" lon="26.529007">
<ele>119.532288</ele>
<time>2010-06-20T15:33:07Z</time>
<desc>lat.=55.900234, lon.=26.529007, Alt.=119.532288m. Speed=0.540000m/h.</desc>
<speed>0.150000</speed>
</trkpt>
<trkpt lat="55.900234" lon="26.529001">
<ele>119.424866</ele>
<time>2010-06-20T15:33:08Z</time>
<desc>lat.=55.900234, lon.=26.529001, Alt.=119.424866m. Speed=0.612000m/h.</desc>
<speed>0.170000</speed>
</trkpt>
<trkpt lat="55.900238" lon="26.529007">
<ele>119.311584</ele>
<time>2010-06-20T15:33:09Z</time>
<desc>lat.=55.900238, lon.=26.529007, Alt.=119.311584m. Speed=0.108000m/h.</desc>
<speed>0.030000</speed>
</trkpt>
<trkpt lat="55.900238" lon="26.529009">
<ele>119.223694</ele>
<time>2010-06-20T15:33:10Z</time>
<desc>lat.=55.900238, lon.=26.529009, Alt.=119.223694m. Speed=0.504000m/h.</desc>
<speed>0.140000</speed>
</trkpt>
<trkpt lat="55.900242" lon="26.529011">
<ele>119.219788</ele>
<time>2010-06-20T15:33:11Z</time>
<desc>lat.=55.900242, lon.=26.529011, Alt.=119.219788m. Speed=0.756000m/h.</desc>
<speed>0.210000</speed>
</trkpt>
<trkpt lat="55.900242" lon="26.529015">
<ele>119.215881</ele>
<time>2010-06-20T15:33:12Z</time>
<desc>lat.=55.900242, lon.=26.529015, Alt.=119.215881m. Speed=1.044000m/h.</desc>
<speed>0.290000</speed>
</trkpt>
<trkpt lat="55.900242" lon="26.529018">
<ele>119.211975</ele>
<time>2010-06-20T15:33:13Z</time>
<desc>lat.=55.900242, lon.=26.529018, Alt.=119.211975m. Speed=1.008000m/h.</desc>
<speed>0.280000</speed>
</trkpt>
<trkpt lat="55.900246" lon="26.529022">
<ele>119.208069</ele>
<time>2010-06-20T15:33:14Z</time>
<desc>lat.=55.900246, lon.=26.529022, Alt.=119.208069m. Speed=1.296000m/h.</desc>
<speed>0.360000</speed>
</trkpt>
<trkpt lat="55.900249" lon="26.529011">
<ele>119.131897</ele>
<time>2010-06-20T15:33:15Z</time>
<desc>lat.=55.900249, lon.=26.529011, Alt.=119.131897m. Speed=0.864000m/h.</desc>
<speed>0.240000</speed>
</trkpt>
<trkpt lat="55.900246" lon="26.529013">
<ele>119.104553</ele>
<time>2010-06-20T15:33:16Z</time>
<desc>lat.=55.900246, lon.=26.529013, Alt.=119.104553m. Speed=0.072000m/h.</desc>
<speed>0.020000</speed>
</trkpt>
<trkpt lat="55.900242" lon="26.529018">
<ele>119.030334</ele>
<time>2010-06-20T15:33:17Z</time>
<desc>lat.=55.900242, lon.=26.529018, Alt.=119.030334m. Speed=0.648000m/h.</desc>
<speed>0.180000</speed>
</trkpt>
<trkpt lat="55.900246" lon="26.529016">
<ele>119.014709</ele>
<time>2010-06-20T15:33:18Z</time>
<desc>lat.=55.900246, lon.=26.529016, Alt.=119.014709m. Speed=0.216000m/h.</desc>
<speed>0.060000</speed>
</trkpt>
<trkpt lat="55.900246" lon="26.529016">
<ele>119.014709</ele>
<time>2010-06-20T15:33:19Z</time>
<desc>lat.=55.900246, lon.=26.529016, Alt.=119.014709m. Speed=0.288000m/h.</desc>
<speed>0.080000</speed>
</trkpt>
<trkpt lat="55.900249" lon="26.529016">
<ele>119.012756</ele>
<time>2010-06-20T15:33:20Z</time>
<desc>lat.=55.900249, lon.=26.529016, Alt.=119.012756m. Speed=0.792000m/h.</desc>
<speed>0.220000</speed>
</trkpt>
<trkpt lat="55.900249" lon="26.529016">
<ele>119.010803</ele>
<time>2010-06-20T15:33:21Z</time>
<desc>lat.=55.900249, lon.=26.529016, Alt.=119.010803m. Speed=1.224000m/h.</desc>
<speed>0.340000</speed>
</trkpt>
<trkpt lat="55.900253" lon="26.529013">
<ele>119.032288</ele>
<time>2010-06-20T15:33:22Z</time>
<desc>lat.=55.900253, lon.=26.529013, Alt.=119.032288m. Speed=1.188000m/h.</desc>
<speed>0.330000</speed>
</trkpt>
<trkpt lat="55.900253" lon="26.529018">
<ele>119.030334</ele>
<time>2010-06-20T15:33:23Z</time>
<desc>lat.=55.900253, lon.=26.529018, Alt.=119.030334m. Speed=0.900000m/h.</desc>
<speed>0.250000</speed>
</trkpt>
<trkpt lat="55.900249" lon="26.529020">
<ele>118.995178</ele>
<time>2010-06-20T15:33:24Z</time>
<desc>lat.=55.900249, lon.=26.529020, Alt.=118.995178m. Speed=0.396000m/h.</desc>
<speed>0.110000</speed>
</trkpt>
<trkpt lat="55.900249" lon="26.529013">
<ele>118.967834</ele>
<time>2010-06-20T15:33:25Z</time>
<desc>lat.=55.900249, lon.=26.529013, Alt.=118.967834m. Speed=0.216000m/h.</desc>
<speed>0.060000</speed>
</trkpt>
<trkpt lat="55.900249" lon="26.529016">
<ele>118.977600</ele>
<time>2010-06-20T15:33:26Z</time>
<desc>lat.=55.900249, lon.=26.529016, Alt.=118.977600m. Speed=0.432000m/h.</desc>
<speed>0.120000</speed>
</trkpt>
<trkpt lat="55.900246" lon="26.529016">
<ele>118.979553</ele>
<time>2010-06-20T15:33:27Z</time>
<desc>lat.=55.900246, lon.=26.529016, Alt.=118.979553m. Speed=0.576000m/h.</desc>
<speed>0.160000</speed>
</trkpt>
<trkpt lat="55.900246" lon="26.529016">
<ele>118.979553</ele>
<time>2010-06-20T15:33:28Z</time>
<desc>lat.=55.900246, lon.=26.529016, Alt.=118.979553m. Speed=0.756000m/h.</desc>
<speed>0.210000</speed>
</trkpt>
<trkpt lat="55.900242" lon="26.529016">
<ele>118.981506</ele>
<time>2010-06-20T15:33:29Z</time>
<desc>lat.=55.900242, lon.=26.529016, Alt.=118.981506m. Speed=0.756000m/h.</desc>
<speed>0.210000</speed>
</trkpt>
<trkpt lat="55.900242" lon="26.529015">
<ele>118.983459</ele>
<time>2010-06-20T15:33:30Z</time>
<desc>lat.=55.900242, lon.=26.529015, Alt.=118.983459m. Speed=0.612000m/h.</desc>
<speed>0.170000</speed>
</trkpt>
<trkpt lat="55.900242" lon="26.529013">
<ele>118.983459</ele>
<time>2010-06-20T15:33:31Z</time>
<desc>lat.=55.900242, lon.=26.529013, Alt.=118.983459m. Speed=0.288000m/h.</desc>
<speed>0.080000</speed>
</trkpt>
<trkpt lat="55.900242" lon="26.529011">
<ele>118.983459</ele>
<time>2010-06-20T15:33:32Z</time>
<desc>lat.=55.900242, lon.=26.529011, Alt.=118.983459m. Speed=0.144000m/h.</desc>
<speed>0.040000</speed>
</trkpt>
<trkpt lat="55.900246" lon="26.529020">
<ele>118.985413</ele>
<time>2010-06-20T15:33:33Z</time>
<desc>lat.=55.900246, lon.=26.529020, Alt.=118.985413m. Speed=0.540000m/h.</desc>
<speed>0.150000</speed>
</trkpt>
<trkpt lat="55.900246" lon="26.529022">
<ele>118.983459</ele>
<time>2010-06-20T15:33:34Z</time>
<desc>lat.=55.900246, lon.=26.529022, Alt.=118.983459m. Speed=0.864000m/h.</desc>
<speed>0.240000</speed>
</trkpt>
<trkpt lat="55.900246" lon="26.529026">
<ele>118.981506</ele>
<time>2010-06-20T15:33:35Z</time>
<desc>lat.=55.900246, lon.=26.529026, Alt.=118.981506m. Speed=0.576000m/h.</desc>
<speed>0.160000</speed>
</trkpt>
<trkpt lat="55.900246" lon="26.529028">
<ele>118.979553</ele>
<time>2010-06-20T15:33:36Z</time>
<desc>lat.=55.900246, lon.=26.529028, Alt.=118.979553m. Speed=0.828000m/h.</desc>
<speed>0.230000</speed>
</trkpt>
<trkpt lat="55.900246" lon="26.529032">
<ele>118.977600</ele>
<time>2010-06-20T15:33:37Z</time>
<desc>lat.=55.900246, lon.=26.529032, Alt.=118.977600m. Speed=0.900000m/h.</desc>
<speed>0.250000</speed>
</trkpt>
<trkpt lat="55.900246" lon="26.529036">
<ele>118.971741</ele>
<time>2010-06-20T15:33:38Z</time>
<desc>lat.=55.900246, lon.=26.529036, Alt.=118.971741m. Speed=0.900000m/h.</desc>
<speed>0.250000</speed>
</trkpt>
<trkpt lat="55.900249" lon="26.529039">
<ele>118.971741</ele>
<time>2010-06-20T15:33:39Z</time>
<desc>lat.=55.900249, lon.=26.529039, Alt.=118.971741m. Speed=1.116000m/h.</desc>
<speed>0.310000</speed>
</trkpt>
<trkpt lat="55.900253" lon="26.529039">
<ele>119.016663</ele>
<time>2010-06-20T15:33:40Z</time>
<desc>lat.=55.900253, lon.=26.529039, Alt.=119.016663m. Speed=0.540000m/h.</desc>
<speed>0.150000</speed>
</trkpt>
<trkpt lat="55.900257" lon="26.529036">
<ele>119.094788</ele>
<time>2010-06-20T15:33:41Z</time>
<desc>lat.=55.900257, lon.=26.529036, Alt.=119.094788m. Speed=0.324000m/h.</desc>
<speed>0.090000</speed>
</trkpt>
<trkpt lat="55.900261" lon="26.529041">
<ele>119.223694</ele>
<time>2010-06-20T15:33:42Z</time>
<desc>lat.=55.900261, lon.=26.529041, Alt.=119.223694m. Speed=1.008000m/h.</desc>
<speed>0.280000</speed>
</trkpt>
<trkpt lat="55.900265" lon="26.529036">
<ele>119.325256</ele>
<time>2010-06-20T15:33:43Z</time>
<desc>lat.=55.900265, lon.=26.529036, Alt.=119.325256m. Speed=0.540000m/h.</desc>
<speed>0.150000</speed>
</trkpt>
<trkpt lat="55.900265" lon="26.529036">
<ele>119.325256</ele>
<time>2010-06-20T15:33:44Z</time>
<desc>lat.=55.900265, lon.=26.529036, Alt.=119.325256m. Speed=0.900000m/h.</desc>
<speed>0.250000</speed>
</trkpt>
<trkpt lat="55.900269" lon="26.529034">
<ele>119.327209</ele>
<time>2010-06-20T15:33:45Z</time>
<desc>lat.=55.900269, lon.=26.529034, Alt.=119.327209m. Speed=0.612000m/h.</desc>
<speed>0.170000</speed>
</trkpt>
<trkpt lat="55.900269" lon="26.529036">
<ele>119.329163</ele>
<time>2010-06-20T15:33:46Z</time>
<desc>lat.=55.900269, lon.=26.529036, Alt.=119.329163m. Speed=0.396000m/h.</desc>
<speed>0.110000</speed>
</trkpt>
<trkpt lat="55.900269" lon="26.529037">
<ele>119.329163</ele>
<time>2010-06-20T15:33:47Z</time>
<desc>lat.=55.900269, lon.=26.529037, Alt.=119.329163m. Speed=0.180000m/h.</desc>
<speed>0.050000</speed>
</trkpt>
<trkpt lat="55.900269" lon="26.529037">
<ele>119.331116</ele>
<time>2010-06-20T15:33:48Z</time>
<desc>lat.=55.900269, lon.=26.529037, Alt.=119.331116m. Speed=0.432000m/h.</desc>
<speed>0.120000</speed>
</trkpt>
<trkpt lat="55.900269" lon="26.529036">
<ele>119.331116</ele>
<time>2010-06-20T15:33:49Z</time>
<desc>lat.=55.900269, lon.=26.529036, Alt.=119.331116m. Speed=0.252000m/h.</desc>
<speed>0.070000</speed>
</trkpt>
<trkpt lat="55.900269" lon="26.529036">
<ele>119.335022</ele>
<time>2010-06-20T15:33:50Z</time>
<desc>lat.=55.900269, lon.=26.529036, Alt.=119.335022m. Speed=0.108000m/h.</desc>
<speed>0.030000</speed>
</trkpt>
<trkpt lat="55.900269" lon="26.529037">
<ele>119.338928</ele>
<time>2010-06-20T15:33:51Z</time>
<desc>lat.=55.900269, lon.=26.529037, Alt.=119.338928m. Speed=0.252000m/h.</desc>
<speed>0.070000</speed>
</trkpt>
<trkpt lat="55.900269" lon="26.529037">
<ele>119.340881</ele>
<time>2010-06-20T15:33:52Z</time>
<desc>lat.=55.900269, lon.=26.529037, Alt.=119.340881m. Speed=0.288000m/h.</desc>
<speed>0.080000</speed>
</trkpt>
<trkpt lat="55.900269" lon="26.529036">
<ele>119.346741</ele>
<time>2010-06-20T15:33:53Z</time>
<desc>lat.=55.900269, lon.=26.529036, Alt.=119.346741m. Speed=0.180000m/h.</desc>
<speed>0.050000</speed>
</trkpt>
<trkpt lat="55.900269" lon="26.529036">
<ele>119.348694</ele>
<time>2010-06-20T15:33:54Z</time>
<desc>lat.=55.900269, lon.=26.529036, Alt.=119.348694m. Speed=0.252000m/h.</desc>
<speed>0.070000</speed>
</trkpt>
<trkpt lat="55.900272" lon="26.529036">
<ele>119.350647</ele>
<time>2010-06-20T15:33:55Z</time>
<desc>lat.=55.900272, lon.=26.529036, Alt.=119.350647m. Speed=0.360000m/h.</desc>
<speed>0.100000</speed>
</trkpt>
<trkpt lat="55.900272" lon="26.529034">
<ele>119.350647</ele>
<time>2010-06-20T15:33:56Z</time>
<desc>lat.=55.900272, lon.=26.529034, Alt.=119.350647m. Speed=0.756000m/h.</desc>
<speed>0.210000</speed>
</trkpt>
<trkpt lat="55.900272" lon="26.529032">
<ele>119.350647</ele>
<time>2010-06-20T15:33:57Z</time>
<desc>lat.=55.900272, lon.=26.529032, Alt.=119.350647m. Speed=0.360000m/h.</desc>
<speed>0.100000</speed>
</trkpt>
<trkpt lat="55.900272" lon="26.529030">
<ele>119.352600</ele>
<time>2010-06-20T15:33:58Z</time>
<desc>lat.=55.900272, lon.=26.529030, Alt.=119.352600m. Speed=0.900000m/h.</desc>
<speed>0.250000</speed>
</trkpt>
<trkpt lat="55.900272" lon="26.529026">
<ele>119.352600</ele>
<time>2010-06-20T15:33:59Z</time>
<desc>lat.=55.900272, lon.=26.529026, Alt.=119.352600m. Speed=0.864000m/h.</desc>
<speed>0.240000</speed>
</trkpt>
<trkpt lat="55.900272" lon="26.529026">
<ele>119.354553</ele>
<time>2010-06-20T15:34:00Z</time>
<desc>lat.=55.900272, lon.=26.529026, Alt.=119.354553m. Speed=0.936000m/h.</desc>
<speed>0.260000</speed>
</trkpt>
<trkpt lat="55.900269" lon="26.529022">
<ele>119.354553</ele>
<time>2010-06-20T15:34:01Z</time>
<desc>lat.=55.900269, lon.=26.529022, Alt.=119.354553m. Speed=1.224000m/h.</desc>
<speed>0.340000</speed>
</trkpt>
<trkpt lat="55.900272" lon="26.529011">
<ele>119.383850</ele>
<time>2010-06-20T15:34:02Z</time>
<desc>lat.=55.900272, lon.=26.529011, Alt.=119.383850m. Speed=1.044000m/h.</desc>
<speed>0.290000</speed>
</trkpt>
<trkpt lat="55.900269" lon="26.529005">
<ele>119.440491</ele>
<time>2010-06-20T15:34:03Z</time>
<desc>lat.=55.900269, lon.=26.529005, Alt.=119.440491m. Speed=1.332000m/h.</desc>
<speed>0.370000</speed>
</trkpt>
<trkpt lat="55.900269" lon="26.528994">
<ele>119.444397</ele>
<time>2010-06-20T15:34:04Z</time>
<desc>lat.=55.900269, lon.=26.528994, Alt.=119.444397m. Speed=1.224000m/h.</desc>
<speed>0.340000</speed>
</trkpt>
<trkpt lat="55.900265" lon="26.528986">
<ele>119.493225</ele>
<time>2010-06-20T15:34:05Z</time>
<desc>lat.=55.900265, lon.=26.528986, Alt.=119.493225m. Speed=0.900000m/h.</desc>
<speed>0.250000</speed>
</trkpt>
<trkpt lat="55.900261" lon="26.528976">
<ele>119.563538</ele>
<time>2010-06-20T15:34:06Z</time>
<desc>lat.=55.900261, lon.=26.528976, Alt.=119.563538m. Speed=1.152000m/h.</desc>
<speed>0.320000</speed>
</trkpt>
<trkpt lat="55.900261" lon="26.528961">
<ele>119.614319</ele>
<time>2010-06-20T15:34:07Z</time>
<desc>lat.=55.900261, lon.=26.528961, Alt.=119.614319m. Speed=1.656000m/h.</desc>
<speed>0.460000</speed>
</trkpt>
<trkpt lat="55.900257" lon="26.528957">
<ele>119.700256</ele>
<time>2010-06-20T15:34:08Z</time>
<desc>lat.=55.900257, lon.=26.528957, Alt.=119.700256m. Speed=1.332000m/h.</desc>
<speed>0.370000</speed>
</trkpt>
<trkpt lat="55.900265" lon="26.528952">
<ele>119.702209</ele>
<time>2010-06-20T15:34:09Z</time>
<desc>lat.=55.900265, lon.=26.528952, Alt.=119.702209m. Speed=1.548000m/h.</desc>
<speed>0.430000</speed>
</trkpt>
<trkpt lat="55.900265" lon="26.528957">
<ele>119.663147</ele>
<time>2010-06-20T15:34:10Z</time>
<desc>lat.=55.900265, lon.=26.528957, Alt.=119.663147m. Speed=0.792000m/h.</desc>
<speed>0.220000</speed>
</trkpt>
<trkpt lat="55.900265" lon="26.528965">
<ele>119.629944</ele>
<time>2010-06-20T15:34:11Z</time>
<desc>lat.=55.900265, lon.=26.528965, Alt.=119.629944m. Speed=0.576000m/h.</desc>
<speed>0.160000</speed>
</trkpt>
<trkpt lat="55.900265" lon="26.528975">
<ele>119.520569</ele>
<time>2010-06-20T15:34:12Z</time>
<desc>lat.=55.900265, lon.=26.528975, Alt.=119.520569m. Speed=0.432000m/h.</desc>
<speed>0.120000</speed>
</trkpt>
<trkpt lat="55.900269" lon="26.528992">
<ele>119.405334</ele>
<time>2010-06-20T15:34:13Z</time>
<desc>lat.=55.900269, lon.=26.528992, Alt.=119.405334m. Speed=0.864000m/h.</desc>
<speed>0.240000</speed>
</trkpt>
<trkpt lat="55.900269" lon="26.528994">
<ele>119.401428</ele>
<time>2010-06-20T15:34:14Z</time>
<desc>lat.=55.900269, lon.=26.528994, Alt.=119.401428m. Speed=0.828000m/h.</desc>
<speed>0.230000</speed>
</trkpt>
<trkpt lat="55.900272" lon="26.528994">
<ele>119.399475</ele>
<time>2010-06-20T15:34:15Z</time>
<desc>lat.=55.900272, lon.=26.528994, Alt.=119.399475m. Speed=0.000000m/h.</desc>
<speed>0.000000</speed>
</trkpt>
<trkpt lat="55.900272" lon="26.528994">
<ele>119.401428</ele>
<time>2010-06-20T15:34:16Z</time>
<desc>lat.=55.900272, lon.=26.528994, Alt.=119.401428m. Speed=0.576000m/h.</desc>
<speed>0.160000</speed>
</trkpt>
<trkpt lat="55.900269" lon="26.528992">
<ele>119.403381</ele>
<time>2010-06-20T15:34:17Z</time>
<desc>lat.=55.900269, lon.=26.528992, Alt.=119.403381m. Speed=0.720000m/h.</desc>
<speed>0.200000</speed>
</trkpt>
<trkpt lat="55.900269" lon="26.528990">
<ele>119.405334</ele>
<time>2010-06-20T15:34:18Z</time>
<desc>lat.=55.900269, lon.=26.528990, Alt.=119.405334m. Speed=1.440000m/h.</desc>
<speed>0.400000</speed>
</trkpt>
<trkpt lat="55.900269" lon="26.528990">
<ele>119.307678</ele>
<time>2010-06-20T15:34:19Z</time>
<desc>lat.=55.900269, lon.=26.528990, Alt.=119.307678m. Speed=1.116000m/h.</desc>
<speed>0.310000</speed>
</trkpt>
<trkpt lat="55.900261" lon="26.528988">
<ele>119.243225</ele>
<time>2010-06-20T15:34:20Z</time>
<desc>lat.=55.900261, lon.=26.528988, Alt.=119.243225m. Speed=1.260000m/h.</desc>
<speed>0.350000</speed>
</trkpt>
<trkpt lat="55.900257" lon="26.528986">
<ele>119.215881</ele>
<time>2010-06-20T15:34:21Z</time>
<desc>lat.=55.900257, lon.=26.528986, Alt.=119.215881m. Speed=0.900000m/h.</desc>
<speed>0.250000</speed>
</trkpt>
<trkpt lat="55.900249" lon="26.528997">
<ele>119.110413</ele>
<time>2010-06-20T15:34:22Z</time>
<desc>lat.=55.900249, lon.=26.528997, Alt.=119.110413m. Speed=0.756000m/h.</desc>
<speed>0.210000</speed>
</trkpt>
<trkpt lat="55.900242" lon="26.529003">
<ele>119.045959</ele>
<time>2010-06-20T15:34:23Z</time>
<desc>lat.=55.900242, lon.=26.529003, Alt.=119.045959m. Speed=1.008000m/h.</desc>
<speed>0.280000</speed>
</trkpt>
<trkpt lat="55.900242" lon="26.528997">
<ele>119.016663</ele>
<time>2010-06-20T15:34:24Z</time>
<desc>lat.=55.900242, lon.=26.528997, Alt.=119.016663m. Speed=0.720000m/h.</desc>
<speed>0.200000</speed>
</trkpt>
<trkpt lat="55.900242" lon="26.528994">
<ele>119.014709</ele>
<time>2010-06-20T15:34:25Z</time>
<desc>lat.=55.900242, lon.=26.528994, Alt.=119.014709m. Speed=0.396000m/h.</desc>
<speed>0.110000</speed>
</trkpt>
<trkpt lat="55.900242" lon="26.528994">
<ele>119.014709</ele>
<time>2010-06-20T15:34:26Z</time>
<desc>lat.=55.900242, lon.=26.528994, Alt.=119.014709m. Speed=0.036000m/h.</desc>
<speed>0.010000</speed>
</trkpt>
<trkpt lat="55.900242" lon="26.528994">
<ele>119.012756</ele>
<time>2010-06-20T15:34:27Z</time>
<desc>lat.=55.900242, lon.=26.528994, Alt.=119.012756m. Speed=0.648000m/h.</desc>
<speed>0.180000</speed>
</trkpt>
<trkpt lat="55.900242" lon="26.528994">
<ele>119.010803</ele>
<time>2010-06-20T15:34:28Z</time>
<desc>lat.=55.900242, lon.=26.528994, Alt.=119.010803m. Speed=0.468000m/h.</desc>
<speed>0.130000</speed>
</trkpt>
<trkpt lat="55.900242" lon="26.528996">
<ele>119.008850</ele>
<time>2010-06-20T15:34:29Z</time>
<desc>lat.=55.900242, lon.=26.528996, Alt.=119.008850m. Speed=0.756000m/h.</desc>
<speed>0.210000</speed>
</trkpt>
<trkpt lat="55.900242" lon="26.528999">
<ele>119.010803</ele>
<time>2010-06-20T15:34:30Z</time>
<desc>lat.=55.900242, lon.=26.528999, Alt.=119.010803m. Speed=0.612000m/h.</desc>
<speed>0.170000</speed>
</trkpt>
<trkpt lat="55.900242" lon="26.529001">
<ele>119.012756</ele>
<time>2010-06-20T15:34:31Z</time>
<desc>lat.=55.900242, lon.=26.529001, Alt.=119.012756m. Speed=0.468000m/h.</desc>
<speed>0.130000</speed>
</trkpt>
<trkpt lat="55.900246" lon="26.529003">
<ele>119.014709</ele>
<time>2010-06-20T15:34:32Z</time>
<desc>lat.=55.900246, lon.=26.529003, Alt.=119.014709m. Speed=0.540000m/h.</desc>
<speed>0.150000</speed>
</trkpt>
<trkpt lat="55.900242" lon="26.529005">
<ele>119.016663</ele>
<time>2010-06-20T15:34:33Z</time>
<desc>lat.=55.900242, lon.=26.529005, Alt.=119.016663m. Speed=0.252000m/h.</desc>
<speed>0.070000</speed>
</trkpt>
<trkpt lat="55.900242" lon="26.529005">
<ele>119.016663</ele>
<time>2010-06-20T15:34:34Z</time>
<desc>lat.=55.900242, lon.=26.529005, Alt.=119.016663m. Speed=0.504000m/h.</desc>
<speed>0.140000</speed>
</trkpt>
<trkpt lat="55.900246" lon="26.529007">
<ele>119.016663</ele>
<time>2010-06-20T15:34:35Z</time>
<desc>lat.=55.900246, lon.=26.529007, Alt.=119.016663m. Speed=0.648000m/h.</desc>
<speed>0.180000</speed>
</trkpt>
<trkpt lat="55.900246" lon="26.529011">
<ele>119.016663</ele>
<time>2010-06-20T15:34:36Z</time>
<desc>lat.=55.900246, lon.=26.529011, Alt.=119.016663m. Speed=1.584000m/h.</desc>
<speed>0.440000</speed>
</trkpt>
<trkpt lat="55.900249" lon="26.529024">
<ele>118.989319</ele>
<time>2010-06-20T15:34:37Z</time>
<desc>lat.=55.900249, lon.=26.529024, Alt.=118.989319m. Speed=1.836000m/h.</desc>
<speed>0.510000</speed>
</trkpt>
<trkpt lat="55.900249" lon="26.529030">
<ele>119.067444</ele>
<time>2010-06-20T15:34:38Z</time>
<desc>lat.=55.900249, lon.=26.529030, Alt.=119.067444m. Speed=1.368000m/h.</desc>
<speed>0.380000</speed>
</trkpt>
<trkpt lat="55.900249" lon="26.529032">
<ele>119.139709</ele>
<time>2010-06-20T15:34:39Z</time>
<desc>lat.=55.900249, lon.=26.529032, Alt.=119.139709m. Speed=1.008000m/h.</desc>
<speed>0.280000</speed>
</trkpt>
<trkpt lat="55.900246" lon="26.529022">
<ele>119.276428</ele>
<time>2010-06-20T15:34:40Z</time>
<desc>lat.=55.900246, lon.=26.529022, Alt.=119.276428m. Speed=0.576000m/h.</desc>
<speed>0.160000</speed>
</trkpt>
<trkpt lat="55.900249" lon="26.529016">
<ele>119.403381</ele>
<time>2010-06-20T15:34:41Z</time>
<desc>lat.=55.900249, lon.=26.529016, Alt.=119.403381m. Speed=0.216000m/h.</desc>
<speed>0.060000</speed>
</trkpt>
<trkpt lat="55.900246" lon="26.529022">
<ele>119.522522</ele>
<time>2010-06-20T15:34:42Z</time>
<desc>lat.=55.900246, lon.=26.529022, Alt.=119.522522m. Speed=0.576000m/h.</desc>
<speed>0.160000</speed>
</trkpt>
<trkpt lat="55.900246" lon="26.529026">
<ele>119.528381</ele>
<time>2010-06-20T15:34:43Z</time>
<desc>lat.=55.900246, lon.=26.529026, Alt.=119.528381m. Speed=0.864000m/h.</desc>
<speed>0.240000</speed>
</trkpt>
<trkpt lat="55.900246" lon="26.529028">
<ele>119.534241</ele>
<time>2010-06-20T15:34:44Z</time>
<desc>lat.=55.900246, lon.=26.529028, Alt.=119.534241m. Speed=0.936000m/h.</desc>
<speed>0.260000</speed>
</trkpt>
<trkpt lat="55.900246" lon="26.529030">
<ele>119.542053</ele>
<time>2010-06-20T15:34:45Z</time>
<desc>lat.=55.900246, lon.=26.529030, Alt.=119.542053m. Speed=1.152000m/h.</desc>
<speed>0.320000</speed>
</trkpt>
<trkpt lat="55.900246" lon="26.529020">
<ele>119.741272</ele>
<time>2010-06-20T15:34:46Z</time>
<desc>lat.=55.900246, lon.=26.529020, Alt.=119.741272m. Speed=0.756000m/h.</desc>
<speed>0.210000</speed>
</trkpt>
<trkpt lat="55.900246" lon="26.529007">
<ele>119.801819</ele>
<time>2010-06-20T15:34:47Z</time>
<desc>lat.=55.900246, lon.=26.529007, Alt.=119.801819m. Speed=0.936000m/h.</desc>
<speed>0.260000</speed>
</trkpt>
<trkpt lat="55.900246" lon="26.529001">
<ele>119.721741</ele>
<time>2010-06-20T15:34:48Z</time>
<desc>lat.=55.900246, lon.=26.529001, Alt.=119.721741m. Speed=0.864000m/h.</desc>
<speed>0.240000</speed>
</trkpt>
<trkpt lat="55.900242" lon="26.528999">
<ele>119.547913</ele>
<time>2010-06-20T15:34:49Z</time>
<desc>lat.=55.900242, lon.=26.528999, Alt.=119.547913m. Speed=0.900000m/h.</desc>
<speed>0.250000</speed>
</trkpt>
<trkpt lat="55.900242" lon="26.528996">
<ele>119.545959</ele>
<time>2010-06-20T15:34:50Z</time>
<desc>lat.=55.900242, lon.=26.528996, Alt.=119.545959m. Speed=0.612000m/h.</desc>
<speed>0.170000</speed>
</trkpt>
<trkpt lat="55.900242" lon="26.528994">
<ele>119.545959</ele>
<time>2010-06-20T15:34:51Z</time>
<desc>lat.=55.900242, lon.=26.528994, Alt.=119.545959m. Speed=0.180000m/h.</desc>
<speed>0.050000</speed>
</trkpt>
<trkpt lat="55.900242" lon="26.528994">
<ele>119.545959</ele>
<time>2010-06-20T15:34:52Z</time>
<desc>lat.=55.900242, lon.=26.528994, Alt.=119.545959m. Speed=0.072000m/h.</desc>
<speed>0.020000</speed>
</trkpt>
<trkpt lat="55.900242" lon="26.528994">
<ele>119.542053</ele>
<time>2010-06-20T15:34:53Z</time>
<desc>lat.=55.900242, lon.=26.528994, Alt.=119.542053m. Speed=0.252000m/h.</desc>
<speed>0.070000</speed>
</trkpt>
<trkpt lat="55.900242" lon="26.528994">
<ele>119.542053</ele>
<time>2010-06-20T15:34:54Z</time>
<desc>lat.=55.900242, lon.=26.528994, Alt.=119.542053m. Speed=0.324000m/h.</desc>
<speed>0.090000</speed>
</trkpt>
<trkpt lat="55.900242" lon="26.528992">
<ele>119.538147</ele>
<time>2010-06-20T15:34:55Z</time>
<desc>lat.=55.900242, lon.=26.528992, Alt.=119.538147m. Speed=0.540000m/h.</desc>
<speed>0.150000</speed>
</trkpt>
<trkpt lat="55.900242" lon="26.528990">
<ele>119.534241</ele>
<time>2010-06-20T15:34:56Z</time>
<desc>lat.=55.900242, lon.=26.528990, Alt.=119.534241m. Speed=0.468000m/h.</desc>
<speed>0.130000</speed>
</trkpt>
<trkpt lat="55.900242" lon="26.528988">
<ele>119.530334</ele>
<time>2010-06-20T15:34:57Z</time>
<desc>lat.=55.900242, lon.=26.528988, Alt.=119.530334m. Speed=0.360000m/h.</desc>
<speed>0.100000</speed>
</trkpt>
<trkpt lat="55.900242" lon="26.528988">
<ele>119.528381</ele>
<time>2010-06-20T15:34:58Z</time>
<desc>lat.=55.900242, lon.=26.528988, Alt.=119.528381m. Speed=0.396000m/h.</desc>
<speed>0.110000</speed>
</trkpt>
<trkpt lat="55.900242" lon="26.528988">
<ele>119.528381</ele>
<time>2010-06-20T15:34:59Z</time>
<desc>lat.=55.900242, lon.=26.528988, Alt.=119.528381m. Speed=0.144000m/h.</desc>
<speed>0.040000</speed>
</trkpt>
<trkpt lat="55.900242" lon="26.528988">
<ele>119.526428</ele>
<time>2010-06-20T15:35:00Z</time>
<desc>lat.=55.900242, lon.=26.528988, Alt.=119.526428m. Speed=0.432000m/h.</desc>
<speed>0.120000</speed>
</trkpt>
<trkpt lat="55.900242" lon="26.528986">
<ele>119.526428</ele>
<time>2010-06-20T15:35:01Z</time>
<desc>lat.=55.900242, lon.=26.528986, Alt.=119.526428m. Speed=0.720000m/h.</desc>
<speed>0.200000</speed>
</trkpt>
<trkpt lat="55.900242" lon="26.528984">
<ele>119.526428</ele>
<time>2010-06-20T15:35:02Z</time>
<desc>lat.=55.900242, lon.=26.528984, Alt.=119.526428m. Speed=1.188000m/h.</desc>
<speed>0.330000</speed>
</trkpt>
<trkpt lat="55.900242" lon="26.528978">
<ele>119.600647</ele>
<time>2010-06-20T15:35:03Z</time>
<desc>lat.=55.900242, lon.=26.528978, Alt.=119.600647m. Speed=0.900000m/h.</desc>
<speed>0.250000</speed>
</trkpt>
<trkpt lat="55.900242" lon="26.528976">
<ele>119.680725</ele>
<time>2010-06-20T15:35:04Z</time>
<desc>lat.=55.900242, lon.=26.528976, Alt.=119.680725m. Speed=0.972000m/h.</desc>
<speed>0.270000</speed>
</trkpt>
<trkpt lat="55.900246" lon="26.528978">
<ele>119.782288</ele>
<time>2010-06-20T15:35:05Z</time>
<desc>lat.=55.900246, lon.=26.528978, Alt.=119.782288m. Speed=0.540000m/h.</desc>
<speed>0.150000</speed>
</trkpt>
<trkpt lat="55.900249" lon="26.528975">
<ele>119.891663</ele>
<time>2010-06-20T15:35:06Z</time>
<desc>lat.=55.900249, lon.=26.528975, Alt.=119.891663m. Speed=0.504000m/h.</desc>
<speed>0.140000</speed>
</trkpt>
<trkpt lat="55.900249" lon="26.528973">
<ele>119.895569</ele>
<time>2010-06-20T15:35:07Z</time>
<desc>lat.=55.900249, lon.=26.528973, Alt.=119.895569m. Speed=0.792000m/h.</desc>
<speed>0.220000</speed>
</trkpt>
<trkpt lat="55.900246" lon="26.528973">
<ele>119.901428</ele>
<time>2010-06-20T15:35:08Z</time>
<desc>lat.=55.900246, lon.=26.528973, Alt.=119.901428m. Speed=0.576000m/h.</desc>
<speed>0.160000</speed>
</trkpt>
<trkpt lat="55.900246" lon="26.528971">
<ele>119.903381</ele>
<time>2010-06-20T15:35:09Z</time>
<desc>lat.=55.900246, lon.=26.528971, Alt.=119.903381m. Speed=0.108000m/h.</desc>
<speed>0.030000</speed>
</trkpt>
<trkpt lat="55.900246" lon="26.528971">
<ele>119.905334</ele>
<time>2010-06-20T15:35:10Z</time>
<desc>lat.=55.900246, lon.=26.528971, Alt.=119.905334m. Speed=0.504000m/h.</desc>
<speed>0.140000</speed>
</trkpt>
<trkpt lat="55.900246" lon="26.528973">
<ele>119.905334</ele>
<time>2010-06-20T15:35:11Z</time>
<desc>lat.=55.900246, lon.=26.528973, Alt.=119.905334m. Speed=0.540000m/h.</desc>
<speed>0.150000</speed>
</trkpt>
<trkpt lat="55.900246" lon="26.528975">
<ele>119.905334</ele>
<time>2010-06-20T15:35:12Z</time>
<desc>lat.=55.900246, lon.=26.528975, Alt.=119.905334m. Speed=0.792000m/h.</desc>
<speed>0.220000</speed>
</trkpt>
<trkpt lat="55.900246" lon="26.528978">
<ele>119.905334</ele>
<time>2010-06-20T15:35:13Z</time>
<desc>lat.=55.900246, lon.=26.528978, Alt.=119.905334m. Speed=0.828000m/h.</desc>
<speed>0.230000</speed>
</trkpt>
<trkpt lat="55.900246" lon="26.528982">
<ele>119.903381</ele>
<time>2010-06-20T15:35:14Z</time>
<desc>lat.=55.900246, lon.=26.528982, Alt.=119.903381m. Speed=0.576000m/h.</desc>
<speed>0.160000</speed>
</trkpt>
<trkpt lat="55.900246" lon="26.528984">
<ele>119.901428</ele>
<time>2010-06-20T15:35:15Z</time>
<desc>lat.=55.900246, lon.=26.528984, Alt.=119.901428m. Speed=0.612000m/h.</desc>
<speed>0.170000</speed>
</trkpt>
<trkpt lat="55.900246" lon="26.528988">
<ele>119.903381</ele>
<time>2010-06-20T15:35:16Z</time>
<desc>lat.=55.900246, lon.=26.528988, Alt.=119.903381m. Speed=0.936000m/h.</desc>
<speed>0.260000</speed>
</trkpt>
<trkpt lat="55.900246" lon="26.528992">
<ele>119.903381</ele>
<time>2010-06-20T15:35:17Z</time>
<desc>lat.=55.900246, lon.=26.528992, Alt.=119.903381m. Speed=1.080000m/h.</desc>
<speed>0.300000</speed>
</trkpt>
<trkpt lat="55.900242" lon="26.528994">
<ele>119.850647</ele>
<time>2010-06-20T15:35:18Z</time>
<desc>lat.=55.900242, lon.=26.528994, Alt.=119.850647m. Speed=0.936000m/h.</desc>
<speed>0.260000</speed>
</trkpt>
<trkpt lat="55.900238" lon="26.529003">
<ele>119.752991</ele>
<time>2010-06-20T15:35:19Z</time>
<desc>lat.=55.900238, lon.=26.529003, Alt.=119.752991m. Speed=0.900000m/h.</desc>
<speed>0.250000</speed>
</trkpt>
<trkpt lat="55.900234" lon="26.529003">
<ele>119.680725</ele>
<time>2010-06-20T15:35:20Z</time>
<desc>lat.=55.900234, lon.=26.529003, Alt.=119.680725m. Speed=0.576000m/h.</desc>
<speed>0.160000</speed>
</trkpt>
<trkpt lat="55.900234" lon="26.529007">
<ele>119.495178</ele>
<time>2010-06-20T15:35:21Z</time>
<desc>lat.=55.900234, lon.=26.529007, Alt.=119.495178m. Speed=1.044000m/h.</desc>
<speed>0.290000</speed>
</trkpt>
<trkpt lat="55.900238" lon="26.529009">
<ele>119.489319</ele>
<time>2010-06-20T15:35:22Z</time>
<desc>lat.=55.900238, lon.=26.529009, Alt.=119.489319m. Speed=0.756000m/h.</desc>
<speed>0.210000</speed>
</trkpt>
<trkpt lat="55.900238" lon="26.529011">
<ele>119.489319</ele>
<time>2010-06-20T15:35:23Z</time>
<desc>lat.=55.900238, lon.=26.529011, Alt.=119.489319m. Speed=1.008000m/h.</desc>
<speed>0.280000</speed>
</trkpt>
<trkpt lat="55.900242" lon="26.529013">
<ele>119.489319</ele>
<time>2010-06-20T15:35:24Z</time>
<desc>lat.=55.900242, lon.=26.529013, Alt.=119.489319m. Speed=0.900000m/h.</desc>
<speed>0.250000</speed>
</trkpt>
<trkpt lat="55.900242" lon="26.529016">
<ele>119.491272</ele>
<time>2010-06-20T15:35:25Z</time>
<desc>lat.=55.900242, lon.=26.529016, Alt.=119.491272m. Speed=1.116000m/h.</desc>
<speed>0.310000</speed>
</trkpt>
<trkpt lat="55.900242" lon="26.529011">
<ele>119.426819</ele>
<time>2010-06-20T15:35:26Z</time>
<desc>lat.=55.900242, lon.=26.529011, Alt.=119.426819m. Speed=0.648000m/h.</desc>
<speed>0.180000</speed>
</trkpt>
<trkpt lat="55.900246" lon="26.529001">
<ele>119.583069</ele>
<time>2010-06-20T15:35:27Z</time>
<desc>lat.=55.900246, lon.=26.529001, Alt.=119.583069m. Speed=0.504000m/h.</desc>
<speed>0.140000</speed>
</trkpt>
<trkpt lat="55.900249" lon="26.528997">
<ele>119.817444</ele>
<time>2010-06-20T15:35:28Z</time>
<desc>lat.=55.900249, lon.=26.528997, Alt.=119.817444m. Speed=0.360000m/h.</desc>
<speed>0.100000</speed>
</trkpt>
<trkpt lat="55.900246" lon="26.528980">
<ele>119.940491</ele>
<time>2010-06-20T15:35:29Z</time>
<desc>lat.=55.900246, lon.=26.528980, Alt.=119.940491m. Speed=1.080000m/h.</desc>
<speed>0.300000</speed>
</trkpt>
<trkpt lat="55.900249" lon="26.528978">
<ele>120.381897</ele>
<time>2010-06-20T15:35:30Z</time>
<desc>lat.=55.900249, lon.=26.528978, Alt.=120.381897m. Speed=0.936000m/h.</desc>
<speed>0.260000</speed>
</trkpt>
<trkpt lat="55.900249" lon="26.528984">
<ele>120.506897</ele>
<time>2010-06-20T15:35:31Z</time>
<desc>lat.=55.900249, lon.=26.528984, Alt.=120.506897m. Speed=0.432000m/h.</desc>
<speed>0.120000</speed>
</trkpt>
<trkpt lat="55.900257" lon="26.528976">
<ele>120.487366</ele>
<time>2010-06-20T15:35:32Z</time>
<desc>lat.=55.900257, lon.=26.528976, Alt.=120.487366m. Speed=0.504000m/h.</desc>
<speed>0.140000</speed>
</trkpt>
<trkpt lat="55.900253" lon="26.528965">
<ele>120.530334</ele>
<time>2010-06-20T15:35:33Z</time>
<desc>lat.=55.900253, lon.=26.528965, Alt.=120.530334m. Speed=0.612000m/h.</desc>
<speed>0.170000</speed>
</trkpt>
<trkpt lat="55.900253" lon="26.528963">
<ele>120.534241</ele>
<time>2010-06-20T15:35:34Z</time>
<desc>lat.=55.900253, lon.=26.528963, Alt.=120.534241m. Speed=0.324000m/h.</desc>
<speed>0.090000</speed>
</trkpt>
<trkpt lat="55.900253" lon="26.528963">
<ele>120.538147</ele>
<time>2010-06-20T15:35:35Z</time>
<desc>lat.=55.900253, lon.=26.528963, Alt.=120.538147m. Speed=0.540000m/h.</desc>
<speed>0.150000</speed>
</trkpt>
<trkpt lat="55.900257" lon="26.528963">
<ele>120.540100</ele>
<time>2010-06-20T15:35:36Z</time>
<desc>lat.=55.900257, lon.=26.528963, Alt.=120.540100m. Speed=1.044000m/h.</desc>
<speed>0.290000</speed>
</trkpt>
<trkpt lat="55.900257" lon="26.528965">
<ele>120.544006</ele>
<time>2010-06-20T15:35:37Z</time>
<desc>lat.=55.900257, lon.=26.528965, Alt.=120.544006m. Speed=1.224000m/h.</desc>
<speed>0.340000</speed>
</trkpt>
<trkpt lat="55.900261" lon="26.528976">
<ele>120.555725</ele>
<time>2010-06-20T15:35:38Z</time>
<desc>lat.=55.900261, lon.=26.528976, Alt.=120.555725m. Speed=1.368000m/h.</desc>
<speed>0.380000</speed>
</trkpt>
<trkpt lat="55.900261" lon="26.528984">
<ele>120.549866</ele>
<time>2010-06-20T15:35:39Z</time>
<desc>lat.=55.900261, lon.=26.528984, Alt.=120.549866m. Speed=1.260000m/h.</desc>
<speed>0.350000</speed>
</trkpt>
<trkpt lat="55.900265" lon="26.528992">
<ele>120.413147</ele>
<time>2010-06-20T15:35:40Z</time>
<desc>lat.=55.900265, lon.=26.528992, Alt.=120.413147m. Speed=1.116000m/h.</desc>
<speed>0.310000</speed>
</trkpt>
<trkpt lat="55.900269" lon="26.529003">
<ele>120.272522</ele>
<time>2010-06-20T15:35:41Z</time>
<desc>lat.=55.900269, lon.=26.529003, Alt.=120.272522m. Speed=1.152000m/h.</desc>
<speed>0.320000</speed>
</trkpt>
<trkpt lat="55.900272" lon="26.529013">
<ele>120.096741</ele>
<time>2010-06-20T15:35:42Z</time>
<desc>lat.=55.900272, lon.=26.529013, Alt.=120.096741m. Speed=1.368000m/h.</desc>
<speed>0.380000</speed>
</trkpt>
<trkpt lat="55.900280" lon="26.529024">
<ele>119.956116</ele>
<time>2010-06-20T15:35:43Z</time>
<desc>lat.=55.900280, lon.=26.529024, Alt.=119.956116m. Speed=1.512000m/h.</desc>
<speed>0.420000</speed>
</trkpt>
<trkpt lat="55.900280" lon="26.529036">
<ele>119.850647</ele>
<time>2010-06-20T15:35:44Z</time>
<desc>lat.=55.900280, lon.=26.529036, Alt.=119.850647m. Speed=1.404000m/h.</desc>
<speed>0.390000</speed>
</trkpt>
<trkpt lat="55.900276" lon="26.529045">
<ele>119.768616</ele>
<time>2010-06-20T15:35:45Z</time>
<desc>lat.=55.900276, lon.=26.529045, Alt.=119.768616m. Speed=1.404000m/h.</desc>
<speed>0.390000</speed>
</trkpt>
<trkpt lat="55.900276" lon="26.529041">
<ele>119.727600</ele>
<time>2010-06-20T15:35:46Z</time>
<desc>lat.=55.900276, lon.=26.529041, Alt.=119.727600m. Speed=0.864000m/h.</desc>
<speed>0.240000</speed>
</trkpt>
<trkpt lat="55.900272" lon="26.529041">
<ele>119.627991</ele>
<time>2010-06-20T15:35:47Z</time>
<desc>lat.=55.900272, lon.=26.529041, Alt.=119.627991m. Speed=0.828000m/h.</desc>
<speed>0.230000</speed>
</trkpt>
<trkpt lat="55.900269" lon="26.529032">
<ele>119.501038</ele>
<time>2010-06-20T15:35:48Z</time>
<desc>lat.=55.900269, lon.=26.529032, Alt.=119.501038m. Speed=0.648000m/h.</desc>
<speed>0.180000</speed>
</trkpt>
<trkpt lat="55.900269" lon="26.529036">
<ele>119.436584</ele>
<time>2010-06-20T15:35:49Z</time>
<desc>lat.=55.900269, lon.=26.529036, Alt.=119.436584m. Speed=0.396000m/h.</desc>
<speed>0.110000</speed>
</trkpt>
<trkpt lat="55.900269" lon="26.529037">
<ele>119.432678</ele>
<time>2010-06-20T15:35:50Z</time>
<desc>lat.=55.900269, lon.=26.529037, Alt.=119.432678m. Speed=0.432000m/h.</desc>
<speed>0.120000</speed>
</trkpt>
<trkpt lat="55.900269" lon="26.529039">
<ele>119.426819</ele>
<time>2010-06-20T15:35:51Z</time>
<desc>lat.=55.900269, lon.=26.529039, Alt.=119.426819m. Speed=0.828000m/h.</desc>
<speed>0.230000</speed>
</trkpt>
<trkpt lat="55.900269" lon="26.529041">
<ele>119.422913</ele>
<time>2010-06-20T15:35:52Z</time>
<desc>lat.=55.900269, lon.=26.529041, Alt.=119.422913m. Speed=0.468000m/h.</desc>
<speed>0.130000</speed>
</trkpt>
<trkpt lat="55.900269" lon="26.529045">
<ele>119.419006</ele>
<time>2010-06-20T15:35:53Z</time>
<desc>lat.=55.900269, lon.=26.529045, Alt.=119.419006m. Speed=0.684000m/h.</desc>
<speed>0.190000</speed>
</trkpt>
<trkpt lat="55.900269" lon="26.529047">
<ele>119.413147</ele>
<time>2010-06-20T15:35:54Z</time>
<desc>lat.=55.900269, lon.=26.529047, Alt.=119.413147m. Speed=0.684000m/h.</desc>
<speed>0.190000</speed>
</trkpt>
<trkpt lat="55.900269" lon="26.529049">
<ele>119.405334</ele>
<time>2010-06-20T15:35:55Z</time>
<desc>lat.=55.900269, lon.=26.529049, Alt.=119.405334m. Speed=0.792000m/h.</desc>
<speed>0.220000</speed>
</trkpt>
<trkpt lat="55.900272" lon="26.529053">
<ele>119.399475</ele>
<time>2010-06-20T15:35:56Z</time>
<desc>lat.=55.900272, lon.=26.529053, Alt.=119.399475m. Speed=0.936000m/h.</desc>
<speed>0.260000</speed>
</trkpt>
<trkpt lat="55.900272" lon="26.529055">
<ele>119.393616</ele>
<time>2010-06-20T15:35:57Z</time>
<desc>lat.=55.900272, lon.=26.529055, Alt.=119.393616m. Speed=0.720000m/h.</desc>
<speed>0.200000</speed>
</trkpt>
<trkpt lat="55.900272" lon="26.529057">
<ele>119.387756</ele>
<time>2010-06-20T15:35:58Z</time>
<desc>lat.=55.900272, lon.=26.529057, Alt.=119.387756m. Speed=0.576000m/h.</desc>
<speed>0.160000</speed>
</trkpt>
<trkpt lat="55.900276" lon="26.529058">
<ele>119.381897</ele>
<time>2010-06-20T15:35:59Z</time>
<desc>lat.=55.900276, lon.=26.529058, Alt.=119.381897m. Speed=0.684000m/h.</desc>
<speed>0.190000</speed>
</trkpt>
<trkpt lat="55.900276" lon="26.529060">
<ele>119.377991</ele>
<time>2010-06-20T15:36:00Z</time>
<desc>lat.=55.900276, lon.=26.529060, Alt.=119.377991m. Speed=0.684000m/h.</desc>
<speed>0.190000</speed>
</trkpt>
<trkpt lat="55.900276" lon="26.529060">
<ele>119.376038</ele>
<time>2010-06-20T15:36:01Z</time>
<desc>lat.=55.900276, lon.=26.529060, Alt.=119.376038m. Speed=0.288000m/h.</desc>
<speed>0.080000</speed>
</trkpt>
<trkpt lat="55.900280" lon="26.529062">
<ele>119.374084</ele>
<time>2010-06-20T15:36:02Z</time>
<desc>lat.=55.900280, lon.=26.529062, Alt.=119.374084m. Speed=0.432000m/h.</desc>
<speed>0.120000</speed>
</trkpt>
<trkpt lat="55.900280" lon="26.529064">
<ele>119.374084</ele>
<time>2010-06-20T15:36:03Z</time>
<desc>lat.=55.900280, lon.=26.529064, Alt.=119.374084m. Speed=0.072000m/h.</desc>
<speed>0.020000</speed>
</trkpt>
<trkpt lat="55.900280" lon="26.529062">
<ele>119.372131</ele>
<time>2010-06-20T15:36:04Z</time>
<desc>lat.=55.900280, lon.=26.529062, Alt.=119.372131m. Speed=0.108000m/h.</desc>
<speed>0.030000</speed>
</trkpt>
<trkpt lat="55.900280" lon="26.529062">
<ele>119.370178</ele>
<time>2010-06-20T15:36:05Z</time>
<desc>lat.=55.900280, lon.=26.529062, Alt.=119.370178m. Speed=1.116000m/h.</desc>
<speed>0.310000</speed>
</trkpt>
<trkpt lat="55.900280" lon="26.529066">
<ele>119.352600</ele>
<time>2010-06-20T15:36:06Z</time>
<desc>lat.=55.900280, lon.=26.529066, Alt.=119.352600m. Speed=1.116000m/h.</desc>
<speed>0.310000</speed>
</trkpt>
<trkpt lat="55.900280" lon="26.529060">
<ele>119.229553</ele>
<time>2010-06-20T15:36:07Z</time>
<desc>lat.=55.900280, lon.=26.529060, Alt.=119.229553m. Speed=0.612000m/h.</desc>
<speed>0.170000</speed>
</trkpt>
<trkpt lat="55.900276" lon="26.529058">
<ele>119.231506</ele>
<time>2010-06-20T15:36:08Z</time>
<desc>lat.=55.900276, lon.=26.529058, Alt.=119.231506m. Speed=0.468000m/h.</desc>
<speed>0.130000</speed>
</trkpt>
<trkpt lat="55.900276" lon="26.529053">
<ele>119.360413</ele>
<time>2010-06-20T15:36:09Z</time>
<desc>lat.=55.900276, lon.=26.529053, Alt.=119.360413m. Speed=0.180000m/h.</desc>
<speed>0.050000</speed>
</trkpt>
<trkpt lat="55.900272" lon="26.529049">
<ele>119.454163</ele>
<time>2010-06-20T15:36:10Z</time>
<desc>lat.=55.900272, lon.=26.529049, Alt.=119.454163m. Speed=0.072000m/h.</desc>
<speed>0.020000</speed>
</trkpt>
<trkpt lat="55.900272" lon="26.529049">
<ele>119.458069</ele>
<time>2010-06-20T15:36:11Z</time>
<desc>lat.=55.900272, lon.=26.529049, Alt.=119.458069m. Speed=0.288000m/h.</desc>
<speed>0.080000</speed>
</trkpt>
<trkpt lat="55.900272" lon="26.529049">
<ele>119.461975</ele>
<time>2010-06-20T15:36:12Z</time>
<desc>lat.=55.900272, lon.=26.529049, Alt.=119.461975m. Speed=0.648000m/h.</desc>
<speed>0.180000</speed>
</trkpt>
<trkpt lat="55.900269" lon="26.529047">
<ele>119.465881</ele>
<time>2010-06-20T15:36:13Z</time>
<desc>lat.=55.900269, lon.=26.529047, Alt.=119.465881m. Speed=0.576000m/h.</desc>
<speed>0.160000</speed>
</trkpt>
<trkpt lat="55.900269" lon="26.529051">
<ele>119.471741</ele>
<time>2010-06-20T15:36:14Z</time>
<desc>lat.=55.900269, lon.=26.529051, Alt.=119.471741m. Speed=0.972000m/h.</desc>
<speed>0.270000</speed>
</trkpt>
<trkpt lat="55.900269" lon="26.529055">
<ele>119.475647</ele>
<time>2010-06-20T15:36:15Z</time>
<desc>lat.=55.900269, lon.=26.529055, Alt.=119.475647m. Speed=1.008000m/h.</desc>
<speed>0.280000</speed>
</trkpt>
<trkpt lat="55.900265" lon="26.529057">
<ele>119.477600</ele>
<time>2010-06-20T15:36:16Z</time>
<desc>lat.=55.900265, lon.=26.529057, Alt.=119.477600m. Speed=0.684000m/h.</desc>
<speed>0.190000</speed>
</trkpt>
<trkpt lat="55.900265" lon="26.529060">
<ele>119.481506</ele>
<time>2010-06-20T15:36:17Z</time>
<desc>lat.=55.900265, lon.=26.529060, Alt.=119.481506m. Speed=0.612000m/h.</desc>
<speed>0.170000</speed>
</trkpt>
<trkpt lat="55.900265" lon="26.529062">
<ele>119.483459</ele>
<time>2010-06-20T15:36:18Z</time>
<desc>lat.=55.900265, lon.=26.529062, Alt.=119.483459m. Speed=0.612000m/h.</desc>
<speed>0.170000</speed>
</trkpt>
<trkpt lat="55.900265" lon="26.529064">
<ele>119.485413</ele>
<time>2010-06-20T15:36:19Z</time>
<desc>lat.=55.900265, lon.=26.529064, Alt.=119.485413m. Speed=0.540000m/h.</desc>
<speed>0.150000</speed>
</trkpt>
<trkpt lat="55.900269" lon="26.529066">
<ele>119.485413</ele>
<time>2010-06-20T15:36:20Z</time>
<desc>lat.=55.900269, lon.=26.529066, Alt.=119.485413m. Speed=0.612000m/h.</desc>
<speed>0.170000</speed>
</trkpt>
<trkpt lat="55.900269" lon="26.529070">
<ele>119.487366</ele>
<time>2010-06-20T15:36:21Z</time>
<desc>lat.=55.900269, lon.=26.529070, Alt.=119.487366m. Speed=1.224000m/h.</desc>
<speed>0.340000</speed>
</trkpt>
<trkpt lat="55.900272" lon="26.529078">
<ele>119.602600</ele>
<time>2010-06-20T15:36:22Z</time>
<desc>lat.=55.900272, lon.=26.529078, Alt.=119.602600m. Speed=1.692000m/h.</desc>
<speed>0.470000</speed>
</trkpt>
<trkpt lat="55.900276" lon="26.529089">
<ele>119.768616</ele>
<time>2010-06-20T15:36:23Z</time>
<desc>lat.=55.900276, lon.=26.529089, Alt.=119.768616m. Speed=2.340000m/h.</desc>
<speed>0.650000</speed>
</trkpt>
<trkpt lat="55.900276" lon="26.529079">
<ele>119.872131</ele>
<time>2010-06-20T15:36:24Z</time>
<desc>lat.=55.900276, lon.=26.529079, Alt.=119.872131m. Speed=1.980000m/h.</desc>
<speed>0.550000</speed>
</trkpt>
<trkpt lat="55.900280" lon="26.529070">
<ele>119.829163</ele>
<time>2010-06-20T15:36:25Z</time>
<desc>lat.=55.900280, lon.=26.529070, Alt.=119.829163m. Speed=1.908000m/h.</desc>
<speed>0.530000</speed>
</trkpt>
<trkpt lat="55.900280" lon="26.529055">
<ele>119.674866</ele>
<time>2010-06-20T15:36:26Z</time>
<desc>lat.=55.900280, lon.=26.529055, Alt.=119.674866m. Speed=1.404000m/h.</desc>
<speed>0.390000</speed>
</trkpt>
<trkpt lat="55.900280" lon="26.529041">
<ele>119.579163</ele>
<time>2010-06-20T15:36:27Z</time>
<desc>lat.=55.900280, lon.=26.529041, Alt.=119.579163m. Speed=0.972000m/h.</desc>
<speed>0.270000</speed>
</trkpt>
<trkpt lat="55.900280" lon="26.529020">
<ele>119.493225</ele>
<time>2010-06-20T15:36:28Z</time>
<desc>lat.=55.900280, lon.=26.529020, Alt.=119.493225m. Speed=1.152000m/h.</desc>
<speed>0.320000</speed>
</trkpt>
<trkpt lat="55.900272" lon="26.529009">
<ele>119.364319</ele>
<time>2010-06-20T15:36:29Z</time>
<desc>lat.=55.900272, lon.=26.529009, Alt.=119.364319m. Speed=0.900000m/h.</desc>
<speed>0.250000</speed>
</trkpt>
<trkpt lat="55.900269" lon="26.529015">
<ele>119.245178</ele>
<time>2010-06-20T15:36:30Z</time>
<desc>lat.=55.900269, lon.=26.529015, Alt.=119.245178m. Speed=0.180000m/h.</desc>
<speed>0.050000</speed>
</trkpt>
<trkpt lat="55.900265" lon="26.529013">
<ele>119.012756</ele>
<time>2010-06-20T15:36:31Z</time>
<desc>lat.=55.900265, lon.=26.529013, Alt.=119.012756m. Speed=0.324000m/h.</desc>
<speed>0.090000</speed>
</trkpt>
<trkpt lat="55.900265" lon="26.529011">
<ele>118.741272</ele>
<time>2010-06-20T15:36:32Z</time>
<desc>lat.=55.900265, lon.=26.529011, Alt.=118.741272m. Speed=0.000000m/h.</desc>
<speed>0.000000</speed>
</trkpt>
<trkpt lat="55.900265" lon="26.529011">
<ele>118.733459</ele>
<time>2010-06-20T15:36:33Z</time>
<desc>lat.=55.900265, lon.=26.529011, Alt.=118.733459m. Speed=0.216000m/h.</desc>
<speed>0.060000</speed>
</trkpt>
<trkpt lat="55.900265" lon="26.529011">
<ele>118.727600</ele>
<time>2010-06-20T15:36:34Z</time>
<desc>lat.=55.900265, lon.=26.529011, Alt.=118.727600m. Speed=0.144000m/h.</desc>
<speed>0.040000</speed>
</trkpt>
<trkpt lat="55.900265" lon="26.529013">
<ele>118.725647</ele>
<time>2010-06-20T15:36:35Z</time>
<desc>lat.=55.900265, lon.=26.529013, Alt.=118.725647m. Speed=0.432000m/h.</desc>
<speed>0.120000</speed>
</trkpt>
<trkpt lat="55.900269" lon="26.529013">
<ele>118.727600</ele>
<time>2010-06-20T15:36:36Z</time>
<desc>lat.=55.900269, lon.=26.529013, Alt.=118.727600m. Speed=0.360000m/h.</desc>
<speed>0.100000</speed>
</trkpt>
<trkpt lat="55.900269" lon="26.529011">
<ele>118.717834</ele>
<time>2010-06-20T15:36:37Z</time>
<desc>lat.=55.900269, lon.=26.529011, Alt.=118.717834m. Speed=0.864000m/h.</desc>
<speed>0.240000</speed>
</trkpt>
<trkpt lat="55.900269" lon="26.529005">
<ele>118.717834</ele>
<time>2010-06-20T15:36:38Z</time>
<desc>lat.=55.900269, lon.=26.529005, Alt.=118.717834m. Speed=1.260000m/h.</desc>
<speed>0.350000</speed>
</trkpt>
<trkpt lat="55.900269" lon="26.528984">
<ele>118.713928</ele>
<time>2010-06-20T15:36:39Z</time>
<desc>lat.=55.900269, lon.=26.528984, Alt.=118.713928m. Speed=1.332000m/h.</desc>
<speed>0.370000</speed>
</trkpt>
<trkpt lat="55.900272" lon="26.528988">
<ele>118.637756</ele>
<time>2010-06-20T15:36:40Z</time>
<desc>lat.=55.900272, lon.=26.528988, Alt.=118.637756m. Speed=0.360000m/h.</desc>
<speed>0.100000</speed>
</trkpt>
<trkpt lat="55.900272" lon="26.528986">
<ele>118.641663</ele>
<time>2010-06-20T15:36:41Z</time>
<desc>lat.=55.900272, lon.=26.528986, Alt.=118.641663m. Speed=0.180000m/h.</desc>
<speed>0.050000</speed>
</trkpt>
<trkpt lat="55.900269" lon="26.528999">
<ele>118.542053</ele>
<time>2010-06-20T15:36:42Z</time>
<desc>lat.=55.900269, lon.=26.528999, Alt.=118.542053m. Speed=1.044000m/h.</desc>
<speed>0.290000</speed>
</trkpt>
<trkpt lat="55.900269" lon="26.528997">
<ele>118.495178</ele>
<time>2010-06-20T15:36:43Z</time>
<desc>lat.=55.900269, lon.=26.528997, Alt.=118.495178m. Speed=0.828000m/h.</desc>
<speed>0.230000</speed>
</trkpt>
<trkpt lat="55.900265" lon="26.529001">
<ele>118.493225</ele>
<time>2010-06-20T15:36:44Z</time>
<desc>lat.=55.900265, lon.=26.529001, Alt.=118.493225m. Speed=0.648000m/h.</desc>
<speed>0.180000</speed>
</trkpt>
<trkpt lat="55.900269" lon="26.529003">
<ele>118.487366</ele>
<time>2010-06-20T15:36:45Z</time>
<desc>lat.=55.900269, lon.=26.529003, Alt.=118.487366m. Speed=0.252000m/h.</desc>
<speed>0.070000</speed>
</trkpt>
<trkpt lat="55.900269" lon="26.529005">
<ele>118.483459</ele>
<time>2010-06-20T15:36:46Z</time>
<desc>lat.=55.900269, lon.=26.529005, Alt.=118.483459m. Speed=0.792000m/h.</desc>
<speed>0.220000</speed>
</trkpt>
<trkpt lat="55.900269" lon="26.529007">
<ele>118.481506</ele>
<time>2010-06-20T15:36:47Z</time>
<desc>lat.=55.900269, lon.=26.529007, Alt.=118.481506m. Speed=0.072000m/h.</desc>
<speed>0.020000</speed>
</trkpt>
<trkpt lat="55.900269" lon="26.529007">
<ele>118.481506</ele>
<time>2010-06-20T15:36:48Z</time>
<desc>lat.=55.900269, lon.=26.529007, Alt.=118.481506m. Speed=0.252000m/h.</desc>
<speed>0.070000</speed>
</trkpt>
<trkpt lat="55.900265" lon="26.529007">
<ele>118.481506</ele>
<time>2010-06-20T15:36:49Z</time>
<desc>lat.=55.900265, lon.=26.529007, Alt.=118.481506m. Speed=0.432000m/h.</desc>
<speed>0.120000</speed>
</trkpt>
<trkpt lat="55.900265" lon="26.529007">
<ele>118.481506</ele>
<time>2010-06-20T15:36:50Z</time>
<desc>lat.=55.900265, lon.=26.529007, Alt.=118.481506m. Speed=0.108000m/h.</desc>
<speed>0.030000</speed>
</trkpt>
<trkpt lat="55.900265" lon="26.529007">
<ele>118.479553</ele>
<time>2010-06-20T15:36:51Z</time>
<desc>lat.=55.900265, lon.=26.529007, Alt.=118.479553m. Speed=0.504000m/h.</desc>
<speed>0.140000</speed>
</trkpt>
<trkpt lat="55.900265" lon="26.529009">
<ele>118.477600</ele>
<time>2010-06-20T15:36:52Z</time>
<desc>lat.=55.900265, lon.=26.529009, Alt.=118.477600m. Speed=0.468000m/h.</desc>
<speed>0.130000</speed>
</trkpt>
<trkpt lat="55.900265" lon="26.529011">
<ele>118.477600</ele>
<time>2010-06-20T15:36:53Z</time>
<desc>lat.=55.900265, lon.=26.529011, Alt.=118.477600m. Speed=0.648000m/h.</desc>
<speed>0.180000</speed>
</trkpt>
<trkpt lat="55.900265" lon="26.529015">
<ele>118.475647</ele>
<time>2010-06-20T15:36:54Z</time>
<desc>lat.=55.900265, lon.=26.529015, Alt.=118.475647m. Speed=0.684000m/h.</desc>
<speed>0.190000</speed>
</trkpt>
<trkpt lat="55.900265" lon="26.529016">
<ele>118.475647</ele>
<time>2010-06-20T15:36:55Z</time>
<desc>lat.=55.900265, lon.=26.529016, Alt.=118.475647m. Speed=0.648000m/h.</desc>
<speed>0.180000</speed>
</trkpt>
<trkpt lat="55.900265" lon="26.529020">
<ele>118.477600</ele>
<time>2010-06-20T15:36:56Z</time>
<desc>lat.=55.900265, lon.=26.529020, Alt.=118.477600m. Speed=0.144000m/h.</desc>
<speed>0.040000</speed>
</trkpt>
<trkpt lat="55.900265" lon="26.529020">
<ele>118.477600</ele>
<time>2010-06-20T15:36:57Z</time>
<desc>lat.=55.900265, lon.=26.529020, Alt.=118.477600m. Speed=0.144000m/h.</desc>
<speed>0.040000</speed>
</trkpt>
<trkpt lat="55.900265" lon="26.529020">
<ele>118.477600</ele>
<time>2010-06-20T15:36:58Z</time>
<desc>lat.=55.900265, lon.=26.529020, Alt.=118.477600m. Speed=0.216000m/h.</desc>
<speed>0.060000</speed>
</trkpt>
<trkpt lat="55.900269" lon="26.529020">
<ele>118.475647</ele>
<time>2010-06-20T15:36:59Z</time>
<desc>lat.=55.900269, lon.=26.529020, Alt.=118.475647m. Speed=0.180000m/h.</desc>
<speed>0.050000</speed>
</trkpt>
<trkpt lat="55.900269" lon="26.529020">
<ele>118.477600</ele>
<time>2010-06-20T15:37:00Z</time>
<desc>lat.=55.900269, lon.=26.529020, Alt.=118.477600m. Speed=0.072000m/h.</desc>
<speed>0.020000</speed>
</trkpt>
<trkpt lat="55.900269" lon="26.529020">
<ele>118.473694</ele>
<time>2010-06-20T15:37:01Z</time>
<desc>lat.=55.900269, lon.=26.529020, Alt.=118.473694m. Speed=0.252000m/h.</desc>
<speed>0.070000</speed>
</trkpt>
<trkpt lat="55.900269" lon="26.529020">
<ele>118.469788</ele>
<time>2010-06-20T15:37:02Z</time>
<desc>lat.=55.900269, lon.=26.529020, Alt.=118.469788m. Speed=0.396000m/h.</desc>
<speed>0.110000</speed>
</trkpt>
<trkpt lat="55.900269" lon="26.529022">
<ele>118.465881</ele>
<time>2010-06-20T15:37:03Z</time>
<desc>lat.=55.900269, lon.=26.529022, Alt.=118.465881m. Speed=0.468000m/h.</desc>
<speed>0.130000</speed>
</trkpt>
<trkpt lat="55.900269" lon="26.529024">
<ele>118.461975</ele>
<time>2010-06-20T15:37:04Z</time>
<desc>lat.=55.900269, lon.=26.529024, Alt.=118.461975m. Speed=0.252000m/h.</desc>
<speed>0.070000</speed>
</trkpt>
<trkpt lat="55.900269" lon="26.529024">
<ele>118.460022</ele>
<time>2010-06-20T15:37:05Z</time>
<desc>lat.=55.900269, lon.=26.529024, Alt.=118.460022m. Speed=0.216000m/h.</desc>
<speed>0.060000</speed>
</trkpt>
<trkpt lat="55.900269" lon="26.529024">
<ele>118.461975</ele>
<time>2010-06-20T15:37:06Z</time>
<desc>lat.=55.900269, lon.=26.529024, Alt.=118.461975m. Speed=0.144000m/h.</desc>
<speed>0.040000</speed>
</trkpt>
<trkpt lat="55.900269" lon="26.529026">
<ele>118.461975</ele>
<time>2010-06-20T15:37:07Z</time>
<desc>lat.=55.900269, lon.=26.529026, Alt.=118.461975m. Speed=0.576000m/h.</desc>
<speed>0.160000</speed>
</trkpt>
<trkpt lat="55.900269" lon="26.529028">
<ele>118.461975</ele>
<time>2010-06-20T15:37:08Z</time>
<desc>lat.=55.900269, lon.=26.529028, Alt.=118.461975m. Speed=0.576000m/h.</desc>
<speed>0.160000</speed>
</trkpt>
<trkpt lat="55.900265" lon="26.529028">
<ele>118.460022</ele>
<time>2010-06-20T15:37:09Z</time>
<desc>lat.=55.900265, lon.=26.529028, Alt.=118.460022m. Speed=0.252000m/h.</desc>
<speed>0.070000</speed>
</trkpt>
<trkpt lat="55.900265" lon="26.529028">
<ele>118.460022</ele>
<time>2010-06-20T15:37:10Z</time>
<desc>lat.=55.900265, lon.=26.529028, Alt.=118.460022m. Speed=0.180000m/h.</desc>
<speed>0.050000</speed>
</trkpt>
<trkpt lat="55.900265" lon="26.529030">
<ele>118.460022</ele>
<time>2010-06-20T15:37:11Z</time>
<desc>lat.=55.900265, lon.=26.529030, Alt.=118.460022m. Speed=0.072000m/h.</desc>
<speed>0.020000</speed>
</trkpt>
<trkpt lat="55.900265" lon="26.529028">
<ele>118.463928</ele>
<time>2010-06-20T15:37:12Z</time>
<desc>lat.=55.900265, lon.=26.529028, Alt.=118.463928m. Speed=0.576000m/h.</desc>
<speed>0.160000</speed>
</trkpt>
<trkpt lat="55.900269" lon="26.529026">
<ele>118.467834</ele>
<time>2010-06-20T15:37:13Z</time>
<desc>lat.=55.900269, lon.=26.529026, Alt.=118.467834m. Speed=0.900000m/h.</desc>
<speed>0.250000</speed>
</trkpt>
<trkpt lat="55.900269" lon="26.529022">
<ele>118.471741</ele>
<time>2010-06-20T15:37:14Z</time>
<desc>lat.=55.900269, lon.=26.529022, Alt.=118.471741m. Speed=1.044000m/h.</desc>
<speed>0.290000</speed>
</trkpt>
<trkpt lat="55.900269" lon="26.529018">
<ele>118.477600</ele>
<time>2010-06-20T15:37:15Z</time>
<desc>lat.=55.900269, lon.=26.529018, Alt.=118.477600m. Speed=1.224000m/h.</desc>
<speed>0.340000</speed>
</trkpt>
<trkpt lat="55.900272" lon="26.529024">
<ele>118.581116</ele>
<time>2010-06-20T15:37:16Z</time>
<desc>lat.=55.900272, lon.=26.529024, Alt.=118.581116m. Speed=0.828000m/h.</desc>
<speed>0.230000</speed>
</trkpt>
<trkpt lat="55.900276" lon="26.529032">
<ele>118.629944</ele>
<time>2010-06-20T15:37:17Z</time>
<desc>lat.=55.900276, lon.=26.529032, Alt.=118.629944m. Speed=0.468000m/h.</desc>
<speed>0.130000</speed>
</trkpt>
<trkpt lat="55.900280" lon="26.529047">
<ele>118.657288</ele>
<time>2010-06-20T15:37:18Z</time>
<desc>lat.=55.900280, lon.=26.529047, Alt.=118.657288m. Speed=0.288000m/h.</desc>
<speed>0.080000</speed>
</trkpt>
<trkpt lat="55.900280" lon="26.529053">
<ele>118.821350</ele>
<time>2010-06-20T15:37:19Z</time>
<desc>lat.=55.900280, lon.=26.529053, Alt.=118.821350m. Speed=0.144000m/h.</desc>
<speed>0.040000</speed>
</trkpt>
<trkpt lat="55.900280" lon="26.529055">
<ele>118.825256</ele>
<time>2010-06-20T15:37:20Z</time>
<desc>lat.=55.900280, lon.=26.529055, Alt.=118.825256m. Speed=0.288000m/h.</desc>
<speed>0.080000</speed>
</trkpt>
<trkpt lat="55.900280" lon="26.529055">
<ele>118.829163</ele>
<time>2010-06-20T15:37:21Z</time>
<desc>lat.=55.900280, lon.=26.529055, Alt.=118.829163m. Speed=0.180000m/h.</desc>
<speed>0.050000</speed>
</trkpt>
<trkpt lat="55.900280" lon="26.529055">
<ele>118.835022</ele>
<time>2010-06-20T15:37:22Z</time>
<desc>lat.=55.900280, lon.=26.529055, Alt.=118.835022m. Speed=0.072000m/h.</desc>
<speed>0.020000</speed>
</trkpt>
<trkpt lat="55.900280" lon="26.529055">
<ele>118.838928</ele>
<time>2010-06-20T15:37:23Z</time>
<desc>lat.=55.900280, lon.=26.529055, Alt.=118.838928m. Speed=0.396000m/h.</desc>
<speed>0.110000</speed>
</trkpt>
<trkpt lat="55.900280" lon="26.529053">
<ele>118.840881</ele>
<time>2010-06-20T15:37:24Z</time>
<desc>lat.=55.900280, lon.=26.529053, Alt.=118.840881m. Speed=0.756000m/h.</desc>
<speed>0.210000</speed>
</trkpt>
<trkpt lat="55.900284" lon="26.529049">
<ele>118.844788</ele>
<time>2010-06-20T15:37:25Z</time>
<desc>lat.=55.900284, lon.=26.529049, Alt.=118.844788m. Speed=0.792000m/h.</desc>
<speed>0.220000</speed>
</trkpt>
<trkpt lat="55.900284" lon="26.529047">
<ele>118.846741</ele>
<time>2010-06-20T15:37:26Z</time>
<desc>lat.=55.900284, lon.=26.529047, Alt.=118.846741m. Speed=0.612000m/h.</desc>
<speed>0.170000</speed>
</trkpt>
<trkpt lat="55.900284" lon="26.529045">
<ele>118.850647</ele>
<time>2010-06-20T15:37:27Z</time>
<desc>lat.=55.900284, lon.=26.529045, Alt.=118.850647m. Speed=0.648000m/h.</desc>
<speed>0.180000</speed>
</trkpt>
<trkpt lat="55.900288" lon="26.529045">
<ele>118.852600</ele>
<time>2010-06-20T15:37:28Z</time>
<desc>lat.=55.900288, lon.=26.529045, Alt.=118.852600m. Speed=0.900000m/h.</desc>
<speed>0.250000</speed>
</trkpt>
<trkpt lat="55.900288" lon="26.529047">
<ele>118.856506</ele>
<time>2010-06-20T15:37:29Z</time>
<desc>lat.=55.900288, lon.=26.529047, Alt.=118.856506m. Speed=0.900000m/h.</desc>
<speed>0.250000</speed>
</trkpt>
<trkpt lat="55.900291" lon="26.529049">
<ele>118.860413</ele>
<time>2010-06-20T15:37:30Z</time>
<desc>lat.=55.900291, lon.=26.529049, Alt.=118.860413m. Speed=0.972000m/h.</desc>
<speed>0.270000</speed>
</trkpt>
<trkpt lat="55.900291" lon="26.529053">
<ele>118.866272</ele>
<time>2010-06-20T15:37:31Z</time>
<desc>lat.=55.900291, lon.=26.529053, Alt.=118.866272m. Speed=0.612000m/h.</desc>
<speed>0.170000</speed>
</trkpt>
<trkpt lat="55.900295" lon="26.529053">
<ele>118.870178</ele>
<time>2010-06-20T15:37:32Z</time>
<desc>lat.=55.900295, lon.=26.529053, Alt.=118.870178m. Speed=0.252000m/h.</desc>
<speed>0.070000</speed>
</trkpt>
<trkpt lat="55.900295" lon="26.529055">
<ele>118.876038</ele>
<time>2010-06-20T15:37:33Z</time>
<desc>lat.=55.900295, lon.=26.529055, Alt.=118.876038m. Speed=0.360000m/h.</desc>
<speed>0.100000</speed>
</trkpt>
<trkpt lat="55.900295" lon="26.529055">
<ele>118.881897</ele>
<time>2010-06-20T15:37:34Z</time>
<desc>lat.=55.900295, lon.=26.529055, Alt.=118.881897m. Speed=0.360000m/h.</desc>
<speed>0.100000</speed>
</trkpt>
<trkpt lat="55.900291" lon="26.529057">
<ele>118.887756</ele>
<time>2010-06-20T15:37:35Z</time>
<desc>lat.=55.900291, lon.=26.529057, Alt.=118.887756m. Speed=0.324000m/h.</desc>
<speed>0.090000</speed>
</trkpt>
<trkpt lat="55.900291" lon="26.529058">
<ele>118.891663</ele>
<time>2010-06-20T15:37:36Z</time>
<desc>lat.=55.900291, lon.=26.529058, Alt.=118.891663m. Speed=1.044000m/h.</desc>
<speed>0.290000</speed>
</trkpt>
<trkpt lat="55.900291" lon="26.529062">
<ele>118.893616</ele>
<time>2010-06-20T15:37:37Z</time>
<desc>lat.=55.900291, lon.=26.529062, Alt.=118.893616m. Speed=0.324000m/h.</desc>
<speed>0.090000</speed>
</trkpt>
<trkpt lat="55.900291" lon="26.529064">
<ele>118.895569</ele>
<time>2010-06-20T15:37:38Z</time>
<desc>lat.=55.900291, lon.=26.529064, Alt.=118.895569m. Speed=0.468000m/h.</desc>
<speed>0.130000</speed>
</trkpt>
<trkpt lat="55.900291" lon="26.529066">
<ele>118.897522</ele>
<time>2010-06-20T15:37:39Z</time>
<desc>lat.=55.900291, lon.=26.529066, Alt.=118.897522m. Speed=0.540000m/h.</desc>
<speed>0.150000</speed>
</trkpt>
<trkpt lat="55.900291" lon="26.529068">
<ele>118.899475</ele>
<time>2010-06-20T15:37:40Z</time>
<desc>lat.=55.900291, lon.=26.529068, Alt.=118.899475m. Speed=0.468000m/h.</desc>
<speed>0.130000</speed>
</trkpt>
<trkpt lat="55.900291" lon="26.529070">
<ele>118.899475</ele>
<time>2010-06-20T15:37:41Z</time>
<desc>lat.=55.900291, lon.=26.529070, Alt.=118.899475m. Speed=0.396000m/h.</desc>
<speed>0.110000</speed>
</trkpt>
<trkpt lat="55.900291" lon="26.529072">
<ele>118.899475</ele>
<time>2010-06-20T15:37:42Z</time>
<desc>lat.=55.900291, lon.=26.529072, Alt.=118.899475m. Speed=0.180000m/h.</desc>
<speed>0.050000</speed>
</trkpt>
<trkpt lat="55.900291" lon="26.529072">
<ele>118.899475</ele>
<time>2010-06-20T15:37:43Z</time>
<desc>lat.=55.900291, lon.=26.529072, Alt.=118.899475m. Speed=0.396000m/h.</desc>
<speed>0.110000</speed>
</trkpt>
<trkpt lat="55.900291" lon="26.529072">
<ele>118.901428</ele>
<time>2010-06-20T15:37:44Z</time>
<desc>lat.=55.900291, lon.=26.529072, Alt.=118.901428m. Speed=0.288000m/h.</desc>
<speed>0.080000</speed>
</trkpt>
<trkpt lat="55.900291" lon="26.529070">
<ele>118.907288</ele>
<time>2010-06-20T15:37:45Z</time>
<desc>lat.=55.900291, lon.=26.529070, Alt.=118.907288m. Speed=0.648000m/h.</desc>
<speed>0.180000</speed>
</trkpt>
<trkpt lat="55.900291" lon="26.529068">
<ele>118.911194</ele>
<time>2010-06-20T15:37:46Z</time>
<desc>lat.=55.900291, lon.=26.529068, Alt.=118.911194m. Speed=0.396000m/h.</desc>
<speed>0.110000</speed>
</trkpt>
<trkpt lat="55.900291" lon="26.529066">
<ele>118.913147</ele>
<time>2010-06-20T15:37:47Z</time>
<desc>lat.=55.900291, lon.=26.529066, Alt.=118.913147m. Speed=0.180000m/h.</desc>
<speed>0.050000</speed>
</trkpt>
<trkpt lat="55.900291" lon="26.529066">
<ele>118.917053</ele>
<time>2010-06-20T15:37:48Z</time>
<desc>lat.=55.900291, lon.=26.529066, Alt.=118.917053m. Speed=0.648000m/h.</desc>
<speed>0.180000</speed>
</trkpt>
<trkpt lat="55.900291" lon="26.529070">
<ele>118.919006</ele>
<time>2010-06-20T15:37:49Z</time>
<desc>lat.=55.900291, lon.=26.529070, Alt.=118.919006m. Speed=0.648000m/h.</desc>
<speed>0.180000</speed>
</trkpt>
<trkpt lat="55.900291" lon="26.529072">
<ele>118.919006</ele>
<time>2010-06-20T15:37:50Z</time>
<desc>lat.=55.900291, lon.=26.529072, Alt.=118.919006m. Speed=0.432000m/h.</desc>
<speed>0.120000</speed>
</trkpt>
<trkpt lat="55.900291" lon="26.529074">
<ele>118.919006</ele>
<time>2010-06-20T15:37:51Z</time>
<desc>lat.=55.900291, lon.=26.529074, Alt.=118.919006m. Speed=0.216000m/h.</desc>
<speed>0.060000</speed>
</trkpt>
<trkpt lat="55.900291" lon="26.529074">
<ele>118.919006</ele>
<time>2010-06-20T15:37:52Z</time>
<desc>lat.=55.900291, lon.=26.529074, Alt.=118.919006m. Speed=0.504000m/h.</desc>
<speed>0.140000</speed>
</trkpt>
<trkpt lat="55.900291" lon="26.529076">
<ele>118.917053</ele>
<time>2010-06-20T15:37:53Z</time>
<desc>lat.=55.900291, lon.=26.529076, Alt.=118.917053m. Speed=0.072000m/h.</desc>
<speed>0.020000</speed>
</trkpt>
<trkpt lat="55.900291" lon="26.529076">
<ele>118.913147</ele>
<time>2010-06-20T15:37:54Z</time>
<desc>lat.=55.900291, lon.=26.529076, Alt.=118.913147m. Speed=0.612000m/h.</desc>
<speed>0.170000</speed>
</trkpt>
<trkpt lat="55.900291" lon="26.529074">
<ele>118.909241</ele>
<time>2010-06-20T15:37:55Z</time>
<desc>lat.=55.900291, lon.=26.529074, Alt.=118.909241m. Speed=0.324000m/h.</desc>
<speed>0.090000</speed>
</trkpt>
<trkpt lat="55.900291" lon="26.529072">
<ele>118.903381</ele>
<time>2010-06-20T15:37:56Z</time>
<desc>lat.=55.900291, lon.=26.529072, Alt.=118.903381m. Speed=0.288000m/h.</desc>
<speed>0.080000</speed>
</trkpt>
<trkpt lat="55.900291" lon="26.529070">
<ele>118.897522</ele>
<time>2010-06-20T15:37:57Z</time>
<desc>lat.=55.900291, lon.=26.529070, Alt.=118.897522m. Speed=0.504000m/h.</desc>
<speed>0.140000</speed>
</trkpt>
<trkpt lat="55.900291" lon="26.529068">
<ele>118.889709</ele>
<time>2010-06-20T15:37:58Z</time>
<desc>lat.=55.900291, lon.=26.529068, Alt.=118.889709m. Speed=0.576000m/h.</desc>
<speed>0.160000</speed>
</trkpt>
<trkpt lat="55.900295" lon="26.529068">
<ele>118.879944</ele>
<time>2010-06-20T15:37:59Z</time>
<desc>lat.=55.900295, lon.=26.529068, Alt.=118.879944m. Speed=0.468000m/h.</desc>
<speed>0.130000</speed>
</trkpt>
<trkpt lat="55.900295" lon="26.529066">
<ele>118.874084</ele>
<time>2010-06-20T15:38:00Z</time>
<desc>lat.=55.900295, lon.=26.529066, Alt.=118.874084m. Speed=0.468000m/h.</desc>
<speed>0.130000</speed>
</trkpt>
<trkpt lat="55.900295" lon="26.529064">
<ele>118.868225</ele>
<time>2010-06-20T15:38:01Z</time>
<desc>lat.=55.900295, lon.=26.529064, Alt.=118.868225m. Speed=0.288000m/h.</desc>
<speed>0.080000</speed>
</trkpt>
<trkpt lat="55.900295" lon="26.529064">
<ele>118.860413</ele>
<time>2010-06-20T15:38:02Z</time>
<desc>lat.=55.900295, lon.=26.529064, Alt.=118.860413m. Speed=0.432000m/h.</desc>
<speed>0.120000</speed>
</trkpt>
<trkpt lat="55.900299" lon="26.529064">
<ele>118.854553</ele>
<time>2010-06-20T15:38:03Z</time>
<desc>lat.=55.900299, lon.=26.529064, Alt.=118.854553m. Speed=0.900000m/h.</desc>
<speed>0.250000</speed>
</trkpt>
<trkpt lat="55.900299" lon="26.529060">
<ele>118.844788</ele>
<time>2010-06-20T15:38:04Z</time>
<desc>lat.=55.900299, lon.=26.529060, Alt.=118.844788m. Speed=1.116000m/h.</desc>
<speed>0.310000</speed>
</trkpt>
<trkpt lat="55.900295" lon="26.529051">
<ele>118.536194</ele>
<time>2010-06-20T15:38:05Z</time>
<desc>lat.=55.900295, lon.=26.529051, Alt.=118.536194m. Speed=1.008000m/h.</desc>
<speed>0.280000</speed>
</trkpt>
<trkpt lat="55.900295" lon="26.529043">
<ele>118.282288</ele>
<time>2010-06-20T15:38:06Z</time>
<desc>lat.=55.900295, lon.=26.529043, Alt.=118.282288m. Speed=1.116000m/h.</desc>
<speed>0.310000</speed>
</trkpt>
<trkpt lat="55.900295" lon="26.529051">
<ele>118.106506</ele>
<time>2010-06-20T15:38:07Z</time>
<desc>lat.=55.900295, lon.=26.529051, Alt.=118.106506m. Speed=0.576000m/h.</desc>
<speed>0.160000</speed>
</trkpt>
<trkpt lat="55.900295" lon="26.529047">
<ele>117.999084</ele>
<time>2010-06-20T15:38:08Z</time>
<desc>lat.=55.900295, lon.=26.529047, Alt.=117.999084m. Speed=0.648000m/h.</desc>
<speed>0.180000</speed>
</trkpt>
<trkpt lat="55.900295" lon="26.529053">
<ele>117.811584</ele>
<time>2010-06-20T15:38:09Z</time>
<desc>lat.=55.900295, lon.=26.529053, Alt.=117.811584m. Speed=0.432000m/h.</desc>
<speed>0.120000</speed>
</trkpt>
<trkpt lat="55.900295" lon="26.529064">
<ele>117.631897</ele>
<time>2010-06-20T15:38:10Z</time>
<desc>lat.=55.900295, lon.=26.529064, Alt.=117.631897m. Speed=0.324000m/h.</desc>
<speed>0.090000</speed>
</trkpt>
<trkpt lat="55.900295" lon="26.529066">
<ele>117.626038</ele>
<time>2010-06-20T15:38:11Z</time>
<desc>lat.=55.900295, lon.=26.529066, Alt.=117.626038m. Speed=0.720000m/h.</desc>
<speed>0.200000</speed>
</trkpt>
<trkpt lat="55.900291" lon="26.529068">
<ele>117.620178</ele>
<time>2010-06-20T15:38:12Z</time>
<desc>lat.=55.900291, lon.=26.529068, Alt.=117.620178m. Speed=1.008000m/h.</desc>
<speed>0.280000</speed>
</trkpt>
<trkpt lat="55.900291" lon="26.529074">
<ele>117.616272</ele>
<time>2010-06-20T15:38:13Z</time>
<desc>lat.=55.900291, lon.=26.529074, Alt.=117.616272m. Speed=0.540000m/h.</desc>
<speed>0.150000</speed>
</trkpt>
<trkpt lat="55.900291" lon="26.529074">
<ele>117.612366</ele>
<time>2010-06-20T15:38:14Z</time>
<desc>lat.=55.900291, lon.=26.529074, Alt.=117.612366m. Speed=0.828000m/h.</desc>
<speed>0.230000</speed>
</trkpt>
<trkpt lat="55.900295" lon="26.529074">
<ele>117.606506</ele>
<time>2010-06-20T15:38:15Z</time>
<desc>lat.=55.900295, lon.=26.529074, Alt.=117.606506m. Speed=1.368000m/h.</desc>
<speed>0.380000</speed>
</trkpt>
<trkpt lat="55.900295" lon="26.529072">
<ele>117.506897</ele>
<time>2010-06-20T15:38:16Z</time>
<desc>lat.=55.900295, lon.=26.529072, Alt.=117.506897m. Speed=0.936000m/h.</desc>
<speed>0.260000</speed>
</trkpt>
<trkpt lat="55.900295" lon="26.529064">
<ele>117.434631</ele>
<time>2010-06-20T15:38:17Z</time>
<desc>lat.=55.900295, lon.=26.529064, Alt.=117.434631m. Speed=1.080000m/h.</desc>
<speed>0.300000</speed>
</trkpt>
<trkpt lat="55.900295" lon="26.529066">
<ele>117.315491</ele>
<time>2010-06-20T15:38:18Z</time>
<desc>lat.=55.900295, lon.=26.529066, Alt.=117.315491m. Speed=0.792000m/h.</desc>
<speed>0.220000</speed>
</trkpt>
<trkpt lat="55.900299" lon="26.529066">
<ele>117.274475</ele>
<time>2010-06-20T15:38:19Z</time>
<desc>lat.=55.900299, lon.=26.529066, Alt.=117.274475m. Speed=0.720000m/h.</desc>
<speed>0.200000</speed>
</trkpt>
<trkpt lat="55.900307" lon="26.529064">
<ele>117.155334</ele>
<time>2010-06-20T15:38:20Z</time>
<desc>lat.=55.900307, lon.=26.529064, Alt.=117.155334m. Speed=1.620000m/h.</desc>
<speed>0.450000</speed>
</trkpt>
<trkpt lat="55.900311" lon="26.529066">
<ele>117.135803</ele>
<time>2010-06-20T15:38:21Z</time>
<desc>lat.=55.900311, lon.=26.529066, Alt.=117.135803m. Speed=1.260000m/h.</desc>
<speed>0.350000</speed>
</trkpt>
<trkpt lat="55.900307" lon="26.529062">
<ele>117.188538</ele>
<time>2010-06-20T15:38:22Z</time>
<desc>lat.=55.900307, lon.=26.529062, Alt.=117.188538m. Speed=0.756000m/h.</desc>
<speed>0.210000</speed>
</trkpt>
<trkpt lat="55.900311" lon="26.529068">
<ele>117.190491</ele>
<time>2010-06-20T15:38:23Z</time>
<desc>lat.=55.900311, lon.=26.529068, Alt.=117.190491m. Speed=0.828000m/h.</desc>
<speed>0.230000</speed>
</trkpt>
<trkpt lat="55.900314" lon="26.529076">
<ele>117.153381</ele>
<time>2010-06-20T15:38:24Z</time>
<desc>lat.=55.900314, lon.=26.529076, Alt.=117.153381m. Speed=0.468000m/h.</desc>
<speed>0.130000</speed>
</trkpt>
<trkpt lat="55.900311" lon="26.529076">
<ele>117.237366</ele>
<time>2010-06-20T15:38:25Z</time>
<desc>lat.=55.900311, lon.=26.529076, Alt.=117.237366m. Speed=0.288000m/h.</desc>
<speed>0.080000</speed>
</trkpt>
<trkpt lat="55.900311" lon="26.529076">
<ele>117.237366</ele>
<time>2010-06-20T15:38:26Z</time>
<desc>lat.=55.900311, lon.=26.529076, Alt.=117.237366m. Speed=0.072000m/h.</desc>
<speed>0.020000</speed>
</trkpt>
<trkpt lat="55.900311" lon="26.529076">
<ele>117.239319</ele>
<time>2010-06-20T15:38:27Z</time>
<desc>lat.=55.900311, lon.=26.529076, Alt.=117.239319m. Speed=0.324000m/h.</desc>
<speed>0.090000</speed>
</trkpt>
<trkpt lat="55.900311" lon="26.529074">
<ele>117.243225</ele>
<time>2010-06-20T15:38:28Z</time>
<desc>lat.=55.900311, lon.=26.529074, Alt.=117.243225m. Speed=0.432000m/h.</desc>
<speed>0.120000</speed>
</trkpt>
<trkpt lat="55.900314" lon="26.529072">
<ele>117.243225</ele>
<time>2010-06-20T15:38:29Z</time>
<desc>lat.=55.900314, lon.=26.529072, Alt.=117.243225m. Speed=0.864000m/h.</desc>
<speed>0.240000</speed>
</trkpt>
<trkpt lat="55.900314" lon="26.529072">
<ele>117.243225</ele>
<time>2010-06-20T15:38:30Z</time>
<desc>lat.=55.900314, lon.=26.529072, Alt.=117.243225m. Speed=0.324000m/h.</desc>
<speed>0.090000</speed>
</trkpt>
<trkpt lat="55.900314" lon="26.529070">
<ele>117.241272</ele>
<time>2010-06-20T15:38:31Z</time>
<desc>lat.=55.900314, lon.=26.529070, Alt.=117.241272m. Speed=0.216000m/h.</desc>
<speed>0.060000</speed>
</trkpt>
<trkpt lat="55.900314" lon="26.529070">
<ele>117.239319</ele>
<time>2010-06-20T15:38:32Z</time>
<desc>lat.=55.900314, lon.=26.529070, Alt.=117.239319m. Speed=0.108000m/h.</desc>
<speed>0.030000</speed>
</trkpt>
<trkpt lat="55.900318" lon="26.529070">
<ele>117.237366</ele>
<time>2010-06-20T15:38:33Z</time>
<desc>lat.=55.900318, lon.=26.529070, Alt.=117.237366m. Speed=0.756000m/h.</desc>
<speed>0.210000</speed>
</trkpt>
<trkpt lat="55.900314" lon="26.529068">
<ele>117.239319</ele>
<time>2010-06-20T15:38:34Z</time>
<desc>lat.=55.900314, lon.=26.529068, Alt.=117.239319m. Speed=0.432000m/h.</desc>
<speed>0.120000</speed>
</trkpt>
<trkpt lat="55.900314" lon="26.529070">
<ele>117.239319</ele>
<time>2010-06-20T15:38:35Z</time>
<desc>lat.=55.900314, lon.=26.529070, Alt.=117.239319m. Speed=0.468000m/h.</desc>
<speed>0.130000</speed>
</trkpt>
<trkpt lat="55.900314" lon="26.529072">
<ele>117.239319</ele>
<time>2010-06-20T15:38:36Z</time>
<desc>lat.=55.900314, lon.=26.529072, Alt.=117.239319m. Speed=0.864000m/h.</desc>
<speed>0.240000</speed>
</trkpt>
<trkpt lat="55.900314" lon="26.529076">
<ele>117.239319</ele>
<time>2010-06-20T15:38:37Z</time>
<desc>lat.=55.900314, lon.=26.529076, Alt.=117.239319m. Speed=0.648000m/h.</desc>
<speed>0.180000</speed>
</trkpt>
<trkpt lat="55.900314" lon="26.529079">
<ele>117.239319</ele>
<time>2010-06-20T15:38:38Z</time>
<desc>lat.=55.900314, lon.=26.529079, Alt.=117.239319m. Speed=0.540000m/h.</desc>
<speed>0.150000</speed>
</trkpt>
<trkpt lat="55.900314" lon="26.529081">
<ele>117.239319</ele>
<time>2010-06-20T15:38:39Z</time>
<desc>lat.=55.900314, lon.=26.529081, Alt.=117.239319m. Speed=1.188000m/h.</desc>
<speed>0.330000</speed>
</trkpt>
<trkpt lat="55.900311" lon="26.529085">
<ele>117.292053</ele>
<time>2010-06-20T15:38:40Z</time>
<desc>lat.=55.900311, lon.=26.529085, Alt.=117.292053m. Speed=1.440000m/h.</desc>
<speed>0.400000</speed>
</trkpt>
<trkpt lat="55.900311" lon="26.529085">
<ele>117.290100</ele>
<time>2010-06-20T15:38:41Z</time>
<desc>lat.=55.900311, lon.=26.529085, Alt.=117.290100m. Speed=1.260000m/h.</desc>
<speed>0.350000</speed>
</trkpt>
<trkpt lat="55.900307" lon="26.529083">
<ele>117.309631</ele>
<time>2010-06-20T15:38:42Z</time>
<desc>lat.=55.900307, lon.=26.529083, Alt.=117.309631m. Speed=1.044000m/h.</desc>
<speed>0.290000</speed>
</trkpt>
<trkpt lat="55.900314" lon="26.529076">
<ele>117.278381</ele>
<time>2010-06-20T15:38:43Z</time>
<desc>lat.=55.900314, lon.=26.529076, Alt.=117.278381m. Speed=0.648000m/h.</desc>
<speed>0.180000</speed>
</trkpt>
<trkpt lat="55.900326" lon="26.529072">
<ele>117.237366</ele>
<time>2010-06-20T15:38:44Z</time>
<desc>lat.=55.900326, lon.=26.529072, Alt.=117.237366m. Speed=0.396000m/h.</desc>
<speed>0.110000</speed>
</trkpt>
<trkpt lat="55.900330" lon="26.529058">
<ele>117.219788</ele>
<time>2010-06-20T15:38:45Z</time>
<desc>lat.=55.900330, lon.=26.529058, Alt.=117.219788m. Speed=0.576000m/h.</desc>
<speed>0.160000</speed>
</trkpt>
<trkpt lat="55.900330" lon="26.529057">
<ele>117.217834</ele>
<time>2010-06-20T15:38:46Z</time>
<desc>lat.=55.900330, lon.=26.529057, Alt.=117.217834m. Speed=0.576000m/h.</desc>
<speed>0.160000</speed>
</trkpt>
<trkpt lat="55.900333" lon="26.529057">
<ele>117.213928</ele>
<time>2010-06-20T15:38:47Z</time>
<desc>lat.=55.900333, lon.=26.529057, Alt.=117.213928m. Speed=0.648000m/h.</desc>
<speed>0.180000</speed>
</trkpt>
<trkpt lat="55.900333" lon="26.529055">
<ele>117.211975</ele>
<time>2010-06-20T15:38:48Z</time>
<desc>lat.=55.900333, lon.=26.529055, Alt.=117.211975m. Speed=0.288000m/h.</desc>
<speed>0.080000</speed>
</trkpt>
<trkpt lat="55.900333" lon="26.529057">
<ele>117.211975</ele>
<time>2010-06-20T15:38:49Z</time>
<desc>lat.=55.900333, lon.=26.529057, Alt.=117.211975m. Speed=0.072000m/h.</desc>
<speed>0.020000</speed>
</trkpt>
<trkpt lat="55.900333" lon="26.529055">
<ele>117.213928</ele>
<time>2010-06-20T15:38:50Z</time>
<desc>lat.=55.900333, lon.=26.529055, Alt.=117.213928m. Speed=0.648000m/h.</desc>
<speed>0.180000</speed>
</trkpt>
<trkpt lat="55.900333" lon="26.529055">
<ele>117.213928</ele>
<time>2010-06-20T15:38:51Z</time>
<desc>lat.=55.900333, lon.=26.529055, Alt.=117.213928m. Speed=0.720000m/h.</desc>
<speed>0.200000</speed>
</trkpt>
<trkpt lat="55.900330" lon="26.529055">
<ele>117.213928</ele>
<time>2010-06-20T15:38:52Z</time>
<desc>lat.=55.900330, lon.=26.529055, Alt.=117.213928m. Speed=0.720000m/h.</desc>
<speed>0.200000</speed>
</trkpt>
<trkpt lat="55.900330" lon="26.529053">
<ele>117.215881</ele>
<time>2010-06-20T15:38:53Z</time>
<desc>lat.=55.900330, lon.=26.529053, Alt.=117.215881m. Speed=0.648000m/h.</desc>
<speed>0.180000</speed>
</trkpt>
<trkpt lat="55.900330" lon="26.529053">
<ele>117.213928</ele>
<time>2010-06-20T15:38:54Z</time>
<desc>lat.=55.900330, lon.=26.529053, Alt.=117.213928m. Speed=0.252000m/h.</desc>
<speed>0.070000</speed>
</trkpt>
<trkpt lat="55.900330" lon="26.529053">
<ele>117.215881</ele>
<time>2010-06-20T15:38:55Z</time>
<desc>lat.=55.900330, lon.=26.529053, Alt.=117.215881m. Speed=0.900000m/h.</desc>
<speed>0.250000</speed>
</trkpt>
<trkpt lat="55.900330" lon="26.529049">
<ele>117.213928</ele>
<time>2010-06-20T15:38:56Z</time>
<desc>lat.=55.900330, lon.=26.529049, Alt.=117.213928m. Speed=0.864000m/h.</desc>
<speed>0.240000</speed>
</trkpt>
<trkpt lat="55.900330" lon="26.529047">
<ele>117.213928</ele>
<time>2010-06-20T15:38:57Z</time>
<desc>lat.=55.900330, lon.=26.529047, Alt.=117.213928m. Speed=0.288000m/h.</desc>
<speed>0.080000</speed>
</trkpt>
<trkpt lat="55.900330" lon="26.529047">
<ele>117.217834</ele>
<time>2010-06-20T15:38:58Z</time>
<desc>lat.=55.900330, lon.=26.529047, Alt.=117.217834m. Speed=0.828000m/h.</desc>
<speed>0.230000</speed>
</trkpt>
<trkpt lat="55.900330" lon="26.529051">
<ele>117.219788</ele>
<time>2010-06-20T15:38:59Z</time>
<desc>lat.=55.900330, lon.=26.529051, Alt.=117.219788m. Speed=1.476000m/h.</desc>
<speed>0.410000</speed>
</trkpt>
<trkpt lat="55.900333" lon="26.529051">
<ele>117.190491</ele>
<time>2010-06-20T15:39:00Z</time>
<desc>lat.=55.900333, lon.=26.529051, Alt.=117.190491m. Speed=0.864000m/h.</desc>
<speed>0.240000</speed>
</trkpt>
<trkpt lat="55.900333" lon="26.529060">
<ele>117.159241</ele>
<time>2010-06-20T15:39:01Z</time>
<desc>lat.=55.900333, lon.=26.529060, Alt.=117.159241m. Speed=1.260000m/h.</desc>
<speed>0.350000</speed>
</trkpt>
<trkpt lat="55.900330" lon="26.529060">
<ele>117.092834</ele>
<time>2010-06-20T15:39:02Z</time>
<desc>lat.=55.900330, lon.=26.529060, Alt.=117.092834m. Speed=0.972000m/h.</desc>
<speed>0.270000</speed>
</trkpt>
<trkpt lat="55.900326" lon="26.529068">
<ele>117.057678</ele>
<time>2010-06-20T15:39:03Z</time>
<desc>lat.=55.900326, lon.=26.529068, Alt.=117.057678m. Speed=1.512000m/h.</desc>
<speed>0.420000</speed>
</trkpt>
<trkpt lat="55.900326" lon="26.529066">
<ele>116.965881</ele>
<time>2010-06-20T15:39:04Z</time>
<desc>lat.=55.900326, lon.=26.529066, Alt.=116.965881m. Speed=1.152000m/h.</desc>
<speed>0.320000</speed>
</trkpt>
<trkpt lat="55.900322" lon="26.529057">
<ele>116.778381</ele>
<time>2010-06-20T15:39:05Z</time>
<desc>lat.=55.900322, lon.=26.529057, Alt.=116.778381m. Speed=0.540000m/h.</desc>
<speed>0.150000</speed>
</trkpt>
<trkpt lat="55.900314" lon="26.529055">
<ele>116.641663</ele>
<time>2010-06-20T15:39:06Z</time>
<desc>lat.=55.900314, lon.=26.529055, Alt.=116.641663m. Speed=0.576000m/h.</desc>
<speed>0.160000</speed>
</trkpt>
<trkpt lat="55.900311" lon="26.529037">
<ele>116.436584</ele>
<time>2010-06-20T15:39:07Z</time>
<desc>lat.=55.900311, lon.=26.529037, Alt.=116.436584m. Speed=0.252000m/h.</desc>
<speed>0.070000</speed>
</trkpt>
<trkpt lat="55.900307" lon="26.529043">
<ele>116.374084</ele>
<time>2010-06-20T15:39:08Z</time>
<desc>lat.=55.900307, lon.=26.529043, Alt.=116.374084m. Speed=0.936000m/h.</desc>
<speed>0.260000</speed>
</trkpt>
<trkpt lat="55.900303" lon="26.529045">
<ele>116.370178</ele>
<time>2010-06-20T15:39:09Z</time>
<desc>lat.=55.900303, lon.=26.529045, Alt.=116.370178m. Speed=1.476000m/h.</desc>
<speed>0.410000</speed>
</trkpt>
<trkpt lat="55.900295" lon="26.529060">
<ele>116.210022</ele>
<time>2010-06-20T15:39:10Z</time>
<desc>lat.=55.900295, lon.=26.529060, Alt.=116.210022m. Speed=2.232000m/h.</desc>
<speed>0.620000</speed>
</trkpt>
<trkpt lat="55.900295" lon="26.529076">
<ele>116.086975</ele>
<time>2010-06-20T15:39:11Z</time>
<desc>lat.=55.900295, lon.=26.529076, Alt.=116.086975m. Speed=2.196000m/h.</desc>
<speed>0.610000</speed>
</trkpt>
<trkpt lat="55.900295" lon="26.529083">
<ele>115.965881</ele>
<time>2010-06-20T15:39:12Z</time>
<desc>lat.=55.900295, lon.=26.529083, Alt.=115.965881m. Speed=1.620000m/h.</desc>
<speed>0.450000</speed>
</trkpt>
<trkpt lat="55.900291" lon="26.529085">
<ele>115.887756</ele>
<time>2010-06-20T15:39:13Z</time>
<desc>lat.=55.900291, lon.=26.529085, Alt.=115.887756m. Speed=1.368000m/h.</desc>
<speed>0.380000</speed>
</trkpt>
<trkpt lat="55.900291" lon="26.529091">
<ele>115.936584</ele>
<time>2010-06-20T15:39:14Z</time>
<desc>lat.=55.900291, lon.=26.529091, Alt.=115.936584m. Speed=1.404000m/h.</desc>
<speed>0.390000</speed>
</trkpt>
<trkpt lat="55.900288" lon="26.529083">
<ele>115.961975</ele>
<time>2010-06-20T15:39:15Z</time>
<desc>lat.=55.900288, lon.=26.529083, Alt.=115.961975m. Speed=1.044000m/h.</desc>
<speed>0.290000</speed>
</trkpt>
<trkpt lat="55.900288" lon="26.529085">
<ele>116.028381</ele>
<time>2010-06-20T15:39:16Z</time>
<desc>lat.=55.900288, lon.=26.529085, Alt.=116.028381m. Speed=0.972000m/h.</desc>
<speed>0.270000</speed>
</trkpt>
<trkpt lat="55.900284" lon="26.529076">
<ele>116.034241</ele>
<time>2010-06-20T15:39:17Z</time>
<desc>lat.=55.900284, lon.=26.529076, Alt.=116.034241m. Speed=0.828000m/h.</desc>
<speed>0.230000</speed>
</trkpt>
<trkpt lat="55.900284" lon="26.529076">
<ele>116.055725</ele>
<time>2010-06-20T15:39:18Z</time>
<desc>lat.=55.900284, lon.=26.529076, Alt.=116.055725m. Speed=0.828000m/h.</desc>
<speed>0.230000</speed>
</trkpt>
<trkpt lat="55.900280" lon="26.529078">
<ele>116.055725</ele>
<time>2010-06-20T15:39:19Z</time>
<desc>lat.=55.900280, lon.=26.529078, Alt.=116.055725m. Speed=1.512000m/h.</desc>
<speed>0.420000</speed>
</trkpt>
<trkpt lat="55.900272" lon="26.529081">
<ele>116.004944</ele>
<time>2010-06-20T15:39:20Z</time>
<desc>lat.=55.900272, lon.=26.529081, Alt.=116.004944m. Speed=1.512000m/h.</desc>
<speed>0.420000</speed>
</trkpt>
<trkpt lat="55.900257" lon="26.529095">
<ele>115.932678</ele>
<time>2010-06-20T15:39:21Z</time>
<desc>lat.=55.900257, lon.=26.529095, Alt.=115.932678m. Speed=1.944000m/h.</desc>
<speed>0.540000</speed>
</trkpt>
<trkpt lat="55.900253" lon="26.529100">
<ele>115.885803</ele>
<time>2010-06-20T15:39:22Z</time>
<desc>lat.=55.900253, lon.=26.529100, Alt.=115.885803m. Speed=1.764000m/h.</desc>
<speed>0.490000</speed>
</trkpt>
<trkpt lat="55.900253" lon="26.529110">
<ele>115.889709</ele>
<time>2010-06-20T15:39:23Z</time>
<desc>lat.=55.900253, lon.=26.529110, Alt.=115.889709m. Speed=1.512000m/h.</desc>
<speed>0.420000</speed>
</trkpt>
<trkpt lat="55.900257" lon="26.529116">
<ele>115.885803</ele>
<time>2010-06-20T15:39:24Z</time>
<desc>lat.=55.900257, lon.=26.529116, Alt.=115.885803m. Speed=1.368000m/h.</desc>
<speed>0.380000</speed>
</trkpt>
<trkpt lat="55.900265" lon="26.529110">
<ele>115.897522</ele>
<time>2010-06-20T15:39:25Z</time>
<desc>lat.=55.900265, lon.=26.529110, Alt.=115.897522m. Speed=1.188000m/h.</desc>
<speed>0.330000</speed>
</trkpt>
<trkpt lat="55.900265" lon="26.529104">
<ele>115.954163</ele>
<time>2010-06-20T15:39:26Z</time>
<desc>lat.=55.900265, lon.=26.529104, Alt.=115.954163m. Speed=0.900000m/h.</desc>
<speed>0.250000</speed>
</trkpt>
<trkpt lat="55.900272" lon="26.529099">
<ele>116.045959</ele>
<time>2010-06-20T15:39:27Z</time>
<desc>lat.=55.900272, lon.=26.529099, Alt.=116.045959m. Speed=1.152000m/h.</desc>
<speed>0.320000</speed>
</trkpt>
<trkpt lat="55.900272" lon="26.529099">
<ele>116.081116</ele>
<time>2010-06-20T15:39:28Z</time>
<desc>lat.=55.900272, lon.=26.529099, Alt.=116.081116m. Speed=0.828000m/h.</desc>
<speed>0.230000</speed>
</trkpt>
<trkpt lat="55.900269" lon="26.529110">
<ele>116.096741</ele>
<time>2010-06-20T15:39:29Z</time>
<desc>lat.=55.900269, lon.=26.529110, Alt.=116.096741m. Speed=1.152000m/h.</desc>
<speed>0.320000</speed>
</trkpt>
<trkpt lat="55.900272" lon="26.529091">
<ele>116.137756</ele>
<time>2010-06-20T15:39:30Z</time>
<desc>lat.=55.900272, lon.=26.529091, Alt.=116.137756m. Speed=0.576000m/h.</desc>
<speed>0.160000</speed>
</trkpt>
<trkpt lat="55.900276" lon="26.529085">
<ele>116.159241</ele>
<time>2010-06-20T15:39:31Z</time>
<desc>lat.=55.900276, lon.=26.529085, Alt.=116.159241m. Speed=0.576000m/h.</desc>
<speed>0.160000</speed>
</trkpt>
<trkpt lat="55.900272" lon="26.529087">
<ele>116.245178</ele>
<time>2010-06-20T15:39:32Z</time>
<desc>lat.=55.900272, lon.=26.529087, Alt.=116.245178m. Speed=0.792000m/h.</desc>
<speed>0.220000</speed>
</trkpt>
<trkpt lat="55.900265" lon="26.529104">
<ele>116.288147</ele>
<time>2010-06-20T15:39:33Z</time>
<desc>lat.=55.900265, lon.=26.529104, Alt.=116.288147m. Speed=1.368000m/h.</desc>
<speed>0.380000</speed>
</trkpt>
<trkpt lat="55.900257" lon="26.529123">
<ele>116.364319</ele>
<time>2010-06-20T15:39:34Z</time>
<desc>lat.=55.900257, lon.=26.529123, Alt.=116.364319m. Speed=1.944000m/h.</desc>
<speed>0.540000</speed>
</trkpt>
<trkpt lat="55.900253" lon="26.529146">
<ele>116.450256</ele>
<time>2010-06-20T15:39:35Z</time>
<desc>lat.=55.900253, lon.=26.529146, Alt.=116.450256m. Speed=2.520000m/h.</desc>
<speed>0.700000</speed>
</trkpt>
<trkpt lat="55.900246" lon="26.529161">
<ele>116.547913</ele>
<time>2010-06-20T15:39:36Z</time>
<desc>lat.=55.900246, lon.=26.529161, Alt.=116.547913m. Speed=2.736000m/h.</desc>
<speed>0.760000</speed>
</trkpt>
<trkpt lat="55.900242" lon="26.529181">
<ele>116.567444</ele>
<time>2010-06-20T15:39:37Z</time>
<desc>lat.=55.900242, lon.=26.529181, Alt.=116.567444m. Speed=2.952000m/h.</desc>
<speed>0.820000</speed>
</trkpt>
<trkpt lat="55.900234" lon="26.529221">
<ele>116.555725</ele>
<time>2010-06-20T15:39:38Z</time>
<desc>lat.=55.900234, lon.=26.529221, Alt.=116.555725m. Speed=3.600000m/h.</desc>
<speed>1.000000</speed>
</trkpt>
<trkpt lat="55.900227" lon="26.529242">
<ele>116.549866</ele>
<time>2010-06-20T15:39:39Z</time>
<desc>lat.=55.900227, lon.=26.529242, Alt.=116.549866m. Speed=3.636000m/h.</desc>
<speed>1.010000</speed>
</trkpt>
<trkpt lat="55.900227" lon="26.529259">
<ele>116.561584</ele>
<time>2010-06-20T15:39:40Z</time>
<desc>lat.=55.900227, lon.=26.529259, Alt.=116.561584m. Speed=3.564000m/h.</desc>
<speed>0.990000</speed>
</trkpt>
<trkpt lat="55.900230" lon="26.529243">
<ele>116.555725</ele>
<time>2010-06-20T15:39:41Z</time>
<desc>lat.=55.900230, lon.=26.529243, Alt.=116.555725m. Speed=2.664000m/h.</desc>
<speed>0.740000</speed>
</trkpt>
<trkpt lat="55.900227" lon="26.529263">
<ele>116.555725</ele>
<time>2010-06-20T15:39:42Z</time>
<desc>lat.=55.900227, lon.=26.529263, Alt.=116.555725m. Speed=3.024000m/h.</desc>
<speed>0.840000</speed>
</trkpt>
<trkpt lat="55.900223" lon="26.529280">
<ele>116.563538</ele>
<time>2010-06-20T15:39:43Z</time>
<desc>lat.=55.900223, lon.=26.529280, Alt.=116.563538m. Speed=3.204000m/h.</desc>
<speed>0.890000</speed>
</trkpt>
<trkpt lat="55.900215" lon="26.529287">
<ele>116.561584</ele>
<time>2010-06-20T15:39:44Z</time>
<desc>lat.=55.900215, lon.=26.529287, Alt.=116.561584m. Speed=3.132000m/h.</desc>
<speed>0.870000</speed>
</trkpt>
<trkpt lat="55.900211" lon="26.529301">
<ele>116.563538</ele>
<time>2010-06-20T15:39:45Z</time>
<desc>lat.=55.900211, lon.=26.529301, Alt.=116.563538m. Speed=2.484000m/h.</desc>
<speed>0.690000</speed>
</trkpt>
<trkpt lat="55.900215" lon="26.529316">
<ele>116.577209</ele>
<time>2010-06-20T15:39:46Z</time>
<desc>lat.=55.900215, lon.=26.529316, Alt.=116.577209m. Speed=2.700000m/h.</desc>
<speed>0.750000</speed>
</trkpt>
<trkpt lat="55.900215" lon="26.529329">
<ele>116.577209</ele>
<time>2010-06-20T15:39:47Z</time>
<desc>lat.=55.900215, lon.=26.529329, Alt.=116.577209m. Speed=2.160000m/h.</desc>
<speed>0.600000</speed>
</trkpt>
<trkpt lat="55.900215" lon="26.529339">
<ele>116.579163</ele>
<time>2010-06-20T15:39:48Z</time>
<desc>lat.=55.900215, lon.=26.529339, Alt.=116.579163m. Speed=2.160000m/h.</desc>
<speed>0.600000</speed>
</trkpt>
<trkpt lat="55.900215" lon="26.529343">
<ele>116.581116</ele>
<time>2010-06-20T15:39:49Z</time>
<desc>lat.=55.900215, lon.=26.529343, Alt.=116.581116m. Speed=1.764000m/h.</desc>
<speed>0.490000</speed>
</trkpt>
<trkpt lat="55.900215" lon="26.529356">
<ele>116.592834</ele>
<time>2010-06-20T15:39:50Z</time>
<desc>lat.=55.900215, lon.=26.529356, Alt.=116.592834m. Speed=1.872000m/h.</desc>
<speed>0.520000</speed>
</trkpt>
<trkpt lat="55.900219" lon="26.529369">
<ele>116.604553</ele>
<time>2010-06-20T15:39:51Z</time>
<desc>lat.=55.900219, lon.=26.529369, Alt.=116.604553m. Speed=2.196000m/h.</desc>
<speed>0.610000</speed>
</trkpt>
<trkpt lat="55.900223" lon="26.529367">
<ele>116.604553</ele>
<time>2010-06-20T15:39:52Z</time>
<desc>lat.=55.900223, lon.=26.529367, Alt.=116.604553m. Speed=2.232000m/h.</desc>
<speed>0.620000</speed>
</trkpt>
<trkpt lat="55.900227" lon="26.529367">
<ele>116.618225</ele>
<time>2010-06-20T15:39:53Z</time>
<desc>lat.=55.900227, lon.=26.529367, Alt.=116.618225m. Speed=2.088000m/h.</desc>
<speed>0.580000</speed>
</trkpt>
<trkpt lat="55.900223" lon="26.529379">
<ele>116.624084</ele>
<time>2010-06-20T15:39:54Z</time>
<desc>lat.=55.900223, lon.=26.529379, Alt.=116.624084m. Speed=2.016000m/h.</desc>
<speed>0.560000</speed>
</trkpt>
<trkpt lat="55.900257" lon="26.529327">
<ele>116.012756</ele>
<time>2010-06-20T15:39:55Z</time>
<desc>lat.=55.900257, lon.=26.529327, Alt.=116.012756m. Speed=1.548000m/h.</desc>
<speed>0.430000</speed>
</trkpt>
<trkpt lat="55.900265" lon="26.529305">
<ele>115.690491</ele>
<time>2010-06-20T15:39:56Z</time>
<desc>lat.=55.900265, lon.=26.529305, Alt.=115.690491m. Speed=1.116000m/h.</desc>
<speed>0.310000</speed>
</trkpt>
<trkpt lat="55.900272" lon="26.529297">
<ele>115.684631</ele>
<time>2010-06-20T15:39:57Z</time>
<desc>lat.=55.900272, lon.=26.529297, Alt.=115.684631m. Speed=1.008000m/h.</desc>
<speed>0.280000</speed>
</trkpt>
<trkpt lat="55.900269" lon="26.529282">
<ele>115.745178</ele>
<time>2010-06-20T15:39:58Z</time>
<desc>lat.=55.900269, lon.=26.529282, Alt.=115.745178m. Speed=0.216000m/h.</desc>
<speed>0.060000</speed>
</trkpt>
<trkpt lat="55.900272" lon="26.529280">
<ele>115.661194</ele>
<time>2010-06-20T15:39:59Z</time>
<desc>lat.=55.900272, lon.=26.529280, Alt.=115.661194m. Speed=0.396000m/h.</desc>
<speed>0.110000</speed>
</trkpt>
<trkpt lat="55.900272" lon="26.529282">
<ele>115.702209</ele>
<time>2010-06-20T15:40:00Z</time>
<desc>lat.=55.900272, lon.=26.529282, Alt.=115.702209m. Speed=0.684000m/h.</desc>
<speed>0.190000</speed>
</trkpt>
<trkpt lat="55.900276" lon="26.529282">
<ele>115.706116</ele>
<time>2010-06-20T15:40:01Z</time>
<desc>lat.=55.900276, lon.=26.529282, Alt.=115.706116m. Speed=0.324000m/h.</desc>
<speed>0.090000</speed>
</trkpt>
<trkpt lat="55.900276" lon="26.529282">
<ele>115.710022</ele>
<time>2010-06-20T15:40:02Z</time>
<desc>lat.=55.900276, lon.=26.529282, Alt.=115.710022m. Speed=0.684000m/h.</desc>
<speed>0.190000</speed>
</trkpt>
<trkpt lat="55.900276" lon="26.529285">
<ele>115.713928</ele>
<time>2010-06-20T15:40:03Z</time>
<desc>lat.=55.900276, lon.=26.529285, Alt.=115.713928m. Speed=0.288000m/h.</desc>
<speed>0.080000</speed>
</trkpt>
<trkpt lat="55.900276" lon="26.529287">
<ele>115.715881</ele>
<time>2010-06-20T15:40:04Z</time>
<desc>lat.=55.900276, lon.=26.529287, Alt.=115.715881m. Speed=0.612000m/h.</desc>
<speed>0.170000</speed>
</trkpt>
<trkpt lat="55.900276" lon="26.529289">
<ele>115.713928</ele>
<time>2010-06-20T15:40:05Z</time>
<desc>lat.=55.900276, lon.=26.529289, Alt.=115.713928m. Speed=0.504000m/h.</desc>
<speed>0.140000</speed>
</trkpt>
<trkpt lat="55.900272" lon="26.529291">
<ele>115.713928</ele>
<time>2010-06-20T15:40:06Z</time>
<desc>lat.=55.900272, lon.=26.529291, Alt.=115.713928m. Speed=0.468000m/h.</desc>
<speed>0.130000</speed>
</trkpt>
<trkpt lat="55.900272" lon="26.529293">
<ele>115.710022</ele>
<time>2010-06-20T15:40:07Z</time>
<desc>lat.=55.900272, lon.=26.529293, Alt.=115.710022m. Speed=0.684000m/h.</desc>
<speed>0.190000</speed>
</trkpt>
<trkpt lat="55.900272" lon="26.529295">
<ele>115.710022</ele>
<time>2010-06-20T15:40:08Z</time>
<desc>lat.=55.900272, lon.=26.529295, Alt.=115.710022m. Speed=0.252000m/h.</desc>
<speed>0.070000</speed>
</trkpt>
<trkpt lat="55.900272" lon="26.529293">
<ele>115.706116</ele>
<time>2010-06-20T15:40:09Z</time>
<desc>lat.=55.900272, lon.=26.529293, Alt.=115.706116m. Speed=0.216000m/h.</desc>
<speed>0.060000</speed>
</trkpt>
<trkpt lat="55.900272" lon="26.529293">
<ele>115.706116</ele>
<time>2010-06-20T15:40:10Z</time>
<desc>lat.=55.900272, lon.=26.529293, Alt.=115.706116m. Speed=0.036000m/h.</desc>
<speed>0.010000</speed>
</trkpt>
<trkpt lat="55.900272" lon="26.529293">
<ele>115.704163</ele>
<time>2010-06-20T15:40:11Z</time>
<desc>lat.=55.900272, lon.=26.529293, Alt.=115.704163m. Speed=0.432000m/h.</desc>
<speed>0.120000</speed>
</trkpt>
<trkpt lat="55.900272" lon="26.529293">
<ele>115.700256</ele>
<time>2010-06-20T15:40:12Z</time>
<desc>lat.=55.900272, lon.=26.529293, Alt.=115.700256m. Speed=0.936000m/h.</desc>
<speed>0.260000</speed>
</trkpt>
<trkpt lat="55.900272" lon="26.529297">
<ele>115.694397</ele>
<time>2010-06-20T15:40:13Z</time>
<desc>lat.=55.900272, lon.=26.529297, Alt.=115.694397m. Speed=0.972000m/h.</desc>
<speed>0.270000</speed>
</trkpt>
<trkpt lat="55.900276" lon="26.529301">
<ele>115.690491</ele>
<time>2010-06-20T15:40:14Z</time>
<desc>lat.=55.900276, lon.=26.529301, Alt.=115.690491m. Speed=0.576000m/h.</desc>
<speed>0.160000</speed>
</trkpt>
<trkpt lat="55.900276" lon="26.529303">
<ele>115.688538</ele>
<time>2010-06-20T15:40:15Z</time>
<desc>lat.=55.900276, lon.=26.529303, Alt.=115.688538m. Speed=0.540000m/h.</desc>
<speed>0.150000</speed>
</trkpt>
<trkpt lat="55.900276" lon="26.529305">
<ele>115.686584</ele>
<time>2010-06-20T15:40:16Z</time>
<desc>lat.=55.900276, lon.=26.529305, Alt.=115.686584m. Speed=0.828000m/h.</desc>
<speed>0.230000</speed>
</trkpt>
<trkpt lat="55.900280" lon="26.529306">
<ele>115.686584</ele>
<time>2010-06-20T15:40:17Z</time>
<desc>lat.=55.900280, lon.=26.529306, Alt.=115.686584m. Speed=0.828000m/h.</desc>
<speed>0.230000</speed>
</trkpt>
<trkpt lat="55.900280" lon="26.529308">
<ele>115.682678</ele>
<time>2010-06-20T15:40:18Z</time>
<desc>lat.=55.900280, lon.=26.529308, Alt.=115.682678m. Speed=0.540000m/h.</desc>
<speed>0.150000</speed>
</trkpt>
<trkpt lat="55.900280" lon="26.529308">
<ele>115.678772</ele>
<time>2010-06-20T15:40:19Z</time>
<desc>lat.=55.900280, lon.=26.529308, Alt.=115.678772m. Speed=0.792000m/h.</desc>
<speed>0.220000</speed>
</trkpt>
<trkpt lat="55.900284" lon="26.529308">
<ele>115.678772</ele>
<time>2010-06-20T15:40:20Z</time>
<desc>lat.=55.900284, lon.=26.529308, Alt.=115.678772m. Speed=0.720000m/h.</desc>
<speed>0.200000</speed>
</trkpt>
<trkpt lat="55.900284" lon="26.529308">
<ele>115.674866</ele>
<time>2010-06-20T15:40:21Z</time>
<desc>lat.=55.900284, lon.=26.529308, Alt.=115.674866m. Speed=0.576000m/h.</desc>
<speed>0.160000</speed>
</trkpt>
<trkpt lat="55.900288" lon="26.529308">
<ele>115.670959</ele>
<time>2010-06-20T15:40:22Z</time>
<desc>lat.=55.900288, lon.=26.529308, Alt.=115.670959m. Speed=0.180000m/h.</desc>
<speed>0.050000</speed>
</trkpt>
<trkpt lat="55.900284" lon="26.529306">
<ele>115.669006</ele>
<time>2010-06-20T15:40:23Z</time>
<desc>lat.=55.900284, lon.=26.529306, Alt.=115.669006m. Speed=0.720000m/h.</desc>
<speed>0.200000</speed>
</trkpt>
<trkpt lat="55.900284" lon="26.529306">
<ele>115.665100</ele>
<time>2010-06-20T15:40:24Z</time>
<desc>lat.=55.900284, lon.=26.529306, Alt.=115.665100m. Speed=0.828000m/h.</desc>
<speed>0.230000</speed>
</trkpt>
<trkpt lat="55.900280" lon="26.529306">
<ele>115.661194</ele>
<time>2010-06-20T15:40:25Z</time>
<desc>lat.=55.900280, lon.=26.529306, Alt.=115.661194m. Speed=0.756000m/h.</desc>
<speed>0.210000</speed>
</trkpt>
<trkpt lat="55.900280" lon="26.529306">
<ele>115.655334</ele>
<time>2010-06-20T15:40:26Z</time>
<desc>lat.=55.900280, lon.=26.529306, Alt.=115.655334m. Speed=0.864000m/h.</desc>
<speed>0.240000</speed>
</trkpt>
<trkpt lat="55.900280" lon="26.529310">
<ele>115.649475</ele>
<time>2010-06-20T15:40:27Z</time>
<desc>lat.=55.900280, lon.=26.529310, Alt.=115.649475m. Speed=0.612000m/h.</desc>
<speed>0.170000</speed>
</trkpt>
<trkpt lat="55.900276" lon="26.529312">
<ele>115.645569</ele>
<time>2010-06-20T15:40:28Z</time>
<desc>lat.=55.900276, lon.=26.529312, Alt.=115.645569m. Speed=1.080000m/h.</desc>
<speed>0.300000</speed>
</trkpt>
<trkpt lat="55.900265" lon="26.529293">
<ele>115.438538</ele>
<time>2010-06-20T15:40:29Z</time>
<desc>lat.=55.900265, lon.=26.529293, Alt.=115.438538m. Speed=1.368000m/h.</desc>
<speed>0.380000</speed>
</trkpt>
<trkpt lat="55.900257" lon="26.529284">
<ele>115.290100</ele>
<time>2010-06-20T15:40:30Z</time>
<desc>lat.=55.900257, lon.=26.529284, Alt.=115.290100m. Speed=1.476000m/h.</desc>
<speed>0.410000</speed>
</trkpt>
<trkpt lat="55.900249" lon="26.529276">
<ele>115.170959</ele>
<time>2010-06-20T15:40:31Z</time>
<desc>lat.=55.900249, lon.=26.529276, Alt.=115.170959m. Speed=1.548000m/h.</desc>
<speed>0.430000</speed>
</trkpt>
<trkpt lat="55.900242" lon="26.529255">
<ele>115.092834</ele>
<time>2010-06-20T15:40:32Z</time>
<desc>lat.=55.900242, lon.=26.529255, Alt.=115.092834m. Speed=1.512000m/h.</desc>
<speed>0.420000</speed>
</trkpt>
<trkpt lat="55.900238" lon="26.529238">
<ele>115.010803</ele>
<time>2010-06-20T15:40:33Z</time>
<desc>lat.=55.900238, lon.=26.529238, Alt.=115.010803m. Speed=1.512000m/h.</desc>
<speed>0.420000</speed>
</trkpt>
<trkpt lat="55.900249" lon="26.529209">
<ele>115.057678</ele>
<time>2010-06-20T15:40:34Z</time>
<desc>lat.=55.900249, lon.=26.529209, Alt.=115.057678m. Speed=1.332000m/h.</desc>
<speed>0.370000</speed>
</trkpt>
<trkpt lat="55.900253" lon="26.529200">
<ele>115.045959</ele>
<time>2010-06-20T15:40:35Z</time>
<desc>lat.=55.900253, lon.=26.529200, Alt.=115.045959m. Speed=1.080000m/h.</desc>
<speed>0.300000</speed>
</trkpt>
<trkpt lat="55.900249" lon="26.529202">
<ele>114.989319</ele>
<time>2010-06-20T15:40:36Z</time>
<desc>lat.=55.900249, lon.=26.529202, Alt.=114.989319m. Speed=0.936000m/h.</desc>
<speed>0.260000</speed>
</trkpt>
<trkpt lat="55.900246" lon="26.529200">
<ele>114.963928</ele>
<time>2010-06-20T15:40:37Z</time>
<desc>lat.=55.900246, lon.=26.529200, Alt.=114.963928m. Speed=0.864000m/h.</desc>
<speed>0.240000</speed>
</trkpt>
<trkpt lat="55.900238" lon="26.529186">
<ele>114.936584</ele>
<time>2010-06-20T15:40:38Z</time>
<desc>lat.=55.900238, lon.=26.529186, Alt.=114.936584m. Speed=1.512000m/h.</desc>
<speed>0.420000</speed>
</trkpt>
<trkpt lat="55.900227" lon="26.529188">
<ele>114.893616</ele>
<time>2010-06-20T15:40:39Z</time>
<desc>lat.=55.900227, lon.=26.529188, Alt.=114.893616m. Speed=1.836000m/h.</desc>
<speed>0.510000</speed>
</trkpt>
<trkpt lat="55.900227" lon="26.529186">
<ele>114.866272</ele>
<time>2010-06-20T15:40:40Z</time>
<desc>lat.=55.900227, lon.=26.529186, Alt.=114.866272m. Speed=1.260000m/h.</desc>
<speed>0.350000</speed>
</trkpt>
<trkpt lat="55.900223" lon="26.529182">
<ele>114.856506</ele>
<time>2010-06-20T15:40:41Z</time>
<desc>lat.=55.900223, lon.=26.529182, Alt.=114.856506m. Speed=1.440000m/h.</desc>
<speed>0.400000</speed>
</trkpt>
<trkpt lat="55.900219" lon="26.529203">
<ele>114.815491</ele>
<time>2010-06-20T15:40:42Z</time>
<desc>lat.=55.900219, lon.=26.529203, Alt.=114.815491m. Speed=1.980000m/h.</desc>
<speed>0.550000</speed>
</trkpt>
<trkpt lat="55.900211" lon="26.529213">
<ele>114.713928</ele>
<time>2010-06-20T15:40:43Z</time>
<desc>lat.=55.900211, lon.=26.529213, Alt.=114.713928m. Speed=2.052000m/h.</desc>
<speed>0.570000</speed>
</trkpt>
<trkpt lat="55.900200" lon="26.529226">
<ele>114.590881</ele>
<time>2010-06-20T15:40:44Z</time>
<desc>lat.=55.900200, lon.=26.529226, Alt.=114.590881m. Speed=1.836000m/h.</desc>
<speed>0.510000</speed>
</trkpt>
<trkpt lat="55.900196" lon="26.529209">
<ele>114.499084</ele>
<time>2010-06-20T15:40:45Z</time>
<desc>lat.=55.900196, lon.=26.529209, Alt.=114.499084m. Speed=1.152000m/h.</desc>
<speed>0.320000</speed>
</trkpt>
<trkpt lat="55.900188" lon="26.529198">
<ele>114.403381</ele>
<time>2010-06-20T15:40:46Z</time>
<desc>lat.=55.900188, lon.=26.529198, Alt.=114.403381m. Speed=1.368000m/h.</desc>
<speed>0.380000</speed>
</trkpt>
<trkpt lat="55.900185" lon="26.529203">
<ele>114.340881</ele>
<time>2010-06-20T15:40:47Z</time>
<desc>lat.=55.900185, lon.=26.529203, Alt.=114.340881m. Speed=1.152000m/h.</desc>
<speed>0.320000</speed>
</trkpt>
<trkpt lat="55.900185" lon="26.529194">
<ele>114.280334</ele>
<time>2010-06-20T15:40:48Z</time>
<desc>lat.=55.900185, lon.=26.529194, Alt.=114.280334m. Speed=1.080000m/h.</desc>
<speed>0.300000</speed>
</trkpt>
<trkpt lat="55.900196" lon="26.529175">
<ele>114.221741</ele>
<time>2010-06-20T15:40:49Z</time>
<desc>lat.=55.900196, lon.=26.529175, Alt.=114.221741m. Speed=0.972000m/h.</desc>
<speed>0.270000</speed>
</trkpt>
<trkpt lat="55.900204" lon="26.529160">
<ele>114.260803</ele>
<time>2010-06-20T15:40:50Z</time>
<desc>lat.=55.900204, lon.=26.529160, Alt.=114.260803m. Speed=0.792000m/h.</desc>
<speed>0.220000</speed>
</trkpt>
<trkpt lat="55.900208" lon="26.529146">
<ele>114.206116</ele>
<time>2010-06-20T15:40:51Z</time>
<desc>lat.=55.900208, lon.=26.529146, Alt.=114.206116m. Speed=0.864000m/h.</desc>
<speed>0.240000</speed>
</trkpt>
<trkpt lat="55.900219" lon="26.529139">
<ele>114.151428</ele>
<time>2010-06-20T15:40:52Z</time>
<desc>lat.=55.900219, lon.=26.529139, Alt.=114.151428m. Speed=0.504000m/h.</desc>
<speed>0.140000</speed>
</trkpt>
<trkpt lat="55.900219" lon="26.529137">
<ele>114.147522</ele>
<time>2010-06-20T15:40:53Z</time>
<desc>lat.=55.900219, lon.=26.529137, Alt.=114.147522m. Speed=0.648000m/h.</desc>
<speed>0.180000</speed>
</trkpt>
<trkpt lat="55.900223" lon="26.529137">
<ele>114.143616</ele>
<time>2010-06-20T15:40:54Z</time>
<desc>lat.=55.900223, lon.=26.529137, Alt.=114.143616m. Speed=0.396000m/h.</desc>
<speed>0.110000</speed>
</trkpt>
<trkpt lat="55.900219" lon="26.529137">
<ele>114.139709</ele>
<time>2010-06-20T15:40:55Z</time>
<desc>lat.=55.900219, lon.=26.529137, Alt.=114.139709m. Speed=0.144000m/h.</desc>
<speed>0.040000</speed>
</trkpt>
<trkpt lat="55.900219" lon="26.529137">
<ele>114.135803</ele>
<time>2010-06-20T15:40:56Z</time>
<desc>lat.=55.900219, lon.=26.529137, Alt.=114.135803m. Speed=1.044000m/h.</desc>
<speed>0.290000</speed>
</trkpt>
<trkpt lat="55.900219" lon="26.529137">
<ele>114.133850</ele>
<time>2010-06-20T15:40:57Z</time>
<desc>lat.=55.900219, lon.=26.529137, Alt.=114.133850m. Speed=1.044000m/h.</desc>
<speed>0.290000</speed>
</trkpt>
<trkpt lat="55.900215" lon="26.529139">
<ele>114.129944</ele>
<time>2010-06-20T15:40:58Z</time>
<desc>lat.=55.900215, lon.=26.529139, Alt.=114.129944m. Speed=0.792000m/h.</desc>
<speed>0.220000</speed>
</trkpt>
<trkpt lat="55.900215" lon="26.529140">
<ele>114.127991</ele>
<time>2010-06-20T15:40:59Z</time>
<desc>lat.=55.900215, lon.=26.529140, Alt.=114.127991m. Speed=0.252000m/h.</desc>
<speed>0.070000</speed>
</trkpt>
<trkpt lat="55.900215" lon="26.529140">
<ele>114.126038</ele>
<time>2010-06-20T15:41:00Z</time>
<desc>lat.=55.900215, lon.=26.529140, Alt.=114.126038m. Speed=0.792000m/h.</desc>
<speed>0.220000</speed>
</trkpt>
<trkpt lat="55.900215" lon="26.529137">
<ele>114.122131</ele>
<time>2010-06-20T15:41:01Z</time>
<desc>lat.=55.900215, lon.=26.529137, Alt.=114.122131m. Speed=0.648000m/h.</desc>
<speed>0.180000</speed>
</trkpt>
<trkpt lat="55.900215" lon="26.529135">
<ele>114.120178</ele>
<time>2010-06-20T15:41:02Z</time>
<desc>lat.=55.900215, lon.=26.529135, Alt.=114.120178m. Speed=0.540000m/h.</desc>
<speed>0.150000</speed>
</trkpt>
<trkpt lat="55.900215" lon="26.529131">
<ele>114.120178</ele>
<time>2010-06-20T15:41:03Z</time>
<desc>lat.=55.900215, lon.=26.529131, Alt.=114.120178m. Speed=0.360000m/h.</desc>
<speed>0.100000</speed>
</trkpt>
<trkpt lat="55.900215" lon="26.529131">
<ele>114.122131</ele>
<time>2010-06-20T15:41:04Z</time>
<desc>lat.=55.900215, lon.=26.529131, Alt.=114.122131m. Speed=0.540000m/h.</desc>
<speed>0.150000</speed>
</trkpt>
<trkpt lat="55.900215" lon="26.529133">
<ele>114.122131</ele>
<time>2010-06-20T15:41:05Z</time>
<desc>lat.=55.900215, lon.=26.529133, Alt.=114.122131m. Speed=0.972000m/h.</desc>
<speed>0.270000</speed>
</trkpt>
<trkpt lat="55.900211" lon="26.529135">
<ele>114.122131</ele>
<time>2010-06-20T15:41:06Z</time>
<desc>lat.=55.900211, lon.=26.529135, Alt.=114.122131m. Speed=1.224000m/h.</desc>
<speed>0.340000</speed>
</trkpt>
<trkpt lat="55.900211" lon="26.529133">
<ele>114.155334</ele>
<time>2010-06-20T15:41:07Z</time>
<desc>lat.=55.900211, lon.=26.529133, Alt.=114.155334m. Speed=0.900000m/h.</desc>
<speed>0.250000</speed>
</trkpt>
<trkpt lat="55.900211" lon="26.529127">
<ele>114.174866</ele>
<time>2010-06-20T15:41:08Z</time>
<desc>lat.=55.900211, lon.=26.529127, Alt.=114.174866m. Speed=0.540000m/h.</desc>
<speed>0.150000</speed>
</trkpt>
<trkpt lat="55.900211" lon="26.529123">
<ele>114.149475</ele>
<time>2010-06-20T15:41:09Z</time>
<desc>lat.=55.900211, lon.=26.529123, Alt.=114.149475m. Speed=0.576000m/h.</desc>
<speed>0.160000</speed>
</trkpt>
<trkpt lat="55.900215" lon="26.529110">
<ele>114.194397</ele>
<time>2010-06-20T15:41:10Z</time>
<desc>lat.=55.900215, lon.=26.529110, Alt.=114.194397m. Speed=0.576000m/h.</desc>
<speed>0.160000</speed>
</trkpt>
<trkpt lat="55.900215" lon="26.529110">
<ele>114.192444</ele>
<time>2010-06-20T15:41:11Z</time>
<desc>lat.=55.900215, lon.=26.529110, Alt.=114.192444m. Speed=0.756000m/h.</desc>
<speed>0.210000</speed>
</trkpt>
<trkpt lat="55.900211" lon="26.529108">
<ele>114.190491</ele>
<time>2010-06-20T15:41:12Z</time>
<desc>lat.=55.900211, lon.=26.529108, Alt.=114.190491m. Speed=0.612000m/h.</desc>
<speed>0.170000</speed>
</trkpt>
<trkpt lat="55.900215" lon="26.529106">
<ele>114.184631</ele>
<time>2010-06-20T15:41:13Z</time>
<desc>lat.=55.900215, lon.=26.529106, Alt.=114.184631m. Speed=0.360000m/h.</desc>
<speed>0.100000</speed>
</trkpt>
<trkpt lat="55.900215" lon="26.529108">
<ele>114.182678</ele>
<time>2010-06-20T15:41:14Z</time>
<desc>lat.=55.900215, lon.=26.529108, Alt.=114.182678m. Speed=0.396000m/h.</desc>
<speed>0.110000</speed>
</trkpt>
<trkpt lat="55.900215" lon="26.529108">
<ele>114.180725</ele>
<time>2010-06-20T15:41:15Z</time>
<desc>lat.=55.900215, lon.=26.529108, Alt.=114.180725m. Speed=0.504000m/h.</desc>
<speed>0.140000</speed>
</trkpt>
<trkpt lat="55.900219" lon="26.529110">
<ele>114.176819</ele>
<time>2010-06-20T15:41:16Z</time>
<desc>lat.=55.900219, lon.=26.529110, Alt.=114.176819m. Speed=0.288000m/h.</desc>
<speed>0.080000</speed>
</trkpt>
<trkpt lat="55.900215" lon="26.529110">
<ele>114.176819</ele>
<time>2010-06-20T15:41:17Z</time>
<desc>lat.=55.900215, lon.=26.529110, Alt.=114.176819m. Speed=0.756000m/h.</desc>
<speed>0.210000</speed>
</trkpt>
<trkpt lat="55.900215" lon="26.529108">
<ele>114.178772</ele>
<time>2010-06-20T15:41:18Z</time>
<desc>lat.=55.900215, lon.=26.529108, Alt.=114.178772m. Speed=0.864000m/h.</desc>
<speed>0.240000</speed>
</trkpt>
<trkpt lat="55.900215" lon="26.529106">
<ele>114.178772</ele>
<time>2010-06-20T15:41:19Z</time>
<desc>lat.=55.900215, lon.=26.529106, Alt.=114.178772m. Speed=0.792000m/h.</desc>
<speed>0.220000</speed>
</trkpt>
<trkpt lat="55.900211" lon="26.529102">
<ele>114.178772</ele>
<time>2010-06-20T15:41:20Z</time>
<desc>lat.=55.900211, lon.=26.529102, Alt.=114.178772m. Speed=0.972000m/h.</desc>
<speed>0.270000</speed>
</trkpt>
<trkpt lat="55.900211" lon="26.529100">
<ele>114.178772</ele>
<time>2010-06-20T15:41:21Z</time>
<desc>lat.=55.900211, lon.=26.529100, Alt.=114.178772m. Speed=0.756000m/h.</desc>
<speed>0.210000</speed>
</trkpt>
<trkpt lat="55.900208" lon="26.529099">
<ele>114.180725</ele>
<time>2010-06-20T15:41:22Z</time>
<desc>lat.=55.900208, lon.=26.529099, Alt.=114.180725m. Speed=0.468000m/h.</desc>
<speed>0.130000</speed>
</trkpt>
<trkpt lat="55.900211" lon="26.529097">
<ele>114.180725</ele>
<time>2010-06-20T15:41:23Z</time>
<desc>lat.=55.900211, lon.=26.529097, Alt.=114.180725m. Speed=0.936000m/h.</desc>
<speed>0.260000</speed>
</trkpt>
<trkpt lat="55.900211" lon="26.529095">
<ele>114.180725</ele>
<time>2010-06-20T15:41:24Z</time>
<desc>lat.=55.900211, lon.=26.529095, Alt.=114.180725m. Speed=1.044000m/h.</desc>
<speed>0.290000</speed>
</trkpt>
<trkpt lat="55.900211" lon="26.529089">
<ele>114.180725</ele>
<time>2010-06-20T15:41:25Z</time>
<desc>lat.=55.900211, lon.=26.529089, Alt.=114.180725m. Speed=1.440000m/h.</desc>
<speed>0.400000</speed>
</trkpt>
<trkpt lat="55.900215" lon="26.529074">
<ele>114.227600</ele>
<time>2010-06-20T15:41:26Z</time>
<desc>lat.=55.900215, lon.=26.529074, Alt.=114.227600m. Speed=1.692000m/h.</desc>
<speed>0.470000</speed>
</trkpt>
<trkpt lat="55.900215" lon="26.529055">
<ele>114.256897</ele>
<time>2010-06-20T15:41:27Z</time>
<desc>lat.=55.900215, lon.=26.529055, Alt.=114.256897m. Speed=1.656000m/h.</desc>
<speed>0.460000</speed>
</trkpt>
<trkpt lat="55.900211" lon="26.529037">
<ele>114.294006</ele>
<time>2010-06-20T15:41:28Z</time>
<desc>lat.=55.900211, lon.=26.529037, Alt.=114.294006m. Speed=1.656000m/h.</desc>
<speed>0.460000</speed>
</trkpt>
<trkpt lat="55.900215" lon="26.529030">
<ele>114.280334</ele>
<time>2010-06-20T15:41:29Z</time>
<desc>lat.=55.900215, lon.=26.529030, Alt.=114.280334m. Speed=1.044000m/h.</desc>
<speed>0.290000</speed>
</trkpt>
<trkpt lat="55.900219" lon="26.529026">
<ele>114.270569</ele>
<time>2010-06-20T15:41:30Z</time>
<desc>lat.=55.900219, lon.=26.529026, Alt.=114.270569m. Speed=0.648000m/h.</desc>
<speed>0.180000</speed>
</trkpt>
<trkpt lat="55.900215" lon="26.529018">
<ele>114.227600</ele>
<time>2010-06-20T15:41:31Z</time>
<desc>lat.=55.900215, lon.=26.529018, Alt.=114.227600m. Speed=0.612000m/h.</desc>
<speed>0.170000</speed>
</trkpt>
<trkpt lat="55.900219" lon="26.529015">
<ele>114.274475</ele>
<time>2010-06-20T15:41:32Z</time>
<desc>lat.=55.900219, lon.=26.529015, Alt.=114.274475m. Speed=0.324000m/h.</desc>
<speed>0.090000</speed>
</trkpt>
<trkpt lat="55.900219" lon="26.529015">
<ele>114.276428</ele>
<time>2010-06-20T15:41:33Z</time>
<desc>lat.=55.900219, lon.=26.529015, Alt.=114.276428m. Speed=0.324000m/h.</desc>
<speed>0.090000</speed>
</trkpt>
<trkpt lat="55.900219" lon="26.529015">
<ele>114.276428</ele>
<time>2010-06-20T15:41:34Z</time>
<desc>lat.=55.900219, lon.=26.529015, Alt.=114.276428m. Speed=0.144000m/h.</desc>
<speed>0.040000</speed>
</trkpt>
<trkpt lat="55.900219" lon="26.529015">
<ele>114.276428</ele>
<time>2010-06-20T15:41:35Z</time>
<desc>lat.=55.900219, lon.=26.529015, Alt.=114.276428m. Speed=0.792000m/h.</desc>
<speed>0.220000</speed>
</trkpt>
<trkpt lat="55.900219" lon="26.529011">
<ele>114.278381</ele>
<time>2010-06-20T15:41:36Z</time>
<desc>lat.=55.900219, lon.=26.529011, Alt.=114.278381m. Speed=0.900000m/h.</desc>
<speed>0.250000</speed>
</trkpt>
<trkpt lat="55.900223" lon="26.529009">
<ele>114.278381</ele>
<time>2010-06-20T15:41:37Z</time>
<desc>lat.=55.900223, lon.=26.529009, Alt.=114.278381m. Speed=0.828000m/h.</desc>
<speed>0.230000</speed>
</trkpt>
<trkpt lat="55.900223" lon="26.529007">
<ele>114.276428</ele>
<time>2010-06-20T15:41:38Z</time>
<desc>lat.=55.900223, lon.=26.529007, Alt.=114.276428m. Speed=0.396000m/h.</desc>
<speed>0.110000</speed>
</trkpt>
<trkpt lat="55.900227" lon="26.529007">
<ele>114.276428</ele>
<time>2010-06-20T15:41:39Z</time>
<desc>lat.=55.900227, lon.=26.529007, Alt.=114.276428m. Speed=0.792000m/h.</desc>
<speed>0.220000</speed>
</trkpt>
<trkpt lat="55.900227" lon="26.529003">
<ele>114.276428</ele>
<time>2010-06-20T15:41:40Z</time>
<desc>lat.=55.900227, lon.=26.529003, Alt.=114.276428m. Speed=1.008000m/h.</desc>
<speed>0.280000</speed>
</trkpt>
<trkpt lat="55.900227" lon="26.528999">
<ele>114.274475</ele>
<time>2010-06-20T15:41:41Z</time>
<desc>lat.=55.900227, lon.=26.528999, Alt.=114.274475m. Speed=1.332000m/h.</desc>
<speed>0.370000</speed>
</trkpt>
<trkpt lat="55.900219" lon="26.528996">
<ele>114.149475</ele>
<time>2010-06-20T15:41:42Z</time>
<desc>lat.=55.900219, lon.=26.528996, Alt.=114.149475m. Speed=1.440000m/h.</desc>
<speed>0.400000</speed>
</trkpt>
<trkpt lat="55.900219" lon="26.528997">
<ele>114.120178</ele>
<time>2010-06-20T15:41:43Z</time>
<desc>lat.=55.900219, lon.=26.528997, Alt.=114.120178m. Speed=1.008000m/h.</desc>
<speed>0.280000</speed>
</trkpt>
<trkpt lat="55.900223" lon="26.528986">
<ele>114.147522</ele>
<time>2010-06-20T15:41:44Z</time>
<desc>lat.=55.900223, lon.=26.528986, Alt.=114.147522m. Speed=1.116000m/h.</desc>
<speed>0.310000</speed>
</trkpt>
<trkpt lat="55.900223" lon="26.528973">
<ele>114.145569</ele>
<time>2010-06-20T15:41:45Z</time>
<desc>lat.=55.900223, lon.=26.528973, Alt.=114.145569m. Speed=1.296000m/h.</desc>
<speed>0.360000</speed>
</trkpt>
<trkpt lat="55.900230" lon="26.528967">
<ele>114.083069</ele>
<time>2010-06-20T15:41:46Z</time>
<desc>lat.=55.900230, lon.=26.528967, Alt.=114.083069m. Speed=1.476000m/h.</desc>
<speed>0.410000</speed>
</trkpt>
<trkpt lat="55.900234" lon="26.528963">
<ele>114.077209</ele>
<time>2010-06-20T15:41:47Z</time>
<desc>lat.=55.900234, lon.=26.528963, Alt.=114.077209m. Speed=1.512000m/h.</desc>
<speed>0.420000</speed>
</trkpt>
<trkpt lat="55.900238" lon="26.528957">
<ele>114.067444</ele>
<time>2010-06-20T15:41:48Z</time>
<desc>lat.=55.900238, lon.=26.528957, Alt.=114.067444m. Speed=1.044000m/h.</desc>
<speed>0.290000</speed>
</trkpt>
<trkpt lat="55.900242" lon="26.528954">
<ele>114.102600</ele>
<time>2010-06-20T15:41:49Z</time>
<desc>lat.=55.900242, lon.=26.528954, Alt.=114.102600m. Speed=0.576000m/h.</desc>
<speed>0.160000</speed>
</trkpt>
<trkpt lat="55.900242" lon="26.528955">
<ele>114.182678</ele>
<time>2010-06-20T15:41:50Z</time>
<desc>lat.=55.900242, lon.=26.528955, Alt.=114.182678m. Speed=0.288000m/h.</desc>
<speed>0.080000</speed>
</trkpt>
<trkpt lat="55.900238" lon="26.528971">
<ele>114.167053</ele>
<time>2010-06-20T15:41:51Z</time>
<desc>lat.=55.900238, lon.=26.528971, Alt.=114.167053m. Speed=0.900000m/h.</desc>
<speed>0.250000</speed>
</trkpt>
<trkpt lat="55.900238" lon="26.528971">
<ele>114.165100</ele>
<time>2010-06-20T15:41:52Z</time>
<desc>lat.=55.900238, lon.=26.528971, Alt.=114.165100m. Speed=0.576000m/h.</desc>
<speed>0.160000</speed>
</trkpt>
<trkpt lat="55.900234" lon="26.528973">
<ele>114.165100</ele>
<time>2010-06-20T15:41:53Z</time>
<desc>lat.=55.900234, lon.=26.528973, Alt.=114.165100m. Speed=0.576000m/h.</desc>
<speed>0.160000</speed>
</trkpt>
<trkpt lat="55.900234" lon="26.528975">
<ele>114.165100</ele>
<time>2010-06-20T15:41:54Z</time>
<desc>lat.=55.900234, lon.=26.528975, Alt.=114.165100m. Speed=0.540000m/h.</desc>
<speed>0.150000</speed>
</trkpt>
<trkpt lat="55.900234" lon="26.528976">
<ele>114.165100</ele>
<time>2010-06-20T15:41:55Z</time>
<desc>lat.=55.900234, lon.=26.528976, Alt.=114.165100m. Speed=0.864000m/h.</desc>
<speed>0.240000</speed>
</trkpt>
<trkpt lat="55.900230" lon="26.528976">
<ele>114.167053</ele>
<time>2010-06-20T15:41:56Z</time>
<desc>lat.=55.900230, lon.=26.528976, Alt.=114.167053m. Speed=0.432000m/h.</desc>
<speed>0.120000</speed>
</trkpt>
<trkpt lat="55.900230" lon="26.528976">
<ele>114.170959</ele>
<time>2010-06-20T15:41:57Z</time>
<desc>lat.=55.900230, lon.=26.528976, Alt.=114.170959m. Speed=0.252000m/h.</desc>
<speed>0.070000</speed>
</trkpt>
<trkpt lat="55.900230" lon="26.528975">
<ele>114.172913</ele>
<time>2010-06-20T15:41:58Z</time>
<desc>lat.=55.900230, lon.=26.528975, Alt.=114.172913m. Speed=0.504000m/h.</desc>
<speed>0.140000</speed>
</trkpt>
<trkpt lat="55.900230" lon="26.528975">
<ele>114.176819</ele>
<time>2010-06-20T15:41:59Z</time>
<desc>lat.=55.900230, lon.=26.528975, Alt.=114.176819m. Speed=0.648000m/h.</desc>
<speed>0.180000</speed>
</trkpt>
<trkpt lat="55.900230" lon="26.528973">
<ele>114.178772</ele>
<time>2010-06-20T15:42:00Z</time>
<desc>lat.=55.900230, lon.=26.528973, Alt.=114.178772m. Speed=0.576000m/h.</desc>
<speed>0.160000</speed>
</trkpt>
<trkpt lat="55.900227" lon="26.528973">
<ele>114.180725</ele>
<time>2010-06-20T15:42:01Z</time>
<desc>lat.=55.900227, lon.=26.528973, Alt.=114.180725m. Speed=0.792000m/h.</desc>
<speed>0.220000</speed>
</trkpt>
<trkpt lat="55.900227" lon="26.528973">
<ele>114.182678</ele>
<time>2010-06-20T15:42:02Z</time>
<desc>lat.=55.900227, lon.=26.528973, Alt.=114.182678m. Speed=0.648000m/h.</desc>
<speed>0.180000</speed>
</trkpt>
<trkpt lat="55.900223" lon="26.528971">
<ele>114.182678</ele>
<time>2010-06-20T15:42:03Z</time>
<desc>lat.=55.900223, lon.=26.528971, Alt.=114.182678m. Speed=0.900000m/h.</desc>
<speed>0.250000</speed>
</trkpt>
<trkpt lat="55.900223" lon="26.528973">
<ele>114.180725</ele>
<time>2010-06-20T15:42:04Z</time>
<desc>lat.=55.900223, lon.=26.528973, Alt.=114.180725m. Speed=0.864000m/h.</desc>
<speed>0.240000</speed>
</trkpt>
<trkpt lat="55.900223" lon="26.528976">
<ele>114.176819</ele>
<time>2010-06-20T15:42:05Z</time>
<desc>lat.=55.900223, lon.=26.528976, Alt.=114.176819m. Speed=1.224000m/h.</desc>
<speed>0.340000</speed>
</trkpt>
<trkpt lat="55.900227" lon="26.528984">
<ele>114.069397</ele>
<time>2010-06-20T15:42:06Z</time>
<desc>lat.=55.900227, lon.=26.528984, Alt.=114.069397m. Speed=1.512000m/h.</desc>
<speed>0.420000</speed>
</trkpt>
<trkpt lat="55.900227" lon="26.528984">
<ele>113.981506</ele>
<time>2010-06-20T15:42:07Z</time>
<desc>lat.=55.900227, lon.=26.528984, Alt.=113.981506m. Speed=1.080000m/h.</desc>
<speed>0.300000</speed>
</trkpt>
<trkpt lat="55.900227" lon="26.528986">
<ele>113.913147</ele>
<time>2010-06-20T15:42:08Z</time>
<desc>lat.=55.900227, lon.=26.528986, Alt.=113.913147m. Speed=0.720000m/h.</desc>
<speed>0.200000</speed>
</trkpt>
<trkpt lat="55.900223" lon="26.528990">
<ele>113.872131</ele>
<time>2010-06-20T15:42:09Z</time>
<desc>lat.=55.900223, lon.=26.528990, Alt.=113.872131m. Speed=0.648000m/h.</desc>
<speed>0.180000</speed>
</trkpt>
<trkpt lat="55.900219" lon="26.529001">
<ele>113.852600</ele>
<time>2010-06-20T15:42:10Z</time>
<desc>lat.=55.900219, lon.=26.529001, Alt.=113.852600m. Speed=0.900000m/h.</desc>
<speed>0.250000</speed>
</trkpt>
<trkpt lat="55.900219" lon="26.529001">
<ele>113.790100</ele>
<time>2010-06-20T15:42:11Z</time>
<desc>lat.=55.900219, lon.=26.529001, Alt.=113.790100m. Speed=0.828000m/h.</desc>
<speed>0.230000</speed>
</trkpt>
<trkpt lat="55.900215" lon="26.529003">
<ele>113.790100</ele>
<time>2010-06-20T15:42:12Z</time>
<desc>lat.=55.900215, lon.=26.529003, Alt.=113.790100m. Speed=1.008000m/h.</desc>
<speed>0.280000</speed>
</trkpt>
<trkpt lat="55.900215" lon="26.529005">
<ele>113.792053</ele>
<time>2010-06-20T15:42:13Z</time>
<desc>lat.=55.900215, lon.=26.529005, Alt.=113.792053m. Speed=1.620000m/h.</desc>
<speed>0.450000</speed>
</trkpt>
<trkpt lat="55.900211" lon="26.528994">
<ele>113.676819</ele>
<time>2010-06-20T15:42:14Z</time>
<desc>lat.=55.900211, lon.=26.528994, Alt.=113.676819m. Speed=1.080000m/h.</desc>
<speed>0.300000</speed>
</trkpt>
<trkpt lat="55.900211" lon="26.528984">
<ele>113.575256</ele>
<time>2010-06-20T15:42:15Z</time>
<desc>lat.=55.900211, lon.=26.528984, Alt.=113.575256m. Speed=1.188000m/h.</desc>
<speed>0.330000</speed>
</trkpt>
<trkpt lat="55.900211" lon="26.528984">
<ele>113.495178</ele>
<time>2010-06-20T15:42:16Z</time>
<desc>lat.=55.900211, lon.=26.528984, Alt.=113.495178m. Speed=1.044000m/h.</desc>
<speed>0.290000</speed>
</trkpt>
<trkpt lat="55.900211" lon="26.528982">
<ele>113.432678</ele>
<time>2010-06-20T15:42:17Z</time>
<desc>lat.=55.900211, lon.=26.528982, Alt.=113.432678m. Speed=1.044000m/h.</desc>
<speed>0.290000</speed>
</trkpt>
<trkpt lat="55.900204" lon="26.528988">
<ele>113.364319</ele>
<time>2010-06-20T15:42:18Z</time>
<desc>lat.=55.900204, lon.=26.528988, Alt.=113.364319m. Speed=1.404000m/h.</desc>
<speed>0.390000</speed>
</trkpt>
<trkpt lat="55.900208" lon="26.528984">
<ele>113.374084</ele>
<time>2010-06-20T15:42:19Z</time>
<desc>lat.=55.900208, lon.=26.528984, Alt.=113.374084m. Speed=0.684000m/h.</desc>
<speed>0.190000</speed>
</trkpt>
<trkpt lat="55.900208" lon="26.528980">
<ele>113.366272</ele>
<time>2010-06-20T15:42:20Z</time>
<desc>lat.=55.900208, lon.=26.528980, Alt.=113.366272m. Speed=0.576000m/h.</desc>
<speed>0.160000</speed>
</trkpt>
<trkpt lat="55.900204" lon="26.528975">
<ele>113.389709</ele>
<time>2010-06-20T15:42:21Z</time>
<desc>lat.=55.900204, lon.=26.528975, Alt.=113.389709m. Speed=1.116000m/h.</desc>
<speed>0.310000</speed>
</trkpt>
<trkpt lat="55.900200" lon="26.528965">
<ele>113.409241</ele>
<time>2010-06-20T15:42:22Z</time>
<desc>lat.=55.900200, lon.=26.528965, Alt.=113.409241m. Speed=1.656000m/h.</desc>
<speed>0.460000</speed>
</trkpt>
<trkpt lat="55.900200" lon="26.528965">
<ele>113.417053</ele>
<time>2010-06-20T15:42:23Z</time>
<desc>lat.=55.900200, lon.=26.528965, Alt.=113.417053m. Speed=1.548000m/h.</desc>
<speed>0.430000</speed>
</trkpt>
<trkpt lat="55.900208" lon="26.528967">
<ele>113.397522</ele>
<time>2010-06-20T15:42:24Z</time>
<desc>lat.=55.900208, lon.=26.528967, Alt.=113.397522m. Speed=0.900000m/h.</desc>
<speed>0.250000</speed>
</trkpt>
<trkpt lat="55.900215" lon="26.528957">
<ele>113.389709</ele>
<time>2010-06-20T15:42:25Z</time>
<desc>lat.=55.900215, lon.=26.528957, Alt.=113.389709m. Speed=0.828000m/h.</desc>
<speed>0.230000</speed>
</trkpt>
<trkpt lat="55.900223" lon="26.528957">
<ele>113.354553</ele>
<time>2010-06-20T15:42:26Z</time>
<desc>lat.=55.900223, lon.=26.528957, Alt.=113.354553m. Speed=0.612000m/h.</desc>
<speed>0.170000</speed>
</trkpt>
<trkpt lat="55.900227" lon="26.528959">
<ele>113.278381</ele>
<time>2010-06-20T15:42:27Z</time>
<desc>lat.=55.900227, lon.=26.528959, Alt.=113.278381m. Speed=0.468000m/h.</desc>
<speed>0.130000</speed>
</trkpt>
<trkpt lat="55.900227" lon="26.528957">
<ele>113.280334</ele>
<time>2010-06-20T15:42:28Z</time>
<desc>lat.=55.900227, lon.=26.528957, Alt.=113.280334m. Speed=0.216000m/h.</desc>
<speed>0.060000</speed>
</trkpt>
<trkpt lat="55.900227" lon="26.528957">
<ele>113.282288</ele>
<time>2010-06-20T15:42:29Z</time>
<desc>lat.=55.900227, lon.=26.528957, Alt.=113.282288m. Speed=0.468000m/h.</desc>
<speed>0.130000</speed>
</trkpt>
<trkpt lat="55.900227" lon="26.528955">
<ele>113.284241</ele>
<time>2010-06-20T15:42:30Z</time>
<desc>lat.=55.900227, lon.=26.528955, Alt.=113.284241m. Speed=0.504000m/h.</desc>
<speed>0.140000</speed>
</trkpt>
<trkpt lat="55.900227" lon="26.528955">
<ele>113.286194</ele>
<time>2010-06-20T15:42:31Z</time>
<desc>lat.=55.900227, lon.=26.528955, Alt.=113.286194m. Speed=0.288000m/h.</desc>
<speed>0.080000</speed>
</trkpt>
<trkpt lat="55.900230" lon="26.528954">
<ele>113.286194</ele>
<time>2010-06-20T15:42:32Z</time>
<desc>lat.=55.900230, lon.=26.528954, Alt.=113.286194m. Speed=0.576000m/h.</desc>
<speed>0.160000</speed>
</trkpt>
<trkpt lat="55.900230" lon="26.528952">
<ele>113.286194</ele>
<time>2010-06-20T15:42:33Z</time>
<desc>lat.=55.900230, lon.=26.528952, Alt.=113.286194m. Speed=0.576000m/h.</desc>
<speed>0.160000</speed>
</trkpt>
<trkpt lat="55.900230" lon="26.528950">
<ele>113.286194</ele>
<time>2010-06-20T15:42:34Z</time>
<desc>lat.=55.900230, lon.=26.528950, Alt.=113.286194m. Speed=0.720000m/h.</desc>
<speed>0.200000</speed>
</trkpt>
<trkpt lat="55.900230" lon="26.528946">
<ele>113.288147</ele>
<time>2010-06-20T15:42:35Z</time>
<desc>lat.=55.900230, lon.=26.528946, Alt.=113.288147m. Speed=0.720000m/h.</desc>
<speed>0.200000</speed>
</trkpt>
<trkpt lat="55.900234" lon="26.528946">
<ele>113.288147</ele>
<time>2010-06-20T15:42:36Z</time>
<desc>lat.=55.900234, lon.=26.528946, Alt.=113.288147m. Speed=0.540000m/h.</desc>
<speed>0.150000</speed>
</trkpt>
<trkpt lat="55.900234" lon="26.528946">
<ele>113.290100</ele>
<time>2010-06-20T15:42:37Z</time>
<desc>lat.=55.900234, lon.=26.528946, Alt.=113.290100m. Speed=0.396000m/h.</desc>
<speed>0.110000</speed>
</trkpt>
<trkpt lat="55.900234" lon="26.528946">
<ele>113.292053</ele>
<time>2010-06-20T15:42:38Z</time>
<desc>lat.=55.900234, lon.=26.528946, Alt.=113.292053m. Speed=0.396000m/h.</desc>
<speed>0.110000</speed>
</trkpt>
<trkpt lat="55.900234" lon="26.528944">
<ele>113.294006</ele>
<time>2010-06-20T15:42:39Z</time>
<desc>lat.=55.900234, lon.=26.528944, Alt.=113.294006m. Speed=0.468000m/h.</desc>
<speed>0.130000</speed>
</trkpt>
<trkpt lat="55.900234" lon="26.528942">
<ele>113.295959</ele>
<time>2010-06-20T15:42:40Z</time>
<desc>lat.=55.900234, lon.=26.528942, Alt.=113.295959m. Speed=0.756000m/h.</desc>
<speed>0.210000</speed>
</trkpt>
<trkpt lat="55.900234" lon="26.528940">
<ele>113.297913</ele>
<time>2010-06-20T15:42:41Z</time>
<desc>lat.=55.900234, lon.=26.528940, Alt.=113.297913m. Speed=0.432000m/h.</desc>
<speed>0.120000</speed>
</trkpt>
<trkpt lat="55.900234" lon="26.528942">
<ele>113.297913</ele>
<time>2010-06-20T15:42:42Z</time>
<desc>lat.=55.900234, lon.=26.528942, Alt.=113.297913m. Speed=0.324000m/h.</desc>
<speed>0.090000</speed>
</trkpt>
<trkpt lat="55.900230" lon="26.528944">
<ele>113.295959</ele>
<time>2010-06-20T15:42:43Z</time>
<desc>lat.=55.900230, lon.=26.528944, Alt.=113.295959m. Speed=0.972000m/h.</desc>
<speed>0.270000</speed>
</trkpt>
<trkpt lat="55.900230" lon="26.528946">
<ele>113.297913</ele>
<time>2010-06-20T15:42:44Z</time>
<desc>lat.=55.900230, lon.=26.528946, Alt.=113.297913m. Speed=0.792000m/h.</desc>
<speed>0.220000</speed>
</trkpt>
<trkpt lat="55.900227" lon="26.528946">
<ele>113.299866</ele>
<time>2010-06-20T15:42:45Z</time>
<desc>lat.=55.900227, lon.=26.528946, Alt.=113.299866m. Speed=0.396000m/h.</desc>
<speed>0.110000</speed>
</trkpt>
<trkpt lat="55.900227" lon="26.528948">
<ele>113.303772</ele>
<time>2010-06-20T15:42:46Z</time>
<desc>lat.=55.900227, lon.=26.528948, Alt.=113.303772m. Speed=1.008000m/h.</desc>
<speed>0.280000</speed>
</trkpt>
<trkpt lat="55.900227" lon="26.528950">
<ele>113.309631</ele>
<time>2010-06-20T15:42:47Z</time>
<desc>lat.=55.900227, lon.=26.528950, Alt.=113.309631m. Speed=0.756000m/h.</desc>
<speed>0.210000</speed>
</trkpt>
<trkpt lat="55.900223" lon="26.528952">
<ele>113.313538</ele>
<time>2010-06-20T15:42:48Z</time>
<desc>lat.=55.900223, lon.=26.528952, Alt.=113.313538m. Speed=0.936000m/h.</desc>
<speed>0.260000</speed>
</trkpt>
<trkpt lat="55.900223" lon="26.528954">
<ele>113.317444</ele>
<time>2010-06-20T15:42:49Z</time>
<desc>lat.=55.900223, lon.=26.528954, Alt.=113.317444m. Speed=0.792000m/h.</desc>
<speed>0.220000</speed>
</trkpt>
<trkpt lat="55.900219" lon="26.528954">
<ele>113.321350</ele>
<time>2010-06-20T15:42:50Z</time>
<desc>lat.=55.900219, lon.=26.528954, Alt.=113.321350m. Speed=0.072000m/h.</desc>
<speed>0.020000</speed>
</trkpt>
<trkpt lat="55.900219" lon="26.528954">
<ele>113.321350</ele>
<time>2010-06-20T15:42:51Z</time>
<desc>lat.=55.900219, lon.=26.528954, Alt.=113.321350m. Speed=0.216000m/h.</desc>
<speed>0.060000</speed>
</trkpt>
<trkpt lat="55.900219" lon="26.528952">
<ele>113.321350</ele>
<time>2010-06-20T15:42:52Z</time>
<desc>lat.=55.900219, lon.=26.528952, Alt.=113.321350m. Speed=0.648000m/h.</desc>
<speed>0.180000</speed>
</trkpt>
<trkpt lat="55.900219" lon="26.528950">
<ele>113.321350</ele>
<time>2010-06-20T15:42:53Z</time>
<desc>lat.=55.900219, lon.=26.528950, Alt.=113.321350m. Speed=0.828000m/h.</desc>
<speed>0.230000</speed>
</trkpt>
<trkpt lat="55.900215" lon="26.528946">
<ele>113.321350</ele>
<time>2010-06-20T15:42:54Z</time>
<desc>lat.=55.900215, lon.=26.528946, Alt.=113.321350m. Speed=0.612000m/h.</desc>
<speed>0.170000</speed>
</trkpt>
<trkpt lat="55.900215" lon="26.528944">
<ele>113.321350</ele>
<time>2010-06-20T15:42:55Z</time>
<desc>lat.=55.900215, lon.=26.528944, Alt.=113.321350m. Speed=0.936000m/h.</desc>
<speed>0.260000</speed>
</trkpt>
<trkpt lat="55.900215" lon="26.528942">
<ele>113.321350</ele>
<time>2010-06-20T15:42:56Z</time>
<desc>lat.=55.900215, lon.=26.528942, Alt.=113.321350m. Speed=0.684000m/h.</desc>
<speed>0.190000</speed>
</trkpt>
<trkpt lat="55.900211" lon="26.528944">
<ele>113.319397</ele>
<time>2010-06-20T15:42:57Z</time>
<desc>lat.=55.900211, lon.=26.528944, Alt.=113.319397m. Speed=0.828000m/h.</desc>
<speed>0.230000</speed>
</trkpt>
<trkpt lat="55.900211" lon="26.528946">
<ele>113.315491</ele>
<time>2010-06-20T15:42:58Z</time>
<desc>lat.=55.900211, lon.=26.528946, Alt.=113.315491m. Speed=0.216000m/h.</desc>
<speed>0.060000</speed>
</trkpt>
<trkpt lat="55.900211" lon="26.528946">
<ele>113.311584</ele>
<time>2010-06-20T15:42:59Z</time>
<desc>lat.=55.900211, lon.=26.528946, Alt.=113.311584m. Speed=1.008000m/h.</desc>
<speed>0.280000</speed>
</trkpt>
<trkpt lat="55.900215" lon="26.528948">
<ele>113.309631</ele>
<time>2010-06-20T15:43:00Z</time>
<desc>lat.=55.900215, lon.=26.528948, Alt.=113.309631m. Speed=0.612000m/h.</desc>
<speed>0.170000</speed>
</trkpt>
<trkpt lat="55.900215" lon="26.528950">
<ele>113.309631</ele>
<time>2010-06-20T15:43:01Z</time>
<desc>lat.=55.900215, lon.=26.528950, Alt.=113.309631m. Speed=0.756000m/h.</desc>
<speed>0.210000</speed>
</trkpt>
<trkpt lat="55.900215" lon="26.528952">
<ele>113.309631</ele>
<time>2010-06-20T15:43:02Z</time>
<desc>lat.=55.900215, lon.=26.528952, Alt.=113.309631m. Speed=0.252000m/h.</desc>
<speed>0.070000</speed>
</trkpt>
<trkpt lat="55.900215" lon="26.528954">
<ele>113.309631</ele>
<time>2010-06-20T15:43:03Z</time>
<desc>lat.=55.900215, lon.=26.528954, Alt.=113.309631m. Speed=0.324000m/h.</desc>
<speed>0.090000</speed>
</trkpt>
<trkpt lat="55.900215" lon="26.528954">
<ele>113.307678</ele>
<time>2010-06-20T15:43:04Z</time>
<desc>lat.=55.900215, lon.=26.528954, Alt.=113.307678m. Speed=0.576000m/h.</desc>
<speed>0.160000</speed>
</trkpt>
<trkpt lat="55.900219" lon="26.528957">
<ele>113.307678</ele>
<time>2010-06-20T15:43:05Z</time>
<desc>lat.=55.900219, lon.=26.528957, Alt.=113.307678m. Speed=0.360000m/h.</desc>
<speed>0.100000</speed>
</trkpt>
<trkpt lat="55.900219" lon="26.528957">
<ele>113.305725</ele>
<time>2010-06-20T15:43:06Z</time>
<desc>lat.=55.900219, lon.=26.528957, Alt.=113.305725m. Speed=0.792000m/h.</desc>
<speed>0.220000</speed>
</trkpt>
<trkpt lat="55.900215" lon="26.528961">
<ele>113.301819</ele>
<time>2010-06-20T15:43:07Z</time>
<desc>lat.=55.900215, lon.=26.528961, Alt.=113.301819m. Speed=0.756000m/h.</desc>
<speed>0.210000</speed>
</trkpt>
<trkpt lat="55.900215" lon="26.528961">
<ele>113.297913</ele>
<time>2010-06-20T15:43:08Z</time>
<desc>lat.=55.900215, lon.=26.528961, Alt.=113.297913m. Speed=1.368000m/h.</desc>
<speed>0.380000</speed>
</trkpt>
<trkpt lat="55.900215" lon="26.528950">
<ele>113.280334</ele>
<time>2010-06-20T15:43:09Z</time>
<desc>lat.=55.900215, lon.=26.528950, Alt.=113.280334m. Speed=0.972000m/h.</desc>
<speed>0.270000</speed>
</trkpt>
<trkpt lat="55.900219" lon="26.528936">
<ele>113.254944</ele>
<time>2010-06-20T15:43:10Z</time>
<desc>lat.=55.900219, lon.=26.528936, Alt.=113.254944m. Speed=0.540000m/h.</desc>
<speed>0.150000</speed>
</trkpt>
<trkpt lat="55.900219" lon="26.528923">
<ele>113.251038</ele>
<time>2010-06-20T15:43:11Z</time>
<desc>lat.=55.900219, lon.=26.528923, Alt.=113.251038m. Speed=0.540000m/h.</desc>
<speed>0.150000</speed>
</trkpt>
<trkpt lat="55.900223" lon="26.528923">
<ele>113.305725</ele>
<time>2010-06-20T15:43:12Z</time>
<desc>lat.=55.900223, lon.=26.528923, Alt.=113.305725m. Speed=0.252000m/h.</desc>
<speed>0.070000</speed>
</trkpt>
<trkpt lat="55.900223" lon="26.528923">
<ele>113.303772</ele>
<time>2010-06-20T15:43:13Z</time>
<desc>lat.=55.900223, lon.=26.528923, Alt.=113.303772m. Speed=0.180000m/h.</desc>
<speed>0.050000</speed>
</trkpt>
<trkpt lat="55.900223" lon="26.528923">
<ele>113.301819</ele>
<time>2010-06-20T15:43:14Z</time>
<desc>lat.=55.900223, lon.=26.528923, Alt.=113.301819m. Speed=0.360000m/h.</desc>
<speed>0.100000</speed>
</trkpt>
<trkpt lat="55.900223" lon="26.528923">
<ele>113.297913</ele>
<time>2010-06-20T15:43:15Z</time>
<desc>lat.=55.900223, lon.=26.528923, Alt.=113.297913m. Speed=0.684000m/h.</desc>
<speed>0.190000</speed>
</trkpt>
<trkpt lat="55.900227" lon="26.528923">
<ele>113.295959</ele>
<time>2010-06-20T15:43:16Z</time>
<desc>lat.=55.900227, lon.=26.528923, Alt.=113.295959m. Speed=0.324000m/h.</desc>
<speed>0.090000</speed>
</trkpt>
<trkpt lat="55.900227" lon="26.528921">
<ele>113.294006</ele>
<time>2010-06-20T15:43:17Z</time>
<desc>lat.=55.900227, lon.=26.528921, Alt.=113.294006m. Speed=0.288000m/h.</desc>
<speed>0.080000</speed>
</trkpt>
<trkpt lat="55.900227" lon="26.528923">
<ele>113.294006</ele>
<time>2010-06-20T15:43:18Z</time>
<desc>lat.=55.900227, lon.=26.528923, Alt.=113.294006m. Speed=1.224000m/h.</desc>
<speed>0.340000</speed>
</trkpt>
<trkpt lat="55.900227" lon="26.528929">
<ele>113.309631</ele>
<time>2010-06-20T15:43:19Z</time>
<desc>lat.=55.900227, lon.=26.528929, Alt.=113.309631m. Speed=0.612000m/h.</desc>
<speed>0.170000</speed>
</trkpt>
<trkpt lat="55.900230" lon="26.528934">
<ele>113.303772</ele>
<time>2010-06-20T15:43:20Z</time>
<desc>lat.=55.900230, lon.=26.528934, Alt.=113.303772m. Speed=0.360000m/h.</desc>
<speed>0.100000</speed>
</trkpt>
<trkpt lat="55.900234" lon="26.528938">
<ele>113.299866</ele>
<time>2010-06-20T15:43:21Z</time>
<desc>lat.=55.900234, lon.=26.528938, Alt.=113.299866m. Speed=0.216000m/h.</desc>
<speed>0.060000</speed>
</trkpt>
<trkpt lat="55.900234" lon="26.528944">
<ele>113.294006</ele>
<time>2010-06-20T15:43:22Z</time>
<desc>lat.=55.900234, lon.=26.528944, Alt.=113.294006m. Speed=0.612000m/h.</desc>
<speed>0.170000</speed>
</trkpt>
<trkpt lat="55.900234" lon="26.528946">
<ele>113.295959</ele>
<time>2010-06-20T15:43:23Z</time>
<desc>lat.=55.900234, lon.=26.528946, Alt.=113.295959m. Speed=0.504000m/h.</desc>
<speed>0.140000</speed>
</trkpt>
<trkpt lat="55.900230" lon="26.528946">
<ele>113.295959</ele>
<time>2010-06-20T15:43:24Z</time>
<desc>lat.=55.900230, lon.=26.528946, Alt.=113.295959m. Speed=0.612000m/h.</desc>
<speed>0.170000</speed>
</trkpt>
<trkpt lat="55.900230" lon="26.528944">
<ele>113.297913</ele>
<time>2010-06-20T15:43:25Z</time>
<desc>lat.=55.900230, lon.=26.528944, Alt.=113.297913m. Speed=0.504000m/h.</desc>
<speed>0.140000</speed>
</trkpt>
<trkpt lat="55.900230" lon="26.528944">
<ele>113.299866</ele>
<time>2010-06-20T15:43:26Z</time>
<desc>lat.=55.900230, lon.=26.528944, Alt.=113.299866m. Speed=0.612000m/h.</desc>
<speed>0.170000</speed>
</trkpt>
<trkpt lat="55.900227" lon="26.528942">
<ele>113.299866</ele>
<time>2010-06-20T15:43:27Z</time>
<desc>lat.=55.900227, lon.=26.528942, Alt.=113.299866m. Speed=0.396000m/h.</desc>
<speed>0.110000</speed>
</trkpt>
<trkpt lat="55.900227" lon="26.528942">
<ele>113.297913</ele>
<time>2010-06-20T15:43:28Z</time>
<desc>lat.=55.900227, lon.=26.528942, Alt.=113.297913m. Speed=0.864000m/h.</desc>
<speed>0.240000</speed>
</trkpt>
<trkpt lat="55.900227" lon="26.528946">
<ele>113.297913</ele>
<time>2010-06-20T15:43:29Z</time>
<desc>lat.=55.900227, lon.=26.528946, Alt.=113.297913m. Speed=0.540000m/h.</desc>
<speed>0.150000</speed>
</trkpt>
<trkpt lat="55.900227" lon="26.528948">
<ele>113.297913</ele>
<time>2010-06-20T15:43:30Z</time>
<desc>lat.=55.900227, lon.=26.528948, Alt.=113.297913m. Speed=0.360000m/h.</desc>
<speed>0.100000</speed>
</trkpt>
<trkpt lat="55.900223" lon="26.528948">
<ele>113.297913</ele>
<time>2010-06-20T15:43:31Z</time>
<desc>lat.=55.900223, lon.=26.528948, Alt.=113.297913m. Speed=0.324000m/h.</desc>
<speed>0.090000</speed>
</trkpt>
<trkpt lat="55.900223" lon="26.528950">
<ele>113.299866</ele>
<time>2010-06-20T15:43:32Z</time>
<desc>lat.=55.900223, lon.=26.528950, Alt.=113.299866m. Speed=0.432000m/h.</desc>
<speed>0.120000</speed>
</trkpt>
<trkpt lat="55.900223" lon="26.528952">
<ele>113.299866</ele>
<time>2010-06-20T15:43:33Z</time>
<desc>lat.=55.900223, lon.=26.528952, Alt.=113.299866m. Speed=0.576000m/h.</desc>
<speed>0.160000</speed>
</trkpt>
<trkpt lat="55.900223" lon="26.528954">
<ele>113.299866</ele>
<time>2010-06-20T15:43:34Z</time>
<desc>lat.=55.900223, lon.=26.528954, Alt.=113.299866m. Speed=0.720000m/h.</desc>
<speed>0.200000</speed>
</trkpt>
<trkpt lat="55.900227" lon="26.528957">
<ele>113.299866</ele>
<time>2010-06-20T15:43:35Z</time>
<desc>lat.=55.900227, lon.=26.528957, Alt.=113.299866m. Speed=0.720000m/h.</desc>
<speed>0.200000</speed>
</trkpt>
<trkpt lat="55.900227" lon="26.528961">
<ele>113.299866</ele>
<time>2010-06-20T15:43:36Z</time>
<desc>lat.=55.900227, lon.=26.528961, Alt.=113.299866m. Speed=0.720000m/h.</desc>
<speed>0.200000</speed>
</trkpt>
<trkpt lat="55.900227" lon="26.528963">
<ele>113.301819</ele>
<time>2010-06-20T15:43:37Z</time>
<desc>lat.=55.900227, lon.=26.528963, Alt.=113.301819m. Speed=0.972000m/h.</desc>
<speed>0.270000</speed>
</trkpt>
<trkpt lat="55.900227" lon="26.528967">
<ele>113.303772</ele>
<time>2010-06-20T15:43:38Z</time>
<desc>lat.=55.900227, lon.=26.528967, Alt.=113.303772m. Speed=0.900000m/h.</desc>
<speed>0.250000</speed>
</trkpt>
<trkpt lat="55.900230" lon="26.528971">
<ele>113.303772</ele>
<time>2010-06-20T15:43:39Z</time>
<desc>lat.=55.900230, lon.=26.528971, Alt.=113.303772m. Speed=0.756000m/h.</desc>
<speed>0.210000</speed>
</trkpt>
<trkpt lat="55.900230" lon="26.528973">
<ele>113.303772</ele>
<time>2010-06-20T15:43:40Z</time>
<desc>lat.=55.900230, lon.=26.528973, Alt.=113.303772m. Speed=1.152000m/h.</desc>
<speed>0.320000</speed>
</trkpt>
<trkpt lat="55.900230" lon="26.528984">
<ele>113.294006</ele>
<time>2010-06-20T15:43:41Z</time>
<desc>lat.=55.900230, lon.=26.528984, Alt.=113.294006m. Speed=0.756000m/h.</desc>
<speed>0.210000</speed>
</trkpt>
<trkpt lat="55.900238" lon="26.528988">
<ele>113.294006</ele>
<time>2010-06-20T15:43:42Z</time>
<desc>lat.=55.900238, lon.=26.528988, Alt.=113.294006m. Speed=0.648000m/h.</desc>
<speed>0.180000</speed>
</trkpt>
<trkpt lat="55.900246" lon="26.528986">
<ele>113.325256</ele>
<time>2010-06-20T15:43:43Z</time>
<desc>lat.=55.900246, lon.=26.528986, Alt.=113.325256m. Speed=1.008000m/h.</desc>
<speed>0.280000</speed>
</trkpt>
<trkpt lat="55.900249" lon="26.528994">
<ele>113.413147</ele>
<time>2010-06-20T15:43:44Z</time>
<desc>lat.=55.900249, lon.=26.528994, Alt.=113.413147m. Speed=0.576000m/h.</desc>
<speed>0.160000</speed>
</trkpt>
<trkpt lat="55.900249" lon="26.528997">
<ele>113.417053</ele>
<time>2010-06-20T15:43:45Z</time>
<desc>lat.=55.900249, lon.=26.528997, Alt.=113.417053m. Speed=1.008000m/h.</desc>
<speed>0.280000</speed>
</trkpt>
<trkpt lat="55.900249" lon="26.529001">
<ele>113.417053</ele>
<time>2010-06-20T15:43:46Z</time>
<desc>lat.=55.900249, lon.=26.529001, Alt.=113.417053m. Speed=1.116000m/h.</desc>
<speed>0.310000</speed>
</trkpt>
<trkpt lat="55.900246" lon="26.529007">
<ele>113.460022</ele>
<time>2010-06-20T15:43:47Z</time>
<desc>lat.=55.900246, lon.=26.529007, Alt.=113.460022m. Speed=0.612000m/h.</desc>
<speed>0.170000</speed>
</trkpt>
<trkpt lat="55.900246" lon="26.529013">
<ele>113.540100</ele>
<time>2010-06-20T15:43:48Z</time>
<desc>lat.=55.900246, lon.=26.529013, Alt.=113.540100m. Speed=0.864000m/h.</desc>
<speed>0.240000</speed>
</trkpt>
<trkpt lat="55.900242" lon="26.529018">
<ele>113.553772</ele>
<time>2010-06-20T15:43:49Z</time>
<desc>lat.=55.900242, lon.=26.529018, Alt.=113.553772m. Speed=1.116000m/h.</desc>
<speed>0.310000</speed>
</trkpt>
<trkpt lat="55.900242" lon="26.529026">
<ele>113.553772</ele>
<time>2010-06-20T15:43:50Z</time>
<desc>lat.=55.900242, lon.=26.529026, Alt.=113.553772m. Speed=1.260000m/h.</desc>
<speed>0.350000</speed>
</trkpt>
<trkpt lat="55.900242" lon="26.529020">
<ele>113.547913</ele>
<time>2010-06-20T15:43:51Z</time>
<desc>lat.=55.900242, lon.=26.529020, Alt.=113.547913m. Speed=0.576000m/h.</desc>
<speed>0.160000</speed>
</trkpt>
<trkpt lat="55.900238" lon="26.529015">
<ele>113.602600</ele>
<time>2010-06-20T15:43:52Z</time>
<desc>lat.=55.900238, lon.=26.529015, Alt.=113.602600m. Speed=0.684000m/h.</desc>
<speed>0.190000</speed>
</trkpt>
<trkpt lat="55.900234" lon="26.529013">
<ele>113.657288</ele>
<time>2010-06-20T15:43:53Z</time>
<desc>lat.=55.900234, lon.=26.529013, Alt.=113.657288m. Speed=0.756000m/h.</desc>
<speed>0.210000</speed>
</trkpt>
<trkpt lat="55.900238" lon="26.529015">
<ele>113.758850</ele>
<time>2010-06-20T15:43:54Z</time>
<desc>lat.=55.900238, lon.=26.529015, Alt.=113.758850m. Speed=0.324000m/h.</desc>
<speed>0.090000</speed>
</trkpt>
<trkpt lat="55.900238" lon="26.529013">
<ele>113.760803</ele>
<time>2010-06-20T15:43:55Z</time>
<desc>lat.=55.900238, lon.=26.529013, Alt.=113.760803m. Speed=0.396000m/h.</desc>
<speed>0.110000</speed>
</trkpt>
<trkpt lat="55.900234" lon="26.529013">
<ele>113.764709</ele>
<time>2010-06-20T15:43:56Z</time>
<desc>lat.=55.900234, lon.=26.529013, Alt.=113.764709m. Speed=0.684000m/h.</desc>
<speed>0.190000</speed>
</trkpt>
<trkpt lat="55.900234" lon="26.529009">
<ele>113.766663</ele>
<time>2010-06-20T15:43:57Z</time>
<desc>lat.=55.900234, lon.=26.529009, Alt.=113.766663m. Speed=1.044000m/h.</desc>
<speed>0.290000</speed>
</trkpt>
<trkpt lat="55.900234" lon="26.529007">
<ele>113.770569</ele>
<time>2010-06-20T15:43:58Z</time>
<desc>lat.=55.900234, lon.=26.529007, Alt.=113.770569m. Speed=1.404000m/h.</desc>
<speed>0.390000</speed>
</trkpt>
<trkpt lat="55.900234" lon="26.528988">
<ele>113.627991</ele>
<time>2010-06-20T15:43:59Z</time>
<desc>lat.=55.900234, lon.=26.528988, Alt.=113.627991m. Speed=0.936000m/h.</desc>
<speed>0.260000</speed>
</trkpt>
<trkpt lat="55.900227" lon="26.528982">
<ele>113.504944</ele>
<time>2010-06-20T15:44:00Z</time>
<desc>lat.=55.900227, lon.=26.528982, Alt.=113.504944m. Speed=1.332000m/h.</desc>
<speed>0.370000</speed>
</trkpt>
<trkpt lat="55.900227" lon="26.528973">
<ele>113.348694</ele>
<time>2010-06-20T15:44:01Z</time>
<desc>lat.=55.900227, lon.=26.528973, Alt.=113.348694m. Speed=0.864000m/h.</desc>
<speed>0.240000</speed>
</trkpt>
<trkpt lat="55.900230" lon="26.528976">
<ele>113.301819</ele>
<time>2010-06-20T15:44:02Z</time>
<desc>lat.=55.900230, lon.=26.528976, Alt.=113.301819m. Speed=0.576000m/h.</desc>
<speed>0.160000</speed>
</trkpt>
<trkpt lat="55.900230" lon="26.528978">
<ele>113.266663</ele>
<time>2010-06-20T15:44:03Z</time>
<desc>lat.=55.900230, lon.=26.528978, Alt.=113.266663m. Speed=1.008000m/h.</desc>
<speed>0.280000</speed>
</trkpt>
<trkpt lat="55.900234" lon="26.528986">
<ele>113.258850</ele>
<time>2010-06-20T15:44:04Z</time>
<desc>lat.=55.900234, lon.=26.528986, Alt.=113.258850m. Speed=0.648000m/h.</desc>
<speed>0.180000</speed>
</trkpt>
<trkpt lat="55.900230" lon="26.528986">
<ele>113.256897</ele>
<time>2010-06-20T15:44:05Z</time>
<desc>lat.=55.900230, lon.=26.528986, Alt.=113.256897m. Speed=0.468000m/h.</desc>
<speed>0.130000</speed>
</trkpt>
<trkpt lat="55.900234" lon="26.528986">
<ele>113.252991</ele>
<time>2010-06-20T15:44:06Z</time>
<desc>lat.=55.900234, lon.=26.528986, Alt.=113.252991m. Speed=0.864000m/h.</desc>
<speed>0.240000</speed>
</trkpt>
<trkpt lat="55.900234" lon="26.528986">
<ele>113.247131</ele>
<time>2010-06-20T15:44:07Z</time>
<desc>lat.=55.900234, lon.=26.528986, Alt.=113.247131m. Speed=0.828000m/h.</desc>
<speed>0.230000</speed>
</trkpt>
<trkpt lat="55.900238" lon="26.528986">
<ele>113.241272</ele>
<time>2010-06-20T15:44:08Z</time>
<desc>lat.=55.900238, lon.=26.528986, Alt.=113.241272m. Speed=0.828000m/h.</desc>
<speed>0.230000</speed>
</trkpt>
<trkpt lat="55.900238" lon="26.528982">
<ele>113.239319</ele>
<time>2010-06-20T15:44:09Z</time>
<desc>lat.=55.900238, lon.=26.528982, Alt.=113.239319m. Speed=0.936000m/h.</desc>
<speed>0.260000</speed>
</trkpt>
<trkpt lat="55.900238" lon="26.528978">
<ele>113.235413</ele>
<time>2010-06-20T15:44:10Z</time>
<desc>lat.=55.900238, lon.=26.528978, Alt.=113.235413m. Speed=0.720000m/h.</desc>
<speed>0.200000</speed>
</trkpt>
<trkpt lat="55.900238" lon="26.528975">
<ele>113.231506</ele>
<time>2010-06-20T15:44:11Z</time>
<desc>lat.=55.900238, lon.=26.528975, Alt.=113.231506m. Speed=0.288000m/h.</desc>
<speed>0.080000</speed>
</trkpt>
<trkpt lat="55.900238" lon="26.528975">
<ele>113.227600</ele>
<time>2010-06-20T15:44:12Z</time>
<desc>lat.=55.900238, lon.=26.528975, Alt.=113.227600m. Speed=0.144000m/h.</desc>
<speed>0.040000</speed>
</trkpt>
<trkpt lat="55.900238" lon="26.528975">
<ele>113.223694</ele>
<time>2010-06-20T15:44:13Z</time>
<desc>lat.=55.900238, lon.=26.528975, Alt.=113.223694m. Speed=0.180000m/h.</desc>
<speed>0.050000</speed>
</trkpt>
<trkpt lat="55.900238" lon="26.528973">
<ele>113.215881</ele>
<time>2010-06-20T15:44:14Z</time>
<desc>lat.=55.900238, lon.=26.528973, Alt.=113.215881m. Speed=0.684000m/h.</desc>
<speed>0.190000</speed>
</trkpt>
<trkpt lat="55.900238" lon="26.528973">
<ele>113.211975</ele>
<time>2010-06-20T15:44:15Z</time>
<desc>lat.=55.900238, lon.=26.528973, Alt.=113.211975m. Speed=0.684000m/h.</desc>
<speed>0.190000</speed>
</trkpt>
<trkpt lat="55.900234" lon="26.528971">
<ele>113.206116</ele>
<time>2010-06-20T15:44:16Z</time>
<desc>lat.=55.900234, lon.=26.528971, Alt.=113.206116m. Speed=0.720000m/h.</desc>
<speed>0.200000</speed>
</trkpt>
<trkpt lat="55.900234" lon="26.528969">
<ele>113.200256</ele>
<time>2010-06-20T15:44:17Z</time>
<desc>lat.=55.900234, lon.=26.528969, Alt.=113.200256m. Speed=0.720000m/h.</desc>
<speed>0.200000</speed>
</trkpt>
<trkpt lat="55.900230" lon="26.528969">
<ele>113.194397</ele>
<time>2010-06-20T15:44:18Z</time>
<desc>lat.=55.900230, lon.=26.528969, Alt.=113.194397m. Speed=0.936000m/h.</desc>
<speed>0.260000</speed>
</trkpt>
<trkpt lat="55.900230" lon="26.528967">
<ele>113.188538</ele>
<time>2010-06-20T15:44:19Z</time>
<desc>lat.=55.900230, lon.=26.528967, Alt.=113.188538m. Speed=1.368000m/h.</desc>
<speed>0.380000</speed>
</trkpt>
<trkpt lat="55.900234" lon="26.528961">
<ele>113.008850</ele>
<time>2010-06-20T15:44:20Z</time>
<desc>lat.=55.900234, lon.=26.528961, Alt.=113.008850m. Speed=0.828000m/h.</desc>
<speed>0.230000</speed>
</trkpt>
<trkpt lat="55.900234" lon="26.528961">
<ele>112.897522</ele>
<time>2010-06-20T15:44:21Z</time>
<desc>lat.=55.900234, lon.=26.528961, Alt.=112.897522m. Speed=0.792000m/h.</desc>
<speed>0.220000</speed>
</trkpt>
<trkpt lat="55.900234" lon="26.528963">
<ele>112.764709</ele>
<time>2010-06-20T15:44:22Z</time>
<desc>lat.=55.900234, lon.=26.528963, Alt.=112.764709m. Speed=0.972000m/h.</desc>
<speed>0.270000</speed>
</trkpt>
<trkpt lat="55.900238" lon="26.528959">
<ele>112.508850</ele>
<time>2010-06-20T15:44:23Z</time>
<desc>lat.=55.900238, lon.=26.528959, Alt.=112.508850m. Speed=0.360000m/h.</desc>
<speed>0.100000</speed>
</trkpt>
<trkpt lat="55.900238" lon="26.528959">
<ele>112.499084</ele>
<time>2010-06-20T15:44:24Z</time>
<desc>lat.=55.900238, lon.=26.528959, Alt.=112.499084m. Speed=0.396000m/h.</desc>
<speed>0.110000</speed>
</trkpt>
<trkpt lat="55.900234" lon="26.528959">
<ele>112.491272</ele>
<time>2010-06-20T15:44:25Z</time>
<desc>lat.=55.900234, lon.=26.528959, Alt.=112.491272m. Speed=0.504000m/h.</desc>
<speed>0.140000</speed>
</trkpt>
<trkpt lat="55.900234" lon="26.528961">
<ele>112.483459</ele>
<time>2010-06-20T15:44:26Z</time>
<desc>lat.=55.900234, lon.=26.528961, Alt.=112.483459m. Speed=0.936000m/h.</desc>
<speed>0.260000</speed>
</trkpt>
<trkpt lat="55.900234" lon="26.528963">
<ele>112.475647</ele>
<time>2010-06-20T15:44:27Z</time>
<desc>lat.=55.900234, lon.=26.528963, Alt.=112.475647m. Speed=1.332000m/h.</desc>
<speed>0.370000</speed>
</trkpt>
<trkpt lat="55.900234" lon="26.528963">
<ele>112.311584</ele>
<time>2010-06-20T15:44:28Z</time>
<desc>lat.=55.900234, lon.=26.528963, Alt.=112.311584m. Speed=0.936000m/h.</desc>
<speed>0.260000</speed>
</trkpt>
<trkpt lat="55.900230" lon="26.528969">
<ele>112.215881</ele>
<time>2010-06-20T15:44:29Z</time>
<desc>lat.=55.900230, lon.=26.528969, Alt.=112.215881m. Speed=0.504000m/h.</desc>
<speed>0.140000</speed>
</trkpt>
<trkpt lat="55.900230" lon="26.528973">
<ele>112.086975</ele>
<time>2010-06-20T15:44:30Z</time>
<desc>lat.=55.900230, lon.=26.528973, Alt.=112.086975m. Speed=0.612000m/h.</desc>
<speed>0.170000</speed>
</trkpt>
<trkpt lat="55.900230" lon="26.528980">
<ele>111.958069</ele>
<time>2010-06-20T15:44:31Z</time>
<desc>lat.=55.900230, lon.=26.528980, Alt.=111.958069m. Speed=0.180000m/h.</desc>
<speed>0.050000</speed>
</trkpt>
<trkpt lat="55.900230" lon="26.528980">
<ele>111.952209</ele>
<time>2010-06-20T15:44:32Z</time>
<desc>lat.=55.900230, lon.=26.528980, Alt.=111.952209m. Speed=0.324000m/h.</desc>
<speed>0.090000</speed>
</trkpt>
<trkpt lat="55.900230" lon="26.528982">
<ele>111.948303</ele>
<time>2010-06-20T15:44:33Z</time>
<desc>lat.=55.900230, lon.=26.528982, Alt.=111.948303m. Speed=0.432000m/h.</desc>
<speed>0.120000</speed>
</trkpt>
<trkpt lat="55.900230" lon="26.528982">
<ele>111.944397</ele>
<time>2010-06-20T15:44:34Z</time>
<desc>lat.=55.900230, lon.=26.528982, Alt.=111.944397m. Speed=0.900000m/h.</desc>
<speed>0.250000</speed>
</trkpt>
<trkpt lat="55.900230" lon="26.528984">
<ele>111.940491</ele>
<time>2010-06-20T15:44:35Z</time>
<desc>lat.=55.900230, lon.=26.528984, Alt.=111.940491m. Speed=0.648000m/h.</desc>
<speed>0.180000</speed>
</trkpt>
<trkpt lat="55.900234" lon="26.528982">
<ele>111.934631</ele>
<time>2010-06-20T15:44:36Z</time>
<desc>lat.=55.900234, lon.=26.528982, Alt.=111.934631m. Speed=0.504000m/h.</desc>
<speed>0.140000</speed>
</trkpt>
<trkpt lat="55.900234" lon="26.528982">
<ele>111.930725</ele>
<time>2010-06-20T15:44:37Z</time>
<desc>lat.=55.900234, lon.=26.528982, Alt.=111.930725m. Speed=0.684000m/h.</desc>
<speed>0.190000</speed>
</trkpt>
<trkpt lat="55.900238" lon="26.528984">
<ele>111.926819</ele>
<time>2010-06-20T15:44:38Z</time>
<desc>lat.=55.900238, lon.=26.528984, Alt.=111.926819m. Speed=0.792000m/h.</desc>
<speed>0.220000</speed>
</trkpt>
<trkpt lat="55.900238" lon="26.528988">
<ele>111.922913</ele>
<time>2010-06-20T15:44:39Z</time>
<desc>lat.=55.900238, lon.=26.528988, Alt.=111.922913m. Speed=0.504000m/h.</desc>
<speed>0.140000</speed>
</trkpt>
<trkpt lat="55.900238" lon="26.528990">
<ele>111.922913</ele>
<time>2010-06-20T15:44:40Z</time>
<desc>lat.=55.900238, lon.=26.528990, Alt.=111.922913m. Speed=0.468000m/h.</desc>
<speed>0.130000</speed>
</trkpt>
<trkpt lat="55.900238" lon="26.528990">
<ele>111.922913</ele>
<time>2010-06-20T15:44:41Z</time>
<desc>lat.=55.900238, lon.=26.528990, Alt.=111.922913m. Speed=0.720000m/h.</desc>
<speed>0.200000</speed>
</trkpt>
<trkpt lat="55.900238" lon="26.528994">
<ele>111.922913</ele>
<time>2010-06-20T15:44:42Z</time>
<desc>lat.=55.900238, lon.=26.528994, Alt.=111.922913m. Speed=0.288000m/h.</desc>
<speed>0.080000</speed>
</trkpt>
<trkpt lat="55.900238" lon="26.528996">
<ele>111.922913</ele>
<time>2010-06-20T15:44:43Z</time>
<desc>lat.=55.900238, lon.=26.528996, Alt.=111.922913m. Speed=0.216000m/h.</desc>
<speed>0.060000</speed>
</trkpt>
<trkpt lat="55.900238" lon="26.528996">
<ele>111.926819</ele>
<time>2010-06-20T15:44:44Z</time>
<desc>lat.=55.900238, lon.=26.528996, Alt.=111.926819m. Speed=0.936000m/h.</desc>
<speed>0.260000</speed>
</trkpt>
<trkpt lat="55.900238" lon="26.528994">
<ele>111.930725</ele>
<time>2010-06-20T15:44:45Z</time>
<desc>lat.=55.900238, lon.=26.528994, Alt.=111.930725m. Speed=0.648000m/h.</desc>
<speed>0.180000</speed>
</trkpt>
<trkpt lat="55.900234" lon="26.528994">
<ele>111.930725</ele>
<time>2010-06-20T15:44:46Z</time>
<desc>lat.=55.900234, lon.=26.528994, Alt.=111.930725m. Speed=0.432000m/h.</desc>
<speed>0.120000</speed>
</trkpt>
<trkpt lat="55.900234" lon="26.528994">
<ele>111.930725</ele>
<time>2010-06-20T15:44:47Z</time>
<desc>lat.=55.900234, lon.=26.528994, Alt.=111.930725m. Speed=0.612000m/h.</desc>
<speed>0.170000</speed>
</trkpt>
<trkpt lat="55.900234" lon="26.528992">
<ele>111.930725</ele>
<time>2010-06-20T15:44:48Z</time>
<desc>lat.=55.900234, lon.=26.528992, Alt.=111.930725m. Speed=0.324000m/h.</desc>
<speed>0.090000</speed>
</trkpt>
<trkpt lat="55.900234" lon="26.528990">
<ele>111.930725</ele>
<time>2010-06-20T15:44:49Z</time>
<desc>lat.=55.900234, lon.=26.528990, Alt.=111.930725m. Speed=0.540000m/h.</desc>
<speed>0.150000</speed>
</trkpt>
<trkpt lat="55.900234" lon="26.528988">
<ele>111.930725</ele>
<time>2010-06-20T15:44:50Z</time>
<desc>lat.=55.900234, lon.=26.528988, Alt.=111.930725m. Speed=0.900000m/h.</desc>
<speed>0.250000</speed>
</trkpt>
<trkpt lat="55.900230" lon="26.528982">
<ele>111.932678</ele>
<time>2010-06-20T15:44:51Z</time>
<desc>lat.=55.900230, lon.=26.528982, Alt.=111.932678m. Speed=2.124000m/h.</desc>
<speed>0.590000</speed>
</trkpt>
<trkpt lat="55.900238" lon="26.528980">
<ele>111.864319</ele>
<time>2010-06-20T15:44:52Z</time>
<desc>lat.=55.900238, lon.=26.528980, Alt.=111.864319m. Speed=1.584000m/h.</desc>
<speed>0.440000</speed>
</trkpt>
<trkpt lat="55.900238" lon="26.528975">
<ele>111.838928</ele>
<time>2010-06-20T15:44:53Z</time>
<desc>lat.=55.900238, lon.=26.528975, Alt.=111.838928m. Speed=0.936000m/h.</desc>
<speed>0.260000</speed>
</trkpt>
<trkpt lat="55.900238" lon="26.528976">
<ele>111.807678</ele>
<time>2010-06-20T15:44:54Z</time>
<desc>lat.=55.900238, lon.=26.528976, Alt.=111.807678m. Speed=0.360000m/h.</desc>
<speed>0.100000</speed>
</trkpt>
<trkpt lat="55.900238" lon="26.528976">
<ele>111.817444</ele>
<time>2010-06-20T15:44:55Z</time>
<desc>lat.=55.900238, lon.=26.528976, Alt.=111.817444m. Speed=0.108000m/h.</desc>
<speed>0.030000</speed>
</trkpt>
<trkpt lat="55.900238" lon="26.528975">
<ele>111.821350</ele>
<time>2010-06-20T15:44:56Z</time>
<desc>lat.=55.900238, lon.=26.528975, Alt.=111.821350m. Speed=0.360000m/h.</desc>
<speed>0.100000</speed>
</trkpt>
<trkpt lat="55.900238" lon="26.528973">
<ele>111.821350</ele>
<time>2010-06-20T15:44:57Z</time>
<desc>lat.=55.900238, lon.=26.528973, Alt.=111.821350m. Speed=0.576000m/h.</desc>
<speed>0.160000</speed>
</trkpt>
<trkpt lat="55.900238" lon="26.528971">
<ele>111.819397</ele>
<time>2010-06-20T15:44:58Z</time>
<desc>lat.=55.900238, lon.=26.528971, Alt.=111.819397m. Speed=0.288000m/h.</desc>
<speed>0.080000</speed>
</trkpt>
<trkpt lat="55.900234" lon="26.528971">
<ele>111.817444</ele>
<time>2010-06-20T15:44:59Z</time>
<desc>lat.=55.900234, lon.=26.528971, Alt.=111.817444m. Speed=0.252000m/h.</desc>
<speed>0.070000</speed>
</trkpt>
<trkpt lat="55.900238" lon="26.528971">
<ele>111.815491</ele>
<time>2010-06-20T15:45:00Z</time>
<desc>lat.=55.900238, lon.=26.528971, Alt.=111.815491m. Speed=0.468000m/h.</desc>
<speed>0.130000</speed>
</trkpt>
<trkpt lat="55.900234" lon="26.528973">
<ele>111.815491</ele>
<time>2010-06-20T15:45:01Z</time>
<desc>lat.=55.900234, lon.=26.528973, Alt.=111.815491m. Speed=0.720000m/h.</desc>
<speed>0.200000</speed>
</trkpt>
<trkpt lat="55.900234" lon="26.528971">
<ele>111.813538</ele>
<time>2010-06-20T15:45:02Z</time>
<desc>lat.=55.900234, lon.=26.528971, Alt.=111.813538m. Speed=1.332000m/h.</desc>
<speed>0.370000</speed>
</trkpt>
<trkpt lat="55.900238" lon="26.528967">
<ele>111.743225</ele>
<time>2010-06-20T15:45:03Z</time>
<desc>lat.=55.900238, lon.=26.528967, Alt.=111.743225m. Speed=0.792000m/h.</desc>
<speed>0.220000</speed>
</trkpt>
<trkpt lat="55.900234" lon="26.528965">
<ele>111.790100</ele>
<time>2010-06-20T15:45:04Z</time>
<desc>lat.=55.900234, lon.=26.528965, Alt.=111.790100m. Speed=0.576000m/h.</desc>
<speed>0.160000</speed>
</trkpt>
<trkpt lat="55.900234" lon="26.528963">
<ele>111.858459</ele>
<time>2010-06-20T15:45:05Z</time>
<desc>lat.=55.900234, lon.=26.528963, Alt.=111.858459m. Speed=0.756000m/h.</desc>
<speed>0.210000</speed>
</trkpt>
<trkpt lat="55.900238" lon="26.528973">
<ele>111.932678</ele>
<time>2010-06-20T15:45:06Z</time>
<desc>lat.=55.900238, lon.=26.528973, Alt.=111.932678m. Speed=0.216000m/h.</desc>
<speed>0.060000</speed>
</trkpt>
<trkpt lat="55.900238" lon="26.528973">
<ele>111.932678</ele>
<time>2010-06-20T15:45:07Z</time>
<desc>lat.=55.900238, lon.=26.528973, Alt.=111.932678m. Speed=0.288000m/h.</desc>
<speed>0.080000</speed>
</trkpt>
<trkpt lat="55.900238" lon="26.528971">
<ele>111.932678</ele>
<time>2010-06-20T15:45:08Z</time>
<desc>lat.=55.900238, lon.=26.528971, Alt.=111.932678m. Speed=0.468000m/h.</desc>
<speed>0.130000</speed>
</trkpt>
<trkpt lat="55.900234" lon="26.528971">
<ele>111.936584</ele>
<time>2010-06-20T15:45:09Z</time>
<desc>lat.=55.900234, lon.=26.528971, Alt.=111.936584m. Speed=0.432000m/h.</desc>
<speed>0.120000</speed>
</trkpt>
<trkpt lat="55.900234" lon="26.528969">
<ele>111.942444</ele>
<time>2010-06-20T15:45:10Z</time>
<desc>lat.=55.900234, lon.=26.528969, Alt.=111.942444m. Speed=0.792000m/h.</desc>
<speed>0.220000</speed>
</trkpt>
<trkpt lat="55.900238" lon="26.528969">
<ele>111.946350</ele>
<time>2010-06-20T15:45:11Z</time>
<desc>lat.=55.900238, lon.=26.528969, Alt.=111.946350m. Speed=0.360000m/h.</desc>
<speed>0.100000</speed>
</trkpt>
<trkpt lat="55.900238" lon="26.528967">
<ele>111.948303</ele>
<time>2010-06-20T15:45:12Z</time>
<desc>lat.=55.900238, lon.=26.528967, Alt.=111.948303m. Speed=0.540000m/h.</desc>
<speed>0.150000</speed>
</trkpt>
<trkpt lat="55.900238" lon="26.528965">
<ele>111.950256</ele>
<time>2010-06-20T15:45:13Z</time>
<desc>lat.=55.900238, lon.=26.528965, Alt.=111.950256m. Speed=0.432000m/h.</desc>
<speed>0.120000</speed>
</trkpt>
<trkpt lat="55.900238" lon="26.528963">
<ele>111.950256</ele>
<time>2010-06-20T15:45:14Z</time>
<desc>lat.=55.900238, lon.=26.528963, Alt.=111.950256m. Speed=0.828000m/h.</desc>
<speed>0.230000</speed>
</trkpt>
<trkpt lat="55.900238" lon="26.528959">
<ele>111.952209</ele>
<time>2010-06-20T15:45:15Z</time>
<desc>lat.=55.900238, lon.=26.528959, Alt.=111.952209m. Speed=0.936000m/h.</desc>
<speed>0.260000</speed>
</trkpt>
<trkpt lat="55.900238" lon="26.528957">
<ele>111.954163</ele>
<time>2010-06-20T15:45:16Z</time>
<desc>lat.=55.900238, lon.=26.528957, Alt.=111.954163m. Speed=0.144000m/h.</desc>
<speed>0.040000</speed>
</trkpt>
<trkpt lat="55.900238" lon="26.528957">
<ele>111.958069</ele>
<time>2010-06-20T15:45:17Z</time>
<desc>lat.=55.900238, lon.=26.528957, Alt.=111.958069m. Speed=0.216000m/h.</desc>
<speed>0.060000</speed>
</trkpt>
<trkpt lat="55.900238" lon="26.528955">
<ele>111.958069</ele>
<time>2010-06-20T15:45:18Z</time>
<desc>lat.=55.900238, lon.=26.528955, Alt.=111.958069m. Speed=0.216000m/h.</desc>
<speed>0.060000</speed>
</trkpt>
<trkpt lat="55.900238" lon="26.528955">
<ele>111.960022</ele>
<time>2010-06-20T15:45:19Z</time>
<desc>lat.=55.900238, lon.=26.528955, Alt.=111.960022m. Speed=0.900000m/h.</desc>
<speed>0.250000</speed>
</trkpt>
<trkpt lat="55.900238" lon="26.528959">
<ele>111.960022</ele>
<time>2010-06-20T15:45:20Z</time>
<desc>lat.=55.900238, lon.=26.528959, Alt.=111.960022m. Speed=0.612000m/h.</desc>
<speed>0.170000</speed>
</trkpt>
<trkpt lat="55.900238" lon="26.528961">
<ele>111.960022</ele>
<time>2010-06-20T15:45:21Z</time>
<desc>lat.=55.900238, lon.=26.528961, Alt.=111.960022m. Speed=0.288000m/h.</desc>
<speed>0.080000</speed>
</trkpt>
<trkpt lat="55.900238" lon="26.528961">
<ele>111.960022</ele>
<time>2010-06-20T15:45:22Z</time>
<desc>lat.=55.900238, lon.=26.528961, Alt.=111.960022m. Speed=0.072000m/h.</desc>
<speed>0.020000</speed>
</trkpt>
<trkpt lat="55.900238" lon="26.528961">
<ele>111.963928</ele>
<time>2010-06-20T15:45:23Z</time>
<desc>lat.=55.900238, lon.=26.528961, Alt.=111.963928m. Speed=0.144000m/h.</desc>
<speed>0.040000</speed>
</trkpt>
<trkpt lat="55.900238" lon="26.528961">
<ele>111.967834</ele>
<time>2010-06-20T15:45:24Z</time>
<desc>lat.=55.900238, lon.=26.528961, Alt.=111.967834m. Speed=0.720000m/h.</desc>
<speed>0.200000</speed>
</trkpt>
<trkpt lat="55.900238" lon="26.528961">
<ele>111.975647</ele>
<time>2010-06-20T15:45:25Z</time>
<desc>lat.=55.900238, lon.=26.528961, Alt.=111.975647m. Speed=0.540000m/h.</desc>
<speed>0.150000</speed>
</trkpt>
<trkpt lat="55.900238" lon="26.528961">
<ele>111.983459</ele>
<time>2010-06-20T15:45:26Z</time>
<desc>lat.=55.900238, lon.=26.528961, Alt.=111.983459m. Speed=0.648000m/h.</desc>
<speed>0.180000</speed>
</trkpt>
<trkpt lat="55.900234" lon="26.528963">
<ele>111.991272</ele>
<time>2010-06-20T15:45:27Z</time>
<desc>lat.=55.900234, lon.=26.528963, Alt.=111.991272m. Speed=0.864000m/h.</desc>
<speed>0.240000</speed>
</trkpt>
<trkpt lat="55.900234" lon="26.528963">
<ele>111.997131</ele>
<time>2010-06-20T15:45:28Z</time>
<desc>lat.=55.900234, lon.=26.528963, Alt.=111.997131m. Speed=0.576000m/h.</desc>
<speed>0.160000</speed>
</trkpt>
<trkpt lat="55.900230" lon="26.528965">
<ele>112.002991</ele>
<time>2010-06-20T15:45:29Z</time>
<desc>lat.=55.900230, lon.=26.528965, Alt.=112.002991m. Speed=0.648000m/h.</desc>
<speed>0.180000</speed>
</trkpt>
<trkpt lat="55.900230" lon="26.528967">
<ele>112.010803</ele>
<time>2010-06-20T15:45:30Z</time>
<desc>lat.=55.900230, lon.=26.528967, Alt.=112.010803m. Speed=0.324000m/h.</desc>
<speed>0.090000</speed>
</trkpt>
<trkpt lat="55.900230" lon="26.528967">
<ele>112.016663</ele>
<time>2010-06-20T15:45:31Z</time>
<desc>lat.=55.900230, lon.=26.528967, Alt.=112.016663m. Speed=0.252000m/h.</desc>
<speed>0.070000</speed>
</trkpt>
<trkpt lat="55.900230" lon="26.528965">
<ele>112.020569</ele>
<time>2010-06-20T15:45:32Z</time>
<desc>lat.=55.900230, lon.=26.528965, Alt.=112.020569m. Speed=0.108000m/h.</desc>
<speed>0.030000</speed>
</trkpt>
<trkpt lat="55.900230" lon="26.528965">
<ele>112.022522</ele>
<time>2010-06-20T15:45:33Z</time>
<desc>lat.=55.900230, lon.=26.528965, Alt.=112.022522m. Speed=0.252000m/h.</desc>
<speed>0.070000</speed>
</trkpt>
<trkpt lat="55.900230" lon="26.528965">
<ele>112.026428</ele>
<time>2010-06-20T15:45:34Z</time>
<desc>lat.=55.900230, lon.=26.528965, Alt.=112.026428m. Speed=0.432000m/h.</desc>
<speed>0.120000</speed>
</trkpt>
<trkpt lat="55.900230" lon="26.528963">
<ele>112.024475</ele>
<time>2010-06-20T15:45:35Z</time>
<desc>lat.=55.900230, lon.=26.528963, Alt.=112.024475m. Speed=0.540000m/h.</desc>
<speed>0.150000</speed>
</trkpt>
<trkpt lat="55.900230" lon="26.528961">
<ele>112.022522</ele>
<time>2010-06-20T15:45:36Z</time>
<desc>lat.=55.900230, lon.=26.528961, Alt.=112.022522m. Speed=0.468000m/h.</desc>
<speed>0.130000</speed>
</trkpt>
<trkpt lat="55.900227" lon="26.528961">
<ele>112.022522</ele>
<time>2010-06-20T15:45:37Z</time>
<desc>lat.=55.900227, lon.=26.528961, Alt.=112.022522m. Speed=0.000000m/h.</desc>
<speed>0.000000</speed>
</trkpt>
<trkpt lat="55.900227" lon="26.528961">
<ele>112.020569</ele>
<time>2010-06-20T15:45:38Z</time>
<desc>lat.=55.900227, lon.=26.528961, Alt.=112.020569m. Speed=0.936000m/h.</desc>
<speed>0.260000</speed>
</trkpt>
<trkpt lat="55.900230" lon="26.528965">
<ele>112.016663</ele>
<time>2010-06-20T15:45:39Z</time>
<desc>lat.=55.900230, lon.=26.528965, Alt.=112.016663m. Speed=0.720000m/h.</desc>
<speed>0.200000</speed>
</trkpt>
<trkpt lat="55.900230" lon="26.528967">
<ele>112.014709</ele>
<time>2010-06-20T15:45:40Z</time>
<desc>lat.=55.900230, lon.=26.528967, Alt.=112.014709m. Speed=0.468000m/h.</desc>
<speed>0.130000</speed>
</trkpt>
<trkpt lat="55.900230" lon="26.528969">
<ele>112.012756</ele>
<time>2010-06-20T15:45:41Z</time>
<desc>lat.=55.900230, lon.=26.528969, Alt.=112.012756m. Speed=0.684000m/h.</desc>
<speed>0.190000</speed>
</trkpt>
<trkpt lat="55.900230" lon="26.528973">
<ele>112.010803</ele>
<time>2010-06-20T15:45:42Z</time>
<desc>lat.=55.900230, lon.=26.528973, Alt.=112.010803m. Speed=0.288000m/h.</desc>
<speed>0.080000</speed>
</trkpt>
<trkpt lat="55.900230" lon="26.528973">
<ele>112.006897</ele>
<time>2010-06-20T15:45:43Z</time>
<desc>lat.=55.900230, lon.=26.528973, Alt.=112.006897m. Speed=0.216000m/h.</desc>
<speed>0.060000</speed>
</trkpt>
<trkpt lat="55.900230" lon="26.528975">
<ele>112.004944</ele>
<time>2010-06-20T15:45:44Z</time>
<desc>lat.=55.900230, lon.=26.528975, Alt.=112.004944m. Speed=0.072000m/h.</desc>
<speed>0.020000</speed>
</trkpt>
<trkpt lat="55.900230" lon="26.528975">
<ele>112.002991</ele>
<time>2010-06-20T15:45:45Z</time>
<desc>lat.=55.900230, lon.=26.528975, Alt.=112.002991m. Speed=0.108000m/h.</desc>
<speed>0.030000</speed>
</trkpt>
<trkpt lat="55.900230" lon="26.528973">
<ele>112.001038</ele>
<time>2010-06-20T15:45:46Z</time>
<desc>lat.=55.900230, lon.=26.528973, Alt.=112.001038m. Speed=0.288000m/h.</desc>
<speed>0.080000</speed>
</trkpt>
<trkpt lat="55.900230" lon="26.528973">
<ele>112.001038</ele>
<time>2010-06-20T15:45:47Z</time>
<desc>lat.=55.900230, lon.=26.528973, Alt.=112.001038m. Speed=0.396000m/h.</desc>
<speed>0.110000</speed>
</trkpt>
<trkpt lat="55.900230" lon="26.528975">
<ele>111.999084</ele>
<time>2010-06-20T15:45:48Z</time>
<desc>lat.=55.900230, lon.=26.528975, Alt.=111.999084m. Speed=0.504000m/h.</desc>
<speed>0.140000</speed>
</trkpt>
<trkpt lat="55.900230" lon="26.528976">
<ele>111.997131</ele>
<time>2010-06-20T15:45:49Z</time>
<desc>lat.=55.900230, lon.=26.528976, Alt.=111.997131m. Speed=0.720000m/h.</desc>
<speed>0.200000</speed>
</trkpt>
<trkpt lat="55.900230" lon="26.528980">
<ele>111.991272</ele>
<time>2010-06-20T15:45:50Z</time>
<desc>lat.=55.900230, lon.=26.528980, Alt.=111.991272m. Speed=0.720000m/h.</desc>
<speed>0.200000</speed>
</trkpt>
<trkpt lat="55.900230" lon="26.528984">
<ele>111.987366</ele>
<time>2010-06-20T15:45:51Z</time>
<desc>lat.=55.900230, lon.=26.528984, Alt.=111.987366m. Speed=0.540000m/h.</desc>
<speed>0.150000</speed>
</trkpt>
<trkpt lat="55.900230" lon="26.528986">
<ele>111.983459</ele>
<time>2010-06-20T15:45:52Z</time>
<desc>lat.=55.900230, lon.=26.528986, Alt.=111.983459m. Speed=0.576000m/h.</desc>
<speed>0.160000</speed>
</trkpt>
<trkpt lat="55.900230" lon="26.528988">
<ele>111.977600</ele>
<time>2010-06-20T15:45:53Z</time>
<desc>lat.=55.900230, lon.=26.528988, Alt.=111.977600m. Speed=0.828000m/h.</desc>
<speed>0.230000</speed>
</trkpt>
<trkpt lat="55.900230" lon="26.528992">
<ele>111.971741</ele>
<time>2010-06-20T15:45:54Z</time>
<desc>lat.=55.900230, lon.=26.528992, Alt.=111.971741m. Speed=0.900000m/h.</desc>
<speed>0.250000</speed>
</trkpt>
<trkpt lat="55.900230" lon="26.528994">
<ele>111.969788</ele>
<time>2010-06-20T15:45:55Z</time>
<desc>lat.=55.900230, lon.=26.528994, Alt.=111.969788m. Speed=0.504000m/h.</desc>
<speed>0.140000</speed>
</trkpt>
<trkpt lat="55.900227" lon="26.528994">
<ele>111.967834</ele>
<time>2010-06-20T15:45:56Z</time>
<desc>lat.=55.900227, lon.=26.528994, Alt.=111.967834m. Speed=0.540000m/h.</desc>
<speed>0.150000</speed>
</trkpt>
<trkpt lat="55.900227" lon="26.528992">
<ele>111.960022</ele>
<time>2010-06-20T15:45:57Z</time>
<desc>lat.=55.900227, lon.=26.528992, Alt.=111.960022m. Speed=0.972000m/h.</desc>
<speed>0.270000</speed>
</trkpt>
<trkpt lat="55.900227" lon="26.528988">
<ele>111.952209</ele>
<time>2010-06-20T15:45:58Z</time>
<desc>lat.=55.900227, lon.=26.528988, Alt.=111.952209m. Speed=1.080000m/h.</desc>
<speed>0.300000</speed>
</trkpt>
<trkpt lat="55.900219" lon="26.528980">
<ele>111.723694</ele>
<time>2010-06-20T15:45:59Z</time>
<desc>lat.=55.900219, lon.=26.528980, Alt.=111.723694m. Speed=1.440000m/h.</desc>
<speed>0.400000</speed>
</trkpt>
<trkpt lat="55.900219" lon="26.528969">
<ele>111.422913</ele>
<time>2010-06-20T15:46:00Z</time>
<desc>lat.=55.900219, lon.=26.528969, Alt.=111.422913m. Speed=1.512000m/h.</desc>
<speed>0.420000</speed>
</trkpt>
<trkpt lat="55.900215" lon="26.528969">
<ele>111.290100</ele>
<time>2010-06-20T15:46:01Z</time>
<desc>lat.=55.900215, lon.=26.528969, Alt.=111.290100m. Speed=1.224000m/h.</desc>
<speed>0.340000</speed>
</trkpt>
<trkpt lat="55.900211" lon="26.528963">
<ele>111.137756</ele>
<time>2010-06-20T15:46:02Z</time>
<desc>lat.=55.900211, lon.=26.528963, Alt.=111.137756m. Speed=0.972000m/h.</desc>
<speed>0.270000</speed>
</trkpt>
<trkpt lat="55.900208" lon="26.528961">
<ele>110.956116</ele>
<time>2010-06-20T15:46:03Z</time>
<desc>lat.=55.900208, lon.=26.528961, Alt.=110.956116m. Speed=0.900000m/h.</desc>
<speed>0.250000</speed>
</trkpt>
<trkpt lat="55.900208" lon="26.528963">
<ele>110.649475</ele>
<time>2010-06-20T15:46:04Z</time>
<desc>lat.=55.900208, lon.=26.528963, Alt.=110.649475m. Speed=0.396000m/h.</desc>
<speed>0.110000</speed>
</trkpt>
<trkpt lat="55.900211" lon="26.528954">
<ele>110.383850</ele>
<time>2010-06-20T15:46:05Z</time>
<desc>lat.=55.900211, lon.=26.528954, Alt.=110.383850m. Speed=0.612000m/h.</desc>
<speed>0.170000</speed>
</trkpt>
<trkpt lat="55.900211" lon="26.528950">
<ele>110.376038</ele>
<time>2010-06-20T15:46:06Z</time>
<desc>lat.=55.900211, lon.=26.528950, Alt.=110.376038m. Speed=0.504000m/h.</desc>
<speed>0.140000</speed>
</trkpt>
<trkpt lat="55.900211" lon="26.528948">
<ele>110.366272</ele>
<time>2010-06-20T15:46:07Z</time>
<desc>lat.=55.900211, lon.=26.528948, Alt.=110.366272m. Speed=0.216000m/h.</desc>
<speed>0.060000</speed>
</trkpt>
<trkpt lat="55.900211" lon="26.528948">
<ele>110.360413</ele>
<time>2010-06-20T15:46:08Z</time>
<desc>lat.=55.900211, lon.=26.528948, Alt.=110.360413m. Speed=0.576000m/h.</desc>
<speed>0.160000</speed>
</trkpt>
<trkpt lat="55.900215" lon="26.528946">
<ele>110.352600</ele>
<time>2010-06-20T15:46:09Z</time>
<desc>lat.=55.900215, lon.=26.528946, Alt.=110.352600m. Speed=0.756000m/h.</desc>
<speed>0.210000</speed>
</trkpt>
<trkpt lat="55.900215" lon="26.528944">
<ele>110.346741</ele>
<time>2010-06-20T15:46:10Z</time>
<desc>lat.=55.900215, lon.=26.528944, Alt.=110.346741m. Speed=0.540000m/h.</desc>
<speed>0.150000</speed>
</trkpt>
<trkpt lat="55.900215" lon="26.528942">
<ele>110.346741</ele>
<time>2010-06-20T15:46:11Z</time>
<desc>lat.=55.900215, lon.=26.528942, Alt.=110.346741m. Speed=0.252000m/h.</desc>
<speed>0.070000</speed>
</trkpt>
<trkpt lat="55.900215" lon="26.528942">
<ele>110.344788</ele>
<time>2010-06-20T15:46:12Z</time>
<desc>lat.=55.900215, lon.=26.528942, Alt.=110.344788m. Speed=0.144000m/h.</desc>
<speed>0.040000</speed>
</trkpt>
<trkpt lat="55.900215" lon="26.528942">
<ele>110.342834</ele>
<time>2010-06-20T15:46:13Z</time>
<desc>lat.=55.900215, lon.=26.528942, Alt.=110.342834m. Speed=0.324000m/h.</desc>
<speed>0.090000</speed>
</trkpt>
<trkpt lat="55.900215" lon="26.528944">
<ele>110.338928</ele>
<time>2010-06-20T15:46:14Z</time>
<desc>lat.=55.900215, lon.=26.528944, Alt.=110.338928m. Speed=0.216000m/h.</desc>
<speed>0.060000</speed>
</trkpt>
<trkpt lat="55.900215" lon="26.528944">
<ele>110.336975</ele>
<time>2010-06-20T15:46:15Z</time>
<desc>lat.=55.900215, lon.=26.528944, Alt.=110.336975m. Speed=0.252000m/h.</desc>
<speed>0.070000</speed>
</trkpt>
<trkpt lat="55.900215" lon="26.528946">
<ele>110.335022</ele>
<time>2010-06-20T15:46:16Z</time>
<desc>lat.=55.900215, lon.=26.528946, Alt.=110.335022m. Speed=0.396000m/h.</desc>
<speed>0.110000</speed>
</trkpt>
<trkpt lat="55.900215" lon="26.528946">
<ele>110.335022</ele>
<time>2010-06-20T15:46:17Z</time>
<desc>lat.=55.900215, lon.=26.528946, Alt.=110.335022m. Speed=0.468000m/h.</desc>
<speed>0.130000</speed>
</trkpt>
<trkpt lat="55.900215" lon="26.528948">
<ele>110.333069</ele>
<time>2010-06-20T15:46:18Z</time>
<desc>lat.=55.900215, lon.=26.528948, Alt.=110.333069m. Speed=0.684000m/h.</desc>
<speed>0.190000</speed>
</trkpt>
<trkpt lat="55.900215" lon="26.528946">
<ele>110.335022</ele>
<time>2010-06-20T15:46:19Z</time>
<desc>lat.=55.900215, lon.=26.528946, Alt.=110.335022m. Speed=0.396000m/h.</desc>
<speed>0.110000</speed>
</trkpt>
<trkpt lat="55.900219" lon="26.528944">
<ele>110.338928</ele>
<time>2010-06-20T15:46:20Z</time>
<desc>lat.=55.900219, lon.=26.528944, Alt.=110.338928m. Speed=0.324000m/h.</desc>
<speed>0.090000</speed>
</trkpt>
<trkpt lat="55.900219" lon="26.528944">
<ele>110.340881</ele>
<time>2010-06-20T15:46:21Z</time>
<desc>lat.=55.900219, lon.=26.528944, Alt.=110.340881m. Speed=0.288000m/h.</desc>
<speed>0.080000</speed>
</trkpt>
<trkpt lat="55.900219" lon="26.528944">
<ele>110.346741</ele>
<time>2010-06-20T15:46:22Z</time>
<desc>lat.=55.900219, lon.=26.528944, Alt.=110.346741m. Speed=0.324000m/h.</desc>
<speed>0.090000</speed>
</trkpt>
<trkpt lat="55.900219" lon="26.528942">
<ele>110.350647</ele>
<time>2010-06-20T15:46:23Z</time>
<desc>lat.=55.900219, lon.=26.528942, Alt.=110.350647m. Speed=0.360000m/h.</desc>
<speed>0.100000</speed>
</trkpt>
<trkpt lat="55.900219" lon="26.528942">
<ele>110.356506</ele>
<time>2010-06-20T15:46:24Z</time>
<desc>lat.=55.900219, lon.=26.528942, Alt.=110.356506m. Speed=0.720000m/h.</desc>
<speed>0.200000</speed>
</trkpt>
<trkpt lat="55.900219" lon="26.528946">
<ele>110.364319</ele>
<time>2010-06-20T15:46:25Z</time>
<desc>lat.=55.900219, lon.=26.528946, Alt.=110.364319m. Speed=0.900000m/h.</desc>
<speed>0.250000</speed>
</trkpt>
<trkpt lat="55.900223" lon="26.528950">
<ele>110.366272</ele>
<time>2010-06-20T15:46:26Z</time>
<desc>lat.=55.900223, lon.=26.528950, Alt.=110.366272m. Speed=0.864000m/h.</desc>
<speed>0.240000</speed>
</trkpt>
<trkpt lat="55.900223" lon="26.528952">
<ele>110.366272</ele>
<time>2010-06-20T15:46:27Z</time>
<desc>lat.=55.900223, lon.=26.528952, Alt.=110.366272m. Speed=0.180000m/h.</desc>
<speed>0.050000</speed>
</trkpt>
<trkpt lat="55.900223" lon="26.528952">
<ele>110.368225</ele>
<time>2010-06-20T15:46:28Z</time>
<desc>lat.=55.900223, lon.=26.528952, Alt.=110.368225m. Speed=0.684000m/h.</desc>
<speed>0.190000</speed>
</trkpt>
<trkpt lat="55.900223" lon="26.528950">
<ele>110.368225</ele>
<time>2010-06-20T15:46:29Z</time>
<desc>lat.=55.900223, lon.=26.528950, Alt.=110.368225m. Speed=1.116000m/h.</desc>
<speed>0.310000</speed>
</trkpt>
<trkpt lat="55.900227" lon="26.528952">
<ele>110.417053</ele>
<time>2010-06-20T15:46:30Z</time>
<desc>lat.=55.900227, lon.=26.528952, Alt.=110.417053m. Speed=1.152000m/h.</desc>
<speed>0.320000</speed>
</trkpt>
<trkpt lat="55.900230" lon="26.528980">
<ele>110.520569</ele>
<time>2010-06-20T15:46:31Z</time>
<desc>lat.=55.900230, lon.=26.528980, Alt.=110.520569m. Speed=0.432000m/h.</desc>
<speed>0.120000</speed>
</trkpt>
<trkpt lat="55.900234" lon="26.528988">
<ele>110.567444</ele>
<time>2010-06-20T15:46:32Z</time>
<desc>lat.=55.900234, lon.=26.528988, Alt.=110.567444m. Speed=0.504000m/h.</desc>
<speed>0.140000</speed>
</trkpt>
<trkpt lat="55.900238" lon="26.529001">
<ele>110.538147</ele>
<time>2010-06-20T15:46:33Z</time>
<desc>lat.=55.900238, lon.=26.529001, Alt.=110.538147m. Speed=0.972000m/h.</desc>
<speed>0.270000</speed>
</trkpt>
<trkpt lat="55.900238" lon="26.529020">
<ele>110.565491</ele>
<time>2010-06-20T15:46:34Z</time>
<desc>lat.=55.900238, lon.=26.529020, Alt.=110.565491m. Speed=1.152000m/h.</desc>
<speed>0.320000</speed>
</trkpt>
<trkpt lat="55.900238" lon="26.529016">
<ele>110.592834</ele>
<time>2010-06-20T15:46:35Z</time>
<desc>lat.=55.900238, lon.=26.529016, Alt.=110.592834m. Speed=0.540000m/h.</desc>
<speed>0.150000</speed>
</trkpt>
<trkpt lat="55.900238" lon="26.529024">
<ele>110.602600</ele>
<time>2010-06-20T15:46:36Z</time>
<desc>lat.=55.900238, lon.=26.529024, Alt.=110.602600m. Speed=0.216000m/h.</desc>
<speed>0.060000</speed>
</trkpt>
<trkpt lat="55.900238" lon="26.529026">
<ele>110.645569</ele>
<time>2010-06-20T15:46:37Z</time>
<desc>lat.=55.900238, lon.=26.529026, Alt.=110.645569m. Speed=0.324000m/h.</desc>
<speed>0.090000</speed>
</trkpt>
<trkpt lat="55.900238" lon="26.529041">
<ele>110.700256</ele>
<time>2010-06-20T15:46:38Z</time>
<desc>lat.=55.900238, lon.=26.529041, Alt.=110.700256m. Speed=0.144000m/h.</desc>
<speed>0.040000</speed>
</trkpt>
<trkpt lat="55.900238" lon="26.529043">
<ele>110.702209</ele>
<time>2010-06-20T15:46:39Z</time>
<desc>lat.=55.900238, lon.=26.529043, Alt.=110.702209m. Speed=0.756000m/h.</desc>
<speed>0.210000</speed>
</trkpt>
<trkpt lat="55.900238" lon="26.529045">
<ele>110.704163</ele>
<time>2010-06-20T15:46:40Z</time>
<desc>lat.=55.900238, lon.=26.529045, Alt.=110.704163m. Speed=0.576000m/h.</desc>
<speed>0.160000</speed>
</trkpt>
<trkpt lat="55.900238" lon="26.529049">
<ele>110.708069</ele>
<time>2010-06-20T15:46:41Z</time>
<desc>lat.=55.900238, lon.=26.529049, Alt.=110.708069m. Speed=1.080000m/h.</desc>
<speed>0.300000</speed>
</trkpt>
<trkpt lat="55.900238" lon="26.529053">
<ele>110.864319</ele>
<time>2010-06-20T15:46:42Z</time>
<desc>lat.=55.900238, lon.=26.529053, Alt.=110.864319m. Speed=0.684000m/h.</desc>
<speed>0.190000</speed>
</trkpt>
<trkpt lat="55.900242" lon="26.529064">
<ele>110.950256</ele>
<time>2010-06-20T15:46:43Z</time>
<desc>lat.=55.900242, lon.=26.529064, Alt.=110.950256m. Speed=0.828000m/h.</desc>
<speed>0.230000</speed>
</trkpt>
<trkpt lat="55.900242" lon="26.529064">
<ele>110.991272</ele>
<time>2010-06-20T15:46:44Z</time>
<desc>lat.=55.900242, lon.=26.529064, Alt.=110.991272m. Speed=0.684000m/h.</desc>
<speed>0.190000</speed>
</trkpt>
<trkpt lat="55.900246" lon="26.529064">
<ele>111.006897</ele>
<time>2010-06-20T15:46:45Z</time>
<desc>lat.=55.900246, lon.=26.529064, Alt.=111.006897m. Speed=0.360000m/h.</desc>
<speed>0.100000</speed>
</trkpt>
<trkpt lat="55.900246" lon="26.529064">
<ele>111.008850</ele>
<time>2010-06-20T15:46:46Z</time>
<desc>lat.=55.900246, lon.=26.529064, Alt.=111.008850m. Speed=1.008000m/h.</desc>
<speed>0.280000</speed>
</trkpt>
<trkpt lat="55.900246" lon="26.529070">
<ele>111.010803</ele>
<time>2010-06-20T15:46:47Z</time>
<desc>lat.=55.900246, lon.=26.529070, Alt.=111.010803m. Speed=0.792000m/h.</desc>
<speed>0.220000</speed>
</trkpt>
<trkpt lat="55.900246" lon="26.529072">
<ele>111.010803</ele>
<time>2010-06-20T15:46:48Z</time>
<desc>lat.=55.900246, lon.=26.529072, Alt.=111.010803m. Speed=1.440000m/h.</desc>
<speed>0.400000</speed>
</trkpt>
<trkpt lat="55.900246" lon="26.529079">
<ele>111.038147</ele>
<time>2010-06-20T15:46:49Z</time>
<desc>lat.=55.900246, lon.=26.529079, Alt.=111.038147m. Speed=1.656000m/h.</desc>
<speed>0.460000</speed>
</trkpt>
<trkpt lat="55.900249" lon="26.529100">
<ele>111.145569</ele>
<time>2010-06-20T15:46:50Z</time>
<desc>lat.=55.900249, lon.=26.529100, Alt.=111.145569m. Speed=1.872000m/h.</desc>
<speed>0.520000</speed>
</trkpt>
<trkpt lat="55.900253" lon="26.529097">
<ele>111.252991</ele>
<time>2010-06-20T15:46:51Z</time>
<desc>lat.=55.900253, lon.=26.529097, Alt.=111.252991m. Speed=0.972000m/h.</desc>
<speed>0.270000</speed>
</trkpt>
<trkpt lat="55.900257" lon="26.529099">
<ele>111.350647</ele>
<time>2010-06-20T15:46:52Z</time>
<desc>lat.=55.900257, lon.=26.529099, Alt.=111.350647m. Speed=0.540000m/h.</desc>
<speed>0.150000</speed>
</trkpt>
<trkpt lat="55.900261" lon="26.529104">
<ele>111.434631</ele>
<time>2010-06-20T15:46:53Z</time>
<desc>lat.=55.900261, lon.=26.529104, Alt.=111.434631m. Speed=0.792000m/h.</desc>
<speed>0.220000</speed>
</trkpt>
<trkpt lat="55.900269" lon="26.529104">
<ele>111.499084</ele>
<time>2010-06-20T15:46:54Z</time>
<desc>lat.=55.900269, lon.=26.529104, Alt.=111.499084m. Speed=0.828000m/h.</desc>
<speed>0.230000</speed>
</trkpt>
<trkpt lat="55.900269" lon="26.529106">
<ele>111.501038</ele>
<time>2010-06-20T15:46:55Z</time>
<desc>lat.=55.900269, lon.=26.529106, Alt.=111.501038m. Speed=0.648000m/h.</desc>
<speed>0.180000</speed>
</trkpt>
<trkpt lat="55.900272" lon="26.529108">
<ele>111.501038</ele>
<time>2010-06-20T15:46:56Z</time>
<desc>lat.=55.900272, lon.=26.529108, Alt.=111.501038m. Speed=0.756000m/h.</desc>
<speed>0.210000</speed>
</trkpt>
<trkpt lat="55.900272" lon="26.529112">
<ele>111.499084</ele>
<time>2010-06-20T15:46:57Z</time>
<desc>lat.=55.900272, lon.=26.529112, Alt.=111.499084m. Speed=1.908000m/h.</desc>
<speed>0.530000</speed>
</trkpt>
<trkpt lat="55.900272" lon="26.529135">
<ele>111.475647</ele>
<time>2010-06-20T15:46:58Z</time>
<desc>lat.=55.900272, lon.=26.529135, Alt.=111.475647m. Speed=2.196000m/h.</desc>
<speed>0.610000</speed>
</trkpt>
<trkpt lat="55.900280" lon="26.529144">
<ele>111.358459</ele>
<time>2010-06-20T15:46:59Z</time>
<desc>lat.=55.900280, lon.=26.529144, Alt.=111.358459m. Speed=2.232000m/h.</desc>
<speed>0.620000</speed>
</trkpt>
<trkpt lat="55.900280" lon="26.529161">
<ele>111.266663</ele>
<time>2010-06-20T15:47:00Z</time>
<desc>lat.=55.900280, lon.=26.529161, Alt.=111.266663m. Speed=2.376000m/h.</desc>
<speed>0.660000</speed>
</trkpt>
<trkpt lat="55.900276" lon="26.529182">
<ele>111.196350</ele>
<time>2010-06-20T15:47:01Z</time>
<desc>lat.=55.900276, lon.=26.529182, Alt.=111.196350m. Speed=2.412000m/h.</desc>
<speed>0.670000</speed>
</trkpt>
<trkpt lat="55.900276" lon="26.529198">
<ele>111.057678</ele>
<time>2010-06-20T15:47:02Z</time>
<desc>lat.=55.900276, lon.=26.529198, Alt.=111.057678m. Speed=2.592000m/h.</desc>
<speed>0.720000</speed>
</trkpt>
<trkpt lat="55.900269" lon="26.529198">
<ele>110.913147</ele>
<time>2010-06-20T15:47:03Z</time>
<desc>lat.=55.900269, lon.=26.529198, Alt.=110.913147m. Speed=2.196000m/h.</desc>
<speed>0.610000</speed>
</trkpt>
<trkpt lat="55.900269" lon="26.529219">
<ele>110.711975</ele>
<time>2010-06-20T15:47:04Z</time>
<desc>lat.=55.900269, lon.=26.529219, Alt.=110.711975m. Speed=2.484000m/h.</desc>
<speed>0.690000</speed>
</trkpt>
<trkpt lat="55.900261" lon="26.529234">
<ele>110.364319</ele>
<time>2010-06-20T15:47:05Z</time>
<desc>lat.=55.900261, lon.=26.529234, Alt.=110.364319m. Speed=2.448000m/h.</desc>
<speed>0.680000</speed>
</trkpt>
<trkpt lat="55.900253" lon="26.529238">
<ele>110.182678</ele>
<time>2010-06-20T15:47:06Z</time>
<desc>lat.=55.900253, lon.=26.529238, Alt.=110.182678m. Speed=2.376000m/h.</desc>
<speed>0.660000</speed>
</trkpt>
<trkpt lat="55.900249" lon="26.529221">
<ele>109.920959</ele>
<time>2010-06-20T15:47:07Z</time>
<desc>lat.=55.900249, lon.=26.529221, Alt.=109.920959m. Speed=1.296000m/h.</desc>
<speed>0.360000</speed>
</trkpt>
<trkpt lat="55.900253" lon="26.529207">
<ele>109.604553</ele>
<time>2010-06-20T15:47:08Z</time>
<desc>lat.=55.900253, lon.=26.529207, Alt.=109.604553m. Speed=0.828000m/h.</desc>
<speed>0.230000</speed>
</trkpt>
<trkpt lat="55.900253" lon="26.529202">
<ele>109.407288</ele>
<time>2010-06-20T15:47:09Z</time>
<desc>lat.=55.900253, lon.=26.529202, Alt.=109.407288m. Speed=0.900000m/h.</desc>
<speed>0.250000</speed>
</trkpt>
<trkpt lat="55.900253" lon="26.529186">
<ele>109.290100</ele>
<time>2010-06-20T15:47:10Z</time>
<desc>lat.=55.900253, lon.=26.529186, Alt.=109.290100m. Speed=0.648000m/h.</desc>
<speed>0.180000</speed>
</trkpt>
<trkpt lat="55.900253" lon="26.529173">
<ele>109.215881</ele>
<time>2010-06-20T15:47:11Z</time>
<desc>lat.=55.900253, lon.=26.529173, Alt.=109.215881m. Speed=0.000000m/h.</desc>
<speed>0.000000</speed>
</trkpt>
<trkpt lat="55.900253" lon="26.529173">
<ele>109.206116</ele>
<time>2010-06-20T15:47:12Z</time>
<desc>lat.=55.900253, lon.=26.529173, Alt.=109.206116m. Speed=0.576000m/h.</desc>
<speed>0.160000</speed>
</trkpt>
<trkpt lat="55.900253" lon="26.529171">
<ele>109.194397</ele>
<time>2010-06-20T15:47:13Z</time>
<desc>lat.=55.900253, lon.=26.529171, Alt.=109.194397m. Speed=0.504000m/h.</desc>
<speed>0.140000</speed>
</trkpt>
<trkpt lat="55.900249" lon="26.529169">
<ele>109.186584</ele>
<time>2010-06-20T15:47:14Z</time>
<desc>lat.=55.900249, lon.=26.529169, Alt.=109.186584m. Speed=0.504000m/h.</desc>
<speed>0.140000</speed>
</trkpt>
<trkpt lat="55.900249" lon="26.529167">
<ele>109.176819</ele>
<time>2010-06-20T15:47:15Z</time>
<desc>lat.=55.900249, lon.=26.529167, Alt.=109.176819m. Speed=0.756000m/h.</desc>
<speed>0.210000</speed>
</trkpt>
<trkpt lat="55.900249" lon="26.529165">
<ele>109.169006</ele>
<time>2010-06-20T15:47:16Z</time>
<desc>lat.=55.900249, lon.=26.529165, Alt.=109.169006m. Speed=0.612000m/h.</desc>
<speed>0.170000</speed>
</trkpt>
<trkpt lat="55.900246" lon="26.529165">
<ele>109.159241</ele>
<time>2010-06-20T15:47:17Z</time>
<desc>lat.=55.900246, lon.=26.529165, Alt.=109.159241m. Speed=0.720000m/h.</desc>
<speed>0.200000</speed>
</trkpt>
<trkpt lat="55.900246" lon="26.529163">
<ele>109.155334</ele>
<time>2010-06-20T15:47:18Z</time>
<desc>lat.=55.900246, lon.=26.529163, Alt.=109.155334m. Speed=1.008000m/h.</desc>
<speed>0.280000</speed>
</trkpt>
<trkpt lat="55.900242" lon="26.529161">
<ele>109.149475</ele>
<time>2010-06-20T15:47:19Z</time>
<desc>lat.=55.900242, lon.=26.529161, Alt.=109.149475m. Speed=1.008000m/h.</desc>
<speed>0.280000</speed>
</trkpt>
<trkpt lat="55.900238" lon="26.529160">
<ele>109.141663</ele>
<time>2010-06-20T15:47:20Z</time>
<desc>lat.=55.900238, lon.=26.529160, Alt.=109.141663m. Speed=0.972000m/h.</desc>
<speed>0.270000</speed>
</trkpt>
<trkpt lat="55.900238" lon="26.529160">
<ele>109.133850</ele>
<time>2010-06-20T15:47:21Z</time>
<desc>lat.=55.900238, lon.=26.529160, Alt.=109.133850m. Speed=0.792000m/h.</desc>
<speed>0.220000</speed>
</trkpt>
<trkpt lat="55.900234" lon="26.529156">
<ele>109.127991</ele>
<time>2010-06-20T15:47:22Z</time>
<desc>lat.=55.900234, lon.=26.529156, Alt.=109.127991m. Speed=0.504000m/h.</desc>
<speed>0.140000</speed>
</trkpt>
<trkpt lat="55.900234" lon="26.529154">
<ele>109.122131</ele>
<time>2010-06-20T15:47:23Z</time>
<desc>lat.=55.900234, lon.=26.529154, Alt.=109.122131m. Speed=0.216000m/h.</desc>
<speed>0.060000</speed>
</trkpt>
<trkpt lat="55.900234" lon="26.529156">
<ele>109.112366</ele>
<time>2010-06-20T15:47:24Z</time>
<desc>lat.=55.900234, lon.=26.529156, Alt.=109.112366m. Speed=0.360000m/h.</desc>
<speed>0.100000</speed>
</trkpt>
<trkpt lat="55.900238" lon="26.529156">
<ele>109.102600</ele>
<time>2010-06-20T15:47:25Z</time>
<desc>lat.=55.900238, lon.=26.529156, Alt.=109.102600m. Speed=0.468000m/h.</desc>
<speed>0.130000</speed>
</trkpt>
<trkpt lat="55.900238" lon="26.529156">
<ele>109.092834</ele>
<time>2010-06-20T15:47:26Z</time>
<desc>lat.=55.900238, lon.=26.529156, Alt.=109.092834m. Speed=0.540000m/h.</desc>
<speed>0.150000</speed>
</trkpt>
<trkpt lat="55.900238" lon="26.529154">
<ele>109.086975</ele>
<time>2010-06-20T15:47:27Z</time>
<desc>lat.=55.900238, lon.=26.529154, Alt.=109.086975m. Speed=0.792000m/h.</desc>
<speed>0.220000</speed>
</trkpt>
<trkpt lat="55.900238" lon="26.529150">
<ele>109.079163</ele>
<time>2010-06-20T15:47:28Z</time>
<desc>lat.=55.900238, lon.=26.529150, Alt.=109.079163m. Speed=1.584000m/h.</desc>
<speed>0.440000</speed>
</trkpt>
<trkpt lat="55.900234" lon="26.529139">
<ele>108.985413</ele>
<time>2010-06-20T15:47:29Z</time>
<desc>lat.=55.900234, lon.=26.529139, Alt.=108.985413m. Speed=1.008000m/h.</desc>
<speed>0.280000</speed>
</trkpt>
<trkpt lat="55.900230" lon="26.529129">
<ele>108.715881</ele>
<time>2010-06-20T15:47:30Z</time>
<desc>lat.=55.900230, lon.=26.529129, Alt.=108.715881m. Speed=0.540000m/h.</desc>
<speed>0.150000</speed>
</trkpt>
<trkpt lat="55.900230" lon="26.529112">
<ele>108.631897</ele>
<time>2010-06-20T15:47:31Z</time>
<desc>lat.=55.900230, lon.=26.529112, Alt.=108.631897m. Speed=1.008000m/h.</desc>
<speed>0.280000</speed>
</trkpt>
<trkpt lat="55.900230" lon="26.529093">
<ele>108.524475</ele>
<time>2010-06-20T15:47:32Z</time>
<desc>lat.=55.900230, lon.=26.529093, Alt.=108.524475m. Speed=1.116000m/h.</desc>
<speed>0.310000</speed>
</trkpt>
<trkpt lat="55.900230" lon="26.529078">
<ele>108.518616</ele>
<time>2010-06-20T15:47:33Z</time>
<desc>lat.=55.900230, lon.=26.529078, Alt.=108.518616m. Speed=1.368000m/h.</desc>
<speed>0.380000</speed>
</trkpt>
<trkpt lat="55.900234" lon="26.529070">
<ele>108.553772</ele>
<time>2010-06-20T15:47:34Z</time>
<desc>lat.=55.900234, lon.=26.529070, Alt.=108.553772m. Speed=1.152000m/h.</desc>
<speed>0.320000</speed>
</trkpt>
<trkpt lat="55.900234" lon="26.529064">
<ele>108.542053</ele>
<time>2010-06-20T15:47:35Z</time>
<desc>lat.=55.900234, lon.=26.529064, Alt.=108.542053m. Speed=0.756000m/h.</desc>
<speed>0.210000</speed>
</trkpt>
<trkpt lat="55.900234" lon="26.529049">
<ele>108.530334</ele>
<time>2010-06-20T15:47:36Z</time>
<desc>lat.=55.900234, lon.=26.529049, Alt.=108.530334m. Speed=0.828000m/h.</desc>
<speed>0.230000</speed>
</trkpt>
<trkpt lat="55.900238" lon="26.529049">
<ele>108.499084</ele>
<time>2010-06-20T15:47:37Z</time>
<desc>lat.=55.900238, lon.=26.529049, Alt.=108.499084m. Speed=0.432000m/h.</desc>
<speed>0.120000</speed>
</trkpt>
<trkpt lat="55.900242" lon="26.529051">
<ele>108.444397</ele>
<time>2010-06-20T15:47:38Z</time>
<desc>lat.=55.900242, lon.=26.529051, Alt.=108.444397m. Speed=0.180000m/h.</desc>
<speed>0.050000</speed>
</trkpt>
<trkpt lat="55.900242" lon="26.529053">
<ele>108.438538</ele>
<time>2010-06-20T15:47:39Z</time>
<desc>lat.=55.900242, lon.=26.529053, Alt.=108.438538m. Speed=0.432000m/h.</desc>
<speed>0.120000</speed>
</trkpt>
<trkpt lat="55.900242" lon="26.529055">
<ele>108.434631</ele>
<time>2010-06-20T15:47:40Z</time>
<desc>lat.=55.900242, lon.=26.529055, Alt.=108.434631m. Speed=0.468000m/h.</desc>
<speed>0.130000</speed>
</trkpt>
<trkpt lat="55.900246" lon="26.529055">
<ele>108.428772</ele>
<time>2010-06-20T15:47:41Z</time>
<desc>lat.=55.900246, lon.=26.529055, Alt.=108.428772m. Speed=0.972000m/h.</desc>
<speed>0.270000</speed>
</trkpt>
<trkpt lat="55.900246" lon="26.529058">
<ele>108.422913</ele>
<time>2010-06-20T15:47:42Z</time>
<desc>lat.=55.900246, lon.=26.529058, Alt.=108.422913m. Speed=1.044000m/h.</desc>
<speed>0.290000</speed>
</trkpt>
<trkpt lat="55.900249" lon="26.529062">
<ele>108.417053</ele>
<time>2010-06-20T15:47:43Z</time>
<desc>lat.=55.900249, lon.=26.529062, Alt.=108.417053m. Speed=0.432000m/h.</desc>
<speed>0.120000</speed>
</trkpt>
<trkpt lat="55.900249" lon="26.529064">
<ele>108.413147</ele>
<time>2010-06-20T15:47:44Z</time>
<desc>lat.=55.900249, lon.=26.529064, Alt.=108.413147m. Speed=0.108000m/h.</desc>
<speed>0.030000</speed>
</trkpt>
<trkpt lat="55.900249" lon="26.529062">
<ele>108.407288</ele>
<time>2010-06-20T15:47:45Z</time>
<desc>lat.=55.900249, lon.=26.529062, Alt.=108.407288m. Speed=0.180000m/h.</desc>
<speed>0.050000</speed>
</trkpt>
<trkpt lat="55.900249" lon="26.529062">
<ele>108.401428</ele>
<time>2010-06-20T15:47:46Z</time>
<desc>lat.=55.900249, lon.=26.529062, Alt.=108.401428m. Speed=0.756000m/h.</desc>
<speed>0.210000</speed>
</trkpt>
<trkpt lat="55.900249" lon="26.529060">
<ele>108.395569</ele>
<time>2010-06-20T15:47:47Z</time>
<desc>lat.=55.900249, lon.=26.529060, Alt.=108.395569m. Speed=0.288000m/h.</desc>
<speed>0.080000</speed>
</trkpt>
<trkpt lat="55.900249" lon="26.529060">
<ele>108.391663</ele>
<time>2010-06-20T15:47:48Z</time>
<desc>lat.=55.900249, lon.=26.529060, Alt.=108.391663m. Speed=0.324000m/h.</desc>
<speed>0.090000</speed>
</trkpt>
<trkpt lat="55.900253" lon="26.529060">
<ele>108.389709</ele>
<time>2010-06-20T15:47:49Z</time>
<desc>lat.=55.900253, lon.=26.529060, Alt.=108.389709m. Speed=0.252000m/h.</desc>
<speed>0.070000</speed>
</trkpt>
<trkpt lat="55.900253" lon="26.529060">
<ele>108.385803</ele>
<time>2010-06-20T15:47:50Z</time>
<desc>lat.=55.900253, lon.=26.529060, Alt.=108.385803m. Speed=0.288000m/h.</desc>
<speed>0.080000</speed>
</trkpt>
<trkpt lat="55.900253" lon="26.529060">
<ele>108.383850</ele>
<time>2010-06-20T15:47:51Z</time>
<desc>lat.=55.900253, lon.=26.529060, Alt.=108.383850m. Speed=0.504000m/h.</desc>
<speed>0.140000</speed>
</trkpt>
<trkpt lat="55.900253" lon="26.529060">
<ele>108.383850</ele>
<time>2010-06-20T15:47:52Z</time>
<desc>lat.=55.900253, lon.=26.529060, Alt.=108.383850m. Speed=0.972000m/h.</desc>
<speed>0.270000</speed>
</trkpt>
<trkpt lat="55.900257" lon="26.529057">
<ele>108.383850</ele>
<time>2010-06-20T15:47:53Z</time>
<desc>lat.=55.900257, lon.=26.529057, Alt.=108.383850m. Speed=1.044000m/h.</desc>
<speed>0.290000</speed>
</trkpt>
<trkpt lat="55.900257" lon="26.529053">
<ele>108.383850</ele>
<time>2010-06-20T15:47:54Z</time>
<desc>lat.=55.900257, lon.=26.529053, Alt.=108.383850m. Speed=0.684000m/h.</desc>
<speed>0.190000</speed>
</trkpt>
<trkpt lat="55.900261" lon="26.529049">
<ele>108.385803</ele>
<time>2010-06-20T15:47:55Z</time>
<desc>lat.=55.900261, lon.=26.529049, Alt.=108.385803m. Speed=0.612000m/h.</desc>
<speed>0.170000</speed>
</trkpt>
<trkpt lat="55.900261" lon="26.529047">
<ele>108.387756</ele>
<time>2010-06-20T15:47:56Z</time>
<desc>lat.=55.900261, lon.=26.529047, Alt.=108.387756m. Speed=0.396000m/h.</desc>
<speed>0.110000</speed>
</trkpt>
<trkpt lat="55.900261" lon="26.529045">
<ele>108.391663</ele>
<time>2010-06-20T15:47:57Z</time>
<desc>lat.=55.900261, lon.=26.529045, Alt.=108.391663m. Speed=0.432000m/h.</desc>
<speed>0.120000</speed>
</trkpt>
<trkpt lat="55.900257" lon="26.529043">
<ele>108.393616</ele>
<time>2010-06-20T15:47:58Z</time>
<desc>lat.=55.900257, lon.=26.529043, Alt.=108.393616m. Speed=0.936000m/h.</desc>
<speed>0.260000</speed>
</trkpt>
<trkpt lat="55.900257" lon="26.529041">
<ele>108.395569</ele>
<time>2010-06-20T15:47:59Z</time>
<desc>lat.=55.900257, lon.=26.529041, Alt.=108.395569m. Speed=0.792000m/h.</desc>
<speed>0.220000</speed>
</trkpt>
<trkpt lat="55.900257" lon="26.529037">
<ele>108.395569</ele>
<time>2010-06-20T15:48:00Z</time>
<desc>lat.=55.900257, lon.=26.529037, Alt.=108.395569m. Speed=0.540000m/h.</desc>
<speed>0.150000</speed>
</trkpt>
<trkpt lat="55.900257" lon="26.529036">
<ele>108.397522</ele>
<time>2010-06-20T15:48:01Z</time>
<desc>lat.=55.900257, lon.=26.529036, Alt.=108.397522m. Speed=0.468000m/h.</desc>
<speed>0.130000</speed>
</trkpt>
<trkpt lat="55.900257" lon="26.529036">
<ele>108.397522</ele>
<time>2010-06-20T15:48:02Z</time>
<desc>lat.=55.900257, lon.=26.529036, Alt.=108.397522m. Speed=0.396000m/h.</desc>
<speed>0.110000</speed>
</trkpt>
<trkpt lat="55.900257" lon="26.529037">
<ele>108.397522</ele>
<time>2010-06-20T15:48:03Z</time>
<desc>lat.=55.900257, lon.=26.529037, Alt.=108.397522m. Speed=0.684000m/h.</desc>
<speed>0.190000</speed>
</trkpt>
<trkpt lat="55.900257" lon="26.529039">
<ele>108.399475</ele>
<time>2010-06-20T15:48:04Z</time>
<desc>lat.=55.900257, lon.=26.529039, Alt.=108.399475m. Speed=0.504000m/h.</desc>
<speed>0.140000</speed>
</trkpt>
<trkpt lat="55.900257" lon="26.529043">
<ele>108.395569</ele>
<time>2010-06-20T15:48:05Z</time>
<desc>lat.=55.900257, lon.=26.529043, Alt.=108.395569m. Speed=0.936000m/h.</desc>
<speed>0.260000</speed>
</trkpt>
<trkpt lat="55.900261" lon="26.529041">
<ele>108.393616</ele>
<time>2010-06-20T15:48:06Z</time>
<desc>lat.=55.900261, lon.=26.529041, Alt.=108.393616m. Speed=1.332000m/h.</desc>
<speed>0.370000</speed>
</trkpt>
<trkpt lat="55.900272" lon="26.529013">
<ele>108.254944</ele>
<time>2010-06-20T15:48:07Z</time>
<desc>lat.=55.900272, lon.=26.529013, Alt.=108.254944m. Speed=2.700000m/h.</desc>
<speed>0.750000</speed>
</trkpt>
<trkpt lat="55.900280" lon="26.528996">
<ele>108.112366</ele>
<time>2010-06-20T15:48:08Z</time>
<desc>lat.=55.900280, lon.=26.528996, Alt.=108.112366m. Speed=2.916000m/h.</desc>
<speed>0.810000</speed>
</trkpt>
<trkpt lat="55.900284" lon="26.528984">
<ele>108.108459</ele>
<time>2010-06-20T15:48:09Z</time>
<desc>lat.=55.900284, lon.=26.528984, Alt.=108.108459m. Speed=2.304000m/h.</desc>
<speed>0.640000</speed>
</trkpt>
<trkpt lat="55.900284" lon="26.528975">
<ele>108.075256</ele>
<time>2010-06-20T15:48:10Z</time>
<desc>lat.=55.900284, lon.=26.528975, Alt.=108.075256m. Speed=2.124000m/h.</desc>
<speed>0.590000</speed>
</trkpt>
<trkpt lat="55.900276" lon="26.528978">
<ele>108.067444</ele>
<time>2010-06-20T15:48:11Z</time>
<desc>lat.=55.900276, lon.=26.528978, Alt.=108.067444m. Speed=0.864000m/h.</desc>
<speed>0.240000</speed>
</trkpt>
<trkpt lat="55.900276" lon="26.528986">
<ele>108.192444</ele>
<time>2010-06-20T15:48:12Z</time>
<desc>lat.=55.900276, lon.=26.528986, Alt.=108.192444m. Speed=1.260000m/h.</desc>
<speed>0.350000</speed>
</trkpt>
<trkpt lat="55.900280" lon="26.528986">
<ele>108.319397</ele>
<time>2010-06-20T15:48:13Z</time>
<desc>lat.=55.900280, lon.=26.528986, Alt.=108.319397m. Speed=0.828000m/h.</desc>
<speed>0.230000</speed>
</trkpt>
<trkpt lat="55.900280" lon="26.528978">
<ele>108.438538</ele>
<time>2010-06-20T15:48:14Z</time>
<desc>lat.=55.900280, lon.=26.528978, Alt.=108.438538m. Speed=0.936000m/h.</desc>
<speed>0.260000</speed>
</trkpt>
<trkpt lat="55.900280" lon="26.528975">
<ele>108.575256</ele>
<time>2010-06-20T15:48:15Z</time>
<desc>lat.=55.900280, lon.=26.528975, Alt.=108.575256m. Speed=0.864000m/h.</desc>
<speed>0.240000</speed>
</trkpt>
<trkpt lat="55.900284" lon="26.528976">
<ele>108.756897</ele>
<time>2010-06-20T15:48:16Z</time>
<desc>lat.=55.900284, lon.=26.528976, Alt.=108.756897m. Speed=0.900000m/h.</desc>
<speed>0.250000</speed>
</trkpt>
<trkpt lat="55.900280" lon="26.528975">
<ele>108.762756</ele>
<time>2010-06-20T15:48:17Z</time>
<desc>lat.=55.900280, lon.=26.528975, Alt.=108.762756m. Speed=0.828000m/h.</desc>
<speed>0.230000</speed>
</trkpt>
<trkpt lat="55.900280" lon="26.528975">
<ele>108.770569</ele>
<time>2010-06-20T15:48:18Z</time>
<desc>lat.=55.900280, lon.=26.528975, Alt.=108.770569m. Speed=0.468000m/h.</desc>
<speed>0.130000</speed>
</trkpt>
<trkpt lat="55.900276" lon="26.528973">
<ele>108.778381</ele>
<time>2010-06-20T15:48:19Z</time>
<desc>lat.=55.900276, lon.=26.528973, Alt.=108.778381m. Speed=0.360000m/h.</desc>
<speed>0.100000</speed>
</trkpt>
<trkpt lat="55.900276" lon="26.528971">
<ele>108.784241</ele>
<time>2010-06-20T15:48:20Z</time>
<desc>lat.=55.900276, lon.=26.528971, Alt.=108.784241m. Speed=0.396000m/h.</desc>
<speed>0.110000</speed>
</trkpt>
<trkpt lat="55.900276" lon="26.528969">
<ele>108.790100</ele>
<time>2010-06-20T15:48:21Z</time>
<desc>lat.=55.900276, lon.=26.528969, Alt.=108.790100m. Speed=0.432000m/h.</desc>
<speed>0.120000</speed>
</trkpt>
<trkpt lat="55.900276" lon="26.528969">
<ele>108.795959</ele>
<time>2010-06-20T15:48:22Z</time>
<desc>lat.=55.900276, lon.=26.528969, Alt.=108.795959m. Speed=0.540000m/h.</desc>
<speed>0.150000</speed>
</trkpt>
<trkpt lat="55.900276" lon="26.528969">
<ele>108.803772</ele>
<time>2010-06-20T15:48:23Z</time>
<desc>lat.=55.900276, lon.=26.528969, Alt.=108.803772m. Speed=0.432000m/h.</desc>
<speed>0.120000</speed>
</trkpt>
<trkpt lat="55.900276" lon="26.528971">
<ele>108.811584</ele>
<time>2010-06-20T15:48:24Z</time>
<desc>lat.=55.900276, lon.=26.528971, Alt.=108.811584m. Speed=0.828000m/h.</desc>
<speed>0.230000</speed>
</trkpt>
<trkpt lat="55.900280" lon="26.528973">
<ele>108.817444</ele>
<time>2010-06-20T15:48:25Z</time>
<desc>lat.=55.900280, lon.=26.528973, Alt.=108.817444m. Speed=1.116000m/h.</desc>
<speed>0.310000</speed>
</trkpt>
<trkpt lat="55.900280" lon="26.528959">
<ele>108.842834</ele>
<time>2010-06-20T15:48:26Z</time>
<desc>lat.=55.900280, lon.=26.528959, Alt.=108.842834m. Speed=0.684000m/h.</desc>
<speed>0.190000</speed>
</trkpt>
<trkpt lat="55.900284" lon="26.528954">
<ele>108.911194</ele>
<time>2010-06-20T15:48:27Z</time>
<desc>lat.=55.900284, lon.=26.528954, Alt.=108.911194m. Speed=0.720000m/h.</desc>
<speed>0.200000</speed>
</trkpt>
<trkpt lat="55.900288" lon="26.528938">
<ele>108.944397</ele>
<time>2010-06-20T15:48:28Z</time>
<desc>lat.=55.900288, lon.=26.528938, Alt.=108.944397m. Speed=1.440000m/h.</desc>
<speed>0.400000</speed>
</trkpt>
<trkpt lat="55.900295" lon="26.528931">
<ele>108.958069</ele>
<time>2010-06-20T15:48:29Z</time>
<desc>lat.=55.900295, lon.=26.528931, Alt.=108.958069m. Speed=1.548000m/h.</desc>
<speed>0.430000</speed>
</trkpt>
<trkpt lat="55.900299" lon="26.528919">
<ele>108.971741</ele>
<time>2010-06-20T15:48:30Z</time>
<desc>lat.=55.900299, lon.=26.528919, Alt.=108.971741m. Speed=1.980000m/h.</desc>
<speed>0.550000</speed>
</trkpt>
<trkpt lat="55.900303" lon="26.528908">
<ele>108.942444</ele>
<time>2010-06-20T15:48:31Z</time>
<desc>lat.=55.900303, lon.=26.528908, Alt.=108.942444m. Speed=2.232000m/h.</desc>
<speed>0.620000</speed>
</trkpt>
<trkpt lat="55.900303" lon="26.528885">
<ele>108.897522</ele>
<time>2010-06-20T15:48:32Z</time>
<desc>lat.=55.900303, lon.=26.528885, Alt.=108.897522m. Speed=2.772000m/h.</desc>
<speed>0.770000</speed>
</trkpt>
<trkpt lat="55.900295" lon="26.528881">
<ele>108.825256</ele>
<time>2010-06-20T15:48:33Z</time>
<desc>lat.=55.900295, lon.=26.528881, Alt.=108.825256m. Speed=2.304000m/h.</desc>
<speed>0.640000</speed>
</trkpt>
<trkpt lat="55.900303" lon="26.528881">
<ele>108.788147</ele>
<time>2010-06-20T15:48:34Z</time>
<desc>lat.=55.900303, lon.=26.528881, Alt.=108.788147m. Speed=2.016000m/h.</desc>
<speed>0.560000</speed>
</trkpt>
<trkpt lat="55.900307" lon="26.528873">
<ele>108.751038</ele>
<time>2010-06-20T15:48:35Z</time>
<desc>lat.=55.900307, lon.=26.528873, Alt.=108.751038m. Speed=1.908000m/h.</desc>
<speed>0.530000</speed>
</trkpt>
<trkpt lat="55.900307" lon="26.528879">
<ele>108.741272</ele>
<time>2010-06-20T15:48:36Z</time>
<desc>lat.=55.900307, lon.=26.528879, Alt.=108.741272m. Speed=0.648000m/h.</desc>
<speed>0.180000</speed>
</trkpt>
<trkpt lat="55.900311" lon="26.528896">
<ele>108.733459</ele>
<time>2010-06-20T15:48:37Z</time>
<desc>lat.=55.900311, lon.=26.528896, Alt.=108.733459m. Speed=0.612000m/h.</desc>
<speed>0.170000</speed>
</trkpt>
<trkpt lat="55.900307" lon="26.528910">
<ele>108.713928</ele>
<time>2010-06-20T15:48:38Z</time>
<desc>lat.=55.900307, lon.=26.528910, Alt.=108.713928m. Speed=1.080000m/h.</desc>
<speed>0.300000</speed>
</trkpt>
<trkpt lat="55.900311" lon="26.528893">
<ele>108.682678</ele>
<time>2010-06-20T15:48:39Z</time>
<desc>lat.=55.900311, lon.=26.528893, Alt.=108.682678m. Speed=0.432000m/h.</desc>
<speed>0.120000</speed>
</trkpt>
<trkpt lat="55.900311" lon="26.528875">
<ele>108.739319</ele>
<time>2010-06-20T15:48:40Z</time>
<desc>lat.=55.900311, lon.=26.528875, Alt.=108.739319m. Speed=0.792000m/h.</desc>
<speed>0.220000</speed>
</trkpt>
<trkpt lat="55.900307" lon="26.528870">
<ele>108.614319</ele>
<time>2010-06-20T15:48:41Z</time>
<desc>lat.=55.900307, lon.=26.528870, Alt.=108.614319m. Speed=0.756000m/h.</desc>
<speed>0.210000</speed>
</trkpt>
<trkpt lat="55.900307" lon="26.528872">
<ele>108.649475</ele>
<time>2010-06-20T15:48:42Z</time>
<desc>lat.=55.900307, lon.=26.528872, Alt.=108.649475m. Speed=0.432000m/h.</desc>
<speed>0.120000</speed>
</trkpt>
<trkpt lat="55.900307" lon="26.528872">
<ele>108.651428</ele>
<time>2010-06-20T15:48:43Z</time>
<desc>lat.=55.900307, lon.=26.528872, Alt.=108.651428m. Speed=0.684000m/h.</desc>
<speed>0.190000</speed>
</trkpt>
<trkpt lat="55.900311" lon="26.528872">
<ele>108.651428</ele>
<time>2010-06-20T15:48:44Z</time>
<desc>lat.=55.900311, lon.=26.528872, Alt.=108.651428m. Speed=1.440000m/h.</desc>
<speed>0.400000</speed>
</trkpt>
<trkpt lat="55.900307" lon="26.528868">
<ele>108.614319</ele>
<time>2010-06-20T15:48:45Z</time>
<desc>lat.=55.900307, lon.=26.528868, Alt.=108.614319m. Speed=1.224000m/h.</desc>
<speed>0.340000</speed>
</trkpt>
<trkpt lat="55.900303" lon="26.528849">
<ele>108.508850</ele>
<time>2010-06-20T15:48:46Z</time>
<desc>lat.=55.900303, lon.=26.528849, Alt.=108.508850m. Speed=0.936000m/h.</desc>
<speed>0.260000</speed>
</trkpt>
<trkpt lat="55.900303" lon="26.528849">
<ele>108.461975</ele>
<time>2010-06-20T15:48:47Z</time>
<desc>lat.=55.900303, lon.=26.528849, Alt.=108.461975m. Speed=0.576000m/h.</desc>
<speed>0.160000</speed>
</trkpt>
<trkpt lat="55.900295" lon="26.528854">
<ele>108.436584</ele>
<time>2010-06-20T15:48:48Z</time>
<desc>lat.=55.900295, lon.=26.528854, Alt.=108.436584m. Speed=0.360000m/h.</desc>
<speed>0.100000</speed>
</trkpt>
<trkpt lat="55.900291" lon="26.528852">
<ele>108.321350</ele>
<time>2010-06-20T15:48:49Z</time>
<desc>lat.=55.900291, lon.=26.528852, Alt.=108.321350m. Speed=0.396000m/h.</desc>
<speed>0.110000</speed>
</trkpt>
<trkpt lat="55.900291" lon="26.528852">
<ele>108.313538</ele>
<time>2010-06-20T15:48:50Z</time>
<desc>lat.=55.900291, lon.=26.528852, Alt.=108.313538m. Speed=0.720000m/h.</desc>
<speed>0.200000</speed>
</trkpt>
<trkpt lat="55.900288" lon="26.528852">
<ele>108.309631</ele>
<time>2010-06-20T15:48:51Z</time>
<desc>lat.=55.900288, lon.=26.528852, Alt.=108.309631m. Speed=0.468000m/h.</desc>
<speed>0.130000</speed>
</trkpt>
<trkpt lat="55.900288" lon="26.528851">
<ele>108.305725</ele>
<time>2010-06-20T15:48:52Z</time>
<desc>lat.=55.900288, lon.=26.528851, Alt.=108.305725m. Speed=0.072000m/h.</desc>
<speed>0.020000</speed>
</trkpt>
<trkpt lat="55.900288" lon="26.528851">
<ele>108.301819</ele>
<time>2010-06-20T15:48:53Z</time>
<desc>lat.=55.900288, lon.=26.528851, Alt.=108.301819m. Speed=0.288000m/h.</desc>
<speed>0.080000</speed>
</trkpt>
<trkpt lat="55.900288" lon="26.528851">
<ele>108.297913</ele>
<time>2010-06-20T15:48:54Z</time>
<desc>lat.=55.900288, lon.=26.528851, Alt.=108.297913m. Speed=0.612000m/h.</desc>
<speed>0.170000</speed>
</trkpt>
<trkpt lat="55.900288" lon="26.528849">
<ele>108.295959</ele>
<time>2010-06-20T15:48:55Z</time>
<desc>lat.=55.900288, lon.=26.528849, Alt.=108.295959m. Speed=0.432000m/h.</desc>
<speed>0.120000</speed>
</trkpt>
<trkpt lat="55.900284" lon="26.528849">
<ele>108.294006</ele>
<time>2010-06-20T15:48:56Z</time>
<desc>lat.=55.900284, lon.=26.528849, Alt.=108.294006m. Speed=0.468000m/h.</desc>
<speed>0.130000</speed>
</trkpt>
<trkpt lat="55.900284" lon="26.528851">
<ele>108.292053</ele>
<time>2010-06-20T15:48:57Z</time>
<desc>lat.=55.900284, lon.=26.528851, Alt.=108.292053m. Speed=0.360000m/h.</desc>
<speed>0.100000</speed>
</trkpt>
<trkpt lat="55.900284" lon="26.528851">
<ele>108.288147</ele>
<time>2010-06-20T15:48:58Z</time>
<desc>lat.=55.900284, lon.=26.528851, Alt.=108.288147m. Speed=0.180000m/h.</desc>
<speed>0.050000</speed>
</trkpt>
<trkpt lat="55.900284" lon="26.528851">
<ele>108.286194</ele>
<time>2010-06-20T15:48:59Z</time>
<desc>lat.=55.900284, lon.=26.528851, Alt.=108.286194m. Speed=0.288000m/h.</desc>
<speed>0.080000</speed>
</trkpt>
<trkpt lat="55.900284" lon="26.528851">
<ele>108.284241</ele>
<time>2010-06-20T15:49:00Z</time>
<desc>lat.=55.900284, lon.=26.528851, Alt.=108.284241m. Speed=0.180000m/h.</desc>
<speed>0.050000</speed>
</trkpt>
<trkpt lat="55.900284" lon="26.528849">
<ele>108.284241</ele>
<time>2010-06-20T15:49:01Z</time>
<desc>lat.=55.900284, lon.=26.528849, Alt.=108.284241m. Speed=0.216000m/h.</desc>
<speed>0.060000</speed>
</trkpt>
<trkpt lat="55.900284" lon="26.528849">
<ele>108.284241</ele>
<time>2010-06-20T15:49:02Z</time>
<desc>lat.=55.900284, lon.=26.528849, Alt.=108.284241m. Speed=0.540000m/h.</desc>
<speed>0.150000</speed>
</trkpt>
<trkpt lat="55.900284" lon="26.528847">
<ele>108.284241</ele>
<time>2010-06-20T15:49:03Z</time>
<desc>lat.=55.900284, lon.=26.528847, Alt.=108.284241m. Speed=0.792000m/h.</desc>
<speed>0.220000</speed>
</trkpt>
<trkpt lat="55.900284" lon="26.528843">
<ele>108.286194</ele>
<time>2010-06-20T15:49:04Z</time>
<desc>lat.=55.900284, lon.=26.528843, Alt.=108.286194m. Speed=0.900000m/h.</desc>
<speed>0.250000</speed>
</trkpt>
<trkpt lat="55.900280" lon="26.528841">
<ele>108.286194</ele>
<time>2010-06-20T15:49:05Z</time>
<desc>lat.=55.900280, lon.=26.528841, Alt.=108.286194m. Speed=1.620000m/h.</desc>
<speed>0.450000</speed>
</trkpt>
<trkpt lat="55.900276" lon="26.528851">
<ele>108.192444</ele>
<time>2010-06-20T15:49:06Z</time>
<desc>lat.=55.900276, lon.=26.528851, Alt.=108.192444m. Speed=1.080000m/h.</desc>
<speed>0.300000</speed>
</trkpt>
<trkpt lat="55.900269" lon="26.528872">
<ele>108.165100</ele>
<time>2010-06-20T15:49:07Z</time>
<desc>lat.=55.900269, lon.=26.528872, Alt.=108.165100m. Speed=0.828000m/h.</desc>
<speed>0.230000</speed>
</trkpt>
<trkpt lat="55.900265" lon="26.528877">
<ele>108.194397</ele>
<time>2010-06-20T15:49:08Z</time>
<desc>lat.=55.900265, lon.=26.528877, Alt.=108.194397m. Speed=0.720000m/h.</desc>
<speed>0.200000</speed>
</trkpt>
<trkpt lat="55.900265" lon="26.528877">
<ele>108.104553</ele>
<time>2010-06-20T15:49:09Z</time>
<desc>lat.=55.900265, lon.=26.528877, Alt.=108.104553m. Speed=0.432000m/h.</desc>
<speed>0.120000</speed>
</trkpt>
<trkpt lat="55.900257" lon="26.528868">
<ele>108.020569</ele>
<time>2010-06-20T15:49:10Z</time>
<desc>lat.=55.900257, lon.=26.528868, Alt.=108.020569m. Speed=0.180000m/h.</desc>
<speed>0.050000</speed>
</trkpt>
<trkpt lat="55.900257" lon="26.528866">
<ele>108.014709</ele>
<time>2010-06-20T15:49:11Z</time>
<desc>lat.=55.900257, lon.=26.528866, Alt.=108.014709m. Speed=0.612000m/h.</desc>
<speed>0.170000</speed>
</trkpt>
<trkpt lat="55.900257" lon="26.528864">
<ele>108.012756</ele>
<time>2010-06-20T15:49:12Z</time>
<desc>lat.=55.900257, lon.=26.528864, Alt.=108.012756m. Speed=0.648000m/h.</desc>
<speed>0.180000</speed>
</trkpt>
<trkpt lat="55.900257" lon="26.528864">
<ele>108.010803</ele>
<time>2010-06-20T15:49:13Z</time>
<desc>lat.=55.900257, lon.=26.528864, Alt.=108.010803m. Speed=0.648000m/h.</desc>
<speed>0.180000</speed>
</trkpt>
<trkpt lat="55.900253" lon="26.528864">
<ele>108.004944</ele>
<time>2010-06-20T15:49:14Z</time>
<desc>lat.=55.900253, lon.=26.528864, Alt.=108.004944m. Speed=0.252000m/h.</desc>
<speed>0.070000</speed>
</trkpt>
<trkpt lat="55.900253" lon="26.528866">
<ele>108.001038</ele>
<time>2010-06-20T15:49:15Z</time>
<desc>lat.=55.900253, lon.=26.528866, Alt.=108.001038m. Speed=0.108000m/h.</desc>
<speed>0.030000</speed>
</trkpt>
<trkpt lat="55.900253" lon="26.528864">
<ele>107.995178</ele>
<time>2010-06-20T15:49:16Z</time>
<desc>lat.=55.900253, lon.=26.528864, Alt.=107.995178m. Speed=0.324000m/h.</desc>
<speed>0.090000</speed>
</trkpt>
<trkpt lat="55.900253" lon="26.528862">
<ele>107.991272</ele>
<time>2010-06-20T15:49:17Z</time>
<desc>lat.=55.900253, lon.=26.528862, Alt.=107.991272m. Speed=0.792000m/h.</desc>
<speed>0.220000</speed>
</trkpt>
<trkpt lat="55.900253" lon="26.528860">
<ele>107.989319</ele>
<time>2010-06-20T15:49:18Z</time>
<desc>lat.=55.900253, lon.=26.528860, Alt.=107.989319m. Speed=0.828000m/h.</desc>
<speed>0.230000</speed>
</trkpt>
<trkpt lat="55.900253" lon="26.528856">
<ele>107.987366</ele>
<time>2010-06-20T15:49:19Z</time>
<desc>lat.=55.900253, lon.=26.528856, Alt.=107.987366m. Speed=0.612000m/h.</desc>
<speed>0.170000</speed>
</trkpt>
<trkpt lat="55.900257" lon="26.528854">
<ele>107.987366</ele>
<time>2010-06-20T15:49:20Z</time>
<desc>lat.=55.900257, lon.=26.528854, Alt.=107.987366m. Speed=0.468000m/h.</desc>
<speed>0.130000</speed>
</trkpt>
<trkpt lat="55.900257" lon="26.528852">
<ele>107.985413</ele>
<time>2010-06-20T15:49:21Z</time>
<desc>lat.=55.900257, lon.=26.528852, Alt.=107.985413m. Speed=0.396000m/h.</desc>
<speed>0.110000</speed>
</trkpt>
<trkpt lat="55.900253" lon="26.528851">
<ele>107.987366</ele>
<time>2010-06-20T15:49:22Z</time>
<desc>lat.=55.900253, lon.=26.528851, Alt.=107.987366m. Speed=0.360000m/h.</desc>
<speed>0.100000</speed>
</trkpt>
<trkpt lat="55.900253" lon="26.528852">
<ele>107.987366</ele>
<time>2010-06-20T15:49:23Z</time>
<desc>lat.=55.900253, lon.=26.528852, Alt.=107.987366m. Speed=0.396000m/h.</desc>
<speed>0.110000</speed>
</trkpt>
<trkpt lat="55.900253" lon="26.528852">
<ele>107.987366</ele>
<time>2010-06-20T15:49:24Z</time>
<desc>lat.=55.900253, lon.=26.528852, Alt.=107.987366m. Speed=0.216000m/h.</desc>
<speed>0.060000</speed>
</trkpt>
<trkpt lat="55.900253" lon="26.528852">
<ele>107.989319</ele>
<time>2010-06-20T15:49:25Z</time>
<desc>lat.=55.900253, lon.=26.528852, Alt.=107.989319m. Speed=1.188000m/h.</desc>
<speed>0.330000</speed>
</trkpt>
<trkpt lat="55.900246" lon="26.528868">
<ele>108.063538</ele>
<time>2010-06-20T15:49:26Z</time>
<desc>lat.=55.900246, lon.=26.528868, Alt.=108.063538m. Speed=1.224000m/h.</desc>
<speed>0.340000</speed>
</trkpt>
<trkpt lat="55.900242" lon="26.528875">
<ele>108.172913</ele>
<time>2010-06-20T15:49:27Z</time>
<desc>lat.=55.900242, lon.=26.528875, Alt.=108.172913m. Speed=0.936000m/h.</desc>
<speed>0.260000</speed>
</trkpt>
<trkpt lat="55.900238" lon="26.528870">
<ele>108.215881</ele>
<time>2010-06-20T15:49:28Z</time>
<desc>lat.=55.900238, lon.=26.528870, Alt.=108.215881m. Speed=1.440000m/h.</desc>
<speed>0.400000</speed>
</trkpt>
<trkpt lat="55.900230" lon="26.528864">
<ele>108.237366</ele>
<time>2010-06-20T15:49:29Z</time>
<desc>lat.=55.900230, lon.=26.528864, Alt.=108.237366m. Speed=1.620000m/h.</desc>
<speed>0.450000</speed>
</trkpt>
<trkpt lat="55.900230" lon="26.528868">
<ele>108.241272</ele>
<time>2010-06-20T15:49:30Z</time>
<desc>lat.=55.900230, lon.=26.528868, Alt.=108.241272m. Speed=1.080000m/h.</desc>
<speed>0.300000</speed>
</trkpt>
<trkpt lat="55.900234" lon="26.528881">
<ele>108.295959</ele>
<time>2010-06-20T15:49:31Z</time>
<desc>lat.=55.900234, lon.=26.528881, Alt.=108.295959m. Speed=0.576000m/h.</desc>
<speed>0.160000</speed>
</trkpt>
<trkpt lat="55.900234" lon="26.528887">
<ele>108.309631</ele>
<time>2010-06-20T15:49:32Z</time>
<desc>lat.=55.900234, lon.=26.528887, Alt.=108.309631m. Speed=0.252000m/h.</desc>
<speed>0.070000</speed>
</trkpt>
<trkpt lat="55.900234" lon="26.528891">
<ele>108.311584</ele>
<time>2010-06-20T15:49:33Z</time>
<desc>lat.=55.900234, lon.=26.528891, Alt.=108.311584m. Speed=0.180000m/h.</desc>
<speed>0.050000</speed>
</trkpt>
<trkpt lat="55.900234" lon="26.528894">
<ele>108.321350</ele>
<time>2010-06-20T15:49:34Z</time>
<desc>lat.=55.900234, lon.=26.528894, Alt.=108.321350m. Speed=0.144000m/h.</desc>
<speed>0.040000</speed>
</trkpt>
<trkpt lat="55.900234" lon="26.528896">
<ele>108.317444</ele>
<time>2010-06-20T15:49:35Z</time>
<desc>lat.=55.900234, lon.=26.528896, Alt.=108.317444m. Speed=0.144000m/h.</desc>
<speed>0.040000</speed>
</trkpt>
<trkpt lat="55.900234" lon="26.528894">
<ele>108.315491</ele>
<time>2010-06-20T15:49:36Z</time>
<desc>lat.=55.900234, lon.=26.528894, Alt.=108.315491m. Speed=0.720000m/h.</desc>
<speed>0.200000</speed>
</trkpt>
<trkpt lat="55.900234" lon="26.528894">
<ele>108.317444</ele>
<time>2010-06-20T15:49:37Z</time>
<desc>lat.=55.900234, lon.=26.528894, Alt.=108.317444m. Speed=0.540000m/h.</desc>
<speed>0.150000</speed>
</trkpt>
<trkpt lat="55.900230" lon="26.528894">
<ele>108.315491</ele>
<time>2010-06-20T15:49:38Z</time>
<desc>lat.=55.900230, lon.=26.528894, Alt.=108.315491m. Speed=1.080000m/h.</desc>
<speed>0.300000</speed>
</trkpt>
<trkpt lat="55.900230" lon="26.528896">
<ele>108.389709</ele>
<time>2010-06-20T15:49:39Z</time>
<desc>lat.=55.900230, lon.=26.528896, Alt.=108.389709m. Speed=0.504000m/h.</desc>
<speed>0.140000</speed>
</trkpt>
<trkpt lat="55.900234" lon="26.528898">
<ele>108.479553</ele>
<time>2010-06-20T15:49:40Z</time>
<desc>lat.=55.900234, lon.=26.528898, Alt.=108.479553m. Speed=0.432000m/h.</desc>
<speed>0.120000</speed>
</trkpt>
<trkpt lat="55.900234" lon="26.528910">
<ele>108.504944</ele>
<time>2010-06-20T15:49:41Z</time>
<desc>lat.=55.900234, lon.=26.528910, Alt.=108.504944m. Speed=0.504000m/h.</desc>
<speed>0.140000</speed>
</trkpt>
<trkpt lat="55.900230" lon="26.528910">
<ele>108.608459</ele>
<time>2010-06-20T15:49:42Z</time>
<desc>lat.=55.900230, lon.=26.528910, Alt.=108.608459m. Speed=0.576000m/h.</desc>
<speed>0.160000</speed>
</trkpt>
<trkpt lat="55.900230" lon="26.528908">
<ele>108.608459</ele>
<time>2010-06-20T15:49:43Z</time>
<desc>lat.=55.900230, lon.=26.528908, Alt.=108.608459m. Speed=1.188000m/h.</desc>
<speed>0.330000</speed>
</trkpt>
<trkpt lat="55.900227" lon="26.528921">
<ele>108.665100</ele>
<time>2010-06-20T15:49:44Z</time>
<desc>lat.=55.900227, lon.=26.528921, Alt.=108.665100m. Speed=1.332000m/h.</desc>
<speed>0.370000</speed>
</trkpt>
<trkpt lat="55.900223" lon="26.528934">
<ele>108.764709</ele>
<time>2010-06-20T15:49:45Z</time>
<desc>lat.=55.900223, lon.=26.528934, Alt.=108.764709m. Speed=1.188000m/h.</desc>
<speed>0.330000</speed>
</trkpt>
<trkpt lat="55.900227" lon="26.528948">
<ele>108.877991</ele>
<time>2010-06-20T15:49:46Z</time>
<desc>lat.=55.900227, lon.=26.528948, Alt.=108.877991m. Speed=0.972000m/h.</desc>
<speed>0.270000</speed>
</trkpt>
<trkpt lat="55.900230" lon="26.528955">
<ele>108.983459</ele>
<time>2010-06-20T15:49:47Z</time>
<desc>lat.=55.900230, lon.=26.528955, Alt.=108.983459m. Speed=1.224000m/h.</desc>
<speed>0.340000</speed>
</trkpt>
<trkpt lat="55.900234" lon="26.528961">
<ele>109.092834</ele>
<time>2010-06-20T15:49:48Z</time>
<desc>lat.=55.900234, lon.=26.528961, Alt.=109.092834m. Speed=1.080000m/h.</desc>
<speed>0.300000</speed>
</trkpt>
<trkpt lat="55.900234" lon="26.528969">
<ele>109.260803</ele>
<time>2010-06-20T15:49:49Z</time>
<desc>lat.=55.900234, lon.=26.528969, Alt.=109.260803m. Speed=0.900000m/h.</desc>
<speed>0.250000</speed>
</trkpt>
<trkpt lat="55.900234" lon="26.528982">
<ele>109.368225</ele>
<time>2010-06-20T15:49:50Z</time>
<desc>lat.=55.900234, lon.=26.528982, Alt.=109.368225m. Speed=1.296000m/h.</desc>
<speed>0.360000</speed>
</trkpt>
<trkpt lat="55.900234" lon="26.528984">
<ele>109.489319</ele>
<time>2010-06-20T15:49:51Z</time>
<desc>lat.=55.900234, lon.=26.528984, Alt.=109.489319m. Speed=1.008000m/h.</desc>
<speed>0.280000</speed>
</trkpt>
<trkpt lat="55.900227" lon="26.528996">
<ele>109.686584</ele>
<time>2010-06-20T15:49:52Z</time>
<desc>lat.=55.900227, lon.=26.528996, Alt.=109.686584m. Speed=1.296000m/h.</desc>
<speed>0.360000</speed>
</trkpt>
<trkpt lat="55.900223" lon="26.529005">
<ele>109.713928</ele>
<time>2010-06-20T15:49:53Z</time>
<desc>lat.=55.900223, lon.=26.529005, Alt.=109.713928m. Speed=1.800000m/h.</desc>
<speed>0.500000</speed>
</trkpt>
<trkpt lat="55.900219" lon="26.529005">
<ele>109.719788</ele>
<time>2010-06-20T15:49:54Z</time>
<desc>lat.=55.900219, lon.=26.529005, Alt.=109.719788m. Speed=1.296000m/h.</desc>
<speed>0.360000</speed>
</trkpt>
<trkpt lat="55.900215" lon="26.529001">
<ele>109.815491</ele>
<time>2010-06-20T15:49:55Z</time>
<desc>lat.=55.900215, lon.=26.529001, Alt.=109.815491m. Speed=0.828000m/h.</desc>
<speed>0.230000</speed>
</trkpt>
<trkpt lat="55.900223" lon="26.528992">
<ele>109.963928</ele>
<time>2010-06-20T15:49:56Z</time>
<desc>lat.=55.900223, lon.=26.528992, Alt.=109.963928m. Speed=0.540000m/h.</desc>
<speed>0.150000</speed>
</trkpt>
<trkpt lat="55.900227" lon="26.528992">
<ele>110.079163</ele>
<time>2010-06-20T15:49:57Z</time>
<desc>lat.=55.900227, lon.=26.528992, Alt.=110.079163m. Speed=0.828000m/h.</desc>
<speed>0.230000</speed>
</trkpt>
<trkpt lat="55.900230" lon="26.528997">
<ele>110.223694</ele>
<time>2010-06-20T15:49:58Z</time>
<desc>lat.=55.900230, lon.=26.528997, Alt.=110.223694m. Speed=0.648000m/h.</desc>
<speed>0.180000</speed>
</trkpt>
<trkpt lat="55.900230" lon="26.528994">
<ele>110.223694</ele>
<time>2010-06-20T15:49:59Z</time>
<desc>lat.=55.900230, lon.=26.528994, Alt.=110.223694m. Speed=0.756000m/h.</desc>
<speed>0.210000</speed>
</trkpt>
<trkpt lat="55.900230" lon="26.528990">
<ele>110.223694</ele>
<time>2010-06-20T15:50:00Z</time>
<desc>lat.=55.900230, lon.=26.528990, Alt.=110.223694m. Speed=1.008000m/h.</desc>
<speed>0.280000</speed>
</trkpt>
<trkpt lat="55.900227" lon="26.528986">
<ele>110.227600</ele>
<time>2010-06-20T15:50:01Z</time>
<desc>lat.=55.900227, lon.=26.528986, Alt.=110.227600m. Speed=1.548000m/h.</desc>
<speed>0.430000</speed>
</trkpt>
<trkpt lat="55.900230" lon="26.528984">
<ele>110.301819</ele>
<time>2010-06-20T15:50:02Z</time>
<desc>lat.=55.900230, lon.=26.528984, Alt.=110.301819m. Speed=1.332000m/h.</desc>
<speed>0.370000</speed>
</trkpt>
<trkpt lat="55.900230" lon="26.528988">
<ele>110.311584</ele>
<time>2010-06-20T15:50:03Z</time>
<desc>lat.=55.900230, lon.=26.528988, Alt.=110.311584m. Speed=1.080000m/h.</desc>
<speed>0.300000</speed>
</trkpt>
<trkpt lat="55.900234" lon="26.529001">
<ele>110.366272</ele>
<time>2010-06-20T15:50:04Z</time>
<desc>lat.=55.900234, lon.=26.529001, Alt.=110.366272m. Speed=0.468000m/h.</desc>
<speed>0.130000</speed>
</trkpt>
<trkpt lat="55.900238" lon="26.528999">
<ele>110.338928</ele>
<time>2010-06-20T15:50:05Z</time>
<desc>lat.=55.900238, lon.=26.528999, Alt.=110.338928m. Speed=0.684000m/h.</desc>
<speed>0.190000</speed>
</trkpt>
<trkpt lat="55.900242" lon="26.528997">
<ele>110.329163</ele>
<time>2010-06-20T15:50:06Z</time>
<desc>lat.=55.900242, lon.=26.528997, Alt.=110.329163m. Speed=0.828000m/h.</desc>
<speed>0.230000</speed>
</trkpt>
<trkpt lat="55.900238" lon="26.529005">
<ele>110.278381</ele>
<time>2010-06-20T15:50:07Z</time>
<desc>lat.=55.900238, lon.=26.529005, Alt.=110.278381m. Speed=0.468000m/h.</desc>
<speed>0.130000</speed>
</trkpt>
<trkpt lat="55.900238" lon="26.529003">
<ele>110.282288</ele>
<time>2010-06-20T15:50:08Z</time>
<desc>lat.=55.900238, lon.=26.529003, Alt.=110.282288m. Speed=0.828000m/h.</desc>
<speed>0.230000</speed>
</trkpt>
<trkpt lat="55.900238" lon="26.528999">
<ele>110.284241</ele>
<time>2010-06-20T15:50:09Z</time>
<desc>lat.=55.900238, lon.=26.528999, Alt.=110.284241m. Speed=0.828000m/h.</desc>
<speed>0.230000</speed>
</trkpt>
<trkpt lat="55.900238" lon="26.528996">
<ele>110.290100</ele>
<time>2010-06-20T15:50:10Z</time>
<desc>lat.=55.900238, lon.=26.528996, Alt.=110.290100m. Speed=0.684000m/h.</desc>
<speed>0.190000</speed>
</trkpt>
<trkpt lat="55.900238" lon="26.528992">
<ele>110.292053</ele>
<time>2010-06-20T15:50:11Z</time>
<desc>lat.=55.900238, lon.=26.528992, Alt.=110.292053m. Speed=0.288000m/h.</desc>
<speed>0.080000</speed>
</trkpt>
<trkpt lat="55.900238" lon="26.528992">
<ele>110.294006</ele>
<time>2010-06-20T15:50:12Z</time>
<desc>lat.=55.900238, lon.=26.528992, Alt.=110.294006m. Speed=0.720000m/h.</desc>
<speed>0.200000</speed>
</trkpt>
<trkpt lat="55.900238" lon="26.528988">
<ele>110.295959</ele>
<time>2010-06-20T15:50:13Z</time>
<desc>lat.=55.900238, lon.=26.528988, Alt.=110.295959m. Speed=0.576000m/h.</desc>
<speed>0.160000</speed>
</trkpt>
<trkpt lat="55.900234" lon="26.528986">
<ele>110.299866</ele>
<time>2010-06-20T15:50:14Z</time>
<desc>lat.=55.900234, lon.=26.528986, Alt.=110.299866m. Speed=0.036000m/h.</desc>
<speed>0.010000</speed>
</trkpt>
<trkpt lat="55.900234" lon="26.528986">
<ele>110.303772</ele>
<time>2010-06-20T15:50:15Z</time>
<desc>lat.=55.900234, lon.=26.528986, Alt.=110.303772m. Speed=0.288000m/h.</desc>
<speed>0.080000</speed>
</trkpt>
<trkpt lat="55.900238" lon="26.528986">
<ele>110.307678</ele>
<time>2010-06-20T15:50:16Z</time>
<desc>lat.=55.900238, lon.=26.528986, Alt.=110.307678m. Speed=0.360000m/h.</desc>
<speed>0.100000</speed>
</trkpt>
<trkpt lat="55.900238" lon="26.528984">
<ele>110.309631</ele>
<time>2010-06-20T15:50:17Z</time>
<desc>lat.=55.900238, lon.=26.528984, Alt.=110.309631m. Speed=0.648000m/h.</desc>
<speed>0.180000</speed>
</trkpt>
<trkpt lat="55.900234" lon="26.528982">
<ele>110.313538</ele>
<time>2010-06-20T15:50:18Z</time>
<desc>lat.=55.900234, lon.=26.528982, Alt.=110.313538m. Speed=0.864000m/h.</desc>
<speed>0.240000</speed>
</trkpt>
<trkpt lat="55.900234" lon="26.528978">
<ele>110.321350</ele>
<time>2010-06-20T15:50:19Z</time>
<desc>lat.=55.900234, lon.=26.528978, Alt.=110.321350m. Speed=0.396000m/h.</desc>
<speed>0.110000</speed>
</trkpt>
<trkpt lat="55.900234" lon="26.528976">
<ele>110.325256</ele>
<time>2010-06-20T15:50:20Z</time>
<desc>lat.=55.900234, lon.=26.528976, Alt.=110.325256m. Speed=0.900000m/h.</desc>
<speed>0.250000</speed>
</trkpt>
<trkpt lat="55.900234" lon="26.528973">
<ele>110.329163</ele>
<time>2010-06-20T15:50:21Z</time>
<desc>lat.=55.900234, lon.=26.528973, Alt.=110.329163m. Speed=1.224000m/h.</desc>
<speed>0.340000</speed>
</trkpt>
<trkpt lat="55.900230" lon="26.528975">
<ele>110.368225</ele>
<time>2010-06-20T15:50:22Z</time>
<desc>lat.=55.900230, lon.=26.528975, Alt.=110.368225m. Speed=0.756000m/h.</desc>
<speed>0.210000</speed>
</trkpt>
<trkpt lat="55.900223" lon="26.528971">
<ele>110.506897</ele>
<time>2010-06-20T15:50:23Z</time>
<desc>lat.=55.900223, lon.=26.528971, Alt.=110.506897m. Speed=1.368000m/h.</desc>
<speed>0.380000</speed>
</trkpt>
<trkpt lat="55.900219" lon="26.528973">
<ele>110.481506</ele>
<time>2010-06-20T15:50:24Z</time>
<desc>lat.=55.900219, lon.=26.528973, Alt.=110.481506m. Speed=0.720000m/h.</desc>
<speed>0.200000</speed>
</trkpt>
<trkpt lat="55.900215" lon="26.528976">
<ele>110.544006</ele>
<time>2010-06-20T15:50:25Z</time>
<desc>lat.=55.900215, lon.=26.528976, Alt.=110.544006m. Speed=0.864000m/h.</desc>
<speed>0.240000</speed>
</trkpt>
<trkpt lat="55.900211" lon="26.528990">
<ele>110.581116</ele>
<time>2010-06-20T15:50:26Z</time>
<desc>lat.=55.900211, lon.=26.528990, Alt.=110.581116m. Speed=0.828000m/h.</desc>
<speed>0.230000</speed>
</trkpt>
<trkpt lat="55.900211" lon="26.529005">
<ele>110.692444</ele>
<time>2010-06-20T15:50:27Z</time>
<desc>lat.=55.900211, lon.=26.529005, Alt.=110.692444m. Speed=0.108000m/h.</desc>
<speed>0.030000</speed>
</trkpt>
<trkpt lat="55.900211" lon="26.529005">
<ele>110.694397</ele>
<time>2010-06-20T15:50:28Z</time>
<desc>lat.=55.900211, lon.=26.529005, Alt.=110.694397m. Speed=0.180000m/h.</desc>
<speed>0.050000</speed>
</trkpt>
<trkpt lat="55.900211" lon="26.529005">
<ele>110.696350</ele>
<time>2010-06-20T15:50:29Z</time>
<desc>lat.=55.900211, lon.=26.529005, Alt.=110.696350m. Speed=1.152000m/h.</desc>
<speed>0.320000</speed>
</trkpt>
<trkpt lat="55.900208" lon="26.529003">
<ele>110.698303</ele>
<time>2010-06-20T15:50:30Z</time>
<desc>lat.=55.900208, lon.=26.529003, Alt.=110.698303m. Speed=0.756000m/h.</desc>
<speed>0.210000</speed>
</trkpt>
<trkpt lat="55.900208" lon="26.529001">
<ele>110.770569</ele>
<time>2010-06-20T15:50:31Z</time>
<desc>lat.=55.900208, lon.=26.529001, Alt.=110.770569m. Speed=0.648000m/h.</desc>
<speed>0.180000</speed>
</trkpt>
<trkpt lat="55.900204" lon="26.529007">
<ele>110.987366</ele>
<time>2010-06-20T15:50:32Z</time>
<desc>lat.=55.900204, lon.=26.529007, Alt.=110.987366m. Speed=0.612000m/h.</desc>
<speed>0.170000</speed>
</trkpt>
<trkpt lat="55.900208" lon="26.529013">
<ele>111.129944</ele>
<time>2010-06-20T15:50:33Z</time>
<desc>lat.=55.900208, lon.=26.529013, Alt.=111.129944m. Speed=1.044000m/h.</desc>
<speed>0.290000</speed>
</trkpt>
<trkpt lat="55.900211" lon="26.529015">
<ele>111.137756</ele>
<time>2010-06-20T15:50:34Z</time>
<desc>lat.=55.900211, lon.=26.529015, Alt.=111.137756m. Speed=0.972000m/h.</desc>
<speed>0.270000</speed>
</trkpt>
<trkpt lat="55.900211" lon="26.529018">
<ele>111.145569</ele>
<time>2010-06-20T15:50:35Z</time>
<desc>lat.=55.900211, lon.=26.529018, Alt.=111.145569m. Speed=0.324000m/h.</desc>
<speed>0.090000</speed>
</trkpt>
<trkpt lat="55.900211" lon="26.529020">
<ele>111.153381</ele>
<time>2010-06-20T15:50:36Z</time>
<desc>lat.=55.900211, lon.=26.529020, Alt.=111.153381m. Speed=0.900000m/h.</desc>
<speed>0.250000</speed>
</trkpt>
<trkpt lat="55.900211" lon="26.529022">
<ele>111.161194</ele>
<time>2010-06-20T15:50:37Z</time>
<desc>lat.=55.900211, lon.=26.529022, Alt.=111.161194m. Speed=1.116000m/h.</desc>
<speed>0.310000</speed>
</trkpt>
<trkpt lat="55.900211" lon="26.529028">
<ele>111.397522</ele>
<time>2010-06-20T15:50:38Z</time>
<desc>lat.=55.900211, lon.=26.529028, Alt.=111.397522m. Speed=0.900000m/h.</desc>
<speed>0.250000</speed>
</trkpt>
<trkpt lat="55.900215" lon="26.529032">
<ele>111.504944</ele>
<time>2010-06-20T15:50:39Z</time>
<desc>lat.=55.900215, lon.=26.529032, Alt.=111.504944m. Speed=1.080000m/h.</desc>
<speed>0.300000</speed>
</trkpt>
<trkpt lat="55.900219" lon="26.529018">
<ele>111.573303</ele>
<time>2010-06-20T15:50:40Z</time>
<desc>lat.=55.900219, lon.=26.529018, Alt.=111.573303m. Speed=0.612000m/h.</desc>
<speed>0.170000</speed>
</trkpt>
<trkpt lat="55.900223" lon="26.529015">
<ele>111.749084</ele>
<time>2010-06-20T15:50:41Z</time>
<desc>lat.=55.900223, lon.=26.529015, Alt.=111.749084m. Speed=0.468000m/h.</desc>
<speed>0.130000</speed>
</trkpt>
<trkpt lat="55.900223" lon="26.529011">
<ele>111.848694</ele>
<time>2010-06-20T15:50:42Z</time>
<desc>lat.=55.900223, lon.=26.529011, Alt.=111.848694m. Speed=0.180000m/h.</desc>
<speed>0.050000</speed>
</trkpt>
<trkpt lat="55.900223" lon="26.529009">
<ele>111.905334</ele>
<time>2010-06-20T15:50:43Z</time>
<desc>lat.=55.900223, lon.=26.529009, Alt.=111.905334m. Speed=0.144000m/h.</desc>
<speed>0.040000</speed>
</trkpt>
<trkpt lat="55.900223" lon="26.529009">
<ele>111.911194</ele>
<time>2010-06-20T15:50:44Z</time>
<desc>lat.=55.900223, lon.=26.529009, Alt.=111.911194m. Speed=0.396000m/h.</desc>
<speed>0.110000</speed>
</trkpt>
<trkpt lat="55.900223" lon="26.529009">
<ele>111.917053</ele>
<time>2010-06-20T15:50:45Z</time>
<desc>lat.=55.900223, lon.=26.529009, Alt.=111.917053m. Speed=0.216000m/h.</desc>
<speed>0.060000</speed>
</trkpt>
<trkpt lat="55.900223" lon="26.529009">
<ele>111.922913</ele>
<time>2010-06-20T15:50:46Z</time>
<desc>lat.=55.900223, lon.=26.529009, Alt.=111.922913m. Speed=0.540000m/h.</desc>
<speed>0.150000</speed>
</trkpt>
<trkpt lat="55.900223" lon="26.529011">
<ele>111.928772</ele>
<time>2010-06-20T15:50:47Z</time>
<desc>lat.=55.900223, lon.=26.529011, Alt.=111.928772m. Speed=0.504000m/h.</desc>
<speed>0.140000</speed>
</trkpt>
<trkpt lat="55.900219" lon="26.529011">
<ele>111.934631</ele>
<time>2010-06-20T15:50:48Z</time>
<desc>lat.=55.900219, lon.=26.529011, Alt.=111.934631m. Speed=0.828000m/h.</desc>
<speed>0.230000</speed>
</trkpt>
<trkpt lat="55.900219" lon="26.529015">
<ele>111.936584</ele>
<time>2010-06-20T15:50:49Z</time>
<desc>lat.=55.900219, lon.=26.529015, Alt.=111.936584m. Speed=0.180000m/h.</desc>
<speed>0.050000</speed>
</trkpt>
<trkpt lat="55.900219" lon="26.529015">
<ele>111.936584</ele>
<time>2010-06-20T15:50:50Z</time>
<desc>lat.=55.900219, lon.=26.529015, Alt.=111.936584m. Speed=0.144000m/h.</desc>
<speed>0.040000</speed>
</trkpt>
<trkpt lat="55.900219" lon="26.529015">
<ele>111.936584</ele>
<time>2010-06-20T15:50:51Z</time>
<desc>lat.=55.900219, lon.=26.529015, Alt.=111.936584m. Speed=0.792000m/h.</desc>
<speed>0.220000</speed>
</trkpt>
<trkpt lat="55.900219" lon="26.529018">
<ele>111.934631</ele>
<time>2010-06-20T15:50:52Z</time>
<desc>lat.=55.900219, lon.=26.529018, Alt.=111.934631m. Speed=0.900000m/h.</desc>
<speed>0.250000</speed>
</trkpt>
<trkpt lat="55.900219" lon="26.529022">
<ele>111.932678</ele>
<time>2010-06-20T15:50:53Z</time>
<desc>lat.=55.900219, lon.=26.529022, Alt.=111.932678m. Speed=0.828000m/h.</desc>
<speed>0.230000</speed>
</trkpt>
<trkpt lat="55.900219" lon="26.529026">
<ele>111.936584</ele>
<time>2010-06-20T15:50:54Z</time>
<desc>lat.=55.900219, lon.=26.529026, Alt.=111.936584m. Speed=0.576000m/h.</desc>
<speed>0.160000</speed>
</trkpt>
<trkpt lat="55.900219" lon="26.529028">
<ele>111.946350</ele>
<time>2010-06-20T15:50:55Z</time>
<desc>lat.=55.900219, lon.=26.529028, Alt.=111.946350m. Speed=0.576000m/h.</desc>
<speed>0.160000</speed>
</trkpt>
<trkpt lat="55.900219" lon="26.529030">
<ele>111.956116</ele>
<time>2010-06-20T15:50:56Z</time>
<desc>lat.=55.900219, lon.=26.529030, Alt.=111.956116m. Speed=0.324000m/h.</desc>
<speed>0.090000</speed>
</trkpt>
<trkpt lat="55.900219" lon="26.529032">
<ele>111.961975</ele>
<time>2010-06-20T15:50:57Z</time>
<desc>lat.=55.900219, lon.=26.529032, Alt.=111.961975m. Speed=0.540000m/h.</desc>
<speed>0.150000</speed>
</trkpt>
<trkpt lat="55.900215" lon="26.529034">
<ele>111.971741</ele>
<time>2010-06-20T15:50:58Z</time>
<desc>lat.=55.900215, lon.=26.529034, Alt.=111.971741m. Speed=0.864000m/h.</desc>
<speed>0.240000</speed>
</trkpt>
<trkpt lat="55.900215" lon="26.529036">
<ele>111.981506</ele>
<time>2010-06-20T15:50:59Z</time>
<desc>lat.=55.900215, lon.=26.529036, Alt.=111.981506m. Speed=0.360000m/h.</desc>
<speed>0.100000</speed>
</trkpt>
<trkpt lat="55.900215" lon="26.529037">
<ele>111.983459</ele>
<time>2010-06-20T15:51:00Z</time>
<desc>lat.=55.900215, lon.=26.529037, Alt.=111.983459m. Speed=0.468000m/h.</desc>
<speed>0.130000</speed>
</trkpt>
<trkpt lat="55.900215" lon="26.529039">
<ele>111.985413</ele>
<time>2010-06-20T15:51:01Z</time>
<desc>lat.=55.900215, lon.=26.529039, Alt.=111.985413m. Speed=0.576000m/h.</desc>
<speed>0.160000</speed>
</trkpt>
<trkpt lat="55.900211" lon="26.529041">
<ele>111.985413</ele>
<time>2010-06-20T15:51:02Z</time>
<desc>lat.=55.900211, lon.=26.529041, Alt.=111.985413m. Speed=0.936000m/h.</desc>
<speed>0.260000</speed>
</trkpt>
<trkpt lat="55.900211" lon="26.529045">
<ele>111.989319</ele>
<time>2010-06-20T15:51:03Z</time>
<desc>lat.=55.900211, lon.=26.529045, Alt.=111.989319m. Speed=0.828000m/h.</desc>
<speed>0.230000</speed>
</trkpt>
<trkpt lat="55.900211" lon="26.529049">
<ele>111.991272</ele>
<time>2010-06-20T15:51:04Z</time>
<desc>lat.=55.900211, lon.=26.529049, Alt.=111.991272m. Speed=0.900000m/h.</desc>
<speed>0.250000</speed>
</trkpt>
<trkpt lat="55.900211" lon="26.529051">
<ele>111.995178</ele>
<time>2010-06-20T15:51:05Z</time>
<desc>lat.=55.900211, lon.=26.529051, Alt.=111.995178m. Speed=0.828000m/h.</desc>
<speed>0.230000</speed>
</trkpt>
<trkpt lat="55.900208" lon="26.529055">
<ele>111.993225</ele>
<time>2010-06-20T15:51:06Z</time>
<desc>lat.=55.900208, lon.=26.529055, Alt.=111.993225m. Speed=0.936000m/h.</desc>
<speed>0.260000</speed>
</trkpt>
<trkpt lat="55.900208" lon="26.529057">
<ele>111.993225</ele>
<time>2010-06-20T15:51:07Z</time>
<desc>lat.=55.900208, lon.=26.529057, Alt.=111.993225m. Speed=0.828000m/h.</desc>
<speed>0.230000</speed>
</trkpt>
<trkpt lat="55.900204" lon="26.529058">
<ele>111.993225</ele>
<time>2010-06-20T15:51:08Z</time>
<desc>lat.=55.900204, lon.=26.529058, Alt.=111.993225m. Speed=0.504000m/h.</desc>
<speed>0.140000</speed>
</trkpt>
<trkpt lat="55.900204" lon="26.529058">
<ele>111.993225</ele>
<time>2010-06-20T15:51:09Z</time>
<desc>lat.=55.900204, lon.=26.529058, Alt.=111.993225m. Speed=0.468000m/h.</desc>
<speed>0.130000</speed>
</trkpt>
<trkpt lat="55.900204" lon="26.529057">
<ele>111.995178</ele>
<time>2010-06-20T15:51:10Z</time>
<desc>lat.=55.900204, lon.=26.529057, Alt.=111.995178m. Speed=0.828000m/h.</desc>
<speed>0.230000</speed>
</trkpt>
<trkpt lat="55.900204" lon="26.529053">
<ele>111.999084</ele>
<time>2010-06-20T15:51:11Z</time>
<desc>lat.=55.900204, lon.=26.529053, Alt.=111.999084m. Speed=0.504000m/h.</desc>
<speed>0.140000</speed>
</trkpt>
<trkpt lat="55.900208" lon="26.529051">
<ele>112.001038</ele>
<time>2010-06-20T15:51:12Z</time>
<desc>lat.=55.900208, lon.=26.529051, Alt.=112.001038m. Speed=0.612000m/h.</desc>
<speed>0.170000</speed>
</trkpt>
<trkpt lat="55.900208" lon="26.529053">
<ele>112.002991</ele>
<time>2010-06-20T15:51:13Z</time>
<desc>lat.=55.900208, lon.=26.529053, Alt.=112.002991m. Speed=0.288000m/h.</desc>
<speed>0.080000</speed>
</trkpt>
<trkpt lat="55.900208" lon="26.529051">
<ele>112.002991</ele>
<time>2010-06-20T15:51:14Z</time>
<desc>lat.=55.900208, lon.=26.529051, Alt.=112.002991m. Speed=0.540000m/h.</desc>
<speed>0.150000</speed>
</trkpt>
<trkpt lat="55.900208" lon="26.529051">
<ele>112.001038</ele>
<time>2010-06-20T15:51:15Z</time>
<desc>lat.=55.900208, lon.=26.529051, Alt.=112.001038m. Speed=0.864000m/h.</desc>
<speed>0.240000</speed>
</trkpt>
<trkpt lat="55.900204" lon="26.529049">
<ele>112.001038</ele>
<time>2010-06-20T15:51:16Z</time>
<desc>lat.=55.900204, lon.=26.529049, Alt.=112.001038m. Speed=0.612000m/h.</desc>
<speed>0.170000</speed>
</trkpt>
<trkpt lat="55.900204" lon="26.529049">
<ele>111.997131</ele>
<time>2010-06-20T15:51:17Z</time>
<desc>lat.=55.900204, lon.=26.529049, Alt.=111.997131m. Speed=0.288000m/h.</desc>
<speed>0.080000</speed>
</trkpt>
<trkpt lat="55.900204" lon="26.529051">
<ele>111.993225</ele>
<time>2010-06-20T15:51:18Z</time>
<desc>lat.=55.900204, lon.=26.529051, Alt.=111.993225m. Speed=0.468000m/h.</desc>
<speed>0.130000</speed>
</trkpt>
<trkpt lat="55.900204" lon="26.529051">
<ele>111.991272</ele>
<time>2010-06-20T15:51:19Z</time>
<desc>lat.=55.900204, lon.=26.529051, Alt.=111.991272m. Speed=0.684000m/h.</desc>
<speed>0.190000</speed>
</trkpt>
<trkpt lat="55.900204" lon="26.529055">
<ele>111.987366</ele>
<time>2010-06-20T15:51:20Z</time>
<desc>lat.=55.900204, lon.=26.529055, Alt.=111.987366m. Speed=0.468000m/h.</desc>
<speed>0.130000</speed>
</trkpt>
<trkpt lat="55.900208" lon="26.529057">
<ele>111.985413</ele>
<time>2010-06-20T15:51:21Z</time>
<desc>lat.=55.900208, lon.=26.529057, Alt.=111.985413m. Speed=0.864000m/h.</desc>
<speed>0.240000</speed>
</trkpt>
<trkpt lat="55.900208" lon="26.529060">
<ele>111.981506</ele>
<time>2010-06-20T15:51:22Z</time>
<desc>lat.=55.900208, lon.=26.529060, Alt.=111.981506m. Speed=0.720000m/h.</desc>
<speed>0.200000</speed>
</trkpt>
<trkpt lat="55.900208" lon="26.529060">
<ele>111.981506</ele>
<time>2010-06-20T15:51:23Z</time>
<desc>lat.=55.900208, lon.=26.529060, Alt.=111.981506m. Speed=1.224000m/h.</desc>
<speed>0.340000</speed>
</trkpt>
<trkpt lat="55.900208" lon="26.529051">
<ele>112.167053</ele>
<time>2010-06-20T15:51:24Z</time>
<desc>lat.=55.900208, lon.=26.529051, Alt.=112.167053m. Speed=0.360000m/h.</desc>
<speed>0.100000</speed>
</trkpt>
<trkpt lat="55.900211" lon="26.529039">
<ele>112.252991</ele>
<time>2010-06-20T15:51:25Z</time>
<desc>lat.=55.900211, lon.=26.529039, Alt.=112.252991m. Speed=0.756000m/h.</desc>
<speed>0.210000</speed>
</trkpt>
<trkpt lat="55.900215" lon="26.529039">
<ele>112.340881</ele>
<time>2010-06-20T15:51:26Z</time>
<desc>lat.=55.900215, lon.=26.529039, Alt.=112.340881m. Speed=0.432000m/h.</desc>
<speed>0.120000</speed>
</trkpt>
<trkpt lat="55.900215" lon="26.529030">
<ele>112.295959</ele>
<time>2010-06-20T15:51:27Z</time>
<desc>lat.=55.900215, lon.=26.529030, Alt.=112.295959m. Speed=0.756000m/h.</desc>
<speed>0.210000</speed>
</trkpt>
<trkpt lat="55.900215" lon="26.529028">
<ele>112.295959</ele>
<time>2010-06-20T15:51:28Z</time>
<desc>lat.=55.900215, lon.=26.529028, Alt.=112.295959m. Speed=1.080000m/h.</desc>
<speed>0.300000</speed>
</trkpt>
<trkpt lat="55.900223" lon="26.529030">
<ele>112.336975</ele>
<time>2010-06-20T15:51:29Z</time>
<desc>lat.=55.900223, lon.=26.529030, Alt.=112.336975m. Speed=0.144000m/h.</desc>
<speed>0.040000</speed>
</trkpt>
<trkpt lat="55.900230" lon="26.529034">
<ele>112.518616</ele>
<time>2010-06-20T15:51:30Z</time>
<desc>lat.=55.900230, lon.=26.529034, Alt.=112.518616m. Speed=0.000000m/h.</desc>
<speed>0.000000</speed>
</trkpt>
<trkpt lat="55.900230" lon="26.529030">
<ele>112.344788</ele>
<time>2010-06-20T15:51:31Z</time>
<desc>lat.=55.900230, lon.=26.529030, Alt.=112.344788m. Speed=0.396000m/h.</desc>
<speed>0.110000</speed>
</trkpt>
<trkpt lat="55.900238" lon="26.529032">
<ele>112.165100</ele>
<time>2010-06-20T15:51:32Z</time>
<desc>lat.=55.900238, lon.=26.529032, Alt.=112.165100m. Speed=0.360000m/h.</desc>
<speed>0.100000</speed>
</trkpt>
<trkpt lat="55.900238" lon="26.529034">
<ele>112.165100</ele>
<time>2010-06-20T15:51:33Z</time>
<desc>lat.=55.900238, lon.=26.529034, Alt.=112.165100m. Speed=0.468000m/h.</desc>
<speed>0.130000</speed>
</trkpt>
<trkpt lat="55.900238" lon="26.529034">
<ele>112.165100</ele>
<time>2010-06-20T15:51:34Z</time>
<desc>lat.=55.900238, lon.=26.529034, Alt.=112.165100m. Speed=0.360000m/h.</desc>
<speed>0.100000</speed>
</trkpt>
<trkpt lat="55.900238" lon="26.529034">
<ele>112.169006</ele>
<time>2010-06-20T15:51:35Z</time>
<desc>lat.=55.900238, lon.=26.529034, Alt.=112.169006m. Speed=0.216000m/h.</desc>
<speed>0.060000</speed>
</trkpt>
<trkpt lat="55.900238" lon="26.529034">
<ele>112.170959</ele>
<time>2010-06-20T15:51:36Z</time>
<desc>lat.=55.900238, lon.=26.529034, Alt.=112.170959m. Speed=0.540000m/h.</desc>
<speed>0.150000</speed>
</trkpt>
<trkpt lat="55.900242" lon="26.529034">
<ele>112.172913</ele>
<time>2010-06-20T15:51:37Z</time>
<desc>lat.=55.900242, lon.=26.529034, Alt.=112.172913m. Speed=0.468000m/h.</desc>
<speed>0.130000</speed>
</trkpt>
<trkpt lat="55.900242" lon="26.529036">
<ele>112.174866</ele>
<time>2010-06-20T15:51:38Z</time>
<desc>lat.=55.900242, lon.=26.529036, Alt.=112.174866m. Speed=0.576000m/h.</desc>
<speed>0.160000</speed>
</trkpt>
<trkpt lat="55.900242" lon="26.529037">
<ele>112.176819</ele>
<time>2010-06-20T15:51:39Z</time>
<desc>lat.=55.900242, lon.=26.529037, Alt.=112.176819m. Speed=0.684000m/h.</desc>
<speed>0.190000</speed>
</trkpt>
<trkpt lat="55.900242" lon="26.529041">
<ele>112.176819</ele>
<time>2010-06-20T15:51:40Z</time>
<desc>lat.=55.900242, lon.=26.529041, Alt.=112.176819m. Speed=0.864000m/h.</desc>
<speed>0.240000</speed>
</trkpt>
<trkpt lat="55.900246" lon="26.529043">
<ele>112.176819</ele>
<time>2010-06-20T15:51:41Z</time>
<desc>lat.=55.900246, lon.=26.529043, Alt.=112.176819m. Speed=0.540000m/h.</desc>
<speed>0.150000</speed>
</trkpt>
<trkpt lat="55.900246" lon="26.529045">
<ele>112.176819</ele>
<time>2010-06-20T15:51:42Z</time>
<desc>lat.=55.900246, lon.=26.529045, Alt.=112.176819m. Speed=0.900000m/h.</desc>
<speed>0.250000</speed>
</trkpt>
<trkpt lat="55.900249" lon="26.529047">
<ele>112.176819</ele>
<time>2010-06-20T15:51:43Z</time>
<desc>lat.=55.900249, lon.=26.529047, Alt.=112.176819m. Speed=1.080000m/h.</desc>
<speed>0.300000</speed>
</trkpt>
<trkpt lat="55.900249" lon="26.529034">
<ele>112.299866</ele>
<time>2010-06-20T15:51:44Z</time>
<desc>lat.=55.900249, lon.=26.529034, Alt.=112.299866m. Speed=0.792000m/h.</desc>
<speed>0.220000</speed>
</trkpt>
<trkpt lat="55.900253" lon="26.529036">
<ele>112.436584</ele>
<time>2010-06-20T15:51:45Z</time>
<desc>lat.=55.900253, lon.=26.529036, Alt.=112.436584m. Speed=0.612000m/h.</desc>
<speed>0.170000</speed>
</trkpt>
<trkpt lat="55.900253" lon="26.529032">
<ele>112.356506</ele>
<time>2010-06-20T15:51:46Z</time>
<desc>lat.=55.900253, lon.=26.529032, Alt.=112.356506m. Speed=0.288000m/h.</desc>
<speed>0.080000</speed>
</trkpt>
<trkpt lat="55.900253" lon="26.529043">
<ele>112.510803</ele>
<time>2010-06-20T15:51:47Z</time>
<desc>lat.=55.900253, lon.=26.529043, Alt.=112.510803m. Speed=0.432000m/h.</desc>
<speed>0.120000</speed>
</trkpt>
<trkpt lat="55.900253" lon="26.529045">
<ele>112.516663</ele>
<time>2010-06-20T15:51:48Z</time>
<desc>lat.=55.900253, lon.=26.529045, Alt.=112.516663m. Speed=0.468000m/h.</desc>
<speed>0.130000</speed>
</trkpt>
<trkpt lat="55.900253" lon="26.529047">
<ele>112.524475</ele>
<time>2010-06-20T15:51:49Z</time>
<desc>lat.=55.900253, lon.=26.529047, Alt.=112.524475m. Speed=0.108000m/h.</desc>
<speed>0.030000</speed>
</trkpt>
<trkpt lat="55.900253" lon="26.529049">
<ele>112.532288</ele>
<time>2010-06-20T15:51:50Z</time>
<desc>lat.=55.900253, lon.=26.529049, Alt.=112.532288m. Speed=0.396000m/h.</desc>
<speed>0.110000</speed>
</trkpt>
<trkpt lat="55.900253" lon="26.529049">
<ele>112.540100</ele>
<time>2010-06-20T15:51:51Z</time>
<desc>lat.=55.900253, lon.=26.529049, Alt.=112.540100m. Speed=0.540000m/h.</desc>
<speed>0.150000</speed>
</trkpt>
<trkpt lat="55.900253" lon="26.529053">
<ele>112.549866</ele>
<time>2010-06-20T15:51:52Z</time>
<desc>lat.=55.900253, lon.=26.529053, Alt.=112.549866m. Speed=0.468000m/h.</desc>
<speed>0.130000</speed>
</trkpt>
<trkpt lat="55.900253" lon="26.529055">
<ele>112.565491</ele>
<time>2010-06-20T15:51:53Z</time>
<desc>lat.=55.900253, lon.=26.529055, Alt.=112.565491m. Speed=0.396000m/h.</desc>
<speed>0.110000</speed>
</trkpt>
<trkpt lat="55.900253" lon="26.529055">
<ele>112.573303</ele>
<time>2010-06-20T15:51:54Z</time>
<desc>lat.=55.900253, lon.=26.529055, Alt.=112.573303m. Speed=0.828000m/h.</desc>
<speed>0.230000</speed>
</trkpt>
<trkpt lat="55.900257" lon="26.529055">
<ele>112.583069</ele>
<time>2010-06-20T15:51:55Z</time>
<desc>lat.=55.900257, lon.=26.529055, Alt.=112.583069m. Speed=0.720000m/h.</desc>
<speed>0.200000</speed>
</trkpt>
<trkpt lat="55.900257" lon="26.529055">
<ele>112.602600</ele>
<time>2010-06-20T15:51:56Z</time>
<desc>lat.=55.900257, lon.=26.529055, Alt.=112.602600m. Speed=0.684000m/h.</desc>
<speed>0.190000</speed>
</trkpt>
<trkpt lat="55.900261" lon="26.529055">
<ele>112.614319</ele>
<time>2010-06-20T15:51:57Z</time>
<desc>lat.=55.900261, lon.=26.529055, Alt.=112.614319m. Speed=1.188000m/h.</desc>
<speed>0.330000</speed>
</trkpt>
<trkpt lat="55.900265" lon="26.529051">
<ele>112.979553</ele>
<time>2010-06-20T15:51:58Z</time>
<desc>lat.=55.900265, lon.=26.529051, Alt.=112.979553m. Speed=1.080000m/h.</desc>
<speed>0.300000</speed>
</trkpt>
<trkpt lat="55.900261" lon="26.529041">
<ele>113.153381</ele>
<time>2010-06-20T15:51:59Z</time>
<desc>lat.=55.900261, lon.=26.529041, Alt.=113.153381m. Speed=0.324000m/h.</desc>
<speed>0.090000</speed>
</trkpt>
<trkpt lat="55.900265" lon="26.529049">
<ele>113.321350</ele>
<time>2010-06-20T15:52:00Z</time>
<desc>lat.=55.900265, lon.=26.529049, Alt.=113.321350m. Speed=0.684000m/h.</desc>
<speed>0.190000</speed>
</trkpt>
<trkpt lat="55.900272" lon="26.529051">
<ele>113.311584</ele>
<time>2010-06-20T15:52:01Z</time>
<desc>lat.=55.900272, lon.=26.529051, Alt.=113.311584m. Speed=0.864000m/h.</desc>
<speed>0.240000</speed>
</trkpt>
<trkpt lat="55.900272" lon="26.529057">
<ele>113.178772</ele>
<time>2010-06-20T15:52:02Z</time>
<desc>lat.=55.900272, lon.=26.529057, Alt.=113.178772m. Speed=1.116000m/h.</desc>
<speed>0.310000</speed>
</trkpt>
<trkpt lat="55.900276" lon="26.529053">
<ele>113.116272</ele>
<time>2010-06-20T15:52:03Z</time>
<desc>lat.=55.900276, lon.=26.529053, Alt.=113.116272m. Speed=0.576000m/h.</desc>
<speed>0.160000</speed>
</trkpt>
<trkpt lat="55.900280" lon="26.529049">
<ele>113.098694</ele>
<time>2010-06-20T15:52:04Z</time>
<desc>lat.=55.900280, lon.=26.529049, Alt.=113.098694m. Speed=0.468000m/h.</desc>
<speed>0.130000</speed>
</trkpt>
<trkpt lat="55.900280" lon="26.529039">
<ele>113.141663</ele>
<time>2010-06-20T15:52:05Z</time>
<desc>lat.=55.900280, lon.=26.529039, Alt.=113.141663m. Speed=0.396000m/h.</desc>
<speed>0.110000</speed>
</trkpt>
<trkpt lat="55.900284" lon="26.529030">
<ele>113.167053</ele>
<time>2010-06-20T15:52:06Z</time>
<desc>lat.=55.900284, lon.=26.529030, Alt.=113.167053m. Speed=0.396000m/h.</desc>
<speed>0.110000</speed>
</trkpt>
<trkpt lat="55.900284" lon="26.529028">
<ele>113.172913</ele>
<time>2010-06-20T15:52:07Z</time>
<desc>lat.=55.900284, lon.=26.529028, Alt.=113.172913m. Speed=0.468000m/h.</desc>
<speed>0.130000</speed>
</trkpt>
<trkpt lat="55.900280" lon="26.529028">
<ele>113.178772</ele>
<time>2010-06-20T15:52:08Z</time>
<desc>lat.=55.900280, lon.=26.529028, Alt.=113.178772m. Speed=0.684000m/h.</desc>
<speed>0.190000</speed>
</trkpt>
<trkpt lat="55.900280" lon="26.529024">
<ele>113.180725</ele>
<time>2010-06-20T15:52:09Z</time>
<desc>lat.=55.900280, lon.=26.529024, Alt.=113.180725m. Speed=0.540000m/h.</desc>
<speed>0.150000</speed>
</trkpt>
<trkpt lat="55.900280" lon="26.529022">
<ele>113.184631</ele>
<time>2010-06-20T15:52:10Z</time>
<desc>lat.=55.900280, lon.=26.529022, Alt.=113.184631m. Speed=0.504000m/h.</desc>
<speed>0.140000</speed>
</trkpt>
<trkpt lat="55.900280" lon="26.529020">
<ele>113.184631</ele>
<time>2010-06-20T15:52:11Z</time>
<desc>lat.=55.900280, lon.=26.529020, Alt.=113.184631m. Speed=0.036000m/h.</desc>
<speed>0.010000</speed>
</trkpt>
<trkpt lat="55.900280" lon="26.529020">
<ele>113.186584</ele>
<time>2010-06-20T15:52:12Z</time>
<desc>lat.=55.900280, lon.=26.529020, Alt.=113.186584m. Speed=0.468000m/h.</desc>
<speed>0.130000</speed>
</trkpt>
<trkpt lat="55.900280" lon="26.529018">
<ele>113.190491</ele>
<time>2010-06-20T15:52:13Z</time>
<desc>lat.=55.900280, lon.=26.529018, Alt.=113.190491m. Speed=0.396000m/h.</desc>
<speed>0.110000</speed>
</trkpt>
<trkpt lat="55.900280" lon="26.529016">
<ele>113.198303</ele>
<time>2010-06-20T15:52:14Z</time>
<desc>lat.=55.900280, lon.=26.529016, Alt.=113.198303m. Speed=0.756000m/h.</desc>
<speed>0.210000</speed>
</trkpt>
<trkpt lat="55.900276" lon="26.529013">
<ele>113.202209</ele>
<time>2010-06-20T15:52:15Z</time>
<desc>lat.=55.900276, lon.=26.529013, Alt.=113.202209m. Speed=1.044000m/h.</desc>
<speed>0.290000</speed>
</trkpt>
<trkpt lat="55.900276" lon="26.529009">
<ele>113.206116</ele>
<time>2010-06-20T15:52:16Z</time>
<desc>lat.=55.900276, lon.=26.529009, Alt.=113.206116m. Speed=0.648000m/h.</desc>
<speed>0.180000</speed>
</trkpt>
<trkpt lat="55.900276" lon="26.529007">
<ele>113.210022</ele>
<time>2010-06-20T15:52:17Z</time>
<desc>lat.=55.900276, lon.=26.529007, Alt.=113.210022m. Speed=0.540000m/h.</desc>
<speed>0.150000</speed>
</trkpt>
<trkpt lat="55.900276" lon="26.529005">
<ele>113.210022</ele>
<time>2010-06-20T15:52:18Z</time>
<desc>lat.=55.900276, lon.=26.529005, Alt.=113.210022m. Speed=0.540000m/h.</desc>
<speed>0.150000</speed>
</trkpt>
<trkpt lat="55.900276" lon="26.529003">
<ele>113.211975</ele>
<time>2010-06-20T15:52:19Z</time>
<desc>lat.=55.900276, lon.=26.529003, Alt.=113.211975m. Speed=0.576000m/h.</desc>
<speed>0.160000</speed>
</trkpt>
<trkpt lat="55.900276" lon="26.529001">
<ele>113.211975</ele>
<time>2010-06-20T15:52:20Z</time>
<desc>lat.=55.900276, lon.=26.529001, Alt.=113.211975m. Speed=0.468000m/h.</desc>
<speed>0.130000</speed>
</trkpt>
<trkpt lat="55.900280" lon="26.529001">
<ele>113.210022</ele>
<time>2010-06-20T15:52:21Z</time>
<desc>lat.=55.900280, lon.=26.529001, Alt.=113.210022m. Speed=0.144000m/h.</desc>
<speed>0.040000</speed>
</trkpt>
<trkpt lat="55.900280" lon="26.529001">
<ele>113.204163</ele>
<time>2010-06-20T15:52:22Z</time>
<desc>lat.=55.900280, lon.=26.529001, Alt.=113.204163m. Speed=0.540000m/h.</desc>
<speed>0.150000</speed>
</trkpt>
<trkpt lat="55.900280" lon="26.529003">
<ele>113.200256</ele>
<time>2010-06-20T15:52:23Z</time>
<desc>lat.=55.900280, lon.=26.529003, Alt.=113.200256m. Speed=0.720000m/h.</desc>
<speed>0.200000</speed>
</trkpt>
<trkpt lat="55.900280" lon="26.529007">
<ele>113.198303</ele>
<time>2010-06-20T15:52:24Z</time>
<desc>lat.=55.900280, lon.=26.529007, Alt.=113.198303m. Speed=0.648000m/h.</desc>
<speed>0.180000</speed>
</trkpt>
<trkpt lat="55.900280" lon="26.529009">
<ele>113.192444</ele>
<time>2010-06-20T15:52:25Z</time>
<desc>lat.=55.900280, lon.=26.529009, Alt.=113.192444m. Speed=0.396000m/h.</desc>
<speed>0.110000</speed>
</trkpt>
<trkpt lat="55.900284" lon="26.529009">
<ele>113.188538</ele>
<time>2010-06-20T15:52:26Z</time>
<desc>lat.=55.900284, lon.=26.529009, Alt.=113.188538m. Speed=0.612000m/h.</desc>
<speed>0.170000</speed>
</trkpt>
<trkpt lat="55.900284" lon="26.529011">
<ele>113.182678</ele>
<time>2010-06-20T15:52:27Z</time>
<desc>lat.=55.900284, lon.=26.529011, Alt.=113.182678m. Speed=0.288000m/h.</desc>
<speed>0.080000</speed>
</trkpt>
<trkpt lat="55.900284" lon="26.529013">
<ele>113.178772</ele>
<time>2010-06-20T15:52:28Z</time>
<desc>lat.=55.900284, lon.=26.529013, Alt.=113.178772m. Speed=0.216000m/h.</desc>
<speed>0.060000</speed>
</trkpt>
<trkpt lat="55.900284" lon="26.529013">
<ele>113.178772</ele>
<time>2010-06-20T15:52:29Z</time>
<desc>lat.=55.900284, lon.=26.529013, Alt.=113.178772m. Speed=0.396000m/h.</desc>
<speed>0.110000</speed>
</trkpt>
<trkpt lat="55.900284" lon="26.529013">
<ele>113.178772</ele>
<time>2010-06-20T15:52:30Z</time>
<desc>lat.=55.900284, lon.=26.529013, Alt.=113.178772m. Speed=0.432000m/h.</desc>
<speed>0.120000</speed>
</trkpt>
<trkpt lat="55.900284" lon="26.529015">
<ele>113.178772</ele>
<time>2010-06-20T15:52:31Z</time>
<desc>lat.=55.900284, lon.=26.529015, Alt.=113.178772m. Speed=0.144000m/h.</desc>
<speed>0.040000</speed>
</trkpt>
<trkpt lat="55.900284" lon="26.529015">
<ele>113.176819</ele>
<time>2010-06-20T15:52:32Z</time>
<desc>lat.=55.900284, lon.=26.529015, Alt.=113.176819m. Speed=0.792000m/h.</desc>
<speed>0.220000</speed>
</trkpt>
<trkpt lat="55.900284" lon="26.529016">
<ele>113.174866</ele>
<time>2010-06-20T15:52:33Z</time>
<desc>lat.=55.900284, lon.=26.529016, Alt.=113.174866m. Speed=0.576000m/h.</desc>
<speed>0.160000</speed>
</trkpt>
<trkpt lat="55.900280" lon="26.529018">
<ele>113.170959</ele>
<time>2010-06-20T15:52:34Z</time>
<desc>lat.=55.900280, lon.=26.529018, Alt.=113.170959m. Speed=0.144000m/h.</desc>
<speed>0.040000</speed>
</trkpt>
<trkpt lat="55.900280" lon="26.529018">
<ele>113.167053</ele>
<time>2010-06-20T15:52:35Z</time>
<desc>lat.=55.900280, lon.=26.529018, Alt.=113.167053m. Speed=0.468000m/h.</desc>
<speed>0.130000</speed>
</trkpt>
<trkpt lat="55.900280" lon="26.529020">
<ele>113.165100</ele>
<time>2010-06-20T15:52:36Z</time>
<desc>lat.=55.900280, lon.=26.529020, Alt.=113.165100m. Speed=0.684000m/h.</desc>
<speed>0.190000</speed>
</trkpt>
<trkpt lat="55.900280" lon="26.529022">
<ele>113.163147</ele>
<time>2010-06-20T15:52:37Z</time>
<desc>lat.=55.900280, lon.=26.529022, Alt.=113.163147m. Speed=0.504000m/h.</desc>
<speed>0.140000</speed>
</trkpt>
<trkpt lat="55.900280" lon="26.529024">
<ele>113.161194</ele>
<time>2010-06-20T15:52:38Z</time>
<desc>lat.=55.900280, lon.=26.529024, Alt.=113.161194m. Speed=0.144000m/h.</desc>
<speed>0.040000</speed>
</trkpt>
<trkpt lat="55.900280" lon="26.529024">
<ele>113.161194</ele>
<time>2010-06-20T15:52:39Z</time>
<desc>lat.=55.900280, lon.=26.529024, Alt.=113.161194m. Speed=0.108000m/h.</desc>
<speed>0.030000</speed>
</trkpt>
<trkpt lat="55.900280" lon="26.529024">
<ele>113.163147</ele>
<time>2010-06-20T15:52:40Z</time>
<desc>lat.=55.900280, lon.=26.529024, Alt.=113.163147m. Speed=0.144000m/h.</desc>
<speed>0.040000</speed>
</trkpt>
<trkpt lat="55.900280" lon="26.529024">
<ele>113.161194</ele>
<time>2010-06-20T15:52:41Z</time>
<desc>lat.=55.900280, lon.=26.529024, Alt.=113.161194m. Speed=0.396000m/h.</desc>
<speed>0.110000</speed>
</trkpt>
<trkpt lat="55.900280" lon="26.529024">
<ele>113.161194</ele>
<time>2010-06-20T15:52:42Z</time>
<desc>lat.=55.900280, lon.=26.529024, Alt.=113.161194m. Speed=0.396000m/h.</desc>
<speed>0.110000</speed>
</trkpt>
<trkpt lat="55.900280" lon="26.529022">
<ele>113.163147</ele>
<time>2010-06-20T15:52:43Z</time>
<desc>lat.=55.900280, lon.=26.529022, Alt.=113.163147m. Speed=0.108000m/h.</desc>
<speed>0.030000</speed>
</trkpt>
<trkpt lat="55.900280" lon="26.529022">
<ele>113.163147</ele>
<time>2010-06-20T15:52:44Z</time>
<desc>lat.=55.900280, lon.=26.529022, Alt.=113.163147m. Speed=0.216000m/h.</desc>
<speed>0.060000</speed>
</trkpt>
<trkpt lat="55.900276" lon="26.529022">
<ele>113.167053</ele>
<time>2010-06-20T15:52:45Z</time>
<desc>lat.=55.900276, lon.=26.529022, Alt.=113.167053m. Speed=0.072000m/h.</desc>
<speed>0.020000</speed>
</trkpt>
<trkpt lat="55.900276" lon="26.529022">
<ele>113.167053</ele>
<time>2010-06-20T15:52:46Z</time>
<desc>lat.=55.900276, lon.=26.529022, Alt.=113.167053m. Speed=0.252000m/h.</desc>
<speed>0.070000</speed>
</trkpt>
<trkpt lat="55.900276" lon="26.529022">
<ele>113.167053</ele>
<time>2010-06-20T15:52:47Z</time>
<desc>lat.=55.900276, lon.=26.529022, Alt.=113.167053m. Speed=0.252000m/h.</desc>
<speed>0.070000</speed>
</trkpt>
<trkpt lat="55.900276" lon="26.529020">
<ele>113.167053</ele>
<time>2010-06-20T15:52:48Z</time>
<desc>lat.=55.900276, lon.=26.529020, Alt.=113.167053m. Speed=0.432000m/h.</desc>
<speed>0.120000</speed>
</trkpt>
<trkpt lat="55.900280" lon="26.529020">
<ele>113.165100</ele>
<time>2010-06-20T15:52:49Z</time>
<desc>lat.=55.900280, lon.=26.529020, Alt.=113.165100m. Speed=0.324000m/h.</desc>
<speed>0.090000</speed>
</trkpt>
<trkpt lat="55.900280" lon="26.529022">
<ele>113.163147</ele>
<time>2010-06-20T15:52:50Z</time>
<desc>lat.=55.900280, lon.=26.529022, Alt.=113.163147m. Speed=0.504000m/h.</desc>
<speed>0.140000</speed>
</trkpt>
<trkpt lat="55.900280" lon="26.529024">
<ele>113.163147</ele>
<time>2010-06-20T15:52:51Z</time>
<desc>lat.=55.900280, lon.=26.529024, Alt.=113.163147m. Speed=0.252000m/h.</desc>
<speed>0.070000</speed>
</trkpt>
<trkpt lat="55.900280" lon="26.529024">
<ele>113.163147</ele>
<time>2010-06-20T15:52:52Z</time>
<desc>lat.=55.900280, lon.=26.529024, Alt.=113.163147m. Speed=0.792000m/h.</desc>
<speed>0.220000</speed>
</trkpt>
<trkpt lat="55.900276" lon="26.529024">
<ele>113.169006</ele>
<time>2010-06-20T15:52:53Z</time>
<desc>lat.=55.900276, lon.=26.529024, Alt.=113.169006m. Speed=0.900000m/h.</desc>
<speed>0.250000</speed>
</trkpt>
<trkpt lat="55.900272" lon="26.529024">
<ele>113.178772</ele>
<time>2010-06-20T15:52:54Z</time>
<desc>lat.=55.900272, lon.=26.529024, Alt.=113.178772m. Speed=0.828000m/h.</desc>
<speed>0.230000</speed>
</trkpt>
<trkpt lat="55.900272" lon="26.529024">
<ele>113.188538</ele>
<time>2010-06-20T15:52:55Z</time>
<desc>lat.=55.900272, lon.=26.529024, Alt.=113.188538m. Speed=0.828000m/h.</desc>
<speed>0.230000</speed>
</trkpt>
<trkpt lat="55.900269" lon="26.529022">
<ele>113.202209</ele>
<time>2010-06-20T15:52:56Z</time>
<desc>lat.=55.900269, lon.=26.529022, Alt.=113.202209m. Speed=0.108000m/h.</desc>
<speed>0.030000</speed>
</trkpt>
<trkpt lat="55.900269" lon="26.529022">
<ele>113.210022</ele>
<time>2010-06-20T15:52:57Z</time>
<desc>lat.=55.900269, lon.=26.529022, Alt.=113.210022m. Speed=0.432000m/h.</desc>
<speed>0.120000</speed>
</trkpt>
<trkpt lat="55.900269" lon="26.529020">
<ele>113.215881</ele>
<time>2010-06-20T15:52:58Z</time>
<desc>lat.=55.900269, lon.=26.529020, Alt.=113.215881m. Speed=0.504000m/h.</desc>
<speed>0.140000</speed>
</trkpt>
<trkpt lat="55.900272" lon="26.529022">
<ele>113.223694</ele>
<time>2010-06-20T15:52:59Z</time>
<desc>lat.=55.900272, lon.=26.529022, Alt.=113.223694m. Speed=0.504000m/h.</desc>
<speed>0.140000</speed>
</trkpt>
<trkpt lat="55.900272" lon="26.529022">
<ele>113.231506</ele>
<time>2010-06-20T15:53:00Z</time>
<desc>lat.=55.900272, lon.=26.529022, Alt.=113.231506m. Speed=0.252000m/h.</desc>
<speed>0.070000</speed>
</trkpt>
<trkpt lat="55.900272" lon="26.529024">
<ele>113.235413</ele>
<time>2010-06-20T15:53:01Z</time>
<desc>lat.=55.900272, lon.=26.529024, Alt.=113.235413m. Speed=0.108000m/h.</desc>
<speed>0.030000</speed>
</trkpt>
<trkpt lat="55.900272" lon="26.529024">
<ele>113.239319</ele>
<time>2010-06-20T15:53:02Z</time>
<desc>lat.=55.900272, lon.=26.529024, Alt.=113.239319m. Speed=0.108000m/h.</desc>
<speed>0.030000</speed>
</trkpt>
<trkpt lat="55.900272" lon="26.529022">
<ele>113.247131</ele>
<time>2010-06-20T15:53:03Z</time>
<desc>lat.=55.900272, lon.=26.529022, Alt.=113.247131m. Speed=0.360000m/h.</desc>
<speed>0.100000</speed>
</trkpt>
<trkpt lat="55.900272" lon="26.529024">
<ele>113.254944</ele>
<time>2010-06-20T15:53:04Z</time>
<desc>lat.=55.900272, lon.=26.529024, Alt.=113.254944m. Speed=0.180000m/h.</desc>
<speed>0.050000</speed>
</trkpt>
<trkpt lat="55.900272" lon="26.529026">
<ele>113.258850</ele>
<time>2010-06-20T15:53:05Z</time>
<desc>lat.=55.900272, lon.=26.529026, Alt.=113.258850m. Speed=0.180000m/h.</desc>
<speed>0.050000</speed>
</trkpt>
<trkpt lat="55.900272" lon="26.529026">
<ele>113.260803</ele>
<time>2010-06-20T15:53:06Z</time>
<desc>lat.=55.900272, lon.=26.529026, Alt.=113.260803m. Speed=0.288000m/h.</desc>
<speed>0.080000</speed>
</trkpt>
<trkpt lat="55.900272" lon="26.529026">
<ele>113.262756</ele>
<time>2010-06-20T15:53:07Z</time>
<desc>lat.=55.900272, lon.=26.529026, Alt.=113.262756m. Speed=0.432000m/h.</desc>
<speed>0.120000</speed>
</trkpt>
<trkpt lat="55.900272" lon="26.529028">
<ele>113.264709</ele>
<time>2010-06-20T15:53:08Z</time>
<desc>lat.=55.900272, lon.=26.529028, Alt.=113.264709m. Speed=0.072000m/h.</desc>
<speed>0.020000</speed>
</trkpt>
<trkpt lat="55.900272" lon="26.529028">
<ele>113.270569</ele>
<time>2010-06-20T15:53:09Z</time>
<desc>lat.=55.900272, lon.=26.529028, Alt.=113.270569m. Speed=0.288000m/h.</desc>
<speed>0.080000</speed>
</trkpt>
<trkpt lat="55.900272" lon="26.529026">
<ele>113.274475</ele>
<time>2010-06-20T15:53:10Z</time>
<desc>lat.=55.900272, lon.=26.529026, Alt.=113.274475m. Speed=0.324000m/h.</desc>
<speed>0.090000</speed>
</trkpt>
<trkpt lat="55.900272" lon="26.529024">
<ele>113.276428</ele>
<time>2010-06-20T15:53:11Z</time>
<desc>lat.=55.900272, lon.=26.529024, Alt.=113.276428m. Speed=0.396000m/h.</desc>
<speed>0.110000</speed>
</trkpt>
<trkpt lat="55.900272" lon="26.529022">
<ele>113.280334</ele>
<time>2010-06-20T15:53:12Z</time>
<desc>lat.=55.900272, lon.=26.529022, Alt.=113.280334m. Speed=0.324000m/h.</desc>
<speed>0.090000</speed>
</trkpt>
<trkpt lat="55.900276" lon="26.529022">
<ele>113.286194</ele>
<time>2010-06-20T15:53:13Z</time>
<desc>lat.=55.900276, lon.=26.529022, Alt.=113.286194m. Speed=0.216000m/h.</desc>
<speed>0.060000</speed>
</trkpt>
<trkpt lat="55.900272" lon="26.529022">
<ele>113.290100</ele>
<time>2010-06-20T15:53:14Z</time>
<desc>lat.=55.900272, lon.=26.529022, Alt.=113.290100m. Speed=0.396000m/h.</desc>
<speed>0.110000</speed>
</trkpt>
<trkpt lat="55.900272" lon="26.529022">
<ele>113.294006</ele>
<time>2010-06-20T15:53:15Z</time>
<desc>lat.=55.900272, lon.=26.529022, Alt.=113.294006m. Speed=0.612000m/h.</desc>
<speed>0.170000</speed>
</trkpt>
<trkpt lat="55.900272" lon="26.529022">
<ele>113.297913</ele>
<time>2010-06-20T15:53:16Z</time>
<desc>lat.=55.900272, lon.=26.529022, Alt.=113.297913m. Speed=0.108000m/h.</desc>
<speed>0.030000</speed>
</trkpt>
<trkpt lat="55.900272" lon="26.529022">
<ele>113.305725</ele>
<time>2010-06-20T15:53:17Z</time>
<desc>lat.=55.900272, lon.=26.529022, Alt.=113.305725m. Speed=0.468000m/h.</desc>
<speed>0.130000</speed>
</trkpt>
<trkpt lat="55.900272" lon="26.529024">
<ele>113.315491</ele>
<time>2010-06-20T15:53:18Z</time>
<desc>lat.=55.900272, lon.=26.529024, Alt.=113.315491m. Speed=0.576000m/h.</desc>
<speed>0.160000</speed>
</trkpt>
<trkpt lat="55.900272" lon="26.529026">
<ele>113.323303</ele>
<time>2010-06-20T15:53:19Z</time>
<desc>lat.=55.900272, lon.=26.529026, Alt.=113.323303m. Speed=0.504000m/h.</desc>
<speed>0.140000</speed>
</trkpt>
<trkpt lat="55.900272" lon="26.529028">
<ele>113.333069</ele>
<time>2010-06-20T15:53:20Z</time>
<desc>lat.=55.900272, lon.=26.529028, Alt.=113.333069m. Speed=0.468000m/h.</desc>
<speed>0.130000</speed>
</trkpt>
<trkpt lat="55.900269" lon="26.529028">
<ele>113.340881</ele>
<time>2010-06-20T15:53:21Z</time>
<desc>lat.=55.900269, lon.=26.529028, Alt.=113.340881m. Speed=0.432000m/h.</desc>
<speed>0.120000</speed>
</trkpt>
<trkpt lat="55.900269" lon="26.529026">
<ele>113.352600</ele>
<time>2010-06-20T15:53:22Z</time>
<desc>lat.=55.900269, lon.=26.529026, Alt.=113.352600m. Speed=0.756000m/h.</desc>
<speed>0.210000</speed>
</trkpt>
<trkpt lat="55.900269" lon="26.529024">
<ele>113.360413</ele>
<time>2010-06-20T15:53:23Z</time>
<desc>lat.=55.900269, lon.=26.529024, Alt.=113.360413m. Speed=0.180000m/h.</desc>
<speed>0.050000</speed>
</trkpt>
<trkpt lat="55.900269" lon="26.529026">
<ele>113.370178</ele>
<time>2010-06-20T15:53:24Z</time>
<desc>lat.=55.900269, lon.=26.529026, Alt.=113.370178m. Speed=0.684000m/h.</desc>
<speed>0.190000</speed>
</trkpt>
<trkpt lat="55.900265" lon="26.529028">
<ele>113.379944</ele>
<time>2010-06-20T15:53:25Z</time>
<desc>lat.=55.900265, lon.=26.529028, Alt.=113.379944m. Speed=0.576000m/h.</desc>
<speed>0.160000</speed>
</trkpt>
<trkpt lat="55.900265" lon="26.529028">
<ele>113.385803</ele>
<time>2010-06-20T15:53:26Z</time>
<desc>lat.=55.900265, lon.=26.529028, Alt.=113.385803m. Speed=0.936000m/h.</desc>
<speed>0.260000</speed>
</trkpt>
<trkpt lat="55.900265" lon="26.529032">
<ele>113.389709</ele>
<time>2010-06-20T15:53:27Z</time>
<desc>lat.=55.900265, lon.=26.529032, Alt.=113.389709m. Speed=0.972000m/h.</desc>
<speed>0.270000</speed>
</trkpt>
<trkpt lat="55.900261" lon="26.529034">
<ele>113.391663</ele>
<time>2010-06-20T15:53:28Z</time>
<desc>lat.=55.900261, lon.=26.529034, Alt.=113.391663m. Speed=0.900000m/h.</desc>
<speed>0.250000</speed>
</trkpt>
<trkpt lat="55.900261" lon="26.529036">
<ele>113.393616</ele>
<time>2010-06-20T15:53:29Z</time>
<desc>lat.=55.900261, lon.=26.529036, Alt.=113.393616m. Speed=0.180000m/h.</desc>
<speed>0.050000</speed>
</trkpt>
<trkpt lat="55.900261" lon="26.529036">
<ele>113.397522</ele>
<time>2010-06-20T15:53:30Z</time>
<desc>lat.=55.900261, lon.=26.529036, Alt.=113.397522m. Speed=0.108000m/h.</desc>
<speed>0.030000</speed>
</trkpt>
<trkpt lat="55.900261" lon="26.529037">
<ele>113.399475</ele>
<time>2010-06-20T15:53:31Z</time>
<desc>lat.=55.900261, lon.=26.529037, Alt.=113.399475m. Speed=0.432000m/h.</desc>
<speed>0.120000</speed>
</trkpt>
<trkpt lat="55.900261" lon="26.529036">
<ele>113.405334</ele>
<time>2010-06-20T15:53:32Z</time>
<desc>lat.=55.900261, lon.=26.529036, Alt.=113.405334m. Speed=0.432000m/h.</desc>
<speed>0.120000</speed>
</trkpt>
<trkpt lat="55.900261" lon="26.529037">
<ele>113.409241</ele>
<time>2010-06-20T15:53:33Z</time>
<desc>lat.=55.900261, lon.=26.529037, Alt.=113.409241m. Speed=0.972000m/h.</desc>
<speed>0.270000</speed>
</trkpt>
<trkpt lat="55.900265" lon="26.529036">
<ele>113.417053</ele>
<time>2010-06-20T15:53:34Z</time>
<desc>lat.=55.900265, lon.=26.529036, Alt.=113.417053m. Speed=0.828000m/h.</desc>
<speed>0.230000</speed>
</trkpt>
<trkpt lat="55.900269" lon="26.529036">
<ele>113.432678</ele>
<time>2010-06-20T15:53:35Z</time>
<desc>lat.=55.900269, lon.=26.529036, Alt.=113.432678m. Speed=0.864000m/h.</desc>
<speed>0.240000</speed>
</trkpt>
<trkpt lat="55.900269" lon="26.529036">
<ele>113.450256</ele>
<time>2010-06-20T15:53:36Z</time>
<desc>lat.=55.900269, lon.=26.529036, Alt.=113.450256m. Speed=0.540000m/h.</desc>
<speed>0.150000</speed>
</trkpt>
<trkpt lat="55.900269" lon="26.529034">
<ele>113.471741</ele>
<time>2010-06-20T15:53:37Z</time>
<desc>lat.=55.900269, lon.=26.529034, Alt.=113.471741m. Speed=0.396000m/h.</desc>
<speed>0.110000</speed>
</trkpt>
</trkseg>
</trk>
</gpx>